<?xml version="1.0" encoding="UTF-8"?>
<gpx version="1.1" creator="https://www.youtrack.es" xsi:schemaLocation="http://www.topografix.com/GPX/1/1 http://www.topografix.com/GPX/1/1/gpx.xsd http://www.garmin.com/xmlschemas/GpxExtensions/v3 http://www.garmin.com/xmlschemas/GpxExtensionsv3.xsd http://www.garmin.com/xmlschemas/TrackPointExtension/v1 http://www.garmin.com/xmlschemas/TrackPointExtensionv1.xsd" xmlns:gpxtpx="http://www.garmin.com/xmlschemas/TrackPointExtension/v1" xmlns:gpxx="http://www.garmin.com/xmlschemas/GpxExtensions/v3" xmlns:xsi="http://www.w3.org/2001/XMLSchema-instance">
  <metadata>
    <link href="https://www.youtrack.es">
      <text>YouTrack.es</text>
    </link>
    <time>2026-05-09T01:20:27Z</time>
  </metadata>
  <trk>
    <src>https://www.youtrack.es</src>
    <link href="https://www.youtrack.es/ruta/33336-santiago-compostela-2022">
      <text>YouTrack.es</text>
    </link>
    <trkseg>
      <trkpt lat="42.0480050" lon="-8.6458100">
        <ele>49.8</ele>
        <time>2022-06-18T06:03:18Z</time>
      </trkpt>
      <trkpt lat="42.0480050" lon="-8.6458100">
        <ele>49.8</ele>
        <time>2022-06-18T06:03:19Z</time>
      </trkpt>
      <trkpt lat="42.0480050" lon="-8.6458100">
        <ele>49.8</ele>
        <time>2022-06-18T06:03:20Z</time>
      </trkpt>
      <trkpt lat="42.0479210" lon="-8.6457560">
        <ele>50.2</ele>
        <time>2022-06-18T06:03:36Z</time>
      </trkpt>
      <trkpt lat="42.0479110" lon="-8.6457600">
        <ele>50.2</ele>
        <time>2022-06-18T06:03:37Z</time>
      </trkpt>
      <trkpt lat="42.0479050" lon="-8.6457660">
        <ele>50.0</ele>
        <time>2022-06-18T06:03:38Z</time>
      </trkpt>
      <trkpt lat="42.0478910" lon="-8.6457660">
        <ele>50.0</ele>
        <time>2022-06-18T06:03:39Z</time>
      </trkpt>
      <trkpt lat="42.0478700" lon="-8.6457600">
        <ele>50.0</ele>
        <time>2022-06-18T06:03:40Z</time>
      </trkpt>
      <trkpt lat="42.0478510" lon="-8.6457450">
        <ele>49.6</ele>
        <time>2022-06-18T06:03:41Z</time>
      </trkpt>
      <trkpt lat="42.0478330" lon="-8.6457410">
        <ele>49.6</ele>
        <time>2022-06-18T06:03:42Z</time>
      </trkpt>
      <trkpt lat="42.0478080" lon="-8.6457300">
        <ele>49.6</ele>
        <time>2022-06-18T06:03:43Z</time>
      </trkpt>
      <trkpt lat="42.0477860" lon="-8.6457210">
        <ele>49.6</ele>
        <time>2022-06-18T06:03:44Z</time>
      </trkpt>
      <trkpt lat="42.0477660" lon="-8.6457110">
        <ele>49.2</ele>
        <time>2022-06-18T06:03:45Z</time>
      </trkpt>
      <trkpt lat="42.0477560" lon="-8.6457200">
        <ele>49.4</ele>
        <time>2022-06-18T06:03:46Z</time>
      </trkpt>
      <trkpt lat="42.0477380" lon="-8.6457200">
        <ele>49.4</ele>
        <time>2022-06-18T06:03:47Z</time>
      </trkpt>
      <trkpt lat="42.0477200" lon="-8.6457250">
        <ele>49.4</ele>
        <time>2022-06-18T06:03:48Z</time>
      </trkpt>
      <trkpt lat="42.0477060" lon="-8.6457210">
        <ele>49.4</ele>
        <time>2022-06-18T06:03:49Z</time>
      </trkpt>
      <trkpt lat="42.0476880" lon="-8.6457200">
        <ele>49.4</ele>
        <time>2022-06-18T06:03:50Z</time>
      </trkpt>
      <trkpt lat="42.0476650" lon="-8.6457160">
        <ele>49.4</ele>
        <time>2022-06-18T06:03:51Z</time>
      </trkpt>
      <trkpt lat="42.0476510" lon="-8.6457130">
        <ele>49.4</ele>
        <time>2022-06-18T06:03:52Z</time>
      </trkpt>
      <trkpt lat="42.0476430" lon="-8.6457100">
        <ele>49.4</ele>
        <time>2022-06-18T06:03:53Z</time>
      </trkpt>
      <trkpt lat="42.0476230" lon="-8.6457060">
        <ele>49.4</ele>
        <time>2022-06-18T06:03:54Z</time>
      </trkpt>
      <trkpt lat="42.0475980" lon="-8.6457030">
        <ele>49.4</ele>
        <time>2022-06-18T06:03:55Z</time>
      </trkpt>
      <trkpt lat="42.0475800" lon="-8.6456910">
        <ele>49.4</ele>
        <time>2022-06-18T06:03:56Z</time>
      </trkpt>
      <trkpt lat="42.0475610" lon="-8.6456830">
        <ele>49.0</ele>
        <time>2022-06-18T06:03:57Z</time>
      </trkpt>
      <trkpt lat="42.0475330" lon="-8.6456750">
        <ele>49.4</ele>
        <time>2022-06-18T06:03:58Z</time>
      </trkpt>
      <trkpt lat="42.0475010" lon="-8.6456830">
        <ele>49.4</ele>
        <time>2022-06-18T06:03:59Z</time>
      </trkpt>
      <trkpt lat="42.0474760" lon="-8.6456710">
        <ele>49.4</ele>
        <time>2022-06-18T06:04:00Z</time>
      </trkpt>
      <trkpt lat="42.0474480" lon="-8.6456700">
        <ele>49.0</ele>
        <time>2022-06-18T06:04:01Z</time>
      </trkpt>
      <trkpt lat="42.0474300" lon="-8.6456730">
        <ele>49.0</ele>
        <time>2022-06-18T06:04:02Z</time>
      </trkpt>
      <trkpt lat="42.0474100" lon="-8.6456760">
        <ele>49.0</ele>
        <time>2022-06-18T06:04:03Z</time>
      </trkpt>
      <trkpt lat="42.0473880" lon="-8.6456730">
        <ele>49.0</ele>
        <time>2022-06-18T06:04:04Z</time>
      </trkpt>
      <trkpt lat="42.0473650" lon="-8.6456730">
        <ele>48.6</ele>
        <time>2022-06-18T06:04:05Z</time>
      </trkpt>
      <trkpt lat="42.0473430" lon="-8.6456680">
        <ele>48.8</ele>
        <time>2022-06-18T06:04:06Z</time>
      </trkpt>
      <trkpt lat="42.0473300" lon="-8.6456700">
        <ele>48.8</ele>
        <time>2022-06-18T06:04:07Z</time>
      </trkpt>
      <trkpt lat="42.0473130" lon="-8.6456730">
        <ele>48.8</ele>
        <time>2022-06-18T06:04:08Z</time>
      </trkpt>
      <trkpt lat="42.0472900" lon="-8.6456980">
        <ele>48.8</ele>
        <time>2022-06-18T06:04:09Z</time>
      </trkpt>
      <trkpt lat="42.0472650" lon="-8.6457010">
        <ele>48.4</ele>
        <time>2022-06-18T06:04:10Z</time>
      </trkpt>
      <trkpt lat="42.0472330" lon="-8.6457030">
        <ele>48.4</ele>
        <time>2022-06-18T06:04:11Z</time>
      </trkpt>
      <trkpt lat="42.0472100" lon="-8.6457030">
        <ele>48.4</ele>
        <time>2022-06-18T06:04:12Z</time>
      </trkpt>
      <trkpt lat="42.0471850" lon="-8.6457060">
        <ele>48.0</ele>
        <time>2022-06-18T06:04:13Z</time>
      </trkpt>
      <trkpt lat="42.0471610" lon="-8.6457110">
        <ele>48.0</ele>
        <time>2022-06-18T06:04:14Z</time>
      </trkpt>
      <trkpt lat="42.0471450" lon="-8.6457150">
        <ele>48.0</ele>
        <time>2022-06-18T06:04:15Z</time>
      </trkpt>
      <trkpt lat="42.0471330" lon="-8.6457180">
        <ele>48.0</ele>
        <time>2022-06-18T06:04:16Z</time>
      </trkpt>
      <trkpt lat="42.0471200" lon="-8.6457180">
        <ele>47.8</ele>
        <time>2022-06-18T06:04:17Z</time>
      </trkpt>
      <trkpt lat="42.0471050" lon="-8.6457230">
        <ele>47.6</ele>
        <time>2022-06-18T06:04:18Z</time>
      </trkpt>
      <trkpt lat="42.0470960" lon="-8.6457260">
        <ele>47.6</ele>
        <time>2022-06-18T06:04:19Z</time>
      </trkpt>
      <trkpt lat="42.0470950" lon="-8.6457200">
        <ele>47.6</ele>
        <time>2022-06-18T06:04:20Z</time>
      </trkpt>
      <trkpt lat="42.0470810" lon="-8.6457130">
        <ele>47.6</ele>
        <time>2022-06-18T06:04:21Z</time>
      </trkpt>
      <trkpt lat="42.0470810" lon="-8.6457130">
        <ele>47.8</ele>
        <time>2022-06-18T06:04:22Z</time>
      </trkpt>
      <trkpt lat="42.0468330" lon="-8.6458200">
        <ele>43.0</ele>
        <time>2022-06-18T06:05:16Z</time>
      </trkpt>
      <trkpt lat="42.0468400" lon="-8.6458430">
        <ele>42.0</ele>
        <time>2022-06-18T06:05:17Z</time>
      </trkpt>
      <trkpt lat="42.0468430" lon="-8.6458750">
        <ele>41.6</ele>
        <time>2022-06-18T06:05:18Z</time>
      </trkpt>
      <trkpt lat="42.0468550" lon="-8.6459000">
        <ele>41.6</ele>
        <time>2022-06-18T06:05:19Z</time>
      </trkpt>
      <trkpt lat="42.0468680" lon="-8.6459260">
        <ele>41.6</ele>
        <time>2022-06-18T06:05:20Z</time>
      </trkpt>
      <trkpt lat="42.0468960" lon="-8.6459550">
        <ele>41.0</ele>
        <time>2022-06-18T06:05:21Z</time>
      </trkpt>
      <trkpt lat="42.0468910" lon="-8.6459860">
        <ele>41.2</ele>
        <time>2022-06-18T06:05:22Z</time>
      </trkpt>
      <trkpt lat="42.0469050" lon="-8.6460000">
        <ele>41.2</ele>
        <time>2022-06-18T06:05:23Z</time>
      </trkpt>
      <trkpt lat="42.0469250" lon="-8.6460000">
        <ele>41.2</ele>
        <time>2022-06-18T06:05:24Z</time>
      </trkpt>
      <trkpt lat="42.0469460" lon="-8.6460050">
        <ele>40.8</ele>
        <time>2022-06-18T06:05:25Z</time>
      </trkpt>
      <trkpt lat="42.0469710" lon="-8.6460030">
        <ele>41.2</ele>
        <time>2022-06-18T06:05:26Z</time>
      </trkpt>
      <trkpt lat="42.0469900" lon="-8.6460030">
        <ele>41.2</ele>
        <time>2022-06-18T06:05:27Z</time>
      </trkpt>
      <trkpt lat="42.0470060" lon="-8.6460010">
        <ele>41.2</ele>
        <time>2022-06-18T06:05:28Z</time>
      </trkpt>
      <trkpt lat="42.0470260" lon="-8.6460050">
        <ele>41.2</ele>
        <time>2022-06-18T06:05:29Z</time>
      </trkpt>
      <trkpt lat="42.0470450" lon="-8.6460050">
        <ele>41.2</ele>
        <time>2022-06-18T06:05:30Z</time>
      </trkpt>
      <trkpt lat="42.0470650" lon="-8.6460050">
        <ele>41.2</ele>
        <time>2022-06-18T06:05:31Z</time>
      </trkpt>
      <trkpt lat="42.0470830" lon="-8.6460030">
        <ele>41.2</ele>
        <time>2022-06-18T06:05:32Z</time>
      </trkpt>
      <trkpt lat="42.0471010" lon="-8.6460030">
        <ele>41.2</ele>
        <time>2022-06-18T06:05:33Z</time>
      </trkpt>
      <trkpt lat="42.0471180" lon="-8.6460030">
        <ele>41.2</ele>
        <time>2022-06-18T06:05:34Z</time>
      </trkpt>
      <trkpt lat="42.0471380" lon="-8.6460080">
        <ele>41.2</ele>
        <time>2022-06-18T06:05:35Z</time>
      </trkpt>
      <trkpt lat="42.0471610" lon="-8.6460100">
        <ele>41.2</ele>
        <time>2022-06-18T06:05:36Z</time>
      </trkpt>
      <trkpt lat="42.0471800" lon="-8.6460100">
        <ele>41.2</ele>
        <time>2022-06-18T06:05:37Z</time>
      </trkpt>
      <trkpt lat="42.0471980" lon="-8.6460150">
        <ele>41.6</ele>
        <time>2022-06-18T06:05:38Z</time>
      </trkpt>
      <trkpt lat="42.0472210" lon="-8.6460180">
        <ele>41.6</ele>
        <time>2022-06-18T06:05:39Z</time>
      </trkpt>
      <trkpt lat="42.0472450" lon="-8.6460210">
        <ele>41.6</ele>
        <time>2022-06-18T06:05:40Z</time>
      </trkpt>
      <trkpt lat="42.0472700" lon="-8.6460260">
        <ele>41.2</ele>
        <time>2022-06-18T06:05:41Z</time>
      </trkpt>
      <trkpt lat="42.0472900" lon="-8.6460300">
        <ele>41.6</ele>
        <time>2022-06-18T06:05:42Z</time>
      </trkpt>
      <trkpt lat="42.0473100" lon="-8.6460330">
        <ele>41.6</ele>
        <time>2022-06-18T06:05:43Z</time>
      </trkpt>
      <trkpt lat="42.0473330" lon="-8.6460350">
        <ele>41.6</ele>
        <time>2022-06-18T06:05:44Z</time>
      </trkpt>
      <trkpt lat="42.0473510" lon="-8.6460380">
        <ele>41.6</ele>
        <time>2022-06-18T06:05:45Z</time>
      </trkpt>
      <trkpt lat="42.0473700" lon="-8.6460430">
        <ele>41.8</ele>
        <time>2022-06-18T06:05:46Z</time>
      </trkpt>
      <trkpt lat="42.0473850" lon="-8.6460410">
        <ele>41.8</ele>
        <time>2022-06-18T06:05:47Z</time>
      </trkpt>
      <trkpt lat="42.0474000" lon="-8.6460450">
        <ele>41.8</ele>
        <time>2022-06-18T06:05:48Z</time>
      </trkpt>
      <trkpt lat="42.0474210" lon="-8.6460400">
        <ele>41.8</ele>
        <time>2022-06-18T06:05:49Z</time>
      </trkpt>
      <trkpt lat="42.0474380" lon="-8.6460380">
        <ele>41.6</ele>
        <time>2022-06-18T06:05:50Z</time>
      </trkpt>
      <trkpt lat="42.0474630" lon="-8.6460350">
        <ele>41.6</ele>
        <time>2022-06-18T06:05:51Z</time>
      </trkpt>
      <trkpt lat="42.0474830" lon="-8.6460380">
        <ele>41.6</ele>
        <time>2022-06-18T06:05:52Z</time>
      </trkpt>
      <trkpt lat="42.0475010" lon="-8.6460460">
        <ele>41.6</ele>
        <time>2022-06-18T06:05:53Z</time>
      </trkpt>
      <trkpt lat="42.0475210" lon="-8.6460460">
        <ele>41.8</ele>
        <time>2022-06-18T06:05:54Z</time>
      </trkpt>
      <trkpt lat="42.0475430" lon="-8.6460500">
        <ele>41.8</ele>
        <time>2022-06-18T06:05:55Z</time>
      </trkpt>
      <trkpt lat="42.0475630" lon="-8.6460530">
        <ele>41.8</ele>
        <time>2022-06-18T06:05:56Z</time>
      </trkpt>
      <trkpt lat="42.0475810" lon="-8.6460500">
        <ele>41.8</ele>
        <time>2022-06-18T06:05:57Z</time>
      </trkpt>
      <trkpt lat="42.0476000" lon="-8.6460550">
        <ele>41.6</ele>
        <time>2022-06-18T06:05:58Z</time>
      </trkpt>
      <trkpt lat="42.0476160" lon="-8.6460580">
        <ele>41.6</ele>
        <time>2022-06-18T06:05:59Z</time>
      </trkpt>
      <trkpt lat="42.0476330" lon="-8.6460700">
        <ele>41.6</ele>
        <time>2022-06-18T06:06:00Z</time>
      </trkpt>
      <trkpt lat="42.0476480" lon="-8.6460750">
        <ele>41.6</ele>
        <time>2022-06-18T06:06:01Z</time>
      </trkpt>
      <trkpt lat="42.0476600" lon="-8.6460830">
        <ele>41.8</ele>
        <time>2022-06-18T06:06:02Z</time>
      </trkpt>
      <trkpt lat="42.0476700" lon="-8.6460930">
        <ele>41.8</ele>
        <time>2022-06-18T06:06:03Z</time>
      </trkpt>
      <trkpt lat="42.0476780" lon="-8.6461130">
        <ele>41.8</ele>
        <time>2022-06-18T06:06:04Z</time>
      </trkpt>
      <trkpt lat="42.0476860" lon="-8.6461400">
        <ele>41.8</ele>
        <time>2022-06-18T06:06:05Z</time>
      </trkpt>
      <trkpt lat="42.0476910" lon="-8.6461530">
        <ele>42.0</ele>
        <time>2022-06-18T06:06:06Z</time>
      </trkpt>
      <trkpt lat="42.0476950" lon="-8.6461730">
        <ele>42.0</ele>
        <time>2022-06-18T06:06:07Z</time>
      </trkpt>
      <trkpt lat="42.0477050" lon="-8.6461930">
        <ele>42.0</ele>
        <time>2022-06-18T06:06:08Z</time>
      </trkpt>
      <trkpt lat="42.0477130" lon="-8.6462160">
        <ele>42.0</ele>
        <time>2022-06-18T06:06:09Z</time>
      </trkpt>
      <trkpt lat="42.0477130" lon="-8.6462330">
        <ele>42.0</ele>
        <time>2022-06-18T06:06:10Z</time>
      </trkpt>
      <trkpt lat="42.0477060" lon="-8.6462410">
        <ele>42.0</ele>
        <time>2022-06-18T06:06:11Z</time>
      </trkpt>
      <trkpt lat="42.0476930" lon="-8.6462530">
        <ele>42.0</ele>
        <time>2022-06-18T06:06:12Z</time>
      </trkpt>
      <trkpt lat="42.0476750" lon="-8.6462580">
        <ele>41.6</ele>
        <time>2022-06-18T06:06:13Z</time>
      </trkpt>
      <trkpt lat="42.0476530" lon="-8.6462460">
        <ele>41.0</ele>
        <time>2022-06-18T06:06:14Z</time>
      </trkpt>
      <trkpt lat="42.0476330" lon="-8.6462410">
        <ele>41.0</ele>
        <time>2022-06-18T06:06:15Z</time>
      </trkpt>
      <trkpt lat="42.0476100" lon="-8.6462330">
        <ele>41.0</ele>
        <time>2022-06-18T06:06:16Z</time>
      </trkpt>
      <trkpt lat="42.0475830" lon="-8.6462250">
        <ele>41.0</ele>
        <time>2022-06-18T06:06:17Z</time>
      </trkpt>
      <trkpt lat="42.0475560" lon="-8.6462200">
        <ele>40.2</ele>
        <time>2022-06-18T06:06:18Z</time>
      </trkpt>
      <trkpt lat="42.0475140" lon="-8.6462130">
        <ele>40.2</ele>
        <time>2022-06-18T06:06:19Z</time>
      </trkpt>
      <trkpt lat="42.0475010" lon="-8.6462100">
        <ele>40.2</ele>
        <time>2022-06-18T06:06:20Z</time>
      </trkpt>
      <trkpt lat="42.0474750" lon="-8.6462050">
        <ele>40.2</ele>
        <time>2022-06-18T06:06:21Z</time>
      </trkpt>
      <trkpt lat="42.0474360" lon="-8.6461940">
        <ele>39.8</ele>
        <time>2022-06-18T06:06:22Z</time>
      </trkpt>
      <trkpt lat="42.0474210" lon="-8.6461910">
        <ele>39.8</ele>
        <time>2022-06-18T06:06:23Z</time>
      </trkpt>
      <trkpt lat="42.0473900" lon="-8.6461850">
        <ele>39.8</ele>
        <time>2022-06-18T06:06:24Z</time>
      </trkpt>
      <trkpt lat="42.0473650" lon="-8.6461880">
        <ele>39.2</ele>
        <time>2022-06-18T06:06:25Z</time>
      </trkpt>
      <trkpt lat="42.0473330" lon="-8.6461880">
        <ele>39.0</ele>
        <time>2022-06-18T06:06:26Z</time>
      </trkpt>
      <trkpt lat="42.0472930" lon="-8.6461780">
        <ele>39.0</ele>
        <time>2022-06-18T06:06:27Z</time>
      </trkpt>
      <trkpt lat="42.0472600" lon="-8.6461810">
        <ele>39.0</ele>
        <time>2022-06-18T06:06:28Z</time>
      </trkpt>
      <trkpt lat="42.0472250" lon="-8.6461830">
        <ele>39.0</ele>
        <time>2022-06-18T06:06:29Z</time>
      </trkpt>
      <trkpt lat="42.0471690" lon="-8.6461730">
        <ele>38.6</ele>
        <time>2022-06-18T06:06:30Z</time>
      </trkpt>
      <trkpt lat="42.0471550" lon="-8.6461700">
        <ele>38.6</ele>
        <time>2022-06-18T06:06:31Z</time>
      </trkpt>
      <trkpt lat="42.0471050" lon="-8.6461670">
        <ele>38.6</ele>
        <time>2022-06-18T06:06:32Z</time>
      </trkpt>
      <trkpt lat="42.0470830" lon="-8.6461630">
        <ele>39.0</ele>
        <time>2022-06-18T06:06:33Z</time>
      </trkpt>
      <trkpt lat="42.0469960" lon="-8.6461710">
        <ele>38.8</ele>
        <time>2022-06-18T06:06:34Z</time>
      </trkpt>
      <trkpt lat="42.0469610" lon="-8.6461780">
        <ele>38.8</ele>
        <time>2022-06-18T06:06:35Z</time>
      </trkpt>
      <trkpt lat="42.0469110" lon="-8.6461950">
        <ele>38.8</ele>
        <time>2022-06-18T06:06:36Z</time>
      </trkpt>
      <trkpt lat="42.0468730" lon="-8.6462150">
        <ele>38.2</ele>
        <time>2022-06-18T06:06:37Z</time>
      </trkpt>
      <trkpt lat="42.0468400" lon="-8.6462280">
        <ele>38.0</ele>
        <time>2022-06-18T06:06:38Z</time>
      </trkpt>
      <trkpt lat="42.0467920" lon="-8.6462510">
        <ele>38.0</ele>
        <time>2022-06-18T06:06:39Z</time>
      </trkpt>
      <trkpt lat="42.0467750" lon="-8.6462580">
        <ele>38.0</ele>
        <time>2022-06-18T06:06:40Z</time>
      </trkpt>
      <trkpt lat="42.0466980" lon="-8.6462880">
        <ele>37.2</ele>
        <time>2022-06-18T06:06:41Z</time>
      </trkpt>
      <trkpt lat="42.0466750" lon="-8.6462960">
        <ele>36.8</ele>
        <time>2022-06-18T06:06:42Z</time>
      </trkpt>
      <trkpt lat="42.0466090" lon="-8.6463290">
        <ele>36.8</ele>
        <time>2022-06-18T06:06:43Z</time>
      </trkpt>
      <trkpt lat="42.0465880" lon="-8.6463380">
        <ele>36.8</ele>
        <time>2022-06-18T06:06:44Z</time>
      </trkpt>
      <trkpt lat="42.0465460" lon="-8.6463610">
        <ele>35.8</ele>
        <time>2022-06-18T06:06:45Z</time>
      </trkpt>
      <trkpt lat="42.0465030" lon="-8.6463760">
        <ele>34.8</ele>
        <time>2022-06-18T06:06:46Z</time>
      </trkpt>
      <trkpt lat="42.0464530" lon="-8.6463950">
        <ele>34.8</ele>
        <time>2022-06-18T06:06:47Z</time>
      </trkpt>
      <trkpt lat="42.0464030" lon="-8.6464130">
        <ele>34.8</ele>
        <time>2022-06-18T06:06:48Z</time>
      </trkpt>
      <trkpt lat="42.0463510" lon="-8.6464260">
        <ele>33.8</ele>
        <time>2022-06-18T06:06:49Z</time>
      </trkpt>
      <trkpt lat="42.0462930" lon="-8.6464410">
        <ele>33.4</ele>
        <time>2022-06-18T06:06:50Z</time>
      </trkpt>
      <trkpt lat="42.0462410" lon="-8.6464560">
        <ele>33.4</ele>
        <time>2022-06-18T06:06:51Z</time>
      </trkpt>
      <trkpt lat="42.0461880" lon="-8.6464730">
        <ele>33.4</ele>
        <time>2022-06-18T06:06:52Z</time>
      </trkpt>
      <trkpt lat="42.0461410" lon="-8.6464900">
        <ele>32.4</ele>
        <time>2022-06-18T06:06:53Z</time>
      </trkpt>
      <trkpt lat="42.0460950" lon="-8.6465000">
        <ele>32.0</ele>
        <time>2022-06-18T06:06:54Z</time>
      </trkpt>
      <trkpt lat="42.0460480" lon="-8.6465000">
        <ele>32.0</ele>
        <time>2022-06-18T06:06:55Z</time>
      </trkpt>
      <trkpt lat="42.0459710" lon="-8.6464730">
        <ele>32.0</ele>
        <time>2022-06-18T06:06:56Z</time>
      </trkpt>
      <trkpt lat="42.0459480" lon="-8.6464660">
        <ele>31.6</ele>
        <time>2022-06-18T06:06:57Z</time>
      </trkpt>
      <trkpt lat="42.0458980" lon="-8.6464410">
        <ele>31.6</ele>
        <time>2022-06-18T06:06:58Z</time>
      </trkpt>
      <trkpt lat="42.0458610" lon="-8.6464330">
        <ele>31.6</ele>
        <time>2022-06-18T06:06:59Z</time>
      </trkpt>
      <trkpt lat="42.0458180" lon="-8.6464180">
        <ele>31.6</ele>
        <time>2022-06-18T06:07:00Z</time>
      </trkpt>
      <trkpt lat="42.0457710" lon="-8.6463930">
        <ele>30.8</ele>
        <time>2022-06-18T06:07:01Z</time>
      </trkpt>
      <trkpt lat="42.0457250" lon="-8.6463650">
        <ele>31.0</ele>
        <time>2022-06-18T06:07:02Z</time>
      </trkpt>
      <trkpt lat="42.0456730" lon="-8.6463410">
        <ele>31.0</ele>
        <time>2022-06-18T06:07:03Z</time>
      </trkpt>
      <trkpt lat="42.0456260" lon="-8.6463110">
        <ele>31.0</ele>
        <time>2022-06-18T06:07:04Z</time>
      </trkpt>
      <trkpt lat="42.0455760" lon="-8.6462780">
        <ele>31.0</ele>
        <time>2022-06-18T06:07:05Z</time>
      </trkpt>
      <trkpt lat="42.0455010" lon="-8.6462510">
        <ele>31.2</ele>
        <time>2022-06-18T06:07:06Z</time>
      </trkpt>
      <trkpt lat="42.0454760" lon="-8.6462430">
        <ele>31.2</ele>
        <time>2022-06-18T06:07:07Z</time>
      </trkpt>
      <trkpt lat="42.0454230" lon="-8.6462180">
        <ele>31.2</ele>
        <time>2022-06-18T06:07:08Z</time>
      </trkpt>
      <trkpt lat="42.0453630" lon="-8.6461880">
        <ele>30.2</ele>
        <time>2022-06-18T06:07:09Z</time>
      </trkpt>
      <trkpt lat="42.0453030" lon="-8.6461600">
        <ele>28.8</ele>
        <time>2022-06-18T06:07:10Z</time>
      </trkpt>
      <trkpt lat="42.0452410" lon="-8.6461280">
        <ele>28.8</ele>
        <time>2022-06-18T06:07:11Z</time>
      </trkpt>
      <trkpt lat="42.0451750" lon="-8.6460960">
        <ele>28.8</ele>
        <time>2022-06-18T06:07:12Z</time>
      </trkpt>
      <trkpt lat="42.0451030" lon="-8.6460610">
        <ele>27.8</ele>
        <time>2022-06-18T06:07:13Z</time>
      </trkpt>
      <trkpt lat="42.0450330" lon="-8.6460280">
        <ele>26.2</ele>
        <time>2022-06-18T06:07:14Z</time>
      </trkpt>
      <trkpt lat="42.0449580" lon="-8.6459900">
        <ele>26.2</ele>
        <time>2022-06-18T06:07:15Z</time>
      </trkpt>
      <trkpt lat="42.0448810" lon="-8.6459510">
        <ele>26.2</ele>
        <time>2022-06-18T06:07:16Z</time>
      </trkpt>
      <trkpt lat="42.0448010" lon="-8.6459130">
        <ele>25.2</ele>
        <time>2022-06-18T06:07:17Z</time>
      </trkpt>
      <trkpt lat="42.0447200" lon="-8.6458730">
        <ele>23.8</ele>
        <time>2022-06-18T06:07:18Z</time>
      </trkpt>
      <trkpt lat="42.0446360" lon="-8.6458350">
        <ele>23.8</ele>
        <time>2022-06-18T06:07:19Z</time>
      </trkpt>
      <trkpt lat="42.0445480" lon="-8.6457980">
        <ele>23.8</ele>
        <time>2022-06-18T06:07:20Z</time>
      </trkpt>
      <trkpt lat="42.0444600" lon="-8.6457660">
        <ele>22.8</ele>
        <time>2022-06-18T06:07:21Z</time>
      </trkpt>
      <trkpt lat="42.0443710" lon="-8.6457430">
        <ele>21.6</ele>
        <time>2022-06-18T06:07:22Z</time>
      </trkpt>
      <trkpt lat="42.0442800" lon="-8.6457330">
        <ele>21.6</ele>
        <time>2022-06-18T06:07:23Z</time>
      </trkpt>
      <trkpt lat="42.0441850" lon="-8.6457310">
        <ele>21.6</ele>
        <time>2022-06-18T06:07:24Z</time>
      </trkpt>
      <trkpt lat="42.0440900" lon="-8.6457350">
        <ele>20.6</ele>
        <time>2022-06-18T06:07:25Z</time>
      </trkpt>
      <trkpt lat="42.0439980" lon="-8.6457400">
        <ele>18.6</ele>
        <time>2022-06-18T06:07:26Z</time>
      </trkpt>
      <trkpt lat="42.0439100" lon="-8.6457500">
        <ele>18.6</ele>
        <time>2022-06-18T06:07:27Z</time>
      </trkpt>
      <trkpt lat="42.0438230" lon="-8.6457630">
        <ele>18.6</ele>
        <time>2022-06-18T06:07:28Z</time>
      </trkpt>
      <trkpt lat="42.0437360" lon="-8.6457830">
        <ele>19.6</ele>
        <time>2022-06-18T06:07:29Z</time>
      </trkpt>
      <trkpt lat="42.0436550" lon="-8.6458150">
        <ele>19.6</ele>
        <time>2022-06-18T06:07:30Z</time>
      </trkpt>
      <trkpt lat="42.0435800" lon="-8.6458580">
        <ele>19.6</ele>
        <time>2022-06-18T06:07:31Z</time>
      </trkpt>
      <trkpt lat="42.0435100" lon="-8.6459100">
        <ele>19.6</ele>
        <time>2022-06-18T06:07:32Z</time>
      </trkpt>
      <trkpt lat="42.0434460" lon="-8.6459700">
        <ele>20.6</ele>
        <time>2022-06-18T06:07:33Z</time>
      </trkpt>
      <trkpt lat="42.0433910" lon="-8.6460310">
        <ele>21.6</ele>
        <time>2022-06-18T06:07:34Z</time>
      </trkpt>
      <trkpt lat="42.0433250" lon="-8.6461280">
        <ele>21.6</ele>
        <time>2022-06-18T06:07:35Z</time>
      </trkpt>
      <trkpt lat="42.0433060" lon="-8.6461610">
        <ele>21.6</ele>
        <time>2022-06-18T06:07:36Z</time>
      </trkpt>
      <trkpt lat="42.0432700" lon="-8.6462250">
        <ele>21.6</ele>
        <time>2022-06-18T06:07:37Z</time>
      </trkpt>
      <trkpt lat="42.0432360" lon="-8.6462860">
        <ele>22.6</ele>
        <time>2022-06-18T06:07:38Z</time>
      </trkpt>
      <trkpt lat="42.0432080" lon="-8.6463430">
        <ele>22.6</ele>
        <time>2022-06-18T06:07:39Z</time>
      </trkpt>
      <trkpt lat="42.0431810" lon="-8.6463950">
        <ele>22.6</ele>
        <time>2022-06-18T06:07:40Z</time>
      </trkpt>
      <trkpt lat="42.0431580" lon="-8.6464430">
        <ele>22.6</ele>
        <time>2022-06-18T06:07:41Z</time>
      </trkpt>
      <trkpt lat="42.0431240" lon="-8.6465150">
        <ele>23.6</ele>
        <time>2022-06-18T06:07:42Z</time>
      </trkpt>
      <trkpt lat="42.0431130" lon="-8.6465410">
        <ele>23.6</ele>
        <time>2022-06-18T06:07:43Z</time>
      </trkpt>
      <trkpt lat="42.0430900" lon="-8.6465860">
        <ele>23.6</ele>
        <time>2022-06-18T06:07:44Z</time>
      </trkpt>
      <trkpt lat="42.0430680" lon="-8.6466280">
        <ele>24.0</ele>
        <time>2022-06-18T06:07:45Z</time>
      </trkpt>
      <trkpt lat="42.0430410" lon="-8.6466660">
        <ele>24.0</ele>
        <time>2022-06-18T06:07:46Z</time>
      </trkpt>
      <trkpt lat="42.0430110" lon="-8.6467030">
        <ele>24.0</ele>
        <time>2022-06-18T06:07:47Z</time>
      </trkpt>
      <trkpt lat="42.0429860" lon="-8.6467380">
        <ele>24.0</ele>
        <time>2022-06-18T06:07:48Z</time>
      </trkpt>
      <trkpt lat="42.0429660" lon="-8.6467750">
        <ele>24.0</ele>
        <time>2022-06-18T06:07:49Z</time>
      </trkpt>
      <trkpt lat="42.0429500" lon="-8.6468060">
        <ele>24.8</ele>
        <time>2022-06-18T06:07:50Z</time>
      </trkpt>
      <trkpt lat="42.0429330" lon="-8.6468400">
        <ele>24.8</ele>
        <time>2022-06-18T06:07:51Z</time>
      </trkpt>
      <trkpt lat="42.0429160" lon="-8.6468700">
        <ele>24.8</ele>
        <time>2022-06-18T06:07:52Z</time>
      </trkpt>
      <trkpt lat="42.0429000" lon="-8.6468930">
        <ele>24.8</ele>
        <time>2022-06-18T06:07:53Z</time>
      </trkpt>
      <trkpt lat="42.0428800" lon="-8.6469180">
        <ele>25.0</ele>
        <time>2022-06-18T06:07:54Z</time>
      </trkpt>
      <trkpt lat="42.0428600" lon="-8.6469460">
        <ele>25.0</ele>
        <time>2022-06-18T06:07:55Z</time>
      </trkpt>
      <trkpt lat="42.0428280" lon="-8.6469820">
        <ele>25.0</ele>
        <time>2022-06-18T06:07:56Z</time>
      </trkpt>
      <trkpt lat="42.0428150" lon="-8.6469910">
        <ele>25.4</ele>
        <time>2022-06-18T06:07:57Z</time>
      </trkpt>
      <trkpt lat="42.0427860" lon="-8.6470100">
        <ele>25.2</ele>
        <time>2022-06-18T06:07:58Z</time>
      </trkpt>
      <trkpt lat="42.0427650" lon="-8.6470230">
        <ele>25.2</ele>
        <time>2022-06-18T06:07:59Z</time>
      </trkpt>
      <trkpt lat="42.0427410" lon="-8.6470360">
        <ele>25.2</ele>
        <time>2022-06-18T06:08:00Z</time>
      </trkpt>
      <trkpt lat="42.0427090" lon="-8.6470650">
        <ele>25.2</ele>
        <time>2022-06-18T06:08:01Z</time>
      </trkpt>
      <trkpt lat="42.0427000" lon="-8.6470760">
        <ele>26.4</ele>
        <time>2022-06-18T06:08:02Z</time>
      </trkpt>
      <trkpt lat="42.0426800" lon="-8.6470980">
        <ele>26.4</ele>
        <time>2022-06-18T06:08:03Z</time>
      </trkpt>
      <trkpt lat="42.0426600" lon="-8.6471180">
        <ele>26.4</ele>
        <time>2022-06-18T06:08:04Z</time>
      </trkpt>
      <trkpt lat="42.0426400" lon="-8.6471380">
        <ele>25.8</ele>
        <time>2022-06-18T06:08:05Z</time>
      </trkpt>
      <trkpt lat="42.0426180" lon="-8.6471580">
        <ele>25.4</ele>
        <time>2022-06-18T06:08:06Z</time>
      </trkpt>
      <trkpt lat="42.0425960" lon="-8.6471780">
        <ele>25.4</ele>
        <time>2022-06-18T06:08:07Z</time>
      </trkpt>
      <trkpt lat="42.0425780" lon="-8.6471960">
        <ele>25.4</ele>
        <time>2022-06-18T06:08:08Z</time>
      </trkpt>
      <trkpt lat="42.0425650" lon="-8.6472160">
        <ele>25.4</ele>
        <time>2022-06-18T06:08:09Z</time>
      </trkpt>
      <trkpt lat="42.0425450" lon="-8.6472380">
        <ele>26.0</ele>
        <time>2022-06-18T06:08:10Z</time>
      </trkpt>
      <trkpt lat="42.0425450" lon="-8.6472710">
        <ele>26.0</ele>
        <time>2022-06-18T06:08:11Z</time>
      </trkpt>
      <trkpt lat="42.0425330" lon="-8.6473000">
        <ele>26.0</ele>
        <time>2022-06-18T06:08:12Z</time>
      </trkpt>
      <trkpt lat="42.0425150" lon="-8.6473230">
        <ele>26.0</ele>
        <time>2022-06-18T06:08:13Z</time>
      </trkpt>
      <trkpt lat="42.0424950" lon="-8.6473430">
        <ele>26.6</ele>
        <time>2022-06-18T06:08:14Z</time>
      </trkpt>
      <trkpt lat="42.0424710" lon="-8.6473610">
        <ele>26.6</ele>
        <time>2022-06-18T06:08:15Z</time>
      </trkpt>
      <trkpt lat="42.0424600" lon="-8.6473850">
        <ele>26.6</ele>
        <time>2022-06-18T06:08:16Z</time>
      </trkpt>
      <trkpt lat="42.0424400" lon="-8.6474100">
        <ele>26.0</ele>
        <time>2022-06-18T06:08:17Z</time>
      </trkpt>
      <trkpt lat="42.0424130" lon="-8.6474300">
        <ele>26.2</ele>
        <time>2022-06-18T06:08:18Z</time>
      </trkpt>
      <trkpt lat="42.0423900" lon="-8.6474500">
        <ele>26.2</ele>
        <time>2022-06-18T06:08:19Z</time>
      </trkpt>
      <trkpt lat="42.0423600" lon="-8.6474650">
        <ele>26.2</ele>
        <time>2022-06-18T06:08:20Z</time>
      </trkpt>
      <trkpt lat="42.0423300" lon="-8.6474810">
        <ele>26.0</ele>
        <time>2022-06-18T06:08:21Z</time>
      </trkpt>
      <trkpt lat="42.0423010" lon="-8.6474960">
        <ele>26.4</ele>
        <time>2022-06-18T06:08:22Z</time>
      </trkpt>
      <trkpt lat="42.0422710" lon="-8.6475130">
        <ele>26.4</ele>
        <time>2022-06-18T06:08:23Z</time>
      </trkpt>
      <trkpt lat="42.0422400" lon="-8.6475280">
        <ele>26.4</ele>
        <time>2022-06-18T06:08:24Z</time>
      </trkpt>
      <trkpt lat="42.0422130" lon="-8.6475430">
        <ele>25.8</ele>
        <time>2022-06-18T06:08:25Z</time>
      </trkpt>
      <trkpt lat="42.0421860" lon="-8.6475550">
        <ele>25.6</ele>
        <time>2022-06-18T06:08:26Z</time>
      </trkpt>
      <trkpt lat="42.0421650" lon="-8.6475610">
        <ele>25.6</ele>
        <time>2022-06-18T06:08:27Z</time>
      </trkpt>
      <trkpt lat="42.0421400" lon="-8.6475710">
        <ele>25.6</ele>
        <time>2022-06-18T06:08:28Z</time>
      </trkpt>
      <trkpt lat="42.0421130" lon="-8.6475810">
        <ele>25.6</ele>
        <time>2022-06-18T06:08:29Z</time>
      </trkpt>
      <trkpt lat="42.0420860" lon="-8.6475900">
        <ele>25.4</ele>
        <time>2022-06-18T06:08:30Z</time>
      </trkpt>
      <trkpt lat="42.0420600" lon="-8.6475950">
        <ele>25.4</ele>
        <time>2022-06-18T06:08:31Z</time>
      </trkpt>
      <trkpt lat="42.0420330" lon="-8.6476010">
        <ele>25.4</ele>
        <time>2022-06-18T06:08:32Z</time>
      </trkpt>
      <trkpt lat="42.0420000" lon="-8.6476110">
        <ele>25.2</ele>
        <time>2022-06-18T06:08:33Z</time>
      </trkpt>
      <trkpt lat="42.0419660" lon="-8.6476250">
        <ele>25.4</ele>
        <time>2022-06-18T06:08:34Z</time>
      </trkpt>
      <trkpt lat="42.0419380" lon="-8.6476380">
        <ele>25.4</ele>
        <time>2022-06-18T06:08:35Z</time>
      </trkpt>
      <trkpt lat="42.0419060" lon="-8.6476510">
        <ele>25.4</ele>
        <time>2022-06-18T06:08:36Z</time>
      </trkpt>
      <trkpt lat="42.0418800" lon="-8.6476550">
        <ele>25.0</ele>
        <time>2022-06-18T06:08:37Z</time>
      </trkpt>
      <trkpt lat="42.0418460" lon="-8.6476680">
        <ele>24.8</ele>
        <time>2022-06-18T06:08:38Z</time>
      </trkpt>
      <trkpt lat="42.0418200" lon="-8.6476860">
        <ele>24.8</ele>
        <time>2022-06-18T06:08:39Z</time>
      </trkpt>
      <trkpt lat="42.0417860" lon="-8.6477000">
        <ele>24.8</ele>
        <time>2022-06-18T06:08:40Z</time>
      </trkpt>
      <trkpt lat="42.0417340" lon="-8.6477120">
        <ele>24.8</ele>
        <time>2022-06-18T06:08:41Z</time>
      </trkpt>
      <trkpt lat="42.0417180" lon="-8.6477200">
        <ele>24.6</ele>
        <time>2022-06-18T06:08:42Z</time>
      </trkpt>
      <trkpt lat="42.0416900" lon="-8.6477310">
        <ele>24.6</ele>
        <time>2022-06-18T06:08:43Z</time>
      </trkpt>
      <trkpt lat="42.0416610" lon="-8.6477380">
        <ele>24.6</ele>
        <time>2022-06-18T06:08:44Z</time>
      </trkpt>
      <trkpt lat="42.0416450" lon="-8.6477430">
        <ele>24.6</ele>
        <time>2022-06-18T06:08:45Z</time>
      </trkpt>
      <trkpt lat="42.0416230" lon="-8.6477460">
        <ele>25.2</ele>
        <time>2022-06-18T06:08:46Z</time>
      </trkpt>
      <trkpt lat="42.0416010" lon="-8.6477500">
        <ele>25.2</ele>
        <time>2022-06-18T06:08:47Z</time>
      </trkpt>
      <trkpt lat="42.0415830" lon="-8.6477480">
        <ele>25.2</ele>
        <time>2022-06-18T06:08:48Z</time>
      </trkpt>
      <trkpt lat="42.0415700" lon="-8.6477500">
        <ele>25.2</ele>
        <time>2022-06-18T06:08:49Z</time>
      </trkpt>
      <trkpt lat="42.0415560" lon="-8.6477510">
        <ele>25.4</ele>
        <time>2022-06-18T06:08:50Z</time>
      </trkpt>
      <trkpt lat="42.0415400" lon="-8.6477550">
        <ele>25.4</ele>
        <time>2022-06-18T06:08:51Z</time>
      </trkpt>
      <trkpt lat="42.0415300" lon="-8.6477500">
        <ele>25.4</ele>
        <time>2022-06-18T06:08:52Z</time>
      </trkpt>
      <trkpt lat="42.0415200" lon="-8.6477480">
        <ele>25.4</ele>
        <time>2022-06-18T06:08:53Z</time>
      </trkpt>
      <trkpt lat="42.0415130" lon="-8.6477410">
        <ele>25.6</ele>
        <time>2022-06-18T06:08:54Z</time>
      </trkpt>
      <trkpt lat="42.0415130" lon="-8.6477410">
        <ele>25.6</ele>
        <time>2022-06-18T06:08:55Z</time>
      </trkpt>
      <trkpt lat="42.0415130" lon="-8.6477410">
        <ele>25.6</ele>
        <time>2022-06-18T06:08:56Z</time>
      </trkpt>
      <trkpt lat="42.0415260" lon="-8.6477310">
        <ele>25.4</ele>
        <time>2022-06-18T06:09:05Z</time>
      </trkpt>
      <trkpt lat="42.0415280" lon="-8.6477260">
        <ele>25.6</ele>
        <time>2022-06-18T06:09:06Z</time>
      </trkpt>
      <trkpt lat="42.0415280" lon="-8.6477260">
        <ele>25.6</ele>
        <time>2022-06-18T06:09:07Z</time>
      </trkpt>
      <trkpt lat="42.0415400" lon="-8.6477230">
        <ele>25.6</ele>
        <time>2022-06-18T06:09:08Z</time>
      </trkpt>
      <trkpt lat="42.0415400" lon="-8.6477150">
        <ele>25.6</ele>
        <time>2022-06-18T06:09:09Z</time>
      </trkpt>
      <trkpt lat="42.0415410" lon="-8.6477160">
        <ele>25.4</ele>
        <time>2022-06-18T06:09:10Z</time>
      </trkpt>
      <trkpt lat="42.0414980" lon="-8.6477510">
        <ele>24.2</ele>
        <time>2022-06-18T06:34:24Z</time>
      </trkpt>
      <trkpt lat="42.0414900" lon="-8.6477550">
        <ele>24.2</ele>
        <time>2022-06-18T06:34:25Z</time>
      </trkpt>
      <trkpt lat="42.0414800" lon="-8.6477600">
        <ele>24.2</ele>
        <time>2022-06-18T06:34:26Z</time>
      </trkpt>
      <trkpt lat="42.0414800" lon="-8.6477600">
        <ele>24.2</ele>
        <time>2022-06-18T06:34:27Z</time>
      </trkpt>
      <trkpt lat="42.0414530" lon="-8.6477730">
        <ele>24.0</ele>
        <time>2022-06-18T06:34:28Z</time>
      </trkpt>
      <trkpt lat="42.0414400" lon="-8.6477780">
        <ele>24.0</ele>
        <time>2022-06-18T06:34:29Z</time>
      </trkpt>
      <trkpt lat="42.0414230" lon="-8.6477850">
        <ele>24.0</ele>
        <time>2022-06-18T06:34:30Z</time>
      </trkpt>
      <trkpt lat="42.0414000" lon="-8.6477890">
        <ele>24.0</ele>
        <time>2022-06-18T06:34:31Z</time>
      </trkpt>
      <trkpt lat="42.0413950" lon="-8.6477900">
        <ele>24.0</ele>
        <time>2022-06-18T06:34:32Z</time>
      </trkpt>
      <trkpt lat="42.0413900" lon="-8.6477910">
        <ele>24.0</ele>
        <time>2022-06-18T06:34:33Z</time>
      </trkpt>
      <trkpt lat="42.0413510" lon="-8.6478050">
        <ele>24.0</ele>
        <time>2022-06-18T06:34:34Z</time>
      </trkpt>
      <trkpt lat="42.0413280" lon="-8.6478110">
        <ele>24.0</ele>
        <time>2022-06-18T06:34:35Z</time>
      </trkpt>
      <trkpt lat="42.0413100" lon="-8.6478150">
        <ele>23.8</ele>
        <time>2022-06-18T06:34:36Z</time>
      </trkpt>
      <trkpt lat="42.0413100" lon="-8.6478150">
        <ele>23.8</ele>
        <time>2022-06-18T06:34:37Z</time>
      </trkpt>
      <trkpt lat="42.0412700" lon="-8.6478210">
        <ele>23.8</ele>
        <time>2022-06-18T06:34:38Z</time>
      </trkpt>
      <trkpt lat="42.0412430" lon="-8.6478250">
        <ele>23.8</ele>
        <time>2022-06-18T06:34:39Z</time>
      </trkpt>
      <trkpt lat="42.0412160" lon="-8.6478310">
        <ele>23.8</ele>
        <time>2022-06-18T06:34:40Z</time>
      </trkpt>
      <trkpt lat="42.0411880" lon="-8.6478360">
        <ele>23.8</ele>
        <time>2022-06-18T06:34:41Z</time>
      </trkpt>
      <trkpt lat="42.0411880" lon="-8.6478360">
        <ele>23.8</ele>
        <time>2022-06-18T06:34:42Z</time>
      </trkpt>
      <trkpt lat="42.0411330" lon="-8.6478450">
        <ele>23.8</ele>
        <time>2022-06-18T06:34:43Z</time>
      </trkpt>
      <trkpt lat="42.0410980" lon="-8.6478500">
        <ele>23.6</ele>
        <time>2022-06-18T06:34:44Z</time>
      </trkpt>
      <trkpt lat="42.0410680" lon="-8.6478560">
        <ele>23.6</ele>
        <time>2022-06-18T06:34:45Z</time>
      </trkpt>
      <trkpt lat="42.0410410" lon="-8.6478600">
        <ele>23.6</ele>
        <time>2022-06-18T06:34:46Z</time>
      </trkpt>
      <trkpt lat="42.0410160" lon="-8.6478600">
        <ele>24.0</ele>
        <time>2022-06-18T06:34:47Z</time>
      </trkpt>
      <trkpt lat="42.0409910" lon="-8.6478580">
        <ele>24.4</ele>
        <time>2022-06-18T06:34:48Z</time>
      </trkpt>
      <trkpt lat="42.0409660" lon="-8.6478460">
        <ele>24.4</ele>
        <time>2022-06-18T06:34:49Z</time>
      </trkpt>
      <trkpt lat="42.0409660" lon="-8.6478460">
        <ele>24.4</ele>
        <time>2022-06-18T06:34:50Z</time>
      </trkpt>
      <trkpt lat="42.0409410" lon="-8.6477860">
        <ele>24.0</ele>
        <time>2022-06-18T06:34:51Z</time>
      </trkpt>
      <trkpt lat="42.0409410" lon="-8.6477610">
        <ele>24.4</ele>
        <time>2022-06-18T06:34:52Z</time>
      </trkpt>
      <trkpt lat="42.0409450" lon="-8.6477480">
        <ele>24.4</ele>
        <time>2022-06-18T06:34:53Z</time>
      </trkpt>
      <trkpt lat="42.0409450" lon="-8.6477480">
        <ele>24.4</ele>
        <time>2022-06-18T06:34:54Z</time>
      </trkpt>
      <trkpt lat="42.0409330" lon="-8.6477150">
        <ele>24.0</ele>
        <time>2022-06-18T06:35:48Z</time>
      </trkpt>
      <trkpt lat="42.0409350" lon="-8.6476880">
        <ele>24.0</ele>
        <time>2022-06-18T06:35:49Z</time>
      </trkpt>
      <trkpt lat="42.0409300" lon="-8.6476650">
        <ele>24.0</ele>
        <time>2022-06-18T06:35:50Z</time>
      </trkpt>
      <trkpt lat="42.0409230" lon="-8.6476410">
        <ele>24.4</ele>
        <time>2022-06-18T06:35:51Z</time>
      </trkpt>
      <trkpt lat="42.0409180" lon="-8.6476180">
        <ele>24.6</ele>
        <time>2022-06-18T06:35:52Z</time>
      </trkpt>
      <trkpt lat="42.0409160" lon="-8.6475950">
        <ele>24.6</ele>
        <time>2022-06-18T06:35:53Z</time>
      </trkpt>
      <trkpt lat="42.0409100" lon="-8.6475730">
        <ele>24.6</ele>
        <time>2022-06-18T06:35:54Z</time>
      </trkpt>
      <trkpt lat="42.0409030" lon="-8.6475510">
        <ele>24.4</ele>
        <time>2022-06-18T06:35:55Z</time>
      </trkpt>
      <trkpt lat="42.0408930" lon="-8.6475300">
        <ele>24.4</ele>
        <time>2022-06-18T06:35:56Z</time>
      </trkpt>
      <trkpt lat="42.0408850" lon="-8.6475050">
        <ele>24.4</ele>
        <time>2022-06-18T06:35:57Z</time>
      </trkpt>
      <trkpt lat="42.0408730" lon="-8.6474750">
        <ele>24.4</ele>
        <time>2022-06-18T06:35:58Z</time>
      </trkpt>
      <trkpt lat="42.0408610" lon="-8.6474410">
        <ele>23.8</ele>
        <time>2022-06-18T06:35:59Z</time>
      </trkpt>
      <trkpt lat="42.0408500" lon="-8.6474100">
        <ele>24.0</ele>
        <time>2022-06-18T06:36:00Z</time>
      </trkpt>
      <trkpt lat="42.0408400" lon="-8.6473780">
        <ele>24.0</ele>
        <time>2022-06-18T06:36:01Z</time>
      </trkpt>
      <trkpt lat="42.0408310" lon="-8.6473500">
        <ele>24.0</ele>
        <time>2022-06-18T06:36:02Z</time>
      </trkpt>
      <trkpt lat="42.0408200" lon="-8.6473230">
        <ele>24.4</ele>
        <time>2022-06-18T06:36:03Z</time>
      </trkpt>
      <trkpt lat="42.0408080" lon="-8.6472980">
        <ele>24.6</ele>
        <time>2022-06-18T06:36:04Z</time>
      </trkpt>
      <trkpt lat="42.0407960" lon="-8.6472730">
        <ele>24.6</ele>
        <time>2022-06-18T06:36:05Z</time>
      </trkpt>
      <trkpt lat="42.0407850" lon="-8.6472430">
        <ele>24.6</ele>
        <time>2022-06-18T06:36:06Z</time>
      </trkpt>
      <trkpt lat="42.0407750" lon="-8.6472110">
        <ele>24.4</ele>
        <time>2022-06-18T06:36:07Z</time>
      </trkpt>
      <trkpt lat="42.0407630" lon="-8.6471850">
        <ele>24.0</ele>
        <time>2022-06-18T06:36:08Z</time>
      </trkpt>
      <trkpt lat="42.0407550" lon="-8.6471560">
        <ele>24.0</ele>
        <time>2022-06-18T06:36:09Z</time>
      </trkpt>
      <trkpt lat="42.0407460" lon="-8.6471260">
        <ele>24.0</ele>
        <time>2022-06-18T06:36:10Z</time>
      </trkpt>
      <trkpt lat="42.0407360" lon="-8.6470980">
        <ele>24.2</ele>
        <time>2022-06-18T06:36:11Z</time>
      </trkpt>
      <trkpt lat="42.0407280" lon="-8.6470710">
        <ele>24.2</ele>
        <time>2022-06-18T06:36:12Z</time>
      </trkpt>
      <trkpt lat="42.0407180" lon="-8.6470450">
        <ele>24.2</ele>
        <time>2022-06-18T06:36:13Z</time>
      </trkpt>
      <trkpt lat="42.0407080" lon="-8.6470210">
        <ele>24.2</ele>
        <time>2022-06-18T06:36:14Z</time>
      </trkpt>
      <trkpt lat="42.0406980" lon="-8.6469980">
        <ele>24.8</ele>
        <time>2022-06-18T06:36:15Z</time>
      </trkpt>
      <trkpt lat="42.0406860" lon="-8.6469760">
        <ele>24.6</ele>
        <time>2022-06-18T06:36:16Z</time>
      </trkpt>
      <trkpt lat="42.0406730" lon="-8.6469530">
        <ele>24.6</ele>
        <time>2022-06-18T06:36:17Z</time>
      </trkpt>
      <trkpt lat="42.0406600" lon="-8.6469310">
        <ele>24.6</ele>
        <time>2022-06-18T06:36:18Z</time>
      </trkpt>
      <trkpt lat="42.0406460" lon="-8.6469080">
        <ele>25.0</ele>
        <time>2022-06-18T06:36:19Z</time>
      </trkpt>
      <trkpt lat="42.0406350" lon="-8.6468850">
        <ele>25.2</ele>
        <time>2022-06-18T06:36:20Z</time>
      </trkpt>
      <trkpt lat="42.0406260" lon="-8.6468650">
        <ele>25.2</ele>
        <time>2022-06-18T06:36:21Z</time>
      </trkpt>
      <trkpt lat="42.0406210" lon="-8.6468460">
        <ele>25.2</ele>
        <time>2022-06-18T06:36:22Z</time>
      </trkpt>
      <trkpt lat="42.0406150" lon="-8.6468300">
        <ele>25.4</ele>
        <time>2022-06-18T06:36:23Z</time>
      </trkpt>
      <trkpt lat="42.0406080" lon="-8.6468130">
        <ele>25.4</ele>
        <time>2022-06-18T06:36:24Z</time>
      </trkpt>
      <trkpt lat="42.0406060" lon="-8.6467980">
        <ele>25.4</ele>
        <time>2022-06-18T06:36:25Z</time>
      </trkpt>
      <trkpt lat="42.0406010" lon="-8.6467800">
        <ele>25.4</ele>
        <time>2022-06-18T06:36:26Z</time>
      </trkpt>
      <trkpt lat="42.0405930" lon="-8.6467560">
        <ele>26.0</ele>
        <time>2022-06-18T06:36:27Z</time>
      </trkpt>
      <trkpt lat="42.0405830" lon="-8.6467350">
        <ele>26.0</ele>
        <time>2022-06-18T06:36:28Z</time>
      </trkpt>
      <trkpt lat="42.0405730" lon="-8.6467160">
        <ele>26.0</ele>
        <time>2022-06-18T06:36:29Z</time>
      </trkpt>
      <trkpt lat="42.0405660" lon="-8.6466930">
        <ele>26.0</ele>
        <time>2022-06-18T06:36:30Z</time>
      </trkpt>
      <trkpt lat="42.0405580" lon="-8.6466710">
        <ele>26.0</ele>
        <time>2022-06-18T06:36:31Z</time>
      </trkpt>
      <trkpt lat="42.0405480" lon="-8.6466550">
        <ele>26.2</ele>
        <time>2022-06-18T06:36:32Z</time>
      </trkpt>
      <trkpt lat="42.0405410" lon="-8.6466400">
        <ele>26.2</ele>
        <time>2022-06-18T06:36:33Z</time>
      </trkpt>
      <trkpt lat="42.0405360" lon="-8.6466260">
        <ele>26.2</ele>
        <time>2022-06-18T06:36:34Z</time>
      </trkpt>
      <trkpt lat="42.0405280" lon="-8.6466130">
        <ele>26.2</ele>
        <time>2022-06-18T06:36:35Z</time>
      </trkpt>
      <trkpt lat="42.0405230" lon="-8.6466000">
        <ele>26.2</ele>
        <time>2022-06-18T06:36:36Z</time>
      </trkpt>
      <trkpt lat="42.0405180" lon="-8.6465850">
        <ele>26.2</ele>
        <time>2022-06-18T06:36:37Z</time>
      </trkpt>
      <trkpt lat="42.0405100" lon="-8.6465700">
        <ele>26.2</ele>
        <time>2022-06-18T06:36:38Z</time>
      </trkpt>
      <trkpt lat="42.0405000" lon="-8.6465510">
        <ele>26.2</ele>
        <time>2022-06-18T06:36:39Z</time>
      </trkpt>
      <trkpt lat="42.0404900" lon="-8.6465330">
        <ele>26.2</ele>
        <time>2022-06-18T06:36:40Z</time>
      </trkpt>
      <trkpt lat="42.0404800" lon="-8.6465150">
        <ele>26.2</ele>
        <time>2022-06-18T06:36:41Z</time>
      </trkpt>
      <trkpt lat="42.0404710" lon="-8.6464930">
        <ele>26.2</ele>
        <time>2022-06-18T06:36:42Z</time>
      </trkpt>
      <trkpt lat="42.0404610" lon="-8.6464710">
        <ele>26.4</ele>
        <time>2022-06-18T06:36:43Z</time>
      </trkpt>
      <trkpt lat="42.0404530" lon="-8.6464510">
        <ele>26.4</ele>
        <time>2022-06-18T06:36:44Z</time>
      </trkpt>
      <trkpt lat="42.0404460" lon="-8.6464310">
        <ele>26.4</ele>
        <time>2022-06-18T06:36:45Z</time>
      </trkpt>
      <trkpt lat="42.0404380" lon="-8.6464110">
        <ele>26.4</ele>
        <time>2022-06-18T06:36:46Z</time>
      </trkpt>
      <trkpt lat="42.0404250" lon="-8.6463880">
        <ele>26.6</ele>
        <time>2022-06-18T06:36:47Z</time>
      </trkpt>
      <trkpt lat="42.0404110" lon="-8.6463660">
        <ele>26.6</ele>
        <time>2022-06-18T06:36:48Z</time>
      </trkpt>
      <trkpt lat="42.0404010" lon="-8.6463480">
        <ele>26.6</ele>
        <time>2022-06-18T06:36:49Z</time>
      </trkpt>
      <trkpt lat="42.0403910" lon="-8.6463260">
        <ele>26.6</ele>
        <time>2022-06-18T06:36:50Z</time>
      </trkpt>
      <trkpt lat="42.0403860" lon="-8.6463050">
        <ele>26.6</ele>
        <time>2022-06-18T06:36:51Z</time>
      </trkpt>
      <trkpt lat="42.0403810" lon="-8.6462780">
        <ele>26.0</ele>
        <time>2022-06-18T06:36:52Z</time>
      </trkpt>
      <trkpt lat="42.0403730" lon="-8.6462450">
        <ele>26.0</ele>
        <time>2022-06-18T06:36:53Z</time>
      </trkpt>
      <trkpt lat="42.0403650" lon="-8.6462050">
        <ele>26.0</ele>
        <time>2022-06-18T06:36:54Z</time>
      </trkpt>
      <trkpt lat="42.0403600" lon="-8.6461510">
        <ele>26.0</ele>
        <time>2022-06-18T06:36:55Z</time>
      </trkpt>
      <trkpt lat="42.0403630" lon="-8.6461000">
        <ele>25.0</ele>
        <time>2022-06-18T06:36:56Z</time>
      </trkpt>
      <trkpt lat="42.0403710" lon="-8.6460460">
        <ele>25.0</ele>
        <time>2022-06-18T06:36:57Z</time>
      </trkpt>
      <trkpt lat="42.0403810" lon="-8.6459930">
        <ele>25.0</ele>
        <time>2022-06-18T06:36:58Z</time>
      </trkpt>
      <trkpt lat="42.0403930" lon="-8.6459360">
        <ele>24.0</ele>
        <time>2022-06-18T06:36:59Z</time>
      </trkpt>
      <trkpt lat="42.0404050" lon="-8.6458800">
        <ele>23.0</ele>
        <time>2022-06-18T06:37:00Z</time>
      </trkpt>
      <trkpt lat="42.0404200" lon="-8.6458230">
        <ele>23.0</ele>
        <time>2022-06-18T06:37:01Z</time>
      </trkpt>
      <trkpt lat="42.0404330" lon="-8.6457630">
        <ele>23.0</ele>
        <time>2022-06-18T06:37:02Z</time>
      </trkpt>
      <trkpt lat="42.0404500" lon="-8.6457000">
        <ele>22.0</ele>
        <time>2022-06-18T06:37:03Z</time>
      </trkpt>
      <trkpt lat="42.0404700" lon="-8.6456350">
        <ele>19.6</ele>
        <time>2022-06-18T06:37:04Z</time>
      </trkpt>
      <trkpt lat="42.0404930" lon="-8.6455660">
        <ele>19.6</ele>
        <time>2022-06-18T06:37:05Z</time>
      </trkpt>
      <trkpt lat="42.0405150" lon="-8.6454960">
        <ele>19.6</ele>
        <time>2022-06-18T06:37:06Z</time>
      </trkpt>
      <trkpt lat="42.0405260" lon="-8.6454200">
        <ele>18.6</ele>
        <time>2022-06-18T06:37:07Z</time>
      </trkpt>
      <trkpt lat="42.0405210" lon="-8.6453430">
        <ele>15.0</ele>
        <time>2022-06-18T06:37:08Z</time>
      </trkpt>
      <trkpt lat="42.0405050" lon="-8.6452660">
        <ele>15.0</ele>
        <time>2022-06-18T06:37:09Z</time>
      </trkpt>
      <trkpt lat="42.0404760" lon="-8.6451910">
        <ele>15.0</ele>
        <time>2022-06-18T06:37:10Z</time>
      </trkpt>
      <trkpt lat="42.0404430" lon="-8.6451230">
        <ele>15.0</ele>
        <time>2022-06-18T06:37:11Z</time>
      </trkpt>
      <trkpt lat="42.0404100" lon="-8.6450580">
        <ele>14.4</ele>
        <time>2022-06-18T06:37:12Z</time>
      </trkpt>
      <trkpt lat="42.0403800" lon="-8.6449860">
        <ele>14.4</ele>
        <time>2022-06-18T06:37:13Z</time>
      </trkpt>
      <trkpt lat="42.0403480" lon="-8.6449110">
        <ele>14.4</ele>
        <time>2022-06-18T06:37:14Z</time>
      </trkpt>
      <trkpt lat="42.0403180" lon="-8.6448430">
        <ele>13.4</ele>
        <time>2022-06-18T06:37:15Z</time>
      </trkpt>
      <trkpt lat="42.0402930" lon="-8.6447880">
        <ele>13.4</ele>
        <time>2022-06-18T06:37:16Z</time>
      </trkpt>
      <trkpt lat="42.0402660" lon="-8.6447430">
        <ele>13.4</ele>
        <time>2022-06-18T06:37:17Z</time>
      </trkpt>
      <trkpt lat="42.0402500" lon="-8.6447000">
        <ele>13.4</ele>
        <time>2022-06-18T06:37:18Z</time>
      </trkpt>
      <trkpt lat="42.0402480" lon="-8.6446550">
        <ele>13.4</ele>
        <time>2022-06-18T06:37:19Z</time>
      </trkpt>
      <trkpt lat="42.0402600" lon="-8.6446180">
        <ele>14.0</ele>
        <time>2022-06-18T06:37:20Z</time>
      </trkpt>
      <trkpt lat="42.0402810" lon="-8.6445960">
        <ele>14.0</ele>
        <time>2022-06-18T06:37:21Z</time>
      </trkpt>
      <trkpt lat="42.0403060" lon="-8.6445830">
        <ele>14.0</ele>
        <time>2022-06-18T06:37:22Z</time>
      </trkpt>
      <trkpt lat="42.0403330" lon="-8.6445730">
        <ele>14.0</ele>
        <time>2022-06-18T06:37:23Z</time>
      </trkpt>
      <trkpt lat="42.0403560" lon="-8.6445660">
        <ele>14.2</ele>
        <time>2022-06-18T06:37:24Z</time>
      </trkpt>
      <trkpt lat="42.0403800" lon="-8.6445600">
        <ele>14.2</ele>
        <time>2022-06-18T06:37:25Z</time>
      </trkpt>
      <trkpt lat="42.0404030" lon="-8.6445500">
        <ele>14.2</ele>
        <time>2022-06-18T06:37:26Z</time>
      </trkpt>
      <trkpt lat="42.0404260" lon="-8.6445430">
        <ele>14.8</ele>
        <time>2022-06-18T06:37:27Z</time>
      </trkpt>
      <trkpt lat="42.0404450" lon="-8.6445380">
        <ele>15.4</ele>
        <time>2022-06-18T06:37:28Z</time>
      </trkpt>
      <trkpt lat="42.0404610" lon="-8.6445310">
        <ele>15.4</ele>
        <time>2022-06-18T06:37:29Z</time>
      </trkpt>
      <trkpt lat="42.0404800" lon="-8.6445260">
        <ele>15.4</ele>
        <time>2022-06-18T06:37:30Z</time>
      </trkpt>
      <trkpt lat="42.0404980" lon="-8.6445260">
        <ele>16.0</ele>
        <time>2022-06-18T06:37:31Z</time>
      </trkpt>
      <trkpt lat="42.0405110" lon="-8.6445200">
        <ele>16.4</ele>
        <time>2022-06-18T06:37:32Z</time>
      </trkpt>
      <trkpt lat="42.0405300" lon="-8.6445150">
        <ele>16.4</ele>
        <time>2022-06-18T06:37:33Z</time>
      </trkpt>
      <trkpt lat="42.0405480" lon="-8.6445100">
        <ele>16.4</ele>
        <time>2022-06-18T06:37:34Z</time>
      </trkpt>
      <trkpt lat="42.0405680" lon="-8.6445100">
        <ele>16.4</ele>
        <time>2022-06-18T06:37:35Z</time>
      </trkpt>
      <trkpt lat="42.0405850" lon="-8.6445100">
        <ele>16.8</ele>
        <time>2022-06-18T06:37:36Z</time>
      </trkpt>
      <trkpt lat="42.0406010" lon="-8.6445080">
        <ele>16.8</ele>
        <time>2022-06-18T06:37:37Z</time>
      </trkpt>
      <trkpt lat="42.0406300" lon="-8.6445080">
        <ele>16.8</ele>
        <time>2022-06-18T06:37:38Z</time>
      </trkpt>
      <trkpt lat="42.0406500" lon="-8.6445050">
        <ele>16.6</ele>
        <time>2022-06-18T06:37:39Z</time>
      </trkpt>
      <trkpt lat="42.0406700" lon="-8.6444980">
        <ele>16.8</ele>
        <time>2022-06-18T06:37:40Z</time>
      </trkpt>
      <trkpt lat="42.0406950" lon="-8.6444950">
        <ele>16.8</ele>
        <time>2022-06-18T06:37:41Z</time>
      </trkpt>
      <trkpt lat="42.0407210" lon="-8.6444900">
        <ele>16.8</ele>
        <time>2022-06-18T06:37:42Z</time>
      </trkpt>
      <trkpt lat="42.0407410" lon="-8.6444860">
        <ele>16.8</ele>
        <time>2022-06-18T06:37:43Z</time>
      </trkpt>
      <trkpt lat="42.0407610" lon="-8.6444850">
        <ele>16.8</ele>
        <time>2022-06-18T06:37:44Z</time>
      </trkpt>
      <trkpt lat="42.0407810" lon="-8.6444850">
        <ele>16.8</ele>
        <time>2022-06-18T06:37:45Z</time>
      </trkpt>
      <trkpt lat="42.0408010" lon="-8.6444850">
        <ele>16.8</ele>
        <time>2022-06-18T06:37:46Z</time>
      </trkpt>
      <trkpt lat="42.0408200" lon="-8.6444880">
        <ele>16.8</ele>
        <time>2022-06-18T06:37:47Z</time>
      </trkpt>
      <trkpt lat="42.0408430" lon="-8.6444910">
        <ele>16.8</ele>
        <time>2022-06-18T06:37:48Z</time>
      </trkpt>
      <trkpt lat="42.0408650" lon="-8.6444960">
        <ele>16.8</ele>
        <time>2022-06-18T06:37:49Z</time>
      </trkpt>
      <trkpt lat="42.0408830" lon="-8.6445010">
        <ele>16.8</ele>
        <time>2022-06-18T06:37:50Z</time>
      </trkpt>
      <trkpt lat="42.0409000" lon="-8.6445110">
        <ele>16.8</ele>
        <time>2022-06-18T06:37:51Z</time>
      </trkpt>
      <trkpt lat="42.0409180" lon="-8.6445230">
        <ele>16.8</ele>
        <time>2022-06-18T06:37:52Z</time>
      </trkpt>
      <trkpt lat="42.0409380" lon="-8.6445350">
        <ele>16.8</ele>
        <time>2022-06-18T06:37:53Z</time>
      </trkpt>
      <trkpt lat="42.0409560" lon="-8.6445510">
        <ele>16.8</ele>
        <time>2022-06-18T06:37:54Z</time>
      </trkpt>
      <trkpt lat="42.0409760" lon="-8.6445680">
        <ele>16.8</ele>
        <time>2022-06-18T06:37:55Z</time>
      </trkpt>
      <trkpt lat="42.0409960" lon="-8.6445810">
        <ele>17.2</ele>
        <time>2022-06-18T06:37:56Z</time>
      </trkpt>
      <trkpt lat="42.0410180" lon="-8.6445950">
        <ele>17.2</ele>
        <time>2022-06-18T06:37:57Z</time>
      </trkpt>
      <trkpt lat="42.0410380" lon="-8.6446100">
        <ele>17.2</ele>
        <time>2022-06-18T06:37:58Z</time>
      </trkpt>
      <trkpt lat="42.0410550" lon="-8.6446250">
        <ele>17.4</ele>
        <time>2022-06-18T06:37:59Z</time>
      </trkpt>
      <trkpt lat="42.0410730" lon="-8.6446400">
        <ele>17.2</ele>
        <time>2022-06-18T06:38:00Z</time>
      </trkpt>
      <trkpt lat="42.0410900" lon="-8.6446560">
        <ele>17.2</ele>
        <time>2022-06-18T06:38:01Z</time>
      </trkpt>
      <trkpt lat="42.0411080" lon="-8.6446710">
        <ele>17.2</ele>
        <time>2022-06-18T06:38:02Z</time>
      </trkpt>
      <trkpt lat="42.0411230" lon="-8.6446850">
        <ele>17.2</ele>
        <time>2022-06-18T06:38:03Z</time>
      </trkpt>
      <trkpt lat="42.0411400" lon="-8.6446960">
        <ele>17.4</ele>
        <time>2022-06-18T06:38:04Z</time>
      </trkpt>
      <trkpt lat="42.0411560" lon="-8.6447080">
        <ele>17.4</ele>
        <time>2022-06-18T06:38:05Z</time>
      </trkpt>
      <trkpt lat="42.0411710" lon="-8.6447200">
        <ele>17.4</ele>
        <time>2022-06-18T06:38:06Z</time>
      </trkpt>
      <trkpt lat="42.0411850" lon="-8.6447330">
        <ele>18.0</ele>
        <time>2022-06-18T06:38:07Z</time>
      </trkpt>
      <trkpt lat="42.0411980" lon="-8.6447480">
        <ele>18.0</ele>
        <time>2022-06-18T06:38:08Z</time>
      </trkpt>
      <trkpt lat="42.0412150" lon="-8.6447610">
        <ele>18.0</ele>
        <time>2022-06-18T06:38:09Z</time>
      </trkpt>
      <trkpt lat="42.0412310" lon="-8.6447780">
        <ele>18.0</ele>
        <time>2022-06-18T06:38:10Z</time>
      </trkpt>
      <trkpt lat="42.0412510" lon="-8.6447930">
        <ele>18.0</ele>
        <time>2022-06-18T06:38:11Z</time>
      </trkpt>
      <trkpt lat="42.0412710" lon="-8.6448110">
        <ele>18.2</ele>
        <time>2022-06-18T06:38:12Z</time>
      </trkpt>
      <trkpt lat="42.0412830" lon="-8.6448250">
        <ele>18.2</ele>
        <time>2022-06-18T06:38:13Z</time>
      </trkpt>
      <trkpt lat="42.0412980" lon="-8.6448400">
        <ele>18.2</ele>
        <time>2022-06-18T06:38:14Z</time>
      </trkpt>
      <trkpt lat="42.0413130" lon="-8.6448530">
        <ele>19.0</ele>
        <time>2022-06-18T06:38:15Z</time>
      </trkpt>
      <trkpt lat="42.0413280" lon="-8.6448710">
        <ele>18.8</ele>
        <time>2022-06-18T06:38:16Z</time>
      </trkpt>
      <trkpt lat="42.0413400" lon="-8.6448880">
        <ele>18.8</ele>
        <time>2022-06-18T06:38:17Z</time>
      </trkpt>
      <trkpt lat="42.0413530" lon="-8.6449080">
        <ele>18.8</ele>
        <time>2022-06-18T06:38:18Z</time>
      </trkpt>
      <trkpt lat="42.0413660" lon="-8.6449310">
        <ele>19.0</ele>
        <time>2022-06-18T06:38:19Z</time>
      </trkpt>
      <trkpt lat="42.0413760" lon="-8.6449550">
        <ele>19.2</ele>
        <time>2022-06-18T06:38:20Z</time>
      </trkpt>
      <trkpt lat="42.0413900" lon="-8.6449800">
        <ele>19.2</ele>
        <time>2022-06-18T06:38:21Z</time>
      </trkpt>
      <trkpt lat="42.0414010" lon="-8.6450060">
        <ele>19.2</ele>
        <time>2022-06-18T06:38:22Z</time>
      </trkpt>
      <trkpt lat="42.0414110" lon="-8.6450330">
        <ele>19.8</ele>
        <time>2022-06-18T06:38:23Z</time>
      </trkpt>
      <trkpt lat="42.0414200" lon="-8.6450600">
        <ele>19.6</ele>
        <time>2022-06-18T06:38:24Z</time>
      </trkpt>
      <trkpt lat="42.0414330" lon="-8.6450860">
        <ele>19.6</ele>
        <time>2022-06-18T06:38:25Z</time>
      </trkpt>
      <trkpt lat="42.0414460" lon="-8.6451130">
        <ele>19.6</ele>
        <time>2022-06-18T06:38:26Z</time>
      </trkpt>
      <trkpt lat="42.0414580" lon="-8.6451400">
        <ele>19.6</ele>
        <time>2022-06-18T06:38:27Z</time>
      </trkpt>
      <trkpt lat="42.0414680" lon="-8.6451650">
        <ele>19.8</ele>
        <time>2022-06-18T06:38:28Z</time>
      </trkpt>
      <trkpt lat="42.0414780" lon="-8.6451900">
        <ele>19.8</ele>
        <time>2022-06-18T06:38:29Z</time>
      </trkpt>
      <trkpt lat="42.0414910" lon="-8.6452150">
        <ele>19.8</ele>
        <time>2022-06-18T06:38:30Z</time>
      </trkpt>
      <trkpt lat="42.0415010" lon="-8.6452430">
        <ele>20.4</ele>
        <time>2022-06-18T06:38:31Z</time>
      </trkpt>
      <trkpt lat="42.0415150" lon="-8.6452710">
        <ele>20.4</ele>
        <time>2022-06-18T06:38:32Z</time>
      </trkpt>
      <trkpt lat="42.0415250" lon="-8.6452980">
        <ele>20.4</ele>
        <time>2022-06-18T06:38:33Z</time>
      </trkpt>
      <trkpt lat="42.0415360" lon="-8.6453250">
        <ele>20.4</ele>
        <time>2022-06-18T06:38:34Z</time>
      </trkpt>
      <trkpt lat="42.0415450" lon="-8.6453510">
        <ele>20.6</ele>
        <time>2022-06-18T06:38:35Z</time>
      </trkpt>
      <trkpt lat="42.0415550" lon="-8.6453780">
        <ele>21.0</ele>
        <time>2022-06-18T06:38:36Z</time>
      </trkpt>
      <trkpt lat="42.0415650" lon="-8.6454010">
        <ele>21.0</ele>
        <time>2022-06-18T06:38:37Z</time>
      </trkpt>
      <trkpt lat="42.0415760" lon="-8.6454250">
        <ele>21.0</ele>
        <time>2022-06-18T06:38:38Z</time>
      </trkpt>
      <trkpt lat="42.0415900" lon="-8.6454530">
        <ele>20.8</ele>
        <time>2022-06-18T06:38:39Z</time>
      </trkpt>
      <trkpt lat="42.0416010" lon="-8.6454830">
        <ele>20.6</ele>
        <time>2022-06-18T06:38:40Z</time>
      </trkpt>
      <trkpt lat="42.0416100" lon="-8.6455080">
        <ele>20.6</ele>
        <time>2022-06-18T06:38:41Z</time>
      </trkpt>
      <trkpt lat="42.0416180" lon="-8.6455330">
        <ele>20.6</ele>
        <time>2022-06-18T06:38:42Z</time>
      </trkpt>
      <trkpt lat="42.0416250" lon="-8.6455560">
        <ele>21.0</ele>
        <time>2022-06-18T06:38:43Z</time>
      </trkpt>
      <trkpt lat="42.0416310" lon="-8.6455830">
        <ele>21.2</ele>
        <time>2022-06-18T06:38:44Z</time>
      </trkpt>
      <trkpt lat="42.0416410" lon="-8.6456080">
        <ele>21.2</ele>
        <time>2022-06-18T06:38:45Z</time>
      </trkpt>
      <trkpt lat="42.0416500" lon="-8.6456360">
        <ele>21.2</ele>
        <time>2022-06-18T06:38:46Z</time>
      </trkpt>
      <trkpt lat="42.0416550" lon="-8.6456650">
        <ele>21.2</ele>
        <time>2022-06-18T06:38:47Z</time>
      </trkpt>
      <trkpt lat="42.0416600" lon="-8.6456930">
        <ele>21.0</ele>
        <time>2022-06-18T06:38:48Z</time>
      </trkpt>
      <trkpt lat="42.0416630" lon="-8.6457210">
        <ele>21.0</ele>
        <time>2022-06-18T06:38:49Z</time>
      </trkpt>
      <trkpt lat="42.0416680" lon="-8.6457460">
        <ele>21.0</ele>
        <time>2022-06-18T06:38:50Z</time>
      </trkpt>
      <trkpt lat="42.0416710" lon="-8.6457750">
        <ele>21.0</ele>
        <time>2022-06-18T06:38:51Z</time>
      </trkpt>
      <trkpt lat="42.0416760" lon="-8.6458050">
        <ele>21.0</ele>
        <time>2022-06-18T06:38:52Z</time>
      </trkpt>
      <trkpt lat="42.0416830" lon="-8.6458310">
        <ele>21.0</ele>
        <time>2022-06-18T06:38:53Z</time>
      </trkpt>
      <trkpt lat="42.0416880" lon="-8.6458600">
        <ele>21.0</ele>
        <time>2022-06-18T06:38:54Z</time>
      </trkpt>
      <trkpt lat="42.0416910" lon="-8.6458960">
        <ele>20.0</ele>
        <time>2022-06-18T06:38:55Z</time>
      </trkpt>
      <trkpt lat="42.0416930" lon="-8.6459380">
        <ele>20.4</ele>
        <time>2022-06-18T06:38:56Z</time>
      </trkpt>
      <trkpt lat="42.0416910" lon="-8.6459830">
        <ele>20.4</ele>
        <time>2022-06-18T06:38:57Z</time>
      </trkpt>
      <trkpt lat="42.0416880" lon="-8.6460330">
        <ele>20.4</ele>
        <time>2022-06-18T06:38:58Z</time>
      </trkpt>
      <trkpt lat="42.0416780" lon="-8.6460900">
        <ele>19.4</ele>
        <time>2022-06-18T06:38:59Z</time>
      </trkpt>
      <trkpt lat="42.0416660" lon="-8.6461510">
        <ele>18.6</ele>
        <time>2022-06-18T06:39:00Z</time>
      </trkpt>
      <trkpt lat="42.0416580" lon="-8.6462160">
        <ele>18.6</ele>
        <time>2022-06-18T06:39:01Z</time>
      </trkpt>
      <trkpt lat="42.0416530" lon="-8.6462900">
        <ele>18.6</ele>
        <time>2022-06-18T06:39:02Z</time>
      </trkpt>
      <trkpt lat="42.0416650" lon="-8.6463660">
        <ele>17.6</ele>
        <time>2022-06-18T06:39:03Z</time>
      </trkpt>
      <trkpt lat="42.0416910" lon="-8.6464400">
        <ele>16.8</ele>
        <time>2022-06-18T06:39:04Z</time>
      </trkpt>
      <trkpt lat="42.0417350" lon="-8.6465080">
        <ele>16.8</ele>
        <time>2022-06-18T06:39:05Z</time>
      </trkpt>
      <trkpt lat="42.0417850" lon="-8.6465700">
        <ele>16.8</ele>
        <time>2022-06-18T06:39:06Z</time>
      </trkpt>
      <trkpt lat="42.0418450" lon="-8.6466210">
        <ele>15.8</ele>
        <time>2022-06-18T06:39:07Z</time>
      </trkpt>
      <trkpt lat="42.0419100" lon="-8.6466630">
        <ele>14.4</ele>
        <time>2022-06-18T06:39:08Z</time>
      </trkpt>
      <trkpt lat="42.0419710" lon="-8.6467060">
        <ele>14.4</ele>
        <time>2022-06-18T06:39:09Z</time>
      </trkpt>
      <trkpt lat="42.0420280" lon="-8.6467500">
        <ele>14.4</ele>
        <time>2022-06-18T06:39:10Z</time>
      </trkpt>
      <trkpt lat="42.0420850" lon="-8.6467850">
        <ele>14.8</ele>
        <time>2022-06-18T06:39:11Z</time>
      </trkpt>
      <trkpt lat="42.0421410" lon="-8.6468000">
        <ele>14.4</ele>
        <time>2022-06-18T06:39:12Z</time>
      </trkpt>
      <trkpt lat="42.0422010" lon="-8.6467910">
        <ele>14.4</ele>
        <time>2022-06-18T06:39:13Z</time>
      </trkpt>
      <trkpt lat="42.0422580" lon="-8.6467700">
        <ele>14.4</ele>
        <time>2022-06-18T06:39:14Z</time>
      </trkpt>
      <trkpt lat="42.0423160" lon="-8.6467460">
        <ele>14.2</ele>
        <time>2022-06-18T06:39:15Z</time>
      </trkpt>
      <trkpt lat="42.0423750" lon="-8.6467250">
        <ele>13.6</ele>
        <time>2022-06-18T06:39:16Z</time>
      </trkpt>
      <trkpt lat="42.0424310" lon="-8.6467050">
        <ele>13.6</ele>
        <time>2022-06-18T06:39:17Z</time>
      </trkpt>
      <trkpt lat="42.0424880" lon="-8.6466880">
        <ele>13.6</ele>
        <time>2022-06-18T06:39:18Z</time>
      </trkpt>
      <trkpt lat="42.0425410" lon="-8.6466680">
        <ele>13.6</ele>
        <time>2022-06-18T06:39:19Z</time>
      </trkpt>
      <trkpt lat="42.0425950" lon="-8.6466460">
        <ele>14.4</ele>
        <time>2022-06-18T06:39:20Z</time>
      </trkpt>
      <trkpt lat="42.0426500" lon="-8.6466260">
        <ele>14.4</ele>
        <time>2022-06-18T06:39:21Z</time>
      </trkpt>
      <trkpt lat="42.0427000" lon="-8.6466080">
        <ele>14.4</ele>
        <time>2022-06-18T06:39:22Z</time>
      </trkpt>
      <trkpt lat="42.0427500" lon="-8.6465900">
        <ele>14.4</ele>
        <time>2022-06-18T06:39:23Z</time>
      </trkpt>
      <trkpt lat="42.0427980" lon="-8.6465700">
        <ele>14.8</ele>
        <time>2022-06-18T06:39:24Z</time>
      </trkpt>
      <trkpt lat="42.0428430" lon="-8.6465500">
        <ele>14.8</ele>
        <time>2022-06-18T06:39:25Z</time>
      </trkpt>
      <trkpt lat="42.0428800" lon="-8.6465200">
        <ele>14.8</ele>
        <time>2022-06-18T06:39:26Z</time>
      </trkpt>
      <trkpt lat="42.0429130" lon="-8.6464780">
        <ele>14.8</ele>
        <time>2022-06-18T06:39:27Z</time>
      </trkpt>
      <trkpt lat="42.0429410" lon="-8.6464300">
        <ele>14.2</ele>
        <time>2022-06-18T06:39:28Z</time>
      </trkpt>
      <trkpt lat="42.0429660" lon="-8.6463750">
        <ele>14.2</ele>
        <time>2022-06-18T06:39:29Z</time>
      </trkpt>
      <trkpt lat="42.0429930" lon="-8.6463200">
        <ele>14.2</ele>
        <time>2022-06-18T06:39:30Z</time>
      </trkpt>
      <trkpt lat="42.0430180" lon="-8.6462660">
        <ele>14.6</ele>
        <time>2022-06-18T06:39:31Z</time>
      </trkpt>
      <trkpt lat="42.0430450" lon="-8.6462130">
        <ele>14.4</ele>
        <time>2022-06-18T06:39:32Z</time>
      </trkpt>
      <trkpt lat="42.0430730" lon="-8.6461650">
        <ele>14.4</ele>
        <time>2022-06-18T06:39:33Z</time>
      </trkpt>
      <trkpt lat="42.0431050" lon="-8.6461160">
        <ele>14.4</ele>
        <time>2022-06-18T06:39:34Z</time>
      </trkpt>
      <trkpt lat="42.0431330" lon="-8.6460660">
        <ele>14.0</ele>
        <time>2022-06-18T06:39:35Z</time>
      </trkpt>
      <trkpt lat="42.0431610" lon="-8.6460150">
        <ele>14.2</ele>
        <time>2022-06-18T06:39:36Z</time>
      </trkpt>
      <trkpt lat="42.0431910" lon="-8.6459600">
        <ele>14.2</ele>
        <time>2022-06-18T06:39:37Z</time>
      </trkpt>
      <trkpt lat="42.0432230" lon="-8.6459100">
        <ele>14.2</ele>
        <time>2022-06-18T06:39:38Z</time>
      </trkpt>
      <trkpt lat="42.0432530" lon="-8.6458650">
        <ele>14.2</ele>
        <time>2022-06-18T06:39:39Z</time>
      </trkpt>
      <trkpt lat="42.0432830" lon="-8.6458200">
        <ele>14.2</ele>
        <time>2022-06-18T06:39:40Z</time>
      </trkpt>
      <trkpt lat="42.0433130" lon="-8.6457780">
        <ele>14.2</ele>
        <time>2022-06-18T06:39:41Z</time>
      </trkpt>
      <trkpt lat="42.0433430" lon="-8.6457430">
        <ele>14.2</ele>
        <time>2022-06-18T06:39:42Z</time>
      </trkpt>
      <trkpt lat="42.0433760" lon="-8.6457160">
        <ele>14.2</ele>
        <time>2022-06-18T06:39:43Z</time>
      </trkpt>
      <trkpt lat="42.0434110" lon="-8.6456960">
        <ele>14.8</ele>
        <time>2022-06-18T06:39:44Z</time>
      </trkpt>
      <trkpt lat="42.0434460" lon="-8.6456880">
        <ele>14.8</ele>
        <time>2022-06-18T06:39:45Z</time>
      </trkpt>
      <trkpt lat="42.0434830" lon="-8.6456900">
        <ele>14.8</ele>
        <time>2022-06-18T06:39:46Z</time>
      </trkpt>
      <trkpt lat="42.0435160" lon="-8.6456980">
        <ele>15.0</ele>
        <time>2022-06-18T06:39:47Z</time>
      </trkpt>
      <trkpt lat="42.0435460" lon="-8.6457060">
        <ele>15.0</ele>
        <time>2022-06-18T06:39:48Z</time>
      </trkpt>
      <trkpt lat="42.0435730" lon="-8.6457130">
        <ele>15.0</ele>
        <time>2022-06-18T06:39:49Z</time>
      </trkpt>
      <trkpt lat="42.0435950" lon="-8.6457160">
        <ele>15.0</ele>
        <time>2022-06-18T06:39:50Z</time>
      </trkpt>
      <trkpt lat="42.0436110" lon="-8.6457130">
        <ele>15.0</ele>
        <time>2022-06-18T06:39:51Z</time>
      </trkpt>
      <trkpt lat="42.0436210" lon="-8.6456980">
        <ele>14.0</ele>
        <time>2022-06-18T06:39:52Z</time>
      </trkpt>
      <trkpt lat="42.0436260" lon="-8.6456750">
        <ele>14.0</ele>
        <time>2022-06-18T06:39:53Z</time>
      </trkpt>
      <trkpt lat="42.0436350" lon="-8.6456530">
        <ele>14.0</ele>
        <time>2022-06-18T06:39:54Z</time>
      </trkpt>
      <trkpt lat="42.0436400" lon="-8.6456280">
        <ele>15.0</ele>
        <time>2022-06-18T06:39:55Z</time>
      </trkpt>
      <trkpt lat="42.0436460" lon="-8.6455960">
        <ele>15.2</ele>
        <time>2022-06-18T06:39:56Z</time>
      </trkpt>
      <trkpt lat="42.0436510" lon="-8.6455630">
        <ele>15.2</ele>
        <time>2022-06-18T06:39:57Z</time>
      </trkpt>
      <trkpt lat="42.0436460" lon="-8.6455310">
        <ele>15.2</ele>
        <time>2022-06-18T06:39:58Z</time>
      </trkpt>
      <trkpt lat="42.0436410" lon="-8.6454960">
        <ele>15.2</ele>
        <time>2022-06-18T06:39:59Z</time>
      </trkpt>
      <trkpt lat="42.0436360" lon="-8.6454600">
        <ele>15.4</ele>
        <time>2022-06-18T06:40:00Z</time>
      </trkpt>
      <trkpt lat="42.0436310" lon="-8.6454230">
        <ele>15.4</ele>
        <time>2022-06-18T06:40:01Z</time>
      </trkpt>
      <trkpt lat="42.0436310" lon="-8.6453910">
        <ele>15.4</ele>
        <time>2022-06-18T06:40:02Z</time>
      </trkpt>
      <trkpt lat="42.0436350" lon="-8.6453650">
        <ele>16.4</ele>
        <time>2022-06-18T06:40:03Z</time>
      </trkpt>
      <trkpt lat="42.0436300" lon="-8.6453400">
        <ele>17.4</ele>
        <time>2022-06-18T06:40:04Z</time>
      </trkpt>
      <trkpt lat="42.0436300" lon="-8.6453160">
        <ele>17.4</ele>
        <time>2022-06-18T06:40:05Z</time>
      </trkpt>
      <trkpt lat="42.0436380" lon="-8.6452980">
        <ele>17.4</ele>
        <time>2022-06-18T06:40:06Z</time>
      </trkpt>
      <trkpt lat="42.0436460" lon="-8.6452880">
        <ele>17.4</ele>
        <time>2022-06-18T06:40:07Z</time>
      </trkpt>
      <trkpt lat="42.0436710" lon="-8.6452810">
        <ele>17.8</ele>
        <time>2022-06-18T06:40:08Z</time>
      </trkpt>
      <trkpt lat="42.0437080" lon="-8.6452900">
        <ele>17.8</ele>
        <time>2022-06-18T06:40:09Z</time>
      </trkpt>
      <trkpt lat="42.0437300" lon="-8.6452910">
        <ele>17.8</ele>
        <time>2022-06-18T06:40:10Z</time>
      </trkpt>
      <trkpt lat="42.0437500" lon="-8.6452960">
        <ele>18.8</ele>
        <time>2022-06-18T06:40:11Z</time>
      </trkpt>
      <trkpt lat="42.0437660" lon="-8.6453030">
        <ele>18.4</ele>
        <time>2022-06-18T06:40:12Z</time>
      </trkpt>
      <trkpt lat="42.0437760" lon="-8.6453080">
        <ele>18.4</ele>
        <time>2022-06-18T06:40:13Z</time>
      </trkpt>
      <trkpt lat="42.0437900" lon="-8.6453130">
        <ele>18.4</ele>
        <time>2022-06-18T06:40:14Z</time>
      </trkpt>
      <trkpt lat="42.0438080" lon="-8.6453160">
        <ele>18.4</ele>
        <time>2022-06-18T06:40:15Z</time>
      </trkpt>
      <trkpt lat="42.0438180" lon="-8.6453210">
        <ele>18.8</ele>
        <time>2022-06-18T06:40:16Z</time>
      </trkpt>
      <trkpt lat="42.0438360" lon="-8.6453300">
        <ele>18.8</ele>
        <time>2022-06-18T06:40:17Z</time>
      </trkpt>
      <trkpt lat="42.0438580" lon="-8.6453310">
        <ele>18.8</ele>
        <time>2022-06-18T06:40:18Z</time>
      </trkpt>
      <trkpt lat="42.0438750" lon="-8.6453400">
        <ele>18.8</ele>
        <time>2022-06-18T06:40:19Z</time>
      </trkpt>
      <trkpt lat="42.0439010" lon="-8.6453460">
        <ele>18.6</ele>
        <time>2022-06-18T06:40:20Z</time>
      </trkpt>
      <trkpt lat="42.0439210" lon="-8.6453600">
        <ele>18.6</ele>
        <time>2022-06-18T06:40:21Z</time>
      </trkpt>
      <trkpt lat="42.0439300" lon="-8.6453660">
        <ele>18.6</ele>
        <time>2022-06-18T06:40:22Z</time>
      </trkpt>
      <trkpt lat="42.0439330" lon="-8.6453710">
        <ele>19.6</ele>
        <time>2022-06-18T06:40:23Z</time>
      </trkpt>
      <trkpt lat="42.0439500" lon="-8.6453700">
        <ele>19.4</ele>
        <time>2022-06-18T06:40:31Z</time>
      </trkpt>
      <trkpt lat="42.0439610" lon="-8.6453660">
        <ele>19.4</ele>
        <time>2022-06-18T06:40:32Z</time>
      </trkpt>
      <trkpt lat="42.0439980" lon="-8.6453680">
        <ele>19.4</ele>
        <time>2022-06-18T06:40:33Z</time>
      </trkpt>
      <trkpt lat="42.0440100" lon="-8.6453680">
        <ele>19.4</ele>
        <time>2022-06-18T06:40:34Z</time>
      </trkpt>
      <trkpt lat="42.0440150" lon="-8.6453830">
        <ele>19.4</ele>
        <time>2022-06-18T06:40:35Z</time>
      </trkpt>
      <trkpt lat="42.0440150" lon="-8.6453880">
        <ele>19.6</ele>
        <time>2022-06-18T06:40:36Z</time>
      </trkpt>
      <trkpt lat="42.0440280" lon="-8.6453380">
        <ele>19.8</ele>
        <time>2022-06-18T06:41:28Z</time>
      </trkpt>
      <trkpt lat="42.0440330" lon="-8.6453400">
        <ele>19.8</ele>
        <time>2022-06-18T06:41:29Z</time>
      </trkpt>
      <trkpt lat="42.0440330" lon="-8.6453400">
        <ele>19.8</ele>
        <time>2022-06-18T06:41:30Z</time>
      </trkpt>
      <trkpt lat="42.0440410" lon="-8.6452580">
        <ele>20.2</ele>
        <time>2022-06-18T06:43:26Z</time>
      </trkpt>
      <trkpt lat="42.0440680" lon="-8.6452730">
        <ele>19.6</ele>
        <time>2022-06-18T06:43:27Z</time>
      </trkpt>
      <trkpt lat="42.0440850" lon="-8.6452850">
        <ele>19.4</ele>
        <time>2022-06-18T06:43:28Z</time>
      </trkpt>
      <trkpt lat="42.0441010" lon="-8.6452960">
        <ele>19.4</ele>
        <time>2022-06-18T06:43:29Z</time>
      </trkpt>
      <trkpt lat="42.0441150" lon="-8.6453030">
        <ele>19.4</ele>
        <time>2022-06-18T06:43:30Z</time>
      </trkpt>
      <trkpt lat="42.0441300" lon="-8.6453460">
        <ele>19.4</ele>
        <time>2022-06-18T06:43:31Z</time>
      </trkpt>
      <trkpt lat="42.0441530" lon="-8.6453580">
        <ele>19.4</ele>
        <time>2022-06-18T06:43:32Z</time>
      </trkpt>
      <trkpt lat="42.0441730" lon="-8.6453660">
        <ele>19.4</ele>
        <time>2022-06-18T06:43:33Z</time>
      </trkpt>
      <trkpt lat="42.0441900" lon="-8.6453730">
        <ele>19.4</ele>
        <time>2022-06-18T06:43:34Z</time>
      </trkpt>
      <trkpt lat="42.0442080" lon="-8.6453780">
        <ele>19.4</ele>
        <time>2022-06-18T06:43:35Z</time>
      </trkpt>
      <trkpt lat="42.0442210" lon="-8.6453860">
        <ele>19.6</ele>
        <time>2022-06-18T06:43:36Z</time>
      </trkpt>
      <trkpt lat="42.0442350" lon="-8.6453980">
        <ele>19.6</ele>
        <time>2022-06-18T06:43:37Z</time>
      </trkpt>
      <trkpt lat="42.0442500" lon="-8.6454060">
        <ele>19.6</ele>
        <time>2022-06-18T06:43:38Z</time>
      </trkpt>
      <trkpt lat="42.0442700" lon="-8.6454200">
        <ele>20.2</ele>
        <time>2022-06-18T06:43:39Z</time>
      </trkpt>
      <trkpt lat="42.0442900" lon="-8.6454350">
        <ele>20.4</ele>
        <time>2022-06-18T06:43:40Z</time>
      </trkpt>
      <trkpt lat="42.0443100" lon="-8.6454450">
        <ele>20.4</ele>
        <time>2022-06-18T06:43:41Z</time>
      </trkpt>
      <trkpt lat="42.0443250" lon="-8.6454560">
        <ele>20.4</ele>
        <time>2022-06-18T06:43:42Z</time>
      </trkpt>
      <trkpt lat="42.0443400" lon="-8.6454760">
        <ele>20.4</ele>
        <time>2022-06-18T06:43:43Z</time>
      </trkpt>
      <trkpt lat="42.0443510" lon="-8.6454830">
        <ele>20.2</ele>
        <time>2022-06-18T06:43:44Z</time>
      </trkpt>
      <trkpt lat="42.0443800" lon="-8.6455100">
        <ele>20.2</ele>
        <time>2022-06-18T06:43:45Z</time>
      </trkpt>
      <trkpt lat="42.0444010" lon="-8.6455330">
        <ele>20.2</ele>
        <time>2022-06-18T06:43:46Z</time>
      </trkpt>
      <trkpt lat="42.0444250" lon="-8.6455500">
        <ele>21.2</ele>
        <time>2022-06-18T06:43:47Z</time>
      </trkpt>
      <trkpt lat="42.0444450" lon="-8.6455780">
        <ele>21.4</ele>
        <time>2022-06-18T06:43:48Z</time>
      </trkpt>
      <trkpt lat="42.0444600" lon="-8.6455980">
        <ele>21.4</ele>
        <time>2022-06-18T06:43:49Z</time>
      </trkpt>
      <trkpt lat="42.0444810" lon="-8.6456150">
        <ele>21.4</ele>
        <time>2022-06-18T06:43:50Z</time>
      </trkpt>
      <trkpt lat="42.0445050" lon="-8.6456260">
        <ele>22.4</ele>
        <time>2022-06-18T06:43:51Z</time>
      </trkpt>
      <trkpt lat="42.0445260" lon="-8.6456410">
        <ele>23.2</ele>
        <time>2022-06-18T06:43:52Z</time>
      </trkpt>
      <trkpt lat="42.0445460" lon="-8.6456560">
        <ele>23.2</ele>
        <time>2022-06-18T06:43:53Z</time>
      </trkpt>
      <trkpt lat="42.0445650" lon="-8.6456730">
        <ele>23.2</ele>
        <time>2022-06-18T06:43:54Z</time>
      </trkpt>
      <trkpt lat="42.0445910" lon="-8.6456810">
        <ele>23.2</ele>
        <time>2022-06-18T06:43:55Z</time>
      </trkpt>
      <trkpt lat="42.0446130" lon="-8.6456910">
        <ele>24.0</ele>
        <time>2022-06-18T06:43:56Z</time>
      </trkpt>
      <trkpt lat="42.0446310" lon="-8.6456980">
        <ele>24.0</ele>
        <time>2022-06-18T06:43:57Z</time>
      </trkpt>
      <trkpt lat="42.0446450" lon="-8.6457050">
        <ele>24.0</ele>
        <time>2022-06-18T06:43:58Z</time>
      </trkpt>
      <trkpt lat="42.0446600" lon="-8.6457060">
        <ele>24.4</ele>
        <time>2022-06-18T06:43:59Z</time>
      </trkpt>
      <trkpt lat="42.0446750" lon="-8.6457100">
        <ele>24.4</ele>
        <time>2022-06-18T06:44:00Z</time>
      </trkpt>
      <trkpt lat="42.0446950" lon="-8.6457110">
        <ele>24.4</ele>
        <time>2022-06-18T06:44:01Z</time>
      </trkpt>
      <trkpt lat="42.0447150" lon="-8.6457100">
        <ele>24.4</ele>
        <time>2022-06-18T06:44:02Z</time>
      </trkpt>
      <trkpt lat="42.0447330" lon="-8.6457050">
        <ele>25.0</ele>
        <time>2022-06-18T06:44:03Z</time>
      </trkpt>
      <trkpt lat="42.0447480" lon="-8.6456960">
        <ele>25.0</ele>
        <time>2022-06-18T06:44:04Z</time>
      </trkpt>
      <trkpt lat="42.0447600" lon="-8.6456880">
        <ele>25.0</ele>
        <time>2022-06-18T06:44:05Z</time>
      </trkpt>
      <trkpt lat="42.0447730" lon="-8.6456780">
        <ele>25.0</ele>
        <time>2022-06-18T06:44:06Z</time>
      </trkpt>
      <trkpt lat="42.0447930" lon="-8.6456680">
        <ele>25.0</ele>
        <time>2022-06-18T06:44:07Z</time>
      </trkpt>
      <trkpt lat="42.0448100" lon="-8.6456600">
        <ele>25.6</ele>
        <time>2022-06-18T06:44:08Z</time>
      </trkpt>
      <trkpt lat="42.0448180" lon="-8.6456550">
        <ele>25.6</ele>
        <time>2022-06-18T06:44:09Z</time>
      </trkpt>
      <trkpt lat="42.0448250" lon="-8.6456450">
        <ele>25.6</ele>
        <time>2022-06-18T06:44:10Z</time>
      </trkpt>
      <trkpt lat="42.0448330" lon="-8.6456380">
        <ele>26.4</ele>
        <time>2022-06-18T06:44:11Z</time>
      </trkpt>
      <trkpt lat="42.0448460" lon="-8.6456330">
        <ele>26.8</ele>
        <time>2022-06-18T06:44:12Z</time>
      </trkpt>
      <trkpt lat="42.0448580" lon="-8.6456210">
        <ele>26.8</ele>
        <time>2022-06-18T06:44:13Z</time>
      </trkpt>
      <trkpt lat="42.0448700" lon="-8.6456180">
        <ele>26.8</ele>
        <time>2022-06-18T06:44:14Z</time>
      </trkpt>
      <trkpt lat="42.0448780" lon="-8.6456150">
        <ele>26.8</ele>
        <time>2022-06-18T06:44:15Z</time>
      </trkpt>
      <trkpt lat="42.0448900" lon="-8.6456100">
        <ele>27.6</ele>
        <time>2022-06-18T06:44:16Z</time>
      </trkpt>
      <trkpt lat="42.0449030" lon="-8.6456030">
        <ele>27.6</ele>
        <time>2022-06-18T06:44:17Z</time>
      </trkpt>
      <trkpt lat="42.0449180" lon="-8.6456000">
        <ele>27.6</ele>
        <time>2022-06-18T06:44:18Z</time>
      </trkpt>
      <trkpt lat="42.0449300" lon="-8.6455960">
        <ele>28.4</ele>
        <time>2022-06-18T06:44:19Z</time>
      </trkpt>
      <trkpt lat="42.0449450" lon="-8.6455910">
        <ele>28.0</ele>
        <time>2022-06-18T06:44:20Z</time>
      </trkpt>
      <trkpt lat="42.0449610" lon="-8.6455850">
        <ele>28.0</ele>
        <time>2022-06-18T06:44:21Z</time>
      </trkpt>
      <trkpt lat="42.0449760" lon="-8.6455810">
        <ele>28.0</ele>
        <time>2022-06-18T06:44:22Z</time>
      </trkpt>
      <trkpt lat="42.0449900" lon="-8.6455810">
        <ele>28.8</ele>
        <time>2022-06-18T06:44:23Z</time>
      </trkpt>
      <trkpt lat="42.0450030" lon="-8.6455760">
        <ele>29.2</ele>
        <time>2022-06-18T06:44:24Z</time>
      </trkpt>
      <trkpt lat="42.0450200" lon="-8.6455700">
        <ele>29.2</ele>
        <time>2022-06-18T06:44:25Z</time>
      </trkpt>
      <trkpt lat="42.0450310" lon="-8.6455630">
        <ele>29.2</ele>
        <time>2022-06-18T06:44:26Z</time>
      </trkpt>
      <trkpt lat="42.0450400" lon="-8.6455610">
        <ele>30.2</ele>
        <time>2022-06-18T06:44:27Z</time>
      </trkpt>
      <trkpt lat="42.0450510" lon="-8.6455610">
        <ele>30.4</ele>
        <time>2022-06-18T06:44:28Z</time>
      </trkpt>
      <trkpt lat="42.0450630" lon="-8.6455580">
        <ele>30.4</ele>
        <time>2022-06-18T06:44:29Z</time>
      </trkpt>
      <trkpt lat="42.0450760" lon="-8.6455410">
        <ele>30.4</ele>
        <time>2022-06-18T06:44:30Z</time>
      </trkpt>
      <trkpt lat="42.0450760" lon="-8.6455160">
        <ele>31.4</ele>
        <time>2022-06-18T06:44:31Z</time>
      </trkpt>
      <trkpt lat="42.0450810" lon="-8.6454980">
        <ele>32.0</ele>
        <time>2022-06-18T06:44:32Z</time>
      </trkpt>
      <trkpt lat="42.0450850" lon="-8.6454830">
        <ele>32.0</ele>
        <time>2022-06-18T06:44:33Z</time>
      </trkpt>
      <trkpt lat="42.0450800" lon="-8.6454550">
        <ele>32.0</ele>
        <time>2022-06-18T06:44:34Z</time>
      </trkpt>
      <trkpt lat="42.0450810" lon="-8.6454330">
        <ele>32.0</ele>
        <time>2022-06-18T06:44:35Z</time>
      </trkpt>
      <trkpt lat="42.0450750" lon="-8.6454110">
        <ele>32.6</ele>
        <time>2022-06-18T06:44:36Z</time>
      </trkpt>
      <trkpt lat="42.0450660" lon="-8.6453900">
        <ele>32.6</ele>
        <time>2022-06-18T06:44:37Z</time>
      </trkpt>
      <trkpt lat="42.0450580" lon="-8.6453710">
        <ele>32.6</ele>
        <time>2022-06-18T06:44:38Z</time>
      </trkpt>
      <trkpt lat="42.0450530" lon="-8.6453550">
        <ele>32.6</ele>
        <time>2022-06-18T06:44:39Z</time>
      </trkpt>
      <trkpt lat="42.0450450" lon="-8.6453350">
        <ele>32.6</ele>
        <time>2022-06-18T06:44:40Z</time>
      </trkpt>
      <trkpt lat="42.0450350" lon="-8.6453150">
        <ele>32.6</ele>
        <time>2022-06-18T06:44:41Z</time>
      </trkpt>
      <trkpt lat="42.0450260" lon="-8.6452980">
        <ele>32.6</ele>
        <time>2022-06-18T06:44:42Z</time>
      </trkpt>
      <trkpt lat="42.0450180" lon="-8.6452810">
        <ele>33.4</ele>
        <time>2022-06-18T06:44:43Z</time>
      </trkpt>
      <trkpt lat="42.0450100" lon="-8.6452610">
        <ele>33.8</ele>
        <time>2022-06-18T06:44:44Z</time>
      </trkpt>
      <trkpt lat="42.0450030" lon="-8.6452430">
        <ele>33.8</ele>
        <time>2022-06-18T06:44:45Z</time>
      </trkpt>
      <trkpt lat="42.0449980" lon="-8.6452280">
        <ele>33.8</ele>
        <time>2022-06-18T06:44:46Z</time>
      </trkpt>
      <trkpt lat="42.0449910" lon="-8.6452150">
        <ele>33.8</ele>
        <time>2022-06-18T06:44:47Z</time>
      </trkpt>
      <trkpt lat="42.0449860" lon="-8.6452000">
        <ele>33.8</ele>
        <time>2022-06-18T06:44:48Z</time>
      </trkpt>
      <trkpt lat="42.0449830" lon="-8.6451830">
        <ele>33.8</ele>
        <time>2022-06-18T06:44:49Z</time>
      </trkpt>
      <trkpt lat="42.0449800" lon="-8.6451650">
        <ele>33.8</ele>
        <time>2022-06-18T06:44:50Z</time>
      </trkpt>
      <trkpt lat="42.0449780" lon="-8.6451480">
        <ele>34.2</ele>
        <time>2022-06-18T06:44:51Z</time>
      </trkpt>
      <trkpt lat="42.0449730" lon="-8.6451330">
        <ele>34.2</ele>
        <time>2022-06-18T06:44:52Z</time>
      </trkpt>
      <trkpt lat="42.0449680" lon="-8.6451160">
        <ele>34.2</ele>
        <time>2022-06-18T06:44:53Z</time>
      </trkpt>
      <trkpt lat="42.0449680" lon="-8.6451000">
        <ele>34.2</ele>
        <time>2022-06-18T06:44:54Z</time>
      </trkpt>
      <trkpt lat="42.0449630" lon="-8.6450810">
        <ele>34.8</ele>
        <time>2022-06-18T06:44:55Z</time>
      </trkpt>
      <trkpt lat="42.0449580" lon="-8.6450650">
        <ele>34.4</ele>
        <time>2022-06-18T06:44:56Z</time>
      </trkpt>
      <trkpt lat="42.0449500" lon="-8.6450480">
        <ele>34.4</ele>
        <time>2022-06-18T06:44:57Z</time>
      </trkpt>
      <trkpt lat="42.0449400" lon="-8.6450310">
        <ele>34.4</ele>
        <time>2022-06-18T06:44:58Z</time>
      </trkpt>
      <trkpt lat="42.0449310" lon="-8.6450150">
        <ele>35.2</ele>
        <time>2022-06-18T06:44:59Z</time>
      </trkpt>
      <trkpt lat="42.0449250" lon="-8.6450000">
        <ele>34.6</ele>
        <time>2022-06-18T06:45:00Z</time>
      </trkpt>
      <trkpt lat="42.0449200" lon="-8.6449830">
        <ele>34.6</ele>
        <time>2022-06-18T06:45:01Z</time>
      </trkpt>
      <trkpt lat="42.0449100" lon="-8.6449660">
        <ele>34.6</ele>
        <time>2022-06-18T06:45:02Z</time>
      </trkpt>
      <trkpt lat="42.0449010" lon="-8.6449530">
        <ele>35.2</ele>
        <time>2022-06-18T06:45:03Z</time>
      </trkpt>
      <trkpt lat="42.0448930" lon="-8.6449410">
        <ele>35.6</ele>
        <time>2022-06-18T06:45:04Z</time>
      </trkpt>
      <trkpt lat="42.0448880" lon="-8.6449260">
        <ele>35.6</ele>
        <time>2022-06-18T06:45:05Z</time>
      </trkpt>
      <trkpt lat="42.0448830" lon="-8.6449110">
        <ele>35.6</ele>
        <time>2022-06-18T06:45:06Z</time>
      </trkpt>
      <trkpt lat="42.0448730" lon="-8.6448980">
        <ele>35.6</ele>
        <time>2022-06-18T06:45:07Z</time>
      </trkpt>
      <trkpt lat="42.0448650" lon="-8.6448800">
        <ele>36.4</ele>
        <time>2022-06-18T06:45:08Z</time>
      </trkpt>
      <trkpt lat="42.0448550" lon="-8.6448610">
        <ele>36.4</ele>
        <time>2022-06-18T06:45:09Z</time>
      </trkpt>
      <trkpt lat="42.0448500" lon="-8.6448430">
        <ele>36.4</ele>
        <time>2022-06-18T06:45:10Z</time>
      </trkpt>
      <trkpt lat="42.0448460" lon="-8.6448210">
        <ele>36.2</ele>
        <time>2022-06-18T06:45:11Z</time>
      </trkpt>
      <trkpt lat="42.0448430" lon="-8.6448010">
        <ele>36.4</ele>
        <time>2022-06-18T06:45:12Z</time>
      </trkpt>
      <trkpt lat="42.0448400" lon="-8.6447830">
        <ele>36.4</ele>
        <time>2022-06-18T06:45:13Z</time>
      </trkpt>
      <trkpt lat="42.0448400" lon="-8.6447600">
        <ele>36.4</ele>
        <time>2022-06-18T06:45:14Z</time>
      </trkpt>
      <trkpt lat="42.0448360" lon="-8.6447450">
        <ele>36.6</ele>
        <time>2022-06-18T06:45:15Z</time>
      </trkpt>
      <trkpt lat="42.0448360" lon="-8.6447260">
        <ele>36.6</ele>
        <time>2022-06-18T06:45:16Z</time>
      </trkpt>
      <trkpt lat="42.0448380" lon="-8.6447100">
        <ele>36.6</ele>
        <time>2022-06-18T06:45:17Z</time>
      </trkpt>
      <trkpt lat="42.0448400" lon="-8.6446960">
        <ele>36.6</ele>
        <time>2022-06-18T06:45:18Z</time>
      </trkpt>
      <trkpt lat="42.0448450" lon="-8.6446800">
        <ele>37.2</ele>
        <time>2022-06-18T06:45:19Z</time>
      </trkpt>
      <trkpt lat="42.0448480" lon="-8.6446680">
        <ele>37.6</ele>
        <time>2022-06-18T06:45:20Z</time>
      </trkpt>
      <trkpt lat="42.0448500" lon="-8.6446610">
        <ele>37.6</ele>
        <time>2022-06-18T06:45:21Z</time>
      </trkpt>
      <trkpt lat="42.0448580" lon="-8.6446530">
        <ele>37.6</ele>
        <time>2022-06-18T06:45:22Z</time>
      </trkpt>
      <trkpt lat="42.0448650" lon="-8.6446500">
        <ele>37.6</ele>
        <time>2022-06-18T06:45:23Z</time>
      </trkpt>
      <trkpt lat="42.0448700" lon="-8.6446510">
        <ele>38.0</ele>
        <time>2022-06-18T06:45:24Z</time>
      </trkpt>
      <trkpt lat="42.0448760" lon="-8.6446530">
        <ele>38.0</ele>
        <time>2022-06-18T06:45:25Z</time>
      </trkpt>
      <trkpt lat="42.0448880" lon="-8.6446580">
        <ele>38.0</ele>
        <time>2022-06-18T06:45:26Z</time>
      </trkpt>
      <trkpt lat="42.0448980" lon="-8.6446630">
        <ele>38.6</ele>
        <time>2022-06-18T06:45:27Z</time>
      </trkpt>
      <trkpt lat="42.0449030" lon="-8.6446710">
        <ele>39.0</ele>
        <time>2022-06-18T06:45:28Z</time>
      </trkpt>
      <trkpt lat="42.0449100" lon="-8.6446780">
        <ele>39.0</ele>
        <time>2022-06-18T06:45:29Z</time>
      </trkpt>
      <trkpt lat="42.0449210" lon="-8.6446830">
        <ele>39.0</ele>
        <time>2022-06-18T06:45:30Z</time>
      </trkpt>
      <trkpt lat="42.0449260" lon="-8.6446900">
        <ele>39.0</ele>
        <time>2022-06-18T06:45:31Z</time>
      </trkpt>
      <trkpt lat="42.0449260" lon="-8.6446980">
        <ele>39.2</ele>
        <time>2022-06-18T06:45:32Z</time>
      </trkpt>
      <trkpt lat="42.0449360" lon="-8.6447030">
        <ele>39.2</ele>
        <time>2022-06-18T06:45:33Z</time>
      </trkpt>
      <trkpt lat="42.0449400" lon="-8.6447080">
        <ele>39.2</ele>
        <time>2022-06-18T06:45:34Z</time>
      </trkpt>
      <trkpt lat="42.0449500" lon="-8.6447150">
        <ele>39.8</ele>
        <time>2022-06-18T06:45:35Z</time>
      </trkpt>
      <trkpt lat="42.0449530" lon="-8.6447300">
        <ele>40.2</ele>
        <time>2022-06-18T06:45:36Z</time>
      </trkpt>
      <trkpt lat="42.0449680" lon="-8.6447330">
        <ele>40.2</ele>
        <time>2022-06-18T06:45:37Z</time>
      </trkpt>
      <trkpt lat="42.0449830" lon="-8.6447430">
        <ele>40.2</ele>
        <time>2022-06-18T06:45:38Z</time>
      </trkpt>
      <trkpt lat="42.0449950" lon="-8.6447500">
        <ele>40.2</ele>
        <time>2022-06-18T06:45:39Z</time>
      </trkpt>
      <trkpt lat="42.0450050" lon="-8.6447600">
        <ele>41.0</ele>
        <time>2022-06-18T06:45:40Z</time>
      </trkpt>
      <trkpt lat="42.0450150" lon="-8.6447680">
        <ele>41.0</ele>
        <time>2022-06-18T06:45:41Z</time>
      </trkpt>
      <trkpt lat="42.0450260" lon="-8.6447800">
        <ele>41.0</ele>
        <time>2022-06-18T06:45:42Z</time>
      </trkpt>
      <trkpt lat="42.0450380" lon="-8.6447860">
        <ele>41.0</ele>
        <time>2022-06-18T06:45:43Z</time>
      </trkpt>
      <trkpt lat="42.0450500" lon="-8.6447950">
        <ele>41.4</ele>
        <time>2022-06-18T06:45:44Z</time>
      </trkpt>
      <trkpt lat="42.0450630" lon="-8.6448010">
        <ele>41.4</ele>
        <time>2022-06-18T06:45:45Z</time>
      </trkpt>
      <trkpt lat="42.0450750" lon="-8.6448100">
        <ele>41.4</ele>
        <time>2022-06-18T06:45:46Z</time>
      </trkpt>
      <trkpt lat="42.0450900" lon="-8.6448180">
        <ele>41.6</ele>
        <time>2022-06-18T06:45:47Z</time>
      </trkpt>
      <trkpt lat="42.0450980" lon="-8.6448280">
        <ele>41.6</ele>
        <time>2022-06-18T06:45:48Z</time>
      </trkpt>
      <trkpt lat="42.0451100" lon="-8.6448380">
        <ele>41.6</ele>
        <time>2022-06-18T06:45:49Z</time>
      </trkpt>
      <trkpt lat="42.0451210" lon="-8.6448480">
        <ele>41.6</ele>
        <time>2022-06-18T06:45:50Z</time>
      </trkpt>
      <trkpt lat="42.0451330" lon="-8.6448560">
        <ele>41.6</ele>
        <time>2022-06-18T06:45:51Z</time>
      </trkpt>
      <trkpt lat="42.0451430" lon="-8.6448680">
        <ele>42.0</ele>
        <time>2022-06-18T06:45:52Z</time>
      </trkpt>
      <trkpt lat="42.0451560" lon="-8.6448750">
        <ele>42.0</ele>
        <time>2022-06-18T06:45:53Z</time>
      </trkpt>
      <trkpt lat="42.0451680" lon="-8.6448810">
        <ele>42.0</ele>
        <time>2022-06-18T06:45:54Z</time>
      </trkpt>
      <trkpt lat="42.0451780" lon="-8.6448880">
        <ele>42.6</ele>
        <time>2022-06-18T06:45:55Z</time>
      </trkpt>
      <trkpt lat="42.0451810" lon="-8.6449030">
        <ele>42.6</ele>
        <time>2022-06-18T06:45:56Z</time>
      </trkpt>
      <trkpt lat="42.0451910" lon="-8.6449110">
        <ele>42.6</ele>
        <time>2022-06-18T06:45:57Z</time>
      </trkpt>
      <trkpt lat="42.0452030" lon="-8.6449210">
        <ele>42.6</ele>
        <time>2022-06-18T06:45:58Z</time>
      </trkpt>
      <trkpt lat="42.0452130" lon="-8.6449300">
        <ele>42.6</ele>
        <time>2022-06-18T06:45:59Z</time>
      </trkpt>
      <trkpt lat="42.0452260" lon="-8.6449330">
        <ele>42.8</ele>
        <time>2022-06-18T06:46:00Z</time>
      </trkpt>
      <trkpt lat="42.0452410" lon="-8.6449360">
        <ele>42.8</ele>
        <time>2022-06-18T06:46:01Z</time>
      </trkpt>
      <trkpt lat="42.0452580" lon="-8.6449460">
        <ele>42.8</ele>
        <time>2022-06-18T06:46:02Z</time>
      </trkpt>
      <trkpt lat="42.0452680" lon="-8.6449560">
        <ele>43.2</ele>
        <time>2022-06-18T06:46:03Z</time>
      </trkpt>
      <trkpt lat="42.0452760" lon="-8.6449650">
        <ele>43.2</ele>
        <time>2022-06-18T06:46:04Z</time>
      </trkpt>
      <trkpt lat="42.0452810" lon="-8.6449700">
        <ele>43.2</ele>
        <time>2022-06-18T06:46:05Z</time>
      </trkpt>
      <trkpt lat="42.0452930" lon="-8.6449760">
        <ele>43.2</ele>
        <time>2022-06-18T06:46:06Z</time>
      </trkpt>
      <trkpt lat="42.0453050" lon="-8.6449830">
        <ele>43.8</ele>
        <time>2022-06-18T06:46:07Z</time>
      </trkpt>
      <trkpt lat="42.0453130" lon="-8.6449910">
        <ele>44.0</ele>
        <time>2022-06-18T06:46:08Z</time>
      </trkpt>
      <trkpt lat="42.0453250" lon="-8.6450000">
        <ele>44.0</ele>
        <time>2022-06-18T06:46:09Z</time>
      </trkpt>
      <trkpt lat="42.0453410" lon="-8.6450060">
        <ele>44.0</ele>
        <time>2022-06-18T06:46:10Z</time>
      </trkpt>
      <trkpt lat="42.0453480" lon="-8.6450160">
        <ele>44.0</ele>
        <time>2022-06-18T06:46:11Z</time>
      </trkpt>
      <trkpt lat="42.0453600" lon="-8.6450250">
        <ele>44.0</ele>
        <time>2022-06-18T06:46:12Z</time>
      </trkpt>
      <trkpt lat="42.0453650" lon="-8.6450310">
        <ele>44.0</ele>
        <time>2022-06-18T06:46:13Z</time>
      </trkpt>
      <trkpt lat="42.0453780" lon="-8.6450400">
        <ele>44.0</ele>
        <time>2022-06-18T06:46:14Z</time>
      </trkpt>
      <trkpt lat="42.0453910" lon="-8.6450500">
        <ele>44.4</ele>
        <time>2022-06-18T06:46:15Z</time>
      </trkpt>
      <trkpt lat="42.0454030" lon="-8.6450610">
        <ele>44.6</ele>
        <time>2022-06-18T06:46:16Z</time>
      </trkpt>
      <trkpt lat="42.0454180" lon="-8.6450710">
        <ele>44.6</ele>
        <time>2022-06-18T06:46:17Z</time>
      </trkpt>
      <trkpt lat="42.0454330" lon="-8.6450800">
        <ele>44.6</ele>
        <time>2022-06-18T06:46:18Z</time>
      </trkpt>
      <trkpt lat="42.0454430" lon="-8.6450900">
        <ele>44.6</ele>
        <time>2022-06-18T06:46:19Z</time>
      </trkpt>
      <trkpt lat="42.0454530" lon="-8.6450960">
        <ele>45.0</ele>
        <time>2022-06-18T06:46:20Z</time>
      </trkpt>
      <trkpt lat="42.0454660" lon="-8.6451030">
        <ele>45.0</ele>
        <time>2022-06-18T06:46:21Z</time>
      </trkpt>
      <trkpt lat="42.0454850" lon="-8.6451100">
        <ele>45.0</ele>
        <time>2022-06-18T06:46:22Z</time>
      </trkpt>
      <trkpt lat="42.0455000" lon="-8.6451180">
        <ele>45.0</ele>
        <time>2022-06-18T06:46:23Z</time>
      </trkpt>
      <trkpt lat="42.0455180" lon="-8.6451250">
        <ele>45.8</ele>
        <time>2022-06-18T06:46:24Z</time>
      </trkpt>
      <trkpt lat="42.0455330" lon="-8.6451330">
        <ele>45.8</ele>
        <time>2022-06-18T06:46:25Z</time>
      </trkpt>
      <trkpt lat="42.0455460" lon="-8.6451400">
        <ele>45.8</ele>
        <time>2022-06-18T06:46:26Z</time>
      </trkpt>
      <trkpt lat="42.0455550" lon="-8.6451500">
        <ele>45.8</ele>
        <time>2022-06-18T06:46:27Z</time>
      </trkpt>
      <trkpt lat="42.0455700" lon="-8.6451580">
        <ele>46.0</ele>
        <time>2022-06-18T06:46:28Z</time>
      </trkpt>
      <trkpt lat="42.0455810" lon="-8.6451650">
        <ele>46.0</ele>
        <time>2022-06-18T06:46:29Z</time>
      </trkpt>
      <trkpt lat="42.0455930" lon="-8.6451760">
        <ele>46.0</ele>
        <time>2022-06-18T06:46:30Z</time>
      </trkpt>
      <trkpt lat="42.0456100" lon="-8.6451830">
        <ele>46.0</ele>
        <time>2022-06-18T06:46:31Z</time>
      </trkpt>
      <trkpt lat="42.0456210" lon="-8.6451910">
        <ele>46.6</ele>
        <time>2022-06-18T06:46:32Z</time>
      </trkpt>
      <trkpt lat="42.0456310" lon="-8.6452000">
        <ele>46.6</ele>
        <time>2022-06-18T06:46:33Z</time>
      </trkpt>
      <trkpt lat="42.0456460" lon="-8.6452050">
        <ele>46.6</ele>
        <time>2022-06-18T06:46:34Z</time>
      </trkpt>
      <trkpt lat="42.0456580" lon="-8.6452150">
        <ele>47.0</ele>
        <time>2022-06-18T06:46:35Z</time>
      </trkpt>
      <trkpt lat="42.0456700" lon="-8.6452230">
        <ele>47.6</ele>
        <time>2022-06-18T06:46:36Z</time>
      </trkpt>
      <trkpt lat="42.0456780" lon="-8.6452310">
        <ele>47.6</ele>
        <time>2022-06-18T06:46:37Z</time>
      </trkpt>
      <trkpt lat="42.0456950" lon="-8.6452400">
        <ele>47.6</ele>
        <time>2022-06-18T06:46:38Z</time>
      </trkpt>
      <trkpt lat="42.0457110" lon="-8.6452460">
        <ele>47.6</ele>
        <time>2022-06-18T06:46:39Z</time>
      </trkpt>
      <trkpt lat="42.0457230" lon="-8.6452530">
        <ele>47.8</ele>
        <time>2022-06-18T06:46:40Z</time>
      </trkpt>
      <trkpt lat="42.0457310" lon="-8.6452600">
        <ele>47.8</ele>
        <time>2022-06-18T06:46:41Z</time>
      </trkpt>
      <trkpt lat="42.0457450" lon="-8.6452710">
        <ele>47.8</ele>
        <time>2022-06-18T06:46:42Z</time>
      </trkpt>
      <trkpt lat="42.0457530" lon="-8.6452800">
        <ele>48.4</ele>
        <time>2022-06-18T06:46:43Z</time>
      </trkpt>
      <trkpt lat="42.0457630" lon="-8.6452880">
        <ele>48.2</ele>
        <time>2022-06-18T06:46:44Z</time>
      </trkpt>
      <trkpt lat="42.0457780" lon="-8.6452950">
        <ele>48.2</ele>
        <time>2022-06-18T06:46:45Z</time>
      </trkpt>
      <trkpt lat="42.0457900" lon="-8.6453030">
        <ele>48.2</ele>
        <time>2022-06-18T06:46:46Z</time>
      </trkpt>
      <trkpt lat="42.0458010" lon="-8.6453100">
        <ele>49.2</ele>
        <time>2022-06-18T06:46:47Z</time>
      </trkpt>
      <trkpt lat="42.0458060" lon="-8.6453230">
        <ele>49.0</ele>
        <time>2022-06-18T06:46:48Z</time>
      </trkpt>
      <trkpt lat="42.0458150" lon="-8.6453330">
        <ele>49.0</ele>
        <time>2022-06-18T06:46:49Z</time>
      </trkpt>
      <trkpt lat="42.0458250" lon="-8.6453400">
        <ele>49.0</ele>
        <time>2022-06-18T06:46:50Z</time>
      </trkpt>
      <trkpt lat="42.0458400" lon="-8.6453410">
        <ele>50.0</ele>
        <time>2022-06-18T06:46:51Z</time>
      </trkpt>
      <trkpt lat="42.0458610" lon="-8.6453480">
        <ele>50.4</ele>
        <time>2022-06-18T06:46:52Z</time>
      </trkpt>
      <trkpt lat="42.0458760" lon="-8.6453530">
        <ele>50.4</ele>
        <time>2022-06-18T06:46:53Z</time>
      </trkpt>
      <trkpt lat="42.0458910" lon="-8.6453530">
        <ele>50.4</ele>
        <time>2022-06-18T06:46:54Z</time>
      </trkpt>
      <trkpt lat="42.0459060" lon="-8.6453580">
        <ele>50.4</ele>
        <time>2022-06-18T06:46:55Z</time>
      </trkpt>
      <trkpt lat="42.0459180" lon="-8.6453650">
        <ele>51.0</ele>
        <time>2022-06-18T06:46:56Z</time>
      </trkpt>
      <trkpt lat="42.0459310" lon="-8.6453730">
        <ele>51.0</ele>
        <time>2022-06-18T06:46:57Z</time>
      </trkpt>
      <trkpt lat="42.0459410" lon="-8.6453800">
        <ele>51.0</ele>
        <time>2022-06-18T06:46:58Z</time>
      </trkpt>
      <trkpt lat="42.0459560" lon="-8.6453800">
        <ele>51.4</ele>
        <time>2022-06-18T06:46:59Z</time>
      </trkpt>
      <trkpt lat="42.0459630" lon="-8.6453880">
        <ele>51.8</ele>
        <time>2022-06-18T06:47:00Z</time>
      </trkpt>
      <trkpt lat="42.0459610" lon="-8.6454130">
        <ele>51.8</ele>
        <time>2022-06-18T06:47:01Z</time>
      </trkpt>
      <trkpt lat="42.0459680" lon="-8.6454230">
        <ele>51.8</ele>
        <time>2022-06-18T06:47:02Z</time>
      </trkpt>
      <trkpt lat="42.0459660" lon="-8.6454250">
        <ele>51.8</ele>
        <time>2022-06-18T06:47:03Z</time>
      </trkpt>
      <trkpt lat="42.0459860" lon="-8.6454260">
        <ele>51.4</ele>
        <time>2022-06-18T06:47:04Z</time>
      </trkpt>
      <trkpt lat="42.0460160" lon="-8.6454210">
        <ele>51.4</ele>
        <time>2022-06-18T06:47:05Z</time>
      </trkpt>
      <trkpt lat="42.0460250" lon="-8.6454130">
        <ele>51.4</ele>
        <time>2022-06-18T06:47:06Z</time>
      </trkpt>
      <trkpt lat="42.0460160" lon="-8.6453950">
        <ele>52.4</ele>
        <time>2022-06-18T06:47:07Z</time>
      </trkpt>
      <trkpt lat="42.0460260" lon="-8.6453750">
        <ele>52.6</ele>
        <time>2022-06-18T06:47:08Z</time>
      </trkpt>
      <trkpt lat="42.0460330" lon="-8.6453610">
        <ele>52.6</ele>
        <time>2022-06-18T06:47:09Z</time>
      </trkpt>
      <trkpt lat="42.0460430" lon="-8.6453450">
        <ele>52.6</ele>
        <time>2022-06-18T06:47:10Z</time>
      </trkpt>
      <trkpt lat="42.0460460" lon="-8.6453300">
        <ele>53.2</ele>
        <time>2022-06-18T06:47:11Z</time>
      </trkpt>
      <trkpt lat="42.0460560" lon="-8.6453110">
        <ele>53.6</ele>
        <time>2022-06-18T06:47:12Z</time>
      </trkpt>
      <trkpt lat="42.0460560" lon="-8.6452910">
        <ele>53.6</ele>
        <time>2022-06-18T06:47:13Z</time>
      </trkpt>
      <trkpt lat="42.0460550" lon="-8.6452760">
        <ele>53.6</ele>
        <time>2022-06-18T06:47:14Z</time>
      </trkpt>
      <trkpt lat="42.0460500" lon="-8.6452580">
        <ele>53.8</ele>
        <time>2022-06-18T06:47:15Z</time>
      </trkpt>
      <trkpt lat="42.0460580" lon="-8.6452400">
        <ele>54.0</ele>
        <time>2022-06-18T06:47:16Z</time>
      </trkpt>
      <trkpt lat="42.0460780" lon="-8.6452200">
        <ele>54.0</ele>
        <time>2022-06-18T06:47:17Z</time>
      </trkpt>
      <trkpt lat="42.0460900" lon="-8.6451980">
        <ele>54.0</ele>
        <time>2022-06-18T06:47:18Z</time>
      </trkpt>
      <trkpt lat="42.0461000" lon="-8.6451860">
        <ele>54.0</ele>
        <time>2022-06-18T06:47:19Z</time>
      </trkpt>
      <trkpt lat="42.0461110" lon="-8.6451750">
        <ele>54.2</ele>
        <time>2022-06-18T06:47:20Z</time>
      </trkpt>
      <trkpt lat="42.0461180" lon="-8.6451600">
        <ele>54.2</ele>
        <time>2022-06-18T06:47:21Z</time>
      </trkpt>
      <trkpt lat="42.0461180" lon="-8.6451500">
        <ele>54.2</ele>
        <time>2022-06-18T06:47:22Z</time>
      </trkpt>
      <trkpt lat="42.0461310" lon="-8.6451410">
        <ele>55.0</ele>
        <time>2022-06-18T06:47:23Z</time>
      </trkpt>
      <trkpt lat="42.0461330" lon="-8.6451280">
        <ele>55.2</ele>
        <time>2022-06-18T06:47:24Z</time>
      </trkpt>
      <trkpt lat="42.0461450" lon="-8.6451210">
        <ele>55.2</ele>
        <time>2022-06-18T06:47:25Z</time>
      </trkpt>
      <trkpt lat="42.0461530" lon="-8.6451110">
        <ele>55.2</ele>
        <time>2022-06-18T06:47:26Z</time>
      </trkpt>
      <trkpt lat="42.0461680" lon="-8.6451010">
        <ele>55.4</ele>
        <time>2022-06-18T06:47:27Z</time>
      </trkpt>
      <trkpt lat="42.0461760" lon="-8.6450860">
        <ele>55.4</ele>
        <time>2022-06-18T06:47:28Z</time>
      </trkpt>
      <trkpt lat="42.0461880" lon="-8.6450760">
        <ele>55.4</ele>
        <time>2022-06-18T06:47:29Z</time>
      </trkpt>
      <trkpt lat="42.0462010" lon="-8.6450660">
        <ele>55.4</ele>
        <time>2022-06-18T06:47:30Z</time>
      </trkpt>
      <trkpt lat="42.0462110" lon="-8.6450510">
        <ele>55.4</ele>
        <time>2022-06-18T06:47:31Z</time>
      </trkpt>
      <trkpt lat="42.0462200" lon="-8.6450380">
        <ele>55.4</ele>
        <time>2022-06-18T06:47:32Z</time>
      </trkpt>
      <trkpt lat="42.0462260" lon="-8.6450260">
        <ele>55.4</ele>
        <time>2022-06-18T06:47:33Z</time>
      </trkpt>
      <trkpt lat="42.0462360" lon="-8.6450150">
        <ele>55.4</ele>
        <time>2022-06-18T06:47:34Z</time>
      </trkpt>
      <trkpt lat="42.0462430" lon="-8.6450030">
        <ele>55.8</ele>
        <time>2022-06-18T06:47:35Z</time>
      </trkpt>
      <trkpt lat="42.0462500" lon="-8.6449900">
        <ele>55.8</ele>
        <time>2022-06-18T06:47:36Z</time>
      </trkpt>
      <trkpt lat="42.0462650" lon="-8.6449760">
        <ele>55.8</ele>
        <time>2022-06-18T06:47:37Z</time>
      </trkpt>
      <trkpt lat="42.0462760" lon="-8.6449660">
        <ele>55.8</ele>
        <time>2022-06-18T06:47:38Z</time>
      </trkpt>
      <trkpt lat="42.0462850" lon="-8.6449580">
        <ele>56.0</ele>
        <time>2022-06-18T06:47:39Z</time>
      </trkpt>
      <trkpt lat="42.0462800" lon="-8.6449550">
        <ele>55.8</ele>
        <time>2022-06-18T06:47:40Z</time>
      </trkpt>
      <trkpt lat="42.0462730" lon="-8.6449460">
        <ele>55.8</ele>
        <time>2022-06-18T06:47:41Z</time>
      </trkpt>
      <trkpt lat="42.0462660" lon="-8.6449410">
        <ele>55.8</ele>
        <time>2022-06-18T06:47:42Z</time>
      </trkpt>
      <trkpt lat="42.0462600" lon="-8.6449380">
        <ele>55.8</ele>
        <time>2022-06-18T06:47:43Z</time>
      </trkpt>
      <trkpt lat="42.0462480" lon="-8.6449350">
        <ele>56.4</ele>
        <time>2022-06-18T06:47:44Z</time>
      </trkpt>
      <trkpt lat="42.0462400" lon="-8.6449350">
        <ele>56.4</ele>
        <time>2022-06-18T06:47:45Z</time>
      </trkpt>
      <trkpt lat="42.0462300" lon="-8.6449430">
        <ele>56.4</ele>
        <time>2022-06-18T06:47:46Z</time>
      </trkpt>
      <trkpt lat="42.0462160" lon="-8.6449560">
        <ele>56.0</ele>
        <time>2022-06-18T06:47:47Z</time>
      </trkpt>
      <trkpt lat="42.0462050" lon="-8.6449680">
        <ele>55.8</ele>
        <time>2022-06-18T06:47:48Z</time>
      </trkpt>
      <trkpt lat="42.0461900" lon="-8.6449760">
        <ele>55.8</ele>
        <time>2022-06-18T06:47:49Z</time>
      </trkpt>
      <trkpt lat="42.0461700" lon="-8.6449800">
        <ele>55.8</ele>
        <time>2022-06-18T06:47:50Z</time>
      </trkpt>
      <trkpt lat="42.0461550" lon="-8.6449780">
        <ele>55.8</ele>
        <time>2022-06-18T06:47:51Z</time>
      </trkpt>
      <trkpt lat="42.0461380" lon="-8.6449810">
        <ele>55.8</ele>
        <time>2022-06-18T06:47:52Z</time>
      </trkpt>
      <trkpt lat="42.0461230" lon="-8.6449810">
        <ele>55.8</ele>
        <time>2022-06-18T06:47:53Z</time>
      </trkpt>
      <trkpt lat="42.0461060" lon="-8.6449810">
        <ele>55.8</ele>
        <time>2022-06-18T06:47:54Z</time>
      </trkpt>
      <trkpt lat="42.0460900" lon="-8.6449780">
        <ele>55.8</ele>
        <time>2022-06-18T06:47:55Z</time>
      </trkpt>
      <trkpt lat="42.0460750" lon="-8.6449680">
        <ele>55.8</ele>
        <time>2022-06-18T06:47:56Z</time>
      </trkpt>
      <trkpt lat="42.0460630" lon="-8.6449600">
        <ele>55.8</ele>
        <time>2022-06-18T06:47:57Z</time>
      </trkpt>
      <trkpt lat="42.0460560" lon="-8.6449510">
        <ele>55.8</ele>
        <time>2022-06-18T06:47:58Z</time>
      </trkpt>
      <trkpt lat="42.0460510" lon="-8.6449430">
        <ele>56.4</ele>
        <time>2022-06-18T06:47:59Z</time>
      </trkpt>
      <trkpt lat="42.0460460" lon="-8.6449400">
        <ele>56.8</ele>
        <time>2022-06-18T06:48:00Z</time>
      </trkpt>
      <trkpt lat="42.0461550" lon="-8.6447600">
        <ele>58.4</ele>
        <time>2022-06-18T06:48:33Z</time>
      </trkpt>
      <trkpt lat="42.0461680" lon="-8.6447460">
        <ele>58.4</ele>
        <time>2022-06-18T06:48:34Z</time>
      </trkpt>
      <trkpt lat="42.0461760" lon="-8.6447400">
        <ele>57.6</ele>
        <time>2022-06-18T06:48:35Z</time>
      </trkpt>
      <trkpt lat="42.0461910" lon="-8.6447360">
        <ele>57.8</ele>
        <time>2022-06-18T06:48:36Z</time>
      </trkpt>
      <trkpt lat="42.0462030" lon="-8.6447410">
        <ele>57.8</ele>
        <time>2022-06-18T06:48:37Z</time>
      </trkpt>
      <trkpt lat="42.0462150" lon="-8.6447360">
        <ele>57.8</ele>
        <time>2022-06-18T06:48:38Z</time>
      </trkpt>
      <trkpt lat="42.0462250" lon="-8.6447330">
        <ele>57.8</ele>
        <time>2022-06-18T06:48:39Z</time>
      </trkpt>
      <trkpt lat="42.0462360" lon="-8.6447350">
        <ele>57.8</ele>
        <time>2022-06-18T06:48:40Z</time>
      </trkpt>
      <trkpt lat="42.0462460" lon="-8.6447310">
        <ele>57.8</ele>
        <time>2022-06-18T06:48:41Z</time>
      </trkpt>
      <trkpt lat="42.0462500" lon="-8.6447250">
        <ele>57.8</ele>
        <time>2022-06-18T06:48:42Z</time>
      </trkpt>
      <trkpt lat="42.0462560" lon="-8.6447150">
        <ele>57.8</ele>
        <time>2022-06-18T06:48:43Z</time>
      </trkpt>
      <trkpt lat="42.0462600" lon="-8.6447050">
        <ele>57.8</ele>
        <time>2022-06-18T06:48:44Z</time>
      </trkpt>
      <trkpt lat="42.0462680" lon="-8.6447010">
        <ele>57.8</ele>
        <time>2022-06-18T06:48:45Z</time>
      </trkpt>
      <trkpt lat="42.0462660" lon="-8.6446860">
        <ele>57.8</ele>
        <time>2022-06-18T06:48:46Z</time>
      </trkpt>
      <trkpt lat="42.0462660" lon="-8.6446680">
        <ele>58.0</ele>
        <time>2022-06-18T06:48:47Z</time>
      </trkpt>
      <trkpt lat="42.0462660" lon="-8.6446510">
        <ele>57.8</ele>
        <time>2022-06-18T06:48:48Z</time>
      </trkpt>
      <trkpt lat="42.0462680" lon="-8.6446410">
        <ele>57.8</ele>
        <time>2022-06-18T06:48:49Z</time>
      </trkpt>
      <trkpt lat="42.0462700" lon="-8.6446330">
        <ele>57.8</ele>
        <time>2022-06-18T06:48:50Z</time>
      </trkpt>
      <trkpt lat="42.0462730" lon="-8.6446260">
        <ele>58.0</ele>
        <time>2022-06-18T06:48:51Z</time>
      </trkpt>
      <trkpt lat="42.0462800" lon="-8.6446250">
        <ele>58.2</ele>
        <time>2022-06-18T06:48:52Z</time>
      </trkpt>
      <trkpt lat="42.0462800" lon="-8.6446250">
        <ele>58.2</ele>
        <time>2022-06-18T06:48:53Z</time>
      </trkpt>
      <trkpt lat="42.0462930" lon="-8.6446450">
        <ele>57.8</ele>
        <time>2022-06-18T06:49:31Z</time>
      </trkpt>
      <trkpt lat="42.0462860" lon="-8.6446760">
        <ele>57.4</ele>
        <time>2022-06-18T06:49:32Z</time>
      </trkpt>
      <trkpt lat="42.0462810" lon="-8.6446950">
        <ele>57.4</ele>
        <time>2022-06-18T06:49:33Z</time>
      </trkpt>
      <trkpt lat="42.0462750" lon="-8.6447100">
        <ele>57.4</ele>
        <time>2022-06-18T06:49:34Z</time>
      </trkpt>
      <trkpt lat="42.0462650" lon="-8.6447260">
        <ele>57.8</ele>
        <time>2022-06-18T06:49:35Z</time>
      </trkpt>
      <trkpt lat="42.0462600" lon="-8.6447430">
        <ele>57.6</ele>
        <time>2022-06-18T06:49:36Z</time>
      </trkpt>
      <trkpt lat="42.0462600" lon="-8.6447430">
        <ele>57.6</ele>
        <time>2022-06-18T06:49:37Z</time>
      </trkpt>
      <trkpt lat="42.0462510" lon="-8.6447710">
        <ele>57.6</ele>
        <time>2022-06-18T06:49:38Z</time>
      </trkpt>
      <trkpt lat="42.0462510" lon="-8.6447780">
        <ele>57.6</ele>
        <time>2022-06-18T06:49:39Z</time>
      </trkpt>
      <trkpt lat="42.0462510" lon="-8.6447780">
        <ele>58.0</ele>
        <time>2022-06-18T06:49:40Z</time>
      </trkpt>
      <trkpt lat="42.0462280" lon="-8.6447600">
        <ele>57.4</ele>
        <time>2022-06-18T06:51:10Z</time>
      </trkpt>
      <trkpt lat="42.0462260" lon="-8.6447460">
        <ele>57.4</ele>
        <time>2022-06-18T06:51:11Z</time>
      </trkpt>
      <trkpt lat="42.0462310" lon="-8.6447380">
        <ele>57.8</ele>
        <time>2022-06-18T06:51:12Z</time>
      </trkpt>
      <trkpt lat="42.0462410" lon="-8.6447330">
        <ele>57.8</ele>
        <time>2022-06-18T06:51:13Z</time>
      </trkpt>
      <trkpt lat="42.0462410" lon="-8.6447330">
        <ele>57.8</ele>
        <time>2022-06-18T06:51:14Z</time>
      </trkpt>
      <trkpt lat="42.0462500" lon="-8.6447130">
        <ele>57.8</ele>
        <time>2022-06-18T06:51:15Z</time>
      </trkpt>
      <trkpt lat="42.0462610" lon="-8.6447060">
        <ele>58.0</ele>
        <time>2022-06-18T06:51:16Z</time>
      </trkpt>
      <trkpt lat="42.0462710" lon="-8.6446950">
        <ele>58.0</ele>
        <time>2022-06-18T06:51:17Z</time>
      </trkpt>
      <trkpt lat="42.0462710" lon="-8.6446950">
        <ele>58.0</ele>
        <time>2022-06-18T06:51:18Z</time>
      </trkpt>
      <trkpt lat="42.0462900" lon="-8.6446700">
        <ele>58.0</ele>
        <time>2022-06-18T06:51:19Z</time>
      </trkpt>
      <trkpt lat="42.0462960" lon="-8.6446580">
        <ele>58.4</ele>
        <time>2022-06-18T06:51:20Z</time>
      </trkpt>
      <trkpt lat="42.0463080" lon="-8.6446500">
        <ele>58.4</ele>
        <time>2022-06-18T06:51:21Z</time>
      </trkpt>
      <trkpt lat="42.0463130" lon="-8.6446380">
        <ele>58.4</ele>
        <time>2022-06-18T06:51:22Z</time>
      </trkpt>
      <trkpt lat="42.0463160" lon="-8.6446300">
        <ele>58.2</ele>
        <time>2022-06-18T06:51:23Z</time>
      </trkpt>
      <trkpt lat="42.0463300" lon="-8.6446200">
        <ele>58.4</ele>
        <time>2022-06-18T06:52:05Z</time>
      </trkpt>
      <trkpt lat="42.0463410" lon="-8.6446160">
        <ele>58.4</ele>
        <time>2022-06-18T06:52:06Z</time>
      </trkpt>
      <trkpt lat="42.0463500" lon="-8.6446060">
        <ele>58.0</ele>
        <time>2022-06-18T06:52:07Z</time>
      </trkpt>
      <trkpt lat="42.0463610" lon="-8.6445910">
        <ele>57.8</ele>
        <time>2022-06-18T06:52:08Z</time>
      </trkpt>
      <trkpt lat="42.0463660" lon="-8.6445750">
        <ele>57.8</ele>
        <time>2022-06-18T06:52:09Z</time>
      </trkpt>
      <trkpt lat="42.0463680" lon="-8.6445630">
        <ele>57.8</ele>
        <time>2022-06-18T06:52:10Z</time>
      </trkpt>
      <trkpt lat="42.0463700" lon="-8.6445510">
        <ele>57.8</ele>
        <time>2022-06-18T06:52:11Z</time>
      </trkpt>
      <trkpt lat="42.0463660" lon="-8.6445380">
        <ele>57.8</ele>
        <time>2022-06-18T06:52:12Z</time>
      </trkpt>
      <trkpt lat="42.0463700" lon="-8.6445210">
        <ele>57.8</ele>
        <time>2022-06-18T06:52:13Z</time>
      </trkpt>
      <trkpt lat="42.0463700" lon="-8.6445100">
        <ele>57.8</ele>
        <time>2022-06-18T06:52:14Z</time>
      </trkpt>
      <trkpt lat="42.0463700" lon="-8.6444960">
        <ele>57.4</ele>
        <time>2022-06-18T06:52:15Z</time>
      </trkpt>
      <trkpt lat="42.0463700" lon="-8.6444810">
        <ele>57.4</ele>
        <time>2022-06-18T06:52:16Z</time>
      </trkpt>
      <trkpt lat="42.0463700" lon="-8.6444750">
        <ele>57.4</ele>
        <time>2022-06-18T06:52:17Z</time>
      </trkpt>
      <trkpt lat="42.0463700" lon="-8.6444750">
        <ele>57.4</ele>
        <time>2022-06-18T06:52:18Z</time>
      </trkpt>
      <trkpt lat="42.0463850" lon="-8.6444680">
        <ele>57.4</ele>
        <time>2022-06-18T06:52:19Z</time>
      </trkpt>
      <trkpt lat="42.0463950" lon="-8.6444750">
        <ele>57.2</ele>
        <time>2022-06-18T06:52:20Z</time>
      </trkpt>
      <trkpt lat="42.0463960" lon="-8.6444850">
        <ele>57.2</ele>
        <time>2022-06-18T06:52:21Z</time>
      </trkpt>
      <trkpt lat="42.0463930" lon="-8.6444980">
        <ele>57.2</ele>
        <time>2022-06-18T06:52:22Z</time>
      </trkpt>
      <trkpt lat="42.0463860" lon="-8.6445080">
        <ele>57.4</ele>
        <time>2022-06-18T06:52:23Z</time>
      </trkpt>
      <trkpt lat="42.0463780" lon="-8.6445100">
        <ele>57.8</ele>
        <time>2022-06-18T06:52:24Z</time>
      </trkpt>
      <trkpt lat="42.0463710" lon="-8.6445050">
        <ele>57.8</ele>
        <time>2022-06-18T06:52:25Z</time>
      </trkpt>
      <trkpt lat="42.0463660" lon="-8.6444900">
        <ele>57.8</ele>
        <time>2022-06-18T06:52:26Z</time>
      </trkpt>
      <trkpt lat="42.0463650" lon="-8.6444700">
        <ele>57.8</ele>
        <time>2022-06-18T06:52:27Z</time>
      </trkpt>
      <trkpt lat="42.0463600" lon="-8.6444530">
        <ele>57.8</ele>
        <time>2022-06-18T06:52:28Z</time>
      </trkpt>
      <trkpt lat="42.0463510" lon="-8.6444360">
        <ele>57.8</ele>
        <time>2022-06-18T06:52:29Z</time>
      </trkpt>
      <trkpt lat="42.0463460" lon="-8.6444130">
        <ele>57.8</ele>
        <time>2022-06-18T06:52:30Z</time>
      </trkpt>
      <trkpt lat="42.0463400" lon="-8.6443910">
        <ele>57.8</ele>
        <time>2022-06-18T06:52:31Z</time>
      </trkpt>
      <trkpt lat="42.0463310" lon="-8.6443730">
        <ele>57.2</ele>
        <time>2022-06-18T06:52:32Z</time>
      </trkpt>
      <trkpt lat="42.0463360" lon="-8.6443550">
        <ele>57.2</ele>
        <time>2022-06-18T06:52:33Z</time>
      </trkpt>
      <trkpt lat="42.0463400" lon="-8.6443310">
        <ele>57.2</ele>
        <time>2022-06-18T06:52:34Z</time>
      </trkpt>
      <trkpt lat="42.0463310" lon="-8.6443080">
        <ele>57.2</ele>
        <time>2022-06-18T06:52:35Z</time>
      </trkpt>
      <trkpt lat="42.0463160" lon="-8.6442900">
        <ele>57.2</ele>
        <time>2022-06-18T06:52:36Z</time>
      </trkpt>
      <trkpt lat="42.0463180" lon="-8.6442700">
        <ele>57.2</ele>
        <time>2022-06-18T06:52:37Z</time>
      </trkpt>
      <trkpt lat="42.0463030" lon="-8.6442550">
        <ele>57.2</ele>
        <time>2022-06-18T06:52:38Z</time>
      </trkpt>
      <trkpt lat="42.0462910" lon="-8.6442380">
        <ele>56.8</ele>
        <time>2022-06-18T06:52:39Z</time>
      </trkpt>
      <trkpt lat="42.0462780" lon="-8.6442230">
        <ele>56.4</ele>
        <time>2022-06-18T06:52:40Z</time>
      </trkpt>
      <trkpt lat="42.0462680" lon="-8.6442130">
        <ele>56.4</ele>
        <time>2022-06-18T06:52:41Z</time>
      </trkpt>
      <trkpt lat="42.0462580" lon="-8.6442060">
        <ele>56.4</ele>
        <time>2022-06-18T06:52:42Z</time>
      </trkpt>
      <trkpt lat="42.0462510" lon="-8.6441960">
        <ele>56.4</ele>
        <time>2022-06-18T06:52:43Z</time>
      </trkpt>
      <trkpt lat="42.0462480" lon="-8.6441800">
        <ele>56.2</ele>
        <time>2022-06-18T06:52:44Z</time>
      </trkpt>
      <trkpt lat="42.0462480" lon="-8.6441610">
        <ele>56.2</ele>
        <time>2022-06-18T06:52:45Z</time>
      </trkpt>
      <trkpt lat="42.0462460" lon="-8.6441460">
        <ele>56.2</ele>
        <time>2022-06-18T06:52:46Z</time>
      </trkpt>
      <trkpt lat="42.0462450" lon="-8.6441280">
        <ele>55.4</ele>
        <time>2022-06-18T06:52:47Z</time>
      </trkpt>
      <trkpt lat="42.0462430" lon="-8.6441180">
        <ele>55.4</ele>
        <time>2022-06-18T06:52:48Z</time>
      </trkpt>
      <trkpt lat="42.0462660" lon="-8.6440850">
        <ele>55.4</ele>
        <time>2022-06-18T06:52:49Z</time>
      </trkpt>
      <trkpt lat="42.0462750" lon="-8.6440700">
        <ele>55.4</ele>
        <time>2022-06-18T06:52:50Z</time>
      </trkpt>
      <trkpt lat="42.0462750" lon="-8.6440700">
        <ele>55.4</ele>
        <time>2022-06-18T06:52:51Z</time>
      </trkpt>
      <trkpt lat="42.0462450" lon="-8.6440830">
        <ele>55.4</ele>
        <time>2022-06-18T06:55:16Z</time>
      </trkpt>
      <trkpt lat="42.0462510" lon="-8.6440960">
        <ele>55.4</ele>
        <time>2022-06-18T06:55:17Z</time>
      </trkpt>
      <trkpt lat="42.0462560" lon="-8.6441110">
        <ele>55.4</ele>
        <time>2022-06-18T06:55:18Z</time>
      </trkpt>
      <trkpt lat="42.0462650" lon="-8.6441300">
        <ele>56.0</ele>
        <time>2022-06-18T06:55:19Z</time>
      </trkpt>
      <trkpt lat="42.0462750" lon="-8.6441430">
        <ele>56.8</ele>
        <time>2022-06-18T06:55:20Z</time>
      </trkpt>
      <trkpt lat="42.0462800" lon="-8.6441600">
        <ele>56.8</ele>
        <time>2022-06-18T06:55:21Z</time>
      </trkpt>
      <trkpt lat="42.0462950" lon="-8.6441760">
        <ele>56.8</ele>
        <time>2022-06-18T06:55:22Z</time>
      </trkpt>
      <trkpt lat="42.0463010" lon="-8.6441950">
        <ele>56.8</ele>
        <time>2022-06-18T06:55:23Z</time>
      </trkpt>
      <trkpt lat="42.0463050" lon="-8.6442160">
        <ele>56.8</ele>
        <time>2022-06-18T06:55:24Z</time>
      </trkpt>
      <trkpt lat="42.0463050" lon="-8.6442400">
        <ele>56.8</ele>
        <time>2022-06-18T06:55:25Z</time>
      </trkpt>
      <trkpt lat="42.0463060" lon="-8.6442500">
        <ele>56.8</ele>
        <time>2022-06-18T06:55:26Z</time>
      </trkpt>
      <trkpt lat="42.0463130" lon="-8.6442580">
        <ele>57.2</ele>
        <time>2022-06-18T06:55:27Z</time>
      </trkpt>
      <trkpt lat="42.0463130" lon="-8.6442580">
        <ele>56.8</ele>
        <time>2022-06-18T06:55:28Z</time>
      </trkpt>
      <trkpt lat="42.0463080" lon="-8.6442480">
        <ele>56.8</ele>
        <time>2022-06-18T06:55:29Z</time>
      </trkpt>
      <trkpt lat="42.0462960" lon="-8.6442330">
        <ele>56.8</ele>
        <time>2022-06-18T06:55:30Z</time>
      </trkpt>
      <trkpt lat="42.0462930" lon="-8.6442200">
        <ele>56.8</ele>
        <time>2022-06-18T06:55:31Z</time>
      </trkpt>
      <trkpt lat="42.0462910" lon="-8.6442060">
        <ele>56.8</ele>
        <time>2022-06-18T06:55:32Z</time>
      </trkpt>
      <trkpt lat="42.0462830" lon="-8.6441950">
        <ele>56.8</ele>
        <time>2022-06-18T06:55:33Z</time>
      </trkpt>
      <trkpt lat="42.0462730" lon="-8.6441810">
        <ele>56.8</ele>
        <time>2022-06-18T06:55:34Z</time>
      </trkpt>
      <trkpt lat="42.0462660" lon="-8.6441660">
        <ele>56.8</ele>
        <time>2022-06-18T06:55:35Z</time>
      </trkpt>
      <trkpt lat="42.0462600" lon="-8.6441450">
        <ele>56.2</ele>
        <time>2022-06-18T06:55:36Z</time>
      </trkpt>
      <trkpt lat="42.0462530" lon="-8.6441180">
        <ele>56.2</ele>
        <time>2022-06-18T06:55:37Z</time>
      </trkpt>
      <trkpt lat="42.0462460" lon="-8.6440900">
        <ele>56.2</ele>
        <time>2022-06-18T06:55:38Z</time>
      </trkpt>
      <trkpt lat="42.0462300" lon="-8.6440650">
        <ele>55.2</ele>
        <time>2022-06-18T06:55:39Z</time>
      </trkpt>
      <trkpt lat="42.0462230" lon="-8.6440480">
        <ele>54.0</ele>
        <time>2022-06-18T06:55:40Z</time>
      </trkpt>
      <trkpt lat="42.0462160" lon="-8.6440330">
        <ele>54.0</ele>
        <time>2022-06-18T06:55:41Z</time>
      </trkpt>
      <trkpt lat="42.0462060" lon="-8.6440230">
        <ele>54.0</ele>
        <time>2022-06-18T06:55:42Z</time>
      </trkpt>
      <trkpt lat="42.0462030" lon="-8.6440060">
        <ele>54.4</ele>
        <time>2022-06-18T06:55:43Z</time>
      </trkpt>
      <trkpt lat="42.0462060" lon="-8.6439980">
        <ele>54.0</ele>
        <time>2022-06-18T06:55:44Z</time>
      </trkpt>
      <trkpt lat="42.0462050" lon="-8.6439810">
        <ele>54.0</ele>
        <time>2022-06-18T06:55:45Z</time>
      </trkpt>
      <trkpt lat="42.0462070" lon="-8.6439290">
        <ele>54.0</ele>
        <time>2022-06-18T06:55:46Z</time>
      </trkpt>
      <trkpt lat="42.0462090" lon="-8.6439050">
        <ele>53.2</ele>
        <time>2022-06-18T06:55:47Z</time>
      </trkpt>
      <trkpt lat="42.0462110" lon="-8.6438800">
        <ele>52.4</ele>
        <time>2022-06-18T06:55:48Z</time>
      </trkpt>
      <trkpt lat="42.0462130" lon="-8.6438560">
        <ele>52.4</ele>
        <time>2022-06-18T06:55:49Z</time>
      </trkpt>
      <trkpt lat="42.0462150" lon="-8.6438320">
        <ele>52.4</ele>
        <time>2022-06-18T06:55:50Z</time>
      </trkpt>
      <trkpt lat="42.0462170" lon="-8.6438080">
        <ele>52.4</ele>
        <time>2022-06-18T06:55:51Z</time>
      </trkpt>
      <trkpt lat="42.0462190" lon="-8.6437840">
        <ele>51.6</ele>
        <time>2022-06-18T06:55:57Z</time>
      </trkpt>
      <trkpt lat="42.0462210" lon="-8.6437600">
        <ele>51.6</ele>
        <time>2022-06-18T06:55:58Z</time>
      </trkpt>
      <trkpt lat="42.0462230" lon="-8.6437350">
        <ele>51.6</ele>
        <time>2022-06-18T06:55:59Z</time>
      </trkpt>
      <trkpt lat="42.0462240" lon="-8.6437110">
        <ele>51.2</ele>
        <time>2022-06-18T06:56:00Z</time>
      </trkpt>
      <trkpt lat="42.0462260" lon="-8.6436870">
        <ele>51.2</ele>
        <time>2022-06-18T06:56:01Z</time>
      </trkpt>
      <trkpt lat="42.0462280" lon="-8.6436630">
        <ele>51.2</ele>
        <time>2022-06-18T06:56:02Z</time>
      </trkpt>
      <trkpt lat="42.0462300" lon="-8.6436390">
        <ele>51.2</ele>
        <time>2022-06-18T06:56:03Z</time>
      </trkpt>
      <trkpt lat="42.0462320" lon="-8.6436140">
        <ele>49.8</ele>
        <time>2022-06-18T06:56:04Z</time>
      </trkpt>
      <trkpt lat="42.0462340" lon="-8.6435900">
        <ele>49.8</ele>
        <time>2022-06-18T06:56:05Z</time>
      </trkpt>
      <trkpt lat="42.0462360" lon="-8.6435660">
        <ele>43.6</ele>
        <time>2022-06-18T06:56:53Z</time>
      </trkpt>
      <trkpt lat="42.0462380" lon="-8.6435420">
        <ele>43.6</ele>
        <time>2022-06-18T06:56:54Z</time>
      </trkpt>
      <trkpt lat="42.0462400" lon="-8.6435180">
        <ele>43.6</ele>
        <time>2022-06-18T06:56:55Z</time>
      </trkpt>
      <trkpt lat="42.0462420" lon="-8.6434940">
        <ele>43.6</ele>
        <time>2022-06-18T06:56:56Z</time>
      </trkpt>
      <trkpt lat="42.0462440" lon="-8.6434690">
        <ele>42.8</ele>
        <time>2022-06-18T06:57:05Z</time>
      </trkpt>
      <trkpt lat="42.0462460" lon="-8.6434450">
        <ele>42.8</ele>
        <time>2022-06-18T06:57:06Z</time>
      </trkpt>
      <trkpt lat="42.0462480" lon="-8.6434210">
        <ele>42.8</ele>
        <time>2022-06-18T06:57:07Z</time>
      </trkpt>
      <trkpt lat="42.0462850" lon="-8.6434380">
        <ele>42.8</ele>
        <time>2022-06-18T06:57:08Z</time>
      </trkpt>
      <trkpt lat="42.0462960" lon="-8.6434450">
        <ele>42.8</ele>
        <time>2022-06-18T06:57:09Z</time>
      </trkpt>
      <trkpt lat="42.0463080" lon="-8.6434480">
        <ele>42.8</ele>
        <time>2022-06-18T06:57:10Z</time>
      </trkpt>
      <trkpt lat="42.0463250" lon="-8.6434530">
        <ele>42.4</ele>
        <time>2022-06-18T06:57:11Z</time>
      </trkpt>
      <trkpt lat="42.0463380" lon="-8.6434450">
        <ele>42.2</ele>
        <time>2022-06-18T06:57:12Z</time>
      </trkpt>
      <trkpt lat="42.0463500" lon="-8.6434350">
        <ele>42.2</ele>
        <time>2022-06-18T06:57:13Z</time>
      </trkpt>
      <trkpt lat="42.0463650" lon="-8.6434300">
        <ele>42.2</ele>
        <time>2022-06-18T06:57:14Z</time>
      </trkpt>
      <trkpt lat="42.0463810" lon="-8.6434160">
        <ele>42.0</ele>
        <time>2022-06-18T06:57:15Z</time>
      </trkpt>
      <trkpt lat="42.0463810" lon="-8.6434160">
        <ele>41.8</ele>
        <time>2022-06-18T06:57:16Z</time>
      </trkpt>
      <trkpt lat="42.0464110" lon="-8.6434180">
        <ele>41.8</ele>
        <time>2022-06-18T06:57:17Z</time>
      </trkpt>
      <trkpt lat="42.0464210" lon="-8.6434060">
        <ele>41.8</ele>
        <time>2022-06-18T06:57:18Z</time>
      </trkpt>
      <trkpt lat="42.0464430" lon="-8.6433960">
        <ele>41.4</ele>
        <time>2022-06-18T06:57:19Z</time>
      </trkpt>
      <trkpt lat="42.0464600" lon="-8.6433950">
        <ele>41.4</ele>
        <time>2022-06-18T06:57:20Z</time>
      </trkpt>
      <trkpt lat="42.0464800" lon="-8.6433910">
        <ele>41.4</ele>
        <time>2022-06-18T06:57:21Z</time>
      </trkpt>
      <trkpt lat="42.0464950" lon="-8.6433900">
        <ele>41.4</ele>
        <time>2022-06-18T06:57:22Z</time>
      </trkpt>
      <trkpt lat="42.0465060" lon="-8.6433860">
        <ele>41.8</ele>
        <time>2022-06-18T06:57:23Z</time>
      </trkpt>
      <trkpt lat="42.0465060" lon="-8.6433860">
        <ele>41.4</ele>
        <time>2022-06-18T06:57:24Z</time>
      </trkpt>
      <trkpt lat="42.0465380" lon="-8.6433800">
        <ele>41.4</ele>
        <time>2022-06-18T06:57:25Z</time>
      </trkpt>
      <trkpt lat="42.0465550" lon="-8.6433780">
        <ele>41.4</ele>
        <time>2022-06-18T06:57:26Z</time>
      </trkpt>
      <trkpt lat="42.0465730" lon="-8.6433780">
        <ele>42.2</ele>
        <time>2022-06-18T06:57:27Z</time>
      </trkpt>
      <trkpt lat="42.0465860" lon="-8.6433680">
        <ele>41.8</ele>
        <time>2022-06-18T06:57:28Z</time>
      </trkpt>
      <trkpt lat="42.0466000" lon="-8.6433610">
        <ele>41.8</ele>
        <time>2022-06-18T06:57:29Z</time>
      </trkpt>
      <trkpt lat="42.0466320" lon="-8.6433390">
        <ele>41.8</ele>
        <time>2022-06-18T06:57:30Z</time>
      </trkpt>
      <trkpt lat="42.0466480" lon="-8.6433290">
        <ele>41.8</ele>
        <time>2022-06-18T06:57:31Z</time>
      </trkpt>
      <trkpt lat="42.0466640" lon="-8.6433180">
        <ele>41.6</ele>
        <time>2022-06-18T06:57:32Z</time>
      </trkpt>
      <trkpt lat="42.0466800" lon="-8.6433070">
        <ele>41.6</ele>
        <time>2022-06-18T06:57:33Z</time>
      </trkpt>
      <trkpt lat="42.0466970" lon="-8.6432970">
        <ele>41.6</ele>
        <time>2022-06-18T06:57:34Z</time>
      </trkpt>
      <trkpt lat="42.0467130" lon="-8.6432860">
        <ele>41.2</ele>
        <time>2022-06-18T06:57:38Z</time>
      </trkpt>
      <trkpt lat="42.0467290" lon="-8.6432760">
        <ele>42.0</ele>
        <time>2022-06-18T06:57:39Z</time>
      </trkpt>
      <trkpt lat="42.0467450" lon="-8.6432650">
        <ele>42.0</ele>
        <time>2022-06-18T06:57:40Z</time>
      </trkpt>
      <trkpt lat="42.0467750" lon="-8.6432380">
        <ele>42.0</ele>
        <time>2022-06-18T06:57:41Z</time>
      </trkpt>
      <trkpt lat="42.0467900" lon="-8.6432300">
        <ele>42.0</ele>
        <time>2022-06-18T06:57:42Z</time>
      </trkpt>
      <trkpt lat="42.0468060" lon="-8.6432280">
        <ele>42.0</ele>
        <time>2022-06-18T06:57:43Z</time>
      </trkpt>
      <trkpt lat="42.0468160" lon="-8.6432210">
        <ele>42.6</ele>
        <time>2022-06-18T06:57:44Z</time>
      </trkpt>
      <trkpt lat="42.0468300" lon="-8.6432160">
        <ele>42.6</ele>
        <time>2022-06-18T06:57:45Z</time>
      </trkpt>
      <trkpt lat="42.0468450" lon="-8.6432080">
        <ele>42.6</ele>
        <time>2022-06-18T06:57:46Z</time>
      </trkpt>
      <trkpt lat="42.0468450" lon="-8.6432080">
        <ele>41.8</ele>
        <time>2022-06-18T06:57:47Z</time>
      </trkpt>
      <trkpt lat="42.0468780" lon="-8.6431910">
        <ele>41.4</ele>
        <time>2022-06-18T06:57:48Z</time>
      </trkpt>
      <trkpt lat="42.0469100" lon="-8.6431950">
        <ele>41.4</ele>
        <time>2022-06-18T06:57:49Z</time>
      </trkpt>
      <trkpt lat="42.0469100" lon="-8.6431950">
        <ele>41.4</ele>
        <time>2022-06-18T06:57:50Z</time>
      </trkpt>
      <trkpt lat="42.0469860" lon="-8.6431610">
        <ele>41.4</ele>
        <time>2022-06-18T06:57:51Z</time>
      </trkpt>
      <trkpt lat="42.0470250" lon="-8.6431400">
        <ele>39.8</ele>
        <time>2022-06-18T06:57:52Z</time>
      </trkpt>
      <trkpt lat="42.0470650" lon="-8.6431230">
        <ele>39.8</ele>
        <time>2022-06-18T06:57:53Z</time>
      </trkpt>
      <trkpt lat="42.0470960" lon="-8.6431180">
        <ele>39.8</ele>
        <time>2022-06-18T06:57:54Z</time>
      </trkpt>
      <trkpt lat="42.0471300" lon="-8.6431160">
        <ele>39.8</ele>
        <time>2022-06-18T06:57:55Z</time>
      </trkpt>
      <trkpt lat="42.0471710" lon="-8.6431110">
        <ele>39.2</ele>
        <time>2022-06-18T06:57:56Z</time>
      </trkpt>
      <trkpt lat="42.0472080" lon="-8.6431010">
        <ele>39.2</ele>
        <time>2022-06-18T06:57:57Z</time>
      </trkpt>
      <trkpt lat="42.0472360" lon="-8.6430960">
        <ele>39.2</ele>
        <time>2022-06-18T06:57:58Z</time>
      </trkpt>
      <trkpt lat="42.0472360" lon="-8.6430960">
        <ele>39.8</ele>
        <time>2022-06-18T06:57:59Z</time>
      </trkpt>
      <trkpt lat="42.0472850" lon="-8.6431000">
        <ele>40.2</ele>
        <time>2022-06-18T06:58:00Z</time>
      </trkpt>
      <trkpt lat="42.0473050" lon="-8.6430910">
        <ele>40.2</ele>
        <time>2022-06-18T06:58:01Z</time>
      </trkpt>
      <trkpt lat="42.0473230" lon="-8.6430800">
        <ele>40.2</ele>
        <time>2022-06-18T06:58:02Z</time>
      </trkpt>
      <trkpt lat="42.0473430" lon="-8.6430580">
        <ele>40.0</ele>
        <time>2022-06-18T06:58:03Z</time>
      </trkpt>
      <trkpt lat="42.0473600" lon="-8.6430450">
        <ele>39.8</ele>
        <time>2022-06-18T06:58:04Z</time>
      </trkpt>
      <trkpt lat="42.0473650" lon="-8.6430280">
        <ele>39.8</ele>
        <time>2022-06-18T06:58:05Z</time>
      </trkpt>
      <trkpt lat="42.0473730" lon="-8.6430110">
        <ele>39.8</ele>
        <time>2022-06-18T06:58:06Z</time>
      </trkpt>
      <trkpt lat="42.0473730" lon="-8.6429850">
        <ele>39.8</ele>
        <time>2022-06-18T06:58:07Z</time>
      </trkpt>
      <trkpt lat="42.0473730" lon="-8.6429560">
        <ele>39.2</ele>
        <time>2022-06-18T06:58:08Z</time>
      </trkpt>
      <trkpt lat="42.0473730" lon="-8.6429560">
        <ele>39.2</ele>
        <time>2022-06-18T06:58:09Z</time>
      </trkpt>
      <trkpt lat="42.0473610" lon="-8.6428900">
        <ele>39.2</ele>
        <time>2022-06-18T06:58:10Z</time>
      </trkpt>
      <trkpt lat="42.0473560" lon="-8.6428510">
        <ele>38.2</ele>
        <time>2022-06-18T06:58:11Z</time>
      </trkpt>
      <trkpt lat="42.0473500" lon="-8.6428130">
        <ele>37.0</ele>
        <time>2022-06-18T06:58:12Z</time>
      </trkpt>
      <trkpt lat="42.0473500" lon="-8.6428130">
        <ele>37.0</ele>
        <time>2022-06-18T06:58:13Z</time>
      </trkpt>
      <trkpt lat="42.0473500" lon="-8.6428130">
        <ele>37.0</ele>
        <time>2022-06-18T06:58:14Z</time>
      </trkpt>
      <trkpt lat="42.0473260" lon="-8.6427000">
        <ele>36.0</ele>
        <time>2022-06-18T06:58:15Z</time>
      </trkpt>
      <trkpt lat="42.0473200" lon="-8.6426580">
        <ele>35.2</ele>
        <time>2022-06-18T06:58:16Z</time>
      </trkpt>
      <trkpt lat="42.0473200" lon="-8.6426580">
        <ele>35.2</ele>
        <time>2022-06-18T06:58:17Z</time>
      </trkpt>
      <trkpt lat="42.0473000" lon="-8.6425530">
        <ele>35.2</ele>
        <time>2022-06-18T06:58:18Z</time>
      </trkpt>
      <trkpt lat="42.0472910" lon="-8.6425000">
        <ele>34.2</ele>
        <time>2022-06-18T06:58:19Z</time>
      </trkpt>
      <trkpt lat="42.0472950" lon="-8.6424360">
        <ele>33.0</ele>
        <time>2022-06-18T06:58:20Z</time>
      </trkpt>
      <trkpt lat="42.0472740" lon="-8.6423500">
        <ele>33.0</ele>
        <time>2022-06-18T06:58:21Z</time>
      </trkpt>
      <trkpt lat="42.0472670" lon="-8.6423230">
        <ele>33.0</ele>
        <time>2022-06-18T06:58:22Z</time>
      </trkpt>
      <trkpt lat="42.0472590" lon="-8.6422970">
        <ele>32.0</ele>
        <time>2022-06-18T06:58:23Z</time>
      </trkpt>
      <trkpt lat="42.0472380" lon="-8.6422180">
        <ele>29.8</ele>
        <time>2022-06-18T06:58:24Z</time>
      </trkpt>
      <trkpt lat="42.0472250" lon="-8.6421810">
        <ele>29.8</ele>
        <time>2022-06-18T06:58:25Z</time>
      </trkpt>
      <trkpt lat="42.0472200" lon="-8.6421410">
        <ele>29.8</ele>
        <time>2022-06-18T06:58:26Z</time>
      </trkpt>
      <trkpt lat="42.0472060" lon="-8.6421260">
        <ele>29.8</ele>
        <time>2022-06-18T06:58:27Z</time>
      </trkpt>
      <trkpt lat="42.0471940" lon="-8.6421090">
        <ele>29.6</ele>
        <time>2022-06-18T06:58:28Z</time>
      </trkpt>
      <trkpt lat="42.0472040" lon="-8.6421020">
        <ele>29.6</ele>
        <time>2022-06-18T06:58:29Z</time>
      </trkpt>
      <trkpt lat="42.0472150" lon="-8.6420950">
        <ele>29.6</ele>
        <time>2022-06-18T06:58:30Z</time>
      </trkpt>
      <trkpt lat="42.0472260" lon="-8.6420880">
        <ele>29.6</ele>
        <time>2022-06-18T06:58:31Z</time>
      </trkpt>
      <trkpt lat="42.0472360" lon="-8.6420810">
        <ele>30.0</ele>
        <time>2022-06-18T06:58:32Z</time>
      </trkpt>
      <trkpt lat="42.0472470" lon="-8.6420740">
        <ele>30.0</ele>
        <time>2022-06-18T06:58:33Z</time>
      </trkpt>
      <trkpt lat="42.0472580" lon="-8.6420660">
        <ele>30.0</ele>
        <time>2022-06-18T06:58:34Z</time>
      </trkpt>
      <trkpt lat="42.0472680" lon="-8.6420590">
        <ele>29.4</ele>
        <time>2022-06-18T06:58:35Z</time>
      </trkpt>
      <trkpt lat="42.0472790" lon="-8.6420520">
        <ele>29.2</ele>
        <time>2022-06-18T06:58:36Z</time>
      </trkpt>
      <trkpt lat="42.0472900" lon="-8.6420450">
        <ele>29.2</ele>
        <time>2022-06-18T06:58:37Z</time>
      </trkpt>
      <trkpt lat="42.0473000" lon="-8.6420380">
        <ele>29.2</ele>
        <time>2022-06-18T06:58:38Z</time>
      </trkpt>
      <trkpt lat="42.0473110" lon="-8.6420310">
        <ele>29.2</ele>
        <time>2022-06-18T06:58:39Z</time>
      </trkpt>
      <trkpt lat="42.0473220" lon="-8.6420240">
        <ele>29.6</ele>
        <time>2022-06-18T06:58:40Z</time>
      </trkpt>
      <trkpt lat="42.0473320" lon="-8.6420170">
        <ele>29.2</ele>
        <time>2022-06-18T06:59:31Z</time>
      </trkpt>
      <trkpt lat="42.0473430" lon="-8.6420100">
        <ele>29.2</ele>
        <time>2022-06-18T06:59:32Z</time>
      </trkpt>
      <trkpt lat="42.0473780" lon="-8.6419850">
        <ele>29.2</ele>
        <time>2022-06-18T06:59:33Z</time>
      </trkpt>
      <trkpt lat="42.0474200" lon="-8.6419580">
        <ele>29.2</ele>
        <time>2022-06-18T06:59:34Z</time>
      </trkpt>
      <trkpt lat="42.0474630" lon="-8.6419250">
        <ele>28.2</ele>
        <time>2022-06-18T06:59:35Z</time>
      </trkpt>
      <trkpt lat="42.0475080" lon="-8.6418880">
        <ele>27.0</ele>
        <time>2022-06-18T06:59:36Z</time>
      </trkpt>
      <trkpt lat="42.0475530" lon="-8.6418430">
        <ele>27.0</ele>
        <time>2022-06-18T06:59:37Z</time>
      </trkpt>
      <trkpt lat="42.0476010" lon="-8.6417950">
        <ele>27.0</ele>
        <time>2022-06-18T06:59:38Z</time>
      </trkpt>
      <trkpt lat="42.0476530" lon="-8.6417430">
        <ele>26.0</ele>
        <time>2022-06-18T06:59:39Z</time>
      </trkpt>
      <trkpt lat="42.0477110" lon="-8.6416860">
        <ele>23.6</ele>
        <time>2022-06-18T06:59:40Z</time>
      </trkpt>
      <trkpt lat="42.0477750" lon="-8.6416260">
        <ele>23.6</ele>
        <time>2022-06-18T06:59:41Z</time>
      </trkpt>
      <trkpt lat="42.0478360" lon="-8.6415630">
        <ele>23.6</ele>
        <time>2022-06-18T06:59:42Z</time>
      </trkpt>
      <trkpt lat="42.0479000" lon="-8.6415030">
        <ele>22.6</ele>
        <time>2022-06-18T06:59:43Z</time>
      </trkpt>
      <trkpt lat="42.0479610" lon="-8.6414450">
        <ele>20.8</ele>
        <time>2022-06-18T06:59:44Z</time>
      </trkpt>
      <trkpt lat="42.0480200" lon="-8.6413860">
        <ele>20.8</ele>
        <time>2022-06-18T06:59:45Z</time>
      </trkpt>
      <trkpt lat="42.0480780" lon="-8.6413330">
        <ele>20.8</ele>
        <time>2022-06-18T06:59:46Z</time>
      </trkpt>
      <trkpt lat="42.0481360" lon="-8.6412850">
        <ele>20.8</ele>
        <time>2022-06-18T06:59:47Z</time>
      </trkpt>
      <trkpt lat="42.0481900" lon="-8.6412350">
        <ele>21.8</ele>
        <time>2022-06-18T06:59:48Z</time>
      </trkpt>
      <trkpt lat="42.0482410" lon="-8.6411860">
        <ele>21.8</ele>
        <time>2022-06-18T06:59:49Z</time>
      </trkpt>
      <trkpt lat="42.0482900" lon="-8.6411450">
        <ele>21.8</ele>
        <time>2022-06-18T06:59:50Z</time>
      </trkpt>
      <trkpt lat="42.0483380" lon="-8.6411060">
        <ele>21.8</ele>
        <time>2022-06-18T06:59:51Z</time>
      </trkpt>
      <trkpt lat="42.0483810" lon="-8.6410710">
        <ele>23.0</ele>
        <time>2022-06-18T06:59:52Z</time>
      </trkpt>
      <trkpt lat="42.0484230" lon="-8.6410400">
        <ele>23.0</ele>
        <time>2022-06-18T06:59:53Z</time>
      </trkpt>
      <trkpt lat="42.0484580" lon="-8.6410130">
        <ele>23.0</ele>
        <time>2022-06-18T06:59:54Z</time>
      </trkpt>
      <trkpt lat="42.0484900" lon="-8.6409860">
        <ele>24.0</ele>
        <time>2022-06-18T06:59:55Z</time>
      </trkpt>
      <trkpt lat="42.0485260" lon="-8.6409650">
        <ele>24.4</ele>
        <time>2022-06-18T06:59:56Z</time>
      </trkpt>
      <trkpt lat="42.0485550" lon="-8.6409410">
        <ele>24.4</ele>
        <time>2022-06-18T06:59:57Z</time>
      </trkpt>
      <trkpt lat="42.0485880" lon="-8.6409150">
        <ele>24.4</ele>
        <time>2022-06-18T06:59:58Z</time>
      </trkpt>
      <trkpt lat="42.0486210" lon="-8.6408850">
        <ele>25.0</ele>
        <time>2022-06-18T06:59:59Z</time>
      </trkpt>
      <trkpt lat="42.0486560" lon="-8.6408460">
        <ele>24.8</ele>
        <time>2022-06-18T07:00:00Z</time>
      </trkpt>
      <trkpt lat="42.0486880" lon="-8.6408110">
        <ele>24.8</ele>
        <time>2022-06-18T07:00:01Z</time>
      </trkpt>
      <trkpt lat="42.0487230" lon="-8.6407810">
        <ele>24.8</ele>
        <time>2022-06-18T07:00:02Z</time>
      </trkpt>
      <trkpt lat="42.0487550" lon="-8.6407510">
        <ele>25.0</ele>
        <time>2022-06-18T07:00:03Z</time>
      </trkpt>
      <trkpt lat="42.0487860" lon="-8.6407260">
        <ele>25.0</ele>
        <time>2022-06-18T07:00:04Z</time>
      </trkpt>
      <trkpt lat="42.0488180" lon="-8.6407050">
        <ele>25.0</ele>
        <time>2022-06-18T07:00:05Z</time>
      </trkpt>
      <trkpt lat="42.0488500" lon="-8.6406830">
        <ele>25.0</ele>
        <time>2022-06-18T07:00:06Z</time>
      </trkpt>
      <trkpt lat="42.0488810" lon="-8.6406610">
        <ele>25.8</ele>
        <time>2022-06-18T07:00:07Z</time>
      </trkpt>
      <trkpt lat="42.0489110" lon="-8.6406430">
        <ele>26.0</ele>
        <time>2022-06-18T07:00:08Z</time>
      </trkpt>
      <trkpt lat="42.0489450" lon="-8.6406300">
        <ele>26.0</ele>
        <time>2022-06-18T07:00:09Z</time>
      </trkpt>
      <trkpt lat="42.0489800" lon="-8.6406160">
        <ele>26.0</ele>
        <time>2022-06-18T07:00:10Z</time>
      </trkpt>
      <trkpt lat="42.0490110" lon="-8.6406030">
        <ele>26.0</ele>
        <time>2022-06-18T07:00:11Z</time>
      </trkpt>
      <trkpt lat="42.0490460" lon="-8.6405880">
        <ele>26.0</ele>
        <time>2022-06-18T07:00:12Z</time>
      </trkpt>
      <trkpt lat="42.0490780" lon="-8.6405750">
        <ele>26.0</ele>
        <time>2022-06-18T07:00:13Z</time>
      </trkpt>
      <trkpt lat="42.0491080" lon="-8.6405610">
        <ele>26.0</ele>
        <time>2022-06-18T07:00:14Z</time>
      </trkpt>
      <trkpt lat="42.0491430" lon="-8.6405480">
        <ele>26.2</ele>
        <time>2022-06-18T07:00:15Z</time>
      </trkpt>
      <trkpt lat="42.0491760" lon="-8.6405330">
        <ele>26.8</ele>
        <time>2022-06-18T07:00:16Z</time>
      </trkpt>
      <trkpt lat="42.0492100" lon="-8.6405180">
        <ele>26.8</ele>
        <time>2022-06-18T07:00:17Z</time>
      </trkpt>
      <trkpt lat="42.0492450" lon="-8.6405080">
        <ele>26.8</ele>
        <time>2022-06-18T07:00:18Z</time>
      </trkpt>
      <trkpt lat="42.0492800" lon="-8.6404930">
        <ele>26.8</ele>
        <time>2022-06-18T07:00:19Z</time>
      </trkpt>
      <trkpt lat="42.0493130" lon="-8.6404800">
        <ele>26.8</ele>
        <time>2022-06-18T07:00:20Z</time>
      </trkpt>
      <trkpt lat="42.0493430" lon="-8.6404650">
        <ele>26.8</ele>
        <time>2022-06-18T07:00:21Z</time>
      </trkpt>
      <trkpt lat="42.0493710" lon="-8.6404500">
        <ele>26.8</ele>
        <time>2022-06-18T07:00:22Z</time>
      </trkpt>
      <trkpt lat="42.0494000" lon="-8.6404360">
        <ele>27.2</ele>
        <time>2022-06-18T07:00:23Z</time>
      </trkpt>
      <trkpt lat="42.0494250" lon="-8.6404280">
        <ele>27.2</ele>
        <time>2022-06-18T07:00:24Z</time>
      </trkpt>
      <trkpt lat="42.0494510" lon="-8.6404150">
        <ele>27.2</ele>
        <time>2022-06-18T07:00:25Z</time>
      </trkpt>
      <trkpt lat="42.0494830" lon="-8.6404060">
        <ele>27.2</ele>
        <time>2022-06-18T07:00:26Z</time>
      </trkpt>
      <trkpt lat="42.0495110" lon="-8.6403980">
        <ele>27.6</ele>
        <time>2022-06-18T07:00:27Z</time>
      </trkpt>
      <trkpt lat="42.0495380" lon="-8.6403900">
        <ele>27.6</ele>
        <time>2022-06-18T07:00:28Z</time>
      </trkpt>
      <trkpt lat="42.0495610" lon="-8.6403710">
        <ele>27.6</ele>
        <time>2022-06-18T07:00:29Z</time>
      </trkpt>
      <trkpt lat="42.0495930" lon="-8.6403560">
        <ele>27.6</ele>
        <time>2022-06-18T07:00:30Z</time>
      </trkpt>
      <trkpt lat="42.0496250" lon="-8.6403410">
        <ele>27.4</ele>
        <time>2022-06-18T07:00:31Z</time>
      </trkpt>
      <trkpt lat="42.0496600" lon="-8.6403260">
        <ele>27.6</ele>
        <time>2022-06-18T07:00:32Z</time>
      </trkpt>
      <trkpt lat="42.0496980" lon="-8.6403080">
        <ele>27.6</ele>
        <time>2022-06-18T07:00:33Z</time>
      </trkpt>
      <trkpt lat="42.0497350" lon="-8.6402910">
        <ele>27.6</ele>
        <time>2022-06-18T07:00:34Z</time>
      </trkpt>
      <trkpt lat="42.0497710" lon="-8.6402730">
        <ele>27.6</ele>
        <time>2022-06-18T07:00:35Z</time>
      </trkpt>
      <trkpt lat="42.0498050" lon="-8.6402580">
        <ele>26.6</ele>
        <time>2022-06-18T07:00:36Z</time>
      </trkpt>
      <trkpt lat="42.0498400" lon="-8.6402410">
        <ele>26.6</ele>
        <time>2022-06-18T07:00:37Z</time>
      </trkpt>
      <trkpt lat="42.0498730" lon="-8.6402250">
        <ele>26.6</ele>
        <time>2022-06-18T07:00:38Z</time>
      </trkpt>
      <trkpt lat="42.0499050" lon="-8.6402080">
        <ele>27.4</ele>
        <time>2022-06-18T07:00:39Z</time>
      </trkpt>
      <trkpt lat="42.0499380" lon="-8.6401930">
        <ele>27.2</ele>
        <time>2022-06-18T07:00:40Z</time>
      </trkpt>
      <trkpt lat="42.0499710" lon="-8.6401850">
        <ele>27.2</ele>
        <time>2022-06-18T07:00:41Z</time>
      </trkpt>
      <trkpt lat="42.0500030" lon="-8.6401680">
        <ele>27.2</ele>
        <time>2022-06-18T07:00:42Z</time>
      </trkpt>
      <trkpt lat="42.0500330" lon="-8.6401510">
        <ele>27.6</ele>
        <time>2022-06-18T07:00:43Z</time>
      </trkpt>
      <trkpt lat="42.0500660" lon="-8.6401380">
        <ele>27.6</ele>
        <time>2022-06-18T07:00:44Z</time>
      </trkpt>
      <trkpt lat="42.0501000" lon="-8.6401230">
        <ele>27.6</ele>
        <time>2022-06-18T07:00:45Z</time>
      </trkpt>
      <trkpt lat="42.0501310" lon="-8.6401030">
        <ele>27.6</ele>
        <time>2022-06-18T07:00:46Z</time>
      </trkpt>
      <trkpt lat="42.0501660" lon="-8.6400850">
        <ele>27.8</ele>
        <time>2022-06-18T07:00:47Z</time>
      </trkpt>
      <trkpt lat="42.0501960" lon="-8.6400710">
        <ele>28.6</ele>
        <time>2022-06-18T07:00:48Z</time>
      </trkpt>
      <trkpt lat="42.0502250" lon="-8.6400600">
        <ele>28.6</ele>
        <time>2022-06-18T07:00:49Z</time>
      </trkpt>
      <trkpt lat="42.0502580" lon="-8.6400500">
        <ele>28.6</ele>
        <time>2022-06-18T07:00:50Z</time>
      </trkpt>
      <trkpt lat="42.0502860" lon="-8.6400400">
        <ele>28.2</ele>
        <time>2022-06-18T07:00:51Z</time>
      </trkpt>
      <trkpt lat="42.0503150" lon="-8.6400280">
        <ele>28.2</ele>
        <time>2022-06-18T07:00:52Z</time>
      </trkpt>
      <trkpt lat="42.0503460" lon="-8.6400080">
        <ele>28.2</ele>
        <time>2022-06-18T07:00:53Z</time>
      </trkpt>
      <trkpt lat="42.0503830" lon="-8.6399900">
        <ele>28.2</ele>
        <time>2022-06-18T07:00:54Z</time>
      </trkpt>
      <trkpt lat="42.0504160" lon="-8.6399710">
        <ele>28.4</ele>
        <time>2022-06-18T07:00:55Z</time>
      </trkpt>
      <trkpt lat="42.0504500" lon="-8.6399560">
        <ele>28.2</ele>
        <time>2022-06-18T07:00:56Z</time>
      </trkpt>
      <trkpt lat="42.0504810" lon="-8.6399460">
        <ele>28.2</ele>
        <time>2022-06-18T07:00:57Z</time>
      </trkpt>
      <trkpt lat="42.0505130" lon="-8.6399310">
        <ele>28.2</ele>
        <time>2022-06-18T07:00:58Z</time>
      </trkpt>
      <trkpt lat="42.0505450" lon="-8.6399150">
        <ele>28.2</ele>
        <time>2022-06-18T07:00:59Z</time>
      </trkpt>
      <trkpt lat="42.0505750" lon="-8.6399010">
        <ele>28.2</ele>
        <time>2022-06-18T07:01:00Z</time>
      </trkpt>
      <trkpt lat="42.0506080" lon="-8.6398880">
        <ele>28.2</ele>
        <time>2022-06-18T07:01:01Z</time>
      </trkpt>
      <trkpt lat="42.0506300" lon="-8.6398750">
        <ele>28.2</ele>
        <time>2022-06-18T07:01:02Z</time>
      </trkpt>
      <trkpt lat="42.0506600" lon="-8.6398580">
        <ele>28.8</ele>
        <time>2022-06-18T07:01:03Z</time>
      </trkpt>
      <trkpt lat="42.0506950" lon="-8.6398460">
        <ele>28.8</ele>
        <time>2022-06-18T07:01:04Z</time>
      </trkpt>
      <trkpt lat="42.0507330" lon="-8.6398360">
        <ele>28.8</ele>
        <time>2022-06-18T07:01:05Z</time>
      </trkpt>
      <trkpt lat="42.0507750" lon="-8.6398230">
        <ele>28.8</ele>
        <time>2022-06-18T07:01:06Z</time>
      </trkpt>
      <trkpt lat="42.0508080" lon="-8.6398080">
        <ele>28.6</ele>
        <time>2022-06-18T07:01:07Z</time>
      </trkpt>
      <trkpt lat="42.0508460" lon="-8.6397900">
        <ele>28.6</ele>
        <time>2022-06-18T07:01:08Z</time>
      </trkpt>
      <trkpt lat="42.0508980" lon="-8.6397710">
        <ele>28.6</ele>
        <time>2022-06-18T07:01:09Z</time>
      </trkpt>
      <trkpt lat="42.0509380" lon="-8.6397560">
        <ele>28.6</ele>
        <time>2022-06-18T07:01:10Z</time>
      </trkpt>
      <trkpt lat="42.0509760" lon="-8.6397380">
        <ele>28.6</ele>
        <time>2022-06-18T07:01:11Z</time>
      </trkpt>
      <trkpt lat="42.0510130" lon="-8.6397230">
        <ele>28.6</ele>
        <time>2022-06-18T07:01:12Z</time>
      </trkpt>
      <trkpt lat="42.0510480" lon="-8.6397060">
        <ele>28.6</ele>
        <time>2022-06-18T07:01:13Z</time>
      </trkpt>
      <trkpt lat="42.0510830" lon="-8.6396900">
        <ele>28.6</ele>
        <time>2022-06-18T07:01:14Z</time>
      </trkpt>
      <trkpt lat="42.0511180" lon="-8.6396730">
        <ele>28.6</ele>
        <time>2022-06-18T07:01:15Z</time>
      </trkpt>
      <trkpt lat="42.0511530" lon="-8.6396580">
        <ele>28.8</ele>
        <time>2022-06-18T07:01:16Z</time>
      </trkpt>
      <trkpt lat="42.0511880" lon="-8.6396410">
        <ele>28.8</ele>
        <time>2022-06-18T07:01:17Z</time>
      </trkpt>
      <trkpt lat="42.0512230" lon="-8.6396260">
        <ele>28.8</ele>
        <time>2022-06-18T07:01:18Z</time>
      </trkpt>
      <trkpt lat="42.0512630" lon="-8.6396150">
        <ele>28.8</ele>
        <time>2022-06-18T07:01:19Z</time>
      </trkpt>
      <trkpt lat="42.0512980" lon="-8.6396050">
        <ele>28.8</ele>
        <time>2022-06-18T07:01:20Z</time>
      </trkpt>
      <trkpt lat="42.0513350" lon="-8.6395930">
        <ele>28.8</ele>
        <time>2022-06-18T07:01:21Z</time>
      </trkpt>
      <trkpt lat="42.0513700" lon="-8.6395830">
        <ele>28.8</ele>
        <time>2022-06-18T07:01:22Z</time>
      </trkpt>
      <trkpt lat="42.0514080" lon="-8.6395760">
        <ele>28.4</ele>
        <time>2022-06-18T07:01:23Z</time>
      </trkpt>
      <trkpt lat="42.0514430" lon="-8.6395700">
        <ele>28.4</ele>
        <time>2022-06-18T07:01:24Z</time>
      </trkpt>
      <trkpt lat="42.0514800" lon="-8.6395680">
        <ele>28.4</ele>
        <time>2022-06-18T07:01:25Z</time>
      </trkpt>
      <trkpt lat="42.0515150" lon="-8.6395700">
        <ele>28.4</ele>
        <time>2022-06-18T07:01:26Z</time>
      </trkpt>
      <trkpt lat="42.0515530" lon="-8.6395710">
        <ele>28.4</ele>
        <time>2022-06-18T07:01:27Z</time>
      </trkpt>
      <trkpt lat="42.0515900" lon="-8.6395780">
        <ele>28.4</ele>
        <time>2022-06-18T07:01:28Z</time>
      </trkpt>
      <trkpt lat="42.0516250" lon="-8.6395830">
        <ele>28.4</ele>
        <time>2022-06-18T07:01:29Z</time>
      </trkpt>
      <trkpt lat="42.0516580" lon="-8.6395930">
        <ele>28.4</ele>
        <time>2022-06-18T07:01:30Z</time>
      </trkpt>
      <trkpt lat="42.0516910" lon="-8.6396050">
        <ele>28.4</ele>
        <time>2022-06-18T07:01:31Z</time>
      </trkpt>
      <trkpt lat="42.0517260" lon="-8.6396180">
        <ele>28.4</ele>
        <time>2022-06-18T07:01:32Z</time>
      </trkpt>
      <trkpt lat="42.0517610" lon="-8.6396380">
        <ele>28.4</ele>
        <time>2022-06-18T07:01:33Z</time>
      </trkpt>
      <trkpt lat="42.0517950" lon="-8.6396600">
        <ele>28.4</ele>
        <time>2022-06-18T07:01:34Z</time>
      </trkpt>
      <trkpt lat="42.0518280" lon="-8.6396830">
        <ele>28.2</ele>
        <time>2022-06-18T07:01:35Z</time>
      </trkpt>
      <trkpt lat="42.0518630" lon="-8.6397130">
        <ele>28.4</ele>
        <time>2022-06-18T07:01:36Z</time>
      </trkpt>
      <trkpt lat="42.0518910" lon="-8.6397430">
        <ele>28.4</ele>
        <time>2022-06-18T07:01:37Z</time>
      </trkpt>
      <trkpt lat="42.0519180" lon="-8.6397780">
        <ele>28.4</ele>
        <time>2022-06-18T07:01:38Z</time>
      </trkpt>
      <trkpt lat="42.0519450" lon="-8.6398130">
        <ele>27.6</ele>
        <time>2022-06-18T07:01:39Z</time>
      </trkpt>
      <trkpt lat="42.0519700" lon="-8.6398480">
        <ele>27.6</ele>
        <time>2022-06-18T07:01:40Z</time>
      </trkpt>
      <trkpt lat="42.0519950" lon="-8.6398860">
        <ele>27.6</ele>
        <time>2022-06-18T07:01:41Z</time>
      </trkpt>
      <trkpt lat="42.0520160" lon="-8.6399280">
        <ele>27.6</ele>
        <time>2022-06-18T07:01:42Z</time>
      </trkpt>
      <trkpt lat="42.0520380" lon="-8.6399710">
        <ele>28.0</ele>
        <time>2022-06-18T07:01:43Z</time>
      </trkpt>
      <trkpt lat="42.0520560" lon="-8.6400160">
        <ele>28.0</ele>
        <time>2022-06-18T07:01:44Z</time>
      </trkpt>
      <trkpt lat="42.0520730" lon="-8.6400610">
        <ele>28.0</ele>
        <time>2022-06-18T07:01:45Z</time>
      </trkpt>
      <trkpt lat="42.0520900" lon="-8.6401080">
        <ele>28.0</ele>
        <time>2022-06-18T07:01:46Z</time>
      </trkpt>
      <trkpt lat="42.0521060" lon="-8.6401600">
        <ele>28.0</ele>
        <time>2022-06-18T07:01:47Z</time>
      </trkpt>
      <trkpt lat="42.0521180" lon="-8.6402080">
        <ele>28.2</ele>
        <time>2022-06-18T07:01:48Z</time>
      </trkpt>
      <trkpt lat="42.0521260" lon="-8.6402560">
        <ele>28.2</ele>
        <time>2022-06-18T07:01:49Z</time>
      </trkpt>
      <trkpt lat="42.0521330" lon="-8.6403060">
        <ele>28.2</ele>
        <time>2022-06-18T07:01:50Z</time>
      </trkpt>
      <trkpt lat="42.0521410" lon="-8.6403550">
        <ele>27.4</ele>
        <time>2022-06-18T07:01:51Z</time>
      </trkpt>
      <trkpt lat="42.0521510" lon="-8.6403980">
        <ele>27.4</ele>
        <time>2022-06-18T07:01:52Z</time>
      </trkpt>
      <trkpt lat="42.0521660" lon="-8.6404300">
        <ele>27.4</ele>
        <time>2022-06-18T07:01:53Z</time>
      </trkpt>
      <trkpt lat="42.0521930" lon="-8.6404400">
        <ele>27.4</ele>
        <time>2022-06-18T07:01:54Z</time>
      </trkpt>
      <trkpt lat="42.0522210" lon="-8.6404330">
        <ele>28.2</ele>
        <time>2022-06-18T07:01:55Z</time>
      </trkpt>
      <trkpt lat="42.0522510" lon="-8.6404200">
        <ele>28.0</ele>
        <time>2022-06-18T07:01:56Z</time>
      </trkpt>
      <trkpt lat="42.0522830" lon="-8.6404010">
        <ele>28.0</ele>
        <time>2022-06-18T07:01:57Z</time>
      </trkpt>
      <trkpt lat="42.0523100" lon="-8.6403860">
        <ele>28.0</ele>
        <time>2022-06-18T07:01:58Z</time>
      </trkpt>
      <trkpt lat="42.0523450" lon="-8.6403710">
        <ele>27.2</ele>
        <time>2022-06-18T07:01:59Z</time>
      </trkpt>
      <trkpt lat="42.0523800" lon="-8.6403610">
        <ele>27.2</ele>
        <time>2022-06-18T07:02:00Z</time>
      </trkpt>
      <trkpt lat="42.0524160" lon="-8.6403500">
        <ele>27.2</ele>
        <time>2022-06-18T07:02:01Z</time>
      </trkpt>
      <trkpt lat="42.0524530" lon="-8.6403380">
        <ele>27.2</ele>
        <time>2022-06-18T07:02:02Z</time>
      </trkpt>
      <trkpt lat="42.0524900" lon="-8.6403250">
        <ele>27.2</ele>
        <time>2022-06-18T07:02:03Z</time>
      </trkpt>
      <trkpt lat="42.0525260" lon="-8.6403200">
        <ele>27.4</ele>
        <time>2022-06-18T07:02:04Z</time>
      </trkpt>
      <trkpt lat="42.0525630" lon="-8.6403130">
        <ele>27.4</ele>
        <time>2022-06-18T07:02:05Z</time>
      </trkpt>
      <trkpt lat="42.0526030" lon="-8.6403060">
        <ele>27.4</ele>
        <time>2022-06-18T07:02:06Z</time>
      </trkpt>
      <trkpt lat="42.0526410" lon="-8.6402950">
        <ele>27.4</ele>
        <time>2022-06-18T07:02:07Z</time>
      </trkpt>
      <trkpt lat="42.0526850" lon="-8.6402860">
        <ele>27.2</ele>
        <time>2022-06-18T07:02:08Z</time>
      </trkpt>
      <trkpt lat="42.0527280" lon="-8.6402800">
        <ele>27.2</ele>
        <time>2022-06-18T07:02:09Z</time>
      </trkpt>
      <trkpt lat="42.0527680" lon="-8.6402680">
        <ele>27.2</ele>
        <time>2022-06-18T07:02:10Z</time>
      </trkpt>
      <trkpt lat="42.0528030" lon="-8.6402530">
        <ele>27.2</ele>
        <time>2022-06-18T07:02:11Z</time>
      </trkpt>
      <trkpt lat="42.0528360" lon="-8.6402360">
        <ele>27.0</ele>
        <time>2022-06-18T07:02:12Z</time>
      </trkpt>
      <trkpt lat="42.0528750" lon="-8.6402230">
        <ele>27.0</ele>
        <time>2022-06-18T07:02:13Z</time>
      </trkpt>
      <trkpt lat="42.0529130" lon="-8.6402130">
        <ele>27.0</ele>
        <time>2022-06-18T07:02:14Z</time>
      </trkpt>
      <trkpt lat="42.0529530" lon="-8.6402010">
        <ele>27.0</ele>
        <time>2022-06-18T07:02:15Z</time>
      </trkpt>
      <trkpt lat="42.0529930" lon="-8.6401930">
        <ele>27.2</ele>
        <time>2022-06-18T07:02:16Z</time>
      </trkpt>
      <trkpt lat="42.0530300" lon="-8.6401800">
        <ele>27.2</ele>
        <time>2022-06-18T07:02:17Z</time>
      </trkpt>
      <trkpt lat="42.0530700" lon="-8.6401700">
        <ele>27.2</ele>
        <time>2022-06-18T07:02:18Z</time>
      </trkpt>
      <trkpt lat="42.0531080" lon="-8.6401600">
        <ele>27.0</ele>
        <time>2022-06-18T07:02:19Z</time>
      </trkpt>
      <trkpt lat="42.0531480" lon="-8.6401510">
        <ele>26.8</ele>
        <time>2022-06-18T07:02:20Z</time>
      </trkpt>
      <trkpt lat="42.0531880" lon="-8.6401380">
        <ele>26.8</ele>
        <time>2022-06-18T07:02:21Z</time>
      </trkpt>
      <trkpt lat="42.0532260" lon="-8.6401260">
        <ele>26.8</ele>
        <time>2022-06-18T07:02:22Z</time>
      </trkpt>
      <trkpt lat="42.0532680" lon="-8.6401100">
        <ele>26.8</ele>
        <time>2022-06-18T07:02:23Z</time>
      </trkpt>
      <trkpt lat="42.0533080" lon="-8.6400930">
        <ele>26.8</ele>
        <time>2022-06-18T07:02:24Z</time>
      </trkpt>
      <trkpt lat="42.0533510" lon="-8.6400750">
        <ele>26.8</ele>
        <time>2022-06-18T07:02:25Z</time>
      </trkpt>
      <trkpt lat="42.0533860" lon="-8.6400480">
        <ele>26.8</ele>
        <time>2022-06-18T07:02:26Z</time>
      </trkpt>
      <trkpt lat="42.0534180" lon="-8.6400110">
        <ele>26.8</ele>
        <time>2022-06-18T07:02:27Z</time>
      </trkpt>
      <trkpt lat="42.0534410" lon="-8.6399660">
        <ele>26.6</ele>
        <time>2022-06-18T07:02:28Z</time>
      </trkpt>
      <trkpt lat="42.0534530" lon="-8.6399130">
        <ele>26.6</ele>
        <time>2022-06-18T07:02:29Z</time>
      </trkpt>
      <trkpt lat="42.0534580" lon="-8.6398560">
        <ele>26.6</ele>
        <time>2022-06-18T07:02:30Z</time>
      </trkpt>
      <trkpt lat="42.0534630" lon="-8.6397980">
        <ele>25.6</ele>
        <time>2022-06-18T07:02:31Z</time>
      </trkpt>
      <trkpt lat="42.0534710" lon="-8.6397400">
        <ele>26.0</ele>
        <time>2022-06-18T07:02:32Z</time>
      </trkpt>
      <trkpt lat="42.0534850" lon="-8.6396850">
        <ele>26.0</ele>
        <time>2022-06-18T07:02:33Z</time>
      </trkpt>
      <trkpt lat="42.0534980" lon="-8.6396380">
        <ele>26.0</ele>
        <time>2022-06-18T07:02:34Z</time>
      </trkpt>
      <trkpt lat="42.0535060" lon="-8.6396010">
        <ele>26.0</ele>
        <time>2022-06-18T07:02:35Z</time>
      </trkpt>
      <trkpt lat="42.0535000" lon="-8.6395730">
        <ele>27.0</ele>
        <time>2022-06-18T07:02:36Z</time>
      </trkpt>
      <trkpt lat="42.0534860" lon="-8.6395510">
        <ele>27.0</ele>
        <time>2022-06-18T07:02:37Z</time>
      </trkpt>
      <trkpt lat="42.0534680" lon="-8.6395330">
        <ele>27.0</ele>
        <time>2022-06-18T07:02:38Z</time>
      </trkpt>
      <trkpt lat="42.0534510" lon="-8.6395210">
        <ele>26.0</ele>
        <time>2022-06-18T07:02:39Z</time>
      </trkpt>
      <trkpt lat="42.0534360" lon="-8.6395030">
        <ele>26.2</ele>
        <time>2022-06-18T07:02:40Z</time>
      </trkpt>
      <trkpt lat="42.0534200" lon="-8.6394780">
        <ele>26.2</ele>
        <time>2022-06-18T07:02:41Z</time>
      </trkpt>
      <trkpt lat="42.0534060" lon="-8.6394530">
        <ele>26.2</ele>
        <time>2022-06-18T07:02:42Z</time>
      </trkpt>
      <trkpt lat="42.0533910" lon="-8.6394310">
        <ele>26.2</ele>
        <time>2022-06-18T07:02:43Z</time>
      </trkpt>
      <trkpt lat="42.0533780" lon="-8.6394100">
        <ele>26.2</ele>
        <time>2022-06-18T07:02:44Z</time>
      </trkpt>
      <trkpt lat="42.0533580" lon="-8.6393880">
        <ele>26.2</ele>
        <time>2022-06-18T07:02:45Z</time>
      </trkpt>
      <trkpt lat="42.0533410" lon="-8.6393650">
        <ele>26.2</ele>
        <time>2022-06-18T07:02:46Z</time>
      </trkpt>
      <trkpt lat="42.0533260" lon="-8.6393380">
        <ele>26.2</ele>
        <time>2022-06-18T07:02:47Z</time>
      </trkpt>
      <trkpt lat="42.0533060" lon="-8.6393130">
        <ele>25.2</ele>
        <time>2022-06-18T07:02:48Z</time>
      </trkpt>
      <trkpt lat="42.0532830" lon="-8.6392900">
        <ele>25.2</ele>
        <time>2022-06-18T07:02:49Z</time>
      </trkpt>
      <trkpt lat="42.0532600" lon="-8.6392730">
        <ele>25.2</ele>
        <time>2022-06-18T07:02:50Z</time>
      </trkpt>
      <trkpt lat="42.0532400" lon="-8.6392580">
        <ele>24.8</ele>
        <time>2022-06-18T07:02:51Z</time>
      </trkpt>
      <trkpt lat="42.0532250" lon="-8.6392350">
        <ele>24.0</ele>
        <time>2022-06-18T07:02:52Z</time>
      </trkpt>
      <trkpt lat="42.0532110" lon="-8.6392010">
        <ele>24.0</ele>
        <time>2022-06-18T07:02:53Z</time>
      </trkpt>
      <trkpt lat="42.0531980" lon="-8.6391660">
        <ele>24.0</ele>
        <time>2022-06-18T07:02:54Z</time>
      </trkpt>
      <trkpt lat="42.0531850" lon="-8.6391380">
        <ele>24.0</ele>
        <time>2022-06-18T07:02:55Z</time>
      </trkpt>
      <trkpt lat="42.0531710" lon="-8.6391160">
        <ele>22.6</ele>
        <time>2022-06-18T07:02:56Z</time>
      </trkpt>
      <trkpt lat="42.0531510" lon="-8.6390930">
        <ele>22.6</ele>
        <time>2022-06-18T07:02:57Z</time>
      </trkpt>
      <trkpt lat="42.0531430" lon="-8.6390730">
        <ele>22.6</ele>
        <time>2022-06-18T07:02:58Z</time>
      </trkpt>
      <trkpt lat="42.0531360" lon="-8.6390510">
        <ele>23.0</ele>
        <time>2022-06-18T07:02:59Z</time>
      </trkpt>
      <trkpt lat="42.0531310" lon="-8.6390310">
        <ele>23.0</ele>
        <time>2022-06-18T07:03:00Z</time>
      </trkpt>
      <trkpt lat="42.0531200" lon="-8.6390100">
        <ele>23.0</ele>
        <time>2022-06-18T07:03:01Z</time>
      </trkpt>
      <trkpt lat="42.0531080" lon="-8.6389860">
        <ele>23.0</ele>
        <time>2022-06-18T07:03:02Z</time>
      </trkpt>
      <trkpt lat="42.0531000" lon="-8.6389610">
        <ele>22.4</ele>
        <time>2022-06-18T07:03:03Z</time>
      </trkpt>
      <trkpt lat="42.0530900" lon="-8.6389360">
        <ele>22.2</ele>
        <time>2022-06-18T07:03:04Z</time>
      </trkpt>
      <trkpt lat="42.0530780" lon="-8.6389080">
        <ele>22.2</ele>
        <time>2022-06-18T07:03:05Z</time>
      </trkpt>
      <trkpt lat="42.0530660" lon="-8.6388780">
        <ele>22.2</ele>
        <time>2022-06-18T07:03:06Z</time>
      </trkpt>
      <trkpt lat="42.0530610" lon="-8.6388450">
        <ele>21.2</ele>
        <time>2022-06-18T07:03:07Z</time>
      </trkpt>
      <trkpt lat="42.0530630" lon="-8.6388080">
        <ele>21.0</ele>
        <time>2022-06-18T07:03:08Z</time>
      </trkpt>
      <trkpt lat="42.0530700" lon="-8.6387730">
        <ele>21.0</ele>
        <time>2022-06-18T07:03:09Z</time>
      </trkpt>
      <trkpt lat="42.0530730" lon="-8.6387350">
        <ele>21.0</ele>
        <time>2022-06-18T07:03:10Z</time>
      </trkpt>
      <trkpt lat="42.0530760" lon="-8.6386860">
        <ele>20.0</ele>
        <time>2022-06-18T07:03:11Z</time>
      </trkpt>
      <trkpt lat="42.0530780" lon="-8.6386350">
        <ele>18.4</ele>
        <time>2022-06-18T07:03:12Z</time>
      </trkpt>
      <trkpt lat="42.0530760" lon="-8.6385800">
        <ele>18.4</ele>
        <time>2022-06-18T07:03:13Z</time>
      </trkpt>
      <trkpt lat="42.0530780" lon="-8.6385380">
        <ele>18.4</ele>
        <time>2022-06-18T07:03:14Z</time>
      </trkpt>
      <trkpt lat="42.0530750" lon="-8.6385000">
        <ele>17.8</ele>
        <time>2022-06-18T07:03:15Z</time>
      </trkpt>
      <trkpt lat="42.0530750" lon="-8.6384650">
        <ele>17.8</ele>
        <time>2022-06-18T07:03:16Z</time>
      </trkpt>
      <trkpt lat="42.0530750" lon="-8.6384350">
        <ele>17.8</ele>
        <time>2022-06-18T07:03:17Z</time>
      </trkpt>
      <trkpt lat="42.0530780" lon="-8.6383980">
        <ele>17.8</ele>
        <time>2022-06-18T07:03:18Z</time>
      </trkpt>
      <trkpt lat="42.0530810" lon="-8.6383610">
        <ele>17.0</ele>
        <time>2022-06-18T07:03:19Z</time>
      </trkpt>
      <trkpt lat="42.0530850" lon="-8.6383230">
        <ele>16.8</ele>
        <time>2022-06-18T07:03:20Z</time>
      </trkpt>
      <trkpt lat="42.0530930" lon="-8.6382850">
        <ele>16.8</ele>
        <time>2022-06-18T07:03:21Z</time>
      </trkpt>
      <trkpt lat="42.0530980" lon="-8.6382430">
        <ele>16.8</ele>
        <time>2022-06-18T07:03:22Z</time>
      </trkpt>
      <trkpt lat="42.0531110" lon="-8.6382010">
        <ele>16.2</ele>
        <time>2022-06-18T07:03:23Z</time>
      </trkpt>
      <trkpt lat="42.0531210" lon="-8.6381600">
        <ele>17.2</ele>
        <time>2022-06-18T07:03:24Z</time>
      </trkpt>
      <trkpt lat="42.0531200" lon="-8.6381110">
        <ele>17.2</ele>
        <time>2022-06-18T07:03:25Z</time>
      </trkpt>
      <trkpt lat="42.0531180" lon="-8.6380600">
        <ele>17.2</ele>
        <time>2022-06-18T07:03:26Z</time>
      </trkpt>
      <trkpt lat="42.0531260" lon="-8.6380080">
        <ele>16.2</ele>
        <time>2022-06-18T07:03:27Z</time>
      </trkpt>
      <trkpt lat="42.0531280" lon="-8.6379550">
        <ele>15.0</ele>
        <time>2022-06-18T07:03:28Z</time>
      </trkpt>
      <trkpt lat="42.0531310" lon="-8.6378950">
        <ele>15.0</ele>
        <time>2022-06-18T07:03:29Z</time>
      </trkpt>
      <trkpt lat="42.0531380" lon="-8.6378360">
        <ele>15.0</ele>
        <time>2022-06-18T07:03:30Z</time>
      </trkpt>
      <trkpt lat="42.0531400" lon="-8.6377760">
        <ele>15.0</ele>
        <time>2022-06-18T07:03:31Z</time>
      </trkpt>
      <trkpt lat="42.0531480" lon="-8.6377200">
        <ele>15.2</ele>
        <time>2022-06-18T07:03:32Z</time>
      </trkpt>
      <trkpt lat="42.0531660" lon="-8.6376610">
        <ele>15.2</ele>
        <time>2022-06-18T07:03:33Z</time>
      </trkpt>
      <trkpt lat="42.0531850" lon="-8.6376150">
        <ele>15.2</ele>
        <time>2022-06-18T07:03:34Z</time>
      </trkpt>
      <trkpt lat="42.0532100" lon="-8.6375680">
        <ele>14.2</ele>
        <time>2022-06-18T07:03:35Z</time>
      </trkpt>
      <trkpt lat="42.0532350" lon="-8.6375230">
        <ele>13.8</ele>
        <time>2022-06-18T07:03:36Z</time>
      </trkpt>
      <trkpt lat="42.0532600" lon="-8.6374810">
        <ele>13.8</ele>
        <time>2022-06-18T07:03:37Z</time>
      </trkpt>
      <trkpt lat="42.0532900" lon="-8.6374400">
        <ele>13.8</ele>
        <time>2022-06-18T07:03:38Z</time>
      </trkpt>
      <trkpt lat="42.0533180" lon="-8.6374050">
        <ele>14.2</ele>
        <time>2022-06-18T07:03:39Z</time>
      </trkpt>
      <trkpt lat="42.0533450" lon="-8.6373760">
        <ele>14.4</ele>
        <time>2022-06-18T07:03:40Z</time>
      </trkpt>
      <trkpt lat="42.0533760" lon="-8.6373410">
        <ele>14.4</ele>
        <time>2022-06-18T07:03:41Z</time>
      </trkpt>
      <trkpt lat="42.0534200" lon="-8.6373110">
        <ele>14.4</ele>
        <time>2022-06-18T07:03:42Z</time>
      </trkpt>
      <trkpt lat="42.0534510" lon="-8.6372880">
        <ele>14.4</ele>
        <time>2022-06-18T07:03:43Z</time>
      </trkpt>
      <trkpt lat="42.0534860" lon="-8.6372610">
        <ele>15.0</ele>
        <time>2022-06-18T07:03:44Z</time>
      </trkpt>
      <trkpt lat="42.0535180" lon="-8.6372300">
        <ele>15.0</ele>
        <time>2022-06-18T07:03:45Z</time>
      </trkpt>
      <trkpt lat="42.0535430" lon="-8.6371860">
        <ele>15.0</ele>
        <time>2022-06-18T07:03:46Z</time>
      </trkpt>
      <trkpt lat="42.0535450" lon="-8.6371430">
        <ele>14.0</ele>
        <time>2022-06-18T07:03:47Z</time>
      </trkpt>
      <trkpt lat="42.0535460" lon="-8.6370910">
        <ele>13.8</ele>
        <time>2022-06-18T07:03:48Z</time>
      </trkpt>
      <trkpt lat="42.0535480" lon="-8.6370330">
        <ele>13.8</ele>
        <time>2022-06-18T07:03:49Z</time>
      </trkpt>
      <trkpt lat="42.0535630" lon="-8.6369750">
        <ele>13.8</ele>
        <time>2022-06-18T07:03:50Z</time>
      </trkpt>
      <trkpt lat="42.0535850" lon="-8.6369250">
        <ele>13.8</ele>
        <time>2022-06-18T07:03:51Z</time>
      </trkpt>
      <trkpt lat="42.0536130" lon="-8.6368850">
        <ele>12.4</ele>
        <time>2022-06-18T07:03:52Z</time>
      </trkpt>
      <trkpt lat="42.0536500" lon="-8.6368500">
        <ele>12.4</ele>
        <time>2022-06-18T07:03:53Z</time>
      </trkpt>
      <trkpt lat="42.0536910" lon="-8.6368180">
        <ele>12.4</ele>
        <time>2022-06-18T07:03:54Z</time>
      </trkpt>
      <trkpt lat="42.0537280" lon="-8.6367780">
        <ele>12.4</ele>
        <time>2022-06-18T07:03:55Z</time>
      </trkpt>
      <trkpt lat="42.0537650" lon="-8.6367480">
        <ele>13.8</ele>
        <time>2022-06-18T07:03:56Z</time>
      </trkpt>
      <trkpt lat="42.0538010" lon="-8.6367200">
        <ele>13.8</ele>
        <time>2022-06-18T07:03:57Z</time>
      </trkpt>
      <trkpt lat="42.0538330" lon="-8.6366960">
        <ele>13.8</ele>
        <time>2022-06-18T07:03:58Z</time>
      </trkpt>
      <trkpt lat="42.0538610" lon="-8.6366710">
        <ele>13.2</ele>
        <time>2022-06-18T07:03:59Z</time>
      </trkpt>
      <trkpt lat="42.0538930" lon="-8.6366480">
        <ele>13.0</ele>
        <time>2022-06-18T07:04:00Z</time>
      </trkpt>
      <trkpt lat="42.0539210" lon="-8.6366180">
        <ele>13.0</ele>
        <time>2022-06-18T07:04:01Z</time>
      </trkpt>
      <trkpt lat="42.0539510" lon="-8.6365900">
        <ele>13.0</ele>
        <time>2022-06-18T07:04:02Z</time>
      </trkpt>
      <trkpt lat="42.0539800" lon="-8.6365630">
        <ele>13.4</ele>
        <time>2022-06-18T07:04:03Z</time>
      </trkpt>
      <trkpt lat="42.0540080" lon="-8.6365380">
        <ele>13.2</ele>
        <time>2022-06-18T07:04:04Z</time>
      </trkpt>
      <trkpt lat="42.0540350" lon="-8.6365130">
        <ele>13.2</ele>
        <time>2022-06-18T07:04:05Z</time>
      </trkpt>
      <trkpt lat="42.0540630" lon="-8.6364880">
        <ele>13.2</ele>
        <time>2022-06-18T07:04:06Z</time>
      </trkpt>
      <trkpt lat="42.0540900" lon="-8.6364610">
        <ele>13.2</ele>
        <time>2022-06-18T07:04:07Z</time>
      </trkpt>
      <trkpt lat="42.0541180" lon="-8.6364360">
        <ele>13.0</ele>
        <time>2022-06-18T07:04:08Z</time>
      </trkpt>
      <trkpt lat="42.0541450" lon="-8.6364130">
        <ele>13.0</ele>
        <time>2022-06-18T07:04:09Z</time>
      </trkpt>
      <trkpt lat="42.0541680" lon="-8.6363830">
        <ele>13.0</ele>
        <time>2022-06-18T07:04:10Z</time>
      </trkpt>
      <trkpt lat="42.0541910" lon="-8.6363500">
        <ele>13.0</ele>
        <time>2022-06-18T07:04:11Z</time>
      </trkpt>
      <trkpt lat="42.0542210" lon="-8.6363180">
        <ele>13.0</ele>
        <time>2022-06-18T07:04:12Z</time>
      </trkpt>
      <trkpt lat="42.0542670" lon="-8.6362730">
        <ele>13.0</ele>
        <time>2022-06-18T07:04:13Z</time>
      </trkpt>
      <trkpt lat="42.0542830" lon="-8.6362570">
        <ele>13.0</ele>
        <time>2022-06-18T07:04:14Z</time>
      </trkpt>
      <trkpt lat="42.0542980" lon="-8.6362400">
        <ele>13.0</ele>
        <time>2022-06-18T07:04:15Z</time>
      </trkpt>
      <trkpt lat="42.0543460" lon="-8.6361900">
        <ele>13.0</ele>
        <time>2022-06-18T07:04:16Z</time>
      </trkpt>
      <trkpt lat="42.0543810" lon="-8.6361610">
        <ele>13.0</ele>
        <time>2022-06-18T07:04:17Z</time>
      </trkpt>
      <trkpt lat="42.0544180" lon="-8.6361360">
        <ele>13.0</ele>
        <time>2022-06-18T07:04:18Z</time>
      </trkpt>
      <trkpt lat="42.0544730" lon="-8.6361050">
        <ele>13.0</ele>
        <time>2022-06-18T07:04:19Z</time>
      </trkpt>
      <trkpt lat="42.0544910" lon="-8.6360980">
        <ele>12.4</ele>
        <time>2022-06-18T07:04:20Z</time>
      </trkpt>
      <trkpt lat="42.0545080" lon="-8.6360900">
        <ele>12.4</ele>
        <time>2022-06-18T07:04:21Z</time>
      </trkpt>
      <trkpt lat="42.0545260" lon="-8.6360820">
        <ele>12.4</ele>
        <time>2022-06-18T07:04:22Z</time>
      </trkpt>
      <trkpt lat="42.0545440" lon="-8.6360740">
        <ele>13.4</ele>
        <time>2022-06-18T07:04:23Z</time>
      </trkpt>
      <trkpt lat="42.0546330" lon="-8.6360360">
        <ele>13.8</ele>
        <time>2022-06-18T07:04:24Z</time>
      </trkpt>
      <trkpt lat="42.0546330" lon="-8.6360360">
        <ele>13.8</ele>
        <time>2022-06-18T07:04:25Z</time>
      </trkpt>
      <trkpt lat="42.0547100" lon="-8.6360330">
        <ele>13.8</ele>
        <time>2022-06-18T07:04:26Z</time>
      </trkpt>
      <trkpt lat="42.0547430" lon="-8.6360360">
        <ele>13.8</ele>
        <time>2022-06-18T07:04:27Z</time>
      </trkpt>
      <trkpt lat="42.0547430" lon="-8.6360360">
        <ele>13.8</ele>
        <time>2022-06-18T07:04:28Z</time>
      </trkpt>
      <trkpt lat="42.0547960" lon="-8.6360410">
        <ele>13.8</ele>
        <time>2022-06-18T07:04:29Z</time>
      </trkpt>
      <trkpt lat="42.0547960" lon="-8.6360410">
        <ele>13.8</ele>
        <time>2022-06-18T07:04:30Z</time>
      </trkpt>
      <trkpt lat="42.0548510" lon="-8.6360330">
        <ele>14.8</ele>
        <time>2022-06-18T07:04:31Z</time>
      </trkpt>
      <trkpt lat="42.0548510" lon="-8.6360330">
        <ele>16.2</ele>
        <time>2022-06-18T07:04:32Z</time>
      </trkpt>
      <trkpt lat="42.0548950" lon="-8.6360330">
        <ele>16.2</ele>
        <time>2022-06-18T07:04:33Z</time>
      </trkpt>
      <trkpt lat="42.0548950" lon="-8.6360330">
        <ele>16.2</ele>
        <time>2022-06-18T07:04:34Z</time>
      </trkpt>
      <trkpt lat="42.0549450" lon="-8.6360500">
        <ele>15.4</ele>
        <time>2022-06-18T07:04:35Z</time>
      </trkpt>
      <trkpt lat="42.0549750" lon="-8.6360650">
        <ele>16.2</ele>
        <time>2022-06-18T07:04:36Z</time>
      </trkpt>
      <trkpt lat="42.0550010" lon="-8.6360810">
        <ele>16.2</ele>
        <time>2022-06-18T07:04:37Z</time>
      </trkpt>
      <trkpt lat="42.0550280" lon="-8.6360930">
        <ele>16.2</ele>
        <time>2022-06-18T07:04:38Z</time>
      </trkpt>
      <trkpt lat="42.0550500" lon="-8.6361080">
        <ele>16.2</ele>
        <time>2022-06-18T07:04:39Z</time>
      </trkpt>
      <trkpt lat="42.0550700" lon="-8.6361250">
        <ele>16.8</ele>
        <time>2022-06-18T07:04:40Z</time>
      </trkpt>
      <trkpt lat="42.0550930" lon="-8.6361430">
        <ele>16.8</ele>
        <time>2022-06-18T07:04:41Z</time>
      </trkpt>
      <trkpt lat="42.0551130" lon="-8.6361600">
        <ele>16.8</ele>
        <time>2022-06-18T07:04:42Z</time>
      </trkpt>
      <trkpt lat="42.0551280" lon="-8.6361780">
        <ele>17.2</ele>
        <time>2022-06-18T07:04:43Z</time>
      </trkpt>
      <trkpt lat="42.0551450" lon="-8.6361900">
        <ele>17.8</ele>
        <time>2022-06-18T07:04:44Z</time>
      </trkpt>
      <trkpt lat="42.0551580" lon="-8.6362000">
        <ele>17.8</ele>
        <time>2022-06-18T07:04:45Z</time>
      </trkpt>
      <trkpt lat="42.0551750" lon="-8.6361880">
        <ele>17.8</ele>
        <time>2022-06-18T07:04:46Z</time>
      </trkpt>
      <trkpt lat="42.0551910" lon="-8.6361700">
        <ele>17.8</ele>
        <time>2022-06-18T07:04:47Z</time>
      </trkpt>
      <trkpt lat="42.0552000" lon="-8.6361410">
        <ele>17.8</ele>
        <time>2022-06-18T07:04:48Z</time>
      </trkpt>
      <trkpt lat="42.0552080" lon="-8.6361080">
        <ele>17.8</ele>
        <time>2022-06-18T07:04:49Z</time>
      </trkpt>
      <trkpt lat="42.0552080" lon="-8.6361080">
        <ele>17.8</ele>
        <time>2022-06-18T07:04:50Z</time>
      </trkpt>
      <trkpt lat="42.0552460" lon="-8.6360380">
        <ele>16.8</ele>
        <time>2022-06-18T07:04:51Z</time>
      </trkpt>
      <trkpt lat="42.0552850" lon="-8.6359860">
        <ele>16.4</ele>
        <time>2022-06-18T07:04:52Z</time>
      </trkpt>
      <trkpt lat="42.0553010" lon="-8.6359670">
        <ele>16.4</ele>
        <time>2022-06-18T07:04:53Z</time>
      </trkpt>
      <trkpt lat="42.0553160" lon="-8.6359480">
        <ele>16.4</ele>
        <time>2022-06-18T07:04:54Z</time>
      </trkpt>
      <trkpt lat="42.0553310" lon="-8.6359290">
        <ele>16.4</ele>
        <time>2022-06-18T07:04:55Z</time>
      </trkpt>
      <trkpt lat="42.0553930" lon="-8.6358530">
        <ele>15.8</ele>
        <time>2022-06-18T07:04:56Z</time>
      </trkpt>
      <trkpt lat="42.0554280" lon="-8.6358160">
        <ele>15.8</ele>
        <time>2022-06-18T07:04:57Z</time>
      </trkpt>
      <trkpt lat="42.0554630" lon="-8.6357810">
        <ele>15.8</ele>
        <time>2022-06-18T07:04:58Z</time>
      </trkpt>
      <trkpt lat="42.0554630" lon="-8.6357810">
        <ele>15.8</ele>
        <time>2022-06-18T07:04:59Z</time>
      </trkpt>
      <trkpt lat="42.0555280" lon="-8.6357030">
        <ele>15.4</ele>
        <time>2022-06-18T07:05:00Z</time>
      </trkpt>
      <trkpt lat="42.0555600" lon="-8.6356650">
        <ele>15.4</ele>
        <time>2022-06-18T07:05:01Z</time>
      </trkpt>
      <trkpt lat="42.0555600" lon="-8.6356650">
        <ele>15.4</ele>
        <time>2022-06-18T07:05:02Z</time>
      </trkpt>
      <trkpt lat="42.0556210" lon="-8.6355860">
        <ele>15.4</ele>
        <time>2022-06-18T07:05:03Z</time>
      </trkpt>
      <trkpt lat="42.0556550" lon="-8.6355480">
        <ele>15.6</ele>
        <time>2022-06-18T07:05:04Z</time>
      </trkpt>
      <trkpt lat="42.0556880" lon="-8.6355110">
        <ele>15.6</ele>
        <time>2022-06-18T07:05:05Z</time>
      </trkpt>
      <trkpt lat="42.0557380" lon="-8.6354570">
        <ele>15.6</ele>
        <time>2022-06-18T07:05:06Z</time>
      </trkpt>
      <trkpt lat="42.0557560" lon="-8.6354380">
        <ele>15.6</ele>
        <time>2022-06-18T07:05:07Z</time>
      </trkpt>
      <trkpt lat="42.0557730" lon="-8.6354200">
        <ele>15.4</ele>
        <time>2022-06-18T07:05:08Z</time>
      </trkpt>
      <trkpt lat="42.0558250" lon="-8.6353650">
        <ele>15.4</ele>
        <time>2022-06-18T07:05:09Z</time>
      </trkpt>
      <trkpt lat="42.0558530" lon="-8.6353300">
        <ele>15.4</ele>
        <time>2022-06-18T07:05:10Z</time>
      </trkpt>
      <trkpt lat="42.0558800" lon="-8.6353030">
        <ele>15.4</ele>
        <time>2022-06-18T07:05:11Z</time>
      </trkpt>
      <trkpt lat="42.0559080" lon="-8.6352810">
        <ele>16.4</ele>
        <time>2022-06-18T07:05:12Z</time>
      </trkpt>
      <trkpt lat="42.0559380" lon="-8.6352610">
        <ele>16.4</ele>
        <time>2022-06-18T07:05:13Z</time>
      </trkpt>
      <trkpt lat="42.0559630" lon="-8.6352460">
        <ele>16.4</ele>
        <time>2022-06-18T07:05:14Z</time>
      </trkpt>
      <trkpt lat="42.0559880" lon="-8.6352250">
        <ele>17.4</ele>
        <time>2022-06-18T07:05:15Z</time>
      </trkpt>
      <trkpt lat="42.0560100" lon="-8.6352030">
        <ele>17.8</ele>
        <time>2022-06-18T07:05:16Z</time>
      </trkpt>
      <trkpt lat="42.0560310" lon="-8.6351810">
        <ele>17.8</ele>
        <time>2022-06-18T07:05:17Z</time>
      </trkpt>
      <trkpt lat="42.0560530" lon="-8.6351610">
        <ele>17.8</ele>
        <time>2022-06-18T07:05:18Z</time>
      </trkpt>
      <trkpt lat="42.0560730" lon="-8.6351430">
        <ele>18.0</ele>
        <time>2022-06-18T07:05:19Z</time>
      </trkpt>
      <trkpt lat="42.0560910" lon="-8.6351260">
        <ele>18.0</ele>
        <time>2022-06-18T07:05:20Z</time>
      </trkpt>
      <trkpt lat="42.0561100" lon="-8.6351130">
        <ele>18.0</ele>
        <time>2022-06-18T07:05:21Z</time>
      </trkpt>
      <trkpt lat="42.0561300" lon="-8.6351030">
        <ele>18.0</ele>
        <time>2022-06-18T07:05:22Z</time>
      </trkpt>
      <trkpt lat="42.0561480" lon="-8.6350950">
        <ele>18.0</ele>
        <time>2022-06-18T07:05:23Z</time>
      </trkpt>
      <trkpt lat="42.0561860" lon="-8.6350870">
        <ele>18.2</ele>
        <time>2022-06-18T07:05:24Z</time>
      </trkpt>
      <trkpt lat="42.0562040" lon="-8.6350790">
        <ele>18.2</ele>
        <time>2022-06-18T07:05:25Z</time>
      </trkpt>
      <trkpt lat="42.0562220" lon="-8.6350710">
        <ele>18.2</ele>
        <time>2022-06-18T07:05:26Z</time>
      </trkpt>
      <trkpt lat="42.0562410" lon="-8.6350640">
        <ele>18.0</ele>
        <time>2022-06-18T07:05:27Z</time>
      </trkpt>
      <trkpt lat="42.0562590" lon="-8.6350560">
        <ele>17.6</ele>
        <time>2022-06-18T07:05:33Z</time>
      </trkpt>
      <trkpt lat="42.0562770" lon="-8.6350480">
        <ele>17.6</ele>
        <time>2022-06-18T07:05:34Z</time>
      </trkpt>
      <trkpt lat="42.0562950" lon="-8.6350400">
        <ele>17.6</ele>
        <time>2022-06-18T07:05:35Z</time>
      </trkpt>
      <trkpt lat="42.0563350" lon="-8.6350230">
        <ele>15.2</ele>
        <time>2022-06-18T07:05:36Z</time>
      </trkpt>
      <trkpt lat="42.0563730" lon="-8.6350060">
        <ele>15.2</ele>
        <time>2022-06-18T07:05:37Z</time>
      </trkpt>
      <trkpt lat="42.0563730" lon="-8.6350060">
        <ele>15.2</ele>
        <time>2022-06-18T07:05:38Z</time>
      </trkpt>
      <trkpt lat="42.0563730" lon="-8.6350060">
        <ele>15.2</ele>
        <time>2022-06-18T07:05:39Z</time>
      </trkpt>
      <trkpt lat="42.0564600" lon="-8.6349760">
        <ele>14.0</ele>
        <time>2022-06-18T07:05:40Z</time>
      </trkpt>
      <trkpt lat="42.0564830" lon="-8.6349580">
        <ele>14.0</ele>
        <time>2022-06-18T07:05:41Z</time>
      </trkpt>
      <trkpt lat="42.0565010" lon="-8.6349380">
        <ele>14.0</ele>
        <time>2022-06-18T07:05:42Z</time>
      </trkpt>
      <trkpt lat="42.0565200" lon="-8.6349260">
        <ele>14.6</ele>
        <time>2022-06-18T07:05:43Z</time>
      </trkpt>
      <trkpt lat="42.0565200" lon="-8.6349260">
        <ele>14.8</ele>
        <time>2022-06-18T07:05:44Z</time>
      </trkpt>
      <trkpt lat="42.0565510" lon="-8.6349230">
        <ele>14.8</ele>
        <time>2022-06-18T07:05:45Z</time>
      </trkpt>
      <trkpt lat="42.0565540" lon="-8.6349270">
        <ele>14.8</ele>
        <time>2022-06-18T07:05:46Z</time>
      </trkpt>
      <trkpt lat="42.0565560" lon="-8.6349320">
        <ele>14.6</ele>
        <time>2022-06-18T07:05:47Z</time>
      </trkpt>
      <trkpt lat="42.0565590" lon="-8.6349370">
        <ele>14.4</ele>
        <time>2022-06-18T07:05:48Z</time>
      </trkpt>
      <trkpt lat="42.0565620" lon="-8.6349410">
        <ele>14.4</ele>
        <time>2022-06-18T07:05:49Z</time>
      </trkpt>
      <trkpt lat="42.0565650" lon="-8.6349460">
        <ele>14.4</ele>
        <time>2022-06-18T07:05:50Z</time>
      </trkpt>
      <trkpt lat="42.0565310" lon="-8.6349630">
        <ele>14.2</ele>
        <time>2022-06-18T07:05:51Z</time>
      </trkpt>
      <trkpt lat="42.0565180" lon="-8.6349760">
        <ele>14.6</ele>
        <time>2022-06-18T07:05:52Z</time>
      </trkpt>
      <trkpt lat="42.0565060" lon="-8.6349900">
        <ele>14.6</ele>
        <time>2022-06-18T07:05:53Z</time>
      </trkpt>
      <trkpt lat="42.0565060" lon="-8.6349900">
        <ele>14.6</ele>
        <time>2022-06-18T07:05:54Z</time>
      </trkpt>
      <trkpt lat="42.0565060" lon="-8.6349900">
        <ele>14.6</ele>
        <time>2022-06-18T07:05:55Z</time>
      </trkpt>
      <trkpt lat="42.0564910" lon="-8.6350000">
        <ele>15.0</ele>
        <time>2022-06-18T07:05:56Z</time>
      </trkpt>
      <trkpt lat="42.0564910" lon="-8.6350000">
        <ele>15.0</ele>
        <time>2022-06-18T07:05:57Z</time>
      </trkpt>
      <trkpt lat="42.0564880" lon="-8.6350060">
        <ele>15.0</ele>
        <time>2022-06-18T07:05:58Z</time>
      </trkpt>
      <trkpt lat="42.0564850" lon="-8.6350050">
        <ele>15.0</ele>
        <time>2022-06-18T07:05:59Z</time>
      </trkpt>
      <trkpt lat="42.0564850" lon="-8.6350050">
        <ele>15.2</ele>
        <time>2022-06-18T07:06:00Z</time>
      </trkpt>
      <trkpt lat="42.0565510" lon="-8.6349250">
        <ele>15.2</ele>
        <time>2022-06-18T07:07:04Z</time>
      </trkpt>
      <trkpt lat="42.0565760" lon="-8.6349100">
        <ele>15.2</ele>
        <time>2022-06-18T07:07:05Z</time>
      </trkpt>
      <trkpt lat="42.0565980" lon="-8.6348980">
        <ele>15.2</ele>
        <time>2022-06-18T07:07:06Z</time>
      </trkpt>
      <trkpt lat="42.0566160" lon="-8.6348880">
        <ele>14.6</ele>
        <time>2022-06-18T07:07:07Z</time>
      </trkpt>
      <trkpt lat="42.0566360" lon="-8.6348730">
        <ele>15.2</ele>
        <time>2022-06-18T07:07:08Z</time>
      </trkpt>
      <trkpt lat="42.0566600" lon="-8.6348550">
        <ele>15.2</ele>
        <time>2022-06-18T07:07:09Z</time>
      </trkpt>
      <trkpt lat="42.0566810" lon="-8.6348330">
        <ele>15.2</ele>
        <time>2022-06-18T07:07:10Z</time>
      </trkpt>
      <trkpt lat="42.0567060" lon="-8.6348110">
        <ele>14.2</ele>
        <time>2022-06-18T07:07:11Z</time>
      </trkpt>
      <trkpt lat="42.0567300" lon="-8.6347930">
        <ele>14.2</ele>
        <time>2022-06-18T07:07:12Z</time>
      </trkpt>
      <trkpt lat="42.0567560" lon="-8.6347800">
        <ele>14.2</ele>
        <time>2022-06-18T07:07:13Z</time>
      </trkpt>
      <trkpt lat="42.0567860" lon="-8.6347680">
        <ele>14.2</ele>
        <time>2022-06-18T07:07:14Z</time>
      </trkpt>
      <trkpt lat="42.0568180" lon="-8.6347580">
        <ele>14.2</ele>
        <time>2022-06-18T07:07:15Z</time>
      </trkpt>
      <trkpt lat="42.0568480" lon="-8.6347530">
        <ele>13.6</ele>
        <time>2022-06-18T07:07:16Z</time>
      </trkpt>
      <trkpt lat="42.0568830" lon="-8.6347500">
        <ele>13.6</ele>
        <time>2022-06-18T07:07:17Z</time>
      </trkpt>
      <trkpt lat="42.0569180" lon="-8.6347510">
        <ele>13.6</ele>
        <time>2022-06-18T07:07:18Z</time>
      </trkpt>
      <trkpt lat="42.0569510" lon="-8.6347550">
        <ele>13.6</ele>
        <time>2022-06-18T07:07:19Z</time>
      </trkpt>
      <trkpt lat="42.0569860" lon="-8.6347560">
        <ele>12.8</ele>
        <time>2022-06-18T07:07:20Z</time>
      </trkpt>
      <trkpt lat="42.0570100" lon="-8.6347580">
        <ele>12.8</ele>
        <time>2022-06-18T07:07:21Z</time>
      </trkpt>
      <trkpt lat="42.0570100" lon="-8.6347580">
        <ele>12.8</ele>
        <time>2022-06-18T07:07:22Z</time>
      </trkpt>
      <trkpt lat="42.0570100" lon="-8.6347580">
        <ele>13.8</ele>
        <time>2022-06-18T07:07:23Z</time>
      </trkpt>
      <trkpt lat="42.0570950" lon="-8.6347710">
        <ele>13.4</ele>
        <time>2022-06-18T07:07:24Z</time>
      </trkpt>
      <trkpt lat="42.0571180" lon="-8.6347680">
        <ele>13.4</ele>
        <time>2022-06-18T07:07:25Z</time>
      </trkpt>
      <trkpt lat="42.0571400" lon="-8.6347660">
        <ele>13.4</ele>
        <time>2022-06-18T07:07:26Z</time>
      </trkpt>
      <trkpt lat="42.0571630" lon="-8.6347710">
        <ele>13.8</ele>
        <time>2022-06-18T07:07:27Z</time>
      </trkpt>
      <trkpt lat="42.0571630" lon="-8.6347710">
        <ele>13.6</ele>
        <time>2022-06-18T07:07:28Z</time>
      </trkpt>
      <trkpt lat="42.0572200" lon="-8.6347850">
        <ele>13.6</ele>
        <time>2022-06-18T07:07:29Z</time>
      </trkpt>
      <trkpt lat="42.0572450" lon="-8.6347910">
        <ele>13.6</ele>
        <time>2022-06-18T07:07:30Z</time>
      </trkpt>
      <trkpt lat="42.0572630" lon="-8.6348080">
        <ele>13.6</ele>
        <time>2022-06-18T07:07:31Z</time>
      </trkpt>
      <trkpt lat="42.0572630" lon="-8.6348080">
        <ele>13.4</ele>
        <time>2022-06-18T07:07:32Z</time>
      </trkpt>
      <trkpt lat="42.0573050" lon="-8.6348230">
        <ele>13.4</ele>
        <time>2022-06-18T07:07:33Z</time>
      </trkpt>
      <trkpt lat="42.0573300" lon="-8.6348250">
        <ele>13.4</ele>
        <time>2022-06-18T07:07:34Z</time>
      </trkpt>
      <trkpt lat="42.0573510" lon="-8.6348330">
        <ele>13.4</ele>
        <time>2022-06-18T07:07:35Z</time>
      </trkpt>
      <trkpt lat="42.0573700" lon="-8.6348360">
        <ele>14.2</ele>
        <time>2022-06-18T07:07:36Z</time>
      </trkpt>
      <trkpt lat="42.0573900" lon="-8.6348480">
        <ele>14.2</ele>
        <time>2022-06-18T07:07:37Z</time>
      </trkpt>
      <trkpt lat="42.0573900" lon="-8.6348480">
        <ele>14.2</ele>
        <time>2022-06-18T07:07:38Z</time>
      </trkpt>
      <trkpt lat="42.0574230" lon="-8.6348630">
        <ele>14.2</ele>
        <time>2022-06-18T07:07:39Z</time>
      </trkpt>
      <trkpt lat="42.0574480" lon="-8.6348730">
        <ele>14.2</ele>
        <time>2022-06-18T07:07:40Z</time>
      </trkpt>
      <trkpt lat="42.0574680" lon="-8.6348930">
        <ele>14.2</ele>
        <time>2022-06-18T07:07:41Z</time>
      </trkpt>
      <trkpt lat="42.0574860" lon="-8.6349080">
        <ele>14.2</ele>
        <time>2022-06-18T07:07:42Z</time>
      </trkpt>
      <trkpt lat="42.0575120" lon="-8.6349170">
        <ele>14.4</ele>
        <time>2022-06-18T07:07:43Z</time>
      </trkpt>
      <trkpt lat="42.0575170" lon="-8.6349190">
        <ele>15.0</ele>
        <time>2022-06-18T07:07:44Z</time>
      </trkpt>
      <trkpt lat="42.0575230" lon="-8.6349210">
        <ele>15.0</ele>
        <time>2022-06-18T07:07:45Z</time>
      </trkpt>
      <trkpt lat="42.0575750" lon="-8.6349430">
        <ele>15.0</ele>
        <time>2022-06-18T07:07:46Z</time>
      </trkpt>
      <trkpt lat="42.0575980" lon="-8.6349580">
        <ele>15.0</ele>
        <time>2022-06-18T07:07:47Z</time>
      </trkpt>
      <trkpt lat="42.0576250" lon="-8.6349650">
        <ele>14.6</ele>
        <time>2022-06-18T07:07:48Z</time>
      </trkpt>
      <trkpt lat="42.0576500" lon="-8.6349660">
        <ele>14.6</ele>
        <time>2022-06-18T07:07:49Z</time>
      </trkpt>
      <trkpt lat="42.0576750" lon="-8.6349700">
        <ele>14.6</ele>
        <time>2022-06-18T07:07:50Z</time>
      </trkpt>
      <trkpt lat="42.0577000" lon="-8.6349730">
        <ele>14.6</ele>
        <time>2022-06-18T07:07:51Z</time>
      </trkpt>
      <trkpt lat="42.0577280" lon="-8.6349760">
        <ele>14.8</ele>
        <time>2022-06-18T07:07:52Z</time>
      </trkpt>
      <trkpt lat="42.0577560" lon="-8.6349780">
        <ele>14.8</ele>
        <time>2022-06-18T07:07:53Z</time>
      </trkpt>
      <trkpt lat="42.0577880" lon="-8.6349830">
        <ele>14.8</ele>
        <time>2022-06-18T07:07:54Z</time>
      </trkpt>
      <trkpt lat="42.0578210" lon="-8.6349960">
        <ele>14.8</ele>
        <time>2022-06-18T07:07:55Z</time>
      </trkpt>
      <trkpt lat="42.0578460" lon="-8.6350100">
        <ele>14.4</ele>
        <time>2022-06-18T07:07:56Z</time>
      </trkpt>
      <trkpt lat="42.0578710" lon="-8.6350250">
        <ele>14.4</ele>
        <time>2022-06-18T07:07:57Z</time>
      </trkpt>
      <trkpt lat="42.0578710" lon="-8.6350250">
        <ele>14.4</ele>
        <time>2022-06-18T07:07:58Z</time>
      </trkpt>
      <trkpt lat="42.0579310" lon="-8.6350660">
        <ele>14.4</ele>
        <time>2022-06-18T07:07:59Z</time>
      </trkpt>
      <trkpt lat="42.0579610" lon="-8.6350880">
        <ele>14.2</ele>
        <time>2022-06-18T07:08:00Z</time>
      </trkpt>
      <trkpt lat="42.0579910" lon="-8.6351080">
        <ele>14.2</ele>
        <time>2022-06-18T07:08:01Z</time>
      </trkpt>
      <trkpt lat="42.0579910" lon="-8.6351080">
        <ele>14.2</ele>
        <time>2022-06-18T07:08:02Z</time>
      </trkpt>
      <trkpt lat="42.0580360" lon="-8.6351500">
        <ele>14.2</ele>
        <time>2022-06-18T07:08:03Z</time>
      </trkpt>
      <trkpt lat="42.0580580" lon="-8.6351760">
        <ele>14.0</ele>
        <time>2022-06-18T07:08:04Z</time>
      </trkpt>
      <trkpt lat="42.0580880" lon="-8.6352050">
        <ele>14.0</ele>
        <time>2022-06-18T07:08:05Z</time>
      </trkpt>
      <trkpt lat="42.0581080" lon="-8.6352350">
        <ele>14.0</ele>
        <time>2022-06-18T07:08:06Z</time>
      </trkpt>
      <trkpt lat="42.0581300" lon="-8.6352700">
        <ele>14.0</ele>
        <time>2022-06-18T07:08:07Z</time>
      </trkpt>
      <trkpt lat="42.0581480" lon="-8.6353060">
        <ele>13.2</ele>
        <time>2022-06-18T07:08:08Z</time>
      </trkpt>
      <trkpt lat="42.0581710" lon="-8.6353430">
        <ele>13.2</ele>
        <time>2022-06-18T07:08:09Z</time>
      </trkpt>
      <trkpt lat="42.0581930" lon="-8.6353830">
        <ele>13.2</ele>
        <time>2022-06-18T07:08:10Z</time>
      </trkpt>
      <trkpt lat="42.0582100" lon="-8.6354250">
        <ele>13.2</ele>
        <time>2022-06-18T07:08:11Z</time>
      </trkpt>
      <trkpt lat="42.0582260" lon="-8.6354510">
        <ele>13.6</ele>
        <time>2022-06-18T07:08:12Z</time>
      </trkpt>
      <trkpt lat="42.0582430" lon="-8.6354830">
        <ele>13.6</ele>
        <time>2022-06-18T07:08:13Z</time>
      </trkpt>
      <trkpt lat="42.0582530" lon="-8.6355250">
        <ele>13.6</ele>
        <time>2022-06-18T07:08:14Z</time>
      </trkpt>
      <trkpt lat="42.0582660" lon="-8.6355710">
        <ele>13.6</ele>
        <time>2022-06-18T07:08:15Z</time>
      </trkpt>
      <trkpt lat="42.0582830" lon="-8.6356230">
        <ele>13.4</ele>
        <time>2022-06-18T07:08:16Z</time>
      </trkpt>
      <trkpt lat="42.0582960" lon="-8.6356700">
        <ele>13.4</ele>
        <time>2022-06-18T07:08:17Z</time>
      </trkpt>
      <trkpt lat="42.0583030" lon="-8.6357010">
        <ele>13.4</ele>
        <time>2022-06-18T07:08:18Z</time>
      </trkpt>
      <trkpt lat="42.0583130" lon="-8.6357330">
        <ele>13.4</ele>
        <time>2022-06-18T07:08:19Z</time>
      </trkpt>
      <trkpt lat="42.0583200" lon="-8.6357780">
        <ele>13.6</ele>
        <time>2022-06-18T07:08:20Z</time>
      </trkpt>
      <trkpt lat="42.0583310" lon="-8.6358200">
        <ele>13.6</ele>
        <time>2022-06-18T07:08:21Z</time>
      </trkpt>
      <trkpt lat="42.0583350" lon="-8.6358630">
        <ele>13.6</ele>
        <time>2022-06-18T07:08:22Z</time>
      </trkpt>
      <trkpt lat="42.0583350" lon="-8.6358980">
        <ele>13.6</ele>
        <time>2022-06-18T07:08:23Z</time>
      </trkpt>
      <trkpt lat="42.0583350" lon="-8.6359430">
        <ele>13.6</ele>
        <time>2022-06-18T07:08:24Z</time>
      </trkpt>
      <trkpt lat="42.0583350" lon="-8.6359880">
        <ele>13.6</ele>
        <time>2022-06-18T07:08:25Z</time>
      </trkpt>
      <trkpt lat="42.0583360" lon="-8.6360310">
        <ele>13.6</ele>
        <time>2022-06-18T07:08:26Z</time>
      </trkpt>
      <trkpt lat="42.0583430" lon="-8.6360810">
        <ele>14.4</ele>
        <time>2022-06-18T07:08:27Z</time>
      </trkpt>
      <trkpt lat="42.0583460" lon="-8.6361280">
        <ele>14.8</ele>
        <time>2022-06-18T07:08:28Z</time>
      </trkpt>
      <trkpt lat="42.0583530" lon="-8.6361680">
        <ele>14.8</ele>
        <time>2022-06-18T07:08:29Z</time>
      </trkpt>
      <trkpt lat="42.0583610" lon="-8.6362110">
        <ele>14.8</ele>
        <time>2022-06-18T07:08:30Z</time>
      </trkpt>
      <trkpt lat="42.0583660" lon="-8.6362500">
        <ele>15.4</ele>
        <time>2022-06-18T07:08:31Z</time>
      </trkpt>
      <trkpt lat="42.0583800" lon="-8.6362760">
        <ele>15.6</ele>
        <time>2022-06-18T07:08:32Z</time>
      </trkpt>
      <trkpt lat="42.0583980" lon="-8.6363060">
        <ele>15.6</ele>
        <time>2022-06-18T07:08:33Z</time>
      </trkpt>
      <trkpt lat="42.0584180" lon="-8.6363250">
        <ele>15.6</ele>
        <time>2022-06-18T07:08:34Z</time>
      </trkpt>
      <trkpt lat="42.0584310" lon="-8.6363380">
        <ele>15.8</ele>
        <time>2022-06-18T07:08:35Z</time>
      </trkpt>
      <trkpt lat="42.0584410" lon="-8.6363530">
        <ele>15.8</ele>
        <time>2022-06-18T07:08:36Z</time>
      </trkpt>
      <trkpt lat="42.0584560" lon="-8.6363730">
        <ele>15.8</ele>
        <time>2022-06-18T07:08:37Z</time>
      </trkpt>
      <trkpt lat="42.0584810" lon="-8.6363960">
        <ele>15.8</ele>
        <time>2022-06-18T07:08:38Z</time>
      </trkpt>
      <trkpt lat="42.0585160" lon="-8.6364210">
        <ele>14.8</ele>
        <time>2022-06-18T07:08:39Z</time>
      </trkpt>
      <trkpt lat="42.0585500" lon="-8.6364450">
        <ele>15.0</ele>
        <time>2022-06-18T07:08:40Z</time>
      </trkpt>
      <trkpt lat="42.0585800" lon="-8.6364700">
        <ele>15.0</ele>
        <time>2022-06-18T07:08:41Z</time>
      </trkpt>
      <trkpt lat="42.0586130" lon="-8.6364950">
        <ele>15.0</ele>
        <time>2022-06-18T07:08:42Z</time>
      </trkpt>
      <trkpt lat="42.0586450" lon="-8.6365160">
        <ele>14.8</ele>
        <time>2022-06-18T07:08:43Z</time>
      </trkpt>
      <trkpt lat="42.0586760" lon="-8.6365380">
        <ele>14.8</ele>
        <time>2022-06-18T07:08:44Z</time>
      </trkpt>
      <trkpt lat="42.0587100" lon="-8.6365600">
        <ele>14.8</ele>
        <time>2022-06-18T07:08:45Z</time>
      </trkpt>
      <trkpt lat="42.0587380" lon="-8.6365800">
        <ele>14.8</ele>
        <time>2022-06-18T07:08:46Z</time>
      </trkpt>
      <trkpt lat="42.0587630" lon="-8.6366000">
        <ele>15.8</ele>
        <time>2022-06-18T07:08:47Z</time>
      </trkpt>
      <trkpt lat="42.0587860" lon="-8.6366210">
        <ele>15.4</ele>
        <time>2022-06-18T07:08:48Z</time>
      </trkpt>
      <trkpt lat="42.0588110" lon="-8.6366330">
        <ele>15.4</ele>
        <time>2022-06-18T07:08:49Z</time>
      </trkpt>
      <trkpt lat="42.0588400" lon="-8.6366460">
        <ele>15.4</ele>
        <time>2022-06-18T07:08:50Z</time>
      </trkpt>
      <trkpt lat="42.0588680" lon="-8.6366660">
        <ele>16.2</ele>
        <time>2022-06-18T07:08:51Z</time>
      </trkpt>
      <trkpt lat="42.0588980" lon="-8.6366880">
        <ele>16.0</ele>
        <time>2022-06-18T07:08:52Z</time>
      </trkpt>
      <trkpt lat="42.0589200" lon="-8.6367180">
        <ele>16.0</ele>
        <time>2022-06-18T07:08:53Z</time>
      </trkpt>
      <trkpt lat="42.0589410" lon="-8.6367460">
        <ele>16.0</ele>
        <time>2022-06-18T07:08:54Z</time>
      </trkpt>
      <trkpt lat="42.0589580" lon="-8.6367780">
        <ele>17.0</ele>
        <time>2022-06-18T07:08:55Z</time>
      </trkpt>
      <trkpt lat="42.0589730" lon="-8.6368080">
        <ele>16.6</ele>
        <time>2022-06-18T07:08:56Z</time>
      </trkpt>
      <trkpt lat="42.0589850" lon="-8.6368410">
        <ele>16.6</ele>
        <time>2022-06-18T07:08:57Z</time>
      </trkpt>
      <trkpt lat="42.0589930" lon="-8.6368780">
        <ele>16.6</ele>
        <time>2022-06-18T07:08:58Z</time>
      </trkpt>
      <trkpt lat="42.0590000" lon="-8.6369180">
        <ele>17.6</ele>
        <time>2022-06-18T07:08:59Z</time>
      </trkpt>
      <trkpt lat="42.0590010" lon="-8.6369610">
        <ele>17.8</ele>
        <time>2022-06-18T07:09:00Z</time>
      </trkpt>
      <trkpt lat="42.0590010" lon="-8.6370060">
        <ele>17.8</ele>
        <time>2022-06-18T07:09:01Z</time>
      </trkpt>
      <trkpt lat="42.0590030" lon="-8.6370480">
        <ele>17.8</ele>
        <time>2022-06-18T07:09:02Z</time>
      </trkpt>
      <trkpt lat="42.0590060" lon="-8.6370880">
        <ele>18.8</ele>
        <time>2022-06-18T07:09:03Z</time>
      </trkpt>
      <trkpt lat="42.0590100" lon="-8.6371280">
        <ele>19.0</ele>
        <time>2022-06-18T07:09:04Z</time>
      </trkpt>
      <trkpt lat="42.0590100" lon="-8.6371650">
        <ele>19.0</ele>
        <time>2022-06-18T07:09:05Z</time>
      </trkpt>
      <trkpt lat="42.0590100" lon="-8.6371960">
        <ele>19.0</ele>
        <time>2022-06-18T07:09:06Z</time>
      </trkpt>
      <trkpt lat="42.0590080" lon="-8.6372280">
        <ele>19.0</ele>
        <time>2022-06-18T07:09:07Z</time>
      </trkpt>
      <trkpt lat="42.0590100" lon="-8.6372580">
        <ele>20.2</ele>
        <time>2022-06-18T07:09:08Z</time>
      </trkpt>
      <trkpt lat="42.0590130" lon="-8.6372910">
        <ele>20.2</ele>
        <time>2022-06-18T07:09:09Z</time>
      </trkpt>
      <trkpt lat="42.0590160" lon="-8.6373230">
        <ele>20.2</ele>
        <time>2022-06-18T07:09:10Z</time>
      </trkpt>
      <trkpt lat="42.0590160" lon="-8.6373550">
        <ele>20.2</ele>
        <time>2022-06-18T07:09:11Z</time>
      </trkpt>
      <trkpt lat="42.0590200" lon="-8.6373830">
        <ele>21.0</ele>
        <time>2022-06-18T07:09:12Z</time>
      </trkpt>
      <trkpt lat="42.0590300" lon="-8.6374100">
        <ele>21.0</ele>
        <time>2022-06-18T07:09:13Z</time>
      </trkpt>
      <trkpt lat="42.0590410" lon="-8.6374380">
        <ele>21.0</ele>
        <time>2022-06-18T07:09:14Z</time>
      </trkpt>
      <trkpt lat="42.0590500" lon="-8.6374700">
        <ele>20.8</ele>
        <time>2022-06-18T07:09:15Z</time>
      </trkpt>
      <trkpt lat="42.0590610" lon="-8.6375000">
        <ele>21.0</ele>
        <time>2022-06-18T07:09:16Z</time>
      </trkpt>
      <trkpt lat="42.0590650" lon="-8.6375310">
        <ele>21.0</ele>
        <time>2022-06-18T07:09:17Z</time>
      </trkpt>
      <trkpt lat="42.0590750" lon="-8.6375630">
        <ele>21.0</ele>
        <time>2022-06-18T07:09:18Z</time>
      </trkpt>
      <trkpt lat="42.0590830" lon="-8.6375960">
        <ele>20.8</ele>
        <time>2022-06-18T07:09:19Z</time>
      </trkpt>
      <trkpt lat="42.0590900" lon="-8.6376300">
        <ele>20.8</ele>
        <time>2022-06-18T07:09:20Z</time>
      </trkpt>
      <trkpt lat="42.0590960" lon="-8.6376630">
        <ele>20.8</ele>
        <time>2022-06-18T07:09:21Z</time>
      </trkpt>
      <trkpt lat="42.0591000" lon="-8.6376950">
        <ele>20.8</ele>
        <time>2022-06-18T07:09:22Z</time>
      </trkpt>
      <trkpt lat="42.0591060" lon="-8.6377260">
        <ele>21.2</ele>
        <time>2022-06-18T07:09:23Z</time>
      </trkpt>
      <trkpt lat="42.0591130" lon="-8.6377560">
        <ele>21.2</ele>
        <time>2022-06-18T07:09:24Z</time>
      </trkpt>
      <trkpt lat="42.0591180" lon="-8.6377860">
        <ele>21.2</ele>
        <time>2022-06-18T07:09:25Z</time>
      </trkpt>
      <trkpt lat="42.0591230" lon="-8.6378160">
        <ele>21.2</ele>
        <time>2022-06-18T07:09:26Z</time>
      </trkpt>
      <trkpt lat="42.0591280" lon="-8.6378460">
        <ele>21.4</ele>
        <time>2022-06-18T07:09:27Z</time>
      </trkpt>
      <trkpt lat="42.0591330" lon="-8.6378800">
        <ele>21.2</ele>
        <time>2022-06-18T07:09:28Z</time>
      </trkpt>
      <trkpt lat="42.0591360" lon="-8.6379130">
        <ele>21.2</ele>
        <time>2022-06-18T07:09:29Z</time>
      </trkpt>
      <trkpt lat="42.0591410" lon="-8.6379480">
        <ele>21.2</ele>
        <time>2022-06-18T07:09:30Z</time>
      </trkpt>
      <trkpt lat="42.0591500" lon="-8.6379830">
        <ele>21.4</ele>
        <time>2022-06-18T07:09:31Z</time>
      </trkpt>
      <trkpt lat="42.0591530" lon="-8.6380160">
        <ele>21.6</ele>
        <time>2022-06-18T07:09:32Z</time>
      </trkpt>
      <trkpt lat="42.0591560" lon="-8.6380510">
        <ele>21.6</ele>
        <time>2022-06-18T07:09:33Z</time>
      </trkpt>
      <trkpt lat="42.0591660" lon="-8.6380750">
        <ele>21.6</ele>
        <time>2022-06-18T07:09:34Z</time>
      </trkpt>
      <trkpt lat="42.0591810" lon="-8.6380900">
        <ele>21.6</ele>
        <time>2022-06-18T07:09:35Z</time>
      </trkpt>
      <trkpt lat="42.0592050" lon="-8.6380910">
        <ele>21.4</ele>
        <time>2022-06-18T07:09:36Z</time>
      </trkpt>
      <trkpt lat="42.0592350" lon="-8.6380830">
        <ele>21.4</ele>
        <time>2022-06-18T07:09:37Z</time>
      </trkpt>
      <trkpt lat="42.0592660" lon="-8.6380750">
        <ele>21.4</ele>
        <time>2022-06-18T07:09:38Z</time>
      </trkpt>
      <trkpt lat="42.0593010" lon="-8.6380660">
        <ele>20.6</ele>
        <time>2022-06-18T07:09:39Z</time>
      </trkpt>
      <trkpt lat="42.0593380" lon="-8.6380580">
        <ele>20.6</ele>
        <time>2022-06-18T07:09:40Z</time>
      </trkpt>
      <trkpt lat="42.0593780" lon="-8.6380430">
        <ele>20.6</ele>
        <time>2022-06-18T07:09:41Z</time>
      </trkpt>
      <trkpt lat="42.0594180" lon="-8.6380250">
        <ele>20.6</ele>
        <time>2022-06-18T07:09:42Z</time>
      </trkpt>
      <trkpt lat="42.0594630" lon="-8.6380080">
        <ele>19.6</ele>
        <time>2022-06-18T07:09:43Z</time>
      </trkpt>
      <trkpt lat="42.0595100" lon="-8.6379950">
        <ele>19.0</ele>
        <time>2022-06-18T07:09:44Z</time>
      </trkpt>
      <trkpt lat="42.0595600" lon="-8.6379810">
        <ele>19.0</ele>
        <time>2022-06-18T07:09:45Z</time>
      </trkpt>
      <trkpt lat="42.0596110" lon="-8.6379650">
        <ele>19.0</ele>
        <time>2022-06-18T07:09:46Z</time>
      </trkpt>
      <trkpt lat="42.0596630" lon="-8.6379480">
        <ele>18.0</ele>
        <time>2022-06-18T07:09:47Z</time>
      </trkpt>
      <trkpt lat="42.0597160" lon="-8.6379280">
        <ele>17.6</ele>
        <time>2022-06-18T07:09:48Z</time>
      </trkpt>
      <trkpt lat="42.0597700" lon="-8.6379000">
        <ele>17.6</ele>
        <time>2022-06-18T07:09:49Z</time>
      </trkpt>
      <trkpt lat="42.0598260" lon="-8.6378680">
        <ele>17.6</ele>
        <time>2022-06-18T07:09:50Z</time>
      </trkpt>
      <trkpt lat="42.0598850" lon="-8.6378350">
        <ele>17.6</ele>
        <time>2022-06-18T07:09:51Z</time>
      </trkpt>
      <trkpt lat="42.0599480" lon="-8.6378030">
        <ele>15.8</ele>
        <time>2022-06-18T07:09:52Z</time>
      </trkpt>
      <trkpt lat="42.0600110" lon="-8.6377710">
        <ele>15.8</ele>
        <time>2022-06-18T07:09:53Z</time>
      </trkpt>
      <trkpt lat="42.0600760" lon="-8.6377350">
        <ele>15.8</ele>
        <time>2022-06-18T07:09:54Z</time>
      </trkpt>
      <trkpt lat="42.0601380" lon="-8.6377030">
        <ele>14.8</ele>
        <time>2022-06-18T07:09:55Z</time>
      </trkpt>
      <trkpt lat="42.0602030" lon="-8.6376700">
        <ele>14.2</ele>
        <time>2022-06-18T07:09:56Z</time>
      </trkpt>
      <trkpt lat="42.0602700" lon="-8.6376360">
        <ele>14.2</ele>
        <time>2022-06-18T07:09:57Z</time>
      </trkpt>
      <trkpt lat="42.0603380" lon="-8.6376010">
        <ele>14.2</ele>
        <time>2022-06-18T07:09:58Z</time>
      </trkpt>
      <trkpt lat="42.0604080" lon="-8.6375680">
        <ele>13.2</ele>
        <time>2022-06-18T07:09:59Z</time>
      </trkpt>
      <trkpt lat="42.0604810" lon="-8.6375410">
        <ele>12.6</ele>
        <time>2022-06-18T07:10:00Z</time>
      </trkpt>
      <trkpt lat="42.0605560" lon="-8.6375150">
        <ele>12.6</ele>
        <time>2022-06-18T07:10:01Z</time>
      </trkpt>
      <trkpt lat="42.0606280" lon="-8.6374900">
        <ele>12.6</ele>
        <time>2022-06-18T07:10:02Z</time>
      </trkpt>
      <trkpt lat="42.0607010" lon="-8.6374660">
        <ele>12.6</ele>
        <time>2022-06-18T07:10:03Z</time>
      </trkpt>
      <trkpt lat="42.0607710" lon="-8.6374430">
        <ele>12.4</ele>
        <time>2022-06-18T07:10:04Z</time>
      </trkpt>
      <trkpt lat="42.0608410" lon="-8.6374160">
        <ele>12.4</ele>
        <time>2022-06-18T07:10:05Z</time>
      </trkpt>
      <trkpt lat="42.0609100" lon="-8.6373900">
        <ele>12.4</ele>
        <time>2022-06-18T07:10:06Z</time>
      </trkpt>
      <trkpt lat="42.0609760" lon="-8.6373560">
        <ele>12.4</ele>
        <time>2022-06-18T07:10:07Z</time>
      </trkpt>
      <trkpt lat="42.0610410" lon="-8.6373180">
        <ele>12.0</ele>
        <time>2022-06-18T07:10:08Z</time>
      </trkpt>
      <trkpt lat="42.0611010" lon="-8.6372880">
        <ele>12.0</ele>
        <time>2022-06-18T07:10:09Z</time>
      </trkpt>
      <trkpt lat="42.0611610" lon="-8.6372600">
        <ele>12.0</ele>
        <time>2022-06-18T07:10:10Z</time>
      </trkpt>
      <trkpt lat="42.0612200" lon="-8.6372300">
        <ele>12.0</ele>
        <time>2022-06-18T07:10:11Z</time>
      </trkpt>
      <trkpt lat="42.0612710" lon="-8.6372030">
        <ele>12.4</ele>
        <time>2022-06-18T07:10:12Z</time>
      </trkpt>
      <trkpt lat="42.0613300" lon="-8.6371810">
        <ele>12.4</ele>
        <time>2022-06-18T07:10:13Z</time>
      </trkpt>
      <trkpt lat="42.0613760" lon="-8.6371600">
        <ele>12.4</ele>
        <time>2022-06-18T07:10:14Z</time>
      </trkpt>
      <trkpt lat="42.0614200" lon="-8.6371450">
        <ele>12.4</ele>
        <time>2022-06-18T07:10:15Z</time>
      </trkpt>
      <trkpt lat="42.0614700" lon="-8.6371280">
        <ele>13.2</ele>
        <time>2022-06-18T07:10:16Z</time>
      </trkpt>
      <trkpt lat="42.0615250" lon="-8.6371080">
        <ele>13.2</ele>
        <time>2022-06-18T07:10:17Z</time>
      </trkpt>
      <trkpt lat="42.0615800" lon="-8.6370860">
        <ele>13.2</ele>
        <time>2022-06-18T07:10:18Z</time>
      </trkpt>
      <trkpt lat="42.0616360" lon="-8.6370780">
        <ele>13.2</ele>
        <time>2022-06-18T07:10:19Z</time>
      </trkpt>
      <trkpt lat="42.0616900" lon="-8.6370730">
        <ele>13.0</ele>
        <time>2022-06-18T07:10:20Z</time>
      </trkpt>
      <trkpt lat="42.0617430" lon="-8.6370810">
        <ele>13.0</ele>
        <time>2022-06-18T07:10:21Z</time>
      </trkpt>
      <trkpt lat="42.0617950" lon="-8.6371060">
        <ele>13.0</ele>
        <time>2022-06-18T07:10:22Z</time>
      </trkpt>
      <trkpt lat="42.0618430" lon="-8.6371410">
        <ele>13.0</ele>
        <time>2022-06-18T07:10:23Z</time>
      </trkpt>
      <trkpt lat="42.0618830" lon="-8.6371860">
        <ele>13.4</ele>
        <time>2022-06-18T07:10:24Z</time>
      </trkpt>
      <trkpt lat="42.0619260" lon="-8.6372300">
        <ele>13.4</ele>
        <time>2022-06-18T07:10:25Z</time>
      </trkpt>
      <trkpt lat="42.0619610" lon="-8.6372800">
        <ele>13.4</ele>
        <time>2022-06-18T07:10:26Z</time>
      </trkpt>
      <trkpt lat="42.0619930" lon="-8.6373350">
        <ele>13.4</ele>
        <time>2022-06-18T07:10:27Z</time>
      </trkpt>
      <trkpt lat="42.0620160" lon="-8.6373980">
        <ele>13.6</ele>
        <time>2022-06-18T07:10:28Z</time>
      </trkpt>
      <trkpt lat="42.0620330" lon="-8.6374610">
        <ele>13.6</ele>
        <time>2022-06-18T07:10:29Z</time>
      </trkpt>
      <trkpt lat="42.0620460" lon="-8.6375250">
        <ele>13.6</ele>
        <time>2022-06-18T07:10:30Z</time>
      </trkpt>
      <trkpt lat="42.0620600" lon="-8.6375860">
        <ele>13.6</ele>
        <time>2022-06-18T07:10:31Z</time>
      </trkpt>
      <trkpt lat="42.0620660" lon="-8.6376480">
        <ele>13.8</ele>
        <time>2022-06-18T07:10:32Z</time>
      </trkpt>
      <trkpt lat="42.0620660" lon="-8.6377150">
        <ele>13.8</ele>
        <time>2022-06-18T07:10:33Z</time>
      </trkpt>
      <trkpt lat="42.0620650" lon="-8.6377760">
        <ele>13.8</ele>
        <time>2022-06-18T07:10:34Z</time>
      </trkpt>
      <trkpt lat="42.0620700" lon="-8.6378310">
        <ele>13.8</ele>
        <time>2022-06-18T07:10:35Z</time>
      </trkpt>
      <trkpt lat="42.0620710" lon="-8.6378910">
        <ele>14.2</ele>
        <time>2022-06-18T07:10:36Z</time>
      </trkpt>
      <trkpt lat="42.0620680" lon="-8.6379510">
        <ele>14.2</ele>
        <time>2022-06-18T07:10:37Z</time>
      </trkpt>
      <trkpt lat="42.0620730" lon="-8.6380110">
        <ele>14.2</ele>
        <time>2022-06-18T07:10:38Z</time>
      </trkpt>
      <trkpt lat="42.0620800" lon="-8.6380710">
        <ele>14.2</ele>
        <time>2022-06-18T07:10:39Z</time>
      </trkpt>
      <trkpt lat="42.0620860" lon="-8.6381300">
        <ele>14.6</ele>
        <time>2022-06-18T07:10:40Z</time>
      </trkpt>
      <trkpt lat="42.0620910" lon="-8.6381860">
        <ele>14.6</ele>
        <time>2022-06-18T07:10:41Z</time>
      </trkpt>
      <trkpt lat="42.0620950" lon="-8.6382430">
        <ele>14.6</ele>
        <time>2022-06-18T07:10:42Z</time>
      </trkpt>
      <trkpt lat="42.0621000" lon="-8.6383000">
        <ele>15.2</ele>
        <time>2022-06-18T07:10:43Z</time>
      </trkpt>
      <trkpt lat="42.0621100" lon="-8.6383580">
        <ele>15.4</ele>
        <time>2022-06-18T07:10:44Z</time>
      </trkpt>
      <trkpt lat="42.0621150" lon="-8.6384160">
        <ele>15.4</ele>
        <time>2022-06-18T07:10:45Z</time>
      </trkpt>
      <trkpt lat="42.0621230" lon="-8.6384750">
        <ele>15.4</ele>
        <time>2022-06-18T07:10:46Z</time>
      </trkpt>
      <trkpt lat="42.0621310" lon="-8.6385330">
        <ele>15.4</ele>
        <time>2022-06-18T07:10:47Z</time>
      </trkpt>
      <trkpt lat="42.0621410" lon="-8.6385850">
        <ele>15.4</ele>
        <time>2022-06-18T07:10:48Z</time>
      </trkpt>
      <trkpt lat="42.0621600" lon="-8.6386350">
        <ele>15.4</ele>
        <time>2022-06-18T07:10:49Z</time>
      </trkpt>
      <trkpt lat="42.0621810" lon="-8.6386860">
        <ele>15.4</ele>
        <time>2022-06-18T07:10:50Z</time>
      </trkpt>
      <trkpt lat="42.0622050" lon="-8.6387350">
        <ele>16.2</ele>
        <time>2022-06-18T07:10:51Z</time>
      </trkpt>
      <trkpt lat="42.0622300" lon="-8.6387780">
        <ele>16.4</ele>
        <time>2022-06-18T07:10:52Z</time>
      </trkpt>
      <trkpt lat="42.0622630" lon="-8.6388160">
        <ele>16.4</ele>
        <time>2022-06-18T07:10:53Z</time>
      </trkpt>
      <trkpt lat="42.0622950" lon="-8.6388480">
        <ele>16.4</ele>
        <time>2022-06-18T07:10:54Z</time>
      </trkpt>
      <trkpt lat="42.0623310" lon="-8.6388700">
        <ele>16.0</ele>
        <time>2022-06-18T07:10:55Z</time>
      </trkpt>
      <trkpt lat="42.0623660" lon="-8.6388900">
        <ele>16.2</ele>
        <time>2022-06-18T07:10:56Z</time>
      </trkpt>
      <trkpt lat="42.0624080" lon="-8.6389050">
        <ele>16.2</ele>
        <time>2022-06-18T07:10:57Z</time>
      </trkpt>
      <trkpt lat="42.0624450" lon="-8.6389250">
        <ele>16.2</ele>
        <time>2022-06-18T07:10:58Z</time>
      </trkpt>
      <trkpt lat="42.0624850" lon="-8.6389410">
        <ele>17.0</ele>
        <time>2022-06-18T07:10:59Z</time>
      </trkpt>
      <trkpt lat="42.0625280" lon="-8.6389510">
        <ele>16.8</ele>
        <time>2022-06-18T07:11:00Z</time>
      </trkpt>
      <trkpt lat="42.0625730" lon="-8.6389610">
        <ele>16.8</ele>
        <time>2022-06-18T07:11:01Z</time>
      </trkpt>
      <trkpt lat="42.0626150" lon="-8.6389730">
        <ele>16.8</ele>
        <time>2022-06-18T07:11:02Z</time>
      </trkpt>
      <trkpt lat="42.0626560" lon="-8.6389860">
        <ele>16.8</ele>
        <time>2022-06-18T07:11:03Z</time>
      </trkpt>
      <trkpt lat="42.0626910" lon="-8.6389960">
        <ele>17.6</ele>
        <time>2022-06-18T07:11:04Z</time>
      </trkpt>
      <trkpt lat="42.0627350" lon="-8.6390130">
        <ele>17.6</ele>
        <time>2022-06-18T07:11:05Z</time>
      </trkpt>
      <trkpt lat="42.0627750" lon="-8.6390280">
        <ele>17.6</ele>
        <time>2022-06-18T07:11:06Z</time>
      </trkpt>
      <trkpt lat="42.0628080" lon="-8.6390330">
        <ele>17.6</ele>
        <time>2022-06-18T07:11:07Z</time>
      </trkpt>
      <trkpt lat="42.0628400" lon="-8.6390360">
        <ele>18.0</ele>
        <time>2022-06-18T07:11:08Z</time>
      </trkpt>
      <trkpt lat="42.0628710" lon="-8.6390330">
        <ele>18.0</ele>
        <time>2022-06-18T07:11:09Z</time>
      </trkpt>
      <trkpt lat="42.0629000" lon="-8.6390400">
        <ele>18.0</ele>
        <time>2022-06-18T07:11:10Z</time>
      </trkpt>
      <trkpt lat="42.0629320" lon="-8.6390590">
        <ele>18.0</ele>
        <time>2022-06-18T07:11:11Z</time>
      </trkpt>
      <trkpt lat="42.0629380" lon="-8.6390610">
        <ele>18.2</ele>
        <time>2022-06-18T07:11:12Z</time>
      </trkpt>
      <trkpt lat="42.0629880" lon="-8.6390660">
        <ele>18.2</ele>
        <time>2022-06-18T07:11:13Z</time>
      </trkpt>
      <trkpt lat="42.0630260" lon="-8.6390830">
        <ele>18.2</ele>
        <time>2022-06-18T07:11:14Z</time>
      </trkpt>
      <trkpt lat="42.0630660" lon="-8.6390950">
        <ele>19.2</ele>
        <time>2022-06-18T07:11:15Z</time>
      </trkpt>
      <trkpt lat="42.0631260" lon="-8.6391010">
        <ele>19.6</ele>
        <time>2022-06-18T07:11:16Z</time>
      </trkpt>
      <trkpt lat="42.0631650" lon="-8.6391080">
        <ele>19.6</ele>
        <time>2022-06-18T07:11:17Z</time>
      </trkpt>
      <trkpt lat="42.0631960" lon="-8.6391080">
        <ele>19.6</ele>
        <time>2022-06-18T07:11:18Z</time>
      </trkpt>
      <trkpt lat="42.0632310" lon="-8.6391060">
        <ele>19.6</ele>
        <time>2022-06-18T07:11:19Z</time>
      </trkpt>
      <trkpt lat="42.0632610" lon="-8.6391110">
        <ele>20.4</ele>
        <time>2022-06-18T07:11:20Z</time>
      </trkpt>
      <trkpt lat="42.0632960" lon="-8.6391080">
        <ele>20.4</ele>
        <time>2022-06-18T07:11:21Z</time>
      </trkpt>
      <trkpt lat="42.0633300" lon="-8.6391110">
        <ele>20.4</ele>
        <time>2022-06-18T07:11:22Z</time>
      </trkpt>
      <trkpt lat="42.0633550" lon="-8.6391210">
        <ele>21.0</ele>
        <time>2022-06-18T07:11:23Z</time>
      </trkpt>
      <trkpt lat="42.0633810" lon="-8.6391250">
        <ele>21.2</ele>
        <time>2022-06-18T07:11:24Z</time>
      </trkpt>
      <trkpt lat="42.0634100" lon="-8.6391260">
        <ele>21.2</ele>
        <time>2022-06-18T07:11:25Z</time>
      </trkpt>
      <trkpt lat="42.0634360" lon="-8.6391250">
        <ele>21.2</ele>
        <time>2022-06-18T07:11:26Z</time>
      </trkpt>
      <trkpt lat="42.0634630" lon="-8.6391180">
        <ele>22.0</ele>
        <time>2022-06-18T07:11:27Z</time>
      </trkpt>
      <trkpt lat="42.0634910" lon="-8.6391130">
        <ele>22.0</ele>
        <time>2022-06-18T07:11:28Z</time>
      </trkpt>
      <trkpt lat="42.0635160" lon="-8.6391180">
        <ele>22.0</ele>
        <time>2022-06-18T07:11:29Z</time>
      </trkpt>
      <trkpt lat="42.0635400" lon="-8.6391260">
        <ele>22.0</ele>
        <time>2022-06-18T07:11:30Z</time>
      </trkpt>
      <trkpt lat="42.0635650" lon="-8.6391350">
        <ele>22.4</ele>
        <time>2022-06-18T07:11:31Z</time>
      </trkpt>
      <trkpt lat="42.0635900" lon="-8.6391410">
        <ele>23.0</ele>
        <time>2022-06-18T07:11:32Z</time>
      </trkpt>
      <trkpt lat="42.0636130" lon="-8.6391430">
        <ele>23.0</ele>
        <time>2022-06-18T07:11:33Z</time>
      </trkpt>
      <trkpt lat="42.0636360" lon="-8.6391450">
        <ele>23.0</ele>
        <time>2022-06-18T07:11:34Z</time>
      </trkpt>
      <trkpt lat="42.0636650" lon="-8.6391510">
        <ele>23.0</ele>
        <time>2022-06-18T07:11:35Z</time>
      </trkpt>
      <trkpt lat="42.0636930" lon="-8.6391580">
        <ele>23.6</ele>
        <time>2022-06-18T07:11:36Z</time>
      </trkpt>
      <trkpt lat="42.0637180" lon="-8.6391630">
        <ele>23.6</ele>
        <time>2022-06-18T07:11:37Z</time>
      </trkpt>
      <trkpt lat="42.0637400" lon="-8.6391650">
        <ele>23.6</ele>
        <time>2022-06-18T07:11:38Z</time>
      </trkpt>
      <trkpt lat="42.0637600" lon="-8.6391650">
        <ele>23.6</ele>
        <time>2022-06-18T07:11:39Z</time>
      </trkpt>
      <trkpt lat="42.0637760" lon="-8.6391700">
        <ele>24.0</ele>
        <time>2022-06-18T07:11:40Z</time>
      </trkpt>
      <trkpt lat="42.0637930" lon="-8.6391730">
        <ele>24.0</ele>
        <time>2022-06-18T07:11:41Z</time>
      </trkpt>
      <trkpt lat="42.0638110" lon="-8.6391760">
        <ele>24.0</ele>
        <time>2022-06-18T07:11:42Z</time>
      </trkpt>
      <trkpt lat="42.0638300" lon="-8.6391780">
        <ele>24.8</ele>
        <time>2022-06-18T07:11:43Z</time>
      </trkpt>
      <trkpt lat="42.0638550" lon="-8.6391610">
        <ele>24.6</ele>
        <time>2022-06-18T07:11:44Z</time>
      </trkpt>
      <trkpt lat="42.0638730" lon="-8.6391430">
        <ele>24.6</ele>
        <time>2022-06-18T07:11:45Z</time>
      </trkpt>
      <trkpt lat="42.0638880" lon="-8.6391300">
        <ele>24.6</ele>
        <time>2022-06-18T07:11:46Z</time>
      </trkpt>
      <trkpt lat="42.0639060" lon="-8.6391180">
        <ele>24.6</ele>
        <time>2022-06-18T07:11:47Z</time>
      </trkpt>
      <trkpt lat="42.0639260" lon="-8.6391060">
        <ele>24.4</ele>
        <time>2022-06-18T07:11:48Z</time>
      </trkpt>
      <trkpt lat="42.0639480" lon="-8.6391030">
        <ele>24.4</ele>
        <time>2022-06-18T07:11:49Z</time>
      </trkpt>
      <trkpt lat="42.0639710" lon="-8.6391110">
        <ele>24.4</ele>
        <time>2022-06-18T07:11:50Z</time>
      </trkpt>
      <trkpt lat="42.0639930" lon="-8.6391300">
        <ele>24.4</ele>
        <time>2022-06-18T07:11:51Z</time>
      </trkpt>
      <trkpt lat="42.0640180" lon="-8.6391510">
        <ele>24.0</ele>
        <time>2022-06-18T07:11:52Z</time>
      </trkpt>
      <trkpt lat="42.0640400" lon="-8.6391810">
        <ele>24.0</ele>
        <time>2022-06-18T07:11:53Z</time>
      </trkpt>
      <trkpt lat="42.0640600" lon="-8.6392160">
        <ele>24.0</ele>
        <time>2022-06-18T07:11:54Z</time>
      </trkpt>
      <trkpt lat="42.0640780" lon="-8.6392510">
        <ele>24.0</ele>
        <time>2022-06-18T07:11:55Z</time>
      </trkpt>
      <trkpt lat="42.0640960" lon="-8.6392850">
        <ele>24.4</ele>
        <time>2022-06-18T07:11:56Z</time>
      </trkpt>
      <trkpt lat="42.0641150" lon="-8.6393180">
        <ele>24.4</ele>
        <time>2022-06-18T07:11:57Z</time>
      </trkpt>
      <trkpt lat="42.0641310" lon="-8.6393500">
        <ele>24.4</ele>
        <time>2022-06-18T07:11:58Z</time>
      </trkpt>
      <trkpt lat="42.0641460" lon="-8.6393780">
        <ele>24.4</ele>
        <time>2022-06-18T07:11:59Z</time>
      </trkpt>
      <trkpt lat="42.0641600" lon="-8.6394050">
        <ele>24.6</ele>
        <time>2022-06-18T07:12:00Z</time>
      </trkpt>
      <trkpt lat="42.0641750" lon="-8.6394310">
        <ele>24.6</ele>
        <time>2022-06-18T07:12:01Z</time>
      </trkpt>
      <trkpt lat="42.0641900" lon="-8.6394600">
        <ele>24.6</ele>
        <time>2022-06-18T07:12:02Z</time>
      </trkpt>
      <trkpt lat="42.0642050" lon="-8.6394910">
        <ele>24.4</ele>
        <time>2022-06-18T07:12:03Z</time>
      </trkpt>
      <trkpt lat="42.0642210" lon="-8.6395180">
        <ele>24.4</ele>
        <time>2022-06-18T07:12:04Z</time>
      </trkpt>
      <trkpt lat="42.0642400" lon="-8.6395480">
        <ele>24.4</ele>
        <time>2022-06-18T07:12:05Z</time>
      </trkpt>
      <trkpt lat="42.0642600" lon="-8.6395760">
        <ele>24.4</ele>
        <time>2022-06-18T07:12:06Z</time>
      </trkpt>
      <trkpt lat="42.0642850" lon="-8.6396060">
        <ele>24.4</ele>
        <time>2022-06-18T07:12:07Z</time>
      </trkpt>
      <trkpt lat="42.0643080" lon="-8.6396350">
        <ele>25.0</ele>
        <time>2022-06-18T07:12:08Z</time>
      </trkpt>
      <trkpt lat="42.0643300" lon="-8.6396630">
        <ele>25.0</ele>
        <time>2022-06-18T07:12:09Z</time>
      </trkpt>
      <trkpt lat="42.0643510" lon="-8.6396910">
        <ele>25.0</ele>
        <time>2022-06-18T07:12:10Z</time>
      </trkpt>
      <trkpt lat="42.0643730" lon="-8.6397210">
        <ele>25.0</ele>
        <time>2022-06-18T07:12:11Z</time>
      </trkpt>
      <trkpt lat="42.0643910" lon="-8.6397500">
        <ele>25.2</ele>
        <time>2022-06-18T07:12:12Z</time>
      </trkpt>
      <trkpt lat="42.0644030" lon="-8.6397800">
        <ele>25.2</ele>
        <time>2022-06-18T07:12:13Z</time>
      </trkpt>
      <trkpt lat="42.0644130" lon="-8.6398100">
        <ele>25.2</ele>
        <time>2022-06-18T07:12:14Z</time>
      </trkpt>
      <trkpt lat="42.0644250" lon="-8.6398380">
        <ele>25.2</ele>
        <time>2022-06-18T07:12:15Z</time>
      </trkpt>
      <trkpt lat="42.0644410" lon="-8.6398610">
        <ele>25.4</ele>
        <time>2022-06-18T07:12:16Z</time>
      </trkpt>
      <trkpt lat="42.0644630" lon="-8.6398780">
        <ele>25.4</ele>
        <time>2022-06-18T07:12:17Z</time>
      </trkpt>
      <trkpt lat="42.0644780" lon="-8.6398980">
        <ele>25.4</ele>
        <time>2022-06-18T07:12:18Z</time>
      </trkpt>
      <trkpt lat="42.0644900" lon="-8.6399210">
        <ele>25.0</ele>
        <time>2022-06-18T07:12:19Z</time>
      </trkpt>
      <trkpt lat="42.0644980" lon="-8.6399430">
        <ele>25.2</ele>
        <time>2022-06-18T07:12:20Z</time>
      </trkpt>
      <trkpt lat="42.0645080" lon="-8.6399600">
        <ele>25.2</ele>
        <time>2022-06-18T07:12:21Z</time>
      </trkpt>
      <trkpt lat="42.0645210" lon="-8.6399750">
        <ele>25.2</ele>
        <time>2022-06-18T07:12:22Z</time>
      </trkpt>
      <trkpt lat="42.0645330" lon="-8.6399900">
        <ele>24.8</ele>
        <time>2022-06-18T07:12:23Z</time>
      </trkpt>
      <trkpt lat="42.0645450" lon="-8.6400050">
        <ele>24.8</ele>
        <time>2022-06-18T07:12:24Z</time>
      </trkpt>
      <trkpt lat="42.0645560" lon="-8.6400230">
        <ele>24.8</ele>
        <time>2022-06-18T07:12:25Z</time>
      </trkpt>
      <trkpt lat="42.0645650" lon="-8.6400430">
        <ele>24.8</ele>
        <time>2022-06-18T07:12:26Z</time>
      </trkpt>
      <trkpt lat="42.0645760" lon="-8.6400630">
        <ele>24.8</ele>
        <time>2022-06-18T07:12:27Z</time>
      </trkpt>
      <trkpt lat="42.0645910" lon="-8.6400830">
        <ele>25.0</ele>
        <time>2022-06-18T07:12:28Z</time>
      </trkpt>
      <trkpt lat="42.0646080" lon="-8.6400960">
        <ele>25.0</ele>
        <time>2022-06-18T07:12:29Z</time>
      </trkpt>
      <trkpt lat="42.0646250" lon="-8.6401100">
        <ele>25.0</ele>
        <time>2022-06-18T07:12:30Z</time>
      </trkpt>
      <trkpt lat="42.0646410" lon="-8.6401280">
        <ele>24.6</ele>
        <time>2022-06-18T07:12:31Z</time>
      </trkpt>
      <trkpt lat="42.0646580" lon="-8.6401510">
        <ele>24.4</ele>
        <time>2022-06-18T07:12:32Z</time>
      </trkpt>
      <trkpt lat="42.0646700" lon="-8.6401760">
        <ele>24.4</ele>
        <time>2022-06-18T07:12:33Z</time>
      </trkpt>
      <trkpt lat="42.0646780" lon="-8.6401980">
        <ele>24.4</ele>
        <time>2022-06-18T07:12:34Z</time>
      </trkpt>
      <trkpt lat="42.0646830" lon="-8.6402150">
        <ele>24.4</ele>
        <time>2022-06-18T07:12:35Z</time>
      </trkpt>
      <trkpt lat="42.0646860" lon="-8.6402280">
        <ele>24.6</ele>
        <time>2022-06-18T07:12:36Z</time>
      </trkpt>
      <trkpt lat="42.0646850" lon="-8.6402430">
        <ele>24.6</ele>
        <time>2022-06-18T07:12:37Z</time>
      </trkpt>
      <trkpt lat="42.0646800" lon="-8.6402510">
        <ele>24.6</ele>
        <time>2022-06-18T07:12:38Z</time>
      </trkpt>
      <trkpt lat="42.0646660" lon="-8.6402480">
        <ele>24.4</ele>
        <time>2022-06-18T07:12:39Z</time>
      </trkpt>
      <trkpt lat="42.0646550" lon="-8.6402330">
        <ele>24.8</ele>
        <time>2022-06-18T07:12:40Z</time>
      </trkpt>
      <trkpt lat="42.0646400" lon="-8.6402100">
        <ele>24.8</ele>
        <time>2022-06-18T07:12:41Z</time>
      </trkpt>
      <trkpt lat="42.0646230" lon="-8.6401830">
        <ele>24.8</ele>
        <time>2022-06-18T07:12:42Z</time>
      </trkpt>
      <trkpt lat="42.0646030" lon="-8.6401550">
        <ele>24.2</ele>
        <time>2022-06-18T07:12:43Z</time>
      </trkpt>
      <trkpt lat="42.0645810" lon="-8.6401230">
        <ele>24.0</ele>
        <time>2022-06-18T07:12:44Z</time>
      </trkpt>
      <trkpt lat="42.0645610" lon="-8.6400910">
        <ele>24.0</ele>
        <time>2022-06-18T07:12:45Z</time>
      </trkpt>
      <trkpt lat="42.0645430" lon="-8.6400600">
        <ele>24.0</ele>
        <time>2022-06-18T07:12:46Z</time>
      </trkpt>
      <trkpt lat="42.0645250" lon="-8.6400280">
        <ele>24.2</ele>
        <time>2022-06-18T07:12:47Z</time>
      </trkpt>
      <trkpt lat="42.0645060" lon="-8.6399980">
        <ele>24.4</ele>
        <time>2022-06-18T07:12:48Z</time>
      </trkpt>
      <trkpt lat="42.0644880" lon="-8.6399700">
        <ele>24.4</ele>
        <time>2022-06-18T07:12:49Z</time>
      </trkpt>
      <trkpt lat="42.0644710" lon="-8.6399380">
        <ele>24.4</ele>
        <time>2022-06-18T07:12:50Z</time>
      </trkpt>
      <trkpt lat="42.0644600" lon="-8.6399030">
        <ele>24.4</ele>
        <time>2022-06-18T07:12:51Z</time>
      </trkpt>
      <trkpt lat="42.0644460" lon="-8.6398680">
        <ele>24.8</ele>
        <time>2022-06-18T07:12:52Z</time>
      </trkpt>
      <trkpt lat="42.0644360" lon="-8.6398330">
        <ele>24.8</ele>
        <time>2022-06-18T07:12:53Z</time>
      </trkpt>
      <trkpt lat="42.0644350" lon="-8.6397950">
        <ele>24.8</ele>
        <time>2022-06-18T07:12:54Z</time>
      </trkpt>
      <trkpt lat="42.0644430" lon="-8.6397550">
        <ele>24.8</ele>
        <time>2022-06-18T07:12:55Z</time>
      </trkpt>
      <trkpt lat="42.0644610" lon="-8.6397260">
        <ele>25.2</ele>
        <time>2022-06-18T07:12:56Z</time>
      </trkpt>
      <trkpt lat="42.0644850" lon="-8.6396980">
        <ele>25.2</ele>
        <time>2022-06-18T07:12:57Z</time>
      </trkpt>
      <trkpt lat="42.0645080" lon="-8.6396700">
        <ele>25.2</ele>
        <time>2022-06-18T07:12:58Z</time>
      </trkpt>
      <trkpt lat="42.0645360" lon="-8.6396430">
        <ele>25.2</ele>
        <time>2022-06-18T07:12:59Z</time>
      </trkpt>
      <trkpt lat="42.0645660" lon="-8.6396200">
        <ele>25.2</ele>
        <time>2022-06-18T07:13:00Z</time>
      </trkpt>
      <trkpt lat="42.0645960" lon="-8.6395950">
        <ele>25.2</ele>
        <time>2022-06-18T07:13:01Z</time>
      </trkpt>
      <trkpt lat="42.0646230" lon="-8.6395680">
        <ele>25.2</ele>
        <time>2022-06-18T07:13:02Z</time>
      </trkpt>
      <trkpt lat="42.0646510" lon="-8.6395380">
        <ele>25.2</ele>
        <time>2022-06-18T07:13:03Z</time>
      </trkpt>
      <trkpt lat="42.0646810" lon="-8.6395100">
        <ele>25.0</ele>
        <time>2022-06-18T07:13:04Z</time>
      </trkpt>
      <trkpt lat="42.0647100" lon="-8.6394860">
        <ele>25.0</ele>
        <time>2022-06-18T07:13:05Z</time>
      </trkpt>
      <trkpt lat="42.0647380" lon="-8.6394680">
        <ele>25.0</ele>
        <time>2022-06-18T07:13:06Z</time>
      </trkpt>
      <trkpt lat="42.0647650" lon="-8.6394500">
        <ele>25.0</ele>
        <time>2022-06-18T07:13:07Z</time>
      </trkpt>
      <trkpt lat="42.0647900" lon="-8.6394330">
        <ele>25.6</ele>
        <time>2022-06-18T07:13:08Z</time>
      </trkpt>
      <trkpt lat="42.0648130" lon="-8.6394150">
        <ele>25.6</ele>
        <time>2022-06-18T07:13:09Z</time>
      </trkpt>
      <trkpt lat="42.0648400" lon="-8.6393950">
        <ele>25.6</ele>
        <time>2022-06-18T07:13:10Z</time>
      </trkpt>
      <trkpt lat="42.0648660" lon="-8.6393760">
        <ele>25.6</ele>
        <time>2022-06-18T07:13:11Z</time>
      </trkpt>
      <trkpt lat="42.0648900" lon="-8.6393610">
        <ele>25.6</ele>
        <time>2022-06-18T07:13:12Z</time>
      </trkpt>
      <trkpt lat="42.0649160" lon="-8.6393450">
        <ele>25.6</ele>
        <time>2022-06-18T07:13:13Z</time>
      </trkpt>
      <trkpt lat="42.0649430" lon="-8.6393250">
        <ele>25.6</ele>
        <time>2022-06-18T07:13:14Z</time>
      </trkpt>
      <trkpt lat="42.0649710" lon="-8.6393050">
        <ele>25.6</ele>
        <time>2022-06-18T07:13:15Z</time>
      </trkpt>
      <trkpt lat="42.0650000" lon="-8.6392830">
        <ele>26.2</ele>
        <time>2022-06-18T07:13:16Z</time>
      </trkpt>
      <trkpt lat="42.0650280" lon="-8.6392630">
        <ele>26.2</ele>
        <time>2022-06-18T07:13:17Z</time>
      </trkpt>
      <trkpt lat="42.0650580" lon="-8.6392410">
        <ele>26.2</ele>
        <time>2022-06-18T07:13:18Z</time>
      </trkpt>
      <trkpt lat="42.0650850" lon="-8.6392200">
        <ele>26.0</ele>
        <time>2022-06-18T07:13:19Z</time>
      </trkpt>
      <trkpt lat="42.0651130" lon="-8.6391980">
        <ele>26.2</ele>
        <time>2022-06-18T07:13:20Z</time>
      </trkpt>
      <trkpt lat="42.0651400" lon="-8.6391760">
        <ele>26.2</ele>
        <time>2022-06-18T07:13:21Z</time>
      </trkpt>
      <trkpt lat="42.0651660" lon="-8.6391510">
        <ele>26.2</ele>
        <time>2022-06-18T07:13:22Z</time>
      </trkpt>
      <trkpt lat="42.0651950" lon="-8.6391300">
        <ele>26.2</ele>
        <time>2022-06-18T07:13:23Z</time>
      </trkpt>
      <trkpt lat="42.0652250" lon="-8.6391100">
        <ele>25.8</ele>
        <time>2022-06-18T07:13:24Z</time>
      </trkpt>
      <trkpt lat="42.0652530" lon="-8.6390900">
        <ele>25.8</ele>
        <time>2022-06-18T07:13:25Z</time>
      </trkpt>
      <trkpt lat="42.0652810" lon="-8.6390700">
        <ele>25.8</ele>
        <time>2022-06-18T07:13:26Z</time>
      </trkpt>
      <trkpt lat="42.0653100" lon="-8.6390500">
        <ele>25.8</ele>
        <time>2022-06-18T07:13:27Z</time>
      </trkpt>
      <trkpt lat="42.0653360" lon="-8.6390300">
        <ele>26.4</ele>
        <time>2022-06-18T07:13:28Z</time>
      </trkpt>
      <trkpt lat="42.0653610" lon="-8.6390100">
        <ele>26.4</ele>
        <time>2022-06-18T07:13:29Z</time>
      </trkpt>
      <trkpt lat="42.0653880" lon="-8.6389900">
        <ele>26.4</ele>
        <time>2022-06-18T07:13:30Z</time>
      </trkpt>
      <trkpt lat="42.0654150" lon="-8.6389730">
        <ele>27.0</ele>
        <time>2022-06-18T07:13:31Z</time>
      </trkpt>
      <trkpt lat="42.0654400" lon="-8.6389560">
        <ele>27.2</ele>
        <time>2022-06-18T07:13:32Z</time>
      </trkpt>
      <trkpt lat="42.0654650" lon="-8.6389410">
        <ele>27.2</ele>
        <time>2022-06-18T07:13:33Z</time>
      </trkpt>
      <trkpt lat="42.0654910" lon="-8.6389260">
        <ele>27.2</ele>
        <time>2022-06-18T07:13:34Z</time>
      </trkpt>
      <trkpt lat="42.0655180" lon="-8.6389110">
        <ele>27.2</ele>
        <time>2022-06-18T07:13:35Z</time>
      </trkpt>
      <trkpt lat="42.0655460" lon="-8.6388950">
        <ele>27.0</ele>
        <time>2022-06-18T07:13:36Z</time>
      </trkpt>
      <trkpt lat="42.0655730" lon="-8.6388750">
        <ele>27.0</ele>
        <time>2022-06-18T07:13:37Z</time>
      </trkpt>
      <trkpt lat="42.0656010" lon="-8.6388600">
        <ele>27.0</ele>
        <time>2022-06-18T07:13:38Z</time>
      </trkpt>
      <trkpt lat="42.0656280" lon="-8.6388450">
        <ele>27.0</ele>
        <time>2022-06-18T07:13:39Z</time>
      </trkpt>
      <trkpt lat="42.0656560" lon="-8.6388300">
        <ele>27.4</ele>
        <time>2022-06-18T07:13:40Z</time>
      </trkpt>
      <trkpt lat="42.0656830" lon="-8.6388180">
        <ele>27.4</ele>
        <time>2022-06-18T07:13:41Z</time>
      </trkpt>
      <trkpt lat="42.0657100" lon="-8.6388060">
        <ele>27.4</ele>
        <time>2022-06-18T07:13:42Z</time>
      </trkpt>
      <trkpt lat="42.0657380" lon="-8.6387930">
        <ele>27.4</ele>
        <time>2022-06-18T07:13:43Z</time>
      </trkpt>
      <trkpt lat="42.0657660" lon="-8.6387780">
        <ele>27.8</ele>
        <time>2022-06-18T07:13:44Z</time>
      </trkpt>
      <trkpt lat="42.0657950" lon="-8.6387650">
        <ele>27.8</ele>
        <time>2022-06-18T07:13:45Z</time>
      </trkpt>
      <trkpt lat="42.0658260" lon="-8.6387530">
        <ele>27.8</ele>
        <time>2022-06-18T07:13:46Z</time>
      </trkpt>
      <trkpt lat="42.0658560" lon="-8.6387410">
        <ele>27.4</ele>
        <time>2022-06-18T07:13:47Z</time>
      </trkpt>
      <trkpt lat="42.0658900" lon="-8.6387310">
        <ele>27.8</ele>
        <time>2022-06-18T07:13:48Z</time>
      </trkpt>
      <trkpt lat="42.0659180" lon="-8.6387200">
        <ele>27.8</ele>
        <time>2022-06-18T07:13:49Z</time>
      </trkpt>
      <trkpt lat="42.0659480" lon="-8.6387050">
        <ele>27.8</ele>
        <time>2022-06-18T07:13:50Z</time>
      </trkpt>
      <trkpt lat="42.0659750" lon="-8.6386810">
        <ele>27.8</ele>
        <time>2022-06-18T07:13:51Z</time>
      </trkpt>
      <trkpt lat="42.0660030" lon="-8.6386580">
        <ele>27.6</ele>
        <time>2022-06-18T07:13:52Z</time>
      </trkpt>
      <trkpt lat="42.0660280" lon="-8.6386360">
        <ele>27.6</ele>
        <time>2022-06-18T07:13:53Z</time>
      </trkpt>
      <trkpt lat="42.0660480" lon="-8.6386130">
        <ele>27.6</ele>
        <time>2022-06-18T07:13:54Z</time>
      </trkpt>
      <trkpt lat="42.0660710" lon="-8.6385860">
        <ele>27.6</ele>
        <time>2022-06-18T07:13:55Z</time>
      </trkpt>
      <trkpt lat="42.0660950" lon="-8.6385610">
        <ele>27.6</ele>
        <time>2022-06-18T07:13:56Z</time>
      </trkpt>
      <trkpt lat="42.0661180" lon="-8.6385350">
        <ele>27.6</ele>
        <time>2022-06-18T07:13:57Z</time>
      </trkpt>
      <trkpt lat="42.0661380" lon="-8.6385130">
        <ele>27.6</ele>
        <time>2022-06-18T07:13:58Z</time>
      </trkpt>
      <trkpt lat="42.0661530" lon="-8.6384950">
        <ele>28.6</ele>
        <time>2022-06-18T07:13:59Z</time>
      </trkpt>
      <trkpt lat="42.0661660" lon="-8.6384750">
        <ele>28.6</ele>
        <time>2022-06-18T07:14:00Z</time>
      </trkpt>
      <trkpt lat="42.0661780" lon="-8.6384480">
        <ele>28.6</ele>
        <time>2022-06-18T07:14:01Z</time>
      </trkpt>
      <trkpt lat="42.0661960" lon="-8.6384300">
        <ele>28.6</ele>
        <time>2022-06-18T07:14:02Z</time>
      </trkpt>
      <trkpt lat="42.0662180" lon="-8.6384230">
        <ele>28.6</ele>
        <time>2022-06-18T07:14:03Z</time>
      </trkpt>
      <trkpt lat="42.0662430" lon="-8.6384210">
        <ele>29.0</ele>
        <time>2022-06-18T07:14:04Z</time>
      </trkpt>
      <trkpt lat="42.0662700" lon="-8.6384210">
        <ele>29.0</ele>
        <time>2022-06-18T07:14:05Z</time>
      </trkpt>
      <trkpt lat="42.0662910" lon="-8.6384210">
        <ele>29.0</ele>
        <time>2022-06-18T07:14:06Z</time>
      </trkpt>
      <trkpt lat="42.0663150" lon="-8.6384260">
        <ele>29.0</ele>
        <time>2022-06-18T07:14:07Z</time>
      </trkpt>
      <trkpt lat="42.0663350" lon="-8.6384330">
        <ele>29.2</ele>
        <time>2022-06-18T07:14:08Z</time>
      </trkpt>
      <trkpt lat="42.0663600" lon="-8.6384400">
        <ele>29.2</ele>
        <time>2022-06-18T07:14:09Z</time>
      </trkpt>
      <trkpt lat="42.0663830" lon="-8.6384410">
        <ele>29.2</ele>
        <time>2022-06-18T07:14:10Z</time>
      </trkpt>
      <trkpt lat="42.0664050" lon="-8.6384410">
        <ele>30.0</ele>
        <time>2022-06-18T07:14:11Z</time>
      </trkpt>
      <trkpt lat="42.0664280" lon="-8.6384450">
        <ele>30.4</ele>
        <time>2022-06-18T07:14:12Z</time>
      </trkpt>
      <trkpt lat="42.0664530" lon="-8.6384530">
        <ele>30.4</ele>
        <time>2022-06-18T07:14:13Z</time>
      </trkpt>
      <trkpt lat="42.0664760" lon="-8.6384630">
        <ele>30.4</ele>
        <time>2022-06-18T07:14:14Z</time>
      </trkpt>
      <trkpt lat="42.0665030" lon="-8.6384710">
        <ele>30.4</ele>
        <time>2022-06-18T07:14:15Z</time>
      </trkpt>
      <trkpt lat="42.0665300" lon="-8.6384750">
        <ele>31.0</ele>
        <time>2022-06-18T07:14:16Z</time>
      </trkpt>
      <trkpt lat="42.0665510" lon="-8.6384730">
        <ele>31.0</ele>
        <time>2022-06-18T07:14:17Z</time>
      </trkpt>
      <trkpt lat="42.0665760" lon="-8.6384710">
        <ele>31.0</ele>
        <time>2022-06-18T07:14:18Z</time>
      </trkpt>
      <trkpt lat="42.0666010" lon="-8.6384710">
        <ele>31.6</ele>
        <time>2022-06-18T07:14:19Z</time>
      </trkpt>
      <trkpt lat="42.0666250" lon="-8.6384750">
        <ele>31.6</ele>
        <time>2022-06-18T07:14:20Z</time>
      </trkpt>
      <trkpt lat="42.0666480" lon="-8.6384800">
        <ele>31.6</ele>
        <time>2022-06-18T07:14:21Z</time>
      </trkpt>
      <trkpt lat="42.0666750" lon="-8.6384830">
        <ele>31.6</ele>
        <time>2022-06-18T07:14:22Z</time>
      </trkpt>
      <trkpt lat="42.0667010" lon="-8.6384830">
        <ele>32.6</ele>
        <time>2022-06-18T07:14:23Z</time>
      </trkpt>
      <trkpt lat="42.0667250" lon="-8.6384850">
        <ele>32.6</ele>
        <time>2022-06-18T07:14:24Z</time>
      </trkpt>
      <trkpt lat="42.0667460" lon="-8.6384810">
        <ele>32.6</ele>
        <time>2022-06-18T07:14:25Z</time>
      </trkpt>
      <trkpt lat="42.0667730" lon="-8.6384760">
        <ele>32.6</ele>
        <time>2022-06-18T07:14:26Z</time>
      </trkpt>
      <trkpt lat="42.0668000" lon="-8.6384780">
        <ele>32.6</ele>
        <time>2022-06-18T07:14:27Z</time>
      </trkpt>
      <trkpt lat="42.0668210" lon="-8.6384810">
        <ele>32.8</ele>
        <time>2022-06-18T07:14:28Z</time>
      </trkpt>
      <trkpt lat="42.0668460" lon="-8.6384830">
        <ele>32.8</ele>
        <time>2022-06-18T07:14:29Z</time>
      </trkpt>
      <trkpt lat="42.0668760" lon="-8.6384800">
        <ele>32.8</ele>
        <time>2022-06-18T07:14:30Z</time>
      </trkpt>
      <trkpt lat="42.0669050" lon="-8.6384750">
        <ele>33.8</ele>
        <time>2022-06-18T07:14:31Z</time>
      </trkpt>
      <trkpt lat="42.0669310" lon="-8.6384710">
        <ele>33.6</ele>
        <time>2022-06-18T07:14:32Z</time>
      </trkpt>
      <trkpt lat="42.0669560" lon="-8.6384700">
        <ele>33.6</ele>
        <time>2022-06-18T07:14:33Z</time>
      </trkpt>
      <trkpt lat="42.0669810" lon="-8.6384680">
        <ele>33.6</ele>
        <time>2022-06-18T07:14:34Z</time>
      </trkpt>
      <trkpt lat="42.0670050" lon="-8.6384660">
        <ele>34.6</ele>
        <time>2022-06-18T07:14:35Z</time>
      </trkpt>
      <trkpt lat="42.0670300" lon="-8.6384630">
        <ele>34.8</ele>
        <time>2022-06-18T07:14:36Z</time>
      </trkpt>
      <trkpt lat="42.0670560" lon="-8.6384630">
        <ele>34.8</ele>
        <time>2022-06-18T07:14:37Z</time>
      </trkpt>
      <trkpt lat="42.0670810" lon="-8.6384610">
        <ele>34.8</ele>
        <time>2022-06-18T07:14:38Z</time>
      </trkpt>
      <trkpt lat="42.0671080" lon="-8.6384600">
        <ele>35.0</ele>
        <time>2022-06-18T07:14:39Z</time>
      </trkpt>
      <trkpt lat="42.0671330" lon="-8.6384560">
        <ele>35.2</ele>
        <time>2022-06-18T07:14:40Z</time>
      </trkpt>
      <trkpt lat="42.0671580" lon="-8.6384560">
        <ele>35.2</ele>
        <time>2022-06-18T07:14:41Z</time>
      </trkpt>
      <trkpt lat="42.0671830" lon="-8.6384550">
        <ele>35.2</ele>
        <time>2022-06-18T07:14:42Z</time>
      </trkpt>
      <trkpt lat="42.0672060" lon="-8.6384530">
        <ele>35.2</ele>
        <time>2022-06-18T07:14:43Z</time>
      </trkpt>
      <trkpt lat="42.0672310" lon="-8.6384510">
        <ele>35.8</ele>
        <time>2022-06-18T07:14:44Z</time>
      </trkpt>
      <trkpt lat="42.0672560" lon="-8.6384500">
        <ele>35.8</ele>
        <time>2022-06-18T07:14:45Z</time>
      </trkpt>
      <trkpt lat="42.0672830" lon="-8.6384480">
        <ele>35.8</ele>
        <time>2022-06-18T07:14:46Z</time>
      </trkpt>
      <trkpt lat="42.0673060" lon="-8.6384460">
        <ele>36.2</ele>
        <time>2022-06-18T07:14:47Z</time>
      </trkpt>
      <trkpt lat="42.0673330" lon="-8.6384460">
        <ele>35.8</ele>
        <time>2022-06-18T07:14:48Z</time>
      </trkpt>
      <trkpt lat="42.0673600" lon="-8.6384430">
        <ele>35.8</ele>
        <time>2022-06-18T07:14:49Z</time>
      </trkpt>
      <trkpt lat="42.0673860" lon="-8.6384410">
        <ele>35.8</ele>
        <time>2022-06-18T07:14:50Z</time>
      </trkpt>
      <trkpt lat="42.0674130" lon="-8.6384380">
        <ele>36.2</ele>
        <time>2022-06-18T07:14:51Z</time>
      </trkpt>
      <trkpt lat="42.0674380" lon="-8.6384330">
        <ele>36.4</ele>
        <time>2022-06-18T07:14:52Z</time>
      </trkpt>
      <trkpt lat="42.0674650" lon="-8.6384330">
        <ele>36.4</ele>
        <time>2022-06-18T07:14:53Z</time>
      </trkpt>
      <trkpt lat="42.0674930" lon="-8.6384310">
        <ele>36.4</ele>
        <time>2022-06-18T07:14:54Z</time>
      </trkpt>
      <trkpt lat="42.0675250" lon="-8.6384280">
        <ele>36.4</ele>
        <time>2022-06-18T07:14:55Z</time>
      </trkpt>
      <trkpt lat="42.0675560" lon="-8.6384250">
        <ele>36.2</ele>
        <time>2022-06-18T07:14:56Z</time>
      </trkpt>
      <trkpt lat="42.0675900" lon="-8.6384250">
        <ele>36.2</ele>
        <time>2022-06-18T07:14:57Z</time>
      </trkpt>
      <trkpt lat="42.0676210" lon="-8.6384250">
        <ele>36.2</ele>
        <time>2022-06-18T07:14:58Z</time>
      </trkpt>
      <trkpt lat="42.0676550" lon="-8.6384250">
        <ele>35.8</ele>
        <time>2022-06-18T07:14:59Z</time>
      </trkpt>
      <trkpt lat="42.0676900" lon="-8.6384260">
        <ele>36.2</ele>
        <time>2022-06-18T07:15:00Z</time>
      </trkpt>
      <trkpt lat="42.0677250" lon="-8.6384260">
        <ele>36.2</ele>
        <time>2022-06-18T07:15:01Z</time>
      </trkpt>
      <trkpt lat="42.0677600" lon="-8.6384300">
        <ele>36.2</ele>
        <time>2022-06-18T07:15:02Z</time>
      </trkpt>
      <trkpt lat="42.0677960" lon="-8.6384310">
        <ele>36.0</ele>
        <time>2022-06-18T07:15:03Z</time>
      </trkpt>
      <trkpt lat="42.0678310" lon="-8.6384350">
        <ele>36.0</ele>
        <time>2022-06-18T07:15:04Z</time>
      </trkpt>
      <trkpt lat="42.0678700" lon="-8.6384400">
        <ele>36.0</ele>
        <time>2022-06-18T07:15:05Z</time>
      </trkpt>
      <trkpt lat="42.0679110" lon="-8.6384500">
        <ele>36.0</ele>
        <time>2022-06-18T07:15:06Z</time>
      </trkpt>
      <trkpt lat="42.0679560" lon="-8.6384630">
        <ele>35.2</ele>
        <time>2022-06-18T07:15:07Z</time>
      </trkpt>
      <trkpt lat="42.0680050" lon="-8.6384800">
        <ele>34.0</ele>
        <time>2022-06-18T07:15:08Z</time>
      </trkpt>
      <trkpt lat="42.0680560" lon="-8.6385000">
        <ele>34.0</ele>
        <time>2022-06-18T07:15:09Z</time>
      </trkpt>
      <trkpt lat="42.0681130" lon="-8.6385230">
        <ele>34.0</ele>
        <time>2022-06-18T07:15:10Z</time>
      </trkpt>
      <trkpt lat="42.0681760" lon="-8.6385460">
        <ele>33.0</ele>
        <time>2022-06-18T07:15:11Z</time>
      </trkpt>
      <trkpt lat="42.0682450" lon="-8.6385750">
        <ele>31.2</ele>
        <time>2022-06-18T07:15:12Z</time>
      </trkpt>
      <trkpt lat="42.0683160" lon="-8.6386080">
        <ele>31.2</ele>
        <time>2022-06-18T07:15:13Z</time>
      </trkpt>
      <trkpt lat="42.0683950" lon="-8.6386450">
        <ele>31.2</ele>
        <time>2022-06-18T07:15:14Z</time>
      </trkpt>
      <trkpt lat="42.0684780" lon="-8.6386830">
        <ele>30.2</ele>
        <time>2022-06-18T07:15:15Z</time>
      </trkpt>
      <trkpt lat="42.0685660" lon="-8.6387230">
        <ele>26.0</ele>
        <time>2022-06-18T07:15:16Z</time>
      </trkpt>
      <trkpt lat="42.0686610" lon="-8.6387630">
        <ele>26.0</ele>
        <time>2022-06-18T07:15:17Z</time>
      </trkpt>
      <trkpt lat="42.0687580" lon="-8.6388060">
        <ele>26.0</ele>
        <time>2022-06-18T07:15:18Z</time>
      </trkpt>
      <trkpt lat="42.0688580" lon="-8.6388500">
        <ele>25.0</ele>
        <time>2022-06-18T07:15:19Z</time>
      </trkpt>
      <trkpt lat="42.0689630" lon="-8.6388910">
        <ele>20.6</ele>
        <time>2022-06-18T07:15:20Z</time>
      </trkpt>
      <trkpt lat="42.0690730" lon="-8.6389300">
        <ele>20.6</ele>
        <time>2022-06-18T07:15:21Z</time>
      </trkpt>
      <trkpt lat="42.0691850" lon="-8.6389700">
        <ele>20.6</ele>
        <time>2022-06-18T07:15:22Z</time>
      </trkpt>
      <trkpt lat="42.0693010" lon="-8.6390010">
        <ele>19.6</ele>
        <time>2022-06-18T07:15:23Z</time>
      </trkpt>
      <trkpt lat="42.0694210" lon="-8.6390280">
        <ele>15.4</ele>
        <time>2022-06-18T07:15:24Z</time>
      </trkpt>
      <trkpt lat="42.0695430" lon="-8.6390550">
        <ele>15.4</ele>
        <time>2022-06-18T07:15:25Z</time>
      </trkpt>
      <trkpt lat="42.0696660" lon="-8.6390730">
        <ele>15.4</ele>
        <time>2022-06-18T07:15:26Z</time>
      </trkpt>
      <trkpt lat="42.0697900" lon="-8.6390910">
        <ele>14.4</ele>
        <time>2022-06-18T07:15:27Z</time>
      </trkpt>
      <trkpt lat="42.0699130" lon="-8.6390910">
        <ele>11.8</ele>
        <time>2022-06-18T07:15:28Z</time>
      </trkpt>
      <trkpt lat="42.0700260" lon="-8.6390830">
        <ele>11.8</ele>
        <time>2022-06-18T07:15:29Z</time>
      </trkpt>
      <trkpt lat="42.0701380" lon="-8.6390630">
        <ele>11.8</ele>
        <time>2022-06-18T07:15:30Z</time>
      </trkpt>
      <trkpt lat="42.0702430" lon="-8.6390310">
        <ele>12.8</ele>
        <time>2022-06-18T07:15:31Z</time>
      </trkpt>
      <trkpt lat="42.0703400" lon="-8.6389960">
        <ele>14.0</ele>
        <time>2022-06-18T07:15:32Z</time>
      </trkpt>
      <trkpt lat="42.0704310" lon="-8.6389550">
        <ele>14.0</ele>
        <time>2022-06-18T07:15:33Z</time>
      </trkpt>
      <trkpt lat="42.0705200" lon="-8.6389200">
        <ele>14.0</ele>
        <time>2022-06-18T07:15:34Z</time>
      </trkpt>
      <trkpt lat="42.0706030" lon="-8.6388850">
        <ele>15.0</ele>
        <time>2022-06-18T07:15:35Z</time>
      </trkpt>
      <trkpt lat="42.0706760" lon="-8.6388500">
        <ele>17.2</ele>
        <time>2022-06-18T07:15:36Z</time>
      </trkpt>
      <trkpt lat="42.0707450" lon="-8.6388200">
        <ele>17.2</ele>
        <time>2022-06-18T07:15:37Z</time>
      </trkpt>
      <trkpt lat="42.0708080" lon="-8.6387950">
        <ele>17.2</ele>
        <time>2022-06-18T07:15:38Z</time>
      </trkpt>
      <trkpt lat="42.0708700" lon="-8.6387710">
        <ele>18.2</ele>
        <time>2022-06-18T07:15:39Z</time>
      </trkpt>
      <trkpt lat="42.0709280" lon="-8.6387480">
        <ele>20.4</ele>
        <time>2022-06-18T07:15:40Z</time>
      </trkpt>
      <trkpt lat="42.0709800" lon="-8.6387250">
        <ele>20.4</ele>
        <time>2022-06-18T07:15:41Z</time>
      </trkpt>
      <trkpt lat="42.0710280" lon="-8.6387050">
        <ele>20.4</ele>
        <time>2022-06-18T07:15:42Z</time>
      </trkpt>
      <trkpt lat="42.0710760" lon="-8.6386900">
        <ele>21.2</ele>
        <time>2022-06-18T07:15:43Z</time>
      </trkpt>
      <trkpt lat="42.0711230" lon="-8.6386850">
        <ele>21.8</ele>
        <time>2022-06-18T07:15:44Z</time>
      </trkpt>
      <trkpt lat="42.0711710" lon="-8.6386760">
        <ele>21.8</ele>
        <time>2022-06-18T07:15:45Z</time>
      </trkpt>
      <trkpt lat="42.0712210" lon="-8.6386730">
        <ele>21.8</ele>
        <time>2022-06-18T07:15:46Z</time>
      </trkpt>
      <trkpt lat="42.0712660" lon="-8.6386730">
        <ele>21.8</ele>
        <time>2022-06-18T07:15:47Z</time>
      </trkpt>
      <trkpt lat="42.0713100" lon="-8.6386810">
        <ele>22.8</ele>
        <time>2022-06-18T07:15:48Z</time>
      </trkpt>
      <trkpt lat="42.0713510" lon="-8.6386880">
        <ele>22.8</ele>
        <time>2022-06-18T07:15:49Z</time>
      </trkpt>
      <trkpt lat="42.0713860" lon="-8.6386900">
        <ele>22.8</ele>
        <time>2022-06-18T07:15:50Z</time>
      </trkpt>
      <trkpt lat="42.0714150" lon="-8.6386950">
        <ele>23.0</ele>
        <time>2022-06-18T07:15:51Z</time>
      </trkpt>
      <trkpt lat="42.0714450" lon="-8.6387050">
        <ele>23.6</ele>
        <time>2022-06-18T07:15:52Z</time>
      </trkpt>
      <trkpt lat="42.0714760" lon="-8.6387080">
        <ele>23.6</ele>
        <time>2022-06-18T07:15:53Z</time>
      </trkpt>
      <trkpt lat="42.0715010" lon="-8.6387160">
        <ele>23.6</ele>
        <time>2022-06-18T07:15:54Z</time>
      </trkpt>
      <trkpt lat="42.0715010" lon="-8.6387160">
        <ele>23.8</ele>
        <time>2022-06-18T07:15:55Z</time>
      </trkpt>
      <trkpt lat="42.0715610" lon="-8.6387250">
        <ele>24.2</ele>
        <time>2022-06-18T07:15:56Z</time>
      </trkpt>
      <trkpt lat="42.0715800" lon="-8.6387300">
        <ele>24.2</ele>
        <time>2022-06-18T07:15:57Z</time>
      </trkpt>
      <trkpt lat="42.0715980" lon="-8.6387360">
        <ele>24.2</ele>
        <time>2022-06-18T07:15:58Z</time>
      </trkpt>
      <trkpt lat="42.0716260" lon="-8.6387430">
        <ele>24.8</ele>
        <time>2022-06-18T07:15:59Z</time>
      </trkpt>
      <trkpt lat="42.0716580" lon="-8.6387510">
        <ele>25.0</ele>
        <time>2022-06-18T07:16:00Z</time>
      </trkpt>
      <trkpt lat="42.0716880" lon="-8.6387530">
        <ele>25.0</ele>
        <time>2022-06-18T07:16:01Z</time>
      </trkpt>
      <trkpt lat="42.0717110" lon="-8.6387610">
        <ele>25.0</ele>
        <time>2022-06-18T07:16:02Z</time>
      </trkpt>
      <trkpt lat="42.0717330" lon="-8.6387700">
        <ele>25.4</ele>
        <time>2022-06-18T07:16:03Z</time>
      </trkpt>
      <trkpt lat="42.0717510" lon="-8.6387730">
        <ele>25.4</ele>
        <time>2022-06-18T07:16:04Z</time>
      </trkpt>
      <trkpt lat="42.0717760" lon="-8.6387800">
        <ele>25.4</ele>
        <time>2022-06-18T07:16:05Z</time>
      </trkpt>
      <trkpt lat="42.0717760" lon="-8.6387800">
        <ele>25.4</ele>
        <time>2022-06-18T07:16:06Z</time>
      </trkpt>
      <trkpt lat="42.0718260" lon="-8.6388000">
        <ele>25.4</ele>
        <time>2022-06-18T07:16:07Z</time>
      </trkpt>
      <trkpt lat="42.0718550" lon="-8.6388110">
        <ele>25.2</ele>
        <time>2022-06-18T07:16:08Z</time>
      </trkpt>
      <trkpt lat="42.0718830" lon="-8.6388250">
        <ele>25.2</ele>
        <time>2022-06-18T07:16:09Z</time>
      </trkpt>
      <trkpt lat="42.0719080" lon="-8.6388360">
        <ele>25.2</ele>
        <time>2022-06-18T07:16:10Z</time>
      </trkpt>
      <trkpt lat="42.0719400" lon="-8.6388500">
        <ele>25.2</ele>
        <time>2022-06-18T07:16:11Z</time>
      </trkpt>
      <trkpt lat="42.0719400" lon="-8.6388500">
        <ele>25.2</ele>
        <time>2022-06-18T07:16:12Z</time>
      </trkpt>
      <trkpt lat="42.0719960" lon="-8.6388600">
        <ele>25.2</ele>
        <time>2022-06-18T07:16:13Z</time>
      </trkpt>
      <trkpt lat="42.0720300" lon="-8.6388650">
        <ele>25.2</ele>
        <time>2022-06-18T07:16:14Z</time>
      </trkpt>
      <trkpt lat="42.0720300" lon="-8.6388650">
        <ele>25.2</ele>
        <time>2022-06-18T07:16:15Z</time>
      </trkpt>
      <trkpt lat="42.0720300" lon="-8.6388650">
        <ele>25.8</ele>
        <time>2022-06-18T07:16:16Z</time>
      </trkpt>
      <trkpt lat="42.0721250" lon="-8.6388710">
        <ele>25.8</ele>
        <time>2022-06-18T07:16:17Z</time>
      </trkpt>
      <trkpt lat="42.0721560" lon="-8.6388810">
        <ele>25.8</ele>
        <time>2022-06-18T07:16:18Z</time>
      </trkpt>
      <trkpt lat="42.0721560" lon="-8.6388810">
        <ele>25.8</ele>
        <time>2022-06-18T07:16:19Z</time>
      </trkpt>
      <trkpt lat="42.0722200" lon="-8.6389000">
        <ele>26.0</ele>
        <time>2022-06-18T07:16:20Z</time>
      </trkpt>
      <trkpt lat="42.0722430" lon="-8.6389030">
        <ele>26.0</ele>
        <time>2022-06-18T07:16:21Z</time>
      </trkpt>
      <trkpt lat="42.0722430" lon="-8.6389030">
        <ele>26.0</ele>
        <time>2022-06-18T07:16:22Z</time>
      </trkpt>
      <trkpt lat="42.0723130" lon="-8.6389260">
        <ele>26.0</ele>
        <time>2022-06-18T07:16:23Z</time>
      </trkpt>
      <trkpt lat="42.0723530" lon="-8.6389410">
        <ele>26.0</ele>
        <time>2022-06-18T07:16:24Z</time>
      </trkpt>
      <trkpt lat="42.0723880" lon="-8.6389560">
        <ele>26.0</ele>
        <time>2022-06-18T07:16:25Z</time>
      </trkpt>
      <trkpt lat="42.0723880" lon="-8.6389560">
        <ele>26.0</ele>
        <time>2022-06-18T07:16:26Z</time>
      </trkpt>
      <trkpt lat="42.0724700" lon="-8.6389780">
        <ele>26.6</ele>
        <time>2022-06-18T07:16:27Z</time>
      </trkpt>
      <trkpt lat="42.0725080" lon="-8.6389950">
        <ele>26.0</ele>
        <time>2022-06-18T07:16:28Z</time>
      </trkpt>
      <trkpt lat="42.0725450" lon="-8.6390100">
        <ele>26.0</ele>
        <time>2022-06-18T07:16:29Z</time>
      </trkpt>
      <trkpt lat="42.0725850" lon="-8.6390250">
        <ele>26.0</ele>
        <time>2022-06-18T07:16:30Z</time>
      </trkpt>
      <trkpt lat="42.0726330" lon="-8.6390410">
        <ele>26.0</ele>
        <time>2022-06-18T07:16:31Z</time>
      </trkpt>
      <trkpt lat="42.0726780" lon="-8.6390600">
        <ele>25.8</ele>
        <time>2022-06-18T07:16:32Z</time>
      </trkpt>
      <trkpt lat="42.0727230" lon="-8.6390810">
        <ele>25.8</ele>
        <time>2022-06-18T07:16:33Z</time>
      </trkpt>
      <trkpt lat="42.0727730" lon="-8.6391060">
        <ele>25.8</ele>
        <time>2022-06-18T07:16:34Z</time>
      </trkpt>
      <trkpt lat="42.0728550" lon="-8.6391440">
        <ele>25.8</ele>
        <time>2022-06-18T07:16:35Z</time>
      </trkpt>
      <trkpt lat="42.0728800" lon="-8.6391520">
        <ele>26.2</ele>
        <time>2022-06-18T07:16:36Z</time>
      </trkpt>
      <trkpt lat="42.0729300" lon="-8.6391700">
        <ele>26.2</ele>
        <time>2022-06-18T07:16:37Z</time>
      </trkpt>
      <trkpt lat="42.0729880" lon="-8.6391780">
        <ele>26.2</ele>
        <time>2022-06-18T07:16:38Z</time>
      </trkpt>
      <trkpt lat="42.0730350" lon="-8.6391880">
        <ele>26.2</ele>
        <time>2022-06-18T07:16:39Z</time>
      </trkpt>
      <trkpt lat="42.0730880" lon="-8.6391880">
        <ele>25.8</ele>
        <time>2022-06-18T07:16:40Z</time>
      </trkpt>
      <trkpt lat="42.0731450" lon="-8.6391980">
        <ele>25.8</ele>
        <time>2022-06-18T07:16:41Z</time>
      </trkpt>
      <trkpt lat="42.0731930" lon="-8.6392050">
        <ele>25.8</ele>
        <time>2022-06-18T07:16:42Z</time>
      </trkpt>
      <trkpt lat="42.0732380" lon="-8.6392110">
        <ele>26.0</ele>
        <time>2022-06-18T07:16:43Z</time>
      </trkpt>
      <trkpt lat="42.0732800" lon="-8.6392150">
        <ele>26.4</ele>
        <time>2022-06-18T07:16:44Z</time>
      </trkpt>
      <trkpt lat="42.0733230" lon="-8.6392150">
        <ele>26.4</ele>
        <time>2022-06-18T07:16:45Z</time>
      </trkpt>
      <trkpt lat="42.0733660" lon="-8.6392160">
        <ele>26.4</ele>
        <time>2022-06-18T07:16:46Z</time>
      </trkpt>
      <trkpt lat="42.0734130" lon="-8.6392150">
        <ele>26.4</ele>
        <time>2022-06-18T07:16:47Z</time>
      </trkpt>
      <trkpt lat="42.0734550" lon="-8.6392150">
        <ele>26.6</ele>
        <time>2022-06-18T07:16:48Z</time>
      </trkpt>
      <trkpt lat="42.0735010" lon="-8.6392180">
        <ele>26.6</ele>
        <time>2022-06-18T07:16:49Z</time>
      </trkpt>
      <trkpt lat="42.0735500" lon="-8.6392160">
        <ele>26.6</ele>
        <time>2022-06-18T07:16:50Z</time>
      </trkpt>
      <trkpt lat="42.0735960" lon="-8.6392130">
        <ele>26.2</ele>
        <time>2022-06-18T07:16:51Z</time>
      </trkpt>
      <trkpt lat="42.0736410" lon="-8.6392180">
        <ele>26.0</ele>
        <time>2022-06-18T07:16:52Z</time>
      </trkpt>
      <trkpt lat="42.0736860" lon="-8.6392300">
        <ele>26.0</ele>
        <time>2022-06-18T07:16:53Z</time>
      </trkpt>
      <trkpt lat="42.0737330" lon="-8.6392310">
        <ele>26.0</ele>
        <time>2022-06-18T07:16:54Z</time>
      </trkpt>
      <trkpt lat="42.0737860" lon="-8.6392400">
        <ele>26.0</ele>
        <time>2022-06-18T07:16:55Z</time>
      </trkpt>
      <trkpt lat="42.0738350" lon="-8.6392550">
        <ele>25.6</ele>
        <time>2022-06-18T07:16:56Z</time>
      </trkpt>
      <trkpt lat="42.0738880" lon="-8.6392730">
        <ele>25.6</ele>
        <time>2022-06-18T07:16:57Z</time>
      </trkpt>
      <trkpt lat="42.0739510" lon="-8.6392880">
        <ele>25.6</ele>
        <time>2022-06-18T07:16:58Z</time>
      </trkpt>
      <trkpt lat="42.0740160" lon="-8.6393060">
        <ele>25.6</ele>
        <time>2022-06-18T07:16:59Z</time>
      </trkpt>
      <trkpt lat="42.0740850" lon="-8.6393210">
        <ele>25.2</ele>
        <time>2022-06-18T07:17:00Z</time>
      </trkpt>
      <trkpt lat="42.0741410" lon="-8.6393330">
        <ele>25.2</ele>
        <time>2022-06-18T07:17:01Z</time>
      </trkpt>
      <trkpt lat="42.0742000" lon="-8.6393480">
        <ele>25.2</ele>
        <time>2022-06-18T07:17:02Z</time>
      </trkpt>
      <trkpt lat="42.0742580" lon="-8.6393610">
        <ele>24.2</ele>
        <time>2022-06-18T07:17:03Z</time>
      </trkpt>
      <trkpt lat="42.0743180" lon="-8.6393800">
        <ele>23.8</ele>
        <time>2022-06-18T07:17:04Z</time>
      </trkpt>
      <trkpt lat="42.0743810" lon="-8.6393980">
        <ele>23.8</ele>
        <time>2022-06-18T07:17:05Z</time>
      </trkpt>
      <trkpt lat="42.0744450" lon="-8.6394110">
        <ele>23.8</ele>
        <time>2022-06-18T07:17:06Z</time>
      </trkpt>
      <trkpt lat="42.0745100" lon="-8.6394260">
        <ele>23.2</ele>
        <time>2022-06-18T07:17:07Z</time>
      </trkpt>
      <trkpt lat="42.0745760" lon="-8.6394410">
        <ele>22.4</ele>
        <time>2022-06-18T07:17:08Z</time>
      </trkpt>
      <trkpt lat="42.0746410" lon="-8.6394580">
        <ele>22.4</ele>
        <time>2022-06-18T07:17:09Z</time>
      </trkpt>
      <trkpt lat="42.0747030" lon="-8.6394750">
        <ele>22.4</ele>
        <time>2022-06-18T07:17:10Z</time>
      </trkpt>
      <trkpt lat="42.0747660" lon="-8.6395000">
        <ele>22.4</ele>
        <time>2022-06-18T07:17:11Z</time>
      </trkpt>
      <trkpt lat="42.0748300" lon="-8.6395200">
        <ele>22.0</ele>
        <time>2022-06-18T07:17:12Z</time>
      </trkpt>
      <trkpt lat="42.0748950" lon="-8.6395350">
        <ele>22.0</ele>
        <time>2022-06-18T07:17:13Z</time>
      </trkpt>
      <trkpt lat="42.0749610" lon="-8.6395510">
        <ele>22.0</ele>
        <time>2022-06-18T07:17:14Z</time>
      </trkpt>
      <trkpt lat="42.0750280" lon="-8.6395710">
        <ele>22.0</ele>
        <time>2022-06-18T07:17:15Z</time>
      </trkpt>
      <trkpt lat="42.0750910" lon="-8.6395860">
        <ele>21.6</ele>
        <time>2022-06-18T07:17:16Z</time>
      </trkpt>
      <trkpt lat="42.0751510" lon="-8.6396030">
        <ele>21.6</ele>
        <time>2022-06-18T07:17:17Z</time>
      </trkpt>
      <trkpt lat="42.0752150" lon="-8.6396250">
        <ele>21.6</ele>
        <time>2022-06-18T07:17:18Z</time>
      </trkpt>
      <trkpt lat="42.0752760" lon="-8.6396460">
        <ele>21.6</ele>
        <time>2022-06-18T07:17:19Z</time>
      </trkpt>
      <trkpt lat="42.0753360" lon="-8.6396660">
        <ele>21.6</ele>
        <time>2022-06-18T07:17:20Z</time>
      </trkpt>
      <trkpt lat="42.0753910" lon="-8.6396800">
        <ele>21.6</ele>
        <time>2022-06-18T07:17:21Z</time>
      </trkpt>
      <trkpt lat="42.0754450" lon="-8.6396910">
        <ele>21.6</ele>
        <time>2022-06-18T07:17:22Z</time>
      </trkpt>
      <trkpt lat="42.0755000" lon="-8.6396960">
        <ele>21.6</ele>
        <time>2022-06-18T07:17:23Z</time>
      </trkpt>
      <trkpt lat="42.0755560" lon="-8.6397030">
        <ele>21.6</ele>
        <time>2022-06-18T07:17:24Z</time>
      </trkpt>
      <trkpt lat="42.0756250" lon="-8.6397100">
        <ele>21.6</ele>
        <time>2022-06-18T07:17:25Z</time>
      </trkpt>
      <trkpt lat="42.0756810" lon="-8.6397100">
        <ele>21.6</ele>
        <time>2022-06-18T07:17:26Z</time>
      </trkpt>
      <trkpt lat="42.0757410" lon="-8.6397080">
        <ele>21.4</ele>
        <time>2022-06-18T07:17:27Z</time>
      </trkpt>
      <trkpt lat="42.0758010" lon="-8.6396930">
        <ele>21.0</ele>
        <time>2022-06-18T07:17:28Z</time>
      </trkpt>
      <trkpt lat="42.0758600" lon="-8.6396730">
        <ele>21.0</ele>
        <time>2022-06-18T07:17:29Z</time>
      </trkpt>
      <trkpt lat="42.0759210" lon="-8.6396460">
        <ele>21.0</ele>
        <time>2022-06-18T07:17:30Z</time>
      </trkpt>
      <trkpt lat="42.0759780" lon="-8.6396180">
        <ele>21.4</ele>
        <time>2022-06-18T07:17:31Z</time>
      </trkpt>
      <trkpt lat="42.0760330" lon="-8.6395850">
        <ele>21.6</ele>
        <time>2022-06-18T07:17:32Z</time>
      </trkpt>
      <trkpt lat="42.0760880" lon="-8.6395550">
        <ele>21.6</ele>
        <time>2022-06-18T07:17:33Z</time>
      </trkpt>
      <trkpt lat="42.0761360" lon="-8.6395210">
        <ele>21.6</ele>
        <time>2022-06-18T07:17:34Z</time>
      </trkpt>
      <trkpt lat="42.0761800" lon="-8.6394850">
        <ele>21.6</ele>
        <time>2022-06-18T07:17:35Z</time>
      </trkpt>
      <trkpt lat="42.0762180" lon="-8.6394530">
        <ele>22.4</ele>
        <time>2022-06-18T07:17:36Z</time>
      </trkpt>
      <trkpt lat="42.0762550" lon="-8.6394110">
        <ele>22.4</ele>
        <time>2022-06-18T07:17:37Z</time>
      </trkpt>
      <trkpt lat="42.0762950" lon="-8.6393700">
        <ele>22.4</ele>
        <time>2022-06-18T07:17:38Z</time>
      </trkpt>
      <trkpt lat="42.0763280" lon="-8.6393310">
        <ele>23.2</ele>
        <time>2022-06-18T07:17:39Z</time>
      </trkpt>
      <trkpt lat="42.0763680" lon="-8.6392960">
        <ele>23.2</ele>
        <time>2022-06-18T07:17:40Z</time>
      </trkpt>
      <trkpt lat="42.0764080" lon="-8.6392680">
        <ele>23.2</ele>
        <time>2022-06-18T07:17:41Z</time>
      </trkpt>
      <trkpt lat="42.0764400" lon="-8.6392350">
        <ele>23.2</ele>
        <time>2022-06-18T07:17:42Z</time>
      </trkpt>
      <trkpt lat="42.0764710" lon="-8.6392010">
        <ele>24.0</ele>
        <time>2022-06-18T07:17:43Z</time>
      </trkpt>
      <trkpt lat="42.0765080" lon="-8.6391610">
        <ele>23.6</ele>
        <time>2022-06-18T07:17:44Z</time>
      </trkpt>
      <trkpt lat="42.0765430" lon="-8.6391280">
        <ele>23.6</ele>
        <time>2022-06-18T07:17:45Z</time>
      </trkpt>
      <trkpt lat="42.0765760" lon="-8.6390930">
        <ele>23.6</ele>
        <time>2022-06-18T07:17:46Z</time>
      </trkpt>
      <trkpt lat="42.0766100" lon="-8.6390600">
        <ele>24.2</ele>
        <time>2022-06-18T07:17:47Z</time>
      </trkpt>
      <trkpt lat="42.0766360" lon="-8.6390210">
        <ele>24.2</ele>
        <time>2022-06-18T07:17:48Z</time>
      </trkpt>
      <trkpt lat="42.0766630" lon="-8.6389800">
        <ele>24.2</ele>
        <time>2022-06-18T07:17:49Z</time>
      </trkpt>
      <trkpt lat="42.0766960" lon="-8.6389430">
        <ele>24.2</ele>
        <time>2022-06-18T07:17:50Z</time>
      </trkpt>
      <trkpt lat="42.0767180" lon="-8.6389030">
        <ele>25.2</ele>
        <time>2022-06-18T07:17:51Z</time>
      </trkpt>
      <trkpt lat="42.0767460" lon="-8.6388710">
        <ele>24.4</ele>
        <time>2022-06-18T07:17:52Z</time>
      </trkpt>
      <trkpt lat="42.0767810" lon="-8.6388380">
        <ele>24.4</ele>
        <time>2022-06-18T07:17:53Z</time>
      </trkpt>
      <trkpt lat="42.0768130" lon="-8.6388150">
        <ele>24.4</ele>
        <time>2022-06-18T07:17:54Z</time>
      </trkpt>
      <trkpt lat="42.0768410" lon="-8.6387900">
        <ele>25.4</ele>
        <time>2022-06-18T07:17:55Z</time>
      </trkpt>
      <trkpt lat="42.0768710" lon="-8.6387680">
        <ele>25.6</ele>
        <time>2022-06-18T07:17:56Z</time>
      </trkpt>
      <trkpt lat="42.0769050" lon="-8.6387400">
        <ele>25.6</ele>
        <time>2022-06-18T07:17:57Z</time>
      </trkpt>
      <trkpt lat="42.0769330" lon="-8.6387100">
        <ele>25.6</ele>
        <time>2022-06-18T07:17:58Z</time>
      </trkpt>
      <trkpt lat="42.0769660" lon="-8.6386850">
        <ele>26.0</ele>
        <time>2022-06-18T07:17:59Z</time>
      </trkpt>
      <trkpt lat="42.0769980" lon="-8.6386630">
        <ele>26.0</ele>
        <time>2022-06-18T07:18:00Z</time>
      </trkpt>
      <trkpt lat="42.0770310" lon="-8.6386400">
        <ele>26.0</ele>
        <time>2022-06-18T07:18:01Z</time>
      </trkpt>
      <trkpt lat="42.0770630" lon="-8.6386160">
        <ele>26.0</ele>
        <time>2022-06-18T07:18:02Z</time>
      </trkpt>
      <trkpt lat="42.0770910" lon="-8.6385860">
        <ele>26.2</ele>
        <time>2022-06-18T07:18:03Z</time>
      </trkpt>
      <trkpt lat="42.0771230" lon="-8.6385630">
        <ele>26.2</ele>
        <time>2022-06-18T07:18:04Z</time>
      </trkpt>
      <trkpt lat="42.0771550" lon="-8.6385460">
        <ele>26.2</ele>
        <time>2022-06-18T07:18:05Z</time>
      </trkpt>
      <trkpt lat="42.0771880" lon="-8.6385300">
        <ele>26.2</ele>
        <time>2022-06-18T07:18:06Z</time>
      </trkpt>
      <trkpt lat="42.0772210" lon="-8.6385180">
        <ele>27.0</ele>
        <time>2022-06-18T07:18:07Z</time>
      </trkpt>
      <trkpt lat="42.0772510" lon="-8.6385030">
        <ele>27.2</ele>
        <time>2022-06-18T07:18:08Z</time>
      </trkpt>
      <trkpt lat="42.0772860" lon="-8.6384910">
        <ele>27.2</ele>
        <time>2022-06-18T07:18:09Z</time>
      </trkpt>
      <trkpt lat="42.0773230" lon="-8.6384800">
        <ele>27.2</ele>
        <time>2022-06-18T07:18:10Z</time>
      </trkpt>
      <trkpt lat="42.0773610" lon="-8.6384650">
        <ele>27.4</ele>
        <time>2022-06-18T07:18:11Z</time>
      </trkpt>
      <trkpt lat="42.0774000" lon="-8.6384510">
        <ele>27.4</ele>
        <time>2022-06-18T07:18:12Z</time>
      </trkpt>
      <trkpt lat="42.0774350" lon="-8.6384400">
        <ele>27.4</ele>
        <time>2022-06-18T07:18:13Z</time>
      </trkpt>
      <trkpt lat="42.0774700" lon="-8.6384330">
        <ele>27.4</ele>
        <time>2022-06-18T07:18:14Z</time>
      </trkpt>
      <trkpt lat="42.0775060" lon="-8.6384350">
        <ele>27.8</ele>
        <time>2022-06-18T07:18:15Z</time>
      </trkpt>
      <trkpt lat="42.0775450" lon="-8.6384360">
        <ele>27.8</ele>
        <time>2022-06-18T07:18:16Z</time>
      </trkpt>
      <trkpt lat="42.0775830" lon="-8.6384450">
        <ele>27.8</ele>
        <time>2022-06-18T07:18:17Z</time>
      </trkpt>
      <trkpt lat="42.0776160" lon="-8.6384560">
        <ele>27.8</ele>
        <time>2022-06-18T07:18:18Z</time>
      </trkpt>
      <trkpt lat="42.0776510" lon="-8.6384680">
        <ele>28.4</ele>
        <time>2022-06-18T07:18:19Z</time>
      </trkpt>
      <trkpt lat="42.0776850" lon="-8.6384830">
        <ele>28.4</ele>
        <time>2022-06-18T07:18:20Z</time>
      </trkpt>
      <trkpt lat="42.0777150" lon="-8.6384980">
        <ele>28.4</ele>
        <time>2022-06-18T07:18:21Z</time>
      </trkpt>
      <trkpt lat="42.0777430" lon="-8.6385130">
        <ele>28.4</ele>
        <time>2022-06-18T07:18:22Z</time>
      </trkpt>
      <trkpt lat="42.0777730" lon="-8.6385230">
        <ele>28.8</ele>
        <time>2022-06-18T07:18:23Z</time>
      </trkpt>
      <trkpt lat="42.0778010" lon="-8.6385360">
        <ele>28.8</ele>
        <time>2022-06-18T07:18:24Z</time>
      </trkpt>
      <trkpt lat="42.0778330" lon="-8.6385500">
        <ele>28.8</ele>
        <time>2022-06-18T07:18:25Z</time>
      </trkpt>
      <trkpt lat="42.0778650" lon="-8.6385610">
        <ele>28.8</ele>
        <time>2022-06-18T07:18:26Z</time>
      </trkpt>
      <trkpt lat="42.0778910" lon="-8.6385680">
        <ele>28.6</ele>
        <time>2022-06-18T07:18:27Z</time>
      </trkpt>
      <trkpt lat="42.0779250" lon="-8.6385750">
        <ele>28.4</ele>
        <time>2022-06-18T07:18:28Z</time>
      </trkpt>
      <trkpt lat="42.0779730" lon="-8.6385760">
        <ele>28.4</ele>
        <time>2022-06-18T07:18:29Z</time>
      </trkpt>
      <trkpt lat="42.0780130" lon="-8.6385930">
        <ele>28.4</ele>
        <time>2022-06-18T07:18:30Z</time>
      </trkpt>
      <trkpt lat="42.0780510" lon="-8.6386030">
        <ele>28.4</ele>
        <time>2022-06-18T07:18:31Z</time>
      </trkpt>
      <trkpt lat="42.0780910" lon="-8.6386160">
        <ele>28.6</ele>
        <time>2022-06-18T07:18:32Z</time>
      </trkpt>
      <trkpt lat="42.0781350" lon="-8.6386250">
        <ele>28.6</ele>
        <time>2022-06-18T07:18:33Z</time>
      </trkpt>
      <trkpt lat="42.0781760" lon="-8.6386380">
        <ele>28.6</ele>
        <time>2022-06-18T07:18:34Z</time>
      </trkpt>
      <trkpt lat="42.0782200" lon="-8.6386560">
        <ele>28.6</ele>
        <time>2022-06-18T07:18:35Z</time>
      </trkpt>
      <trkpt lat="42.0782550" lon="-8.6386750">
        <ele>28.6</ele>
        <time>2022-06-18T07:18:36Z</time>
      </trkpt>
      <trkpt lat="42.0782910" lon="-8.6386910">
        <ele>28.6</ele>
        <time>2022-06-18T07:18:37Z</time>
      </trkpt>
      <trkpt lat="42.0783250" lon="-8.6387060">
        <ele>28.6</ele>
        <time>2022-06-18T07:18:38Z</time>
      </trkpt>
      <trkpt lat="42.0783610" lon="-8.6387210">
        <ele>28.4</ele>
        <time>2022-06-18T07:18:39Z</time>
      </trkpt>
      <trkpt lat="42.0784000" lon="-8.6387300">
        <ele>28.4</ele>
        <time>2022-06-18T07:18:40Z</time>
      </trkpt>
      <trkpt lat="42.0784350" lon="-8.6387350">
        <ele>28.4</ele>
        <time>2022-06-18T07:18:41Z</time>
      </trkpt>
      <trkpt lat="42.0784780" lon="-8.6387330">
        <ele>28.4</ele>
        <time>2022-06-18T07:18:42Z</time>
      </trkpt>
      <trkpt lat="42.0785230" lon="-8.6387360">
        <ele>28.2</ele>
        <time>2022-06-18T07:18:43Z</time>
      </trkpt>
      <trkpt lat="42.0785500" lon="-8.6387550">
        <ele>28.2</ele>
        <time>2022-06-18T07:18:44Z</time>
      </trkpt>
      <trkpt lat="42.0785860" lon="-8.6387630">
        <ele>28.2</ele>
        <time>2022-06-18T07:18:45Z</time>
      </trkpt>
      <trkpt lat="42.0786250" lon="-8.6387750">
        <ele>28.2</ele>
        <time>2022-06-18T07:18:46Z</time>
      </trkpt>
      <trkpt lat="42.0786610" lon="-8.6387810">
        <ele>28.2</ele>
        <time>2022-06-18T07:18:47Z</time>
      </trkpt>
      <trkpt lat="42.0787050" lon="-8.6387880">
        <ele>28.4</ele>
        <time>2022-06-18T07:18:48Z</time>
      </trkpt>
      <trkpt lat="42.0787820" lon="-8.6388140">
        <ele>28.4</ele>
        <time>2022-06-18T07:18:49Z</time>
      </trkpt>
      <trkpt lat="42.0788060" lon="-8.6388220">
        <ele>28.4</ele>
        <time>2022-06-18T07:18:50Z</time>
      </trkpt>
      <trkpt lat="42.0788550" lon="-8.6388380">
        <ele>28.4</ele>
        <time>2022-06-18T07:18:51Z</time>
      </trkpt>
      <trkpt lat="42.0789060" lon="-8.6388450">
        <ele>28.8</ele>
        <time>2022-06-18T07:18:52Z</time>
      </trkpt>
      <trkpt lat="42.0789510" lon="-8.6388560">
        <ele>28.8</ele>
        <time>2022-06-18T07:18:53Z</time>
      </trkpt>
      <trkpt lat="42.0790010" lon="-8.6388630">
        <ele>28.8</ele>
        <time>2022-06-18T07:18:54Z</time>
      </trkpt>
      <trkpt lat="42.0790660" lon="-8.6388830">
        <ele>28.2</ele>
        <time>2022-06-18T07:18:55Z</time>
      </trkpt>
      <trkpt lat="42.0791160" lon="-8.6388850">
        <ele>28.4</ele>
        <time>2022-06-18T07:18:56Z</time>
      </trkpt>
      <trkpt lat="42.0791650" lon="-8.6388900">
        <ele>28.4</ele>
        <time>2022-06-18T07:18:57Z</time>
      </trkpt>
      <trkpt lat="42.0792200" lon="-8.6388950">
        <ele>28.4</ele>
        <time>2022-06-18T07:18:58Z</time>
      </trkpt>
      <trkpt lat="42.0792630" lon="-8.6389050">
        <ele>28.4</ele>
        <time>2022-06-18T07:18:59Z</time>
      </trkpt>
      <trkpt lat="42.0793130" lon="-8.6389150">
        <ele>28.2</ele>
        <time>2022-06-18T07:19:00Z</time>
      </trkpt>
      <trkpt lat="42.0793650" lon="-8.6389180">
        <ele>28.2</ele>
        <time>2022-06-18T07:19:01Z</time>
      </trkpt>
      <trkpt lat="42.0794080" lon="-8.6389300">
        <ele>28.2</ele>
        <time>2022-06-18T07:19:02Z</time>
      </trkpt>
      <trkpt lat="42.0794500" lon="-8.6389450">
        <ele>28.2</ele>
        <time>2022-06-18T07:19:03Z</time>
      </trkpt>
      <trkpt lat="42.0794960" lon="-8.6389460">
        <ele>28.8</ele>
        <time>2022-06-18T07:19:04Z</time>
      </trkpt>
      <trkpt lat="42.0795410" lon="-8.6389530">
        <ele>28.8</ele>
        <time>2022-06-18T07:19:05Z</time>
      </trkpt>
      <trkpt lat="42.0795850" lon="-8.6389680">
        <ele>28.8</ele>
        <time>2022-06-18T07:19:06Z</time>
      </trkpt>
      <trkpt lat="42.0796300" lon="-8.6389800">
        <ele>29.6</ele>
        <time>2022-06-18T07:19:07Z</time>
      </trkpt>
      <trkpt lat="42.0796730" lon="-8.6389850">
        <ele>29.6</ele>
        <time>2022-06-18T07:19:08Z</time>
      </trkpt>
      <trkpt lat="42.0797200" lon="-8.6389910">
        <ele>29.6</ele>
        <time>2022-06-18T07:19:09Z</time>
      </trkpt>
      <trkpt lat="42.0797630" lon="-8.6389910">
        <ele>29.6</ele>
        <time>2022-06-18T07:19:10Z</time>
      </trkpt>
      <trkpt lat="42.0798130" lon="-8.6389880">
        <ele>29.6</ele>
        <time>2022-06-18T07:19:11Z</time>
      </trkpt>
      <trkpt lat="42.0798580" lon="-8.6389810">
        <ele>29.8</ele>
        <time>2022-06-18T07:19:12Z</time>
      </trkpt>
      <trkpt lat="42.0799080" lon="-8.6389780">
        <ele>29.8</ele>
        <time>2022-06-18T07:19:13Z</time>
      </trkpt>
      <trkpt lat="42.0799500" lon="-8.6389750">
        <ele>29.8</ele>
        <time>2022-06-18T07:19:14Z</time>
      </trkpt>
      <trkpt lat="42.0799900" lon="-8.6389760">
        <ele>29.8</ele>
        <time>2022-06-18T07:19:15Z</time>
      </trkpt>
      <trkpt lat="42.0800300" lon="-8.6389760">
        <ele>30.4</ele>
        <time>2022-06-18T07:19:16Z</time>
      </trkpt>
      <trkpt lat="42.0800750" lon="-8.6389680">
        <ele>30.4</ele>
        <time>2022-06-18T07:19:17Z</time>
      </trkpt>
      <trkpt lat="42.0801180" lon="-8.6389610">
        <ele>30.4</ele>
        <time>2022-06-18T07:19:18Z</time>
      </trkpt>
      <trkpt lat="42.0801680" lon="-8.6389630">
        <ele>29.8</ele>
        <time>2022-06-18T07:19:19Z</time>
      </trkpt>
      <trkpt lat="42.0802130" lon="-8.6389700">
        <ele>29.8</ele>
        <time>2022-06-18T07:19:20Z</time>
      </trkpt>
      <trkpt lat="42.0802510" lon="-8.6389810">
        <ele>29.8</ele>
        <time>2022-06-18T07:19:21Z</time>
      </trkpt>
      <trkpt lat="42.0803030" lon="-8.6389910">
        <ele>29.8</ele>
        <time>2022-06-18T07:19:22Z</time>
      </trkpt>
      <trkpt lat="42.0803550" lon="-8.6390000">
        <ele>29.8</ele>
        <time>2022-06-18T07:19:23Z</time>
      </trkpt>
      <trkpt lat="42.0804010" lon="-8.6390180">
        <ele>29.2</ele>
        <time>2022-06-18T07:19:24Z</time>
      </trkpt>
      <trkpt lat="42.0804510" lon="-8.6390500">
        <ele>29.2</ele>
        <time>2022-06-18T07:19:25Z</time>
      </trkpt>
      <trkpt lat="42.0805130" lon="-8.6390860">
        <ele>29.2</ele>
        <time>2022-06-18T07:19:26Z</time>
      </trkpt>
      <trkpt lat="42.0805710" lon="-8.6391350">
        <ele>28.2</ele>
        <time>2022-06-18T07:19:27Z</time>
      </trkpt>
      <trkpt lat="42.0806310" lon="-8.6391860">
        <ele>27.2</ele>
        <time>2022-06-18T07:19:28Z</time>
      </trkpt>
      <trkpt lat="42.0806830" lon="-8.6392450">
        <ele>27.2</ele>
        <time>2022-06-18T07:19:29Z</time>
      </trkpt>
      <trkpt lat="42.0807360" lon="-8.6393060">
        <ele>27.2</ele>
        <time>2022-06-18T07:19:30Z</time>
      </trkpt>
      <trkpt lat="42.0807950" lon="-8.6393700">
        <ele>27.2</ele>
        <time>2022-06-18T07:19:31Z</time>
      </trkpt>
      <trkpt lat="42.0808410" lon="-8.6394450">
        <ele>26.0</ele>
        <time>2022-06-18T07:19:32Z</time>
      </trkpt>
      <trkpt lat="42.0808910" lon="-8.6395110">
        <ele>26.0</ele>
        <time>2022-06-18T07:19:33Z</time>
      </trkpt>
      <trkpt lat="42.0809600" lon="-8.6395480">
        <ele>26.0</ele>
        <time>2022-06-18T07:19:34Z</time>
      </trkpt>
      <trkpt lat="42.0810210" lon="-8.6395960">
        <ele>25.0</ele>
        <time>2022-06-18T07:19:35Z</time>
      </trkpt>
      <trkpt lat="42.0810700" lon="-8.6396510">
        <ele>24.2</ele>
        <time>2022-06-18T07:19:36Z</time>
      </trkpt>
      <trkpt lat="42.0810960" lon="-8.6397380">
        <ele>24.2</ele>
        <time>2022-06-18T07:19:37Z</time>
      </trkpt>
      <trkpt lat="42.0811430" lon="-8.6398160">
        <ele>24.2</ele>
        <time>2022-06-18T07:19:38Z</time>
      </trkpt>
      <trkpt lat="42.0811980" lon="-8.6399030">
        <ele>23.2</ele>
        <time>2022-06-18T07:19:39Z</time>
      </trkpt>
      <trkpt lat="42.0812510" lon="-8.6399960">
        <ele>20.4</ele>
        <time>2022-06-18T07:19:40Z</time>
      </trkpt>
      <trkpt lat="42.0813160" lon="-8.6400850">
        <ele>20.4</ele>
        <time>2022-06-18T07:19:41Z</time>
      </trkpt>
      <trkpt lat="42.0813880" lon="-8.6401560">
        <ele>20.4</ele>
        <time>2022-06-18T07:19:42Z</time>
      </trkpt>
      <trkpt lat="42.0814650" lon="-8.6402180">
        <ele>19.6</ele>
        <time>2022-06-18T07:19:43Z</time>
      </trkpt>
      <trkpt lat="42.0815360" lon="-8.6402710">
        <ele>19.8</ele>
        <time>2022-06-18T07:19:44Z</time>
      </trkpt>
      <trkpt lat="42.0816030" lon="-8.6403210">
        <ele>19.8</ele>
        <time>2022-06-18T07:19:45Z</time>
      </trkpt>
      <trkpt lat="42.0816730" lon="-8.6403680">
        <ele>19.8</ele>
        <time>2022-06-18T07:19:46Z</time>
      </trkpt>
      <trkpt lat="42.0817430" lon="-8.6404130">
        <ele>20.8</ele>
        <time>2022-06-18T07:19:47Z</time>
      </trkpt>
      <trkpt lat="42.0818110" lon="-8.6404560">
        <ele>21.0</ele>
        <time>2022-06-18T07:19:48Z</time>
      </trkpt>
      <trkpt lat="42.0818750" lon="-8.6405000">
        <ele>21.0</ele>
        <time>2022-06-18T07:19:49Z</time>
      </trkpt>
      <trkpt lat="42.0819360" lon="-8.6405400">
        <ele>21.0</ele>
        <time>2022-06-18T07:19:50Z</time>
      </trkpt>
      <trkpt lat="42.0819950" lon="-8.6405800">
        <ele>22.0</ele>
        <time>2022-06-18T07:19:51Z</time>
      </trkpt>
      <trkpt lat="42.0820510" lon="-8.6406230">
        <ele>23.2</ele>
        <time>2022-06-18T07:19:52Z</time>
      </trkpt>
      <trkpt lat="42.0821060" lon="-8.6406560">
        <ele>23.2</ele>
        <time>2022-06-18T07:19:53Z</time>
      </trkpt>
      <trkpt lat="42.0821630" lon="-8.6406880">
        <ele>23.2</ele>
        <time>2022-06-18T07:19:54Z</time>
      </trkpt>
      <trkpt lat="42.0822160" lon="-8.6407230">
        <ele>23.2</ele>
        <time>2022-06-18T07:19:55Z</time>
      </trkpt>
      <trkpt lat="42.0822700" lon="-8.6407550">
        <ele>24.4</ele>
        <time>2022-06-18T07:19:56Z</time>
      </trkpt>
      <trkpt lat="42.0823200" lon="-8.6407880">
        <ele>24.4</ele>
        <time>2022-06-18T07:19:57Z</time>
      </trkpt>
      <trkpt lat="42.0823750" lon="-8.6408180">
        <ele>24.4</ele>
        <time>2022-06-18T07:19:58Z</time>
      </trkpt>
      <trkpt lat="42.0824250" lon="-8.6408480">
        <ele>25.4</ele>
        <time>2022-06-18T07:19:59Z</time>
      </trkpt>
      <trkpt lat="42.0824710" lon="-8.6408760">
        <ele>25.8</ele>
        <time>2022-06-18T07:20:00Z</time>
      </trkpt>
      <trkpt lat="42.0825150" lon="-8.6409050">
        <ele>25.8</ele>
        <time>2022-06-18T07:20:01Z</time>
      </trkpt>
      <trkpt lat="42.0825560" lon="-8.6409260">
        <ele>25.8</ele>
        <time>2022-06-18T07:20:02Z</time>
      </trkpt>
      <trkpt lat="42.0825900" lon="-8.6409430">
        <ele>25.8</ele>
        <time>2022-06-18T07:20:03Z</time>
      </trkpt>
      <trkpt lat="42.0826230" lon="-8.6409480">
        <ele>26.2</ele>
        <time>2022-06-18T07:20:04Z</time>
      </trkpt>
      <trkpt lat="42.0826510" lon="-8.6409410">
        <ele>26.2</ele>
        <time>2022-06-18T07:20:05Z</time>
      </trkpt>
      <trkpt lat="42.0826750" lon="-8.6409200">
        <ele>26.2</ele>
        <time>2022-06-18T07:20:06Z</time>
      </trkpt>
      <trkpt lat="42.0826960" lon="-8.6409030">
        <ele>26.2</ele>
        <time>2022-06-18T07:20:07Z</time>
      </trkpt>
      <trkpt lat="42.0827060" lon="-8.6408850">
        <ele>27.2</ele>
        <time>2022-06-18T07:20:08Z</time>
      </trkpt>
      <trkpt lat="42.0827200" lon="-8.6408700">
        <ele>27.2</ele>
        <time>2022-06-18T07:20:09Z</time>
      </trkpt>
      <trkpt lat="42.0827330" lon="-8.6408550">
        <ele>27.2</ele>
        <time>2022-06-18T07:20:10Z</time>
      </trkpt>
      <trkpt lat="42.0827430" lon="-8.6408360">
        <ele>28.2</ele>
        <time>2022-06-18T07:20:11Z</time>
      </trkpt>
      <trkpt lat="42.0827530" lon="-8.6408100">
        <ele>28.8</ele>
        <time>2022-06-18T07:20:12Z</time>
      </trkpt>
      <trkpt lat="42.0827630" lon="-8.6407800">
        <ele>28.8</ele>
        <time>2022-06-18T07:20:13Z</time>
      </trkpt>
      <trkpt lat="42.0827650" lon="-8.6407480">
        <ele>28.8</ele>
        <time>2022-06-18T07:20:14Z</time>
      </trkpt>
      <trkpt lat="42.0827660" lon="-8.6407150">
        <ele>28.8</ele>
        <time>2022-06-18T07:20:15Z</time>
      </trkpt>
      <trkpt lat="42.0827580" lon="-8.6406830">
        <ele>28.4</ele>
        <time>2022-06-18T07:20:16Z</time>
      </trkpt>
      <trkpt lat="42.0827580" lon="-8.6406530">
        <ele>28.4</ele>
        <time>2022-06-18T07:20:17Z</time>
      </trkpt>
      <trkpt lat="42.0827550" lon="-8.6406210">
        <ele>28.4</ele>
        <time>2022-06-18T07:20:18Z</time>
      </trkpt>
      <trkpt lat="42.0827500" lon="-8.6405860">
        <ele>28.8</ele>
        <time>2022-06-18T07:20:19Z</time>
      </trkpt>
      <trkpt lat="42.0827430" lon="-8.6405550">
        <ele>29.4</ele>
        <time>2022-06-18T07:20:20Z</time>
      </trkpt>
      <trkpt lat="42.0827410" lon="-8.6405260">
        <ele>29.4</ele>
        <time>2022-06-18T07:20:21Z</time>
      </trkpt>
      <trkpt lat="42.0827430" lon="-8.6404950">
        <ele>29.4</ele>
        <time>2022-06-18T07:20:22Z</time>
      </trkpt>
      <trkpt lat="42.0827430" lon="-8.6404700">
        <ele>29.4</ele>
        <time>2022-06-18T07:20:23Z</time>
      </trkpt>
      <trkpt lat="42.0827480" lon="-8.6404410">
        <ele>30.0</ele>
        <time>2022-06-18T07:20:24Z</time>
      </trkpt>
      <trkpt lat="42.0827550" lon="-8.6404080">
        <ele>30.0</ele>
        <time>2022-06-18T07:20:25Z</time>
      </trkpt>
      <trkpt lat="42.0827660" lon="-8.6403730">
        <ele>30.0</ele>
        <time>2022-06-18T07:20:26Z</time>
      </trkpt>
      <trkpt lat="42.0827760" lon="-8.6403410">
        <ele>30.0</ele>
        <time>2022-06-18T07:20:27Z</time>
      </trkpt>
      <trkpt lat="42.0827830" lon="-8.6403130">
        <ele>31.0</ele>
        <time>2022-06-18T07:20:28Z</time>
      </trkpt>
      <trkpt lat="42.0827930" lon="-8.6402900">
        <ele>31.0</ele>
        <time>2022-06-18T07:20:29Z</time>
      </trkpt>
      <trkpt lat="42.0828050" lon="-8.6402730">
        <ele>31.0</ele>
        <time>2022-06-18T07:20:30Z</time>
      </trkpt>
      <trkpt lat="42.0828130" lon="-8.6402550">
        <ele>31.0</ele>
        <time>2022-06-18T07:20:31Z</time>
      </trkpt>
      <trkpt lat="42.0828200" lon="-8.6402310">
        <ele>31.0</ele>
        <time>2022-06-18T07:20:32Z</time>
      </trkpt>
      <trkpt lat="42.0828230" lon="-8.6402060">
        <ele>31.0</ele>
        <time>2022-06-18T07:20:33Z</time>
      </trkpt>
      <trkpt lat="42.0828260" lon="-8.6401800">
        <ele>31.0</ele>
        <time>2022-06-18T07:20:34Z</time>
      </trkpt>
      <trkpt lat="42.0828300" lon="-8.6401530">
        <ele>32.0</ele>
        <time>2022-06-18T07:20:35Z</time>
      </trkpt>
      <trkpt lat="42.0828350" lon="-8.6401330">
        <ele>32.4</ele>
        <time>2022-06-18T07:20:36Z</time>
      </trkpt>
      <trkpt lat="42.0828430" lon="-8.6401130">
        <ele>32.4</ele>
        <time>2022-06-18T07:20:37Z</time>
      </trkpt>
      <trkpt lat="42.0828460" lon="-8.6400910">
        <ele>32.4</ele>
        <time>2022-06-18T07:20:38Z</time>
      </trkpt>
      <trkpt lat="42.0828480" lon="-8.6400710">
        <ele>32.4</ele>
        <time>2022-06-18T07:20:39Z</time>
      </trkpt>
      <trkpt lat="42.0828530" lon="-8.6400480">
        <ele>33.2</ele>
        <time>2022-06-18T07:20:40Z</time>
      </trkpt>
      <trkpt lat="42.0828560" lon="-8.6400260">
        <ele>33.2</ele>
        <time>2022-06-18T07:20:41Z</time>
      </trkpt>
      <trkpt lat="42.0828610" lon="-8.6400010">
        <ele>33.2</ele>
        <time>2022-06-18T07:20:42Z</time>
      </trkpt>
      <trkpt lat="42.0828710" lon="-8.6399730">
        <ele>33.2</ele>
        <time>2022-06-18T07:20:43Z</time>
      </trkpt>
      <trkpt lat="42.0828800" lon="-8.6399410">
        <ele>34.2</ele>
        <time>2022-06-18T07:20:44Z</time>
      </trkpt>
      <trkpt lat="42.0828930" lon="-8.6399080">
        <ele>34.2</ele>
        <time>2022-06-18T07:20:45Z</time>
      </trkpt>
      <trkpt lat="42.0828960" lon="-8.6398780">
        <ele>34.2</ele>
        <time>2022-06-18T07:20:46Z</time>
      </trkpt>
      <trkpt lat="42.0828980" lon="-8.6398460">
        <ele>34.6</ele>
        <time>2022-06-18T07:20:47Z</time>
      </trkpt>
      <trkpt lat="42.0829050" lon="-8.6398150">
        <ele>34.8</ele>
        <time>2022-06-18T07:20:48Z</time>
      </trkpt>
      <trkpt lat="42.0829130" lon="-8.6397810">
        <ele>34.8</ele>
        <time>2022-06-18T07:20:49Z</time>
      </trkpt>
      <trkpt lat="42.0829200" lon="-8.6397400">
        <ele>34.8</ele>
        <time>2022-06-18T07:20:50Z</time>
      </trkpt>
      <trkpt lat="42.0829330" lon="-8.6397050">
        <ele>35.2</ele>
        <time>2022-06-18T07:20:51Z</time>
      </trkpt>
      <trkpt lat="42.0829460" lon="-8.6396730">
        <ele>35.2</ele>
        <time>2022-06-18T07:20:52Z</time>
      </trkpt>
      <trkpt lat="42.0829630" lon="-8.6396430">
        <ele>35.2</ele>
        <time>2022-06-18T07:20:53Z</time>
      </trkpt>
      <trkpt lat="42.0829760" lon="-8.6396080">
        <ele>35.2</ele>
        <time>2022-06-18T07:20:54Z</time>
      </trkpt>
      <trkpt lat="42.0829860" lon="-8.6395700">
        <ele>35.6</ele>
        <time>2022-06-18T07:20:55Z</time>
      </trkpt>
      <trkpt lat="42.0829960" lon="-8.6395360">
        <ele>35.6</ele>
        <time>2022-06-18T07:20:56Z</time>
      </trkpt>
      <trkpt lat="42.0830060" lon="-8.6395010">
        <ele>35.6</ele>
        <time>2022-06-18T07:20:57Z</time>
      </trkpt>
      <trkpt lat="42.0830210" lon="-8.6394700">
        <ele>35.6</ele>
        <time>2022-06-18T07:20:58Z</time>
      </trkpt>
      <trkpt lat="42.0830360" lon="-8.6394400">
        <ele>36.2</ele>
        <time>2022-06-18T07:20:59Z</time>
      </trkpt>
      <trkpt lat="42.0830500" lon="-8.6394130">
        <ele>36.2</ele>
        <time>2022-06-18T07:21:00Z</time>
      </trkpt>
      <trkpt lat="42.0830630" lon="-8.6393830">
        <ele>36.2</ele>
        <time>2022-06-18T07:21:01Z</time>
      </trkpt>
      <trkpt lat="42.0830750" lon="-8.6393510">
        <ele>36.2</ele>
        <time>2022-06-18T07:21:02Z</time>
      </trkpt>
      <trkpt lat="42.0830860" lon="-8.6393210">
        <ele>36.2</ele>
        <time>2022-06-18T07:21:03Z</time>
      </trkpt>
      <trkpt lat="42.0831000" lon="-8.6392910">
        <ele>36.6</ele>
        <time>2022-06-18T07:21:04Z</time>
      </trkpt>
      <trkpt lat="42.0831130" lon="-8.6392630">
        <ele>36.6</ele>
        <time>2022-06-18T07:21:05Z</time>
      </trkpt>
      <trkpt lat="42.0831260" lon="-8.6392360">
        <ele>36.6</ele>
        <time>2022-06-18T07:21:06Z</time>
      </trkpt>
      <trkpt lat="42.0831400" lon="-8.6392130">
        <ele>36.4</ele>
        <time>2022-06-18T07:21:07Z</time>
      </trkpt>
      <trkpt lat="42.0831530" lon="-8.6391880">
        <ele>36.2</ele>
        <time>2022-06-18T07:21:08Z</time>
      </trkpt>
      <trkpt lat="42.0831650" lon="-8.6391600">
        <ele>36.2</ele>
        <time>2022-06-18T07:21:09Z</time>
      </trkpt>
      <trkpt lat="42.0831760" lon="-8.6391300">
        <ele>36.2</ele>
        <time>2022-06-18T07:21:10Z</time>
      </trkpt>
      <trkpt lat="42.0831910" lon="-8.6391000">
        <ele>36.2</ele>
        <time>2022-06-18T07:21:11Z</time>
      </trkpt>
      <trkpt lat="42.0832100" lon="-8.6390700">
        <ele>36.0</ele>
        <time>2022-06-18T07:21:12Z</time>
      </trkpt>
      <trkpt lat="42.0832280" lon="-8.6390360">
        <ele>36.0</ele>
        <time>2022-06-18T07:21:13Z</time>
      </trkpt>
      <trkpt lat="42.0832500" lon="-8.6389980">
        <ele>36.0</ele>
        <time>2022-06-18T07:21:14Z</time>
      </trkpt>
      <trkpt lat="42.0832710" lon="-8.6389580">
        <ele>35.2</ele>
        <time>2022-06-18T07:21:15Z</time>
      </trkpt>
      <trkpt lat="42.0832980" lon="-8.6389150">
        <ele>34.6</ele>
        <time>2022-06-18T07:21:16Z</time>
      </trkpt>
      <trkpt lat="42.0833310" lon="-8.6388730">
        <ele>34.6</ele>
        <time>2022-06-18T07:21:17Z</time>
      </trkpt>
      <trkpt lat="42.0833700" lon="-8.6388310">
        <ele>34.6</ele>
        <time>2022-06-18T07:21:18Z</time>
      </trkpt>
      <trkpt lat="42.0834030" lon="-8.6387950">
        <ele>33.6</ele>
        <time>2022-06-18T07:21:19Z</time>
      </trkpt>
      <trkpt lat="42.0834380" lon="-8.6387600">
        <ele>32.8</ele>
        <time>2022-06-18T07:21:20Z</time>
      </trkpt>
      <trkpt lat="42.0834800" lon="-8.6387250">
        <ele>32.8</ele>
        <time>2022-06-18T07:21:21Z</time>
      </trkpt>
      <trkpt lat="42.0835310" lon="-8.6386860">
        <ele>32.8</ele>
        <time>2022-06-18T07:21:22Z</time>
      </trkpt>
      <trkpt lat="42.0835830" lon="-8.6386510">
        <ele>31.8</ele>
        <time>2022-06-18T07:21:23Z</time>
      </trkpt>
      <trkpt lat="42.0836310" lon="-8.6386160">
        <ele>30.4</ele>
        <time>2022-06-18T07:21:24Z</time>
      </trkpt>
      <trkpt lat="42.0836780" lon="-8.6385850">
        <ele>30.4</ele>
        <time>2022-06-18T07:21:25Z</time>
      </trkpt>
      <trkpt lat="42.0837230" lon="-8.6385560">
        <ele>30.4</ele>
        <time>2022-06-18T07:21:26Z</time>
      </trkpt>
      <trkpt lat="42.0837630" lon="-8.6385250">
        <ele>30.4</ele>
        <time>2022-06-18T07:21:27Z</time>
      </trkpt>
      <trkpt lat="42.0838030" lon="-8.6384910">
        <ele>30.4</ele>
        <time>2022-06-18T07:21:28Z</time>
      </trkpt>
      <trkpt lat="42.0838430" lon="-8.6384680">
        <ele>30.4</ele>
        <time>2022-06-18T07:21:29Z</time>
      </trkpt>
      <trkpt lat="42.0838810" lon="-8.6384330">
        <ele>30.4</ele>
        <time>2022-06-18T07:21:30Z</time>
      </trkpt>
      <trkpt lat="42.0839300" lon="-8.6383960">
        <ele>29.4</ele>
        <time>2022-06-18T07:21:31Z</time>
      </trkpt>
      <trkpt lat="42.0839800" lon="-8.6383600">
        <ele>29.0</ele>
        <time>2022-06-18T07:21:32Z</time>
      </trkpt>
      <trkpt lat="42.0840300" lon="-8.6383360">
        <ele>29.0</ele>
        <time>2022-06-18T07:21:33Z</time>
      </trkpt>
      <trkpt lat="42.0840900" lon="-8.6383080">
        <ele>29.0</ele>
        <time>2022-06-18T07:21:34Z</time>
      </trkpt>
      <trkpt lat="42.0841610" lon="-8.6382730">
        <ele>28.0</ele>
        <time>2022-06-18T07:21:35Z</time>
      </trkpt>
      <trkpt lat="42.0842300" lon="-8.6382380">
        <ele>25.4</ele>
        <time>2022-06-18T07:21:36Z</time>
      </trkpt>
      <trkpt lat="42.0843050" lon="-8.6381960">
        <ele>25.4</ele>
        <time>2022-06-18T07:21:37Z</time>
      </trkpt>
      <trkpt lat="42.0843780" lon="-8.6381510">
        <ele>25.4</ele>
        <time>2022-06-18T07:21:38Z</time>
      </trkpt>
      <trkpt lat="42.0844500" lon="-8.6381060">
        <ele>24.4</ele>
        <time>2022-06-18T07:21:39Z</time>
      </trkpt>
      <trkpt lat="42.0845300" lon="-8.6380550">
        <ele>21.2</ele>
        <time>2022-06-18T07:21:40Z</time>
      </trkpt>
      <trkpt lat="42.0846010" lon="-8.6379880">
        <ele>21.2</ele>
        <time>2022-06-18T07:21:41Z</time>
      </trkpt>
      <trkpt lat="42.0846800" lon="-8.6379300">
        <ele>21.2</ele>
        <time>2022-06-18T07:21:42Z</time>
      </trkpt>
      <trkpt lat="42.0847550" lon="-8.6378810">
        <ele>21.2</ele>
        <time>2022-06-18T07:21:43Z</time>
      </trkpt>
      <trkpt lat="42.0848230" lon="-8.6378210">
        <ele>20.6</ele>
        <time>2022-06-18T07:21:44Z</time>
      </trkpt>
      <trkpt lat="42.0848830" lon="-8.6377550">
        <ele>20.6</ele>
        <time>2022-06-18T07:21:45Z</time>
      </trkpt>
      <trkpt lat="42.0849350" lon="-8.6376800">
        <ele>20.6</ele>
        <time>2022-06-18T07:21:46Z</time>
      </trkpt>
      <trkpt lat="42.0849760" lon="-8.6375980">
        <ele>20.6</ele>
        <time>2022-06-18T07:21:47Z</time>
      </trkpt>
      <trkpt lat="42.0850250" lon="-8.6375200">
        <ele>19.0</ele>
        <time>2022-06-18T07:21:48Z</time>
      </trkpt>
      <trkpt lat="42.0850750" lon="-8.6374460">
        <ele>19.0</ele>
        <time>2022-06-18T07:21:49Z</time>
      </trkpt>
      <trkpt lat="42.0851350" lon="-8.6373850">
        <ele>19.0</ele>
        <time>2022-06-18T07:21:50Z</time>
      </trkpt>
      <trkpt lat="42.0852000" lon="-8.6373300">
        <ele>18.0</ele>
        <time>2022-06-18T07:21:51Z</time>
      </trkpt>
      <trkpt lat="42.0852600" lon="-8.6372860">
        <ele>17.2</ele>
        <time>2022-06-18T07:21:52Z</time>
      </trkpt>
      <trkpt lat="42.0853280" lon="-8.6372580">
        <ele>17.2</ele>
        <time>2022-06-18T07:21:53Z</time>
      </trkpt>
      <trkpt lat="42.0854010" lon="-8.6372400">
        <ele>17.2</ele>
        <time>2022-06-18T07:21:54Z</time>
      </trkpt>
      <trkpt lat="42.0854730" lon="-8.6372250">
        <ele>16.2</ele>
        <time>2022-06-18T07:21:55Z</time>
      </trkpt>
      <trkpt lat="42.0855500" lon="-8.6372280">
        <ele>14.8</ele>
        <time>2022-06-18T07:21:56Z</time>
      </trkpt>
      <trkpt lat="42.0856310" lon="-8.6372530">
        <ele>14.8</ele>
        <time>2022-06-18T07:21:57Z</time>
      </trkpt>
      <trkpt lat="42.0857030" lon="-8.6372930">
        <ele>14.8</ele>
        <time>2022-06-18T07:21:58Z</time>
      </trkpt>
      <trkpt lat="42.0857750" lon="-8.6373480">
        <ele>13.8</ele>
        <time>2022-06-18T07:21:59Z</time>
      </trkpt>
      <trkpt lat="42.0858310" lon="-8.6374050">
        <ele>13.8</ele>
        <time>2022-06-18T07:22:00Z</time>
      </trkpt>
      <trkpt lat="42.0858730" lon="-8.6374480">
        <ele>13.8</ele>
        <time>2022-06-18T07:22:01Z</time>
      </trkpt>
      <trkpt lat="42.0859030" lon="-8.6374800">
        <ele>13.8</ele>
        <time>2022-06-18T07:22:02Z</time>
      </trkpt>
      <trkpt lat="42.0859280" lon="-8.6374980">
        <ele>14.8</ele>
        <time>2022-06-18T07:22:03Z</time>
      </trkpt>
      <trkpt lat="42.0859500" lon="-8.6375060">
        <ele>15.4</ele>
        <time>2022-06-18T07:22:04Z</time>
      </trkpt>
      <trkpt lat="42.0859680" lon="-8.6375130">
        <ele>15.4</ele>
        <time>2022-06-18T07:22:05Z</time>
      </trkpt>
      <trkpt lat="42.0859880" lon="-8.6375210">
        <ele>15.4</ele>
        <time>2022-06-18T07:22:06Z</time>
      </trkpt>
      <trkpt lat="42.0860080" lon="-8.6375210">
        <ele>14.8</ele>
        <time>2022-06-18T07:22:07Z</time>
      </trkpt>
      <trkpt lat="42.0860250" lon="-8.6375230">
        <ele>15.0</ele>
        <time>2022-06-18T07:22:08Z</time>
      </trkpt>
      <trkpt lat="42.0860450" lon="-8.6375250">
        <ele>15.0</ele>
        <time>2022-06-18T07:22:09Z</time>
      </trkpt>
      <trkpt lat="42.0860680" lon="-8.6375210">
        <ele>15.0</ele>
        <time>2022-06-18T07:22:10Z</time>
      </trkpt>
      <trkpt lat="42.0860950" lon="-8.6375130">
        <ele>15.0</ele>
        <time>2022-06-18T07:22:11Z</time>
      </trkpt>
      <trkpt lat="42.0861250" lon="-8.6375050">
        <ele>15.2</ele>
        <time>2022-06-18T07:22:12Z</time>
      </trkpt>
      <trkpt lat="42.0861450" lon="-8.6374980">
        <ele>15.2</ele>
        <time>2022-06-18T07:22:13Z</time>
      </trkpt>
      <trkpt lat="42.0861600" lon="-8.6374930">
        <ele>15.2</ele>
        <time>2022-06-18T07:22:14Z</time>
      </trkpt>
      <trkpt lat="42.0861780" lon="-8.6374950">
        <ele>14.8</ele>
        <time>2022-06-18T07:22:15Z</time>
      </trkpt>
      <trkpt lat="42.0861960" lon="-8.6375010">
        <ele>14.2</ele>
        <time>2022-06-18T07:22:16Z</time>
      </trkpt>
      <trkpt lat="42.0862130" lon="-8.6375130">
        <ele>14.2</ele>
        <time>2022-06-18T07:22:17Z</time>
      </trkpt>
      <trkpt lat="42.0862280" lon="-8.6375300">
        <ele>14.2</ele>
        <time>2022-06-18T07:22:18Z</time>
      </trkpt>
      <trkpt lat="42.0862450" lon="-8.6375530">
        <ele>14.2</ele>
        <time>2022-06-18T07:22:19Z</time>
      </trkpt>
      <trkpt lat="42.0862550" lon="-8.6375730">
        <ele>14.8</ele>
        <time>2022-06-18T07:22:20Z</time>
      </trkpt>
      <trkpt lat="42.0862710" lon="-8.6375980">
        <ele>14.8</ele>
        <time>2022-06-18T07:22:21Z</time>
      </trkpt>
      <trkpt lat="42.0862860" lon="-8.6376250">
        <ele>14.8</ele>
        <time>2022-06-18T07:22:22Z</time>
      </trkpt>
      <trkpt lat="42.0863010" lon="-8.6376530">
        <ele>15.0</ele>
        <time>2022-06-18T07:22:23Z</time>
      </trkpt>
      <trkpt lat="42.0863150" lon="-8.6376800">
        <ele>15.2</ele>
        <time>2022-06-18T07:22:24Z</time>
      </trkpt>
      <trkpt lat="42.0863280" lon="-8.6377000">
        <ele>15.2</ele>
        <time>2022-06-18T07:22:25Z</time>
      </trkpt>
      <trkpt lat="42.0863450" lon="-8.6377260">
        <ele>15.2</ele>
        <time>2022-06-18T07:22:26Z</time>
      </trkpt>
      <trkpt lat="42.0863580" lon="-8.6377560">
        <ele>15.2</ele>
        <time>2022-06-18T07:22:27Z</time>
      </trkpt>
      <trkpt lat="42.0863800" lon="-8.6377810">
        <ele>14.8</ele>
        <time>2022-06-18T07:22:28Z</time>
      </trkpt>
      <trkpt lat="42.0863960" lon="-8.6378030">
        <ele>14.8</ele>
        <time>2022-06-18T07:22:29Z</time>
      </trkpt>
      <trkpt lat="42.0864150" lon="-8.6378230">
        <ele>14.8</ele>
        <time>2022-06-18T07:22:30Z</time>
      </trkpt>
      <trkpt lat="42.0864310" lon="-8.6378500">
        <ele>15.2</ele>
        <time>2022-06-18T07:22:31Z</time>
      </trkpt>
      <trkpt lat="42.0864460" lon="-8.6378710">
        <ele>15.2</ele>
        <time>2022-06-18T07:22:32Z</time>
      </trkpt>
      <trkpt lat="42.0864550" lon="-8.6378960">
        <ele>15.2</ele>
        <time>2022-06-18T07:22:33Z</time>
      </trkpt>
      <trkpt lat="42.0864660" lon="-8.6379200">
        <ele>15.2</ele>
        <time>2022-06-18T07:22:34Z</time>
      </trkpt>
      <trkpt lat="42.0864780" lon="-8.6379450">
        <ele>15.2</ele>
        <time>2022-06-18T07:22:35Z</time>
      </trkpt>
      <trkpt lat="42.0864900" lon="-8.6379680">
        <ele>14.8</ele>
        <time>2022-06-18T07:22:36Z</time>
      </trkpt>
      <trkpt lat="42.0865080" lon="-8.6379960">
        <ele>14.8</ele>
        <time>2022-06-18T07:22:37Z</time>
      </trkpt>
      <trkpt lat="42.0865250" lon="-8.6380260">
        <ele>14.8</ele>
        <time>2022-06-18T07:22:38Z</time>
      </trkpt>
      <trkpt lat="42.0865430" lon="-8.6380650">
        <ele>14.8</ele>
        <time>2022-06-18T07:22:39Z</time>
      </trkpt>
      <trkpt lat="42.0865580" lon="-8.6380950">
        <ele>15.2</ele>
        <time>2022-06-18T07:22:40Z</time>
      </trkpt>
      <trkpt lat="42.0865760" lon="-8.6381250">
        <ele>15.2</ele>
        <time>2022-06-18T07:22:41Z</time>
      </trkpt>
      <trkpt lat="42.0865980" lon="-8.6381500">
        <ele>15.2</ele>
        <time>2022-06-18T07:22:42Z</time>
      </trkpt>
      <trkpt lat="42.0866180" lon="-8.6381750">
        <ele>15.2</ele>
        <time>2022-06-18T07:22:43Z</time>
      </trkpt>
      <trkpt lat="42.0866430" lon="-8.6382010">
        <ele>15.0</ele>
        <time>2022-06-18T07:22:44Z</time>
      </trkpt>
      <trkpt lat="42.0866600" lon="-8.6382230">
        <ele>15.0</ele>
        <time>2022-06-18T07:22:45Z</time>
      </trkpt>
      <trkpt lat="42.0866750" lon="-8.6382460">
        <ele>15.0</ele>
        <time>2022-06-18T07:22:46Z</time>
      </trkpt>
      <trkpt lat="42.0867010" lon="-8.6382710">
        <ele>15.0</ele>
        <time>2022-06-18T07:22:47Z</time>
      </trkpt>
      <trkpt lat="42.0867300" lon="-8.6382960">
        <ele>15.2</ele>
        <time>2022-06-18T07:22:48Z</time>
      </trkpt>
      <trkpt lat="42.0867530" lon="-8.6383260">
        <ele>15.2</ele>
        <time>2022-06-18T07:22:49Z</time>
      </trkpt>
      <trkpt lat="42.0867800" lon="-8.6383530">
        <ele>15.2</ele>
        <time>2022-06-18T07:22:50Z</time>
      </trkpt>
      <trkpt lat="42.0868010" lon="-8.6383810">
        <ele>15.2</ele>
        <time>2022-06-18T07:22:51Z</time>
      </trkpt>
      <trkpt lat="42.0868210" lon="-8.6384100">
        <ele>14.2</ele>
        <time>2022-06-18T07:22:52Z</time>
      </trkpt>
      <trkpt lat="42.0868210" lon="-8.6384100">
        <ele>14.2</ele>
        <time>2022-06-18T07:22:53Z</time>
      </trkpt>
      <trkpt lat="42.0868660" lon="-8.6384600">
        <ele>14.2</ele>
        <time>2022-06-18T07:22:54Z</time>
      </trkpt>
      <trkpt lat="42.0868880" lon="-8.6384730">
        <ele>15.2</ele>
        <time>2022-06-18T07:22:55Z</time>
      </trkpt>
      <trkpt lat="42.0869110" lon="-8.6384880">
        <ele>15.4</ele>
        <time>2022-06-18T07:22:56Z</time>
      </trkpt>
      <trkpt lat="42.0869520" lon="-8.6385190">
        <ele>15.4</ele>
        <time>2022-06-18T07:22:57Z</time>
      </trkpt>
      <trkpt lat="42.0869690" lon="-8.6385310">
        <ele>15.4</ele>
        <time>2022-06-18T07:22:58Z</time>
      </trkpt>
      <trkpt lat="42.0869860" lon="-8.6385420">
        <ele>15.0</ele>
        <time>2022-06-18T07:22:59Z</time>
      </trkpt>
      <trkpt lat="42.0870380" lon="-8.6385760">
        <ele>15.0</ele>
        <time>2022-06-18T07:23:00Z</time>
      </trkpt>
      <trkpt lat="42.0870750" lon="-8.6386010">
        <ele>15.0</ele>
        <time>2022-06-18T07:23:01Z</time>
      </trkpt>
      <trkpt lat="42.0871080" lon="-8.6386300">
        <ele>15.0</ele>
        <time>2022-06-18T07:23:02Z</time>
      </trkpt>
      <trkpt lat="42.0871460" lon="-8.6386560">
        <ele>15.0</ele>
        <time>2022-06-18T07:23:03Z</time>
      </trkpt>
      <trkpt lat="42.0871780" lon="-8.6386780">
        <ele>15.0</ele>
        <time>2022-06-18T07:23:04Z</time>
      </trkpt>
      <trkpt lat="42.0872030" lon="-8.6387030">
        <ele>15.0</ele>
        <time>2022-06-18T07:23:05Z</time>
      </trkpt>
      <trkpt lat="42.0872030" lon="-8.6387030">
        <ele>15.0</ele>
        <time>2022-06-18T07:23:06Z</time>
      </trkpt>
      <trkpt lat="42.0872510" lon="-8.6387510">
        <ele>15.0</ele>
        <time>2022-06-18T07:23:07Z</time>
      </trkpt>
      <trkpt lat="42.0872510" lon="-8.6387510">
        <ele>15.2</ele>
        <time>2022-06-18T07:23:08Z</time>
      </trkpt>
      <trkpt lat="42.0873230" lon="-8.6387930">
        <ele>15.2</ele>
        <time>2022-06-18T07:23:09Z</time>
      </trkpt>
      <trkpt lat="42.0873600" lon="-8.6388150">
        <ele>15.2</ele>
        <time>2022-06-18T07:23:10Z</time>
      </trkpt>
      <trkpt lat="42.0873950" lon="-8.6388330">
        <ele>15.2</ele>
        <time>2022-06-18T07:23:11Z</time>
      </trkpt>
      <trkpt lat="42.0874310" lon="-8.6388550">
        <ele>15.2</ele>
        <time>2022-06-18T07:23:12Z</time>
      </trkpt>
      <trkpt lat="42.0874700" lon="-8.6388760">
        <ele>15.2</ele>
        <time>2022-06-18T07:23:13Z</time>
      </trkpt>
      <trkpt lat="42.0874950" lon="-8.6388910">
        <ele>15.2</ele>
        <time>2022-06-18T07:23:14Z</time>
      </trkpt>
      <trkpt lat="42.0875280" lon="-8.6389100">
        <ele>15.2</ele>
        <time>2022-06-18T07:23:15Z</time>
      </trkpt>
      <trkpt lat="42.0875650" lon="-8.6389300">
        <ele>15.2</ele>
        <time>2022-06-18T07:23:16Z</time>
      </trkpt>
      <trkpt lat="42.0876060" lon="-8.6389460">
        <ele>15.2</ele>
        <time>2022-06-18T07:23:17Z</time>
      </trkpt>
      <trkpt lat="42.0876460" lon="-8.6389580">
        <ele>15.2</ele>
        <time>2022-06-18T07:23:18Z</time>
      </trkpt>
      <trkpt lat="42.0876830" lon="-8.6389710">
        <ele>15.0</ele>
        <time>2022-06-18T07:23:19Z</time>
      </trkpt>
      <trkpt lat="42.0877180" lon="-8.6389860">
        <ele>14.8</ele>
        <time>2022-06-18T07:23:20Z</time>
      </trkpt>
      <trkpt lat="42.0877530" lon="-8.6390000">
        <ele>14.8</ele>
        <time>2022-06-18T07:23:21Z</time>
      </trkpt>
      <trkpt lat="42.0877530" lon="-8.6390000">
        <ele>14.8</ele>
        <time>2022-06-18T07:23:22Z</time>
      </trkpt>
      <trkpt lat="42.0878260" lon="-8.6390250">
        <ele>15.4</ele>
        <time>2022-06-18T07:23:23Z</time>
      </trkpt>
      <trkpt lat="42.0878580" lon="-8.6390400">
        <ele>15.2</ele>
        <time>2022-06-18T07:23:24Z</time>
      </trkpt>
      <trkpt lat="42.0878950" lon="-8.6390560">
        <ele>15.2</ele>
        <time>2022-06-18T07:23:25Z</time>
      </trkpt>
      <trkpt lat="42.0879300" lon="-8.6390760">
        <ele>15.2</ele>
        <time>2022-06-18T07:23:26Z</time>
      </trkpt>
      <trkpt lat="42.0879300" lon="-8.6390760">
        <ele>15.2</ele>
        <time>2022-06-18T07:23:27Z</time>
      </trkpt>
      <trkpt lat="42.0880000" lon="-8.6391130">
        <ele>15.2</ele>
        <time>2022-06-18T07:23:28Z</time>
      </trkpt>
      <trkpt lat="42.0880350" lon="-8.6391250">
        <ele>15.2</ele>
        <time>2022-06-18T07:23:29Z</time>
      </trkpt>
      <trkpt lat="42.0880680" lon="-8.6391380">
        <ele>15.2</ele>
        <time>2022-06-18T07:23:30Z</time>
      </trkpt>
      <trkpt lat="42.0881100" lon="-8.6391530">
        <ele>15.2</ele>
        <time>2022-06-18T07:23:31Z</time>
      </trkpt>
      <trkpt lat="42.0881480" lon="-8.6391630">
        <ele>15.6</ele>
        <time>2022-06-18T07:23:32Z</time>
      </trkpt>
      <trkpt lat="42.0881850" lon="-8.6391750">
        <ele>15.6</ele>
        <time>2022-06-18T07:23:33Z</time>
      </trkpt>
      <trkpt lat="42.0882260" lon="-8.6391830">
        <ele>15.6</ele>
        <time>2022-06-18T07:23:34Z</time>
      </trkpt>
      <trkpt lat="42.0882700" lon="-8.6391780">
        <ele>15.6</ele>
        <time>2022-06-18T07:23:35Z</time>
      </trkpt>
      <trkpt lat="42.0882700" lon="-8.6391780">
        <ele>15.6</ele>
        <time>2022-06-18T07:23:36Z</time>
      </trkpt>
      <trkpt lat="42.0883530" lon="-8.6391730">
        <ele>15.6</ele>
        <time>2022-06-18T07:23:37Z</time>
      </trkpt>
      <trkpt lat="42.0884190" lon="-8.6391770">
        <ele>15.6</ele>
        <time>2022-06-18T07:23:38Z</time>
      </trkpt>
      <trkpt lat="42.0884390" lon="-8.6391820">
        <ele>15.6</ele>
        <time>2022-06-18T07:23:39Z</time>
      </trkpt>
      <trkpt lat="42.0884580" lon="-8.6391880">
        <ele>15.2</ele>
        <time>2022-06-18T07:23:40Z</time>
      </trkpt>
      <trkpt lat="42.0885160" lon="-8.6392050">
        <ele>15.2</ele>
        <time>2022-06-18T07:23:41Z</time>
      </trkpt>
      <trkpt lat="42.0885510" lon="-8.6392300">
        <ele>15.2</ele>
        <time>2022-06-18T07:23:42Z</time>
      </trkpt>
      <trkpt lat="42.0885830" lon="-8.6392450">
        <ele>15.2</ele>
        <time>2022-06-18T07:23:43Z</time>
      </trkpt>
      <trkpt lat="42.0886200" lon="-8.6392550">
        <ele>15.4</ele>
        <time>2022-06-18T07:23:44Z</time>
      </trkpt>
      <trkpt lat="42.0886630" lon="-8.6392760">
        <ele>15.4</ele>
        <time>2022-06-18T07:23:45Z</time>
      </trkpt>
      <trkpt lat="42.0887030" lon="-8.6392930">
        <ele>15.4</ele>
        <time>2022-06-18T07:23:46Z</time>
      </trkpt>
      <trkpt lat="42.0887310" lon="-8.6393060">
        <ele>15.0</ele>
        <time>2022-06-18T07:23:47Z</time>
      </trkpt>
      <trkpt lat="42.0887600" lon="-8.6393110">
        <ele>15.0</ele>
        <time>2022-06-18T07:23:48Z</time>
      </trkpt>
      <trkpt lat="42.0887980" lon="-8.6393230">
        <ele>15.0</ele>
        <time>2022-06-18T07:23:49Z</time>
      </trkpt>
      <trkpt lat="42.0888310" lon="-8.6393360">
        <ele>15.0</ele>
        <time>2022-06-18T07:23:50Z</time>
      </trkpt>
      <trkpt lat="42.0888630" lon="-8.6393410">
        <ele>15.0</ele>
        <time>2022-06-18T07:23:51Z</time>
      </trkpt>
      <trkpt lat="42.0888960" lon="-8.6393480">
        <ele>15.4</ele>
        <time>2022-06-18T07:23:52Z</time>
      </trkpt>
      <trkpt lat="42.0889310" lon="-8.6393500">
        <ele>15.4</ele>
        <time>2022-06-18T07:23:53Z</time>
      </trkpt>
      <trkpt lat="42.0889800" lon="-8.6393500">
        <ele>15.4</ele>
        <time>2022-06-18T07:23:54Z</time>
      </trkpt>
      <trkpt lat="42.0890160" lon="-8.6393450">
        <ele>15.2</ele>
        <time>2022-06-18T07:23:55Z</time>
      </trkpt>
      <trkpt lat="42.0890550" lon="-8.6393380">
        <ele>15.0</ele>
        <time>2022-06-18T07:23:56Z</time>
      </trkpt>
      <trkpt lat="42.0890900" lon="-8.6393300">
        <ele>15.0</ele>
        <time>2022-06-18T07:23:57Z</time>
      </trkpt>
      <trkpt lat="42.0891250" lon="-8.6393280">
        <ele>15.0</ele>
        <time>2022-06-18T07:23:58Z</time>
      </trkpt>
      <trkpt lat="42.0891600" lon="-8.6393230">
        <ele>15.0</ele>
        <time>2022-06-18T07:23:59Z</time>
      </trkpt>
      <trkpt lat="42.0891980" lon="-8.6393160">
        <ele>15.4</ele>
        <time>2022-06-18T07:24:00Z</time>
      </trkpt>
      <trkpt lat="42.0892350" lon="-8.6393050">
        <ele>15.4</ele>
        <time>2022-06-18T07:24:01Z</time>
      </trkpt>
      <trkpt lat="42.0892730" lon="-8.6392880">
        <ele>15.4</ele>
        <time>2022-06-18T07:24:02Z</time>
      </trkpt>
      <trkpt lat="42.0893160" lon="-8.6392650">
        <ele>15.4</ele>
        <time>2022-06-18T07:24:03Z</time>
      </trkpt>
      <trkpt lat="42.0893460" lon="-8.6392500">
        <ele>15.2</ele>
        <time>2022-06-18T07:24:04Z</time>
      </trkpt>
      <trkpt lat="42.0893830" lon="-8.6392280">
        <ele>15.2</ele>
        <time>2022-06-18T07:24:05Z</time>
      </trkpt>
      <trkpt lat="42.0894200" lon="-8.6392060">
        <ele>15.2</ele>
        <time>2022-06-18T07:24:06Z</time>
      </trkpt>
      <trkpt lat="42.0894610" lon="-8.6391900">
        <ele>15.2</ele>
        <time>2022-06-18T07:24:07Z</time>
      </trkpt>
      <trkpt lat="42.0895050" lon="-8.6391700">
        <ele>15.0</ele>
        <time>2022-06-18T07:24:08Z</time>
      </trkpt>
      <trkpt lat="42.0895510" lon="-8.6391460">
        <ele>15.0</ele>
        <time>2022-06-18T07:24:09Z</time>
      </trkpt>
      <trkpt lat="42.0895930" lon="-8.6391360">
        <ele>15.0</ele>
        <time>2022-06-18T07:24:10Z</time>
      </trkpt>
      <trkpt lat="42.0896410" lon="-8.6391280">
        <ele>15.0</ele>
        <time>2022-06-18T07:24:11Z</time>
      </trkpt>
      <trkpt lat="42.0897110" lon="-8.6391330">
        <ele>14.4</ele>
        <time>2022-06-18T07:24:12Z</time>
      </trkpt>
      <trkpt lat="42.0897360" lon="-8.6391390">
        <ele>14.4</ele>
        <time>2022-06-18T07:24:13Z</time>
      </trkpt>
      <trkpt lat="42.0897610" lon="-8.6391440">
        <ele>14.4</ele>
        <time>2022-06-18T07:24:14Z</time>
      </trkpt>
      <trkpt lat="42.0898360" lon="-8.6391600">
        <ele>15.2</ele>
        <time>2022-06-18T07:24:15Z</time>
      </trkpt>
      <trkpt lat="42.0898760" lon="-8.6391660">
        <ele>15.4</ele>
        <time>2022-06-18T07:24:16Z</time>
      </trkpt>
      <trkpt lat="42.0899130" lon="-8.6391700">
        <ele>15.4</ele>
        <time>2022-06-18T07:24:17Z</time>
      </trkpt>
      <trkpt lat="42.0899480" lon="-8.6391750">
        <ele>15.4</ele>
        <time>2022-06-18T07:24:18Z</time>
      </trkpt>
      <trkpt lat="42.0899830" lon="-8.6391760">
        <ele>15.8</ele>
        <time>2022-06-18T07:24:19Z</time>
      </trkpt>
      <trkpt lat="42.0900160" lon="-8.6391750">
        <ele>15.8</ele>
        <time>2022-06-18T07:24:20Z</time>
      </trkpt>
      <trkpt lat="42.0900400" lon="-8.6391810">
        <ele>15.8</ele>
        <time>2022-06-18T07:24:21Z</time>
      </trkpt>
      <trkpt lat="42.0900400" lon="-8.6391810">
        <ele>15.8</ele>
        <time>2022-06-18T07:24:22Z</time>
      </trkpt>
      <trkpt lat="42.0901100" lon="-8.6392130">
        <ele>15.8</ele>
        <time>2022-06-18T07:24:23Z</time>
      </trkpt>
      <trkpt lat="42.0901460" lon="-8.6392200">
        <ele>16.2</ele>
        <time>2022-06-18T07:24:24Z</time>
      </trkpt>
      <trkpt lat="42.0901800" lon="-8.6392350">
        <ele>16.2</ele>
        <time>2022-06-18T07:24:25Z</time>
      </trkpt>
      <trkpt lat="42.0902260" lon="-8.6392380">
        <ele>16.2</ele>
        <time>2022-06-18T07:24:26Z</time>
      </trkpt>
      <trkpt lat="42.0902680" lon="-8.6392380">
        <ele>17.2</ele>
        <time>2022-06-18T07:24:27Z</time>
      </trkpt>
      <trkpt lat="42.0903050" lon="-8.6392450">
        <ele>17.4</ele>
        <time>2022-06-18T07:24:28Z</time>
      </trkpt>
      <trkpt lat="42.0903350" lon="-8.6392510">
        <ele>17.4</ele>
        <time>2022-06-18T07:24:29Z</time>
      </trkpt>
      <trkpt lat="42.0903560" lon="-8.6392610">
        <ele>17.4</ele>
        <time>2022-06-18T07:24:30Z</time>
      </trkpt>
      <trkpt lat="42.0903560" lon="-8.6392610">
        <ele>18.4</ele>
        <time>2022-06-18T07:24:31Z</time>
      </trkpt>
      <trkpt lat="42.0904050" lon="-8.6392760">
        <ele>18.8</ele>
        <time>2022-06-18T07:24:32Z</time>
      </trkpt>
      <trkpt lat="42.0904050" lon="-8.6392760">
        <ele>18.8</ele>
        <time>2022-06-18T07:24:33Z</time>
      </trkpt>
      <trkpt lat="42.0904380" lon="-8.6392860">
        <ele>18.8</ele>
        <time>2022-06-18T07:24:34Z</time>
      </trkpt>
      <trkpt lat="42.0904600" lon="-8.6392910">
        <ele>18.8</ele>
        <time>2022-06-18T07:24:35Z</time>
      </trkpt>
      <trkpt lat="42.0904750" lon="-8.6392910">
        <ele>20.0</ele>
        <time>2022-06-18T07:24:36Z</time>
      </trkpt>
      <trkpt lat="42.0904950" lon="-8.6392900">
        <ele>20.0</ele>
        <time>2022-06-18T07:24:37Z</time>
      </trkpt>
      <trkpt lat="42.0905150" lon="-8.6392910">
        <ele>20.0</ele>
        <time>2022-06-18T07:24:38Z</time>
      </trkpt>
      <trkpt lat="42.0905150" lon="-8.6392910">
        <ele>20.0</ele>
        <time>2022-06-18T07:24:39Z</time>
      </trkpt>
      <trkpt lat="42.0905410" lon="-8.6392860">
        <ele>20.8</ele>
        <time>2022-06-18T07:24:40Z</time>
      </trkpt>
      <trkpt lat="42.0905610" lon="-8.6392830">
        <ele>20.8</ele>
        <time>2022-06-18T07:24:41Z</time>
      </trkpt>
      <trkpt lat="42.0905800" lon="-8.6392830">
        <ele>20.8</ele>
        <time>2022-06-18T07:24:42Z</time>
      </trkpt>
      <trkpt lat="42.0905960" lon="-8.6392830">
        <ele>21.4</ele>
        <time>2022-06-18T07:24:43Z</time>
      </trkpt>
      <trkpt lat="42.0906250" lon="-8.6392880">
        <ele>21.2</ele>
        <time>2022-06-18T07:24:44Z</time>
      </trkpt>
      <trkpt lat="42.0906550" lon="-8.6392860">
        <ele>21.2</ele>
        <time>2022-06-18T07:24:45Z</time>
      </trkpt>
      <trkpt lat="42.0906750" lon="-8.6392830">
        <ele>21.2</ele>
        <time>2022-06-18T07:24:46Z</time>
      </trkpt>
      <trkpt lat="42.0906960" lon="-8.6392800">
        <ele>22.2</ele>
        <time>2022-06-18T07:24:47Z</time>
      </trkpt>
      <trkpt lat="42.0907150" lon="-8.6392760">
        <ele>22.8</ele>
        <time>2022-06-18T07:24:48Z</time>
      </trkpt>
      <trkpt lat="42.0907330" lon="-8.6392760">
        <ele>22.8</ele>
        <time>2022-06-18T07:24:49Z</time>
      </trkpt>
      <trkpt lat="42.0907550" lon="-8.6392750">
        <ele>22.8</ele>
        <time>2022-06-18T07:24:50Z</time>
      </trkpt>
      <trkpt lat="42.0907760" lon="-8.6392710">
        <ele>22.8</ele>
        <time>2022-06-18T07:24:51Z</time>
      </trkpt>
      <trkpt lat="42.0908030" lon="-8.6392700">
        <ele>22.8</ele>
        <time>2022-06-18T07:24:52Z</time>
      </trkpt>
      <trkpt lat="42.0908250" lon="-8.6392730">
        <ele>22.8</ele>
        <time>2022-06-18T07:24:53Z</time>
      </trkpt>
      <trkpt lat="42.0908250" lon="-8.6392730">
        <ele>22.8</ele>
        <time>2022-06-18T07:24:54Z</time>
      </trkpt>
      <trkpt lat="42.0908760" lon="-8.6392780">
        <ele>23.8</ele>
        <time>2022-06-18T07:24:55Z</time>
      </trkpt>
      <trkpt lat="42.0909060" lon="-8.6392800">
        <ele>23.8</ele>
        <time>2022-06-18T07:24:56Z</time>
      </trkpt>
      <trkpt lat="42.0909360" lon="-8.6392800">
        <ele>23.8</ele>
        <time>2022-06-18T07:24:57Z</time>
      </trkpt>
      <trkpt lat="42.0909360" lon="-8.6392800">
        <ele>23.8</ele>
        <time>2022-06-18T07:24:58Z</time>
      </trkpt>
      <trkpt lat="42.0909950" lon="-8.6392700">
        <ele>24.2</ele>
        <time>2022-06-18T07:24:59Z</time>
      </trkpt>
      <trkpt lat="42.0909950" lon="-8.6392700">
        <ele>24.2</ele>
        <time>2022-06-18T07:25:00Z</time>
      </trkpt>
      <trkpt lat="42.0910530" lon="-8.6392730">
        <ele>24.2</ele>
        <time>2022-06-18T07:25:01Z</time>
      </trkpt>
      <trkpt lat="42.0910750" lon="-8.6392830">
        <ele>24.2</ele>
        <time>2022-06-18T07:25:02Z</time>
      </trkpt>
      <trkpt lat="42.0910980" lon="-8.6392900">
        <ele>24.8</ele>
        <time>2022-06-18T07:25:03Z</time>
      </trkpt>
      <trkpt lat="42.0911180" lon="-8.6392930">
        <ele>24.4</ele>
        <time>2022-06-18T07:25:04Z</time>
      </trkpt>
      <trkpt lat="42.0911450" lon="-8.6392910">
        <ele>24.4</ele>
        <time>2022-06-18T07:25:05Z</time>
      </trkpt>
      <trkpt lat="42.0911730" lon="-8.6392880">
        <ele>24.4</ele>
        <time>2022-06-18T07:25:06Z</time>
      </trkpt>
      <trkpt lat="42.0912000" lon="-8.6392910">
        <ele>25.2</ele>
        <time>2022-06-18T07:25:07Z</time>
      </trkpt>
      <trkpt lat="42.0912000" lon="-8.6392910">
        <ele>24.4</ele>
        <time>2022-06-18T07:25:08Z</time>
      </trkpt>
      <trkpt lat="42.0912510" lon="-8.6393030">
        <ele>24.4</ele>
        <time>2022-06-18T07:25:09Z</time>
      </trkpt>
      <trkpt lat="42.0912780" lon="-8.6393050">
        <ele>24.4</ele>
        <time>2022-06-18T07:25:10Z</time>
      </trkpt>
      <trkpt lat="42.0913080" lon="-8.6393050">
        <ele>25.0</ele>
        <time>2022-06-18T07:25:11Z</time>
      </trkpt>
      <trkpt lat="42.0913350" lon="-8.6393080">
        <ele>25.6</ele>
        <time>2022-06-18T07:25:12Z</time>
      </trkpt>
      <trkpt lat="42.0913600" lon="-8.6393110">
        <ele>25.6</ele>
        <time>2022-06-18T07:25:13Z</time>
      </trkpt>
      <trkpt lat="42.0913810" lon="-8.6393150">
        <ele>25.6</ele>
        <time>2022-06-18T07:25:14Z</time>
      </trkpt>
      <trkpt lat="42.0913960" lon="-8.6393150">
        <ele>26.6</ele>
        <time>2022-06-18T07:25:15Z</time>
      </trkpt>
      <trkpt lat="42.0914130" lon="-8.6393110">
        <ele>26.0</ele>
        <time>2022-06-18T07:25:16Z</time>
      </trkpt>
      <trkpt lat="42.0914350" lon="-8.6393060">
        <ele>26.0</ele>
        <time>2022-06-18T07:25:17Z</time>
      </trkpt>
      <trkpt lat="42.0914550" lon="-8.6392980">
        <ele>26.0</ele>
        <time>2022-06-18T07:25:18Z</time>
      </trkpt>
      <trkpt lat="42.0914760" lon="-8.6392950">
        <ele>26.0</ele>
        <time>2022-06-18T07:25:19Z</time>
      </trkpt>
      <trkpt lat="42.0915030" lon="-8.6392960">
        <ele>27.0</ele>
        <time>2022-06-18T07:25:20Z</time>
      </trkpt>
      <trkpt lat="42.0915350" lon="-8.6392880">
        <ele>27.0</ele>
        <time>2022-06-18T07:25:21Z</time>
      </trkpt>
      <trkpt lat="42.0915630" lon="-8.6392810">
        <ele>27.0</ele>
        <time>2022-06-18T07:25:22Z</time>
      </trkpt>
      <trkpt lat="42.0915910" lon="-8.6392760">
        <ele>27.0</ele>
        <time>2022-06-18T07:25:23Z</time>
      </trkpt>
      <trkpt lat="42.0916200" lon="-8.6392750">
        <ele>26.4</ele>
        <time>2022-06-18T07:25:24Z</time>
      </trkpt>
      <trkpt lat="42.0916480" lon="-8.6392700">
        <ele>26.4</ele>
        <time>2022-06-18T07:25:25Z</time>
      </trkpt>
      <trkpt lat="42.0916800" lon="-8.6392730">
        <ele>26.4</ele>
        <time>2022-06-18T07:25:26Z</time>
      </trkpt>
      <trkpt lat="42.0917060" lon="-8.6392750">
        <ele>27.0</ele>
        <time>2022-06-18T07:25:27Z</time>
      </trkpt>
      <trkpt lat="42.0917310" lon="-8.6392730">
        <ele>27.0</ele>
        <time>2022-06-18T07:25:28Z</time>
      </trkpt>
      <trkpt lat="42.0917660" lon="-8.6392730">
        <ele>27.0</ele>
        <time>2022-06-18T07:25:29Z</time>
      </trkpt>
      <trkpt lat="42.0917960" lon="-8.6392750">
        <ele>27.0</ele>
        <time>2022-06-18T07:25:30Z</time>
      </trkpt>
      <trkpt lat="42.0918310" lon="-8.6392710">
        <ele>27.0</ele>
        <time>2022-06-18T07:25:31Z</time>
      </trkpt>
      <trkpt lat="42.0918600" lon="-8.6392730">
        <ele>27.0</ele>
        <time>2022-06-18T07:25:32Z</time>
      </trkpt>
      <trkpt lat="42.0918880" lon="-8.6392780">
        <ele>27.0</ele>
        <time>2022-06-18T07:25:33Z</time>
      </trkpt>
      <trkpt lat="42.0919160" lon="-8.6392830">
        <ele>27.0</ele>
        <time>2022-06-18T07:25:34Z</time>
      </trkpt>
      <trkpt lat="42.0919500" lon="-8.6392760">
        <ele>27.0</ele>
        <time>2022-06-18T07:25:35Z</time>
      </trkpt>
      <trkpt lat="42.0919800" lon="-8.6392750">
        <ele>26.6</ele>
        <time>2022-06-18T07:25:36Z</time>
      </trkpt>
      <trkpt lat="42.0919800" lon="-8.6392750">
        <ele>26.6</ele>
        <time>2022-06-18T07:25:37Z</time>
      </trkpt>
      <trkpt lat="42.0920400" lon="-8.6392560">
        <ele>26.6</ele>
        <time>2022-06-18T07:25:38Z</time>
      </trkpt>
      <trkpt lat="42.0920700" lon="-8.6392480">
        <ele>26.6</ele>
        <time>2022-06-18T07:25:39Z</time>
      </trkpt>
      <trkpt lat="42.0921060" lon="-8.6392380">
        <ele>26.6</ele>
        <time>2022-06-18T07:25:40Z</time>
      </trkpt>
      <trkpt lat="42.0921380" lon="-8.6392250">
        <ele>26.6</ele>
        <time>2022-06-18T07:25:41Z</time>
      </trkpt>
      <trkpt lat="42.0921630" lon="-8.6392060">
        <ele>26.6</ele>
        <time>2022-06-18T07:25:42Z</time>
      </trkpt>
      <trkpt lat="42.0921860" lon="-8.6391860">
        <ele>26.6</ele>
        <time>2022-06-18T07:25:43Z</time>
      </trkpt>
      <trkpt lat="42.0922150" lon="-8.6391700">
        <ele>26.8</ele>
        <time>2022-06-18T07:25:44Z</time>
      </trkpt>
      <trkpt lat="42.0922450" lon="-8.6391550">
        <ele>26.8</ele>
        <time>2022-06-18T07:25:45Z</time>
      </trkpt>
      <trkpt lat="42.0922750" lon="-8.6391410">
        <ele>26.8</ele>
        <time>2022-06-18T07:25:46Z</time>
      </trkpt>
      <trkpt lat="42.0923100" lon="-8.6391300">
        <ele>26.8</ele>
        <time>2022-06-18T07:25:47Z</time>
      </trkpt>
      <trkpt lat="42.0923430" lon="-8.6391210">
        <ele>26.8</ele>
        <time>2022-06-18T07:25:48Z</time>
      </trkpt>
      <trkpt lat="42.0923730" lon="-8.6391160">
        <ele>26.8</ele>
        <time>2022-06-18T07:25:49Z</time>
      </trkpt>
      <trkpt lat="42.0924050" lon="-8.6391150">
        <ele>26.8</ele>
        <time>2022-06-18T07:25:50Z</time>
      </trkpt>
      <trkpt lat="42.0924400" lon="-8.6391110">
        <ele>26.8</ele>
        <time>2022-06-18T07:25:51Z</time>
      </trkpt>
      <trkpt lat="42.0924710" lon="-8.6391060">
        <ele>26.4</ele>
        <time>2022-06-18T07:25:52Z</time>
      </trkpt>
      <trkpt lat="42.0925010" lon="-8.6391030">
        <ele>26.4</ele>
        <time>2022-06-18T07:25:53Z</time>
      </trkpt>
      <trkpt lat="42.0925350" lon="-8.6390880">
        <ele>26.4</ele>
        <time>2022-06-18T07:25:54Z</time>
      </trkpt>
      <trkpt lat="42.0925700" lon="-8.6390760">
        <ele>26.6</ele>
        <time>2022-06-18T07:25:55Z</time>
      </trkpt>
      <trkpt lat="42.0926100" lon="-8.6390610">
        <ele>26.8</ele>
        <time>2022-06-18T07:25:56Z</time>
      </trkpt>
      <trkpt lat="42.0926460" lon="-8.6390510">
        <ele>26.8</ele>
        <time>2022-06-18T07:25:57Z</time>
      </trkpt>
      <trkpt lat="42.0926760" lon="-8.6390400">
        <ele>26.8</ele>
        <time>2022-06-18T07:25:58Z</time>
      </trkpt>
      <trkpt lat="42.0927060" lon="-8.6390310">
        <ele>27.0</ele>
        <time>2022-06-18T07:25:59Z</time>
      </trkpt>
      <trkpt lat="42.0927400" lon="-8.6390250">
        <ele>26.8</ele>
        <time>2022-06-18T07:26:00Z</time>
      </trkpt>
      <trkpt lat="42.0927750" lon="-8.6390150">
        <ele>26.8</ele>
        <time>2022-06-18T07:26:01Z</time>
      </trkpt>
      <trkpt lat="42.0928110" lon="-8.6390100">
        <ele>26.8</ele>
        <time>2022-06-18T07:26:02Z</time>
      </trkpt>
      <trkpt lat="42.0928460" lon="-8.6390030">
        <ele>26.8</ele>
        <time>2022-06-18T07:26:03Z</time>
      </trkpt>
      <trkpt lat="42.0928800" lon="-8.6389980">
        <ele>27.2</ele>
        <time>2022-06-18T07:26:04Z</time>
      </trkpt>
      <trkpt lat="42.0929160" lon="-8.6389910">
        <ele>27.2</ele>
        <time>2022-06-18T07:26:05Z</time>
      </trkpt>
      <trkpt lat="42.0929510" lon="-8.6389880">
        <ele>27.2</ele>
        <time>2022-06-18T07:26:06Z</time>
      </trkpt>
      <trkpt lat="42.0929880" lon="-8.6389780">
        <ele>26.8</ele>
        <time>2022-06-18T07:26:07Z</time>
      </trkpt>
      <trkpt lat="42.0930250" lon="-8.6389710">
        <ele>27.6</ele>
        <time>2022-06-18T07:26:08Z</time>
      </trkpt>
      <trkpt lat="42.0930550" lon="-8.6389680">
        <ele>27.6</ele>
        <time>2022-06-18T07:26:09Z</time>
      </trkpt>
      <trkpt lat="42.0930810" lon="-8.6389630">
        <ele>27.6</ele>
        <time>2022-06-18T07:26:10Z</time>
      </trkpt>
      <trkpt lat="42.0931110" lon="-8.6389560">
        <ele>27.8</ele>
        <time>2022-06-18T07:26:11Z</time>
      </trkpt>
      <trkpt lat="42.0931380" lon="-8.6389460">
        <ele>27.6</ele>
        <time>2022-06-18T07:26:12Z</time>
      </trkpt>
      <trkpt lat="42.0931680" lon="-8.6389360">
        <ele>27.6</ele>
        <time>2022-06-18T07:26:13Z</time>
      </trkpt>
      <trkpt lat="42.0931930" lon="-8.6389300">
        <ele>27.6</ele>
        <time>2022-06-18T07:26:14Z</time>
      </trkpt>
      <trkpt lat="42.0932210" lon="-8.6389210">
        <ele>28.2</ele>
        <time>2022-06-18T07:26:15Z</time>
      </trkpt>
      <trkpt lat="42.0932510" lon="-8.6389180">
        <ele>28.2</ele>
        <time>2022-06-18T07:26:16Z</time>
      </trkpt>
      <trkpt lat="42.0932800" lon="-8.6389160">
        <ele>28.2</ele>
        <time>2022-06-18T07:26:17Z</time>
      </trkpt>
      <trkpt lat="42.0933100" lon="-8.6389010">
        <ele>28.2</ele>
        <time>2022-06-18T07:26:18Z</time>
      </trkpt>
      <trkpt lat="42.0933400" lon="-8.6388880">
        <ele>28.2</ele>
        <time>2022-06-18T07:26:19Z</time>
      </trkpt>
      <trkpt lat="42.0933730" lon="-8.6388680">
        <ele>28.6</ele>
        <time>2022-06-18T07:26:20Z</time>
      </trkpt>
      <trkpt lat="42.0934030" lon="-8.6388530">
        <ele>28.6</ele>
        <time>2022-06-18T07:26:21Z</time>
      </trkpt>
      <trkpt lat="42.0934360" lon="-8.6388350">
        <ele>28.6</ele>
        <time>2022-06-18T07:26:22Z</time>
      </trkpt>
      <trkpt lat="42.0934730" lon="-8.6388210">
        <ele>28.8</ele>
        <time>2022-06-18T07:26:23Z</time>
      </trkpt>
      <trkpt lat="42.0935000" lon="-8.6388150">
        <ele>28.8</ele>
        <time>2022-06-18T07:26:24Z</time>
      </trkpt>
      <trkpt lat="42.0935260" lon="-8.6388110">
        <ele>28.8</ele>
        <time>2022-06-18T07:26:25Z</time>
      </trkpt>
      <trkpt lat="42.0935550" lon="-8.6388080">
        <ele>28.8</ele>
        <time>2022-06-18T07:26:26Z</time>
      </trkpt>
      <trkpt lat="42.0935830" lon="-8.6388030">
        <ele>29.8</ele>
        <time>2022-06-18T07:26:27Z</time>
      </trkpt>
      <trkpt lat="42.0936180" lon="-8.6387910">
        <ele>29.4</ele>
        <time>2022-06-18T07:26:28Z</time>
      </trkpt>
      <trkpt lat="42.0936510" lon="-8.6387860">
        <ele>29.4</ele>
        <time>2022-06-18T07:26:29Z</time>
      </trkpt>
      <trkpt lat="42.0936860" lon="-8.6387850">
        <ele>29.4</ele>
        <time>2022-06-18T07:26:30Z</time>
      </trkpt>
      <trkpt lat="42.0937210" lon="-8.6387880">
        <ele>30.2</ele>
        <time>2022-06-18T07:26:31Z</time>
      </trkpt>
      <trkpt lat="42.0937550" lon="-8.6387880">
        <ele>29.6</ele>
        <time>2022-06-18T07:26:32Z</time>
      </trkpt>
      <trkpt lat="42.0937830" lon="-8.6387910">
        <ele>29.6</ele>
        <time>2022-06-18T07:26:33Z</time>
      </trkpt>
      <trkpt lat="42.0938150" lon="-8.6387950">
        <ele>29.6</ele>
        <time>2022-06-18T07:26:34Z</time>
      </trkpt>
      <trkpt lat="42.0938510" lon="-8.6387900">
        <ele>29.4</ele>
        <time>2022-06-18T07:26:35Z</time>
      </trkpt>
      <trkpt lat="42.0938900" lon="-8.6387730">
        <ele>29.8</ele>
        <time>2022-06-18T07:26:36Z</time>
      </trkpt>
      <trkpt lat="42.0939300" lon="-8.6387580">
        <ele>29.8</ele>
        <time>2022-06-18T07:26:37Z</time>
      </trkpt>
      <trkpt lat="42.0939700" lon="-8.6387380">
        <ele>29.8</ele>
        <time>2022-06-18T07:26:38Z</time>
      </trkpt>
      <trkpt lat="42.0940080" lon="-8.6387130">
        <ele>29.2</ele>
        <time>2022-06-18T07:26:39Z</time>
      </trkpt>
      <trkpt lat="42.0940500" lon="-8.6386950">
        <ele>29.2</ele>
        <time>2022-06-18T07:26:40Z</time>
      </trkpt>
      <trkpt lat="42.0940860" lon="-8.6386760">
        <ele>29.2</ele>
        <time>2022-06-18T07:26:41Z</time>
      </trkpt>
      <trkpt lat="42.0941260" lon="-8.6386530">
        <ele>29.2</ele>
        <time>2022-06-18T07:26:42Z</time>
      </trkpt>
      <trkpt lat="42.0941680" lon="-8.6386260">
        <ele>29.6</ele>
        <time>2022-06-18T07:26:43Z</time>
      </trkpt>
      <trkpt lat="42.0942060" lon="-8.6385980">
        <ele>28.8</ele>
        <time>2022-06-18T07:26:44Z</time>
      </trkpt>
      <trkpt lat="42.0942430" lon="-8.6385710">
        <ele>28.8</ele>
        <time>2022-06-18T07:26:45Z</time>
      </trkpt>
      <trkpt lat="42.0942800" lon="-8.6385400">
        <ele>28.8</ele>
        <time>2022-06-18T07:26:46Z</time>
      </trkpt>
      <trkpt lat="42.0943160" lon="-8.6385150">
        <ele>29.2</ele>
        <time>2022-06-18T07:26:47Z</time>
      </trkpt>
      <trkpt lat="42.0943530" lon="-8.6384960">
        <ele>29.8</ele>
        <time>2022-06-18T07:26:48Z</time>
      </trkpt>
      <trkpt lat="42.0943910" lon="-8.6384780">
        <ele>29.8</ele>
        <time>2022-06-18T07:26:49Z</time>
      </trkpt>
      <trkpt lat="42.0944300" lon="-8.6384630">
        <ele>29.8</ele>
        <time>2022-06-18T07:26:50Z</time>
      </trkpt>
      <trkpt lat="42.0944630" lon="-8.6384480">
        <ele>30.4</ele>
        <time>2022-06-18T07:26:51Z</time>
      </trkpt>
      <trkpt lat="42.0944950" lon="-8.6384380">
        <ele>31.0</ele>
        <time>2022-06-18T07:26:52Z</time>
      </trkpt>
      <trkpt lat="42.0945200" lon="-8.6384310">
        <ele>31.0</ele>
        <time>2022-06-18T07:26:53Z</time>
      </trkpt>
      <trkpt lat="42.0945430" lon="-8.6384210">
        <ele>31.0</ele>
        <time>2022-06-18T07:26:54Z</time>
      </trkpt>
      <trkpt lat="42.0945660" lon="-8.6384150">
        <ele>31.6</ele>
        <time>2022-06-18T07:26:55Z</time>
      </trkpt>
      <trkpt lat="42.0945880" lon="-8.6384050">
        <ele>31.8</ele>
        <time>2022-06-18T07:26:56Z</time>
      </trkpt>
      <trkpt lat="42.0946080" lon="-8.6383930">
        <ele>31.8</ele>
        <time>2022-06-18T07:26:57Z</time>
      </trkpt>
      <trkpt lat="42.0946300" lon="-8.6383830">
        <ele>31.8</ele>
        <time>2022-06-18T07:26:58Z</time>
      </trkpt>
      <trkpt lat="42.0946530" lon="-8.6383760">
        <ele>32.2</ele>
        <time>2022-06-18T07:26:59Z</time>
      </trkpt>
      <trkpt lat="42.0946760" lon="-8.6383700">
        <ele>31.8</ele>
        <time>2022-06-18T07:27:00Z</time>
      </trkpt>
      <trkpt lat="42.0947010" lon="-8.6383610">
        <ele>31.8</ele>
        <time>2022-06-18T07:27:01Z</time>
      </trkpt>
      <trkpt lat="42.0947250" lon="-8.6383500">
        <ele>31.8</ele>
        <time>2022-06-18T07:27:02Z</time>
      </trkpt>
      <trkpt lat="42.0947430" lon="-8.6383460">
        <ele>32.0</ele>
        <time>2022-06-18T07:27:03Z</time>
      </trkpt>
      <trkpt lat="42.0947660" lon="-8.6383400">
        <ele>32.2</ele>
        <time>2022-06-18T07:27:04Z</time>
      </trkpt>
      <trkpt lat="42.0947900" lon="-8.6383330">
        <ele>32.2</ele>
        <time>2022-06-18T07:27:05Z</time>
      </trkpt>
      <trkpt lat="42.0948150" lon="-8.6383310">
        <ele>32.2</ele>
        <time>2022-06-18T07:27:06Z</time>
      </trkpt>
      <trkpt lat="42.0948400" lon="-8.6383330">
        <ele>32.8</ele>
        <time>2022-06-18T07:27:07Z</time>
      </trkpt>
      <trkpt lat="42.0948600" lon="-8.6383400">
        <ele>33.0</ele>
        <time>2022-06-18T07:27:08Z</time>
      </trkpt>
      <trkpt lat="42.0948810" lon="-8.6383480">
        <ele>33.0</ele>
        <time>2022-06-18T07:27:09Z</time>
      </trkpt>
      <trkpt lat="42.0949030" lon="-8.6383610">
        <ele>33.0</ele>
        <time>2022-06-18T07:27:10Z</time>
      </trkpt>
      <trkpt lat="42.0949230" lon="-8.6383760">
        <ele>33.0</ele>
        <time>2022-06-18T07:27:11Z</time>
      </trkpt>
      <trkpt lat="42.0949380" lon="-8.6383900">
        <ele>33.0</ele>
        <time>2022-06-18T07:27:12Z</time>
      </trkpt>
      <trkpt lat="42.0949550" lon="-8.6384000">
        <ele>33.0</ele>
        <time>2022-06-18T07:27:13Z</time>
      </trkpt>
      <trkpt lat="42.0949760" lon="-8.6384100">
        <ele>33.0</ele>
        <time>2022-06-18T07:27:14Z</time>
      </trkpt>
      <trkpt lat="42.0950010" lon="-8.6384150">
        <ele>33.6</ele>
        <time>2022-06-18T07:27:15Z</time>
      </trkpt>
      <trkpt lat="42.0950260" lon="-8.6384200">
        <ele>34.2</ele>
        <time>2022-06-18T07:27:16Z</time>
      </trkpt>
      <trkpt lat="42.0950510" lon="-8.6384180">
        <ele>34.2</ele>
        <time>2022-06-18T07:27:17Z</time>
      </trkpt>
      <trkpt lat="42.0950760" lon="-8.6384160">
        <ele>34.2</ele>
        <time>2022-06-18T07:27:18Z</time>
      </trkpt>
      <trkpt lat="42.0951000" lon="-8.6384150">
        <ele>34.2</ele>
        <time>2022-06-18T07:27:19Z</time>
      </trkpt>
      <trkpt lat="42.0951260" lon="-8.6384060">
        <ele>34.2</ele>
        <time>2022-06-18T07:27:20Z</time>
      </trkpt>
      <trkpt lat="42.0951500" lon="-8.6384010">
        <ele>34.2</ele>
        <time>2022-06-18T07:27:21Z</time>
      </trkpt>
      <trkpt lat="42.0951710" lon="-8.6383960">
        <ele>34.2</ele>
        <time>2022-06-18T07:27:22Z</time>
      </trkpt>
      <trkpt lat="42.0951980" lon="-8.6383950">
        <ele>34.2</ele>
        <time>2022-06-18T07:27:23Z</time>
      </trkpt>
      <trkpt lat="42.0952180" lon="-8.6384010">
        <ele>34.6</ele>
        <time>2022-06-18T07:27:24Z</time>
      </trkpt>
      <trkpt lat="42.0952450" lon="-8.6384000">
        <ele>34.6</ele>
        <time>2022-06-18T07:27:25Z</time>
      </trkpt>
      <trkpt lat="42.0952710" lon="-8.6384000">
        <ele>34.6</ele>
        <time>2022-06-18T07:27:26Z</time>
      </trkpt>
      <trkpt lat="42.0952950" lon="-8.6384030">
        <ele>34.6</ele>
        <time>2022-06-18T07:27:27Z</time>
      </trkpt>
      <trkpt lat="42.0953130" lon="-8.6384110">
        <ele>35.0</ele>
        <time>2022-06-18T07:27:28Z</time>
      </trkpt>
      <trkpt lat="42.0953360" lon="-8.6384250">
        <ele>35.0</ele>
        <time>2022-06-18T07:27:29Z</time>
      </trkpt>
      <trkpt lat="42.0953550" lon="-8.6384410">
        <ele>35.0</ele>
        <time>2022-06-18T07:27:30Z</time>
      </trkpt>
      <trkpt lat="42.0953700" lon="-8.6384530">
        <ele>35.6</ele>
        <time>2022-06-18T07:27:31Z</time>
      </trkpt>
      <trkpt lat="42.0953930" lon="-8.6384600">
        <ele>35.8</ele>
        <time>2022-06-18T07:27:32Z</time>
      </trkpt>
      <trkpt lat="42.0954160" lon="-8.6384700">
        <ele>35.8</ele>
        <time>2022-06-18T07:27:33Z</time>
      </trkpt>
      <trkpt lat="42.0954350" lon="-8.6384880">
        <ele>35.8</ele>
        <time>2022-06-18T07:27:34Z</time>
      </trkpt>
      <trkpt lat="42.0954560" lon="-8.6385130">
        <ele>35.8</ele>
        <time>2022-06-18T07:27:35Z</time>
      </trkpt>
      <trkpt lat="42.0954700" lon="-8.6385450">
        <ele>36.2</ele>
        <time>2022-06-18T07:27:36Z</time>
      </trkpt>
      <trkpt lat="42.0954800" lon="-8.6385760">
        <ele>36.2</ele>
        <time>2022-06-18T07:27:37Z</time>
      </trkpt>
      <trkpt lat="42.0954880" lon="-8.6386030">
        <ele>36.2</ele>
        <time>2022-06-18T07:27:38Z</time>
      </trkpt>
      <trkpt lat="42.0954880" lon="-8.6386360">
        <ele>36.2</ele>
        <time>2022-06-18T07:27:39Z</time>
      </trkpt>
      <trkpt lat="42.0954900" lon="-8.6386700">
        <ele>36.0</ele>
        <time>2022-06-18T07:27:40Z</time>
      </trkpt>
      <trkpt lat="42.0954900" lon="-8.6387030">
        <ele>36.0</ele>
        <time>2022-06-18T07:27:41Z</time>
      </trkpt>
      <trkpt lat="42.0954900" lon="-8.6387380">
        <ele>36.0</ele>
        <time>2022-06-18T07:27:42Z</time>
      </trkpt>
      <trkpt lat="42.0954900" lon="-8.6387750">
        <ele>36.8</ele>
        <time>2022-06-18T07:27:43Z</time>
      </trkpt>
      <trkpt lat="42.0954860" lon="-8.6388080">
        <ele>36.6</ele>
        <time>2022-06-18T07:27:44Z</time>
      </trkpt>
      <trkpt lat="42.0954860" lon="-8.6388450">
        <ele>36.6</ele>
        <time>2022-06-18T07:27:45Z</time>
      </trkpt>
      <trkpt lat="42.0954810" lon="-8.6388800">
        <ele>36.6</ele>
        <time>2022-06-18T07:27:46Z</time>
      </trkpt>
      <trkpt lat="42.0954710" lon="-8.6389180">
        <ele>35.8</ele>
        <time>2022-06-18T07:27:47Z</time>
      </trkpt>
      <trkpt lat="42.0954580" lon="-8.6389560">
        <ele>35.6</ele>
        <time>2022-06-18T07:27:48Z</time>
      </trkpt>
      <trkpt lat="42.0954450" lon="-8.6389960">
        <ele>35.6</ele>
        <time>2022-06-18T07:27:49Z</time>
      </trkpt>
      <trkpt lat="42.0954300" lon="-8.6390360">
        <ele>35.6</ele>
        <time>2022-06-18T07:27:50Z</time>
      </trkpt>
      <trkpt lat="42.0954150" lon="-8.6390750">
        <ele>36.0</ele>
        <time>2022-06-18T07:27:51Z</time>
      </trkpt>
      <trkpt lat="42.0954030" lon="-8.6391150">
        <ele>36.2</ele>
        <time>2022-06-18T07:27:52Z</time>
      </trkpt>
      <trkpt lat="42.0953950" lon="-8.6391550">
        <ele>36.2</ele>
        <time>2022-06-18T07:27:53Z</time>
      </trkpt>
      <trkpt lat="42.0953930" lon="-8.6391930">
        <ele>36.2</ele>
        <time>2022-06-18T07:27:54Z</time>
      </trkpt>
      <trkpt lat="42.0953930" lon="-8.6392330">
        <ele>36.2</ele>
        <time>2022-06-18T07:27:55Z</time>
      </trkpt>
      <trkpt lat="42.0953910" lon="-8.6392730">
        <ele>35.8</ele>
        <time>2022-06-18T07:27:56Z</time>
      </trkpt>
      <trkpt lat="42.0953930" lon="-8.6393130">
        <ele>35.8</ele>
        <time>2022-06-18T07:27:57Z</time>
      </trkpt>
      <trkpt lat="42.0953950" lon="-8.6393550">
        <ele>35.8</ele>
        <time>2022-06-18T07:27:58Z</time>
      </trkpt>
      <trkpt lat="42.0953980" lon="-8.6393950">
        <ele>35.8</ele>
        <time>2022-06-18T07:27:59Z</time>
      </trkpt>
      <trkpt lat="42.0954010" lon="-8.6394360">
        <ele>36.2</ele>
        <time>2022-06-18T07:28:00Z</time>
      </trkpt>
      <trkpt lat="42.0954060" lon="-8.6394780">
        <ele>36.2</ele>
        <time>2022-06-18T07:28:01Z</time>
      </trkpt>
      <trkpt lat="42.0954100" lon="-8.6395210">
        <ele>36.2</ele>
        <time>2022-06-18T07:28:02Z</time>
      </trkpt>
      <trkpt lat="42.0954100" lon="-8.6395660">
        <ele>35.6</ele>
        <time>2022-06-18T07:28:03Z</time>
      </trkpt>
      <trkpt lat="42.0954100" lon="-8.6396130">
        <ele>35.4</ele>
        <time>2022-06-18T07:28:04Z</time>
      </trkpt>
      <trkpt lat="42.0954050" lon="-8.6396660">
        <ele>35.4</ele>
        <time>2022-06-18T07:28:05Z</time>
      </trkpt>
      <trkpt lat="42.0954060" lon="-8.6397280">
        <ele>35.4</ele>
        <time>2022-06-18T07:28:06Z</time>
      </trkpt>
      <trkpt lat="42.0954110" lon="-8.6397910">
        <ele>34.8</ele>
        <time>2022-06-18T07:28:07Z</time>
      </trkpt>
      <trkpt lat="42.0954180" lon="-8.6398550">
        <ele>34.4</ele>
        <time>2022-06-18T07:28:08Z</time>
      </trkpt>
      <trkpt lat="42.0954250" lon="-8.6399210">
        <ele>34.4</ele>
        <time>2022-06-18T07:28:09Z</time>
      </trkpt>
      <trkpt lat="42.0954310" lon="-8.6399910">
        <ele>34.4</ele>
        <time>2022-06-18T07:28:10Z</time>
      </trkpt>
      <trkpt lat="42.0954350" lon="-8.6400660">
        <ele>33.8</ele>
        <time>2022-06-18T07:28:11Z</time>
      </trkpt>
      <trkpt lat="42.0954400" lon="-8.6401400">
        <ele>33.4</ele>
        <time>2022-06-18T07:28:12Z</time>
      </trkpt>
      <trkpt lat="42.0954480" lon="-8.6402130">
        <ele>33.4</ele>
        <time>2022-06-18T07:28:13Z</time>
      </trkpt>
      <trkpt lat="42.0954600" lon="-8.6402830">
        <ele>33.4</ele>
        <time>2022-06-18T07:28:14Z</time>
      </trkpt>
      <trkpt lat="42.0954730" lon="-8.6403510">
        <ele>33.4</ele>
        <time>2022-06-18T07:28:15Z</time>
      </trkpt>
      <trkpt lat="42.0954860" lon="-8.6404160">
        <ele>34.2</ele>
        <time>2022-06-18T07:28:16Z</time>
      </trkpt>
      <trkpt lat="42.0955000" lon="-8.6404780">
        <ele>34.2</ele>
        <time>2022-06-18T07:28:17Z</time>
      </trkpt>
      <trkpt lat="42.0955110" lon="-8.6405310">
        <ele>34.2</ele>
        <time>2022-06-18T07:28:18Z</time>
      </trkpt>
      <trkpt lat="42.0955230" lon="-8.6405830">
        <ele>34.2</ele>
        <time>2022-06-18T07:28:19Z</time>
      </trkpt>
      <trkpt lat="42.0955350" lon="-8.6406310">
        <ele>34.4</ele>
        <time>2022-06-18T07:28:20Z</time>
      </trkpt>
      <trkpt lat="42.0955460" lon="-8.6406800">
        <ele>34.4</ele>
        <time>2022-06-18T07:28:21Z</time>
      </trkpt>
      <trkpt lat="42.0955580" lon="-8.6407260">
        <ele>34.4</ele>
        <time>2022-06-18T07:28:22Z</time>
      </trkpt>
      <trkpt lat="42.0955710" lon="-8.6407710">
        <ele>35.2</ele>
        <time>2022-06-18T07:28:23Z</time>
      </trkpt>
      <trkpt lat="42.0955850" lon="-8.6408160">
        <ele>34.8</ele>
        <time>2022-06-18T07:28:24Z</time>
      </trkpt>
      <trkpt lat="42.0955980" lon="-8.6408610">
        <ele>34.8</ele>
        <time>2022-06-18T07:28:25Z</time>
      </trkpt>
      <trkpt lat="42.0956130" lon="-8.6409030">
        <ele>34.8</ele>
        <time>2022-06-18T07:28:26Z</time>
      </trkpt>
      <trkpt lat="42.0956350" lon="-8.6409430">
        <ele>34.8</ele>
        <time>2022-06-18T07:28:27Z</time>
      </trkpt>
      <trkpt lat="42.0956630" lon="-8.6409610">
        <ele>35.4</ele>
        <time>2022-06-18T07:28:28Z</time>
      </trkpt>
      <trkpt lat="42.0956960" lon="-8.6409650">
        <ele>35.4</ele>
        <time>2022-06-18T07:28:29Z</time>
      </trkpt>
      <trkpt lat="42.0957310" lon="-8.6409610">
        <ele>35.4</ele>
        <time>2022-06-18T07:28:30Z</time>
      </trkpt>
      <trkpt lat="42.0957630" lon="-8.6409580">
        <ele>36.4</ele>
        <time>2022-06-18T07:28:31Z</time>
      </trkpt>
      <trkpt lat="42.0957950" lon="-8.6409580">
        <ele>36.8</ele>
        <time>2022-06-18T07:28:32Z</time>
      </trkpt>
      <trkpt lat="42.0958230" lon="-8.6409650">
        <ele>36.8</ele>
        <time>2022-06-18T07:28:33Z</time>
      </trkpt>
      <trkpt lat="42.0958510" lon="-8.6409760">
        <ele>36.8</ele>
        <time>2022-06-18T07:28:34Z</time>
      </trkpt>
      <trkpt lat="42.0958780" lon="-8.6409950">
        <ele>37.4</ele>
        <time>2022-06-18T07:28:35Z</time>
      </trkpt>
      <trkpt lat="42.0959000" lon="-8.6410250">
        <ele>37.6</ele>
        <time>2022-06-18T07:28:36Z</time>
      </trkpt>
      <trkpt lat="42.0959210" lon="-8.6410510">
        <ele>37.6</ele>
        <time>2022-06-18T07:28:37Z</time>
      </trkpt>
      <trkpt lat="42.0959430" lon="-8.6410810">
        <ele>37.6</ele>
        <time>2022-06-18T07:28:38Z</time>
      </trkpt>
      <trkpt lat="42.0959650" lon="-8.6411100">
        <ele>37.6</ele>
        <time>2022-06-18T07:28:39Z</time>
      </trkpt>
      <trkpt lat="42.0959860" lon="-8.6411360">
        <ele>37.6</ele>
        <time>2022-06-18T07:28:40Z</time>
      </trkpt>
      <trkpt lat="42.0960100" lon="-8.6411610">
        <ele>37.6</ele>
        <time>2022-06-18T07:28:41Z</time>
      </trkpt>
      <trkpt lat="42.0960380" lon="-8.6411880">
        <ele>37.6</ele>
        <time>2022-06-18T07:28:42Z</time>
      </trkpt>
      <trkpt lat="42.0960700" lon="-8.6412110">
        <ele>37.6</ele>
        <time>2022-06-18T07:28:43Z</time>
      </trkpt>
      <trkpt lat="42.0961050" lon="-8.6412350">
        <ele>36.6</ele>
        <time>2022-06-18T07:28:44Z</time>
      </trkpt>
      <trkpt lat="42.0961410" lon="-8.6412600">
        <ele>36.6</ele>
        <time>2022-06-18T07:28:45Z</time>
      </trkpt>
      <trkpt lat="42.0961760" lon="-8.6412880">
        <ele>36.6</ele>
        <time>2022-06-18T07:28:46Z</time>
      </trkpt>
      <trkpt lat="42.0962150" lon="-8.6413160">
        <ele>35.8</ele>
        <time>2022-06-18T07:28:47Z</time>
      </trkpt>
      <trkpt lat="42.0962550" lon="-8.6413500">
        <ele>35.6</ele>
        <time>2022-06-18T07:28:48Z</time>
      </trkpt>
      <trkpt lat="42.0962960" lon="-8.6413850">
        <ele>35.6</ele>
        <time>2022-06-18T07:28:49Z</time>
      </trkpt>
      <trkpt lat="42.0963400" lon="-8.6414250">
        <ele>35.6</ele>
        <time>2022-06-18T07:28:50Z</time>
      </trkpt>
      <trkpt lat="42.0963810" lon="-8.6414560">
        <ele>34.6</ele>
        <time>2022-06-18T07:28:51Z</time>
      </trkpt>
      <trkpt lat="42.0964160" lon="-8.6414750">
        <ele>34.4</ele>
        <time>2022-06-18T07:28:52Z</time>
      </trkpt>
      <trkpt lat="42.0964430" lon="-8.6414800">
        <ele>34.4</ele>
        <time>2022-06-18T07:28:53Z</time>
      </trkpt>
      <trkpt lat="42.0964630" lon="-8.6414850">
        <ele>34.4</ele>
        <time>2022-06-18T07:28:54Z</time>
      </trkpt>
      <trkpt lat="42.0964830" lon="-8.6414850">
        <ele>35.0</ele>
        <time>2022-06-18T07:28:55Z</time>
      </trkpt>
      <trkpt lat="42.0965060" lon="-8.6414860">
        <ele>35.0</ele>
        <time>2022-06-18T07:28:56Z</time>
      </trkpt>
      <trkpt lat="42.0965350" lon="-8.6414880">
        <ele>35.0</ele>
        <time>2022-06-18T07:28:57Z</time>
      </trkpt>
      <trkpt lat="42.0965630" lon="-8.6414880">
        <ele>35.0</ele>
        <time>2022-06-18T07:28:58Z</time>
      </trkpt>
      <trkpt lat="42.0965930" lon="-8.6414900">
        <ele>35.0</ele>
        <time>2022-06-18T07:28:59Z</time>
      </trkpt>
      <trkpt lat="42.0966210" lon="-8.6414900">
        <ele>34.8</ele>
        <time>2022-06-18T07:29:00Z</time>
      </trkpt>
      <trkpt lat="42.0966480" lon="-8.6414830">
        <ele>34.8</ele>
        <time>2022-06-18T07:29:01Z</time>
      </trkpt>
      <trkpt lat="42.0966700" lon="-8.6414750">
        <ele>34.8</ele>
        <time>2022-06-18T07:29:02Z</time>
      </trkpt>
      <trkpt lat="42.0966880" lon="-8.6414680">
        <ele>35.8</ele>
        <time>2022-06-18T07:29:03Z</time>
      </trkpt>
      <trkpt lat="42.0967050" lon="-8.6414630">
        <ele>36.2</ele>
        <time>2022-06-18T07:29:04Z</time>
      </trkpt>
      <trkpt lat="42.0967230" lon="-8.6414600">
        <ele>36.2</ele>
        <time>2022-06-18T07:29:05Z</time>
      </trkpt>
      <trkpt lat="42.0967400" lon="-8.6414560">
        <ele>36.2</ele>
        <time>2022-06-18T07:29:06Z</time>
      </trkpt>
      <trkpt lat="42.0967560" lon="-8.6414500">
        <ele>36.2</ele>
        <time>2022-06-18T07:29:07Z</time>
      </trkpt>
      <trkpt lat="42.0967710" lon="-8.6414430">
        <ele>37.0</ele>
        <time>2022-06-18T07:29:08Z</time>
      </trkpt>
      <trkpt lat="42.0967900" lon="-8.6414380">
        <ele>37.0</ele>
        <time>2022-06-18T07:29:09Z</time>
      </trkpt>
      <trkpt lat="42.0968080" lon="-8.6414360">
        <ele>37.0</ele>
        <time>2022-06-18T07:29:10Z</time>
      </trkpt>
      <trkpt lat="42.0968230" lon="-8.6414310">
        <ele>37.0</ele>
        <time>2022-06-18T07:29:11Z</time>
      </trkpt>
      <trkpt lat="42.0968410" lon="-8.6414280">
        <ele>37.2</ele>
        <time>2022-06-18T07:29:12Z</time>
      </trkpt>
      <trkpt lat="42.0968560" lon="-8.6414230">
        <ele>37.2</ele>
        <time>2022-06-18T07:29:13Z</time>
      </trkpt>
      <trkpt lat="42.0968760" lon="-8.6414180">
        <ele>37.2</ele>
        <time>2022-06-18T07:29:14Z</time>
      </trkpt>
      <trkpt lat="42.0968930" lon="-8.6414150">
        <ele>37.8</ele>
        <time>2022-06-18T07:29:15Z</time>
      </trkpt>
      <trkpt lat="42.0969110" lon="-8.6414110">
        <ele>38.0</ele>
        <time>2022-06-18T07:29:16Z</time>
      </trkpt>
      <trkpt lat="42.0969280" lon="-8.6414080">
        <ele>38.0</ele>
        <time>2022-06-18T07:29:17Z</time>
      </trkpt>
      <trkpt lat="42.0969480" lon="-8.6414010">
        <ele>38.0</ele>
        <time>2022-06-18T07:29:18Z</time>
      </trkpt>
      <trkpt lat="42.0969650" lon="-8.6413950">
        <ele>38.6</ele>
        <time>2022-06-18T07:29:19Z</time>
      </trkpt>
      <trkpt lat="42.0969850" lon="-8.6413910">
        <ele>38.8</ele>
        <time>2022-06-18T07:29:20Z</time>
      </trkpt>
      <trkpt lat="42.0970030" lon="-8.6413900">
        <ele>38.8</ele>
        <time>2022-06-18T07:29:21Z</time>
      </trkpt>
      <trkpt lat="42.0970210" lon="-8.6413880">
        <ele>38.8</ele>
        <time>2022-06-18T07:29:22Z</time>
      </trkpt>
      <trkpt lat="42.0970380" lon="-8.6413810">
        <ele>38.8</ele>
        <time>2022-06-18T07:29:23Z</time>
      </trkpt>
      <trkpt lat="42.0970560" lon="-8.6413800">
        <ele>39.4</ele>
        <time>2022-06-18T07:29:24Z</time>
      </trkpt>
      <trkpt lat="42.0970750" lon="-8.6413830">
        <ele>39.4</ele>
        <time>2022-06-18T07:29:25Z</time>
      </trkpt>
      <trkpt lat="42.0970930" lon="-8.6413850">
        <ele>39.4</ele>
        <time>2022-06-18T07:29:26Z</time>
      </trkpt>
      <trkpt lat="42.0971110" lon="-8.6413880">
        <ele>39.8</ele>
        <time>2022-06-18T07:29:27Z</time>
      </trkpt>
      <trkpt lat="42.0971310" lon="-8.6413900">
        <ele>40.2</ele>
        <time>2022-06-18T07:29:28Z</time>
      </trkpt>
      <trkpt lat="42.0971530" lon="-8.6413900">
        <ele>40.2</ele>
        <time>2022-06-18T07:29:29Z</time>
      </trkpt>
      <trkpt lat="42.0971730" lon="-8.6413900">
        <ele>40.2</ele>
        <time>2022-06-18T07:29:30Z</time>
      </trkpt>
      <trkpt lat="42.0971950" lon="-8.6413880">
        <ele>40.2</ele>
        <time>2022-06-18T07:29:31Z</time>
      </trkpt>
      <trkpt lat="42.0972150" lon="-8.6413880">
        <ele>40.4</ele>
        <time>2022-06-18T07:29:32Z</time>
      </trkpt>
      <trkpt lat="42.0972350" lon="-8.6413880">
        <ele>40.4</ele>
        <time>2022-06-18T07:29:33Z</time>
      </trkpt>
      <trkpt lat="42.0972560" lon="-8.6413900">
        <ele>40.4</ele>
        <time>2022-06-18T07:29:34Z</time>
      </trkpt>
      <trkpt lat="42.0972760" lon="-8.6413900">
        <ele>40.8</ele>
        <time>2022-06-18T07:29:35Z</time>
      </trkpt>
      <trkpt lat="42.0972950" lon="-8.6413880">
        <ele>40.4</ele>
        <time>2022-06-18T07:29:36Z</time>
      </trkpt>
      <trkpt lat="42.0973150" lon="-8.6413810">
        <ele>40.4</ele>
        <time>2022-06-18T07:29:37Z</time>
      </trkpt>
      <trkpt lat="42.0973360" lon="-8.6413700">
        <ele>40.4</ele>
        <time>2022-06-18T07:29:38Z</time>
      </trkpt>
      <trkpt lat="42.0973550" lon="-8.6413560">
        <ele>41.0</ele>
        <time>2022-06-18T07:29:39Z</time>
      </trkpt>
      <trkpt lat="42.0973710" lon="-8.6413410">
        <ele>41.6</ele>
        <time>2022-06-18T07:29:40Z</time>
      </trkpt>
      <trkpt lat="42.0973850" lon="-8.6413210">
        <ele>41.6</ele>
        <time>2022-06-18T07:29:41Z</time>
      </trkpt>
      <trkpt lat="42.0973950" lon="-8.6412980">
        <ele>41.6</ele>
        <time>2022-06-18T07:29:42Z</time>
      </trkpt>
      <trkpt lat="42.0974000" lon="-8.6412700">
        <ele>41.6</ele>
        <time>2022-06-18T07:29:43Z</time>
      </trkpt>
      <trkpt lat="42.0974030" lon="-8.6412410">
        <ele>41.2</ele>
        <time>2022-06-18T07:29:44Z</time>
      </trkpt>
      <trkpt lat="42.0974060" lon="-8.6412110">
        <ele>41.2</ele>
        <time>2022-06-18T07:29:45Z</time>
      </trkpt>
      <trkpt lat="42.0974100" lon="-8.6411850">
        <ele>41.2</ele>
        <time>2022-06-18T07:29:46Z</time>
      </trkpt>
      <trkpt lat="42.0974100" lon="-8.6411550">
        <ele>41.8</ele>
        <time>2022-06-18T07:29:47Z</time>
      </trkpt>
      <trkpt lat="42.0974110" lon="-8.6411250">
        <ele>42.0</ele>
        <time>2022-06-18T07:29:48Z</time>
      </trkpt>
      <trkpt lat="42.0974160" lon="-8.6410980">
        <ele>42.0</ele>
        <time>2022-06-18T07:29:49Z</time>
      </trkpt>
      <trkpt lat="42.0974180" lon="-8.6410780">
        <ele>42.0</ele>
        <time>2022-06-18T07:29:50Z</time>
      </trkpt>
      <trkpt lat="42.0974180" lon="-8.6410550">
        <ele>42.0</ele>
        <time>2022-06-18T07:29:51Z</time>
      </trkpt>
      <trkpt lat="42.0974160" lon="-8.6410260">
        <ele>42.0</ele>
        <time>2022-06-18T07:29:52Z</time>
      </trkpt>
      <trkpt lat="42.0974200" lon="-8.6410030">
        <ele>42.0</ele>
        <time>2022-06-18T07:29:53Z</time>
      </trkpt>
      <trkpt lat="42.0974210" lon="-8.6409800">
        <ele>42.0</ele>
        <time>2022-06-18T07:29:54Z</time>
      </trkpt>
      <trkpt lat="42.0974200" lon="-8.6409510">
        <ele>42.4</ele>
        <time>2022-06-18T07:29:55Z</time>
      </trkpt>
      <trkpt lat="42.0974130" lon="-8.6409250">
        <ele>42.2</ele>
        <time>2022-06-18T07:29:56Z</time>
      </trkpt>
      <trkpt lat="42.0974060" lon="-8.6409000">
        <ele>42.2</ele>
        <time>2022-06-18T07:29:57Z</time>
      </trkpt>
      <trkpt lat="42.0973960" lon="-8.6408780">
        <ele>42.2</ele>
        <time>2022-06-18T07:29:58Z</time>
      </trkpt>
      <trkpt lat="42.0973880" lon="-8.6408550">
        <ele>42.2</ele>
        <time>2022-06-18T07:29:59Z</time>
      </trkpt>
      <trkpt lat="42.0973800" lon="-8.6408330">
        <ele>42.0</ele>
        <time>2022-06-18T07:30:00Z</time>
      </trkpt>
      <trkpt lat="42.0973650" lon="-8.6408110">
        <ele>42.0</ele>
        <time>2022-06-18T07:30:01Z</time>
      </trkpt>
      <trkpt lat="42.0973500" lon="-8.6407850">
        <ele>42.0</ele>
        <time>2022-06-18T07:30:02Z</time>
      </trkpt>
      <trkpt lat="42.0973400" lon="-8.6407580">
        <ele>42.0</ele>
        <time>2022-06-18T07:30:03Z</time>
      </trkpt>
      <trkpt lat="42.0973250" lon="-8.6407310">
        <ele>42.0</ele>
        <time>2022-06-18T07:30:04Z</time>
      </trkpt>
      <trkpt lat="42.0973150" lon="-8.6407010">
        <ele>42.0</ele>
        <time>2022-06-18T07:30:05Z</time>
      </trkpt>
      <trkpt lat="42.0973080" lon="-8.6406750">
        <ele>42.0</ele>
        <time>2022-06-18T07:30:06Z</time>
      </trkpt>
      <trkpt lat="42.0973000" lon="-8.6406450">
        <ele>42.0</ele>
        <time>2022-06-18T07:30:07Z</time>
      </trkpt>
      <trkpt lat="42.0972910" lon="-8.6406130">
        <ele>41.8</ele>
        <time>2022-06-18T07:30:08Z</time>
      </trkpt>
      <trkpt lat="42.0972810" lon="-8.6405800">
        <ele>41.8</ele>
        <time>2022-06-18T07:30:09Z</time>
      </trkpt>
      <trkpt lat="42.0972700" lon="-8.6405480">
        <ele>41.8</ele>
        <time>2022-06-18T07:30:10Z</time>
      </trkpt>
      <trkpt lat="42.0972610" lon="-8.6405150">
        <ele>42.0</ele>
        <time>2022-06-18T07:30:11Z</time>
      </trkpt>
      <trkpt lat="42.0972550" lon="-8.6404800">
        <ele>42.0</ele>
        <time>2022-06-18T07:30:12Z</time>
      </trkpt>
      <trkpt lat="42.0972480" lon="-8.6404410">
        <ele>42.0</ele>
        <time>2022-06-18T07:30:13Z</time>
      </trkpt>
      <trkpt lat="42.0972400" lon="-8.6404050">
        <ele>42.0</ele>
        <time>2022-06-18T07:30:14Z</time>
      </trkpt>
      <trkpt lat="42.0972310" lon="-8.6403680">
        <ele>41.6</ele>
        <time>2022-06-18T07:30:15Z</time>
      </trkpt>
      <trkpt lat="42.0972210" lon="-8.6403330">
        <ele>41.8</ele>
        <time>2022-06-18T07:30:16Z</time>
      </trkpt>
      <trkpt lat="42.0972150" lon="-8.6402980">
        <ele>41.8</ele>
        <time>2022-06-18T07:30:17Z</time>
      </trkpt>
      <trkpt lat="42.0972080" lon="-8.6402600">
        <ele>41.8</ele>
        <time>2022-06-18T07:30:18Z</time>
      </trkpt>
      <trkpt lat="42.0972000" lon="-8.6402200">
        <ele>41.8</ele>
        <time>2022-06-18T07:30:19Z</time>
      </trkpt>
      <trkpt lat="42.0971930" lon="-8.6401780">
        <ele>41.2</ele>
        <time>2022-06-18T07:30:20Z</time>
      </trkpt>
      <trkpt lat="42.0971850" lon="-8.6401380">
        <ele>41.2</ele>
        <time>2022-06-18T07:30:21Z</time>
      </trkpt>
      <trkpt lat="42.0971780" lon="-8.6400960">
        <ele>41.2</ele>
        <time>2022-06-18T07:30:22Z</time>
      </trkpt>
      <trkpt lat="42.0971750" lon="-8.6400530">
        <ele>41.2</ele>
        <time>2022-06-18T07:30:23Z</time>
      </trkpt>
      <trkpt lat="42.0971700" lon="-8.6400100">
        <ele>41.2</ele>
        <time>2022-06-18T07:30:24Z</time>
      </trkpt>
      <trkpt lat="42.0971660" lon="-8.6399660">
        <ele>41.2</ele>
        <time>2022-06-18T07:30:25Z</time>
      </trkpt>
      <trkpt lat="42.0971650" lon="-8.6399260">
        <ele>41.2</ele>
        <time>2022-06-18T07:30:26Z</time>
      </trkpt>
      <trkpt lat="42.0971700" lon="-8.6398860">
        <ele>41.2</ele>
        <time>2022-06-18T07:30:27Z</time>
      </trkpt>
      <trkpt lat="42.0971800" lon="-8.6398480">
        <ele>41.6</ele>
        <time>2022-06-18T07:30:28Z</time>
      </trkpt>
      <trkpt lat="42.0971950" lon="-8.6398110">
        <ele>41.6</ele>
        <time>2022-06-18T07:30:29Z</time>
      </trkpt>
      <trkpt lat="42.0972110" lon="-8.6397750">
        <ele>41.6</ele>
        <time>2022-06-18T07:30:30Z</time>
      </trkpt>
      <trkpt lat="42.0972310" lon="-8.6397430">
        <ele>42.2</ele>
        <time>2022-06-18T07:30:31Z</time>
      </trkpt>
      <trkpt lat="42.0972530" lon="-8.6397130">
        <ele>42.2</ele>
        <time>2022-06-18T07:30:32Z</time>
      </trkpt>
      <trkpt lat="42.0972760" lon="-8.6396830">
        <ele>42.2</ele>
        <time>2022-06-18T07:30:33Z</time>
      </trkpt>
      <trkpt lat="42.0972980" lon="-8.6396600">
        <ele>42.2</ele>
        <time>2022-06-18T07:30:34Z</time>
      </trkpt>
      <trkpt lat="42.0973200" lon="-8.6396380">
        <ele>42.2</ele>
        <time>2022-06-18T07:30:35Z</time>
      </trkpt>
      <trkpt lat="42.0973410" lon="-8.6396160">
        <ele>42.6</ele>
        <time>2022-06-18T07:30:36Z</time>
      </trkpt>
      <trkpt lat="42.0973660" lon="-8.6395950">
        <ele>42.6</ele>
        <time>2022-06-18T07:30:37Z</time>
      </trkpt>
      <trkpt lat="42.0973950" lon="-8.6395760">
        <ele>42.6</ele>
        <time>2022-06-18T07:30:38Z</time>
      </trkpt>
      <trkpt lat="42.0974230" lon="-8.6395630">
        <ele>43.0</ele>
        <time>2022-06-18T07:30:39Z</time>
      </trkpt>
      <trkpt lat="42.0974510" lon="-8.6395510">
        <ele>43.2</ele>
        <time>2022-06-18T07:30:40Z</time>
      </trkpt>
      <trkpt lat="42.0974780" lon="-8.6395400">
        <ele>43.2</ele>
        <time>2022-06-18T07:30:41Z</time>
      </trkpt>
      <trkpt lat="42.0975050" lon="-8.6395280">
        <ele>43.2</ele>
        <time>2022-06-18T07:30:42Z</time>
      </trkpt>
      <trkpt lat="42.0975310" lon="-8.6395160">
        <ele>43.6</ele>
        <time>2022-06-18T07:30:43Z</time>
      </trkpt>
      <trkpt lat="42.0975610" lon="-8.6395030">
        <ele>43.2</ele>
        <time>2022-06-18T07:30:44Z</time>
      </trkpt>
      <trkpt lat="42.0975900" lon="-8.6394860">
        <ele>43.2</ele>
        <time>2022-06-18T07:30:45Z</time>
      </trkpt>
      <trkpt lat="42.0976130" lon="-8.6394700">
        <ele>43.2</ele>
        <time>2022-06-18T07:30:46Z</time>
      </trkpt>
      <trkpt lat="42.0976350" lon="-8.6394530">
        <ele>43.2</ele>
        <time>2022-06-18T07:30:47Z</time>
      </trkpt>
      <trkpt lat="42.0976650" lon="-8.6394410">
        <ele>42.4</ele>
        <time>2022-06-18T07:30:48Z</time>
      </trkpt>
      <trkpt lat="42.0976960" lon="-8.6394400">
        <ele>42.4</ele>
        <time>2022-06-18T07:30:49Z</time>
      </trkpt>
      <trkpt lat="42.0977300" lon="-8.6394510">
        <ele>42.4</ele>
        <time>2022-06-18T07:30:50Z</time>
      </trkpt>
      <trkpt lat="42.0977560" lon="-8.6394750">
        <ele>42.4</ele>
        <time>2022-06-18T07:30:51Z</time>
      </trkpt>
      <trkpt lat="42.0977830" lon="-8.6395010">
        <ele>42.0</ele>
        <time>2022-06-18T07:30:52Z</time>
      </trkpt>
      <trkpt lat="42.0978100" lon="-8.6395260">
        <ele>42.0</ele>
        <time>2022-06-18T07:30:53Z</time>
      </trkpt>
      <trkpt lat="42.0978330" lon="-8.6395550">
        <ele>42.0</ele>
        <time>2022-06-18T07:30:54Z</time>
      </trkpt>
      <trkpt lat="42.0978550" lon="-8.6395850">
        <ele>42.0</ele>
        <time>2022-06-18T07:30:55Z</time>
      </trkpt>
      <trkpt lat="42.0978780" lon="-8.6396150">
        <ele>42.0</ele>
        <time>2022-06-18T07:30:56Z</time>
      </trkpt>
      <trkpt lat="42.0979030" lon="-8.6396500">
        <ele>42.0</ele>
        <time>2022-06-18T07:30:57Z</time>
      </trkpt>
      <trkpt lat="42.0979260" lon="-8.6396860">
        <ele>42.0</ele>
        <time>2022-06-18T07:30:58Z</time>
      </trkpt>
      <trkpt lat="42.0979550" lon="-8.6397260">
        <ele>41.0</ele>
        <time>2022-06-18T07:30:59Z</time>
      </trkpt>
      <trkpt lat="42.0979810" lon="-8.6397650">
        <ele>40.4</ele>
        <time>2022-06-18T07:31:00Z</time>
      </trkpt>
      <trkpt lat="42.0980080" lon="-8.6398050">
        <ele>40.4</ele>
        <time>2022-06-18T07:31:01Z</time>
      </trkpt>
      <trkpt lat="42.0980360" lon="-8.6398480">
        <ele>40.4</ele>
        <time>2022-06-18T07:31:02Z</time>
      </trkpt>
      <trkpt lat="42.0980660" lon="-8.6398930">
        <ele>40.4</ele>
        <time>2022-06-18T07:31:03Z</time>
      </trkpt>
      <trkpt lat="42.0980950" lon="-8.6399380">
        <ele>39.2</ele>
        <time>2022-06-18T07:31:04Z</time>
      </trkpt>
      <trkpt lat="42.0981250" lon="-8.6399730">
        <ele>39.2</ele>
        <time>2022-06-18T07:31:05Z</time>
      </trkpt>
      <trkpt lat="42.0981550" lon="-8.6399830">
        <ele>39.2</ele>
        <time>2022-06-18T07:31:06Z</time>
      </trkpt>
      <trkpt lat="42.0981800" lon="-8.6399710">
        <ele>38.2</ele>
        <time>2022-06-18T07:31:07Z</time>
      </trkpt>
      <trkpt lat="42.0982060" lon="-8.6399400">
        <ele>36.6</ele>
        <time>2022-06-18T07:31:08Z</time>
      </trkpt>
      <trkpt lat="42.0982280" lon="-8.6398910">
        <ele>36.6</ele>
        <time>2022-06-18T07:31:09Z</time>
      </trkpt>
      <trkpt lat="42.0982500" lon="-8.6398300">
        <ele>36.6</ele>
        <time>2022-06-18T07:31:10Z</time>
      </trkpt>
      <trkpt lat="42.0982630" lon="-8.6397600">
        <ele>35.6</ele>
        <time>2022-06-18T07:31:11Z</time>
      </trkpt>
      <trkpt lat="42.0982800" lon="-8.6396850">
        <ele>31.8</ele>
        <time>2022-06-18T07:31:12Z</time>
      </trkpt>
      <trkpt lat="42.0983160" lon="-8.6395960">
        <ele>31.8</ele>
        <time>2022-06-18T07:31:13Z</time>
      </trkpt>
      <trkpt lat="42.0983430" lon="-8.6395010">
        <ele>31.8</ele>
        <time>2022-06-18T07:31:14Z</time>
      </trkpt>
      <trkpt lat="42.0983810" lon="-8.6393910">
        <ele>30.8</ele>
        <time>2022-06-18T07:31:15Z</time>
      </trkpt>
      <trkpt lat="42.0984160" lon="-8.6392750">
        <ele>24.2</ele>
        <time>2022-06-18T07:31:16Z</time>
      </trkpt>
      <trkpt lat="42.0984460" lon="-8.6391630">
        <ele>24.2</ele>
        <time>2022-06-18T07:31:17Z</time>
      </trkpt>
      <trkpt lat="42.0984830" lon="-8.6390650">
        <ele>24.2</ele>
        <time>2022-06-18T07:31:18Z</time>
      </trkpt>
      <trkpt lat="42.0985260" lon="-8.6389780">
        <ele>24.2</ele>
        <time>2022-06-18T07:31:19Z</time>
      </trkpt>
      <trkpt lat="42.0985650" lon="-8.6388850">
        <ele>23.0</ele>
        <time>2022-06-18T07:31:20Z</time>
      </trkpt>
      <trkpt lat="42.0986030" lon="-8.6387980">
        <ele>23.0</ele>
        <time>2022-06-18T07:31:21Z</time>
      </trkpt>
      <trkpt lat="42.0986580" lon="-8.6387210">
        <ele>23.0</ele>
        <time>2022-06-18T07:31:22Z</time>
      </trkpt>
      <trkpt lat="42.0987110" lon="-8.6386500">
        <ele>22.0</ele>
        <time>2022-06-18T07:31:23Z</time>
      </trkpt>
      <trkpt lat="42.0987650" lon="-8.6385780">
        <ele>21.2</ele>
        <time>2022-06-18T07:31:24Z</time>
      </trkpt>
      <trkpt lat="42.0988100" lon="-8.6385060">
        <ele>21.2</ele>
        <time>2022-06-18T07:31:25Z</time>
      </trkpt>
      <trkpt lat="42.0988480" lon="-8.6384350">
        <ele>21.2</ele>
        <time>2022-06-18T07:31:26Z</time>
      </trkpt>
      <trkpt lat="42.0988650" lon="-8.6383710">
        <ele>20.2</ele>
        <time>2022-06-18T07:31:27Z</time>
      </trkpt>
      <trkpt lat="42.0988930" lon="-8.6383130">
        <ele>21.0</ele>
        <time>2022-06-18T07:31:28Z</time>
      </trkpt>
      <trkpt lat="42.0989180" lon="-8.6382660">
        <ele>21.0</ele>
        <time>2022-06-18T07:31:29Z</time>
      </trkpt>
      <trkpt lat="42.0989350" lon="-8.6382400">
        <ele>21.0</ele>
        <time>2022-06-18T07:31:30Z</time>
      </trkpt>
      <trkpt lat="42.0989560" lon="-8.6382300">
        <ele>20.0</ele>
        <time>2022-06-18T07:31:31Z</time>
      </trkpt>
      <trkpt lat="42.0989850" lon="-8.6382330">
        <ele>19.4</ele>
        <time>2022-06-18T07:31:32Z</time>
      </trkpt>
      <trkpt lat="42.0990160" lon="-8.6382480">
        <ele>19.4</ele>
        <time>2022-06-18T07:31:33Z</time>
      </trkpt>
      <trkpt lat="42.0990510" lon="-8.6382700">
        <ele>19.4</ele>
        <time>2022-06-18T07:31:34Z</time>
      </trkpt>
      <trkpt lat="42.0990750" lon="-8.6382930">
        <ele>18.4</ele>
        <time>2022-06-18T07:31:35Z</time>
      </trkpt>
      <trkpt lat="42.0991010" lon="-8.6383130">
        <ele>18.2</ele>
        <time>2022-06-18T07:31:36Z</time>
      </trkpt>
      <trkpt lat="42.0991410" lon="-8.6383160">
        <ele>18.2</ele>
        <time>2022-06-18T07:31:37Z</time>
      </trkpt>
      <trkpt lat="42.0991810" lon="-8.6383150">
        <ele>18.2</ele>
        <time>2022-06-18T07:31:38Z</time>
      </trkpt>
      <trkpt lat="42.0992250" lon="-8.6383100">
        <ele>18.2</ele>
        <time>2022-06-18T07:31:39Z</time>
      </trkpt>
      <trkpt lat="42.0992650" lon="-8.6383030">
        <ele>18.0</ele>
        <time>2022-06-18T07:31:40Z</time>
      </trkpt>
      <trkpt lat="42.0992900" lon="-8.6383030">
        <ele>18.0</ele>
        <time>2022-06-18T07:31:41Z</time>
      </trkpt>
      <trkpt lat="42.0993030" lon="-8.6383080">
        <ele>18.0</ele>
        <time>2022-06-18T07:31:42Z</time>
      </trkpt>
      <trkpt lat="42.0993260" lon="-8.6383060">
        <ele>18.4</ele>
        <time>2022-06-18T07:31:43Z</time>
      </trkpt>
      <trkpt lat="42.0993430" lon="-8.6383050">
        <ele>18.2</ele>
        <time>2022-06-18T07:31:44Z</time>
      </trkpt>
      <trkpt lat="42.0993660" lon="-8.6383010">
        <ele>18.2</ele>
        <time>2022-06-18T07:31:45Z</time>
      </trkpt>
      <trkpt lat="42.0994060" lon="-8.6382950">
        <ele>18.2</ele>
        <time>2022-06-18T07:31:46Z</time>
      </trkpt>
      <trkpt lat="42.0994350" lon="-8.6382930">
        <ele>18.2</ele>
        <time>2022-06-18T07:31:47Z</time>
      </trkpt>
      <trkpt lat="42.0994610" lon="-8.6382860">
        <ele>18.2</ele>
        <time>2022-06-18T07:31:48Z</time>
      </trkpt>
      <trkpt lat="42.0994750" lon="-8.6382600">
        <ele>18.2</ele>
        <time>2022-06-18T07:31:49Z</time>
      </trkpt>
      <trkpt lat="42.0994910" lon="-8.6382300">
        <ele>18.2</ele>
        <time>2022-06-18T07:31:50Z</time>
      </trkpt>
      <trkpt lat="42.0995080" lon="-8.6381780">
        <ele>17.2</ele>
        <time>2022-06-18T07:31:51Z</time>
      </trkpt>
      <trkpt lat="42.0995050" lon="-8.6381350">
        <ele>18.4</ele>
        <time>2022-06-18T07:31:52Z</time>
      </trkpt>
      <trkpt lat="42.0995060" lon="-8.6380930">
        <ele>18.4</ele>
        <time>2022-06-18T07:31:53Z</time>
      </trkpt>
      <trkpt lat="42.0995100" lon="-8.6380510">
        <ele>18.4</ele>
        <time>2022-06-18T07:31:54Z</time>
      </trkpt>
      <trkpt lat="42.0995200" lon="-8.6380100">
        <ele>17.4</ele>
        <time>2022-06-18T07:31:55Z</time>
      </trkpt>
      <trkpt lat="42.0995410" lon="-8.6379650">
        <ele>17.0</ele>
        <time>2022-06-18T07:31:56Z</time>
      </trkpt>
      <trkpt lat="42.0995610" lon="-8.6379300">
        <ele>17.0</ele>
        <time>2022-06-18T07:31:57Z</time>
      </trkpt>
      <trkpt lat="42.0995900" lon="-8.6378980">
        <ele>17.0</ele>
        <time>2022-06-18T07:31:58Z</time>
      </trkpt>
      <trkpt lat="42.0996260" lon="-8.6378750">
        <ele>17.2</ele>
        <time>2022-06-18T07:31:59Z</time>
      </trkpt>
      <trkpt lat="42.0996630" lon="-8.6378530">
        <ele>17.2</ele>
        <time>2022-06-18T07:32:00Z</time>
      </trkpt>
      <trkpt lat="42.0996950" lon="-8.6378350">
        <ele>17.2</ele>
        <time>2022-06-18T07:32:01Z</time>
      </trkpt>
      <trkpt lat="42.0997310" lon="-8.6378130">
        <ele>17.2</ele>
        <time>2022-06-18T07:32:02Z</time>
      </trkpt>
      <trkpt lat="42.0997700" lon="-8.6378000">
        <ele>17.2</ele>
        <time>2022-06-18T07:32:03Z</time>
      </trkpt>
      <trkpt lat="42.0998010" lon="-8.6377830">
        <ele>16.4</ele>
        <time>2022-06-18T07:32:04Z</time>
      </trkpt>
      <trkpt lat="42.0998330" lon="-8.6377610">
        <ele>16.4</ele>
        <time>2022-06-18T07:32:05Z</time>
      </trkpt>
      <trkpt lat="42.0998610" lon="-8.6377400">
        <ele>16.4</ele>
        <time>2022-06-18T07:32:06Z</time>
      </trkpt>
      <trkpt lat="42.0998960" lon="-8.6377250">
        <ele>17.0</ele>
        <time>2022-06-18T07:32:07Z</time>
      </trkpt>
      <trkpt lat="42.0999210" lon="-8.6377150">
        <ele>16.8</ele>
        <time>2022-06-18T07:32:08Z</time>
      </trkpt>
      <trkpt lat="42.0999500" lon="-8.6377000">
        <ele>16.8</ele>
        <time>2022-06-18T07:32:09Z</time>
      </trkpt>
      <trkpt lat="42.0999500" lon="-8.6377000">
        <ele>16.8</ele>
        <time>2022-06-18T07:32:10Z</time>
      </trkpt>
      <trkpt lat="42.1000130" lon="-8.6376610">
        <ele>16.8</ele>
        <time>2022-06-18T07:32:11Z</time>
      </trkpt>
      <trkpt lat="42.1000530" lon="-8.6376460">
        <ele>17.2</ele>
        <time>2022-06-18T07:32:12Z</time>
      </trkpt>
      <trkpt lat="42.1000860" lon="-8.6376310">
        <ele>17.2</ele>
        <time>2022-06-18T07:32:13Z</time>
      </trkpt>
      <trkpt lat="42.1000860" lon="-8.6376310">
        <ele>17.2</ele>
        <time>2022-06-18T07:32:14Z</time>
      </trkpt>
      <trkpt lat="42.1001480" lon="-8.6376030">
        <ele>17.0</ele>
        <time>2022-06-18T07:32:15Z</time>
      </trkpt>
      <trkpt lat="42.1001810" lon="-8.6375950">
        <ele>17.0</ele>
        <time>2022-06-18T07:32:16Z</time>
      </trkpt>
      <trkpt lat="42.1002130" lon="-8.6375800">
        <ele>17.0</ele>
        <time>2022-06-18T07:32:17Z</time>
      </trkpt>
      <trkpt lat="42.1002130" lon="-8.6375800">
        <ele>17.0</ele>
        <time>2022-06-18T07:32:18Z</time>
      </trkpt>
      <trkpt lat="42.1002800" lon="-8.6375430">
        <ele>16.6</ele>
        <time>2022-06-18T07:32:19Z</time>
      </trkpt>
      <trkpt lat="42.1002800" lon="-8.6375430">
        <ele>17.0</ele>
        <time>2022-06-18T07:32:20Z</time>
      </trkpt>
      <trkpt lat="42.1003350" lon="-8.6374930">
        <ele>17.0</ele>
        <time>2022-06-18T07:32:21Z</time>
      </trkpt>
      <trkpt lat="42.1003600" lon="-8.6374630">
        <ele>17.0</ele>
        <time>2022-06-18T07:32:22Z</time>
      </trkpt>
      <trkpt lat="42.1003930" lon="-8.6374310">
        <ele>17.0</ele>
        <time>2022-06-18T07:32:23Z</time>
      </trkpt>
      <trkpt lat="42.1004250" lon="-8.6374130">
        <ele>16.8</ele>
        <time>2022-06-18T07:32:24Z</time>
      </trkpt>
      <trkpt lat="42.1004580" lon="-8.6374000">
        <ele>16.8</ele>
        <time>2022-06-18T07:32:25Z</time>
      </trkpt>
      <trkpt lat="42.1004880" lon="-8.6373900">
        <ele>16.8</ele>
        <time>2022-06-18T07:32:26Z</time>
      </trkpt>
      <trkpt lat="42.1005180" lon="-8.6373760">
        <ele>15.8</ele>
        <time>2022-06-18T07:32:27Z</time>
      </trkpt>
      <trkpt lat="42.1005510" lon="-8.6373650">
        <ele>16.8</ele>
        <time>2022-06-18T07:32:28Z</time>
      </trkpt>
      <trkpt lat="42.1005830" lon="-8.6373580">
        <ele>16.8</ele>
        <time>2022-06-18T07:32:29Z</time>
      </trkpt>
      <trkpt lat="42.1006130" lon="-8.6373560">
        <ele>16.8</ele>
        <time>2022-06-18T07:32:30Z</time>
      </trkpt>
      <trkpt lat="42.1006380" lon="-8.6373600">
        <ele>17.0</ele>
        <time>2022-06-18T07:32:31Z</time>
      </trkpt>
      <trkpt lat="42.1006680" lon="-8.6373600">
        <ele>16.2</ele>
        <time>2022-06-18T07:32:32Z</time>
      </trkpt>
      <trkpt lat="42.1006910" lon="-8.6373550">
        <ele>16.2</ele>
        <time>2022-06-18T07:32:33Z</time>
      </trkpt>
      <trkpt lat="42.1007180" lon="-8.6373530">
        <ele>16.2</ele>
        <time>2022-06-18T07:32:34Z</time>
      </trkpt>
      <trkpt lat="42.1007400" lon="-8.6373500">
        <ele>16.6</ele>
        <time>2022-06-18T07:32:35Z</time>
      </trkpt>
      <trkpt lat="42.1007660" lon="-8.6373410">
        <ele>16.8</ele>
        <time>2022-06-18T07:32:36Z</time>
      </trkpt>
      <trkpt lat="42.1007910" lon="-8.6373300">
        <ele>16.8</ele>
        <time>2022-06-18T07:32:37Z</time>
      </trkpt>
      <trkpt lat="42.1008200" lon="-8.6373230">
        <ele>16.8</ele>
        <time>2022-06-18T07:32:38Z</time>
      </trkpt>
      <trkpt lat="42.1008410" lon="-8.6373160">
        <ele>16.8</ele>
        <time>2022-06-18T07:32:39Z</time>
      </trkpt>
      <trkpt lat="42.1008680" lon="-8.6373010">
        <ele>16.2</ele>
        <time>2022-06-18T07:32:40Z</time>
      </trkpt>
      <trkpt lat="42.1009030" lon="-8.6372750">
        <ele>16.2</ele>
        <time>2022-06-18T07:32:41Z</time>
      </trkpt>
      <trkpt lat="42.1009310" lon="-8.6372560">
        <ele>16.2</ele>
        <time>2022-06-18T07:32:42Z</time>
      </trkpt>
      <trkpt lat="42.1009560" lon="-8.6372450">
        <ele>17.2</ele>
        <time>2022-06-18T07:32:43Z</time>
      </trkpt>
      <trkpt lat="42.1009900" lon="-8.6372330">
        <ele>16.6</ele>
        <time>2022-06-18T07:32:44Z</time>
      </trkpt>
      <trkpt lat="42.1010200" lon="-8.6372260">
        <ele>16.6</ele>
        <time>2022-06-18T07:32:45Z</time>
      </trkpt>
      <trkpt lat="42.1010430" lon="-8.6372210">
        <ele>16.6</ele>
        <time>2022-06-18T07:32:46Z</time>
      </trkpt>
      <trkpt lat="42.1010630" lon="-8.6372200">
        <ele>17.6</ele>
        <time>2022-06-18T07:32:47Z</time>
      </trkpt>
      <trkpt lat="42.1010910" lon="-8.6372110">
        <ele>17.4</ele>
        <time>2022-06-18T07:32:48Z</time>
      </trkpt>
      <trkpt lat="42.1011110" lon="-8.6372130">
        <ele>17.4</ele>
        <time>2022-06-18T07:32:49Z</time>
      </trkpt>
      <trkpt lat="42.1011350" lon="-8.6372130">
        <ele>17.4</ele>
        <time>2022-06-18T07:32:50Z</time>
      </trkpt>
      <trkpt lat="42.1011610" lon="-8.6372180">
        <ele>17.2</ele>
        <time>2022-06-18T07:32:51Z</time>
      </trkpt>
      <trkpt lat="42.1011850" lon="-8.6372260">
        <ele>17.4</ele>
        <time>2022-06-18T07:32:52Z</time>
      </trkpt>
      <trkpt lat="42.1012000" lon="-8.6372360">
        <ele>17.4</ele>
        <time>2022-06-18T07:32:53Z</time>
      </trkpt>
      <trkpt lat="42.1012160" lon="-8.6372430">
        <ele>17.4</ele>
        <time>2022-06-18T07:32:54Z</time>
      </trkpt>
      <trkpt lat="42.1012430" lon="-8.6372510">
        <ele>17.4</ele>
        <time>2022-06-18T07:32:55Z</time>
      </trkpt>
      <trkpt lat="42.1012760" lon="-8.6372560">
        <ele>17.2</ele>
        <time>2022-06-18T07:32:56Z</time>
      </trkpt>
      <trkpt lat="42.1013080" lon="-8.6372610">
        <ele>17.2</ele>
        <time>2022-06-18T07:32:57Z</time>
      </trkpt>
      <trkpt lat="42.1013350" lon="-8.6372710">
        <ele>17.2</ele>
        <time>2022-06-18T07:32:58Z</time>
      </trkpt>
      <trkpt lat="42.1013700" lon="-8.6372760">
        <ele>17.2</ele>
        <time>2022-06-18T07:32:59Z</time>
      </trkpt>
      <trkpt lat="42.1014100" lon="-8.6372780">
        <ele>16.8</ele>
        <time>2022-06-18T07:33:00Z</time>
      </trkpt>
      <trkpt lat="42.1014510" lon="-8.6372810">
        <ele>16.8</ele>
        <time>2022-06-18T07:33:01Z</time>
      </trkpt>
      <trkpt lat="42.1014960" lon="-8.6372830">
        <ele>16.8</ele>
        <time>2022-06-18T07:33:02Z</time>
      </trkpt>
      <trkpt lat="42.1015380" lon="-8.6372830">
        <ele>16.8</ele>
        <time>2022-06-18T07:33:03Z</time>
      </trkpt>
      <trkpt lat="42.1015810" lon="-8.6372810">
        <ele>17.2</ele>
        <time>2022-06-18T07:33:04Z</time>
      </trkpt>
      <trkpt lat="42.1016210" lon="-8.6372830">
        <ele>17.2</ele>
        <time>2022-06-18T07:33:05Z</time>
      </trkpt>
      <trkpt lat="42.1016460" lon="-8.6372710">
        <ele>17.2</ele>
        <time>2022-06-18T07:33:06Z</time>
      </trkpt>
      <trkpt lat="42.1016830" lon="-8.6372530">
        <ele>17.2</ele>
        <time>2022-06-18T07:33:07Z</time>
      </trkpt>
      <trkpt lat="42.1017200" lon="-8.6372430">
        <ele>17.4</ele>
        <time>2022-06-18T07:33:08Z</time>
      </trkpt>
      <trkpt lat="42.1017650" lon="-8.6372350">
        <ele>17.4</ele>
        <time>2022-06-18T07:33:09Z</time>
      </trkpt>
      <trkpt lat="42.1018050" lon="-8.6372260">
        <ele>17.4</ele>
        <time>2022-06-18T07:33:10Z</time>
      </trkpt>
      <trkpt lat="42.1018260" lon="-8.6372280">
        <ele>17.4</ele>
        <time>2022-06-18T07:33:11Z</time>
      </trkpt>
      <trkpt lat="42.1018480" lon="-8.6372280">
        <ele>16.6</ele>
        <time>2022-06-18T07:33:12Z</time>
      </trkpt>
      <trkpt lat="42.1018730" lon="-8.6372250">
        <ele>16.6</ele>
        <time>2022-06-18T07:33:13Z</time>
      </trkpt>
      <trkpt lat="42.1018960" lon="-8.6372230">
        <ele>16.6</ele>
        <time>2022-06-18T07:33:14Z</time>
      </trkpt>
      <trkpt lat="42.1019200" lon="-8.6372080">
        <ele>17.4</ele>
        <time>2022-06-18T07:33:15Z</time>
      </trkpt>
      <trkpt lat="42.1019480" lon="-8.6371910">
        <ele>16.8</ele>
        <time>2022-06-18T07:33:16Z</time>
      </trkpt>
      <trkpt lat="42.1019850" lon="-8.6371650">
        <ele>16.8</ele>
        <time>2022-06-18T07:33:17Z</time>
      </trkpt>
      <trkpt lat="42.1020000" lon="-8.6371400">
        <ele>16.8</ele>
        <time>2022-06-18T07:33:18Z</time>
      </trkpt>
      <trkpt lat="42.1020050" lon="-8.6371030">
        <ele>16.8</ele>
        <time>2022-06-18T07:33:19Z</time>
      </trkpt>
      <trkpt lat="42.1020100" lon="-8.6370530">
        <ele>17.0</ele>
        <time>2022-06-18T07:33:20Z</time>
      </trkpt>
      <trkpt lat="42.1020130" lon="-8.6370030">
        <ele>17.0</ele>
        <time>2022-06-18T07:33:21Z</time>
      </trkpt>
      <trkpt lat="42.1020160" lon="-8.6369550">
        <ele>17.0</ele>
        <time>2022-06-18T07:33:22Z</time>
      </trkpt>
      <trkpt lat="42.1020350" lon="-8.6369060">
        <ele>17.0</ele>
        <time>2022-06-18T07:33:23Z</time>
      </trkpt>
      <trkpt lat="42.1020600" lon="-8.6368530">
        <ele>16.8</ele>
        <time>2022-06-18T07:33:24Z</time>
      </trkpt>
      <trkpt lat="42.1020900" lon="-8.6368030">
        <ele>16.8</ele>
        <time>2022-06-18T07:33:25Z</time>
      </trkpt>
      <trkpt lat="42.1020960" lon="-8.6367550">
        <ele>16.8</ele>
        <time>2022-06-18T07:33:26Z</time>
      </trkpt>
      <trkpt lat="42.1021150" lon="-8.6367030">
        <ele>17.2</ele>
        <time>2022-06-18T07:33:27Z</time>
      </trkpt>
      <trkpt lat="42.1021150" lon="-8.6366580">
        <ele>16.6</ele>
        <time>2022-06-18T07:33:28Z</time>
      </trkpt>
      <trkpt lat="42.1021250" lon="-8.6366060">
        <ele>16.6</ele>
        <time>2022-06-18T07:33:29Z</time>
      </trkpt>
      <trkpt lat="42.1021330" lon="-8.6365550">
        <ele>16.6</ele>
        <time>2022-06-18T07:33:30Z</time>
      </trkpt>
      <trkpt lat="42.1021330" lon="-8.6365110">
        <ele>16.6</ele>
        <time>2022-06-18T07:33:31Z</time>
      </trkpt>
      <trkpt lat="42.1021310" lon="-8.6364560">
        <ele>16.0</ele>
        <time>2022-06-18T07:33:32Z</time>
      </trkpt>
      <trkpt lat="42.1021230" lon="-8.6364030">
        <ele>16.0</ele>
        <time>2022-06-18T07:33:33Z</time>
      </trkpt>
      <trkpt lat="42.1021210" lon="-8.6363500">
        <ele>16.0</ele>
        <time>2022-06-18T07:33:34Z</time>
      </trkpt>
      <trkpt lat="42.1021200" lon="-8.6362950">
        <ele>17.0</ele>
        <time>2022-06-18T07:33:35Z</time>
      </trkpt>
      <trkpt lat="42.1021230" lon="-8.6362360">
        <ele>18.0</ele>
        <time>2022-06-18T07:33:36Z</time>
      </trkpt>
      <trkpt lat="42.1021310" lon="-8.6361710">
        <ele>18.0</ele>
        <time>2022-06-18T07:33:37Z</time>
      </trkpt>
      <trkpt lat="42.1021260" lon="-8.6361250">
        <ele>18.0</ele>
        <time>2022-06-18T07:33:38Z</time>
      </trkpt>
      <trkpt lat="42.1021210" lon="-8.6360780">
        <ele>18.0</ele>
        <time>2022-06-18T07:33:39Z</time>
      </trkpt>
      <trkpt lat="42.1021200" lon="-8.6360300">
        <ele>17.6</ele>
        <time>2022-06-18T07:33:40Z</time>
      </trkpt>
      <trkpt lat="42.1021100" lon="-8.6359850">
        <ele>17.6</ele>
        <time>2022-06-18T07:33:41Z</time>
      </trkpt>
      <trkpt lat="42.1021030" lon="-8.6359400">
        <ele>17.6</ele>
        <time>2022-06-18T07:33:42Z</time>
      </trkpt>
      <trkpt lat="42.1021000" lon="-8.6358930">
        <ele>18.0</ele>
        <time>2022-06-18T07:33:43Z</time>
      </trkpt>
      <trkpt lat="42.1020910" lon="-8.6358530">
        <ele>18.6</ele>
        <time>2022-06-18T07:33:44Z</time>
      </trkpt>
      <trkpt lat="42.1020860" lon="-8.6358110">
        <ele>18.6</ele>
        <time>2022-06-18T07:33:45Z</time>
      </trkpt>
      <trkpt lat="42.1020810" lon="-8.6357750">
        <ele>18.6</ele>
        <time>2022-06-18T07:33:46Z</time>
      </trkpt>
      <trkpt lat="42.1020700" lon="-8.6357360">
        <ele>18.6</ele>
        <time>2022-06-18T07:33:47Z</time>
      </trkpt>
      <trkpt lat="42.1020650" lon="-8.6357000">
        <ele>18.0</ele>
        <time>2022-06-18T07:33:48Z</time>
      </trkpt>
      <trkpt lat="42.1020600" lon="-8.6356680">
        <ele>18.0</ele>
        <time>2022-06-18T07:33:49Z</time>
      </trkpt>
      <trkpt lat="42.1020450" lon="-8.6356310">
        <ele>18.0</ele>
        <time>2022-06-18T07:33:50Z</time>
      </trkpt>
      <trkpt lat="42.1020300" lon="-8.6356010">
        <ele>18.4</ele>
        <time>2022-06-18T07:33:51Z</time>
      </trkpt>
      <trkpt lat="42.1020160" lon="-8.6355880">
        <ele>18.8</ele>
        <time>2022-06-18T07:33:52Z</time>
      </trkpt>
      <trkpt lat="42.1019980" lon="-8.6355650">
        <ele>18.8</ele>
        <time>2022-06-18T07:33:53Z</time>
      </trkpt>
      <trkpt lat="42.1019780" lon="-8.6355510">
        <ele>18.8</ele>
        <time>2022-06-18T07:33:54Z</time>
      </trkpt>
      <trkpt lat="42.1019560" lon="-8.6355460">
        <ele>18.6</ele>
        <time>2022-06-18T07:33:55Z</time>
      </trkpt>
      <trkpt lat="42.1019350" lon="-8.6355400">
        <ele>19.2</ele>
        <time>2022-06-18T07:33:56Z</time>
      </trkpt>
      <trkpt lat="42.1019050" lon="-8.6355130">
        <ele>19.2</ele>
        <time>2022-06-18T07:33:57Z</time>
      </trkpt>
      <trkpt lat="42.1018760" lon="-8.6354980">
        <ele>19.2</ele>
        <time>2022-06-18T07:33:58Z</time>
      </trkpt>
      <trkpt lat="42.1018460" lon="-8.6354850">
        <ele>19.8</ele>
        <time>2022-06-18T07:33:59Z</time>
      </trkpt>
      <trkpt lat="42.1018180" lon="-8.6354760">
        <ele>20.2</ele>
        <time>2022-06-18T07:34:00Z</time>
      </trkpt>
      <trkpt lat="42.1017910" lon="-8.6354610">
        <ele>20.2</ele>
        <time>2022-06-18T07:34:01Z</time>
      </trkpt>
      <trkpt lat="42.1017650" lon="-8.6354410">
        <ele>20.2</ele>
        <time>2022-06-18T07:34:02Z</time>
      </trkpt>
      <trkpt lat="42.1017410" lon="-8.6354280">
        <ele>20.2</ele>
        <time>2022-06-18T07:34:03Z</time>
      </trkpt>
      <trkpt lat="42.1017210" lon="-8.6354050">
        <ele>20.4</ele>
        <time>2022-06-18T07:34:04Z</time>
      </trkpt>
      <trkpt lat="42.1016960" lon="-8.6353850">
        <ele>20.4</ele>
        <time>2022-06-18T07:34:05Z</time>
      </trkpt>
      <trkpt lat="42.1016750" lon="-8.6353680">
        <ele>20.4</ele>
        <time>2022-06-18T07:34:06Z</time>
      </trkpt>
      <trkpt lat="42.1016560" lon="-8.6353480">
        <ele>20.4</ele>
        <time>2022-06-18T07:34:07Z</time>
      </trkpt>
      <trkpt lat="42.1016430" lon="-8.6353350">
        <ele>21.8</ele>
        <time>2022-06-18T07:34:08Z</time>
      </trkpt>
      <trkpt lat="42.1016280" lon="-8.6353210">
        <ele>21.8</ele>
        <time>2022-06-18T07:34:09Z</time>
      </trkpt>
      <trkpt lat="42.1016110" lon="-8.6353100">
        <ele>21.8</ele>
        <time>2022-06-18T07:34:10Z</time>
      </trkpt>
      <trkpt lat="42.1015980" lon="-8.6352930">
        <ele>21.8</ele>
        <time>2022-06-18T07:34:11Z</time>
      </trkpt>
      <trkpt lat="42.1015860" lon="-8.6352800">
        <ele>22.2</ele>
        <time>2022-06-18T07:34:12Z</time>
      </trkpt>
      <trkpt lat="42.1015780" lon="-8.6352660">
        <ele>22.2</ele>
        <time>2022-06-18T07:34:13Z</time>
      </trkpt>
      <trkpt lat="42.1015650" lon="-8.6352530">
        <ele>22.2</ele>
        <time>2022-06-18T07:34:14Z</time>
      </trkpt>
      <trkpt lat="42.1015500" lon="-8.6352380">
        <ele>22.2</ele>
        <time>2022-06-18T07:34:15Z</time>
      </trkpt>
      <trkpt lat="42.1015280" lon="-8.6352200">
        <ele>22.8</ele>
        <time>2022-06-18T07:34:16Z</time>
      </trkpt>
      <trkpt lat="42.1015100" lon="-8.6352050">
        <ele>22.8</ele>
        <time>2022-06-18T07:34:17Z</time>
      </trkpt>
      <trkpt lat="42.1014950" lon="-8.6351950">
        <ele>22.8</ele>
        <time>2022-06-18T07:34:18Z</time>
      </trkpt>
      <trkpt lat="42.1014810" lon="-8.6351760">
        <ele>23.6</ele>
        <time>2022-06-18T07:34:19Z</time>
      </trkpt>
      <trkpt lat="42.1014660" lon="-8.6351610">
        <ele>23.2</ele>
        <time>2022-06-18T07:34:20Z</time>
      </trkpt>
      <trkpt lat="42.1014480" lon="-8.6351480">
        <ele>23.2</ele>
        <time>2022-06-18T07:34:21Z</time>
      </trkpt>
      <trkpt lat="42.1014350" lon="-8.6351260">
        <ele>23.2</ele>
        <time>2022-06-18T07:34:22Z</time>
      </trkpt>
      <trkpt lat="42.1014210" lon="-8.6351100">
        <ele>23.2</ele>
        <time>2022-06-18T07:34:23Z</time>
      </trkpt>
      <trkpt lat="42.1014100" lon="-8.6350960">
        <ele>23.8</ele>
        <time>2022-06-18T07:34:24Z</time>
      </trkpt>
      <trkpt lat="42.1014010" lon="-8.6350850">
        <ele>23.8</ele>
        <time>2022-06-18T07:34:25Z</time>
      </trkpt>
      <trkpt lat="42.1013930" lon="-8.6350730">
        <ele>23.8</ele>
        <time>2022-06-18T07:34:26Z</time>
      </trkpt>
      <trkpt lat="42.1013850" lon="-8.6350630">
        <ele>23.8</ele>
        <time>2022-06-18T07:34:27Z</time>
      </trkpt>
      <trkpt lat="42.1013830" lon="-8.6350510">
        <ele>24.6</ele>
        <time>2022-06-18T07:34:28Z</time>
      </trkpt>
      <trkpt lat="42.1013750" lon="-8.6350360">
        <ele>24.6</ele>
        <time>2022-06-18T07:34:29Z</time>
      </trkpt>
      <trkpt lat="42.1013650" lon="-8.6350230">
        <ele>24.6</ele>
        <time>2022-06-18T07:34:30Z</time>
      </trkpt>
      <trkpt lat="42.1013510" lon="-8.6350130">
        <ele>24.6</ele>
        <time>2022-06-18T07:34:31Z</time>
      </trkpt>
      <trkpt lat="42.1013450" lon="-8.6349980">
        <ele>25.4</ele>
        <time>2022-06-18T07:34:32Z</time>
      </trkpt>
      <trkpt lat="42.1013400" lon="-8.6349800">
        <ele>25.4</ele>
        <time>2022-06-18T07:34:33Z</time>
      </trkpt>
      <trkpt lat="42.1013330" lon="-8.6349610">
        <ele>25.4</ele>
        <time>2022-06-18T07:34:34Z</time>
      </trkpt>
      <trkpt lat="42.1013230" lon="-8.6349410">
        <ele>26.0</ele>
        <time>2022-06-18T07:34:35Z</time>
      </trkpt>
      <trkpt lat="42.1013200" lon="-8.6349210">
        <ele>26.2</ele>
        <time>2022-06-18T07:34:36Z</time>
      </trkpt>
      <trkpt lat="42.1013210" lon="-8.6349010">
        <ele>26.2</ele>
        <time>2022-06-18T07:34:37Z</time>
      </trkpt>
      <trkpt lat="42.1013230" lon="-8.6348800">
        <ele>26.2</ele>
        <time>2022-06-18T07:34:38Z</time>
      </trkpt>
      <trkpt lat="42.1013180" lon="-8.6348630">
        <ele>27.0</ele>
        <time>2022-06-18T07:34:39Z</time>
      </trkpt>
      <trkpt lat="42.1013160" lon="-8.6348450">
        <ele>27.4</ele>
        <time>2022-06-18T07:34:40Z</time>
      </trkpt>
      <trkpt lat="42.1013210" lon="-8.6348280">
        <ele>27.4</ele>
        <time>2022-06-18T07:34:41Z</time>
      </trkpt>
      <trkpt lat="42.1013250" lon="-8.6348130">
        <ele>27.4</ele>
        <time>2022-06-18T07:34:42Z</time>
      </trkpt>
      <trkpt lat="42.1013160" lon="-8.6347980">
        <ele>27.4</ele>
        <time>2022-06-18T07:34:43Z</time>
      </trkpt>
      <trkpt lat="42.1013010" lon="-8.6347900">
        <ele>28.2</ele>
        <time>2022-06-18T07:34:44Z</time>
      </trkpt>
      <trkpt lat="42.1012980" lon="-8.6347750">
        <ele>28.2</ele>
        <time>2022-06-18T07:34:45Z</time>
      </trkpt>
      <trkpt lat="42.1012880" lon="-8.6347600">
        <ele>28.2</ele>
        <time>2022-06-18T07:34:46Z</time>
      </trkpt>
      <trkpt lat="42.1012850" lon="-8.6347430">
        <ele>28.4</ele>
        <time>2022-06-18T07:34:47Z</time>
      </trkpt>
      <trkpt lat="42.1012860" lon="-8.6347300">
        <ele>28.2</ele>
        <time>2022-06-18T07:34:48Z</time>
      </trkpt>
      <trkpt lat="42.1012810" lon="-8.6347210">
        <ele>28.2</ele>
        <time>2022-06-18T07:34:49Z</time>
      </trkpt>
      <trkpt lat="42.1012860" lon="-8.6347150">
        <ele>28.2</ele>
        <time>2022-06-18T07:34:50Z</time>
      </trkpt>
      <trkpt lat="42.1012900" lon="-8.6347110">
        <ele>28.6</ele>
        <time>2022-06-18T07:34:51Z</time>
      </trkpt>
      <trkpt lat="42.1012980" lon="-8.6347030">
        <ele>28.4</ele>
        <time>2022-06-18T07:34:52Z</time>
      </trkpt>
      <trkpt lat="42.1013100" lon="-8.6346930">
        <ele>28.4</ele>
        <time>2022-06-18T07:34:53Z</time>
      </trkpt>
      <trkpt lat="42.1013210" lon="-8.6346830">
        <ele>28.4</ele>
        <time>2022-06-18T07:34:54Z</time>
      </trkpt>
      <trkpt lat="42.1013280" lon="-8.6346710">
        <ele>29.0</ele>
        <time>2022-06-18T07:34:55Z</time>
      </trkpt>
      <trkpt lat="42.1013330" lon="-8.6346650">
        <ele>29.2</ele>
        <time>2022-06-18T07:34:56Z</time>
      </trkpt>
      <trkpt lat="42.1013380" lon="-8.6346530">
        <ele>29.2</ele>
        <time>2022-06-18T07:34:57Z</time>
      </trkpt>
      <trkpt lat="42.1013430" lon="-8.6346360">
        <ele>29.2</ele>
        <time>2022-06-18T07:34:58Z</time>
      </trkpt>
      <trkpt lat="42.1013530" lon="-8.6346300">
        <ele>29.8</ele>
        <time>2022-06-18T07:34:59Z</time>
      </trkpt>
      <trkpt lat="42.1013630" lon="-8.6346200">
        <ele>29.8</ele>
        <time>2022-06-18T07:35:00Z</time>
      </trkpt>
      <trkpt lat="42.1013660" lon="-8.6346100">
        <ele>29.8</ele>
        <time>2022-06-18T07:35:01Z</time>
      </trkpt>
      <trkpt lat="42.1013750" lon="-8.6346010">
        <ele>29.8</ele>
        <time>2022-06-18T07:35:02Z</time>
      </trkpt>
      <trkpt lat="42.1013880" lon="-8.6345950">
        <ele>30.4</ele>
        <time>2022-06-18T07:35:03Z</time>
      </trkpt>
      <trkpt lat="42.1014010" lon="-8.6345860">
        <ele>30.4</ele>
        <time>2022-06-18T07:35:04Z</time>
      </trkpt>
      <trkpt lat="42.1014100" lon="-8.6345760">
        <ele>30.4</ele>
        <time>2022-06-18T07:35:05Z</time>
      </trkpt>
      <trkpt lat="42.1014200" lon="-8.6345660">
        <ele>30.4</ele>
        <time>2022-06-18T07:35:06Z</time>
      </trkpt>
      <trkpt lat="42.1014280" lon="-8.6345530">
        <ele>31.4</ele>
        <time>2022-06-18T07:35:07Z</time>
      </trkpt>
      <trkpt lat="42.1014400" lon="-8.6345450">
        <ele>31.6</ele>
        <time>2022-06-18T07:35:08Z</time>
      </trkpt>
      <trkpt lat="42.1014500" lon="-8.6345330">
        <ele>31.6</ele>
        <time>2022-06-18T07:35:09Z</time>
      </trkpt>
      <trkpt lat="42.1014580" lon="-8.6345160">
        <ele>31.6</ele>
        <time>2022-06-18T07:35:10Z</time>
      </trkpt>
      <trkpt lat="42.1014660" lon="-8.6345050">
        <ele>32.2</ele>
        <time>2022-06-18T07:35:11Z</time>
      </trkpt>
      <trkpt lat="42.1014780" lon="-8.6344910">
        <ele>32.4</ele>
        <time>2022-06-18T07:35:12Z</time>
      </trkpt>
      <trkpt lat="42.1014860" lon="-8.6344810">
        <ele>32.4</ele>
        <time>2022-06-18T07:35:13Z</time>
      </trkpt>
      <trkpt lat="42.1014960" lon="-8.6344660">
        <ele>32.4</ele>
        <time>2022-06-18T07:35:14Z</time>
      </trkpt>
      <trkpt lat="42.1015080" lon="-8.6344530">
        <ele>33.2</ele>
        <time>2022-06-18T07:35:15Z</time>
      </trkpt>
      <trkpt lat="42.1015200" lon="-8.6344410">
        <ele>33.0</ele>
        <time>2022-06-18T07:35:16Z</time>
      </trkpt>
      <trkpt lat="42.1015280" lon="-8.6344300">
        <ele>33.0</ele>
        <time>2022-06-18T07:35:17Z</time>
      </trkpt>
      <trkpt lat="42.1015400" lon="-8.6344180">
        <ele>33.0</ele>
        <time>2022-06-18T07:35:18Z</time>
      </trkpt>
      <trkpt lat="42.1015500" lon="-8.6344110">
        <ele>33.4</ele>
        <time>2022-06-18T07:35:19Z</time>
      </trkpt>
      <trkpt lat="42.1015610" lon="-8.6344030">
        <ele>33.2</ele>
        <time>2022-06-18T07:35:20Z</time>
      </trkpt>
      <trkpt lat="42.1015750" lon="-8.6343930">
        <ele>33.2</ele>
        <time>2022-06-18T07:35:21Z</time>
      </trkpt>
      <trkpt lat="42.1015880" lon="-8.6343850">
        <ele>33.2</ele>
        <time>2022-06-18T07:35:22Z</time>
      </trkpt>
      <trkpt lat="42.1016010" lon="-8.6343710">
        <ele>33.4</ele>
        <time>2022-06-18T07:35:23Z</time>
      </trkpt>
      <trkpt lat="42.1016150" lon="-8.6343600">
        <ele>33.4</ele>
        <time>2022-06-18T07:35:24Z</time>
      </trkpt>
      <trkpt lat="42.1016250" lon="-8.6343480">
        <ele>33.4</ele>
        <time>2022-06-18T07:35:25Z</time>
      </trkpt>
      <trkpt lat="42.1016410" lon="-8.6343310">
        <ele>33.4</ele>
        <time>2022-06-18T07:35:26Z</time>
      </trkpt>
      <trkpt lat="42.1016550" lon="-8.6343150">
        <ele>33.4</ele>
        <time>2022-06-18T07:35:27Z</time>
      </trkpt>
      <trkpt lat="42.1016660" lon="-8.6343000">
        <ele>33.8</ele>
        <time>2022-06-18T07:35:28Z</time>
      </trkpt>
      <trkpt lat="42.1016800" lon="-8.6342860">
        <ele>33.8</ele>
        <time>2022-06-18T07:35:29Z</time>
      </trkpt>
      <trkpt lat="42.1016910" lon="-8.6342710">
        <ele>33.8</ele>
        <time>2022-06-18T07:35:30Z</time>
      </trkpt>
      <trkpt lat="42.1017030" lon="-8.6342560">
        <ele>33.8</ele>
        <time>2022-06-18T07:35:31Z</time>
      </trkpt>
      <trkpt lat="42.1017210" lon="-8.6342410">
        <ele>33.6</ele>
        <time>2022-06-18T07:35:32Z</time>
      </trkpt>
      <trkpt lat="42.1017380" lon="-8.6342180">
        <ele>33.6</ele>
        <time>2022-06-18T07:35:33Z</time>
      </trkpt>
      <trkpt lat="42.1017500" lon="-8.6341960">
        <ele>33.6</ele>
        <time>2022-06-18T07:35:34Z</time>
      </trkpt>
      <trkpt lat="42.1017580" lon="-8.6341700">
        <ele>33.8</ele>
        <time>2022-06-18T07:35:35Z</time>
      </trkpt>
      <trkpt lat="42.1017630" lon="-8.6341430">
        <ele>33.8</ele>
        <time>2022-06-18T07:35:36Z</time>
      </trkpt>
      <trkpt lat="42.1017700" lon="-8.6341210">
        <ele>33.8</ele>
        <time>2022-06-18T07:35:37Z</time>
      </trkpt>
      <trkpt lat="42.1017750" lon="-8.6341000">
        <ele>33.8</ele>
        <time>2022-06-18T07:35:38Z</time>
      </trkpt>
      <trkpt lat="42.1017800" lon="-8.6340810">
        <ele>33.8</ele>
        <time>2022-06-18T07:35:39Z</time>
      </trkpt>
      <trkpt lat="42.1017800" lon="-8.6340700">
        <ele>33.8</ele>
        <time>2022-06-18T07:35:40Z</time>
      </trkpt>
      <trkpt lat="42.1017800" lon="-8.6340660">
        <ele>33.8</ele>
        <time>2022-06-18T07:35:41Z</time>
      </trkpt>
      <trkpt lat="42.1017800" lon="-8.6340660">
        <ele>33.8</ele>
        <time>2022-06-18T07:35:42Z</time>
      </trkpt>
      <trkpt lat="42.1018150" lon="-8.6340250">
        <ele>34.0</ele>
        <time>2022-06-18T07:36:03Z</time>
      </trkpt>
      <trkpt lat="42.1018230" lon="-8.6340130">
        <ele>34.2</ele>
        <time>2022-06-18T07:36:04Z</time>
      </trkpt>
      <trkpt lat="42.1018300" lon="-8.6339980">
        <ele>34.2</ele>
        <time>2022-06-18T07:36:05Z</time>
      </trkpt>
      <trkpt lat="42.1018350" lon="-8.6339780">
        <ele>34.2</ele>
        <time>2022-06-18T07:36:06Z</time>
      </trkpt>
      <trkpt lat="42.1018350" lon="-8.6339580">
        <ele>34.2</ele>
        <time>2022-06-18T07:36:07Z</time>
      </trkpt>
      <trkpt lat="42.1018380" lon="-8.6339400">
        <ele>34.2</ele>
        <time>2022-06-18T07:36:08Z</time>
      </trkpt>
      <trkpt lat="42.1018380" lon="-8.6339250">
        <ele>34.2</ele>
        <time>2022-06-18T07:36:09Z</time>
      </trkpt>
      <trkpt lat="42.1018410" lon="-8.6339110">
        <ele>34.2</ele>
        <time>2022-06-18T07:36:10Z</time>
      </trkpt>
      <trkpt lat="42.1018450" lon="-8.6339030">
        <ele>34.4</ele>
        <time>2022-06-18T07:36:11Z</time>
      </trkpt>
      <trkpt lat="42.1018500" lon="-8.6338930">
        <ele>34.6</ele>
        <time>2022-06-18T07:36:12Z</time>
      </trkpt>
      <trkpt lat="42.1018560" lon="-8.6338800">
        <ele>34.6</ele>
        <time>2022-06-18T07:36:13Z</time>
      </trkpt>
      <trkpt lat="42.1018630" lon="-8.6338630">
        <ele>34.6</ele>
        <time>2022-06-18T07:36:14Z</time>
      </trkpt>
      <trkpt lat="42.1018730" lon="-8.6338500">
        <ele>34.6</ele>
        <time>2022-06-18T07:36:15Z</time>
      </trkpt>
      <trkpt lat="42.1018810" lon="-8.6338400">
        <ele>34.8</ele>
        <time>2022-06-18T07:36:16Z</time>
      </trkpt>
      <trkpt lat="42.1018930" lon="-8.6338310">
        <ele>34.8</ele>
        <time>2022-06-18T07:36:17Z</time>
      </trkpt>
      <trkpt lat="42.1019030" lon="-8.6338230">
        <ele>34.8</ele>
        <time>2022-06-18T07:36:18Z</time>
      </trkpt>
      <trkpt lat="42.1019130" lon="-8.6338130">
        <ele>34.8</ele>
        <time>2022-06-18T07:36:19Z</time>
      </trkpt>
      <trkpt lat="42.1019200" lon="-8.6338010">
        <ele>34.8</ele>
        <time>2022-06-18T07:36:20Z</time>
      </trkpt>
      <trkpt lat="42.1019260" lon="-8.6337910">
        <ele>34.8</ele>
        <time>2022-06-18T07:36:21Z</time>
      </trkpt>
      <trkpt lat="42.1019350" lon="-8.6337780">
        <ele>34.8</ele>
        <time>2022-06-18T07:36:22Z</time>
      </trkpt>
      <trkpt lat="42.1019410" lon="-8.6337660">
        <ele>35.2</ele>
        <time>2022-06-18T07:36:23Z</time>
      </trkpt>
      <trkpt lat="42.1019530" lon="-8.6337630">
        <ele>35.6</ele>
        <time>2022-06-18T07:36:24Z</time>
      </trkpt>
      <trkpt lat="42.1019660" lon="-8.6337560">
        <ele>35.6</ele>
        <time>2022-06-18T07:36:25Z</time>
      </trkpt>
      <trkpt lat="42.1019780" lon="-8.6337430">
        <ele>35.6</ele>
        <time>2022-06-18T07:36:26Z</time>
      </trkpt>
      <trkpt lat="42.1019850" lon="-8.6337300">
        <ele>35.6</ele>
        <time>2022-06-18T07:36:27Z</time>
      </trkpt>
      <trkpt lat="42.1019930" lon="-8.6337130">
        <ele>35.6</ele>
        <time>2022-06-18T07:36:28Z</time>
      </trkpt>
      <trkpt lat="42.1019980" lon="-8.6336960">
        <ele>35.6</ele>
        <time>2022-06-18T07:36:29Z</time>
      </trkpt>
      <trkpt lat="42.1020060" lon="-8.6336830">
        <ele>35.6</ele>
        <time>2022-06-18T07:36:30Z</time>
      </trkpt>
      <trkpt lat="42.1020150" lon="-8.6336700">
        <ele>36.2</ele>
        <time>2022-06-18T07:36:31Z</time>
      </trkpt>
      <trkpt lat="42.1020180" lon="-8.6336580">
        <ele>36.2</ele>
        <time>2022-06-18T07:36:32Z</time>
      </trkpt>
      <trkpt lat="42.1020260" lon="-8.6336460">
        <ele>36.2</ele>
        <time>2022-06-18T07:36:33Z</time>
      </trkpt>
      <trkpt lat="42.1020330" lon="-8.6336350">
        <ele>36.2</ele>
        <time>2022-06-18T07:36:34Z</time>
      </trkpt>
      <trkpt lat="42.1020410" lon="-8.6336210">
        <ele>37.0</ele>
        <time>2022-06-18T07:36:35Z</time>
      </trkpt>
      <trkpt lat="42.1020530" lon="-8.6336150">
        <ele>36.8</ele>
        <time>2022-06-18T07:36:36Z</time>
      </trkpt>
      <trkpt lat="42.1020650" lon="-8.6336060">
        <ele>36.8</ele>
        <time>2022-06-18T07:36:37Z</time>
      </trkpt>
      <trkpt lat="42.1020760" lon="-8.6335950">
        <ele>36.8</ele>
        <time>2022-06-18T07:36:38Z</time>
      </trkpt>
      <trkpt lat="42.1020850" lon="-8.6335830">
        <ele>36.8</ele>
        <time>2022-06-18T07:36:39Z</time>
      </trkpt>
      <trkpt lat="42.1020950" lon="-8.6335710">
        <ele>37.6</ele>
        <time>2022-06-18T07:36:40Z</time>
      </trkpt>
      <trkpt lat="42.1021050" lon="-8.6335600">
        <ele>37.6</ele>
        <time>2022-06-18T07:36:41Z</time>
      </trkpt>
      <trkpt lat="42.1021160" lon="-8.6335430">
        <ele>37.6</ele>
        <time>2022-06-18T07:36:42Z</time>
      </trkpt>
      <trkpt lat="42.1021260" lon="-8.6335310">
        <ele>38.0</ele>
        <time>2022-06-18T07:36:43Z</time>
      </trkpt>
      <trkpt lat="42.1021350" lon="-8.6335280">
        <ele>37.6</ele>
        <time>2022-06-18T07:36:44Z</time>
      </trkpt>
      <trkpt lat="42.1021460" lon="-8.6335110">
        <ele>37.6</ele>
        <time>2022-06-18T07:36:45Z</time>
      </trkpt>
      <trkpt lat="42.1021560" lon="-8.6335060">
        <ele>37.6</ele>
        <time>2022-06-18T07:36:46Z</time>
      </trkpt>
      <trkpt lat="42.1021650" lon="-8.6334980">
        <ele>38.2</ele>
        <time>2022-06-18T07:36:47Z</time>
      </trkpt>
      <trkpt lat="42.1021710" lon="-8.6334880">
        <ele>38.0</ele>
        <time>2022-06-18T07:36:48Z</time>
      </trkpt>
      <trkpt lat="42.1021810" lon="-8.6334830">
        <ele>38.0</ele>
        <time>2022-06-18T07:36:49Z</time>
      </trkpt>
      <trkpt lat="42.1021930" lon="-8.6334710">
        <ele>38.0</ele>
        <time>2022-06-18T07:36:50Z</time>
      </trkpt>
      <trkpt lat="42.1022050" lon="-8.6334600">
        <ele>38.2</ele>
        <time>2022-06-18T07:36:51Z</time>
      </trkpt>
      <trkpt lat="42.1022100" lon="-8.6334500">
        <ele>38.4</ele>
        <time>2022-06-18T07:36:52Z</time>
      </trkpt>
      <trkpt lat="42.1022180" lon="-8.6334400">
        <ele>38.4</ele>
        <time>2022-06-18T07:36:53Z</time>
      </trkpt>
      <trkpt lat="42.1022250" lon="-8.6334300">
        <ele>38.4</ele>
        <time>2022-06-18T07:36:54Z</time>
      </trkpt>
      <trkpt lat="42.1022330" lon="-8.6334200">
        <ele>38.4</ele>
        <time>2022-06-18T07:36:55Z</time>
      </trkpt>
      <trkpt lat="42.1022350" lon="-8.6334060">
        <ele>38.4</ele>
        <time>2022-06-18T07:36:56Z</time>
      </trkpt>
      <trkpt lat="42.1022400" lon="-8.6333880">
        <ele>38.4</ele>
        <time>2022-06-18T07:36:57Z</time>
      </trkpt>
      <trkpt lat="42.1022410" lon="-8.6333750">
        <ele>38.4</ele>
        <time>2022-06-18T07:36:58Z</time>
      </trkpt>
      <trkpt lat="42.1022460" lon="-8.6333600">
        <ele>39.0</ele>
        <time>2022-06-18T07:36:59Z</time>
      </trkpt>
      <trkpt lat="42.1022530" lon="-8.6333460">
        <ele>39.2</ele>
        <time>2022-06-18T07:37:00Z</time>
      </trkpt>
      <trkpt lat="42.1022600" lon="-8.6333380">
        <ele>39.2</ele>
        <time>2022-06-18T07:37:01Z</time>
      </trkpt>
      <trkpt lat="42.1022660" lon="-8.6333310">
        <ele>39.2</ele>
        <time>2022-06-18T07:37:02Z</time>
      </trkpt>
      <trkpt lat="42.1022660" lon="-8.6333180">
        <ele>39.6</ele>
        <time>2022-06-18T07:37:03Z</time>
      </trkpt>
      <trkpt lat="42.1022700" lon="-8.6333080">
        <ele>39.8</ele>
        <time>2022-06-18T07:37:04Z</time>
      </trkpt>
      <trkpt lat="42.1022760" lon="-8.6332960">
        <ele>39.8</ele>
        <time>2022-06-18T07:37:05Z</time>
      </trkpt>
      <trkpt lat="42.1022850" lon="-8.6332880">
        <ele>39.8</ele>
        <time>2022-06-18T07:37:06Z</time>
      </trkpt>
      <trkpt lat="42.1022930" lon="-8.6332880">
        <ele>39.8</ele>
        <time>2022-06-18T07:37:07Z</time>
      </trkpt>
      <trkpt lat="42.1022980" lon="-8.6332850">
        <ele>40.0</ele>
        <time>2022-06-18T07:37:08Z</time>
      </trkpt>
      <trkpt lat="42.1023060" lon="-8.6332750">
        <ele>40.0</ele>
        <time>2022-06-18T07:37:09Z</time>
      </trkpt>
      <trkpt lat="42.1023110" lon="-8.6332600">
        <ele>40.0</ele>
        <time>2022-06-18T07:37:10Z</time>
      </trkpt>
      <trkpt lat="42.1023150" lon="-8.6332430">
        <ele>40.0</ele>
        <time>2022-06-18T07:37:11Z</time>
      </trkpt>
      <trkpt lat="42.1023180" lon="-8.6332260">
        <ele>40.4</ele>
        <time>2022-06-18T07:37:12Z</time>
      </trkpt>
      <trkpt lat="42.1023230" lon="-8.6332110">
        <ele>40.4</ele>
        <time>2022-06-18T07:37:13Z</time>
      </trkpt>
      <trkpt lat="42.1023300" lon="-8.6331980">
        <ele>40.4</ele>
        <time>2022-06-18T07:37:14Z</time>
      </trkpt>
      <trkpt lat="42.1023380" lon="-8.6331880">
        <ele>40.4</ele>
        <time>2022-06-18T07:37:15Z</time>
      </trkpt>
      <trkpt lat="42.1023460" lon="-8.6331800">
        <ele>40.6</ele>
        <time>2022-06-18T07:37:16Z</time>
      </trkpt>
      <trkpt lat="42.1023550" lon="-8.6331700">
        <ele>40.6</ele>
        <time>2022-06-18T07:37:17Z</time>
      </trkpt>
      <trkpt lat="42.1023630" lon="-8.6331560">
        <ele>40.6</ele>
        <time>2022-06-18T07:37:18Z</time>
      </trkpt>
      <trkpt lat="42.1023730" lon="-8.6331430">
        <ele>41.0</ele>
        <time>2022-06-18T07:37:19Z</time>
      </trkpt>
      <trkpt lat="42.1023750" lon="-8.6331300">
        <ele>41.0</ele>
        <time>2022-06-18T07:37:20Z</time>
      </trkpt>
      <trkpt lat="42.1023850" lon="-8.6331160">
        <ele>41.0</ele>
        <time>2022-06-18T07:37:21Z</time>
      </trkpt>
      <trkpt lat="42.1023930" lon="-8.6331030">
        <ele>41.0</ele>
        <time>2022-06-18T07:37:22Z</time>
      </trkpt>
      <trkpt lat="42.1024010" lon="-8.6330860">
        <ele>41.2</ele>
        <time>2022-06-18T07:37:23Z</time>
      </trkpt>
      <trkpt lat="42.1024110" lon="-8.6330730">
        <ele>41.2</ele>
        <time>2022-06-18T07:37:24Z</time>
      </trkpt>
      <trkpt lat="42.1024200" lon="-8.6330600">
        <ele>41.2</ele>
        <time>2022-06-18T07:37:25Z</time>
      </trkpt>
      <trkpt lat="42.1024280" lon="-8.6330480">
        <ele>41.2</ele>
        <time>2022-06-18T07:37:26Z</time>
      </trkpt>
      <trkpt lat="42.1024350" lon="-8.6330350">
        <ele>42.0</ele>
        <time>2022-06-18T07:37:27Z</time>
      </trkpt>
      <trkpt lat="42.1024400" lon="-8.6330180">
        <ele>41.8</ele>
        <time>2022-06-18T07:37:28Z</time>
      </trkpt>
      <trkpt lat="42.1024460" lon="-8.6330030">
        <ele>41.8</ele>
        <time>2022-06-18T07:37:29Z</time>
      </trkpt>
      <trkpt lat="42.1024510" lon="-8.6329910">
        <ele>41.8</ele>
        <time>2022-06-18T07:37:30Z</time>
      </trkpt>
      <trkpt lat="42.1024600" lon="-8.6329780">
        <ele>41.8</ele>
        <time>2022-06-18T07:37:31Z</time>
      </trkpt>
      <trkpt lat="42.1024700" lon="-8.6329680">
        <ele>42.2</ele>
        <time>2022-06-18T07:37:32Z</time>
      </trkpt>
      <trkpt lat="42.1024810" lon="-8.6329610">
        <ele>42.2</ele>
        <time>2022-06-18T07:37:33Z</time>
      </trkpt>
      <trkpt lat="42.1024930" lon="-8.6329530">
        <ele>42.2</ele>
        <time>2022-06-18T07:37:34Z</time>
      </trkpt>
      <trkpt lat="42.1025030" lon="-8.6329380">
        <ele>42.4</ele>
        <time>2022-06-18T07:37:35Z</time>
      </trkpt>
      <trkpt lat="42.1025110" lon="-8.6329230">
        <ele>42.6</ele>
        <time>2022-06-18T07:37:36Z</time>
      </trkpt>
      <trkpt lat="42.1025200" lon="-8.6329080">
        <ele>42.6</ele>
        <time>2022-06-18T07:37:37Z</time>
      </trkpt>
      <trkpt lat="42.1025280" lon="-8.6328930">
        <ele>42.6</ele>
        <time>2022-06-18T07:37:38Z</time>
      </trkpt>
      <trkpt lat="42.1025360" lon="-8.6328800">
        <ele>42.6</ele>
        <time>2022-06-18T07:37:39Z</time>
      </trkpt>
      <trkpt lat="42.1025410" lon="-8.6328700">
        <ele>42.0</ele>
        <time>2022-06-18T07:37:40Z</time>
      </trkpt>
      <trkpt lat="42.1025510" lon="-8.6328600">
        <ele>42.0</ele>
        <time>2022-06-18T07:37:41Z</time>
      </trkpt>
      <trkpt lat="42.1025660" lon="-8.6328580">
        <ele>42.0</ele>
        <time>2022-06-18T07:37:42Z</time>
      </trkpt>
      <trkpt lat="42.1025760" lon="-8.6328630">
        <ele>42.6</ele>
        <time>2022-06-18T07:37:43Z</time>
      </trkpt>
      <trkpt lat="42.1025810" lon="-8.6328750">
        <ele>42.4</ele>
        <time>2022-06-18T07:37:44Z</time>
      </trkpt>
      <trkpt lat="42.1025780" lon="-8.6328900">
        <ele>42.4</ele>
        <time>2022-06-18T07:37:45Z</time>
      </trkpt>
      <trkpt lat="42.1025650" lon="-8.6328960">
        <ele>42.4</ele>
        <time>2022-06-18T07:37:46Z</time>
      </trkpt>
      <trkpt lat="42.1025550" lon="-8.6328910">
        <ele>42.4</ele>
        <time>2022-06-18T07:37:47Z</time>
      </trkpt>
      <trkpt lat="42.1025510" lon="-8.6328750">
        <ele>42.2</ele>
        <time>2022-06-18T07:37:48Z</time>
      </trkpt>
      <trkpt lat="42.1025580" lon="-8.6328560">
        <ele>42.2</ele>
        <time>2022-06-18T07:37:49Z</time>
      </trkpt>
      <trkpt lat="42.1025660" lon="-8.6328450">
        <ele>42.2</ele>
        <time>2022-06-18T07:37:50Z</time>
      </trkpt>
      <trkpt lat="42.1025800" lon="-8.6328400">
        <ele>42.6</ele>
        <time>2022-06-18T07:37:51Z</time>
      </trkpt>
      <trkpt lat="42.1025950" lon="-8.6328360">
        <ele>42.4</ele>
        <time>2022-06-18T07:37:52Z</time>
      </trkpt>
      <trkpt lat="42.1026110" lon="-8.6328310">
        <ele>42.4</ele>
        <time>2022-06-18T07:37:53Z</time>
      </trkpt>
      <trkpt lat="42.1026280" lon="-8.6328260">
        <ele>42.4</ele>
        <time>2022-06-18T07:37:54Z</time>
      </trkpt>
      <trkpt lat="42.1026430" lon="-8.6328200">
        <ele>42.8</ele>
        <time>2022-06-18T07:37:55Z</time>
      </trkpt>
      <trkpt lat="42.1026560" lon="-8.6328130">
        <ele>42.8</ele>
        <time>2022-06-18T07:37:56Z</time>
      </trkpt>
      <trkpt lat="42.1026730" lon="-8.6328060">
        <ele>42.8</ele>
        <time>2022-06-18T07:37:57Z</time>
      </trkpt>
      <trkpt lat="42.1026910" lon="-8.6328000">
        <ele>42.8</ele>
        <time>2022-06-18T07:37:58Z</time>
      </trkpt>
      <trkpt lat="42.1027100" lon="-8.6327950">
        <ele>42.8</ele>
        <time>2022-06-18T07:37:59Z</time>
      </trkpt>
      <trkpt lat="42.1027260" lon="-8.6327910">
        <ele>43.0</ele>
        <time>2022-06-18T07:38:00Z</time>
      </trkpt>
      <trkpt lat="42.1027430" lon="-8.6327850">
        <ele>43.0</ele>
        <time>2022-06-18T07:38:01Z</time>
      </trkpt>
      <trkpt lat="42.1027560" lon="-8.6327800">
        <ele>43.0</ele>
        <time>2022-06-18T07:38:02Z</time>
      </trkpt>
      <trkpt lat="42.1027710" lon="-8.6327730">
        <ele>43.0</ele>
        <time>2022-06-18T07:38:03Z</time>
      </trkpt>
      <trkpt lat="42.1027850" lon="-8.6327660">
        <ele>42.8</ele>
        <time>2022-06-18T07:38:04Z</time>
      </trkpt>
      <trkpt lat="42.1027960" lon="-8.6327600">
        <ele>42.8</ele>
        <time>2022-06-18T07:38:05Z</time>
      </trkpt>
      <trkpt lat="42.1028080" lon="-8.6327500">
        <ele>42.8</ele>
        <time>2022-06-18T07:38:06Z</time>
      </trkpt>
      <trkpt lat="42.1028210" lon="-8.6327380">
        <ele>42.8</ele>
        <time>2022-06-18T07:38:07Z</time>
      </trkpt>
      <trkpt lat="42.1028310" lon="-8.6327200">
        <ele>42.4</ele>
        <time>2022-06-18T07:38:08Z</time>
      </trkpt>
      <trkpt lat="42.1028430" lon="-8.6327000">
        <ele>42.4</ele>
        <time>2022-06-18T07:38:09Z</time>
      </trkpt>
      <trkpt lat="42.1028580" lon="-8.6326760">
        <ele>42.4</ele>
        <time>2022-06-18T07:38:10Z</time>
      </trkpt>
      <trkpt lat="42.1028780" lon="-8.6326530">
        <ele>42.4</ele>
        <time>2022-06-18T07:38:11Z</time>
      </trkpt>
      <trkpt lat="42.1028960" lon="-8.6326280">
        <ele>41.6</ele>
        <time>2022-06-18T07:38:12Z</time>
      </trkpt>
      <trkpt lat="42.1029160" lon="-8.6326010">
        <ele>41.6</ele>
        <time>2022-06-18T07:38:13Z</time>
      </trkpt>
      <trkpt lat="42.1029410" lon="-8.6325750">
        <ele>41.6</ele>
        <time>2022-06-18T07:38:14Z</time>
      </trkpt>
      <trkpt lat="42.1029680" lon="-8.6325460">
        <ele>40.8</ele>
        <time>2022-06-18T07:38:15Z</time>
      </trkpt>
      <trkpt lat="42.1029960" lon="-8.6325080">
        <ele>40.8</ele>
        <time>2022-06-18T07:38:16Z</time>
      </trkpt>
      <trkpt lat="42.1030250" lon="-8.6324650">
        <ele>40.8</ele>
        <time>2022-06-18T07:38:17Z</time>
      </trkpt>
      <trkpt lat="42.1030530" lon="-8.6324160">
        <ele>40.8</ele>
        <time>2022-06-18T07:38:18Z</time>
      </trkpt>
      <trkpt lat="42.1030860" lon="-8.6323650">
        <ele>39.8</ele>
        <time>2022-06-18T07:38:19Z</time>
      </trkpt>
      <trkpt lat="42.1031310" lon="-8.6323200">
        <ele>38.2</ele>
        <time>2022-06-18T07:38:20Z</time>
      </trkpt>
      <trkpt lat="42.1031760" lon="-8.6322750">
        <ele>38.2</ele>
        <time>2022-06-18T07:38:21Z</time>
      </trkpt>
      <trkpt lat="42.1032250" lon="-8.6322250">
        <ele>38.2</ele>
        <time>2022-06-18T07:38:22Z</time>
      </trkpt>
      <trkpt lat="42.1032830" lon="-8.6321860">
        <ele>37.2</ele>
        <time>2022-06-18T07:38:23Z</time>
      </trkpt>
      <trkpt lat="42.1033450" lon="-8.6321560">
        <ele>36.2</ele>
        <time>2022-06-18T07:38:24Z</time>
      </trkpt>
      <trkpt lat="42.1034080" lon="-8.6321280">
        <ele>36.2</ele>
        <time>2022-06-18T07:38:25Z</time>
      </trkpt>
      <trkpt lat="42.1034730" lon="-8.6321000">
        <ele>36.2</ele>
        <time>2022-06-18T07:38:26Z</time>
      </trkpt>
      <trkpt lat="42.1035380" lon="-8.6320700">
        <ele>35.2</ele>
        <time>2022-06-18T07:38:27Z</time>
      </trkpt>
      <trkpt lat="42.1036030" lon="-8.6320410">
        <ele>35.2</ele>
        <time>2022-06-18T07:38:28Z</time>
      </trkpt>
      <trkpt lat="42.1036680" lon="-8.6320150">
        <ele>35.2</ele>
        <time>2022-06-18T07:38:29Z</time>
      </trkpt>
      <trkpt lat="42.1037300" lon="-8.6319900">
        <ele>35.2</ele>
        <time>2022-06-18T07:38:30Z</time>
      </trkpt>
      <trkpt lat="42.1037930" lon="-8.6319730">
        <ele>35.2</ele>
        <time>2022-06-18T07:38:31Z</time>
      </trkpt>
      <trkpt lat="42.1038510" lon="-8.6319630">
        <ele>36.0</ele>
        <time>2022-06-18T07:38:32Z</time>
      </trkpt>
      <trkpt lat="42.1039080" lon="-8.6319580">
        <ele>36.0</ele>
        <time>2022-06-18T07:38:33Z</time>
      </trkpt>
      <trkpt lat="42.1039630" lon="-8.6319530">
        <ele>36.0</ele>
        <time>2022-06-18T07:38:34Z</time>
      </trkpt>
      <trkpt lat="42.1040110" lon="-8.6319460">
        <ele>37.0</ele>
        <time>2022-06-18T07:38:35Z</time>
      </trkpt>
      <trkpt lat="42.1040550" lon="-8.6319430">
        <ele>37.4</ele>
        <time>2022-06-18T07:38:36Z</time>
      </trkpt>
      <trkpt lat="42.1040910" lon="-8.6319400">
        <ele>37.4</ele>
        <time>2022-06-18T07:38:37Z</time>
      </trkpt>
      <trkpt lat="42.1041250" lon="-8.6319350">
        <ele>37.4</ele>
        <time>2022-06-18T07:38:38Z</time>
      </trkpt>
      <trkpt lat="42.1041580" lon="-8.6319300">
        <ele>38.4</ele>
        <time>2022-06-18T07:38:39Z</time>
      </trkpt>
      <trkpt lat="42.1041900" lon="-8.6319260">
        <ele>39.0</ele>
        <time>2022-06-18T07:38:40Z</time>
      </trkpt>
      <trkpt lat="42.1042200" lon="-8.6319200">
        <ele>39.0</ele>
        <time>2022-06-18T07:38:41Z</time>
      </trkpt>
      <trkpt lat="42.1042480" lon="-8.6319150">
        <ele>39.0</ele>
        <time>2022-06-18T07:38:42Z</time>
      </trkpt>
      <trkpt lat="42.1042760" lon="-8.6319060">
        <ele>39.0</ele>
        <time>2022-06-18T07:38:43Z</time>
      </trkpt>
      <trkpt lat="42.1043050" lon="-8.6319000">
        <ele>39.6</ele>
        <time>2022-06-18T07:38:44Z</time>
      </trkpt>
      <trkpt lat="42.1043350" lon="-8.6318930">
        <ele>39.6</ele>
        <time>2022-06-18T07:38:45Z</time>
      </trkpt>
      <trkpt lat="42.1043610" lon="-8.6318880">
        <ele>39.6</ele>
        <time>2022-06-18T07:38:46Z</time>
      </trkpt>
      <trkpt lat="42.1043860" lon="-8.6318760">
        <ele>39.6</ele>
        <time>2022-06-18T07:38:47Z</time>
      </trkpt>
      <trkpt lat="42.1044130" lon="-8.6318600">
        <ele>39.0</ele>
        <time>2022-06-18T07:38:48Z</time>
      </trkpt>
      <trkpt lat="42.1044430" lon="-8.6318360">
        <ele>39.0</ele>
        <time>2022-06-18T07:38:49Z</time>
      </trkpt>
      <trkpt lat="42.1044730" lon="-8.6318050">
        <ele>39.0</ele>
        <time>2022-06-18T07:38:50Z</time>
      </trkpt>
      <trkpt lat="42.1045060" lon="-8.6317680">
        <ele>38.0</ele>
        <time>2022-06-18T07:38:51Z</time>
      </trkpt>
      <trkpt lat="42.1045430" lon="-8.6317300">
        <ele>36.8</ele>
        <time>2022-06-18T07:38:52Z</time>
      </trkpt>
      <trkpt lat="42.1045830" lon="-8.6316850">
        <ele>36.8</ele>
        <time>2022-06-18T07:38:53Z</time>
      </trkpt>
      <trkpt lat="42.1046280" lon="-8.6316260">
        <ele>36.8</ele>
        <time>2022-06-18T07:38:54Z</time>
      </trkpt>
      <trkpt lat="42.1046700" lon="-8.6315530">
        <ele>35.8</ele>
        <time>2022-06-18T07:38:55Z</time>
      </trkpt>
      <trkpt lat="42.1047060" lon="-8.6314680">
        <ele>33.0</ele>
        <time>2022-06-18T07:38:56Z</time>
      </trkpt>
      <trkpt lat="42.1047360" lon="-8.6313750">
        <ele>33.0</ele>
        <time>2022-06-18T07:38:57Z</time>
      </trkpt>
      <trkpt lat="42.1047580" lon="-8.6312850">
        <ele>33.0</ele>
        <time>2022-06-18T07:38:58Z</time>
      </trkpt>
      <trkpt lat="42.1047830" lon="-8.6312060">
        <ele>32.0</ele>
        <time>2022-06-18T07:38:59Z</time>
      </trkpt>
      <trkpt lat="42.1048250" lon="-8.6311430">
        <ele>30.4</ele>
        <time>2022-06-18T07:39:00Z</time>
      </trkpt>
      <trkpt lat="42.1048800" lon="-8.6310930">
        <ele>30.4</ele>
        <time>2022-06-18T07:39:01Z</time>
      </trkpt>
      <trkpt lat="42.1049400" lon="-8.6310600">
        <ele>30.4</ele>
        <time>2022-06-18T07:39:02Z</time>
      </trkpt>
      <trkpt lat="42.1050030" lon="-8.6310300">
        <ele>29.4</ele>
        <time>2022-06-18T07:39:03Z</time>
      </trkpt>
      <trkpt lat="42.1050650" lon="-8.6310010">
        <ele>28.6</ele>
        <time>2022-06-18T07:39:04Z</time>
      </trkpt>
      <trkpt lat="42.1051300" lon="-8.6309780">
        <ele>28.6</ele>
        <time>2022-06-18T07:39:05Z</time>
      </trkpt>
      <trkpt lat="42.1051950" lon="-8.6309610">
        <ele>28.6</ele>
        <time>2022-06-18T07:39:06Z</time>
      </trkpt>
      <trkpt lat="42.1052610" lon="-8.6309530">
        <ele>29.0</ele>
        <time>2022-06-18T07:39:07Z</time>
      </trkpt>
      <trkpt lat="42.1053280" lon="-8.6309510">
        <ele>29.0</ele>
        <time>2022-06-18T07:39:08Z</time>
      </trkpt>
      <trkpt lat="42.1053910" lon="-8.6309530">
        <ele>29.0</ele>
        <time>2022-06-18T07:39:09Z</time>
      </trkpt>
      <trkpt lat="42.1054530" lon="-8.6309600">
        <ele>29.0</ele>
        <time>2022-06-18T07:39:10Z</time>
      </trkpt>
      <trkpt lat="42.1055110" lon="-8.6309660">
        <ele>29.2</ele>
        <time>2022-06-18T07:39:11Z</time>
      </trkpt>
      <trkpt lat="42.1055680" lon="-8.6309730">
        <ele>29.6</ele>
        <time>2022-06-18T07:39:12Z</time>
      </trkpt>
      <trkpt lat="42.1056210" lon="-8.6309810">
        <ele>29.6</ele>
        <time>2022-06-18T07:39:13Z</time>
      </trkpt>
      <trkpt lat="42.1056760" lon="-8.6309850">
        <ele>29.6</ele>
        <time>2022-06-18T07:39:14Z</time>
      </trkpt>
      <trkpt lat="42.1057260" lon="-8.6309860">
        <ele>29.8</ele>
        <time>2022-06-18T07:39:15Z</time>
      </trkpt>
      <trkpt lat="42.1057750" lon="-8.6309860">
        <ele>30.2</ele>
        <time>2022-06-18T07:39:16Z</time>
      </trkpt>
      <trkpt lat="42.1058200" lon="-8.6309830">
        <ele>30.2</ele>
        <time>2022-06-18T07:39:17Z</time>
      </trkpt>
      <trkpt lat="42.1058610" lon="-8.6309750">
        <ele>30.2</ele>
        <time>2022-06-18T07:39:18Z</time>
      </trkpt>
      <trkpt lat="42.1059010" lon="-8.6309680">
        <ele>30.8</ele>
        <time>2022-06-18T07:39:19Z</time>
      </trkpt>
      <trkpt lat="42.1059400" lon="-8.6309650">
        <ele>30.4</ele>
        <time>2022-06-18T07:39:20Z</time>
      </trkpt>
      <trkpt lat="42.1059810" lon="-8.6309610">
        <ele>30.4</ele>
        <time>2022-06-18T07:39:21Z</time>
      </trkpt>
      <trkpt lat="42.1060250" lon="-8.6309580">
        <ele>30.4</ele>
        <time>2022-06-18T07:39:22Z</time>
      </trkpt>
      <trkpt lat="42.1060680" lon="-8.6309560">
        <ele>30.6</ele>
        <time>2022-06-18T07:39:23Z</time>
      </trkpt>
      <trkpt lat="42.1061080" lon="-8.6309510">
        <ele>30.6</ele>
        <time>2022-06-18T07:39:24Z</time>
      </trkpt>
      <trkpt lat="42.1061500" lon="-8.6309460">
        <ele>30.6</ele>
        <time>2022-06-18T07:39:25Z</time>
      </trkpt>
      <trkpt lat="42.1061900" lon="-8.6309380">
        <ele>30.6</ele>
        <time>2022-06-18T07:39:26Z</time>
      </trkpt>
      <trkpt lat="42.1062310" lon="-8.6309280">
        <ele>30.6</ele>
        <time>2022-06-18T07:39:27Z</time>
      </trkpt>
      <trkpt lat="42.1062730" lon="-8.6309180">
        <ele>30.8</ele>
        <time>2022-06-18T07:39:28Z</time>
      </trkpt>
      <trkpt lat="42.1063110" lon="-8.6309060">
        <ele>30.8</ele>
        <time>2022-06-18T07:39:29Z</time>
      </trkpt>
      <trkpt lat="42.1063500" lon="-8.6308830">
        <ele>30.8</ele>
        <time>2022-06-18T07:39:30Z</time>
      </trkpt>
      <trkpt lat="42.1063850" lon="-8.6308600">
        <ele>30.8</ele>
        <time>2022-06-18T07:39:31Z</time>
      </trkpt>
      <trkpt lat="42.1064180" lon="-8.6308310">
        <ele>31.4</ele>
        <time>2022-06-18T07:39:32Z</time>
      </trkpt>
      <trkpt lat="42.1064460" lon="-8.6308000">
        <ele>31.4</ele>
        <time>2022-06-18T07:39:33Z</time>
      </trkpt>
      <trkpt lat="42.1064730" lon="-8.6307660">
        <ele>31.4</ele>
        <time>2022-06-18T07:39:34Z</time>
      </trkpt>
      <trkpt lat="42.1065000" lon="-8.6307380">
        <ele>32.4</ele>
        <time>2022-06-18T07:39:35Z</time>
      </trkpt>
      <trkpt lat="42.1065230" lon="-8.6307130">
        <ele>33.0</ele>
        <time>2022-06-18T07:39:36Z</time>
      </trkpt>
      <trkpt lat="42.1065450" lon="-8.6306910">
        <ele>33.0</ele>
        <time>2022-06-18T07:39:37Z</time>
      </trkpt>
      <trkpt lat="42.1065660" lon="-8.6306750">
        <ele>33.0</ele>
        <time>2022-06-18T07:39:38Z</time>
      </trkpt>
      <trkpt lat="42.1065900" lon="-8.6306560">
        <ele>33.0</ele>
        <time>2022-06-18T07:39:39Z</time>
      </trkpt>
      <trkpt lat="42.1066100" lon="-8.6306350">
        <ele>33.4</ele>
        <time>2022-06-18T07:39:40Z</time>
      </trkpt>
      <trkpt lat="42.1066300" lon="-8.6306110">
        <ele>33.4</ele>
        <time>2022-06-18T07:39:41Z</time>
      </trkpt>
      <trkpt lat="42.1066550" lon="-8.6305950">
        <ele>33.4</ele>
        <time>2022-06-18T07:39:42Z</time>
      </trkpt>
      <trkpt lat="42.1066800" lon="-8.6305810">
        <ele>33.8</ele>
        <time>2022-06-18T07:39:43Z</time>
      </trkpt>
      <trkpt lat="42.1067050" lon="-8.6305680">
        <ele>33.8</ele>
        <time>2022-06-18T07:39:44Z</time>
      </trkpt>
      <trkpt lat="42.1067310" lon="-8.6305510">
        <ele>33.8</ele>
        <time>2022-06-18T07:39:45Z</time>
      </trkpt>
      <trkpt lat="42.1067580" lon="-8.6305310">
        <ele>33.8</ele>
        <time>2022-06-18T07:39:46Z</time>
      </trkpt>
      <trkpt lat="42.1067810" lon="-8.6305110">
        <ele>33.8</ele>
        <time>2022-06-18T07:39:47Z</time>
      </trkpt>
      <trkpt lat="42.1068060" lon="-8.6304900">
        <ele>34.8</ele>
        <time>2022-06-18T07:39:48Z</time>
      </trkpt>
      <trkpt lat="42.1068350" lon="-8.6304680">
        <ele>34.8</ele>
        <time>2022-06-18T07:39:49Z</time>
      </trkpt>
      <trkpt lat="42.1068610" lon="-8.6304450">
        <ele>34.8</ele>
        <time>2022-06-18T07:39:50Z</time>
      </trkpt>
      <trkpt lat="42.1068900" lon="-8.6304250">
        <ele>34.8</ele>
        <time>2022-06-18T07:39:51Z</time>
      </trkpt>
      <trkpt lat="42.1069180" lon="-8.6304080">
        <ele>35.2</ele>
        <time>2022-06-18T07:39:52Z</time>
      </trkpt>
      <trkpt lat="42.1069450" lon="-8.6303910">
        <ele>35.2</ele>
        <time>2022-06-18T07:39:53Z</time>
      </trkpt>
      <trkpt lat="42.1069660" lon="-8.6303750">
        <ele>35.2</ele>
        <time>2022-06-18T07:39:54Z</time>
      </trkpt>
      <trkpt lat="42.1069880" lon="-8.6303550">
        <ele>35.2</ele>
        <time>2022-06-18T07:39:55Z</time>
      </trkpt>
      <trkpt lat="42.1070080" lon="-8.6303330">
        <ele>35.6</ele>
        <time>2022-06-18T07:39:56Z</time>
      </trkpt>
      <trkpt lat="42.1070300" lon="-8.6303030">
        <ele>35.6</ele>
        <time>2022-06-18T07:39:57Z</time>
      </trkpt>
      <trkpt lat="42.1070500" lon="-8.6302660">
        <ele>35.6</ele>
        <time>2022-06-18T07:39:58Z</time>
      </trkpt>
      <trkpt lat="42.1070680" lon="-8.6302310">
        <ele>35.6</ele>
        <time>2022-06-18T07:39:59Z</time>
      </trkpt>
      <trkpt lat="42.1070810" lon="-8.6301960">
        <ele>35.8</ele>
        <time>2022-06-18T07:40:00Z</time>
      </trkpt>
      <trkpt lat="42.1070900" lon="-8.6301600">
        <ele>35.8</ele>
        <time>2022-06-18T07:40:01Z</time>
      </trkpt>
      <trkpt lat="42.1070960" lon="-8.6301210">
        <ele>35.8</ele>
        <time>2022-06-18T07:40:02Z</time>
      </trkpt>
      <trkpt lat="42.1071050" lon="-8.6300810">
        <ele>35.8</ele>
        <time>2022-06-18T07:40:03Z</time>
      </trkpt>
      <trkpt lat="42.1071130" lon="-8.6300430">
        <ele>35.4</ele>
        <time>2022-06-18T07:40:04Z</time>
      </trkpt>
      <trkpt lat="42.1071200" lon="-8.6300030">
        <ele>35.4</ele>
        <time>2022-06-18T07:40:05Z</time>
      </trkpt>
      <trkpt lat="42.1071260" lon="-8.6299650">
        <ele>35.4</ele>
        <time>2022-06-18T07:40:06Z</time>
      </trkpt>
      <trkpt lat="42.1071300" lon="-8.6299250">
        <ele>35.4</ele>
        <time>2022-06-18T07:40:07Z</time>
      </trkpt>
      <trkpt lat="42.1071310" lon="-8.6298830">
        <ele>35.2</ele>
        <time>2022-06-18T07:40:08Z</time>
      </trkpt>
      <trkpt lat="42.1071330" lon="-8.6298380">
        <ele>35.2</ele>
        <time>2022-06-18T07:40:09Z</time>
      </trkpt>
      <trkpt lat="42.1071380" lon="-8.6297900">
        <ele>35.2</ele>
        <time>2022-06-18T07:40:10Z</time>
      </trkpt>
      <trkpt lat="42.1071400" lon="-8.6297410">
        <ele>35.2</ele>
        <time>2022-06-18T07:40:11Z</time>
      </trkpt>
      <trkpt lat="42.1071450" lon="-8.6296930">
        <ele>36.0</ele>
        <time>2022-06-18T07:40:12Z</time>
      </trkpt>
      <trkpt lat="42.1071480" lon="-8.6296430">
        <ele>36.0</ele>
        <time>2022-06-18T07:40:13Z</time>
      </trkpt>
      <trkpt lat="42.1071500" lon="-8.6295980">
        <ele>36.0</ele>
        <time>2022-06-18T07:40:14Z</time>
      </trkpt>
      <trkpt lat="42.1071480" lon="-8.6295530">
        <ele>35.2</ele>
        <time>2022-06-18T07:40:15Z</time>
      </trkpt>
      <trkpt lat="42.1071480" lon="-8.6295080">
        <ele>34.8</ele>
        <time>2022-06-18T07:40:16Z</time>
      </trkpt>
      <trkpt lat="42.1071480" lon="-8.6294630">
        <ele>34.8</ele>
        <time>2022-06-18T07:40:17Z</time>
      </trkpt>
      <trkpt lat="42.1071500" lon="-8.6294180">
        <ele>34.8</ele>
        <time>2022-06-18T07:40:18Z</time>
      </trkpt>
      <trkpt lat="42.1071530" lon="-8.6293750">
        <ele>34.6</ele>
        <time>2022-06-18T07:40:19Z</time>
      </trkpt>
      <trkpt lat="42.1071600" lon="-8.6293310">
        <ele>34.0</ele>
        <time>2022-06-18T07:40:20Z</time>
      </trkpt>
      <trkpt lat="42.1071660" lon="-8.6292860">
        <ele>34.0</ele>
        <time>2022-06-18T07:40:21Z</time>
      </trkpt>
      <trkpt lat="42.1071750" lon="-8.6292410">
        <ele>34.0</ele>
        <time>2022-06-18T07:40:22Z</time>
      </trkpt>
      <trkpt lat="42.1071860" lon="-8.6291980">
        <ele>34.0</ele>
        <time>2022-06-18T07:40:23Z</time>
      </trkpt>
      <trkpt lat="42.1072030" lon="-8.6291580">
        <ele>35.0</ele>
        <time>2022-06-18T07:40:24Z</time>
      </trkpt>
      <trkpt lat="42.1072230" lon="-8.6291200">
        <ele>35.0</ele>
        <time>2022-06-18T07:40:25Z</time>
      </trkpt>
      <trkpt lat="42.1072460" lon="-8.6290830">
        <ele>35.0</ele>
        <time>2022-06-18T07:40:26Z</time>
      </trkpt>
      <trkpt lat="42.1072660" lon="-8.6290430">
        <ele>35.0</ele>
        <time>2022-06-18T07:40:27Z</time>
      </trkpt>
      <trkpt lat="42.1072860" lon="-8.6290030">
        <ele>34.4</ele>
        <time>2022-06-18T07:40:28Z</time>
      </trkpt>
      <trkpt lat="42.1073100" lon="-8.6289630">
        <ele>34.4</ele>
        <time>2022-06-18T07:40:29Z</time>
      </trkpt>
      <trkpt lat="42.1073300" lon="-8.6289230">
        <ele>34.4</ele>
        <time>2022-06-18T07:40:30Z</time>
      </trkpt>
      <trkpt lat="42.1073460" lon="-8.6288830">
        <ele>34.4</ele>
        <time>2022-06-18T07:40:31Z</time>
      </trkpt>
      <trkpt lat="42.1073660" lon="-8.6288450">
        <ele>34.6</ele>
        <time>2022-06-18T07:40:32Z</time>
      </trkpt>
      <trkpt lat="42.1073850" lon="-8.6288030">
        <ele>34.6</ele>
        <time>2022-06-18T07:40:33Z</time>
      </trkpt>
      <trkpt lat="42.1074010" lon="-8.6287610">
        <ele>34.6</ele>
        <time>2022-06-18T07:40:34Z</time>
      </trkpt>
      <trkpt lat="42.1074210" lon="-8.6287230">
        <ele>34.6</ele>
        <time>2022-06-18T07:40:35Z</time>
      </trkpt>
      <trkpt lat="42.1074460" lon="-8.6286900">
        <ele>34.6</ele>
        <time>2022-06-18T07:40:36Z</time>
      </trkpt>
      <trkpt lat="42.1074680" lon="-8.6286580">
        <ele>34.6</ele>
        <time>2022-06-18T07:40:37Z</time>
      </trkpt>
      <trkpt lat="42.1074900" lon="-8.6286230">
        <ele>34.6</ele>
        <time>2022-06-18T07:40:38Z</time>
      </trkpt>
      <trkpt lat="42.1075060" lon="-8.6285860">
        <ele>34.6</ele>
        <time>2022-06-18T07:40:39Z</time>
      </trkpt>
      <trkpt lat="42.1075210" lon="-8.6285500">
        <ele>33.8</ele>
        <time>2022-06-18T07:40:40Z</time>
      </trkpt>
      <trkpt lat="42.1075380" lon="-8.6285160">
        <ele>33.8</ele>
        <time>2022-06-18T07:40:41Z</time>
      </trkpt>
      <trkpt lat="42.1075510" lon="-8.6284860">
        <ele>33.8</ele>
        <time>2022-06-18T07:40:42Z</time>
      </trkpt>
      <trkpt lat="42.1075600" lon="-8.6284650">
        <ele>34.2</ele>
        <time>2022-06-18T07:40:43Z</time>
      </trkpt>
      <trkpt lat="42.1075630" lon="-8.6284550">
        <ele>34.2</ele>
        <time>2022-06-18T07:40:44Z</time>
      </trkpt>
      <trkpt lat="42.1075680" lon="-8.6284530">
        <ele>34.6</ele>
        <time>2022-06-18T07:41:11Z</time>
      </trkpt>
      <trkpt lat="42.1075800" lon="-8.6284360">
        <ele>34.0</ele>
        <time>2022-06-18T07:41:12Z</time>
      </trkpt>
      <trkpt lat="42.1075930" lon="-8.6284180">
        <ele>34.0</ele>
        <time>2022-06-18T07:41:13Z</time>
      </trkpt>
      <trkpt lat="42.1076080" lon="-8.6283950">
        <ele>34.0</ele>
        <time>2022-06-18T07:41:14Z</time>
      </trkpt>
      <trkpt lat="42.1076230" lon="-8.6283710">
        <ele>34.4</ele>
        <time>2022-06-18T07:41:15Z</time>
      </trkpt>
      <trkpt lat="42.1076410" lon="-8.6283460">
        <ele>34.4</ele>
        <time>2022-06-18T07:41:16Z</time>
      </trkpt>
      <trkpt lat="42.1076580" lon="-8.6283210">
        <ele>34.4</ele>
        <time>2022-06-18T07:41:17Z</time>
      </trkpt>
      <trkpt lat="42.1076700" lon="-8.6282930">
        <ele>34.4</ele>
        <time>2022-06-18T07:41:18Z</time>
      </trkpt>
      <trkpt lat="42.1076850" lon="-8.6282700">
        <ele>34.0</ele>
        <time>2022-06-18T07:41:19Z</time>
      </trkpt>
      <trkpt lat="42.1077010" lon="-8.6282530">
        <ele>34.2</ele>
        <time>2022-06-18T07:41:20Z</time>
      </trkpt>
      <trkpt lat="42.1077200" lon="-8.6282380">
        <ele>34.2</ele>
        <time>2022-06-18T07:41:21Z</time>
      </trkpt>
      <trkpt lat="42.1077380" lon="-8.6282300">
        <ele>34.2</ele>
        <time>2022-06-18T07:41:22Z</time>
      </trkpt>
      <trkpt lat="42.1077600" lon="-8.6282150">
        <ele>34.2</ele>
        <time>2022-06-18T07:41:23Z</time>
      </trkpt>
      <trkpt lat="42.1077830" lon="-8.6281960">
        <ele>34.2</ele>
        <time>2022-06-18T07:41:24Z</time>
      </trkpt>
      <trkpt lat="42.1078130" lon="-8.6281830">
        <ele>34.2</ele>
        <time>2022-06-18T07:41:25Z</time>
      </trkpt>
      <trkpt lat="42.1078460" lon="-8.6281760">
        <ele>34.2</ele>
        <time>2022-06-18T07:41:26Z</time>
      </trkpt>
      <trkpt lat="42.1078800" lon="-8.6281710">
        <ele>34.0</ele>
        <time>2022-06-18T07:41:27Z</time>
      </trkpt>
      <trkpt lat="42.1079100" lon="-8.6281700">
        <ele>33.6</ele>
        <time>2022-06-18T07:41:28Z</time>
      </trkpt>
      <trkpt lat="42.1079410" lon="-8.6281660">
        <ele>33.6</ele>
        <time>2022-06-18T07:41:29Z</time>
      </trkpt>
      <trkpt lat="42.1079710" lon="-8.6281680">
        <ele>33.6</ele>
        <time>2022-06-18T07:41:30Z</time>
      </trkpt>
      <trkpt lat="42.1080060" lon="-8.6281700">
        <ele>33.6</ele>
        <time>2022-06-18T07:41:31Z</time>
      </trkpt>
      <trkpt lat="42.1080410" lon="-8.6281750">
        <ele>33.4</ele>
        <time>2022-06-18T07:41:32Z</time>
      </trkpt>
      <trkpt lat="42.1080760" lon="-8.6281760">
        <ele>33.4</ele>
        <time>2022-06-18T07:41:33Z</time>
      </trkpt>
      <trkpt lat="42.1081110" lon="-8.6281800">
        <ele>33.4</ele>
        <time>2022-06-18T07:41:34Z</time>
      </trkpt>
      <trkpt lat="42.1081460" lon="-8.6281850">
        <ele>33.4</ele>
        <time>2022-06-18T07:41:35Z</time>
      </trkpt>
      <trkpt lat="42.1081850" lon="-8.6281910">
        <ele>33.2</ele>
        <time>2022-06-18T07:41:36Z</time>
      </trkpt>
      <trkpt lat="42.1082260" lon="-8.6281960">
        <ele>33.2</ele>
        <time>2022-06-18T07:41:37Z</time>
      </trkpt>
      <trkpt lat="42.1082680" lon="-8.6282010">
        <ele>33.2</ele>
        <time>2022-06-18T07:41:38Z</time>
      </trkpt>
      <trkpt lat="42.1083160" lon="-8.6282000">
        <ele>32.4</ele>
        <time>2022-06-18T07:41:39Z</time>
      </trkpt>
      <trkpt lat="42.1083660" lon="-8.6282060">
        <ele>32.0</ele>
        <time>2022-06-18T07:41:40Z</time>
      </trkpt>
      <trkpt lat="42.1084210" lon="-8.6282160">
        <ele>32.0</ele>
        <time>2022-06-18T07:41:41Z</time>
      </trkpt>
      <trkpt lat="42.1084760" lon="-8.6282110">
        <ele>32.0</ele>
        <time>2022-06-18T07:41:42Z</time>
      </trkpt>
      <trkpt lat="42.1085360" lon="-8.6281910">
        <ele>31.0</ele>
        <time>2022-06-18T07:41:43Z</time>
      </trkpt>
      <trkpt lat="42.1085910" lon="-8.6281480">
        <ele>29.0</ele>
        <time>2022-06-18T07:41:44Z</time>
      </trkpt>
      <trkpt lat="42.1086300" lon="-8.6280760">
        <ele>29.0</ele>
        <time>2022-06-18T07:41:45Z</time>
      </trkpt>
      <trkpt lat="42.1086460" lon="-8.6279910">
        <ele>29.0</ele>
        <time>2022-06-18T07:41:46Z</time>
      </trkpt>
      <trkpt lat="42.1086500" lon="-8.6279060">
        <ele>28.0</ele>
        <time>2022-06-18T07:41:47Z</time>
      </trkpt>
      <trkpt lat="42.1086530" lon="-8.6278250">
        <ele>28.4</ele>
        <time>2022-06-18T07:41:48Z</time>
      </trkpt>
      <trkpt lat="42.1086560" lon="-8.6277460">
        <ele>28.4</ele>
        <time>2022-06-18T07:41:49Z</time>
      </trkpt>
      <trkpt lat="42.1086600" lon="-8.6276710">
        <ele>28.4</ele>
        <time>2022-06-18T07:41:50Z</time>
      </trkpt>
      <trkpt lat="42.1086630" lon="-8.6275980">
        <ele>28.4</ele>
        <time>2022-06-18T07:41:51Z</time>
      </trkpt>
      <trkpt lat="42.1086650" lon="-8.6275280">
        <ele>28.4</ele>
        <time>2022-06-18T07:41:52Z</time>
      </trkpt>
      <trkpt lat="42.1086690" lon="-8.6274260">
        <ele>28.4</ele>
        <time>2022-06-18T07:41:53Z</time>
      </trkpt>
      <trkpt lat="42.1086700" lon="-8.6273920">
        <ele>28.4</ele>
        <time>2022-06-18T07:41:54Z</time>
      </trkpt>
      <trkpt lat="42.1086730" lon="-8.6273250">
        <ele>28.8</ele>
        <time>2022-06-18T07:41:55Z</time>
      </trkpt>
      <trkpt lat="42.1086760" lon="-8.6272580">
        <ele>28.4</ele>
        <time>2022-06-18T07:41:56Z</time>
      </trkpt>
      <trkpt lat="42.1086780" lon="-8.6271910">
        <ele>28.4</ele>
        <time>2022-06-18T07:41:57Z</time>
      </trkpt>
      <trkpt lat="42.1086800" lon="-8.6271260">
        <ele>28.4</ele>
        <time>2022-06-18T07:41:58Z</time>
      </trkpt>
      <trkpt lat="42.1086810" lon="-8.6270610">
        <ele>28.4</ele>
        <time>2022-06-18T07:41:59Z</time>
      </trkpt>
      <trkpt lat="42.1086830" lon="-8.6269960">
        <ele>28.8</ele>
        <time>2022-06-18T07:42:00Z</time>
      </trkpt>
      <trkpt lat="42.1086880" lon="-8.6269300">
        <ele>28.8</ele>
        <time>2022-06-18T07:42:01Z</time>
      </trkpt>
      <trkpt lat="42.1086900" lon="-8.6268630">
        <ele>28.8</ele>
        <time>2022-06-18T07:42:02Z</time>
      </trkpt>
      <trkpt lat="42.1086910" lon="-8.6267960">
        <ele>28.8</ele>
        <time>2022-06-18T07:42:03Z</time>
      </trkpt>
      <trkpt lat="42.1086930" lon="-8.6267310">
        <ele>28.4</ele>
        <time>2022-06-18T07:42:04Z</time>
      </trkpt>
      <trkpt lat="42.1086930" lon="-8.6266630">
        <ele>28.4</ele>
        <time>2022-06-18T07:42:05Z</time>
      </trkpt>
      <trkpt lat="42.1086950" lon="-8.6265960">
        <ele>28.4</ele>
        <time>2022-06-18T07:42:06Z</time>
      </trkpt>
      <trkpt lat="42.1086960" lon="-8.6265300">
        <ele>28.6</ele>
        <time>2022-06-18T07:42:07Z</time>
      </trkpt>
      <trkpt lat="42.1086960" lon="-8.6264630">
        <ele>28.4</ele>
        <time>2022-06-18T07:42:08Z</time>
      </trkpt>
      <trkpt lat="42.1087000" lon="-8.6263930">
        <ele>28.4</ele>
        <time>2022-06-18T07:42:09Z</time>
      </trkpt>
      <trkpt lat="42.1087010" lon="-8.6263250">
        <ele>28.4</ele>
        <time>2022-06-18T07:42:10Z</time>
      </trkpt>
      <trkpt lat="42.1087030" lon="-8.6262560">
        <ele>28.4</ele>
        <time>2022-06-18T07:42:11Z</time>
      </trkpt>
      <trkpt lat="42.1087050" lon="-8.6261900">
        <ele>28.8</ele>
        <time>2022-06-18T07:42:12Z</time>
      </trkpt>
      <trkpt lat="42.1087080" lon="-8.6261230">
        <ele>28.8</ele>
        <time>2022-06-18T07:42:13Z</time>
      </trkpt>
      <trkpt lat="42.1087100" lon="-8.6260560">
        <ele>28.8</ele>
        <time>2022-06-18T07:42:14Z</time>
      </trkpt>
      <trkpt lat="42.1087150" lon="-8.6259900">
        <ele>28.8</ele>
        <time>2022-06-18T07:42:15Z</time>
      </trkpt>
      <trkpt lat="42.1087180" lon="-8.6259260">
        <ele>28.6</ele>
        <time>2022-06-18T07:42:16Z</time>
      </trkpt>
      <trkpt lat="42.1087230" lon="-8.6258660">
        <ele>28.6</ele>
        <time>2022-06-18T07:42:17Z</time>
      </trkpt>
      <trkpt lat="42.1087300" lon="-8.6258110">
        <ele>28.6</ele>
        <time>2022-06-18T07:42:18Z</time>
      </trkpt>
      <trkpt lat="42.1087450" lon="-8.6257630">
        <ele>29.4</ele>
        <time>2022-06-18T07:42:19Z</time>
      </trkpt>
      <trkpt lat="42.1087710" lon="-8.6257210">
        <ele>29.8</ele>
        <time>2022-06-18T07:42:20Z</time>
      </trkpt>
      <trkpt lat="42.1088060" lon="-8.6256910">
        <ele>29.8</ele>
        <time>2022-06-18T07:42:21Z</time>
      </trkpt>
      <trkpt lat="42.1088480" lon="-8.6256700">
        <ele>29.8</ele>
        <time>2022-06-18T07:42:22Z</time>
      </trkpt>
      <trkpt lat="42.1088930" lon="-8.6256560">
        <ele>29.0</ele>
        <time>2022-06-18T07:42:23Z</time>
      </trkpt>
      <trkpt lat="42.1089410" lon="-8.6256480">
        <ele>28.4</ele>
        <time>2022-06-18T07:42:24Z</time>
      </trkpt>
      <trkpt lat="42.1089900" lon="-8.6256450">
        <ele>28.4</ele>
        <time>2022-06-18T07:42:25Z</time>
      </trkpt>
      <trkpt lat="42.1090380" lon="-8.6256450">
        <ele>28.4</ele>
        <time>2022-06-18T07:42:26Z</time>
      </trkpt>
      <trkpt lat="42.1090880" lon="-8.6256460">
        <ele>28.6</ele>
        <time>2022-06-18T07:42:27Z</time>
      </trkpt>
      <trkpt lat="42.1091380" lon="-8.6256500">
        <ele>28.4</ele>
        <time>2022-06-18T07:42:28Z</time>
      </trkpt>
      <trkpt lat="42.1091880" lon="-8.6256560">
        <ele>28.4</ele>
        <time>2022-06-18T07:42:29Z</time>
      </trkpt>
      <trkpt lat="42.1092400" lon="-8.6256610">
        <ele>28.4</ele>
        <time>2022-06-18T07:42:30Z</time>
      </trkpt>
      <trkpt lat="42.1092930" lon="-8.6256660">
        <ele>28.4</ele>
        <time>2022-06-18T07:42:31Z</time>
      </trkpt>
      <trkpt lat="42.1093460" lon="-8.6256700">
        <ele>27.8</ele>
        <time>2022-06-18T07:42:32Z</time>
      </trkpt>
      <trkpt lat="42.1094000" lon="-8.6256730">
        <ele>27.8</ele>
        <time>2022-06-18T07:42:33Z</time>
      </trkpt>
      <trkpt lat="42.1094530" lon="-8.6256760">
        <ele>27.8</ele>
        <time>2022-06-18T07:42:34Z</time>
      </trkpt>
      <trkpt lat="42.1095080" lon="-8.6256730">
        <ele>27.8</ele>
        <time>2022-06-18T07:42:35Z</time>
      </trkpt>
      <trkpt lat="42.1095610" lon="-8.6256750">
        <ele>27.6</ele>
        <time>2022-06-18T07:42:36Z</time>
      </trkpt>
      <trkpt lat="42.1096210" lon="-8.6256760">
        <ele>27.6</ele>
        <time>2022-06-18T07:42:37Z</time>
      </trkpt>
      <trkpt lat="42.1096810" lon="-8.6256780">
        <ele>27.6</ele>
        <time>2022-06-18T07:42:38Z</time>
      </trkpt>
      <trkpt lat="42.1097400" lon="-8.6256780">
        <ele>27.0</ele>
        <time>2022-06-18T07:42:39Z</time>
      </trkpt>
      <trkpt lat="42.1097980" lon="-8.6256830">
        <ele>27.0</ele>
        <time>2022-06-18T07:42:40Z</time>
      </trkpt>
      <trkpt lat="42.1098580" lon="-8.6256880">
        <ele>27.0</ele>
        <time>2022-06-18T07:42:41Z</time>
      </trkpt>
      <trkpt lat="42.1099160" lon="-8.6256930">
        <ele>27.0</ele>
        <time>2022-06-18T07:42:42Z</time>
      </trkpt>
      <trkpt lat="42.1099780" lon="-8.6256960">
        <ele>26.0</ele>
        <time>2022-06-18T07:42:43Z</time>
      </trkpt>
      <trkpt lat="42.1100410" lon="-8.6257000">
        <ele>25.8</ele>
        <time>2022-06-18T07:42:44Z</time>
      </trkpt>
      <trkpt lat="42.1101060" lon="-8.6257010">
        <ele>25.8</ele>
        <time>2022-06-18T07:42:45Z</time>
      </trkpt>
      <trkpt lat="42.1101730" lon="-8.6257050">
        <ele>25.8</ele>
        <time>2022-06-18T07:42:46Z</time>
      </trkpt>
      <trkpt lat="42.1102400" lon="-8.6257060">
        <ele>25.0</ele>
        <time>2022-06-18T07:42:47Z</time>
      </trkpt>
      <trkpt lat="42.1103080" lon="-8.6257080">
        <ele>24.8</ele>
        <time>2022-06-18T07:42:48Z</time>
      </trkpt>
      <trkpt lat="42.1103760" lon="-8.6257130">
        <ele>24.8</ele>
        <time>2022-06-18T07:42:49Z</time>
      </trkpt>
      <trkpt lat="42.1104480" lon="-8.6257180">
        <ele>24.8</ele>
        <time>2022-06-18T07:42:50Z</time>
      </trkpt>
      <trkpt lat="42.1105180" lon="-8.6257230">
        <ele>23.8</ele>
        <time>2022-06-18T07:42:51Z</time>
      </trkpt>
      <trkpt lat="42.1105910" lon="-8.6257260">
        <ele>23.0</ele>
        <time>2022-06-18T07:42:52Z</time>
      </trkpt>
      <trkpt lat="42.1106650" lon="-8.6257300">
        <ele>23.0</ele>
        <time>2022-06-18T07:42:53Z</time>
      </trkpt>
      <trkpt lat="42.1107410" lon="-8.6257330">
        <ele>23.0</ele>
        <time>2022-06-18T07:42:54Z</time>
      </trkpt>
      <trkpt lat="42.1108160" lon="-8.6257380">
        <ele>23.0</ele>
        <time>2022-06-18T07:42:55Z</time>
      </trkpt>
      <trkpt lat="42.1108930" lon="-8.6257430">
        <ele>21.0</ele>
        <time>2022-06-18T07:42:56Z</time>
      </trkpt>
      <trkpt lat="42.1109680" lon="-8.6257500">
        <ele>21.0</ele>
        <time>2022-06-18T07:42:57Z</time>
      </trkpt>
      <trkpt lat="42.1110450" lon="-8.6257550">
        <ele>21.0</ele>
        <time>2022-06-18T07:42:58Z</time>
      </trkpt>
      <trkpt lat="42.1111210" lon="-8.6257560">
        <ele>20.4</ele>
        <time>2022-06-18T07:42:59Z</time>
      </trkpt>
      <trkpt lat="42.1111960" lon="-8.6257580">
        <ele>20.0</ele>
        <time>2022-06-18T07:43:00Z</time>
      </trkpt>
      <trkpt lat="42.1112710" lon="-8.6257630">
        <ele>20.0</ele>
        <time>2022-06-18T07:43:01Z</time>
      </trkpt>
      <trkpt lat="42.1113450" lon="-8.6257660">
        <ele>20.0</ele>
        <time>2022-06-18T07:43:02Z</time>
      </trkpt>
      <trkpt lat="42.1114130" lon="-8.6257730">
        <ele>20.6</ele>
        <time>2022-06-18T07:43:03Z</time>
      </trkpt>
      <trkpt lat="42.1114830" lon="-8.6257780">
        <ele>20.6</ele>
        <time>2022-06-18T07:43:04Z</time>
      </trkpt>
      <trkpt lat="42.1115510" lon="-8.6257800">
        <ele>20.6</ele>
        <time>2022-06-18T07:43:05Z</time>
      </trkpt>
      <trkpt lat="42.1116210" lon="-8.6257850">
        <ele>20.6</ele>
        <time>2022-06-18T07:43:06Z</time>
      </trkpt>
      <trkpt lat="42.1116880" lon="-8.6257860">
        <ele>21.2</ele>
        <time>2022-06-18T07:43:07Z</time>
      </trkpt>
      <trkpt lat="42.1117530" lon="-8.6257880">
        <ele>21.2</ele>
        <time>2022-06-18T07:43:08Z</time>
      </trkpt>
      <trkpt lat="42.1118180" lon="-8.6257900">
        <ele>21.2</ele>
        <time>2022-06-18T07:43:09Z</time>
      </trkpt>
      <trkpt lat="42.1118810" lon="-8.6257900">
        <ele>21.2</ele>
        <time>2022-06-18T07:43:10Z</time>
      </trkpt>
      <trkpt lat="42.1119430" lon="-8.6257930">
        <ele>20.8</ele>
        <time>2022-06-18T07:43:11Z</time>
      </trkpt>
      <trkpt lat="42.1120030" lon="-8.6257980">
        <ele>20.8</ele>
        <time>2022-06-18T07:43:12Z</time>
      </trkpt>
      <trkpt lat="42.1120630" lon="-8.6258030">
        <ele>20.8</ele>
        <time>2022-06-18T07:43:13Z</time>
      </trkpt>
      <trkpt lat="42.1121200" lon="-8.6258100">
        <ele>20.8</ele>
        <time>2022-06-18T07:43:14Z</time>
      </trkpt>
      <trkpt lat="42.1121780" lon="-8.6258150">
        <ele>20.8</ele>
        <time>2022-06-18T07:43:15Z</time>
      </trkpt>
      <trkpt lat="42.1122360" lon="-8.6258180">
        <ele>21.2</ele>
        <time>2022-06-18T07:43:16Z</time>
      </trkpt>
      <trkpt lat="42.1122930" lon="-8.6258210">
        <ele>21.2</ele>
        <time>2022-06-18T07:43:17Z</time>
      </trkpt>
      <trkpt lat="42.1123510" lon="-8.6258230">
        <ele>21.2</ele>
        <time>2022-06-18T07:43:18Z</time>
      </trkpt>
      <trkpt lat="42.1124080" lon="-8.6258260">
        <ele>21.2</ele>
        <time>2022-06-18T07:43:19Z</time>
      </trkpt>
      <trkpt lat="42.1124630" lon="-8.6258300">
        <ele>21.4</ele>
        <time>2022-06-18T07:43:20Z</time>
      </trkpt>
      <trkpt lat="42.1125180" lon="-8.6258330">
        <ele>21.4</ele>
        <time>2022-06-18T07:43:21Z</time>
      </trkpt>
      <trkpt lat="42.1125710" lon="-8.6258400">
        <ele>21.4</ele>
        <time>2022-06-18T07:43:22Z</time>
      </trkpt>
      <trkpt lat="42.1126260" lon="-8.6258430">
        <ele>21.4</ele>
        <time>2022-06-18T07:43:23Z</time>
      </trkpt>
      <trkpt lat="42.1126780" lon="-8.6258510">
        <ele>21.0</ele>
        <time>2022-06-18T07:43:24Z</time>
      </trkpt>
      <trkpt lat="42.1127330" lon="-8.6258560">
        <ele>21.0</ele>
        <time>2022-06-18T07:43:25Z</time>
      </trkpt>
      <trkpt lat="42.1127880" lon="-8.6258600">
        <ele>21.0</ele>
        <time>2022-06-18T07:43:26Z</time>
      </trkpt>
      <trkpt lat="42.1128430" lon="-8.6258630">
        <ele>21.0</ele>
        <time>2022-06-18T07:43:27Z</time>
      </trkpt>
      <trkpt lat="42.1128960" lon="-8.6258680">
        <ele>21.2</ele>
        <time>2022-06-18T07:43:28Z</time>
      </trkpt>
      <trkpt lat="42.1129510" lon="-8.6258700">
        <ele>21.2</ele>
        <time>2022-06-18T07:43:29Z</time>
      </trkpt>
      <trkpt lat="42.1130080" lon="-8.6258710">
        <ele>21.2</ele>
        <time>2022-06-18T07:43:30Z</time>
      </trkpt>
      <trkpt lat="42.1130630" lon="-8.6258730">
        <ele>21.2</ele>
        <time>2022-06-18T07:43:31Z</time>
      </trkpt>
      <trkpt lat="42.1131180" lon="-8.6258780">
        <ele>21.2</ele>
        <time>2022-06-18T07:43:32Z</time>
      </trkpt>
      <trkpt lat="42.1131710" lon="-8.6258780">
        <ele>21.2</ele>
        <time>2022-06-18T07:43:33Z</time>
      </trkpt>
      <trkpt lat="42.1132250" lon="-8.6258810">
        <ele>21.2</ele>
        <time>2022-06-18T07:43:34Z</time>
      </trkpt>
      <trkpt lat="42.1132780" lon="-8.6258860">
        <ele>21.0</ele>
        <time>2022-06-18T07:43:35Z</time>
      </trkpt>
      <trkpt lat="42.1133310" lon="-8.6258910">
        <ele>21.8</ele>
        <time>2022-06-18T07:43:36Z</time>
      </trkpt>
      <trkpt lat="42.1133860" lon="-8.6258960">
        <ele>21.8</ele>
        <time>2022-06-18T07:43:37Z</time>
      </trkpt>
      <trkpt lat="42.1134410" lon="-8.6259010">
        <ele>21.8</ele>
        <time>2022-06-18T07:43:38Z</time>
      </trkpt>
      <trkpt lat="42.1134960" lon="-8.6259010">
        <ele>21.0</ele>
        <time>2022-06-18T07:43:39Z</time>
      </trkpt>
      <trkpt lat="42.1135500" lon="-8.6259060">
        <ele>21.0</ele>
        <time>2022-06-18T07:43:40Z</time>
      </trkpt>
      <trkpt lat="42.1136030" lon="-8.6259100">
        <ele>21.0</ele>
        <time>2022-06-18T07:43:41Z</time>
      </trkpt>
      <trkpt lat="42.1136600" lon="-8.6259150">
        <ele>21.0</ele>
        <time>2022-06-18T07:43:42Z</time>
      </trkpt>
      <trkpt lat="42.1137160" lon="-8.6259180">
        <ele>21.0</ele>
        <time>2022-06-18T07:43:43Z</time>
      </trkpt>
      <trkpt lat="42.1137710" lon="-8.6259250">
        <ele>21.6</ele>
        <time>2022-06-18T07:43:44Z</time>
      </trkpt>
      <trkpt lat="42.1138260" lon="-8.6259280">
        <ele>21.6</ele>
        <time>2022-06-18T07:43:45Z</time>
      </trkpt>
      <trkpt lat="42.1138830" lon="-8.6259310">
        <ele>21.6</ele>
        <time>2022-06-18T07:43:46Z</time>
      </trkpt>
      <trkpt lat="42.1139430" lon="-8.6259310">
        <ele>21.2</ele>
        <time>2022-06-18T07:43:47Z</time>
      </trkpt>
      <trkpt lat="42.1140010" lon="-8.6259330">
        <ele>21.2</ele>
        <time>2022-06-18T07:43:48Z</time>
      </trkpt>
      <trkpt lat="42.1140560" lon="-8.6259350">
        <ele>21.2</ele>
        <time>2022-06-18T07:43:49Z</time>
      </trkpt>
      <trkpt lat="42.1141110" lon="-8.6259400">
        <ele>21.2</ele>
        <time>2022-06-18T07:43:50Z</time>
      </trkpt>
      <trkpt lat="42.1141600" lon="-8.6259510">
        <ele>21.2</ele>
        <time>2022-06-18T07:43:51Z</time>
      </trkpt>
      <trkpt lat="42.1142100" lon="-8.6259580">
        <ele>21.0</ele>
        <time>2022-06-18T07:43:52Z</time>
      </trkpt>
      <trkpt lat="42.1142600" lon="-8.6259610">
        <ele>21.0</ele>
        <time>2022-06-18T07:43:53Z</time>
      </trkpt>
      <trkpt lat="42.1143080" lon="-8.6259650">
        <ele>21.0</ele>
        <time>2022-06-18T07:43:54Z</time>
      </trkpt>
      <trkpt lat="42.1143580" lon="-8.6259660">
        <ele>21.0</ele>
        <time>2022-06-18T07:43:55Z</time>
      </trkpt>
      <trkpt lat="42.1144100" lon="-8.6259630">
        <ele>20.6</ele>
        <time>2022-06-18T07:43:56Z</time>
      </trkpt>
      <trkpt lat="42.1144600" lon="-8.6259610">
        <ele>20.6</ele>
        <time>2022-06-18T07:43:57Z</time>
      </trkpt>
      <trkpt lat="42.1145100" lon="-8.6259630">
        <ele>20.6</ele>
        <time>2022-06-18T07:43:58Z</time>
      </trkpt>
      <trkpt lat="42.1145600" lon="-8.6259660">
        <ele>20.8</ele>
        <time>2022-06-18T07:43:59Z</time>
      </trkpt>
      <trkpt lat="42.1146110" lon="-8.6259680">
        <ele>20.8</ele>
        <time>2022-06-18T07:44:00Z</time>
      </trkpt>
      <trkpt lat="42.1146610" lon="-8.6259680">
        <ele>20.8</ele>
        <time>2022-06-18T07:44:01Z</time>
      </trkpt>
      <trkpt lat="42.1147110" lon="-8.6259660">
        <ele>20.8</ele>
        <time>2022-06-18T07:44:02Z</time>
      </trkpt>
      <trkpt lat="42.1147650" lon="-8.6259680">
        <ele>21.0</ele>
        <time>2022-06-18T07:44:03Z</time>
      </trkpt>
      <trkpt lat="42.1148180" lon="-8.6259660">
        <ele>20.8</ele>
        <time>2022-06-18T07:44:04Z</time>
      </trkpt>
      <trkpt lat="42.1148710" lon="-8.6259660">
        <ele>20.8</ele>
        <time>2022-06-18T07:44:05Z</time>
      </trkpt>
      <trkpt lat="42.1149250" lon="-8.6259680">
        <ele>20.8</ele>
        <time>2022-06-18T07:44:06Z</time>
      </trkpt>
      <trkpt lat="42.1149780" lon="-8.6259700">
        <ele>20.8</ele>
        <time>2022-06-18T07:44:07Z</time>
      </trkpt>
      <trkpt lat="42.1150330" lon="-8.6259710">
        <ele>21.0</ele>
        <time>2022-06-18T07:44:08Z</time>
      </trkpt>
      <trkpt lat="42.1150860" lon="-8.6259750">
        <ele>21.0</ele>
        <time>2022-06-18T07:44:09Z</time>
      </trkpt>
      <trkpt lat="42.1151380" lon="-8.6259750">
        <ele>21.0</ele>
        <time>2022-06-18T07:44:10Z</time>
      </trkpt>
      <trkpt lat="42.1151900" lon="-8.6259800">
        <ele>21.0</ele>
        <time>2022-06-18T07:44:11Z</time>
      </trkpt>
      <trkpt lat="42.1152410" lon="-8.6259810">
        <ele>21.0</ele>
        <time>2022-06-18T07:44:12Z</time>
      </trkpt>
      <trkpt lat="42.1152930" lon="-8.6259850">
        <ele>21.0</ele>
        <time>2022-06-18T07:44:13Z</time>
      </trkpt>
      <trkpt lat="42.1153460" lon="-8.6259860">
        <ele>21.0</ele>
        <time>2022-06-18T07:44:14Z</time>
      </trkpt>
      <trkpt lat="42.1154000" lon="-8.6259850">
        <ele>20.6</ele>
        <time>2022-06-18T07:44:15Z</time>
      </trkpt>
      <trkpt lat="42.1154530" lon="-8.6259850">
        <ele>21.0</ele>
        <time>2022-06-18T07:44:16Z</time>
      </trkpt>
      <trkpt lat="42.1155060" lon="-8.6259880">
        <ele>21.0</ele>
        <time>2022-06-18T07:44:17Z</time>
      </trkpt>
      <trkpt lat="42.1155600" lon="-8.6259950">
        <ele>21.0</ele>
        <time>2022-06-18T07:44:18Z</time>
      </trkpt>
      <trkpt lat="42.1156150" lon="-8.6260010">
        <ele>21.0</ele>
        <time>2022-06-18T07:44:19Z</time>
      </trkpt>
      <trkpt lat="42.1156710" lon="-8.6260030">
        <ele>20.6</ele>
        <time>2022-06-18T07:44:20Z</time>
      </trkpt>
      <trkpt lat="42.1157280" lon="-8.6260030">
        <ele>20.6</ele>
        <time>2022-06-18T07:44:21Z</time>
      </trkpt>
      <trkpt lat="42.1157830" lon="-8.6260050">
        <ele>20.6</ele>
        <time>2022-06-18T07:44:22Z</time>
      </trkpt>
      <trkpt lat="42.1158380" lon="-8.6260060">
        <ele>20.6</ele>
        <time>2022-06-18T07:44:23Z</time>
      </trkpt>
      <trkpt lat="42.1158930" lon="-8.6260100">
        <ele>20.6</ele>
        <time>2022-06-18T07:44:24Z</time>
      </trkpt>
      <trkpt lat="42.1159480" lon="-8.6260130">
        <ele>20.6</ele>
        <time>2022-06-18T07:44:25Z</time>
      </trkpt>
      <trkpt lat="42.1160030" lon="-8.6260150">
        <ele>20.6</ele>
        <time>2022-06-18T07:44:26Z</time>
      </trkpt>
      <trkpt lat="42.1160580" lon="-8.6260180">
        <ele>20.8</ele>
        <time>2022-06-18T07:44:27Z</time>
      </trkpt>
      <trkpt lat="42.1161110" lon="-8.6260210">
        <ele>21.0</ele>
        <time>2022-06-18T07:44:28Z</time>
      </trkpt>
      <trkpt lat="42.1161650" lon="-8.6260250">
        <ele>21.0</ele>
        <time>2022-06-18T07:44:29Z</time>
      </trkpt>
      <trkpt lat="42.1162160" lon="-8.6260300">
        <ele>21.0</ele>
        <time>2022-06-18T07:44:30Z</time>
      </trkpt>
      <trkpt lat="42.1162660" lon="-8.6260310">
        <ele>21.0</ele>
        <time>2022-06-18T07:44:31Z</time>
      </trkpt>
      <trkpt lat="42.1163130" lon="-8.6260350">
        <ele>21.4</ele>
        <time>2022-06-18T07:44:32Z</time>
      </trkpt>
      <trkpt lat="42.1163630" lon="-8.6260330">
        <ele>21.4</ele>
        <time>2022-06-18T07:44:33Z</time>
      </trkpt>
      <trkpt lat="42.1164080" lon="-8.6260330">
        <ele>21.4</ele>
        <time>2022-06-18T07:44:34Z</time>
      </trkpt>
      <trkpt lat="42.1164530" lon="-8.6260350">
        <ele>22.0</ele>
        <time>2022-06-18T07:44:35Z</time>
      </trkpt>
      <trkpt lat="42.1164980" lon="-8.6260350">
        <ele>22.0</ele>
        <time>2022-06-18T07:44:36Z</time>
      </trkpt>
      <trkpt lat="42.1165400" lon="-8.6260380">
        <ele>22.0</ele>
        <time>2022-06-18T07:44:37Z</time>
      </trkpt>
      <trkpt lat="42.1165810" lon="-8.6260410">
        <ele>22.0</ele>
        <time>2022-06-18T07:44:38Z</time>
      </trkpt>
      <trkpt lat="42.1166230" lon="-8.6260450">
        <ele>22.0</ele>
        <time>2022-06-18T07:44:39Z</time>
      </trkpt>
      <trkpt lat="42.1166630" lon="-8.6260480">
        <ele>21.4</ele>
        <time>2022-06-18T07:44:40Z</time>
      </trkpt>
      <trkpt lat="42.1167050" lon="-8.6260500">
        <ele>21.4</ele>
        <time>2022-06-18T07:44:41Z</time>
      </trkpt>
      <trkpt lat="42.1167450" lon="-8.6260500">
        <ele>21.4</ele>
        <time>2022-06-18T07:44:42Z</time>
      </trkpt>
      <trkpt lat="42.1167850" lon="-8.6260510">
        <ele>21.6</ele>
        <time>2022-06-18T07:44:43Z</time>
      </trkpt>
      <trkpt lat="42.1168260" lon="-8.6260550">
        <ele>21.6</ele>
        <time>2022-06-18T07:44:44Z</time>
      </trkpt>
      <trkpt lat="42.1168660" lon="-8.6260580">
        <ele>21.6</ele>
        <time>2022-06-18T07:44:45Z</time>
      </trkpt>
      <trkpt lat="42.1169080" lon="-8.6260600">
        <ele>21.6</ele>
        <time>2022-06-18T07:44:46Z</time>
      </trkpt>
      <trkpt lat="42.1169500" lon="-8.6260600">
        <ele>21.6</ele>
        <time>2022-06-18T07:44:47Z</time>
      </trkpt>
      <trkpt lat="42.1169930" lon="-8.6260610">
        <ele>21.2</ele>
        <time>2022-06-18T07:44:48Z</time>
      </trkpt>
      <trkpt lat="42.1170350" lon="-8.6260630">
        <ele>21.2</ele>
        <time>2022-06-18T07:44:49Z</time>
      </trkpt>
      <trkpt lat="42.1170760" lon="-8.6260660">
        <ele>21.2</ele>
        <time>2022-06-18T07:44:50Z</time>
      </trkpt>
      <trkpt lat="42.1171180" lon="-8.6260700">
        <ele>21.2</ele>
        <time>2022-06-18T07:44:51Z</time>
      </trkpt>
      <trkpt lat="42.1171600" lon="-8.6260710">
        <ele>21.6</ele>
        <time>2022-06-18T07:44:52Z</time>
      </trkpt>
      <trkpt lat="42.1172030" lon="-8.6260730">
        <ele>21.6</ele>
        <time>2022-06-18T07:44:53Z</time>
      </trkpt>
      <trkpt lat="42.1172450" lon="-8.6260730">
        <ele>21.6</ele>
        <time>2022-06-18T07:44:54Z</time>
      </trkpt>
      <trkpt lat="42.1172860" lon="-8.6260750">
        <ele>21.4</ele>
        <time>2022-06-18T07:44:55Z</time>
      </trkpt>
      <trkpt lat="42.1173280" lon="-8.6260780">
        <ele>21.6</ele>
        <time>2022-06-18T07:44:56Z</time>
      </trkpt>
      <trkpt lat="42.1173700" lon="-8.6260810">
        <ele>21.6</ele>
        <time>2022-06-18T07:44:57Z</time>
      </trkpt>
      <trkpt lat="42.1174130" lon="-8.6260850">
        <ele>21.6</ele>
        <time>2022-06-18T07:44:58Z</time>
      </trkpt>
      <trkpt lat="42.1174560" lon="-8.6260880">
        <ele>21.6</ele>
        <time>2022-06-18T07:44:59Z</time>
      </trkpt>
      <trkpt lat="42.1175000" lon="-8.6260930">
        <ele>21.6</ele>
        <time>2022-06-18T07:45:00Z</time>
      </trkpt>
      <trkpt lat="42.1175450" lon="-8.6260980">
        <ele>21.6</ele>
        <time>2022-06-18T07:45:01Z</time>
      </trkpt>
      <trkpt lat="42.1175900" lon="-8.6261010">
        <ele>21.6</ele>
        <time>2022-06-18T07:45:02Z</time>
      </trkpt>
      <trkpt lat="42.1176330" lon="-8.6261050">
        <ele>21.6</ele>
        <time>2022-06-18T07:45:03Z</time>
      </trkpt>
      <trkpt lat="42.1176760" lon="-8.6261060">
        <ele>21.4</ele>
        <time>2022-06-18T07:45:04Z</time>
      </trkpt>
      <trkpt lat="42.1177200" lon="-8.6261050">
        <ele>21.4</ele>
        <time>2022-06-18T07:45:05Z</time>
      </trkpt>
      <trkpt lat="42.1177650" lon="-8.6261050">
        <ele>21.4</ele>
        <time>2022-06-18T07:45:06Z</time>
      </trkpt>
      <trkpt lat="42.1178060" lon="-8.6261080">
        <ele>22.0</ele>
        <time>2022-06-18T07:45:07Z</time>
      </trkpt>
      <trkpt lat="42.1178500" lon="-8.6261110">
        <ele>21.6</ele>
        <time>2022-06-18T07:45:08Z</time>
      </trkpt>
      <trkpt lat="42.1178950" lon="-8.6261130">
        <ele>21.6</ele>
        <time>2022-06-18T07:45:09Z</time>
      </trkpt>
      <trkpt lat="42.1179400" lon="-8.6261150">
        <ele>21.6</ele>
        <time>2022-06-18T07:45:10Z</time>
      </trkpt>
      <trkpt lat="42.1179810" lon="-8.6261180">
        <ele>21.6</ele>
        <time>2022-06-18T07:45:11Z</time>
      </trkpt>
      <trkpt lat="42.1180210" lon="-8.6261200">
        <ele>21.8</ele>
        <time>2022-06-18T07:45:12Z</time>
      </trkpt>
      <trkpt lat="42.1180630" lon="-8.6261210">
        <ele>21.8</ele>
        <time>2022-06-18T07:45:13Z</time>
      </trkpt>
      <trkpt lat="42.1181050" lon="-8.6261250">
        <ele>21.8</ele>
        <time>2022-06-18T07:45:14Z</time>
      </trkpt>
      <trkpt lat="42.1181500" lon="-8.6261250">
        <ele>21.2</ele>
        <time>2022-06-18T07:45:15Z</time>
      </trkpt>
      <trkpt lat="42.1181950" lon="-8.6261230">
        <ele>21.6</ele>
        <time>2022-06-18T07:45:16Z</time>
      </trkpt>
      <trkpt lat="42.1182400" lon="-8.6261250">
        <ele>21.6</ele>
        <time>2022-06-18T07:45:17Z</time>
      </trkpt>
      <trkpt lat="42.1182850" lon="-8.6261260">
        <ele>21.6</ele>
        <time>2022-06-18T07:45:18Z</time>
      </trkpt>
      <trkpt lat="42.1183280" lon="-8.6261310">
        <ele>21.6</ele>
        <time>2022-06-18T07:45:19Z</time>
      </trkpt>
      <trkpt lat="42.1183730" lon="-8.6261350">
        <ele>21.8</ele>
        <time>2022-06-18T07:45:20Z</time>
      </trkpt>
      <trkpt lat="42.1184180" lon="-8.6261380">
        <ele>21.8</ele>
        <time>2022-06-18T07:45:21Z</time>
      </trkpt>
      <trkpt lat="42.1184660" lon="-8.6261360">
        <ele>21.8</ele>
        <time>2022-06-18T07:45:22Z</time>
      </trkpt>
      <trkpt lat="42.1185130" lon="-8.6261330">
        <ele>21.8</ele>
        <time>2022-06-18T07:45:23Z</time>
      </trkpt>
      <trkpt lat="42.1185580" lon="-8.6261360">
        <ele>21.4</ele>
        <time>2022-06-18T07:45:24Z</time>
      </trkpt>
      <trkpt lat="42.1186030" lon="-8.6261400">
        <ele>21.4</ele>
        <time>2022-06-18T07:45:25Z</time>
      </trkpt>
      <trkpt lat="42.1186500" lon="-8.6261410">
        <ele>21.4</ele>
        <time>2022-06-18T07:45:26Z</time>
      </trkpt>
      <trkpt lat="42.1186960" lon="-8.6261450">
        <ele>21.4</ele>
        <time>2022-06-18T07:45:27Z</time>
      </trkpt>
      <trkpt lat="42.1187450" lon="-8.6261460">
        <ele>21.6</ele>
        <time>2022-06-18T07:45:28Z</time>
      </trkpt>
      <trkpt lat="42.1187910" lon="-8.6261500">
        <ele>21.6</ele>
        <time>2022-06-18T07:45:29Z</time>
      </trkpt>
      <trkpt lat="42.1188380" lon="-8.6261510">
        <ele>21.6</ele>
        <time>2022-06-18T07:45:30Z</time>
      </trkpt>
      <trkpt lat="42.1188830" lon="-8.6261550">
        <ele>21.8</ele>
        <time>2022-06-18T07:45:31Z</time>
      </trkpt>
      <trkpt lat="42.1189300" lon="-8.6261560">
        <ele>22.0</ele>
        <time>2022-06-18T07:45:32Z</time>
      </trkpt>
      <trkpt lat="42.1189730" lon="-8.6261600">
        <ele>22.0</ele>
        <time>2022-06-18T07:45:33Z</time>
      </trkpt>
      <trkpt lat="42.1190180" lon="-8.6261630">
        <ele>22.0</ele>
        <time>2022-06-18T07:45:34Z</time>
      </trkpt>
      <trkpt lat="42.1190650" lon="-8.6261630">
        <ele>22.0</ele>
        <time>2022-06-18T07:45:35Z</time>
      </trkpt>
      <trkpt lat="42.1191080" lon="-8.6261660">
        <ele>21.8</ele>
        <time>2022-06-18T07:45:36Z</time>
      </trkpt>
      <trkpt lat="42.1191530" lon="-8.6261700">
        <ele>21.8</ele>
        <time>2022-06-18T07:45:37Z</time>
      </trkpt>
      <trkpt lat="42.1191980" lon="-8.6261750">
        <ele>21.8</ele>
        <time>2022-06-18T07:45:38Z</time>
      </trkpt>
      <trkpt lat="42.1192410" lon="-8.6261800">
        <ele>22.0</ele>
        <time>2022-06-18T07:45:39Z</time>
      </trkpt>
      <trkpt lat="42.1192850" lon="-8.6261850">
        <ele>21.4</ele>
        <time>2022-06-18T07:45:40Z</time>
      </trkpt>
      <trkpt lat="42.1193280" lon="-8.6261880">
        <ele>21.4</ele>
        <time>2022-06-18T07:45:41Z</time>
      </trkpt>
      <trkpt lat="42.1193750" lon="-8.6261880">
        <ele>21.4</ele>
        <time>2022-06-18T07:45:42Z</time>
      </trkpt>
      <trkpt lat="42.1194210" lon="-8.6261880">
        <ele>21.6</ele>
        <time>2022-06-18T07:45:43Z</time>
      </trkpt>
      <trkpt lat="42.1194680" lon="-8.6261900">
        <ele>21.6</ele>
        <time>2022-06-18T07:45:44Z</time>
      </trkpt>
      <trkpt lat="42.1195130" lon="-8.6261910">
        <ele>21.6</ele>
        <time>2022-06-18T07:45:45Z</time>
      </trkpt>
      <trkpt lat="42.1195600" lon="-8.6261960">
        <ele>21.6</ele>
        <time>2022-06-18T07:45:46Z</time>
      </trkpt>
      <trkpt lat="42.1196080" lon="-8.6261960">
        <ele>21.4</ele>
        <time>2022-06-18T07:45:47Z</time>
      </trkpt>
      <trkpt lat="42.1196560" lon="-8.6262000">
        <ele>21.0</ele>
        <time>2022-06-18T07:45:48Z</time>
      </trkpt>
      <trkpt lat="42.1197030" lon="-8.6262030">
        <ele>21.0</ele>
        <time>2022-06-18T07:45:49Z</time>
      </trkpt>
      <trkpt lat="42.1197500" lon="-8.6262060">
        <ele>21.0</ele>
        <time>2022-06-18T07:45:50Z</time>
      </trkpt>
      <trkpt lat="42.1198000" lon="-8.6262100">
        <ele>21.0</ele>
        <time>2022-06-18T07:45:51Z</time>
      </trkpt>
      <trkpt lat="42.1198480" lon="-8.6262130">
        <ele>21.4</ele>
        <time>2022-06-18T07:45:52Z</time>
      </trkpt>
      <trkpt lat="42.1198980" lon="-8.6262160">
        <ele>21.4</ele>
        <time>2022-06-18T07:45:53Z</time>
      </trkpt>
      <trkpt lat="42.1199460" lon="-8.6262200">
        <ele>21.4</ele>
        <time>2022-06-18T07:45:54Z</time>
      </trkpt>
      <trkpt lat="42.1199950" lon="-8.6262210">
        <ele>21.4</ele>
        <time>2022-06-18T07:45:55Z</time>
      </trkpt>
      <trkpt lat="42.1200430" lon="-8.6262250">
        <ele>21.2</ele>
        <time>2022-06-18T07:45:56Z</time>
      </trkpt>
      <trkpt lat="42.1200950" lon="-8.6262260">
        <ele>21.2</ele>
        <time>2022-06-18T07:45:57Z</time>
      </trkpt>
      <trkpt lat="42.1201430" lon="-8.6262310">
        <ele>21.2</ele>
        <time>2022-06-18T07:45:58Z</time>
      </trkpt>
      <trkpt lat="42.1201910" lon="-8.6262400">
        <ele>21.2</ele>
        <time>2022-06-18T07:45:59Z</time>
      </trkpt>
      <trkpt lat="42.1202400" lon="-8.6262430">
        <ele>21.4</ele>
        <time>2022-06-18T07:46:00Z</time>
      </trkpt>
      <trkpt lat="42.1202900" lon="-8.6262460">
        <ele>21.4</ele>
        <time>2022-06-18T07:46:01Z</time>
      </trkpt>
      <trkpt lat="42.1203380" lon="-8.6262500">
        <ele>21.4</ele>
        <time>2022-06-18T07:46:02Z</time>
      </trkpt>
      <trkpt lat="42.1203880" lon="-8.6262550">
        <ele>21.4</ele>
        <time>2022-06-18T07:46:03Z</time>
      </trkpt>
      <trkpt lat="42.1204380" lon="-8.6262560">
        <ele>21.6</ele>
        <time>2022-06-18T07:46:04Z</time>
      </trkpt>
      <trkpt lat="42.1204880" lon="-8.6262560">
        <ele>21.6</ele>
        <time>2022-06-18T07:46:05Z</time>
      </trkpt>
      <trkpt lat="42.1205400" lon="-8.6262580">
        <ele>21.6</ele>
        <time>2022-06-18T07:46:06Z</time>
      </trkpt>
      <trkpt lat="42.1205910" lon="-8.6262600">
        <ele>21.2</ele>
        <time>2022-06-18T07:46:07Z</time>
      </trkpt>
      <trkpt lat="42.1206410" lon="-8.6262600">
        <ele>21.2</ele>
        <time>2022-06-18T07:46:08Z</time>
      </trkpt>
      <trkpt lat="42.1206910" lon="-8.6262630">
        <ele>21.2</ele>
        <time>2022-06-18T07:46:09Z</time>
      </trkpt>
      <trkpt lat="42.1207400" lon="-8.6262660">
        <ele>21.2</ele>
        <time>2022-06-18T07:46:10Z</time>
      </trkpt>
      <trkpt lat="42.1207900" lon="-8.6262660">
        <ele>21.2</ele>
        <time>2022-06-18T07:46:11Z</time>
      </trkpt>
      <trkpt lat="42.1208380" lon="-8.6262700">
        <ele>21.0</ele>
        <time>2022-06-18T07:46:12Z</time>
      </trkpt>
      <trkpt lat="42.1208860" lon="-8.6262710">
        <ele>21.0</ele>
        <time>2022-06-18T07:46:13Z</time>
      </trkpt>
      <trkpt lat="42.1209310" lon="-8.6262750">
        <ele>21.0</ele>
        <time>2022-06-18T07:46:14Z</time>
      </trkpt>
      <trkpt lat="42.1209800" lon="-8.6262780">
        <ele>21.0</ele>
        <time>2022-06-18T07:46:15Z</time>
      </trkpt>
      <trkpt lat="42.1210280" lon="-8.6262800">
        <ele>21.6</ele>
        <time>2022-06-18T07:46:16Z</time>
      </trkpt>
      <trkpt lat="42.1210760" lon="-8.6262810">
        <ele>21.6</ele>
        <time>2022-06-18T07:46:17Z</time>
      </trkpt>
      <trkpt lat="42.1211210" lon="-8.6262830">
        <ele>21.6</ele>
        <time>2022-06-18T07:46:18Z</time>
      </trkpt>
      <trkpt lat="42.1211700" lon="-8.6262830">
        <ele>21.6</ele>
        <time>2022-06-18T07:46:19Z</time>
      </trkpt>
      <trkpt lat="42.1212180" lon="-8.6262880">
        <ele>21.2</ele>
        <time>2022-06-18T07:46:20Z</time>
      </trkpt>
      <trkpt lat="42.1212680" lon="-8.6262910">
        <ele>21.2</ele>
        <time>2022-06-18T07:46:21Z</time>
      </trkpt>
      <trkpt lat="42.1213160" lon="-8.6262930">
        <ele>21.2</ele>
        <time>2022-06-18T07:46:22Z</time>
      </trkpt>
      <trkpt lat="42.1213650" lon="-8.6262980">
        <ele>22.0</ele>
        <time>2022-06-18T07:46:23Z</time>
      </trkpt>
      <trkpt lat="42.1214150" lon="-8.6263010">
        <ele>21.6</ele>
        <time>2022-06-18T07:46:24Z</time>
      </trkpt>
      <trkpt lat="42.1214650" lon="-8.6263030">
        <ele>21.6</ele>
        <time>2022-06-18T07:46:25Z</time>
      </trkpt>
      <trkpt lat="42.1215150" lon="-8.6263060">
        <ele>21.6</ele>
        <time>2022-06-18T07:46:26Z</time>
      </trkpt>
      <trkpt lat="42.1215650" lon="-8.6263110">
        <ele>21.6</ele>
        <time>2022-06-18T07:46:27Z</time>
      </trkpt>
      <trkpt lat="42.1216130" lon="-8.6263180">
        <ele>22.0</ele>
        <time>2022-06-18T07:46:28Z</time>
      </trkpt>
      <trkpt lat="42.1216630" lon="-8.6263230">
        <ele>22.0</ele>
        <time>2022-06-18T07:46:29Z</time>
      </trkpt>
      <trkpt lat="42.1217130" lon="-8.6263260">
        <ele>22.0</ele>
        <time>2022-06-18T07:46:30Z</time>
      </trkpt>
      <trkpt lat="42.1217630" lon="-8.6263280">
        <ele>22.0</ele>
        <time>2022-06-18T07:46:31Z</time>
      </trkpt>
      <trkpt lat="42.1218130" lon="-8.6263280">
        <ele>21.6</ele>
        <time>2022-06-18T07:46:32Z</time>
      </trkpt>
      <trkpt lat="42.1218610" lon="-8.6263280">
        <ele>21.6</ele>
        <time>2022-06-18T07:46:33Z</time>
      </trkpt>
      <trkpt lat="42.1219110" lon="-8.6263300">
        <ele>21.6</ele>
        <time>2022-06-18T07:46:34Z</time>
      </trkpt>
      <trkpt lat="42.1219630" lon="-8.6263330">
        <ele>21.8</ele>
        <time>2022-06-18T07:46:35Z</time>
      </trkpt>
      <trkpt lat="42.1220150" lon="-8.6263360">
        <ele>22.0</ele>
        <time>2022-06-18T07:46:36Z</time>
      </trkpt>
      <trkpt lat="42.1220660" lon="-8.6263400">
        <ele>22.0</ele>
        <time>2022-06-18T07:46:37Z</time>
      </trkpt>
      <trkpt lat="42.1221160" lon="-8.6263430">
        <ele>22.0</ele>
        <time>2022-06-18T07:46:38Z</time>
      </trkpt>
      <trkpt lat="42.1221660" lon="-8.6263480">
        <ele>22.0</ele>
        <time>2022-06-18T07:46:39Z</time>
      </trkpt>
      <trkpt lat="42.1222160" lon="-8.6263550">
        <ele>21.6</ele>
        <time>2022-06-18T07:46:40Z</time>
      </trkpt>
      <trkpt lat="42.1222680" lon="-8.6263580">
        <ele>21.6</ele>
        <time>2022-06-18T07:46:41Z</time>
      </trkpt>
      <trkpt lat="42.1223180" lon="-8.6263600">
        <ele>21.6</ele>
        <time>2022-06-18T07:46:42Z</time>
      </trkpt>
      <trkpt lat="42.1223680" lon="-8.6263630">
        <ele>21.6</ele>
        <time>2022-06-18T07:46:43Z</time>
      </trkpt>
      <trkpt lat="42.1224180" lon="-8.6263650">
        <ele>22.2</ele>
        <time>2022-06-18T07:46:44Z</time>
      </trkpt>
      <trkpt lat="42.1224660" lon="-8.6263680">
        <ele>22.2</ele>
        <time>2022-06-18T07:46:45Z</time>
      </trkpt>
      <trkpt lat="42.1225160" lon="-8.6263710">
        <ele>22.2</ele>
        <time>2022-06-18T07:46:46Z</time>
      </trkpt>
      <trkpt lat="42.1225650" lon="-8.6263710">
        <ele>21.6</ele>
        <time>2022-06-18T07:46:47Z</time>
      </trkpt>
      <trkpt lat="42.1226150" lon="-8.6263730">
        <ele>21.4</ele>
        <time>2022-06-18T07:46:48Z</time>
      </trkpt>
      <trkpt lat="42.1226650" lon="-8.6263750">
        <ele>21.4</ele>
        <time>2022-06-18T07:46:49Z</time>
      </trkpt>
      <trkpt lat="42.1227150" lon="-8.6263810">
        <ele>21.4</ele>
        <time>2022-06-18T07:46:50Z</time>
      </trkpt>
      <trkpt lat="42.1227630" lon="-8.6263880">
        <ele>21.4</ele>
        <time>2022-06-18T07:46:51Z</time>
      </trkpt>
      <trkpt lat="42.1228150" lon="-8.6263900">
        <ele>21.2</ele>
        <time>2022-06-18T07:46:52Z</time>
      </trkpt>
      <trkpt lat="42.1228650" lon="-8.6263930">
        <ele>21.2</ele>
        <time>2022-06-18T07:46:53Z</time>
      </trkpt>
      <trkpt lat="42.1229160" lon="-8.6263930">
        <ele>21.2</ele>
        <time>2022-06-18T07:46:54Z</time>
      </trkpt>
      <trkpt lat="42.1229700" lon="-8.6263950">
        <ele>21.6</ele>
        <time>2022-06-18T07:46:55Z</time>
      </trkpt>
      <trkpt lat="42.1230210" lon="-8.6263960">
        <ele>21.6</ele>
        <time>2022-06-18T07:46:56Z</time>
      </trkpt>
      <trkpt lat="42.1230730" lon="-8.6264000">
        <ele>21.6</ele>
        <time>2022-06-18T07:46:57Z</time>
      </trkpt>
      <trkpt lat="42.1231250" lon="-8.6264050">
        <ele>21.6</ele>
        <time>2022-06-18T07:46:58Z</time>
      </trkpt>
      <trkpt lat="42.1231760" lon="-8.6264060">
        <ele>21.8</ele>
        <time>2022-06-18T07:46:59Z</time>
      </trkpt>
      <trkpt lat="42.1232260" lon="-8.6264080">
        <ele>22.0</ele>
        <time>2022-06-18T07:47:00Z</time>
      </trkpt>
      <trkpt lat="42.1232800" lon="-8.6264110">
        <ele>22.0</ele>
        <time>2022-06-18T07:47:01Z</time>
      </trkpt>
      <trkpt lat="42.1233330" lon="-8.6264130">
        <ele>22.0</ele>
        <time>2022-06-18T07:47:02Z</time>
      </trkpt>
      <trkpt lat="42.1233860" lon="-8.6264160">
        <ele>22.0</ele>
        <time>2022-06-18T07:47:03Z</time>
      </trkpt>
      <trkpt lat="42.1234360" lon="-8.6264200">
        <ele>22.0</ele>
        <time>2022-06-18T07:47:04Z</time>
      </trkpt>
      <trkpt lat="42.1234860" lon="-8.6264250">
        <ele>22.0</ele>
        <time>2022-06-18T07:47:05Z</time>
      </trkpt>
      <trkpt lat="42.1235350" lon="-8.6264260">
        <ele>22.0</ele>
        <time>2022-06-18T07:47:06Z</time>
      </trkpt>
      <trkpt lat="42.1235810" lon="-8.6264280">
        <ele>21.8</ele>
        <time>2022-06-18T07:47:07Z</time>
      </trkpt>
      <trkpt lat="42.1236280" lon="-8.6264280">
        <ele>22.0</ele>
        <time>2022-06-18T07:47:08Z</time>
      </trkpt>
      <trkpt lat="42.1236760" lon="-8.6264310">
        <ele>22.0</ele>
        <time>2022-06-18T07:47:09Z</time>
      </trkpt>
      <trkpt lat="42.1237230" lon="-8.6264330">
        <ele>22.0</ele>
        <time>2022-06-18T07:47:10Z</time>
      </trkpt>
      <trkpt lat="42.1237730" lon="-8.6264310">
        <ele>22.0</ele>
        <time>2022-06-18T07:47:11Z</time>
      </trkpt>
      <trkpt lat="42.1238250" lon="-8.6264310">
        <ele>21.6</ele>
        <time>2022-06-18T07:47:12Z</time>
      </trkpt>
      <trkpt lat="42.1238760" lon="-8.6264310">
        <ele>21.6</ele>
        <time>2022-06-18T07:47:13Z</time>
      </trkpt>
      <trkpt lat="42.1239330" lon="-8.6264330">
        <ele>21.6</ele>
        <time>2022-06-18T07:47:14Z</time>
      </trkpt>
      <trkpt lat="42.1239880" lon="-8.6264330">
        <ele>21.6</ele>
        <time>2022-06-18T07:47:15Z</time>
      </trkpt>
      <trkpt lat="42.1240430" lon="-8.6264350">
        <ele>21.6</ele>
        <time>2022-06-18T07:47:16Z</time>
      </trkpt>
      <trkpt lat="42.1240960" lon="-8.6264360">
        <ele>21.6</ele>
        <time>2022-06-18T07:47:17Z</time>
      </trkpt>
      <trkpt lat="42.1241510" lon="-8.6264360">
        <ele>21.6</ele>
        <time>2022-06-18T07:47:18Z</time>
      </trkpt>
      <trkpt lat="42.1242050" lon="-8.6264380">
        <ele>21.6</ele>
        <time>2022-06-18T07:47:19Z</time>
      </trkpt>
      <trkpt lat="42.1242560" lon="-8.6264410">
        <ele>21.6</ele>
        <time>2022-06-18T07:47:20Z</time>
      </trkpt>
      <trkpt lat="42.1243080" lon="-8.6264430">
        <ele>21.6</ele>
        <time>2022-06-18T07:47:21Z</time>
      </trkpt>
      <trkpt lat="42.1243580" lon="-8.6264450">
        <ele>21.6</ele>
        <time>2022-06-18T07:47:22Z</time>
      </trkpt>
      <trkpt lat="42.1244100" lon="-8.6264460">
        <ele>21.8</ele>
        <time>2022-06-18T07:47:23Z</time>
      </trkpt>
      <trkpt lat="42.1244600" lon="-8.6264480">
        <ele>21.6</ele>
        <time>2022-06-18T07:47:24Z</time>
      </trkpt>
      <trkpt lat="42.1245110" lon="-8.6264500">
        <ele>21.6</ele>
        <time>2022-06-18T07:47:25Z</time>
      </trkpt>
      <trkpt lat="42.1245600" lon="-8.6264530">
        <ele>21.6</ele>
        <time>2022-06-18T07:47:26Z</time>
      </trkpt>
      <trkpt lat="42.1246110" lon="-8.6264580">
        <ele>21.6</ele>
        <time>2022-06-18T07:47:27Z</time>
      </trkpt>
      <trkpt lat="42.1246630" lon="-8.6264630">
        <ele>22.0</ele>
        <time>2022-06-18T07:47:28Z</time>
      </trkpt>
      <trkpt lat="42.1247150" lon="-8.6264700">
        <ele>22.0</ele>
        <time>2022-06-18T07:47:29Z</time>
      </trkpt>
      <trkpt lat="42.1247650" lon="-8.6264730">
        <ele>22.0</ele>
        <time>2022-06-18T07:47:30Z</time>
      </trkpt>
      <trkpt lat="42.1248160" lon="-8.6264750">
        <ele>21.2</ele>
        <time>2022-06-18T07:47:31Z</time>
      </trkpt>
      <trkpt lat="42.1248660" lon="-8.6264760">
        <ele>21.4</ele>
        <time>2022-06-18T07:47:32Z</time>
      </trkpt>
      <trkpt lat="42.1249200" lon="-8.6264780">
        <ele>21.4</ele>
        <time>2022-06-18T07:47:33Z</time>
      </trkpt>
      <trkpt lat="42.1249710" lon="-8.6264810">
        <ele>21.4</ele>
        <time>2022-06-18T07:47:34Z</time>
      </trkpt>
      <trkpt lat="42.1250210" lon="-8.6264860">
        <ele>21.4</ele>
        <time>2022-06-18T07:47:35Z</time>
      </trkpt>
      <trkpt lat="42.1250750" lon="-8.6264900">
        <ele>21.8</ele>
        <time>2022-06-18T07:47:36Z</time>
      </trkpt>
      <trkpt lat="42.1251260" lon="-8.6264950">
        <ele>21.8</ele>
        <time>2022-06-18T07:47:37Z</time>
      </trkpt>
      <trkpt lat="42.1251780" lon="-8.6265000">
        <ele>21.8</ele>
        <time>2022-06-18T07:47:38Z</time>
      </trkpt>
      <trkpt lat="42.1252330" lon="-8.6265030">
        <ele>21.8</ele>
        <time>2022-06-18T07:47:39Z</time>
      </trkpt>
      <trkpt lat="42.1252860" lon="-8.6265050">
        <ele>21.8</ele>
        <time>2022-06-18T07:47:40Z</time>
      </trkpt>
      <trkpt lat="42.1253400" lon="-8.6265060">
        <ele>21.8</ele>
        <time>2022-06-18T07:47:41Z</time>
      </trkpt>
      <trkpt lat="42.1253910" lon="-8.6265060">
        <ele>21.8</ele>
        <time>2022-06-18T07:47:42Z</time>
      </trkpt>
      <trkpt lat="42.1254410" lon="-8.6265110">
        <ele>21.8</ele>
        <time>2022-06-18T07:47:43Z</time>
      </trkpt>
      <trkpt lat="42.1254950" lon="-8.6265130">
        <ele>22.2</ele>
        <time>2022-06-18T07:47:44Z</time>
      </trkpt>
      <trkpt lat="42.1255460" lon="-8.6265160">
        <ele>22.2</ele>
        <time>2022-06-18T07:47:45Z</time>
      </trkpt>
      <trkpt lat="42.1255960" lon="-8.6265180">
        <ele>22.2</ele>
        <time>2022-06-18T07:47:46Z</time>
      </trkpt>
      <trkpt lat="42.1256460" lon="-8.6265180">
        <ele>21.6</ele>
        <time>2022-06-18T07:47:47Z</time>
      </trkpt>
      <trkpt lat="42.1256980" lon="-8.6265200">
        <ele>21.8</ele>
        <time>2022-06-18T07:47:48Z</time>
      </trkpt>
      <trkpt lat="42.1257500" lon="-8.6265210">
        <ele>21.8</ele>
        <time>2022-06-18T07:47:49Z</time>
      </trkpt>
      <trkpt lat="42.1258010" lon="-8.6265230">
        <ele>21.8</ele>
        <time>2022-06-18T07:47:50Z</time>
      </trkpt>
      <trkpt lat="42.1258510" lon="-8.6265280">
        <ele>21.8</ele>
        <time>2022-06-18T07:47:51Z</time>
      </trkpt>
      <trkpt lat="42.1259010" lon="-8.6265300">
        <ele>22.0</ele>
        <time>2022-06-18T07:47:52Z</time>
      </trkpt>
      <trkpt lat="42.1259530" lon="-8.6265330">
        <ele>22.0</ele>
        <time>2022-06-18T07:47:53Z</time>
      </trkpt>
      <trkpt lat="42.1260050" lon="-8.6265350">
        <ele>22.0</ele>
        <time>2022-06-18T07:47:54Z</time>
      </trkpt>
      <trkpt lat="42.1260560" lon="-8.6265380">
        <ele>22.2</ele>
        <time>2022-06-18T07:47:55Z</time>
      </trkpt>
      <trkpt lat="42.1261100" lon="-8.6265400">
        <ele>22.4</ele>
        <time>2022-06-18T07:47:56Z</time>
      </trkpt>
      <trkpt lat="42.1261600" lon="-8.6265430">
        <ele>22.4</ele>
        <time>2022-06-18T07:47:57Z</time>
      </trkpt>
      <trkpt lat="42.1262110" lon="-8.6265460">
        <ele>22.4</ele>
        <time>2022-06-18T07:47:58Z</time>
      </trkpt>
      <trkpt lat="42.1262630" lon="-8.6265480">
        <ele>22.8</ele>
        <time>2022-06-18T07:47:59Z</time>
      </trkpt>
      <trkpt lat="42.1263150" lon="-8.6265510">
        <ele>22.2</ele>
        <time>2022-06-18T07:48:00Z</time>
      </trkpt>
      <trkpt lat="42.1263660" lon="-8.6265560">
        <ele>22.2</ele>
        <time>2022-06-18T07:48:01Z</time>
      </trkpt>
      <trkpt lat="42.1264200" lon="-8.6265580">
        <ele>22.2</ele>
        <time>2022-06-18T07:48:02Z</time>
      </trkpt>
      <trkpt lat="42.1264730" lon="-8.6265610">
        <ele>22.4</ele>
        <time>2022-06-18T07:48:03Z</time>
      </trkpt>
      <trkpt lat="42.1265210" lon="-8.6265650">
        <ele>22.2</ele>
        <time>2022-06-18T07:48:04Z</time>
      </trkpt>
      <trkpt lat="42.1265700" lon="-8.6265680">
        <ele>22.2</ele>
        <time>2022-06-18T07:48:05Z</time>
      </trkpt>
      <trkpt lat="42.1266200" lon="-8.6265730">
        <ele>22.2</ele>
        <time>2022-06-18T07:48:06Z</time>
      </trkpt>
      <trkpt lat="42.1266700" lon="-8.6265800">
        <ele>22.2</ele>
        <time>2022-06-18T07:48:07Z</time>
      </trkpt>
      <trkpt lat="42.1267180" lon="-8.6265860">
        <ele>22.6</ele>
        <time>2022-06-18T07:48:08Z</time>
      </trkpt>
      <trkpt lat="42.1267650" lon="-8.6265910">
        <ele>22.6</ele>
        <time>2022-06-18T07:48:09Z</time>
      </trkpt>
      <trkpt lat="42.1268150" lon="-8.6265910">
        <ele>22.6</ele>
        <time>2022-06-18T07:48:10Z</time>
      </trkpt>
      <trkpt lat="42.1268630" lon="-8.6265950">
        <ele>22.4</ele>
        <time>2022-06-18T07:48:11Z</time>
      </trkpt>
      <trkpt lat="42.1269110" lon="-8.6265980">
        <ele>22.6</ele>
        <time>2022-06-18T07:48:12Z</time>
      </trkpt>
      <trkpt lat="42.1269560" lon="-8.6266030">
        <ele>22.6</ele>
        <time>2022-06-18T07:48:13Z</time>
      </trkpt>
      <trkpt lat="42.1270030" lon="-8.6266030">
        <ele>22.6</ele>
        <time>2022-06-18T07:48:14Z</time>
      </trkpt>
      <trkpt lat="42.1270530" lon="-8.6266050">
        <ele>22.6</ele>
        <time>2022-06-18T07:48:15Z</time>
      </trkpt>
      <trkpt lat="42.1271010" lon="-8.6266060">
        <ele>22.6</ele>
        <time>2022-06-18T07:48:16Z</time>
      </trkpt>
      <trkpt lat="42.1271510" lon="-8.6266100">
        <ele>22.6</ele>
        <time>2022-06-18T07:48:17Z</time>
      </trkpt>
      <trkpt lat="42.1272050" lon="-8.6266130">
        <ele>22.6</ele>
        <time>2022-06-18T07:48:18Z</time>
      </trkpt>
      <trkpt lat="42.1272530" lon="-8.6266180">
        <ele>22.0</ele>
        <time>2022-06-18T07:48:19Z</time>
      </trkpt>
      <trkpt lat="42.1273030" lon="-8.6266180">
        <ele>22.8</ele>
        <time>2022-06-18T07:48:20Z</time>
      </trkpt>
      <trkpt lat="42.1273580" lon="-8.6266210">
        <ele>22.8</ele>
        <time>2022-06-18T07:48:21Z</time>
      </trkpt>
      <trkpt lat="42.1274110" lon="-8.6266250">
        <ele>22.8</ele>
        <time>2022-06-18T07:48:22Z</time>
      </trkpt>
      <trkpt lat="42.1274630" lon="-8.6266280">
        <ele>22.0</ele>
        <time>2022-06-18T07:48:23Z</time>
      </trkpt>
      <trkpt lat="42.1275160" lon="-8.6266300">
        <ele>22.6</ele>
        <time>2022-06-18T07:48:24Z</time>
      </trkpt>
      <trkpt lat="42.1275700" lon="-8.6266330">
        <ele>22.6</ele>
        <time>2022-06-18T07:48:25Z</time>
      </trkpt>
      <trkpt lat="42.1276210" lon="-8.6266350">
        <ele>22.6</ele>
        <time>2022-06-18T07:48:26Z</time>
      </trkpt>
      <trkpt lat="42.1276760" lon="-8.6266380">
        <ele>22.6</ele>
        <time>2022-06-18T07:48:27Z</time>
      </trkpt>
      <trkpt lat="42.1277260" lon="-8.6266430">
        <ele>22.8</ele>
        <time>2022-06-18T07:48:28Z</time>
      </trkpt>
      <trkpt lat="42.1277780" lon="-8.6266460">
        <ele>22.8</ele>
        <time>2022-06-18T07:48:29Z</time>
      </trkpt>
      <trkpt lat="42.1278280" lon="-8.6266460">
        <ele>22.8</ele>
        <time>2022-06-18T07:48:30Z</time>
      </trkpt>
      <trkpt lat="42.1278760" lon="-8.6266480">
        <ele>22.8</ele>
        <time>2022-06-18T07:48:31Z</time>
      </trkpt>
      <trkpt lat="42.1279260" lon="-8.6266500">
        <ele>23.0</ele>
        <time>2022-06-18T07:48:32Z</time>
      </trkpt>
      <trkpt lat="42.1279750" lon="-8.6266510">
        <ele>23.0</ele>
        <time>2022-06-18T07:48:33Z</time>
      </trkpt>
      <trkpt lat="42.1280250" lon="-8.6266550">
        <ele>23.0</ele>
        <time>2022-06-18T07:48:34Z</time>
      </trkpt>
      <trkpt lat="42.1280710" lon="-8.6266580">
        <ele>23.6</ele>
        <time>2022-06-18T07:48:35Z</time>
      </trkpt>
      <trkpt lat="42.1281200" lon="-8.6266600">
        <ele>23.8</ele>
        <time>2022-06-18T07:48:36Z</time>
      </trkpt>
      <trkpt lat="42.1281650" lon="-8.6266650">
        <ele>23.8</ele>
        <time>2022-06-18T07:48:37Z</time>
      </trkpt>
      <trkpt lat="42.1282110" lon="-8.6266660">
        <ele>23.8</ele>
        <time>2022-06-18T07:48:38Z</time>
      </trkpt>
      <trkpt lat="42.1282610" lon="-8.6266660">
        <ele>23.6</ele>
        <time>2022-06-18T07:48:39Z</time>
      </trkpt>
      <trkpt lat="42.1283110" lon="-8.6266660">
        <ele>23.8</ele>
        <time>2022-06-18T07:48:40Z</time>
      </trkpt>
      <trkpt lat="42.1283600" lon="-8.6266680">
        <ele>23.8</ele>
        <time>2022-06-18T07:48:41Z</time>
      </trkpt>
      <trkpt lat="42.1284080" lon="-8.6266680">
        <ele>23.8</ele>
        <time>2022-06-18T07:48:42Z</time>
      </trkpt>
      <trkpt lat="42.1284550" lon="-8.6266730">
        <ele>24.0</ele>
        <time>2022-06-18T07:48:43Z</time>
      </trkpt>
      <trkpt lat="42.1285000" lon="-8.6266800">
        <ele>24.4</ele>
        <time>2022-06-18T07:48:44Z</time>
      </trkpt>
      <trkpt lat="42.1285460" lon="-8.6266810">
        <ele>24.4</ele>
        <time>2022-06-18T07:48:45Z</time>
      </trkpt>
      <trkpt lat="42.1285910" lon="-8.6266830">
        <ele>24.4</ele>
        <time>2022-06-18T07:48:46Z</time>
      </trkpt>
      <trkpt lat="42.1286400" lon="-8.6266850">
        <ele>24.4</ele>
        <time>2022-06-18T07:48:47Z</time>
      </trkpt>
      <trkpt lat="42.1286860" lon="-8.6266850">
        <ele>24.0</ele>
        <time>2022-06-18T07:48:48Z</time>
      </trkpt>
      <trkpt lat="42.1287310" lon="-8.6266910">
        <ele>24.0</ele>
        <time>2022-06-18T07:48:49Z</time>
      </trkpt>
      <trkpt lat="42.1287750" lon="-8.6266960">
        <ele>24.0</ele>
        <time>2022-06-18T07:48:50Z</time>
      </trkpt>
      <trkpt lat="42.1288180" lon="-8.6267010">
        <ele>24.0</ele>
        <time>2022-06-18T07:48:51Z</time>
      </trkpt>
      <trkpt lat="42.1288600" lon="-8.6267060">
        <ele>24.8</ele>
        <time>2022-06-18T07:48:52Z</time>
      </trkpt>
      <trkpt lat="42.1289030" lon="-8.6267100">
        <ele>24.8</ele>
        <time>2022-06-18T07:48:53Z</time>
      </trkpt>
      <trkpt lat="42.1289460" lon="-8.6267110">
        <ele>24.8</ele>
        <time>2022-06-18T07:48:54Z</time>
      </trkpt>
      <trkpt lat="42.1289880" lon="-8.6267130">
        <ele>25.2</ele>
        <time>2022-06-18T07:48:55Z</time>
      </trkpt>
      <trkpt lat="42.1290280" lon="-8.6267150">
        <ele>25.8</ele>
        <time>2022-06-18T07:48:56Z</time>
      </trkpt>
      <trkpt lat="42.1290680" lon="-8.6267180">
        <ele>25.8</ele>
        <time>2022-06-18T07:48:57Z</time>
      </trkpt>
      <trkpt lat="42.1291080" lon="-8.6267200">
        <ele>25.8</ele>
        <time>2022-06-18T07:48:58Z</time>
      </trkpt>
      <trkpt lat="42.1291460" lon="-8.6267210">
        <ele>25.8</ele>
        <time>2022-06-18T07:48:59Z</time>
      </trkpt>
      <trkpt lat="42.1291850" lon="-8.6267200">
        <ele>26.0</ele>
        <time>2022-06-18T07:49:00Z</time>
      </trkpt>
      <trkpt lat="42.1292230" lon="-8.6267210">
        <ele>26.0</ele>
        <time>2022-06-18T07:49:01Z</time>
      </trkpt>
      <trkpt lat="42.1292630" lon="-8.6267230">
        <ele>26.0</ele>
        <time>2022-06-18T07:49:02Z</time>
      </trkpt>
      <trkpt lat="42.1293010" lon="-8.6267250">
        <ele>26.0</ele>
        <time>2022-06-18T07:49:03Z</time>
      </trkpt>
      <trkpt lat="42.1293410" lon="-8.6267200">
        <ele>26.4</ele>
        <time>2022-06-18T07:49:04Z</time>
      </trkpt>
      <trkpt lat="42.1293780" lon="-8.6267200">
        <ele>26.4</ele>
        <time>2022-06-18T07:49:05Z</time>
      </trkpt>
      <trkpt lat="42.1294150" lon="-8.6267230">
        <ele>26.4</ele>
        <time>2022-06-18T07:49:06Z</time>
      </trkpt>
      <trkpt lat="42.1294510" lon="-8.6267250">
        <ele>27.2</ele>
        <time>2022-06-18T07:49:07Z</time>
      </trkpt>
      <trkpt lat="42.1294900" lon="-8.6267300">
        <ele>27.0</ele>
        <time>2022-06-18T07:49:08Z</time>
      </trkpt>
      <trkpt lat="42.1295280" lon="-8.6267350">
        <ele>27.0</ele>
        <time>2022-06-18T07:49:09Z</time>
      </trkpt>
      <trkpt lat="42.1295650" lon="-8.6267360">
        <ele>27.0</ele>
        <time>2022-06-18T07:49:10Z</time>
      </trkpt>
      <trkpt lat="42.1296030" lon="-8.6267380">
        <ele>27.6</ele>
        <time>2022-06-18T07:49:11Z</time>
      </trkpt>
      <trkpt lat="42.1296400" lon="-8.6267400">
        <ele>27.6</ele>
        <time>2022-06-18T07:49:12Z</time>
      </trkpt>
      <trkpt lat="42.1296760" lon="-8.6267400">
        <ele>27.6</ele>
        <time>2022-06-18T07:49:13Z</time>
      </trkpt>
      <trkpt lat="42.1297130" lon="-8.6267360">
        <ele>27.6</ele>
        <time>2022-06-18T07:49:14Z</time>
      </trkpt>
      <trkpt lat="42.1297500" lon="-8.6267360">
        <ele>27.8</ele>
        <time>2022-06-18T07:49:15Z</time>
      </trkpt>
      <trkpt lat="42.1297850" lon="-8.6267360">
        <ele>28.0</ele>
        <time>2022-06-18T07:49:16Z</time>
      </trkpt>
      <trkpt lat="42.1298210" lon="-8.6267430">
        <ele>28.0</ele>
        <time>2022-06-18T07:49:17Z</time>
      </trkpt>
      <trkpt lat="42.1298580" lon="-8.6267430">
        <ele>28.0</ele>
        <time>2022-06-18T07:49:18Z</time>
      </trkpt>
      <trkpt lat="42.1298950" lon="-8.6267430">
        <ele>28.0</ele>
        <time>2022-06-18T07:49:19Z</time>
      </trkpt>
      <trkpt lat="42.1299310" lon="-8.6267430">
        <ele>28.4</ele>
        <time>2022-06-18T07:49:20Z</time>
      </trkpt>
      <trkpt lat="42.1299660" lon="-8.6267450">
        <ele>28.4</ele>
        <time>2022-06-18T07:49:21Z</time>
      </trkpt>
      <trkpt lat="42.1300030" lon="-8.6267450">
        <ele>28.4</ele>
        <time>2022-06-18T07:49:22Z</time>
      </trkpt>
      <trkpt lat="42.1300400" lon="-8.6267460">
        <ele>28.8</ele>
        <time>2022-06-18T07:49:23Z</time>
      </trkpt>
      <trkpt lat="42.1300760" lon="-8.6267500">
        <ele>29.0</ele>
        <time>2022-06-18T07:49:24Z</time>
      </trkpt>
      <trkpt lat="42.1301130" lon="-8.6267500">
        <ele>29.0</ele>
        <time>2022-06-18T07:49:25Z</time>
      </trkpt>
      <trkpt lat="42.1301500" lon="-8.6267480">
        <ele>29.0</ele>
        <time>2022-06-18T07:49:26Z</time>
      </trkpt>
      <trkpt lat="42.1301860" lon="-8.6267510">
        <ele>29.2</ele>
        <time>2022-06-18T07:49:27Z</time>
      </trkpt>
      <trkpt lat="42.1302230" lon="-8.6267530">
        <ele>29.2</ele>
        <time>2022-06-18T07:49:28Z</time>
      </trkpt>
      <trkpt lat="42.1302600" lon="-8.6267550">
        <ele>29.2</ele>
        <time>2022-06-18T07:49:29Z</time>
      </trkpt>
      <trkpt lat="42.1302980" lon="-8.6267560">
        <ele>29.2</ele>
        <time>2022-06-18T07:49:30Z</time>
      </trkpt>
      <trkpt lat="42.1303360" lon="-8.6267550">
        <ele>29.8</ele>
        <time>2022-06-18T07:49:31Z</time>
      </trkpt>
      <trkpt lat="42.1303750" lon="-8.6267530">
        <ele>29.8</ele>
        <time>2022-06-18T07:49:32Z</time>
      </trkpt>
      <trkpt lat="42.1304110" lon="-8.6267550">
        <ele>29.8</ele>
        <time>2022-06-18T07:49:33Z</time>
      </trkpt>
      <trkpt lat="42.1304480" lon="-8.6267600">
        <ele>29.8</ele>
        <time>2022-06-18T07:49:34Z</time>
      </trkpt>
      <trkpt lat="42.1304850" lon="-8.6267630">
        <ele>30.4</ele>
        <time>2022-06-18T07:49:35Z</time>
      </trkpt>
      <trkpt lat="42.1305230" lon="-8.6267610">
        <ele>30.2</ele>
        <time>2022-06-18T07:49:36Z</time>
      </trkpt>
      <trkpt lat="42.1305580" lon="-8.6267650">
        <ele>30.2</ele>
        <time>2022-06-18T07:49:37Z</time>
      </trkpt>
      <trkpt lat="42.1305950" lon="-8.6267700">
        <ele>30.2</ele>
        <time>2022-06-18T07:49:38Z</time>
      </trkpt>
      <trkpt lat="42.1306310" lon="-8.6267710">
        <ele>30.8</ele>
        <time>2022-06-18T07:49:39Z</time>
      </trkpt>
      <trkpt lat="42.1306680" lon="-8.6267750">
        <ele>30.8</ele>
        <time>2022-06-18T07:49:40Z</time>
      </trkpt>
      <trkpt lat="42.1307060" lon="-8.6267780">
        <ele>30.8</ele>
        <time>2022-06-18T07:49:41Z</time>
      </trkpt>
      <trkpt lat="42.1307430" lon="-8.6267800">
        <ele>30.8</ele>
        <time>2022-06-18T07:49:42Z</time>
      </trkpt>
      <trkpt lat="42.1307810" lon="-8.6267830">
        <ele>30.8</ele>
        <time>2022-06-18T07:49:43Z</time>
      </trkpt>
      <trkpt lat="42.1308180" lon="-8.6267830">
        <ele>30.8</ele>
        <time>2022-06-18T07:49:44Z</time>
      </trkpt>
      <trkpt lat="42.1308560" lon="-8.6267860">
        <ele>30.8</ele>
        <time>2022-06-18T07:49:45Z</time>
      </trkpt>
      <trkpt lat="42.1308950" lon="-8.6267900">
        <ele>30.8</ele>
        <time>2022-06-18T07:49:46Z</time>
      </trkpt>
      <trkpt lat="42.1309330" lon="-8.6267900">
        <ele>30.8</ele>
        <time>2022-06-18T07:49:47Z</time>
      </trkpt>
      <trkpt lat="42.1309700" lon="-8.6267930">
        <ele>31.4</ele>
        <time>2022-06-18T07:49:48Z</time>
      </trkpt>
      <trkpt lat="42.1310080" lon="-8.6267960">
        <ele>31.4</ele>
        <time>2022-06-18T07:49:49Z</time>
      </trkpt>
      <trkpt lat="42.1310430" lon="-8.6268030">
        <ele>31.4</ele>
        <time>2022-06-18T07:49:50Z</time>
      </trkpt>
      <trkpt lat="42.1310780" lon="-8.6268080">
        <ele>31.4</ele>
        <time>2022-06-18T07:49:51Z</time>
      </trkpt>
      <trkpt lat="42.1311160" lon="-8.6268100">
        <ele>31.4</ele>
        <time>2022-06-18T07:49:52Z</time>
      </trkpt>
      <trkpt lat="42.1311550" lon="-8.6268130">
        <ele>31.4</ele>
        <time>2022-06-18T07:49:53Z</time>
      </trkpt>
      <trkpt lat="42.1311910" lon="-8.6268130">
        <ele>31.4</ele>
        <time>2022-06-18T07:49:54Z</time>
      </trkpt>
      <trkpt lat="42.1312260" lon="-8.6268160">
        <ele>31.4</ele>
        <time>2022-06-18T07:49:55Z</time>
      </trkpt>
      <trkpt lat="42.1312630" lon="-8.6268200">
        <ele>31.6</ele>
        <time>2022-06-18T07:49:56Z</time>
      </trkpt>
      <trkpt lat="42.1313000" lon="-8.6268210">
        <ele>31.6</ele>
        <time>2022-06-18T07:49:57Z</time>
      </trkpt>
      <trkpt lat="42.1313360" lon="-8.6268230">
        <ele>31.6</ele>
        <time>2022-06-18T07:49:58Z</time>
      </trkpt>
      <trkpt lat="42.1313750" lon="-8.6268260">
        <ele>31.6</ele>
        <time>2022-06-18T07:49:59Z</time>
      </trkpt>
      <trkpt lat="42.1314130" lon="-8.6268300">
        <ele>32.2</ele>
        <time>2022-06-18T07:50:00Z</time>
      </trkpt>
      <trkpt lat="42.1314510" lon="-8.6268300">
        <ele>32.2</ele>
        <time>2022-06-18T07:50:01Z</time>
      </trkpt>
      <trkpt lat="42.1314880" lon="-8.6268310">
        <ele>32.2</ele>
        <time>2022-06-18T07:50:02Z</time>
      </trkpt>
      <trkpt lat="42.1315260" lon="-8.6268350">
        <ele>32.2</ele>
        <time>2022-06-18T07:50:03Z</time>
      </trkpt>
      <trkpt lat="42.1315650" lon="-8.6268360">
        <ele>32.0</ele>
        <time>2022-06-18T07:50:04Z</time>
      </trkpt>
      <trkpt lat="42.1316030" lon="-8.6268400">
        <ele>32.0</ele>
        <time>2022-06-18T07:50:05Z</time>
      </trkpt>
      <trkpt lat="42.1316410" lon="-8.6268410">
        <ele>32.0</ele>
        <time>2022-06-18T07:50:06Z</time>
      </trkpt>
      <trkpt lat="42.1316810" lon="-8.6268410">
        <ele>32.4</ele>
        <time>2022-06-18T07:50:07Z</time>
      </trkpt>
      <trkpt lat="42.1317200" lon="-8.6268430">
        <ele>32.2</ele>
        <time>2022-06-18T07:50:08Z</time>
      </trkpt>
      <trkpt lat="42.1317580" lon="-8.6268430">
        <ele>32.2</ele>
        <time>2022-06-18T07:50:09Z</time>
      </trkpt>
      <trkpt lat="42.1317980" lon="-8.6268450">
        <ele>32.2</ele>
        <time>2022-06-18T07:50:10Z</time>
      </trkpt>
      <trkpt lat="42.1318350" lon="-8.6268460">
        <ele>32.2</ele>
        <time>2022-06-18T07:50:11Z</time>
      </trkpt>
      <trkpt lat="42.1318710" lon="-8.6268510">
        <ele>32.8</ele>
        <time>2022-06-18T07:50:12Z</time>
      </trkpt>
      <trkpt lat="42.1319100" lon="-8.6268510">
        <ele>32.8</ele>
        <time>2022-06-18T07:50:13Z</time>
      </trkpt>
      <trkpt lat="42.1319460" lon="-8.6268560">
        <ele>32.8</ele>
        <time>2022-06-18T07:50:14Z</time>
      </trkpt>
      <trkpt lat="42.1319830" lon="-8.6268610">
        <ele>32.8</ele>
        <time>2022-06-18T07:50:15Z</time>
      </trkpt>
      <trkpt lat="42.1320210" lon="-8.6268660">
        <ele>32.8</ele>
        <time>2022-06-18T07:50:16Z</time>
      </trkpt>
      <trkpt lat="42.1320600" lon="-8.6268660">
        <ele>32.8</ele>
        <time>2022-06-18T07:50:17Z</time>
      </trkpt>
      <trkpt lat="42.1320980" lon="-8.6268610">
        <ele>32.8</ele>
        <time>2022-06-18T07:50:18Z</time>
      </trkpt>
      <trkpt lat="42.1321350" lon="-8.6268530">
        <ele>33.2</ele>
        <time>2022-06-18T07:50:19Z</time>
      </trkpt>
      <trkpt lat="42.1321700" lon="-8.6268400">
        <ele>33.2</ele>
        <time>2022-06-18T07:50:20Z</time>
      </trkpt>
      <trkpt lat="42.1322050" lon="-8.6268230">
        <ele>33.2</ele>
        <time>2022-06-18T07:50:21Z</time>
      </trkpt>
      <trkpt lat="42.1322380" lon="-8.6268000">
        <ele>33.2</ele>
        <time>2022-06-18T07:50:22Z</time>
      </trkpt>
      <trkpt lat="42.1322700" lon="-8.6267710">
        <ele>33.6</ele>
        <time>2022-06-18T07:50:23Z</time>
      </trkpt>
      <trkpt lat="42.1322980" lon="-8.6267380">
        <ele>33.8</ele>
        <time>2022-06-18T07:50:24Z</time>
      </trkpt>
      <trkpt lat="42.1323250" lon="-8.6267050">
        <ele>33.8</ele>
        <time>2022-06-18T07:50:25Z</time>
      </trkpt>
      <trkpt lat="42.1323460" lon="-8.6266700">
        <ele>33.8</ele>
        <time>2022-06-18T07:50:26Z</time>
      </trkpt>
      <trkpt lat="42.1323660" lon="-8.6266350">
        <ele>34.8</ele>
        <time>2022-06-18T07:50:27Z</time>
      </trkpt>
      <trkpt lat="42.1323850" lon="-8.6265960">
        <ele>34.6</ele>
        <time>2022-06-18T07:50:28Z</time>
      </trkpt>
      <trkpt lat="42.1324000" lon="-8.6265550">
        <ele>34.6</ele>
        <time>2022-06-18T07:50:29Z</time>
      </trkpt>
      <trkpt lat="42.1324110" lon="-8.6265110">
        <ele>34.6</ele>
        <time>2022-06-18T07:50:30Z</time>
      </trkpt>
      <trkpt lat="42.1324230" lon="-8.6264660">
        <ele>34.8</ele>
        <time>2022-06-18T07:50:31Z</time>
      </trkpt>
      <trkpt lat="42.1324310" lon="-8.6264230">
        <ele>34.8</ele>
        <time>2022-06-18T07:50:32Z</time>
      </trkpt>
      <trkpt lat="42.1324350" lon="-8.6263780">
        <ele>34.8</ele>
        <time>2022-06-18T07:50:33Z</time>
      </trkpt>
      <trkpt lat="42.1324400" lon="-8.6263310">
        <ele>34.8</ele>
        <time>2022-06-18T07:50:34Z</time>
      </trkpt>
      <trkpt lat="42.1324460" lon="-8.6262830">
        <ele>35.2</ele>
        <time>2022-06-18T07:50:35Z</time>
      </trkpt>
      <trkpt lat="42.1324560" lon="-8.6262330">
        <ele>35.4</ele>
        <time>2022-06-18T07:50:36Z</time>
      </trkpt>
      <trkpt lat="42.1324650" lon="-8.6261830">
        <ele>35.4</ele>
        <time>2022-06-18T07:50:37Z</time>
      </trkpt>
      <trkpt lat="42.1324760" lon="-8.6261330">
        <ele>35.4</ele>
        <time>2022-06-18T07:50:38Z</time>
      </trkpt>
      <trkpt lat="42.1324900" lon="-8.6260860">
        <ele>35.4</ele>
        <time>2022-06-18T07:50:39Z</time>
      </trkpt>
      <trkpt lat="42.1325050" lon="-8.6260360">
        <ele>34.2</ele>
        <time>2022-06-18T07:50:40Z</time>
      </trkpt>
      <trkpt lat="42.1325260" lon="-8.6259910">
        <ele>34.2</ele>
        <time>2022-06-18T07:50:41Z</time>
      </trkpt>
      <trkpt lat="42.1325550" lon="-8.6259480">
        <ele>34.2</ele>
        <time>2022-06-18T07:50:42Z</time>
      </trkpt>
      <trkpt lat="42.1325830" lon="-8.6259050">
        <ele>34.2</ele>
        <time>2022-06-18T07:50:43Z</time>
      </trkpt>
      <trkpt lat="42.1326150" lon="-8.6258660">
        <ele>34.2</ele>
        <time>2022-06-18T07:50:44Z</time>
      </trkpt>
      <trkpt lat="42.1326510" lon="-8.6258310">
        <ele>34.2</ele>
        <time>2022-06-18T07:50:45Z</time>
      </trkpt>
      <trkpt lat="42.1326910" lon="-8.6258000">
        <ele>34.2</ele>
        <time>2022-06-18T07:50:46Z</time>
      </trkpt>
      <trkpt lat="42.1327330" lon="-8.6257710">
        <ele>33.6</ele>
        <time>2022-06-18T07:50:47Z</time>
      </trkpt>
      <trkpt lat="42.1327730" lon="-8.6257450">
        <ele>33.4</ele>
        <time>2022-06-18T07:50:48Z</time>
      </trkpt>
      <trkpt lat="42.1328110" lon="-8.6257150">
        <ele>33.4</ele>
        <time>2022-06-18T07:50:49Z</time>
      </trkpt>
      <trkpt lat="42.1328460" lon="-8.6256880">
        <ele>33.4</ele>
        <time>2022-06-18T07:50:50Z</time>
      </trkpt>
      <trkpt lat="42.1328850" lon="-8.6256650">
        <ele>34.2</ele>
        <time>2022-06-18T07:50:51Z</time>
      </trkpt>
      <trkpt lat="42.1329210" lon="-8.6256450">
        <ele>34.2</ele>
        <time>2022-06-18T07:50:52Z</time>
      </trkpt>
      <trkpt lat="42.1329560" lon="-8.6256230">
        <ele>34.2</ele>
        <time>2022-06-18T07:50:53Z</time>
      </trkpt>
      <trkpt lat="42.1329930" lon="-8.6256010">
        <ele>34.2</ele>
        <time>2022-06-18T07:50:54Z</time>
      </trkpt>
      <trkpt lat="42.1330280" lon="-8.6255810">
        <ele>33.8</ele>
        <time>2022-06-18T07:50:55Z</time>
      </trkpt>
      <trkpt lat="42.1330650" lon="-8.6255580">
        <ele>34.2</ele>
        <time>2022-06-18T07:50:56Z</time>
      </trkpt>
      <trkpt lat="42.1331010" lon="-8.6255360">
        <ele>34.2</ele>
        <time>2022-06-18T07:50:57Z</time>
      </trkpt>
      <trkpt lat="42.1331350" lon="-8.6255150">
        <ele>34.2</ele>
        <time>2022-06-18T07:50:58Z</time>
      </trkpt>
      <trkpt lat="42.1331700" lon="-8.6254950">
        <ele>34.2</ele>
        <time>2022-06-18T07:50:59Z</time>
      </trkpt>
      <trkpt lat="42.1332030" lon="-8.6254730">
        <ele>34.0</ele>
        <time>2022-06-18T07:51:00Z</time>
      </trkpt>
      <trkpt lat="42.1332350" lon="-8.6254500">
        <ele>34.0</ele>
        <time>2022-06-18T07:51:01Z</time>
      </trkpt>
      <trkpt lat="42.1332680" lon="-8.6254250">
        <ele>34.0</ele>
        <time>2022-06-18T07:51:02Z</time>
      </trkpt>
      <trkpt lat="42.1332980" lon="-8.6254010">
        <ele>34.0</ele>
        <time>2022-06-18T07:51:03Z</time>
      </trkpt>
      <trkpt lat="42.1333250" lon="-8.6253750">
        <ele>34.2</ele>
        <time>2022-06-18T07:51:04Z</time>
      </trkpt>
      <trkpt lat="42.1333510" lon="-8.6253480">
        <ele>34.2</ele>
        <time>2022-06-18T07:51:05Z</time>
      </trkpt>
      <trkpt lat="42.1333760" lon="-8.6253160">
        <ele>34.2</ele>
        <time>2022-06-18T07:51:06Z</time>
      </trkpt>
      <trkpt lat="42.1334010" lon="-8.6252810">
        <ele>34.6</ele>
        <time>2022-06-18T07:51:07Z</time>
      </trkpt>
      <trkpt lat="42.1334280" lon="-8.6252480">
        <ele>34.6</ele>
        <time>2022-06-18T07:51:08Z</time>
      </trkpt>
      <trkpt lat="42.1334560" lon="-8.6252200">
        <ele>34.6</ele>
        <time>2022-06-18T07:51:09Z</time>
      </trkpt>
      <trkpt lat="42.1334900" lon="-8.6252030">
        <ele>34.6</ele>
        <time>2022-06-18T07:51:10Z</time>
      </trkpt>
      <trkpt lat="42.1335250" lon="-8.6251950">
        <ele>34.6</ele>
        <time>2022-06-18T07:51:11Z</time>
      </trkpt>
      <trkpt lat="42.1335630" lon="-8.6251880">
        <ele>34.4</ele>
        <time>2022-06-18T07:51:12Z</time>
      </trkpt>
      <trkpt lat="42.1336010" lon="-8.6251810">
        <ele>34.4</ele>
        <time>2022-06-18T07:51:13Z</time>
      </trkpt>
      <trkpt lat="42.1336380" lon="-8.6251730">
        <ele>34.4</ele>
        <time>2022-06-18T07:51:14Z</time>
      </trkpt>
      <trkpt lat="42.1336760" lon="-8.6251600">
        <ele>34.4</ele>
        <time>2022-06-18T07:51:15Z</time>
      </trkpt>
      <trkpt lat="42.1337110" lon="-8.6251430">
        <ele>34.2</ele>
        <time>2022-06-18T07:51:16Z</time>
      </trkpt>
      <trkpt lat="42.1337500" lon="-8.6251210">
        <ele>34.2</ele>
        <time>2022-06-18T07:51:17Z</time>
      </trkpt>
      <trkpt lat="42.1337900" lon="-8.6251010">
        <ele>34.2</ele>
        <time>2022-06-18T07:51:18Z</time>
      </trkpt>
      <trkpt lat="42.1338280" lon="-8.6250780">
        <ele>33.6</ele>
        <time>2022-06-18T07:51:19Z</time>
      </trkpt>
      <trkpt lat="42.1338700" lon="-8.6250580">
        <ele>35.6</ele>
        <time>2022-06-18T07:51:20Z</time>
      </trkpt>
      <trkpt lat="42.1339100" lon="-8.6250400">
        <ele>35.6</ele>
        <time>2022-06-18T07:51:21Z</time>
      </trkpt>
      <trkpt lat="42.1339500" lon="-8.6250200">
        <ele>35.6</ele>
        <time>2022-06-18T07:51:22Z</time>
      </trkpt>
      <trkpt lat="42.1339910" lon="-8.6249960">
        <ele>34.6</ele>
        <time>2022-06-18T07:51:23Z</time>
      </trkpt>
      <trkpt lat="42.1340310" lon="-8.6249710">
        <ele>32.6</ele>
        <time>2022-06-18T07:51:24Z</time>
      </trkpt>
      <trkpt lat="42.1340700" lon="-8.6249480">
        <ele>32.6</ele>
        <time>2022-06-18T07:51:25Z</time>
      </trkpt>
      <trkpt lat="42.1341110" lon="-8.6249250">
        <ele>32.6</ele>
        <time>2022-06-18T07:51:26Z</time>
      </trkpt>
      <trkpt lat="42.1341530" lon="-8.6249050">
        <ele>31.8</ele>
        <time>2022-06-18T07:51:27Z</time>
      </trkpt>
      <trkpt lat="42.1341930" lon="-8.6248860">
        <ele>32.2</ele>
        <time>2022-06-18T07:51:28Z</time>
      </trkpt>
      <trkpt lat="42.1342360" lon="-8.6248630">
        <ele>32.2</ele>
        <time>2022-06-18T07:51:29Z</time>
      </trkpt>
      <trkpt lat="42.1342810" lon="-8.6248430">
        <ele>32.2</ele>
        <time>2022-06-18T07:51:30Z</time>
      </trkpt>
      <trkpt lat="42.1343300" lon="-8.6248200">
        <ele>31.6</ele>
        <time>2022-06-18T07:51:31Z</time>
      </trkpt>
      <trkpt lat="42.1343780" lon="-8.6247980">
        <ele>31.2</ele>
        <time>2022-06-18T07:51:32Z</time>
      </trkpt>
      <trkpt lat="42.1344260" lon="-8.6247750">
        <ele>31.2</ele>
        <time>2022-06-18T07:51:33Z</time>
      </trkpt>
      <trkpt lat="42.1344750" lon="-8.6247500">
        <ele>31.2</ele>
        <time>2022-06-18T07:51:34Z</time>
      </trkpt>
      <trkpt lat="42.1345210" lon="-8.6247280">
        <ele>31.2</ele>
        <time>2022-06-18T07:51:35Z</time>
      </trkpt>
      <trkpt lat="42.1345710" lon="-8.6247060">
        <ele>31.4</ele>
        <time>2022-06-18T07:51:36Z</time>
      </trkpt>
      <trkpt lat="42.1346230" lon="-8.6246860">
        <ele>31.4</ele>
        <time>2022-06-18T07:51:37Z</time>
      </trkpt>
      <trkpt lat="42.1346750" lon="-8.6246680">
        <ele>31.4</ele>
        <time>2022-06-18T07:51:38Z</time>
      </trkpt>
      <trkpt lat="42.1347260" lon="-8.6246500">
        <ele>30.4</ele>
        <time>2022-06-18T07:51:39Z</time>
      </trkpt>
      <trkpt lat="42.1347800" lon="-8.6246260">
        <ele>30.4</ele>
        <time>2022-06-18T07:51:40Z</time>
      </trkpt>
      <trkpt lat="42.1348280" lon="-8.6246010">
        <ele>30.4</ele>
        <time>2022-06-18T07:51:41Z</time>
      </trkpt>
      <trkpt lat="42.1348780" lon="-8.6245760">
        <ele>30.4</ele>
        <time>2022-06-18T07:51:42Z</time>
      </trkpt>
      <trkpt lat="42.1349280" lon="-8.6245510">
        <ele>30.2</ele>
        <time>2022-06-18T07:51:43Z</time>
      </trkpt>
      <trkpt lat="42.1349760" lon="-8.6245280">
        <ele>30.0</ele>
        <time>2022-06-18T07:51:44Z</time>
      </trkpt>
      <trkpt lat="42.1350260" lon="-8.6245050">
        <ele>30.0</ele>
        <time>2022-06-18T07:51:45Z</time>
      </trkpt>
      <trkpt lat="42.1350760" lon="-8.6244810">
        <ele>30.0</ele>
        <time>2022-06-18T07:51:46Z</time>
      </trkpt>
      <trkpt lat="42.1351260" lon="-8.6244560">
        <ele>29.8</ele>
        <time>2022-06-18T07:51:47Z</time>
      </trkpt>
      <trkpt lat="42.1351780" lon="-8.6244300">
        <ele>29.4</ele>
        <time>2022-06-18T07:51:48Z</time>
      </trkpt>
      <trkpt lat="42.1352310" lon="-8.6244030">
        <ele>29.4</ele>
        <time>2022-06-18T07:51:49Z</time>
      </trkpt>
      <trkpt lat="42.1352850" lon="-8.6243780">
        <ele>29.4</ele>
        <time>2022-06-18T07:51:50Z</time>
      </trkpt>
      <trkpt lat="42.1353380" lon="-8.6243550">
        <ele>28.4</ele>
        <time>2022-06-18T07:51:51Z</time>
      </trkpt>
      <trkpt lat="42.1353900" lon="-8.6243310">
        <ele>28.6</ele>
        <time>2022-06-18T07:51:52Z</time>
      </trkpt>
      <trkpt lat="42.1354400" lon="-8.6243100">
        <ele>28.6</ele>
        <time>2022-06-18T07:51:53Z</time>
      </trkpt>
      <trkpt lat="42.1354900" lon="-8.6242850">
        <ele>28.6</ele>
        <time>2022-06-18T07:51:54Z</time>
      </trkpt>
      <trkpt lat="42.1355380" lon="-8.6242560">
        <ele>29.4</ele>
        <time>2022-06-18T07:51:55Z</time>
      </trkpt>
      <trkpt lat="42.1355880" lon="-8.6242310">
        <ele>28.8</ele>
        <time>2022-06-18T07:51:56Z</time>
      </trkpt>
      <trkpt lat="42.1356360" lon="-8.6242080">
        <ele>28.8</ele>
        <time>2022-06-18T07:51:57Z</time>
      </trkpt>
      <trkpt lat="42.1356850" lon="-8.6241830">
        <ele>28.8</ele>
        <time>2022-06-18T07:51:58Z</time>
      </trkpt>
      <trkpt lat="42.1357310" lon="-8.6241580">
        <ele>28.8</ele>
        <time>2022-06-18T07:51:59Z</time>
      </trkpt>
      <trkpt lat="42.1357800" lon="-8.6241360">
        <ele>28.6</ele>
        <time>2022-06-18T07:52:00Z</time>
      </trkpt>
      <trkpt lat="42.1358250" lon="-8.6241110">
        <ele>28.6</ele>
        <time>2022-06-18T07:52:01Z</time>
      </trkpt>
      <trkpt lat="42.1358700" lon="-8.6240880">
        <ele>28.6</ele>
        <time>2022-06-18T07:52:02Z</time>
      </trkpt>
      <trkpt lat="42.1359150" lon="-8.6240660">
        <ele>28.6</ele>
        <time>2022-06-18T07:52:03Z</time>
      </trkpt>
      <trkpt lat="42.1359580" lon="-8.6240450">
        <ele>29.4</ele>
        <time>2022-06-18T07:52:04Z</time>
      </trkpt>
      <trkpt lat="42.1359980" lon="-8.6240230">
        <ele>29.4</ele>
        <time>2022-06-18T07:52:05Z</time>
      </trkpt>
      <trkpt lat="42.1360410" lon="-8.6240010">
        <ele>29.4</ele>
        <time>2022-06-18T07:52:06Z</time>
      </trkpt>
      <trkpt lat="42.1360860" lon="-8.6239810">
        <ele>29.4</ele>
        <time>2022-06-18T07:52:07Z</time>
      </trkpt>
      <trkpt lat="42.1361310" lon="-8.6239580">
        <ele>29.0</ele>
        <time>2022-06-18T07:52:08Z</time>
      </trkpt>
      <trkpt lat="42.1361760" lon="-8.6239330">
        <ele>29.0</ele>
        <time>2022-06-18T07:52:09Z</time>
      </trkpt>
      <trkpt lat="42.1362210" lon="-8.6239030">
        <ele>29.0</ele>
        <time>2022-06-18T07:52:10Z</time>
      </trkpt>
      <trkpt lat="42.1362680" lon="-8.6238750">
        <ele>29.0</ele>
        <time>2022-06-18T07:52:11Z</time>
      </trkpt>
      <trkpt lat="42.1363110" lon="-8.6238480">
        <ele>29.0</ele>
        <time>2022-06-18T07:52:12Z</time>
      </trkpt>
      <trkpt lat="42.1363530" lon="-8.6238260">
        <ele>29.0</ele>
        <time>2022-06-18T07:52:13Z</time>
      </trkpt>
      <trkpt lat="42.1363950" lon="-8.6238030">
        <ele>29.0</ele>
        <time>2022-06-18T07:52:14Z</time>
      </trkpt>
      <trkpt lat="42.1364350" lon="-8.6237800">
        <ele>29.0</ele>
        <time>2022-06-18T07:52:15Z</time>
      </trkpt>
      <trkpt lat="42.1364760" lon="-8.6237560">
        <ele>28.4</ele>
        <time>2022-06-18T07:52:16Z</time>
      </trkpt>
      <trkpt lat="42.1365160" lon="-8.6237350">
        <ele>28.4</ele>
        <time>2022-06-18T07:52:17Z</time>
      </trkpt>
      <trkpt lat="42.1365600" lon="-8.6237110">
        <ele>28.4</ele>
        <time>2022-06-18T07:52:18Z</time>
      </trkpt>
      <trkpt lat="42.1365980" lon="-8.6236850">
        <ele>28.2</ele>
        <time>2022-06-18T07:52:19Z</time>
      </trkpt>
      <trkpt lat="42.1366310" lon="-8.6236480">
        <ele>28.2</ele>
        <time>2022-06-18T07:52:20Z</time>
      </trkpt>
      <trkpt lat="42.1366610" lon="-8.6236100">
        <ele>28.2</ele>
        <time>2022-06-18T07:52:21Z</time>
      </trkpt>
      <trkpt lat="42.1366860" lon="-8.6235710">
        <ele>28.2</ele>
        <time>2022-06-18T07:52:22Z</time>
      </trkpt>
      <trkpt lat="42.1367110" lon="-8.6235350">
        <ele>28.6</ele>
        <time>2022-06-18T07:52:23Z</time>
      </trkpt>
      <trkpt lat="42.1367410" lon="-8.6235010">
        <ele>29.0</ele>
        <time>2022-06-18T07:52:24Z</time>
      </trkpt>
      <trkpt lat="42.1367710" lon="-8.6234780">
        <ele>29.0</ele>
        <time>2022-06-18T07:52:25Z</time>
      </trkpt>
      <trkpt lat="42.1368050" lon="-8.6234660">
        <ele>29.0</ele>
        <time>2022-06-18T07:52:26Z</time>
      </trkpt>
      <trkpt lat="42.1368310" lon="-8.6234630">
        <ele>30.0</ele>
        <time>2022-06-18T07:52:27Z</time>
      </trkpt>
      <trkpt lat="42.1368560" lon="-8.6234630">
        <ele>30.8</ele>
        <time>2022-06-18T07:52:28Z</time>
      </trkpt>
      <trkpt lat="42.1368880" lon="-8.6234550">
        <ele>30.8</ele>
        <time>2022-06-18T07:52:29Z</time>
      </trkpt>
      <trkpt lat="42.1369150" lon="-8.6234510">
        <ele>30.8</ele>
        <time>2022-06-18T07:52:30Z</time>
      </trkpt>
      <trkpt lat="42.1369430" lon="-8.6234460">
        <ele>30.8</ele>
        <time>2022-06-18T07:52:31Z</time>
      </trkpt>
      <trkpt lat="42.1369760" lon="-8.6234380">
        <ele>32.8</ele>
        <time>2022-06-18T07:52:32Z</time>
      </trkpt>
      <trkpt lat="42.1370010" lon="-8.6234430">
        <ele>32.8</ele>
        <time>2022-06-18T07:52:33Z</time>
      </trkpt>
      <trkpt lat="42.1370280" lon="-8.6234410">
        <ele>32.8</ele>
        <time>2022-06-18T07:52:34Z</time>
      </trkpt>
      <trkpt lat="42.1370430" lon="-8.6234400">
        <ele>33.4</ele>
        <time>2022-06-18T07:52:35Z</time>
      </trkpt>
      <trkpt lat="42.1370580" lon="-8.6234400">
        <ele>33.6</ele>
        <time>2022-06-18T07:52:36Z</time>
      </trkpt>
      <trkpt lat="42.1370700" lon="-8.6234300">
        <ele>33.6</ele>
        <time>2022-06-18T07:52:37Z</time>
      </trkpt>
      <trkpt lat="42.1370700" lon="-8.6234150">
        <ele>33.6</ele>
        <time>2022-06-18T07:52:38Z</time>
      </trkpt>
      <trkpt lat="42.1370610" lon="-8.6234030">
        <ele>33.2</ele>
        <time>2022-06-18T07:52:39Z</time>
      </trkpt>
      <trkpt lat="42.1370450" lon="-8.6233980">
        <ele>33.6</ele>
        <time>2022-06-18T07:52:40Z</time>
      </trkpt>
      <trkpt lat="42.1370200" lon="-8.6234010">
        <ele>33.6</ele>
        <time>2022-06-18T07:52:41Z</time>
      </trkpt>
      <trkpt lat="42.1369930" lon="-8.6234080">
        <ele>33.6</ele>
        <time>2022-06-18T07:52:42Z</time>
      </trkpt>
      <trkpt lat="42.1369630" lon="-8.6234060">
        <ele>33.4</ele>
        <time>2022-06-18T07:52:43Z</time>
      </trkpt>
      <trkpt lat="42.1369310" lon="-8.6234110">
        <ele>33.6</ele>
        <time>2022-06-18T07:52:44Z</time>
      </trkpt>
      <trkpt lat="42.1369030" lon="-8.6234130">
        <ele>33.6</ele>
        <time>2022-06-18T07:52:45Z</time>
      </trkpt>
      <trkpt lat="42.1368730" lon="-8.6234150">
        <ele>33.6</ele>
        <time>2022-06-18T07:52:46Z</time>
      </trkpt>
      <trkpt lat="42.1368460" lon="-8.6234200">
        <ele>34.6</ele>
        <time>2022-06-18T07:52:47Z</time>
      </trkpt>
      <trkpt lat="42.1368210" lon="-8.6234230">
        <ele>35.2</ele>
        <time>2022-06-18T07:52:48Z</time>
      </trkpt>
      <trkpt lat="42.1368030" lon="-8.6234110">
        <ele>35.2</ele>
        <time>2022-06-18T07:52:49Z</time>
      </trkpt>
      <trkpt lat="42.1367900" lon="-8.6233980">
        <ele>35.2</ele>
        <time>2022-06-18T07:52:50Z</time>
      </trkpt>
      <trkpt lat="42.1367830" lon="-8.6233800">
        <ele>36.0</ele>
        <time>2022-06-18T07:52:51Z</time>
      </trkpt>
      <trkpt lat="42.1367800" lon="-8.6233510">
        <ele>35.8</ele>
        <time>2022-06-18T07:52:52Z</time>
      </trkpt>
      <trkpt lat="42.1367760" lon="-8.6233180">
        <ele>35.8</ele>
        <time>2022-06-18T07:52:53Z</time>
      </trkpt>
      <trkpt lat="42.1367800" lon="-8.6232860">
        <ele>35.8</ele>
        <time>2022-06-18T07:52:54Z</time>
      </trkpt>
      <trkpt lat="42.1367780" lon="-8.6232580">
        <ele>35.8</ele>
        <time>2022-06-18T07:52:55Z</time>
      </trkpt>
      <trkpt lat="42.1367730" lon="-8.6232300">
        <ele>35.8</ele>
        <time>2022-06-18T07:52:56Z</time>
      </trkpt>
      <trkpt lat="42.1367610" lon="-8.6232130">
        <ele>35.8</ele>
        <time>2022-06-18T07:52:57Z</time>
      </trkpt>
      <trkpt lat="42.1367380" lon="-8.6232060">
        <ele>35.8</ele>
        <time>2022-06-18T07:52:58Z</time>
      </trkpt>
      <trkpt lat="42.1367100" lon="-8.6232010">
        <ele>34.8</ele>
        <time>2022-06-18T07:52:59Z</time>
      </trkpt>
      <trkpt lat="42.1366800" lon="-8.6232000">
        <ele>34.0</ele>
        <time>2022-06-18T07:53:00Z</time>
      </trkpt>
      <trkpt lat="42.1366480" lon="-8.6232010">
        <ele>34.0</ele>
        <time>2022-06-18T07:53:01Z</time>
      </trkpt>
      <trkpt lat="42.1366160" lon="-8.6232050">
        <ele>34.0</ele>
        <time>2022-06-18T07:53:02Z</time>
      </trkpt>
      <trkpt lat="42.1365850" lon="-8.6232080">
        <ele>34.0</ele>
        <time>2022-06-18T07:53:03Z</time>
      </trkpt>
      <trkpt lat="42.1365530" lon="-8.6232130">
        <ele>33.8</ele>
        <time>2022-06-18T07:53:04Z</time>
      </trkpt>
      <trkpt lat="42.1365280" lon="-8.6232110">
        <ele>33.8</ele>
        <time>2022-06-18T07:53:05Z</time>
      </trkpt>
      <trkpt lat="42.1365130" lon="-8.6232010">
        <ele>33.8</ele>
        <time>2022-06-18T07:53:06Z</time>
      </trkpt>
      <trkpt lat="42.1365150" lon="-8.6231900">
        <ele>33.6</ele>
        <time>2022-06-18T07:53:07Z</time>
      </trkpt>
      <trkpt lat="42.1365230" lon="-8.6231880">
        <ele>33.6</ele>
        <time>2022-06-18T07:53:08Z</time>
      </trkpt>
      <trkpt lat="42.1365380" lon="-8.6231880">
        <ele>33.6</ele>
        <time>2022-06-18T07:53:09Z</time>
      </trkpt>
      <trkpt lat="42.1365560" lon="-8.6231880">
        <ele>33.6</ele>
        <time>2022-06-18T07:53:10Z</time>
      </trkpt>
      <trkpt lat="42.1365830" lon="-8.6231860">
        <ele>33.6</ele>
        <time>2022-06-18T07:53:11Z</time>
      </trkpt>
      <trkpt lat="42.1366180" lon="-8.6231850">
        <ele>32.0</ele>
        <time>2022-06-18T07:53:12Z</time>
      </trkpt>
      <trkpt lat="42.1366500" lon="-8.6231900">
        <ele>32.0</ele>
        <time>2022-06-18T07:53:13Z</time>
      </trkpt>
      <trkpt lat="42.1366850" lon="-8.6231930">
        <ele>32.0</ele>
        <time>2022-06-18T07:53:14Z</time>
      </trkpt>
      <trkpt lat="42.1367250" lon="-8.6231910">
        <ele>31.0</ele>
        <time>2022-06-18T07:53:15Z</time>
      </trkpt>
      <trkpt lat="42.1367660" lon="-8.6231960">
        <ele>29.6</ele>
        <time>2022-06-18T07:53:16Z</time>
      </trkpt>
      <trkpt lat="42.1368110" lon="-8.6231950">
        <ele>29.6</ele>
        <time>2022-06-18T07:53:17Z</time>
      </trkpt>
      <trkpt lat="42.1368580" lon="-8.6231930">
        <ele>29.6</ele>
        <time>2022-06-18T07:53:18Z</time>
      </trkpt>
      <trkpt lat="42.1369030" lon="-8.6231760">
        <ele>28.6</ele>
        <time>2022-06-18T07:53:19Z</time>
      </trkpt>
      <trkpt lat="42.1369500" lon="-8.6231660">
        <ele>28.0</ele>
        <time>2022-06-18T07:53:20Z</time>
      </trkpt>
      <trkpt lat="42.1369980" lon="-8.6231560">
        <ele>28.0</ele>
        <time>2022-06-18T07:53:21Z</time>
      </trkpt>
      <trkpt lat="42.1370460" lon="-8.6231460">
        <ele>28.0</ele>
        <time>2022-06-18T07:53:22Z</time>
      </trkpt>
      <trkpt lat="42.1370900" lon="-8.6231360">
        <ele>28.0</ele>
        <time>2022-06-18T07:53:23Z</time>
      </trkpt>
      <trkpt lat="42.1371360" lon="-8.6231300">
        <ele>28.2</ele>
        <time>2022-06-18T07:53:24Z</time>
      </trkpt>
      <trkpt lat="42.1371900" lon="-8.6231330">
        <ele>28.2</ele>
        <time>2022-06-18T07:53:25Z</time>
      </trkpt>
      <trkpt lat="42.1372360" lon="-8.6231250">
        <ele>28.2</ele>
        <time>2022-06-18T07:53:26Z</time>
      </trkpt>
      <trkpt lat="42.1372810" lon="-8.6231160">
        <ele>28.8</ele>
        <time>2022-06-18T07:53:27Z</time>
      </trkpt>
      <trkpt lat="42.1373250" lon="-8.6231080">
        <ele>28.0</ele>
        <time>2022-06-18T07:53:28Z</time>
      </trkpt>
      <trkpt lat="42.1373700" lon="-8.6230910">
        <ele>28.0</ele>
        <time>2022-06-18T07:53:29Z</time>
      </trkpt>
      <trkpt lat="42.1374130" lon="-8.6230830">
        <ele>28.0</ele>
        <time>2022-06-18T07:53:30Z</time>
      </trkpt>
      <trkpt lat="42.1374510" lon="-8.6230730">
        <ele>28.0</ele>
        <time>2022-06-18T07:53:31Z</time>
      </trkpt>
      <trkpt lat="42.1374910" lon="-8.6230710">
        <ele>28.2</ele>
        <time>2022-06-18T07:53:32Z</time>
      </trkpt>
      <trkpt lat="42.1375300" lon="-8.6230700">
        <ele>28.2</ele>
        <time>2022-06-18T07:53:33Z</time>
      </trkpt>
      <trkpt lat="42.1375680" lon="-8.6230630">
        <ele>28.2</ele>
        <time>2022-06-18T07:53:34Z</time>
      </trkpt>
      <trkpt lat="42.1376080" lon="-8.6230560">
        <ele>27.2</ele>
        <time>2022-06-18T07:53:35Z</time>
      </trkpt>
      <trkpt lat="42.1376500" lon="-8.6230360">
        <ele>27.0</ele>
        <time>2022-06-18T07:53:36Z</time>
      </trkpt>
      <trkpt lat="42.1376860" lon="-8.6230080">
        <ele>27.0</ele>
        <time>2022-06-18T07:53:37Z</time>
      </trkpt>
      <trkpt lat="42.1377230" lon="-8.6229750">
        <ele>27.0</ele>
        <time>2022-06-18T07:53:38Z</time>
      </trkpt>
      <trkpt lat="42.1377630" lon="-8.6229560">
        <ele>27.8</ele>
        <time>2022-06-18T07:53:39Z</time>
      </trkpt>
      <trkpt lat="42.1378050" lon="-8.6229450">
        <ele>27.8</ele>
        <time>2022-06-18T07:53:40Z</time>
      </trkpt>
      <trkpt lat="42.1378500" lon="-8.6229410">
        <ele>27.8</ele>
        <time>2022-06-18T07:53:41Z</time>
      </trkpt>
      <trkpt lat="42.1378950" lon="-8.6229310">
        <ele>27.8</ele>
        <time>2022-06-18T07:53:42Z</time>
      </trkpt>
      <trkpt lat="42.1379400" lon="-8.6229200">
        <ele>27.8</ele>
        <time>2022-06-18T07:53:43Z</time>
      </trkpt>
      <trkpt lat="42.1379880" lon="-8.6229100">
        <ele>27.2</ele>
        <time>2022-06-18T07:53:44Z</time>
      </trkpt>
      <trkpt lat="42.1380350" lon="-8.6229050">
        <ele>27.2</ele>
        <time>2022-06-18T07:53:45Z</time>
      </trkpt>
      <trkpt lat="42.1380800" lon="-8.6229050">
        <ele>27.2</ele>
        <time>2022-06-18T07:53:46Z</time>
      </trkpt>
      <trkpt lat="42.1381260" lon="-8.6229080">
        <ele>27.2</ele>
        <time>2022-06-18T07:53:47Z</time>
      </trkpt>
      <trkpt lat="42.1381750" lon="-8.6229130">
        <ele>27.4</ele>
        <time>2022-06-18T07:53:48Z</time>
      </trkpt>
      <trkpt lat="42.1382200" lon="-8.6229080">
        <ele>27.4</ele>
        <time>2022-06-18T07:53:49Z</time>
      </trkpt>
      <trkpt lat="42.1382650" lon="-8.6228900">
        <ele>27.4</ele>
        <time>2022-06-18T07:53:50Z</time>
      </trkpt>
      <trkpt lat="42.1383110" lon="-8.6228800">
        <ele>27.4</ele>
        <time>2022-06-18T07:53:51Z</time>
      </trkpt>
      <trkpt lat="42.1383560" lon="-8.6228700">
        <ele>26.8</ele>
        <time>2022-06-18T07:53:52Z</time>
      </trkpt>
      <trkpt lat="42.1384010" lon="-8.6228600">
        <ele>26.8</ele>
        <time>2022-06-18T07:53:53Z</time>
      </trkpt>
      <trkpt lat="42.1384460" lon="-8.6228580">
        <ele>26.8</ele>
        <time>2022-06-18T07:53:54Z</time>
      </trkpt>
      <trkpt lat="42.1384900" lon="-8.6228580">
        <ele>27.0</ele>
        <time>2022-06-18T07:53:55Z</time>
      </trkpt>
      <trkpt lat="42.1385310" lon="-8.6228550">
        <ele>26.6</ele>
        <time>2022-06-18T07:53:56Z</time>
      </trkpt>
      <trkpt lat="42.1385730" lon="-8.6228460">
        <ele>26.6</ele>
        <time>2022-06-18T07:53:57Z</time>
      </trkpt>
      <trkpt lat="42.1386130" lon="-8.6228400">
        <ele>26.6</ele>
        <time>2022-06-18T07:53:58Z</time>
      </trkpt>
      <trkpt lat="42.1386530" lon="-8.6228360">
        <ele>27.0</ele>
        <time>2022-06-18T07:53:59Z</time>
      </trkpt>
      <trkpt lat="42.1386930" lon="-8.6228360">
        <ele>27.4</ele>
        <time>2022-06-18T07:54:00Z</time>
      </trkpt>
      <trkpt lat="42.1387300" lon="-8.6228350">
        <ele>27.4</ele>
        <time>2022-06-18T07:54:01Z</time>
      </trkpt>
      <trkpt lat="42.1387660" lon="-8.6228360">
        <ele>27.4</ele>
        <time>2022-06-18T07:54:02Z</time>
      </trkpt>
      <trkpt lat="42.1388010" lon="-8.6228330">
        <ele>27.0</ele>
        <time>2022-06-18T07:54:03Z</time>
      </trkpt>
      <trkpt lat="42.1388360" lon="-8.6228310">
        <ele>27.0</ele>
        <time>2022-06-18T07:54:04Z</time>
      </trkpt>
      <trkpt lat="42.1388700" lon="-8.6228300">
        <ele>27.0</ele>
        <time>2022-06-18T07:54:05Z</time>
      </trkpt>
      <trkpt lat="42.1389050" lon="-8.6228210">
        <ele>27.0</ele>
        <time>2022-06-18T07:54:06Z</time>
      </trkpt>
      <trkpt lat="42.1389380" lon="-8.6228180">
        <ele>27.0</ele>
        <time>2022-06-18T07:54:07Z</time>
      </trkpt>
      <trkpt lat="42.1389710" lon="-8.6228150">
        <ele>27.0</ele>
        <time>2022-06-18T07:54:08Z</time>
      </trkpt>
      <trkpt lat="42.1390030" lon="-8.6228060">
        <ele>27.0</ele>
        <time>2022-06-18T07:54:09Z</time>
      </trkpt>
      <trkpt lat="42.1390400" lon="-8.6228000">
        <ele>27.0</ele>
        <time>2022-06-18T07:54:10Z</time>
      </trkpt>
      <trkpt lat="42.1390750" lon="-8.6227810">
        <ele>27.4</ele>
        <time>2022-06-18T07:54:11Z</time>
      </trkpt>
      <trkpt lat="42.1391110" lon="-8.6227700">
        <ele>27.0</ele>
        <time>2022-06-18T07:54:12Z</time>
      </trkpt>
      <trkpt lat="42.1391460" lon="-8.6227610">
        <ele>27.0</ele>
        <time>2022-06-18T07:54:13Z</time>
      </trkpt>
      <trkpt lat="42.1391810" lon="-8.6227580">
        <ele>27.0</ele>
        <time>2022-06-18T07:54:14Z</time>
      </trkpt>
      <trkpt lat="42.1392160" lon="-8.6227550">
        <ele>27.0</ele>
        <time>2022-06-18T07:54:15Z</time>
      </trkpt>
      <trkpt lat="42.1392500" lon="-8.6227510">
        <ele>26.8</ele>
        <time>2022-06-18T07:54:16Z</time>
      </trkpt>
      <trkpt lat="42.1392860" lon="-8.6227480">
        <ele>26.8</ele>
        <time>2022-06-18T07:54:17Z</time>
      </trkpt>
      <trkpt lat="42.1393200" lon="-8.6227550">
        <ele>26.8</ele>
        <time>2022-06-18T07:54:18Z</time>
      </trkpt>
      <trkpt lat="42.1393530" lon="-8.6227680">
        <ele>27.0</ele>
        <time>2022-06-18T07:54:19Z</time>
      </trkpt>
      <trkpt lat="42.1393850" lon="-8.6227750">
        <ele>27.0</ele>
        <time>2022-06-18T07:54:20Z</time>
      </trkpt>
      <trkpt lat="42.1394210" lon="-8.6227730">
        <ele>27.0</ele>
        <time>2022-06-18T07:54:21Z</time>
      </trkpt>
      <trkpt lat="42.1394600" lon="-8.6227680">
        <ele>27.0</ele>
        <time>2022-06-18T07:54:22Z</time>
      </trkpt>
      <trkpt lat="42.1394960" lon="-8.6227630">
        <ele>26.4</ele>
        <time>2022-06-18T07:54:23Z</time>
      </trkpt>
      <trkpt lat="42.1395330" lon="-8.6227450">
        <ele>26.6</ele>
        <time>2022-06-18T07:54:24Z</time>
      </trkpt>
      <trkpt lat="42.1395710" lon="-8.6227310">
        <ele>26.6</ele>
        <time>2022-06-18T07:54:25Z</time>
      </trkpt>
      <trkpt lat="42.1396130" lon="-8.6227260">
        <ele>26.6</ele>
        <time>2022-06-18T07:54:26Z</time>
      </trkpt>
      <trkpt lat="42.1396530" lon="-8.6227280">
        <ele>26.4</ele>
        <time>2022-06-18T07:54:27Z</time>
      </trkpt>
      <trkpt lat="42.1396930" lon="-8.6227360">
        <ele>27.0</ele>
        <time>2022-06-18T07:54:28Z</time>
      </trkpt>
      <trkpt lat="42.1397330" lon="-8.6227430">
        <ele>27.0</ele>
        <time>2022-06-18T07:54:29Z</time>
      </trkpt>
      <trkpt lat="42.1397730" lon="-8.6227480">
        <ele>27.0</ele>
        <time>2022-06-18T07:54:30Z</time>
      </trkpt>
      <trkpt lat="42.1398130" lon="-8.6227500">
        <ele>26.4</ele>
        <time>2022-06-18T07:54:31Z</time>
      </trkpt>
      <trkpt lat="42.1398500" lon="-8.6227500">
        <ele>26.2</ele>
        <time>2022-06-18T07:54:32Z</time>
      </trkpt>
      <trkpt lat="42.1398880" lon="-8.6227500">
        <ele>26.2</ele>
        <time>2022-06-18T07:54:33Z</time>
      </trkpt>
      <trkpt lat="42.1399250" lon="-8.6227500">
        <ele>26.2</ele>
        <time>2022-06-18T07:54:34Z</time>
      </trkpt>
      <trkpt lat="42.1399630" lon="-8.6227460">
        <ele>27.0</ele>
        <time>2022-06-18T07:54:35Z</time>
      </trkpt>
      <trkpt lat="42.1400010" lon="-8.6227360">
        <ele>27.0</ele>
        <time>2022-06-18T07:54:36Z</time>
      </trkpt>
      <trkpt lat="42.1400400" lon="-8.6227280">
        <ele>27.0</ele>
        <time>2022-06-18T07:54:37Z</time>
      </trkpt>
      <trkpt lat="42.1400760" lon="-8.6227230">
        <ele>27.0</ele>
        <time>2022-06-18T07:54:38Z</time>
      </trkpt>
      <trkpt lat="42.1401130" lon="-8.6227210">
        <ele>26.2</ele>
        <time>2022-06-18T07:54:39Z</time>
      </trkpt>
      <trkpt lat="42.1401500" lon="-8.6227210">
        <ele>26.8</ele>
        <time>2022-06-18T07:54:40Z</time>
      </trkpt>
      <trkpt lat="42.1401880" lon="-8.6227200">
        <ele>26.8</ele>
        <time>2022-06-18T07:54:41Z</time>
      </trkpt>
      <trkpt lat="42.1402260" lon="-8.6227150">
        <ele>26.8</ele>
        <time>2022-06-18T07:54:42Z</time>
      </trkpt>
      <trkpt lat="42.1402610" lon="-8.6227110">
        <ele>26.4</ele>
        <time>2022-06-18T07:54:43Z</time>
      </trkpt>
      <trkpt lat="42.1402980" lon="-8.6227100">
        <ele>26.4</ele>
        <time>2022-06-18T07:54:44Z</time>
      </trkpt>
      <trkpt lat="42.1403350" lon="-8.6227080">
        <ele>26.4</ele>
        <time>2022-06-18T07:54:45Z</time>
      </trkpt>
      <trkpt lat="42.1403710" lon="-8.6227030">
        <ele>26.4</ele>
        <time>2022-06-18T07:54:46Z</time>
      </trkpt>
      <trkpt lat="42.1404050" lon="-8.6226980">
        <ele>26.8</ele>
        <time>2022-06-18T07:54:47Z</time>
      </trkpt>
      <trkpt lat="42.1404380" lon="-8.6226960">
        <ele>26.4</ele>
        <time>2022-06-18T07:54:48Z</time>
      </trkpt>
      <trkpt lat="42.1404730" lon="-8.6226960">
        <ele>26.4</ele>
        <time>2022-06-18T07:54:49Z</time>
      </trkpt>
      <trkpt lat="42.1405110" lon="-8.6226950">
        <ele>26.4</ele>
        <time>2022-06-18T07:54:50Z</time>
      </trkpt>
      <trkpt lat="42.1405500" lon="-8.6226930">
        <ele>26.4</ele>
        <time>2022-06-18T07:54:51Z</time>
      </trkpt>
      <trkpt lat="42.1405880" lon="-8.6226930">
        <ele>27.0</ele>
        <time>2022-06-18T07:54:52Z</time>
      </trkpt>
      <trkpt lat="42.1406260" lon="-8.6226950">
        <ele>27.0</ele>
        <time>2022-06-18T07:54:53Z</time>
      </trkpt>
      <trkpt lat="42.1406650" lon="-8.6226930">
        <ele>27.0</ele>
        <time>2022-06-18T07:54:54Z</time>
      </trkpt>
      <trkpt lat="42.1407050" lon="-8.6226900">
        <ele>27.0</ele>
        <time>2022-06-18T07:54:55Z</time>
      </trkpt>
      <trkpt lat="42.1407460" lon="-8.6226860">
        <ele>26.6</ele>
        <time>2022-06-18T07:54:56Z</time>
      </trkpt>
      <trkpt lat="42.1407860" lon="-8.6226830">
        <ele>26.6</ele>
        <time>2022-06-18T07:54:57Z</time>
      </trkpt>
      <trkpt lat="42.1408250" lon="-8.6226800">
        <ele>26.6</ele>
        <time>2022-06-18T07:54:58Z</time>
      </trkpt>
      <trkpt lat="42.1408660" lon="-8.6226750">
        <ele>26.6</ele>
        <time>2022-06-18T07:54:59Z</time>
      </trkpt>
      <trkpt lat="42.1409080" lon="-8.6226700">
        <ele>26.8</ele>
        <time>2022-06-18T07:55:00Z</time>
      </trkpt>
      <trkpt lat="42.1409500" lon="-8.6226610">
        <ele>26.8</ele>
        <time>2022-06-18T07:55:01Z</time>
      </trkpt>
      <trkpt lat="42.1409860" lon="-8.6226550">
        <ele>26.8</ele>
        <time>2022-06-18T07:55:02Z</time>
      </trkpt>
      <trkpt lat="42.1410280" lon="-8.6226500">
        <ele>26.8</ele>
        <time>2022-06-18T07:55:03Z</time>
      </trkpt>
      <trkpt lat="42.1410710" lon="-8.6226430">
        <ele>26.6</ele>
        <time>2022-06-18T07:55:04Z</time>
      </trkpt>
      <trkpt lat="42.1411130" lon="-8.6226380">
        <ele>26.6</ele>
        <time>2022-06-18T07:55:05Z</time>
      </trkpt>
      <trkpt lat="42.1411530" lon="-8.6226360">
        <ele>26.6</ele>
        <time>2022-06-18T07:55:06Z</time>
      </trkpt>
      <trkpt lat="42.1411910" lon="-8.6226380">
        <ele>26.6</ele>
        <time>2022-06-18T07:55:07Z</time>
      </trkpt>
      <trkpt lat="42.1412310" lon="-8.6226400">
        <ele>26.4</ele>
        <time>2022-06-18T07:55:08Z</time>
      </trkpt>
      <trkpt lat="42.1412710" lon="-8.6226430">
        <ele>26.4</ele>
        <time>2022-06-18T07:55:09Z</time>
      </trkpt>
      <trkpt lat="42.1413100" lon="-8.6226450">
        <ele>26.4</ele>
        <time>2022-06-18T07:55:10Z</time>
      </trkpt>
      <trkpt lat="42.1413460" lon="-8.6226450">
        <ele>26.4</ele>
        <time>2022-06-18T07:55:11Z</time>
      </trkpt>
      <trkpt lat="42.1413830" lon="-8.6226350">
        <ele>26.4</ele>
        <time>2022-06-18T07:55:12Z</time>
      </trkpt>
      <trkpt lat="42.1414230" lon="-8.6226260">
        <ele>26.4</ele>
        <time>2022-06-18T07:55:13Z</time>
      </trkpt>
      <trkpt lat="42.1414630" lon="-8.6226200">
        <ele>26.4</ele>
        <time>2022-06-18T07:55:14Z</time>
      </trkpt>
      <trkpt lat="42.1415010" lon="-8.6226150">
        <ele>26.4</ele>
        <time>2022-06-18T07:55:15Z</time>
      </trkpt>
      <trkpt lat="42.1415430" lon="-8.6226080">
        <ele>26.4</ele>
        <time>2022-06-18T07:55:16Z</time>
      </trkpt>
      <trkpt lat="42.1415800" lon="-8.6226050">
        <ele>26.4</ele>
        <time>2022-06-18T07:55:17Z</time>
      </trkpt>
      <trkpt lat="42.1416210" lon="-8.6226010">
        <ele>26.4</ele>
        <time>2022-06-18T07:55:18Z</time>
      </trkpt>
      <trkpt lat="42.1416610" lon="-8.6226030">
        <ele>26.4</ele>
        <time>2022-06-18T07:55:19Z</time>
      </trkpt>
      <trkpt lat="42.1417050" lon="-8.6226000">
        <ele>26.0</ele>
        <time>2022-06-18T07:55:20Z</time>
      </trkpt>
      <trkpt lat="42.1417480" lon="-8.6226000">
        <ele>26.0</ele>
        <time>2022-06-18T07:55:21Z</time>
      </trkpt>
      <trkpt lat="42.1417930" lon="-8.6226010">
        <ele>26.0</ele>
        <time>2022-06-18T07:55:22Z</time>
      </trkpt>
      <trkpt lat="42.1418400" lon="-8.6226030">
        <ele>26.4</ele>
        <time>2022-06-18T07:55:23Z</time>
      </trkpt>
      <trkpt lat="42.1418830" lon="-8.6226100">
        <ele>26.2</ele>
        <time>2022-06-18T07:55:24Z</time>
      </trkpt>
      <trkpt lat="42.1419260" lon="-8.6226150">
        <ele>26.2</ele>
        <time>2022-06-18T07:55:25Z</time>
      </trkpt>
      <trkpt lat="42.1419680" lon="-8.6226180">
        <ele>26.2</ele>
        <time>2022-06-18T07:55:26Z</time>
      </trkpt>
      <trkpt lat="42.1420110" lon="-8.6226200">
        <ele>26.0</ele>
        <time>2022-06-18T07:55:27Z</time>
      </trkpt>
      <trkpt lat="42.1420580" lon="-8.6226180">
        <ele>26.4</ele>
        <time>2022-06-18T07:55:28Z</time>
      </trkpt>
      <trkpt lat="42.1421030" lon="-8.6226160">
        <ele>26.4</ele>
        <time>2022-06-18T07:55:29Z</time>
      </trkpt>
      <trkpt lat="42.1421500" lon="-8.6226080">
        <ele>26.4</ele>
        <time>2022-06-18T07:55:30Z</time>
      </trkpt>
      <trkpt lat="42.1421960" lon="-8.6226000">
        <ele>26.0</ele>
        <time>2022-06-18T07:55:31Z</time>
      </trkpt>
      <trkpt lat="42.1422430" lon="-8.6225930">
        <ele>26.2</ele>
        <time>2022-06-18T07:55:32Z</time>
      </trkpt>
      <trkpt lat="42.1422900" lon="-8.6225850">
        <ele>26.2</ele>
        <time>2022-06-18T07:55:33Z</time>
      </trkpt>
      <trkpt lat="42.1423400" lon="-8.6225780">
        <ele>26.2</ele>
        <time>2022-06-18T07:55:34Z</time>
      </trkpt>
      <trkpt lat="42.1423880" lon="-8.6225750">
        <ele>26.2</ele>
        <time>2022-06-18T07:55:35Z</time>
      </trkpt>
      <trkpt lat="42.1424360" lon="-8.6225710">
        <ele>26.0</ele>
        <time>2022-06-18T07:55:36Z</time>
      </trkpt>
      <trkpt lat="42.1424850" lon="-8.6225700">
        <ele>26.0</ele>
        <time>2022-06-18T07:55:37Z</time>
      </trkpt>
      <trkpt lat="42.1425310" lon="-8.6225700">
        <ele>26.0</ele>
        <time>2022-06-18T07:55:38Z</time>
      </trkpt>
      <trkpt lat="42.1425760" lon="-8.6225700">
        <ele>26.0</ele>
        <time>2022-06-18T07:55:39Z</time>
      </trkpt>
      <trkpt lat="42.1426210" lon="-8.6225680">
        <ele>26.2</ele>
        <time>2022-06-18T07:55:40Z</time>
      </trkpt>
      <trkpt lat="42.1426650" lon="-8.6225660">
        <ele>26.2</ele>
        <time>2022-06-18T07:55:41Z</time>
      </trkpt>
      <trkpt lat="42.1427100" lon="-8.6225600">
        <ele>26.2</ele>
        <time>2022-06-18T07:55:42Z</time>
      </trkpt>
      <trkpt lat="42.1427560" lon="-8.6225560">
        <ele>26.2</ele>
        <time>2022-06-18T07:55:43Z</time>
      </trkpt>
      <trkpt lat="42.1428030" lon="-8.6225510">
        <ele>26.0</ele>
        <time>2022-06-18T07:55:44Z</time>
      </trkpt>
      <trkpt lat="42.1428530" lon="-8.6225450">
        <ele>26.0</ele>
        <time>2022-06-18T07:55:45Z</time>
      </trkpt>
      <trkpt lat="42.1429030" lon="-8.6225410">
        <ele>26.0</ele>
        <time>2022-06-18T07:55:46Z</time>
      </trkpt>
      <trkpt lat="42.1429510" lon="-8.6225360">
        <ele>25.8</ele>
        <time>2022-06-18T07:55:47Z</time>
      </trkpt>
      <trkpt lat="42.1430000" lon="-8.6225280">
        <ele>25.6</ele>
        <time>2022-06-18T07:55:48Z</time>
      </trkpt>
      <trkpt lat="42.1430480" lon="-8.6225200">
        <ele>25.6</ele>
        <time>2022-06-18T07:55:49Z</time>
      </trkpt>
      <trkpt lat="42.1430950" lon="-8.6225150">
        <ele>25.6</ele>
        <time>2022-06-18T07:55:50Z</time>
      </trkpt>
      <trkpt lat="42.1431430" lon="-8.6225080">
        <ele>25.6</ele>
        <time>2022-06-18T07:55:51Z</time>
      </trkpt>
      <trkpt lat="42.1431910" lon="-8.6225010">
        <ele>26.0</ele>
        <time>2022-06-18T07:55:52Z</time>
      </trkpt>
      <trkpt lat="42.1432400" lon="-8.6224980">
        <ele>26.0</ele>
        <time>2022-06-18T07:55:53Z</time>
      </trkpt>
      <trkpt lat="42.1432880" lon="-8.6224930">
        <ele>26.0</ele>
        <time>2022-06-18T07:55:54Z</time>
      </trkpt>
      <trkpt lat="42.1433350" lon="-8.6224880">
        <ele>26.0</ele>
        <time>2022-06-18T07:55:55Z</time>
      </trkpt>
      <trkpt lat="42.1433860" lon="-8.6224780">
        <ele>25.6</ele>
        <time>2022-06-18T07:55:56Z</time>
      </trkpt>
      <trkpt lat="42.1434330" lon="-8.6224730">
        <ele>25.6</ele>
        <time>2022-06-18T07:55:57Z</time>
      </trkpt>
      <trkpt lat="42.1434830" lon="-8.6224650">
        <ele>25.6</ele>
        <time>2022-06-18T07:55:58Z</time>
      </trkpt>
      <trkpt lat="42.1435280" lon="-8.6224610">
        <ele>26.0</ele>
        <time>2022-06-18T07:55:59Z</time>
      </trkpt>
      <trkpt lat="42.1435760" lon="-8.6224550">
        <ele>26.8</ele>
        <time>2022-06-18T07:56:00Z</time>
      </trkpt>
      <trkpt lat="42.1436250" lon="-8.6224510">
        <ele>26.8</ele>
        <time>2022-06-18T07:56:01Z</time>
      </trkpt>
      <trkpt lat="42.1436710" lon="-8.6224510">
        <ele>26.8</ele>
        <time>2022-06-18T07:56:02Z</time>
      </trkpt>
      <trkpt lat="42.1437150" lon="-8.6224500">
        <ele>26.6</ele>
        <time>2022-06-18T07:56:03Z</time>
      </trkpt>
      <trkpt lat="42.1437610" lon="-8.6224460">
        <ele>26.8</ele>
        <time>2022-06-18T07:56:04Z</time>
      </trkpt>
      <trkpt lat="42.1438100" lon="-8.6224450">
        <ele>26.8</ele>
        <time>2022-06-18T07:56:05Z</time>
      </trkpt>
      <trkpt lat="42.1438530" lon="-8.6224450">
        <ele>26.8</ele>
        <time>2022-06-18T07:56:06Z</time>
      </trkpt>
      <trkpt lat="42.1438980" lon="-8.6224410">
        <ele>26.8</ele>
        <time>2022-06-18T07:56:07Z</time>
      </trkpt>
      <trkpt lat="42.1439400" lon="-8.6224450">
        <ele>26.0</ele>
        <time>2022-06-18T07:56:08Z</time>
      </trkpt>
      <trkpt lat="42.1439800" lon="-8.6224650">
        <ele>26.0</ele>
        <time>2022-06-18T07:56:09Z</time>
      </trkpt>
      <trkpt lat="42.1440250" lon="-8.6224630">
        <ele>26.0</ele>
        <time>2022-06-18T07:56:10Z</time>
      </trkpt>
      <trkpt lat="42.1440710" lon="-8.6224550">
        <ele>26.4</ele>
        <time>2022-06-18T07:56:11Z</time>
      </trkpt>
      <trkpt lat="42.1441160" lon="-8.6224460">
        <ele>27.0</ele>
        <time>2022-06-18T07:56:12Z</time>
      </trkpt>
      <trkpt lat="42.1441630" lon="-8.6224430">
        <ele>27.0</ele>
        <time>2022-06-18T07:56:13Z</time>
      </trkpt>
      <trkpt lat="42.1442100" lon="-8.6224330">
        <ele>27.0</ele>
        <time>2022-06-18T07:56:14Z</time>
      </trkpt>
      <trkpt lat="42.1442560" lon="-8.6224210">
        <ele>27.0</ele>
        <time>2022-06-18T07:56:15Z</time>
      </trkpt>
      <trkpt lat="42.1443030" lon="-8.6224150">
        <ele>27.0</ele>
        <time>2022-06-18T07:56:16Z</time>
      </trkpt>
      <trkpt lat="42.1443500" lon="-8.6224110">
        <ele>27.0</ele>
        <time>2022-06-18T07:56:17Z</time>
      </trkpt>
      <trkpt lat="42.1443980" lon="-8.6224060">
        <ele>27.0</ele>
        <time>2022-06-18T07:56:18Z</time>
      </trkpt>
      <trkpt lat="42.1444410" lon="-8.6224030">
        <ele>27.0</ele>
        <time>2022-06-18T07:56:19Z</time>
      </trkpt>
      <trkpt lat="42.1444900" lon="-8.6223950">
        <ele>26.8</ele>
        <time>2022-06-18T07:56:20Z</time>
      </trkpt>
      <trkpt lat="42.1445380" lon="-8.6223880">
        <ele>26.8</ele>
        <time>2022-06-18T07:56:21Z</time>
      </trkpt>
      <trkpt lat="42.1445830" lon="-8.6223850">
        <ele>26.8</ele>
        <time>2022-06-18T07:56:22Z</time>
      </trkpt>
      <trkpt lat="42.1446280" lon="-8.6223850">
        <ele>27.6</ele>
        <time>2022-06-18T07:56:23Z</time>
      </trkpt>
      <trkpt lat="42.1446730" lon="-8.6223810">
        <ele>27.2</ele>
        <time>2022-06-18T07:56:24Z</time>
      </trkpt>
      <trkpt lat="42.1447160" lon="-8.6223780">
        <ele>27.2</ele>
        <time>2022-06-18T07:56:25Z</time>
      </trkpt>
      <trkpt lat="42.1447600" lon="-8.6223750">
        <ele>27.2</ele>
        <time>2022-06-18T07:56:26Z</time>
      </trkpt>
      <trkpt lat="42.1448010" lon="-8.6223760">
        <ele>27.8</ele>
        <time>2022-06-18T07:56:27Z</time>
      </trkpt>
      <trkpt lat="42.1448460" lon="-8.6223730">
        <ele>28.4</ele>
        <time>2022-06-18T07:56:28Z</time>
      </trkpt>
      <trkpt lat="42.1448900" lon="-8.6223700">
        <ele>28.4</ele>
        <time>2022-06-18T07:56:29Z</time>
      </trkpt>
      <trkpt lat="42.1449310" lon="-8.6223660">
        <ele>28.4</ele>
        <time>2022-06-18T07:56:30Z</time>
      </trkpt>
      <trkpt lat="42.1449710" lon="-8.6223650">
        <ele>28.4</ele>
        <time>2022-06-18T07:56:31Z</time>
      </trkpt>
      <trkpt lat="42.1450100" lon="-8.6223660">
        <ele>28.6</ele>
        <time>2022-06-18T07:56:32Z</time>
      </trkpt>
      <trkpt lat="42.1450480" lon="-8.6223700">
        <ele>28.6</ele>
        <time>2022-06-18T07:56:33Z</time>
      </trkpt>
      <trkpt lat="42.1450880" lon="-8.6223710">
        <ele>28.6</ele>
        <time>2022-06-18T07:56:34Z</time>
      </trkpt>
      <trkpt lat="42.1451280" lon="-8.6223680">
        <ele>28.8</ele>
        <time>2022-06-18T07:56:35Z</time>
      </trkpt>
      <trkpt lat="42.1451680" lon="-8.6223600">
        <ele>28.8</ele>
        <time>2022-06-18T07:56:36Z</time>
      </trkpt>
      <trkpt lat="42.1452060" lon="-8.6223610">
        <ele>28.8</ele>
        <time>2022-06-18T07:56:37Z</time>
      </trkpt>
      <trkpt lat="42.1452430" lon="-8.6223650">
        <ele>28.8</ele>
        <time>2022-06-18T07:56:38Z</time>
      </trkpt>
      <trkpt lat="42.1452780" lon="-8.6223700">
        <ele>29.2</ele>
        <time>2022-06-18T07:56:39Z</time>
      </trkpt>
      <trkpt lat="42.1453110" lon="-8.6223730">
        <ele>29.6</ele>
        <time>2022-06-18T07:56:40Z</time>
      </trkpt>
      <trkpt lat="42.1453460" lon="-8.6223710">
        <ele>29.6</ele>
        <time>2022-06-18T07:56:41Z</time>
      </trkpt>
      <trkpt lat="42.1453850" lon="-8.6223600">
        <ele>29.6</ele>
        <time>2022-06-18T07:56:42Z</time>
      </trkpt>
      <trkpt lat="42.1454230" lon="-8.6223480">
        <ele>29.6</ele>
        <time>2022-06-18T07:56:43Z</time>
      </trkpt>
      <trkpt lat="42.1454610" lon="-8.6223480">
        <ele>30.2</ele>
        <time>2022-06-18T07:56:44Z</time>
      </trkpt>
      <trkpt lat="42.1455000" lon="-8.6223480">
        <ele>30.2</ele>
        <time>2022-06-18T07:56:45Z</time>
      </trkpt>
      <trkpt lat="42.1455360" lon="-8.6223460">
        <ele>30.2</ele>
        <time>2022-06-18T07:56:46Z</time>
      </trkpt>
      <trkpt lat="42.1455710" lon="-8.6223450">
        <ele>30.4</ele>
        <time>2022-06-18T07:56:47Z</time>
      </trkpt>
      <trkpt lat="42.1456100" lon="-8.6223410">
        <ele>30.4</ele>
        <time>2022-06-18T07:56:48Z</time>
      </trkpt>
      <trkpt lat="42.1456460" lon="-8.6223360">
        <ele>30.4</ele>
        <time>2022-06-18T07:56:49Z</time>
      </trkpt>
      <trkpt lat="42.1456810" lon="-8.6223330">
        <ele>30.4</ele>
        <time>2022-06-18T07:56:50Z</time>
      </trkpt>
      <trkpt lat="42.1457160" lon="-8.6223300">
        <ele>30.6</ele>
        <time>2022-06-18T07:56:51Z</time>
      </trkpt>
      <trkpt lat="42.1457500" lon="-8.6223280">
        <ele>30.8</ele>
        <time>2022-06-18T07:56:52Z</time>
      </trkpt>
      <trkpt lat="42.1457830" lon="-8.6223260">
        <ele>30.8</ele>
        <time>2022-06-18T07:56:53Z</time>
      </trkpt>
      <trkpt lat="42.1458150" lon="-8.6223250">
        <ele>30.8</ele>
        <time>2022-06-18T07:56:54Z</time>
      </trkpt>
      <trkpt lat="42.1458460" lon="-8.6223250">
        <ele>30.8</ele>
        <time>2022-06-18T07:56:55Z</time>
      </trkpt>
      <trkpt lat="42.1458780" lon="-8.6223280">
        <ele>31.0</ele>
        <time>2022-06-18T07:56:56Z</time>
      </trkpt>
      <trkpt lat="42.1459080" lon="-8.6223300">
        <ele>31.0</ele>
        <time>2022-06-18T07:56:57Z</time>
      </trkpt>
      <trkpt lat="42.1459380" lon="-8.6223280">
        <ele>31.0</ele>
        <time>2022-06-18T07:56:58Z</time>
      </trkpt>
      <trkpt lat="42.1459680" lon="-8.6223280">
        <ele>31.6</ele>
        <time>2022-06-18T07:56:59Z</time>
      </trkpt>
      <trkpt lat="42.1459960" lon="-8.6223280">
        <ele>31.8</ele>
        <time>2022-06-18T07:57:00Z</time>
      </trkpt>
      <trkpt lat="42.1460210" lon="-8.6223280">
        <ele>31.8</ele>
        <time>2022-06-18T07:57:01Z</time>
      </trkpt>
      <trkpt lat="42.1460480" lon="-8.6223280">
        <ele>31.8</ele>
        <time>2022-06-18T07:57:02Z</time>
      </trkpt>
      <trkpt lat="42.1460760" lon="-8.6223280">
        <ele>31.8</ele>
        <time>2022-06-18T07:57:03Z</time>
      </trkpt>
      <trkpt lat="42.1461060" lon="-8.6223280">
        <ele>31.8</ele>
        <time>2022-06-18T07:57:04Z</time>
      </trkpt>
      <trkpt lat="42.1461410" lon="-8.6223230">
        <ele>31.8</ele>
        <time>2022-06-18T07:57:05Z</time>
      </trkpt>
      <trkpt lat="42.1461780" lon="-8.6223180">
        <ele>31.8</ele>
        <time>2022-06-18T07:57:06Z</time>
      </trkpt>
      <trkpt lat="42.1462130" lon="-8.6223130">
        <ele>31.6</ele>
        <time>2022-06-18T07:57:07Z</time>
      </trkpt>
      <trkpt lat="42.1462480" lon="-8.6223110">
        <ele>31.8</ele>
        <time>2022-06-18T07:57:08Z</time>
      </trkpt>
      <trkpt lat="42.1462830" lon="-8.6223060">
        <ele>31.8</ele>
        <time>2022-06-18T07:57:09Z</time>
      </trkpt>
      <trkpt lat="42.1463180" lon="-8.6222980">
        <ele>31.8</ele>
        <time>2022-06-18T07:57:10Z</time>
      </trkpt>
      <trkpt lat="42.1463510" lon="-8.6222960">
        <ele>31.8</ele>
        <time>2022-06-18T07:57:11Z</time>
      </trkpt>
      <trkpt lat="42.1463830" lon="-8.6222980">
        <ele>32.0</ele>
        <time>2022-06-18T07:57:12Z</time>
      </trkpt>
      <trkpt lat="42.1464160" lon="-8.6222910">
        <ele>32.0</ele>
        <time>2022-06-18T07:57:13Z</time>
      </trkpt>
      <trkpt lat="42.1464480" lon="-8.6222900">
        <ele>32.0</ele>
        <time>2022-06-18T07:57:14Z</time>
      </trkpt>
      <trkpt lat="42.1464800" lon="-8.6222860">
        <ele>32.0</ele>
        <time>2022-06-18T07:57:15Z</time>
      </trkpt>
      <trkpt lat="42.1465110" lon="-8.6222830">
        <ele>31.8</ele>
        <time>2022-06-18T07:57:16Z</time>
      </trkpt>
      <trkpt lat="42.1465430" lon="-8.6222830">
        <ele>31.8</ele>
        <time>2022-06-18T07:57:17Z</time>
      </trkpt>
      <trkpt lat="42.1465730" lon="-8.6222800">
        <ele>31.8</ele>
        <time>2022-06-18T07:57:18Z</time>
      </trkpt>
      <trkpt lat="42.1466050" lon="-8.6222780">
        <ele>31.8</ele>
        <time>2022-06-18T07:57:19Z</time>
      </trkpt>
      <trkpt lat="42.1466360" lon="-8.6222780">
        <ele>31.4</ele>
        <time>2022-06-18T07:57:20Z</time>
      </trkpt>
      <trkpt lat="42.1466700" lon="-8.6222730">
        <ele>31.4</ele>
        <time>2022-06-18T07:57:21Z</time>
      </trkpt>
      <trkpt lat="42.1467030" lon="-8.6222710">
        <ele>31.4</ele>
        <time>2022-06-18T07:57:22Z</time>
      </trkpt>
      <trkpt lat="42.1467380" lon="-8.6222710">
        <ele>31.4</ele>
        <time>2022-06-18T07:57:23Z</time>
      </trkpt>
      <trkpt lat="42.1467760" lon="-8.6222700">
        <ele>31.4</ele>
        <time>2022-06-18T07:57:24Z</time>
      </trkpt>
      <trkpt lat="42.1468150" lon="-8.6222650">
        <ele>31.4</ele>
        <time>2022-06-18T07:57:25Z</time>
      </trkpt>
      <trkpt lat="42.1468510" lon="-8.6222650">
        <ele>31.4</ele>
        <time>2022-06-18T07:57:26Z</time>
      </trkpt>
      <trkpt lat="42.1468880" lon="-8.6222650">
        <ele>31.4</ele>
        <time>2022-06-18T07:57:27Z</time>
      </trkpt>
      <trkpt lat="42.1469250" lon="-8.6222630">
        <ele>31.8</ele>
        <time>2022-06-18T07:57:28Z</time>
      </trkpt>
      <trkpt lat="42.1469630" lon="-8.6222650">
        <ele>31.8</ele>
        <time>2022-06-18T07:57:29Z</time>
      </trkpt>
      <trkpt lat="42.1470010" lon="-8.6222650">
        <ele>31.8</ele>
        <time>2022-06-18T07:57:30Z</time>
      </trkpt>
      <trkpt lat="42.1470450" lon="-8.6222630">
        <ele>31.0</ele>
        <time>2022-06-18T07:57:31Z</time>
      </trkpt>
      <trkpt lat="42.1470860" lon="-8.6222610">
        <ele>30.6</ele>
        <time>2022-06-18T07:57:32Z</time>
      </trkpt>
      <trkpt lat="42.1471300" lon="-8.6222600">
        <ele>30.6</ele>
        <time>2022-06-18T07:57:33Z</time>
      </trkpt>
      <trkpt lat="42.1471750" lon="-8.6222560">
        <ele>30.6</ele>
        <time>2022-06-18T07:57:34Z</time>
      </trkpt>
      <trkpt lat="42.1472180" lon="-8.6222550">
        <ele>30.6</ele>
        <time>2022-06-18T07:57:35Z</time>
      </trkpt>
      <trkpt lat="42.1472610" lon="-8.6222530">
        <ele>30.4</ele>
        <time>2022-06-18T07:57:36Z</time>
      </trkpt>
      <trkpt lat="42.1473050" lon="-8.6222500">
        <ele>30.4</ele>
        <time>2022-06-18T07:57:37Z</time>
      </trkpt>
      <trkpt lat="42.1473460" lon="-8.6222480">
        <ele>30.4</ele>
        <time>2022-06-18T07:57:38Z</time>
      </trkpt>
      <trkpt lat="42.1473860" lon="-8.6222450">
        <ele>30.8</ele>
        <time>2022-06-18T07:57:39Z</time>
      </trkpt>
      <trkpt lat="42.1474280" lon="-8.6222400">
        <ele>30.4</ele>
        <time>2022-06-18T07:57:40Z</time>
      </trkpt>
      <trkpt lat="42.1474700" lon="-8.6222360">
        <ele>30.4</ele>
        <time>2022-06-18T07:57:41Z</time>
      </trkpt>
      <trkpt lat="42.1475150" lon="-8.6222310">
        <ele>30.4</ele>
        <time>2022-06-18T07:57:42Z</time>
      </trkpt>
      <trkpt lat="42.1475580" lon="-8.6222280">
        <ele>30.4</ele>
        <time>2022-06-18T07:57:43Z</time>
      </trkpt>
      <trkpt lat="42.1476010" lon="-8.6222260">
        <ele>31.0</ele>
        <time>2022-06-18T07:57:44Z</time>
      </trkpt>
      <trkpt lat="42.1476460" lon="-8.6222230">
        <ele>31.0</ele>
        <time>2022-06-18T07:57:45Z</time>
      </trkpt>
      <trkpt lat="42.1476900" lon="-8.6222210">
        <ele>31.0</ele>
        <time>2022-06-18T07:57:46Z</time>
      </trkpt>
      <trkpt lat="42.1477310" lon="-8.6222160">
        <ele>30.0</ele>
        <time>2022-06-18T07:57:47Z</time>
      </trkpt>
      <trkpt lat="42.1477750" lon="-8.6222130">
        <ele>30.2</ele>
        <time>2022-06-18T07:57:48Z</time>
      </trkpt>
      <trkpt lat="42.1478180" lon="-8.6222110">
        <ele>30.2</ele>
        <time>2022-06-18T07:57:49Z</time>
      </trkpt>
      <trkpt lat="42.1478630" lon="-8.6222100">
        <ele>30.2</ele>
        <time>2022-06-18T07:57:50Z</time>
      </trkpt>
      <trkpt lat="42.1479030" lon="-8.6222100">
        <ele>30.6</ele>
        <time>2022-06-18T07:57:51Z</time>
      </trkpt>
      <trkpt lat="42.1479430" lon="-8.6222130">
        <ele>30.8</ele>
        <time>2022-06-18T07:57:52Z</time>
      </trkpt>
      <trkpt lat="42.1479830" lon="-8.6222130">
        <ele>30.8</ele>
        <time>2022-06-18T07:57:53Z</time>
      </trkpt>
      <trkpt lat="42.1480250" lon="-8.6222130">
        <ele>30.8</ele>
        <time>2022-06-18T07:57:54Z</time>
      </trkpt>
      <trkpt lat="42.1480660" lon="-8.6222150">
        <ele>30.8</ele>
        <time>2022-06-18T07:57:55Z</time>
      </trkpt>
      <trkpt lat="42.1481100" lon="-8.6222150">
        <ele>30.4</ele>
        <time>2022-06-18T07:57:56Z</time>
      </trkpt>
      <trkpt lat="42.1481560" lon="-8.6222110">
        <ele>30.4</ele>
        <time>2022-06-18T07:57:57Z</time>
      </trkpt>
      <trkpt lat="42.1482010" lon="-8.6222050">
        <ele>30.4</ele>
        <time>2022-06-18T07:57:58Z</time>
      </trkpt>
      <trkpt lat="42.1482430" lon="-8.6222000">
        <ele>31.0</ele>
        <time>2022-06-18T07:57:59Z</time>
      </trkpt>
      <trkpt lat="42.1482860" lon="-8.6221960">
        <ele>31.0</ele>
        <time>2022-06-18T07:58:00Z</time>
      </trkpt>
      <trkpt lat="42.1483300" lon="-8.6221900">
        <ele>31.0</ele>
        <time>2022-06-18T07:58:01Z</time>
      </trkpt>
      <trkpt lat="42.1483730" lon="-8.6221850">
        <ele>31.0</ele>
        <time>2022-06-18T07:58:02Z</time>
      </trkpt>
      <trkpt lat="42.1484160" lon="-8.6221800">
        <ele>31.0</ele>
        <time>2022-06-18T07:58:03Z</time>
      </trkpt>
      <trkpt lat="42.1484600" lon="-8.6221700">
        <ele>31.0</ele>
        <time>2022-06-18T07:58:04Z</time>
      </trkpt>
      <trkpt lat="42.1485010" lon="-8.6221610">
        <ele>31.0</ele>
        <time>2022-06-18T07:58:05Z</time>
      </trkpt>
      <trkpt lat="42.1485410" lon="-8.6221550">
        <ele>31.0</ele>
        <time>2022-06-18T07:58:06Z</time>
      </trkpt>
      <trkpt lat="42.1485810" lon="-8.6221500">
        <ele>31.0</ele>
        <time>2022-06-18T07:58:07Z</time>
      </trkpt>
      <trkpt lat="42.1486210" lon="-8.6221460">
        <ele>31.4</ele>
        <time>2022-06-18T07:58:08Z</time>
      </trkpt>
      <trkpt lat="42.1486610" lon="-8.6221380">
        <ele>31.4</ele>
        <time>2022-06-18T07:58:09Z</time>
      </trkpt>
      <trkpt lat="42.1487010" lon="-8.6221260">
        <ele>31.4</ele>
        <time>2022-06-18T07:58:10Z</time>
      </trkpt>
      <trkpt lat="42.1487400" lon="-8.6221200">
        <ele>31.4</ele>
        <time>2022-06-18T07:58:11Z</time>
      </trkpt>
      <trkpt lat="42.1487810" lon="-8.6221080">
        <ele>31.0</ele>
        <time>2022-06-18T07:58:12Z</time>
      </trkpt>
      <trkpt lat="42.1488210" lon="-8.6220960">
        <ele>31.0</ele>
        <time>2022-06-18T07:58:13Z</time>
      </trkpt>
      <trkpt lat="42.1488630" lon="-8.6220810">
        <ele>31.0</ele>
        <time>2022-06-18T07:58:14Z</time>
      </trkpt>
      <trkpt lat="42.1489030" lon="-8.6220680">
        <ele>31.4</ele>
        <time>2022-06-18T07:58:15Z</time>
      </trkpt>
      <trkpt lat="42.1489500" lon="-8.6220510">
        <ele>31.4</ele>
        <time>2022-06-18T07:58:16Z</time>
      </trkpt>
      <trkpt lat="42.1489930" lon="-8.6220380">
        <ele>31.4</ele>
        <time>2022-06-18T07:58:17Z</time>
      </trkpt>
      <trkpt lat="42.1490360" lon="-8.6220260">
        <ele>31.4</ele>
        <time>2022-06-18T07:58:18Z</time>
      </trkpt>
      <trkpt lat="42.1490800" lon="-8.6220100">
        <ele>31.4</ele>
        <time>2022-06-18T07:58:19Z</time>
      </trkpt>
      <trkpt lat="42.1491210" lon="-8.6219980">
        <ele>31.8</ele>
        <time>2022-06-18T07:58:20Z</time>
      </trkpt>
      <trkpt lat="42.1491610" lon="-8.6219860">
        <ele>31.8</ele>
        <time>2022-06-18T07:58:21Z</time>
      </trkpt>
      <trkpt lat="42.1492030" lon="-8.6219750">
        <ele>31.8</ele>
        <time>2022-06-18T07:58:22Z</time>
      </trkpt>
      <trkpt lat="42.1492450" lon="-8.6219630">
        <ele>31.8</ele>
        <time>2022-06-18T07:58:23Z</time>
      </trkpt>
      <trkpt lat="42.1492850" lon="-8.6219480">
        <ele>32.4</ele>
        <time>2022-06-18T07:58:24Z</time>
      </trkpt>
      <trkpt lat="42.1493260" lon="-8.6219360">
        <ele>32.4</ele>
        <time>2022-06-18T07:58:25Z</time>
      </trkpt>
      <trkpt lat="42.1493680" lon="-8.6219280">
        <ele>32.4</ele>
        <time>2022-06-18T07:58:26Z</time>
      </trkpt>
      <trkpt lat="42.1494100" lon="-8.6219230">
        <ele>32.4</ele>
        <time>2022-06-18T07:58:27Z</time>
      </trkpt>
      <trkpt lat="42.1494500" lon="-8.6219160">
        <ele>32.4</ele>
        <time>2022-06-18T07:58:28Z</time>
      </trkpt>
      <trkpt lat="42.1494930" lon="-8.6219080">
        <ele>32.4</ele>
        <time>2022-06-18T07:58:29Z</time>
      </trkpt>
      <trkpt lat="42.1495360" lon="-8.6218980">
        <ele>32.4</ele>
        <time>2022-06-18T07:58:30Z</time>
      </trkpt>
      <trkpt lat="42.1495800" lon="-8.6218880">
        <ele>32.4</ele>
        <time>2022-06-18T07:58:31Z</time>
      </trkpt>
      <trkpt lat="42.1496230" lon="-8.6218780">
        <ele>32.8</ele>
        <time>2022-06-18T07:58:32Z</time>
      </trkpt>
      <trkpt lat="42.1496650" lon="-8.6218660">
        <ele>32.8</ele>
        <time>2022-06-18T07:58:33Z</time>
      </trkpt>
      <trkpt lat="42.1497050" lon="-8.6218500">
        <ele>32.8</ele>
        <time>2022-06-18T07:58:34Z</time>
      </trkpt>
      <trkpt lat="42.1497500" lon="-8.6218280">
        <ele>32.8</ele>
        <time>2022-06-18T07:58:35Z</time>
      </trkpt>
      <trkpt lat="42.1497930" lon="-8.6218080">
        <ele>32.6</ele>
        <time>2022-06-18T07:58:36Z</time>
      </trkpt>
      <trkpt lat="42.1498410" lon="-8.6217910">
        <ele>32.6</ele>
        <time>2022-06-18T07:58:37Z</time>
      </trkpt>
      <trkpt lat="42.1498880" lon="-8.6217800">
        <ele>32.6</ele>
        <time>2022-06-18T07:58:38Z</time>
      </trkpt>
      <trkpt lat="42.1499360" lon="-8.6217660">
        <ele>32.6</ele>
        <time>2022-06-18T07:58:39Z</time>
      </trkpt>
      <trkpt lat="42.1499860" lon="-8.6217480">
        <ele>32.8</ele>
        <time>2022-06-18T07:58:40Z</time>
      </trkpt>
      <trkpt lat="42.1500380" lon="-8.6217310">
        <ele>32.8</ele>
        <time>2022-06-18T07:58:41Z</time>
      </trkpt>
      <trkpt lat="42.1500860" lon="-8.6217150">
        <ele>32.8</ele>
        <time>2022-06-18T07:58:42Z</time>
      </trkpt>
      <trkpt lat="42.1501360" lon="-8.6217000">
        <ele>32.8</ele>
        <time>2022-06-18T07:58:43Z</time>
      </trkpt>
      <trkpt lat="42.1501860" lon="-8.6216850">
        <ele>32.6</ele>
        <time>2022-06-18T07:58:44Z</time>
      </trkpt>
      <trkpt lat="42.1502350" lon="-8.6216730">
        <ele>32.6</ele>
        <time>2022-06-18T07:58:45Z</time>
      </trkpt>
      <trkpt lat="42.1502810" lon="-8.6216550">
        <ele>32.6</ele>
        <time>2022-06-18T07:58:46Z</time>
      </trkpt>
      <trkpt lat="42.1503300" lon="-8.6216360">
        <ele>32.4</ele>
        <time>2022-06-18T07:58:47Z</time>
      </trkpt>
      <trkpt lat="42.1503780" lon="-8.6216200">
        <ele>32.4</ele>
        <time>2022-06-18T07:58:48Z</time>
      </trkpt>
      <trkpt lat="42.1504250" lon="-8.6216050">
        <ele>32.4</ele>
        <time>2022-06-18T07:58:49Z</time>
      </trkpt>
      <trkpt lat="42.1504710" lon="-8.6215910">
        <ele>32.4</ele>
        <time>2022-06-18T07:58:50Z</time>
      </trkpt>
      <trkpt lat="42.1505160" lon="-8.6215760">
        <ele>32.8</ele>
        <time>2022-06-18T07:58:51Z</time>
      </trkpt>
      <trkpt lat="42.1505600" lon="-8.6215610">
        <ele>32.6</ele>
        <time>2022-06-18T07:58:52Z</time>
      </trkpt>
      <trkpt lat="42.1506050" lon="-8.6215430">
        <ele>32.6</ele>
        <time>2022-06-18T07:58:53Z</time>
      </trkpt>
      <trkpt lat="42.1506480" lon="-8.6215310">
        <ele>32.6</ele>
        <time>2022-06-18T07:58:54Z</time>
      </trkpt>
      <trkpt lat="42.1506900" lon="-8.6215210">
        <ele>32.6</ele>
        <time>2022-06-18T07:58:55Z</time>
      </trkpt>
      <trkpt lat="42.1507310" lon="-8.6215100">
        <ele>32.0</ele>
        <time>2022-06-18T07:58:56Z</time>
      </trkpt>
      <trkpt lat="42.1507750" lon="-8.6214960">
        <ele>32.0</ele>
        <time>2022-06-18T07:58:57Z</time>
      </trkpt>
      <trkpt lat="42.1508160" lon="-8.6214830">
        <ele>32.0</ele>
        <time>2022-06-18T07:58:58Z</time>
      </trkpt>
      <trkpt lat="42.1508610" lon="-8.6214680">
        <ele>32.0</ele>
        <time>2022-06-18T07:58:59Z</time>
      </trkpt>
      <trkpt lat="42.1509060" lon="-8.6214530">
        <ele>32.2</ele>
        <time>2022-06-18T07:59:00Z</time>
      </trkpt>
      <trkpt lat="42.1509500" lon="-8.6214410">
        <ele>32.2</ele>
        <time>2022-06-18T07:59:01Z</time>
      </trkpt>
      <trkpt lat="42.1509980" lon="-8.6214260">
        <ele>32.2</ele>
        <time>2022-06-18T07:59:02Z</time>
      </trkpt>
      <trkpt lat="42.1510450" lon="-8.6214110">
        <ele>32.2</ele>
        <time>2022-06-18T07:59:03Z</time>
      </trkpt>
      <trkpt lat="42.1510900" lon="-8.6214010">
        <ele>32.0</ele>
        <time>2022-06-18T07:59:04Z</time>
      </trkpt>
      <trkpt lat="42.1511380" lon="-8.6213880">
        <ele>32.0</ele>
        <time>2022-06-18T07:59:05Z</time>
      </trkpt>
      <trkpt lat="42.1511850" lon="-8.6213730">
        <ele>32.0</ele>
        <time>2022-06-18T07:59:06Z</time>
      </trkpt>
      <trkpt lat="42.1512310" lon="-8.6213530">
        <ele>31.6</ele>
        <time>2022-06-18T07:59:07Z</time>
      </trkpt>
      <trkpt lat="42.1512780" lon="-8.6213360">
        <ele>31.6</ele>
        <time>2022-06-18T07:59:08Z</time>
      </trkpt>
      <trkpt lat="42.1513260" lon="-8.6213210">
        <ele>31.6</ele>
        <time>2022-06-18T07:59:09Z</time>
      </trkpt>
      <trkpt lat="42.1513730" lon="-8.6213060">
        <ele>31.6</ele>
        <time>2022-06-18T07:59:10Z</time>
      </trkpt>
      <trkpt lat="42.1514210" lon="-8.6212900">
        <ele>32.0</ele>
        <time>2022-06-18T07:59:11Z</time>
      </trkpt>
      <trkpt lat="42.1514700" lon="-8.6212750">
        <ele>31.8</ele>
        <time>2022-06-18T07:59:12Z</time>
      </trkpt>
      <trkpt lat="42.1515200" lon="-8.6212600">
        <ele>31.8</ele>
        <time>2022-06-18T07:59:13Z</time>
      </trkpt>
      <trkpt lat="42.1515730" lon="-8.6212430">
        <ele>31.8</ele>
        <time>2022-06-18T07:59:14Z</time>
      </trkpt>
      <trkpt lat="42.1516210" lon="-8.6212260">
        <ele>31.8</ele>
        <time>2022-06-18T07:59:15Z</time>
      </trkpt>
      <trkpt lat="42.1516700" lon="-8.6212110">
        <ele>32.2</ele>
        <time>2022-06-18T07:59:16Z</time>
      </trkpt>
      <trkpt lat="42.1517200" lon="-8.6211960">
        <ele>32.2</ele>
        <time>2022-06-18T07:59:17Z</time>
      </trkpt>
      <trkpt lat="42.1517710" lon="-8.6211800">
        <ele>32.2</ele>
        <time>2022-06-18T07:59:18Z</time>
      </trkpt>
      <trkpt lat="42.1518210" lon="-8.6211630">
        <ele>32.2</ele>
        <time>2022-06-18T07:59:19Z</time>
      </trkpt>
      <trkpt lat="42.1518710" lon="-8.6211460">
        <ele>31.8</ele>
        <time>2022-06-18T07:59:20Z</time>
      </trkpt>
      <trkpt lat="42.1519210" lon="-8.6211310">
        <ele>31.8</ele>
        <time>2022-06-18T07:59:21Z</time>
      </trkpt>
      <trkpt lat="42.1519710" lon="-8.6211160">
        <ele>31.8</ele>
        <time>2022-06-18T07:59:22Z</time>
      </trkpt>
      <trkpt lat="42.1520180" lon="-8.6211010">
        <ele>31.8</ele>
        <time>2022-06-18T07:59:23Z</time>
      </trkpt>
      <trkpt lat="42.1520660" lon="-8.6210850">
        <ele>32.4</ele>
        <time>2022-06-18T07:59:24Z</time>
      </trkpt>
      <trkpt lat="42.1521130" lon="-8.6210710">
        <ele>32.4</ele>
        <time>2022-06-18T07:59:25Z</time>
      </trkpt>
      <trkpt lat="42.1521600" lon="-8.6210600">
        <ele>32.4</ele>
        <time>2022-06-18T07:59:26Z</time>
      </trkpt>
      <trkpt lat="42.1522060" lon="-8.6210460">
        <ele>32.4</ele>
        <time>2022-06-18T07:59:27Z</time>
      </trkpt>
      <trkpt lat="42.1522550" lon="-8.6210300">
        <ele>31.8</ele>
        <time>2022-06-18T07:59:28Z</time>
      </trkpt>
      <trkpt lat="42.1523010" lon="-8.6210130">
        <ele>31.8</ele>
        <time>2022-06-18T07:59:29Z</time>
      </trkpt>
      <trkpt lat="42.1523500" lon="-8.6209960">
        <ele>31.8</ele>
        <time>2022-06-18T07:59:30Z</time>
      </trkpt>
      <trkpt lat="42.1523980" lon="-8.6209800">
        <ele>31.8</ele>
        <time>2022-06-18T07:59:31Z</time>
      </trkpt>
      <trkpt lat="42.1524480" lon="-8.6209650">
        <ele>31.6</ele>
        <time>2022-06-18T07:59:32Z</time>
      </trkpt>
      <trkpt lat="42.1524980" lon="-8.6209480">
        <ele>31.6</ele>
        <time>2022-06-18T07:59:33Z</time>
      </trkpt>
      <trkpt lat="42.1525480" lon="-8.6209330">
        <ele>31.6</ele>
        <time>2022-06-18T07:59:34Z</time>
      </trkpt>
      <trkpt lat="42.1525930" lon="-8.6209230">
        <ele>31.2</ele>
        <time>2022-06-18T07:59:35Z</time>
      </trkpt>
      <trkpt lat="42.1526430" lon="-8.6209110">
        <ele>31.0</ele>
        <time>2022-06-18T07:59:36Z</time>
      </trkpt>
      <trkpt lat="42.1526930" lon="-8.6208950">
        <ele>31.0</ele>
        <time>2022-06-18T07:59:37Z</time>
      </trkpt>
      <trkpt lat="42.1527450" lon="-8.6208760">
        <ele>31.0</ele>
        <time>2022-06-18T07:59:38Z</time>
      </trkpt>
      <trkpt lat="42.1527960" lon="-8.6208610">
        <ele>31.0</ele>
        <time>2022-06-18T07:59:39Z</time>
      </trkpt>
      <trkpt lat="42.1528480" lon="-8.6208450">
        <ele>31.0</ele>
        <time>2022-06-18T07:59:40Z</time>
      </trkpt>
      <trkpt lat="42.1528980" lon="-8.6208300">
        <ele>31.0</ele>
        <time>2022-06-18T07:59:41Z</time>
      </trkpt>
      <trkpt lat="42.1529510" lon="-8.6208050">
        <ele>31.0</ele>
        <time>2022-06-18T07:59:42Z</time>
      </trkpt>
      <trkpt lat="42.1530010" lon="-8.6207880">
        <ele>30.4</ele>
        <time>2022-06-18T07:59:43Z</time>
      </trkpt>
      <trkpt lat="42.1530510" lon="-8.6207710">
        <ele>30.4</ele>
        <time>2022-06-18T07:59:44Z</time>
      </trkpt>
      <trkpt lat="42.1531000" lon="-8.6207550">
        <ele>30.4</ele>
        <time>2022-06-18T07:59:45Z</time>
      </trkpt>
      <trkpt lat="42.1531530" lon="-8.6207300">
        <ele>30.4</ele>
        <time>2022-06-18T07:59:46Z</time>
      </trkpt>
      <trkpt lat="42.1532030" lon="-8.6207110">
        <ele>30.4</ele>
        <time>2022-06-18T07:59:47Z</time>
      </trkpt>
      <trkpt lat="42.1532550" lon="-8.6206950">
        <ele>30.0</ele>
        <time>2022-06-18T07:59:48Z</time>
      </trkpt>
      <trkpt lat="42.1533030" lon="-8.6206800">
        <ele>30.0</ele>
        <time>2022-06-18T07:59:49Z</time>
      </trkpt>
      <trkpt lat="42.1533510" lon="-8.6206550">
        <ele>30.0</ele>
        <time>2022-06-18T07:59:50Z</time>
      </trkpt>
      <trkpt lat="42.1533980" lon="-8.6206330">
        <ele>30.0</ele>
        <time>2022-06-18T07:59:51Z</time>
      </trkpt>
      <trkpt lat="42.1534450" lon="-8.6206130">
        <ele>30.4</ele>
        <time>2022-06-18T07:59:52Z</time>
      </trkpt>
      <trkpt lat="42.1534910" lon="-8.6205950">
        <ele>30.4</ele>
        <time>2022-06-18T07:59:53Z</time>
      </trkpt>
      <trkpt lat="42.1535360" lon="-8.6205750">
        <ele>30.4</ele>
        <time>2022-06-18T07:59:54Z</time>
      </trkpt>
      <trkpt lat="42.1535830" lon="-8.6205550">
        <ele>30.4</ele>
        <time>2022-06-18T07:59:55Z</time>
      </trkpt>
      <trkpt lat="42.1536230" lon="-8.6205350">
        <ele>30.4</ele>
        <time>2022-06-18T07:59:56Z</time>
      </trkpt>
      <trkpt lat="42.1536650" lon="-8.6205180">
        <ele>30.4</ele>
        <time>2022-06-18T07:59:57Z</time>
      </trkpt>
      <trkpt lat="42.1537050" lon="-8.6205030">
        <ele>30.4</ele>
        <time>2022-06-18T07:59:58Z</time>
      </trkpt>
      <trkpt lat="42.1537450" lon="-8.6204910">
        <ele>31.0</ele>
        <time>2022-06-18T07:59:59Z</time>
      </trkpt>
      <trkpt lat="42.1537860" lon="-8.6204780">
        <ele>30.4</ele>
        <time>2022-06-18T08:00:00Z</time>
      </trkpt>
      <trkpt lat="42.1538230" lon="-8.6204680">
        <ele>30.4</ele>
        <time>2022-06-18T08:00:01Z</time>
      </trkpt>
      <trkpt lat="42.1538550" lon="-8.6204600">
        <ele>30.4</ele>
        <time>2022-06-18T08:00:02Z</time>
      </trkpt>
      <trkpt lat="42.1538850" lon="-8.6204550">
        <ele>31.2</ele>
        <time>2022-06-18T08:00:03Z</time>
      </trkpt>
      <trkpt lat="42.1539130" lon="-8.6204530">
        <ele>31.0</ele>
        <time>2022-06-18T08:00:04Z</time>
      </trkpt>
      <trkpt lat="42.1539450" lon="-8.6204480">
        <ele>31.0</ele>
        <time>2022-06-18T08:00:05Z</time>
      </trkpt>
      <trkpt lat="42.1539760" lon="-8.6204480">
        <ele>31.0</ele>
        <time>2022-06-18T08:00:06Z</time>
      </trkpt>
      <trkpt lat="42.1540100" lon="-8.6204510">
        <ele>31.0</ele>
        <time>2022-06-18T08:00:07Z</time>
      </trkpt>
      <trkpt lat="42.1540400" lon="-8.6204480">
        <ele>31.0</ele>
        <time>2022-06-18T08:00:08Z</time>
      </trkpt>
      <trkpt lat="42.1540750" lon="-8.6204400">
        <ele>31.0</ele>
        <time>2022-06-18T08:00:09Z</time>
      </trkpt>
      <trkpt lat="42.1541100" lon="-8.6204310">
        <ele>31.0</ele>
        <time>2022-06-18T08:00:10Z</time>
      </trkpt>
      <trkpt lat="42.1541460" lon="-8.6204280">
        <ele>31.0</ele>
        <time>2022-06-18T08:00:11Z</time>
      </trkpt>
      <trkpt lat="42.1541850" lon="-8.6204260">
        <ele>31.2</ele>
        <time>2022-06-18T08:00:12Z</time>
      </trkpt>
      <trkpt lat="42.1542260" lon="-8.6204250">
        <ele>31.2</ele>
        <time>2022-06-18T08:00:13Z</time>
      </trkpt>
      <trkpt lat="42.1542660" lon="-8.6204310">
        <ele>31.2</ele>
        <time>2022-06-18T08:00:14Z</time>
      </trkpt>
      <trkpt lat="42.1543050" lon="-8.6204460">
        <ele>31.0</ele>
        <time>2022-06-18T08:00:15Z</time>
      </trkpt>
      <trkpt lat="42.1543430" lon="-8.6204760">
        <ele>31.0</ele>
        <time>2022-06-18T08:00:16Z</time>
      </trkpt>
      <trkpt lat="42.1543750" lon="-8.6205180">
        <ele>31.0</ele>
        <time>2022-06-18T08:00:17Z</time>
      </trkpt>
      <trkpt lat="42.1544080" lon="-8.6205600">
        <ele>31.0</ele>
        <time>2022-06-18T08:00:18Z</time>
      </trkpt>
      <trkpt lat="42.1544410" lon="-8.6206000">
        <ele>31.0</ele>
        <time>2022-06-18T08:00:19Z</time>
      </trkpt>
      <trkpt lat="42.1544760" lon="-8.6206350">
        <ele>31.6</ele>
        <time>2022-06-18T08:00:20Z</time>
      </trkpt>
      <trkpt lat="42.1545160" lon="-8.6206630">
        <ele>31.6</ele>
        <time>2022-06-18T08:00:21Z</time>
      </trkpt>
      <trkpt lat="42.1545580" lon="-8.6206880">
        <ele>31.6</ele>
        <time>2022-06-18T08:00:22Z</time>
      </trkpt>
      <trkpt lat="42.1546010" lon="-8.6207150">
        <ele>30.6</ele>
        <time>2022-06-18T08:00:23Z</time>
      </trkpt>
      <trkpt lat="42.1546450" lon="-8.6207430">
        <ele>30.8</ele>
        <time>2022-06-18T08:00:24Z</time>
      </trkpt>
      <trkpt lat="42.1546900" lon="-8.6207700">
        <ele>30.8</ele>
        <time>2022-06-18T08:00:25Z</time>
      </trkpt>
      <trkpt lat="42.1547360" lon="-8.6207960">
        <ele>30.8</ele>
        <time>2022-06-18T08:00:26Z</time>
      </trkpt>
      <trkpt lat="42.1547900" lon="-8.6208230">
        <ele>30.8</ele>
        <time>2022-06-18T08:00:27Z</time>
      </trkpt>
      <trkpt lat="42.1548480" lon="-8.6208450">
        <ele>30.6</ele>
        <time>2022-06-18T08:00:28Z</time>
      </trkpt>
      <trkpt lat="42.1549030" lon="-8.6208660">
        <ele>30.6</ele>
        <time>2022-06-18T08:00:29Z</time>
      </trkpt>
      <trkpt lat="42.1549480" lon="-8.6208900">
        <ele>30.6</ele>
        <time>2022-06-18T08:00:30Z</time>
      </trkpt>
      <trkpt lat="42.1550000" lon="-8.6209080">
        <ele>30.6</ele>
        <time>2022-06-18T08:00:31Z</time>
      </trkpt>
      <trkpt lat="42.1550530" lon="-8.6209200">
        <ele>30.8</ele>
        <time>2022-06-18T08:00:32Z</time>
      </trkpt>
      <trkpt lat="42.1551030" lon="-8.6209310">
        <ele>30.8</ele>
        <time>2022-06-18T08:00:33Z</time>
      </trkpt>
      <trkpt lat="42.1551550" lon="-8.6209400">
        <ele>30.8</ele>
        <time>2022-06-18T08:00:34Z</time>
      </trkpt>
      <trkpt lat="42.1552100" lon="-8.6209230">
        <ele>30.8</ele>
        <time>2022-06-18T08:00:35Z</time>
      </trkpt>
      <trkpt lat="42.1552560" lon="-8.6208860">
        <ele>30.8</ele>
        <time>2022-06-18T08:00:36Z</time>
      </trkpt>
      <trkpt lat="42.1552950" lon="-8.6208400">
        <ele>30.8</ele>
        <time>2022-06-18T08:00:37Z</time>
      </trkpt>
      <trkpt lat="42.1553280" lon="-8.6207980">
        <ele>30.8</ele>
        <time>2022-06-18T08:00:38Z</time>
      </trkpt>
      <trkpt lat="42.1553630" lon="-8.6207560">
        <ele>31.8</ele>
        <time>2022-06-18T08:00:39Z</time>
      </trkpt>
      <trkpt lat="42.1553930" lon="-8.6207150">
        <ele>32.8</ele>
        <time>2022-06-18T08:00:40Z</time>
      </trkpt>
      <trkpt lat="42.1554330" lon="-8.6206880">
        <ele>32.8</ele>
        <time>2022-06-18T08:00:41Z</time>
      </trkpt>
      <trkpt lat="42.1554750" lon="-8.6206650">
        <ele>32.8</ele>
        <time>2022-06-18T08:00:42Z</time>
      </trkpt>
      <trkpt lat="42.1555110" lon="-8.6206400">
        <ele>33.2</ele>
        <time>2022-06-18T08:00:43Z</time>
      </trkpt>
      <trkpt lat="42.1555330" lon="-8.6206060">
        <ele>33.2</ele>
        <time>2022-06-18T08:00:44Z</time>
      </trkpt>
      <trkpt lat="42.1555600" lon="-8.6205760">
        <ele>33.2</ele>
        <time>2022-06-18T08:00:45Z</time>
      </trkpt>
      <trkpt lat="42.1555900" lon="-8.6205380">
        <ele>33.2</ele>
        <time>2022-06-18T08:00:46Z</time>
      </trkpt>
      <trkpt lat="42.1556200" lon="-8.6205050">
        <ele>33.8</ele>
        <time>2022-06-18T08:00:47Z</time>
      </trkpt>
      <trkpt lat="42.1556460" lon="-8.6204730">
        <ele>33.4</ele>
        <time>2022-06-18T08:00:48Z</time>
      </trkpt>
      <trkpt lat="42.1556730" lon="-8.6204380">
        <ele>33.4</ele>
        <time>2022-06-18T08:00:49Z</time>
      </trkpt>
      <trkpt lat="42.1557000" lon="-8.6204010">
        <ele>33.4</ele>
        <time>2022-06-18T08:00:50Z</time>
      </trkpt>
      <trkpt lat="42.1557260" lon="-8.6203650">
        <ele>33.2</ele>
        <time>2022-06-18T08:00:51Z</time>
      </trkpt>
      <trkpt lat="42.1557530" lon="-8.6203300">
        <ele>32.8</ele>
        <time>2022-06-18T08:00:52Z</time>
      </trkpt>
      <trkpt lat="42.1557800" lon="-8.6202930">
        <ele>32.8</ele>
        <time>2022-06-18T08:00:53Z</time>
      </trkpt>
      <trkpt lat="42.1558080" lon="-8.6202550">
        <ele>32.8</ele>
        <time>2022-06-18T08:00:54Z</time>
      </trkpt>
      <trkpt lat="42.1558400" lon="-8.6202160">
        <ele>32.8</ele>
        <time>2022-06-18T08:00:55Z</time>
      </trkpt>
      <trkpt lat="42.1558700" lon="-8.6201760">
        <ele>32.8</ele>
        <time>2022-06-18T08:00:56Z</time>
      </trkpt>
      <trkpt lat="42.1559030" lon="-8.6201330">
        <ele>32.8</ele>
        <time>2022-06-18T08:00:57Z</time>
      </trkpt>
      <trkpt lat="42.1559330" lon="-8.6200930">
        <ele>32.8</ele>
        <time>2022-06-18T08:00:58Z</time>
      </trkpt>
      <trkpt lat="42.1559600" lon="-8.6200610">
        <ele>32.4</ele>
        <time>2022-06-18T08:00:59Z</time>
      </trkpt>
      <trkpt lat="42.1559910" lon="-8.6200350">
        <ele>32.6</ele>
        <time>2022-06-18T08:01:00Z</time>
      </trkpt>
      <trkpt lat="42.1560180" lon="-8.6199980">
        <ele>32.6</ele>
        <time>2022-06-18T08:01:01Z</time>
      </trkpt>
      <trkpt lat="42.1560510" lon="-8.6199700">
        <ele>32.6</ele>
        <time>2022-06-18T08:01:02Z</time>
      </trkpt>
      <trkpt lat="42.1561010" lon="-8.6199650">
        <ele>31.6</ele>
        <time>2022-06-18T08:01:03Z</time>
      </trkpt>
      <trkpt lat="42.1561500" lon="-8.6199600">
        <ele>31.0</ele>
        <time>2022-06-18T08:01:04Z</time>
      </trkpt>
      <trkpt lat="42.1562000" lon="-8.6199550">
        <ele>31.0</ele>
        <time>2022-06-18T08:01:05Z</time>
      </trkpt>
      <trkpt lat="42.1562500" lon="-8.6199550">
        <ele>31.0</ele>
        <time>2022-06-18T08:01:06Z</time>
      </trkpt>
      <trkpt lat="42.1563030" lon="-8.6199560">
        <ele>31.0</ele>
        <time>2022-06-18T08:01:07Z</time>
      </trkpt>
      <trkpt lat="42.1563610" lon="-8.6199560">
        <ele>31.0</ele>
        <time>2022-06-18T08:01:08Z</time>
      </trkpt>
      <trkpt lat="42.1564050" lon="-8.6199450">
        <ele>31.0</ele>
        <time>2022-06-18T08:01:09Z</time>
      </trkpt>
      <trkpt lat="42.1564400" lon="-8.6199150">
        <ele>31.0</ele>
        <time>2022-06-18T08:01:10Z</time>
      </trkpt>
      <trkpt lat="42.1564730" lon="-8.6199050">
        <ele>31.0</ele>
        <time>2022-06-18T08:01:11Z</time>
      </trkpt>
      <trkpt lat="42.1565080" lon="-8.6198880">
        <ele>31.2</ele>
        <time>2022-06-18T08:01:12Z</time>
      </trkpt>
      <trkpt lat="42.1565510" lon="-8.6199050">
        <ele>31.2</ele>
        <time>2022-06-18T08:01:13Z</time>
      </trkpt>
      <trkpt lat="42.1565910" lon="-8.6199280">
        <ele>31.2</ele>
        <time>2022-06-18T08:01:14Z</time>
      </trkpt>
      <trkpt lat="42.1566260" lon="-8.6199380">
        <ele>31.4</ele>
        <time>2022-06-18T08:01:15Z</time>
      </trkpt>
      <trkpt lat="42.1566580" lon="-8.6199410">
        <ele>31.8</ele>
        <time>2022-06-18T08:01:16Z</time>
      </trkpt>
      <trkpt lat="42.1566910" lon="-8.6199500">
        <ele>31.8</ele>
        <time>2022-06-18T08:01:17Z</time>
      </trkpt>
      <trkpt lat="42.1567280" lon="-8.6199510">
        <ele>31.8</ele>
        <time>2022-06-18T08:01:18Z</time>
      </trkpt>
      <trkpt lat="42.1567650" lon="-8.6199510">
        <ele>31.8</ele>
        <time>2022-06-18T08:01:19Z</time>
      </trkpt>
      <trkpt lat="42.1568060" lon="-8.6199380">
        <ele>31.8</ele>
        <time>2022-06-18T08:01:20Z</time>
      </trkpt>
      <trkpt lat="42.1568410" lon="-8.6199410">
        <ele>31.8</ele>
        <time>2022-06-18T08:01:21Z</time>
      </trkpt>
      <trkpt lat="42.1568780" lon="-8.6199360">
        <ele>31.8</ele>
        <time>2022-06-18T08:01:22Z</time>
      </trkpt>
      <trkpt lat="42.1569180" lon="-8.6199350">
        <ele>32.0</ele>
        <time>2022-06-18T08:01:23Z</time>
      </trkpt>
      <trkpt lat="42.1569560" lon="-8.6199360">
        <ele>31.8</ele>
        <time>2022-06-18T08:01:24Z</time>
      </trkpt>
      <trkpt lat="42.1569960" lon="-8.6199380">
        <ele>31.8</ele>
        <time>2022-06-18T08:01:25Z</time>
      </trkpt>
      <trkpt lat="42.1570380" lon="-8.6199430">
        <ele>31.8</ele>
        <time>2022-06-18T08:01:26Z</time>
      </trkpt>
      <trkpt lat="42.1570710" lon="-8.6199600">
        <ele>31.8</ele>
        <time>2022-06-18T08:01:27Z</time>
      </trkpt>
      <trkpt lat="42.1571050" lon="-8.6199810">
        <ele>31.8</ele>
        <time>2022-06-18T08:01:28Z</time>
      </trkpt>
      <trkpt lat="42.1571410" lon="-8.6200010">
        <ele>31.8</ele>
        <time>2022-06-18T08:01:29Z</time>
      </trkpt>
      <trkpt lat="42.1571800" lon="-8.6200150">
        <ele>31.8</ele>
        <time>2022-06-18T08:01:30Z</time>
      </trkpt>
      <trkpt lat="42.1572180" lon="-8.6200280">
        <ele>31.8</ele>
        <time>2022-06-18T08:01:31Z</time>
      </trkpt>
      <trkpt lat="42.1572580" lon="-8.6200360">
        <ele>32.0</ele>
        <time>2022-06-18T08:01:32Z</time>
      </trkpt>
      <trkpt lat="42.1572960" lon="-8.6200380">
        <ele>32.0</ele>
        <time>2022-06-18T08:01:33Z</time>
      </trkpt>
      <trkpt lat="42.1573230" lon="-8.6200400">
        <ele>32.0</ele>
        <time>2022-06-18T08:01:34Z</time>
      </trkpt>
      <trkpt lat="42.1573650" lon="-8.6200410">
        <ele>32.0</ele>
        <time>2022-06-18T08:01:35Z</time>
      </trkpt>
      <trkpt lat="42.1574080" lon="-8.6200410">
        <ele>31.8</ele>
        <time>2022-06-18T08:01:36Z</time>
      </trkpt>
      <trkpt lat="42.1574460" lon="-8.6200400">
        <ele>31.8</ele>
        <time>2022-06-18T08:01:37Z</time>
      </trkpt>
      <trkpt lat="42.1574880" lon="-8.6200380">
        <ele>31.8</ele>
        <time>2022-06-18T08:01:38Z</time>
      </trkpt>
      <trkpt lat="42.1575300" lon="-8.6200330">
        <ele>32.8</ele>
        <time>2022-06-18T08:01:39Z</time>
      </trkpt>
      <trkpt lat="42.1575710" lon="-8.6200280">
        <ele>32.2</ele>
        <time>2022-06-18T08:01:40Z</time>
      </trkpt>
      <trkpt lat="42.1576150" lon="-8.6200230">
        <ele>32.2</ele>
        <time>2022-06-18T08:01:41Z</time>
      </trkpt>
      <trkpt lat="42.1576550" lon="-8.6200260">
        <ele>32.2</ele>
        <time>2022-06-18T08:01:42Z</time>
      </trkpt>
      <trkpt lat="42.1576930" lon="-8.6200300">
        <ele>32.2</ele>
        <time>2022-06-18T08:01:43Z</time>
      </trkpt>
      <trkpt lat="42.1577300" lon="-8.6200330">
        <ele>32.2</ele>
        <time>2022-06-18T08:01:44Z</time>
      </trkpt>
      <trkpt lat="42.1577660" lon="-8.6200180">
        <ele>32.2</ele>
        <time>2022-06-18T08:01:45Z</time>
      </trkpt>
      <trkpt lat="42.1578000" lon="-8.6200130">
        <ele>32.2</ele>
        <time>2022-06-18T08:01:46Z</time>
      </trkpt>
      <trkpt lat="42.1578350" lon="-8.6200160">
        <ele>33.2</ele>
        <time>2022-06-18T08:01:47Z</time>
      </trkpt>
      <trkpt lat="42.1578710" lon="-8.6200310">
        <ele>32.8</ele>
        <time>2022-06-18T08:01:48Z</time>
      </trkpt>
      <trkpt lat="42.1579030" lon="-8.6200450">
        <ele>32.8</ele>
        <time>2022-06-18T08:01:49Z</time>
      </trkpt>
      <trkpt lat="42.1579400" lon="-8.6200460">
        <ele>32.8</ele>
        <time>2022-06-18T08:01:50Z</time>
      </trkpt>
      <trkpt lat="42.1579780" lon="-8.6200530">
        <ele>33.4</ele>
        <time>2022-06-18T08:01:51Z</time>
      </trkpt>
      <trkpt lat="42.1580130" lon="-8.6200600">
        <ele>33.0</ele>
        <time>2022-06-18T08:01:52Z</time>
      </trkpt>
      <trkpt lat="42.1580450" lon="-8.6200680">
        <ele>33.0</ele>
        <time>2022-06-18T08:01:53Z</time>
      </trkpt>
      <trkpt lat="42.1580710" lon="-8.6200750">
        <ele>33.0</ele>
        <time>2022-06-18T08:01:54Z</time>
      </trkpt>
      <trkpt lat="42.1580950" lon="-8.6200700">
        <ele>33.4</ele>
        <time>2022-06-18T08:01:55Z</time>
      </trkpt>
      <trkpt lat="42.1581210" lon="-8.6200760">
        <ele>34.2</ele>
        <time>2022-06-18T08:01:56Z</time>
      </trkpt>
      <trkpt lat="42.1581550" lon="-8.6200760">
        <ele>34.2</ele>
        <time>2022-06-18T08:01:57Z</time>
      </trkpt>
      <trkpt lat="42.1581810" lon="-8.6200700">
        <ele>34.2</ele>
        <time>2022-06-18T08:01:58Z</time>
      </trkpt>
      <trkpt lat="42.1582050" lon="-8.6200660">
        <ele>34.2</ele>
        <time>2022-06-18T08:01:59Z</time>
      </trkpt>
      <trkpt lat="42.1582310" lon="-8.6200650">
        <ele>34.6</ele>
        <time>2022-06-18T08:02:00Z</time>
      </trkpt>
      <trkpt lat="42.1582580" lon="-8.6200610">
        <ele>34.6</ele>
        <time>2022-06-18T08:02:01Z</time>
      </trkpt>
      <trkpt lat="42.1582750" lon="-8.6200630">
        <ele>34.6</ele>
        <time>2022-06-18T08:02:02Z</time>
      </trkpt>
      <trkpt lat="42.1582900" lon="-8.6200680">
        <ele>35.6</ele>
        <time>2022-06-18T08:02:03Z</time>
      </trkpt>
      <trkpt lat="42.1583030" lon="-8.6200730">
        <ele>35.6</ele>
        <time>2022-06-18T08:02:04Z</time>
      </trkpt>
      <trkpt lat="42.1583160" lon="-8.6200800">
        <ele>35.6</ele>
        <time>2022-06-18T08:02:05Z</time>
      </trkpt>
      <trkpt lat="42.1583430" lon="-8.6200800">
        <ele>35.6</ele>
        <time>2022-06-18T08:02:06Z</time>
      </trkpt>
      <trkpt lat="42.1583630" lon="-8.6200930">
        <ele>35.6</ele>
        <time>2022-06-18T08:02:07Z</time>
      </trkpt>
      <trkpt lat="42.1583850" lon="-8.6200910">
        <ele>36.0</ele>
        <time>2022-06-18T08:02:08Z</time>
      </trkpt>
      <trkpt lat="42.1584080" lon="-8.6201110">
        <ele>36.0</ele>
        <time>2022-06-18T08:02:09Z</time>
      </trkpt>
      <trkpt lat="42.1584280" lon="-8.6201300">
        <ele>36.0</ele>
        <time>2022-06-18T08:02:10Z</time>
      </trkpt>
      <trkpt lat="42.1584430" lon="-8.6201460">
        <ele>36.0</ele>
        <time>2022-06-18T08:02:11Z</time>
      </trkpt>
      <trkpt lat="42.1584610" lon="-8.6201580">
        <ele>37.2</ele>
        <time>2022-06-18T08:02:12Z</time>
      </trkpt>
      <trkpt lat="42.1584830" lon="-8.6201710">
        <ele>37.2</ele>
        <time>2022-06-18T08:02:13Z</time>
      </trkpt>
      <trkpt lat="42.1585050" lon="-8.6201760">
        <ele>37.2</ele>
        <time>2022-06-18T08:02:14Z</time>
      </trkpt>
      <trkpt lat="42.1585180" lon="-8.6201680">
        <ele>37.2</ele>
        <time>2022-06-18T08:02:15Z</time>
      </trkpt>
      <trkpt lat="42.1585280" lon="-8.6201700">
        <ele>37.2</ele>
        <time>2022-06-18T08:02:16Z</time>
      </trkpt>
      <trkpt lat="42.1585460" lon="-8.6201780">
        <ele>37.2</ele>
        <time>2022-06-18T08:02:17Z</time>
      </trkpt>
      <trkpt lat="42.1585650" lon="-8.6201810">
        <ele>37.2</ele>
        <time>2022-06-18T08:02:18Z</time>
      </trkpt>
      <trkpt lat="42.1585850" lon="-8.6201900">
        <ele>37.2</ele>
        <time>2022-06-18T08:02:19Z</time>
      </trkpt>
      <trkpt lat="42.1586010" lon="-8.6202060">
        <ele>37.6</ele>
        <time>2022-06-18T08:02:20Z</time>
      </trkpt>
      <trkpt lat="42.1586210" lon="-8.6202080">
        <ele>37.6</ele>
        <time>2022-06-18T08:02:21Z</time>
      </trkpt>
      <trkpt lat="42.1586450" lon="-8.6202100">
        <ele>37.6</ele>
        <time>2022-06-18T08:02:22Z</time>
      </trkpt>
      <trkpt lat="42.1586700" lon="-8.6202130">
        <ele>37.6</ele>
        <time>2022-06-18T08:02:23Z</time>
      </trkpt>
      <trkpt lat="42.1586960" lon="-8.6202250">
        <ele>38.6</ele>
        <time>2022-06-18T08:02:24Z</time>
      </trkpt>
      <trkpt lat="42.1587180" lon="-8.6202410">
        <ele>38.6</ele>
        <time>2022-06-18T08:02:25Z</time>
      </trkpt>
      <trkpt lat="42.1587450" lon="-8.6202600">
        <ele>38.6</ele>
        <time>2022-06-18T08:02:26Z</time>
      </trkpt>
      <trkpt lat="42.1587760" lon="-8.6202730">
        <ele>38.6</ele>
        <time>2022-06-18T08:02:27Z</time>
      </trkpt>
      <trkpt lat="42.1587960" lon="-8.6202700">
        <ele>39.2</ele>
        <time>2022-06-18T08:02:28Z</time>
      </trkpt>
      <trkpt lat="42.1588180" lon="-8.6202780">
        <ele>39.2</ele>
        <time>2022-06-18T08:02:29Z</time>
      </trkpt>
      <trkpt lat="42.1588450" lon="-8.6202810">
        <ele>39.2</ele>
        <time>2022-06-18T08:02:30Z</time>
      </trkpt>
      <trkpt lat="42.1588680" lon="-8.6202800">
        <ele>39.2</ele>
        <time>2022-06-18T08:02:31Z</time>
      </trkpt>
      <trkpt lat="42.1588880" lon="-8.6202730">
        <ele>39.6</ele>
        <time>2022-06-18T08:02:32Z</time>
      </trkpt>
      <trkpt lat="42.1589130" lon="-8.6202710">
        <ele>39.6</ele>
        <time>2022-06-18T08:02:33Z</time>
      </trkpt>
      <trkpt lat="42.1589380" lon="-8.6202660">
        <ele>39.6</ele>
        <time>2022-06-18T08:02:34Z</time>
      </trkpt>
      <trkpt lat="42.1589660" lon="-8.6202550">
        <ele>39.6</ele>
        <time>2022-06-18T08:02:35Z</time>
      </trkpt>
      <trkpt lat="42.1589810" lon="-8.6202400">
        <ele>40.0</ele>
        <time>2022-06-18T08:02:36Z</time>
      </trkpt>
      <trkpt lat="42.1589930" lon="-8.6202250">
        <ele>40.0</ele>
        <time>2022-06-18T08:02:37Z</time>
      </trkpt>
      <trkpt lat="42.1590080" lon="-8.6202130">
        <ele>40.0</ele>
        <time>2022-06-18T08:02:38Z</time>
      </trkpt>
      <trkpt lat="42.1590350" lon="-8.6202160">
        <ele>39.6</ele>
        <time>2022-06-18T08:02:39Z</time>
      </trkpt>
      <trkpt lat="42.1590510" lon="-8.6202230">
        <ele>39.6</ele>
        <time>2022-06-18T08:02:40Z</time>
      </trkpt>
      <trkpt lat="42.1590630" lon="-8.6202310">
        <ele>39.6</ele>
        <time>2022-06-18T08:02:41Z</time>
      </trkpt>
      <trkpt lat="42.1590700" lon="-8.6202330">
        <ele>39.6</ele>
        <time>2022-06-18T08:02:42Z</time>
      </trkpt>
      <trkpt lat="42.1590780" lon="-8.6202350">
        <ele>39.8</ele>
        <time>2022-06-18T08:02:43Z</time>
      </trkpt>
      <trkpt lat="42.1590910" lon="-8.6202450">
        <ele>39.4</ele>
        <time>2022-06-18T08:02:44Z</time>
      </trkpt>
      <trkpt lat="42.1591100" lon="-8.6202630">
        <ele>39.4</ele>
        <time>2022-06-18T08:02:45Z</time>
      </trkpt>
      <trkpt lat="42.1591300" lon="-8.6202860">
        <ele>39.4</ele>
        <time>2022-06-18T08:02:46Z</time>
      </trkpt>
      <trkpt lat="42.1591530" lon="-8.6203160">
        <ele>39.4</ele>
        <time>2022-06-18T08:02:47Z</time>
      </trkpt>
      <trkpt lat="42.1591760" lon="-8.6203510">
        <ele>38.4</ele>
        <time>2022-06-18T08:02:48Z</time>
      </trkpt>
      <trkpt lat="42.1592030" lon="-8.6203860">
        <ele>38.4</ele>
        <time>2022-06-18T08:02:49Z</time>
      </trkpt>
      <trkpt lat="42.1592260" lon="-8.6204210">
        <ele>38.4</ele>
        <time>2022-06-18T08:02:50Z</time>
      </trkpt>
      <trkpt lat="42.1592460" lon="-8.6204550">
        <ele>38.4</ele>
        <time>2022-06-18T08:02:51Z</time>
      </trkpt>
      <trkpt lat="42.1592630" lon="-8.6204900">
        <ele>37.6</ele>
        <time>2022-06-18T08:02:52Z</time>
      </trkpt>
      <trkpt lat="42.1592800" lon="-8.6205180">
        <ele>37.6</ele>
        <time>2022-06-18T08:02:53Z</time>
      </trkpt>
      <trkpt lat="42.1593050" lon="-8.6205380">
        <ele>37.6</ele>
        <time>2022-06-18T08:02:54Z</time>
      </trkpt>
      <trkpt lat="42.1593360" lon="-8.6205600">
        <ele>36.8</ele>
        <time>2022-06-18T08:02:55Z</time>
      </trkpt>
      <trkpt lat="42.1593660" lon="-8.6205750">
        <ele>36.6</ele>
        <time>2022-06-18T08:02:56Z</time>
      </trkpt>
      <trkpt lat="42.1593980" lon="-8.6205930">
        <ele>36.6</ele>
        <time>2022-06-18T08:02:57Z</time>
      </trkpt>
      <trkpt lat="42.1594280" lon="-8.6206200">
        <ele>36.6</ele>
        <time>2022-06-18T08:02:58Z</time>
      </trkpt>
      <trkpt lat="42.1594550" lon="-8.6206580">
        <ele>36.0</ele>
        <time>2022-06-18T08:02:59Z</time>
      </trkpt>
      <trkpt lat="42.1594650" lon="-8.6207110">
        <ele>35.2</ele>
        <time>2022-06-18T08:03:00Z</time>
      </trkpt>
      <trkpt lat="42.1594680" lon="-8.6207750">
        <ele>35.2</ele>
        <time>2022-06-18T08:03:01Z</time>
      </trkpt>
      <trkpt lat="42.1594700" lon="-8.6208310">
        <ele>35.2</ele>
        <time>2022-06-18T08:03:02Z</time>
      </trkpt>
      <trkpt lat="42.1594810" lon="-8.6208780">
        <ele>35.2</ele>
        <time>2022-06-18T08:03:03Z</time>
      </trkpt>
      <trkpt lat="42.1594880" lon="-8.6209180">
        <ele>34.0</ele>
        <time>2022-06-18T08:03:04Z</time>
      </trkpt>
      <trkpt lat="42.1594910" lon="-8.6209560">
        <ele>34.0</ele>
        <time>2022-06-18T08:03:05Z</time>
      </trkpt>
      <trkpt lat="42.1595000" lon="-8.6209900">
        <ele>34.0</ele>
        <time>2022-06-18T08:03:06Z</time>
      </trkpt>
      <trkpt lat="42.1595160" lon="-8.6210210">
        <ele>33.0</ele>
        <time>2022-06-18T08:03:07Z</time>
      </trkpt>
      <trkpt lat="42.1595360" lon="-8.6210460">
        <ele>33.2</ele>
        <time>2022-06-18T08:03:08Z</time>
      </trkpt>
      <trkpt lat="42.1595650" lon="-8.6210630">
        <ele>33.2</ele>
        <time>2022-06-18T08:03:09Z</time>
      </trkpt>
      <trkpt lat="42.1595910" lon="-8.6210750">
        <ele>33.2</ele>
        <time>2022-06-18T08:03:10Z</time>
      </trkpt>
      <trkpt lat="42.1596100" lon="-8.6210800">
        <ele>33.2</ele>
        <time>2022-06-18T08:03:11Z</time>
      </trkpt>
      <trkpt lat="42.1596310" lon="-8.6210750">
        <ele>32.8</ele>
        <time>2022-06-18T08:03:12Z</time>
      </trkpt>
      <trkpt lat="42.1596480" lon="-8.6210750">
        <ele>32.8</ele>
        <time>2022-06-18T08:03:13Z</time>
      </trkpt>
      <trkpt lat="42.1596730" lon="-8.6210710">
        <ele>32.8</ele>
        <time>2022-06-18T08:03:14Z</time>
      </trkpt>
      <trkpt lat="42.1596950" lon="-8.6210700">
        <ele>33.2</ele>
        <time>2022-06-18T08:03:15Z</time>
      </trkpt>
      <trkpt lat="42.1597160" lon="-8.6210700">
        <ele>32.8</ele>
        <time>2022-06-18T08:03:16Z</time>
      </trkpt>
      <trkpt lat="42.1597410" lon="-8.6210750">
        <ele>32.8</ele>
        <time>2022-06-18T08:03:17Z</time>
      </trkpt>
      <trkpt lat="42.1597650" lon="-8.6210830">
        <ele>32.8</ele>
        <time>2022-06-18T08:03:18Z</time>
      </trkpt>
      <trkpt lat="42.1597880" lon="-8.6210830">
        <ele>33.0</ele>
        <time>2022-06-18T08:03:19Z</time>
      </trkpt>
      <trkpt lat="42.1598130" lon="-8.6210760">
        <ele>33.0</ele>
        <time>2022-06-18T08:03:20Z</time>
      </trkpt>
      <trkpt lat="42.1598430" lon="-8.6210850">
        <ele>33.0</ele>
        <time>2022-06-18T08:03:21Z</time>
      </trkpt>
      <trkpt lat="42.1598710" lon="-8.6210880">
        <ele>33.0</ele>
        <time>2022-06-18T08:03:22Z</time>
      </trkpt>
      <trkpt lat="42.1598930" lon="-8.6210910">
        <ele>33.2</ele>
        <time>2022-06-18T08:03:23Z</time>
      </trkpt>
      <trkpt lat="42.1599150" lon="-8.6210960">
        <ele>33.4</ele>
        <time>2022-06-18T08:03:24Z</time>
      </trkpt>
      <trkpt lat="42.1599330" lon="-8.6210960">
        <ele>33.4</ele>
        <time>2022-06-18T08:03:25Z</time>
      </trkpt>
      <trkpt lat="42.1599560" lon="-8.6210950">
        <ele>33.4</ele>
        <time>2022-06-18T08:03:26Z</time>
      </trkpt>
      <trkpt lat="42.1599810" lon="-8.6211030">
        <ele>33.4</ele>
        <time>2022-06-18T08:03:27Z</time>
      </trkpt>
      <trkpt lat="42.1600010" lon="-8.6211030">
        <ele>33.4</ele>
        <time>2022-06-18T08:03:28Z</time>
      </trkpt>
      <trkpt lat="42.1600230" lon="-8.6211030">
        <ele>33.4</ele>
        <time>2022-06-18T08:03:29Z</time>
      </trkpt>
      <trkpt lat="42.1600410" lon="-8.6211060">
        <ele>33.4</ele>
        <time>2022-06-18T08:03:30Z</time>
      </trkpt>
      <trkpt lat="42.1600630" lon="-8.6211110">
        <ele>33.4</ele>
        <time>2022-06-18T08:03:31Z</time>
      </trkpt>
      <trkpt lat="42.1600880" lon="-8.6211080">
        <ele>33.0</ele>
        <time>2022-06-18T08:03:32Z</time>
      </trkpt>
      <trkpt lat="42.1601050" lon="-8.6211110">
        <ele>33.0</ele>
        <time>2022-06-18T08:03:33Z</time>
      </trkpt>
      <trkpt lat="42.1601250" lon="-8.6211130">
        <ele>33.0</ele>
        <time>2022-06-18T08:03:34Z</time>
      </trkpt>
      <trkpt lat="42.1601400" lon="-8.6211050">
        <ele>33.8</ele>
        <time>2022-06-18T08:03:35Z</time>
      </trkpt>
      <trkpt lat="42.1601600" lon="-8.6210880">
        <ele>33.2</ele>
        <time>2022-06-18T08:03:36Z</time>
      </trkpt>
      <trkpt lat="42.1601850" lon="-8.6210660">
        <ele>33.2</ele>
        <time>2022-06-18T08:03:37Z</time>
      </trkpt>
      <trkpt lat="42.1602210" lon="-8.6210580">
        <ele>33.2</ele>
        <time>2022-06-18T08:03:38Z</time>
      </trkpt>
      <trkpt lat="42.1602480" lon="-8.6210560">
        <ele>33.8</ele>
        <time>2022-06-18T08:03:39Z</time>
      </trkpt>
      <trkpt lat="42.1602700" lon="-8.6210510">
        <ele>33.8</ele>
        <time>2022-06-18T08:03:40Z</time>
      </trkpt>
      <trkpt lat="42.1602880" lon="-8.6210430">
        <ele>33.8</ele>
        <time>2022-06-18T08:03:41Z</time>
      </trkpt>
      <trkpt lat="42.1603100" lon="-8.6210310">
        <ele>33.8</ele>
        <time>2022-06-18T08:03:42Z</time>
      </trkpt>
      <trkpt lat="42.1603280" lon="-8.6210230">
        <ele>33.8</ele>
        <time>2022-06-18T08:03:43Z</time>
      </trkpt>
      <trkpt lat="42.1603350" lon="-8.6210200">
        <ele>33.8</ele>
        <time>2022-06-18T08:03:44Z</time>
      </trkpt>
      <trkpt lat="42.1603580" lon="-8.6210400">
        <ele>33.8</ele>
        <time>2022-06-18T08:03:45Z</time>
      </trkpt>
      <trkpt lat="42.1603900" lon="-8.6210430">
        <ele>33.8</ele>
        <time>2022-06-18T08:03:46Z</time>
      </trkpt>
      <trkpt lat="42.1604180" lon="-8.6210400">
        <ele>33.8</ele>
        <time>2022-06-18T08:03:47Z</time>
      </trkpt>
      <trkpt lat="42.1604450" lon="-8.6210510">
        <ele>33.8</ele>
        <time>2022-06-18T08:03:48Z</time>
      </trkpt>
      <trkpt lat="42.1604730" lon="-8.6210650">
        <ele>33.8</ele>
        <time>2022-06-18T08:03:49Z</time>
      </trkpt>
      <trkpt lat="42.1604950" lon="-8.6210660">
        <ele>33.8</ele>
        <time>2022-06-18T08:03:50Z</time>
      </trkpt>
      <trkpt lat="42.1605210" lon="-8.6210660">
        <ele>33.8</ele>
        <time>2022-06-18T08:03:51Z</time>
      </trkpt>
      <trkpt lat="42.1605500" lon="-8.6210630">
        <ele>33.6</ele>
        <time>2022-06-18T08:03:52Z</time>
      </trkpt>
      <trkpt lat="42.1605750" lon="-8.6210680">
        <ele>33.6</ele>
        <time>2022-06-18T08:03:53Z</time>
      </trkpt>
      <trkpt lat="42.1606010" lon="-8.6210750">
        <ele>33.6</ele>
        <time>2022-06-18T08:03:54Z</time>
      </trkpt>
      <trkpt lat="42.1606310" lon="-8.6210810">
        <ele>33.6</ele>
        <time>2022-06-18T08:03:55Z</time>
      </trkpt>
      <trkpt lat="42.1606650" lon="-8.6210860">
        <ele>34.0</ele>
        <time>2022-06-18T08:03:56Z</time>
      </trkpt>
      <trkpt lat="42.1607000" lon="-8.6210860">
        <ele>34.0</ele>
        <time>2022-06-18T08:03:57Z</time>
      </trkpt>
      <trkpt lat="42.1607310" lon="-8.6210910">
        <ele>34.0</ele>
        <time>2022-06-18T08:03:58Z</time>
      </trkpt>
      <trkpt lat="42.1607550" lon="-8.6210860">
        <ele>34.0</ele>
        <time>2022-06-18T08:03:59Z</time>
      </trkpt>
      <trkpt lat="42.1607800" lon="-8.6210780">
        <ele>34.0</ele>
        <time>2022-06-18T08:04:00Z</time>
      </trkpt>
      <trkpt lat="42.1607950" lon="-8.6210710">
        <ele>34.0</ele>
        <time>2022-06-18T08:04:01Z</time>
      </trkpt>
      <trkpt lat="42.1608100" lon="-8.6210580">
        <ele>34.0</ele>
        <time>2022-06-18T08:04:02Z</time>
      </trkpt>
      <trkpt lat="42.1608310" lon="-8.6210430">
        <ele>34.0</ele>
        <time>2022-06-18T08:04:03Z</time>
      </trkpt>
      <trkpt lat="42.1608500" lon="-8.6210280">
        <ele>34.0</ele>
        <time>2022-06-18T08:04:04Z</time>
      </trkpt>
      <trkpt lat="42.1608800" lon="-8.6210310">
        <ele>34.0</ele>
        <time>2022-06-18T08:04:05Z</time>
      </trkpt>
      <trkpt lat="42.1609080" lon="-8.6210360">
        <ele>34.0</ele>
        <time>2022-06-18T08:04:06Z</time>
      </trkpt>
      <trkpt lat="42.1609360" lon="-8.6210480">
        <ele>34.0</ele>
        <time>2022-06-18T08:04:07Z</time>
      </trkpt>
      <trkpt lat="42.1609630" lon="-8.6210510">
        <ele>34.2</ele>
        <time>2022-06-18T08:04:08Z</time>
      </trkpt>
      <trkpt lat="42.1609900" lon="-8.6210510">
        <ele>34.2</ele>
        <time>2022-06-18T08:04:09Z</time>
      </trkpt>
      <trkpt lat="42.1610150" lon="-8.6210530">
        <ele>34.2</ele>
        <time>2022-06-18T08:04:10Z</time>
      </trkpt>
      <trkpt lat="42.1610400" lon="-8.6210500">
        <ele>34.2</ele>
        <time>2022-06-18T08:04:11Z</time>
      </trkpt>
      <trkpt lat="42.1610730" lon="-8.6210480">
        <ele>34.2</ele>
        <time>2022-06-18T08:04:12Z</time>
      </trkpt>
      <trkpt lat="42.1611000" lon="-8.6210530">
        <ele>34.2</ele>
        <time>2022-06-18T08:04:13Z</time>
      </trkpt>
      <trkpt lat="42.1611300" lon="-8.6210610">
        <ele>34.2</ele>
        <time>2022-06-18T08:04:14Z</time>
      </trkpt>
      <trkpt lat="42.1611500" lon="-8.6210550">
        <ele>34.4</ele>
        <time>2022-06-18T08:04:15Z</time>
      </trkpt>
      <trkpt lat="42.1611830" lon="-8.6210560">
        <ele>34.4</ele>
        <time>2022-06-18T08:04:16Z</time>
      </trkpt>
      <trkpt lat="42.1612200" lon="-8.6210730">
        <ele>34.4</ele>
        <time>2022-06-18T08:04:17Z</time>
      </trkpt>
      <trkpt lat="42.1612450" lon="-8.6210810">
        <ele>34.4</ele>
        <time>2022-06-18T08:04:18Z</time>
      </trkpt>
      <trkpt lat="42.1612710" lon="-8.6210830">
        <ele>34.6</ele>
        <time>2022-06-18T08:04:19Z</time>
      </trkpt>
      <trkpt lat="42.1613030" lon="-8.6210810">
        <ele>34.8</ele>
        <time>2022-06-18T08:04:20Z</time>
      </trkpt>
      <trkpt lat="42.1613360" lon="-8.6210850">
        <ele>34.8</ele>
        <time>2022-06-18T08:04:21Z</time>
      </trkpt>
      <trkpt lat="42.1613700" lon="-8.6210860">
        <ele>34.8</ele>
        <time>2022-06-18T08:04:22Z</time>
      </trkpt>
      <trkpt lat="42.1613980" lon="-8.6210960">
        <ele>34.8</ele>
        <time>2022-06-18T08:04:23Z</time>
      </trkpt>
      <trkpt lat="42.1614260" lon="-8.6211010">
        <ele>35.2</ele>
        <time>2022-06-18T08:04:24Z</time>
      </trkpt>
      <trkpt lat="42.1614510" lon="-8.6211030">
        <ele>35.2</ele>
        <time>2022-06-18T08:04:25Z</time>
      </trkpt>
      <trkpt lat="42.1614800" lon="-8.6211060">
        <ele>35.2</ele>
        <time>2022-06-18T08:04:26Z</time>
      </trkpt>
      <trkpt lat="42.1615060" lon="-8.6211100">
        <ele>35.2</ele>
        <time>2022-06-18T08:04:27Z</time>
      </trkpt>
      <trkpt lat="42.1615300" lon="-8.6211210">
        <ele>34.8</ele>
        <time>2022-06-18T08:04:28Z</time>
      </trkpt>
      <trkpt lat="42.1615530" lon="-8.6211450">
        <ele>34.8</ele>
        <time>2022-06-18T08:04:29Z</time>
      </trkpt>
      <trkpt lat="42.1615760" lon="-8.6211650">
        <ele>34.8</ele>
        <time>2022-06-18T08:04:30Z</time>
      </trkpt>
      <trkpt lat="42.1615980" lon="-8.6211780">
        <ele>34.8</ele>
        <time>2022-06-18T08:04:31Z</time>
      </trkpt>
      <trkpt lat="42.1616210" lon="-8.6211910">
        <ele>35.4</ele>
        <time>2022-06-18T08:04:32Z</time>
      </trkpt>
      <trkpt lat="42.1616480" lon="-8.6212130">
        <ele>35.4</ele>
        <time>2022-06-18T08:04:33Z</time>
      </trkpt>
      <trkpt lat="42.1616680" lon="-8.6212100">
        <ele>35.4</ele>
        <time>2022-06-18T08:04:34Z</time>
      </trkpt>
      <trkpt lat="42.1617180" lon="-8.6211730">
        <ele>35.2</ele>
        <time>2022-06-18T08:04:35Z</time>
      </trkpt>
      <trkpt lat="42.1617530" lon="-8.6211460">
        <ele>35.8</ele>
        <time>2022-06-18T08:04:36Z</time>
      </trkpt>
      <trkpt lat="42.1617730" lon="-8.6211380">
        <ele>35.8</ele>
        <time>2022-06-18T08:04:37Z</time>
      </trkpt>
      <trkpt lat="42.1617900" lon="-8.6211380">
        <ele>35.8</ele>
        <time>2022-06-18T08:04:38Z</time>
      </trkpt>
      <trkpt lat="42.1618030" lon="-8.6211450">
        <ele>35.2</ele>
        <time>2022-06-18T08:04:39Z</time>
      </trkpt>
      <trkpt lat="42.1618210" lon="-8.6211600">
        <ele>35.2</ele>
        <time>2022-06-18T08:04:40Z</time>
      </trkpt>
      <trkpt lat="42.1618400" lon="-8.6211780">
        <ele>35.2</ele>
        <time>2022-06-18T08:04:41Z</time>
      </trkpt>
      <trkpt lat="42.1618600" lon="-8.6211900">
        <ele>35.2</ele>
        <time>2022-06-18T08:04:42Z</time>
      </trkpt>
      <trkpt lat="42.1618800" lon="-8.6212050">
        <ele>35.2</ele>
        <time>2022-06-18T08:04:43Z</time>
      </trkpt>
      <trkpt lat="42.1619060" lon="-8.6212200">
        <ele>35.4</ele>
        <time>2022-06-18T08:04:44Z</time>
      </trkpt>
      <trkpt lat="42.1619280" lon="-8.6212310">
        <ele>35.4</ele>
        <time>2022-06-18T08:04:45Z</time>
      </trkpt>
      <trkpt lat="42.1619510" lon="-8.6212460">
        <ele>35.4</ele>
        <time>2022-06-18T08:04:46Z</time>
      </trkpt>
      <trkpt lat="42.1619730" lon="-8.6212600">
        <ele>35.2</ele>
        <time>2022-06-18T08:04:47Z</time>
      </trkpt>
      <trkpt lat="42.1619960" lon="-8.6212680">
        <ele>35.2</ele>
        <time>2022-06-18T08:04:48Z</time>
      </trkpt>
      <trkpt lat="42.1620160" lon="-8.6212880">
        <ele>35.2</ele>
        <time>2022-06-18T08:04:49Z</time>
      </trkpt>
      <trkpt lat="42.1620310" lon="-8.6213080">
        <ele>35.2</ele>
        <time>2022-06-18T08:04:50Z</time>
      </trkpt>
      <trkpt lat="42.1620500" lon="-8.6213250">
        <ele>34.8</ele>
        <time>2022-06-18T08:04:51Z</time>
      </trkpt>
      <trkpt lat="42.1620700" lon="-8.6213380">
        <ele>35.2</ele>
        <time>2022-06-18T08:04:52Z</time>
      </trkpt>
      <trkpt lat="42.1620930" lon="-8.6213550">
        <ele>35.2</ele>
        <time>2022-06-18T08:04:53Z</time>
      </trkpt>
      <trkpt lat="42.1621160" lon="-8.6213700">
        <ele>35.2</ele>
        <time>2022-06-18T08:04:54Z</time>
      </trkpt>
      <trkpt lat="42.1621430" lon="-8.6213760">
        <ele>35.2</ele>
        <time>2022-06-18T08:04:55Z</time>
      </trkpt>
      <trkpt lat="42.1621680" lon="-8.6213800">
        <ele>35.2</ele>
        <time>2022-06-18T08:04:56Z</time>
      </trkpt>
      <trkpt lat="42.1621930" lon="-8.6213800">
        <ele>35.2</ele>
        <time>2022-06-18T08:04:57Z</time>
      </trkpt>
      <trkpt lat="42.1622160" lon="-8.6213810">
        <ele>35.2</ele>
        <time>2022-06-18T08:04:58Z</time>
      </trkpt>
      <trkpt lat="42.1622410" lon="-8.6213750">
        <ele>35.2</ele>
        <time>2022-06-18T08:04:59Z</time>
      </trkpt>
      <trkpt lat="42.1622630" lon="-8.6213650">
        <ele>35.4</ele>
        <time>2022-06-18T08:05:00Z</time>
      </trkpt>
      <trkpt lat="42.1622860" lon="-8.6213650">
        <ele>35.4</ele>
        <time>2022-06-18T08:05:01Z</time>
      </trkpt>
      <trkpt lat="42.1623080" lon="-8.6213630">
        <ele>35.4</ele>
        <time>2022-06-18T08:05:02Z</time>
      </trkpt>
      <trkpt lat="42.1623300" lon="-8.6213600">
        <ele>35.6</ele>
        <time>2022-06-18T08:05:03Z</time>
      </trkpt>
      <trkpt lat="42.1623550" lon="-8.6213530">
        <ele>35.6</ele>
        <time>2022-06-18T08:05:04Z</time>
      </trkpt>
      <trkpt lat="42.1623750" lon="-8.6213650">
        <ele>35.6</ele>
        <time>2022-06-18T08:05:05Z</time>
      </trkpt>
      <trkpt lat="42.1624000" lon="-8.6213880">
        <ele>35.6</ele>
        <time>2022-06-18T08:05:06Z</time>
      </trkpt>
      <trkpt lat="42.1624250" lon="-8.6214080">
        <ele>36.2</ele>
        <time>2022-06-18T08:05:07Z</time>
      </trkpt>
      <trkpt lat="42.1624530" lon="-8.6214260">
        <ele>36.2</ele>
        <time>2022-06-18T08:05:08Z</time>
      </trkpt>
      <trkpt lat="42.1624780" lon="-8.6214430">
        <ele>36.2</ele>
        <time>2022-06-18T08:05:09Z</time>
      </trkpt>
      <trkpt lat="42.1625010" lon="-8.6214580">
        <ele>36.2</ele>
        <time>2022-06-18T08:05:10Z</time>
      </trkpt>
      <trkpt lat="42.1625250" lon="-8.6214660">
        <ele>36.6</ele>
        <time>2022-06-18T08:05:11Z</time>
      </trkpt>
      <trkpt lat="42.1625400" lon="-8.6214760">
        <ele>36.6</ele>
        <time>2022-06-18T08:05:12Z</time>
      </trkpt>
      <trkpt lat="42.1625460" lon="-8.6214930">
        <ele>36.6</ele>
        <time>2022-06-18T08:05:13Z</time>
      </trkpt>
      <trkpt lat="42.1625580" lon="-8.6215150">
        <ele>36.6</ele>
        <time>2022-06-18T08:05:14Z</time>
      </trkpt>
      <trkpt lat="42.1625750" lon="-8.6215330">
        <ele>36.6</ele>
        <time>2022-06-18T08:05:15Z</time>
      </trkpt>
      <trkpt lat="42.1625860" lon="-8.6215430">
        <ele>36.6</ele>
        <time>2022-06-18T08:05:16Z</time>
      </trkpt>
      <trkpt lat="42.1626000" lon="-8.6215460">
        <ele>36.6</ele>
        <time>2022-06-18T08:05:17Z</time>
      </trkpt>
      <trkpt lat="42.1626160" lon="-8.6215360">
        <ele>36.6</ele>
        <time>2022-06-18T08:05:18Z</time>
      </trkpt>
      <trkpt lat="42.1626500" lon="-8.6215230">
        <ele>36.8</ele>
        <time>2022-06-18T08:05:19Z</time>
      </trkpt>
      <trkpt lat="42.1626800" lon="-8.6215060">
        <ele>37.2</ele>
        <time>2022-06-18T08:05:20Z</time>
      </trkpt>
      <trkpt lat="42.1627080" lon="-8.6215050">
        <ele>37.2</ele>
        <time>2022-06-18T08:05:21Z</time>
      </trkpt>
      <trkpt lat="42.1627260" lon="-8.6214980">
        <ele>37.2</ele>
        <time>2022-06-18T08:05:22Z</time>
      </trkpt>
      <trkpt lat="42.1627310" lon="-8.6215030">
        <ele>36.6</ele>
        <time>2022-06-18T08:05:23Z</time>
      </trkpt>
      <trkpt lat="42.1627260" lon="-8.6215080">
        <ele>36.4</ele>
        <time>2022-06-18T08:05:24Z</time>
      </trkpt>
      <trkpt lat="42.1627050" lon="-8.6215280">
        <ele>36.4</ele>
        <time>2022-06-18T08:05:25Z</time>
      </trkpt>
      <trkpt lat="42.1626980" lon="-8.6215230">
        <ele>36.4</ele>
        <time>2022-06-18T08:05:26Z</time>
      </trkpt>
      <trkpt lat="42.1626900" lon="-8.6215010">
        <ele>36.4</ele>
        <time>2022-06-18T08:05:27Z</time>
      </trkpt>
      <trkpt lat="42.1627030" lon="-8.6214900">
        <ele>36.4</ele>
        <time>2022-06-18T08:05:28Z</time>
      </trkpt>
      <trkpt lat="42.1627280" lon="-8.6214730">
        <ele>36.4</ele>
        <time>2022-06-18T08:05:29Z</time>
      </trkpt>
      <trkpt lat="42.1627630" lon="-8.6214680">
        <ele>36.4</ele>
        <time>2022-06-18T08:05:30Z</time>
      </trkpt>
      <trkpt lat="42.1627950" lon="-8.6214710">
        <ele>36.4</ele>
        <time>2022-06-18T08:05:31Z</time>
      </trkpt>
      <trkpt lat="42.1628160" lon="-8.6214730">
        <ele>36.4</ele>
        <time>2022-06-18T08:05:32Z</time>
      </trkpt>
      <trkpt lat="42.1628380" lon="-8.6214680">
        <ele>36.4</ele>
        <time>2022-06-18T08:05:33Z</time>
      </trkpt>
      <trkpt lat="42.1628630" lon="-8.6214500">
        <ele>36.4</ele>
        <time>2022-06-18T08:05:34Z</time>
      </trkpt>
      <trkpt lat="42.1628860" lon="-8.6214260">
        <ele>36.4</ele>
        <time>2022-06-18T08:05:35Z</time>
      </trkpt>
      <trkpt lat="42.1629110" lon="-8.6214100">
        <ele>36.4</ele>
        <time>2022-06-18T08:05:36Z</time>
      </trkpt>
      <trkpt lat="42.1629400" lon="-8.6214060">
        <ele>36.4</ele>
        <time>2022-06-18T08:05:37Z</time>
      </trkpt>
      <trkpt lat="42.1629780" lon="-8.6214130">
        <ele>36.4</ele>
        <time>2022-06-18T08:05:38Z</time>
      </trkpt>
      <trkpt lat="42.1630030" lon="-8.6214100">
        <ele>36.4</ele>
        <time>2022-06-18T08:05:39Z</time>
      </trkpt>
      <trkpt lat="42.1630330" lon="-8.6214110">
        <ele>37.2</ele>
        <time>2022-06-18T08:05:40Z</time>
      </trkpt>
      <trkpt lat="42.1630660" lon="-8.6213960">
        <ele>37.2</ele>
        <time>2022-06-18T08:05:41Z</time>
      </trkpt>
      <trkpt lat="42.1631010" lon="-8.6213880">
        <ele>37.2</ele>
        <time>2022-06-18T08:05:42Z</time>
      </trkpt>
      <trkpt lat="42.1631330" lon="-8.6213750">
        <ele>37.2</ele>
        <time>2022-06-18T08:05:43Z</time>
      </trkpt>
      <trkpt lat="42.1631650" lon="-8.6213630">
        <ele>37.4</ele>
        <time>2022-06-18T08:05:44Z</time>
      </trkpt>
      <trkpt lat="42.1631930" lon="-8.6213600">
        <ele>37.4</ele>
        <time>2022-06-18T08:05:45Z</time>
      </trkpt>
      <trkpt lat="42.1632200" lon="-8.6213510">
        <ele>37.4</ele>
        <time>2022-06-18T08:05:46Z</time>
      </trkpt>
      <trkpt lat="42.1632460" lon="-8.6213400">
        <ele>37.2</ele>
        <time>2022-06-18T08:05:47Z</time>
      </trkpt>
      <trkpt lat="42.1632780" lon="-8.6213300">
        <ele>36.6</ele>
        <time>2022-06-18T08:05:48Z</time>
      </trkpt>
      <trkpt lat="42.1633130" lon="-8.6213250">
        <ele>36.6</ele>
        <time>2022-06-18T08:05:49Z</time>
      </trkpt>
      <trkpt lat="42.1633450" lon="-8.6213130">
        <ele>36.6</ele>
        <time>2022-06-18T08:05:50Z</time>
      </trkpt>
      <trkpt lat="42.1633700" lon="-8.6213110">
        <ele>37.4</ele>
        <time>2022-06-18T08:05:51Z</time>
      </trkpt>
      <trkpt lat="42.1634080" lon="-8.6213000">
        <ele>36.8</ele>
        <time>2022-06-18T08:05:52Z</time>
      </trkpt>
      <trkpt lat="42.1634530" lon="-8.6212830">
        <ele>36.8</ele>
        <time>2022-06-18T08:05:53Z</time>
      </trkpt>
      <trkpt lat="42.1634850" lon="-8.6212730">
        <ele>36.8</ele>
        <time>2022-06-18T08:05:54Z</time>
      </trkpt>
      <trkpt lat="42.1635130" lon="-8.6212660">
        <ele>37.4</ele>
        <time>2022-06-18T08:05:55Z</time>
      </trkpt>
      <trkpt lat="42.1635430" lon="-8.6212580">
        <ele>37.2</ele>
        <time>2022-06-18T08:05:56Z</time>
      </trkpt>
      <trkpt lat="42.1635850" lon="-8.6212460">
        <ele>37.2</ele>
        <time>2022-06-18T08:05:57Z</time>
      </trkpt>
      <trkpt lat="42.1636180" lon="-8.6212350">
        <ele>37.2</ele>
        <time>2022-06-18T08:05:58Z</time>
      </trkpt>
      <trkpt lat="42.1636530" lon="-8.6212300">
        <ele>37.2</ele>
        <time>2022-06-18T08:05:59Z</time>
      </trkpt>
      <trkpt lat="42.1636830" lon="-8.6212280">
        <ele>37.4</ele>
        <time>2022-06-18T08:06:00Z</time>
      </trkpt>
      <trkpt lat="42.1637150" lon="-8.6212210">
        <ele>37.4</ele>
        <time>2022-06-18T08:06:01Z</time>
      </trkpt>
      <trkpt lat="42.1637410" lon="-8.6212150">
        <ele>37.4</ele>
        <time>2022-06-18T08:06:02Z</time>
      </trkpt>
      <trkpt lat="42.1637730" lon="-8.6212100">
        <ele>38.2</ele>
        <time>2022-06-18T08:06:03Z</time>
      </trkpt>
      <trkpt lat="42.1637960" lon="-8.6211930">
        <ele>38.4</ele>
        <time>2022-06-18T08:06:04Z</time>
      </trkpt>
      <trkpt lat="42.1638210" lon="-8.6211780">
        <ele>38.4</ele>
        <time>2022-06-18T08:06:05Z</time>
      </trkpt>
      <trkpt lat="42.1638460" lon="-8.6211660">
        <ele>38.4</ele>
        <time>2022-06-18T08:06:06Z</time>
      </trkpt>
      <trkpt lat="42.1638760" lon="-8.6211580">
        <ele>38.4</ele>
        <time>2022-06-18T08:06:07Z</time>
      </trkpt>
      <trkpt lat="42.1639050" lon="-8.6211550">
        <ele>38.8</ele>
        <time>2022-06-18T08:06:08Z</time>
      </trkpt>
      <trkpt lat="42.1639300" lon="-8.6211550">
        <ele>38.8</ele>
        <time>2022-06-18T08:06:09Z</time>
      </trkpt>
      <trkpt lat="42.1639600" lon="-8.6211560">
        <ele>38.8</ele>
        <time>2022-06-18T08:06:10Z</time>
      </trkpt>
      <trkpt lat="42.1639850" lon="-8.6211400">
        <ele>38.8</ele>
        <time>2022-06-18T08:06:11Z</time>
      </trkpt>
      <trkpt lat="42.1640200" lon="-8.6211310">
        <ele>39.0</ele>
        <time>2022-06-18T08:06:12Z</time>
      </trkpt>
      <trkpt lat="42.1640500" lon="-8.6211230">
        <ele>39.0</ele>
        <time>2022-06-18T08:06:13Z</time>
      </trkpt>
      <trkpt lat="42.1640780" lon="-8.6211100">
        <ele>39.0</ele>
        <time>2022-06-18T08:06:14Z</time>
      </trkpt>
      <trkpt lat="42.1641080" lon="-8.6210960">
        <ele>39.2</ele>
        <time>2022-06-18T08:06:15Z</time>
      </trkpt>
      <trkpt lat="42.1641430" lon="-8.6210860">
        <ele>39.2</ele>
        <time>2022-06-18T08:06:16Z</time>
      </trkpt>
      <trkpt lat="42.1641780" lon="-8.6210710">
        <ele>39.2</ele>
        <time>2022-06-18T08:06:17Z</time>
      </trkpt>
      <trkpt lat="42.1642080" lon="-8.6210560">
        <ele>39.2</ele>
        <time>2022-06-18T08:06:18Z</time>
      </trkpt>
      <trkpt lat="42.1642350" lon="-8.6210580">
        <ele>39.2</ele>
        <time>2022-06-18T08:06:19Z</time>
      </trkpt>
      <trkpt lat="42.1642580" lon="-8.6210580">
        <ele>39.2</ele>
        <time>2022-06-18T08:06:20Z</time>
      </trkpt>
      <trkpt lat="42.1642780" lon="-8.6210580">
        <ele>39.2</ele>
        <time>2022-06-18T08:06:21Z</time>
      </trkpt>
      <trkpt lat="42.1643010" lon="-8.6210500">
        <ele>39.2</ele>
        <time>2022-06-18T08:06:22Z</time>
      </trkpt>
      <trkpt lat="42.1643330" lon="-8.6210410">
        <ele>39.6</ele>
        <time>2022-06-18T08:06:23Z</time>
      </trkpt>
      <trkpt lat="42.1643630" lon="-8.6210300">
        <ele>39.4</ele>
        <time>2022-06-18T08:06:24Z</time>
      </trkpt>
      <trkpt lat="42.1643910" lon="-8.6210210">
        <ele>39.4</ele>
        <time>2022-06-18T08:06:25Z</time>
      </trkpt>
      <trkpt lat="42.1644210" lon="-8.6210180">
        <ele>39.4</ele>
        <time>2022-06-18T08:06:26Z</time>
      </trkpt>
      <trkpt lat="42.1644500" lon="-8.6210130">
        <ele>39.4</ele>
        <time>2022-06-18T08:06:27Z</time>
      </trkpt>
      <trkpt lat="42.1644810" lon="-8.6210030">
        <ele>39.6</ele>
        <time>2022-06-18T08:06:28Z</time>
      </trkpt>
      <trkpt lat="42.1645110" lon="-8.6210000">
        <ele>39.6</ele>
        <time>2022-06-18T08:06:29Z</time>
      </trkpt>
      <trkpt lat="42.1645410" lon="-8.6210000">
        <ele>39.6</ele>
        <time>2022-06-18T08:06:30Z</time>
      </trkpt>
      <trkpt lat="42.1645710" lon="-8.6209980">
        <ele>39.6</ele>
        <time>2022-06-18T08:06:31Z</time>
      </trkpt>
      <trkpt lat="42.1646000" lon="-8.6209880">
        <ele>40.0</ele>
        <time>2022-06-18T08:06:32Z</time>
      </trkpt>
      <trkpt lat="42.1646330" lon="-8.6209860">
        <ele>40.0</ele>
        <time>2022-06-18T08:06:33Z</time>
      </trkpt>
      <trkpt lat="42.1646610" lon="-8.6209880">
        <ele>40.0</ele>
        <time>2022-06-18T08:06:34Z</time>
      </trkpt>
      <trkpt lat="42.1646950" lon="-8.6209710">
        <ele>40.0</ele>
        <time>2022-06-18T08:06:35Z</time>
      </trkpt>
      <trkpt lat="42.1647300" lon="-8.6209550">
        <ele>39.8</ele>
        <time>2022-06-18T08:06:36Z</time>
      </trkpt>
      <trkpt lat="42.1647610" lon="-8.6209550">
        <ele>39.8</ele>
        <time>2022-06-18T08:06:37Z</time>
      </trkpt>
      <trkpt lat="42.1647930" lon="-8.6209380">
        <ele>39.8</ele>
        <time>2022-06-18T08:06:38Z</time>
      </trkpt>
      <trkpt lat="42.1648230" lon="-8.6209330">
        <ele>40.4</ele>
        <time>2022-06-18T08:06:39Z</time>
      </trkpt>
      <trkpt lat="42.1648530" lon="-8.6209260">
        <ele>40.4</ele>
        <time>2022-06-18T08:06:40Z</time>
      </trkpt>
      <trkpt lat="42.1648860" lon="-8.6209180">
        <ele>40.4</ele>
        <time>2022-06-18T08:06:41Z</time>
      </trkpt>
      <trkpt lat="42.1649160" lon="-8.6209130">
        <ele>40.4</ele>
        <time>2022-06-18T08:06:42Z</time>
      </trkpt>
      <trkpt lat="42.1649480" lon="-8.6209060">
        <ele>40.6</ele>
        <time>2022-06-18T08:06:43Z</time>
      </trkpt>
      <trkpt lat="42.1649780" lon="-8.6209000">
        <ele>40.4</ele>
        <time>2022-06-18T08:06:44Z</time>
      </trkpt>
      <trkpt lat="42.1650060" lon="-8.6208860">
        <ele>40.4</ele>
        <time>2022-06-18T08:06:45Z</time>
      </trkpt>
      <trkpt lat="42.1650350" lon="-8.6208710">
        <ele>40.4</ele>
        <time>2022-06-18T08:06:46Z</time>
      </trkpt>
      <trkpt lat="42.1650650" lon="-8.6208560">
        <ele>40.4</ele>
        <time>2022-06-18T08:06:47Z</time>
      </trkpt>
      <trkpt lat="42.1650860" lon="-8.6208550">
        <ele>41.0</ele>
        <time>2022-06-18T08:06:48Z</time>
      </trkpt>
      <trkpt lat="42.1651150" lon="-8.6208550">
        <ele>41.0</ele>
        <time>2022-06-18T08:06:49Z</time>
      </trkpt>
      <trkpt lat="42.1651410" lon="-8.6208530">
        <ele>41.0</ele>
        <time>2022-06-18T08:06:50Z</time>
      </trkpt>
      <trkpt lat="42.1651730" lon="-8.6208560">
        <ele>41.0</ele>
        <time>2022-06-18T08:06:51Z</time>
      </trkpt>
      <trkpt lat="42.1652000" lon="-8.6208660">
        <ele>40.4</ele>
        <time>2022-06-18T08:06:52Z</time>
      </trkpt>
      <trkpt lat="42.1652210" lon="-8.6208780">
        <ele>40.4</ele>
        <time>2022-06-18T08:06:53Z</time>
      </trkpt>
      <trkpt lat="42.1652430" lon="-8.6209080">
        <ele>40.4</ele>
        <time>2022-06-18T08:06:54Z</time>
      </trkpt>
      <trkpt lat="42.1652610" lon="-8.6209460">
        <ele>40.4</ele>
        <time>2022-06-18T08:06:55Z</time>
      </trkpt>
      <trkpt lat="42.1652800" lon="-8.6209900">
        <ele>39.6</ele>
        <time>2022-06-18T08:06:56Z</time>
      </trkpt>
      <trkpt lat="42.1653000" lon="-8.6210260">
        <ele>39.6</ele>
        <time>2022-06-18T08:06:57Z</time>
      </trkpt>
      <trkpt lat="42.1653150" lon="-8.6210600">
        <ele>39.6</ele>
        <time>2022-06-18T08:06:58Z</time>
      </trkpt>
      <trkpt lat="42.1653180" lon="-8.6210830">
        <ele>39.6</ele>
        <time>2022-06-18T08:06:59Z</time>
      </trkpt>
      <trkpt lat="42.1653100" lon="-8.6210980">
        <ele>39.6</ele>
        <time>2022-06-18T08:07:00Z</time>
      </trkpt>
      <trkpt lat="42.1652910" lon="-8.6210950">
        <ele>39.6</ele>
        <time>2022-06-18T08:07:01Z</time>
      </trkpt>
      <trkpt lat="42.1652730" lon="-8.6210980">
        <ele>39.6</ele>
        <time>2022-06-18T08:07:02Z</time>
      </trkpt>
      <trkpt lat="42.1652600" lon="-8.6211180">
        <ele>39.6</ele>
        <time>2022-06-18T08:07:03Z</time>
      </trkpt>
      <trkpt lat="42.1652550" lon="-8.6211300">
        <ele>39.6</ele>
        <time>2022-06-18T08:07:04Z</time>
      </trkpt>
      <trkpt lat="42.1652480" lon="-8.6211400">
        <ele>39.6</ele>
        <time>2022-06-18T08:07:05Z</time>
      </trkpt>
      <trkpt lat="42.1652430" lon="-8.6211410">
        <ele>39.6</ele>
        <time>2022-06-18T08:07:06Z</time>
      </trkpt>
      <trkpt lat="42.1652410" lon="-8.6211430">
        <ele>39.6</ele>
        <time>2022-06-18T08:07:07Z</time>
      </trkpt>
      <trkpt lat="42.1652410" lon="-8.6211430">
        <ele>39.6</ele>
        <time>2022-06-18T08:07:08Z</time>
      </trkpt>
      <trkpt lat="42.1653350" lon="-8.6210100">
        <ele>41.8</ele>
        <time>2022-06-18T08:42:14Z</time>
      </trkpt>
      <trkpt lat="42.1653310" lon="-8.6210000">
        <ele>42.2</ele>
        <time>2022-06-18T08:42:15Z</time>
      </trkpt>
      <trkpt lat="42.1653380" lon="-8.6209880">
        <ele>42.2</ele>
        <time>2022-06-18T08:42:16Z</time>
      </trkpt>
      <trkpt lat="42.1653450" lon="-8.6209680">
        <ele>42.2</ele>
        <time>2022-06-18T08:42:17Z</time>
      </trkpt>
      <trkpt lat="42.1653450" lon="-8.6209480">
        <ele>42.2</ele>
        <time>2022-06-18T08:42:18Z</time>
      </trkpt>
      <trkpt lat="42.1653430" lon="-8.6209210">
        <ele>42.2</ele>
        <time>2022-06-18T08:42:19Z</time>
      </trkpt>
      <trkpt lat="42.1653400" lon="-8.6208900">
        <ele>41.6</ele>
        <time>2022-06-18T08:42:20Z</time>
      </trkpt>
      <trkpt lat="42.1653330" lon="-8.6208680">
        <ele>41.6</ele>
        <time>2022-06-18T08:42:21Z</time>
      </trkpt>
      <trkpt lat="42.1653310" lon="-8.6208510">
        <ele>41.6</ele>
        <time>2022-06-18T08:42:22Z</time>
      </trkpt>
      <trkpt lat="42.1653330" lon="-8.6208350">
        <ele>42.6</ele>
        <time>2022-06-18T08:42:23Z</time>
      </trkpt>
      <trkpt lat="42.1653450" lon="-8.6208230">
        <ele>43.2</ele>
        <time>2022-06-18T08:42:24Z</time>
      </trkpt>
      <trkpt lat="42.1653610" lon="-8.6208150">
        <ele>43.2</ele>
        <time>2022-06-18T08:42:25Z</time>
      </trkpt>
      <trkpt lat="42.1653780" lon="-8.6208130">
        <ele>43.2</ele>
        <time>2022-06-18T08:42:26Z</time>
      </trkpt>
      <trkpt lat="42.1653910" lon="-8.6208110">
        <ele>44.0</ele>
        <time>2022-06-18T08:42:27Z</time>
      </trkpt>
      <trkpt lat="42.1654030" lon="-8.6208060">
        <ele>44.0</ele>
        <time>2022-06-18T08:42:28Z</time>
      </trkpt>
      <trkpt lat="42.1654110" lon="-8.6208030">
        <ele>44.0</ele>
        <time>2022-06-18T08:42:29Z</time>
      </trkpt>
      <trkpt lat="42.1654250" lon="-8.6208000">
        <ele>44.0</ele>
        <time>2022-06-18T08:42:30Z</time>
      </trkpt>
      <trkpt lat="42.1654360" lon="-8.6207930">
        <ele>44.0</ele>
        <time>2022-06-18T08:42:31Z</time>
      </trkpt>
      <trkpt lat="42.1654460" lon="-8.6207930">
        <ele>43.8</ele>
        <time>2022-06-18T08:42:32Z</time>
      </trkpt>
      <trkpt lat="42.1654550" lon="-8.6207960">
        <ele>43.8</ele>
        <time>2022-06-18T08:42:33Z</time>
      </trkpt>
      <trkpt lat="42.1654660" lon="-8.6207910">
        <ele>43.8</ele>
        <time>2022-06-18T08:42:34Z</time>
      </trkpt>
      <trkpt lat="42.1654780" lon="-8.6207860">
        <ele>43.8</ele>
        <time>2022-06-18T08:42:35Z</time>
      </trkpt>
      <trkpt lat="42.1654910" lon="-8.6207760">
        <ele>43.8</ele>
        <time>2022-06-18T08:42:36Z</time>
      </trkpt>
      <trkpt lat="42.1654930" lon="-8.6207760">
        <ele>43.8</ele>
        <time>2022-06-18T08:42:37Z</time>
      </trkpt>
      <trkpt lat="42.1654930" lon="-8.6207760">
        <ele>43.8</ele>
        <time>2022-06-18T08:42:38Z</time>
      </trkpt>
      <trkpt lat="42.1655080" lon="-8.6207600">
        <ele>44.6</ele>
        <time>2022-06-18T08:43:10Z</time>
      </trkpt>
      <trkpt lat="42.1655180" lon="-8.6207480">
        <ele>44.6</ele>
        <time>2022-06-18T08:43:11Z</time>
      </trkpt>
      <trkpt lat="42.1655280" lon="-8.6207430">
        <ele>44.6</ele>
        <time>2022-06-18T08:43:12Z</time>
      </trkpt>
      <trkpt lat="42.1655380" lon="-8.6207380">
        <ele>44.4</ele>
        <time>2022-06-18T08:43:13Z</time>
      </trkpt>
      <trkpt lat="42.1655460" lon="-8.6207310">
        <ele>44.4</ele>
        <time>2022-06-18T08:43:14Z</time>
      </trkpt>
      <trkpt lat="42.1655550" lon="-8.6207260">
        <ele>44.4</ele>
        <time>2022-06-18T08:43:15Z</time>
      </trkpt>
      <trkpt lat="42.1655600" lon="-8.6207130">
        <ele>44.8</ele>
        <time>2022-06-18T08:43:16Z</time>
      </trkpt>
      <trkpt lat="42.1655630" lon="-8.6206930">
        <ele>44.4</ele>
        <time>2022-06-18T08:43:17Z</time>
      </trkpt>
      <trkpt lat="42.1655730" lon="-8.6206710">
        <ele>44.4</ele>
        <time>2022-06-18T08:43:18Z</time>
      </trkpt>
      <trkpt lat="42.1655930" lon="-8.6206580">
        <ele>44.4</ele>
        <time>2022-06-18T08:43:19Z</time>
      </trkpt>
      <trkpt lat="42.1656210" lon="-8.6206480">
        <ele>44.6</ele>
        <time>2022-06-18T08:43:20Z</time>
      </trkpt>
      <trkpt lat="42.1656480" lon="-8.6206360">
        <ele>45.0</ele>
        <time>2022-06-18T08:43:21Z</time>
      </trkpt>
      <trkpt lat="42.1656710" lon="-8.6206200">
        <ele>45.0</ele>
        <time>2022-06-18T08:43:22Z</time>
      </trkpt>
      <trkpt lat="42.1656960" lon="-8.6206080">
        <ele>45.0</ele>
        <time>2022-06-18T08:43:23Z</time>
      </trkpt>
      <trkpt lat="42.1657210" lon="-8.6205950">
        <ele>45.0</ele>
        <time>2022-06-18T08:43:24Z</time>
      </trkpt>
      <trkpt lat="42.1657450" lon="-8.6205830">
        <ele>45.0</ele>
        <time>2022-06-18T08:43:25Z</time>
      </trkpt>
      <trkpt lat="42.1657700" lon="-8.6205700">
        <ele>45.0</ele>
        <time>2022-06-18T08:43:26Z</time>
      </trkpt>
      <trkpt lat="42.1657960" lon="-8.6205500">
        <ele>45.0</ele>
        <time>2022-06-18T08:43:27Z</time>
      </trkpt>
      <trkpt lat="42.1658150" lon="-8.6205230">
        <ele>45.4</ele>
        <time>2022-06-18T08:43:28Z</time>
      </trkpt>
      <trkpt lat="42.1658280" lon="-8.6204910">
        <ele>45.4</ele>
        <time>2022-06-18T08:43:29Z</time>
      </trkpt>
      <trkpt lat="42.1658400" lon="-8.6204580">
        <ele>45.4</ele>
        <time>2022-06-18T08:43:30Z</time>
      </trkpt>
      <trkpt lat="42.1658550" lon="-8.6204260">
        <ele>45.4</ele>
        <time>2022-06-18T08:43:31Z</time>
      </trkpt>
      <trkpt lat="42.1658730" lon="-8.6203980">
        <ele>45.6</ele>
        <time>2022-06-18T08:43:32Z</time>
      </trkpt>
      <trkpt lat="42.1658980" lon="-8.6203750">
        <ele>45.6</ele>
        <time>2022-06-18T08:43:33Z</time>
      </trkpt>
      <trkpt lat="42.1659230" lon="-8.6203550">
        <ele>45.6</ele>
        <time>2022-06-18T08:43:34Z</time>
      </trkpt>
      <trkpt lat="42.1659480" lon="-8.6203400">
        <ele>45.6</ele>
        <time>2022-06-18T08:43:35Z</time>
      </trkpt>
      <trkpt lat="42.1659750" lon="-8.6203300">
        <ele>46.2</ele>
        <time>2022-06-18T08:43:36Z</time>
      </trkpt>
      <trkpt lat="42.1660050" lon="-8.6203260">
        <ele>46.2</ele>
        <time>2022-06-18T08:43:37Z</time>
      </trkpt>
      <trkpt lat="42.1660330" lon="-8.6203280">
        <ele>46.2</ele>
        <time>2022-06-18T08:43:38Z</time>
      </trkpt>
      <trkpt lat="42.1660650" lon="-8.6203350">
        <ele>46.2</ele>
        <time>2022-06-18T08:43:39Z</time>
      </trkpt>
      <trkpt lat="42.1660960" lon="-8.6203450">
        <ele>46.2</ele>
        <time>2022-06-18T08:43:40Z</time>
      </trkpt>
      <trkpt lat="42.1661280" lon="-8.6203560">
        <ele>46.2</ele>
        <time>2022-06-18T08:43:41Z</time>
      </trkpt>
      <trkpt lat="42.1661580" lon="-8.6203700">
        <ele>46.2</ele>
        <time>2022-06-18T08:43:42Z</time>
      </trkpt>
      <trkpt lat="42.1661860" lon="-8.6203830">
        <ele>46.2</ele>
        <time>2022-06-18T08:43:43Z</time>
      </trkpt>
      <trkpt lat="42.1662130" lon="-8.6203980">
        <ele>46.2</ele>
        <time>2022-06-18T08:43:44Z</time>
      </trkpt>
      <trkpt lat="42.1662410" lon="-8.6204100">
        <ele>47.0</ele>
        <time>2022-06-18T08:43:45Z</time>
      </trkpt>
      <trkpt lat="42.1662700" lon="-8.6204180">
        <ele>47.0</ele>
        <time>2022-06-18T08:43:46Z</time>
      </trkpt>
      <trkpt lat="42.1662960" lon="-8.6204250">
        <ele>47.0</ele>
        <time>2022-06-18T08:43:47Z</time>
      </trkpt>
      <trkpt lat="42.1663230" lon="-8.6204250">
        <ele>47.0</ele>
        <time>2022-06-18T08:43:48Z</time>
      </trkpt>
      <trkpt lat="42.1663500" lon="-8.6204200">
        <ele>46.8</ele>
        <time>2022-06-18T08:43:49Z</time>
      </trkpt>
      <trkpt lat="42.1663730" lon="-8.6204110">
        <ele>46.8</ele>
        <time>2022-06-18T08:43:50Z</time>
      </trkpt>
      <trkpt lat="42.1663910" lon="-8.6204030">
        <ele>46.8</ele>
        <time>2022-06-18T08:43:51Z</time>
      </trkpt>
      <trkpt lat="42.1664110" lon="-8.6203980">
        <ele>46.8</ele>
        <time>2022-06-18T08:43:52Z</time>
      </trkpt>
      <trkpt lat="42.1664310" lon="-8.6204000">
        <ele>47.8</ele>
        <time>2022-06-18T08:43:53Z</time>
      </trkpt>
      <trkpt lat="42.1664480" lon="-8.6204000">
        <ele>47.8</ele>
        <time>2022-06-18T08:43:54Z</time>
      </trkpt>
      <trkpt lat="42.1664700" lon="-8.6203960">
        <ele>47.8</ele>
        <time>2022-06-18T08:43:55Z</time>
      </trkpt>
      <trkpt lat="42.1664910" lon="-8.6203950">
        <ele>47.4</ele>
        <time>2022-06-18T08:43:56Z</time>
      </trkpt>
      <trkpt lat="42.1665150" lon="-8.6203930">
        <ele>47.6</ele>
        <time>2022-06-18T08:43:57Z</time>
      </trkpt>
      <trkpt lat="42.1665400" lon="-8.6203850">
        <ele>47.6</ele>
        <time>2022-06-18T08:43:58Z</time>
      </trkpt>
      <trkpt lat="42.1665630" lon="-8.6203800">
        <ele>47.6</ele>
        <time>2022-06-18T08:43:59Z</time>
      </trkpt>
      <trkpt lat="42.1665850" lon="-8.6203750">
        <ele>48.0</ele>
        <time>2022-06-18T08:44:00Z</time>
      </trkpt>
      <trkpt lat="42.1666030" lon="-8.6203730">
        <ele>48.0</ele>
        <time>2022-06-18T08:44:01Z</time>
      </trkpt>
      <trkpt lat="42.1666250" lon="-8.6203700">
        <ele>48.0</ele>
        <time>2022-06-18T08:44:02Z</time>
      </trkpt>
      <trkpt lat="42.1666480" lon="-8.6203650">
        <ele>48.0</ele>
        <time>2022-06-18T08:44:03Z</time>
      </trkpt>
      <trkpt lat="42.1666660" lon="-8.6203560">
        <ele>48.4</ele>
        <time>2022-06-18T08:44:04Z</time>
      </trkpt>
      <trkpt lat="42.1666800" lon="-8.6203510">
        <ele>48.6</ele>
        <time>2022-06-18T08:44:05Z</time>
      </trkpt>
      <trkpt lat="42.1666930" lon="-8.6203510">
        <ele>48.6</ele>
        <time>2022-06-18T08:44:06Z</time>
      </trkpt>
      <trkpt lat="42.1667080" lon="-8.6203550">
        <ele>48.6</ele>
        <time>2022-06-18T08:44:07Z</time>
      </trkpt>
      <trkpt lat="42.1667310" lon="-8.6203500">
        <ele>48.6</ele>
        <time>2022-06-18T08:44:08Z</time>
      </trkpt>
      <trkpt lat="42.1667560" lon="-8.6203480">
        <ele>48.6</ele>
        <time>2022-06-18T08:44:09Z</time>
      </trkpt>
      <trkpt lat="42.1667800" lon="-8.6203500">
        <ele>48.6</ele>
        <time>2022-06-18T08:44:10Z</time>
      </trkpt>
      <trkpt lat="42.1668050" lon="-8.6203450">
        <ele>48.6</ele>
        <time>2022-06-18T08:44:11Z</time>
      </trkpt>
      <trkpt lat="42.1668280" lon="-8.6203350">
        <ele>48.8</ele>
        <time>2022-06-18T08:44:12Z</time>
      </trkpt>
      <trkpt lat="42.1668500" lon="-8.6203260">
        <ele>49.0</ele>
        <time>2022-06-18T08:44:13Z</time>
      </trkpt>
      <trkpt lat="42.1668700" lon="-8.6203230">
        <ele>49.0</ele>
        <time>2022-06-18T08:44:14Z</time>
      </trkpt>
      <trkpt lat="42.1668950" lon="-8.6203160">
        <ele>49.0</ele>
        <time>2022-06-18T08:44:15Z</time>
      </trkpt>
      <trkpt lat="42.1669210" lon="-8.6203130">
        <ele>49.0</ele>
        <time>2022-06-18T08:44:16Z</time>
      </trkpt>
      <trkpt lat="42.1669450" lon="-8.6203060">
        <ele>49.2</ele>
        <time>2022-06-18T08:44:17Z</time>
      </trkpt>
      <trkpt lat="42.1669680" lon="-8.6203000">
        <ele>49.2</ele>
        <time>2022-06-18T08:44:18Z</time>
      </trkpt>
      <trkpt lat="42.1669950" lon="-8.6202900">
        <ele>49.2</ele>
        <time>2022-06-18T08:44:19Z</time>
      </trkpt>
      <trkpt lat="42.1670210" lon="-8.6202830">
        <ele>49.4</ele>
        <time>2022-06-18T08:44:20Z</time>
      </trkpt>
      <trkpt lat="42.1670480" lon="-8.6202760">
        <ele>49.8</ele>
        <time>2022-06-18T08:44:21Z</time>
      </trkpt>
      <trkpt lat="42.1670750" lon="-8.6202700">
        <ele>49.8</ele>
        <time>2022-06-18T08:44:22Z</time>
      </trkpt>
      <trkpt lat="42.1671030" lon="-8.6202680">
        <ele>49.8</ele>
        <time>2022-06-18T08:44:23Z</time>
      </trkpt>
      <trkpt lat="42.1671300" lon="-8.6202630">
        <ele>49.8</ele>
        <time>2022-06-18T08:44:24Z</time>
      </trkpt>
      <trkpt lat="42.1671530" lon="-8.6202550">
        <ele>50.0</ele>
        <time>2022-06-18T08:44:25Z</time>
      </trkpt>
      <trkpt lat="42.1671780" lon="-8.6202500">
        <ele>50.0</ele>
        <time>2022-06-18T08:44:26Z</time>
      </trkpt>
      <trkpt lat="42.1672030" lon="-8.6202460">
        <ele>50.0</ele>
        <time>2022-06-18T08:44:27Z</time>
      </trkpt>
      <trkpt lat="42.1672280" lon="-8.6202480">
        <ele>50.0</ele>
        <time>2022-06-18T08:44:28Z</time>
      </trkpt>
      <trkpt lat="42.1672550" lon="-8.6202400">
        <ele>49.6</ele>
        <time>2022-06-18T08:44:29Z</time>
      </trkpt>
      <trkpt lat="42.1672810" lon="-8.6202350">
        <ele>49.6</ele>
        <time>2022-06-18T08:44:30Z</time>
      </trkpt>
      <trkpt lat="42.1673130" lon="-8.6202250">
        <ele>49.6</ele>
        <time>2022-06-18T08:44:31Z</time>
      </trkpt>
      <trkpt lat="42.1673460" lon="-8.6202150">
        <ele>50.0</ele>
        <time>2022-06-18T08:44:32Z</time>
      </trkpt>
      <trkpt lat="42.1673780" lon="-8.6202050">
        <ele>49.8</ele>
        <time>2022-06-18T08:44:33Z</time>
      </trkpt>
      <trkpt lat="42.1674050" lon="-8.6202010">
        <ele>49.8</ele>
        <time>2022-06-18T08:44:34Z</time>
      </trkpt>
      <trkpt lat="42.1674330" lon="-8.6201900">
        <ele>49.8</ele>
        <time>2022-06-18T08:44:35Z</time>
      </trkpt>
      <trkpt lat="42.1674600" lon="-8.6201660">
        <ele>49.8</ele>
        <time>2022-06-18T08:44:36Z</time>
      </trkpt>
      <trkpt lat="42.1674880" lon="-8.6201500">
        <ele>50.8</ele>
        <time>2022-06-18T08:44:37Z</time>
      </trkpt>
      <trkpt lat="42.1675160" lon="-8.6201380">
        <ele>50.8</ele>
        <time>2022-06-18T08:44:38Z</time>
      </trkpt>
      <trkpt lat="42.1675450" lon="-8.6201250">
        <ele>50.8</ele>
        <time>2022-06-18T08:44:39Z</time>
      </trkpt>
      <trkpt lat="42.1675730" lon="-8.6201130">
        <ele>50.8</ele>
        <time>2022-06-18T08:44:40Z</time>
      </trkpt>
      <trkpt lat="42.1675980" lon="-8.6201030">
        <ele>50.6</ele>
        <time>2022-06-18T08:44:41Z</time>
      </trkpt>
      <trkpt lat="42.1676250" lon="-8.6200900">
        <ele>50.6</ele>
        <time>2022-06-18T08:44:42Z</time>
      </trkpt>
      <trkpt lat="42.1676530" lon="-8.6200800">
        <ele>50.6</ele>
        <time>2022-06-18T08:44:43Z</time>
      </trkpt>
      <trkpt lat="42.1676830" lon="-8.6200710">
        <ele>50.6</ele>
        <time>2022-06-18T08:44:44Z</time>
      </trkpt>
      <trkpt lat="42.1677110" lon="-8.6200630">
        <ele>51.0</ele>
        <time>2022-06-18T08:44:45Z</time>
      </trkpt>
      <trkpt lat="42.1677430" lon="-8.6200550">
        <ele>51.0</ele>
        <time>2022-06-18T08:44:46Z</time>
      </trkpt>
      <trkpt lat="42.1677750" lon="-8.6200430">
        <ele>51.0</ele>
        <time>2022-06-18T08:44:47Z</time>
      </trkpt>
      <trkpt lat="42.1678060" lon="-8.6200310">
        <ele>51.0</ele>
        <time>2022-06-18T08:44:48Z</time>
      </trkpt>
      <trkpt lat="42.1678400" lon="-8.6200200">
        <ele>51.0</ele>
        <time>2022-06-18T08:44:49Z</time>
      </trkpt>
      <trkpt lat="42.1678730" lon="-8.6200100">
        <ele>51.0</ele>
        <time>2022-06-18T08:44:50Z</time>
      </trkpt>
      <trkpt lat="42.1679060" lon="-8.6200000">
        <ele>51.0</ele>
        <time>2022-06-18T08:44:51Z</time>
      </trkpt>
      <trkpt lat="42.1679400" lon="-8.6199880">
        <ele>51.4</ele>
        <time>2022-06-18T08:44:52Z</time>
      </trkpt>
      <trkpt lat="42.1679730" lon="-8.6199810">
        <ele>51.0</ele>
        <time>2022-06-18T08:44:53Z</time>
      </trkpt>
      <trkpt lat="42.1680080" lon="-8.6199760">
        <ele>51.0</ele>
        <time>2022-06-18T08:44:54Z</time>
      </trkpt>
      <trkpt lat="42.1680400" lon="-8.6199780">
        <ele>51.0</ele>
        <time>2022-06-18T08:44:55Z</time>
      </trkpt>
      <trkpt lat="42.1680710" lon="-8.6199750">
        <ele>51.0</ele>
        <time>2022-06-18T08:44:56Z</time>
      </trkpt>
      <trkpt lat="42.1681010" lon="-8.6199660">
        <ele>50.6</ele>
        <time>2022-06-18T08:44:57Z</time>
      </trkpt>
      <trkpt lat="42.1681310" lon="-8.6199600">
        <ele>50.6</ele>
        <time>2022-06-18T08:44:58Z</time>
      </trkpt>
      <trkpt lat="42.1681630" lon="-8.6199500">
        <ele>50.6</ele>
        <time>2022-06-18T08:44:59Z</time>
      </trkpt>
      <trkpt lat="42.1681930" lon="-8.6199400">
        <ele>50.6</ele>
        <time>2022-06-18T08:45:00Z</time>
      </trkpt>
      <trkpt lat="42.1682260" lon="-8.6199280">
        <ele>50.2</ele>
        <time>2022-06-18T08:45:01Z</time>
      </trkpt>
      <trkpt lat="42.1682580" lon="-8.6199160">
        <ele>50.2</ele>
        <time>2022-06-18T08:45:02Z</time>
      </trkpt>
      <trkpt lat="42.1682900" lon="-8.6199080">
        <ele>50.2</ele>
        <time>2022-06-18T08:45:03Z</time>
      </trkpt>
      <trkpt lat="42.1683210" lon="-8.6199000">
        <ele>50.2</ele>
        <time>2022-06-18T08:45:04Z</time>
      </trkpt>
      <trkpt lat="42.1683560" lon="-8.6198880">
        <ele>50.6</ele>
        <time>2022-06-18T08:45:05Z</time>
      </trkpt>
      <trkpt lat="42.1683900" lon="-8.6198800">
        <ele>50.6</ele>
        <time>2022-06-18T08:45:06Z</time>
      </trkpt>
      <trkpt lat="42.1684210" lon="-8.6198700">
        <ele>50.6</ele>
        <time>2022-06-18T08:45:07Z</time>
      </trkpt>
      <trkpt lat="42.1684550" lon="-8.6198600">
        <ele>50.6</ele>
        <time>2022-06-18T08:45:08Z</time>
      </trkpt>
      <trkpt lat="42.1684880" lon="-8.6198510">
        <ele>51.0</ele>
        <time>2022-06-18T08:45:09Z</time>
      </trkpt>
      <trkpt lat="42.1685210" lon="-8.6198450">
        <ele>51.0</ele>
        <time>2022-06-18T08:45:10Z</time>
      </trkpt>
      <trkpt lat="42.1685550" lon="-8.6198360">
        <ele>51.0</ele>
        <time>2022-06-18T08:45:11Z</time>
      </trkpt>
      <trkpt lat="42.1685900" lon="-8.6198230">
        <ele>51.0</ele>
        <time>2022-06-18T08:45:12Z</time>
      </trkpt>
      <trkpt lat="42.1686260" lon="-8.6198160">
        <ele>51.0</ele>
        <time>2022-06-18T08:45:13Z</time>
      </trkpt>
      <trkpt lat="42.1686600" lon="-8.6198080">
        <ele>51.0</ele>
        <time>2022-06-18T08:45:14Z</time>
      </trkpt>
      <trkpt lat="42.1686910" lon="-8.6198000">
        <ele>51.0</ele>
        <time>2022-06-18T08:45:15Z</time>
      </trkpt>
      <trkpt lat="42.1687210" lon="-8.6197910">
        <ele>51.2</ele>
        <time>2022-06-18T08:45:16Z</time>
      </trkpt>
      <trkpt lat="42.1687500" lon="-8.6197800">
        <ele>51.4</ele>
        <time>2022-06-18T08:45:17Z</time>
      </trkpt>
      <trkpt lat="42.1687780" lon="-8.6197730">
        <ele>51.4</ele>
        <time>2022-06-18T08:45:18Z</time>
      </trkpt>
      <trkpt lat="42.1688030" lon="-8.6197630">
        <ele>51.4</ele>
        <time>2022-06-18T08:45:19Z</time>
      </trkpt>
      <trkpt lat="42.1688260" lon="-8.6197450">
        <ele>51.4</ele>
        <time>2022-06-18T08:45:20Z</time>
      </trkpt>
      <trkpt lat="42.1688400" lon="-8.6197200">
        <ele>52.0</ele>
        <time>2022-06-18T08:45:21Z</time>
      </trkpt>
      <trkpt lat="42.1688450" lon="-8.6196830">
        <ele>52.0</ele>
        <time>2022-06-18T08:45:22Z</time>
      </trkpt>
      <trkpt lat="42.1688530" lon="-8.6196460">
        <ele>52.0</ele>
        <time>2022-06-18T08:45:23Z</time>
      </trkpt>
      <trkpt lat="42.1688680" lon="-8.6196210">
        <ele>52.0</ele>
        <time>2022-06-18T08:45:24Z</time>
      </trkpt>
      <trkpt lat="42.1688860" lon="-8.6196150">
        <ele>52.4</ele>
        <time>2022-06-18T08:45:25Z</time>
      </trkpt>
      <trkpt lat="42.1689100" lon="-8.6196180">
        <ele>52.4</ele>
        <time>2022-06-18T08:45:26Z</time>
      </trkpt>
      <trkpt lat="42.1689350" lon="-8.6196210">
        <ele>52.4</ele>
        <time>2022-06-18T08:45:27Z</time>
      </trkpt>
      <trkpt lat="42.1689610" lon="-8.6196160">
        <ele>52.2</ele>
        <time>2022-06-18T08:45:28Z</time>
      </trkpt>
      <trkpt lat="42.1689880" lon="-8.6196100">
        <ele>51.8</ele>
        <time>2022-06-18T08:45:29Z</time>
      </trkpt>
      <trkpt lat="42.1690130" lon="-8.6196050">
        <ele>51.8</ele>
        <time>2022-06-18T08:45:30Z</time>
      </trkpt>
      <trkpt lat="42.1690380" lon="-8.6196000">
        <ele>51.8</ele>
        <time>2022-06-18T08:45:31Z</time>
      </trkpt>
      <trkpt lat="42.1690630" lon="-8.6195960">
        <ele>52.2</ele>
        <time>2022-06-18T08:45:32Z</time>
      </trkpt>
      <trkpt lat="42.1690860" lon="-8.6195980">
        <ele>52.2</ele>
        <time>2022-06-18T08:45:33Z</time>
      </trkpt>
      <trkpt lat="42.1691080" lon="-8.6196050">
        <ele>52.2</ele>
        <time>2022-06-18T08:45:34Z</time>
      </trkpt>
      <trkpt lat="42.1691260" lon="-8.6196130">
        <ele>52.2</ele>
        <time>2022-06-18T08:45:35Z</time>
      </trkpt>
      <trkpt lat="42.1691500" lon="-8.6196180">
        <ele>52.0</ele>
        <time>2022-06-18T08:45:36Z</time>
      </trkpt>
      <trkpt lat="42.1691760" lon="-8.6196230">
        <ele>51.4</ele>
        <time>2022-06-18T08:45:37Z</time>
      </trkpt>
      <trkpt lat="42.1692030" lon="-8.6196260">
        <ele>51.4</ele>
        <time>2022-06-18T08:45:38Z</time>
      </trkpt>
      <trkpt lat="42.1692300" lon="-8.6196280">
        <ele>51.4</ele>
        <time>2022-06-18T08:45:39Z</time>
      </trkpt>
      <trkpt lat="42.1692560" lon="-8.6196260">
        <ele>52.2</ele>
        <time>2022-06-18T08:45:40Z</time>
      </trkpt>
      <trkpt lat="42.1692750" lon="-8.6196180">
        <ele>52.4</ele>
        <time>2022-06-18T08:45:41Z</time>
      </trkpt>
      <trkpt lat="42.1692860" lon="-8.6196110">
        <ele>52.4</ele>
        <time>2022-06-18T08:45:42Z</time>
      </trkpt>
      <trkpt lat="42.1692950" lon="-8.6196060">
        <ele>52.4</ele>
        <time>2022-06-18T08:45:43Z</time>
      </trkpt>
      <trkpt lat="42.1693050" lon="-8.6196050">
        <ele>52.4</ele>
        <time>2022-06-18T08:45:44Z</time>
      </trkpt>
      <trkpt lat="42.1693150" lon="-8.6196000">
        <ele>52.4</ele>
        <time>2022-06-18T08:45:45Z</time>
      </trkpt>
      <trkpt lat="42.1693300" lon="-8.6195900">
        <ele>52.4</ele>
        <time>2022-06-18T08:45:46Z</time>
      </trkpt>
      <trkpt lat="42.1693450" lon="-8.6195800">
        <ele>52.4</ele>
        <time>2022-06-18T08:45:47Z</time>
      </trkpt>
      <trkpt lat="42.1693560" lon="-8.6195830">
        <ele>52.4</ele>
        <time>2022-06-18T08:45:48Z</time>
      </trkpt>
      <trkpt lat="42.1693700" lon="-8.6195930">
        <ele>52.6</ele>
        <time>2022-06-18T08:45:49Z</time>
      </trkpt>
      <trkpt lat="42.1693850" lon="-8.6196100">
        <ele>52.6</ele>
        <time>2022-06-18T08:45:50Z</time>
      </trkpt>
      <trkpt lat="42.1694060" lon="-8.6196410">
        <ele>52.6</ele>
        <time>2022-06-18T08:45:51Z</time>
      </trkpt>
      <trkpt lat="42.1694330" lon="-8.6196600">
        <ele>52.6</ele>
        <time>2022-06-18T08:45:52Z</time>
      </trkpt>
      <trkpt lat="42.1694380" lon="-8.6196480">
        <ele>52.8</ele>
        <time>2022-06-18T08:45:53Z</time>
      </trkpt>
      <trkpt lat="42.1694710" lon="-8.6196310">
        <ele>52.8</ele>
        <time>2022-06-18T08:45:54Z</time>
      </trkpt>
      <trkpt lat="42.1694910" lon="-8.6195780">
        <ele>52.8</ele>
        <time>2022-06-18T08:45:55Z</time>
      </trkpt>
      <trkpt lat="42.1695230" lon="-8.6195680">
        <ele>52.8</ele>
        <time>2022-06-18T08:45:56Z</time>
      </trkpt>
      <trkpt lat="42.1695650" lon="-8.6195350">
        <ele>53.0</ele>
        <time>2022-06-18T08:45:57Z</time>
      </trkpt>
      <trkpt lat="42.1696160" lon="-8.6195250">
        <ele>53.0</ele>
        <time>2022-06-18T08:45:58Z</time>
      </trkpt>
      <trkpt lat="42.1696530" lon="-8.6195200">
        <ele>53.0</ele>
        <time>2022-06-18T08:45:59Z</time>
      </trkpt>
      <trkpt lat="42.1696800" lon="-8.6195130">
        <ele>53.0</ele>
        <time>2022-06-18T08:46:00Z</time>
      </trkpt>
      <trkpt lat="42.1696930" lon="-8.6195080">
        <ele>53.0</ele>
        <time>2022-06-18T08:46:01Z</time>
      </trkpt>
      <trkpt lat="42.1696980" lon="-8.6195060">
        <ele>53.0</ele>
        <time>2022-06-18T08:46:02Z</time>
      </trkpt>
      <trkpt lat="42.1696980" lon="-8.6195060">
        <ele>53.0</ele>
        <time>2022-06-18T08:46:03Z</time>
      </trkpt>
      <trkpt lat="42.1696450" lon="-8.6195080">
        <ele>53.0</ele>
        <time>2022-06-18T08:46:15Z</time>
      </trkpt>
      <trkpt lat="42.1696260" lon="-8.6195150">
        <ele>53.0</ele>
        <time>2022-06-18T08:46:16Z</time>
      </trkpt>
      <trkpt lat="42.1696060" lon="-8.6195200">
        <ele>53.0</ele>
        <time>2022-06-18T08:46:17Z</time>
      </trkpt>
      <trkpt lat="42.1695880" lon="-8.6195130">
        <ele>53.0</ele>
        <time>2022-06-18T08:46:18Z</time>
      </trkpt>
      <trkpt lat="42.1695760" lon="-8.6194880">
        <ele>53.0</ele>
        <time>2022-06-18T08:46:19Z</time>
      </trkpt>
      <trkpt lat="42.1695730" lon="-8.6194530">
        <ele>53.0</ele>
        <time>2022-06-18T08:46:20Z</time>
      </trkpt>
      <trkpt lat="42.1695750" lon="-8.6194180">
        <ele>52.6</ele>
        <time>2022-06-18T08:46:21Z</time>
      </trkpt>
      <trkpt lat="42.1695780" lon="-8.6193860">
        <ele>52.6</ele>
        <time>2022-06-18T08:46:22Z</time>
      </trkpt>
      <trkpt lat="42.1695800" lon="-8.6193550">
        <ele>52.6</ele>
        <time>2022-06-18T08:46:23Z</time>
      </trkpt>
      <trkpt lat="42.1695860" lon="-8.6193210">
        <ele>53.6</ele>
        <time>2022-06-18T08:46:24Z</time>
      </trkpt>
      <trkpt lat="42.1695980" lon="-8.6192930">
        <ele>53.2</ele>
        <time>2022-06-18T08:46:25Z</time>
      </trkpt>
      <trkpt lat="42.1696100" lon="-8.6192630">
        <ele>53.2</ele>
        <time>2022-06-18T08:46:26Z</time>
      </trkpt>
      <trkpt lat="42.1696280" lon="-8.6192300">
        <ele>53.2</ele>
        <time>2022-06-18T08:46:27Z</time>
      </trkpt>
      <trkpt lat="42.1696550" lon="-8.6192000">
        <ele>53.2</ele>
        <time>2022-06-18T08:46:28Z</time>
      </trkpt>
      <trkpt lat="42.1696910" lon="-8.6191880">
        <ele>53.0</ele>
        <time>2022-06-18T08:46:29Z</time>
      </trkpt>
      <trkpt lat="42.1696830" lon="-8.6191450">
        <ele>53.0</ele>
        <time>2022-06-18T08:46:30Z</time>
      </trkpt>
      <trkpt lat="42.1696810" lon="-8.6191000">
        <ele>53.0</ele>
        <time>2022-06-18T08:46:31Z</time>
      </trkpt>
      <trkpt lat="42.1696810" lon="-8.6190550">
        <ele>54.0</ele>
        <time>2022-06-18T08:46:32Z</time>
      </trkpt>
      <trkpt lat="42.1696800" lon="-8.6190130">
        <ele>54.4</ele>
        <time>2022-06-18T08:46:33Z</time>
      </trkpt>
      <trkpt lat="42.1696900" lon="-8.6189810">
        <ele>54.4</ele>
        <time>2022-06-18T08:46:34Z</time>
      </trkpt>
      <trkpt lat="42.1696950" lon="-8.6189510">
        <ele>54.4</ele>
        <time>2022-06-18T08:46:35Z</time>
      </trkpt>
      <trkpt lat="42.1696960" lon="-8.6189130">
        <ele>54.4</ele>
        <time>2022-06-18T08:46:36Z</time>
      </trkpt>
      <trkpt lat="42.1697030" lon="-8.6188830">
        <ele>54.8</ele>
        <time>2022-06-18T08:46:37Z</time>
      </trkpt>
      <trkpt lat="42.1697130" lon="-8.6188530">
        <ele>54.8</ele>
        <time>2022-06-18T08:46:38Z</time>
      </trkpt>
      <trkpt lat="42.1697350" lon="-8.6188300">
        <ele>54.8</ele>
        <time>2022-06-18T08:46:39Z</time>
      </trkpt>
      <trkpt lat="42.1697580" lon="-8.6188100">
        <ele>54.8</ele>
        <time>2022-06-18T08:46:40Z</time>
      </trkpt>
      <trkpt lat="42.1697800" lon="-8.6187980">
        <ele>55.4</ele>
        <time>2022-06-18T08:46:41Z</time>
      </trkpt>
      <trkpt lat="42.1698010" lon="-8.6187910">
        <ele>55.4</ele>
        <time>2022-06-18T08:46:42Z</time>
      </trkpt>
      <trkpt lat="42.1698250" lon="-8.6187930">
        <ele>55.4</ele>
        <time>2022-06-18T08:46:43Z</time>
      </trkpt>
      <trkpt lat="42.1698480" lon="-8.6187960">
        <ele>55.8</ele>
        <time>2022-06-18T08:46:44Z</time>
      </trkpt>
      <trkpt lat="42.1698800" lon="-8.6187900">
        <ele>55.8</ele>
        <time>2022-06-18T08:46:45Z</time>
      </trkpt>
      <trkpt lat="42.1699060" lon="-8.6187860">
        <ele>55.8</ele>
        <time>2022-06-18T08:46:46Z</time>
      </trkpt>
      <trkpt lat="42.1699360" lon="-8.6187860">
        <ele>55.8</ele>
        <time>2022-06-18T08:46:47Z</time>
      </trkpt>
      <trkpt lat="42.1699630" lon="-8.6187900">
        <ele>55.4</ele>
        <time>2022-06-18T08:46:48Z</time>
      </trkpt>
      <trkpt lat="42.1699900" lon="-8.6187900">
        <ele>55.4</ele>
        <time>2022-06-18T08:46:49Z</time>
      </trkpt>
      <trkpt lat="42.1700180" lon="-8.6187830">
        <ele>55.4</ele>
        <time>2022-06-18T08:46:50Z</time>
      </trkpt>
      <trkpt lat="42.1700480" lon="-8.6187760">
        <ele>55.4</ele>
        <time>2022-06-18T08:46:51Z</time>
      </trkpt>
      <trkpt lat="42.1700800" lon="-8.6187680">
        <ele>55.4</ele>
        <time>2022-06-18T08:46:52Z</time>
      </trkpt>
      <trkpt lat="42.1701100" lon="-8.6187560">
        <ele>55.2</ele>
        <time>2022-06-18T08:46:53Z</time>
      </trkpt>
      <trkpt lat="42.1701410" lon="-8.6187430">
        <ele>55.2</ele>
        <time>2022-06-18T08:46:54Z</time>
      </trkpt>
      <trkpt lat="42.1701700" lon="-8.6187280">
        <ele>55.2</ele>
        <time>2022-06-18T08:46:55Z</time>
      </trkpt>
      <trkpt lat="42.1702000" lon="-8.6187150">
        <ele>55.2</ele>
        <time>2022-06-18T08:46:56Z</time>
      </trkpt>
      <trkpt lat="42.1702310" lon="-8.6187030">
        <ele>55.2</ele>
        <time>2022-06-18T08:46:57Z</time>
      </trkpt>
      <trkpt lat="42.1702630" lon="-8.6186930">
        <ele>55.2</ele>
        <time>2022-06-18T08:46:58Z</time>
      </trkpt>
      <trkpt lat="42.1702950" lon="-8.6186780">
        <ele>55.2</ele>
        <time>2022-06-18T08:46:59Z</time>
      </trkpt>
      <trkpt lat="42.1703260" lon="-8.6186630">
        <ele>55.2</ele>
        <time>2022-06-18T08:47:00Z</time>
      </trkpt>
      <trkpt lat="42.1703560" lon="-8.6186480">
        <ele>55.2</ele>
        <time>2022-06-18T08:47:01Z</time>
      </trkpt>
      <trkpt lat="42.1703880" lon="-8.6186310">
        <ele>55.2</ele>
        <time>2022-06-18T08:47:02Z</time>
      </trkpt>
      <trkpt lat="42.1704210" lon="-8.6186160">
        <ele>55.2</ele>
        <time>2022-06-18T08:47:03Z</time>
      </trkpt>
      <trkpt lat="42.1704560" lon="-8.6185960">
        <ele>55.2</ele>
        <time>2022-06-18T08:47:04Z</time>
      </trkpt>
      <trkpt lat="42.1704930" lon="-8.6185780">
        <ele>54.8</ele>
        <time>2022-06-18T08:47:05Z</time>
      </trkpt>
      <trkpt lat="42.1705280" lon="-8.6185580">
        <ele>54.8</ele>
        <time>2022-06-18T08:47:06Z</time>
      </trkpt>
      <trkpt lat="42.1705650" lon="-8.6185380">
        <ele>54.8</ele>
        <time>2022-06-18T08:47:07Z</time>
      </trkpt>
      <trkpt lat="42.1705980" lon="-8.6185210">
        <ele>54.8</ele>
        <time>2022-06-18T08:47:08Z</time>
      </trkpt>
      <trkpt lat="42.1706310" lon="-8.6185030">
        <ele>54.8</ele>
        <time>2022-06-18T08:47:09Z</time>
      </trkpt>
      <trkpt lat="42.1706630" lon="-8.6184850">
        <ele>54.8</ele>
        <time>2022-06-18T08:47:10Z</time>
      </trkpt>
      <trkpt lat="42.1706950" lon="-8.6184680">
        <ele>54.8</ele>
        <time>2022-06-18T08:47:11Z</time>
      </trkpt>
      <trkpt lat="42.1707280" lon="-8.6184530">
        <ele>54.4</ele>
        <time>2022-06-18T08:47:12Z</time>
      </trkpt>
      <trkpt lat="42.1707630" lon="-8.6184360">
        <ele>54.6</ele>
        <time>2022-06-18T08:47:13Z</time>
      </trkpt>
      <trkpt lat="42.1707950" lon="-8.6184210">
        <ele>54.6</ele>
        <time>2022-06-18T08:47:14Z</time>
      </trkpt>
      <trkpt lat="42.1708280" lon="-8.6184050">
        <ele>54.6</ele>
        <time>2022-06-18T08:47:15Z</time>
      </trkpt>
      <trkpt lat="42.1708650" lon="-8.6183900">
        <ele>54.8</ele>
        <time>2022-06-18T08:47:16Z</time>
      </trkpt>
      <trkpt lat="42.1709010" lon="-8.6183760">
        <ele>54.6</ele>
        <time>2022-06-18T08:47:17Z</time>
      </trkpt>
      <trkpt lat="42.1709360" lon="-8.6183610">
        <ele>54.6</ele>
        <time>2022-06-18T08:47:18Z</time>
      </trkpt>
      <trkpt lat="42.1709730" lon="-8.6183480">
        <ele>54.6</ele>
        <time>2022-06-18T08:47:19Z</time>
      </trkpt>
      <trkpt lat="42.1710110" lon="-8.6183360">
        <ele>54.6</ele>
        <time>2022-06-18T08:47:20Z</time>
      </trkpt>
      <trkpt lat="42.1710500" lon="-8.6183250">
        <ele>53.8</ele>
        <time>2022-06-18T08:47:21Z</time>
      </trkpt>
      <trkpt lat="42.1710880" lon="-8.6183110">
        <ele>53.8</ele>
        <time>2022-06-18T08:47:22Z</time>
      </trkpt>
      <trkpt lat="42.1711260" lon="-8.6182980">
        <ele>53.8</ele>
        <time>2022-06-18T08:47:23Z</time>
      </trkpt>
      <trkpt lat="42.1711630" lon="-8.6182850">
        <ele>54.2</ele>
        <time>2022-06-18T08:47:24Z</time>
      </trkpt>
      <trkpt lat="42.1712000" lon="-8.6182710">
        <ele>54.4</ele>
        <time>2022-06-18T08:47:25Z</time>
      </trkpt>
      <trkpt lat="42.1712360" lon="-8.6182610">
        <ele>54.4</ele>
        <time>2022-06-18T08:47:26Z</time>
      </trkpt>
      <trkpt lat="42.1712730" lon="-8.6182480">
        <ele>54.4</ele>
        <time>2022-06-18T08:47:27Z</time>
      </trkpt>
      <trkpt lat="42.1713110" lon="-8.6182350">
        <ele>54.4</ele>
        <time>2022-06-18T08:47:28Z</time>
      </trkpt>
      <trkpt lat="42.1713500" lon="-8.6182210">
        <ele>54.8</ele>
        <time>2022-06-18T08:47:29Z</time>
      </trkpt>
      <trkpt lat="42.1713880" lon="-8.6182080">
        <ele>54.8</ele>
        <time>2022-06-18T08:47:30Z</time>
      </trkpt>
      <trkpt lat="42.1714260" lon="-8.6181960">
        <ele>54.8</ele>
        <time>2022-06-18T08:47:31Z</time>
      </trkpt>
      <trkpt lat="42.1714650" lon="-8.6181860">
        <ele>55.8</ele>
        <time>2022-06-18T08:47:32Z</time>
      </trkpt>
      <trkpt lat="42.1715030" lon="-8.6181760">
        <ele>55.6</ele>
        <time>2022-06-18T08:47:33Z</time>
      </trkpt>
      <trkpt lat="42.1715400" lon="-8.6181650">
        <ele>55.6</ele>
        <time>2022-06-18T08:47:34Z</time>
      </trkpt>
      <trkpt lat="42.1715750" lon="-8.6181580">
        <ele>55.6</ele>
        <time>2022-06-18T08:47:35Z</time>
      </trkpt>
      <trkpt lat="42.1716080" lon="-8.6181530">
        <ele>56.2</ele>
        <time>2022-06-18T08:47:36Z</time>
      </trkpt>
      <trkpt lat="42.1716430" lon="-8.6181480">
        <ele>56.0</ele>
        <time>2022-06-18T08:47:37Z</time>
      </trkpt>
      <trkpt lat="42.1716760" lon="-8.6181430">
        <ele>56.0</ele>
        <time>2022-06-18T08:47:38Z</time>
      </trkpt>
      <trkpt lat="42.1717060" lon="-8.6181350">
        <ele>56.0</ele>
        <time>2022-06-18T08:47:39Z</time>
      </trkpt>
      <trkpt lat="42.1717380" lon="-8.6181260">
        <ele>56.2</ele>
        <time>2022-06-18T08:47:40Z</time>
      </trkpt>
      <trkpt lat="42.1717650" lon="-8.6181210">
        <ele>56.4</ele>
        <time>2022-06-18T08:47:41Z</time>
      </trkpt>
      <trkpt lat="42.1717930" lon="-8.6181130">
        <ele>56.4</ele>
        <time>2022-06-18T08:47:42Z</time>
      </trkpt>
      <trkpt lat="42.1718210" lon="-8.6181030">
        <ele>56.4</ele>
        <time>2022-06-18T08:47:43Z</time>
      </trkpt>
      <trkpt lat="42.1718500" lon="-8.6180910">
        <ele>56.4</ele>
        <time>2022-06-18T08:47:44Z</time>
      </trkpt>
      <trkpt lat="42.1718760" lon="-8.6180810">
        <ele>57.4</ele>
        <time>2022-06-18T08:47:45Z</time>
      </trkpt>
      <trkpt lat="42.1719050" lon="-8.6180710">
        <ele>57.4</ele>
        <time>2022-06-18T08:47:46Z</time>
      </trkpt>
      <trkpt lat="42.1719330" lon="-8.6180600">
        <ele>57.4</ele>
        <time>2022-06-18T08:47:47Z</time>
      </trkpt>
      <trkpt lat="42.1719610" lon="-8.6180460">
        <ele>57.4</ele>
        <time>2022-06-18T08:47:48Z</time>
      </trkpt>
      <trkpt lat="42.1719900" lon="-8.6180380">
        <ele>57.6</ele>
        <time>2022-06-18T08:47:49Z</time>
      </trkpt>
      <trkpt lat="42.1720180" lon="-8.6180300">
        <ele>57.6</ele>
        <time>2022-06-18T08:47:50Z</time>
      </trkpt>
      <trkpt lat="42.1720460" lon="-8.6180200">
        <ele>57.6</ele>
        <time>2022-06-18T08:47:51Z</time>
      </trkpt>
      <trkpt lat="42.1720730" lon="-8.6180060">
        <ele>57.6</ele>
        <time>2022-06-18T08:47:52Z</time>
      </trkpt>
      <trkpt lat="42.1721000" lon="-8.6179930">
        <ele>57.8</ele>
        <time>2022-06-18T08:47:53Z</time>
      </trkpt>
      <trkpt lat="42.1721280" lon="-8.6179780">
        <ele>57.8</ele>
        <time>2022-06-18T08:47:54Z</time>
      </trkpt>
      <trkpt lat="42.1721550" lon="-8.6179600">
        <ele>57.8</ele>
        <time>2022-06-18T08:47:55Z</time>
      </trkpt>
      <trkpt lat="42.1721810" lon="-8.6179410">
        <ele>58.4</ele>
        <time>2022-06-18T08:47:56Z</time>
      </trkpt>
      <trkpt lat="42.1722060" lon="-8.6179200">
        <ele>58.2</ele>
        <time>2022-06-18T08:47:57Z</time>
      </trkpt>
      <trkpt lat="42.1722330" lon="-8.6178960">
        <ele>58.2</ele>
        <time>2022-06-18T08:47:58Z</time>
      </trkpt>
      <trkpt lat="42.1722580" lon="-8.6178750">
        <ele>58.2</ele>
        <time>2022-06-18T08:47:59Z</time>
      </trkpt>
      <trkpt lat="42.1722850" lon="-8.6178550">
        <ele>58.8</ele>
        <time>2022-06-18T08:48:00Z</time>
      </trkpt>
      <trkpt lat="42.1723100" lon="-8.6178350">
        <ele>58.8</ele>
        <time>2022-06-18T08:48:01Z</time>
      </trkpt>
      <trkpt lat="42.1723330" lon="-8.6178210">
        <ele>58.8</ele>
        <time>2022-06-18T08:48:02Z</time>
      </trkpt>
      <trkpt lat="42.1723580" lon="-8.6178100">
        <ele>58.8</ele>
        <time>2022-06-18T08:48:03Z</time>
      </trkpt>
      <trkpt lat="42.1723810" lon="-8.6177980">
        <ele>59.2</ele>
        <time>2022-06-18T08:48:04Z</time>
      </trkpt>
      <trkpt lat="42.1724080" lon="-8.6177860">
        <ele>60.0</ele>
        <time>2022-06-18T08:48:05Z</time>
      </trkpt>
      <trkpt lat="42.1724360" lon="-8.6177660">
        <ele>60.0</ele>
        <time>2022-06-18T08:48:06Z</time>
      </trkpt>
      <trkpt lat="42.1724610" lon="-8.6177430">
        <ele>60.0</ele>
        <time>2022-06-18T08:48:07Z</time>
      </trkpt>
      <trkpt lat="42.1724850" lon="-8.6177210">
        <ele>60.6</ele>
        <time>2022-06-18T08:48:08Z</time>
      </trkpt>
      <trkpt lat="42.1725080" lon="-8.6177010">
        <ele>60.8</ele>
        <time>2022-06-18T08:48:09Z</time>
      </trkpt>
      <trkpt lat="42.1725350" lon="-8.6176810">
        <ele>60.8</ele>
        <time>2022-06-18T08:48:10Z</time>
      </trkpt>
      <trkpt lat="42.1725610" lon="-8.6176650">
        <ele>60.8</ele>
        <time>2022-06-18T08:48:11Z</time>
      </trkpt>
      <trkpt lat="42.1725860" lon="-8.6176500">
        <ele>60.8</ele>
        <time>2022-06-18T08:48:12Z</time>
      </trkpt>
      <trkpt lat="42.1726130" lon="-8.6176350">
        <ele>61.4</ele>
        <time>2022-06-18T08:48:13Z</time>
      </trkpt>
      <trkpt lat="42.1726350" lon="-8.6176180">
        <ele>61.4</ele>
        <time>2022-06-18T08:48:14Z</time>
      </trkpt>
      <trkpt lat="42.1726580" lon="-8.6176050">
        <ele>61.4</ele>
        <time>2022-06-18T08:48:15Z</time>
      </trkpt>
      <trkpt lat="42.1726800" lon="-8.6175900">
        <ele>61.8</ele>
        <time>2022-06-18T08:48:16Z</time>
      </trkpt>
      <trkpt lat="42.1727000" lon="-8.6175730">
        <ele>62.0</ele>
        <time>2022-06-18T08:48:17Z</time>
      </trkpt>
      <trkpt lat="42.1727230" lon="-8.6175550">
        <ele>62.0</ele>
        <time>2022-06-18T08:48:18Z</time>
      </trkpt>
      <trkpt lat="42.1727480" lon="-8.6175360">
        <ele>62.0</ele>
        <time>2022-06-18T08:48:19Z</time>
      </trkpt>
      <trkpt lat="42.1727760" lon="-8.6175180">
        <ele>62.0</ele>
        <time>2022-06-18T08:48:20Z</time>
      </trkpt>
      <trkpt lat="42.1728050" lon="-8.6174960">
        <ele>61.2</ele>
        <time>2022-06-18T08:48:21Z</time>
      </trkpt>
      <trkpt lat="42.1728360" lon="-8.6174750">
        <ele>61.2</ele>
        <time>2022-06-18T08:48:22Z</time>
      </trkpt>
      <trkpt lat="42.1728700" lon="-8.6174560">
        <ele>61.2</ele>
        <time>2022-06-18T08:48:23Z</time>
      </trkpt>
      <trkpt lat="42.1729050" lon="-8.6174400">
        <ele>60.4</ele>
        <time>2022-06-18T08:48:24Z</time>
      </trkpt>
      <trkpt lat="42.1729400" lon="-8.6174210">
        <ele>60.2</ele>
        <time>2022-06-18T08:48:25Z</time>
      </trkpt>
      <trkpt lat="42.1729760" lon="-8.6174000">
        <ele>60.2</ele>
        <time>2022-06-18T08:48:26Z</time>
      </trkpt>
      <trkpt lat="42.1730110" lon="-8.6173730">
        <ele>60.2</ele>
        <time>2022-06-18T08:48:27Z</time>
      </trkpt>
      <trkpt lat="42.1730450" lon="-8.6173450">
        <ele>60.2</ele>
        <time>2022-06-18T08:48:28Z</time>
      </trkpt>
      <trkpt lat="42.1730780" lon="-8.6173130">
        <ele>59.6</ele>
        <time>2022-06-18T08:48:29Z</time>
      </trkpt>
      <trkpt lat="42.1731100" lon="-8.6172780">
        <ele>59.6</ele>
        <time>2022-06-18T08:48:30Z</time>
      </trkpt>
      <trkpt lat="42.1731430" lon="-8.6172400">
        <ele>59.6</ele>
        <time>2022-06-18T08:48:31Z</time>
      </trkpt>
      <trkpt lat="42.1731750" lon="-8.6171910">
        <ele>59.6</ele>
        <time>2022-06-18T08:48:32Z</time>
      </trkpt>
      <trkpt lat="42.1732060" lon="-8.6171400">
        <ele>58.8</ele>
        <time>2022-06-18T08:48:33Z</time>
      </trkpt>
      <trkpt lat="42.1732350" lon="-8.6170800">
        <ele>58.8</ele>
        <time>2022-06-18T08:48:34Z</time>
      </trkpt>
      <trkpt lat="42.1732630" lon="-8.6170210">
        <ele>58.8</ele>
        <time>2022-06-18T08:48:35Z</time>
      </trkpt>
      <trkpt lat="42.1732980" lon="-8.6169630">
        <ele>58.8</ele>
        <time>2022-06-18T08:48:36Z</time>
      </trkpt>
      <trkpt lat="42.1733350" lon="-8.6169060">
        <ele>57.6</ele>
        <time>2022-06-18T08:48:37Z</time>
      </trkpt>
      <trkpt lat="42.1733780" lon="-8.6168560">
        <ele>57.6</ele>
        <time>2022-06-18T08:48:38Z</time>
      </trkpt>
      <trkpt lat="42.1734230" lon="-8.6168160">
        <ele>57.6</ele>
        <time>2022-06-18T08:48:39Z</time>
      </trkpt>
      <trkpt lat="42.1734700" lon="-8.6167810">
        <ele>57.6</ele>
        <time>2022-06-18T08:48:40Z</time>
      </trkpt>
      <trkpt lat="42.1735150" lon="-8.6167530">
        <ele>56.8</ele>
        <time>2022-06-18T08:48:41Z</time>
      </trkpt>
      <trkpt lat="42.1735600" lon="-8.6167430">
        <ele>56.8</ele>
        <time>2022-06-18T08:48:42Z</time>
      </trkpt>
      <trkpt lat="42.1736050" lon="-8.6167400">
        <ele>56.8</ele>
        <time>2022-06-18T08:48:43Z</time>
      </trkpt>
      <trkpt lat="42.1736460" lon="-8.6167350">
        <ele>57.8</ele>
        <time>2022-06-18T08:48:44Z</time>
      </trkpt>
      <trkpt lat="42.1736860" lon="-8.6167260">
        <ele>58.8</ele>
        <time>2022-06-18T08:48:45Z</time>
      </trkpt>
      <trkpt lat="42.1737230" lon="-8.6167180">
        <ele>58.8</ele>
        <time>2022-06-18T08:48:46Z</time>
      </trkpt>
      <trkpt lat="42.1737580" lon="-8.6167100">
        <ele>58.8</ele>
        <time>2022-06-18T08:48:47Z</time>
      </trkpt>
      <trkpt lat="42.1737910" lon="-8.6166950">
        <ele>59.4</ele>
        <time>2022-06-18T08:48:48Z</time>
      </trkpt>
      <trkpt lat="42.1738260" lon="-8.6166760">
        <ele>59.2</ele>
        <time>2022-06-18T08:48:49Z</time>
      </trkpt>
      <trkpt lat="42.1738600" lon="-8.6166550">
        <ele>59.2</ele>
        <time>2022-06-18T08:48:50Z</time>
      </trkpt>
      <trkpt lat="42.1738910" lon="-8.6166350">
        <ele>59.2</ele>
        <time>2022-06-18T08:48:51Z</time>
      </trkpt>
      <trkpt lat="42.1739230" lon="-8.6166150">
        <ele>59.8</ele>
        <time>2022-06-18T08:48:52Z</time>
      </trkpt>
      <trkpt lat="42.1739530" lon="-8.6165930">
        <ele>59.8</ele>
        <time>2022-06-18T08:48:53Z</time>
      </trkpt>
      <trkpt lat="42.1739810" lon="-8.6165730">
        <ele>59.8</ele>
        <time>2022-06-18T08:48:54Z</time>
      </trkpt>
      <trkpt lat="42.1740060" lon="-8.6165550">
        <ele>59.8</ele>
        <time>2022-06-18T08:48:55Z</time>
      </trkpt>
      <trkpt lat="42.1740360" lon="-8.6165360">
        <ele>60.6</ele>
        <time>2022-06-18T08:48:56Z</time>
      </trkpt>
      <trkpt lat="42.1740650" lon="-8.6165160">
        <ele>60.8</ele>
        <time>2022-06-18T08:48:57Z</time>
      </trkpt>
      <trkpt lat="42.1740950" lon="-8.6164980">
        <ele>60.8</ele>
        <time>2022-06-18T08:48:58Z</time>
      </trkpt>
      <trkpt lat="42.1741250" lon="-8.6164810">
        <ele>60.8</ele>
        <time>2022-06-18T08:48:59Z</time>
      </trkpt>
      <trkpt lat="42.1741530" lon="-8.6164660">
        <ele>60.8</ele>
        <time>2022-06-18T08:49:00Z</time>
      </trkpt>
      <trkpt lat="42.1741860" lon="-8.6164500">
        <ele>61.6</ele>
        <time>2022-06-18T08:49:01Z</time>
      </trkpt>
      <trkpt lat="42.1742200" lon="-8.6164300">
        <ele>61.6</ele>
        <time>2022-06-18T08:49:02Z</time>
      </trkpt>
      <trkpt lat="42.1742560" lon="-8.6164080">
        <ele>61.6</ele>
        <time>2022-06-18T08:49:03Z</time>
      </trkpt>
      <trkpt lat="42.1742950" lon="-8.6163810">
        <ele>61.6</ele>
        <time>2022-06-18T08:49:04Z</time>
      </trkpt>
      <trkpt lat="42.1743330" lon="-8.6163550">
        <ele>61.4</ele>
        <time>2022-06-18T08:49:05Z</time>
      </trkpt>
      <trkpt lat="42.1743760" lon="-8.6163280">
        <ele>61.4</ele>
        <time>2022-06-18T08:49:06Z</time>
      </trkpt>
      <trkpt lat="42.1744160" lon="-8.6163050">
        <ele>61.4</ele>
        <time>2022-06-18T08:49:07Z</time>
      </trkpt>
      <trkpt lat="42.1744560" lon="-8.6162780">
        <ele>60.8</ele>
        <time>2022-06-18T08:49:08Z</time>
      </trkpt>
      <trkpt lat="42.1744960" lon="-8.6162500">
        <ele>60.8</ele>
        <time>2022-06-18T08:49:09Z</time>
      </trkpt>
      <trkpt lat="42.1745360" lon="-8.6162200">
        <ele>60.8</ele>
        <time>2022-06-18T08:49:10Z</time>
      </trkpt>
      <trkpt lat="42.1745760" lon="-8.6161910">
        <ele>60.8</ele>
        <time>2022-06-18T08:49:11Z</time>
      </trkpt>
      <trkpt lat="42.1746160" lon="-8.6161630">
        <ele>60.8</ele>
        <time>2022-06-18T08:49:12Z</time>
      </trkpt>
      <trkpt lat="42.1746550" lon="-8.6161380">
        <ele>60.6</ele>
        <time>2022-06-18T08:49:13Z</time>
      </trkpt>
      <trkpt lat="42.1746930" lon="-8.6161130">
        <ele>60.6</ele>
        <time>2022-06-18T08:49:14Z</time>
      </trkpt>
      <trkpt lat="42.1747310" lon="-8.6160900">
        <ele>60.6</ele>
        <time>2022-06-18T08:49:15Z</time>
      </trkpt>
      <trkpt lat="42.1747730" lon="-8.6160630">
        <ele>60.0</ele>
        <time>2022-06-18T08:49:16Z</time>
      </trkpt>
      <trkpt lat="42.1748110" lon="-8.6160360">
        <ele>59.8</ele>
        <time>2022-06-18T08:49:17Z</time>
      </trkpt>
      <trkpt lat="42.1748510" lon="-8.6160130">
        <ele>59.8</ele>
        <time>2022-06-18T08:49:18Z</time>
      </trkpt>
      <trkpt lat="42.1748900" lon="-8.6159880">
        <ele>59.8</ele>
        <time>2022-06-18T08:49:19Z</time>
      </trkpt>
      <trkpt lat="42.1749300" lon="-8.6159630">
        <ele>59.4</ele>
        <time>2022-06-18T08:49:20Z</time>
      </trkpt>
      <trkpt lat="42.1749660" lon="-8.6159400">
        <ele>58.8</ele>
        <time>2022-06-18T08:49:21Z</time>
      </trkpt>
      <trkpt lat="42.1750060" lon="-8.6159180">
        <ele>58.8</ele>
        <time>2022-06-18T08:49:22Z</time>
      </trkpt>
      <trkpt lat="42.1750450" lon="-8.6158980">
        <ele>58.8</ele>
        <time>2022-06-18T08:49:23Z</time>
      </trkpt>
      <trkpt lat="42.1750810" lon="-8.6158760">
        <ele>59.8</ele>
        <time>2022-06-18T08:49:24Z</time>
      </trkpt>
      <trkpt lat="42.1751180" lon="-8.6158550">
        <ele>59.4</ele>
        <time>2022-06-18T08:49:25Z</time>
      </trkpt>
      <trkpt lat="42.1751560" lon="-8.6158360">
        <ele>59.4</ele>
        <time>2022-06-18T08:49:26Z</time>
      </trkpt>
      <trkpt lat="42.1751980" lon="-8.6158280">
        <ele>59.4</ele>
        <time>2022-06-18T08:49:27Z</time>
      </trkpt>
      <trkpt lat="42.1752400" lon="-8.6158280">
        <ele>59.4</ele>
        <time>2022-06-18T08:49:28Z</time>
      </trkpt>
      <trkpt lat="42.1752800" lon="-8.6158280">
        <ele>59.4</ele>
        <time>2022-06-18T08:49:29Z</time>
      </trkpt>
      <trkpt lat="42.1753180" lon="-8.6158230">
        <ele>59.4</ele>
        <time>2022-06-18T08:49:30Z</time>
      </trkpt>
      <trkpt lat="42.1753580" lon="-8.6158130">
        <ele>59.4</ele>
        <time>2022-06-18T08:49:31Z</time>
      </trkpt>
      <trkpt lat="42.1753930" lon="-8.6158010">
        <ele>59.4</ele>
        <time>2022-06-18T08:49:32Z</time>
      </trkpt>
      <trkpt lat="42.1754200" lon="-8.6157950">
        <ele>59.6</ele>
        <time>2022-06-18T08:49:33Z</time>
      </trkpt>
      <trkpt lat="42.1754450" lon="-8.6157950">
        <ele>59.6</ele>
        <time>2022-06-18T08:49:34Z</time>
      </trkpt>
      <trkpt lat="42.1754700" lon="-8.6158100">
        <ele>59.6</ele>
        <time>2022-06-18T08:49:35Z</time>
      </trkpt>
      <trkpt lat="42.1754880" lon="-8.6158400">
        <ele>59.0</ele>
        <time>2022-06-18T08:49:36Z</time>
      </trkpt>
      <trkpt lat="42.1755030" lon="-8.6158830">
        <ele>58.8</ele>
        <time>2022-06-18T08:49:37Z</time>
      </trkpt>
      <trkpt lat="42.1755200" lon="-8.6159380">
        <ele>58.8</ele>
        <time>2022-06-18T08:49:38Z</time>
      </trkpt>
      <trkpt lat="42.1755410" lon="-8.6160000">
        <ele>58.8</ele>
        <time>2022-06-18T08:49:39Z</time>
      </trkpt>
      <trkpt lat="42.1755660" lon="-8.6160660">
        <ele>57.8</ele>
        <time>2022-06-18T08:49:40Z</time>
      </trkpt>
      <trkpt lat="42.1755910" lon="-8.6161400">
        <ele>55.6</ele>
        <time>2022-06-18T08:49:41Z</time>
      </trkpt>
      <trkpt lat="42.1756180" lon="-8.6162200">
        <ele>55.6</ele>
        <time>2022-06-18T08:49:42Z</time>
      </trkpt>
      <trkpt lat="42.1756430" lon="-8.6163030">
        <ele>55.6</ele>
        <time>2022-06-18T08:49:43Z</time>
      </trkpt>
      <trkpt lat="42.1756650" lon="-8.6163860">
        <ele>54.6</ele>
        <time>2022-06-18T08:49:44Z</time>
      </trkpt>
      <trkpt lat="42.1756880" lon="-8.6164600">
        <ele>53.2</ele>
        <time>2022-06-18T08:49:45Z</time>
      </trkpt>
      <trkpt lat="42.1757150" lon="-8.6165210">
        <ele>53.2</ele>
        <time>2022-06-18T08:49:46Z</time>
      </trkpt>
      <trkpt lat="42.1757400" lon="-8.6165760">
        <ele>53.2</ele>
        <time>2022-06-18T08:49:47Z</time>
      </trkpt>
      <trkpt lat="42.1757630" lon="-8.6166210">
        <ele>53.0</ele>
        <time>2022-06-18T08:49:48Z</time>
      </trkpt>
      <trkpt lat="42.1757800" lon="-8.6166510">
        <ele>53.0</ele>
        <time>2022-06-18T08:49:49Z</time>
      </trkpt>
      <trkpt lat="42.1757880" lon="-8.6166700">
        <ele>53.0</ele>
        <time>2022-06-18T08:49:50Z</time>
      </trkpt>
      <trkpt lat="42.1758000" lon="-8.6166800">
        <ele>53.0</ele>
        <time>2022-06-18T08:49:51Z</time>
      </trkpt>
      <trkpt lat="42.1758000" lon="-8.6166830">
        <ele>53.6</ele>
        <time>2022-06-18T08:49:52Z</time>
      </trkpt>
      <trkpt lat="42.1758000" lon="-8.6166830">
        <ele>53.2</ele>
        <time>2022-06-18T08:49:53Z</time>
      </trkpt>
      <trkpt lat="42.1758530" lon="-8.6167150">
        <ele>53.8</ele>
        <time>2022-06-18T08:50:06Z</time>
      </trkpt>
      <trkpt lat="42.1758730" lon="-8.6167060">
        <ele>53.8</ele>
        <time>2022-06-18T08:50:07Z</time>
      </trkpt>
      <trkpt lat="42.1758950" lon="-8.6166950">
        <ele>53.8</ele>
        <time>2022-06-18T08:50:08Z</time>
      </trkpt>
      <trkpt lat="42.1759180" lon="-8.6166810">
        <ele>53.4</ele>
        <time>2022-06-18T08:50:09Z</time>
      </trkpt>
      <trkpt lat="42.1759430" lon="-8.6166680">
        <ele>53.4</ele>
        <time>2022-06-18T08:50:10Z</time>
      </trkpt>
      <trkpt lat="42.1759660" lon="-8.6166560">
        <ele>53.4</ele>
        <time>2022-06-18T08:50:11Z</time>
      </trkpt>
      <trkpt lat="42.1759880" lon="-8.6166450">
        <ele>53.6</ele>
        <time>2022-06-18T08:50:12Z</time>
      </trkpt>
      <trkpt lat="42.1760100" lon="-8.6166330">
        <ele>53.6</ele>
        <time>2022-06-18T08:50:13Z</time>
      </trkpt>
      <trkpt lat="42.1760360" lon="-8.6166200">
        <ele>53.6</ele>
        <time>2022-06-18T08:50:14Z</time>
      </trkpt>
      <trkpt lat="42.1760630" lon="-8.6166080">
        <ele>53.6</ele>
        <time>2022-06-18T08:50:15Z</time>
      </trkpt>
      <trkpt lat="42.1760910" lon="-8.6165980">
        <ele>53.2</ele>
        <time>2022-06-18T08:50:16Z</time>
      </trkpt>
      <trkpt lat="42.1761200" lon="-8.6165850">
        <ele>53.0</ele>
        <time>2022-06-18T08:50:17Z</time>
      </trkpt>
      <trkpt lat="42.1761450" lon="-8.6165700">
        <ele>53.0</ele>
        <time>2022-06-18T08:50:18Z</time>
      </trkpt>
      <trkpt lat="42.1761710" lon="-8.6165580">
        <ele>53.0</ele>
        <time>2022-06-18T08:50:19Z</time>
      </trkpt>
      <trkpt lat="42.1761980" lon="-8.6165500">
        <ele>53.2</ele>
        <time>2022-06-18T08:50:20Z</time>
      </trkpt>
      <trkpt lat="42.1762230" lon="-8.6165410">
        <ele>53.6</ele>
        <time>2022-06-18T08:50:21Z</time>
      </trkpt>
      <trkpt lat="42.1762450" lon="-8.6165300">
        <ele>53.6</ele>
        <time>2022-06-18T08:50:22Z</time>
      </trkpt>
      <trkpt lat="42.1762680" lon="-8.6165160">
        <ele>53.6</ele>
        <time>2022-06-18T08:50:23Z</time>
      </trkpt>
      <trkpt lat="42.1762900" lon="-8.6165060">
        <ele>53.6</ele>
        <time>2022-06-18T08:50:24Z</time>
      </trkpt>
      <trkpt lat="42.1763080" lon="-8.6164960">
        <ele>53.8</ele>
        <time>2022-06-18T08:50:25Z</time>
      </trkpt>
      <trkpt lat="42.1763250" lon="-8.6164860">
        <ele>53.8</ele>
        <time>2022-06-18T08:50:26Z</time>
      </trkpt>
      <trkpt lat="42.1763380" lon="-8.6164760">
        <ele>53.8</ele>
        <time>2022-06-18T08:50:27Z</time>
      </trkpt>
      <trkpt lat="42.1763500" lon="-8.6164710">
        <ele>54.2</ele>
        <time>2022-06-18T08:50:28Z</time>
      </trkpt>
      <trkpt lat="42.1763580" lon="-8.6164700">
        <ele>54.2</ele>
        <time>2022-06-18T08:50:29Z</time>
      </trkpt>
      <trkpt lat="42.1763580" lon="-8.6164700">
        <ele>54.2</ele>
        <time>2022-06-18T08:50:30Z</time>
      </trkpt>
      <trkpt lat="42.1763960" lon="-8.6164580">
        <ele>54.2</ele>
        <time>2022-06-18T08:51:15Z</time>
      </trkpt>
      <trkpt lat="42.1764200" lon="-8.6164430">
        <ele>54.2</ele>
        <time>2022-06-18T08:51:16Z</time>
      </trkpt>
      <trkpt lat="42.1764480" lon="-8.6164260">
        <ele>54.2</ele>
        <time>2022-06-18T08:51:17Z</time>
      </trkpt>
      <trkpt lat="42.1764800" lon="-8.6164130">
        <ele>54.2</ele>
        <time>2022-06-18T08:51:18Z</time>
      </trkpt>
      <trkpt lat="42.1765100" lon="-8.6163980">
        <ele>54.2</ele>
        <time>2022-06-18T08:51:19Z</time>
      </trkpt>
      <trkpt lat="42.1765410" lon="-8.6163810">
        <ele>54.2</ele>
        <time>2022-06-18T08:51:20Z</time>
      </trkpt>
      <trkpt lat="42.1765730" lon="-8.6163650">
        <ele>54.0</ele>
        <time>2022-06-18T08:51:21Z</time>
      </trkpt>
      <trkpt lat="42.1766080" lon="-8.6163460">
        <ele>54.0</ele>
        <time>2022-06-18T08:51:22Z</time>
      </trkpt>
      <trkpt lat="42.1766450" lon="-8.6163300">
        <ele>54.0</ele>
        <time>2022-06-18T08:51:23Z</time>
      </trkpt>
      <trkpt lat="42.1766780" lon="-8.6163110">
        <ele>54.0</ele>
        <time>2022-06-18T08:51:24Z</time>
      </trkpt>
      <trkpt lat="42.1767110" lon="-8.6162930">
        <ele>53.8</ele>
        <time>2022-06-18T08:51:25Z</time>
      </trkpt>
      <trkpt lat="42.1767450" lon="-8.6162710">
        <ele>53.8</ele>
        <time>2022-06-18T08:51:26Z</time>
      </trkpt>
      <trkpt lat="42.1767760" lon="-8.6162480">
        <ele>53.8</ele>
        <time>2022-06-18T08:51:27Z</time>
      </trkpt>
      <trkpt lat="42.1768100" lon="-8.6162260">
        <ele>53.8</ele>
        <time>2022-06-18T08:51:28Z</time>
      </trkpt>
      <trkpt lat="42.1768450" lon="-8.6162050">
        <ele>54.0</ele>
        <time>2022-06-18T08:51:29Z</time>
      </trkpt>
      <trkpt lat="42.1768780" lon="-8.6161830">
        <ele>54.0</ele>
        <time>2022-06-18T08:51:30Z</time>
      </trkpt>
      <trkpt lat="42.1769110" lon="-8.6161600">
        <ele>54.0</ele>
        <time>2022-06-18T08:51:31Z</time>
      </trkpt>
      <trkpt lat="42.1769450" lon="-8.6161360">
        <ele>54.0</ele>
        <time>2022-06-18T08:51:32Z</time>
      </trkpt>
      <trkpt lat="42.1769800" lon="-8.6161160">
        <ele>53.4</ele>
        <time>2022-06-18T08:51:33Z</time>
      </trkpt>
      <trkpt lat="42.1770130" lon="-8.6160950">
        <ele>53.4</ele>
        <time>2022-06-18T08:51:34Z</time>
      </trkpt>
      <trkpt lat="42.1770480" lon="-8.6160760">
        <ele>53.4</ele>
        <time>2022-06-18T08:51:35Z</time>
      </trkpt>
      <trkpt lat="42.1770860" lon="-8.6160580">
        <ele>53.4</ele>
        <time>2022-06-18T08:51:36Z</time>
      </trkpt>
      <trkpt lat="42.1771250" lon="-8.6160380">
        <ele>53.0</ele>
        <time>2022-06-18T08:51:37Z</time>
      </trkpt>
      <trkpt lat="42.1771630" lon="-8.6160180">
        <ele>53.0</ele>
        <time>2022-06-18T08:51:38Z</time>
      </trkpt>
      <trkpt lat="42.1772010" lon="-8.6160010">
        <ele>53.0</ele>
        <time>2022-06-18T08:51:39Z</time>
      </trkpt>
      <trkpt lat="42.1772400" lon="-8.6159830">
        <ele>53.0</ele>
        <time>2022-06-18T08:51:40Z</time>
      </trkpt>
      <trkpt lat="42.1772760" lon="-8.6159650">
        <ele>53.2</ele>
        <time>2022-06-18T08:51:41Z</time>
      </trkpt>
      <trkpt lat="42.1773110" lon="-8.6159450">
        <ele>53.2</ele>
        <time>2022-06-18T08:51:42Z</time>
      </trkpt>
      <trkpt lat="42.1773480" lon="-8.6159260">
        <ele>53.2</ele>
        <time>2022-06-18T08:51:43Z</time>
      </trkpt>
      <trkpt lat="42.1773860" lon="-8.6159110">
        <ele>53.2</ele>
        <time>2022-06-18T08:51:44Z</time>
      </trkpt>
      <trkpt lat="42.1774210" lon="-8.6158980">
        <ele>53.6</ele>
        <time>2022-06-18T08:51:45Z</time>
      </trkpt>
      <trkpt lat="42.1774600" lon="-8.6158850">
        <ele>53.6</ele>
        <time>2022-06-18T08:51:46Z</time>
      </trkpt>
      <trkpt lat="42.1774980" lon="-8.6158680">
        <ele>53.6</ele>
        <time>2022-06-18T08:51:47Z</time>
      </trkpt>
      <trkpt lat="42.1775360" lon="-8.6158500">
        <ele>53.4</ele>
        <time>2022-06-18T08:51:48Z</time>
      </trkpt>
      <trkpt lat="42.1775750" lon="-8.6158300">
        <ele>53.0</ele>
        <time>2022-06-18T08:51:49Z</time>
      </trkpt>
      <trkpt lat="42.1776130" lon="-8.6158100">
        <ele>53.0</ele>
        <time>2022-06-18T08:51:50Z</time>
      </trkpt>
      <trkpt lat="42.1776510" lon="-8.6157900">
        <ele>53.0</ele>
        <time>2022-06-18T08:51:51Z</time>
      </trkpt>
      <trkpt lat="42.1776910" lon="-8.6157700">
        <ele>53.0</ele>
        <time>2022-06-18T08:51:52Z</time>
      </trkpt>
      <trkpt lat="42.1777330" lon="-8.6157500">
        <ele>53.0</ele>
        <time>2022-06-18T08:51:53Z</time>
      </trkpt>
      <trkpt lat="42.1777760" lon="-8.6157300">
        <ele>53.0</ele>
        <time>2022-06-18T08:51:54Z</time>
      </trkpt>
      <trkpt lat="42.1778210" lon="-8.6157060">
        <ele>53.0</ele>
        <time>2022-06-18T08:51:55Z</time>
      </trkpt>
      <trkpt lat="42.1778660" lon="-8.6156800">
        <ele>53.0</ele>
        <time>2022-06-18T08:51:56Z</time>
      </trkpt>
      <trkpt lat="42.1779110" lon="-8.6156550">
        <ele>52.8</ele>
        <time>2022-06-18T08:51:57Z</time>
      </trkpt>
      <trkpt lat="42.1779560" lon="-8.6156260">
        <ele>52.8</ele>
        <time>2022-06-18T08:51:58Z</time>
      </trkpt>
      <trkpt lat="42.1780010" lon="-8.6155980">
        <ele>52.8</ele>
        <time>2022-06-18T08:51:59Z</time>
      </trkpt>
      <trkpt lat="42.1780460" lon="-8.6155700">
        <ele>52.8</ele>
        <time>2022-06-18T08:52:00Z</time>
      </trkpt>
      <trkpt lat="42.1780900" lon="-8.6155380">
        <ele>53.0</ele>
        <time>2022-06-18T08:52:01Z</time>
      </trkpt>
      <trkpt lat="42.1781310" lon="-8.6155080">
        <ele>53.0</ele>
        <time>2022-06-18T08:52:02Z</time>
      </trkpt>
      <trkpt lat="42.1781700" lon="-8.6154780">
        <ele>53.0</ele>
        <time>2022-06-18T08:52:03Z</time>
      </trkpt>
      <trkpt lat="42.1782080" lon="-8.6154500">
        <ele>53.0</ele>
        <time>2022-06-18T08:52:04Z</time>
      </trkpt>
      <trkpt lat="42.1782480" lon="-8.6154250">
        <ele>53.0</ele>
        <time>2022-06-18T08:52:05Z</time>
      </trkpt>
      <trkpt lat="42.1782860" lon="-8.6153960">
        <ele>53.0</ele>
        <time>2022-06-18T08:52:06Z</time>
      </trkpt>
      <trkpt lat="42.1783260" lon="-8.6153610">
        <ele>53.0</ele>
        <time>2022-06-18T08:52:07Z</time>
      </trkpt>
      <trkpt lat="42.1783650" lon="-8.6153280">
        <ele>53.0</ele>
        <time>2022-06-18T08:52:08Z</time>
      </trkpt>
      <trkpt lat="42.1784000" lon="-8.6152900">
        <ele>53.4</ele>
        <time>2022-06-18T08:52:09Z</time>
      </trkpt>
      <trkpt lat="42.1784330" lon="-8.6152500">
        <ele>53.4</ele>
        <time>2022-06-18T08:52:10Z</time>
      </trkpt>
      <trkpt lat="42.1784710" lon="-8.6152130">
        <ele>53.4</ele>
        <time>2022-06-18T08:52:11Z</time>
      </trkpt>
      <trkpt lat="42.1785080" lon="-8.6151780">
        <ele>53.0</ele>
        <time>2022-06-18T08:52:12Z</time>
      </trkpt>
      <trkpt lat="42.1785460" lon="-8.6151400">
        <ele>53.0</ele>
        <time>2022-06-18T08:52:13Z</time>
      </trkpt>
      <trkpt lat="42.1785850" lon="-8.6151010">
        <ele>53.0</ele>
        <time>2022-06-18T08:52:14Z</time>
      </trkpt>
      <trkpt lat="42.1786230" lon="-8.6150630">
        <ele>53.0</ele>
        <time>2022-06-18T08:52:15Z</time>
      </trkpt>
      <trkpt lat="42.1786600" lon="-8.6150260">
        <ele>53.0</ele>
        <time>2022-06-18T08:52:16Z</time>
      </trkpt>
      <trkpt lat="42.1786960" lon="-8.6149900">
        <ele>53.0</ele>
        <time>2022-06-18T08:52:17Z</time>
      </trkpt>
      <trkpt lat="42.1787310" lon="-8.6149550">
        <ele>53.0</ele>
        <time>2022-06-18T08:52:18Z</time>
      </trkpt>
      <trkpt lat="42.1787660" lon="-8.6149180">
        <ele>53.0</ele>
        <time>2022-06-18T08:52:19Z</time>
      </trkpt>
      <trkpt lat="42.1788030" lon="-8.6148850">
        <ele>53.0</ele>
        <time>2022-06-18T08:52:20Z</time>
      </trkpt>
      <trkpt lat="42.1788400" lon="-8.6148480">
        <ele>53.2</ele>
        <time>2022-06-18T08:52:21Z</time>
      </trkpt>
      <trkpt lat="42.1788750" lon="-8.6148110">
        <ele>53.2</ele>
        <time>2022-06-18T08:52:22Z</time>
      </trkpt>
      <trkpt lat="42.1789100" lon="-8.6147750">
        <ele>53.2</ele>
        <time>2022-06-18T08:52:23Z</time>
      </trkpt>
      <trkpt lat="42.1789450" lon="-8.6147360">
        <ele>53.0</ele>
        <time>2022-06-18T08:52:24Z</time>
      </trkpt>
      <trkpt lat="42.1789810" lon="-8.6147010">
        <ele>52.8</ele>
        <time>2022-06-18T08:52:25Z</time>
      </trkpt>
      <trkpt lat="42.1790180" lon="-8.6146680">
        <ele>52.8</ele>
        <time>2022-06-18T08:52:26Z</time>
      </trkpt>
      <trkpt lat="42.1790550" lon="-8.6146330">
        <ele>52.8</ele>
        <time>2022-06-18T08:52:27Z</time>
      </trkpt>
      <trkpt lat="42.1790910" lon="-8.6145960">
        <ele>52.8</ele>
        <time>2022-06-18T08:52:28Z</time>
      </trkpt>
      <trkpt lat="42.1791260" lon="-8.6145560">
        <ele>52.6</ele>
        <time>2022-06-18T08:52:29Z</time>
      </trkpt>
      <trkpt lat="42.1791610" lon="-8.6145180">
        <ele>52.6</ele>
        <time>2022-06-18T08:52:30Z</time>
      </trkpt>
      <trkpt lat="42.1792000" lon="-8.6144800">
        <ele>52.6</ele>
        <time>2022-06-18T08:52:31Z</time>
      </trkpt>
      <trkpt lat="42.1792360" lon="-8.6144430">
        <ele>52.6</ele>
        <time>2022-06-18T08:52:32Z</time>
      </trkpt>
      <trkpt lat="42.1792750" lon="-8.6144050">
        <ele>52.4</ele>
        <time>2022-06-18T08:52:33Z</time>
      </trkpt>
      <trkpt lat="42.1793110" lon="-8.6143680">
        <ele>52.4</ele>
        <time>2022-06-18T08:52:34Z</time>
      </trkpt>
      <trkpt lat="42.1793500" lon="-8.6143330">
        <ele>52.4</ele>
        <time>2022-06-18T08:52:35Z</time>
      </trkpt>
      <trkpt lat="42.1793880" lon="-8.6142980">
        <ele>52.4</ele>
        <time>2022-06-18T08:52:36Z</time>
      </trkpt>
      <trkpt lat="42.1794260" lon="-8.6142610">
        <ele>52.4</ele>
        <time>2022-06-18T08:52:37Z</time>
      </trkpt>
      <trkpt lat="42.1794630" lon="-8.6142230">
        <ele>52.4</ele>
        <time>2022-06-18T08:52:38Z</time>
      </trkpt>
      <trkpt lat="42.1795010" lon="-8.6141860">
        <ele>52.4</ele>
        <time>2022-06-18T08:52:39Z</time>
      </trkpt>
      <trkpt lat="42.1795380" lon="-8.6141500">
        <ele>52.4</ele>
        <time>2022-06-18T08:52:40Z</time>
      </trkpt>
      <trkpt lat="42.1795760" lon="-8.6141100">
        <ele>52.0</ele>
        <time>2022-06-18T08:52:41Z</time>
      </trkpt>
      <trkpt lat="42.1796130" lon="-8.6140730">
        <ele>52.0</ele>
        <time>2022-06-18T08:52:42Z</time>
      </trkpt>
      <trkpt lat="42.1796510" lon="-8.6140350">
        <ele>52.0</ele>
        <time>2022-06-18T08:52:43Z</time>
      </trkpt>
      <trkpt lat="42.1796900" lon="-8.6139980">
        <ele>52.4</ele>
        <time>2022-06-18T08:52:44Z</time>
      </trkpt>
      <trkpt lat="42.1797300" lon="-8.6139600">
        <ele>52.4</ele>
        <time>2022-06-18T08:52:45Z</time>
      </trkpt>
      <trkpt lat="42.1797660" lon="-8.6139250">
        <ele>52.4</ele>
        <time>2022-06-18T08:52:46Z</time>
      </trkpt>
      <trkpt lat="42.1798030" lon="-8.6138880">
        <ele>52.4</ele>
        <time>2022-06-18T08:52:47Z</time>
      </trkpt>
      <trkpt lat="42.1798380" lon="-8.6138550">
        <ele>52.4</ele>
        <time>2022-06-18T08:52:48Z</time>
      </trkpt>
      <trkpt lat="42.1798760" lon="-8.6138200">
        <ele>52.8</ele>
        <time>2022-06-18T08:52:49Z</time>
      </trkpt>
      <trkpt lat="42.1799130" lon="-8.6137860">
        <ele>52.8</ele>
        <time>2022-06-18T08:52:50Z</time>
      </trkpt>
      <trkpt lat="42.1799500" lon="-8.6137530">
        <ele>52.8</ele>
        <time>2022-06-18T08:52:51Z</time>
      </trkpt>
      <trkpt lat="42.1799850" lon="-8.6137200">
        <ele>52.8</ele>
        <time>2022-06-18T08:52:52Z</time>
      </trkpt>
      <trkpt lat="42.1800200" lon="-8.6136900">
        <ele>52.6</ele>
        <time>2022-06-18T08:52:53Z</time>
      </trkpt>
      <trkpt lat="42.1800580" lon="-8.6136600">
        <ele>52.6</ele>
        <time>2022-06-18T08:52:54Z</time>
      </trkpt>
      <trkpt lat="42.1800960" lon="-8.6136260">
        <ele>52.6</ele>
        <time>2022-06-18T08:52:55Z</time>
      </trkpt>
      <trkpt lat="42.1801380" lon="-8.6135960">
        <ele>52.6</ele>
        <time>2022-06-18T08:52:56Z</time>
      </trkpt>
      <trkpt lat="42.1801780" lon="-8.6135650">
        <ele>52.6</ele>
        <time>2022-06-18T08:52:57Z</time>
      </trkpt>
      <trkpt lat="42.1802200" lon="-8.6135360">
        <ele>52.6</ele>
        <time>2022-06-18T08:52:58Z</time>
      </trkpt>
      <trkpt lat="42.1802610" lon="-8.6135080">
        <ele>52.6</ele>
        <time>2022-06-18T08:52:59Z</time>
      </trkpt>
      <trkpt lat="42.1803010" lon="-8.6134810">
        <ele>52.6</ele>
        <time>2022-06-18T08:53:00Z</time>
      </trkpt>
      <trkpt lat="42.1803430" lon="-8.6134550">
        <ele>52.6</ele>
        <time>2022-06-18T08:53:01Z</time>
      </trkpt>
      <trkpt lat="42.1803860" lon="-8.6134310">
        <ele>52.6</ele>
        <time>2022-06-18T08:53:02Z</time>
      </trkpt>
      <trkpt lat="42.1804300" lon="-8.6134100">
        <ele>52.6</ele>
        <time>2022-06-18T08:53:03Z</time>
      </trkpt>
      <trkpt lat="42.1804750" lon="-8.6133850">
        <ele>52.6</ele>
        <time>2022-06-18T08:53:04Z</time>
      </trkpt>
      <trkpt lat="42.1805200" lon="-8.6133650">
        <ele>52.4</ele>
        <time>2022-06-18T08:53:05Z</time>
      </trkpt>
      <trkpt lat="42.1805660" lon="-8.6133450">
        <ele>52.4</ele>
        <time>2022-06-18T08:53:06Z</time>
      </trkpt>
      <trkpt lat="42.1806130" lon="-8.6133280">
        <ele>52.4</ele>
        <time>2022-06-18T08:53:07Z</time>
      </trkpt>
      <trkpt lat="42.1806610" lon="-8.6133110">
        <ele>52.4</ele>
        <time>2022-06-18T08:53:08Z</time>
      </trkpt>
      <trkpt lat="42.1807110" lon="-8.6133000">
        <ele>52.2</ele>
        <time>2022-06-18T08:53:09Z</time>
      </trkpt>
      <trkpt lat="42.1807600" lon="-8.6132880">
        <ele>52.2</ele>
        <time>2022-06-18T08:53:10Z</time>
      </trkpt>
      <trkpt lat="42.1808100" lon="-8.6132800">
        <ele>52.2</ele>
        <time>2022-06-18T08:53:11Z</time>
      </trkpt>
      <trkpt lat="42.1808600" lon="-8.6132710">
        <ele>51.8</ele>
        <time>2022-06-18T08:53:12Z</time>
      </trkpt>
      <trkpt lat="42.1809100" lon="-8.6132650">
        <ele>52.2</ele>
        <time>2022-06-18T08:53:13Z</time>
      </trkpt>
      <trkpt lat="42.1809610" lon="-8.6132630">
        <ele>52.2</ele>
        <time>2022-06-18T08:53:14Z</time>
      </trkpt>
      <trkpt lat="42.1810130" lon="-8.6132650">
        <ele>52.2</ele>
        <time>2022-06-18T08:53:15Z</time>
      </trkpt>
      <trkpt lat="42.1810650" lon="-8.6132710">
        <ele>52.2</ele>
        <time>2022-06-18T08:53:16Z</time>
      </trkpt>
      <trkpt lat="42.1811180" lon="-8.6132800">
        <ele>52.0</ele>
        <time>2022-06-18T08:53:17Z</time>
      </trkpt>
      <trkpt lat="42.1811710" lon="-8.6132810">
        <ele>52.0</ele>
        <time>2022-06-18T08:53:18Z</time>
      </trkpt>
      <trkpt lat="42.1812260" lon="-8.6132830">
        <ele>52.0</ele>
        <time>2022-06-18T08:53:19Z</time>
      </trkpt>
      <trkpt lat="42.1812810" lon="-8.6132880">
        <ele>52.0</ele>
        <time>2022-06-18T08:53:20Z</time>
      </trkpt>
      <trkpt lat="42.1813380" lon="-8.6132980">
        <ele>51.2</ele>
        <time>2022-06-18T08:53:21Z</time>
      </trkpt>
      <trkpt lat="42.1813910" lon="-8.6133080">
        <ele>51.2</ele>
        <time>2022-06-18T08:53:22Z</time>
      </trkpt>
      <trkpt lat="42.1814500" lon="-8.6133160">
        <ele>51.2</ele>
        <time>2022-06-18T08:53:23Z</time>
      </trkpt>
      <trkpt lat="42.1815010" lon="-8.6133330">
        <ele>51.6</ele>
        <time>2022-06-18T08:53:24Z</time>
      </trkpt>
      <trkpt lat="42.1815550" lon="-8.6133450">
        <ele>51.0</ele>
        <time>2022-06-18T08:53:25Z</time>
      </trkpt>
      <trkpt lat="42.1816130" lon="-8.6133450">
        <ele>51.0</ele>
        <time>2022-06-18T08:53:26Z</time>
      </trkpt>
      <trkpt lat="42.1816660" lon="-8.6133530">
        <ele>51.0</ele>
        <time>2022-06-18T08:53:27Z</time>
      </trkpt>
      <trkpt lat="42.1817180" lon="-8.6133580">
        <ele>51.0</ele>
        <time>2022-06-18T08:53:28Z</time>
      </trkpt>
      <trkpt lat="42.1817700" lon="-8.6133610">
        <ele>51.4</ele>
        <time>2022-06-18T08:53:29Z</time>
      </trkpt>
      <trkpt lat="42.1818130" lon="-8.6133860">
        <ele>51.4</ele>
        <time>2022-06-18T08:53:30Z</time>
      </trkpt>
      <trkpt lat="42.1818660" lon="-8.6134000">
        <ele>51.4</ele>
        <time>2022-06-18T08:53:31Z</time>
      </trkpt>
      <trkpt lat="42.1819150" lon="-8.6134060">
        <ele>51.4</ele>
        <time>2022-06-18T08:53:32Z</time>
      </trkpt>
      <trkpt lat="42.1819780" lon="-8.6134000">
        <ele>51.4</ele>
        <time>2022-06-18T08:53:33Z</time>
      </trkpt>
      <trkpt lat="42.1820310" lon="-8.6134010">
        <ele>51.4</ele>
        <time>2022-06-18T08:53:34Z</time>
      </trkpt>
      <trkpt lat="42.1820850" lon="-8.6134110">
        <ele>51.4</ele>
        <time>2022-06-18T08:53:35Z</time>
      </trkpt>
      <trkpt lat="42.1821330" lon="-8.6134350">
        <ele>51.4</ele>
        <time>2022-06-18T08:53:36Z</time>
      </trkpt>
      <trkpt lat="42.1821930" lon="-8.6134410">
        <ele>51.6</ele>
        <time>2022-06-18T08:53:37Z</time>
      </trkpt>
      <trkpt lat="42.1822500" lon="-8.6134500">
        <ele>51.6</ele>
        <time>2022-06-18T08:53:38Z</time>
      </trkpt>
      <trkpt lat="42.1823010" lon="-8.6134650">
        <ele>51.6</ele>
        <time>2022-06-18T08:53:39Z</time>
      </trkpt>
      <trkpt lat="42.1823550" lon="-8.6134750">
        <ele>50.8</ele>
        <time>2022-06-18T08:53:40Z</time>
      </trkpt>
      <trkpt lat="42.1824060" lon="-8.6134880">
        <ele>51.4</ele>
        <time>2022-06-18T08:53:41Z</time>
      </trkpt>
      <trkpt lat="42.1824560" lon="-8.6135000">
        <ele>51.4</ele>
        <time>2022-06-18T08:53:42Z</time>
      </trkpt>
      <trkpt lat="42.1825100" lon="-8.6135110">
        <ele>51.4</ele>
        <time>2022-06-18T08:53:43Z</time>
      </trkpt>
      <trkpt lat="42.1825610" lon="-8.6135200">
        <ele>51.4</ele>
        <time>2022-06-18T08:53:44Z</time>
      </trkpt>
      <trkpt lat="42.1826130" lon="-8.6135330">
        <ele>51.4</ele>
        <time>2022-06-18T08:53:45Z</time>
      </trkpt>
      <trkpt lat="42.1826660" lon="-8.6135410">
        <ele>51.4</ele>
        <time>2022-06-18T08:53:46Z</time>
      </trkpt>
      <trkpt lat="42.1827210" lon="-8.6135500">
        <ele>51.4</ele>
        <time>2022-06-18T08:53:47Z</time>
      </trkpt>
      <trkpt lat="42.1827750" lon="-8.6135560">
        <ele>51.4</ele>
        <time>2022-06-18T08:53:48Z</time>
      </trkpt>
      <trkpt lat="42.1828300" lon="-8.6135660">
        <ele>51.4</ele>
        <time>2022-06-18T08:53:49Z</time>
      </trkpt>
      <trkpt lat="42.1828850" lon="-8.6135710">
        <ele>51.4</ele>
        <time>2022-06-18T08:53:50Z</time>
      </trkpt>
      <trkpt lat="42.1829380" lon="-8.6135780">
        <ele>51.4</ele>
        <time>2022-06-18T08:53:51Z</time>
      </trkpt>
      <trkpt lat="42.1829910" lon="-8.6135830">
        <ele>51.0</ele>
        <time>2022-06-18T08:53:52Z</time>
      </trkpt>
      <trkpt lat="42.1830450" lon="-8.6135860">
        <ele>51.2</ele>
        <time>2022-06-18T08:53:53Z</time>
      </trkpt>
      <trkpt lat="42.1831000" lon="-8.6135860">
        <ele>51.2</ele>
        <time>2022-06-18T08:53:54Z</time>
      </trkpt>
      <trkpt lat="42.1831530" lon="-8.6135830">
        <ele>51.2</ele>
        <time>2022-06-18T08:53:55Z</time>
      </trkpt>
      <trkpt lat="42.1832080" lon="-8.6135730">
        <ele>51.2</ele>
        <time>2022-06-18T08:53:56Z</time>
      </trkpt>
      <trkpt lat="42.1832630" lon="-8.6135650">
        <ele>51.0</ele>
        <time>2022-06-18T08:53:57Z</time>
      </trkpt>
      <trkpt lat="42.1833180" lon="-8.6135550">
        <ele>51.0</ele>
        <time>2022-06-18T08:53:58Z</time>
      </trkpt>
      <trkpt lat="42.1833710" lon="-8.6135410">
        <ele>51.0</ele>
        <time>2022-06-18T08:53:59Z</time>
      </trkpt>
      <trkpt lat="42.1834250" lon="-8.6135250">
        <ele>51.0</ele>
        <time>2022-06-18T08:54:00Z</time>
      </trkpt>
      <trkpt lat="42.1834760" lon="-8.6135030">
        <ele>51.4</ele>
        <time>2022-06-18T08:54:01Z</time>
      </trkpt>
      <trkpt lat="42.1835300" lon="-8.6134780">
        <ele>51.4</ele>
        <time>2022-06-18T08:54:02Z</time>
      </trkpt>
      <trkpt lat="42.1835810" lon="-8.6134550">
        <ele>51.4</ele>
        <time>2022-06-18T08:54:03Z</time>
      </trkpt>
      <trkpt lat="42.1836300" lon="-8.6134300">
        <ele>51.4</ele>
        <time>2022-06-18T08:54:04Z</time>
      </trkpt>
      <trkpt lat="42.1836760" lon="-8.6134030">
        <ele>51.0</ele>
        <time>2022-06-18T08:54:05Z</time>
      </trkpt>
      <trkpt lat="42.1837210" lon="-8.6133730">
        <ele>51.0</ele>
        <time>2022-06-18T08:54:06Z</time>
      </trkpt>
      <trkpt lat="42.1837630" lon="-8.6133430">
        <ele>51.0</ele>
        <time>2022-06-18T08:54:07Z</time>
      </trkpt>
      <trkpt lat="42.1838050" lon="-8.6133160">
        <ele>51.6</ele>
        <time>2022-06-18T08:54:08Z</time>
      </trkpt>
      <trkpt lat="42.1838410" lon="-8.6132850">
        <ele>51.8</ele>
        <time>2022-06-18T08:54:09Z</time>
      </trkpt>
      <trkpt lat="42.1838780" lon="-8.6132530">
        <ele>51.8</ele>
        <time>2022-06-18T08:54:10Z</time>
      </trkpt>
      <trkpt lat="42.1839130" lon="-8.6132260">
        <ele>51.8</ele>
        <time>2022-06-18T08:54:11Z</time>
      </trkpt>
      <trkpt lat="42.1839500" lon="-8.6132010">
        <ele>51.8</ele>
        <time>2022-06-18T08:54:12Z</time>
      </trkpt>
      <trkpt lat="42.1839800" lon="-8.6131680">
        <ele>51.6</ele>
        <time>2022-06-18T08:54:13Z</time>
      </trkpt>
      <trkpt lat="42.1840080" lon="-8.6131360">
        <ele>51.6</ele>
        <time>2022-06-18T08:54:14Z</time>
      </trkpt>
      <trkpt lat="42.1840360" lon="-8.6131080">
        <ele>51.6</ele>
        <time>2022-06-18T08:54:15Z</time>
      </trkpt>
      <trkpt lat="42.1840650" lon="-8.6130810">
        <ele>52.2</ele>
        <time>2022-06-18T08:54:16Z</time>
      </trkpt>
      <trkpt lat="42.1840880" lon="-8.6130550">
        <ele>52.6</ele>
        <time>2022-06-18T08:54:17Z</time>
      </trkpt>
      <trkpt lat="42.1841100" lon="-8.6130300">
        <ele>52.6</ele>
        <time>2022-06-18T08:54:18Z</time>
      </trkpt>
      <trkpt lat="42.1841300" lon="-8.6130080">
        <ele>52.6</ele>
        <time>2022-06-18T08:54:19Z</time>
      </trkpt>
      <trkpt lat="42.1841460" lon="-8.6129910">
        <ele>52.4</ele>
        <time>2022-06-18T08:54:20Z</time>
      </trkpt>
      <trkpt lat="42.1841580" lon="-8.6129830">
        <ele>52.2</ele>
        <time>2022-06-18T08:54:21Z</time>
      </trkpt>
      <trkpt lat="42.1841650" lon="-8.6129810">
        <ele>52.2</ele>
        <time>2022-06-18T08:54:22Z</time>
      </trkpt>
      <trkpt lat="42.1841650" lon="-8.6129810">
        <ele>52.2</ele>
        <time>2022-06-18T08:54:23Z</time>
      </trkpt>
      <trkpt lat="42.1841650" lon="-8.6129810">
        <ele>52.6</ele>
        <time>2022-06-18T08:54:24Z</time>
      </trkpt>
      <trkpt lat="42.1841950" lon="-8.6130460">
        <ele>52.6</ele>
        <time>2022-06-18T08:54:28Z</time>
      </trkpt>
      <trkpt lat="42.1842010" lon="-8.6130830">
        <ele>52.4</ele>
        <time>2022-06-18T08:54:29Z</time>
      </trkpt>
      <trkpt lat="42.1841980" lon="-8.6131180">
        <ele>52.4</ele>
        <time>2022-06-18T08:54:30Z</time>
      </trkpt>
      <trkpt lat="42.1841880" lon="-8.6131530">
        <ele>52.4</ele>
        <time>2022-06-18T08:54:31Z</time>
      </trkpt>
      <trkpt lat="42.1841730" lon="-8.6131860">
        <ele>51.8</ele>
        <time>2022-06-18T08:54:32Z</time>
      </trkpt>
      <trkpt lat="42.1841500" lon="-8.6132150">
        <ele>51.6</ele>
        <time>2022-06-18T08:54:33Z</time>
      </trkpt>
      <trkpt lat="42.1841230" lon="-8.6132400">
        <ele>51.6</ele>
        <time>2022-06-18T08:54:34Z</time>
      </trkpt>
      <trkpt lat="42.1840930" lon="-8.6132580">
        <ele>51.6</ele>
        <time>2022-06-18T08:54:35Z</time>
      </trkpt>
      <trkpt lat="42.1840630" lon="-8.6132810">
        <ele>50.6</ele>
        <time>2022-06-18T08:54:36Z</time>
      </trkpt>
      <trkpt lat="42.1840330" lon="-8.6133050">
        <ele>50.8</ele>
        <time>2022-06-18T08:54:37Z</time>
      </trkpt>
      <trkpt lat="42.1840030" lon="-8.6133300">
        <ele>50.8</ele>
        <time>2022-06-18T08:54:38Z</time>
      </trkpt>
      <trkpt lat="42.1839730" lon="-8.6133500">
        <ele>50.8</ele>
        <time>2022-06-18T08:54:39Z</time>
      </trkpt>
      <trkpt lat="42.1839430" lon="-8.6133700">
        <ele>50.8</ele>
        <time>2022-06-18T08:54:40Z</time>
      </trkpt>
      <trkpt lat="42.1839110" lon="-8.6133850">
        <ele>51.2</ele>
        <time>2022-06-18T08:54:41Z</time>
      </trkpt>
      <trkpt lat="42.1838830" lon="-8.6134010">
        <ele>51.2</ele>
        <time>2022-06-18T08:54:42Z</time>
      </trkpt>
      <trkpt lat="42.1838560" lon="-8.6134230">
        <ele>51.2</ele>
        <time>2022-06-18T08:54:43Z</time>
      </trkpt>
      <trkpt lat="42.1838310" lon="-8.6134450">
        <ele>51.2</ele>
        <time>2022-06-18T08:54:44Z</time>
      </trkpt>
      <trkpt lat="42.1838060" lon="-8.6134650">
        <ele>51.0</ele>
        <time>2022-06-18T08:54:45Z</time>
      </trkpt>
      <trkpt lat="42.1837830" lon="-8.6134800">
        <ele>51.0</ele>
        <time>2022-06-18T08:54:46Z</time>
      </trkpt>
      <trkpt lat="42.1837580" lon="-8.6134880">
        <ele>51.0</ele>
        <time>2022-06-18T08:54:47Z</time>
      </trkpt>
      <trkpt lat="42.1837360" lon="-8.6135050">
        <ele>51.6</ele>
        <time>2022-06-18T08:54:48Z</time>
      </trkpt>
      <trkpt lat="42.1837180" lon="-8.6135200">
        <ele>51.6</ele>
        <time>2022-06-18T08:54:49Z</time>
      </trkpt>
      <trkpt lat="42.1837010" lon="-8.6135400">
        <ele>51.6</ele>
        <time>2022-06-18T08:54:50Z</time>
      </trkpt>
      <trkpt lat="42.1836850" lon="-8.6135610">
        <ele>51.6</ele>
        <time>2022-06-18T08:54:51Z</time>
      </trkpt>
      <trkpt lat="42.1836710" lon="-8.6135900">
        <ele>51.6</ele>
        <time>2022-06-18T08:54:52Z</time>
      </trkpt>
      <trkpt lat="42.1836580" lon="-8.6136150">
        <ele>52.2</ele>
        <time>2022-06-18T08:54:53Z</time>
      </trkpt>
      <trkpt lat="42.1836450" lon="-8.6136380">
        <ele>52.2</ele>
        <time>2022-06-18T08:54:54Z</time>
      </trkpt>
      <trkpt lat="42.1836360" lon="-8.6136580">
        <ele>52.2</ele>
        <time>2022-06-18T08:54:55Z</time>
      </trkpt>
      <trkpt lat="42.1836350" lon="-8.6136710">
        <ele>52.2</ele>
        <time>2022-06-18T08:54:56Z</time>
      </trkpt>
      <trkpt lat="42.1836350" lon="-8.6136710">
        <ele>52.4</ele>
        <time>2022-06-18T08:54:57Z</time>
      </trkpt>
      <trkpt lat="42.1836430" lon="-8.6137060">
        <ele>51.8</ele>
        <time>2022-06-18T08:55:17Z</time>
      </trkpt>
      <trkpt lat="42.1836450" lon="-8.6137350">
        <ele>51.8</ele>
        <time>2022-06-18T08:55:18Z</time>
      </trkpt>
      <trkpt lat="42.1836510" lon="-8.6137610">
        <ele>51.8</ele>
        <time>2022-06-18T08:55:19Z</time>
      </trkpt>
      <trkpt lat="42.1836610" lon="-8.6137900">
        <ele>51.4</ele>
        <time>2022-06-18T08:55:20Z</time>
      </trkpt>
      <trkpt lat="42.1836800" lon="-8.6138230">
        <ele>51.0</ele>
        <time>2022-06-18T08:55:21Z</time>
      </trkpt>
      <trkpt lat="42.1836980" lon="-8.6138580">
        <ele>51.0</ele>
        <time>2022-06-18T08:55:22Z</time>
      </trkpt>
      <trkpt lat="42.1837160" lon="-8.6138910">
        <ele>51.0</ele>
        <time>2022-06-18T08:55:23Z</time>
      </trkpt>
      <trkpt lat="42.1837380" lon="-8.6139330">
        <ele>51.4</ele>
        <time>2022-06-18T08:55:24Z</time>
      </trkpt>
      <trkpt lat="42.1837650" lon="-8.6139830">
        <ele>51.8</ele>
        <time>2022-06-18T08:55:25Z</time>
      </trkpt>
      <trkpt lat="42.1837960" lon="-8.6140410">
        <ele>51.8</ele>
        <time>2022-06-18T08:55:26Z</time>
      </trkpt>
      <trkpt lat="42.1838310" lon="-8.6141010">
        <ele>51.8</ele>
        <time>2022-06-18T08:55:27Z</time>
      </trkpt>
      <trkpt lat="42.1838680" lon="-8.6141630">
        <ele>50.8</ele>
        <time>2022-06-18T08:55:28Z</time>
      </trkpt>
      <trkpt lat="42.1839010" lon="-8.6142250">
        <ele>50.8</ele>
        <time>2022-06-18T08:55:29Z</time>
      </trkpt>
      <trkpt lat="42.1839350" lon="-8.6142860">
        <ele>50.8</ele>
        <time>2022-06-18T08:55:30Z</time>
      </trkpt>
      <trkpt lat="42.1839650" lon="-8.6143450">
        <ele>50.8</ele>
        <time>2022-06-18T08:55:31Z</time>
      </trkpt>
      <trkpt lat="42.1839960" lon="-8.6144010">
        <ele>50.2</ele>
        <time>2022-06-18T08:55:32Z</time>
      </trkpt>
      <trkpt lat="42.1840230" lon="-8.6144510">
        <ele>50.0</ele>
        <time>2022-06-18T08:55:33Z</time>
      </trkpt>
      <trkpt lat="42.1840480" lon="-8.6144980">
        <ele>50.0</ele>
        <time>2022-06-18T08:55:34Z</time>
      </trkpt>
      <trkpt lat="42.1840660" lon="-8.6145380">
        <ele>50.0</ele>
        <time>2022-06-18T08:55:35Z</time>
      </trkpt>
      <trkpt lat="42.1840810" lon="-8.6145750">
        <ele>51.0</ele>
        <time>2022-06-18T08:55:36Z</time>
      </trkpt>
      <trkpt lat="42.1840930" lon="-8.6146100">
        <ele>52.4</ele>
        <time>2022-06-18T08:55:37Z</time>
      </trkpt>
      <trkpt lat="42.1841010" lon="-8.6146430">
        <ele>52.4</ele>
        <time>2022-06-18T08:55:38Z</time>
      </trkpt>
      <trkpt lat="42.1841050" lon="-8.6146700">
        <ele>52.4</ele>
        <time>2022-06-18T08:55:39Z</time>
      </trkpt>
      <trkpt lat="42.1841010" lon="-8.6146930">
        <ele>52.4</ele>
        <time>2022-06-18T08:55:40Z</time>
      </trkpt>
      <trkpt lat="42.1840960" lon="-8.6147230">
        <ele>53.4</ele>
        <time>2022-06-18T08:55:41Z</time>
      </trkpt>
      <trkpt lat="42.1840860" lon="-8.6147510">
        <ele>53.4</ele>
        <time>2022-06-18T08:55:42Z</time>
      </trkpt>
      <trkpt lat="42.1840750" lon="-8.6147750">
        <ele>53.4</ele>
        <time>2022-06-18T08:55:43Z</time>
      </trkpt>
      <trkpt lat="42.1840650" lon="-8.6147930">
        <ele>54.2</ele>
        <time>2022-06-18T08:55:44Z</time>
      </trkpt>
      <trkpt lat="42.1840530" lon="-8.6148060">
        <ele>54.4</ele>
        <time>2022-06-18T08:55:45Z</time>
      </trkpt>
      <trkpt lat="42.1840350" lon="-8.6148250">
        <ele>54.4</ele>
        <time>2022-06-18T08:55:46Z</time>
      </trkpt>
      <trkpt lat="42.1840180" lon="-8.6148310">
        <ele>54.4</ele>
        <time>2022-06-18T08:55:47Z</time>
      </trkpt>
      <trkpt lat="42.1839950" lon="-8.6148360">
        <ele>54.4</ele>
        <time>2022-06-18T08:55:48Z</time>
      </trkpt>
      <trkpt lat="42.1839700" lon="-8.6148460">
        <ele>55.6</ele>
        <time>2022-06-18T08:55:49Z</time>
      </trkpt>
      <trkpt lat="42.1839500" lon="-8.6148550">
        <ele>55.6</ele>
        <time>2022-06-18T08:55:50Z</time>
      </trkpt>
      <trkpt lat="42.1839300" lon="-8.6148580">
        <ele>55.6</ele>
        <time>2022-06-18T08:55:51Z</time>
      </trkpt>
      <trkpt lat="42.1839080" lon="-8.6148580">
        <ele>55.8</ele>
        <time>2022-06-18T08:55:52Z</time>
      </trkpt>
      <trkpt lat="42.1838880" lon="-8.6148650">
        <ele>56.4</ele>
        <time>2022-06-18T08:55:53Z</time>
      </trkpt>
      <trkpt lat="42.1838650" lon="-8.6148710">
        <ele>56.4</ele>
        <time>2022-06-18T08:55:54Z</time>
      </trkpt>
      <trkpt lat="42.1838400" lon="-8.6148810">
        <ele>56.4</ele>
        <time>2022-06-18T08:55:55Z</time>
      </trkpt>
      <trkpt lat="42.1838210" lon="-8.6148960">
        <ele>56.4</ele>
        <time>2022-06-18T08:55:56Z</time>
      </trkpt>
      <trkpt lat="42.1838050" lon="-8.6149100">
        <ele>56.6</ele>
        <time>2022-06-18T08:55:57Z</time>
      </trkpt>
      <trkpt lat="42.1837880" lon="-8.6149230">
        <ele>56.6</ele>
        <time>2022-06-18T08:55:58Z</time>
      </trkpt>
      <trkpt lat="42.1837710" lon="-8.6149400">
        <ele>56.6</ele>
        <time>2022-06-18T08:55:59Z</time>
      </trkpt>
      <trkpt lat="42.1837560" lon="-8.6149610">
        <ele>56.6</ele>
        <time>2022-06-18T08:56:00Z</time>
      </trkpt>
      <trkpt lat="42.1837410" lon="-8.6149860">
        <ele>57.0</ele>
        <time>2022-06-18T08:56:01Z</time>
      </trkpt>
      <trkpt lat="42.1837280" lon="-8.6150160">
        <ele>57.0</ele>
        <time>2022-06-18T08:56:02Z</time>
      </trkpt>
      <trkpt lat="42.1837160" lon="-8.6150410">
        <ele>57.0</ele>
        <time>2022-06-18T08:56:03Z</time>
      </trkpt>
      <trkpt lat="42.1837060" lon="-8.6150710">
        <ele>57.2</ele>
        <time>2022-06-18T08:56:04Z</time>
      </trkpt>
      <trkpt lat="42.1836960" lon="-8.6151000">
        <ele>57.4</ele>
        <time>2022-06-18T08:56:05Z</time>
      </trkpt>
      <trkpt lat="42.1836900" lon="-8.6151300">
        <ele>57.4</ele>
        <time>2022-06-18T08:56:06Z</time>
      </trkpt>
      <trkpt lat="42.1836830" lon="-8.6151560">
        <ele>57.4</ele>
        <time>2022-06-18T08:56:07Z</time>
      </trkpt>
      <trkpt lat="42.1836810" lon="-8.6151830">
        <ele>58.2</ele>
        <time>2022-06-18T08:56:08Z</time>
      </trkpt>
      <trkpt lat="42.1836780" lon="-8.6152080">
        <ele>58.6</ele>
        <time>2022-06-18T08:56:09Z</time>
      </trkpt>
      <trkpt lat="42.1836730" lon="-8.6152330">
        <ele>58.6</ele>
        <time>2022-06-18T08:56:10Z</time>
      </trkpt>
      <trkpt lat="42.1836700" lon="-8.6152550">
        <ele>58.6</ele>
        <time>2022-06-18T08:56:11Z</time>
      </trkpt>
      <trkpt lat="42.1836680" lon="-8.6152750">
        <ele>58.6</ele>
        <time>2022-06-18T08:56:12Z</time>
      </trkpt>
      <trkpt lat="42.1836700" lon="-8.6152980">
        <ele>58.8</ele>
        <time>2022-06-18T08:56:13Z</time>
      </trkpt>
      <trkpt lat="42.1836710" lon="-8.6153200">
        <ele>58.8</ele>
        <time>2022-06-18T08:56:14Z</time>
      </trkpt>
      <trkpt lat="42.1836730" lon="-8.6153410">
        <ele>58.8</ele>
        <time>2022-06-18T08:56:15Z</time>
      </trkpt>
      <trkpt lat="42.1836780" lon="-8.6153650">
        <ele>59.2</ele>
        <time>2022-06-18T08:56:16Z</time>
      </trkpt>
      <trkpt lat="42.1836760" lon="-8.6153860">
        <ele>59.6</ele>
        <time>2022-06-18T08:56:17Z</time>
      </trkpt>
      <trkpt lat="42.1836760" lon="-8.6154080">
        <ele>59.6</ele>
        <time>2022-06-18T08:56:18Z</time>
      </trkpt>
      <trkpt lat="42.1836780" lon="-8.6154310">
        <ele>59.6</ele>
        <time>2022-06-18T08:56:19Z</time>
      </trkpt>
      <trkpt lat="42.1836800" lon="-8.6154550">
        <ele>60.0</ele>
        <time>2022-06-18T08:56:20Z</time>
      </trkpt>
      <trkpt lat="42.1836810" lon="-8.6154780">
        <ele>60.2</ele>
        <time>2022-06-18T08:56:21Z</time>
      </trkpt>
      <trkpt lat="42.1836810" lon="-8.6155000">
        <ele>60.2</ele>
        <time>2022-06-18T08:56:22Z</time>
      </trkpt>
      <trkpt lat="42.1836860" lon="-8.6155210">
        <ele>60.2</ele>
        <time>2022-06-18T08:56:23Z</time>
      </trkpt>
      <trkpt lat="42.1836930" lon="-8.6155410">
        <ele>60.2</ele>
        <time>2022-06-18T08:56:24Z</time>
      </trkpt>
      <trkpt lat="42.1836960" lon="-8.6155610">
        <ele>60.8</ele>
        <time>2022-06-18T08:56:25Z</time>
      </trkpt>
      <trkpt lat="42.1836950" lon="-8.6155830">
        <ele>60.8</ele>
        <time>2022-06-18T08:56:26Z</time>
      </trkpt>
      <trkpt lat="42.1836930" lon="-8.6156050">
        <ele>60.8</ele>
        <time>2022-06-18T08:56:27Z</time>
      </trkpt>
      <trkpt lat="42.1836880" lon="-8.6156260">
        <ele>61.4</ele>
        <time>2022-06-18T08:56:28Z</time>
      </trkpt>
      <trkpt lat="42.1836830" lon="-8.6156480">
        <ele>61.8</ele>
        <time>2022-06-18T08:56:29Z</time>
      </trkpt>
      <trkpt lat="42.1836780" lon="-8.6156700">
        <ele>61.8</ele>
        <time>2022-06-18T08:56:30Z</time>
      </trkpt>
      <trkpt lat="42.1836750" lon="-8.6156910">
        <ele>61.8</ele>
        <time>2022-06-18T08:56:31Z</time>
      </trkpt>
      <trkpt lat="42.1836710" lon="-8.6157150">
        <ele>61.8</ele>
        <time>2022-06-18T08:56:32Z</time>
      </trkpt>
      <trkpt lat="42.1836660" lon="-8.6157360">
        <ele>62.0</ele>
        <time>2022-06-18T08:56:33Z</time>
      </trkpt>
      <trkpt lat="42.1836630" lon="-8.6157580">
        <ele>62.0</ele>
        <time>2022-06-18T08:56:34Z</time>
      </trkpt>
      <trkpt lat="42.1836580" lon="-8.6157800">
        <ele>62.0</ele>
        <time>2022-06-18T08:56:35Z</time>
      </trkpt>
      <trkpt lat="42.1836510" lon="-8.6158010">
        <ele>62.4</ele>
        <time>2022-06-18T08:56:36Z</time>
      </trkpt>
      <trkpt lat="42.1836430" lon="-8.6158210">
        <ele>62.8</ele>
        <time>2022-06-18T08:56:37Z</time>
      </trkpt>
      <trkpt lat="42.1836350" lon="-8.6158430">
        <ele>62.8</ele>
        <time>2022-06-18T08:56:38Z</time>
      </trkpt>
      <trkpt lat="42.1836250" lon="-8.6158610">
        <ele>62.8</ele>
        <time>2022-06-18T08:56:39Z</time>
      </trkpt>
      <trkpt lat="42.1836180" lon="-8.6158780">
        <ele>63.0</ele>
        <time>2022-06-18T08:56:40Z</time>
      </trkpt>
      <trkpt lat="42.1836110" lon="-8.6158960">
        <ele>63.4</ele>
        <time>2022-06-18T08:56:41Z</time>
      </trkpt>
      <trkpt lat="42.1836050" lon="-8.6159180">
        <ele>63.4</ele>
        <time>2022-06-18T08:56:42Z</time>
      </trkpt>
      <trkpt lat="42.1836000" lon="-8.6159400">
        <ele>63.4</ele>
        <time>2022-06-18T08:56:43Z</time>
      </trkpt>
      <trkpt lat="42.1835950" lon="-8.6159610">
        <ele>63.4</ele>
        <time>2022-06-18T08:56:44Z</time>
      </trkpt>
      <trkpt lat="42.1835900" lon="-8.6159810">
        <ele>64.6</ele>
        <time>2022-06-18T08:56:45Z</time>
      </trkpt>
      <trkpt lat="42.1835810" lon="-8.6160010">
        <ele>64.6</ele>
        <time>2022-06-18T08:56:46Z</time>
      </trkpt>
      <trkpt lat="42.1835750" lon="-8.6160230">
        <ele>64.6</ele>
        <time>2022-06-18T08:56:47Z</time>
      </trkpt>
      <trkpt lat="42.1835700" lon="-8.6160430">
        <ele>64.6</ele>
        <time>2022-06-18T08:56:48Z</time>
      </trkpt>
      <trkpt lat="42.1835650" lon="-8.6160630">
        <ele>65.0</ele>
        <time>2022-06-18T08:56:49Z</time>
      </trkpt>
      <trkpt lat="42.1835630" lon="-8.6160810">
        <ele>65.0</ele>
        <time>2022-06-18T08:56:50Z</time>
      </trkpt>
      <trkpt lat="42.1835610" lon="-8.6161010">
        <ele>65.0</ele>
        <time>2022-06-18T08:56:51Z</time>
      </trkpt>
      <trkpt lat="42.1835600" lon="-8.6161200">
        <ele>66.0</ele>
        <time>2022-06-18T08:56:52Z</time>
      </trkpt>
      <trkpt lat="42.1835560" lon="-8.6161430">
        <ele>65.8</ele>
        <time>2022-06-18T08:56:53Z</time>
      </trkpt>
      <trkpt lat="42.1835560" lon="-8.6161680">
        <ele>65.8</ele>
        <time>2022-06-18T08:56:54Z</time>
      </trkpt>
      <trkpt lat="42.1835550" lon="-8.6161910">
        <ele>65.8</ele>
        <time>2022-06-18T08:56:55Z</time>
      </trkpt>
      <trkpt lat="42.1835550" lon="-8.6162150">
        <ele>65.8</ele>
        <time>2022-06-18T08:56:56Z</time>
      </trkpt>
      <trkpt lat="42.1835550" lon="-8.6162380">
        <ele>66.4</ele>
        <time>2022-06-18T08:56:57Z</time>
      </trkpt>
      <trkpt lat="42.1835560" lon="-8.6162630">
        <ele>66.4</ele>
        <time>2022-06-18T08:56:58Z</time>
      </trkpt>
      <trkpt lat="42.1835560" lon="-8.6162860">
        <ele>66.4</ele>
        <time>2022-06-18T08:56:59Z</time>
      </trkpt>
      <trkpt lat="42.1835560" lon="-8.6163100">
        <ele>67.0</ele>
        <time>2022-06-18T08:57:00Z</time>
      </trkpt>
      <trkpt lat="42.1835550" lon="-8.6163330">
        <ele>67.2</ele>
        <time>2022-06-18T08:57:01Z</time>
      </trkpt>
      <trkpt lat="42.1835510" lon="-8.6163560">
        <ele>67.2</ele>
        <time>2022-06-18T08:57:02Z</time>
      </trkpt>
      <trkpt lat="42.1835480" lon="-8.6163800">
        <ele>67.2</ele>
        <time>2022-06-18T08:57:03Z</time>
      </trkpt>
      <trkpt lat="42.1835460" lon="-8.6164030">
        <ele>67.0</ele>
        <time>2022-06-18T08:57:04Z</time>
      </trkpt>
      <trkpt lat="42.1835460" lon="-8.6164260">
        <ele>67.0</ele>
        <time>2022-06-18T08:57:05Z</time>
      </trkpt>
      <trkpt lat="42.1835450" lon="-8.6164480">
        <ele>67.0</ele>
        <time>2022-06-18T08:57:06Z</time>
      </trkpt>
      <trkpt lat="42.1835430" lon="-8.6164730">
        <ele>67.0</ele>
        <time>2022-06-18T08:57:07Z</time>
      </trkpt>
      <trkpt lat="42.1835410" lon="-8.6165000">
        <ele>67.0</ele>
        <time>2022-06-18T08:57:08Z</time>
      </trkpt>
      <trkpt lat="42.1835400" lon="-8.6165230">
        <ele>67.8</ele>
        <time>2022-06-18T08:57:09Z</time>
      </trkpt>
      <trkpt lat="42.1835350" lon="-8.6165510">
        <ele>67.8</ele>
        <time>2022-06-18T08:57:10Z</time>
      </trkpt>
      <trkpt lat="42.1835330" lon="-8.6165810">
        <ele>67.8</ele>
        <time>2022-06-18T08:57:11Z</time>
      </trkpt>
      <trkpt lat="42.1835300" lon="-8.6166110">
        <ele>67.8</ele>
        <time>2022-06-18T08:57:12Z</time>
      </trkpt>
      <trkpt lat="42.1835250" lon="-8.6166400">
        <ele>68.2</ele>
        <time>2022-06-18T08:57:13Z</time>
      </trkpt>
      <trkpt lat="42.1835180" lon="-8.6166650">
        <ele>68.2</ele>
        <time>2022-06-18T08:57:14Z</time>
      </trkpt>
      <trkpt lat="42.1835130" lon="-8.6166930">
        <ele>68.2</ele>
        <time>2022-06-18T08:57:15Z</time>
      </trkpt>
      <trkpt lat="42.1835100" lon="-8.6167230">
        <ele>68.4</ele>
        <time>2022-06-18T08:57:16Z</time>
      </trkpt>
      <trkpt lat="42.1835030" lon="-8.6167530">
        <ele>68.4</ele>
        <time>2022-06-18T08:57:17Z</time>
      </trkpt>
      <trkpt lat="42.1834930" lon="-8.6167830">
        <ele>68.4</ele>
        <time>2022-06-18T08:57:18Z</time>
      </trkpt>
      <trkpt lat="42.1834830" lon="-8.6168110">
        <ele>68.4</ele>
        <time>2022-06-18T08:57:19Z</time>
      </trkpt>
      <trkpt lat="42.1834710" lon="-8.6168330">
        <ele>68.8</ele>
        <time>2022-06-18T08:57:20Z</time>
      </trkpt>
      <trkpt lat="42.1834610" lon="-8.6168510">
        <ele>68.6</ele>
        <time>2022-06-18T08:57:21Z</time>
      </trkpt>
      <trkpt lat="42.1834460" lon="-8.6168680">
        <ele>68.6</ele>
        <time>2022-06-18T08:57:22Z</time>
      </trkpt>
      <trkpt lat="42.1834310" lon="-8.6168830">
        <ele>68.6</ele>
        <time>2022-06-18T08:57:23Z</time>
      </trkpt>
      <trkpt lat="42.1834200" lon="-8.6169000">
        <ele>68.6</ele>
        <time>2022-06-18T08:57:24Z</time>
      </trkpt>
      <trkpt lat="42.1834080" lon="-8.6169160">
        <ele>68.4</ele>
        <time>2022-06-18T08:57:25Z</time>
      </trkpt>
      <trkpt lat="42.1834010" lon="-8.6169350">
        <ele>68.4</ele>
        <time>2022-06-18T08:57:26Z</time>
      </trkpt>
      <trkpt lat="42.1833900" lon="-8.6169560">
        <ele>68.4</ele>
        <time>2022-06-18T08:57:27Z</time>
      </trkpt>
      <trkpt lat="42.1833750" lon="-8.6169760">
        <ele>68.4</ele>
        <time>2022-06-18T08:57:28Z</time>
      </trkpt>
      <trkpt lat="42.1833580" lon="-8.6169980">
        <ele>68.4</ele>
        <time>2022-06-18T08:57:29Z</time>
      </trkpt>
      <trkpt lat="42.1833410" lon="-8.6170200">
        <ele>68.4</ele>
        <time>2022-06-18T08:57:30Z</time>
      </trkpt>
      <trkpt lat="42.1833230" lon="-8.6170410">
        <ele>68.4</ele>
        <time>2022-06-18T08:57:31Z</time>
      </trkpt>
      <trkpt lat="42.1833060" lon="-8.6170610">
        <ele>68.4</ele>
        <time>2022-06-18T08:57:32Z</time>
      </trkpt>
      <trkpt lat="42.1832900" lon="-8.6170810">
        <ele>68.6</ele>
        <time>2022-06-18T08:57:33Z</time>
      </trkpt>
      <trkpt lat="42.1832710" lon="-8.6171030">
        <ele>68.6</ele>
        <time>2022-06-18T08:57:34Z</time>
      </trkpt>
      <trkpt lat="42.1832550" lon="-8.6171250">
        <ele>68.6</ele>
        <time>2022-06-18T08:57:35Z</time>
      </trkpt>
      <trkpt lat="42.1832380" lon="-8.6171480">
        <ele>68.6</ele>
        <time>2022-06-18T08:57:36Z</time>
      </trkpt>
      <trkpt lat="42.1832210" lon="-8.6171700">
        <ele>69.0</ele>
        <time>2022-06-18T08:57:37Z</time>
      </trkpt>
      <trkpt lat="42.1832060" lon="-8.6171960">
        <ele>69.0</ele>
        <time>2022-06-18T08:57:38Z</time>
      </trkpt>
      <trkpt lat="42.1831930" lon="-8.6172260">
        <ele>69.0</ele>
        <time>2022-06-18T08:57:39Z</time>
      </trkpt>
      <trkpt lat="42.1831800" lon="-8.6172600">
        <ele>69.0</ele>
        <time>2022-06-18T08:57:40Z</time>
      </trkpt>
      <trkpt lat="42.1831630" lon="-8.6172980">
        <ele>68.8</ele>
        <time>2022-06-18T08:57:41Z</time>
      </trkpt>
      <trkpt lat="42.1831460" lon="-8.6173400">
        <ele>68.8</ele>
        <time>2022-06-18T08:57:42Z</time>
      </trkpt>
      <trkpt lat="42.1831360" lon="-8.6173780">
        <ele>68.8</ele>
        <time>2022-06-18T08:57:43Z</time>
      </trkpt>
      <trkpt lat="42.1831300" lon="-8.6174160">
        <ele>68.4</ele>
        <time>2022-06-18T08:57:44Z</time>
      </trkpt>
      <trkpt lat="42.1831250" lon="-8.6174610">
        <ele>68.0</ele>
        <time>2022-06-18T08:57:45Z</time>
      </trkpt>
      <trkpt lat="42.1831250" lon="-8.6175060">
        <ele>68.0</ele>
        <time>2022-06-18T08:57:46Z</time>
      </trkpt>
      <trkpt lat="42.1831310" lon="-8.6175510">
        <ele>68.0</ele>
        <time>2022-06-18T08:57:47Z</time>
      </trkpt>
      <trkpt lat="42.1831400" lon="-8.6175930">
        <ele>68.0</ele>
        <time>2022-06-18T08:57:48Z</time>
      </trkpt>
      <trkpt lat="42.1831530" lon="-8.6176350">
        <ele>68.6</ele>
        <time>2022-06-18T08:57:49Z</time>
      </trkpt>
      <trkpt lat="42.1831700" lon="-8.6176800">
        <ele>68.6</ele>
        <time>2022-06-18T08:57:50Z</time>
      </trkpt>
      <trkpt lat="42.1831850" lon="-8.6177180">
        <ele>68.6</ele>
        <time>2022-06-18T08:57:51Z</time>
      </trkpt>
      <trkpt lat="42.1831960" lon="-8.6177610">
        <ele>67.8</ele>
        <time>2022-06-18T08:57:52Z</time>
      </trkpt>
      <trkpt lat="42.1832080" lon="-8.6178030">
        <ele>68.2</ele>
        <time>2022-06-18T08:57:53Z</time>
      </trkpt>
      <trkpt lat="42.1832210" lon="-8.6178450">
        <ele>68.2</ele>
        <time>2022-06-18T08:57:54Z</time>
      </trkpt>
      <trkpt lat="42.1832400" lon="-8.6178850">
        <ele>68.2</ele>
        <time>2022-06-18T08:57:55Z</time>
      </trkpt>
      <trkpt lat="42.1832560" lon="-8.6179250">
        <ele>68.2</ele>
        <time>2022-06-18T08:57:56Z</time>
      </trkpt>
      <trkpt lat="42.1832750" lon="-8.6179630">
        <ele>68.6</ele>
        <time>2022-06-18T08:57:57Z</time>
      </trkpt>
      <trkpt lat="42.1832910" lon="-8.6180010">
        <ele>68.6</ele>
        <time>2022-06-18T08:57:58Z</time>
      </trkpt>
      <trkpt lat="42.1833100" lon="-8.6180380">
        <ele>68.6</ele>
        <time>2022-06-18T08:57:59Z</time>
      </trkpt>
      <trkpt lat="42.1833250" lon="-8.6180760">
        <ele>68.8</ele>
        <time>2022-06-18T08:58:00Z</time>
      </trkpt>
      <trkpt lat="42.1833410" lon="-8.6181110">
        <ele>68.8</ele>
        <time>2022-06-18T08:58:01Z</time>
      </trkpt>
      <trkpt lat="42.1833600" lon="-8.6181450">
        <ele>68.8</ele>
        <time>2022-06-18T08:58:02Z</time>
      </trkpt>
      <trkpt lat="42.1833830" lon="-8.6181730">
        <ele>68.8</ele>
        <time>2022-06-18T08:58:03Z</time>
      </trkpt>
      <trkpt lat="42.1834050" lon="-8.6181980">
        <ele>69.4</ele>
        <time>2022-06-18T08:58:04Z</time>
      </trkpt>
      <trkpt lat="42.1834260" lon="-8.6182200">
        <ele>69.6</ele>
        <time>2022-06-18T08:58:05Z</time>
      </trkpt>
      <trkpt lat="42.1834500" lon="-8.6182350">
        <ele>69.6</ele>
        <time>2022-06-18T08:58:06Z</time>
      </trkpt>
      <trkpt lat="42.1834730" lon="-8.6182480">
        <ele>69.6</ele>
        <time>2022-06-18T08:58:07Z</time>
      </trkpt>
      <trkpt lat="42.1835010" lon="-8.6182550">
        <ele>70.0</ele>
        <time>2022-06-18T08:58:08Z</time>
      </trkpt>
      <trkpt lat="42.1835300" lon="-8.6182610">
        <ele>70.2</ele>
        <time>2022-06-18T08:58:09Z</time>
      </trkpt>
      <trkpt lat="42.1835580" lon="-8.6182660">
        <ele>70.2</ele>
        <time>2022-06-18T08:58:10Z</time>
      </trkpt>
      <trkpt lat="42.1835860" lon="-8.6182730">
        <ele>70.2</ele>
        <time>2022-06-18T08:58:11Z</time>
      </trkpt>
      <trkpt lat="42.1836150" lon="-8.6182780">
        <ele>70.2</ele>
        <time>2022-06-18T08:58:12Z</time>
      </trkpt>
      <trkpt lat="42.1836430" lon="-8.6182810">
        <ele>70.8</ele>
        <time>2022-06-18T08:58:13Z</time>
      </trkpt>
      <trkpt lat="42.1836700" lon="-8.6182850">
        <ele>70.8</ele>
        <time>2022-06-18T08:58:14Z</time>
      </trkpt>
      <trkpt lat="42.1836980" lon="-8.6182900">
        <ele>70.8</ele>
        <time>2022-06-18T08:58:15Z</time>
      </trkpt>
      <trkpt lat="42.1837250" lon="-8.6182950">
        <ele>70.8</ele>
        <time>2022-06-18T08:58:16Z</time>
      </trkpt>
      <trkpt lat="42.1837500" lon="-8.6183010">
        <ele>71.2</ele>
        <time>2022-06-18T08:58:17Z</time>
      </trkpt>
      <trkpt lat="42.1837750" lon="-8.6183060">
        <ele>71.2</ele>
        <time>2022-06-18T08:58:18Z</time>
      </trkpt>
      <trkpt lat="42.1838000" lon="-8.6183110">
        <ele>71.2</ele>
        <time>2022-06-18T08:58:19Z</time>
      </trkpt>
      <trkpt lat="42.1838250" lon="-8.6183180">
        <ele>71.2</ele>
        <time>2022-06-18T08:58:20Z</time>
      </trkpt>
      <trkpt lat="42.1838500" lon="-8.6183260">
        <ele>70.8</ele>
        <time>2022-06-18T08:58:21Z</time>
      </trkpt>
      <trkpt lat="42.1838750" lon="-8.6183360">
        <ele>70.8</ele>
        <time>2022-06-18T08:58:22Z</time>
      </trkpt>
      <trkpt lat="42.1838960" lon="-8.6183530">
        <ele>70.8</ele>
        <time>2022-06-18T08:58:23Z</time>
      </trkpt>
      <trkpt lat="42.1839180" lon="-8.6183710">
        <ele>70.6</ele>
        <time>2022-06-18T08:58:24Z</time>
      </trkpt>
      <trkpt lat="42.1839410" lon="-8.6183850">
        <ele>70.6</ele>
        <time>2022-06-18T08:58:25Z</time>
      </trkpt>
      <trkpt lat="42.1839680" lon="-8.6183900">
        <ele>70.6</ele>
        <time>2022-06-18T08:58:26Z</time>
      </trkpt>
      <trkpt lat="42.1839950" lon="-8.6183850">
        <ele>70.6</ele>
        <time>2022-06-18T08:58:27Z</time>
      </trkpt>
      <trkpt lat="42.1840200" lon="-8.6183730">
        <ele>70.6</ele>
        <time>2022-06-18T08:58:28Z</time>
      </trkpt>
      <trkpt lat="42.1840480" lon="-8.6183600">
        <ele>70.8</ele>
        <time>2022-06-18T08:58:29Z</time>
      </trkpt>
      <trkpt lat="42.1840750" lon="-8.6183400">
        <ele>70.8</ele>
        <time>2022-06-18T08:58:30Z</time>
      </trkpt>
      <trkpt lat="42.1841010" lon="-8.6183210">
        <ele>70.8</ele>
        <time>2022-06-18T08:58:31Z</time>
      </trkpt>
      <trkpt lat="42.1841280" lon="-8.6183050">
        <ele>70.4</ele>
        <time>2022-06-18T08:58:32Z</time>
      </trkpt>
      <trkpt lat="42.1841530" lon="-8.6182880">
        <ele>70.4</ele>
        <time>2022-06-18T08:58:33Z</time>
      </trkpt>
      <trkpt lat="42.1841780" lon="-8.6182750">
        <ele>70.4</ele>
        <time>2022-06-18T08:58:34Z</time>
      </trkpt>
      <trkpt lat="42.1842030" lon="-8.6182600">
        <ele>70.4</ele>
        <time>2022-06-18T08:58:35Z</time>
      </trkpt>
      <trkpt lat="42.1842300" lon="-8.6182450">
        <ele>71.0</ele>
        <time>2022-06-18T08:58:36Z</time>
      </trkpt>
      <trkpt lat="42.1842560" lon="-8.6182330">
        <ele>71.0</ele>
        <time>2022-06-18T08:58:37Z</time>
      </trkpt>
      <trkpt lat="42.1842850" lon="-8.6182230">
        <ele>71.0</ele>
        <time>2022-06-18T08:58:38Z</time>
      </trkpt>
      <trkpt lat="42.1843150" lon="-8.6182160">
        <ele>71.0</ele>
        <time>2022-06-18T08:58:39Z</time>
      </trkpt>
      <trkpt lat="42.1843410" lon="-8.6182100">
        <ele>71.0</ele>
        <time>2022-06-18T08:58:40Z</time>
      </trkpt>
      <trkpt lat="42.1843700" lon="-8.6182050">
        <ele>71.0</ele>
        <time>2022-06-18T08:58:41Z</time>
      </trkpt>
      <trkpt lat="42.1843960" lon="-8.6182010">
        <ele>71.0</ele>
        <time>2022-06-18T08:58:42Z</time>
      </trkpt>
      <trkpt lat="42.1844230" lon="-8.6181950">
        <ele>71.0</ele>
        <time>2022-06-18T08:58:43Z</time>
      </trkpt>
      <trkpt lat="42.1844500" lon="-8.6181850">
        <ele>71.0</ele>
        <time>2022-06-18T08:58:44Z</time>
      </trkpt>
      <trkpt lat="42.1844760" lon="-8.6181760">
        <ele>71.4</ele>
        <time>2022-06-18T08:58:45Z</time>
      </trkpt>
      <trkpt lat="42.1845050" lon="-8.6181650">
        <ele>71.4</ele>
        <time>2022-06-18T08:58:46Z</time>
      </trkpt>
      <trkpt lat="42.1845310" lon="-8.6181500">
        <ele>71.4</ele>
        <time>2022-06-18T08:58:47Z</time>
      </trkpt>
      <trkpt lat="42.1845580" lon="-8.6181350">
        <ele>71.4</ele>
        <time>2022-06-18T08:58:48Z</time>
      </trkpt>
      <trkpt lat="42.1845800" lon="-8.6181160">
        <ele>71.4</ele>
        <time>2022-06-18T08:58:49Z</time>
      </trkpt>
      <trkpt lat="42.1846030" lon="-8.6180950">
        <ele>71.4</ele>
        <time>2022-06-18T08:58:50Z</time>
      </trkpt>
      <trkpt lat="42.1846260" lon="-8.6180760">
        <ele>71.4</ele>
        <time>2022-06-18T08:58:51Z</time>
      </trkpt>
      <trkpt lat="42.1846500" lon="-8.6180550">
        <ele>71.6</ele>
        <time>2022-06-18T08:58:52Z</time>
      </trkpt>
      <trkpt lat="42.1846760" lon="-8.6180300">
        <ele>72.2</ele>
        <time>2022-06-18T08:58:53Z</time>
      </trkpt>
      <trkpt lat="42.1847000" lon="-8.6180010">
        <ele>72.2</ele>
        <time>2022-06-18T08:58:54Z</time>
      </trkpt>
      <trkpt lat="42.1847260" lon="-8.6179730">
        <ele>72.2</ele>
        <time>2022-06-18T08:58:55Z</time>
      </trkpt>
      <trkpt lat="42.1847510" lon="-8.6179400">
        <ele>71.2</ele>
        <time>2022-06-18T08:58:56Z</time>
      </trkpt>
      <trkpt lat="42.1847810" lon="-8.6179050">
        <ele>70.8</ele>
        <time>2022-06-18T08:58:57Z</time>
      </trkpt>
      <trkpt lat="42.1848130" lon="-8.6178680">
        <ele>70.8</ele>
        <time>2022-06-18T08:58:58Z</time>
      </trkpt>
      <trkpt lat="42.1848430" lon="-8.6178200">
        <ele>70.8</ele>
        <time>2022-06-18T08:58:59Z</time>
      </trkpt>
      <trkpt lat="42.1848760" lon="-8.6177680">
        <ele>69.8</ele>
        <time>2022-06-18T08:59:00Z</time>
      </trkpt>
      <trkpt lat="42.1849200" lon="-8.6177180">
        <ele>67.6</ele>
        <time>2022-06-18T08:59:01Z</time>
      </trkpt>
      <trkpt lat="42.1849660" lon="-8.6176630">
        <ele>67.6</ele>
        <time>2022-06-18T08:59:02Z</time>
      </trkpt>
      <trkpt lat="42.1850150" lon="-8.6175950">
        <ele>67.6</ele>
        <time>2022-06-18T08:59:03Z</time>
      </trkpt>
      <trkpt lat="42.1850610" lon="-8.6175180">
        <ele>66.6</ele>
        <time>2022-06-18T08:59:04Z</time>
      </trkpt>
      <trkpt lat="42.1851080" lon="-8.6174350">
        <ele>64.0</ele>
        <time>2022-06-18T08:59:05Z</time>
      </trkpt>
      <trkpt lat="42.1851600" lon="-8.6173460">
        <ele>64.0</ele>
        <time>2022-06-18T08:59:06Z</time>
      </trkpt>
      <trkpt lat="42.1852110" lon="-8.6172600">
        <ele>64.0</ele>
        <time>2022-06-18T08:59:07Z</time>
      </trkpt>
      <trkpt lat="42.1852630" lon="-8.6171730">
        <ele>63.0</ele>
        <time>2022-06-18T08:59:08Z</time>
      </trkpt>
      <trkpt lat="42.1853100" lon="-8.6170880">
        <ele>61.8</ele>
        <time>2022-06-18T08:59:09Z</time>
      </trkpt>
      <trkpt lat="42.1853480" lon="-8.6170050">
        <ele>61.8</ele>
        <time>2022-06-18T08:59:10Z</time>
      </trkpt>
      <trkpt lat="42.1853850" lon="-8.6169260">
        <ele>61.8</ele>
        <time>2022-06-18T08:59:11Z</time>
      </trkpt>
      <trkpt lat="42.1854210" lon="-8.6168530">
        <ele>62.8</ele>
        <time>2022-06-18T08:59:12Z</time>
      </trkpt>
      <trkpt lat="42.1854580" lon="-8.6167850">
        <ele>64.8</ele>
        <time>2022-06-18T08:59:13Z</time>
      </trkpt>
      <trkpt lat="42.1854960" lon="-8.6167210">
        <ele>64.8</ele>
        <time>2022-06-18T08:59:14Z</time>
      </trkpt>
      <trkpt lat="42.1855300" lon="-8.6166630">
        <ele>64.8</ele>
        <time>2022-06-18T08:59:15Z</time>
      </trkpt>
      <trkpt lat="42.1855630" lon="-8.6166080">
        <ele>65.4</ele>
        <time>2022-06-18T08:59:16Z</time>
      </trkpt>
      <trkpt lat="42.1855960" lon="-8.6165500">
        <ele>64.4</ele>
        <time>2022-06-18T08:59:17Z</time>
      </trkpt>
      <trkpt lat="42.1856300" lon="-8.6164910">
        <ele>64.4</ele>
        <time>2022-06-18T08:59:18Z</time>
      </trkpt>
      <trkpt lat="42.1856650" lon="-8.6164300">
        <ele>64.4</ele>
        <time>2022-06-18T08:59:19Z</time>
      </trkpt>
      <trkpt lat="42.1857000" lon="-8.6163680">
        <ele>64.4</ele>
        <time>2022-06-18T08:59:20Z</time>
      </trkpt>
      <trkpt lat="42.1857360" lon="-8.6163050">
        <ele>63.8</ele>
        <time>2022-06-18T08:59:21Z</time>
      </trkpt>
      <trkpt lat="42.1857730" lon="-8.6162430">
        <ele>63.8</ele>
        <time>2022-06-18T08:59:22Z</time>
      </trkpt>
      <trkpt lat="42.1858130" lon="-8.6161860">
        <ele>63.8</ele>
        <time>2022-06-18T08:59:23Z</time>
      </trkpt>
      <trkpt lat="42.1858550" lon="-8.6161360">
        <ele>63.8</ele>
        <time>2022-06-18T08:59:24Z</time>
      </trkpt>
      <trkpt lat="42.1859010" lon="-8.6160880">
        <ele>65.0</ele>
        <time>2022-06-18T08:59:25Z</time>
      </trkpt>
      <trkpt lat="42.1859500" lon="-8.6160450">
        <ele>65.0</ele>
        <time>2022-06-18T08:59:26Z</time>
      </trkpt>
      <trkpt lat="42.1859980" lon="-8.6160050">
        <ele>65.0</ele>
        <time>2022-06-18T08:59:27Z</time>
      </trkpt>
      <trkpt lat="42.1860480" lon="-8.6159660">
        <ele>64.8</ele>
        <time>2022-06-18T08:59:28Z</time>
      </trkpt>
      <trkpt lat="42.1860980" lon="-8.6159250">
        <ele>65.2</ele>
        <time>2022-06-18T08:59:29Z</time>
      </trkpt>
      <trkpt lat="42.1861430" lon="-8.6158800">
        <ele>65.2</ele>
        <time>2022-06-18T08:59:30Z</time>
      </trkpt>
      <trkpt lat="42.1861900" lon="-8.6158300">
        <ele>65.2</ele>
        <time>2022-06-18T08:59:31Z</time>
      </trkpt>
      <trkpt lat="42.1862360" lon="-8.6157750">
        <ele>64.2</ele>
        <time>2022-06-18T08:59:32Z</time>
      </trkpt>
      <trkpt lat="42.1862760" lon="-8.6157100">
        <ele>63.0</ele>
        <time>2022-06-18T08:59:33Z</time>
      </trkpt>
      <trkpt lat="42.1863060" lon="-8.6156360">
        <ele>63.0</ele>
        <time>2022-06-18T08:59:34Z</time>
      </trkpt>
      <trkpt lat="42.1863330" lon="-8.6155580">
        <ele>63.0</ele>
        <time>2022-06-18T08:59:35Z</time>
      </trkpt>
      <trkpt lat="42.1863630" lon="-8.6154800">
        <ele>62.0</ele>
        <time>2022-06-18T08:59:36Z</time>
      </trkpt>
      <trkpt lat="42.1864010" lon="-8.6154060">
        <ele>61.8</ele>
        <time>2022-06-18T08:59:37Z</time>
      </trkpt>
      <trkpt lat="42.1864480" lon="-8.6153400">
        <ele>61.8</ele>
        <time>2022-06-18T08:59:38Z</time>
      </trkpt>
      <trkpt lat="42.1865050" lon="-8.6152800">
        <ele>61.8</ele>
        <time>2022-06-18T08:59:39Z</time>
      </trkpt>
      <trkpt lat="42.1865700" lon="-8.6152310">
        <ele>60.8</ele>
        <time>2022-06-18T08:59:40Z</time>
      </trkpt>
      <trkpt lat="42.1866410" lon="-8.6151960">
        <ele>58.6</ele>
        <time>2022-06-18T08:59:41Z</time>
      </trkpt>
      <trkpt lat="42.1867200" lon="-8.6151810">
        <ele>58.6</ele>
        <time>2022-06-18T08:59:42Z</time>
      </trkpt>
      <trkpt lat="42.1868060" lon="-8.6151780">
        <ele>58.6</ele>
        <time>2022-06-18T08:59:43Z</time>
      </trkpt>
      <trkpt lat="42.1868950" lon="-8.6151800">
        <ele>58.6</ele>
        <time>2022-06-18T08:59:44Z</time>
      </trkpt>
      <trkpt lat="42.1869950" lon="-8.6151760">
        <ele>54.8</ele>
        <time>2022-06-18T08:59:45Z</time>
      </trkpt>
      <trkpt lat="42.1870980" lon="-8.6151630">
        <ele>54.8</ele>
        <time>2022-06-18T08:59:46Z</time>
      </trkpt>
      <trkpt lat="42.1871910" lon="-8.6151330">
        <ele>54.8</ele>
        <time>2022-06-18T08:59:47Z</time>
      </trkpt>
      <trkpt lat="42.1872710" lon="-8.6150910">
        <ele>53.8</ele>
        <time>2022-06-18T08:59:48Z</time>
      </trkpt>
      <trkpt lat="42.1873450" lon="-8.6150410">
        <ele>53.4</ele>
        <time>2022-06-18T08:59:49Z</time>
      </trkpt>
      <trkpt lat="42.1874150" lon="-8.6149780">
        <ele>53.4</ele>
        <time>2022-06-18T08:59:50Z</time>
      </trkpt>
      <trkpt lat="42.1874850" lon="-8.6149110">
        <ele>53.4</ele>
        <time>2022-06-18T08:59:51Z</time>
      </trkpt>
      <trkpt lat="42.1875510" lon="-8.6148560">
        <ele>52.8</ele>
        <time>2022-06-18T08:59:52Z</time>
      </trkpt>
      <trkpt lat="42.1876210" lon="-8.6148110">
        <ele>53.2</ele>
        <time>2022-06-18T08:59:53Z</time>
      </trkpt>
      <trkpt lat="42.1876900" lon="-8.6147710">
        <ele>53.2</ele>
        <time>2022-06-18T08:59:54Z</time>
      </trkpt>
      <trkpt lat="42.1877600" lon="-8.6147460">
        <ele>53.2</ele>
        <time>2022-06-18T08:59:55Z</time>
      </trkpt>
      <trkpt lat="42.1878310" lon="-8.6147360">
        <ele>53.2</ele>
        <time>2022-06-18T08:59:56Z</time>
      </trkpt>
      <trkpt lat="42.1879000" lon="-8.6147310">
        <ele>54.4</ele>
        <time>2022-06-18T08:59:57Z</time>
      </trkpt>
      <trkpt lat="42.1879660" lon="-8.6147300">
        <ele>54.4</ele>
        <time>2022-06-18T08:59:58Z</time>
      </trkpt>
      <trkpt lat="42.1880300" lon="-8.6147310">
        <ele>54.4</ele>
        <time>2022-06-18T08:59:59Z</time>
      </trkpt>
      <trkpt lat="42.1880900" lon="-8.6147350">
        <ele>54.4</ele>
        <time>2022-06-18T09:00:00Z</time>
      </trkpt>
      <trkpt lat="42.1881430" lon="-8.6147380">
        <ele>55.6</ele>
        <time>2022-06-18T09:00:01Z</time>
      </trkpt>
      <trkpt lat="42.1881900" lon="-8.6147350">
        <ele>55.6</ele>
        <time>2022-06-18T09:00:02Z</time>
      </trkpt>
      <trkpt lat="42.1882330" lon="-8.6147350">
        <ele>55.6</ele>
        <time>2022-06-18T09:00:03Z</time>
      </trkpt>
      <trkpt lat="42.1882710" lon="-8.6147280">
        <ele>56.6</ele>
        <time>2022-06-18T09:00:04Z</time>
      </trkpt>
      <trkpt lat="42.1883080" lon="-8.6147230">
        <ele>56.8</ele>
        <time>2022-06-18T09:00:05Z</time>
      </trkpt>
      <trkpt lat="42.1883400" lon="-8.6147150">
        <ele>56.8</ele>
        <time>2022-06-18T09:00:06Z</time>
      </trkpt>
      <trkpt lat="42.1883710" lon="-8.6147030">
        <ele>56.8</ele>
        <time>2022-06-18T09:00:07Z</time>
      </trkpt>
      <trkpt lat="42.1884010" lon="-8.6146900">
        <ele>57.8</ele>
        <time>2022-06-18T09:00:08Z</time>
      </trkpt>
      <trkpt lat="42.1884260" lon="-8.6146810">
        <ele>58.2</ele>
        <time>2022-06-18T09:00:09Z</time>
      </trkpt>
      <trkpt lat="42.1884460" lon="-8.6146760">
        <ele>58.2</ele>
        <time>2022-06-18T09:00:10Z</time>
      </trkpt>
      <trkpt lat="42.1884630" lon="-8.6146630">
        <ele>58.2</ele>
        <time>2022-06-18T09:00:11Z</time>
      </trkpt>
      <trkpt lat="42.1884880" lon="-8.6146480">
        <ele>58.8</ele>
        <time>2022-06-18T09:00:12Z</time>
      </trkpt>
      <trkpt lat="42.1885210" lon="-8.6146310">
        <ele>59.4</ele>
        <time>2022-06-18T09:00:13Z</time>
      </trkpt>
      <trkpt lat="42.1885500" lon="-8.6146150">
        <ele>59.4</ele>
        <time>2022-06-18T09:00:14Z</time>
      </trkpt>
      <trkpt lat="42.1885800" lon="-8.6146000">
        <ele>59.4</ele>
        <time>2022-06-18T09:00:15Z</time>
      </trkpt>
      <trkpt lat="42.1886050" lon="-8.6145850">
        <ele>59.4</ele>
        <time>2022-06-18T09:00:16Z</time>
      </trkpt>
      <trkpt lat="42.1886250" lon="-8.6145630">
        <ele>59.8</ele>
        <time>2022-06-18T09:00:17Z</time>
      </trkpt>
      <trkpt lat="42.1886400" lon="-8.6145450">
        <ele>59.8</ele>
        <time>2022-06-18T09:00:18Z</time>
      </trkpt>
      <trkpt lat="42.1886610" lon="-8.6145280">
        <ele>59.8</ele>
        <time>2022-06-18T09:00:19Z</time>
      </trkpt>
      <trkpt lat="42.1886880" lon="-8.6145100">
        <ele>59.8</ele>
        <time>2022-06-18T09:00:20Z</time>
      </trkpt>
      <trkpt lat="42.1887110" lon="-8.6144930">
        <ele>60.2</ele>
        <time>2022-06-18T09:00:21Z</time>
      </trkpt>
      <trkpt lat="42.1887360" lon="-8.6144710">
        <ele>60.2</ele>
        <time>2022-06-18T09:00:22Z</time>
      </trkpt>
      <trkpt lat="42.1887600" lon="-8.6144500">
        <ele>60.2</ele>
        <time>2022-06-18T09:00:23Z</time>
      </trkpt>
      <trkpt lat="42.1887830" lon="-8.6144260">
        <ele>60.2</ele>
        <time>2022-06-18T09:00:24Z</time>
      </trkpt>
      <trkpt lat="42.1888050" lon="-8.6144030">
        <ele>60.8</ele>
        <time>2022-06-18T09:00:25Z</time>
      </trkpt>
      <trkpt lat="42.1888280" lon="-8.6143810">
        <ele>60.8</ele>
        <time>2022-06-18T09:00:26Z</time>
      </trkpt>
      <trkpt lat="42.1888510" lon="-8.6143580">
        <ele>60.8</ele>
        <time>2022-06-18T09:00:27Z</time>
      </trkpt>
      <trkpt lat="42.1888680" lon="-8.6143350">
        <ele>60.8</ele>
        <time>2022-06-18T09:00:28Z</time>
      </trkpt>
      <trkpt lat="42.1888880" lon="-8.6143100">
        <ele>61.0</ele>
        <time>2022-06-18T09:00:29Z</time>
      </trkpt>
      <trkpt lat="42.1889080" lon="-8.6142810">
        <ele>61.0</ele>
        <time>2022-06-18T09:00:30Z</time>
      </trkpt>
      <trkpt lat="42.1889250" lon="-8.6142550">
        <ele>61.0</ele>
        <time>2022-06-18T09:00:31Z</time>
      </trkpt>
      <trkpt lat="42.1889400" lon="-8.6142310">
        <ele>61.8</ele>
        <time>2022-06-18T09:00:32Z</time>
      </trkpt>
      <trkpt lat="42.1889530" lon="-8.6142050">
        <ele>62.4</ele>
        <time>2022-06-18T09:00:33Z</time>
      </trkpt>
      <trkpt lat="42.1889660" lon="-8.6141800">
        <ele>62.4</ele>
        <time>2022-06-18T09:00:34Z</time>
      </trkpt>
      <trkpt lat="42.1889780" lon="-8.6141550">
        <ele>62.4</ele>
        <time>2022-06-18T09:00:35Z</time>
      </trkpt>
      <trkpt lat="42.1889900" lon="-8.6141280">
        <ele>62.4</ele>
        <time>2022-06-18T09:00:36Z</time>
      </trkpt>
      <trkpt lat="42.1890030" lon="-8.6141000">
        <ele>62.6</ele>
        <time>2022-06-18T09:00:37Z</time>
      </trkpt>
      <trkpt lat="42.1890160" lon="-8.6140700">
        <ele>62.6</ele>
        <time>2022-06-18T09:00:38Z</time>
      </trkpt>
      <trkpt lat="42.1890280" lon="-8.6140430">
        <ele>62.6</ele>
        <time>2022-06-18T09:00:39Z</time>
      </trkpt>
      <trkpt lat="42.1890410" lon="-8.6140130">
        <ele>63.6</ele>
        <time>2022-06-18T09:00:40Z</time>
      </trkpt>
      <trkpt lat="42.1890510" lon="-8.6139810">
        <ele>63.4</ele>
        <time>2022-06-18T09:00:41Z</time>
      </trkpt>
      <trkpt lat="42.1890630" lon="-8.6139500">
        <ele>63.4</ele>
        <time>2022-06-18T09:00:42Z</time>
      </trkpt>
      <trkpt lat="42.1890750" lon="-8.6139210">
        <ele>63.4</ele>
        <time>2022-06-18T09:00:43Z</time>
      </trkpt>
      <trkpt lat="42.1890880" lon="-8.6138910">
        <ele>63.4</ele>
        <time>2022-06-18T09:00:44Z</time>
      </trkpt>
      <trkpt lat="42.1891010" lon="-8.6138560">
        <ele>63.8</ele>
        <time>2022-06-18T09:00:45Z</time>
      </trkpt>
      <trkpt lat="42.1891110" lon="-8.6138250">
        <ele>63.8</ele>
        <time>2022-06-18T09:00:46Z</time>
      </trkpt>
      <trkpt lat="42.1891250" lon="-8.6137910">
        <ele>63.8</ele>
        <time>2022-06-18T09:00:47Z</time>
      </trkpt>
      <trkpt lat="42.1891380" lon="-8.6137600">
        <ele>64.0</ele>
        <time>2022-06-18T09:00:48Z</time>
      </trkpt>
      <trkpt lat="42.1891530" lon="-8.6137310">
        <ele>64.4</ele>
        <time>2022-06-18T09:00:49Z</time>
      </trkpt>
      <trkpt lat="42.1891710" lon="-8.6137030">
        <ele>64.4</ele>
        <time>2022-06-18T09:00:50Z</time>
      </trkpt>
      <trkpt lat="42.1891900" lon="-8.6136750">
        <ele>64.4</ele>
        <time>2022-06-18T09:00:51Z</time>
      </trkpt>
      <trkpt lat="42.1892060" lon="-8.6136500">
        <ele>64.4</ele>
        <time>2022-06-18T09:00:52Z</time>
      </trkpt>
      <trkpt lat="42.1892250" lon="-8.6136230">
        <ele>63.8</ele>
        <time>2022-06-18T09:00:53Z</time>
      </trkpt>
      <trkpt lat="42.1892430" lon="-8.6135930">
        <ele>63.8</ele>
        <time>2022-06-18T09:00:54Z</time>
      </trkpt>
      <trkpt lat="42.1892600" lon="-8.6135630">
        <ele>63.8</ele>
        <time>2022-06-18T09:00:55Z</time>
      </trkpt>
      <trkpt lat="42.1892800" lon="-8.6135350">
        <ele>64.0</ele>
        <time>2022-06-18T09:00:56Z</time>
      </trkpt>
      <trkpt lat="42.1893030" lon="-8.6135060">
        <ele>64.4</ele>
        <time>2022-06-18T09:00:57Z</time>
      </trkpt>
      <trkpt lat="42.1893250" lon="-8.6134800">
        <ele>64.4</ele>
        <time>2022-06-18T09:00:58Z</time>
      </trkpt>
      <trkpt lat="42.1893460" lon="-8.6134530">
        <ele>64.4</ele>
        <time>2022-06-18T09:00:59Z</time>
      </trkpt>
      <trkpt lat="42.1893700" lon="-8.6134260">
        <ele>64.4</ele>
        <time>2022-06-18T09:01:00Z</time>
      </trkpt>
      <trkpt lat="42.1893910" lon="-8.6134000">
        <ele>64.4</ele>
        <time>2022-06-18T09:01:01Z</time>
      </trkpt>
      <trkpt lat="42.1894150" lon="-8.6133730">
        <ele>64.4</ele>
        <time>2022-06-18T09:01:02Z</time>
      </trkpt>
      <trkpt lat="42.1894360" lon="-8.6133460">
        <ele>64.4</ele>
        <time>2022-06-18T09:01:03Z</time>
      </trkpt>
      <trkpt lat="42.1894600" lon="-8.6133200">
        <ele>64.4</ele>
        <time>2022-06-18T09:01:04Z</time>
      </trkpt>
      <trkpt lat="42.1894850" lon="-8.6132930">
        <ele>64.8</ele>
        <time>2022-06-18T09:01:05Z</time>
      </trkpt>
      <trkpt lat="42.1895080" lon="-8.6132650">
        <ele>64.8</ele>
        <time>2022-06-18T09:01:06Z</time>
      </trkpt>
      <trkpt lat="42.1895330" lon="-8.6132380">
        <ele>64.8</ele>
        <time>2022-06-18T09:01:07Z</time>
      </trkpt>
      <trkpt lat="42.1895610" lon="-8.6132110">
        <ele>64.8</ele>
        <time>2022-06-18T09:01:08Z</time>
      </trkpt>
      <trkpt lat="42.1895900" lon="-8.6131850">
        <ele>65.4</ele>
        <time>2022-06-18T09:01:09Z</time>
      </trkpt>
      <trkpt lat="42.1896160" lon="-8.6131580">
        <ele>65.4</ele>
        <time>2022-06-18T09:01:10Z</time>
      </trkpt>
      <trkpt lat="42.1896410" lon="-8.6131330">
        <ele>65.4</ele>
        <time>2022-06-18T09:01:11Z</time>
      </trkpt>
      <trkpt lat="42.1896680" lon="-8.6131110">
        <ele>65.4</ele>
        <time>2022-06-18T09:01:12Z</time>
      </trkpt>
      <trkpt lat="42.1896950" lon="-8.6130910">
        <ele>65.6</ele>
        <time>2022-06-18T09:01:13Z</time>
      </trkpt>
      <trkpt lat="42.1897250" lon="-8.6130710">
        <ele>65.6</ele>
        <time>2022-06-18T09:01:14Z</time>
      </trkpt>
      <trkpt lat="42.1897510" lon="-8.6130500">
        <ele>65.6</ele>
        <time>2022-06-18T09:01:15Z</time>
      </trkpt>
      <trkpt lat="42.1897760" lon="-8.6130250">
        <ele>65.6</ele>
        <time>2022-06-18T09:01:16Z</time>
      </trkpt>
      <trkpt lat="42.1898010" lon="-8.6130080">
        <ele>66.0</ele>
        <time>2022-06-18T09:01:17Z</time>
      </trkpt>
      <trkpt lat="42.1898250" lon="-8.6129980">
        <ele>66.0</ele>
        <time>2022-06-18T09:01:18Z</time>
      </trkpt>
      <trkpt lat="42.1898460" lon="-8.6129850">
        <ele>66.0</ele>
        <time>2022-06-18T09:01:19Z</time>
      </trkpt>
      <trkpt lat="42.1898700" lon="-8.6129680">
        <ele>66.0</ele>
        <time>2022-06-18T09:01:20Z</time>
      </trkpt>
      <trkpt lat="42.1898960" lon="-8.6129510">
        <ele>66.0</ele>
        <time>2022-06-18T09:01:21Z</time>
      </trkpt>
      <trkpt lat="42.1899250" lon="-8.6129350">
        <ele>66.0</ele>
        <time>2022-06-18T09:01:22Z</time>
      </trkpt>
      <trkpt lat="42.1899530" lon="-8.6129200">
        <ele>66.0</ele>
        <time>2022-06-18T09:01:23Z</time>
      </trkpt>
      <trkpt lat="42.1899830" lon="-8.6129010">
        <ele>66.4</ele>
        <time>2022-06-18T09:01:24Z</time>
      </trkpt>
      <trkpt lat="42.1900110" lon="-8.6128850">
        <ele>66.4</ele>
        <time>2022-06-18T09:01:25Z</time>
      </trkpt>
      <trkpt lat="42.1900400" lon="-8.6128660">
        <ele>66.4</ele>
        <time>2022-06-18T09:01:26Z</time>
      </trkpt>
      <trkpt lat="42.1900680" lon="-8.6128510">
        <ele>66.4</ele>
        <time>2022-06-18T09:01:27Z</time>
      </trkpt>
      <trkpt lat="42.1901000" lon="-8.6128410">
        <ele>67.2</ele>
        <time>2022-06-18T09:01:28Z</time>
      </trkpt>
      <trkpt lat="42.1901300" lon="-8.6128280">
        <ele>67.2</ele>
        <time>2022-06-18T09:01:29Z</time>
      </trkpt>
      <trkpt lat="42.1901600" lon="-8.6128150">
        <ele>67.2</ele>
        <time>2022-06-18T09:01:30Z</time>
      </trkpt>
      <trkpt lat="42.1901910" lon="-8.6127980">
        <ele>67.2</ele>
        <time>2022-06-18T09:01:31Z</time>
      </trkpt>
      <trkpt lat="42.1902210" lon="-8.6127800">
        <ele>67.2</ele>
        <time>2022-06-18T09:01:32Z</time>
      </trkpt>
      <trkpt lat="42.1902510" lon="-8.6127630">
        <ele>67.2</ele>
        <time>2022-06-18T09:01:33Z</time>
      </trkpt>
      <trkpt lat="42.1902830" lon="-8.6127460">
        <ele>67.2</ele>
        <time>2022-06-18T09:01:34Z</time>
      </trkpt>
      <trkpt lat="42.1903100" lon="-8.6127310">
        <ele>67.2</ele>
        <time>2022-06-18T09:01:35Z</time>
      </trkpt>
      <trkpt lat="42.1903410" lon="-8.6127150">
        <ele>67.4</ele>
        <time>2022-06-18T09:01:36Z</time>
      </trkpt>
      <trkpt lat="42.1903700" lon="-8.6127000">
        <ele>67.4</ele>
        <time>2022-06-18T09:01:37Z</time>
      </trkpt>
      <trkpt lat="42.1904030" lon="-8.6126880">
        <ele>67.4</ele>
        <time>2022-06-18T09:01:38Z</time>
      </trkpt>
      <trkpt lat="42.1904330" lon="-8.6126760">
        <ele>67.4</ele>
        <time>2022-06-18T09:01:39Z</time>
      </trkpt>
      <trkpt lat="42.1904650" lon="-8.6126650">
        <ele>67.4</ele>
        <time>2022-06-18T09:01:40Z</time>
      </trkpt>
      <trkpt lat="42.1904950" lon="-8.6126550">
        <ele>68.2</ele>
        <time>2022-06-18T09:01:41Z</time>
      </trkpt>
      <trkpt lat="42.1905250" lon="-8.6126460">
        <ele>68.2</ele>
        <time>2022-06-18T09:01:42Z</time>
      </trkpt>
      <trkpt lat="42.1905560" lon="-8.6126380">
        <ele>68.2</ele>
        <time>2022-06-18T09:01:43Z</time>
      </trkpt>
      <trkpt lat="42.1905860" lon="-8.6126280">
        <ele>68.2</ele>
        <time>2022-06-18T09:01:44Z</time>
      </trkpt>
      <trkpt lat="42.1906200" lon="-8.6126180">
        <ele>68.2</ele>
        <time>2022-06-18T09:01:45Z</time>
      </trkpt>
      <trkpt lat="42.1906510" lon="-8.6126100">
        <ele>68.2</ele>
        <time>2022-06-18T09:01:46Z</time>
      </trkpt>
      <trkpt lat="42.1906810" lon="-8.6126010">
        <ele>68.2</ele>
        <time>2022-06-18T09:01:47Z</time>
      </trkpt>
      <trkpt lat="42.1907080" lon="-8.6125950">
        <ele>68.8</ele>
        <time>2022-06-18T09:01:48Z</time>
      </trkpt>
      <trkpt lat="42.1907350" lon="-8.6125880">
        <ele>69.2</ele>
        <time>2022-06-18T09:01:49Z</time>
      </trkpt>
      <trkpt lat="42.1907610" lon="-8.6125830">
        <ele>69.2</ele>
        <time>2022-06-18T09:01:50Z</time>
      </trkpt>
      <trkpt lat="42.1907880" lon="-8.6125810">
        <ele>69.2</ele>
        <time>2022-06-18T09:01:51Z</time>
      </trkpt>
      <trkpt lat="42.1908150" lon="-8.6125830">
        <ele>69.2</ele>
        <time>2022-06-18T09:01:52Z</time>
      </trkpt>
      <trkpt lat="42.1908450" lon="-8.6125850">
        <ele>69.8</ele>
        <time>2022-06-18T09:01:53Z</time>
      </trkpt>
      <trkpt lat="42.1908760" lon="-8.6125880">
        <ele>69.8</ele>
        <time>2022-06-18T09:01:54Z</time>
      </trkpt>
      <trkpt lat="42.1909100" lon="-8.6125900">
        <ele>69.8</ele>
        <time>2022-06-18T09:01:55Z</time>
      </trkpt>
      <trkpt lat="42.1909430" lon="-8.6125900">
        <ele>69.4</ele>
        <time>2022-06-18T09:01:56Z</time>
      </trkpt>
      <trkpt lat="42.1909780" lon="-8.6125860">
        <ele>69.2</ele>
        <time>2022-06-18T09:01:57Z</time>
      </trkpt>
      <trkpt lat="42.1910150" lon="-8.6125850">
        <ele>69.2</ele>
        <time>2022-06-18T09:01:58Z</time>
      </trkpt>
      <trkpt lat="42.1910510" lon="-8.6125850">
        <ele>69.2</ele>
        <time>2022-06-18T09:01:59Z</time>
      </trkpt>
      <trkpt lat="42.1910910" lon="-8.6125830">
        <ele>69.2</ele>
        <time>2022-06-18T09:02:00Z</time>
      </trkpt>
      <trkpt lat="42.1911310" lon="-8.6125800">
        <ele>68.6</ele>
        <time>2022-06-18T09:02:01Z</time>
      </trkpt>
      <trkpt lat="42.1911730" lon="-8.6125780">
        <ele>68.6</ele>
        <time>2022-06-18T09:02:02Z</time>
      </trkpt>
      <trkpt lat="42.1912180" lon="-8.6125730">
        <ele>68.6</ele>
        <time>2022-06-18T09:02:03Z</time>
      </trkpt>
      <trkpt lat="42.1912600" lon="-8.6125630">
        <ele>67.8</ele>
        <time>2022-06-18T09:02:04Z</time>
      </trkpt>
      <trkpt lat="42.1913010" lon="-8.6125460">
        <ele>68.0</ele>
        <time>2022-06-18T09:02:05Z</time>
      </trkpt>
      <trkpt lat="42.1913410" lon="-8.6125300">
        <ele>68.0</ele>
        <time>2022-06-18T09:02:06Z</time>
      </trkpt>
      <trkpt lat="42.1913810" lon="-8.6125180">
        <ele>68.0</ele>
        <time>2022-06-18T09:02:07Z</time>
      </trkpt>
      <trkpt lat="42.1914210" lon="-8.6124960">
        <ele>67.4</ele>
        <time>2022-06-18T09:02:08Z</time>
      </trkpt>
      <trkpt lat="42.1914610" lon="-8.6124680">
        <ele>67.8</ele>
        <time>2022-06-18T09:02:09Z</time>
      </trkpt>
      <trkpt lat="42.1915000" lon="-8.6124380">
        <ele>67.8</ele>
        <time>2022-06-18T09:02:10Z</time>
      </trkpt>
      <trkpt lat="42.1915380" lon="-8.6124150">
        <ele>67.8</ele>
        <time>2022-06-18T09:02:11Z</time>
      </trkpt>
      <trkpt lat="42.1915730" lon="-8.6123930">
        <ele>67.8</ele>
        <time>2022-06-18T09:02:12Z</time>
      </trkpt>
      <trkpt lat="42.1916060" lon="-8.6123680">
        <ele>68.0</ele>
        <time>2022-06-18T09:02:13Z</time>
      </trkpt>
      <trkpt lat="42.1916360" lon="-8.6123430">
        <ele>68.0</ele>
        <time>2022-06-18T09:02:14Z</time>
      </trkpt>
      <trkpt lat="42.1916650" lon="-8.6123180">
        <ele>68.0</ele>
        <time>2022-06-18T09:02:15Z</time>
      </trkpt>
      <trkpt lat="42.1916910" lon="-8.6122960">
        <ele>68.4</ele>
        <time>2022-06-18T09:02:16Z</time>
      </trkpt>
      <trkpt lat="42.1917160" lon="-8.6122700">
        <ele>68.2</ele>
        <time>2022-06-18T09:02:17Z</time>
      </trkpt>
      <trkpt lat="42.1917480" lon="-8.6122450">
        <ele>68.2</ele>
        <time>2022-06-18T09:02:18Z</time>
      </trkpt>
      <trkpt lat="42.1917760" lon="-8.6122150">
        <ele>68.2</ele>
        <time>2022-06-18T09:02:19Z</time>
      </trkpt>
      <trkpt lat="42.1918060" lon="-8.6121850">
        <ele>68.2</ele>
        <time>2022-06-18T09:02:20Z</time>
      </trkpt>
      <trkpt lat="42.1918360" lon="-8.6121550">
        <ele>67.8</ele>
        <time>2022-06-18T09:02:21Z</time>
      </trkpt>
      <trkpt lat="42.1918680" lon="-8.6121300">
        <ele>67.8</ele>
        <time>2022-06-18T09:02:22Z</time>
      </trkpt>
      <trkpt lat="42.1919060" lon="-8.6121050">
        <ele>67.8</ele>
        <time>2022-06-18T09:02:23Z</time>
      </trkpt>
      <trkpt lat="42.1919460" lon="-8.6120760">
        <ele>66.8</ele>
        <time>2022-06-18T09:02:24Z</time>
      </trkpt>
      <trkpt lat="42.1919880" lon="-8.6120450">
        <ele>66.8</ele>
        <time>2022-06-18T09:02:25Z</time>
      </trkpt>
      <trkpt lat="42.1920350" lon="-8.6120150">
        <ele>66.8</ele>
        <time>2022-06-18T09:02:26Z</time>
      </trkpt>
      <trkpt lat="42.1920860" lon="-8.6119880">
        <ele>66.8</ele>
        <time>2022-06-18T09:02:27Z</time>
      </trkpt>
      <trkpt lat="42.1921410" lon="-8.6119610">
        <ele>65.8</ele>
        <time>2022-06-18T09:02:28Z</time>
      </trkpt>
      <trkpt lat="42.1922000" lon="-8.6119350">
        <ele>64.8</ele>
        <time>2022-06-18T09:02:29Z</time>
      </trkpt>
      <trkpt lat="42.1922560" lon="-8.6119060">
        <ele>64.8</ele>
        <time>2022-06-18T09:02:30Z</time>
      </trkpt>
      <trkpt lat="42.1923200" lon="-8.6118810">
        <ele>64.8</ele>
        <time>2022-06-18T09:02:31Z</time>
      </trkpt>
      <trkpt lat="42.1923810" lon="-8.6118500">
        <ele>63.8</ele>
        <time>2022-06-18T09:02:32Z</time>
      </trkpt>
      <trkpt lat="42.1924430" lon="-8.6118160">
        <ele>63.2</ele>
        <time>2022-06-18T09:02:33Z</time>
      </trkpt>
      <trkpt lat="42.1925060" lon="-8.6117830">
        <ele>63.2</ele>
        <time>2022-06-18T09:02:34Z</time>
      </trkpt>
      <trkpt lat="42.1925680" lon="-8.6117550">
        <ele>63.2</ele>
        <time>2022-06-18T09:02:35Z</time>
      </trkpt>
      <trkpt lat="42.1926300" lon="-8.6117230">
        <ele>63.2</ele>
        <time>2022-06-18T09:02:36Z</time>
      </trkpt>
      <trkpt lat="42.1926900" lon="-8.6116900">
        <ele>62.6</ele>
        <time>2022-06-18T09:02:37Z</time>
      </trkpt>
      <trkpt lat="42.1927500" lon="-8.6116550">
        <ele>62.6</ele>
        <time>2022-06-18T09:02:38Z</time>
      </trkpt>
      <trkpt lat="42.1928030" lon="-8.6116100">
        <ele>62.6</ele>
        <time>2022-06-18T09:02:39Z</time>
      </trkpt>
      <trkpt lat="42.1928510" lon="-8.6115600">
        <ele>62.6</ele>
        <time>2022-06-18T09:02:40Z</time>
      </trkpt>
      <trkpt lat="42.1929000" lon="-8.6115010">
        <ele>61.8</ele>
        <time>2022-06-18T09:02:41Z</time>
      </trkpt>
      <trkpt lat="42.1929500" lon="-8.6114350">
        <ele>61.8</ele>
        <time>2022-06-18T09:02:42Z</time>
      </trkpt>
      <trkpt lat="42.1929960" lon="-8.6113610">
        <ele>61.8</ele>
        <time>2022-06-18T09:02:43Z</time>
      </trkpt>
      <trkpt lat="42.1930400" lon="-8.6112830">
        <ele>60.8</ele>
        <time>2022-06-18T09:02:44Z</time>
      </trkpt>
      <trkpt lat="42.1930830" lon="-8.6112060">
        <ele>60.0</ele>
        <time>2022-06-18T09:02:45Z</time>
      </trkpt>
      <trkpt lat="42.1931230" lon="-8.6111310">
        <ele>60.0</ele>
        <time>2022-06-18T09:02:46Z</time>
      </trkpt>
      <trkpt lat="42.1931600" lon="-8.6110580">
        <ele>60.0</ele>
        <time>2022-06-18T09:02:47Z</time>
      </trkpt>
      <trkpt lat="42.1931960" lon="-8.6109910">
        <ele>60.0</ele>
        <time>2022-06-18T09:02:48Z</time>
      </trkpt>
      <trkpt lat="42.1932310" lon="-8.6109330">
        <ele>59.6</ele>
        <time>2022-06-18T09:02:49Z</time>
      </trkpt>
      <trkpt lat="42.1932680" lon="-8.6108880">
        <ele>59.6</ele>
        <time>2022-06-18T09:02:50Z</time>
      </trkpt>
      <trkpt lat="42.1933080" lon="-8.6108560">
        <ele>59.6</ele>
        <time>2022-06-18T09:02:51Z</time>
      </trkpt>
      <trkpt lat="42.1933480" lon="-8.6108280">
        <ele>60.4</ele>
        <time>2022-06-18T09:02:52Z</time>
      </trkpt>
      <trkpt lat="42.1933880" lon="-8.6107950">
        <ele>60.2</ele>
        <time>2022-06-18T09:02:53Z</time>
      </trkpt>
      <trkpt lat="42.1934300" lon="-8.6107680">
        <ele>60.2</ele>
        <time>2022-06-18T09:02:54Z</time>
      </trkpt>
      <trkpt lat="42.1934760" lon="-8.6107450">
        <ele>60.2</ele>
        <time>2022-06-18T09:02:55Z</time>
      </trkpt>
      <trkpt lat="42.1935230" lon="-8.6107230">
        <ele>60.6</ele>
        <time>2022-06-18T09:02:56Z</time>
      </trkpt>
      <trkpt lat="42.1935710" lon="-8.6107050">
        <ele>60.4</ele>
        <time>2022-06-18T09:02:57Z</time>
      </trkpt>
      <trkpt lat="42.1936180" lon="-8.6106880">
        <ele>60.4</ele>
        <time>2022-06-18T09:02:58Z</time>
      </trkpt>
      <trkpt lat="42.1936660" lon="-8.6106760">
        <ele>60.4</ele>
        <time>2022-06-18T09:02:59Z</time>
      </trkpt>
      <trkpt lat="42.1937130" lon="-8.6106700">
        <ele>60.4</ele>
        <time>2022-06-18T09:03:00Z</time>
      </trkpt>
      <trkpt lat="42.1937580" lon="-8.6106610">
        <ele>61.2</ele>
        <time>2022-06-18T09:03:01Z</time>
      </trkpt>
      <trkpt lat="42.1938030" lon="-8.6106530">
        <ele>61.2</ele>
        <time>2022-06-18T09:03:02Z</time>
      </trkpt>
      <trkpt lat="42.1938460" lon="-8.6106450">
        <ele>61.2</ele>
        <time>2022-06-18T09:03:03Z</time>
      </trkpt>
      <trkpt lat="42.1938860" lon="-8.6106310">
        <ele>61.6</ele>
        <time>2022-06-18T09:03:04Z</time>
      </trkpt>
      <trkpt lat="42.1939260" lon="-8.6106130">
        <ele>61.6</ele>
        <time>2022-06-18T09:03:05Z</time>
      </trkpt>
      <trkpt lat="42.1939660" lon="-8.6105960">
        <ele>61.6</ele>
        <time>2022-06-18T09:03:06Z</time>
      </trkpt>
      <trkpt lat="42.1940030" lon="-8.6105800">
        <ele>61.6</ele>
        <time>2022-06-18T09:03:07Z</time>
      </trkpt>
      <trkpt lat="42.1940380" lon="-8.6105600">
        <ele>62.4</ele>
        <time>2022-06-18T09:03:08Z</time>
      </trkpt>
      <trkpt lat="42.1940760" lon="-8.6105400">
        <ele>62.8</ele>
        <time>2022-06-18T09:03:09Z</time>
      </trkpt>
      <trkpt lat="42.1941150" lon="-8.6105200">
        <ele>62.8</ele>
        <time>2022-06-18T09:03:10Z</time>
      </trkpt>
      <trkpt lat="42.1941530" lon="-8.6105010">
        <ele>62.8</ele>
        <time>2022-06-18T09:03:11Z</time>
      </trkpt>
      <trkpt lat="42.1941950" lon="-8.6104810">
        <ele>62.8</ele>
        <time>2022-06-18T09:03:12Z</time>
      </trkpt>
      <trkpt lat="42.1942350" lon="-8.6104650">
        <ele>63.0</ele>
        <time>2022-06-18T09:03:13Z</time>
      </trkpt>
      <trkpt lat="42.1942760" lon="-8.6104460">
        <ele>63.0</ele>
        <time>2022-06-18T09:03:14Z</time>
      </trkpt>
      <trkpt lat="42.1943180" lon="-8.6104260">
        <ele>63.0</ele>
        <time>2022-06-18T09:03:15Z</time>
      </trkpt>
      <trkpt lat="42.1943600" lon="-8.6104100">
        <ele>63.0</ele>
        <time>2022-06-18T09:03:16Z</time>
      </trkpt>
      <trkpt lat="42.1944030" lon="-8.6103910">
        <ele>62.8</ele>
        <time>2022-06-18T09:03:17Z</time>
      </trkpt>
      <trkpt lat="42.1944480" lon="-8.6103730">
        <ele>62.8</ele>
        <time>2022-06-18T09:03:18Z</time>
      </trkpt>
      <trkpt lat="42.1944910" lon="-8.6103560">
        <ele>62.8</ele>
        <time>2022-06-18T09:03:19Z</time>
      </trkpt>
      <trkpt lat="42.1945360" lon="-8.6103400">
        <ele>62.8</ele>
        <time>2022-06-18T09:03:20Z</time>
      </trkpt>
      <trkpt lat="42.1945810" lon="-8.6103230">
        <ele>63.2</ele>
        <time>2022-06-18T09:03:21Z</time>
      </trkpt>
      <trkpt lat="42.1946230" lon="-8.6103030">
        <ele>63.2</ele>
        <time>2022-06-18T09:03:22Z</time>
      </trkpt>
      <trkpt lat="42.1946680" lon="-8.6102850">
        <ele>63.2</ele>
        <time>2022-06-18T09:03:23Z</time>
      </trkpt>
      <trkpt lat="42.1947100" lon="-8.6102630">
        <ele>63.0</ele>
        <time>2022-06-18T09:03:24Z</time>
      </trkpt>
      <trkpt lat="42.1947510" lon="-8.6102380">
        <ele>62.4</ele>
        <time>2022-06-18T09:03:25Z</time>
      </trkpt>
      <trkpt lat="42.1947910" lon="-8.6102110">
        <ele>62.4</ele>
        <time>2022-06-18T09:03:26Z</time>
      </trkpt>
      <trkpt lat="42.1948300" lon="-8.6101850">
        <ele>62.4</ele>
        <time>2022-06-18T09:03:27Z</time>
      </trkpt>
      <trkpt lat="42.1948660" lon="-8.6101600">
        <ele>63.0</ele>
        <time>2022-06-18T09:03:28Z</time>
      </trkpt>
      <trkpt lat="42.1949010" lon="-8.6101360">
        <ele>62.8</ele>
        <time>2022-06-18T09:03:29Z</time>
      </trkpt>
      <trkpt lat="42.1949380" lon="-8.6101150">
        <ele>62.8</ele>
        <time>2022-06-18T09:03:30Z</time>
      </trkpt>
      <trkpt lat="42.1949730" lon="-8.6100930">
        <ele>62.8</ele>
        <time>2022-06-18T09:03:31Z</time>
      </trkpt>
      <trkpt lat="42.1950100" lon="-8.6100700">
        <ele>62.8</ele>
        <time>2022-06-18T09:03:32Z</time>
      </trkpt>
      <trkpt lat="42.1950500" lon="-8.6100480">
        <ele>63.4</ele>
        <time>2022-06-18T09:03:33Z</time>
      </trkpt>
      <trkpt lat="42.1950860" lon="-8.6100250">
        <ele>63.4</ele>
        <time>2022-06-18T09:03:34Z</time>
      </trkpt>
      <trkpt lat="42.1951250" lon="-8.6100030">
        <ele>63.4</ele>
        <time>2022-06-18T09:03:35Z</time>
      </trkpt>
      <trkpt lat="42.1951650" lon="-8.6099860">
        <ele>63.4</ele>
        <time>2022-06-18T09:03:36Z</time>
      </trkpt>
      <trkpt lat="42.1952010" lon="-8.6099750">
        <ele>63.6</ele>
        <time>2022-06-18T09:03:37Z</time>
      </trkpt>
      <trkpt lat="42.1952380" lon="-8.6099650">
        <ele>63.6</ele>
        <time>2022-06-18T09:03:38Z</time>
      </trkpt>
      <trkpt lat="42.1952760" lon="-8.6099560">
        <ele>63.6</ele>
        <time>2022-06-18T09:03:39Z</time>
      </trkpt>
      <trkpt lat="42.1953150" lon="-8.6099450">
        <ele>63.8</ele>
        <time>2022-06-18T09:03:40Z</time>
      </trkpt>
      <trkpt lat="42.1953550" lon="-8.6099310">
        <ele>64.4</ele>
        <time>2022-06-18T09:03:41Z</time>
      </trkpt>
      <trkpt lat="42.1953930" lon="-8.6099180">
        <ele>64.4</ele>
        <time>2022-06-18T09:03:42Z</time>
      </trkpt>
      <trkpt lat="42.1954310" lon="-8.6099080">
        <ele>64.4</ele>
        <time>2022-06-18T09:03:43Z</time>
      </trkpt>
      <trkpt lat="42.1954700" lon="-8.6098980">
        <ele>64.4</ele>
        <time>2022-06-18T09:03:44Z</time>
      </trkpt>
      <trkpt lat="42.1955100" lon="-8.6098880">
        <ele>64.4</ele>
        <time>2022-06-18T09:03:45Z</time>
      </trkpt>
      <trkpt lat="42.1955500" lon="-8.6098800">
        <ele>64.4</ele>
        <time>2022-06-18T09:03:46Z</time>
      </trkpt>
      <trkpt lat="42.1955900" lon="-8.6098730">
        <ele>64.4</ele>
        <time>2022-06-18T09:03:47Z</time>
      </trkpt>
      <trkpt lat="42.1956310" lon="-8.6098650">
        <ele>64.2</ele>
        <time>2022-06-18T09:03:48Z</time>
      </trkpt>
      <trkpt lat="42.1956730" lon="-8.6098580">
        <ele>64.2</ele>
        <time>2022-06-18T09:03:49Z</time>
      </trkpt>
      <trkpt lat="42.1957150" lon="-8.6098480">
        <ele>64.2</ele>
        <time>2022-06-18T09:03:50Z</time>
      </trkpt>
      <trkpt lat="42.1957560" lon="-8.6098400">
        <ele>64.2</ele>
        <time>2022-06-18T09:03:51Z</time>
      </trkpt>
      <trkpt lat="42.1957980" lon="-8.6098310">
        <ele>64.2</ele>
        <time>2022-06-18T09:03:52Z</time>
      </trkpt>
      <trkpt lat="42.1958410" lon="-8.6098200">
        <ele>64.6</ele>
        <time>2022-06-18T09:03:53Z</time>
      </trkpt>
      <trkpt lat="42.1958810" lon="-8.6098100">
        <ele>64.6</ele>
        <time>2022-06-18T09:03:54Z</time>
      </trkpt>
      <trkpt lat="42.1959200" lon="-8.6098010">
        <ele>64.6</ele>
        <time>2022-06-18T09:03:55Z</time>
      </trkpt>
      <trkpt lat="42.1959560" lon="-8.6097930">
        <ele>63.8</ele>
        <time>2022-06-18T09:03:56Z</time>
      </trkpt>
      <trkpt lat="42.1959960" lon="-8.6097810">
        <ele>63.8</ele>
        <time>2022-06-18T09:03:57Z</time>
      </trkpt>
      <trkpt lat="42.1960380" lon="-8.6097700">
        <ele>63.8</ele>
        <time>2022-06-18T09:03:58Z</time>
      </trkpt>
      <trkpt lat="42.1960830" lon="-8.6097580">
        <ele>63.8</ele>
        <time>2022-06-18T09:03:59Z</time>
      </trkpt>
      <trkpt lat="42.1961300" lon="-8.6097450">
        <ele>63.8</ele>
        <time>2022-06-18T09:04:00Z</time>
      </trkpt>
      <trkpt lat="42.1961750" lon="-8.6097330">
        <ele>63.6</ele>
        <time>2022-06-18T09:04:01Z</time>
      </trkpt>
      <trkpt lat="42.1962210" lon="-8.6097200">
        <ele>63.6</ele>
        <time>2022-06-18T09:04:02Z</time>
      </trkpt>
      <trkpt lat="42.1962680" lon="-8.6097060">
        <ele>63.6</ele>
        <time>2022-06-18T09:04:03Z</time>
      </trkpt>
      <trkpt lat="42.1963110" lon="-8.6096950">
        <ele>63.6</ele>
        <time>2022-06-18T09:04:04Z</time>
      </trkpt>
      <trkpt lat="42.1963600" lon="-8.6096800">
        <ele>64.2</ele>
        <time>2022-06-18T09:04:05Z</time>
      </trkpt>
      <trkpt lat="42.1964050" lon="-8.6096660">
        <ele>64.2</ele>
        <time>2022-06-18T09:04:06Z</time>
      </trkpt>
      <trkpt lat="42.1964500" lon="-8.6096510">
        <ele>64.2</ele>
        <time>2022-06-18T09:04:07Z</time>
      </trkpt>
      <trkpt lat="42.1964930" lon="-8.6096380">
        <ele>63.2</ele>
        <time>2022-06-18T09:04:08Z</time>
      </trkpt>
      <trkpt lat="42.1965360" lon="-8.6096250">
        <ele>63.8</ele>
        <time>2022-06-18T09:04:09Z</time>
      </trkpt>
      <trkpt lat="42.1965810" lon="-8.6096110">
        <ele>63.8</ele>
        <time>2022-06-18T09:04:10Z</time>
      </trkpt>
      <trkpt lat="42.1966250" lon="-8.6096000">
        <ele>63.8</ele>
        <time>2022-06-18T09:04:11Z</time>
      </trkpt>
      <trkpt lat="42.1966700" lon="-8.6095860">
        <ele>63.4</ele>
        <time>2022-06-18T09:04:12Z</time>
      </trkpt>
      <trkpt lat="42.1967130" lon="-8.6095680">
        <ele>63.4</ele>
        <time>2022-06-18T09:04:13Z</time>
      </trkpt>
      <trkpt lat="42.1967560" lon="-8.6095530">
        <ele>63.4</ele>
        <time>2022-06-18T09:04:14Z</time>
      </trkpt>
      <trkpt lat="42.1968030" lon="-8.6095380">
        <ele>63.4</ele>
        <time>2022-06-18T09:04:15Z</time>
      </trkpt>
      <trkpt lat="42.1968480" lon="-8.6095210">
        <ele>64.4</ele>
        <time>2022-06-18T09:04:16Z</time>
      </trkpt>
      <trkpt lat="42.1968900" lon="-8.6095030">
        <ele>64.2</ele>
        <time>2022-06-18T09:04:17Z</time>
      </trkpt>
      <trkpt lat="42.1969310" lon="-8.6094860">
        <ele>64.2</ele>
        <time>2022-06-18T09:04:18Z</time>
      </trkpt>
      <trkpt lat="42.1969710" lon="-8.6094700">
        <ele>64.2</ele>
        <time>2022-06-18T09:04:19Z</time>
      </trkpt>
      <trkpt lat="42.1970100" lon="-8.6094500">
        <ele>64.2</ele>
        <time>2022-06-18T09:04:20Z</time>
      </trkpt>
      <trkpt lat="42.1970480" lon="-8.6094260">
        <ele>64.4</ele>
        <time>2022-06-18T09:04:21Z</time>
      </trkpt>
      <trkpt lat="42.1970860" lon="-8.6094000">
        <ele>64.4</ele>
        <time>2022-06-18T09:04:22Z</time>
      </trkpt>
      <trkpt lat="42.1971250" lon="-8.6093710">
        <ele>64.4</ele>
        <time>2022-06-18T09:04:23Z</time>
      </trkpt>
      <trkpt lat="42.1971630" lon="-8.6093430">
        <ele>64.6</ele>
        <time>2022-06-18T09:04:24Z</time>
      </trkpt>
      <trkpt lat="42.1971980" lon="-8.6093130">
        <ele>64.6</ele>
        <time>2022-06-18T09:04:25Z</time>
      </trkpt>
      <trkpt lat="42.1972350" lon="-8.6092810">
        <ele>64.6</ele>
        <time>2022-06-18T09:04:26Z</time>
      </trkpt>
      <trkpt lat="42.1972700" lon="-8.6092500">
        <ele>64.6</ele>
        <time>2022-06-18T09:04:27Z</time>
      </trkpt>
      <trkpt lat="42.1973030" lon="-8.6092180">
        <ele>64.6</ele>
        <time>2022-06-18T09:04:28Z</time>
      </trkpt>
      <trkpt lat="42.1973380" lon="-8.6091860">
        <ele>65.0</ele>
        <time>2022-06-18T09:04:29Z</time>
      </trkpt>
      <trkpt lat="42.1973730" lon="-8.6091560">
        <ele>65.0</ele>
        <time>2022-06-18T09:04:30Z</time>
      </trkpt>
      <trkpt lat="42.1974080" lon="-8.6091260">
        <ele>65.0</ele>
        <time>2022-06-18T09:04:31Z</time>
      </trkpt>
      <trkpt lat="42.1974430" lon="-8.6090930">
        <ele>65.0</ele>
        <time>2022-06-18T09:04:32Z</time>
      </trkpt>
      <trkpt lat="42.1974800" lon="-8.6090580">
        <ele>64.8</ele>
        <time>2022-06-18T09:04:33Z</time>
      </trkpt>
      <trkpt lat="42.1975150" lon="-8.6090200">
        <ele>64.8</ele>
        <time>2022-06-18T09:04:34Z</time>
      </trkpt>
      <trkpt lat="42.1975510" lon="-8.6089830">
        <ele>64.8</ele>
        <time>2022-06-18T09:04:35Z</time>
      </trkpt>
      <trkpt lat="42.1975860" lon="-8.6089480">
        <ele>65.2</ele>
        <time>2022-06-18T09:04:36Z</time>
      </trkpt>
      <trkpt lat="42.1976230" lon="-8.6089110">
        <ele>64.8</ele>
        <time>2022-06-18T09:04:37Z</time>
      </trkpt>
      <trkpt lat="42.1976600" lon="-8.6088760">
        <ele>64.8</ele>
        <time>2022-06-18T09:04:38Z</time>
      </trkpt>
      <trkpt lat="42.1976980" lon="-8.6088410">
        <ele>64.8</ele>
        <time>2022-06-18T09:04:39Z</time>
      </trkpt>
      <trkpt lat="42.1977350" lon="-8.6088050">
        <ele>65.0</ele>
        <time>2022-06-18T09:04:40Z</time>
      </trkpt>
      <trkpt lat="42.1977710" lon="-8.6087710">
        <ele>65.4</ele>
        <time>2022-06-18T09:04:41Z</time>
      </trkpt>
      <trkpt lat="42.1978080" lon="-8.6087400">
        <ele>65.4</ele>
        <time>2022-06-18T09:04:42Z</time>
      </trkpt>
      <trkpt lat="42.1978430" lon="-8.6087100">
        <ele>65.4</ele>
        <time>2022-06-18T09:04:43Z</time>
      </trkpt>
      <trkpt lat="42.1978780" lon="-8.6086810">
        <ele>65.2</ele>
        <time>2022-06-18T09:04:44Z</time>
      </trkpt>
      <trkpt lat="42.1979150" lon="-8.6086560">
        <ele>65.0</ele>
        <time>2022-06-18T09:04:45Z</time>
      </trkpt>
      <trkpt lat="42.1979530" lon="-8.6086280">
        <ele>65.0</ele>
        <time>2022-06-18T09:04:46Z</time>
      </trkpt>
      <trkpt lat="42.1979900" lon="-8.6086000">
        <ele>65.0</ele>
        <time>2022-06-18T09:04:47Z</time>
      </trkpt>
      <trkpt lat="42.1980280" lon="-8.6085780">
        <ele>65.2</ele>
        <time>2022-06-18T09:04:48Z</time>
      </trkpt>
      <trkpt lat="42.1980680" lon="-8.6085580">
        <ele>64.8</ele>
        <time>2022-06-18T09:04:49Z</time>
      </trkpt>
      <trkpt lat="42.1981080" lon="-8.6085410">
        <ele>64.8</ele>
        <time>2022-06-18T09:04:50Z</time>
      </trkpt>
      <trkpt lat="42.1981500" lon="-8.6085310">
        <ele>64.8</ele>
        <time>2022-06-18T09:04:51Z</time>
      </trkpt>
      <trkpt lat="42.1981880" lon="-8.6085280">
        <ele>65.6</ele>
        <time>2022-06-18T09:04:52Z</time>
      </trkpt>
      <trkpt lat="42.1982280" lon="-8.6085300">
        <ele>65.8</ele>
        <time>2022-06-18T09:04:53Z</time>
      </trkpt>
      <trkpt lat="42.1982700" lon="-8.6085380">
        <ele>65.8</ele>
        <time>2022-06-18T09:04:54Z</time>
      </trkpt>
      <trkpt lat="42.1983100" lon="-8.6085560">
        <ele>65.8</ele>
        <time>2022-06-18T09:04:55Z</time>
      </trkpt>
      <trkpt lat="42.1983460" lon="-8.6085800">
        <ele>65.8</ele>
        <time>2022-06-18T09:04:56Z</time>
      </trkpt>
      <trkpt lat="42.1983860" lon="-8.6086060">
        <ele>65.4</ele>
        <time>2022-06-18T09:04:57Z</time>
      </trkpt>
      <trkpt lat="42.1984280" lon="-8.6086350">
        <ele>65.4</ele>
        <time>2022-06-18T09:04:58Z</time>
      </trkpt>
      <trkpt lat="42.1984700" lon="-8.6086600">
        <ele>65.4</ele>
        <time>2022-06-18T09:04:59Z</time>
      </trkpt>
      <trkpt lat="42.1985130" lon="-8.6086780">
        <ele>65.4</ele>
        <time>2022-06-18T09:05:00Z</time>
      </trkpt>
      <trkpt lat="42.1985580" lon="-8.6086880">
        <ele>65.8</ele>
        <time>2022-06-18T09:05:01Z</time>
      </trkpt>
      <trkpt lat="42.1986010" lon="-8.6086950">
        <ele>65.8</ele>
        <time>2022-06-18T09:05:02Z</time>
      </trkpt>
      <trkpt lat="42.1986460" lon="-8.6087050">
        <ele>65.8</ele>
        <time>2022-06-18T09:05:03Z</time>
      </trkpt>
      <trkpt lat="42.1986900" lon="-8.6087160">
        <ele>66.0</ele>
        <time>2022-06-18T09:05:04Z</time>
      </trkpt>
      <trkpt lat="42.1987310" lon="-8.6087310">
        <ele>66.4</ele>
        <time>2022-06-18T09:05:05Z</time>
      </trkpt>
      <trkpt lat="42.1987750" lon="-8.6087480">
        <ele>66.4</ele>
        <time>2022-06-18T09:05:06Z</time>
      </trkpt>
      <trkpt lat="42.1988160" lon="-8.6087650">
        <ele>66.4</ele>
        <time>2022-06-18T09:05:07Z</time>
      </trkpt>
      <trkpt lat="42.1988580" lon="-8.6087800">
        <ele>65.8</ele>
        <time>2022-06-18T09:05:08Z</time>
      </trkpt>
      <trkpt lat="42.1989010" lon="-8.6087930">
        <ele>66.2</ele>
        <time>2022-06-18T09:05:09Z</time>
      </trkpt>
      <trkpt lat="42.1989460" lon="-8.6088060">
        <ele>66.2</ele>
        <time>2022-06-18T09:05:10Z</time>
      </trkpt>
      <trkpt lat="42.1989900" lon="-8.6088200">
        <ele>66.2</ele>
        <time>2022-06-18T09:05:11Z</time>
      </trkpt>
      <trkpt lat="42.1990330" lon="-8.6088280">
        <ele>66.4</ele>
        <time>2022-06-18T09:05:12Z</time>
      </trkpt>
      <trkpt lat="42.1990760" lon="-8.6088360">
        <ele>66.4</ele>
        <time>2022-06-18T09:05:13Z</time>
      </trkpt>
      <trkpt lat="42.1991210" lon="-8.6088380">
        <ele>66.4</ele>
        <time>2022-06-18T09:05:14Z</time>
      </trkpt>
      <trkpt lat="42.1991650" lon="-8.6088350">
        <ele>66.4</ele>
        <time>2022-06-18T09:05:15Z</time>
      </trkpt>
      <trkpt lat="42.1992060" lon="-8.6088280">
        <ele>66.4</ele>
        <time>2022-06-18T09:05:16Z</time>
      </trkpt>
      <trkpt lat="42.1992500" lon="-8.6088160">
        <ele>67.2</ele>
        <time>2022-06-18T09:05:17Z</time>
      </trkpt>
      <trkpt lat="42.1992910" lon="-8.6088030">
        <ele>67.2</ele>
        <time>2022-06-18T09:05:18Z</time>
      </trkpt>
      <trkpt lat="42.1993310" lon="-8.6087910">
        <ele>67.2</ele>
        <time>2022-06-18T09:05:19Z</time>
      </trkpt>
      <trkpt lat="42.1993700" lon="-8.6087800">
        <ele>67.2</ele>
        <time>2022-06-18T09:05:20Z</time>
      </trkpt>
      <trkpt lat="42.1994080" lon="-8.6087700">
        <ele>68.0</ele>
        <time>2022-06-18T09:05:21Z</time>
      </trkpt>
      <trkpt lat="42.1994480" lon="-8.6087600">
        <ele>68.0</ele>
        <time>2022-06-18T09:05:22Z</time>
      </trkpt>
      <trkpt lat="42.1994900" lon="-8.6087530">
        <ele>68.0</ele>
        <time>2022-06-18T09:05:23Z</time>
      </trkpt>
      <trkpt lat="42.1995300" lon="-8.6087500">
        <ele>68.0</ele>
        <time>2022-06-18T09:05:24Z</time>
      </trkpt>
      <trkpt lat="42.1995700" lon="-8.6087480">
        <ele>68.2</ele>
        <time>2022-06-18T09:05:25Z</time>
      </trkpt>
      <trkpt lat="42.1996080" lon="-8.6087550">
        <ele>68.2</ele>
        <time>2022-06-18T09:05:26Z</time>
      </trkpt>
      <trkpt lat="42.1996450" lon="-8.6087660">
        <ele>68.2</ele>
        <time>2022-06-18T09:05:27Z</time>
      </trkpt>
      <trkpt lat="42.1996800" lon="-8.6087830">
        <ele>67.8</ele>
        <time>2022-06-18T09:05:28Z</time>
      </trkpt>
      <trkpt lat="42.1997130" lon="-8.6088010">
        <ele>68.8</ele>
        <time>2022-06-18T09:05:29Z</time>
      </trkpt>
      <trkpt lat="42.1997460" lon="-8.6088200">
        <ele>68.8</ele>
        <time>2022-06-18T09:05:30Z</time>
      </trkpt>
      <trkpt lat="42.1997760" lon="-8.6088350">
        <ele>68.8</ele>
        <time>2022-06-18T09:05:31Z</time>
      </trkpt>
      <trkpt lat="42.1998080" lon="-8.6088460">
        <ele>68.8</ele>
        <time>2022-06-18T09:05:32Z</time>
      </trkpt>
      <trkpt lat="42.1998400" lon="-8.6088580">
        <ele>70.2</ele>
        <time>2022-06-18T09:05:33Z</time>
      </trkpt>
      <trkpt lat="42.1998700" lon="-8.6088700">
        <ele>70.2</ele>
        <time>2022-06-18T09:05:34Z</time>
      </trkpt>
      <trkpt lat="42.1998980" lon="-8.6088760">
        <ele>70.2</ele>
        <time>2022-06-18T09:05:35Z</time>
      </trkpt>
      <trkpt lat="42.1999250" lon="-8.6088810">
        <ele>70.2</ele>
        <time>2022-06-18T09:05:36Z</time>
      </trkpt>
      <trkpt lat="42.1999530" lon="-8.6088800">
        <ele>71.0</ele>
        <time>2022-06-18T09:05:37Z</time>
      </trkpt>
      <trkpt lat="42.1999800" lon="-8.6088760">
        <ele>71.0</ele>
        <time>2022-06-18T09:05:38Z</time>
      </trkpt>
      <trkpt lat="42.2000080" lon="-8.6088710">
        <ele>71.0</ele>
        <time>2022-06-18T09:05:39Z</time>
      </trkpt>
      <trkpt lat="42.2000360" lon="-8.6088610">
        <ele>71.0</ele>
        <time>2022-06-18T09:05:40Z</time>
      </trkpt>
      <trkpt lat="42.2000660" lon="-8.6088460">
        <ele>71.2</ele>
        <time>2022-06-18T09:05:41Z</time>
      </trkpt>
      <trkpt lat="42.2000950" lon="-8.6088260">
        <ele>71.2</ele>
        <time>2022-06-18T09:05:42Z</time>
      </trkpt>
      <trkpt lat="42.2001230" lon="-8.6088100">
        <ele>71.2</ele>
        <time>2022-06-18T09:05:43Z</time>
      </trkpt>
      <trkpt lat="42.2001510" lon="-8.6087930">
        <ele>71.2</ele>
        <time>2022-06-18T09:05:44Z</time>
      </trkpt>
      <trkpt lat="42.2001780" lon="-8.6087810">
        <ele>71.4</ele>
        <time>2022-06-18T09:05:45Z</time>
      </trkpt>
      <trkpt lat="42.2002080" lon="-8.6087660">
        <ele>71.4</ele>
        <time>2022-06-18T09:05:46Z</time>
      </trkpt>
      <trkpt lat="42.2002360" lon="-8.6087460">
        <ele>71.4</ele>
        <time>2022-06-18T09:05:47Z</time>
      </trkpt>
      <trkpt lat="42.2002630" lon="-8.6087300">
        <ele>71.4</ele>
        <time>2022-06-18T09:05:48Z</time>
      </trkpt>
      <trkpt lat="42.2002900" lon="-8.6087110">
        <ele>71.8</ele>
        <time>2022-06-18T09:05:49Z</time>
      </trkpt>
      <trkpt lat="42.2003130" lon="-8.6086950">
        <ele>71.8</ele>
        <time>2022-06-18T09:05:50Z</time>
      </trkpt>
      <trkpt lat="42.2003380" lon="-8.6086780">
        <ele>71.8</ele>
        <time>2022-06-18T09:05:51Z</time>
      </trkpt>
      <trkpt lat="42.2003650" lon="-8.6086610">
        <ele>72.4</ele>
        <time>2022-06-18T09:05:52Z</time>
      </trkpt>
      <trkpt lat="42.2003930" lon="-8.6086450">
        <ele>72.2</ele>
        <time>2022-06-18T09:05:53Z</time>
      </trkpt>
      <trkpt lat="42.2004230" lon="-8.6086310">
        <ele>72.2</ele>
        <time>2022-06-18T09:05:54Z</time>
      </trkpt>
      <trkpt lat="42.2004550" lon="-8.6086210">
        <ele>72.2</ele>
        <time>2022-06-18T09:05:55Z</time>
      </trkpt>
      <trkpt lat="42.2004880" lon="-8.6086130">
        <ele>72.2</ele>
        <time>2022-06-18T09:05:56Z</time>
      </trkpt>
      <trkpt lat="42.2005210" lon="-8.6086110">
        <ele>72.2</ele>
        <time>2022-06-18T09:05:57Z</time>
      </trkpt>
      <trkpt lat="42.2005510" lon="-8.6086130">
        <ele>72.2</ele>
        <time>2022-06-18T09:05:58Z</time>
      </trkpt>
      <trkpt lat="42.2005800" lon="-8.6086150">
        <ele>72.2</ele>
        <time>2022-06-18T09:05:59Z</time>
      </trkpt>
      <trkpt lat="42.2006030" lon="-8.6086200">
        <ele>73.2</ele>
        <time>2022-06-18T09:06:00Z</time>
      </trkpt>
      <trkpt lat="42.2006280" lon="-8.6086260">
        <ele>73.6</ele>
        <time>2022-06-18T09:06:01Z</time>
      </trkpt>
      <trkpt lat="42.2006510" lon="-8.6086350">
        <ele>73.6</ele>
        <time>2022-06-18T09:06:02Z</time>
      </trkpt>
      <trkpt lat="42.2006710" lon="-8.6086430">
        <ele>73.6</ele>
        <time>2022-06-18T09:06:03Z</time>
      </trkpt>
      <trkpt lat="42.2006930" lon="-8.6086460">
        <ele>73.6</ele>
        <time>2022-06-18T09:06:04Z</time>
      </trkpt>
      <trkpt lat="42.2007160" lon="-8.6086530">
        <ele>74.2</ele>
        <time>2022-06-18T09:06:05Z</time>
      </trkpt>
      <trkpt lat="42.2007410" lon="-8.6086630">
        <ele>74.2</ele>
        <time>2022-06-18T09:06:06Z</time>
      </trkpt>
      <trkpt lat="42.2007680" lon="-8.6086710">
        <ele>74.2</ele>
        <time>2022-06-18T09:06:07Z</time>
      </trkpt>
      <trkpt lat="42.2007930" lon="-8.6086800">
        <ele>74.8</ele>
        <time>2022-06-18T09:06:08Z</time>
      </trkpt>
      <trkpt lat="42.2008210" lon="-8.6086830">
        <ele>74.8</ele>
        <time>2022-06-18T09:06:09Z</time>
      </trkpt>
      <trkpt lat="42.2008510" lon="-8.6086830">
        <ele>74.8</ele>
        <time>2022-06-18T09:06:10Z</time>
      </trkpt>
      <trkpt lat="42.2008780" lon="-8.6086780">
        <ele>74.8</ele>
        <time>2022-06-18T09:06:11Z</time>
      </trkpt>
      <trkpt lat="42.2009030" lon="-8.6086680">
        <ele>75.0</ele>
        <time>2022-06-18T09:06:12Z</time>
      </trkpt>
      <trkpt lat="42.2009300" lon="-8.6086550">
        <ele>75.2</ele>
        <time>2022-06-18T09:06:13Z</time>
      </trkpt>
      <trkpt lat="42.2009560" lon="-8.6086360">
        <ele>75.2</ele>
        <time>2022-06-18T09:06:14Z</time>
      </trkpt>
      <trkpt lat="42.2009850" lon="-8.6086150">
        <ele>75.2</ele>
        <time>2022-06-18T09:06:15Z</time>
      </trkpt>
      <trkpt lat="42.2010130" lon="-8.6085910">
        <ele>75.2</ele>
        <time>2022-06-18T09:06:16Z</time>
      </trkpt>
      <trkpt lat="42.2010380" lon="-8.6085660">
        <ele>75.8</ele>
        <time>2022-06-18T09:06:17Z</time>
      </trkpt>
      <trkpt lat="42.2010610" lon="-8.6085410">
        <ele>75.8</ele>
        <time>2022-06-18T09:06:18Z</time>
      </trkpt>
      <trkpt lat="42.2010860" lon="-8.6085160">
        <ele>75.8</ele>
        <time>2022-06-18T09:06:19Z</time>
      </trkpt>
      <trkpt lat="42.2011110" lon="-8.6084910">
        <ele>76.2</ele>
        <time>2022-06-18T09:06:20Z</time>
      </trkpt>
      <trkpt lat="42.2011310" lon="-8.6084660">
        <ele>75.6</ele>
        <time>2022-06-18T09:06:21Z</time>
      </trkpt>
      <trkpt lat="42.2011510" lon="-8.6084450">
        <ele>75.6</ele>
        <time>2022-06-18T09:06:22Z</time>
      </trkpt>
      <trkpt lat="42.2011680" lon="-8.6084250">
        <ele>75.6</ele>
        <time>2022-06-18T09:06:23Z</time>
      </trkpt>
      <trkpt lat="42.2011850" lon="-8.6084030">
        <ele>76.6</ele>
        <time>2022-06-18T09:06:24Z</time>
      </trkpt>
      <trkpt lat="42.2012010" lon="-8.6083830">
        <ele>76.4</ele>
        <time>2022-06-18T09:06:25Z</time>
      </trkpt>
      <trkpt lat="42.2012200" lon="-8.6083630">
        <ele>76.4</ele>
        <time>2022-06-18T09:06:26Z</time>
      </trkpt>
      <trkpt lat="42.2012360" lon="-8.6083450">
        <ele>76.4</ele>
        <time>2022-06-18T09:06:27Z</time>
      </trkpt>
      <trkpt lat="42.2012550" lon="-8.6083330">
        <ele>77.2</ele>
        <time>2022-06-18T09:06:28Z</time>
      </trkpt>
      <trkpt lat="42.2012710" lon="-8.6083210">
        <ele>76.6</ele>
        <time>2022-06-18T09:06:29Z</time>
      </trkpt>
      <trkpt lat="42.2012910" lon="-8.6083080">
        <ele>76.6</ele>
        <time>2022-06-18T09:06:30Z</time>
      </trkpt>
      <trkpt lat="42.2013100" lon="-8.6082950">
        <ele>76.6</ele>
        <time>2022-06-18T09:06:31Z</time>
      </trkpt>
      <trkpt lat="42.2013260" lon="-8.6082830">
        <ele>77.6</ele>
        <time>2022-06-18T09:06:32Z</time>
      </trkpt>
      <trkpt lat="42.2013410" lon="-8.6082730">
        <ele>78.0</ele>
        <time>2022-06-18T09:06:33Z</time>
      </trkpt>
      <trkpt lat="42.2013550" lon="-8.6082630">
        <ele>78.0</ele>
        <time>2022-06-18T09:06:34Z</time>
      </trkpt>
      <trkpt lat="42.2013710" lon="-8.6082530">
        <ele>78.0</ele>
        <time>2022-06-18T09:06:35Z</time>
      </trkpt>
      <trkpt lat="42.2013850" lon="-8.6082480">
        <ele>78.6</ele>
        <time>2022-06-18T09:06:36Z</time>
      </trkpt>
      <trkpt lat="42.2013980" lon="-8.6082380">
        <ele>78.6</ele>
        <time>2022-06-18T09:06:37Z</time>
      </trkpt>
      <trkpt lat="42.2014100" lon="-8.6082280">
        <ele>78.6</ele>
        <time>2022-06-18T09:06:38Z</time>
      </trkpt>
      <trkpt lat="42.2014250" lon="-8.6082200">
        <ele>78.6</ele>
        <time>2022-06-18T09:06:39Z</time>
      </trkpt>
      <trkpt lat="42.2014350" lon="-8.6082100">
        <ele>79.6</ele>
        <time>2022-06-18T09:06:40Z</time>
      </trkpt>
      <trkpt lat="42.2014500" lon="-8.6081960">
        <ele>79.6</ele>
        <time>2022-06-18T09:06:41Z</time>
      </trkpt>
      <trkpt lat="42.2014650" lon="-8.6081830">
        <ele>79.6</ele>
        <time>2022-06-18T09:06:42Z</time>
      </trkpt>
      <trkpt lat="42.2014800" lon="-8.6081700">
        <ele>79.6</ele>
        <time>2022-06-18T09:06:43Z</time>
      </trkpt>
      <trkpt lat="42.2014930" lon="-8.6081610">
        <ele>80.6</ele>
        <time>2022-06-18T09:06:44Z</time>
      </trkpt>
      <trkpt lat="42.2015080" lon="-8.6081530">
        <ele>80.8</ele>
        <time>2022-06-18T09:06:45Z</time>
      </trkpt>
      <trkpt lat="42.2015210" lon="-8.6081380">
        <ele>80.8</ele>
        <time>2022-06-18T09:06:46Z</time>
      </trkpt>
      <trkpt lat="42.2015360" lon="-8.6081230">
        <ele>80.8</ele>
        <time>2022-06-18T09:06:47Z</time>
      </trkpt>
      <trkpt lat="42.2015480" lon="-8.6081080">
        <ele>81.4</ele>
        <time>2022-06-18T09:06:48Z</time>
      </trkpt>
      <trkpt lat="42.2015610" lon="-8.6080950">
        <ele>81.8</ele>
        <time>2022-06-18T09:06:49Z</time>
      </trkpt>
      <trkpt lat="42.2015680" lon="-8.6080810">
        <ele>81.8</ele>
        <time>2022-06-18T09:06:50Z</time>
      </trkpt>
      <trkpt lat="42.2015810" lon="-8.6080680">
        <ele>81.8</ele>
        <time>2022-06-18T09:06:51Z</time>
      </trkpt>
      <trkpt lat="42.2015960" lon="-8.6080510">
        <ele>81.8</ele>
        <time>2022-06-18T09:06:52Z</time>
      </trkpt>
      <trkpt lat="42.2016080" lon="-8.6080410">
        <ele>82.6</ele>
        <time>2022-06-18T09:06:53Z</time>
      </trkpt>
      <trkpt lat="42.2016210" lon="-8.6080250">
        <ele>82.6</ele>
        <time>2022-06-18T09:06:54Z</time>
      </trkpt>
      <trkpt lat="42.2016350" lon="-8.6080130">
        <ele>82.6</ele>
        <time>2022-06-18T09:06:55Z</time>
      </trkpt>
      <trkpt lat="42.2016500" lon="-8.6080000">
        <ele>83.2</ele>
        <time>2022-06-18T09:06:56Z</time>
      </trkpt>
      <trkpt lat="42.2016600" lon="-8.6079830">
        <ele>83.2</ele>
        <time>2022-06-18T09:06:57Z</time>
      </trkpt>
      <trkpt lat="42.2016710" lon="-8.6079660">
        <ele>83.2</ele>
        <time>2022-06-18T09:06:58Z</time>
      </trkpt>
      <trkpt lat="42.2016830" lon="-8.6079530">
        <ele>83.2</ele>
        <time>2022-06-18T09:06:59Z</time>
      </trkpt>
      <trkpt lat="42.2016980" lon="-8.6079380">
        <ele>83.8</ele>
        <time>2022-06-18T09:07:00Z</time>
      </trkpt>
      <trkpt lat="42.2017130" lon="-8.6079260">
        <ele>84.0</ele>
        <time>2022-06-18T09:07:01Z</time>
      </trkpt>
      <trkpt lat="42.2017280" lon="-8.6079110">
        <ele>84.0</ele>
        <time>2022-06-18T09:07:02Z</time>
      </trkpt>
      <trkpt lat="42.2017410" lon="-8.6078930">
        <ele>84.0</ele>
        <time>2022-06-18T09:07:03Z</time>
      </trkpt>
      <trkpt lat="42.2017530" lon="-8.6078760">
        <ele>84.6</ele>
        <time>2022-06-18T09:07:04Z</time>
      </trkpt>
      <trkpt lat="42.2017610" lon="-8.6078580">
        <ele>84.8</ele>
        <time>2022-06-18T09:07:05Z</time>
      </trkpt>
      <trkpt lat="42.2017710" lon="-8.6078410">
        <ele>84.8</ele>
        <time>2022-06-18T09:07:06Z</time>
      </trkpt>
      <trkpt lat="42.2017830" lon="-8.6078250">
        <ele>84.8</ele>
        <time>2022-06-18T09:07:07Z</time>
      </trkpt>
      <trkpt lat="42.2018000" lon="-8.6078060">
        <ele>85.2</ele>
        <time>2022-06-18T09:07:08Z</time>
      </trkpt>
      <trkpt lat="42.2018130" lon="-8.6077880">
        <ele>85.8</ele>
        <time>2022-06-18T09:07:09Z</time>
      </trkpt>
      <trkpt lat="42.2018260" lon="-8.6077680">
        <ele>85.8</ele>
        <time>2022-06-18T09:07:10Z</time>
      </trkpt>
      <trkpt lat="42.2018380" lon="-8.6077480">
        <ele>85.8</ele>
        <time>2022-06-18T09:07:11Z</time>
      </trkpt>
      <trkpt lat="42.2018510" lon="-8.6077260">
        <ele>85.8</ele>
        <time>2022-06-18T09:07:12Z</time>
      </trkpt>
      <trkpt lat="42.2018660" lon="-8.6077060">
        <ele>85.8</ele>
        <time>2022-06-18T09:07:13Z</time>
      </trkpt>
      <trkpt lat="42.2018760" lon="-8.6076850">
        <ele>85.8</ele>
        <time>2022-06-18T09:07:14Z</time>
      </trkpt>
      <trkpt lat="42.2018880" lon="-8.6076630">
        <ele>85.8</ele>
        <time>2022-06-18T09:07:15Z</time>
      </trkpt>
      <trkpt lat="42.2019010" lon="-8.6076380">
        <ele>85.6</ele>
        <time>2022-06-18T09:07:16Z</time>
      </trkpt>
      <trkpt lat="42.2019150" lon="-8.6076160">
        <ele>85.8</ele>
        <time>2022-06-18T09:07:17Z</time>
      </trkpt>
      <trkpt lat="42.2019280" lon="-8.6075960">
        <ele>85.8</ele>
        <time>2022-06-18T09:07:18Z</time>
      </trkpt>
      <trkpt lat="42.2019400" lon="-8.6075780">
        <ele>85.8</ele>
        <time>2022-06-18T09:07:19Z</time>
      </trkpt>
      <trkpt lat="42.2019530" lon="-8.6075580">
        <ele>86.2</ele>
        <time>2022-06-18T09:07:20Z</time>
      </trkpt>
      <trkpt lat="42.2019630" lon="-8.6075380">
        <ele>86.6</ele>
        <time>2022-06-18T09:07:21Z</time>
      </trkpt>
      <trkpt lat="42.2019750" lon="-8.6075180">
        <ele>86.6</ele>
        <time>2022-06-18T09:07:22Z</time>
      </trkpt>
      <trkpt lat="42.2019860" lon="-8.6074960">
        <ele>86.6</ele>
        <time>2022-06-18T09:07:23Z</time>
      </trkpt>
      <trkpt lat="42.2020000" lon="-8.6074730">
        <ele>86.8</ele>
        <time>2022-06-18T09:07:24Z</time>
      </trkpt>
      <trkpt lat="42.2020180" lon="-8.6074460">
        <ele>86.6</ele>
        <time>2022-06-18T09:07:25Z</time>
      </trkpt>
      <trkpt lat="42.2020350" lon="-8.6074180">
        <ele>86.6</ele>
        <time>2022-06-18T09:07:26Z</time>
      </trkpt>
      <trkpt lat="42.2020550" lon="-8.6073850">
        <ele>86.6</ele>
        <time>2022-06-18T09:07:27Z</time>
      </trkpt>
      <trkpt lat="42.2020730" lon="-8.6073510">
        <ele>86.6</ele>
        <time>2022-06-18T09:07:28Z</time>
      </trkpt>
      <trkpt lat="42.2020930" lon="-8.6073160">
        <ele>86.4</ele>
        <time>2022-06-18T09:07:29Z</time>
      </trkpt>
      <trkpt lat="42.2021100" lon="-8.6072800">
        <ele>86.4</ele>
        <time>2022-06-18T09:07:30Z</time>
      </trkpt>
      <trkpt lat="42.2021260" lon="-8.6072410">
        <ele>86.4</ele>
        <time>2022-06-18T09:07:31Z</time>
      </trkpt>
      <trkpt lat="42.2021430" lon="-8.6072010">
        <ele>85.6</ele>
        <time>2022-06-18T09:07:32Z</time>
      </trkpt>
      <trkpt lat="42.2021610" lon="-8.6071580">
        <ele>85.4</ele>
        <time>2022-06-18T09:07:33Z</time>
      </trkpt>
      <trkpt lat="42.2021830" lon="-8.6071160">
        <ele>85.4</ele>
        <time>2022-06-18T09:07:34Z</time>
      </trkpt>
      <trkpt lat="42.2022050" lon="-8.6070760">
        <ele>85.4</ele>
        <time>2022-06-18T09:07:35Z</time>
      </trkpt>
      <trkpt lat="42.2022260" lon="-8.6070350">
        <ele>85.4</ele>
        <time>2022-06-18T09:07:36Z</time>
      </trkpt>
      <trkpt lat="42.2022460" lon="-8.6069910">
        <ele>85.2</ele>
        <time>2022-06-18T09:07:37Z</time>
      </trkpt>
      <trkpt lat="42.2022680" lon="-8.6069500">
        <ele>85.2</ele>
        <time>2022-06-18T09:07:38Z</time>
      </trkpt>
      <trkpt lat="42.2022880" lon="-8.6069100">
        <ele>85.2</ele>
        <time>2022-06-18T09:07:39Z</time>
      </trkpt>
      <trkpt lat="42.2023060" lon="-8.6068700">
        <ele>85.4</ele>
        <time>2022-06-18T09:07:40Z</time>
      </trkpt>
      <trkpt lat="42.2023260" lon="-8.6068310">
        <ele>85.8</ele>
        <time>2022-06-18T09:07:41Z</time>
      </trkpt>
      <trkpt lat="42.2023460" lon="-8.6067980">
        <ele>85.8</ele>
        <time>2022-06-18T09:07:42Z</time>
      </trkpt>
      <trkpt lat="42.2023660" lon="-8.6067630">
        <ele>85.8</ele>
        <time>2022-06-18T09:07:43Z</time>
      </trkpt>
      <trkpt lat="42.2023880" lon="-8.6067330">
        <ele>85.8</ele>
        <time>2022-06-18T09:07:44Z</time>
      </trkpt>
      <trkpt lat="42.2024100" lon="-8.6067030">
        <ele>85.8</ele>
        <time>2022-06-18T09:07:45Z</time>
      </trkpt>
      <trkpt lat="42.2024350" lon="-8.6066750">
        <ele>85.8</ele>
        <time>2022-06-18T09:07:46Z</time>
      </trkpt>
      <trkpt lat="42.2024560" lon="-8.6066480">
        <ele>85.8</ele>
        <time>2022-06-18T09:07:47Z</time>
      </trkpt>
      <trkpt lat="42.2024800" lon="-8.6066250">
        <ele>86.6</ele>
        <time>2022-06-18T09:07:48Z</time>
      </trkpt>
      <trkpt lat="42.2025030" lon="-8.6066010">
        <ele>86.4</ele>
        <time>2022-06-18T09:07:49Z</time>
      </trkpt>
      <trkpt lat="42.2025280" lon="-8.6065760">
        <ele>86.4</ele>
        <time>2022-06-18T09:07:50Z</time>
      </trkpt>
      <trkpt lat="42.2025510" lon="-8.6065510">
        <ele>86.4</ele>
        <time>2022-06-18T09:07:51Z</time>
      </trkpt>
      <trkpt lat="42.2025730" lon="-8.6065280">
        <ele>86.4</ele>
        <time>2022-06-18T09:07:52Z</time>
      </trkpt>
      <trkpt lat="42.2025980" lon="-8.6065050">
        <ele>86.8</ele>
        <time>2022-06-18T09:07:53Z</time>
      </trkpt>
      <trkpt lat="42.2026230" lon="-8.6064860">
        <ele>86.8</ele>
        <time>2022-06-18T09:07:54Z</time>
      </trkpt>
      <trkpt lat="42.2026500" lon="-8.6064650">
        <ele>86.8</ele>
        <time>2022-06-18T09:07:55Z</time>
      </trkpt>
      <trkpt lat="42.2026750" lon="-8.6064430">
        <ele>86.8</ele>
        <time>2022-06-18T09:07:56Z</time>
      </trkpt>
      <trkpt lat="42.2027010" lon="-8.6064200">
        <ele>86.8</ele>
        <time>2022-06-18T09:07:57Z</time>
      </trkpt>
      <trkpt lat="42.2027280" lon="-8.6063960">
        <ele>86.8</ele>
        <time>2022-06-18T09:07:58Z</time>
      </trkpt>
      <trkpt lat="42.2027510" lon="-8.6063710">
        <ele>86.8</ele>
        <time>2022-06-18T09:07:59Z</time>
      </trkpt>
      <trkpt lat="42.2027760" lon="-8.6063460">
        <ele>86.8</ele>
        <time>2022-06-18T09:08:00Z</time>
      </trkpt>
      <trkpt lat="42.2028030" lon="-8.6063230">
        <ele>87.0</ele>
        <time>2022-06-18T09:08:01Z</time>
      </trkpt>
      <trkpt lat="42.2028280" lon="-8.6062960">
        <ele>87.0</ele>
        <time>2022-06-18T09:08:02Z</time>
      </trkpt>
      <trkpt lat="42.2028530" lon="-8.6062730">
        <ele>87.0</ele>
        <time>2022-06-18T09:08:03Z</time>
      </trkpt>
      <trkpt lat="42.2028780" lon="-8.6062480">
        <ele>87.0</ele>
        <time>2022-06-18T09:08:04Z</time>
      </trkpt>
      <trkpt lat="42.2029030" lon="-8.6062230">
        <ele>86.8</ele>
        <time>2022-06-18T09:08:05Z</time>
      </trkpt>
      <trkpt lat="42.2029280" lon="-8.6062000">
        <ele>86.8</ele>
        <time>2022-06-18T09:08:06Z</time>
      </trkpt>
      <trkpt lat="42.2029510" lon="-8.6061800">
        <ele>86.8</ele>
        <time>2022-06-18T09:08:07Z</time>
      </trkpt>
      <trkpt lat="42.2029750" lon="-8.6061580">
        <ele>86.8</ele>
        <time>2022-06-18T09:08:08Z</time>
      </trkpt>
      <trkpt lat="42.2029960" lon="-8.6061350">
        <ele>86.8</ele>
        <time>2022-06-18T09:08:09Z</time>
      </trkpt>
      <trkpt lat="42.2030210" lon="-8.6061100">
        <ele>86.8</ele>
        <time>2022-06-18T09:08:10Z</time>
      </trkpt>
      <trkpt lat="42.2030430" lon="-8.6060860">
        <ele>86.8</ele>
        <time>2022-06-18T09:08:11Z</time>
      </trkpt>
      <trkpt lat="42.2030630" lon="-8.6060680">
        <ele>87.4</ele>
        <time>2022-06-18T09:08:12Z</time>
      </trkpt>
      <trkpt lat="42.2030760" lon="-8.6060460">
        <ele>87.0</ele>
        <time>2022-06-18T09:08:13Z</time>
      </trkpt>
      <trkpt lat="42.2030880" lon="-8.6060280">
        <ele>87.0</ele>
        <time>2022-06-18T09:08:14Z</time>
      </trkpt>
      <trkpt lat="42.2031030" lon="-8.6060110">
        <ele>87.0</ele>
        <time>2022-06-18T09:08:15Z</time>
      </trkpt>
      <trkpt lat="42.2031230" lon="-8.6060010">
        <ele>87.0</ele>
        <time>2022-06-18T09:08:16Z</time>
      </trkpt>
      <trkpt lat="42.2031460" lon="-8.6060010">
        <ele>86.8</ele>
        <time>2022-06-18T09:08:17Z</time>
      </trkpt>
      <trkpt lat="42.2031730" lon="-8.6060060">
        <ele>86.8</ele>
        <time>2022-06-18T09:08:18Z</time>
      </trkpt>
      <trkpt lat="42.2032010" lon="-8.6060150">
        <ele>86.8</ele>
        <time>2022-06-18T09:08:19Z</time>
      </trkpt>
      <trkpt lat="42.2032300" lon="-8.6060150">
        <ele>86.8</ele>
        <time>2022-06-18T09:08:20Z</time>
      </trkpt>
      <trkpt lat="42.2032550" lon="-8.6060130">
        <ele>87.4</ele>
        <time>2022-06-18T09:08:21Z</time>
      </trkpt>
      <trkpt lat="42.2032800" lon="-8.6060100">
        <ele>87.4</ele>
        <time>2022-06-18T09:08:22Z</time>
      </trkpt>
      <trkpt lat="42.2033050" lon="-8.6060010">
        <ele>87.4</ele>
        <time>2022-06-18T09:08:23Z</time>
      </trkpt>
      <trkpt lat="42.2033280" lon="-8.6059850">
        <ele>87.6</ele>
        <time>2022-06-18T09:08:24Z</time>
      </trkpt>
      <trkpt lat="42.2033550" lon="-8.6059710">
        <ele>87.8</ele>
        <time>2022-06-18T09:08:25Z</time>
      </trkpt>
      <trkpt lat="42.2033830" lon="-8.6059580">
        <ele>87.8</ele>
        <time>2022-06-18T09:08:26Z</time>
      </trkpt>
      <trkpt lat="42.2034150" lon="-8.6059450">
        <ele>87.8</ele>
        <time>2022-06-18T09:08:27Z</time>
      </trkpt>
      <trkpt lat="42.2034430" lon="-8.6059310">
        <ele>87.8</ele>
        <time>2022-06-18T09:08:28Z</time>
      </trkpt>
      <trkpt lat="42.2034710" lon="-8.6059200">
        <ele>87.6</ele>
        <time>2022-06-18T09:08:29Z</time>
      </trkpt>
      <trkpt lat="42.2035010" lon="-8.6059110">
        <ele>87.6</ele>
        <time>2022-06-18T09:08:30Z</time>
      </trkpt>
      <trkpt lat="42.2035300" lon="-8.6058960">
        <ele>87.6</ele>
        <time>2022-06-18T09:08:31Z</time>
      </trkpt>
      <trkpt lat="42.2035580" lon="-8.6058810">
        <ele>88.4</ele>
        <time>2022-06-18T09:08:32Z</time>
      </trkpt>
      <trkpt lat="42.2035880" lon="-8.6058660">
        <ele>88.6</ele>
        <time>2022-06-18T09:08:33Z</time>
      </trkpt>
      <trkpt lat="42.2036160" lon="-8.6058550">
        <ele>88.6</ele>
        <time>2022-06-18T09:08:34Z</time>
      </trkpt>
      <trkpt lat="42.2036410" lon="-8.6058430">
        <ele>88.6</ele>
        <time>2022-06-18T09:08:35Z</time>
      </trkpt>
      <trkpt lat="42.2036680" lon="-8.6058260">
        <ele>88.6</ele>
        <time>2022-06-18T09:08:36Z</time>
      </trkpt>
      <trkpt lat="42.2036950" lon="-8.6058160">
        <ele>88.6</ele>
        <time>2022-06-18T09:08:37Z</time>
      </trkpt>
      <trkpt lat="42.2037260" lon="-8.6058050">
        <ele>88.6</ele>
        <time>2022-06-18T09:08:38Z</time>
      </trkpt>
      <trkpt lat="42.2037550" lon="-8.6057850">
        <ele>88.6</ele>
        <time>2022-06-18T09:08:39Z</time>
      </trkpt>
      <trkpt lat="42.2037800" lon="-8.6057660">
        <ele>89.6</ele>
        <time>2022-06-18T09:08:40Z</time>
      </trkpt>
      <trkpt lat="42.2038010" lon="-8.6057500">
        <ele>89.8</ele>
        <time>2022-06-18T09:08:41Z</time>
      </trkpt>
      <trkpt lat="42.2038210" lon="-8.6057400">
        <ele>89.8</ele>
        <time>2022-06-18T09:08:42Z</time>
      </trkpt>
      <trkpt lat="42.2038400" lon="-8.6057350">
        <ele>89.8</ele>
        <time>2022-06-18T09:08:43Z</time>
      </trkpt>
      <trkpt lat="42.2038580" lon="-8.6057380">
        <ele>90.2</ele>
        <time>2022-06-18T09:08:44Z</time>
      </trkpt>
      <trkpt lat="42.2038810" lon="-8.6057380">
        <ele>90.4</ele>
        <time>2022-06-18T09:08:45Z</time>
      </trkpt>
      <trkpt lat="42.2039010" lon="-8.6057430">
        <ele>90.4</ele>
        <time>2022-06-18T09:08:46Z</time>
      </trkpt>
      <trkpt lat="42.2039160" lon="-8.6057460">
        <ele>90.4</ele>
        <time>2022-06-18T09:08:47Z</time>
      </trkpt>
      <trkpt lat="42.2039300" lon="-8.6057530">
        <ele>90.4</ele>
        <time>2022-06-18T09:08:48Z</time>
      </trkpt>
      <trkpt lat="42.2039450" lon="-8.6057630">
        <ele>91.0</ele>
        <time>2022-06-18T09:08:49Z</time>
      </trkpt>
      <trkpt lat="42.2039600" lon="-8.6057750">
        <ele>91.0</ele>
        <time>2022-06-18T09:08:50Z</time>
      </trkpt>
      <trkpt lat="42.2039710" lon="-8.6057860">
        <ele>91.0</ele>
        <time>2022-06-18T09:08:51Z</time>
      </trkpt>
      <trkpt lat="42.2039830" lon="-8.6057980">
        <ele>91.0</ele>
        <time>2022-06-18T09:08:52Z</time>
      </trkpt>
      <trkpt lat="42.2039960" lon="-8.6058100">
        <ele>91.0</ele>
        <time>2022-06-18T09:08:53Z</time>
      </trkpt>
      <trkpt lat="42.2040060" lon="-8.6058210">
        <ele>91.0</ele>
        <time>2022-06-18T09:08:54Z</time>
      </trkpt>
      <trkpt lat="42.2040160" lon="-8.6058330">
        <ele>91.0</ele>
        <time>2022-06-18T09:08:55Z</time>
      </trkpt>
      <trkpt lat="42.2040300" lon="-8.6058450">
        <ele>92.0</ele>
        <time>2022-06-18T09:08:56Z</time>
      </trkpt>
      <trkpt lat="42.2040430" lon="-8.6058550">
        <ele>92.4</ele>
        <time>2022-06-18T09:08:57Z</time>
      </trkpt>
      <trkpt lat="42.2040550" lon="-8.6058630">
        <ele>92.4</ele>
        <time>2022-06-18T09:08:58Z</time>
      </trkpt>
      <trkpt lat="42.2040710" lon="-8.6058710">
        <ele>92.4</ele>
        <time>2022-06-18T09:08:59Z</time>
      </trkpt>
      <trkpt lat="42.2040810" lon="-8.6058830">
        <ele>92.4</ele>
        <time>2022-06-18T09:09:00Z</time>
      </trkpt>
      <trkpt lat="42.2040910" lon="-8.6058930">
        <ele>92.6</ele>
        <time>2022-06-18T09:09:01Z</time>
      </trkpt>
      <trkpt lat="42.2041030" lon="-8.6059030">
        <ele>92.6</ele>
        <time>2022-06-18T09:09:02Z</time>
      </trkpt>
      <trkpt lat="42.2041110" lon="-8.6059150">
        <ele>92.6</ele>
        <time>2022-06-18T09:09:03Z</time>
      </trkpt>
      <trkpt lat="42.2041230" lon="-8.6059280">
        <ele>93.4</ele>
        <time>2022-06-18T09:09:04Z</time>
      </trkpt>
      <trkpt lat="42.2041360" lon="-8.6059410">
        <ele>93.8</ele>
        <time>2022-06-18T09:09:05Z</time>
      </trkpt>
      <trkpt lat="42.2041510" lon="-8.6059480">
        <ele>93.8</ele>
        <time>2022-06-18T09:09:06Z</time>
      </trkpt>
      <trkpt lat="42.2041680" lon="-8.6059560">
        <ele>93.8</ele>
        <time>2022-06-18T09:09:07Z</time>
      </trkpt>
      <trkpt lat="42.2041850" lon="-8.6059650">
        <ele>93.8</ele>
        <time>2022-06-18T09:09:08Z</time>
      </trkpt>
      <trkpt lat="42.2042000" lon="-8.6059730">
        <ele>93.8</ele>
        <time>2022-06-18T09:09:09Z</time>
      </trkpt>
      <trkpt lat="42.2042160" lon="-8.6059810">
        <ele>93.8</ele>
        <time>2022-06-18T09:09:10Z</time>
      </trkpt>
      <trkpt lat="42.2042300" lon="-8.6059910">
        <ele>93.8</ele>
        <time>2022-06-18T09:09:11Z</time>
      </trkpt>
      <trkpt lat="42.2042450" lon="-8.6060010">
        <ele>94.4</ele>
        <time>2022-06-18T09:09:12Z</time>
      </trkpt>
      <trkpt lat="42.2042600" lon="-8.6060110">
        <ele>94.4</ele>
        <time>2022-06-18T09:09:13Z</time>
      </trkpt>
      <trkpt lat="42.2042750" lon="-8.6060200">
        <ele>94.4</ele>
        <time>2022-06-18T09:09:14Z</time>
      </trkpt>
      <trkpt lat="42.2042880" lon="-8.6060300">
        <ele>94.4</ele>
        <time>2022-06-18T09:09:15Z</time>
      </trkpt>
      <trkpt lat="42.2043010" lon="-8.6060380">
        <ele>94.8</ele>
        <time>2022-06-18T09:09:16Z</time>
      </trkpt>
      <trkpt lat="42.2043160" lon="-8.6060450">
        <ele>95.2</ele>
        <time>2022-06-18T09:09:17Z</time>
      </trkpt>
      <trkpt lat="42.2043330" lon="-8.6060530">
        <ele>95.2</ele>
        <time>2022-06-18T09:09:18Z</time>
      </trkpt>
      <trkpt lat="42.2043480" lon="-8.6060610">
        <ele>95.2</ele>
        <time>2022-06-18T09:09:19Z</time>
      </trkpt>
      <trkpt lat="42.2043630" lon="-8.6060710">
        <ele>95.2</ele>
        <time>2022-06-18T09:09:20Z</time>
      </trkpt>
      <trkpt lat="42.2043760" lon="-8.6060810">
        <ele>95.6</ele>
        <time>2022-06-18T09:09:21Z</time>
      </trkpt>
      <trkpt lat="42.2043910" lon="-8.6060880">
        <ele>95.6</ele>
        <time>2022-06-18T09:09:22Z</time>
      </trkpt>
      <trkpt lat="42.2044060" lon="-8.6060960">
        <ele>95.6</ele>
        <time>2022-06-18T09:09:23Z</time>
      </trkpt>
      <trkpt lat="42.2044210" lon="-8.6061010">
        <ele>95.6</ele>
        <time>2022-06-18T09:09:24Z</time>
      </trkpt>
      <trkpt lat="42.2044350" lon="-8.6061050">
        <ele>96.0</ele>
        <time>2022-06-18T09:09:25Z</time>
      </trkpt>
      <trkpt lat="42.2044480" lon="-8.6061060">
        <ele>96.0</ele>
        <time>2022-06-18T09:09:26Z</time>
      </trkpt>
      <trkpt lat="42.2044600" lon="-8.6061110">
        <ele>96.0</ele>
        <time>2022-06-18T09:09:27Z</time>
      </trkpt>
      <trkpt lat="42.2044750" lon="-8.6061150">
        <ele>96.8</ele>
        <time>2022-06-18T09:09:28Z</time>
      </trkpt>
      <trkpt lat="42.2044910" lon="-8.6061210">
        <ele>97.0</ele>
        <time>2022-06-18T09:09:29Z</time>
      </trkpt>
      <trkpt lat="42.2045050" lon="-8.6061300">
        <ele>97.0</ele>
        <time>2022-06-18T09:09:30Z</time>
      </trkpt>
      <trkpt lat="42.2045200" lon="-8.6061330">
        <ele>97.0</ele>
        <time>2022-06-18T09:09:31Z</time>
      </trkpt>
      <trkpt lat="42.2045360" lon="-8.6061400">
        <ele>98.0</ele>
        <time>2022-06-18T09:09:32Z</time>
      </trkpt>
      <trkpt lat="42.2045530" lon="-8.6061460">
        <ele>98.2</ele>
        <time>2022-06-18T09:09:33Z</time>
      </trkpt>
      <trkpt lat="42.2045680" lon="-8.6061500">
        <ele>98.2</ele>
        <time>2022-06-18T09:09:34Z</time>
      </trkpt>
      <trkpt lat="42.2045850" lon="-8.6061560">
        <ele>98.2</ele>
        <time>2022-06-18T09:09:35Z</time>
      </trkpt>
      <trkpt lat="42.2046000" lon="-8.6061630">
        <ele>98.2</ele>
        <time>2022-06-18T09:09:36Z</time>
      </trkpt>
      <trkpt lat="42.2046180" lon="-8.6061650">
        <ele>99.0</ele>
        <time>2022-06-18T09:09:37Z</time>
      </trkpt>
      <trkpt lat="42.2046330" lon="-8.6061660">
        <ele>99.0</ele>
        <time>2022-06-18T09:09:38Z</time>
      </trkpt>
      <trkpt lat="42.2046480" lon="-8.6061700">
        <ele>99.0</ele>
        <time>2022-06-18T09:09:39Z</time>
      </trkpt>
      <trkpt lat="42.2046600" lon="-8.6061780">
        <ele>99.6</ele>
        <time>2022-06-18T09:09:40Z</time>
      </trkpt>
      <trkpt lat="42.2046730" lon="-8.6061860">
        <ele>100.2</ele>
        <time>2022-06-18T09:09:41Z</time>
      </trkpt>
      <trkpt lat="42.2046880" lon="-8.6061930">
        <ele>100.2</ele>
        <time>2022-06-18T09:09:42Z</time>
      </trkpt>
      <trkpt lat="42.2047050" lon="-8.6061960">
        <ele>100.2</ele>
        <time>2022-06-18T09:09:43Z</time>
      </trkpt>
      <trkpt lat="42.2047200" lon="-8.6062050">
        <ele>100.2</ele>
        <time>2022-06-18T09:09:44Z</time>
      </trkpt>
      <trkpt lat="42.2047350" lon="-8.6062130">
        <ele>100.4</ele>
        <time>2022-06-18T09:09:45Z</time>
      </trkpt>
      <trkpt lat="42.2047510" lon="-8.6062200">
        <ele>100.4</ele>
        <time>2022-06-18T09:09:46Z</time>
      </trkpt>
      <trkpt lat="42.2047680" lon="-8.6062250">
        <ele>100.4</ele>
        <time>2022-06-18T09:09:47Z</time>
      </trkpt>
      <trkpt lat="42.2047860" lon="-8.6062250">
        <ele>100.4</ele>
        <time>2022-06-18T09:09:48Z</time>
      </trkpt>
      <trkpt lat="42.2048030" lon="-8.6062280">
        <ele>100.4</ele>
        <time>2022-06-18T09:09:49Z</time>
      </trkpt>
      <trkpt lat="42.2048180" lon="-8.6062310">
        <ele>100.4</ele>
        <time>2022-06-18T09:09:50Z</time>
      </trkpt>
      <trkpt lat="42.2048330" lon="-8.6062330">
        <ele>100.4</ele>
        <time>2022-06-18T09:09:51Z</time>
      </trkpt>
      <trkpt lat="42.2048480" lon="-8.6062400">
        <ele>100.8</ele>
        <time>2022-06-18T09:09:52Z</time>
      </trkpt>
      <trkpt lat="42.2048610" lon="-8.6062410">
        <ele>101.0</ele>
        <time>2022-06-18T09:09:53Z</time>
      </trkpt>
      <trkpt lat="42.2048760" lon="-8.6062450">
        <ele>101.0</ele>
        <time>2022-06-18T09:09:54Z</time>
      </trkpt>
      <trkpt lat="42.2048900" lon="-8.6062450">
        <ele>101.0</ele>
        <time>2022-06-18T09:09:55Z</time>
      </trkpt>
      <trkpt lat="42.2049060" lon="-8.6062480">
        <ele>102.0</ele>
        <time>2022-06-18T09:09:56Z</time>
      </trkpt>
      <trkpt lat="42.2049210" lon="-8.6062460">
        <ele>102.0</ele>
        <time>2022-06-18T09:09:57Z</time>
      </trkpt>
      <trkpt lat="42.2049360" lon="-8.6062460">
        <ele>102.0</ele>
        <time>2022-06-18T09:09:58Z</time>
      </trkpt>
      <trkpt lat="42.2049500" lon="-8.6062480">
        <ele>102.0</ele>
        <time>2022-06-18T09:09:59Z</time>
      </trkpt>
      <trkpt lat="42.2049630" lon="-8.6062500">
        <ele>102.0</ele>
        <time>2022-06-18T09:10:00Z</time>
      </trkpt>
      <trkpt lat="42.2049780" lon="-8.6062530">
        <ele>102.4</ele>
        <time>2022-06-18T09:10:01Z</time>
      </trkpt>
      <trkpt lat="42.2049930" lon="-8.6062530">
        <ele>102.4</ele>
        <time>2022-06-18T09:10:02Z</time>
      </trkpt>
      <trkpt lat="42.2050080" lon="-8.6062560">
        <ele>102.4</ele>
        <time>2022-06-18T09:10:03Z</time>
      </trkpt>
      <trkpt lat="42.2050230" lon="-8.6062580">
        <ele>103.0</ele>
        <time>2022-06-18T09:10:04Z</time>
      </trkpt>
      <trkpt lat="42.2050380" lon="-8.6062580">
        <ele>103.2</ele>
        <time>2022-06-18T09:10:05Z</time>
      </trkpt>
      <trkpt lat="42.2050510" lon="-8.6062600">
        <ele>103.2</ele>
        <time>2022-06-18T09:10:06Z</time>
      </trkpt>
      <trkpt lat="42.2050660" lon="-8.6062610">
        <ele>103.2</ele>
        <time>2022-06-18T09:10:07Z</time>
      </trkpt>
      <trkpt lat="42.2050800" lon="-8.6062610">
        <ele>103.6</ele>
        <time>2022-06-18T09:10:08Z</time>
      </trkpt>
      <trkpt lat="42.2050930" lon="-8.6062600">
        <ele>104.0</ele>
        <time>2022-06-18T09:10:09Z</time>
      </trkpt>
      <trkpt lat="42.2051060" lon="-8.6062650">
        <ele>104.0</ele>
        <time>2022-06-18T09:10:10Z</time>
      </trkpt>
      <trkpt lat="42.2051210" lon="-8.6062630">
        <ele>104.0</ele>
        <time>2022-06-18T09:10:11Z</time>
      </trkpt>
      <trkpt lat="42.2051360" lon="-8.6062650">
        <ele>104.0</ele>
        <time>2022-06-18T09:10:12Z</time>
      </trkpt>
      <trkpt lat="42.2051510" lon="-8.6062660">
        <ele>104.2</ele>
        <time>2022-06-18T09:10:13Z</time>
      </trkpt>
      <trkpt lat="42.2051630" lon="-8.6062650">
        <ele>104.2</ele>
        <time>2022-06-18T09:10:14Z</time>
      </trkpt>
      <trkpt lat="42.2051750" lon="-8.6062660">
        <ele>104.2</ele>
        <time>2022-06-18T09:10:15Z</time>
      </trkpt>
      <trkpt lat="42.2051900" lon="-8.6062600">
        <ele>104.2</ele>
        <time>2022-06-18T09:10:16Z</time>
      </trkpt>
      <trkpt lat="42.2052050" lon="-8.6062560">
        <ele>105.2</ele>
        <time>2022-06-18T09:10:17Z</time>
      </trkpt>
      <trkpt lat="42.2052180" lon="-8.6062560">
        <ele>105.2</ele>
        <time>2022-06-18T09:10:18Z</time>
      </trkpt>
      <trkpt lat="42.2052330" lon="-8.6062560">
        <ele>105.2</ele>
        <time>2022-06-18T09:10:19Z</time>
      </trkpt>
      <trkpt lat="42.2052480" lon="-8.6062560">
        <ele>105.2</ele>
        <time>2022-06-18T09:10:20Z</time>
      </trkpt>
      <trkpt lat="42.2052630" lon="-8.6062550">
        <ele>105.8</ele>
        <time>2022-06-18T09:10:21Z</time>
      </trkpt>
      <trkpt lat="42.2052780" lon="-8.6062510">
        <ele>105.8</ele>
        <time>2022-06-18T09:10:22Z</time>
      </trkpt>
      <trkpt lat="42.2052930" lon="-8.6062550">
        <ele>105.8</ele>
        <time>2022-06-18T09:10:23Z</time>
      </trkpt>
      <trkpt lat="42.2053060" lon="-8.6062550">
        <ele>106.2</ele>
        <time>2022-06-18T09:10:24Z</time>
      </trkpt>
      <trkpt lat="42.2053180" lon="-8.6062560">
        <ele>106.2</ele>
        <time>2022-06-18T09:10:25Z</time>
      </trkpt>
      <trkpt lat="42.2053330" lon="-8.6062600">
        <ele>106.2</ele>
        <time>2022-06-18T09:10:26Z</time>
      </trkpt>
      <trkpt lat="42.2053460" lon="-8.6062610">
        <ele>106.2</ele>
        <time>2022-06-18T09:10:27Z</time>
      </trkpt>
      <trkpt lat="42.2053610" lon="-8.6062630">
        <ele>107.0</ele>
        <time>2022-06-18T09:10:28Z</time>
      </trkpt>
      <trkpt lat="42.2053760" lon="-8.6062650">
        <ele>107.2</ele>
        <time>2022-06-18T09:10:29Z</time>
      </trkpt>
      <trkpt lat="42.2053930" lon="-8.6062660">
        <ele>107.2</ele>
        <time>2022-06-18T09:10:30Z</time>
      </trkpt>
      <trkpt lat="42.2054080" lon="-8.6062660">
        <ele>107.2</ele>
        <time>2022-06-18T09:10:31Z</time>
      </trkpt>
      <trkpt lat="42.2054250" lon="-8.6062660">
        <ele>107.6</ele>
        <time>2022-06-18T09:10:32Z</time>
      </trkpt>
      <trkpt lat="42.2054450" lon="-8.6062660">
        <ele>107.8</ele>
        <time>2022-06-18T09:10:33Z</time>
      </trkpt>
      <trkpt lat="42.2054600" lon="-8.6062660">
        <ele>107.8</ele>
        <time>2022-06-18T09:10:34Z</time>
      </trkpt>
      <trkpt lat="42.2054750" lon="-8.6062630">
        <ele>107.8</ele>
        <time>2022-06-18T09:10:35Z</time>
      </trkpt>
      <trkpt lat="42.2054910" lon="-8.6062630">
        <ele>108.6</ele>
        <time>2022-06-18T09:10:36Z</time>
      </trkpt>
      <trkpt lat="42.2055080" lon="-8.6062610">
        <ele>109.0</ele>
        <time>2022-06-18T09:10:37Z</time>
      </trkpt>
      <trkpt lat="42.2055210" lon="-8.6062610">
        <ele>109.0</ele>
        <time>2022-06-18T09:10:38Z</time>
      </trkpt>
      <trkpt lat="42.2055380" lon="-8.6062610">
        <ele>109.0</ele>
        <time>2022-06-18T09:10:39Z</time>
      </trkpt>
      <trkpt lat="42.2055530" lon="-8.6062610">
        <ele>109.6</ele>
        <time>2022-06-18T09:10:40Z</time>
      </trkpt>
      <trkpt lat="42.2055680" lon="-8.6062630">
        <ele>109.6</ele>
        <time>2022-06-18T09:10:41Z</time>
      </trkpt>
      <trkpt lat="42.2055830" lon="-8.6062630">
        <ele>109.6</ele>
        <time>2022-06-18T09:10:42Z</time>
      </trkpt>
      <trkpt lat="42.2055980" lon="-8.6062650">
        <ele>109.6</ele>
        <time>2022-06-18T09:10:43Z</time>
      </trkpt>
      <trkpt lat="42.2056150" lon="-8.6062660">
        <ele>109.6</ele>
        <time>2022-06-18T09:10:44Z</time>
      </trkpt>
      <trkpt lat="42.2056310" lon="-8.6062680">
        <ele>110.6</ele>
        <time>2022-06-18T09:10:45Z</time>
      </trkpt>
      <trkpt lat="42.2056450" lon="-8.6062700">
        <ele>110.6</ele>
        <time>2022-06-18T09:10:46Z</time>
      </trkpt>
      <trkpt lat="42.2056600" lon="-8.6062730">
        <ele>110.6</ele>
        <time>2022-06-18T09:10:47Z</time>
      </trkpt>
      <trkpt lat="42.2056750" lon="-8.6062760">
        <ele>111.0</ele>
        <time>2022-06-18T09:10:48Z</time>
      </trkpt>
      <trkpt lat="42.2056900" lon="-8.6062830">
        <ele>111.4</ele>
        <time>2022-06-18T09:10:49Z</time>
      </trkpt>
      <trkpt lat="42.2057060" lon="-8.6062900">
        <ele>111.4</ele>
        <time>2022-06-18T09:10:50Z</time>
      </trkpt>
      <trkpt lat="42.2057210" lon="-8.6062950">
        <ele>111.4</ele>
        <time>2022-06-18T09:10:51Z</time>
      </trkpt>
      <trkpt lat="42.2057360" lon="-8.6062980">
        <ele>111.4</ele>
        <time>2022-06-18T09:10:52Z</time>
      </trkpt>
      <trkpt lat="42.2057500" lon="-8.6063010">
        <ele>112.4</ele>
        <time>2022-06-18T09:10:53Z</time>
      </trkpt>
      <trkpt lat="42.2057660" lon="-8.6063030">
        <ele>112.4</ele>
        <time>2022-06-18T09:10:54Z</time>
      </trkpt>
      <trkpt lat="42.2057810" lon="-8.6063050">
        <ele>112.4</ele>
        <time>2022-06-18T09:10:55Z</time>
      </trkpt>
      <trkpt lat="42.2057960" lon="-8.6063050">
        <ele>112.4</ele>
        <time>2022-06-18T09:10:56Z</time>
      </trkpt>
      <trkpt lat="42.2058100" lon="-8.6063030">
        <ele>113.2</ele>
        <time>2022-06-18T09:10:57Z</time>
      </trkpt>
      <trkpt lat="42.2058250" lon="-8.6063050">
        <ele>113.2</ele>
        <time>2022-06-18T09:10:58Z</time>
      </trkpt>
      <trkpt lat="42.2058380" lon="-8.6063100">
        <ele>113.2</ele>
        <time>2022-06-18T09:10:59Z</time>
      </trkpt>
      <trkpt lat="42.2058530" lon="-8.6063100">
        <ele>113.8</ele>
        <time>2022-06-18T09:11:00Z</time>
      </trkpt>
      <trkpt lat="42.2058710" lon="-8.6063080">
        <ele>113.8</ele>
        <time>2022-06-18T09:11:01Z</time>
      </trkpt>
      <trkpt lat="42.2058860" lon="-8.6063080">
        <ele>113.8</ele>
        <time>2022-06-18T09:11:02Z</time>
      </trkpt>
      <trkpt lat="42.2059010" lon="-8.6063130">
        <ele>113.8</ele>
        <time>2022-06-18T09:11:03Z</time>
      </trkpt>
      <trkpt lat="42.2059100" lon="-8.6063180">
        <ele>114.2</ele>
        <time>2022-06-18T09:11:04Z</time>
      </trkpt>
      <trkpt lat="42.2059250" lon="-8.6063180">
        <ele>114.2</ele>
        <time>2022-06-18T09:11:05Z</time>
      </trkpt>
      <trkpt lat="42.2059360" lon="-8.6063210">
        <ele>114.2</ele>
        <time>2022-06-18T09:11:06Z</time>
      </trkpt>
      <trkpt lat="42.2059460" lon="-8.6063210">
        <ele>114.2</ele>
        <time>2022-06-18T09:11:07Z</time>
      </trkpt>
      <trkpt lat="42.2059630" lon="-8.6063230">
        <ele>114.2</ele>
        <time>2022-06-18T09:11:08Z</time>
      </trkpt>
      <trkpt lat="42.2059800" lon="-8.6063280">
        <ele>114.2</ele>
        <time>2022-06-18T09:11:09Z</time>
      </trkpt>
      <trkpt lat="42.2059950" lon="-8.6063310">
        <ele>114.2</ele>
        <time>2022-06-18T09:11:10Z</time>
      </trkpt>
      <trkpt lat="42.2060130" lon="-8.6063380">
        <ele>114.2</ele>
        <time>2022-06-18T09:11:11Z</time>
      </trkpt>
      <trkpt lat="42.2060250" lon="-8.6063460">
        <ele>114.8</ele>
        <time>2022-06-18T09:11:12Z</time>
      </trkpt>
      <trkpt lat="42.2060380" lon="-8.6063510">
        <ele>114.8</ele>
        <time>2022-06-18T09:11:13Z</time>
      </trkpt>
      <trkpt lat="42.2060500" lon="-8.6063580">
        <ele>114.8</ele>
        <time>2022-06-18T09:11:14Z</time>
      </trkpt>
      <trkpt lat="42.2060610" lon="-8.6063650">
        <ele>114.8</ele>
        <time>2022-06-18T09:11:15Z</time>
      </trkpt>
      <trkpt lat="42.2060730" lon="-8.6063750">
        <ele>115.4</ele>
        <time>2022-06-18T09:11:16Z</time>
      </trkpt>
      <trkpt lat="42.2060860" lon="-8.6063830">
        <ele>115.4</ele>
        <time>2022-06-18T09:11:17Z</time>
      </trkpt>
      <trkpt lat="42.2061000" lon="-8.6063910">
        <ele>115.4</ele>
        <time>2022-06-18T09:11:18Z</time>
      </trkpt>
      <trkpt lat="42.2061110" lon="-8.6064010">
        <ele>115.4</ele>
        <time>2022-06-18T09:11:19Z</time>
      </trkpt>
      <trkpt lat="42.2061230" lon="-8.6064110">
        <ele>115.4</ele>
        <time>2022-06-18T09:11:20Z</time>
      </trkpt>
      <trkpt lat="42.2061350" lon="-8.6064180">
        <ele>116.6</ele>
        <time>2022-06-18T09:11:21Z</time>
      </trkpt>
      <trkpt lat="42.2061460" lon="-8.6064260">
        <ele>116.6</ele>
        <time>2022-06-18T09:11:22Z</time>
      </trkpt>
      <trkpt lat="42.2061550" lon="-8.6064310">
        <ele>116.6</ele>
        <time>2022-06-18T09:11:23Z</time>
      </trkpt>
      <trkpt lat="42.2061650" lon="-8.6064380">
        <ele>117.2</ele>
        <time>2022-06-18T09:11:24Z</time>
      </trkpt>
      <trkpt lat="42.2061780" lon="-8.6064460">
        <ele>117.4</ele>
        <time>2022-06-18T09:11:25Z</time>
      </trkpt>
      <trkpt lat="42.2061930" lon="-8.6064530">
        <ele>117.4</ele>
        <time>2022-06-18T09:11:26Z</time>
      </trkpt>
      <trkpt lat="42.2062060" lon="-8.6064600">
        <ele>117.4</ele>
        <time>2022-06-18T09:11:27Z</time>
      </trkpt>
      <trkpt lat="42.2062160" lon="-8.6064680">
        <ele>117.4</ele>
        <time>2022-06-18T09:11:28Z</time>
      </trkpt>
      <trkpt lat="42.2062260" lon="-8.6064760">
        <ele>117.6</ele>
        <time>2022-06-18T09:11:29Z</time>
      </trkpt>
      <trkpt lat="42.2062350" lon="-8.6064860">
        <ele>117.6</ele>
        <time>2022-06-18T09:11:30Z</time>
      </trkpt>
      <trkpt lat="42.2062460" lon="-8.6064960">
        <ele>117.6</ele>
        <time>2022-06-18T09:11:31Z</time>
      </trkpt>
      <trkpt lat="42.2062560" lon="-8.6065050">
        <ele>118.2</ele>
        <time>2022-06-18T09:11:32Z</time>
      </trkpt>
      <trkpt lat="42.2062680" lon="-8.6065150">
        <ele>118.2</ele>
        <time>2022-06-18T09:11:33Z</time>
      </trkpt>
      <trkpt lat="42.2062780" lon="-8.6065230">
        <ele>118.2</ele>
        <time>2022-06-18T09:11:34Z</time>
      </trkpt>
      <trkpt lat="42.2062900" lon="-8.6065310">
        <ele>118.2</ele>
        <time>2022-06-18T09:11:35Z</time>
      </trkpt>
      <trkpt lat="42.2063010" lon="-8.6065400">
        <ele>118.8</ele>
        <time>2022-06-18T09:11:36Z</time>
      </trkpt>
      <trkpt lat="42.2063130" lon="-8.6065530">
        <ele>119.0</ele>
        <time>2022-06-18T09:11:37Z</time>
      </trkpt>
      <trkpt lat="42.2063250" lon="-8.6065630">
        <ele>119.0</ele>
        <time>2022-06-18T09:11:38Z</time>
      </trkpt>
      <trkpt lat="42.2063380" lon="-8.6065730">
        <ele>119.0</ele>
        <time>2022-06-18T09:11:39Z</time>
      </trkpt>
      <trkpt lat="42.2063500" lon="-8.6065830">
        <ele>119.6</ele>
        <time>2022-06-18T09:11:40Z</time>
      </trkpt>
      <trkpt lat="42.2063630" lon="-8.6065930">
        <ele>119.8</ele>
        <time>2022-06-18T09:11:41Z</time>
      </trkpt>
      <trkpt lat="42.2063750" lon="-8.6066000">
        <ele>119.8</ele>
        <time>2022-06-18T09:11:42Z</time>
      </trkpt>
      <trkpt lat="42.2063880" lon="-8.6066060">
        <ele>119.8</ele>
        <time>2022-06-18T09:11:43Z</time>
      </trkpt>
      <trkpt lat="42.2064000" lon="-8.6066150">
        <ele>120.0</ele>
        <time>2022-06-18T09:11:44Z</time>
      </trkpt>
      <trkpt lat="42.2064110" lon="-8.6066230">
        <ele>120.4</ele>
        <time>2022-06-18T09:11:45Z</time>
      </trkpt>
      <trkpt lat="42.2064250" lon="-8.6066310">
        <ele>120.4</ele>
        <time>2022-06-18T09:11:46Z</time>
      </trkpt>
      <trkpt lat="42.2064360" lon="-8.6066360">
        <ele>120.4</ele>
        <time>2022-06-18T09:11:47Z</time>
      </trkpt>
      <trkpt lat="42.2064450" lon="-8.6066430">
        <ele>121.0</ele>
        <time>2022-06-18T09:11:48Z</time>
      </trkpt>
      <trkpt lat="42.2064530" lon="-8.6066500">
        <ele>121.0</ele>
        <time>2022-06-18T09:11:49Z</time>
      </trkpt>
      <trkpt lat="42.2064610" lon="-8.6066600">
        <ele>121.0</ele>
        <time>2022-06-18T09:11:50Z</time>
      </trkpt>
      <trkpt lat="42.2064710" lon="-8.6066700">
        <ele>121.0</ele>
        <time>2022-06-18T09:11:51Z</time>
      </trkpt>
      <trkpt lat="42.2064810" lon="-8.6066780">
        <ele>121.8</ele>
        <time>2022-06-18T09:11:52Z</time>
      </trkpt>
      <trkpt lat="42.2064930" lon="-8.6066850">
        <ele>121.8</ele>
        <time>2022-06-18T09:11:53Z</time>
      </trkpt>
      <trkpt lat="42.2065060" lon="-8.6066930">
        <ele>121.8</ele>
        <time>2022-06-18T09:11:54Z</time>
      </trkpt>
      <trkpt lat="42.2065180" lon="-8.6067000">
        <ele>121.8</ele>
        <time>2022-06-18T09:11:55Z</time>
      </trkpt>
      <trkpt lat="42.2065310" lon="-8.6067050">
        <ele>122.2</ele>
        <time>2022-06-18T09:11:56Z</time>
      </trkpt>
      <trkpt lat="42.2065450" lon="-8.6067110">
        <ele>122.4</ele>
        <time>2022-06-18T09:11:57Z</time>
      </trkpt>
      <trkpt lat="42.2065560" lon="-8.6067160">
        <ele>122.4</ele>
        <time>2022-06-18T09:11:58Z</time>
      </trkpt>
      <trkpt lat="42.2065700" lon="-8.6067230">
        <ele>122.4</ele>
        <time>2022-06-18T09:11:59Z</time>
      </trkpt>
      <trkpt lat="42.2065800" lon="-8.6067300">
        <ele>122.6</ele>
        <time>2022-06-18T09:12:00Z</time>
      </trkpt>
      <trkpt lat="42.2065930" lon="-8.6067400">
        <ele>123.2</ele>
        <time>2022-06-18T09:12:01Z</time>
      </trkpt>
      <trkpt lat="42.2066030" lon="-8.6067510">
        <ele>123.2</ele>
        <time>2022-06-18T09:12:02Z</time>
      </trkpt>
      <trkpt lat="42.2066150" lon="-8.6067650">
        <ele>123.2</ele>
        <time>2022-06-18T09:12:03Z</time>
      </trkpt>
      <trkpt lat="42.2066260" lon="-8.6067750">
        <ele>123.2</ele>
        <time>2022-06-18T09:12:04Z</time>
      </trkpt>
      <trkpt lat="42.2066360" lon="-8.6067810">
        <ele>124.0</ele>
        <time>2022-06-18T09:12:05Z</time>
      </trkpt>
      <trkpt lat="42.2066510" lon="-8.6067880">
        <ele>124.0</ele>
        <time>2022-06-18T09:12:06Z</time>
      </trkpt>
      <trkpt lat="42.2066630" lon="-8.6067950">
        <ele>124.0</ele>
        <time>2022-06-18T09:12:07Z</time>
      </trkpt>
      <trkpt lat="42.2066750" lon="-8.6068050">
        <ele>124.0</ele>
        <time>2022-06-18T09:12:08Z</time>
      </trkpt>
      <trkpt lat="42.2066830" lon="-8.6068130">
        <ele>124.2</ele>
        <time>2022-06-18T09:12:09Z</time>
      </trkpt>
      <trkpt lat="42.2066950" lon="-8.6068200">
        <ele>124.2</ele>
        <time>2022-06-18T09:12:10Z</time>
      </trkpt>
      <trkpt lat="42.2067010" lon="-8.6068260">
        <ele>124.2</ele>
        <time>2022-06-18T09:12:11Z</time>
      </trkpt>
      <trkpt lat="42.2067110" lon="-8.6068350">
        <ele>124.6</ele>
        <time>2022-06-18T09:12:12Z</time>
      </trkpt>
      <trkpt lat="42.2067210" lon="-8.6068430">
        <ele>124.6</ele>
        <time>2022-06-18T09:12:13Z</time>
      </trkpt>
      <trkpt lat="42.2067350" lon="-8.6068530">
        <ele>124.6</ele>
        <time>2022-06-18T09:12:14Z</time>
      </trkpt>
      <trkpt lat="42.2067450" lon="-8.6068580">
        <ele>124.6</ele>
        <time>2022-06-18T09:12:15Z</time>
      </trkpt>
      <trkpt lat="42.2067550" lon="-8.6068650">
        <ele>124.6</ele>
        <time>2022-06-18T09:12:16Z</time>
      </trkpt>
      <trkpt lat="42.2067650" lon="-8.6068730">
        <ele>125.6</ele>
        <time>2022-06-18T09:12:17Z</time>
      </trkpt>
      <trkpt lat="42.2067760" lon="-8.6068810">
        <ele>125.6</ele>
        <time>2022-06-18T09:12:18Z</time>
      </trkpt>
      <trkpt lat="42.2067880" lon="-8.6068910">
        <ele>125.6</ele>
        <time>2022-06-18T09:12:19Z</time>
      </trkpt>
      <trkpt lat="42.2068010" lon="-8.6069030">
        <ele>125.6</ele>
        <time>2022-06-18T09:12:20Z</time>
      </trkpt>
      <trkpt lat="42.2068150" lon="-8.6069130">
        <ele>126.0</ele>
        <time>2022-06-18T09:12:21Z</time>
      </trkpt>
      <trkpt lat="42.2068260" lon="-8.6069200">
        <ele>126.0</ele>
        <time>2022-06-18T09:12:22Z</time>
      </trkpt>
      <trkpt lat="42.2068380" lon="-8.6069280">
        <ele>126.0</ele>
        <time>2022-06-18T09:12:23Z</time>
      </trkpt>
      <trkpt lat="42.2068510" lon="-8.6069360">
        <ele>127.0</ele>
        <time>2022-06-18T09:12:24Z</time>
      </trkpt>
      <trkpt lat="42.2068630" lon="-8.6069430">
        <ele>127.2</ele>
        <time>2022-06-18T09:12:25Z</time>
      </trkpt>
      <trkpt lat="42.2068750" lon="-8.6069510">
        <ele>127.2</ele>
        <time>2022-06-18T09:12:26Z</time>
      </trkpt>
      <trkpt lat="42.2068880" lon="-8.6069600">
        <ele>127.2</ele>
        <time>2022-06-18T09:12:27Z</time>
      </trkpt>
      <trkpt lat="42.2069000" lon="-8.6069680">
        <ele>127.2</ele>
        <time>2022-06-18T09:12:28Z</time>
      </trkpt>
      <trkpt lat="42.2069110" lon="-8.6069800">
        <ele>127.6</ele>
        <time>2022-06-18T09:12:29Z</time>
      </trkpt>
      <trkpt lat="42.2069230" lon="-8.6069900">
        <ele>127.6</ele>
        <time>2022-06-18T09:12:30Z</time>
      </trkpt>
      <trkpt lat="42.2069360" lon="-8.6069980">
        <ele>127.6</ele>
        <time>2022-06-18T09:12:31Z</time>
      </trkpt>
      <trkpt lat="42.2069480" lon="-8.6070060">
        <ele>127.8</ele>
        <time>2022-06-18T09:12:32Z</time>
      </trkpt>
      <trkpt lat="42.2069610" lon="-8.6070130">
        <ele>128.0</ele>
        <time>2022-06-18T09:12:33Z</time>
      </trkpt>
      <trkpt lat="42.2069750" lon="-8.6070210">
        <ele>128.0</ele>
        <time>2022-06-18T09:12:34Z</time>
      </trkpt>
      <trkpt lat="42.2069860" lon="-8.6070310">
        <ele>128.0</ele>
        <time>2022-06-18T09:12:35Z</time>
      </trkpt>
      <trkpt lat="42.2069980" lon="-8.6070430">
        <ele>128.4</ele>
        <time>2022-06-18T09:12:36Z</time>
      </trkpt>
      <trkpt lat="42.2070080" lon="-8.6070560">
        <ele>128.6</ele>
        <time>2022-06-18T09:12:37Z</time>
      </trkpt>
      <trkpt lat="42.2070180" lon="-8.6070660">
        <ele>128.6</ele>
        <time>2022-06-18T09:12:38Z</time>
      </trkpt>
      <trkpt lat="42.2070300" lon="-8.6070780">
        <ele>128.6</ele>
        <time>2022-06-18T09:12:39Z</time>
      </trkpt>
      <trkpt lat="42.2070410" lon="-8.6070910">
        <ele>128.6</ele>
        <time>2022-06-18T09:12:40Z</time>
      </trkpt>
      <trkpt lat="42.2070550" lon="-8.6071030">
        <ele>128.8</ele>
        <time>2022-06-18T09:12:41Z</time>
      </trkpt>
      <trkpt lat="42.2070660" lon="-8.6071150">
        <ele>128.8</ele>
        <time>2022-06-18T09:12:42Z</time>
      </trkpt>
      <trkpt lat="42.2070780" lon="-8.6071260">
        <ele>128.8</ele>
        <time>2022-06-18T09:12:43Z</time>
      </trkpt>
      <trkpt lat="42.2070880" lon="-8.6071360">
        <ele>129.2</ele>
        <time>2022-06-18T09:12:44Z</time>
      </trkpt>
      <trkpt lat="42.2070980" lon="-8.6071460">
        <ele>129.6</ele>
        <time>2022-06-18T09:12:45Z</time>
      </trkpt>
      <trkpt lat="42.2071100" lon="-8.6071580">
        <ele>129.6</ele>
        <time>2022-06-18T09:12:46Z</time>
      </trkpt>
      <trkpt lat="42.2071200" lon="-8.6071680">
        <ele>129.6</ele>
        <time>2022-06-18T09:12:47Z</time>
      </trkpt>
      <trkpt lat="42.2071300" lon="-8.6071810">
        <ele>129.6</ele>
        <time>2022-06-18T09:12:48Z</time>
      </trkpt>
      <trkpt lat="42.2071380" lon="-8.6071930">
        <ele>130.4</ele>
        <time>2022-06-18T09:12:49Z</time>
      </trkpt>
      <trkpt lat="42.2071460" lon="-8.6072030">
        <ele>130.4</ele>
        <time>2022-06-18T09:12:50Z</time>
      </trkpt>
      <trkpt lat="42.2071580" lon="-8.6072130">
        <ele>130.4</ele>
        <time>2022-06-18T09:12:51Z</time>
      </trkpt>
      <trkpt lat="42.2071680" lon="-8.6072250">
        <ele>130.4</ele>
        <time>2022-06-18T09:12:52Z</time>
      </trkpt>
      <trkpt lat="42.2071780" lon="-8.6072360">
        <ele>130.8</ele>
        <time>2022-06-18T09:12:53Z</time>
      </trkpt>
      <trkpt lat="42.2071880" lon="-8.6072480">
        <ele>130.8</ele>
        <time>2022-06-18T09:12:54Z</time>
      </trkpt>
      <trkpt lat="42.2071980" lon="-8.6072610">
        <ele>130.8</ele>
        <time>2022-06-18T09:12:55Z</time>
      </trkpt>
      <trkpt lat="42.2072060" lon="-8.6072760">
        <ele>130.8</ele>
        <time>2022-06-18T09:12:56Z</time>
      </trkpt>
      <trkpt lat="42.2072180" lon="-8.6072880">
        <ele>131.2</ele>
        <time>2022-06-18T09:12:57Z</time>
      </trkpt>
      <trkpt lat="42.2072260" lon="-8.6072960">
        <ele>131.2</ele>
        <time>2022-06-18T09:12:58Z</time>
      </trkpt>
      <trkpt lat="42.2072360" lon="-8.6073080">
        <ele>131.2</ele>
        <time>2022-06-18T09:12:59Z</time>
      </trkpt>
      <trkpt lat="42.2072430" lon="-8.6073200">
        <ele>131.8</ele>
        <time>2022-06-18T09:13:00Z</time>
      </trkpt>
      <trkpt lat="42.2072480" lon="-8.6073330">
        <ele>131.6</ele>
        <time>2022-06-18T09:13:01Z</time>
      </trkpt>
      <trkpt lat="42.2072580" lon="-8.6073460">
        <ele>131.6</ele>
        <time>2022-06-18T09:13:02Z</time>
      </trkpt>
      <trkpt lat="42.2072660" lon="-8.6073580">
        <ele>131.6</ele>
        <time>2022-06-18T09:13:03Z</time>
      </trkpt>
      <trkpt lat="42.2072800" lon="-8.6073660">
        <ele>131.8</ele>
        <time>2022-06-18T09:13:04Z</time>
      </trkpt>
      <trkpt lat="42.2072880" lon="-8.6073760">
        <ele>132.2</ele>
        <time>2022-06-18T09:13:05Z</time>
      </trkpt>
      <trkpt lat="42.2072980" lon="-8.6073880">
        <ele>132.2</ele>
        <time>2022-06-18T09:13:06Z</time>
      </trkpt>
      <trkpt lat="42.2073110" lon="-8.6074000">
        <ele>132.2</ele>
        <time>2022-06-18T09:13:07Z</time>
      </trkpt>
      <trkpt lat="42.2073200" lon="-8.6074160">
        <ele>133.0</ele>
        <time>2022-06-18T09:13:08Z</time>
      </trkpt>
      <trkpt lat="42.2073260" lon="-8.6074310">
        <ele>133.2</ele>
        <time>2022-06-18T09:13:09Z</time>
      </trkpt>
      <trkpt lat="42.2073350" lon="-8.6074450">
        <ele>133.2</ele>
        <time>2022-06-18T09:13:10Z</time>
      </trkpt>
      <trkpt lat="42.2073450" lon="-8.6074560">
        <ele>133.2</ele>
        <time>2022-06-18T09:13:11Z</time>
      </trkpt>
      <trkpt lat="42.2073560" lon="-8.6074660">
        <ele>133.2</ele>
        <time>2022-06-18T09:13:12Z</time>
      </trkpt>
      <trkpt lat="42.2073680" lon="-8.6074750">
        <ele>133.6</ele>
        <time>2022-06-18T09:13:13Z</time>
      </trkpt>
      <trkpt lat="42.2073810" lon="-8.6074830">
        <ele>133.6</ele>
        <time>2022-06-18T09:13:14Z</time>
      </trkpt>
      <trkpt lat="42.2073950" lon="-8.6074900">
        <ele>133.6</ele>
        <time>2022-06-18T09:13:15Z</time>
      </trkpt>
      <trkpt lat="42.2074100" lon="-8.6075000">
        <ele>133.8</ele>
        <time>2022-06-18T09:13:16Z</time>
      </trkpt>
      <trkpt lat="42.2074210" lon="-8.6075100">
        <ele>134.2</ele>
        <time>2022-06-18T09:13:17Z</time>
      </trkpt>
      <trkpt lat="42.2074310" lon="-8.6075230">
        <ele>134.2</ele>
        <time>2022-06-18T09:13:18Z</time>
      </trkpt>
      <trkpt lat="42.2074380" lon="-8.6075380">
        <ele>134.2</ele>
        <time>2022-06-18T09:13:19Z</time>
      </trkpt>
      <trkpt lat="42.2074430" lon="-8.6075510">
        <ele>134.2</ele>
        <time>2022-06-18T09:13:20Z</time>
      </trkpt>
      <trkpt lat="42.2074530" lon="-8.6075630">
        <ele>135.0</ele>
        <time>2022-06-18T09:13:21Z</time>
      </trkpt>
      <trkpt lat="42.2074650" lon="-8.6075760">
        <ele>135.0</ele>
        <time>2022-06-18T09:13:22Z</time>
      </trkpt>
      <trkpt lat="42.2074730" lon="-8.6075880">
        <ele>135.0</ele>
        <time>2022-06-18T09:13:23Z</time>
      </trkpt>
      <trkpt lat="42.2074850" lon="-8.6076000">
        <ele>136.0</ele>
        <time>2022-06-18T09:13:24Z</time>
      </trkpt>
      <trkpt lat="42.2074950" lon="-8.6076110">
        <ele>136.0</ele>
        <time>2022-06-18T09:13:25Z</time>
      </trkpt>
      <trkpt lat="42.2075060" lon="-8.6076200">
        <ele>136.0</ele>
        <time>2022-06-18T09:13:26Z</time>
      </trkpt>
      <trkpt lat="42.2075160" lon="-8.6076300">
        <ele>136.0</ele>
        <time>2022-06-18T09:13:27Z</time>
      </trkpt>
      <trkpt lat="42.2075260" lon="-8.6076410">
        <ele>136.4</ele>
        <time>2022-06-18T09:13:28Z</time>
      </trkpt>
      <trkpt lat="42.2075400" lon="-8.6076480">
        <ele>136.6</ele>
        <time>2022-06-18T09:13:29Z</time>
      </trkpt>
      <trkpt lat="42.2075500" lon="-8.6076560">
        <ele>136.6</ele>
        <time>2022-06-18T09:13:30Z</time>
      </trkpt>
      <trkpt lat="42.2075610" lon="-8.6076650">
        <ele>136.6</ele>
        <time>2022-06-18T09:13:31Z</time>
      </trkpt>
      <trkpt lat="42.2075750" lon="-8.6076710">
        <ele>137.0</ele>
        <time>2022-06-18T09:13:32Z</time>
      </trkpt>
      <trkpt lat="42.2075860" lon="-8.6076800">
        <ele>137.4</ele>
        <time>2022-06-18T09:13:33Z</time>
      </trkpt>
      <trkpt lat="42.2075980" lon="-8.6076910">
        <ele>137.4</ele>
        <time>2022-06-18T09:13:34Z</time>
      </trkpt>
      <trkpt lat="42.2076080" lon="-8.6077010">
        <ele>137.4</ele>
        <time>2022-06-18T09:13:35Z</time>
      </trkpt>
      <trkpt lat="42.2076210" lon="-8.6077100">
        <ele>137.8</ele>
        <time>2022-06-18T09:13:36Z</time>
      </trkpt>
      <trkpt lat="42.2076350" lon="-8.6077180">
        <ele>137.8</ele>
        <time>2022-06-18T09:13:37Z</time>
      </trkpt>
      <trkpt lat="42.2076500" lon="-8.6077280">
        <ele>137.8</ele>
        <time>2022-06-18T09:13:38Z</time>
      </trkpt>
      <trkpt lat="42.2076630" lon="-8.6077360">
        <ele>137.8</ele>
        <time>2022-06-18T09:13:39Z</time>
      </trkpt>
      <trkpt lat="42.2076760" lon="-8.6077450">
        <ele>138.4</ele>
        <time>2022-06-18T09:13:40Z</time>
      </trkpt>
      <trkpt lat="42.2076860" lon="-8.6077510">
        <ele>138.6</ele>
        <time>2022-06-18T09:13:41Z</time>
      </trkpt>
      <trkpt lat="42.2076960" lon="-8.6077610">
        <ele>138.6</ele>
        <time>2022-06-18T09:13:42Z</time>
      </trkpt>
      <trkpt lat="42.2077060" lon="-8.6077700">
        <ele>138.6</ele>
        <time>2022-06-18T09:13:43Z</time>
      </trkpt>
      <trkpt lat="42.2077180" lon="-8.6077800">
        <ele>139.0</ele>
        <time>2022-06-18T09:13:44Z</time>
      </trkpt>
      <trkpt lat="42.2077300" lon="-8.6077880">
        <ele>139.0</ele>
        <time>2022-06-18T09:13:45Z</time>
      </trkpt>
      <trkpt lat="42.2077430" lon="-8.6077980">
        <ele>139.0</ele>
        <time>2022-06-18T09:13:46Z</time>
      </trkpt>
      <trkpt lat="42.2077510" lon="-8.6078080">
        <ele>139.0</ele>
        <time>2022-06-18T09:13:47Z</time>
      </trkpt>
      <trkpt lat="42.2077650" lon="-8.6078160">
        <ele>139.4</ele>
        <time>2022-06-18T09:13:48Z</time>
      </trkpt>
      <trkpt lat="42.2077760" lon="-8.6078250">
        <ele>139.8</ele>
        <time>2022-06-18T09:13:49Z</time>
      </trkpt>
      <trkpt lat="42.2077860" lon="-8.6078310">
        <ele>139.8</ele>
        <time>2022-06-18T09:13:50Z</time>
      </trkpt>
      <trkpt lat="42.2078000" lon="-8.6078410">
        <ele>139.8</ele>
        <time>2022-06-18T09:13:51Z</time>
      </trkpt>
      <trkpt lat="42.2078110" lon="-8.6078510">
        <ele>139.8</ele>
        <time>2022-06-18T09:13:52Z</time>
      </trkpt>
      <trkpt lat="42.2078210" lon="-8.6078650">
        <ele>140.6</ele>
        <time>2022-06-18T09:13:53Z</time>
      </trkpt>
      <trkpt lat="42.2078330" lon="-8.6078760">
        <ele>140.6</ele>
        <time>2022-06-18T09:13:54Z</time>
      </trkpt>
      <trkpt lat="42.2078430" lon="-8.6078860">
        <ele>140.6</ele>
        <time>2022-06-18T09:13:55Z</time>
      </trkpt>
      <trkpt lat="42.2078560" lon="-8.6078930">
        <ele>140.6</ele>
        <time>2022-06-18T09:13:56Z</time>
      </trkpt>
      <trkpt lat="42.2078700" lon="-8.6079010">
        <ele>141.0</ele>
        <time>2022-06-18T09:13:57Z</time>
      </trkpt>
      <trkpt lat="42.2078800" lon="-8.6079150">
        <ele>141.0</ele>
        <time>2022-06-18T09:13:58Z</time>
      </trkpt>
      <trkpt lat="42.2078900" lon="-8.6079300">
        <ele>141.0</ele>
        <time>2022-06-18T09:13:59Z</time>
      </trkpt>
      <trkpt lat="42.2079010" lon="-8.6079410">
        <ele>141.2</ele>
        <time>2022-06-18T09:14:00Z</time>
      </trkpt>
      <trkpt lat="42.2079110" lon="-8.6079550">
        <ele>141.4</ele>
        <time>2022-06-18T09:14:01Z</time>
      </trkpt>
      <trkpt lat="42.2079210" lon="-8.6079650">
        <ele>141.4</ele>
        <time>2022-06-18T09:14:02Z</time>
      </trkpt>
      <trkpt lat="42.2079310" lon="-8.6079760">
        <ele>141.4</ele>
        <time>2022-06-18T09:14:03Z</time>
      </trkpt>
      <trkpt lat="42.2079400" lon="-8.6079880">
        <ele>141.4</ele>
        <time>2022-06-18T09:14:04Z</time>
      </trkpt>
      <trkpt lat="42.2079500" lon="-8.6079960">
        <ele>142.2</ele>
        <time>2022-06-18T09:14:05Z</time>
      </trkpt>
      <trkpt lat="42.2079630" lon="-8.6080060">
        <ele>142.2</ele>
        <time>2022-06-18T09:14:06Z</time>
      </trkpt>
      <trkpt lat="42.2079750" lon="-8.6080160">
        <ele>142.2</ele>
        <time>2022-06-18T09:14:07Z</time>
      </trkpt>
      <trkpt lat="42.2079850" lon="-8.6080230">
        <ele>142.2</ele>
        <time>2022-06-18T09:14:08Z</time>
      </trkpt>
      <trkpt lat="42.2079960" lon="-8.6080310">
        <ele>142.8</ele>
        <time>2022-06-18T09:14:09Z</time>
      </trkpt>
      <trkpt lat="42.2080080" lon="-8.6080400">
        <ele>142.8</ele>
        <time>2022-06-18T09:14:10Z</time>
      </trkpt>
      <trkpt lat="42.2080160" lon="-8.6080480">
        <ele>142.8</ele>
        <time>2022-06-18T09:14:11Z</time>
      </trkpt>
      <trkpt lat="42.2080260" lon="-8.6080560">
        <ele>142.8</ele>
        <time>2022-06-18T09:14:12Z</time>
      </trkpt>
      <trkpt lat="42.2080350" lon="-8.6080660">
        <ele>143.8</ele>
        <time>2022-06-18T09:14:13Z</time>
      </trkpt>
      <trkpt lat="42.2080460" lon="-8.6080750">
        <ele>143.8</ele>
        <time>2022-06-18T09:14:14Z</time>
      </trkpt>
      <trkpt lat="42.2080600" lon="-8.6080830">
        <ele>143.8</ele>
        <time>2022-06-18T09:14:15Z</time>
      </trkpt>
      <trkpt lat="42.2080700" lon="-8.6080910">
        <ele>143.8</ele>
        <time>2022-06-18T09:14:16Z</time>
      </trkpt>
      <trkpt lat="42.2080810" lon="-8.6081010">
        <ele>144.2</ele>
        <time>2022-06-18T09:14:17Z</time>
      </trkpt>
      <trkpt lat="42.2080910" lon="-8.6081100">
        <ele>144.2</ele>
        <time>2022-06-18T09:14:18Z</time>
      </trkpt>
      <trkpt lat="42.2081000" lon="-8.6081160">
        <ele>144.2</ele>
        <time>2022-06-18T09:14:19Z</time>
      </trkpt>
      <trkpt lat="42.2081100" lon="-8.6081250">
        <ele>144.6</ele>
        <time>2022-06-18T09:14:20Z</time>
      </trkpt>
      <trkpt lat="42.2081230" lon="-8.6081330">
        <ele>144.8</ele>
        <time>2022-06-18T09:14:21Z</time>
      </trkpt>
      <trkpt lat="42.2081310" lon="-8.6081400">
        <ele>144.8</ele>
        <time>2022-06-18T09:14:22Z</time>
      </trkpt>
      <trkpt lat="42.2081450" lon="-8.6081500">
        <ele>144.8</ele>
        <time>2022-06-18T09:14:23Z</time>
      </trkpt>
      <trkpt lat="42.2081550" lon="-8.6081610">
        <ele>145.4</ele>
        <time>2022-06-18T09:14:24Z</time>
      </trkpt>
      <trkpt lat="42.2081630" lon="-8.6081700">
        <ele>145.4</ele>
        <time>2022-06-18T09:14:25Z</time>
      </trkpt>
      <trkpt lat="42.2081730" lon="-8.6081810">
        <ele>145.4</ele>
        <time>2022-06-18T09:14:26Z</time>
      </trkpt>
      <trkpt lat="42.2081830" lon="-8.6081910">
        <ele>145.4</ele>
        <time>2022-06-18T09:14:27Z</time>
      </trkpt>
      <trkpt lat="42.2081930" lon="-8.6082000">
        <ele>146.0</ele>
        <time>2022-06-18T09:14:28Z</time>
      </trkpt>
      <trkpt lat="42.2082050" lon="-8.6082110">
        <ele>146.0</ele>
        <time>2022-06-18T09:14:29Z</time>
      </trkpt>
      <trkpt lat="42.2082160" lon="-8.6082210">
        <ele>146.0</ele>
        <time>2022-06-18T09:14:30Z</time>
      </trkpt>
      <trkpt lat="42.2082260" lon="-8.6082310">
        <ele>146.0</ele>
        <time>2022-06-18T09:14:31Z</time>
      </trkpt>
      <trkpt lat="42.2082400" lon="-8.6082410">
        <ele>146.8</ele>
        <time>2022-06-18T09:14:32Z</time>
      </trkpt>
      <trkpt lat="42.2082560" lon="-8.6082530">
        <ele>146.8</ele>
        <time>2022-06-18T09:14:33Z</time>
      </trkpt>
      <trkpt lat="42.2082680" lon="-8.6082630">
        <ele>146.8</ele>
        <time>2022-06-18T09:14:34Z</time>
      </trkpt>
      <trkpt lat="42.2082780" lon="-8.6082730">
        <ele>146.8</ele>
        <time>2022-06-18T09:14:35Z</time>
      </trkpt>
      <trkpt lat="42.2082910" lon="-8.6082830">
        <ele>147.4</ele>
        <time>2022-06-18T09:14:36Z</time>
      </trkpt>
      <trkpt lat="42.2083010" lon="-8.6082930">
        <ele>147.8</ele>
        <time>2022-06-18T09:14:37Z</time>
      </trkpt>
      <trkpt lat="42.2083130" lon="-8.6083030">
        <ele>147.8</ele>
        <time>2022-06-18T09:14:38Z</time>
      </trkpt>
      <trkpt lat="42.2083250" lon="-8.6083130">
        <ele>147.8</ele>
        <time>2022-06-18T09:14:39Z</time>
      </trkpt>
      <trkpt lat="42.2083360" lon="-8.6083250">
        <ele>147.8</ele>
        <time>2022-06-18T09:14:40Z</time>
      </trkpt>
      <trkpt lat="42.2083480" lon="-8.6083380">
        <ele>148.4</ele>
        <time>2022-06-18T09:14:41Z</time>
      </trkpt>
      <trkpt lat="42.2083600" lon="-8.6083510">
        <ele>148.4</ele>
        <time>2022-06-18T09:14:42Z</time>
      </trkpt>
      <trkpt lat="42.2083710" lon="-8.6083630">
        <ele>148.4</ele>
        <time>2022-06-18T09:14:43Z</time>
      </trkpt>
      <trkpt lat="42.2083810" lon="-8.6083700">
        <ele>148.4</ele>
        <time>2022-06-18T09:14:44Z</time>
      </trkpt>
      <trkpt lat="42.2083950" lon="-8.6083750">
        <ele>148.8</ele>
        <time>2022-06-18T09:14:45Z</time>
      </trkpt>
      <trkpt lat="42.2084100" lon="-8.6083810">
        <ele>148.8</ele>
        <time>2022-06-18T09:14:46Z</time>
      </trkpt>
      <trkpt lat="42.2084210" lon="-8.6083860">
        <ele>148.8</ele>
        <time>2022-06-18T09:14:47Z</time>
      </trkpt>
      <trkpt lat="42.2084310" lon="-8.6083930">
        <ele>149.2</ele>
        <time>2022-06-18T09:14:48Z</time>
      </trkpt>
      <trkpt lat="42.2084430" lon="-8.6084030">
        <ele>149.6</ele>
        <time>2022-06-18T09:14:49Z</time>
      </trkpt>
      <trkpt lat="42.2084500" lon="-8.6084160">
        <ele>149.6</ele>
        <time>2022-06-18T09:14:50Z</time>
      </trkpt>
      <trkpt lat="42.2084560" lon="-8.6084330">
        <ele>149.6</ele>
        <time>2022-06-18T09:14:51Z</time>
      </trkpt>
      <trkpt lat="42.2084650" lon="-8.6084460">
        <ele>149.6</ele>
        <time>2022-06-18T09:14:52Z</time>
      </trkpt>
      <trkpt lat="42.2084750" lon="-8.6084580">
        <ele>150.2</ele>
        <time>2022-06-18T09:14:53Z</time>
      </trkpt>
      <trkpt lat="42.2084850" lon="-8.6084700">
        <ele>150.2</ele>
        <time>2022-06-18T09:14:54Z</time>
      </trkpt>
      <trkpt lat="42.2084930" lon="-8.6084830">
        <ele>150.2</ele>
        <time>2022-06-18T09:14:55Z</time>
      </trkpt>
      <trkpt lat="42.2085030" lon="-8.6084950">
        <ele>150.2</ele>
        <time>2022-06-18T09:14:56Z</time>
      </trkpt>
      <trkpt lat="42.2085150" lon="-8.6085060">
        <ele>150.6</ele>
        <time>2022-06-18T09:14:57Z</time>
      </trkpt>
      <trkpt lat="42.2085260" lon="-8.6085180">
        <ele>150.6</ele>
        <time>2022-06-18T09:14:58Z</time>
      </trkpt>
      <trkpt lat="42.2085360" lon="-8.6085260">
        <ele>150.6</ele>
        <time>2022-06-18T09:14:59Z</time>
      </trkpt>
      <trkpt lat="42.2085450" lon="-8.6085380">
        <ele>151.0</ele>
        <time>2022-06-18T09:15:00Z</time>
      </trkpt>
      <trkpt lat="42.2085550" lon="-8.6085510">
        <ele>151.6</ele>
        <time>2022-06-18T09:15:01Z</time>
      </trkpt>
      <trkpt lat="42.2085630" lon="-8.6085660">
        <ele>151.6</ele>
        <time>2022-06-18T09:15:02Z</time>
      </trkpt>
      <trkpt lat="42.2085710" lon="-8.6085810">
        <ele>151.6</ele>
        <time>2022-06-18T09:15:03Z</time>
      </trkpt>
      <trkpt lat="42.2085800" lon="-8.6085950">
        <ele>151.6</ele>
        <time>2022-06-18T09:15:04Z</time>
      </trkpt>
      <trkpt lat="42.2085860" lon="-8.6086100">
        <ele>152.2</ele>
        <time>2022-06-18T09:15:05Z</time>
      </trkpt>
      <trkpt lat="42.2085900" lon="-8.6086250">
        <ele>152.2</ele>
        <time>2022-06-18T09:15:06Z</time>
      </trkpt>
      <trkpt lat="42.2085950" lon="-8.6086410">
        <ele>152.2</ele>
        <time>2022-06-18T09:15:07Z</time>
      </trkpt>
      <trkpt lat="42.2086050" lon="-8.6086560">
        <ele>152.2</ele>
        <time>2022-06-18T09:15:08Z</time>
      </trkpt>
      <trkpt lat="42.2086150" lon="-8.6086680">
        <ele>153.2</ele>
        <time>2022-06-18T09:15:09Z</time>
      </trkpt>
      <trkpt lat="42.2086260" lon="-8.6086780">
        <ele>153.2</ele>
        <time>2022-06-18T09:15:10Z</time>
      </trkpt>
      <trkpt lat="42.2086380" lon="-8.6086850">
        <ele>153.2</ele>
        <time>2022-06-18T09:15:11Z</time>
      </trkpt>
      <trkpt lat="42.2086480" lon="-8.6086930">
        <ele>153.6</ele>
        <time>2022-06-18T09:15:12Z</time>
      </trkpt>
      <trkpt lat="42.2086600" lon="-8.6087000">
        <ele>153.8</ele>
        <time>2022-06-18T09:15:13Z</time>
      </trkpt>
      <trkpt lat="42.2086730" lon="-8.6087080">
        <ele>153.8</ele>
        <time>2022-06-18T09:15:14Z</time>
      </trkpt>
      <trkpt lat="42.2086850" lon="-8.6087160">
        <ele>153.8</ele>
        <time>2022-06-18T09:15:15Z</time>
      </trkpt>
      <trkpt lat="42.2086980" lon="-8.6087250">
        <ele>154.0</ele>
        <time>2022-06-18T09:15:16Z</time>
      </trkpt>
      <trkpt lat="42.2087110" lon="-8.6087310">
        <ele>154.2</ele>
        <time>2022-06-18T09:15:17Z</time>
      </trkpt>
      <trkpt lat="42.2087230" lon="-8.6087410">
        <ele>154.2</ele>
        <time>2022-06-18T09:15:18Z</time>
      </trkpt>
      <trkpt lat="42.2087330" lon="-8.6087500">
        <ele>154.2</ele>
        <time>2022-06-18T09:15:19Z</time>
      </trkpt>
      <trkpt lat="42.2087450" lon="-8.6087580">
        <ele>154.2</ele>
        <time>2022-06-18T09:15:20Z</time>
      </trkpt>
      <trkpt lat="42.2087560" lon="-8.6087650">
        <ele>154.6</ele>
        <time>2022-06-18T09:15:21Z</time>
      </trkpt>
      <trkpt lat="42.2087700" lon="-8.6087730">
        <ele>154.6</ele>
        <time>2022-06-18T09:15:22Z</time>
      </trkpt>
      <trkpt lat="42.2087850" lon="-8.6087810">
        <ele>154.6</ele>
        <time>2022-06-18T09:15:23Z</time>
      </trkpt>
      <trkpt lat="42.2087960" lon="-8.6087900">
        <ele>154.6</ele>
        <time>2022-06-18T09:15:24Z</time>
      </trkpt>
      <trkpt lat="42.2088080" lon="-8.6087960">
        <ele>155.6</ele>
        <time>2022-06-18T09:15:25Z</time>
      </trkpt>
      <trkpt lat="42.2088200" lon="-8.6088050">
        <ele>155.6</ele>
        <time>2022-06-18T09:15:26Z</time>
      </trkpt>
      <trkpt lat="42.2088300" lon="-8.6088100">
        <ele>155.6</ele>
        <time>2022-06-18T09:15:27Z</time>
      </trkpt>
      <trkpt lat="42.2088430" lon="-8.6088160">
        <ele>155.6</ele>
        <time>2022-06-18T09:15:28Z</time>
      </trkpt>
      <trkpt lat="42.2088530" lon="-8.6088250">
        <ele>155.8</ele>
        <time>2022-06-18T09:15:29Z</time>
      </trkpt>
      <trkpt lat="42.2088650" lon="-8.6088330">
        <ele>155.8</ele>
        <time>2022-06-18T09:15:30Z</time>
      </trkpt>
      <trkpt lat="42.2088800" lon="-8.6088400">
        <ele>155.8</ele>
        <time>2022-06-18T09:15:31Z</time>
      </trkpt>
      <trkpt lat="42.2088950" lon="-8.6088450">
        <ele>156.8</ele>
        <time>2022-06-18T09:15:32Z</time>
      </trkpt>
      <trkpt lat="42.2089100" lon="-8.6088510">
        <ele>156.8</ele>
        <time>2022-06-18T09:15:33Z</time>
      </trkpt>
      <trkpt lat="42.2089230" lon="-8.6088560">
        <ele>156.8</ele>
        <time>2022-06-18T09:15:34Z</time>
      </trkpt>
      <trkpt lat="42.2089360" lon="-8.6088610">
        <ele>156.8</ele>
        <time>2022-06-18T09:15:35Z</time>
      </trkpt>
      <trkpt lat="42.2089510" lon="-8.6088660">
        <ele>157.6</ele>
        <time>2022-06-18T09:15:36Z</time>
      </trkpt>
      <trkpt lat="42.2089610" lon="-8.6088710">
        <ele>157.6</ele>
        <time>2022-06-18T09:15:37Z</time>
      </trkpt>
      <trkpt lat="42.2089730" lon="-8.6088760">
        <ele>157.6</ele>
        <time>2022-06-18T09:15:38Z</time>
      </trkpt>
      <trkpt lat="42.2089850" lon="-8.6088830">
        <ele>157.6</ele>
        <time>2022-06-18T09:15:39Z</time>
      </trkpt>
      <trkpt lat="42.2089960" lon="-8.6088910">
        <ele>158.0</ele>
        <time>2022-06-18T09:15:40Z</time>
      </trkpt>
      <trkpt lat="42.2090080" lon="-8.6089000">
        <ele>158.4</ele>
        <time>2022-06-18T09:15:41Z</time>
      </trkpt>
      <trkpt lat="42.2090230" lon="-8.6089050">
        <ele>158.4</ele>
        <time>2022-06-18T09:15:42Z</time>
      </trkpt>
      <trkpt lat="42.2090380" lon="-8.6089100">
        <ele>158.4</ele>
        <time>2022-06-18T09:15:43Z</time>
      </trkpt>
      <trkpt lat="42.2090530" lon="-8.6089150">
        <ele>158.4</ele>
        <time>2022-06-18T09:15:44Z</time>
      </trkpt>
      <trkpt lat="42.2090650" lon="-8.6089210">
        <ele>158.8</ele>
        <time>2022-06-18T09:15:45Z</time>
      </trkpt>
      <trkpt lat="42.2090800" lon="-8.6089300">
        <ele>158.8</ele>
        <time>2022-06-18T09:15:46Z</time>
      </trkpt>
      <trkpt lat="42.2090960" lon="-8.6089360">
        <ele>158.8</ele>
        <time>2022-06-18T09:15:47Z</time>
      </trkpt>
      <trkpt lat="42.2091110" lon="-8.6089430">
        <ele>158.8</ele>
        <time>2022-06-18T09:15:48Z</time>
      </trkpt>
      <trkpt lat="42.2091280" lon="-8.6089510">
        <ele>158.8</ele>
        <time>2022-06-18T09:15:49Z</time>
      </trkpt>
      <trkpt lat="42.2091460" lon="-8.6089580">
        <ele>158.8</ele>
        <time>2022-06-18T09:15:50Z</time>
      </trkpt>
      <trkpt lat="42.2091630" lon="-8.6089650">
        <ele>158.8</ele>
        <time>2022-06-18T09:15:51Z</time>
      </trkpt>
      <trkpt lat="42.2091810" lon="-8.6089650">
        <ele>158.8</ele>
        <time>2022-06-18T09:15:52Z</time>
      </trkpt>
      <trkpt lat="42.2092000" lon="-8.6089660">
        <ele>159.0</ele>
        <time>2022-06-18T09:15:53Z</time>
      </trkpt>
      <trkpt lat="42.2092200" lon="-8.6089710">
        <ele>159.0</ele>
        <time>2022-06-18T09:15:54Z</time>
      </trkpt>
      <trkpt lat="42.2092400" lon="-8.6089780">
        <ele>159.0</ele>
        <time>2022-06-18T09:15:55Z</time>
      </trkpt>
      <trkpt lat="42.2092600" lon="-8.6089810">
        <ele>159.0</ele>
        <time>2022-06-18T09:15:56Z</time>
      </trkpt>
      <trkpt lat="42.2092760" lon="-8.6089850">
        <ele>159.4</ele>
        <time>2022-06-18T09:15:57Z</time>
      </trkpt>
      <trkpt lat="42.2092950" lon="-8.6089900">
        <ele>159.4</ele>
        <time>2022-06-18T09:15:58Z</time>
      </trkpt>
      <trkpt lat="42.2093130" lon="-8.6089950">
        <ele>159.4</ele>
        <time>2022-06-18T09:15:59Z</time>
      </trkpt>
      <trkpt lat="42.2093310" lon="-8.6089950">
        <ele>159.8</ele>
        <time>2022-06-18T09:16:00Z</time>
      </trkpt>
      <trkpt lat="42.2093480" lon="-8.6090000">
        <ele>160.0</ele>
        <time>2022-06-18T09:16:01Z</time>
      </trkpt>
      <trkpt lat="42.2093680" lon="-8.6090060">
        <ele>160.0</ele>
        <time>2022-06-18T09:16:02Z</time>
      </trkpt>
      <trkpt lat="42.2093830" lon="-8.6090160">
        <ele>160.0</ele>
        <time>2022-06-18T09:16:03Z</time>
      </trkpt>
      <trkpt lat="42.2094010" lon="-8.6090280">
        <ele>160.0</ele>
        <time>2022-06-18T09:16:04Z</time>
      </trkpt>
      <trkpt lat="42.2094200" lon="-8.6090380">
        <ele>159.8</ele>
        <time>2022-06-18T09:16:05Z</time>
      </trkpt>
      <trkpt lat="42.2094400" lon="-8.6090410">
        <ele>159.8</ele>
        <time>2022-06-18T09:16:06Z</time>
      </trkpt>
      <trkpt lat="42.2094550" lon="-8.6090480">
        <ele>159.8</ele>
        <time>2022-06-18T09:16:07Z</time>
      </trkpt>
      <trkpt lat="42.2094710" lon="-8.6090510">
        <ele>160.0</ele>
        <time>2022-06-18T09:16:08Z</time>
      </trkpt>
      <trkpt lat="42.2094880" lon="-8.6090610">
        <ele>159.8</ele>
        <time>2022-06-18T09:16:09Z</time>
      </trkpt>
      <trkpt lat="42.2095030" lon="-8.6090700">
        <ele>159.8</ele>
        <time>2022-06-18T09:16:10Z</time>
      </trkpt>
      <trkpt lat="42.2095110" lon="-8.6090710">
        <ele>159.8</ele>
        <time>2022-06-18T09:16:11Z</time>
      </trkpt>
      <trkpt lat="42.2095130" lon="-8.6090730">
        <ele>159.8</ele>
        <time>2022-06-18T09:16:12Z</time>
      </trkpt>
      <trkpt lat="42.2095130" lon="-8.6090730">
        <ele>159.8</ele>
        <time>2022-06-18T09:16:13Z</time>
      </trkpt>
      <trkpt lat="42.2095350" lon="-8.6090660">
        <ele>160.0</ele>
        <time>2022-06-18T09:16:20Z</time>
      </trkpt>
      <trkpt lat="42.2095530" lon="-8.6090680">
        <ele>159.6</ele>
        <time>2022-06-18T09:16:21Z</time>
      </trkpt>
      <trkpt lat="42.2095680" lon="-8.6090610">
        <ele>159.6</ele>
        <time>2022-06-18T09:16:22Z</time>
      </trkpt>
      <trkpt lat="42.2095900" lon="-8.6090600">
        <ele>159.6</ele>
        <time>2022-06-18T09:16:23Z</time>
      </trkpt>
      <trkpt lat="42.2096110" lon="-8.6090580">
        <ele>159.6</ele>
        <time>2022-06-18T09:16:24Z</time>
      </trkpt>
      <trkpt lat="42.2096380" lon="-8.6090650">
        <ele>159.4</ele>
        <time>2022-06-18T09:16:25Z</time>
      </trkpt>
      <trkpt lat="42.2096600" lon="-8.6090850">
        <ele>159.4</ele>
        <time>2022-06-18T09:16:26Z</time>
      </trkpt>
      <trkpt lat="42.2096760" lon="-8.6091050">
        <ele>159.4</ele>
        <time>2022-06-18T09:16:27Z</time>
      </trkpt>
      <trkpt lat="42.2096930" lon="-8.6091300">
        <ele>158.8</ele>
        <time>2022-06-18T09:16:28Z</time>
      </trkpt>
      <trkpt lat="42.2097000" lon="-8.6091580">
        <ele>158.8</ele>
        <time>2022-06-18T09:16:29Z</time>
      </trkpt>
      <trkpt lat="42.2097050" lon="-8.6091800">
        <ele>158.8</ele>
        <time>2022-06-18T09:16:30Z</time>
      </trkpt>
      <trkpt lat="42.2097160" lon="-8.6091910">
        <ele>158.8</ele>
        <time>2022-06-18T09:16:31Z</time>
      </trkpt>
      <trkpt lat="42.2097260" lon="-8.6091960">
        <ele>159.6</ele>
        <time>2022-06-18T09:16:32Z</time>
      </trkpt>
      <trkpt lat="42.2097410" lon="-8.6092000">
        <ele>159.0</ele>
        <time>2022-06-18T09:16:33Z</time>
      </trkpt>
      <trkpt lat="42.2097530" lon="-8.6092030">
        <ele>159.0</ele>
        <time>2022-06-18T09:16:34Z</time>
      </trkpt>
      <trkpt lat="42.2097580" lon="-8.6092050">
        <ele>159.0</ele>
        <time>2022-06-18T09:16:35Z</time>
      </trkpt>
      <trkpt lat="42.2097610" lon="-8.6092050">
        <ele>159.4</ele>
        <time>2022-06-18T09:16:36Z</time>
      </trkpt>
      <trkpt lat="42.2097700" lon="-8.6092030">
        <ele>159.2</ele>
        <time>2022-06-18T09:16:37Z</time>
      </trkpt>
      <trkpt lat="42.2097780" lon="-8.6091960">
        <ele>159.2</ele>
        <time>2022-06-18T09:16:38Z</time>
      </trkpt>
      <trkpt lat="42.2097900" lon="-8.6091850">
        <ele>159.2</ele>
        <time>2022-06-18T09:16:39Z</time>
      </trkpt>
      <trkpt lat="42.2097980" lon="-8.6091630">
        <ele>159.2</ele>
        <time>2022-06-18T09:16:40Z</time>
      </trkpt>
      <trkpt lat="42.2098050" lon="-8.6091430">
        <ele>159.0</ele>
        <time>2022-06-18T09:16:41Z</time>
      </trkpt>
      <trkpt lat="42.2098150" lon="-8.6091260">
        <ele>159.0</ele>
        <time>2022-06-18T09:16:42Z</time>
      </trkpt>
      <trkpt lat="42.2098300" lon="-8.6091160">
        <ele>159.0</ele>
        <time>2022-06-18T09:16:43Z</time>
      </trkpt>
      <trkpt lat="42.2098400" lon="-8.6091110">
        <ele>159.0</ele>
        <time>2022-06-18T09:16:44Z</time>
      </trkpt>
      <trkpt lat="42.2098450" lon="-8.6091110">
        <ele>158.8</ele>
        <time>2022-06-18T09:16:45Z</time>
      </trkpt>
      <trkpt lat="42.2098600" lon="-8.6091050">
        <ele>158.8</ele>
        <time>2022-06-18T09:17:04Z</time>
      </trkpt>
      <trkpt lat="42.2098680" lon="-8.6091000">
        <ele>158.8</ele>
        <time>2022-06-18T09:17:05Z</time>
      </trkpt>
      <trkpt lat="42.2098730" lon="-8.6091010">
        <ele>158.8</ele>
        <time>2022-06-18T09:17:06Z</time>
      </trkpt>
      <trkpt lat="42.2098800" lon="-8.6091080">
        <ele>158.8</ele>
        <time>2022-06-18T09:17:07Z</time>
      </trkpt>
      <trkpt lat="42.2098810" lon="-8.6091160">
        <ele>158.8</ele>
        <time>2022-06-18T09:17:08Z</time>
      </trkpt>
      <trkpt lat="42.2098850" lon="-8.6091180">
        <ele>158.4</ele>
        <time>2022-06-18T09:17:09Z</time>
      </trkpt>
      <trkpt lat="42.2098880" lon="-8.6091200">
        <ele>158.4</ele>
        <time>2022-06-18T09:17:10Z</time>
      </trkpt>
      <trkpt lat="42.2099210" lon="-8.6090950">
        <ele>158.4</ele>
        <time>2022-06-18T09:21:08Z</time>
      </trkpt>
      <trkpt lat="42.2099400" lon="-8.6090860">
        <ele>158.2</ele>
        <time>2022-06-18T09:21:09Z</time>
      </trkpt>
      <trkpt lat="42.2099580" lon="-8.6090750">
        <ele>158.2</ele>
        <time>2022-06-18T09:21:10Z</time>
      </trkpt>
      <trkpt lat="42.2099800" lon="-8.6090610">
        <ele>158.2</ele>
        <time>2022-06-18T09:21:11Z</time>
      </trkpt>
      <trkpt lat="42.2100050" lon="-8.6090480">
        <ele>157.6</ele>
        <time>2022-06-18T09:21:12Z</time>
      </trkpt>
      <trkpt lat="42.2100300" lon="-8.6090360">
        <ele>157.4</ele>
        <time>2022-06-18T09:21:13Z</time>
      </trkpt>
      <trkpt lat="42.2100530" lon="-8.6090280">
        <ele>157.4</ele>
        <time>2022-06-18T09:21:14Z</time>
      </trkpt>
      <trkpt lat="42.2100780" lon="-8.6090280">
        <ele>157.4</ele>
        <time>2022-06-18T09:21:15Z</time>
      </trkpt>
      <trkpt lat="42.2101010" lon="-8.6090300">
        <ele>157.4</ele>
        <time>2022-06-18T09:21:16Z</time>
      </trkpt>
      <trkpt lat="42.2101250" lon="-8.6090250">
        <ele>157.2</ele>
        <time>2022-06-18T09:21:17Z</time>
      </trkpt>
      <trkpt lat="42.2101480" lon="-8.6090180">
        <ele>157.2</ele>
        <time>2022-06-18T09:21:18Z</time>
      </trkpt>
      <trkpt lat="42.2101660" lon="-8.6090110">
        <ele>157.2</ele>
        <time>2022-06-18T09:21:19Z</time>
      </trkpt>
      <trkpt lat="42.2101810" lon="-8.6090100">
        <ele>157.2</ele>
        <time>2022-06-18T09:21:20Z</time>
      </trkpt>
      <trkpt lat="42.2101950" lon="-8.6090130">
        <ele>157.2</ele>
        <time>2022-06-18T09:21:21Z</time>
      </trkpt>
      <trkpt lat="42.2102000" lon="-8.6090160">
        <ele>157.2</ele>
        <time>2022-06-18T09:21:22Z</time>
      </trkpt>
      <trkpt lat="42.2102000" lon="-8.6090160">
        <ele>157.2</ele>
        <time>2022-06-18T09:21:23Z</time>
      </trkpt>
      <trkpt lat="42.2102160" lon="-8.6090060">
        <ele>157.4</ele>
        <time>2022-06-18T09:21:48Z</time>
      </trkpt>
      <trkpt lat="42.2102310" lon="-8.6090130">
        <ele>157.4</ele>
        <time>2022-06-18T09:21:49Z</time>
      </trkpt>
      <trkpt lat="42.2102430" lon="-8.6090160">
        <ele>157.4</ele>
        <time>2022-06-18T09:21:50Z</time>
      </trkpt>
      <trkpt lat="42.2102460" lon="-8.6090160">
        <ele>157.4</ele>
        <time>2022-06-18T09:21:51Z</time>
      </trkpt>
      <trkpt lat="42.2102730" lon="-8.6090160">
        <ele>157.4</ele>
        <time>2022-06-18T09:22:30Z</time>
      </trkpt>
      <trkpt lat="42.2102980" lon="-8.6090230">
        <ele>157.4</ele>
        <time>2022-06-18T09:22:31Z</time>
      </trkpt>
      <trkpt lat="42.2103230" lon="-8.6090300">
        <ele>157.0</ele>
        <time>2022-06-18T09:22:32Z</time>
      </trkpt>
      <trkpt lat="42.2103450" lon="-8.6090400">
        <ele>156.6</ele>
        <time>2022-06-18T09:22:33Z</time>
      </trkpt>
      <trkpt lat="42.2103710" lon="-8.6090430">
        <ele>156.6</ele>
        <time>2022-06-18T09:22:34Z</time>
      </trkpt>
      <trkpt lat="42.2104030" lon="-8.6090460">
        <ele>156.6</ele>
        <time>2022-06-18T09:22:35Z</time>
      </trkpt>
      <trkpt lat="42.2104360" lon="-8.6090510">
        <ele>156.6</ele>
        <time>2022-06-18T09:22:36Z</time>
      </trkpt>
      <trkpt lat="42.2104730" lon="-8.6090580">
        <ele>155.8</ele>
        <time>2022-06-18T09:22:37Z</time>
      </trkpt>
      <trkpt lat="42.2105110" lon="-8.6090660">
        <ele>155.8</ele>
        <time>2022-06-18T09:22:38Z</time>
      </trkpt>
      <trkpt lat="42.2105530" lon="-8.6090710">
        <ele>155.8</ele>
        <time>2022-06-18T09:22:39Z</time>
      </trkpt>
      <trkpt lat="42.2105950" lon="-8.6090780">
        <ele>155.8</ele>
        <time>2022-06-18T09:22:40Z</time>
      </trkpt>
      <trkpt lat="42.2106380" lon="-8.6090880">
        <ele>155.2</ele>
        <time>2022-06-18T09:22:41Z</time>
      </trkpt>
      <trkpt lat="42.2106850" lon="-8.6090980">
        <ele>155.2</ele>
        <time>2022-06-18T09:22:42Z</time>
      </trkpt>
      <trkpt lat="42.2107300" lon="-8.6091100">
        <ele>155.2</ele>
        <time>2022-06-18T09:22:43Z</time>
      </trkpt>
      <trkpt lat="42.2107760" lon="-8.6091210">
        <ele>154.2</ele>
        <time>2022-06-18T09:22:44Z</time>
      </trkpt>
      <trkpt lat="42.2108210" lon="-8.6091310">
        <ele>154.2</ele>
        <time>2022-06-18T09:22:45Z</time>
      </trkpt>
      <trkpt lat="42.2108700" lon="-8.6091410">
        <ele>154.2</ele>
        <time>2022-06-18T09:22:46Z</time>
      </trkpt>
      <trkpt lat="42.2109150" lon="-8.6091560">
        <ele>154.2</ele>
        <time>2022-06-18T09:22:47Z</time>
      </trkpt>
      <trkpt lat="42.2109700" lon="-8.6091660">
        <ele>154.2</ele>
        <time>2022-06-18T09:22:48Z</time>
      </trkpt>
      <trkpt lat="42.2110200" lon="-8.6091780">
        <ele>154.4</ele>
        <time>2022-06-18T09:22:49Z</time>
      </trkpt>
      <trkpt lat="42.2110750" lon="-8.6091900">
        <ele>154.4</ele>
        <time>2022-06-18T09:22:50Z</time>
      </trkpt>
      <trkpt lat="42.2111300" lon="-8.6092050">
        <ele>154.4</ele>
        <time>2022-06-18T09:22:51Z</time>
      </trkpt>
      <trkpt lat="42.2111850" lon="-8.6092200">
        <ele>153.4</ele>
        <time>2022-06-18T09:22:52Z</time>
      </trkpt>
      <trkpt lat="42.2112330" lon="-8.6092360">
        <ele>153.8</ele>
        <time>2022-06-18T09:22:53Z</time>
      </trkpt>
      <trkpt lat="42.2112780" lon="-8.6092480">
        <ele>153.8</ele>
        <time>2022-06-18T09:22:54Z</time>
      </trkpt>
      <trkpt lat="42.2113250" lon="-8.6092560">
        <ele>153.8</ele>
        <time>2022-06-18T09:22:55Z</time>
      </trkpt>
      <trkpt lat="42.2113710" lon="-8.6092660">
        <ele>153.0</ele>
        <time>2022-06-18T09:22:56Z</time>
      </trkpt>
      <trkpt lat="42.2114160" lon="-8.6092780">
        <ele>152.0</ele>
        <time>2022-06-18T09:22:57Z</time>
      </trkpt>
      <trkpt lat="42.2114610" lon="-8.6092910">
        <ele>152.0</ele>
        <time>2022-06-18T09:22:58Z</time>
      </trkpt>
      <trkpt lat="42.2115080" lon="-8.6093060">
        <ele>152.0</ele>
        <time>2022-06-18T09:22:59Z</time>
      </trkpt>
      <trkpt lat="42.2115550" lon="-8.6093230">
        <ele>152.0</ele>
        <time>2022-06-18T09:23:00Z</time>
      </trkpt>
      <trkpt lat="42.2116010" lon="-8.6093380">
        <ele>152.2</ele>
        <time>2022-06-18T09:23:01Z</time>
      </trkpt>
      <trkpt lat="42.2116460" lon="-8.6093500">
        <ele>152.2</ele>
        <time>2022-06-18T09:23:02Z</time>
      </trkpt>
      <trkpt lat="42.2116900" lon="-8.6093630">
        <ele>152.2</ele>
        <time>2022-06-18T09:23:03Z</time>
      </trkpt>
      <trkpt lat="42.2117330" lon="-8.6093730">
        <ele>152.6</ele>
        <time>2022-06-18T09:23:04Z</time>
      </trkpt>
      <trkpt lat="42.2117750" lon="-8.6093780">
        <ele>152.8</ele>
        <time>2022-06-18T09:23:05Z</time>
      </trkpt>
      <trkpt lat="42.2118180" lon="-8.6093850">
        <ele>152.8</ele>
        <time>2022-06-18T09:23:06Z</time>
      </trkpt>
      <trkpt lat="42.2118610" lon="-8.6093930">
        <ele>152.8</ele>
        <time>2022-06-18T09:23:07Z</time>
      </trkpt>
      <trkpt lat="42.2119010" lon="-8.6093960">
        <ele>152.8</ele>
        <time>2022-06-18T09:23:08Z</time>
      </trkpt>
      <trkpt lat="42.2119450" lon="-8.6093980">
        <ele>152.4</ele>
        <time>2022-06-18T09:23:09Z</time>
      </trkpt>
      <trkpt lat="42.2119860" lon="-8.6094010">
        <ele>152.4</ele>
        <time>2022-06-18T09:23:10Z</time>
      </trkpt>
      <trkpt lat="42.2120280" lon="-8.6094060">
        <ele>152.4</ele>
        <time>2022-06-18T09:23:11Z</time>
      </trkpt>
      <trkpt lat="42.2120680" lon="-8.6094100">
        <ele>152.0</ele>
        <time>2022-06-18T09:23:12Z</time>
      </trkpt>
      <trkpt lat="42.2121080" lon="-8.6094150">
        <ele>152.4</ele>
        <time>2022-06-18T09:23:13Z</time>
      </trkpt>
      <trkpt lat="42.2121460" lon="-8.6094210">
        <ele>152.4</ele>
        <time>2022-06-18T09:23:14Z</time>
      </trkpt>
      <trkpt lat="42.2121850" lon="-8.6094300">
        <ele>152.4</ele>
        <time>2022-06-18T09:23:15Z</time>
      </trkpt>
      <trkpt lat="42.2122200" lon="-8.6094330">
        <ele>152.4</ele>
        <time>2022-06-18T09:23:16Z</time>
      </trkpt>
      <trkpt lat="42.2122530" lon="-8.6094330">
        <ele>152.4</ele>
        <time>2022-06-18T09:23:17Z</time>
      </trkpt>
      <trkpt lat="42.2122860" lon="-8.6094330">
        <ele>152.4</ele>
        <time>2022-06-18T09:23:18Z</time>
      </trkpt>
      <trkpt lat="42.2123210" lon="-8.6094350">
        <ele>152.4</ele>
        <time>2022-06-18T09:23:19Z</time>
      </trkpt>
      <trkpt lat="42.2123560" lon="-8.6094360">
        <ele>152.0</ele>
        <time>2022-06-18T09:23:20Z</time>
      </trkpt>
      <trkpt lat="42.2123900" lon="-8.6094380">
        <ele>152.2</ele>
        <time>2022-06-18T09:23:21Z</time>
      </trkpt>
      <trkpt lat="42.2124260" lon="-8.6094410">
        <ele>152.2</ele>
        <time>2022-06-18T09:23:22Z</time>
      </trkpt>
      <trkpt lat="42.2124600" lon="-8.6094450">
        <ele>152.2</ele>
        <time>2022-06-18T09:23:23Z</time>
      </trkpt>
      <trkpt lat="42.2124930" lon="-8.6094450">
        <ele>152.2</ele>
        <time>2022-06-18T09:23:24Z</time>
      </trkpt>
      <trkpt lat="42.2125300" lon="-8.6094500">
        <ele>152.0</ele>
        <time>2022-06-18T09:23:25Z</time>
      </trkpt>
      <trkpt lat="42.2125660" lon="-8.6094510">
        <ele>152.0</ele>
        <time>2022-06-18T09:23:26Z</time>
      </trkpt>
      <trkpt lat="42.2126030" lon="-8.6094480">
        <ele>152.0</ele>
        <time>2022-06-18T09:23:27Z</time>
      </trkpt>
      <trkpt lat="42.2126400" lon="-8.6094480">
        <ele>151.6</ele>
        <time>2022-06-18T09:23:28Z</time>
      </trkpt>
      <trkpt lat="42.2126730" lon="-8.6094500">
        <ele>151.6</ele>
        <time>2022-06-18T09:23:29Z</time>
      </trkpt>
      <trkpt lat="42.2127100" lon="-8.6094510">
        <ele>151.6</ele>
        <time>2022-06-18T09:23:30Z</time>
      </trkpt>
      <trkpt lat="42.2127450" lon="-8.6094500">
        <ele>151.6</ele>
        <time>2022-06-18T09:23:31Z</time>
      </trkpt>
      <trkpt lat="42.2127800" lon="-8.6094510">
        <ele>151.6</ele>
        <time>2022-06-18T09:23:32Z</time>
      </trkpt>
      <trkpt lat="42.2128180" lon="-8.6094480">
        <ele>151.2</ele>
        <time>2022-06-18T09:23:33Z</time>
      </trkpt>
      <trkpt lat="42.2128560" lon="-8.6094450">
        <ele>151.2</ele>
        <time>2022-06-18T09:23:34Z</time>
      </trkpt>
      <trkpt lat="42.2128950" lon="-8.6094380">
        <ele>151.2</ele>
        <time>2022-06-18T09:23:35Z</time>
      </trkpt>
      <trkpt lat="42.2129360" lon="-8.6094330">
        <ele>150.8</ele>
        <time>2022-06-18T09:23:36Z</time>
      </trkpt>
      <trkpt lat="42.2129800" lon="-8.6094260">
        <ele>150.8</ele>
        <time>2022-06-18T09:23:37Z</time>
      </trkpt>
      <trkpt lat="42.2130200" lon="-8.6094180">
        <ele>150.8</ele>
        <time>2022-06-18T09:23:38Z</time>
      </trkpt>
      <trkpt lat="42.2130560" lon="-8.6094110">
        <ele>150.8</ele>
        <time>2022-06-18T09:23:39Z</time>
      </trkpt>
      <trkpt lat="42.2130910" lon="-8.6094030">
        <ele>151.4</ele>
        <time>2022-06-18T09:23:40Z</time>
      </trkpt>
      <trkpt lat="42.2131310" lon="-8.6093950">
        <ele>151.0</ele>
        <time>2022-06-18T09:23:41Z</time>
      </trkpt>
      <trkpt lat="42.2131680" lon="-8.6093880">
        <ele>151.0</ele>
        <time>2022-06-18T09:23:42Z</time>
      </trkpt>
      <trkpt lat="42.2132060" lon="-8.6093850">
        <ele>151.0</ele>
        <time>2022-06-18T09:23:43Z</time>
      </trkpt>
      <trkpt lat="42.2132460" lon="-8.6093780">
        <ele>151.0</ele>
        <time>2022-06-18T09:23:44Z</time>
      </trkpt>
      <trkpt lat="42.2132850" lon="-8.6093750">
        <ele>151.2</ele>
        <time>2022-06-18T09:23:45Z</time>
      </trkpt>
      <trkpt lat="42.2133230" lon="-8.6093700">
        <ele>151.2</ele>
        <time>2022-06-18T09:23:46Z</time>
      </trkpt>
      <trkpt lat="42.2133610" lon="-8.6093610">
        <ele>151.2</ele>
        <time>2022-06-18T09:23:47Z</time>
      </trkpt>
      <trkpt lat="42.2134010" lon="-8.6093560">
        <ele>150.8</ele>
        <time>2022-06-18T09:23:48Z</time>
      </trkpt>
      <trkpt lat="42.2134430" lon="-8.6093530">
        <ele>150.8</ele>
        <time>2022-06-18T09:23:49Z</time>
      </trkpt>
      <trkpt lat="42.2134850" lon="-8.6093530">
        <ele>150.8</ele>
        <time>2022-06-18T09:23:50Z</time>
      </trkpt>
      <trkpt lat="42.2135210" lon="-8.6093550">
        <ele>150.8</ele>
        <time>2022-06-18T09:23:51Z</time>
      </trkpt>
      <trkpt lat="42.2135580" lon="-8.6093530">
        <ele>150.8</ele>
        <time>2022-06-18T09:23:52Z</time>
      </trkpt>
      <trkpt lat="42.2136000" lon="-8.6093460">
        <ele>150.6</ele>
        <time>2022-06-18T09:23:53Z</time>
      </trkpt>
      <trkpt lat="42.2136410" lon="-8.6093410">
        <ele>150.6</ele>
        <time>2022-06-18T09:23:54Z</time>
      </trkpt>
      <trkpt lat="42.2136860" lon="-8.6093330">
        <ele>150.6</ele>
        <time>2022-06-18T09:23:55Z</time>
      </trkpt>
      <trkpt lat="42.2137300" lon="-8.6093230">
        <ele>150.6</ele>
        <time>2022-06-18T09:23:56Z</time>
      </trkpt>
      <trkpt lat="42.2137730" lon="-8.6093160">
        <ele>150.4</ele>
        <time>2022-06-18T09:23:57Z</time>
      </trkpt>
      <trkpt lat="42.2138160" lon="-8.6093080">
        <ele>150.4</ele>
        <time>2022-06-18T09:23:58Z</time>
      </trkpt>
      <trkpt lat="42.2138580" lon="-8.6093000">
        <ele>150.4</ele>
        <time>2022-06-18T09:23:59Z</time>
      </trkpt>
      <trkpt lat="42.2139030" lon="-8.6092900">
        <ele>150.4</ele>
        <time>2022-06-18T09:24:00Z</time>
      </trkpt>
      <trkpt lat="42.2139410" lon="-8.6092780">
        <ele>150.6</ele>
        <time>2022-06-18T09:24:01Z</time>
      </trkpt>
      <trkpt lat="42.2139780" lon="-8.6092680">
        <ele>150.6</ele>
        <time>2022-06-18T09:24:02Z</time>
      </trkpt>
      <trkpt lat="42.2140160" lon="-8.6092560">
        <ele>150.6</ele>
        <time>2022-06-18T09:24:03Z</time>
      </trkpt>
      <trkpt lat="42.2140560" lon="-8.6092380">
        <ele>150.2</ele>
        <time>2022-06-18T09:24:04Z</time>
      </trkpt>
      <trkpt lat="42.2140960" lon="-8.6092230">
        <ele>150.0</ele>
        <time>2022-06-18T09:24:05Z</time>
      </trkpt>
      <trkpt lat="42.2141360" lon="-8.6092060">
        <ele>150.0</ele>
        <time>2022-06-18T09:24:06Z</time>
      </trkpt>
      <trkpt lat="42.2141760" lon="-8.6091860">
        <ele>150.0</ele>
        <time>2022-06-18T09:24:07Z</time>
      </trkpt>
      <trkpt lat="42.2142150" lon="-8.6091660">
        <ele>150.0</ele>
        <time>2022-06-18T09:24:08Z</time>
      </trkpt>
      <trkpt lat="42.2142510" lon="-8.6091460">
        <ele>150.2</ele>
        <time>2022-06-18T09:24:09Z</time>
      </trkpt>
      <trkpt lat="42.2142910" lon="-8.6091250">
        <ele>150.2</ele>
        <time>2022-06-18T09:24:10Z</time>
      </trkpt>
      <trkpt lat="42.2143330" lon="-8.6091010">
        <ele>150.2</ele>
        <time>2022-06-18T09:24:11Z</time>
      </trkpt>
      <trkpt lat="42.2143730" lon="-8.6090780">
        <ele>149.8</ele>
        <time>2022-06-18T09:24:12Z</time>
      </trkpt>
      <trkpt lat="42.2144130" lon="-8.6090550">
        <ele>149.2</ele>
        <time>2022-06-18T09:24:13Z</time>
      </trkpt>
      <trkpt lat="42.2144530" lon="-8.6090330">
        <ele>149.2</ele>
        <time>2022-06-18T09:24:14Z</time>
      </trkpt>
      <trkpt lat="42.2144930" lon="-8.6090100">
        <ele>149.2</ele>
        <time>2022-06-18T09:24:15Z</time>
      </trkpt>
      <trkpt lat="42.2145330" lon="-8.6089860">
        <ele>149.4</ele>
        <time>2022-06-18T09:24:16Z</time>
      </trkpt>
      <trkpt lat="42.2145710" lon="-8.6089630">
        <ele>149.2</ele>
        <time>2022-06-18T09:24:17Z</time>
      </trkpt>
      <trkpt lat="42.2146130" lon="-8.6089380">
        <ele>149.2</ele>
        <time>2022-06-18T09:24:18Z</time>
      </trkpt>
      <trkpt lat="42.2146530" lon="-8.6089130">
        <ele>149.2</ele>
        <time>2022-06-18T09:24:19Z</time>
      </trkpt>
      <trkpt lat="42.2146950" lon="-8.6088860">
        <ele>149.2</ele>
        <time>2022-06-18T09:24:20Z</time>
      </trkpt>
      <trkpt lat="42.2147360" lon="-8.6088580">
        <ele>150.0</ele>
        <time>2022-06-18T09:24:21Z</time>
      </trkpt>
      <trkpt lat="42.2147760" lon="-8.6088250">
        <ele>150.0</ele>
        <time>2022-06-18T09:24:22Z</time>
      </trkpt>
      <trkpt lat="42.2148150" lon="-8.6087910">
        <ele>150.0</ele>
        <time>2022-06-18T09:24:23Z</time>
      </trkpt>
      <trkpt lat="42.2148510" lon="-8.6087550">
        <ele>149.0</ele>
        <time>2022-06-18T09:24:24Z</time>
      </trkpt>
      <trkpt lat="42.2148880" lon="-8.6087200">
        <ele>148.8</ele>
        <time>2022-06-18T09:24:25Z</time>
      </trkpt>
      <trkpt lat="42.2149260" lon="-8.6086850">
        <ele>148.8</ele>
        <time>2022-06-18T09:24:26Z</time>
      </trkpt>
      <trkpt lat="42.2149610" lon="-8.6086460">
        <ele>148.8</ele>
        <time>2022-06-18T09:24:27Z</time>
      </trkpt>
      <trkpt lat="42.2149960" lon="-8.6086080">
        <ele>148.8</ele>
        <time>2022-06-18T09:24:28Z</time>
      </trkpt>
      <trkpt lat="42.2150280" lon="-8.6085700">
        <ele>148.6</ele>
        <time>2022-06-18T09:24:29Z</time>
      </trkpt>
      <trkpt lat="42.2150610" lon="-8.6085310">
        <ele>148.6</ele>
        <time>2022-06-18T09:24:30Z</time>
      </trkpt>
      <trkpt lat="42.2150910" lon="-8.6084930">
        <ele>148.6</ele>
        <time>2022-06-18T09:24:31Z</time>
      </trkpt>
      <trkpt lat="42.2151210" lon="-8.6084560">
        <ele>148.6</ele>
        <time>2022-06-18T09:24:32Z</time>
      </trkpt>
      <trkpt lat="42.2151530" lon="-8.6084200">
        <ele>148.2</ele>
        <time>2022-06-18T09:24:33Z</time>
      </trkpt>
      <trkpt lat="42.2151850" lon="-8.6083850">
        <ele>148.2</ele>
        <time>2022-06-18T09:24:34Z</time>
      </trkpt>
      <trkpt lat="42.2152180" lon="-8.6083500">
        <ele>148.2</ele>
        <time>2022-06-18T09:24:35Z</time>
      </trkpt>
      <trkpt lat="42.2152510" lon="-8.6083160">
        <ele>148.2</ele>
        <time>2022-06-18T09:24:36Z</time>
      </trkpt>
      <trkpt lat="42.2152860" lon="-8.6082850">
        <ele>147.6</ele>
        <time>2022-06-18T09:24:37Z</time>
      </trkpt>
      <trkpt lat="42.2153250" lon="-8.6082560">
        <ele>147.6</ele>
        <time>2022-06-18T09:24:38Z</time>
      </trkpt>
      <trkpt lat="42.2153650" lon="-8.6082300">
        <ele>147.6</ele>
        <time>2022-06-18T09:24:39Z</time>
      </trkpt>
      <trkpt lat="42.2154060" lon="-8.6082030">
        <ele>147.8</ele>
        <time>2022-06-18T09:24:40Z</time>
      </trkpt>
      <trkpt lat="42.2154500" lon="-8.6081760">
        <ele>147.6</ele>
        <time>2022-06-18T09:24:41Z</time>
      </trkpt>
      <trkpt lat="42.2154930" lon="-8.6081500">
        <ele>147.6</ele>
        <time>2022-06-18T09:24:42Z</time>
      </trkpt>
      <trkpt lat="42.2155350" lon="-8.6081210">
        <ele>147.6</ele>
        <time>2022-06-18T09:24:43Z</time>
      </trkpt>
      <trkpt lat="42.2155750" lon="-8.6080980">
        <ele>147.6</ele>
        <time>2022-06-18T09:24:44Z</time>
      </trkpt>
      <trkpt lat="42.2156130" lon="-8.6080750">
        <ele>147.6</ele>
        <time>2022-06-18T09:24:45Z</time>
      </trkpt>
      <trkpt lat="42.2156530" lon="-8.6080530">
        <ele>147.6</ele>
        <time>2022-06-18T09:24:46Z</time>
      </trkpt>
      <trkpt lat="42.2156960" lon="-8.6080400">
        <ele>147.6</ele>
        <time>2022-06-18T09:24:47Z</time>
      </trkpt>
      <trkpt lat="42.2157350" lon="-8.6080300">
        <ele>147.6</ele>
        <time>2022-06-18T09:24:48Z</time>
      </trkpt>
      <trkpt lat="42.2157700" lon="-8.6080250">
        <ele>147.4</ele>
        <time>2022-06-18T09:24:49Z</time>
      </trkpt>
      <trkpt lat="42.2158080" lon="-8.6080160">
        <ele>147.4</ele>
        <time>2022-06-18T09:24:50Z</time>
      </trkpt>
      <trkpt lat="42.2158480" lon="-8.6080050">
        <ele>147.4</ele>
        <time>2022-06-18T09:24:51Z</time>
      </trkpt>
      <trkpt lat="42.2158860" lon="-8.6079950">
        <ele>148.0</ele>
        <time>2022-06-18T09:24:52Z</time>
      </trkpt>
      <trkpt lat="42.2159300" lon="-8.6079780">
        <ele>148.2</ele>
        <time>2022-06-18T09:24:53Z</time>
      </trkpt>
      <trkpt lat="42.2159680" lon="-8.6079660">
        <ele>148.2</ele>
        <time>2022-06-18T09:24:54Z</time>
      </trkpt>
      <trkpt lat="42.2160050" lon="-8.6079560">
        <ele>148.2</ele>
        <time>2022-06-18T09:24:55Z</time>
      </trkpt>
      <trkpt lat="42.2160480" lon="-8.6079410">
        <ele>148.2</ele>
        <time>2022-06-18T09:24:56Z</time>
      </trkpt>
      <trkpt lat="42.2160930" lon="-8.6079260">
        <ele>148.4</ele>
        <time>2022-06-18T09:24:57Z</time>
      </trkpt>
      <trkpt lat="42.2161360" lon="-8.6079100">
        <ele>148.4</ele>
        <time>2022-06-18T09:24:58Z</time>
      </trkpt>
      <trkpt lat="42.2161750" lon="-8.6078910">
        <ele>148.4</ele>
        <time>2022-06-18T09:24:59Z</time>
      </trkpt>
      <trkpt lat="42.2162160" lon="-8.6078710">
        <ele>148.0</ele>
        <time>2022-06-18T09:25:00Z</time>
      </trkpt>
      <trkpt lat="42.2162560" lon="-8.6078530">
        <ele>147.8</ele>
        <time>2022-06-18T09:25:01Z</time>
      </trkpt>
      <trkpt lat="42.2162960" lon="-8.6078360">
        <ele>147.8</ele>
        <time>2022-06-18T09:25:02Z</time>
      </trkpt>
      <trkpt lat="42.2163400" lon="-8.6078150">
        <ele>147.8</ele>
        <time>2022-06-18T09:25:03Z</time>
      </trkpt>
      <trkpt lat="42.2163830" lon="-8.6077960">
        <ele>147.8</ele>
        <time>2022-06-18T09:25:04Z</time>
      </trkpt>
      <trkpt lat="42.2164250" lon="-8.6077800">
        <ele>147.0</ele>
        <time>2022-06-18T09:25:05Z</time>
      </trkpt>
      <trkpt lat="42.2164660" lon="-8.6077560">
        <ele>147.0</ele>
        <time>2022-06-18T09:25:06Z</time>
      </trkpt>
      <trkpt lat="42.2165030" lon="-8.6077450">
        <ele>147.0</ele>
        <time>2022-06-18T09:25:07Z</time>
      </trkpt>
      <trkpt lat="42.2165350" lon="-8.6077380">
        <ele>147.2</ele>
        <time>2022-06-18T09:25:08Z</time>
      </trkpt>
      <trkpt lat="42.2165700" lon="-8.6077350">
        <ele>147.2</ele>
        <time>2022-06-18T09:25:09Z</time>
      </trkpt>
      <trkpt lat="42.2166100" lon="-8.6077300">
        <ele>147.2</ele>
        <time>2022-06-18T09:25:10Z</time>
      </trkpt>
      <trkpt lat="42.2166550" lon="-8.6077180">
        <ele>147.2</ele>
        <time>2022-06-18T09:25:11Z</time>
      </trkpt>
      <trkpt lat="42.2167010" lon="-8.6077060">
        <ele>147.2</ele>
        <time>2022-06-18T09:25:12Z</time>
      </trkpt>
      <trkpt lat="42.2167430" lon="-8.6076960">
        <ele>146.8</ele>
        <time>2022-06-18T09:25:13Z</time>
      </trkpt>
      <trkpt lat="42.2167860" lon="-8.6076850">
        <ele>146.8</ele>
        <time>2022-06-18T09:25:14Z</time>
      </trkpt>
      <trkpt lat="42.2168330" lon="-8.6076710">
        <ele>146.8</ele>
        <time>2022-06-18T09:25:15Z</time>
      </trkpt>
      <trkpt lat="42.2168760" lon="-8.6076560">
        <ele>146.0</ele>
        <time>2022-06-18T09:25:16Z</time>
      </trkpt>
      <trkpt lat="42.2169200" lon="-8.6076410">
        <ele>145.8</ele>
        <time>2022-06-18T09:25:17Z</time>
      </trkpt>
      <trkpt lat="42.2169630" lon="-8.6076300">
        <ele>145.8</ele>
        <time>2022-06-18T09:25:18Z</time>
      </trkpt>
      <trkpt lat="42.2170050" lon="-8.6076160">
        <ele>145.8</ele>
        <time>2022-06-18T09:25:19Z</time>
      </trkpt>
      <trkpt lat="42.2170480" lon="-8.6076050">
        <ele>145.8</ele>
        <time>2022-06-18T09:25:20Z</time>
      </trkpt>
      <trkpt lat="42.2170900" lon="-8.6075930">
        <ele>146.6</ele>
        <time>2022-06-18T09:25:21Z</time>
      </trkpt>
      <trkpt lat="42.2171280" lon="-8.6075800">
        <ele>146.6</ele>
        <time>2022-06-18T09:25:22Z</time>
      </trkpt>
      <trkpt lat="42.2171660" lon="-8.6075700">
        <ele>146.6</ele>
        <time>2022-06-18T09:25:23Z</time>
      </trkpt>
      <trkpt lat="42.2172010" lon="-8.6075600">
        <ele>147.4</ele>
        <time>2022-06-18T09:25:24Z</time>
      </trkpt>
      <trkpt lat="42.2172350" lon="-8.6075500">
        <ele>147.6</ele>
        <time>2022-06-18T09:25:25Z</time>
      </trkpt>
      <trkpt lat="42.2172650" lon="-8.6075410">
        <ele>147.6</ele>
        <time>2022-06-18T09:25:26Z</time>
      </trkpt>
      <trkpt lat="42.2172910" lon="-8.6075330">
        <ele>147.6</ele>
        <time>2022-06-18T09:25:27Z</time>
      </trkpt>
      <trkpt lat="42.2173200" lon="-8.6075230">
        <ele>148.6</ele>
        <time>2022-06-18T09:25:28Z</time>
      </trkpt>
      <trkpt lat="42.2173450" lon="-8.6075160">
        <ele>148.4</ele>
        <time>2022-06-18T09:25:29Z</time>
      </trkpt>
      <trkpt lat="42.2173710" lon="-8.6075100">
        <ele>148.4</ele>
        <time>2022-06-18T09:25:30Z</time>
      </trkpt>
      <trkpt lat="42.2173980" lon="-8.6075050">
        <ele>148.4</ele>
        <time>2022-06-18T09:25:31Z</time>
      </trkpt>
      <trkpt lat="42.2174260" lon="-8.6075010">
        <ele>148.4</ele>
        <time>2022-06-18T09:25:32Z</time>
      </trkpt>
      <trkpt lat="42.2174530" lon="-8.6075010">
        <ele>148.6</ele>
        <time>2022-06-18T09:25:33Z</time>
      </trkpt>
      <trkpt lat="42.2174760" lon="-8.6075000">
        <ele>148.6</ele>
        <time>2022-06-18T09:25:34Z</time>
      </trkpt>
      <trkpt lat="42.2174980" lon="-8.6075010">
        <ele>148.6</ele>
        <time>2022-06-18T09:25:35Z</time>
      </trkpt>
      <trkpt lat="42.2175250" lon="-8.6075000">
        <ele>149.4</ele>
        <time>2022-06-18T09:25:36Z</time>
      </trkpt>
      <trkpt lat="42.2175460" lon="-8.6075000">
        <ele>149.4</ele>
        <time>2022-06-18T09:25:37Z</time>
      </trkpt>
      <trkpt lat="42.2175730" lon="-8.6075010">
        <ele>149.4</ele>
        <time>2022-06-18T09:25:38Z</time>
      </trkpt>
      <trkpt lat="42.2176010" lon="-8.6075010">
        <ele>149.4</ele>
        <time>2022-06-18T09:25:39Z</time>
      </trkpt>
      <trkpt lat="42.2176250" lon="-8.6075010">
        <ele>149.4</ele>
        <time>2022-06-18T09:25:40Z</time>
      </trkpt>
      <trkpt lat="42.2176500" lon="-8.6075010">
        <ele>149.6</ele>
        <time>2022-06-18T09:25:41Z</time>
      </trkpt>
      <trkpt lat="42.2176750" lon="-8.6075080">
        <ele>149.6</ele>
        <time>2022-06-18T09:25:42Z</time>
      </trkpt>
      <trkpt lat="42.2177010" lon="-8.6075150">
        <ele>149.6</ele>
        <time>2022-06-18T09:25:43Z</time>
      </trkpt>
      <trkpt lat="42.2177230" lon="-8.6075230">
        <ele>150.2</ele>
        <time>2022-06-18T09:25:44Z</time>
      </trkpt>
      <trkpt lat="42.2177510" lon="-8.6075260">
        <ele>150.0</ele>
        <time>2022-06-18T09:25:45Z</time>
      </trkpt>
      <trkpt lat="42.2177760" lon="-8.6075260">
        <ele>150.0</ele>
        <time>2022-06-18T09:25:46Z</time>
      </trkpt>
      <trkpt lat="42.2178030" lon="-8.6075260">
        <ele>150.0</ele>
        <time>2022-06-18T09:25:47Z</time>
      </trkpt>
      <trkpt lat="42.2178310" lon="-8.6075210">
        <ele>150.0</ele>
        <time>2022-06-18T09:25:48Z</time>
      </trkpt>
      <trkpt lat="42.2178600" lon="-8.6075210">
        <ele>150.4</ele>
        <time>2022-06-18T09:25:49Z</time>
      </trkpt>
      <trkpt lat="42.2178880" lon="-8.6075210">
        <ele>150.4</ele>
        <time>2022-06-18T09:25:50Z</time>
      </trkpt>
      <trkpt lat="42.2179160" lon="-8.6075230">
        <ele>150.4</ele>
        <time>2022-06-18T09:25:51Z</time>
      </trkpt>
      <trkpt lat="42.2179450" lon="-8.6075200">
        <ele>150.4</ele>
        <time>2022-06-18T09:25:52Z</time>
      </trkpt>
      <trkpt lat="42.2179710" lon="-8.6075250">
        <ele>151.0</ele>
        <time>2022-06-18T09:25:53Z</time>
      </trkpt>
      <trkpt lat="42.2180010" lon="-8.6075280">
        <ele>151.0</ele>
        <time>2022-06-18T09:25:54Z</time>
      </trkpt>
      <trkpt lat="42.2180300" lon="-8.6075300">
        <ele>151.0</ele>
        <time>2022-06-18T09:25:55Z</time>
      </trkpt>
      <trkpt lat="42.2180580" lon="-8.6075300">
        <ele>151.0</ele>
        <time>2022-06-18T09:25:56Z</time>
      </trkpt>
      <trkpt lat="42.2180850" lon="-8.6075310">
        <ele>151.8</ele>
        <time>2022-06-18T09:25:57Z</time>
      </trkpt>
      <trkpt lat="42.2181130" lon="-8.6075310">
        <ele>151.8</ele>
        <time>2022-06-18T09:25:58Z</time>
      </trkpt>
      <trkpt lat="42.2181400" lon="-8.6075330">
        <ele>151.8</ele>
        <time>2022-06-18T09:25:59Z</time>
      </trkpt>
      <trkpt lat="42.2181660" lon="-8.6075330">
        <ele>151.6</ele>
        <time>2022-06-18T09:26:00Z</time>
      </trkpt>
      <trkpt lat="42.2181930" lon="-8.6075330">
        <ele>151.6</ele>
        <time>2022-06-18T09:26:01Z</time>
      </trkpt>
      <trkpt lat="42.2182210" lon="-8.6075330">
        <ele>151.6</ele>
        <time>2022-06-18T09:26:02Z</time>
      </trkpt>
      <trkpt lat="42.2182480" lon="-8.6075330">
        <ele>151.6</ele>
        <time>2022-06-18T09:26:03Z</time>
      </trkpt>
      <trkpt lat="42.2182760" lon="-8.6075350">
        <ele>151.6</ele>
        <time>2022-06-18T09:26:04Z</time>
      </trkpt>
      <trkpt lat="42.2183030" lon="-8.6075330">
        <ele>152.2</ele>
        <time>2022-06-18T09:26:05Z</time>
      </trkpt>
      <trkpt lat="42.2183280" lon="-8.6075310">
        <ele>152.2</ele>
        <time>2022-06-18T09:26:06Z</time>
      </trkpt>
      <trkpt lat="42.2183550" lon="-8.6075300">
        <ele>152.2</ele>
        <time>2022-06-18T09:26:07Z</time>
      </trkpt>
      <trkpt lat="42.2183780" lon="-8.6075310">
        <ele>152.2</ele>
        <time>2022-06-18T09:26:08Z</time>
      </trkpt>
      <trkpt lat="42.2184000" lon="-8.6075330">
        <ele>152.4</ele>
        <time>2022-06-18T09:26:09Z</time>
      </trkpt>
      <trkpt lat="42.2184200" lon="-8.6075330">
        <ele>152.4</ele>
        <time>2022-06-18T09:26:10Z</time>
      </trkpt>
      <trkpt lat="42.2184430" lon="-8.6075350">
        <ele>152.4</ele>
        <time>2022-06-18T09:26:11Z</time>
      </trkpt>
      <trkpt lat="42.2184650" lon="-8.6075380">
        <ele>152.4</ele>
        <time>2022-06-18T09:26:12Z</time>
      </trkpt>
      <trkpt lat="42.2184850" lon="-8.6075410">
        <ele>152.4</ele>
        <time>2022-06-18T09:26:13Z</time>
      </trkpt>
      <trkpt lat="42.2185060" lon="-8.6075460">
        <ele>152.4</ele>
        <time>2022-06-18T09:26:14Z</time>
      </trkpt>
      <trkpt lat="42.2185250" lon="-8.6075500">
        <ele>152.4</ele>
        <time>2022-06-18T09:26:15Z</time>
      </trkpt>
      <trkpt lat="42.2185430" lon="-8.6075550">
        <ele>153.0</ele>
        <time>2022-06-18T09:26:16Z</time>
      </trkpt>
      <trkpt lat="42.2185610" lon="-8.6075600">
        <ele>153.2</ele>
        <time>2022-06-18T09:26:17Z</time>
      </trkpt>
      <trkpt lat="42.2185810" lon="-8.6075660">
        <ele>153.2</ele>
        <time>2022-06-18T09:26:18Z</time>
      </trkpt>
      <trkpt lat="42.2186000" lon="-8.6075700">
        <ele>153.2</ele>
        <time>2022-06-18T09:26:19Z</time>
      </trkpt>
      <trkpt lat="42.2186200" lon="-8.6075750">
        <ele>153.2</ele>
        <time>2022-06-18T09:26:20Z</time>
      </trkpt>
      <trkpt lat="42.2186380" lon="-8.6075800">
        <ele>154.0</ele>
        <time>2022-06-18T09:26:21Z</time>
      </trkpt>
      <trkpt lat="42.2186600" lon="-8.6075810">
        <ele>154.0</ele>
        <time>2022-06-18T09:26:22Z</time>
      </trkpt>
      <trkpt lat="42.2186800" lon="-8.6075830">
        <ele>154.0</ele>
        <time>2022-06-18T09:26:23Z</time>
      </trkpt>
      <trkpt lat="42.2186980" lon="-8.6075850">
        <ele>154.0</ele>
        <time>2022-06-18T09:26:24Z</time>
      </trkpt>
      <trkpt lat="42.2187150" lon="-8.6075860">
        <ele>154.6</ele>
        <time>2022-06-18T09:26:25Z</time>
      </trkpt>
      <trkpt lat="42.2187330" lon="-8.6075900">
        <ele>154.6</ele>
        <time>2022-06-18T09:26:26Z</time>
      </trkpt>
      <trkpt lat="42.2187510" lon="-8.6075910">
        <ele>154.6</ele>
        <time>2022-06-18T09:26:27Z</time>
      </trkpt>
      <trkpt lat="42.2187700" lon="-8.6075950">
        <ele>154.6</ele>
        <time>2022-06-18T09:26:28Z</time>
      </trkpt>
      <trkpt lat="42.2187850" lon="-8.6075980">
        <ele>155.4</ele>
        <time>2022-06-18T09:26:29Z</time>
      </trkpt>
      <trkpt lat="42.2188010" lon="-8.6076010">
        <ele>155.4</ele>
        <time>2022-06-18T09:26:30Z</time>
      </trkpt>
      <trkpt lat="42.2188180" lon="-8.6076050">
        <ele>155.4</ele>
        <time>2022-06-18T09:26:31Z</time>
      </trkpt>
      <trkpt lat="42.2188360" lon="-8.6076050">
        <ele>155.4</ele>
        <time>2022-06-18T09:26:32Z</time>
      </trkpt>
      <trkpt lat="42.2188550" lon="-8.6076010">
        <ele>156.0</ele>
        <time>2022-06-18T09:26:33Z</time>
      </trkpt>
      <trkpt lat="42.2188730" lon="-8.6076010">
        <ele>156.0</ele>
        <time>2022-06-18T09:26:34Z</time>
      </trkpt>
      <trkpt lat="42.2188860" lon="-8.6076060">
        <ele>156.0</ele>
        <time>2022-06-18T09:26:35Z</time>
      </trkpt>
      <trkpt lat="42.2189050" lon="-8.6076060">
        <ele>156.2</ele>
        <time>2022-06-18T09:26:36Z</time>
      </trkpt>
      <trkpt lat="42.2189210" lon="-8.6076060">
        <ele>156.4</ele>
        <time>2022-06-18T09:26:37Z</time>
      </trkpt>
      <trkpt lat="42.2189380" lon="-8.6076110">
        <ele>156.4</ele>
        <time>2022-06-18T09:26:38Z</time>
      </trkpt>
      <trkpt lat="42.2189550" lon="-8.6076110">
        <ele>156.4</ele>
        <time>2022-06-18T09:26:39Z</time>
      </trkpt>
      <trkpt lat="42.2189680" lon="-8.6076130">
        <ele>156.8</ele>
        <time>2022-06-18T09:26:40Z</time>
      </trkpt>
      <trkpt lat="42.2189810" lon="-8.6076160">
        <ele>157.4</ele>
        <time>2022-06-18T09:26:41Z</time>
      </trkpt>
      <trkpt lat="42.2189950" lon="-8.6076230">
        <ele>157.4</ele>
        <time>2022-06-18T09:26:42Z</time>
      </trkpt>
      <trkpt lat="42.2190100" lon="-8.6076230">
        <ele>157.4</ele>
        <time>2022-06-18T09:26:43Z</time>
      </trkpt>
      <trkpt lat="42.2190280" lon="-8.6076250">
        <ele>157.4</ele>
        <time>2022-06-18T09:26:44Z</time>
      </trkpt>
      <trkpt lat="42.2190460" lon="-8.6076250">
        <ele>157.6</ele>
        <time>2022-06-18T09:26:45Z</time>
      </trkpt>
      <trkpt lat="42.2190650" lon="-8.6076250">
        <ele>157.6</ele>
        <time>2022-06-18T09:26:46Z</time>
      </trkpt>
      <trkpt lat="42.2190810" lon="-8.6076280">
        <ele>157.6</ele>
        <time>2022-06-18T09:26:47Z</time>
      </trkpt>
      <trkpt lat="42.2190980" lon="-8.6076300">
        <ele>157.8</ele>
        <time>2022-06-18T09:26:48Z</time>
      </trkpt>
      <trkpt lat="42.2191160" lon="-8.6076310">
        <ele>158.4</ele>
        <time>2022-06-18T09:26:49Z</time>
      </trkpt>
      <trkpt lat="42.2191310" lon="-8.6076360">
        <ele>158.4</ele>
        <time>2022-06-18T09:26:50Z</time>
      </trkpt>
      <trkpt lat="42.2191500" lon="-8.6076400">
        <ele>158.4</ele>
        <time>2022-06-18T09:26:51Z</time>
      </trkpt>
      <trkpt lat="42.2191680" lon="-8.6076410">
        <ele>158.4</ele>
        <time>2022-06-18T09:26:52Z</time>
      </trkpt>
      <trkpt lat="42.2191850" lon="-8.6076430">
        <ele>159.0</ele>
        <time>2022-06-18T09:26:53Z</time>
      </trkpt>
      <trkpt lat="42.2192010" lon="-8.6076400">
        <ele>159.0</ele>
        <time>2022-06-18T09:26:54Z</time>
      </trkpt>
      <trkpt lat="42.2192200" lon="-8.6076350">
        <ele>159.0</ele>
        <time>2022-06-18T09:26:55Z</time>
      </trkpt>
      <trkpt lat="42.2192350" lon="-8.6076330">
        <ele>159.0</ele>
        <time>2022-06-18T09:26:56Z</time>
      </trkpt>
      <trkpt lat="42.2192530" lon="-8.6076330">
        <ele>159.2</ele>
        <time>2022-06-18T09:26:57Z</time>
      </trkpt>
      <trkpt lat="42.2192700" lon="-8.6076310">
        <ele>159.2</ele>
        <time>2022-06-18T09:26:58Z</time>
      </trkpt>
      <trkpt lat="42.2192860" lon="-8.6076280">
        <ele>159.2</ele>
        <time>2022-06-18T09:26:59Z</time>
      </trkpt>
      <trkpt lat="42.2193010" lon="-8.6076250">
        <ele>159.2</ele>
        <time>2022-06-18T09:27:00Z</time>
      </trkpt>
      <trkpt lat="42.2193160" lon="-8.6076260">
        <ele>159.4</ele>
        <time>2022-06-18T09:27:01Z</time>
      </trkpt>
      <trkpt lat="42.2193330" lon="-8.6076300">
        <ele>159.4</ele>
        <time>2022-06-18T09:27:02Z</time>
      </trkpt>
      <trkpt lat="42.2193500" lon="-8.6076330">
        <ele>159.4</ele>
        <time>2022-06-18T09:27:03Z</time>
      </trkpt>
      <trkpt lat="42.2193650" lon="-8.6076350">
        <ele>159.8</ele>
        <time>2022-06-18T09:27:04Z</time>
      </trkpt>
      <trkpt lat="42.2193780" lon="-8.6076400">
        <ele>159.8</ele>
        <time>2022-06-18T09:27:05Z</time>
      </trkpt>
      <trkpt lat="42.2193910" lon="-8.6076380">
        <ele>159.8</ele>
        <time>2022-06-18T09:27:06Z</time>
      </trkpt>
      <trkpt lat="42.2194080" lon="-8.6076410">
        <ele>159.8</ele>
        <time>2022-06-18T09:27:07Z</time>
      </trkpt>
      <trkpt lat="42.2194260" lon="-8.6076410">
        <ele>160.0</ele>
        <time>2022-06-18T09:27:08Z</time>
      </trkpt>
      <trkpt lat="42.2194430" lon="-8.6076380">
        <ele>160.2</ele>
        <time>2022-06-18T09:27:09Z</time>
      </trkpt>
      <trkpt lat="42.2194610" lon="-8.6076400">
        <ele>160.2</ele>
        <time>2022-06-18T09:27:10Z</time>
      </trkpt>
      <trkpt lat="42.2194780" lon="-8.6076450">
        <ele>160.2</ele>
        <time>2022-06-18T09:27:11Z</time>
      </trkpt>
      <trkpt lat="42.2194880" lon="-8.6076500">
        <ele>160.2</ele>
        <time>2022-06-18T09:27:12Z</time>
      </trkpt>
      <trkpt lat="42.2195010" lon="-8.6076500">
        <ele>160.6</ele>
        <time>2022-06-18T09:27:13Z</time>
      </trkpt>
      <trkpt lat="42.2195150" lon="-8.6076500">
        <ele>160.6</ele>
        <time>2022-06-18T09:27:14Z</time>
      </trkpt>
      <trkpt lat="42.2195280" lon="-8.6076500">
        <ele>160.6</ele>
        <time>2022-06-18T09:27:15Z</time>
      </trkpt>
      <trkpt lat="42.2195430" lon="-8.6076450">
        <ele>160.6</ele>
        <time>2022-06-18T09:27:16Z</time>
      </trkpt>
      <trkpt lat="42.2195580" lon="-8.6076460">
        <ele>161.0</ele>
        <time>2022-06-18T09:27:17Z</time>
      </trkpt>
      <trkpt lat="42.2195700" lon="-8.6076510">
        <ele>161.0</ele>
        <time>2022-06-18T09:27:18Z</time>
      </trkpt>
      <trkpt lat="42.2195880" lon="-8.6076480">
        <ele>161.0</ele>
        <time>2022-06-18T09:27:19Z</time>
      </trkpt>
      <trkpt lat="42.2196060" lon="-8.6076480">
        <ele>161.0</ele>
        <time>2022-06-18T09:27:20Z</time>
      </trkpt>
      <trkpt lat="42.2196230" lon="-8.6076460">
        <ele>161.2</ele>
        <time>2022-06-18T09:27:21Z</time>
      </trkpt>
      <trkpt lat="42.2196400" lon="-8.6076460">
        <ele>161.2</ele>
        <time>2022-06-18T09:27:22Z</time>
      </trkpt>
      <trkpt lat="42.2196560" lon="-8.6076430">
        <ele>161.2</ele>
        <time>2022-06-18T09:27:23Z</time>
      </trkpt>
      <trkpt lat="42.2196710" lon="-8.6076430">
        <ele>161.4</ele>
        <time>2022-06-18T09:27:24Z</time>
      </trkpt>
      <trkpt lat="42.2196880" lon="-8.6076430">
        <ele>161.8</ele>
        <time>2022-06-18T09:27:25Z</time>
      </trkpt>
      <trkpt lat="42.2197050" lon="-8.6076410">
        <ele>161.8</ele>
        <time>2022-06-18T09:27:26Z</time>
      </trkpt>
      <trkpt lat="42.2197210" lon="-8.6076430">
        <ele>161.8</ele>
        <time>2022-06-18T09:27:27Z</time>
      </trkpt>
      <trkpt lat="42.2197330" lon="-8.6076480">
        <ele>161.8</ele>
        <time>2022-06-18T09:27:28Z</time>
      </trkpt>
      <trkpt lat="42.2197450" lon="-8.6076500">
        <ele>162.0</ele>
        <time>2022-06-18T09:27:29Z</time>
      </trkpt>
      <trkpt lat="42.2197630" lon="-8.6076500">
        <ele>162.0</ele>
        <time>2022-06-18T09:27:30Z</time>
      </trkpt>
      <trkpt lat="42.2197800" lon="-8.6076510">
        <ele>162.0</ele>
        <time>2022-06-18T09:27:31Z</time>
      </trkpt>
      <trkpt lat="42.2197910" lon="-8.6076580">
        <ele>162.0</ele>
        <time>2022-06-18T09:27:32Z</time>
      </trkpt>
      <trkpt lat="42.2198030" lon="-8.6076630">
        <ele>162.8</ele>
        <time>2022-06-18T09:27:33Z</time>
      </trkpt>
      <trkpt lat="42.2198110" lon="-8.6076700">
        <ele>162.8</ele>
        <time>2022-06-18T09:27:34Z</time>
      </trkpt>
      <trkpt lat="42.2198210" lon="-8.6076750">
        <ele>162.8</ele>
        <time>2022-06-18T09:27:35Z</time>
      </trkpt>
      <trkpt lat="42.2198280" lon="-8.6076780">
        <ele>162.8</ele>
        <time>2022-06-18T09:27:36Z</time>
      </trkpt>
      <trkpt lat="42.2198380" lon="-8.6076810">
        <ele>163.2</ele>
        <time>2022-06-18T09:27:37Z</time>
      </trkpt>
      <trkpt lat="42.2198550" lon="-8.6076810">
        <ele>163.2</ele>
        <time>2022-06-18T09:27:38Z</time>
      </trkpt>
      <trkpt lat="42.2198750" lon="-8.6076810">
        <ele>163.2</ele>
        <time>2022-06-18T09:27:39Z</time>
      </trkpt>
      <trkpt lat="42.2198860" lon="-8.6076810">
        <ele>163.2</ele>
        <time>2022-06-18T09:27:40Z</time>
      </trkpt>
      <trkpt lat="42.2199010" lon="-8.6076750">
        <ele>163.6</ele>
        <time>2022-06-18T09:27:41Z</time>
      </trkpt>
      <trkpt lat="42.2199160" lon="-8.6076710">
        <ele>163.6</ele>
        <time>2022-06-18T09:27:42Z</time>
      </trkpt>
      <trkpt lat="42.2199310" lon="-8.6076730">
        <ele>163.6</ele>
        <time>2022-06-18T09:27:43Z</time>
      </trkpt>
      <trkpt lat="42.2199400" lon="-8.6076780">
        <ele>163.6</ele>
        <time>2022-06-18T09:27:44Z</time>
      </trkpt>
      <trkpt lat="42.2199530" lon="-8.6076780">
        <ele>164.0</ele>
        <time>2022-06-18T09:27:45Z</time>
      </trkpt>
      <trkpt lat="42.2199650" lon="-8.6076760">
        <ele>164.0</ele>
        <time>2022-06-18T09:27:46Z</time>
      </trkpt>
      <trkpt lat="42.2199830" lon="-8.6076730">
        <ele>164.0</ele>
        <time>2022-06-18T09:27:47Z</time>
      </trkpt>
      <trkpt lat="42.2199980" lon="-8.6076750">
        <ele>164.0</ele>
        <time>2022-06-18T09:27:48Z</time>
      </trkpt>
      <trkpt lat="42.2200150" lon="-8.6076750">
        <ele>164.4</ele>
        <time>2022-06-18T09:27:49Z</time>
      </trkpt>
      <trkpt lat="42.2200280" lon="-8.6076750">
        <ele>164.4</ele>
        <time>2022-06-18T09:27:50Z</time>
      </trkpt>
      <trkpt lat="42.2200460" lon="-8.6076730">
        <ele>164.4</ele>
        <time>2022-06-18T09:27:51Z</time>
      </trkpt>
      <trkpt lat="42.2200660" lon="-8.6076700">
        <ele>164.8</ele>
        <time>2022-06-18T09:27:52Z</time>
      </trkpt>
      <trkpt lat="42.2200830" lon="-8.6076700">
        <ele>164.8</ele>
        <time>2022-06-18T09:27:53Z</time>
      </trkpt>
      <trkpt lat="42.2200980" lon="-8.6076750">
        <ele>164.8</ele>
        <time>2022-06-18T09:27:54Z</time>
      </trkpt>
      <trkpt lat="42.2201150" lon="-8.6076730">
        <ele>164.8</ele>
        <time>2022-06-18T09:27:55Z</time>
      </trkpt>
      <trkpt lat="42.2201300" lon="-8.6076730">
        <ele>164.8</ele>
        <time>2022-06-18T09:27:56Z</time>
      </trkpt>
      <trkpt lat="42.2201460" lon="-8.6076730">
        <ele>164.8</ele>
        <time>2022-06-18T09:27:57Z</time>
      </trkpt>
      <trkpt lat="42.2201660" lon="-8.6076750">
        <ele>164.8</ele>
        <time>2022-06-18T09:27:58Z</time>
      </trkpt>
      <trkpt lat="42.2201850" lon="-8.6076730">
        <ele>164.8</ele>
        <time>2022-06-18T09:27:59Z</time>
      </trkpt>
      <trkpt lat="42.2201980" lon="-8.6076710">
        <ele>165.0</ele>
        <time>2022-06-18T09:28:00Z</time>
      </trkpt>
      <trkpt lat="42.2202100" lon="-8.6076730">
        <ele>165.4</ele>
        <time>2022-06-18T09:28:01Z</time>
      </trkpt>
      <trkpt lat="42.2202250" lon="-8.6076730">
        <ele>165.4</ele>
        <time>2022-06-18T09:28:02Z</time>
      </trkpt>
      <trkpt lat="42.2202360" lon="-8.6076710">
        <ele>165.4</ele>
        <time>2022-06-18T09:28:03Z</time>
      </trkpt>
      <trkpt lat="42.2202530" lon="-8.6076710">
        <ele>165.4</ele>
        <time>2022-06-18T09:28:04Z</time>
      </trkpt>
      <trkpt lat="42.2202750" lon="-8.6076730">
        <ele>165.8</ele>
        <time>2022-06-18T09:28:05Z</time>
      </trkpt>
      <trkpt lat="42.2202930" lon="-8.6076750">
        <ele>165.8</ele>
        <time>2022-06-18T09:28:06Z</time>
      </trkpt>
      <trkpt lat="42.2203100" lon="-8.6076780">
        <ele>165.8</ele>
        <time>2022-06-18T09:28:07Z</time>
      </trkpt>
      <trkpt lat="42.2203250" lon="-8.6076830">
        <ele>166.4</ele>
        <time>2022-06-18T09:28:08Z</time>
      </trkpt>
      <trkpt lat="42.2203410" lon="-8.6076830">
        <ele>166.2</ele>
        <time>2022-06-18T09:28:09Z</time>
      </trkpt>
      <trkpt lat="42.2203550" lon="-8.6076810">
        <ele>166.2</ele>
        <time>2022-06-18T09:28:10Z</time>
      </trkpt>
      <trkpt lat="42.2203700" lon="-8.6076780">
        <ele>166.2</ele>
        <time>2022-06-18T09:28:11Z</time>
      </trkpt>
      <trkpt lat="42.2203850" lon="-8.6076780">
        <ele>166.2</ele>
        <time>2022-06-18T09:28:12Z</time>
      </trkpt>
      <trkpt lat="42.2203960" lon="-8.6076830">
        <ele>166.8</ele>
        <time>2022-06-18T09:28:13Z</time>
      </trkpt>
      <trkpt lat="42.2204110" lon="-8.6076800">
        <ele>166.8</ele>
        <time>2022-06-18T09:28:14Z</time>
      </trkpt>
      <trkpt lat="42.2204260" lon="-8.6076830">
        <ele>166.8</ele>
        <time>2022-06-18T09:28:15Z</time>
      </trkpt>
      <trkpt lat="42.2204380" lon="-8.6076810">
        <ele>166.8</ele>
        <time>2022-06-18T09:28:16Z</time>
      </trkpt>
      <trkpt lat="42.2204510" lon="-8.6076800">
        <ele>167.0</ele>
        <time>2022-06-18T09:28:17Z</time>
      </trkpt>
      <trkpt lat="42.2204650" lon="-8.6076800">
        <ele>167.0</ele>
        <time>2022-06-18T09:28:18Z</time>
      </trkpt>
      <trkpt lat="42.2204760" lon="-8.6076830">
        <ele>167.0</ele>
        <time>2022-06-18T09:28:19Z</time>
      </trkpt>
      <trkpt lat="42.2204880" lon="-8.6076850">
        <ele>167.2</ele>
        <time>2022-06-18T09:28:20Z</time>
      </trkpt>
      <trkpt lat="42.2204980" lon="-8.6076860">
        <ele>167.6</ele>
        <time>2022-06-18T09:28:21Z</time>
      </trkpt>
      <trkpt lat="42.2205110" lon="-8.6076900">
        <ele>167.6</ele>
        <time>2022-06-18T09:28:22Z</time>
      </trkpt>
      <trkpt lat="42.2205300" lon="-8.6076960">
        <ele>167.6</ele>
        <time>2022-06-18T09:28:23Z</time>
      </trkpt>
      <trkpt lat="42.2205400" lon="-8.6077050">
        <ele>167.6</ele>
        <time>2022-06-18T09:28:24Z</time>
      </trkpt>
      <trkpt lat="42.2205480" lon="-8.6077260">
        <ele>168.4</ele>
        <time>2022-06-18T09:28:25Z</time>
      </trkpt>
      <trkpt lat="42.2205560" lon="-8.6077360">
        <ele>168.4</ele>
        <time>2022-06-18T09:28:26Z</time>
      </trkpt>
      <trkpt lat="42.2205650" lon="-8.6077450">
        <ele>168.4</ele>
        <time>2022-06-18T09:28:27Z</time>
      </trkpt>
      <trkpt lat="42.2205810" lon="-8.6077460">
        <ele>168.4</ele>
        <time>2022-06-18T09:28:28Z</time>
      </trkpt>
      <trkpt lat="42.2206000" lon="-8.6077460">
        <ele>168.8</ele>
        <time>2022-06-18T09:28:29Z</time>
      </trkpt>
      <trkpt lat="42.2206180" lon="-8.6077460">
        <ele>168.8</ele>
        <time>2022-06-18T09:28:30Z</time>
      </trkpt>
      <trkpt lat="42.2206260" lon="-8.6077550">
        <ele>168.8</ele>
        <time>2022-06-18T09:28:31Z</time>
      </trkpt>
      <trkpt lat="42.2206380" lon="-8.6077560">
        <ele>169.0</ele>
        <time>2022-06-18T09:28:32Z</time>
      </trkpt>
      <trkpt lat="42.2206500" lon="-8.6077650">
        <ele>169.0</ele>
        <time>2022-06-18T09:28:33Z</time>
      </trkpt>
      <trkpt lat="42.2206630" lon="-8.6077680">
        <ele>169.0</ele>
        <time>2022-06-18T09:28:34Z</time>
      </trkpt>
      <trkpt lat="42.2206750" lon="-8.6077800">
        <ele>169.0</ele>
        <time>2022-06-18T09:28:35Z</time>
      </trkpt>
      <trkpt lat="42.2206830" lon="-8.6077860">
        <ele>169.8</ele>
        <time>2022-06-18T09:28:36Z</time>
      </trkpt>
      <trkpt lat="42.2206880" lon="-8.6077910">
        <ele>170.0</ele>
        <time>2022-06-18T09:28:37Z</time>
      </trkpt>
      <trkpt lat="42.2206980" lon="-8.6078010">
        <ele>170.0</ele>
        <time>2022-06-18T09:28:38Z</time>
      </trkpt>
      <trkpt lat="42.2207130" lon="-8.6078060">
        <ele>170.0</ele>
        <time>2022-06-18T09:28:39Z</time>
      </trkpt>
      <trkpt lat="42.2207260" lon="-8.6078130">
        <ele>170.0</ele>
        <time>2022-06-18T09:28:40Z</time>
      </trkpt>
      <trkpt lat="42.2207380" lon="-8.6078160">
        <ele>170.6</ele>
        <time>2022-06-18T09:28:41Z</time>
      </trkpt>
      <trkpt lat="42.2207460" lon="-8.6078200">
        <ele>170.6</ele>
        <time>2022-06-18T09:28:42Z</time>
      </trkpt>
      <trkpt lat="42.2207580" lon="-8.6078200">
        <ele>170.6</ele>
        <time>2022-06-18T09:28:43Z</time>
      </trkpt>
      <trkpt lat="42.2207700" lon="-8.6078230">
        <ele>171.4</ele>
        <time>2022-06-18T09:28:44Z</time>
      </trkpt>
      <trkpt lat="42.2207760" lon="-8.6078300">
        <ele>171.4</ele>
        <time>2022-06-18T09:28:45Z</time>
      </trkpt>
      <trkpt lat="42.2207900" lon="-8.6078350">
        <ele>171.4</ele>
        <time>2022-06-18T09:28:46Z</time>
      </trkpt>
      <trkpt lat="42.2208080" lon="-8.6078360">
        <ele>171.4</ele>
        <time>2022-06-18T09:28:47Z</time>
      </trkpt>
      <trkpt lat="42.2208210" lon="-8.6078400">
        <ele>171.4</ele>
        <time>2022-06-18T09:28:48Z</time>
      </trkpt>
      <trkpt lat="42.2208280" lon="-8.6078450">
        <ele>172.0</ele>
        <time>2022-06-18T09:28:49Z</time>
      </trkpt>
      <trkpt lat="42.2208410" lon="-8.6078530">
        <ele>172.0</ele>
        <time>2022-06-18T09:28:50Z</time>
      </trkpt>
      <trkpt lat="42.2208560" lon="-8.6078580">
        <ele>172.0</ele>
        <time>2022-06-18T09:28:51Z</time>
      </trkpt>
      <trkpt lat="42.2208710" lon="-8.6078650">
        <ele>172.0</ele>
        <time>2022-06-18T09:28:52Z</time>
      </trkpt>
      <trkpt lat="42.2208860" lon="-8.6078760">
        <ele>173.0</ele>
        <time>2022-06-18T09:28:53Z</time>
      </trkpt>
      <trkpt lat="42.2209080" lon="-8.6078750">
        <ele>173.0</ele>
        <time>2022-06-18T09:28:54Z</time>
      </trkpt>
      <trkpt lat="42.2209180" lon="-8.6078800">
        <ele>173.0</ele>
        <time>2022-06-18T09:28:55Z</time>
      </trkpt>
      <trkpt lat="42.2209300" lon="-8.6078860">
        <ele>173.0</ele>
        <time>2022-06-18T09:28:56Z</time>
      </trkpt>
      <trkpt lat="42.2209450" lon="-8.6078960">
        <ele>173.2</ele>
        <time>2022-06-18T09:28:57Z</time>
      </trkpt>
      <trkpt lat="42.2209650" lon="-8.6079000">
        <ele>173.2</ele>
        <time>2022-06-18T09:28:58Z</time>
      </trkpt>
      <trkpt lat="42.2209810" lon="-8.6079060">
        <ele>173.2</ele>
        <time>2022-06-18T09:28:59Z</time>
      </trkpt>
      <trkpt lat="42.2209980" lon="-8.6079150">
        <ele>173.2</ele>
        <time>2022-06-18T09:29:00Z</time>
      </trkpt>
      <trkpt lat="42.2210100" lon="-8.6079230">
        <ele>173.6</ele>
        <time>2022-06-18T09:29:01Z</time>
      </trkpt>
      <trkpt lat="42.2210280" lon="-8.6079330">
        <ele>173.6</ele>
        <time>2022-06-18T09:29:02Z</time>
      </trkpt>
      <trkpt lat="42.2210360" lon="-8.6079480">
        <ele>173.6</ele>
        <time>2022-06-18T09:29:03Z</time>
      </trkpt>
      <trkpt lat="42.2210430" lon="-8.6079630">
        <ele>174.2</ele>
        <time>2022-06-18T09:29:04Z</time>
      </trkpt>
      <trkpt lat="42.2210530" lon="-8.6079800">
        <ele>174.4</ele>
        <time>2022-06-18T09:29:05Z</time>
      </trkpt>
      <trkpt lat="42.2210680" lon="-8.6079880">
        <ele>174.4</ele>
        <time>2022-06-18T09:29:06Z</time>
      </trkpt>
      <trkpt lat="42.2210850" lon="-8.6079930">
        <ele>174.4</ele>
        <time>2022-06-18T09:29:07Z</time>
      </trkpt>
      <trkpt lat="42.2210980" lon="-8.6079980">
        <ele>174.8</ele>
        <time>2022-06-18T09:29:08Z</time>
      </trkpt>
      <trkpt lat="42.2211200" lon="-8.6080010">
        <ele>175.0</ele>
        <time>2022-06-18T09:29:09Z</time>
      </trkpt>
      <trkpt lat="42.2211380" lon="-8.6080050">
        <ele>175.0</ele>
        <time>2022-06-18T09:29:10Z</time>
      </trkpt>
      <trkpt lat="42.2211600" lon="-8.6080080">
        <ele>175.0</ele>
        <time>2022-06-18T09:29:11Z</time>
      </trkpt>
      <trkpt lat="42.2211780" lon="-8.6080150">
        <ele>175.6</ele>
        <time>2022-06-18T09:29:12Z</time>
      </trkpt>
      <trkpt lat="42.2211980" lon="-8.6080210">
        <ele>175.6</ele>
        <time>2022-06-18T09:29:13Z</time>
      </trkpt>
      <trkpt lat="42.2212130" lon="-8.6080330">
        <ele>175.6</ele>
        <time>2022-06-18T09:29:14Z</time>
      </trkpt>
      <trkpt lat="42.2212280" lon="-8.6080400">
        <ele>175.6</ele>
        <time>2022-06-18T09:29:15Z</time>
      </trkpt>
      <trkpt lat="42.2212450" lon="-8.6080480">
        <ele>175.8</ele>
        <time>2022-06-18T09:29:16Z</time>
      </trkpt>
      <trkpt lat="42.2212560" lon="-8.6080560">
        <ele>176.0</ele>
        <time>2022-06-18T09:29:17Z</time>
      </trkpt>
      <trkpt lat="42.2212730" lon="-8.6080650">
        <ele>176.0</ele>
        <time>2022-06-18T09:29:18Z</time>
      </trkpt>
      <trkpt lat="42.2212930" lon="-8.6080730">
        <ele>176.0</ele>
        <time>2022-06-18T09:29:19Z</time>
      </trkpt>
      <trkpt lat="42.2213110" lon="-8.6080800">
        <ele>176.0</ele>
        <time>2022-06-18T09:29:20Z</time>
      </trkpt>
      <trkpt lat="42.2213310" lon="-8.6080830">
        <ele>176.2</ele>
        <time>2022-06-18T09:29:21Z</time>
      </trkpt>
      <trkpt lat="42.2213510" lon="-8.6080880">
        <ele>176.2</ele>
        <time>2022-06-18T09:29:22Z</time>
      </trkpt>
      <trkpt lat="42.2213700" lon="-8.6080930">
        <ele>176.2</ele>
        <time>2022-06-18T09:29:23Z</time>
      </trkpt>
      <trkpt lat="42.2213860" lon="-8.6080960">
        <ele>176.4</ele>
        <time>2022-06-18T09:29:24Z</time>
      </trkpt>
      <trkpt lat="42.2214010" lon="-8.6081030">
        <ele>176.4</ele>
        <time>2022-06-18T09:29:25Z</time>
      </trkpt>
      <trkpt lat="42.2214160" lon="-8.6081080">
        <ele>176.4</ele>
        <time>2022-06-18T09:29:26Z</time>
      </trkpt>
      <trkpt lat="42.2214280" lon="-8.6081080">
        <ele>176.4</ele>
        <time>2022-06-18T09:29:27Z</time>
      </trkpt>
      <trkpt lat="42.2214460" lon="-8.6081080">
        <ele>176.4</ele>
        <time>2022-06-18T09:29:28Z</time>
      </trkpt>
      <trkpt lat="42.2214600" lon="-8.6081150">
        <ele>176.8</ele>
        <time>2022-06-18T09:29:29Z</time>
      </trkpt>
      <trkpt lat="42.2214750" lon="-8.6081180">
        <ele>176.8</ele>
        <time>2022-06-18T09:29:30Z</time>
      </trkpt>
      <trkpt lat="42.2214930" lon="-8.6081230">
        <ele>176.8</ele>
        <time>2022-06-18T09:29:31Z</time>
      </trkpt>
      <trkpt lat="42.2215050" lon="-8.6081250">
        <ele>176.8</ele>
        <time>2022-06-18T09:29:32Z</time>
      </trkpt>
      <trkpt lat="42.2215160" lon="-8.6081230">
        <ele>176.8</ele>
        <time>2022-06-18T09:29:33Z</time>
      </trkpt>
      <trkpt lat="42.2215300" lon="-8.6081230">
        <ele>176.8</ele>
        <time>2022-06-18T09:29:34Z</time>
      </trkpt>
      <trkpt lat="42.2215410" lon="-8.6081260">
        <ele>176.8</ele>
        <time>2022-06-18T09:29:35Z</time>
      </trkpt>
      <trkpt lat="42.2215530" lon="-8.6081250">
        <ele>177.4</ele>
        <time>2022-06-18T09:29:36Z</time>
      </trkpt>
      <trkpt lat="42.2215660" lon="-8.6081260">
        <ele>178.0</ele>
        <time>2022-06-18T09:29:37Z</time>
      </trkpt>
      <trkpt lat="42.2215760" lon="-8.6081260">
        <ele>178.0</ele>
        <time>2022-06-18T09:29:38Z</time>
      </trkpt>
      <trkpt lat="42.2215830" lon="-8.6081300">
        <ele>178.0</ele>
        <time>2022-06-18T09:29:39Z</time>
      </trkpt>
      <trkpt lat="42.2215960" lon="-8.6081300">
        <ele>178.0</ele>
        <time>2022-06-18T09:29:40Z</time>
      </trkpt>
      <trkpt lat="42.2216100" lon="-8.6081330">
        <ele>178.6</ele>
        <time>2022-06-18T09:29:41Z</time>
      </trkpt>
      <trkpt lat="42.2216210" lon="-8.6081360">
        <ele>178.6</ele>
        <time>2022-06-18T09:29:42Z</time>
      </trkpt>
      <trkpt lat="42.2216400" lon="-8.6081410">
        <ele>178.6</ele>
        <time>2022-06-18T09:29:43Z</time>
      </trkpt>
      <trkpt lat="42.2216560" lon="-8.6081400">
        <ele>178.6</ele>
        <time>2022-06-18T09:29:44Z</time>
      </trkpt>
      <trkpt lat="42.2216730" lon="-8.6081360">
        <ele>178.6</ele>
        <time>2022-06-18T09:29:45Z</time>
      </trkpt>
      <trkpt lat="42.2216860" lon="-8.6081400">
        <ele>178.6</ele>
        <time>2022-06-18T09:29:46Z</time>
      </trkpt>
      <trkpt lat="42.2216960" lon="-8.6081460">
        <ele>178.6</ele>
        <time>2022-06-18T09:29:47Z</time>
      </trkpt>
      <trkpt lat="42.2217010" lon="-8.6081550">
        <ele>178.6</ele>
        <time>2022-06-18T09:29:48Z</time>
      </trkpt>
      <trkpt lat="42.2217160" lon="-8.6081550">
        <ele>178.8</ele>
        <time>2022-06-18T09:29:49Z</time>
      </trkpt>
      <trkpt lat="42.2217260" lon="-8.6081560">
        <ele>178.8</ele>
        <time>2022-06-18T09:29:50Z</time>
      </trkpt>
      <trkpt lat="42.2217400" lon="-8.6081580">
        <ele>178.8</ele>
        <time>2022-06-18T09:29:51Z</time>
      </trkpt>
      <trkpt lat="42.2217580" lon="-8.6081530">
        <ele>179.4</ele>
        <time>2022-06-18T09:29:52Z</time>
      </trkpt>
      <trkpt lat="42.2217760" lon="-8.6081450">
        <ele>179.4</ele>
        <time>2022-06-18T09:29:53Z</time>
      </trkpt>
      <trkpt lat="42.2217960" lon="-8.6081430">
        <ele>179.4</ele>
        <time>2022-06-18T09:29:54Z</time>
      </trkpt>
      <trkpt lat="42.2218100" lon="-8.6081380">
        <ele>179.4</ele>
        <time>2022-06-18T09:29:55Z</time>
      </trkpt>
      <trkpt lat="42.2218230" lon="-8.6081350">
        <ele>179.4</ele>
        <time>2022-06-18T09:29:56Z</time>
      </trkpt>
      <trkpt lat="42.2218310" lon="-8.6081310">
        <ele>179.8</ele>
        <time>2022-06-18T09:29:57Z</time>
      </trkpt>
      <trkpt lat="42.2218410" lon="-8.6081280">
        <ele>179.8</ele>
        <time>2022-06-18T09:29:58Z</time>
      </trkpt>
      <trkpt lat="42.2218510" lon="-8.6081260">
        <ele>179.8</ele>
        <time>2022-06-18T09:29:59Z</time>
      </trkpt>
      <trkpt lat="42.2218650" lon="-8.6081210">
        <ele>180.0</ele>
        <time>2022-06-18T09:30:00Z</time>
      </trkpt>
      <trkpt lat="42.2218760" lon="-8.6081160">
        <ele>180.2</ele>
        <time>2022-06-18T09:30:01Z</time>
      </trkpt>
      <trkpt lat="42.2218830" lon="-8.6081160">
        <ele>180.2</ele>
        <time>2022-06-18T09:30:02Z</time>
      </trkpt>
      <trkpt lat="42.2218980" lon="-8.6081230">
        <ele>180.2</ele>
        <time>2022-06-18T09:30:03Z</time>
      </trkpt>
      <trkpt lat="42.2219060" lon="-8.6081250">
        <ele>180.6</ele>
        <time>2022-06-18T09:30:04Z</time>
      </trkpt>
      <trkpt lat="42.2219110" lon="-8.6081280">
        <ele>180.6</ele>
        <time>2022-06-18T09:30:05Z</time>
      </trkpt>
      <trkpt lat="42.2219300" lon="-8.6081280">
        <ele>180.6</ele>
        <time>2022-06-18T09:30:06Z</time>
      </trkpt>
      <trkpt lat="42.2219530" lon="-8.6081200">
        <ele>180.6</ele>
        <time>2022-06-18T09:30:07Z</time>
      </trkpt>
      <trkpt lat="42.2219710" lon="-8.6081210">
        <ele>180.6</ele>
        <time>2022-06-18T09:30:08Z</time>
      </trkpt>
      <trkpt lat="42.2219850" lon="-8.6081210">
        <ele>180.8</ele>
        <time>2022-06-18T09:30:09Z</time>
      </trkpt>
      <trkpt lat="42.2219860" lon="-8.6081180">
        <ele>180.8</ele>
        <time>2022-06-18T09:30:10Z</time>
      </trkpt>
      <trkpt lat="42.2219930" lon="-8.6081130">
        <ele>180.8</ele>
        <time>2022-06-18T09:30:11Z</time>
      </trkpt>
      <trkpt lat="42.2220060" lon="-8.6081130">
        <ele>181.6</ele>
        <time>2022-06-18T09:30:12Z</time>
      </trkpt>
      <trkpt lat="42.2220200" lon="-8.6081130">
        <ele>181.4</ele>
        <time>2022-06-18T09:30:13Z</time>
      </trkpt>
      <trkpt lat="42.2220330" lon="-8.6081130">
        <ele>181.4</ele>
        <time>2022-06-18T09:30:14Z</time>
      </trkpt>
      <trkpt lat="42.2220410" lon="-8.6081160">
        <ele>181.4</ele>
        <time>2022-06-18T09:30:15Z</time>
      </trkpt>
      <trkpt lat="42.2220510" lon="-8.6081260">
        <ele>182.2</ele>
        <time>2022-06-18T09:30:16Z</time>
      </trkpt>
      <trkpt lat="42.2220680" lon="-8.6081360">
        <ele>182.2</ele>
        <time>2022-06-18T09:30:17Z</time>
      </trkpt>
      <trkpt lat="42.2220810" lon="-8.6081400">
        <ele>182.2</ele>
        <time>2022-06-18T09:30:18Z</time>
      </trkpt>
      <trkpt lat="42.2220950" lon="-8.6081410">
        <ele>182.2</ele>
        <time>2022-06-18T09:30:19Z</time>
      </trkpt>
      <trkpt lat="42.2221060" lon="-8.6081380">
        <ele>182.2</ele>
        <time>2022-06-18T09:30:20Z</time>
      </trkpt>
      <trkpt lat="42.2221060" lon="-8.6081380">
        <ele>182.8</ele>
        <time>2022-06-18T09:30:21Z</time>
      </trkpt>
      <trkpt lat="42.2222130" lon="-8.6081510">
        <ele>184.0</ele>
        <time>2022-06-18T09:30:31Z</time>
      </trkpt>
      <trkpt lat="42.2222350" lon="-8.6081480">
        <ele>184.0</ele>
        <time>2022-06-18T09:30:32Z</time>
      </trkpt>
      <trkpt lat="42.2222500" lon="-8.6081460">
        <ele>184.4</ele>
        <time>2022-06-18T09:30:33Z</time>
      </trkpt>
      <trkpt lat="42.2222710" lon="-8.6081460">
        <ele>184.4</ele>
        <time>2022-06-18T09:30:34Z</time>
      </trkpt>
      <trkpt lat="42.2222900" lon="-8.6081410">
        <ele>184.4</ele>
        <time>2022-06-18T09:30:35Z</time>
      </trkpt>
      <trkpt lat="42.2223100" lon="-8.6081310">
        <ele>185.0</ele>
        <time>2022-06-18T09:30:36Z</time>
      </trkpt>
      <trkpt lat="42.2223280" lon="-8.6081310">
        <ele>185.6</ele>
        <time>2022-06-18T09:30:37Z</time>
      </trkpt>
      <trkpt lat="42.2223450" lon="-8.6081230">
        <ele>185.6</ele>
        <time>2022-06-18T09:30:38Z</time>
      </trkpt>
      <trkpt lat="42.2223610" lon="-8.6081110">
        <ele>185.6</ele>
        <time>2022-06-18T09:30:39Z</time>
      </trkpt>
      <trkpt lat="42.2223780" lon="-8.6081100">
        <ele>185.6</ele>
        <time>2022-06-18T09:30:40Z</time>
      </trkpt>
      <trkpt lat="42.2224000" lon="-8.6081110">
        <ele>186.0</ele>
        <time>2022-06-18T09:30:41Z</time>
      </trkpt>
      <trkpt lat="42.2224230" lon="-8.6081080">
        <ele>186.0</ele>
        <time>2022-06-18T09:30:42Z</time>
      </trkpt>
      <trkpt lat="42.2224410" lon="-8.6081100">
        <ele>186.0</ele>
        <time>2022-06-18T09:30:43Z</time>
      </trkpt>
      <trkpt lat="42.2224600" lon="-8.6081000">
        <ele>186.4</ele>
        <time>2022-06-18T09:30:44Z</time>
      </trkpt>
      <trkpt lat="42.2224760" lon="-8.6080950">
        <ele>186.4</ele>
        <time>2022-06-18T09:30:45Z</time>
      </trkpt>
      <trkpt lat="42.2224910" lon="-8.6080900">
        <ele>186.4</ele>
        <time>2022-06-18T09:30:46Z</time>
      </trkpt>
      <trkpt lat="42.2225160" lon="-8.6080780">
        <ele>186.4</ele>
        <time>2022-06-18T09:30:47Z</time>
      </trkpt>
      <trkpt lat="42.2225360" lon="-8.6080700">
        <ele>187.2</ele>
        <time>2022-06-18T09:30:48Z</time>
      </trkpt>
      <trkpt lat="42.2225500" lon="-8.6080680">
        <ele>187.6</ele>
        <time>2022-06-18T09:30:49Z</time>
      </trkpt>
      <trkpt lat="42.2225680" lon="-8.6080650">
        <ele>187.6</ele>
        <time>2022-06-18T09:30:50Z</time>
      </trkpt>
      <trkpt lat="42.2225830" lon="-8.6080530">
        <ele>187.6</ele>
        <time>2022-06-18T09:30:51Z</time>
      </trkpt>
      <trkpt lat="42.2225950" lon="-8.6080500">
        <ele>187.6</ele>
        <time>2022-06-18T09:30:52Z</time>
      </trkpt>
      <trkpt lat="42.2226100" lon="-8.6080410">
        <ele>188.0</ele>
        <time>2022-06-18T09:30:53Z</time>
      </trkpt>
      <trkpt lat="42.2226310" lon="-8.6080430">
        <ele>188.0</ele>
        <time>2022-06-18T09:30:54Z</time>
      </trkpt>
      <trkpt lat="42.2226560" lon="-8.6080380">
        <ele>188.0</ele>
        <time>2022-06-18T09:30:55Z</time>
      </trkpt>
      <trkpt lat="42.2226780" lon="-8.6080360">
        <ele>188.8</ele>
        <time>2022-06-18T09:30:56Z</time>
      </trkpt>
      <trkpt lat="42.2226980" lon="-8.6080260">
        <ele>188.2</ele>
        <time>2022-06-18T09:30:57Z</time>
      </trkpt>
      <trkpt lat="42.2227160" lon="-8.6080200">
        <ele>188.2</ele>
        <time>2022-06-18T09:30:58Z</time>
      </trkpt>
      <trkpt lat="42.2227300" lon="-8.6080110">
        <ele>188.2</ele>
        <time>2022-06-18T09:30:59Z</time>
      </trkpt>
      <trkpt lat="42.2227480" lon="-8.6079960">
        <ele>189.2</ele>
        <time>2022-06-18T09:31:00Z</time>
      </trkpt>
      <trkpt lat="42.2227610" lon="-8.6079910">
        <ele>189.8</ele>
        <time>2022-06-18T09:31:01Z</time>
      </trkpt>
      <trkpt lat="42.2227810" lon="-8.6079880">
        <ele>189.8</ele>
        <time>2022-06-18T09:31:02Z</time>
      </trkpt>
      <trkpt lat="42.2228000" lon="-8.6079860">
        <ele>189.8</ele>
        <time>2022-06-18T09:31:03Z</time>
      </trkpt>
      <trkpt lat="42.2228130" lon="-8.6079800">
        <ele>189.8</ele>
        <time>2022-06-18T09:31:04Z</time>
      </trkpt>
      <trkpt lat="42.2228310" lon="-8.6079700">
        <ele>190.0</ele>
        <time>2022-06-18T09:31:05Z</time>
      </trkpt>
      <trkpt lat="42.2228480" lon="-8.6079580">
        <ele>190.0</ele>
        <time>2022-06-18T09:31:06Z</time>
      </trkpt>
      <trkpt lat="42.2228650" lon="-8.6079510">
        <ele>190.0</ele>
        <time>2022-06-18T09:31:07Z</time>
      </trkpt>
      <trkpt lat="42.2228800" lon="-8.6079450">
        <ele>190.0</ele>
        <time>2022-06-18T09:31:08Z</time>
      </trkpt>
      <trkpt lat="42.2228980" lon="-8.6079360">
        <ele>190.6</ele>
        <time>2022-06-18T09:31:09Z</time>
      </trkpt>
      <trkpt lat="42.2229110" lon="-8.6079250">
        <ele>190.6</ele>
        <time>2022-06-18T09:31:10Z</time>
      </trkpt>
      <trkpt lat="42.2229250" lon="-8.6079130">
        <ele>190.6</ele>
        <time>2022-06-18T09:31:11Z</time>
      </trkpt>
      <trkpt lat="42.2229350" lon="-8.6079030">
        <ele>191.6</ele>
        <time>2022-06-18T09:31:12Z</time>
      </trkpt>
      <trkpt lat="42.2229450" lon="-8.6079000">
        <ele>191.4</ele>
        <time>2022-06-18T09:31:13Z</time>
      </trkpt>
      <trkpt lat="42.2229510" lon="-8.6078930">
        <ele>191.4</ele>
        <time>2022-06-18T09:31:14Z</time>
      </trkpt>
      <trkpt lat="42.2229600" lon="-8.6078830">
        <ele>191.4</ele>
        <time>2022-06-18T09:31:15Z</time>
      </trkpt>
      <trkpt lat="42.2229730" lon="-8.6078750">
        <ele>192.4</ele>
        <time>2022-06-18T09:31:16Z</time>
      </trkpt>
      <trkpt lat="42.2229900" lon="-8.6078730">
        <ele>192.2</ele>
        <time>2022-06-18T09:31:17Z</time>
      </trkpt>
      <trkpt lat="42.2230030" lon="-8.6078630">
        <ele>192.2</ele>
        <time>2022-06-18T09:31:18Z</time>
      </trkpt>
      <trkpt lat="42.2230180" lon="-8.6078560">
        <ele>192.2</ele>
        <time>2022-06-18T09:31:19Z</time>
      </trkpt>
      <trkpt lat="42.2230300" lon="-8.6078460">
        <ele>193.2</ele>
        <time>2022-06-18T09:31:20Z</time>
      </trkpt>
      <trkpt lat="42.2230460" lon="-8.6078350">
        <ele>193.4</ele>
        <time>2022-06-18T09:31:21Z</time>
      </trkpt>
      <trkpt lat="42.2230550" lon="-8.6078230">
        <ele>193.4</ele>
        <time>2022-06-18T09:31:22Z</time>
      </trkpt>
      <trkpt lat="42.2230660" lon="-8.6078100">
        <ele>193.4</ele>
        <time>2022-06-18T09:31:23Z</time>
      </trkpt>
      <trkpt lat="42.2230760" lon="-8.6077980">
        <ele>193.4</ele>
        <time>2022-06-18T09:31:24Z</time>
      </trkpt>
      <trkpt lat="42.2230880" lon="-8.6077850">
        <ele>194.0</ele>
        <time>2022-06-18T09:31:25Z</time>
      </trkpt>
      <trkpt lat="42.2230980" lon="-8.6077700">
        <ele>194.0</ele>
        <time>2022-06-18T09:31:26Z</time>
      </trkpt>
      <trkpt lat="42.2231060" lon="-8.6077600">
        <ele>194.0</ele>
        <time>2022-06-18T09:31:27Z</time>
      </trkpt>
      <trkpt lat="42.2231130" lon="-8.6077430">
        <ele>194.2</ele>
        <time>2022-06-18T09:31:28Z</time>
      </trkpt>
      <trkpt lat="42.2231210" lon="-8.6077260">
        <ele>194.4</ele>
        <time>2022-06-18T09:31:29Z</time>
      </trkpt>
      <trkpt lat="42.2231260" lon="-8.6077130">
        <ele>194.4</ele>
        <time>2022-06-18T09:31:30Z</time>
      </trkpt>
      <trkpt lat="42.2231330" lon="-8.6076980">
        <ele>194.4</ele>
        <time>2022-06-18T09:31:31Z</time>
      </trkpt>
      <trkpt lat="42.2231400" lon="-8.6076780">
        <ele>194.6</ele>
        <time>2022-06-18T09:31:32Z</time>
      </trkpt>
      <trkpt lat="42.2231450" lon="-8.6076550">
        <ele>194.6</ele>
        <time>2022-06-18T09:31:33Z</time>
      </trkpt>
      <trkpt lat="42.2231510" lon="-8.6076350">
        <ele>194.6</ele>
        <time>2022-06-18T09:31:34Z</time>
      </trkpt>
      <trkpt lat="42.2231550" lon="-8.6076130">
        <ele>194.6</ele>
        <time>2022-06-18T09:31:35Z</time>
      </trkpt>
      <trkpt lat="42.2231580" lon="-8.6075950">
        <ele>194.6</ele>
        <time>2022-06-18T09:31:36Z</time>
      </trkpt>
      <trkpt lat="42.2231600" lon="-8.6075730">
        <ele>195.6</ele>
        <time>2022-06-18T09:31:37Z</time>
      </trkpt>
      <trkpt lat="42.2231650" lon="-8.6075500">
        <ele>195.6</ele>
        <time>2022-06-18T09:31:38Z</time>
      </trkpt>
      <trkpt lat="42.2231700" lon="-8.6075280">
        <ele>195.6</ele>
        <time>2022-06-18T09:31:39Z</time>
      </trkpt>
      <trkpt lat="42.2231760" lon="-8.6075100">
        <ele>195.6</ele>
        <time>2022-06-18T09:31:40Z</time>
      </trkpt>
      <trkpt lat="42.2231850" lon="-8.6074910">
        <ele>195.6</ele>
        <time>2022-06-18T09:31:41Z</time>
      </trkpt>
      <trkpt lat="42.2231950" lon="-8.6074750">
        <ele>195.6</ele>
        <time>2022-06-18T09:31:42Z</time>
      </trkpt>
      <trkpt lat="42.2232050" lon="-8.6074610">
        <ele>195.6</ele>
        <time>2022-06-18T09:31:43Z</time>
      </trkpt>
      <trkpt lat="42.2232150" lon="-8.6074460">
        <ele>195.6</ele>
        <time>2022-06-18T09:31:44Z</time>
      </trkpt>
      <trkpt lat="42.2232250" lon="-8.6074430">
        <ele>196.2</ele>
        <time>2022-06-18T09:31:45Z</time>
      </trkpt>
      <trkpt lat="42.2232360" lon="-8.6074380">
        <ele>196.2</ele>
        <time>2022-06-18T09:31:46Z</time>
      </trkpt>
      <trkpt lat="42.2232500" lon="-8.6074330">
        <ele>196.2</ele>
        <time>2022-06-18T09:31:47Z</time>
      </trkpt>
      <trkpt lat="42.2232680" lon="-8.6074260">
        <ele>196.2</ele>
        <time>2022-06-18T09:31:48Z</time>
      </trkpt>
      <trkpt lat="42.2232850" lon="-8.6074230">
        <ele>196.6</ele>
        <time>2022-06-18T09:31:49Z</time>
      </trkpt>
      <trkpt lat="42.2233010" lon="-8.6074180">
        <ele>196.6</ele>
        <time>2022-06-18T09:31:50Z</time>
      </trkpt>
      <trkpt lat="42.2233180" lon="-8.6074150">
        <ele>196.6</ele>
        <time>2022-06-18T09:31:51Z</time>
      </trkpt>
      <trkpt lat="42.2233330" lon="-8.6074050">
        <ele>196.6</ele>
        <time>2022-06-18T09:31:52Z</time>
      </trkpt>
      <trkpt lat="42.2233460" lon="-8.6074000">
        <ele>196.6</ele>
        <time>2022-06-18T09:31:53Z</time>
      </trkpt>
      <trkpt lat="42.2233610" lon="-8.6073930">
        <ele>196.6</ele>
        <time>2022-06-18T09:31:54Z</time>
      </trkpt>
      <trkpt lat="42.2233780" lon="-8.6073850">
        <ele>196.6</ele>
        <time>2022-06-18T09:31:55Z</time>
      </trkpt>
      <trkpt lat="42.2233950" lon="-8.6073750">
        <ele>197.0</ele>
        <time>2022-06-18T09:31:56Z</time>
      </trkpt>
      <trkpt lat="42.2234080" lon="-8.6073680">
        <ele>197.2</ele>
        <time>2022-06-18T09:31:57Z</time>
      </trkpt>
      <trkpt lat="42.2234250" lon="-8.6073610">
        <ele>197.2</ele>
        <time>2022-06-18T09:31:58Z</time>
      </trkpt>
      <trkpt lat="42.2234400" lon="-8.6073510">
        <ele>197.2</ele>
        <time>2022-06-18T09:31:59Z</time>
      </trkpt>
      <trkpt lat="42.2234530" lon="-8.6073410">
        <ele>197.4</ele>
        <time>2022-06-18T09:32:00Z</time>
      </trkpt>
      <trkpt lat="42.2234660" lon="-8.6073330">
        <ele>197.8</ele>
        <time>2022-06-18T09:32:01Z</time>
      </trkpt>
      <trkpt lat="42.2234780" lon="-8.6073250">
        <ele>197.8</ele>
        <time>2022-06-18T09:32:02Z</time>
      </trkpt>
      <trkpt lat="42.2234910" lon="-8.6073130">
        <ele>197.8</ele>
        <time>2022-06-18T09:32:03Z</time>
      </trkpt>
      <trkpt lat="42.2235010" lon="-8.6073010">
        <ele>197.8</ele>
        <time>2022-06-18T09:32:04Z</time>
      </trkpt>
      <trkpt lat="42.2235160" lon="-8.6072930">
        <ele>198.2</ele>
        <time>2022-06-18T09:32:05Z</time>
      </trkpt>
      <trkpt lat="42.2235300" lon="-8.6072850">
        <ele>198.2</ele>
        <time>2022-06-18T09:32:06Z</time>
      </trkpt>
      <trkpt lat="42.2235410" lon="-8.6072760">
        <ele>198.2</ele>
        <time>2022-06-18T09:32:07Z</time>
      </trkpt>
      <trkpt lat="42.2235530" lon="-8.6072680">
        <ele>198.2</ele>
        <time>2022-06-18T09:32:08Z</time>
      </trkpt>
      <trkpt lat="42.2235710" lon="-8.6072580">
        <ele>198.8</ele>
        <time>2022-06-18T09:32:09Z</time>
      </trkpt>
      <trkpt lat="42.2235850" lon="-8.6072450">
        <ele>198.8</ele>
        <time>2022-06-18T09:32:10Z</time>
      </trkpt>
      <trkpt lat="42.2236000" lon="-8.6072350">
        <ele>198.8</ele>
        <time>2022-06-18T09:32:11Z</time>
      </trkpt>
      <trkpt lat="42.2236110" lon="-8.6072260">
        <ele>198.8</ele>
        <time>2022-06-18T09:32:12Z</time>
      </trkpt>
      <trkpt lat="42.2236260" lon="-8.6072160">
        <ele>200.0</ele>
        <time>2022-06-18T09:32:13Z</time>
      </trkpt>
      <trkpt lat="42.2236400" lon="-8.6072100">
        <ele>200.0</ele>
        <time>2022-06-18T09:32:14Z</time>
      </trkpt>
      <trkpt lat="42.2236510" lon="-8.6072030">
        <ele>200.0</ele>
        <time>2022-06-18T09:32:15Z</time>
      </trkpt>
      <trkpt lat="42.2236630" lon="-8.6071950">
        <ele>200.0</ele>
        <time>2022-06-18T09:32:16Z</time>
      </trkpt>
      <trkpt lat="42.2236780" lon="-8.6071880">
        <ele>200.2</ele>
        <time>2022-06-18T09:32:17Z</time>
      </trkpt>
      <trkpt lat="42.2236900" lon="-8.6071800">
        <ele>200.2</ele>
        <time>2022-06-18T09:32:18Z</time>
      </trkpt>
      <trkpt lat="42.2237050" lon="-8.6071710">
        <ele>200.2</ele>
        <time>2022-06-18T09:32:19Z</time>
      </trkpt>
      <trkpt lat="42.2237180" lon="-8.6071660">
        <ele>200.2</ele>
        <time>2022-06-18T09:32:20Z</time>
      </trkpt>
      <trkpt lat="42.2237310" lon="-8.6071610">
        <ele>200.6</ele>
        <time>2022-06-18T09:32:21Z</time>
      </trkpt>
      <trkpt lat="42.2237450" lon="-8.6071550">
        <ele>200.6</ele>
        <time>2022-06-18T09:32:22Z</time>
      </trkpt>
      <trkpt lat="42.2237580" lon="-8.6071480">
        <ele>200.6</ele>
        <time>2022-06-18T09:32:23Z</time>
      </trkpt>
      <trkpt lat="42.2237680" lon="-8.6071410">
        <ele>201.2</ele>
        <time>2022-06-18T09:32:24Z</time>
      </trkpt>
      <trkpt lat="42.2237810" lon="-8.6071310">
        <ele>201.6</ele>
        <time>2022-06-18T09:32:25Z</time>
      </trkpt>
      <trkpt lat="42.2237910" lon="-8.6071230">
        <ele>201.6</ele>
        <time>2022-06-18T09:32:26Z</time>
      </trkpt>
      <trkpt lat="42.2238000" lon="-8.6071110">
        <ele>201.6</ele>
        <time>2022-06-18T09:32:27Z</time>
      </trkpt>
      <trkpt lat="42.2238100" lon="-8.6071010">
        <ele>201.6</ele>
        <time>2022-06-18T09:32:28Z</time>
      </trkpt>
      <trkpt lat="42.2238210" lon="-8.6070930">
        <ele>202.0</ele>
        <time>2022-06-18T09:32:29Z</time>
      </trkpt>
      <trkpt lat="42.2238350" lon="-8.6070800">
        <ele>202.0</ele>
        <time>2022-06-18T09:32:30Z</time>
      </trkpt>
      <trkpt lat="42.2238450" lon="-8.6070700">
        <ele>202.0</ele>
        <time>2022-06-18T09:32:31Z</time>
      </trkpt>
      <trkpt lat="42.2238580" lon="-8.6070550">
        <ele>202.0</ele>
        <time>2022-06-18T09:32:32Z</time>
      </trkpt>
      <trkpt lat="42.2238700" lon="-8.6070430">
        <ele>202.6</ele>
        <time>2022-06-18T09:32:33Z</time>
      </trkpt>
      <trkpt lat="42.2238810" lon="-8.6070300">
        <ele>202.6</ele>
        <time>2022-06-18T09:32:34Z</time>
      </trkpt>
      <trkpt lat="42.2238910" lon="-8.6070200">
        <ele>202.6</ele>
        <time>2022-06-18T09:32:35Z</time>
      </trkpt>
      <trkpt lat="42.2239010" lon="-8.6070080">
        <ele>203.2</ele>
        <time>2022-06-18T09:32:36Z</time>
      </trkpt>
      <trkpt lat="42.2239130" lon="-8.6069960">
        <ele>203.0</ele>
        <time>2022-06-18T09:32:37Z</time>
      </trkpt>
      <trkpt lat="42.2239280" lon="-8.6069850">
        <ele>203.0</ele>
        <time>2022-06-18T09:32:38Z</time>
      </trkpt>
      <trkpt lat="42.2239410" lon="-8.6069760">
        <ele>203.0</ele>
        <time>2022-06-18T09:32:39Z</time>
      </trkpt>
      <trkpt lat="42.2239530" lon="-8.6069660">
        <ele>203.6</ele>
        <time>2022-06-18T09:32:40Z</time>
      </trkpt>
      <trkpt lat="42.2239700" lon="-8.6069530">
        <ele>203.6</ele>
        <time>2022-06-18T09:32:41Z</time>
      </trkpt>
      <trkpt lat="42.2239850" lon="-8.6069430">
        <ele>203.6</ele>
        <time>2022-06-18T09:32:42Z</time>
      </trkpt>
      <trkpt lat="42.2240000" lon="-8.6069300">
        <ele>203.6</ele>
        <time>2022-06-18T09:32:43Z</time>
      </trkpt>
      <trkpt lat="42.2240130" lon="-8.6069200">
        <ele>204.4</ele>
        <time>2022-06-18T09:32:44Z</time>
      </trkpt>
      <trkpt lat="42.2240280" lon="-8.6069100">
        <ele>204.4</ele>
        <time>2022-06-18T09:32:45Z</time>
      </trkpt>
      <trkpt lat="42.2240410" lon="-8.6069030">
        <ele>204.4</ele>
        <time>2022-06-18T09:32:46Z</time>
      </trkpt>
      <trkpt lat="42.2240510" lon="-8.6069000">
        <ele>204.4</ele>
        <time>2022-06-18T09:32:47Z</time>
      </trkpt>
      <trkpt lat="42.2240650" lon="-8.6068950">
        <ele>204.6</ele>
        <time>2022-06-18T09:32:48Z</time>
      </trkpt>
      <trkpt lat="42.2240760" lon="-8.6068880">
        <ele>204.8</ele>
        <time>2022-06-18T09:32:49Z</time>
      </trkpt>
      <trkpt lat="42.2240900" lon="-8.6068830">
        <ele>204.8</ele>
        <time>2022-06-18T09:32:50Z</time>
      </trkpt>
      <trkpt lat="42.2241030" lon="-8.6068730">
        <ele>204.8</ele>
        <time>2022-06-18T09:32:51Z</time>
      </trkpt>
      <trkpt lat="42.2241110" lon="-8.6068650">
        <ele>205.2</ele>
        <time>2022-06-18T09:32:52Z</time>
      </trkpt>
      <trkpt lat="42.2241230" lon="-8.6068560">
        <ele>205.2</ele>
        <time>2022-06-18T09:32:53Z</time>
      </trkpt>
      <trkpt lat="42.2241380" lon="-8.6068450">
        <ele>205.2</ele>
        <time>2022-06-18T09:32:54Z</time>
      </trkpt>
      <trkpt lat="42.2241500" lon="-8.6068330">
        <ele>205.2</ele>
        <time>2022-06-18T09:32:55Z</time>
      </trkpt>
      <trkpt lat="42.2241630" lon="-8.6068210">
        <ele>205.4</ele>
        <time>2022-06-18T09:32:56Z</time>
      </trkpt>
      <trkpt lat="42.2241800" lon="-8.6068080">
        <ele>205.6</ele>
        <time>2022-06-18T09:32:57Z</time>
      </trkpt>
      <trkpt lat="42.2241950" lon="-8.6067900">
        <ele>205.6</ele>
        <time>2022-06-18T09:32:58Z</time>
      </trkpt>
      <trkpt lat="42.2242100" lon="-8.6067730">
        <ele>205.6</ele>
        <time>2022-06-18T09:32:59Z</time>
      </trkpt>
      <trkpt lat="42.2242260" lon="-8.6067580">
        <ele>205.8</ele>
        <time>2022-06-18T09:33:00Z</time>
      </trkpt>
      <trkpt lat="42.2242460" lon="-8.6067410">
        <ele>205.8</ele>
        <time>2022-06-18T09:33:01Z</time>
      </trkpt>
      <trkpt lat="42.2242680" lon="-8.6067280">
        <ele>205.8</ele>
        <time>2022-06-18T09:33:02Z</time>
      </trkpt>
      <trkpt lat="42.2242910" lon="-8.6067110">
        <ele>205.8</ele>
        <time>2022-06-18T09:33:03Z</time>
      </trkpt>
      <trkpt lat="42.2243160" lon="-8.6066960">
        <ele>205.8</ele>
        <time>2022-06-18T09:33:04Z</time>
      </trkpt>
      <trkpt lat="42.2243410" lon="-8.6066860">
        <ele>206.4</ele>
        <time>2022-06-18T09:33:05Z</time>
      </trkpt>
      <trkpt lat="42.2243700" lon="-8.6066730">
        <ele>206.4</ele>
        <time>2022-06-18T09:33:06Z</time>
      </trkpt>
      <trkpt lat="42.2243960" lon="-8.6066560">
        <ele>206.4</ele>
        <time>2022-06-18T09:33:07Z</time>
      </trkpt>
      <trkpt lat="42.2244260" lon="-8.6066450">
        <ele>206.4</ele>
        <time>2022-06-18T09:33:08Z</time>
      </trkpt>
      <trkpt lat="42.2244530" lon="-8.6066310">
        <ele>206.0</ele>
        <time>2022-06-18T09:33:09Z</time>
      </trkpt>
      <trkpt lat="42.2244780" lon="-8.6066180">
        <ele>206.0</ele>
        <time>2022-06-18T09:33:10Z</time>
      </trkpt>
      <trkpt lat="42.2245050" lon="-8.6066200">
        <ele>206.0</ele>
        <time>2022-06-18T09:33:11Z</time>
      </trkpt>
      <trkpt lat="42.2245300" lon="-8.6066100">
        <ele>206.8</ele>
        <time>2022-06-18T09:33:12Z</time>
      </trkpt>
      <trkpt lat="42.2245580" lon="-8.6065950">
        <ele>206.8</ele>
        <time>2022-06-18T09:33:13Z</time>
      </trkpt>
      <trkpt lat="42.2245880" lon="-8.6065760">
        <ele>206.8</ele>
        <time>2022-06-18T09:33:14Z</time>
      </trkpt>
      <trkpt lat="42.2246160" lon="-8.6065630">
        <ele>206.8</ele>
        <time>2022-06-18T09:33:15Z</time>
      </trkpt>
      <trkpt lat="42.2246430" lon="-8.6065500">
        <ele>206.8</ele>
        <time>2022-06-18T09:33:16Z</time>
      </trkpt>
      <trkpt lat="42.2246700" lon="-8.6065380">
        <ele>207.2</ele>
        <time>2022-06-18T09:33:17Z</time>
      </trkpt>
      <trkpt lat="42.2246980" lon="-8.6065260">
        <ele>207.2</ele>
        <time>2022-06-18T09:33:18Z</time>
      </trkpt>
      <trkpt lat="42.2247280" lon="-8.6065130">
        <ele>207.2</ele>
        <time>2022-06-18T09:33:19Z</time>
      </trkpt>
      <trkpt lat="42.2247600" lon="-8.6064950">
        <ele>207.2</ele>
        <time>2022-06-18T09:33:20Z</time>
      </trkpt>
      <trkpt lat="42.2247910" lon="-8.6064760">
        <ele>207.0</ele>
        <time>2022-06-18T09:33:21Z</time>
      </trkpt>
      <trkpt lat="42.2248230" lon="-8.6064560">
        <ele>207.0</ele>
        <time>2022-06-18T09:33:22Z</time>
      </trkpt>
      <trkpt lat="42.2248560" lon="-8.6064360">
        <ele>207.0</ele>
        <time>2022-06-18T09:33:23Z</time>
      </trkpt>
      <trkpt lat="42.2248880" lon="-8.6064130">
        <ele>207.4</ele>
        <time>2022-06-18T09:33:24Z</time>
      </trkpt>
      <trkpt lat="42.2249200" lon="-8.6063930">
        <ele>207.0</ele>
        <time>2022-06-18T09:33:25Z</time>
      </trkpt>
      <trkpt lat="42.2249500" lon="-8.6063710">
        <ele>207.0</ele>
        <time>2022-06-18T09:33:26Z</time>
      </trkpt>
      <trkpt lat="42.2249800" lon="-8.6063460">
        <ele>207.0</ele>
        <time>2022-06-18T09:33:27Z</time>
      </trkpt>
      <trkpt lat="42.2250130" lon="-8.6063180">
        <ele>207.0</ele>
        <time>2022-06-18T09:33:28Z</time>
      </trkpt>
      <trkpt lat="42.2250480" lon="-8.6062860">
        <ele>206.4</ele>
        <time>2022-06-18T09:33:29Z</time>
      </trkpt>
      <trkpt lat="42.2250850" lon="-8.6062550">
        <ele>206.4</ele>
        <time>2022-06-18T09:33:30Z</time>
      </trkpt>
      <trkpt lat="42.2251250" lon="-8.6062260">
        <ele>206.4</ele>
        <time>2022-06-18T09:33:31Z</time>
      </trkpt>
      <trkpt lat="42.2251680" lon="-8.6061930">
        <ele>206.4</ele>
        <time>2022-06-18T09:33:32Z</time>
      </trkpt>
      <trkpt lat="42.2252130" lon="-8.6061600">
        <ele>205.2</ele>
        <time>2022-06-18T09:33:33Z</time>
      </trkpt>
      <trkpt lat="42.2252610" lon="-8.6061280">
        <ele>205.2</ele>
        <time>2022-06-18T09:33:34Z</time>
      </trkpt>
      <trkpt lat="42.2253110" lon="-8.6060960">
        <ele>205.2</ele>
        <time>2022-06-18T09:33:35Z</time>
      </trkpt>
      <trkpt lat="42.2253630" lon="-8.6060660">
        <ele>204.2</ele>
        <time>2022-06-18T09:33:36Z</time>
      </trkpt>
      <trkpt lat="42.2254180" lon="-8.6060350">
        <ele>203.8</ele>
        <time>2022-06-18T09:33:37Z</time>
      </trkpt>
      <trkpt lat="42.2254750" lon="-8.6060130">
        <ele>203.8</ele>
        <time>2022-06-18T09:33:38Z</time>
      </trkpt>
      <trkpt lat="42.2255310" lon="-8.6059930">
        <ele>203.8</ele>
        <time>2022-06-18T09:33:39Z</time>
      </trkpt>
      <trkpt lat="42.2255880" lon="-8.6059800">
        <ele>203.8</ele>
        <time>2022-06-18T09:33:40Z</time>
      </trkpt>
      <trkpt lat="42.2256430" lon="-8.6059680">
        <ele>203.8</ele>
        <time>2022-06-18T09:33:41Z</time>
      </trkpt>
      <trkpt lat="42.2256930" lon="-8.6059530">
        <ele>203.8</ele>
        <time>2022-06-18T09:33:42Z</time>
      </trkpt>
      <trkpt lat="42.2257380" lon="-8.6059450">
        <ele>203.8</ele>
        <time>2022-06-18T09:33:43Z</time>
      </trkpt>
      <trkpt lat="42.2257800" lon="-8.6059450">
        <ele>203.8</ele>
        <time>2022-06-18T09:33:44Z</time>
      </trkpt>
      <trkpt lat="42.2258100" lon="-8.6059580">
        <ele>203.6</ele>
        <time>2022-06-18T09:33:45Z</time>
      </trkpt>
      <trkpt lat="42.2258460" lon="-8.6059710">
        <ele>203.6</ele>
        <time>2022-06-18T09:33:46Z</time>
      </trkpt>
      <trkpt lat="42.2258810" lon="-8.6059850">
        <ele>203.6</ele>
        <time>2022-06-18T09:33:47Z</time>
      </trkpt>
      <trkpt lat="42.2259160" lon="-8.6060010">
        <ele>204.2</ele>
        <time>2022-06-18T09:33:48Z</time>
      </trkpt>
      <trkpt lat="42.2259480" lon="-8.6060180">
        <ele>204.2</ele>
        <time>2022-06-18T09:33:49Z</time>
      </trkpt>
      <trkpt lat="42.2259800" lon="-8.6060350">
        <ele>204.2</ele>
        <time>2022-06-18T09:33:50Z</time>
      </trkpt>
      <trkpt lat="42.2260050" lon="-8.6060550">
        <ele>204.2</ele>
        <time>2022-06-18T09:33:51Z</time>
      </trkpt>
      <trkpt lat="42.2260260" lon="-8.6060760">
        <ele>204.2</ele>
        <time>2022-06-18T09:33:52Z</time>
      </trkpt>
      <trkpt lat="42.2260500" lon="-8.6060950">
        <ele>204.4</ele>
        <time>2022-06-18T09:33:53Z</time>
      </trkpt>
      <trkpt lat="42.2260730" lon="-8.6061100">
        <ele>204.4</ele>
        <time>2022-06-18T09:33:54Z</time>
      </trkpt>
      <trkpt lat="42.2260960" lon="-8.6061250">
        <ele>204.4</ele>
        <time>2022-06-18T09:33:55Z</time>
      </trkpt>
      <trkpt lat="42.2261210" lon="-8.6061410">
        <ele>204.2</ele>
        <time>2022-06-18T09:33:56Z</time>
      </trkpt>
      <trkpt lat="42.2261430" lon="-8.6061610">
        <ele>204.2</ele>
        <time>2022-06-18T09:33:57Z</time>
      </trkpt>
      <trkpt lat="42.2261660" lon="-8.6061830">
        <ele>204.2</ele>
        <time>2022-06-18T09:33:58Z</time>
      </trkpt>
      <trkpt lat="42.2261900" lon="-8.6062050">
        <ele>204.2</ele>
        <time>2022-06-18T09:33:59Z</time>
      </trkpt>
      <trkpt lat="42.2262100" lon="-8.6062250">
        <ele>204.2</ele>
        <time>2022-06-18T09:34:00Z</time>
      </trkpt>
      <trkpt lat="42.2262300" lon="-8.6062460">
        <ele>204.4</ele>
        <time>2022-06-18T09:34:01Z</time>
      </trkpt>
      <trkpt lat="42.2262530" lon="-8.6062660">
        <ele>204.4</ele>
        <time>2022-06-18T09:34:02Z</time>
      </trkpt>
      <trkpt lat="42.2262780" lon="-8.6062880">
        <ele>204.4</ele>
        <time>2022-06-18T09:34:03Z</time>
      </trkpt>
      <trkpt lat="42.2263050" lon="-8.6063130">
        <ele>204.2</ele>
        <time>2022-06-18T09:34:04Z</time>
      </trkpt>
      <trkpt lat="42.2263330" lon="-8.6063400">
        <ele>204.2</ele>
        <time>2022-06-18T09:34:05Z</time>
      </trkpt>
      <trkpt lat="42.2263580" lon="-8.6063650">
        <ele>204.2</ele>
        <time>2022-06-18T09:34:06Z</time>
      </trkpt>
      <trkpt lat="42.2263810" lon="-8.6063900">
        <ele>204.2</ele>
        <time>2022-06-18T09:34:07Z</time>
      </trkpt>
      <trkpt lat="42.2264060" lon="-8.6064130">
        <ele>204.8</ele>
        <time>2022-06-18T09:34:08Z</time>
      </trkpt>
      <trkpt lat="42.2264300" lon="-8.6064350">
        <ele>204.8</ele>
        <time>2022-06-18T09:34:09Z</time>
      </trkpt>
      <trkpt lat="42.2264500" lon="-8.6064580">
        <ele>204.8</ele>
        <time>2022-06-18T09:34:10Z</time>
      </trkpt>
      <trkpt lat="42.2264730" lon="-8.6064800">
        <ele>204.8</ele>
        <time>2022-06-18T09:34:11Z</time>
      </trkpt>
      <trkpt lat="42.2264950" lon="-8.6065030">
        <ele>204.8</ele>
        <time>2022-06-18T09:34:12Z</time>
      </trkpt>
      <trkpt lat="42.2265180" lon="-8.6065250">
        <ele>204.8</ele>
        <time>2022-06-18T09:34:13Z</time>
      </trkpt>
      <trkpt lat="42.2265410" lon="-8.6065430">
        <ele>204.8</ele>
        <time>2022-06-18T09:34:14Z</time>
      </trkpt>
      <trkpt lat="42.2265630" lon="-8.6065650">
        <ele>204.8</ele>
        <time>2022-06-18T09:34:15Z</time>
      </trkpt>
      <trkpt lat="42.2265850" lon="-8.6065830">
        <ele>205.4</ele>
        <time>2022-06-18T09:34:16Z</time>
      </trkpt>
      <trkpt lat="42.2266060" lon="-8.6066030">
        <ele>205.8</ele>
        <time>2022-06-18T09:34:17Z</time>
      </trkpt>
      <trkpt lat="42.2266280" lon="-8.6066210">
        <ele>205.8</ele>
        <time>2022-06-18T09:34:18Z</time>
      </trkpt>
      <trkpt lat="42.2266500" lon="-8.6066360">
        <ele>205.8</ele>
        <time>2022-06-18T09:34:19Z</time>
      </trkpt>
      <trkpt lat="42.2266700" lon="-8.6066500">
        <ele>205.8</ele>
        <time>2022-06-18T09:34:20Z</time>
      </trkpt>
      <trkpt lat="42.2266900" lon="-8.6066660">
        <ele>206.2</ele>
        <time>2022-06-18T09:34:21Z</time>
      </trkpt>
      <trkpt lat="42.2267100" lon="-8.6066810">
        <ele>206.2</ele>
        <time>2022-06-18T09:34:22Z</time>
      </trkpt>
      <trkpt lat="42.2267310" lon="-8.6066930">
        <ele>206.2</ele>
        <time>2022-06-18T09:34:23Z</time>
      </trkpt>
      <trkpt lat="42.2267530" lon="-8.6067060">
        <ele>206.4</ele>
        <time>2022-06-18T09:34:24Z</time>
      </trkpt>
      <trkpt lat="42.2267730" lon="-8.6067200">
        <ele>206.8</ele>
        <time>2022-06-18T09:34:25Z</time>
      </trkpt>
      <trkpt lat="42.2267930" lon="-8.6067330">
        <ele>206.8</ele>
        <time>2022-06-18T09:34:26Z</time>
      </trkpt>
      <trkpt lat="42.2268110" lon="-8.6067460">
        <ele>206.8</ele>
        <time>2022-06-18T09:34:27Z</time>
      </trkpt>
      <trkpt lat="42.2268310" lon="-8.6067560">
        <ele>206.8</ele>
        <time>2022-06-18T09:34:28Z</time>
      </trkpt>
      <trkpt lat="42.2268510" lon="-8.6067660">
        <ele>207.2</ele>
        <time>2022-06-18T09:34:29Z</time>
      </trkpt>
      <trkpt lat="42.2268680" lon="-8.6067750">
        <ele>207.2</ele>
        <time>2022-06-18T09:34:30Z</time>
      </trkpt>
      <trkpt lat="42.2268830" lon="-8.6067830">
        <ele>207.2</ele>
        <time>2022-06-18T09:34:31Z</time>
      </trkpt>
      <trkpt lat="42.2268960" lon="-8.6067930">
        <ele>207.8</ele>
        <time>2022-06-18T09:34:32Z</time>
      </trkpt>
      <trkpt lat="42.2269100" lon="-8.6068010">
        <ele>208.0</ele>
        <time>2022-06-18T09:34:33Z</time>
      </trkpt>
      <trkpt lat="42.2269230" lon="-8.6068080">
        <ele>208.0</ele>
        <time>2022-06-18T09:34:34Z</time>
      </trkpt>
      <trkpt lat="42.2269410" lon="-8.6068180">
        <ele>208.0</ele>
        <time>2022-06-18T09:34:35Z</time>
      </trkpt>
      <trkpt lat="42.2269610" lon="-8.6068260">
        <ele>208.0</ele>
        <time>2022-06-18T09:34:36Z</time>
      </trkpt>
      <trkpt lat="42.2269780" lon="-8.6068380">
        <ele>208.8</ele>
        <time>2022-06-18T09:34:37Z</time>
      </trkpt>
      <trkpt lat="42.2269980" lon="-8.6068460">
        <ele>208.8</ele>
        <time>2022-06-18T09:34:38Z</time>
      </trkpt>
      <trkpt lat="42.2270180" lon="-8.6068500">
        <ele>208.8</ele>
        <time>2022-06-18T09:34:39Z</time>
      </trkpt>
      <trkpt lat="42.2270380" lon="-8.6068510">
        <ele>208.6</ele>
        <time>2022-06-18T09:34:40Z</time>
      </trkpt>
      <trkpt lat="42.2270560" lon="-8.6068530">
        <ele>209.0</ele>
        <time>2022-06-18T09:34:41Z</time>
      </trkpt>
      <trkpt lat="42.2270730" lon="-8.6068530">
        <ele>209.0</ele>
        <time>2022-06-18T09:34:42Z</time>
      </trkpt>
      <trkpt lat="42.2270900" lon="-8.6068580">
        <ele>209.0</ele>
        <time>2022-06-18T09:34:43Z</time>
      </trkpt>
      <trkpt lat="42.2271050" lon="-8.6068650">
        <ele>209.0</ele>
        <time>2022-06-18T09:34:44Z</time>
      </trkpt>
      <trkpt lat="42.2271210" lon="-8.6068700">
        <ele>210.2</ele>
        <time>2022-06-18T09:34:45Z</time>
      </trkpt>
      <trkpt lat="42.2271360" lon="-8.6068750">
        <ele>210.2</ele>
        <time>2022-06-18T09:34:46Z</time>
      </trkpt>
      <trkpt lat="42.2271500" lon="-8.6068800">
        <ele>210.2</ele>
        <time>2022-06-18T09:34:47Z</time>
      </trkpt>
      <trkpt lat="42.2271610" lon="-8.6068880">
        <ele>210.8</ele>
        <time>2022-06-18T09:34:48Z</time>
      </trkpt>
      <trkpt lat="42.2271760" lon="-8.6068930">
        <ele>210.8</ele>
        <time>2022-06-18T09:34:49Z</time>
      </trkpt>
      <trkpt lat="42.2271900" lon="-8.6068980">
        <ele>210.8</ele>
        <time>2022-06-18T09:34:50Z</time>
      </trkpt>
      <trkpt lat="42.2272030" lon="-8.6069060">
        <ele>210.8</ele>
        <time>2022-06-18T09:34:51Z</time>
      </trkpt>
      <trkpt lat="42.2272160" lon="-8.6069130">
        <ele>210.8</ele>
        <time>2022-06-18T09:34:52Z</time>
      </trkpt>
      <trkpt lat="42.2272300" lon="-8.6069200">
        <ele>211.2</ele>
        <time>2022-06-18T09:34:53Z</time>
      </trkpt>
      <trkpt lat="42.2272410" lon="-8.6069300">
        <ele>211.2</ele>
        <time>2022-06-18T09:34:54Z</time>
      </trkpt>
      <trkpt lat="42.2272550" lon="-8.6069400">
        <ele>211.2</ele>
        <time>2022-06-18T09:34:55Z</time>
      </trkpt>
      <trkpt lat="42.2272680" lon="-8.6069460">
        <ele>211.2</ele>
        <time>2022-06-18T09:34:56Z</time>
      </trkpt>
      <trkpt lat="42.2272800" lon="-8.6069550">
        <ele>211.6</ele>
        <time>2022-06-18T09:34:57Z</time>
      </trkpt>
      <trkpt lat="42.2272930" lon="-8.6069660">
        <ele>211.6</ele>
        <time>2022-06-18T09:34:58Z</time>
      </trkpt>
      <trkpt lat="42.2273060" lon="-8.6069750">
        <ele>211.6</ele>
        <time>2022-06-18T09:34:59Z</time>
      </trkpt>
      <trkpt lat="42.2273180" lon="-8.6069880">
        <ele>212.2</ele>
        <time>2022-06-18T09:35:00Z</time>
      </trkpt>
      <trkpt lat="42.2273280" lon="-8.6070010">
        <ele>212.4</ele>
        <time>2022-06-18T09:35:01Z</time>
      </trkpt>
      <trkpt lat="42.2273360" lon="-8.6070130">
        <ele>212.4</ele>
        <time>2022-06-18T09:35:02Z</time>
      </trkpt>
      <trkpt lat="42.2273460" lon="-8.6070260">
        <ele>212.4</ele>
        <time>2022-06-18T09:35:03Z</time>
      </trkpt>
      <trkpt lat="42.2273550" lon="-8.6070380">
        <ele>212.8</ele>
        <time>2022-06-18T09:35:04Z</time>
      </trkpt>
      <trkpt lat="42.2273600" lon="-8.6070480">
        <ele>213.0</ele>
        <time>2022-06-18T09:35:05Z</time>
      </trkpt>
      <trkpt lat="42.2273630" lon="-8.6070600">
        <ele>213.0</ele>
        <time>2022-06-18T09:35:06Z</time>
      </trkpt>
      <trkpt lat="42.2273610" lon="-8.6070760">
        <ele>213.0</ele>
        <time>2022-06-18T09:35:07Z</time>
      </trkpt>
      <trkpt lat="42.2273600" lon="-8.6070960">
        <ele>213.0</ele>
        <time>2022-06-18T09:35:08Z</time>
      </trkpt>
      <trkpt lat="42.2273610" lon="-8.6071150">
        <ele>213.2</ele>
        <time>2022-06-18T09:35:09Z</time>
      </trkpt>
      <trkpt lat="42.2273630" lon="-8.6071310">
        <ele>213.2</ele>
        <time>2022-06-18T09:35:10Z</time>
      </trkpt>
      <trkpt lat="42.2273650" lon="-8.6071510">
        <ele>213.2</ele>
        <time>2022-06-18T09:35:11Z</time>
      </trkpt>
      <trkpt lat="42.2273650" lon="-8.6071700">
        <ele>213.2</ele>
        <time>2022-06-18T09:35:12Z</time>
      </trkpt>
      <trkpt lat="42.2273610" lon="-8.6071900">
        <ele>213.6</ele>
        <time>2022-06-18T09:35:13Z</time>
      </trkpt>
      <trkpt lat="42.2273600" lon="-8.6072100">
        <ele>213.6</ele>
        <time>2022-06-18T09:35:14Z</time>
      </trkpt>
      <trkpt lat="42.2273560" lon="-8.6072300">
        <ele>213.6</ele>
        <time>2022-06-18T09:35:15Z</time>
      </trkpt>
      <trkpt lat="42.2273560" lon="-8.6072510">
        <ele>214.0</ele>
        <time>2022-06-18T09:35:16Z</time>
      </trkpt>
      <trkpt lat="42.2273580" lon="-8.6072750">
        <ele>214.2</ele>
        <time>2022-06-18T09:35:17Z</time>
      </trkpt>
      <trkpt lat="42.2273550" lon="-8.6072950">
        <ele>214.2</ele>
        <time>2022-06-18T09:35:18Z</time>
      </trkpt>
      <trkpt lat="42.2273500" lon="-8.6073150">
        <ele>214.2</ele>
        <time>2022-06-18T09:35:19Z</time>
      </trkpt>
      <trkpt lat="42.2273450" lon="-8.6073350">
        <ele>214.6</ele>
        <time>2022-06-18T09:35:20Z</time>
      </trkpt>
      <trkpt lat="42.2273380" lon="-8.6073550">
        <ele>214.8</ele>
        <time>2022-06-18T09:35:21Z</time>
      </trkpt>
      <trkpt lat="42.2273310" lon="-8.6073730">
        <ele>214.8</ele>
        <time>2022-06-18T09:35:22Z</time>
      </trkpt>
      <trkpt lat="42.2273280" lon="-8.6073910">
        <ele>214.8</ele>
        <time>2022-06-18T09:35:23Z</time>
      </trkpt>
      <trkpt lat="42.2273250" lon="-8.6074100">
        <ele>215.2</ele>
        <time>2022-06-18T09:35:24Z</time>
      </trkpt>
      <trkpt lat="42.2273200" lon="-8.6074280">
        <ele>215.6</ele>
        <time>2022-06-18T09:35:25Z</time>
      </trkpt>
      <trkpt lat="42.2273160" lon="-8.6074480">
        <ele>215.6</ele>
        <time>2022-06-18T09:35:26Z</time>
      </trkpt>
      <trkpt lat="42.2273130" lon="-8.6074680">
        <ele>215.6</ele>
        <time>2022-06-18T09:35:27Z</time>
      </trkpt>
      <trkpt lat="42.2273100" lon="-8.6074880">
        <ele>215.6</ele>
        <time>2022-06-18T09:35:28Z</time>
      </trkpt>
      <trkpt lat="42.2273080" lon="-8.6075060">
        <ele>216.2</ele>
        <time>2022-06-18T09:35:29Z</time>
      </trkpt>
      <trkpt lat="42.2273050" lon="-8.6075210">
        <ele>216.2</ele>
        <time>2022-06-18T09:35:30Z</time>
      </trkpt>
      <trkpt lat="42.2273000" lon="-8.6075400">
        <ele>216.2</ele>
        <time>2022-06-18T09:35:31Z</time>
      </trkpt>
      <trkpt lat="42.2272950" lon="-8.6075560">
        <ele>216.0</ele>
        <time>2022-06-18T09:35:32Z</time>
      </trkpt>
      <trkpt lat="42.2272900" lon="-8.6075730">
        <ele>216.6</ele>
        <time>2022-06-18T09:35:33Z</time>
      </trkpt>
      <trkpt lat="42.2272850" lon="-8.6075880">
        <ele>216.6</ele>
        <time>2022-06-18T09:35:34Z</time>
      </trkpt>
      <trkpt lat="42.2272800" lon="-8.6076050">
        <ele>216.6</ele>
        <time>2022-06-18T09:35:35Z</time>
      </trkpt>
      <trkpt lat="42.2272760" lon="-8.6076210">
        <ele>216.6</ele>
        <time>2022-06-18T09:35:36Z</time>
      </trkpt>
      <trkpt lat="42.2272710" lon="-8.6076410">
        <ele>217.2</ele>
        <time>2022-06-18T09:35:37Z</time>
      </trkpt>
      <trkpt lat="42.2272650" lon="-8.6076600">
        <ele>217.2</ele>
        <time>2022-06-18T09:35:38Z</time>
      </trkpt>
      <trkpt lat="42.2272580" lon="-8.6076780">
        <ele>217.2</ele>
        <time>2022-06-18T09:35:39Z</time>
      </trkpt>
      <trkpt lat="42.2272530" lon="-8.6076960">
        <ele>217.4</ele>
        <time>2022-06-18T09:35:40Z</time>
      </trkpt>
      <trkpt lat="42.2272500" lon="-8.6077180">
        <ele>217.8</ele>
        <time>2022-06-18T09:35:41Z</time>
      </trkpt>
      <trkpt lat="42.2272460" lon="-8.6077380">
        <ele>217.8</ele>
        <time>2022-06-18T09:35:42Z</time>
      </trkpt>
      <trkpt lat="42.2272410" lon="-8.6077580">
        <ele>217.8</ele>
        <time>2022-06-18T09:35:43Z</time>
      </trkpt>
      <trkpt lat="42.2272360" lon="-8.6077780">
        <ele>218.2</ele>
        <time>2022-06-18T09:35:44Z</time>
      </trkpt>
      <trkpt lat="42.2272330" lon="-8.6078000">
        <ele>218.4</ele>
        <time>2022-06-18T09:35:45Z</time>
      </trkpt>
      <trkpt lat="42.2272310" lon="-8.6078200">
        <ele>218.4</ele>
        <time>2022-06-18T09:35:46Z</time>
      </trkpt>
      <trkpt lat="42.2272280" lon="-8.6078400">
        <ele>218.4</ele>
        <time>2022-06-18T09:35:47Z</time>
      </trkpt>
      <trkpt lat="42.2272300" lon="-8.6078600">
        <ele>218.8</ele>
        <time>2022-06-18T09:35:48Z</time>
      </trkpt>
      <trkpt lat="42.2272310" lon="-8.6078780">
        <ele>219.2</ele>
        <time>2022-06-18T09:35:49Z</time>
      </trkpt>
      <trkpt lat="42.2272310" lon="-8.6078960">
        <ele>219.2</ele>
        <time>2022-06-18T09:35:50Z</time>
      </trkpt>
      <trkpt lat="42.2272310" lon="-8.6079150">
        <ele>219.2</ele>
        <time>2022-06-18T09:35:51Z</time>
      </trkpt>
      <trkpt lat="42.2272350" lon="-8.6079350">
        <ele>219.6</ele>
        <time>2022-06-18T09:35:52Z</time>
      </trkpt>
      <trkpt lat="42.2272360" lon="-8.6079530">
        <ele>219.6</ele>
        <time>2022-06-18T09:35:53Z</time>
      </trkpt>
      <trkpt lat="42.2272400" lon="-8.6079760">
        <ele>219.6</ele>
        <time>2022-06-18T09:35:54Z</time>
      </trkpt>
      <trkpt lat="42.2272410" lon="-8.6079960">
        <ele>219.6</ele>
        <time>2022-06-18T09:35:55Z</time>
      </trkpt>
      <trkpt lat="42.2272430" lon="-8.6080150">
        <ele>220.0</ele>
        <time>2022-06-18T09:35:56Z</time>
      </trkpt>
      <trkpt lat="42.2272460" lon="-8.6080350">
        <ele>220.6</ele>
        <time>2022-06-18T09:35:57Z</time>
      </trkpt>
      <trkpt lat="42.2272460" lon="-8.6080530">
        <ele>220.6</ele>
        <time>2022-06-18T09:35:58Z</time>
      </trkpt>
      <trkpt lat="42.2272450" lon="-8.6080700">
        <ele>220.6</ele>
        <time>2022-06-18T09:35:59Z</time>
      </trkpt>
      <trkpt lat="42.2272480" lon="-8.6080900">
        <ele>220.6</ele>
        <time>2022-06-18T09:36:00Z</time>
      </trkpt>
      <trkpt lat="42.2272510" lon="-8.6081110">
        <ele>221.0</ele>
        <time>2022-06-18T09:36:01Z</time>
      </trkpt>
      <trkpt lat="42.2272580" lon="-8.6081300">
        <ele>221.0</ele>
        <time>2022-06-18T09:36:02Z</time>
      </trkpt>
      <trkpt lat="42.2272650" lon="-8.6081510">
        <ele>221.0</ele>
        <time>2022-06-18T09:36:03Z</time>
      </trkpt>
      <trkpt lat="42.2272750" lon="-8.6081660">
        <ele>221.2</ele>
        <time>2022-06-18T09:36:04Z</time>
      </trkpt>
      <trkpt lat="42.2272830" lon="-8.6081810">
        <ele>221.2</ele>
        <time>2022-06-18T09:36:05Z</time>
      </trkpt>
      <trkpt lat="42.2272860" lon="-8.6081980">
        <ele>221.2</ele>
        <time>2022-06-18T09:36:06Z</time>
      </trkpt>
      <trkpt lat="42.2272950" lon="-8.6082160">
        <ele>221.2</ele>
        <time>2022-06-18T09:36:07Z</time>
      </trkpt>
      <trkpt lat="42.2273030" lon="-8.6082310">
        <ele>221.6</ele>
        <time>2022-06-18T09:36:08Z</time>
      </trkpt>
      <trkpt lat="42.2273110" lon="-8.6082500">
        <ele>222.0</ele>
        <time>2022-06-18T09:36:09Z</time>
      </trkpt>
      <trkpt lat="42.2273210" lon="-8.6082710">
        <ele>222.0</ele>
        <time>2022-06-18T09:36:10Z</time>
      </trkpt>
      <trkpt lat="42.2273280" lon="-8.6082930">
        <ele>222.0</ele>
        <time>2022-06-18T09:36:11Z</time>
      </trkpt>
      <trkpt lat="42.2273380" lon="-8.6083110">
        <ele>222.4</ele>
        <time>2022-06-18T09:36:12Z</time>
      </trkpt>
      <trkpt lat="42.2273460" lon="-8.6083280">
        <ele>222.6</ele>
        <time>2022-06-18T09:36:13Z</time>
      </trkpt>
      <trkpt lat="42.2273610" lon="-8.6083450">
        <ele>222.6</ele>
        <time>2022-06-18T09:36:14Z</time>
      </trkpt>
      <trkpt lat="42.2273710" lon="-8.6083550">
        <ele>222.6</ele>
        <time>2022-06-18T09:36:15Z</time>
      </trkpt>
      <trkpt lat="42.2273860" lon="-8.6083650">
        <ele>222.6</ele>
        <time>2022-06-18T09:36:16Z</time>
      </trkpt>
      <trkpt lat="42.2273960" lon="-8.6083780">
        <ele>222.6</ele>
        <time>2022-06-18T09:36:17Z</time>
      </trkpt>
      <trkpt lat="42.2274100" lon="-8.6083860">
        <ele>222.6</ele>
        <time>2022-06-18T09:36:18Z</time>
      </trkpt>
      <trkpt lat="42.2274230" lon="-8.6083980">
        <ele>222.6</ele>
        <time>2022-06-18T09:36:19Z</time>
      </trkpt>
      <trkpt lat="42.2274360" lon="-8.6084060">
        <ele>223.2</ele>
        <time>2022-06-18T09:36:20Z</time>
      </trkpt>
      <trkpt lat="42.2274500" lon="-8.6084180">
        <ele>223.6</ele>
        <time>2022-06-18T09:36:21Z</time>
      </trkpt>
      <trkpt lat="42.2274630" lon="-8.6084280">
        <ele>223.6</ele>
        <time>2022-06-18T09:36:22Z</time>
      </trkpt>
      <trkpt lat="42.2274760" lon="-8.6084410">
        <ele>223.6</ele>
        <time>2022-06-18T09:36:23Z</time>
      </trkpt>
      <trkpt lat="42.2274900" lon="-8.6084510">
        <ele>223.6</ele>
        <time>2022-06-18T09:36:24Z</time>
      </trkpt>
      <trkpt lat="42.2275030" lon="-8.6084610">
        <ele>224.0</ele>
        <time>2022-06-18T09:36:25Z</time>
      </trkpt>
      <trkpt lat="42.2275180" lon="-8.6084710">
        <ele>224.0</ele>
        <time>2022-06-18T09:36:26Z</time>
      </trkpt>
      <trkpt lat="42.2275350" lon="-8.6084810">
        <ele>224.0</ele>
        <time>2022-06-18T09:36:27Z</time>
      </trkpt>
      <trkpt lat="42.2275500" lon="-8.6084950">
        <ele>224.2</ele>
        <time>2022-06-18T09:36:28Z</time>
      </trkpt>
      <trkpt lat="42.2275660" lon="-8.6085060">
        <ele>224.4</ele>
        <time>2022-06-18T09:36:29Z</time>
      </trkpt>
      <trkpt lat="42.2275800" lon="-8.6085200">
        <ele>224.4</ele>
        <time>2022-06-18T09:36:30Z</time>
      </trkpt>
      <trkpt lat="42.2275950" lon="-8.6085300">
        <ele>224.4</ele>
        <time>2022-06-18T09:36:31Z</time>
      </trkpt>
      <trkpt lat="42.2276080" lon="-8.6085410">
        <ele>225.0</ele>
        <time>2022-06-18T09:36:32Z</time>
      </trkpt>
      <trkpt lat="42.2276230" lon="-8.6085530">
        <ele>225.0</ele>
        <time>2022-06-18T09:36:33Z</time>
      </trkpt>
      <trkpt lat="42.2276380" lon="-8.6085660">
        <ele>225.0</ele>
        <time>2022-06-18T09:36:34Z</time>
      </trkpt>
      <trkpt lat="42.2276510" lon="-8.6085780">
        <ele>225.0</ele>
        <time>2022-06-18T09:36:35Z</time>
      </trkpt>
      <trkpt lat="42.2276660" lon="-8.6085930">
        <ele>225.0</ele>
        <time>2022-06-18T09:36:36Z</time>
      </trkpt>
      <trkpt lat="42.2276810" lon="-8.6086080">
        <ele>225.4</ele>
        <time>2022-06-18T09:36:37Z</time>
      </trkpt>
      <trkpt lat="42.2276980" lon="-8.6086230">
        <ele>225.4</ele>
        <time>2022-06-18T09:36:38Z</time>
      </trkpt>
      <trkpt lat="42.2277130" lon="-8.6086380">
        <ele>225.4</ele>
        <time>2022-06-18T09:36:39Z</time>
      </trkpt>
      <trkpt lat="42.2277260" lon="-8.6086560">
        <ele>225.8</ele>
        <time>2022-06-18T09:36:40Z</time>
      </trkpt>
      <trkpt lat="42.2277400" lon="-8.6086730">
        <ele>226.2</ele>
        <time>2022-06-18T09:36:41Z</time>
      </trkpt>
      <trkpt lat="42.2277530" lon="-8.6086910">
        <ele>226.2</ele>
        <time>2022-06-18T09:36:42Z</time>
      </trkpt>
      <trkpt lat="42.2277630" lon="-8.6087080">
        <ele>226.2</ele>
        <time>2022-06-18T09:36:43Z</time>
      </trkpt>
      <trkpt lat="42.2277800" lon="-8.6087260">
        <ele>226.8</ele>
        <time>2022-06-18T09:36:44Z</time>
      </trkpt>
      <trkpt lat="42.2277950" lon="-8.6087430">
        <ele>226.6</ele>
        <time>2022-06-18T09:36:45Z</time>
      </trkpt>
      <trkpt lat="42.2278080" lon="-8.6087580">
        <ele>226.6</ele>
        <time>2022-06-18T09:36:46Z</time>
      </trkpt>
      <trkpt lat="42.2278210" lon="-8.6087710">
        <ele>226.6</ele>
        <time>2022-06-18T09:36:47Z</time>
      </trkpt>
      <trkpt lat="42.2278360" lon="-8.6087880">
        <ele>227.0</ele>
        <time>2022-06-18T09:36:48Z</time>
      </trkpt>
      <trkpt lat="42.2278530" lon="-8.6088060">
        <ele>226.8</ele>
        <time>2022-06-18T09:36:49Z</time>
      </trkpt>
      <trkpt lat="42.2278660" lon="-8.6088210">
        <ele>226.8</ele>
        <time>2022-06-18T09:36:50Z</time>
      </trkpt>
      <trkpt lat="42.2278810" lon="-8.6088360">
        <ele>226.8</ele>
        <time>2022-06-18T09:36:51Z</time>
      </trkpt>
      <trkpt lat="42.2278950" lon="-8.6088550">
        <ele>227.6</ele>
        <time>2022-06-18T09:36:52Z</time>
      </trkpt>
      <trkpt lat="42.2279080" lon="-8.6088710">
        <ele>227.6</ele>
        <time>2022-06-18T09:36:53Z</time>
      </trkpt>
      <trkpt lat="42.2279230" lon="-8.6088860">
        <ele>227.6</ele>
        <time>2022-06-18T09:36:54Z</time>
      </trkpt>
      <trkpt lat="42.2279350" lon="-8.6089030">
        <ele>227.6</ele>
        <time>2022-06-18T09:36:55Z</time>
      </trkpt>
      <trkpt lat="42.2279460" lon="-8.6089180">
        <ele>227.6</ele>
        <time>2022-06-18T09:36:56Z</time>
      </trkpt>
      <trkpt lat="42.2279600" lon="-8.6089330">
        <ele>227.8</ele>
        <time>2022-06-18T09:36:57Z</time>
      </trkpt>
      <trkpt lat="42.2279730" lon="-8.6089480">
        <ele>227.8</ele>
        <time>2022-06-18T09:36:58Z</time>
      </trkpt>
      <trkpt lat="42.2279850" lon="-8.6089660">
        <ele>227.8</ele>
        <time>2022-06-18T09:36:59Z</time>
      </trkpt>
      <trkpt lat="42.2279980" lon="-8.6089830">
        <ele>228.6</ele>
        <time>2022-06-18T09:37:00Z</time>
      </trkpt>
      <trkpt lat="42.2280080" lon="-8.6090010">
        <ele>228.6</ele>
        <time>2022-06-18T09:37:01Z</time>
      </trkpt>
      <trkpt lat="42.2280210" lon="-8.6090200">
        <ele>228.6</ele>
        <time>2022-06-18T09:37:02Z</time>
      </trkpt>
      <trkpt lat="42.2280330" lon="-8.6090360">
        <ele>228.6</ele>
        <time>2022-06-18T09:37:03Z</time>
      </trkpt>
      <trkpt lat="42.2280460" lon="-8.6090550">
        <ele>228.8</ele>
        <time>2022-06-18T09:37:04Z</time>
      </trkpt>
      <trkpt lat="42.2280600" lon="-8.6090710">
        <ele>228.8</ele>
        <time>2022-06-18T09:37:05Z</time>
      </trkpt>
      <trkpt lat="42.2280760" lon="-8.6090860">
        <ele>228.8</ele>
        <time>2022-06-18T09:37:06Z</time>
      </trkpt>
      <trkpt lat="42.2280910" lon="-8.6090980">
        <ele>228.8</ele>
        <time>2022-06-18T09:37:07Z</time>
      </trkpt>
      <trkpt lat="42.2281060" lon="-8.6091150">
        <ele>229.2</ele>
        <time>2022-06-18T09:37:08Z</time>
      </trkpt>
      <trkpt lat="42.2281180" lon="-8.6091310">
        <ele>229.4</ele>
        <time>2022-06-18T09:37:09Z</time>
      </trkpt>
      <trkpt lat="42.2281300" lon="-8.6091480">
        <ele>229.4</ele>
        <time>2022-06-18T09:37:10Z</time>
      </trkpt>
      <trkpt lat="42.2281410" lon="-8.6091680">
        <ele>229.4</ele>
        <time>2022-06-18T09:37:11Z</time>
      </trkpt>
      <trkpt lat="42.2281530" lon="-8.6091860">
        <ele>229.4</ele>
        <time>2022-06-18T09:37:12Z</time>
      </trkpt>
      <trkpt lat="42.2281660" lon="-8.6092000">
        <ele>229.8</ele>
        <time>2022-06-18T09:37:13Z</time>
      </trkpt>
      <trkpt lat="42.2281780" lon="-8.6092100">
        <ele>229.8</ele>
        <time>2022-06-18T09:37:14Z</time>
      </trkpt>
      <trkpt lat="42.2281900" lon="-8.6092230">
        <ele>229.8</ele>
        <time>2022-06-18T09:37:15Z</time>
      </trkpt>
      <trkpt lat="42.2282000" lon="-8.6092380">
        <ele>229.8</ele>
        <time>2022-06-18T09:37:16Z</time>
      </trkpt>
      <trkpt lat="42.2282210" lon="-8.6092550">
        <ele>230.0</ele>
        <time>2022-06-18T09:37:17Z</time>
      </trkpt>
      <trkpt lat="42.2282330" lon="-8.6092680">
        <ele>230.0</ele>
        <time>2022-06-18T09:37:18Z</time>
      </trkpt>
      <trkpt lat="42.2282350" lon="-8.6092880">
        <ele>230.0</ele>
        <time>2022-06-18T09:37:19Z</time>
      </trkpt>
      <trkpt lat="42.2282500" lon="-8.6093080">
        <ele>230.4</ele>
        <time>2022-06-18T09:37:20Z</time>
      </trkpt>
      <trkpt lat="42.2282600" lon="-8.6093280">
        <ele>230.6</ele>
        <time>2022-06-18T09:37:21Z</time>
      </trkpt>
      <trkpt lat="42.2282760" lon="-8.6093480">
        <ele>230.6</ele>
        <time>2022-06-18T09:37:22Z</time>
      </trkpt>
      <trkpt lat="42.2282880" lon="-8.6093630">
        <ele>230.6</ele>
        <time>2022-06-18T09:37:23Z</time>
      </trkpt>
      <trkpt lat="42.2282980" lon="-8.6093880">
        <ele>230.2</ele>
        <time>2022-06-18T09:37:24Z</time>
      </trkpt>
      <trkpt lat="42.2283100" lon="-8.6094110">
        <ele>230.6</ele>
        <time>2022-06-18T09:37:25Z</time>
      </trkpt>
      <trkpt lat="42.2283300" lon="-8.6094400">
        <ele>230.6</ele>
        <time>2022-06-18T09:37:26Z</time>
      </trkpt>
      <trkpt lat="42.2283410" lon="-8.6094660">
        <ele>230.6</ele>
        <time>2022-06-18T09:37:27Z</time>
      </trkpt>
      <trkpt lat="42.2283510" lon="-8.6094880">
        <ele>230.6</ele>
        <time>2022-06-18T09:37:28Z</time>
      </trkpt>
      <trkpt lat="42.2283650" lon="-8.6095110">
        <ele>230.6</ele>
        <time>2022-06-18T09:37:29Z</time>
      </trkpt>
      <trkpt lat="42.2283830" lon="-8.6095310">
        <ele>230.6</ele>
        <time>2022-06-18T09:37:30Z</time>
      </trkpt>
      <trkpt lat="42.2284010" lon="-8.6095650">
        <ele>230.6</ele>
        <time>2022-06-18T09:37:31Z</time>
      </trkpt>
      <trkpt lat="42.2284160" lon="-8.6095910">
        <ele>230.6</ele>
        <time>2022-06-18T09:37:32Z</time>
      </trkpt>
      <trkpt lat="42.2284310" lon="-8.6096210">
        <ele>230.8</ele>
        <time>2022-06-18T09:37:33Z</time>
      </trkpt>
      <trkpt lat="42.2284480" lon="-8.6096450">
        <ele>230.8</ele>
        <time>2022-06-18T09:37:34Z</time>
      </trkpt>
      <trkpt lat="42.2284600" lon="-8.6096680">
        <ele>230.8</ele>
        <time>2022-06-18T09:37:35Z</time>
      </trkpt>
      <trkpt lat="42.2284780" lon="-8.6096880">
        <ele>230.8</ele>
        <time>2022-06-18T09:37:36Z</time>
      </trkpt>
      <trkpt lat="42.2284930" lon="-8.6097080">
        <ele>231.0</ele>
        <time>2022-06-18T09:37:37Z</time>
      </trkpt>
      <trkpt lat="42.2285030" lon="-8.6097280">
        <ele>231.0</ele>
        <time>2022-06-18T09:37:38Z</time>
      </trkpt>
      <trkpt lat="42.2285200" lon="-8.6097510">
        <ele>231.0</ele>
        <time>2022-06-18T09:37:39Z</time>
      </trkpt>
      <trkpt lat="42.2285380" lon="-8.6097730">
        <ele>231.0</ele>
        <time>2022-06-18T09:37:40Z</time>
      </trkpt>
      <trkpt lat="42.2285600" lon="-8.6098000">
        <ele>230.8</ele>
        <time>2022-06-18T09:37:41Z</time>
      </trkpt>
      <trkpt lat="42.2285760" lon="-8.6098250">
        <ele>230.8</ele>
        <time>2022-06-18T09:37:42Z</time>
      </trkpt>
      <trkpt lat="42.2285950" lon="-8.6098530">
        <ele>230.8</ele>
        <time>2022-06-18T09:37:43Z</time>
      </trkpt>
      <trkpt lat="42.2286100" lon="-8.6098800">
        <ele>230.8</ele>
        <time>2022-06-18T09:37:44Z</time>
      </trkpt>
      <trkpt lat="42.2286260" lon="-8.6099060">
        <ele>231.2</ele>
        <time>2022-06-18T09:37:45Z</time>
      </trkpt>
      <trkpt lat="42.2286450" lon="-8.6099430">
        <ele>231.2</ele>
        <time>2022-06-18T09:37:46Z</time>
      </trkpt>
      <trkpt lat="42.2286580" lon="-8.6099800">
        <ele>231.2</ele>
        <time>2022-06-18T09:37:47Z</time>
      </trkpt>
      <trkpt lat="42.2286660" lon="-8.6100130">
        <ele>231.2</ele>
        <time>2022-06-18T09:37:48Z</time>
      </trkpt>
      <trkpt lat="42.2286780" lon="-8.6100450">
        <ele>231.0</ele>
        <time>2022-06-18T09:37:49Z</time>
      </trkpt>
      <trkpt lat="42.2286910" lon="-8.6100730">
        <ele>231.0</ele>
        <time>2022-06-18T09:37:50Z</time>
      </trkpt>
      <trkpt lat="42.2287010" lon="-8.6101060">
        <ele>231.0</ele>
        <time>2022-06-18T09:37:51Z</time>
      </trkpt>
      <trkpt lat="42.2287160" lon="-8.6101500">
        <ele>231.4</ele>
        <time>2022-06-18T09:37:52Z</time>
      </trkpt>
      <trkpt lat="42.2287350" lon="-8.6101830">
        <ele>231.2</ele>
        <time>2022-06-18T09:37:53Z</time>
      </trkpt>
      <trkpt lat="42.2287500" lon="-8.6102100">
        <ele>231.2</ele>
        <time>2022-06-18T09:37:54Z</time>
      </trkpt>
      <trkpt lat="42.2287610" lon="-8.6102350">
        <ele>231.2</ele>
        <time>2022-06-18T09:37:55Z</time>
      </trkpt>
      <trkpt lat="42.2287810" lon="-8.6102650">
        <ele>231.4</ele>
        <time>2022-06-18T09:37:56Z</time>
      </trkpt>
      <trkpt lat="42.2288010" lon="-8.6102900">
        <ele>231.0</ele>
        <time>2022-06-18T09:37:57Z</time>
      </trkpt>
      <trkpt lat="42.2288180" lon="-8.6103200">
        <ele>231.0</ele>
        <time>2022-06-18T09:37:58Z</time>
      </trkpt>
      <trkpt lat="42.2288380" lon="-8.6103510">
        <ele>231.0</ele>
        <time>2022-06-18T09:37:59Z</time>
      </trkpt>
      <trkpt lat="42.2288510" lon="-8.6103680">
        <ele>231.2</ele>
        <time>2022-06-18T09:38:00Z</time>
      </trkpt>
      <trkpt lat="42.2288750" lon="-8.6103880">
        <ele>231.6</ele>
        <time>2022-06-18T09:38:01Z</time>
      </trkpt>
      <trkpt lat="42.2288980" lon="-8.6104130">
        <ele>231.6</ele>
        <time>2022-06-18T09:38:02Z</time>
      </trkpt>
      <trkpt lat="42.2289230" lon="-8.6104450">
        <ele>231.6</ele>
        <time>2022-06-18T09:38:03Z</time>
      </trkpt>
      <trkpt lat="42.2289500" lon="-8.6104650">
        <ele>231.4</ele>
        <time>2022-06-18T09:38:04Z</time>
      </trkpt>
      <trkpt lat="42.2289730" lon="-8.6104900">
        <ele>231.0</ele>
        <time>2022-06-18T09:38:05Z</time>
      </trkpt>
      <trkpt lat="42.2289980" lon="-8.6105100">
        <ele>231.0</ele>
        <time>2022-06-18T09:38:06Z</time>
      </trkpt>
      <trkpt lat="42.2290200" lon="-8.6105330">
        <ele>231.0</ele>
        <time>2022-06-18T09:38:07Z</time>
      </trkpt>
      <trkpt lat="42.2290410" lon="-8.6105550">
        <ele>231.8</ele>
        <time>2022-06-18T09:38:08Z</time>
      </trkpt>
      <trkpt lat="42.2290650" lon="-8.6105780">
        <ele>231.2</ele>
        <time>2022-06-18T09:38:09Z</time>
      </trkpt>
      <trkpt lat="42.2290930" lon="-8.6106050">
        <ele>231.2</ele>
        <time>2022-06-18T09:38:10Z</time>
      </trkpt>
      <trkpt lat="42.2291180" lon="-8.6106280">
        <ele>231.2</ele>
        <time>2022-06-18T09:38:11Z</time>
      </trkpt>
      <trkpt lat="42.2291430" lon="-8.6106530">
        <ele>231.8</ele>
        <time>2022-06-18T09:38:12Z</time>
      </trkpt>
      <trkpt lat="42.2291700" lon="-8.6106760">
        <ele>231.6</ele>
        <time>2022-06-18T09:38:13Z</time>
      </trkpt>
      <trkpt lat="42.2291960" lon="-8.6106950">
        <ele>231.6</ele>
        <time>2022-06-18T09:38:14Z</time>
      </trkpt>
      <trkpt lat="42.2292210" lon="-8.6107150">
        <ele>231.6</ele>
        <time>2022-06-18T09:38:15Z</time>
      </trkpt>
      <trkpt lat="42.2292460" lon="-8.6107350">
        <ele>232.4</ele>
        <time>2022-06-18T09:38:16Z</time>
      </trkpt>
      <trkpt lat="42.2292750" lon="-8.6107550">
        <ele>232.2</ele>
        <time>2022-06-18T09:38:17Z</time>
      </trkpt>
      <trkpt lat="42.2293030" lon="-8.6107730">
        <ele>232.2</ele>
        <time>2022-06-18T09:38:18Z</time>
      </trkpt>
      <trkpt lat="42.2293310" lon="-8.6107930">
        <ele>232.2</ele>
        <time>2022-06-18T09:38:19Z</time>
      </trkpt>
      <trkpt lat="42.2293600" lon="-8.6108150">
        <ele>232.2</ele>
        <time>2022-06-18T09:38:20Z</time>
      </trkpt>
      <trkpt lat="42.2293850" lon="-8.6108350">
        <ele>232.0</ele>
        <time>2022-06-18T09:38:21Z</time>
      </trkpt>
      <trkpt lat="42.2294110" lon="-8.6108550">
        <ele>232.0</ele>
        <time>2022-06-18T09:38:22Z</time>
      </trkpt>
      <trkpt lat="42.2294360" lon="-8.6108780">
        <ele>232.0</ele>
        <time>2022-06-18T09:38:23Z</time>
      </trkpt>
      <trkpt lat="42.2294610" lon="-8.6109000">
        <ele>232.0</ele>
        <time>2022-06-18T09:38:24Z</time>
      </trkpt>
      <trkpt lat="42.2294860" lon="-8.6109180">
        <ele>231.6</ele>
        <time>2022-06-18T09:38:25Z</time>
      </trkpt>
      <trkpt lat="42.2295060" lon="-8.6109250">
        <ele>231.6</ele>
        <time>2022-06-18T09:38:26Z</time>
      </trkpt>
      <trkpt lat="42.2295350" lon="-8.6109310">
        <ele>231.6</ele>
        <time>2022-06-18T09:38:27Z</time>
      </trkpt>
      <trkpt lat="42.2295660" lon="-8.6109330">
        <ele>231.6</ele>
        <time>2022-06-18T09:38:28Z</time>
      </trkpt>
      <trkpt lat="42.2295980" lon="-8.6109230">
        <ele>230.0</ele>
        <time>2022-06-18T09:38:29Z</time>
      </trkpt>
      <trkpt lat="42.2296330" lon="-8.6109110">
        <ele>230.0</ele>
        <time>2022-06-18T09:38:30Z</time>
      </trkpt>
      <trkpt lat="42.2296680" lon="-8.6109080">
        <ele>230.0</ele>
        <time>2022-06-18T09:38:31Z</time>
      </trkpt>
      <trkpt lat="42.2297060" lon="-8.6109060">
        <ele>230.0</ele>
        <time>2022-06-18T09:38:32Z</time>
      </trkpt>
      <trkpt lat="42.2297460" lon="-8.6109130">
        <ele>228.0</ele>
        <time>2022-06-18T09:38:33Z</time>
      </trkpt>
      <trkpt lat="42.2297860" lon="-8.6109310">
        <ele>228.0</ele>
        <time>2022-06-18T09:38:34Z</time>
      </trkpt>
      <trkpt lat="42.2298300" lon="-8.6109630">
        <ele>228.0</ele>
        <time>2022-06-18T09:38:35Z</time>
      </trkpt>
      <trkpt lat="42.2298710" lon="-8.6109980">
        <ele>228.0</ele>
        <time>2022-06-18T09:38:36Z</time>
      </trkpt>
      <trkpt lat="42.2299160" lon="-8.6110280">
        <ele>227.6</ele>
        <time>2022-06-18T09:38:37Z</time>
      </trkpt>
      <trkpt lat="42.2299600" lon="-8.6110600">
        <ele>227.6</ele>
        <time>2022-06-18T09:38:38Z</time>
      </trkpt>
      <trkpt lat="42.2300050" lon="-8.6110860">
        <ele>227.6</ele>
        <time>2022-06-18T09:38:39Z</time>
      </trkpt>
      <trkpt lat="42.2300500" lon="-8.6111110">
        <ele>228.4</ele>
        <time>2022-06-18T09:38:40Z</time>
      </trkpt>
      <trkpt lat="42.2300910" lon="-8.6111380">
        <ele>228.4</ele>
        <time>2022-06-18T09:38:41Z</time>
      </trkpt>
      <trkpt lat="42.2301260" lon="-8.6111630">
        <ele>228.4</ele>
        <time>2022-06-18T09:38:42Z</time>
      </trkpt>
      <trkpt lat="42.2301600" lon="-8.6111880">
        <ele>228.4</ele>
        <time>2022-06-18T09:38:43Z</time>
      </trkpt>
      <trkpt lat="42.2301860" lon="-8.6112180">
        <ele>228.4</ele>
        <time>2022-06-18T09:38:44Z</time>
      </trkpt>
      <trkpt lat="42.2302030" lon="-8.6112500">
        <ele>228.4</ele>
        <time>2022-06-18T09:38:45Z</time>
      </trkpt>
      <trkpt lat="42.2302130" lon="-8.6112800">
        <ele>228.4</ele>
        <time>2022-06-18T09:38:46Z</time>
      </trkpt>
      <trkpt lat="42.2302200" lon="-8.6113150">
        <ele>228.4</ele>
        <time>2022-06-18T09:38:47Z</time>
      </trkpt>
      <trkpt lat="42.2302280" lon="-8.6113500">
        <ele>229.0</ele>
        <time>2022-06-18T09:38:48Z</time>
      </trkpt>
      <trkpt lat="42.2302400" lon="-8.6113760">
        <ele>229.2</ele>
        <time>2022-06-18T09:38:49Z</time>
      </trkpt>
      <trkpt lat="42.2302450" lon="-8.6113900">
        <ele>229.2</ele>
        <time>2022-06-18T09:38:50Z</time>
      </trkpt>
      <trkpt lat="42.2302610" lon="-8.6114050">
        <ele>229.2</ele>
        <time>2022-06-18T09:38:51Z</time>
      </trkpt>
      <trkpt lat="42.2302900" lon="-8.6114200">
        <ele>229.8</ele>
        <time>2022-06-18T09:38:52Z</time>
      </trkpt>
      <trkpt lat="42.2303180" lon="-8.6114330">
        <ele>229.6</ele>
        <time>2022-06-18T09:38:53Z</time>
      </trkpt>
      <trkpt lat="42.2303550" lon="-8.6114480">
        <ele>229.6</ele>
        <time>2022-06-18T09:38:54Z</time>
      </trkpt>
      <trkpt lat="42.2303900" lon="-8.6114660">
        <ele>229.6</ele>
        <time>2022-06-18T09:38:55Z</time>
      </trkpt>
      <trkpt lat="42.2304310" lon="-8.6114830">
        <ele>229.6</ele>
        <time>2022-06-18T09:38:56Z</time>
      </trkpt>
      <trkpt lat="42.2304700" lon="-8.6114980">
        <ele>229.2</ele>
        <time>2022-06-18T09:38:57Z</time>
      </trkpt>
      <trkpt lat="42.2305110" lon="-8.6115200">
        <ele>229.2</ele>
        <time>2022-06-18T09:38:58Z</time>
      </trkpt>
      <trkpt lat="42.2305500" lon="-8.6115460">
        <ele>229.2</ele>
        <time>2022-06-18T09:38:59Z</time>
      </trkpt>
      <trkpt lat="42.2305930" lon="-8.6115700">
        <ele>228.2</ele>
        <time>2022-06-18T09:39:00Z</time>
      </trkpt>
      <trkpt lat="42.2306380" lon="-8.6115950">
        <ele>228.0</ele>
        <time>2022-06-18T09:39:01Z</time>
      </trkpt>
      <trkpt lat="42.2306810" lon="-8.6116250">
        <ele>228.0</ele>
        <time>2022-06-18T09:39:02Z</time>
      </trkpt>
      <trkpt lat="42.2307250" lon="-8.6116560">
        <ele>228.0</ele>
        <time>2022-06-18T09:39:03Z</time>
      </trkpt>
      <trkpt lat="42.2307660" lon="-8.6116860">
        <ele>228.0</ele>
        <time>2022-06-18T09:39:04Z</time>
      </trkpt>
      <trkpt lat="42.2308080" lon="-8.6117160">
        <ele>227.8</ele>
        <time>2022-06-18T09:39:05Z</time>
      </trkpt>
      <trkpt lat="42.2308500" lon="-8.6117500">
        <ele>227.8</ele>
        <time>2022-06-18T09:39:06Z</time>
      </trkpt>
      <trkpt lat="42.2308860" lon="-8.6117850">
        <ele>227.8</ele>
        <time>2022-06-18T09:39:07Z</time>
      </trkpt>
      <trkpt lat="42.2309250" lon="-8.6118180">
        <ele>227.4</ele>
        <time>2022-06-18T09:39:08Z</time>
      </trkpt>
      <trkpt lat="42.2309610" lon="-8.6118510">
        <ele>227.2</ele>
        <time>2022-06-18T09:39:09Z</time>
      </trkpt>
      <trkpt lat="42.2309980" lon="-8.6118900">
        <ele>227.2</ele>
        <time>2022-06-18T09:39:10Z</time>
      </trkpt>
      <trkpt lat="42.2310330" lon="-8.6119280">
        <ele>227.2</ele>
        <time>2022-06-18T09:39:11Z</time>
      </trkpt>
      <trkpt lat="42.2310680" lon="-8.6119650">
        <ele>227.2</ele>
        <time>2022-06-18T09:39:12Z</time>
      </trkpt>
      <trkpt lat="42.2311010" lon="-8.6119980">
        <ele>227.2</ele>
        <time>2022-06-18T09:39:13Z</time>
      </trkpt>
      <trkpt lat="42.2311360" lon="-8.6120260">
        <ele>227.2</ele>
        <time>2022-06-18T09:39:14Z</time>
      </trkpt>
      <trkpt lat="42.2311700" lon="-8.6120600">
        <ele>227.2</ele>
        <time>2022-06-18T09:39:15Z</time>
      </trkpt>
      <trkpt lat="42.2312030" lon="-8.6121000">
        <ele>227.2</ele>
        <time>2022-06-18T09:39:16Z</time>
      </trkpt>
      <trkpt lat="42.2312330" lon="-8.6121410">
        <ele>227.6</ele>
        <time>2022-06-18T09:39:17Z</time>
      </trkpt>
      <trkpt lat="42.2312650" lon="-8.6121800">
        <ele>227.6</ele>
        <time>2022-06-18T09:39:18Z</time>
      </trkpt>
      <trkpt lat="42.2312950" lon="-8.6122160">
        <ele>227.6</ele>
        <time>2022-06-18T09:39:19Z</time>
      </trkpt>
      <trkpt lat="42.2313300" lon="-8.6122550">
        <ele>226.6</ele>
        <time>2022-06-18T09:39:20Z</time>
      </trkpt>
      <trkpt lat="42.2313650" lon="-8.6122880">
        <ele>224.8</ele>
        <time>2022-06-18T09:39:21Z</time>
      </trkpt>
      <trkpt lat="42.2314000" lon="-8.6123180">
        <ele>224.8</ele>
        <time>2022-06-18T09:39:22Z</time>
      </trkpt>
      <trkpt lat="42.2314380" lon="-8.6123550">
        <ele>224.8</ele>
        <time>2022-06-18T09:39:23Z</time>
      </trkpt>
      <trkpt lat="42.2314780" lon="-8.6123880">
        <ele>224.8</ele>
        <time>2022-06-18T09:39:24Z</time>
      </trkpt>
      <trkpt lat="42.2315100" lon="-8.6124130">
        <ele>223.8</ele>
        <time>2022-06-18T09:39:25Z</time>
      </trkpt>
      <trkpt lat="42.2315330" lon="-8.6124400">
        <ele>223.8</ele>
        <time>2022-06-18T09:39:26Z</time>
      </trkpt>
      <trkpt lat="42.2315550" lon="-8.6124600">
        <ele>223.8</ele>
        <time>2022-06-18T09:39:27Z</time>
      </trkpt>
      <trkpt lat="42.2315800" lon="-8.6124700">
        <ele>223.8</ele>
        <time>2022-06-18T09:39:28Z</time>
      </trkpt>
      <trkpt lat="42.2316080" lon="-8.6124610">
        <ele>223.8</ele>
        <time>2022-06-18T09:39:29Z</time>
      </trkpt>
      <trkpt lat="42.2316350" lon="-8.6124350">
        <ele>223.8</ele>
        <time>2022-06-18T09:39:30Z</time>
      </trkpt>
      <trkpt lat="42.2316660" lon="-8.6124030">
        <ele>223.8</ele>
        <time>2022-06-18T09:39:31Z</time>
      </trkpt>
      <trkpt lat="42.2317000" lon="-8.6123680">
        <ele>222.8</ele>
        <time>2022-06-18T09:39:32Z</time>
      </trkpt>
      <trkpt lat="42.2317430" lon="-8.6123360">
        <ele>221.0</ele>
        <time>2022-06-18T09:39:33Z</time>
      </trkpt>
      <trkpt lat="42.2317930" lon="-8.6123180">
        <ele>221.0</ele>
        <time>2022-06-18T09:39:34Z</time>
      </trkpt>
      <trkpt lat="42.2318510" lon="-8.6123110">
        <ele>221.0</ele>
        <time>2022-06-18T09:39:35Z</time>
      </trkpt>
      <trkpt lat="42.2319110" lon="-8.6123130">
        <ele>220.0</ele>
        <time>2022-06-18T09:39:36Z</time>
      </trkpt>
      <trkpt lat="42.2319730" lon="-8.6123250">
        <ele>220.0</ele>
        <time>2022-06-18T09:39:37Z</time>
      </trkpt>
      <trkpt lat="42.2320330" lon="-8.6123430">
        <ele>220.0</ele>
        <time>2022-06-18T09:39:38Z</time>
      </trkpt>
      <trkpt lat="42.2320900" lon="-8.6123630">
        <ele>220.0</ele>
        <time>2022-06-18T09:39:39Z</time>
      </trkpt>
      <trkpt lat="42.2321450" lon="-8.6123860">
        <ele>219.0</ele>
        <time>2022-06-18T09:39:40Z</time>
      </trkpt>
      <trkpt lat="42.2322030" lon="-8.6124030">
        <ele>219.4</ele>
        <time>2022-06-18T09:39:41Z</time>
      </trkpt>
      <trkpt lat="42.2322630" lon="-8.6124230">
        <ele>219.4</ele>
        <time>2022-06-18T09:39:42Z</time>
      </trkpt>
      <trkpt lat="42.2323260" lon="-8.6124430">
        <ele>219.4</ele>
        <time>2022-06-18T09:39:43Z</time>
      </trkpt>
      <trkpt lat="42.2323930" lon="-8.6124650">
        <ele>219.4</ele>
        <time>2022-06-18T09:39:44Z</time>
      </trkpt>
      <trkpt lat="42.2324610" lon="-8.6124860">
        <ele>216.8</ele>
        <time>2022-06-18T09:39:45Z</time>
      </trkpt>
      <trkpt lat="42.2325330" lon="-8.6125080">
        <ele>216.8</ele>
        <time>2022-06-18T09:39:46Z</time>
      </trkpt>
      <trkpt lat="42.2326060" lon="-8.6125280">
        <ele>216.8</ele>
        <time>2022-06-18T09:39:47Z</time>
      </trkpt>
      <trkpt lat="42.2326810" lon="-8.6125480">
        <ele>216.8</ele>
        <time>2022-06-18T09:39:48Z</time>
      </trkpt>
      <trkpt lat="42.2327550" lon="-8.6125700">
        <ele>215.8</ele>
        <time>2022-06-18T09:39:49Z</time>
      </trkpt>
      <trkpt lat="42.2328280" lon="-8.6125930">
        <ele>215.8</ele>
        <time>2022-06-18T09:39:50Z</time>
      </trkpt>
      <trkpt lat="42.2329060" lon="-8.6126180">
        <ele>215.8</ele>
        <time>2022-06-18T09:39:51Z</time>
      </trkpt>
      <trkpt lat="42.2329850" lon="-8.6126430">
        <ele>214.8</ele>
        <time>2022-06-18T09:39:52Z</time>
      </trkpt>
      <trkpt lat="42.2330680" lon="-8.6126710">
        <ele>214.0</ele>
        <time>2022-06-18T09:39:53Z</time>
      </trkpt>
      <trkpt lat="42.2331530" lon="-8.6127010">
        <ele>214.0</ele>
        <time>2022-06-18T09:39:54Z</time>
      </trkpt>
      <trkpt lat="42.2332400" lon="-8.6127230">
        <ele>214.0</ele>
        <time>2022-06-18T09:39:55Z</time>
      </trkpt>
      <trkpt lat="42.2333280" lon="-8.6127400">
        <ele>213.0</ele>
        <time>2022-06-18T09:39:56Z</time>
      </trkpt>
      <trkpt lat="42.2334180" lon="-8.6127550">
        <ele>210.2</ele>
        <time>2022-06-18T09:39:57Z</time>
      </trkpt>
      <trkpt lat="42.2335060" lon="-8.6127700">
        <ele>210.2</ele>
        <time>2022-06-18T09:39:58Z</time>
      </trkpt>
      <trkpt lat="42.2335950" lon="-8.6127880">
        <ele>210.2</ele>
        <time>2022-06-18T09:39:59Z</time>
      </trkpt>
      <trkpt lat="42.2336850" lon="-8.6128130">
        <ele>209.2</ele>
        <time>2022-06-18T09:40:00Z</time>
      </trkpt>
      <trkpt lat="42.2337750" lon="-8.6128480">
        <ele>209.0</ele>
        <time>2022-06-18T09:40:01Z</time>
      </trkpt>
      <trkpt lat="42.2338610" lon="-8.6128910">
        <ele>209.0</ele>
        <time>2022-06-18T09:40:02Z</time>
      </trkpt>
      <trkpt lat="42.2339480" lon="-8.6129400">
        <ele>209.0</ele>
        <time>2022-06-18T09:40:03Z</time>
      </trkpt>
      <trkpt lat="42.2340310" lon="-8.6129950">
        <ele>208.0</ele>
        <time>2022-06-18T09:40:04Z</time>
      </trkpt>
      <trkpt lat="42.2341160" lon="-8.6130460">
        <ele>206.2</ele>
        <time>2022-06-18T09:40:05Z</time>
      </trkpt>
      <trkpt lat="42.2342010" lon="-8.6131000">
        <ele>206.2</ele>
        <time>2022-06-18T09:40:06Z</time>
      </trkpt>
      <trkpt lat="42.2342860" lon="-8.6131530">
        <ele>206.2</ele>
        <time>2022-06-18T09:40:07Z</time>
      </trkpt>
      <trkpt lat="42.2343700" lon="-8.6132060">
        <ele>206.2</ele>
        <time>2022-06-18T09:40:08Z</time>
      </trkpt>
      <trkpt lat="42.2344480" lon="-8.6132560">
        <ele>206.6</ele>
        <time>2022-06-18T09:40:09Z</time>
      </trkpt>
      <trkpt lat="42.2345230" lon="-8.6132960">
        <ele>206.6</ele>
        <time>2022-06-18T09:40:10Z</time>
      </trkpt>
      <trkpt lat="42.2345960" lon="-8.6133300">
        <ele>206.6</ele>
        <time>2022-06-18T09:40:11Z</time>
      </trkpt>
      <trkpt lat="42.2346680" lon="-8.6133630">
        <ele>206.6</ele>
        <time>2022-06-18T09:40:12Z</time>
      </trkpt>
      <trkpt lat="42.2347350" lon="-8.6134050">
        <ele>206.4</ele>
        <time>2022-06-18T09:40:13Z</time>
      </trkpt>
      <trkpt lat="42.2348000" lon="-8.6134480">
        <ele>206.4</ele>
        <time>2022-06-18T09:40:14Z</time>
      </trkpt>
      <trkpt lat="42.2348630" lon="-8.6134910">
        <ele>206.4</ele>
        <time>2022-06-18T09:40:15Z</time>
      </trkpt>
      <trkpt lat="42.2349260" lon="-8.6135350">
        <ele>206.4</ele>
        <time>2022-06-18T09:40:16Z</time>
      </trkpt>
      <trkpt lat="42.2349860" lon="-8.6135710">
        <ele>207.0</ele>
        <time>2022-06-18T09:40:17Z</time>
      </trkpt>
      <trkpt lat="42.2350500" lon="-8.6135950">
        <ele>207.0</ele>
        <time>2022-06-18T09:40:18Z</time>
      </trkpt>
      <trkpt lat="42.2351130" lon="-8.6136100">
        <ele>207.0</ele>
        <time>2022-06-18T09:40:19Z</time>
      </trkpt>
      <trkpt lat="42.2351760" lon="-8.6136230">
        <ele>206.4</ele>
        <time>2022-06-18T09:40:20Z</time>
      </trkpt>
      <trkpt lat="42.2352410" lon="-8.6136410">
        <ele>205.8</ele>
        <time>2022-06-18T09:40:21Z</time>
      </trkpt>
      <trkpt lat="42.2353060" lon="-8.6136510">
        <ele>205.8</ele>
        <time>2022-06-18T09:40:22Z</time>
      </trkpt>
      <trkpt lat="42.2353750" lon="-8.6136550">
        <ele>205.8</ele>
        <time>2022-06-18T09:40:23Z</time>
      </trkpt>
      <trkpt lat="42.2354450" lon="-8.6136510">
        <ele>205.6</ele>
        <time>2022-06-18T09:40:24Z</time>
      </trkpt>
      <trkpt lat="42.2355200" lon="-8.6136430">
        <ele>204.4</ele>
        <time>2022-06-18T09:40:25Z</time>
      </trkpt>
      <trkpt lat="42.2355950" lon="-8.6136250">
        <ele>204.4</ele>
        <time>2022-06-18T09:40:26Z</time>
      </trkpt>
      <trkpt lat="42.2356660" lon="-8.6136100">
        <ele>204.4</ele>
        <time>2022-06-18T09:40:27Z</time>
      </trkpt>
      <trkpt lat="42.2357400" lon="-8.6135960">
        <ele>203.4</ele>
        <time>2022-06-18T09:40:28Z</time>
      </trkpt>
      <trkpt lat="42.2358160" lon="-8.6135810">
        <ele>202.6</ele>
        <time>2022-06-18T09:40:29Z</time>
      </trkpt>
      <trkpt lat="42.2358930" lon="-8.6135660">
        <ele>202.6</ele>
        <time>2022-06-18T09:40:30Z</time>
      </trkpt>
      <trkpt lat="42.2359700" lon="-8.6135510">
        <ele>202.6</ele>
        <time>2022-06-18T09:40:31Z</time>
      </trkpt>
      <trkpt lat="42.2360460" lon="-8.6135400">
        <ele>201.6</ele>
        <time>2022-06-18T09:40:32Z</time>
      </trkpt>
      <trkpt lat="42.2361230" lon="-8.6135260">
        <ele>201.2</ele>
        <time>2022-06-18T09:40:33Z</time>
      </trkpt>
      <trkpt lat="42.2361980" lon="-8.6135110">
        <ele>201.2</ele>
        <time>2022-06-18T09:40:34Z</time>
      </trkpt>
      <trkpt lat="42.2362700" lon="-8.6134960">
        <ele>201.2</ele>
        <time>2022-06-18T09:40:35Z</time>
      </trkpt>
      <trkpt lat="42.2363400" lon="-8.6134830">
        <ele>201.6</ele>
        <time>2022-06-18T09:40:36Z</time>
      </trkpt>
      <trkpt lat="42.2364130" lon="-8.6134700">
        <ele>201.6</ele>
        <time>2022-06-18T09:40:37Z</time>
      </trkpt>
      <trkpt lat="42.2364830" lon="-8.6134550">
        <ele>201.6</ele>
        <time>2022-06-18T09:40:38Z</time>
      </trkpt>
      <trkpt lat="42.2365510" lon="-8.6134360">
        <ele>201.6</ele>
        <time>2022-06-18T09:40:39Z</time>
      </trkpt>
      <trkpt lat="42.2366180" lon="-8.6134180">
        <ele>201.6</ele>
        <time>2022-06-18T09:40:40Z</time>
      </trkpt>
      <trkpt lat="42.2366800" lon="-8.6134030">
        <ele>201.0</ele>
        <time>2022-06-18T09:40:41Z</time>
      </trkpt>
      <trkpt lat="42.2367450" lon="-8.6133910">
        <ele>201.0</ele>
        <time>2022-06-18T09:40:42Z</time>
      </trkpt>
      <trkpt lat="42.2368110" lon="-8.6133760">
        <ele>201.0</ele>
        <time>2022-06-18T09:40:43Z</time>
      </trkpt>
      <trkpt lat="42.2368780" lon="-8.6133510">
        <ele>202.0</ele>
        <time>2022-06-18T09:40:44Z</time>
      </trkpt>
      <trkpt lat="42.2369430" lon="-8.6133350">
        <ele>203.2</ele>
        <time>2022-06-18T09:40:45Z</time>
      </trkpt>
      <trkpt lat="42.2370050" lon="-8.6133210">
        <ele>203.2</ele>
        <time>2022-06-18T09:40:46Z</time>
      </trkpt>
      <trkpt lat="42.2370680" lon="-8.6133060">
        <ele>203.2</ele>
        <time>2022-06-18T09:40:47Z</time>
      </trkpt>
      <trkpt lat="42.2371330" lon="-8.6132900">
        <ele>202.2</ele>
        <time>2022-06-18T09:40:48Z</time>
      </trkpt>
      <trkpt lat="42.2371950" lon="-8.6132730">
        <ele>201.8</ele>
        <time>2022-06-18T09:40:49Z</time>
      </trkpt>
      <trkpt lat="42.2372580" lon="-8.6132580">
        <ele>201.8</ele>
        <time>2022-06-18T09:40:50Z</time>
      </trkpt>
      <trkpt lat="42.2373230" lon="-8.6132430">
        <ele>201.8</ele>
        <time>2022-06-18T09:40:51Z</time>
      </trkpt>
      <trkpt lat="42.2373880" lon="-8.6132280">
        <ele>201.4</ele>
        <time>2022-06-18T09:40:52Z</time>
      </trkpt>
      <trkpt lat="42.2374530" lon="-8.6132150">
        <ele>201.4</ele>
        <time>2022-06-18T09:40:53Z</time>
      </trkpt>
      <trkpt lat="42.2375200" lon="-8.6132000">
        <ele>201.4</ele>
        <time>2022-06-18T09:40:54Z</time>
      </trkpt>
      <trkpt lat="42.2375850" lon="-8.6131860">
        <ele>201.4</ele>
        <time>2022-06-18T09:40:55Z</time>
      </trkpt>
      <trkpt lat="42.2376500" lon="-8.6131730">
        <ele>200.4</ele>
        <time>2022-06-18T09:40:56Z</time>
      </trkpt>
      <trkpt lat="42.2377180" lon="-8.6131630">
        <ele>200.8</ele>
        <time>2022-06-18T09:40:57Z</time>
      </trkpt>
      <trkpt lat="42.2377860" lon="-8.6131510">
        <ele>200.8</ele>
        <time>2022-06-18T09:40:58Z</time>
      </trkpt>
      <trkpt lat="42.2378560" lon="-8.6131360">
        <ele>200.8</ele>
        <time>2022-06-18T09:40:59Z</time>
      </trkpt>
      <trkpt lat="42.2379250" lon="-8.6131180">
        <ele>199.8</ele>
        <time>2022-06-18T09:41:00Z</time>
      </trkpt>
      <trkpt lat="42.2379930" lon="-8.6131050">
        <ele>200.2</ele>
        <time>2022-06-18T09:41:01Z</time>
      </trkpt>
      <trkpt lat="42.2380650" lon="-8.6130900">
        <ele>200.2</ele>
        <time>2022-06-18T09:41:02Z</time>
      </trkpt>
      <trkpt lat="42.2381330" lon="-8.6130760">
        <ele>200.2</ele>
        <time>2022-06-18T09:41:03Z</time>
      </trkpt>
      <trkpt lat="42.2382030" lon="-8.6130600">
        <ele>199.8</ele>
        <time>2022-06-18T09:41:04Z</time>
      </trkpt>
      <trkpt lat="42.2382710" lon="-8.6130410">
        <ele>199.6</ele>
        <time>2022-06-18T09:41:05Z</time>
      </trkpt>
      <trkpt lat="42.2383400" lon="-8.6130210">
        <ele>199.6</ele>
        <time>2022-06-18T09:41:06Z</time>
      </trkpt>
      <trkpt lat="42.2384100" lon="-8.6130060">
        <ele>199.6</ele>
        <time>2022-06-18T09:41:07Z</time>
      </trkpt>
      <trkpt lat="42.2384780" lon="-8.6129950">
        <ele>199.6</ele>
        <time>2022-06-18T09:41:08Z</time>
      </trkpt>
      <trkpt lat="42.2385450" lon="-8.6129800">
        <ele>199.0</ele>
        <time>2022-06-18T09:41:09Z</time>
      </trkpt>
      <trkpt lat="42.2386160" lon="-8.6129630">
        <ele>199.0</ele>
        <time>2022-06-18T09:41:10Z</time>
      </trkpt>
      <trkpt lat="42.2386850" lon="-8.6129400">
        <ele>199.0</ele>
        <time>2022-06-18T09:41:11Z</time>
      </trkpt>
      <trkpt lat="42.2387550" lon="-8.6129130">
        <ele>199.0</ele>
        <time>2022-06-18T09:41:12Z</time>
      </trkpt>
      <trkpt lat="42.2388250" lon="-8.6128810">
        <ele>199.0</ele>
        <time>2022-06-18T09:41:13Z</time>
      </trkpt>
      <trkpt lat="42.2388900" lon="-8.6128510">
        <ele>199.0</ele>
        <time>2022-06-18T09:41:14Z</time>
      </trkpt>
      <trkpt lat="42.2389560" lon="-8.6128210">
        <ele>199.0</ele>
        <time>2022-06-18T09:41:15Z</time>
      </trkpt>
      <trkpt lat="42.2390250" lon="-8.6127880">
        <ele>198.8</ele>
        <time>2022-06-18T09:41:16Z</time>
      </trkpt>
      <trkpt lat="42.2390930" lon="-8.6127550">
        <ele>198.8</ele>
        <time>2022-06-18T09:41:17Z</time>
      </trkpt>
      <trkpt lat="42.2391580" lon="-8.6127200">
        <ele>198.8</ele>
        <time>2022-06-18T09:41:18Z</time>
      </trkpt>
      <trkpt lat="42.2392180" lon="-8.6126900">
        <ele>198.8</ele>
        <time>2022-06-18T09:41:19Z</time>
      </trkpt>
      <trkpt lat="42.2392830" lon="-8.6126530">
        <ele>198.6</ele>
        <time>2022-06-18T09:41:20Z</time>
      </trkpt>
      <trkpt lat="42.2393510" lon="-8.6126150">
        <ele>198.6</ele>
        <time>2022-06-18T09:41:21Z</time>
      </trkpt>
      <trkpt lat="42.2394180" lon="-8.6125710">
        <ele>198.6</ele>
        <time>2022-06-18T09:41:22Z</time>
      </trkpt>
      <trkpt lat="42.2394830" lon="-8.6125280">
        <ele>198.6</ele>
        <time>2022-06-18T09:41:23Z</time>
      </trkpt>
      <trkpt lat="42.2395460" lon="-8.6124800">
        <ele>197.6</ele>
        <time>2022-06-18T09:41:24Z</time>
      </trkpt>
      <trkpt lat="42.2396130" lon="-8.6124280">
        <ele>197.0</ele>
        <time>2022-06-18T09:41:25Z</time>
      </trkpt>
      <trkpt lat="42.2396800" lon="-8.6123760">
        <ele>197.0</ele>
        <time>2022-06-18T09:41:26Z</time>
      </trkpt>
      <trkpt lat="42.2397510" lon="-8.6123260">
        <ele>197.0</ele>
        <time>2022-06-18T09:41:27Z</time>
      </trkpt>
      <trkpt lat="42.2398210" lon="-8.6122730">
        <ele>196.2</ele>
        <time>2022-06-18T09:41:28Z</time>
      </trkpt>
      <trkpt lat="42.2398900" lon="-8.6122150">
        <ele>195.2</ele>
        <time>2022-06-18T09:41:29Z</time>
      </trkpt>
      <trkpt lat="42.2399600" lon="-8.6121580">
        <ele>195.2</ele>
        <time>2022-06-18T09:41:30Z</time>
      </trkpt>
      <trkpt lat="42.2400260" lon="-8.6120960">
        <ele>195.2</ele>
        <time>2022-06-18T09:41:31Z</time>
      </trkpt>
      <trkpt lat="42.2400910" lon="-8.6120310">
        <ele>194.2</ele>
        <time>2022-06-18T09:41:32Z</time>
      </trkpt>
      <trkpt lat="42.2401560" lon="-8.6119650">
        <ele>193.4</ele>
        <time>2022-06-18T09:41:33Z</time>
      </trkpt>
      <trkpt lat="42.2402230" lon="-8.6119000">
        <ele>193.4</ele>
        <time>2022-06-18T09:41:34Z</time>
      </trkpt>
      <trkpt lat="42.2402860" lon="-8.6118310">
        <ele>193.4</ele>
        <time>2022-06-18T09:41:35Z</time>
      </trkpt>
      <trkpt lat="42.2403500" lon="-8.6117580">
        <ele>192.4</ele>
        <time>2022-06-18T09:41:36Z</time>
      </trkpt>
      <trkpt lat="42.2404130" lon="-8.6116860">
        <ele>191.8</ele>
        <time>2022-06-18T09:41:37Z</time>
      </trkpt>
      <trkpt lat="42.2404750" lon="-8.6116110">
        <ele>191.8</ele>
        <time>2022-06-18T09:41:38Z</time>
      </trkpt>
      <trkpt lat="42.2405380" lon="-8.6115350">
        <ele>191.8</ele>
        <time>2022-06-18T09:41:39Z</time>
      </trkpt>
      <trkpt lat="42.2406010" lon="-8.6114580">
        <ele>191.8</ele>
        <time>2022-06-18T09:41:40Z</time>
      </trkpt>
      <trkpt lat="42.2406650" lon="-8.6113810">
        <ele>191.2</ele>
        <time>2022-06-18T09:41:41Z</time>
      </trkpt>
      <trkpt lat="42.2407300" lon="-8.6113030">
        <ele>191.2</ele>
        <time>2022-06-18T09:41:42Z</time>
      </trkpt>
      <trkpt lat="42.2407950" lon="-8.6112210">
        <ele>191.2</ele>
        <time>2022-06-18T09:41:43Z</time>
      </trkpt>
      <trkpt lat="42.2408600" lon="-8.6111360">
        <ele>190.2</ele>
        <time>2022-06-18T09:41:44Z</time>
      </trkpt>
      <trkpt lat="42.2409250" lon="-8.6110510">
        <ele>187.6</ele>
        <time>2022-06-18T09:41:45Z</time>
      </trkpt>
      <trkpt lat="42.2409930" lon="-8.6109630">
        <ele>187.6</ele>
        <time>2022-06-18T09:41:46Z</time>
      </trkpt>
      <trkpt lat="42.2410600" lon="-8.6108730">
        <ele>187.6</ele>
        <time>2022-06-18T09:41:47Z</time>
      </trkpt>
      <trkpt lat="42.2411280" lon="-8.6107850">
        <ele>186.6</ele>
        <time>2022-06-18T09:41:48Z</time>
      </trkpt>
      <trkpt lat="42.2411950" lon="-8.6106960">
        <ele>185.4</ele>
        <time>2022-06-18T09:41:49Z</time>
      </trkpt>
      <trkpt lat="42.2412630" lon="-8.6106080">
        <ele>185.4</ele>
        <time>2022-06-18T09:41:50Z</time>
      </trkpt>
      <trkpt lat="42.2413330" lon="-8.6105230">
        <ele>185.4</ele>
        <time>2022-06-18T09:41:51Z</time>
      </trkpt>
      <trkpt lat="42.2414010" lon="-8.6104400">
        <ele>184.4</ele>
        <time>2022-06-18T09:41:52Z</time>
      </trkpt>
      <trkpt lat="42.2414650" lon="-8.6103660">
        <ele>184.8</ele>
        <time>2022-06-18T09:41:53Z</time>
      </trkpt>
      <trkpt lat="42.2415180" lon="-8.6103200">
        <ele>184.8</ele>
        <time>2022-06-18T09:41:54Z</time>
      </trkpt>
      <trkpt lat="42.2415630" lon="-8.6103060">
        <ele>184.8</ele>
        <time>2022-06-18T09:41:55Z</time>
      </trkpt>
      <trkpt lat="42.2415950" lon="-8.6103260">
        <ele>185.8</ele>
        <time>2022-06-18T09:41:56Z</time>
      </trkpt>
      <trkpt lat="42.2416100" lon="-8.6103760">
        <ele>186.2</ele>
        <time>2022-06-18T09:41:57Z</time>
      </trkpt>
      <trkpt lat="42.2416160" lon="-8.6104400">
        <ele>186.2</ele>
        <time>2022-06-18T09:41:58Z</time>
      </trkpt>
      <trkpt lat="42.2416180" lon="-8.6105080">
        <ele>186.2</ele>
        <time>2022-06-18T09:41:59Z</time>
      </trkpt>
      <trkpt lat="42.2416160" lon="-8.6105750">
        <ele>185.2</ele>
        <time>2022-06-18T09:42:00Z</time>
      </trkpt>
      <trkpt lat="42.2416060" lon="-8.6106430">
        <ele>184.6</ele>
        <time>2022-06-18T09:42:01Z</time>
      </trkpt>
      <trkpt lat="42.2416010" lon="-8.6107060">
        <ele>184.6</ele>
        <time>2022-06-18T09:42:02Z</time>
      </trkpt>
      <trkpt lat="42.2416110" lon="-8.6107610">
        <ele>184.6</ele>
        <time>2022-06-18T09:42:03Z</time>
      </trkpt>
      <trkpt lat="42.2416350" lon="-8.6107930">
        <ele>184.6</ele>
        <time>2022-06-18T09:42:04Z</time>
      </trkpt>
      <trkpt lat="42.2416680" lon="-8.6108000">
        <ele>185.2</ele>
        <time>2022-06-18T09:42:05Z</time>
      </trkpt>
      <trkpt lat="42.2417010" lon="-8.6107960">
        <ele>185.2</ele>
        <time>2022-06-18T09:42:06Z</time>
      </trkpt>
      <trkpt lat="42.2417380" lon="-8.6107900">
        <ele>185.2</ele>
        <time>2022-06-18T09:42:07Z</time>
      </trkpt>
      <trkpt lat="42.2417760" lon="-8.6107850">
        <ele>185.6</ele>
        <time>2022-06-18T09:42:08Z</time>
      </trkpt>
      <trkpt lat="42.2418180" lon="-8.6107760">
        <ele>185.2</ele>
        <time>2022-06-18T09:42:09Z</time>
      </trkpt>
      <trkpt lat="42.2418610" lon="-8.6107680">
        <ele>185.2</ele>
        <time>2022-06-18T09:42:10Z</time>
      </trkpt>
      <trkpt lat="42.2419030" lon="-8.6107600">
        <ele>185.2</ele>
        <time>2022-06-18T09:42:11Z</time>
      </trkpt>
      <trkpt lat="42.2419410" lon="-8.6107480">
        <ele>184.4</ele>
        <time>2022-06-18T09:42:12Z</time>
      </trkpt>
      <trkpt lat="42.2419800" lon="-8.6107360">
        <ele>184.6</ele>
        <time>2022-06-18T09:42:13Z</time>
      </trkpt>
      <trkpt lat="42.2420200" lon="-8.6107280">
        <ele>184.6</ele>
        <time>2022-06-18T09:42:14Z</time>
      </trkpt>
      <trkpt lat="42.2420660" lon="-8.6107210">
        <ele>184.6</ele>
        <time>2022-06-18T09:42:15Z</time>
      </trkpt>
      <trkpt lat="42.2421130" lon="-8.6107130">
        <ele>184.8</ele>
        <time>2022-06-18T09:42:16Z</time>
      </trkpt>
      <trkpt lat="42.2421610" lon="-8.6107050">
        <ele>184.8</ele>
        <time>2022-06-18T09:42:17Z</time>
      </trkpt>
      <trkpt lat="42.2422080" lon="-8.6106950">
        <ele>184.8</ele>
        <time>2022-06-18T09:42:18Z</time>
      </trkpt>
      <trkpt lat="42.2422580" lon="-8.6106830">
        <ele>184.8</ele>
        <time>2022-06-18T09:42:19Z</time>
      </trkpt>
      <trkpt lat="42.2423050" lon="-8.6106710">
        <ele>184.8</ele>
        <time>2022-06-18T09:42:20Z</time>
      </trkpt>
      <trkpt lat="42.2423500" lon="-8.6106680">
        <ele>184.4</ele>
        <time>2022-06-18T09:42:21Z</time>
      </trkpt>
      <trkpt lat="42.2423930" lon="-8.6106680">
        <ele>184.4</ele>
        <time>2022-06-18T09:42:22Z</time>
      </trkpt>
      <trkpt lat="42.2424360" lon="-8.6106680">
        <ele>184.4</ele>
        <time>2022-06-18T09:42:23Z</time>
      </trkpt>
      <trkpt lat="42.2424810" lon="-8.6106700">
        <ele>185.0</ele>
        <time>2022-06-18T09:42:24Z</time>
      </trkpt>
      <trkpt lat="42.2425250" lon="-8.6106800">
        <ele>185.2</ele>
        <time>2022-06-18T09:42:25Z</time>
      </trkpt>
      <trkpt lat="42.2425660" lon="-8.6106800">
        <ele>185.2</ele>
        <time>2022-06-18T09:42:26Z</time>
      </trkpt>
      <trkpt lat="42.2426060" lon="-8.6106760">
        <ele>185.2</ele>
        <time>2022-06-18T09:42:27Z</time>
      </trkpt>
      <trkpt lat="42.2426460" lon="-8.6106750">
        <ele>185.4</ele>
        <time>2022-06-18T09:42:28Z</time>
      </trkpt>
      <trkpt lat="42.2426810" lon="-8.6106750">
        <ele>185.0</ele>
        <time>2022-06-18T09:42:29Z</time>
      </trkpt>
      <trkpt lat="42.2427160" lon="-8.6106750">
        <ele>185.0</ele>
        <time>2022-06-18T09:42:30Z</time>
      </trkpt>
      <trkpt lat="42.2427580" lon="-8.6106760">
        <ele>185.0</ele>
        <time>2022-06-18T09:42:31Z</time>
      </trkpt>
      <trkpt lat="42.2427910" lon="-8.6106710">
        <ele>185.0</ele>
        <time>2022-06-18T09:42:32Z</time>
      </trkpt>
      <trkpt lat="42.2428280" lon="-8.6106710">
        <ele>185.0</ele>
        <time>2022-06-18T09:42:33Z</time>
      </trkpt>
      <trkpt lat="42.2428610" lon="-8.6106680">
        <ele>185.0</ele>
        <time>2022-06-18T09:42:34Z</time>
      </trkpt>
      <trkpt lat="42.2429010" lon="-8.6106580">
        <ele>185.0</ele>
        <time>2022-06-18T09:42:35Z</time>
      </trkpt>
      <trkpt lat="42.2429430" lon="-8.6106450">
        <ele>185.4</ele>
        <time>2022-06-18T09:42:36Z</time>
      </trkpt>
      <trkpt lat="42.2429810" lon="-8.6106350">
        <ele>185.4</ele>
        <time>2022-06-18T09:42:37Z</time>
      </trkpt>
      <trkpt lat="42.2430200" lon="-8.6106280">
        <ele>185.4</ele>
        <time>2022-06-18T09:42:38Z</time>
      </trkpt>
      <trkpt lat="42.2430550" lon="-8.6106200">
        <ele>185.4</ele>
        <time>2022-06-18T09:42:39Z</time>
      </trkpt>
      <trkpt lat="42.2430950" lon="-8.6106150">
        <ele>186.4</ele>
        <time>2022-06-18T09:42:40Z</time>
      </trkpt>
      <trkpt lat="42.2431350" lon="-8.6106110">
        <ele>186.4</ele>
        <time>2022-06-18T09:42:41Z</time>
      </trkpt>
      <trkpt lat="42.2431730" lon="-8.6106050">
        <ele>186.4</ele>
        <time>2022-06-18T09:42:42Z</time>
      </trkpt>
      <trkpt lat="42.2432080" lon="-8.6106010">
        <ele>186.4</ele>
        <time>2022-06-18T09:42:43Z</time>
      </trkpt>
      <trkpt lat="42.2432450" lon="-8.6105960">
        <ele>187.2</ele>
        <time>2022-06-18T09:42:44Z</time>
      </trkpt>
      <trkpt lat="42.2432830" lon="-8.6106000">
        <ele>187.6</ele>
        <time>2022-06-18T09:42:45Z</time>
      </trkpt>
      <trkpt lat="42.2433200" lon="-8.6105960">
        <ele>187.6</ele>
        <time>2022-06-18T09:42:46Z</time>
      </trkpt>
      <trkpt lat="42.2433550" lon="-8.6105860">
        <ele>187.6</ele>
        <time>2022-06-18T09:42:47Z</time>
      </trkpt>
      <trkpt lat="42.2433860" lon="-8.6105800">
        <ele>187.6</ele>
        <time>2022-06-18T09:42:48Z</time>
      </trkpt>
      <trkpt lat="42.2434260" lon="-8.6105650">
        <ele>188.4</ele>
        <time>2022-06-18T09:42:49Z</time>
      </trkpt>
      <trkpt lat="42.2434630" lon="-8.6105630">
        <ele>188.4</ele>
        <time>2022-06-18T09:42:50Z</time>
      </trkpt>
      <trkpt lat="42.2435000" lon="-8.6105630">
        <ele>188.4</ele>
        <time>2022-06-18T09:42:51Z</time>
      </trkpt>
      <trkpt lat="42.2435330" lon="-8.6105580">
        <ele>188.4</ele>
        <time>2022-06-18T09:42:52Z</time>
      </trkpt>
      <trkpt lat="42.2435610" lon="-8.6105500">
        <ele>189.0</ele>
        <time>2022-06-18T09:42:53Z</time>
      </trkpt>
      <trkpt lat="42.2435900" lon="-8.6105450">
        <ele>189.0</ele>
        <time>2022-06-18T09:42:54Z</time>
      </trkpt>
      <trkpt lat="42.2436180" lon="-8.6105380">
        <ele>189.0</ele>
        <time>2022-06-18T09:42:55Z</time>
      </trkpt>
      <trkpt lat="42.2436460" lon="-8.6105380">
        <ele>189.0</ele>
        <time>2022-06-18T09:42:56Z</time>
      </trkpt>
      <trkpt lat="42.2436800" lon="-8.6105350">
        <ele>189.2</ele>
        <time>2022-06-18T09:42:57Z</time>
      </trkpt>
      <trkpt lat="42.2437100" lon="-8.6105380">
        <ele>189.2</ele>
        <time>2022-06-18T09:42:58Z</time>
      </trkpt>
      <trkpt lat="42.2437460" lon="-8.6105430">
        <ele>189.2</ele>
        <time>2022-06-18T09:42:59Z</time>
      </trkpt>
      <trkpt lat="42.2437800" lon="-8.6105360">
        <ele>189.2</ele>
        <time>2022-06-18T09:43:00Z</time>
      </trkpt>
      <trkpt lat="42.2438100" lon="-8.6105250">
        <ele>189.4</ele>
        <time>2022-06-18T09:43:01Z</time>
      </trkpt>
      <trkpt lat="42.2438280" lon="-8.6105100">
        <ele>189.4</ele>
        <time>2022-06-18T09:43:02Z</time>
      </trkpt>
      <trkpt lat="42.2438550" lon="-8.6105030">
        <ele>189.4</ele>
        <time>2022-06-18T09:43:03Z</time>
      </trkpt>
      <trkpt lat="42.2438850" lon="-8.6104950">
        <ele>189.4</ele>
        <time>2022-06-18T09:43:04Z</time>
      </trkpt>
      <trkpt lat="42.2439150" lon="-8.6104880">
        <ele>189.0</ele>
        <time>2022-06-18T09:43:05Z</time>
      </trkpt>
      <trkpt lat="42.2439450" lon="-8.6104760">
        <ele>189.0</ele>
        <time>2022-06-18T09:43:06Z</time>
      </trkpt>
      <trkpt lat="42.2439750" lon="-8.6104600">
        <ele>189.0</ele>
        <time>2022-06-18T09:43:07Z</time>
      </trkpt>
      <trkpt lat="42.2440060" lon="-8.6104430">
        <ele>189.0</ele>
        <time>2022-06-18T09:43:08Z</time>
      </trkpt>
      <trkpt lat="42.2440380" lon="-8.6104260">
        <ele>188.8</ele>
        <time>2022-06-18T09:43:09Z</time>
      </trkpt>
      <trkpt lat="42.2440760" lon="-8.6104180">
        <ele>188.8</ele>
        <time>2022-06-18T09:43:10Z</time>
      </trkpt>
      <trkpt lat="42.2441180" lon="-8.6104150">
        <ele>188.8</ele>
        <time>2022-06-18T09:43:11Z</time>
      </trkpt>
      <trkpt lat="42.2441510" lon="-8.6103980">
        <ele>188.8</ele>
        <time>2022-06-18T09:43:12Z</time>
      </trkpt>
      <trkpt lat="42.2441860" lon="-8.6103830">
        <ele>189.0</ele>
        <time>2022-06-18T09:43:13Z</time>
      </trkpt>
      <trkpt lat="42.2442130" lon="-8.6103630">
        <ele>189.0</ele>
        <time>2022-06-18T09:43:14Z</time>
      </trkpt>
      <trkpt lat="42.2442460" lon="-8.6103450">
        <ele>189.0</ele>
        <time>2022-06-18T09:43:15Z</time>
      </trkpt>
      <trkpt lat="42.2442830" lon="-8.6103280">
        <ele>188.0</ele>
        <time>2022-06-18T09:43:16Z</time>
      </trkpt>
      <trkpt lat="42.2443110" lon="-8.6103250">
        <ele>188.6</ele>
        <time>2022-06-18T09:43:17Z</time>
      </trkpt>
      <trkpt lat="42.2443410" lon="-8.6103200">
        <ele>188.6</ele>
        <time>2022-06-18T09:43:18Z</time>
      </trkpt>
      <trkpt lat="42.2443760" lon="-8.6103150">
        <ele>188.6</ele>
        <time>2022-06-18T09:43:19Z</time>
      </trkpt>
      <trkpt lat="42.2444080" lon="-8.6103080">
        <ele>188.6</ele>
        <time>2022-06-18T09:43:20Z</time>
      </trkpt>
      <trkpt lat="42.2444430" lon="-8.6102980">
        <ele>188.0</ele>
        <time>2022-06-18T09:43:21Z</time>
      </trkpt>
      <trkpt lat="42.2444850" lon="-8.6102960">
        <ele>188.0</ele>
        <time>2022-06-18T09:43:22Z</time>
      </trkpt>
      <trkpt lat="42.2445260" lon="-8.6103060">
        <ele>188.0</ele>
        <time>2022-06-18T09:43:23Z</time>
      </trkpt>
      <trkpt lat="42.2445750" lon="-8.6103080">
        <ele>188.0</ele>
        <time>2022-06-18T09:43:24Z</time>
      </trkpt>
      <trkpt lat="42.2446160" lon="-8.6103050">
        <ele>188.0</ele>
        <time>2022-06-18T09:43:25Z</time>
      </trkpt>
      <trkpt lat="42.2446560" lon="-8.6102950">
        <ele>188.0</ele>
        <time>2022-06-18T09:43:26Z</time>
      </trkpt>
      <trkpt lat="42.2446980" lon="-8.6102850">
        <ele>188.0</ele>
        <time>2022-06-18T09:43:27Z</time>
      </trkpt>
      <trkpt lat="42.2447400" lon="-8.6102780">
        <ele>187.0</ele>
        <time>2022-06-18T09:43:28Z</time>
      </trkpt>
      <trkpt lat="42.2447850" lon="-8.6102700">
        <ele>186.2</ele>
        <time>2022-06-18T09:43:29Z</time>
      </trkpt>
      <trkpt lat="42.2448400" lon="-8.6102630">
        <ele>186.2</ele>
        <time>2022-06-18T09:43:30Z</time>
      </trkpt>
      <trkpt lat="42.2448960" lon="-8.6102530">
        <ele>186.2</ele>
        <time>2022-06-18T09:43:31Z</time>
      </trkpt>
      <trkpt lat="42.2449480" lon="-8.6102410">
        <ele>186.2</ele>
        <time>2022-06-18T09:43:32Z</time>
      </trkpt>
      <trkpt lat="42.2450030" lon="-8.6102230">
        <ele>185.8</ele>
        <time>2022-06-18T09:43:33Z</time>
      </trkpt>
      <trkpt lat="42.2450600" lon="-8.6102050">
        <ele>185.8</ele>
        <time>2022-06-18T09:43:34Z</time>
      </trkpt>
      <trkpt lat="42.2451150" lon="-8.6101760">
        <ele>185.8</ele>
        <time>2022-06-18T09:43:35Z</time>
      </trkpt>
      <trkpt lat="42.2451730" lon="-8.6101530">
        <ele>184.8</ele>
        <time>2022-06-18T09:43:36Z</time>
      </trkpt>
      <trkpt lat="42.2452300" lon="-8.6101160">
        <ele>184.0</ele>
        <time>2022-06-18T09:43:37Z</time>
      </trkpt>
      <trkpt lat="42.2452850" lon="-8.6100710">
        <ele>184.0</ele>
        <time>2022-06-18T09:43:38Z</time>
      </trkpt>
      <trkpt lat="42.2453360" lon="-8.6100360">
        <ele>184.0</ele>
        <time>2022-06-18T09:43:39Z</time>
      </trkpt>
      <trkpt lat="42.2453880" lon="-8.6099950">
        <ele>184.0</ele>
        <time>2022-06-18T09:43:40Z</time>
      </trkpt>
      <trkpt lat="42.2454400" lon="-8.6099510">
        <ele>183.4</ele>
        <time>2022-06-18T09:43:41Z</time>
      </trkpt>
      <trkpt lat="42.2454930" lon="-8.6099110">
        <ele>183.4</ele>
        <time>2022-06-18T09:43:42Z</time>
      </trkpt>
      <trkpt lat="42.2455550" lon="-8.6098780">
        <ele>183.4</ele>
        <time>2022-06-18T09:43:43Z</time>
      </trkpt>
      <trkpt lat="42.2456330" lon="-8.6098550">
        <ele>182.4</ele>
        <time>2022-06-18T09:43:44Z</time>
      </trkpt>
      <trkpt lat="42.2457130" lon="-8.6098410">
        <ele>181.2</ele>
        <time>2022-06-18T09:43:45Z</time>
      </trkpt>
      <trkpt lat="42.2457910" lon="-8.6098360">
        <ele>181.2</ele>
        <time>2022-06-18T09:43:46Z</time>
      </trkpt>
      <trkpt lat="42.2458650" lon="-8.6098430">
        <ele>181.2</ele>
        <time>2022-06-18T09:43:47Z</time>
      </trkpt>
      <trkpt lat="42.2459260" lon="-8.6098610">
        <ele>181.2</ele>
        <time>2022-06-18T09:43:48Z</time>
      </trkpt>
      <trkpt lat="42.2459860" lon="-8.6098850">
        <ele>180.6</ele>
        <time>2022-06-18T09:43:49Z</time>
      </trkpt>
      <trkpt lat="42.2460360" lon="-8.6099110">
        <ele>180.6</ele>
        <time>2022-06-18T09:43:50Z</time>
      </trkpt>
      <trkpt lat="42.2460900" lon="-8.6099400">
        <ele>180.6</ele>
        <time>2022-06-18T09:43:51Z</time>
      </trkpt>
      <trkpt lat="42.2461480" lon="-8.6099710">
        <ele>181.4</ele>
        <time>2022-06-18T09:43:52Z</time>
      </trkpt>
      <trkpt lat="42.2462080" lon="-8.6100000">
        <ele>180.8</ele>
        <time>2022-06-18T09:43:53Z</time>
      </trkpt>
      <trkpt lat="42.2462660" lon="-8.6100350">
        <ele>180.8</ele>
        <time>2022-06-18T09:43:54Z</time>
      </trkpt>
      <trkpt lat="42.2463210" lon="-8.6100730">
        <ele>180.8</ele>
        <time>2022-06-18T09:43:55Z</time>
      </trkpt>
      <trkpt lat="42.2463810" lon="-8.6101060">
        <ele>181.4</ele>
        <time>2022-06-18T09:43:56Z</time>
      </trkpt>
      <trkpt lat="42.2464450" lon="-8.6101360">
        <ele>180.6</ele>
        <time>2022-06-18T09:43:57Z</time>
      </trkpt>
      <trkpt lat="42.2465060" lon="-8.6101700">
        <ele>180.6</ele>
        <time>2022-06-18T09:43:58Z</time>
      </trkpt>
      <trkpt lat="42.2465680" lon="-8.6102000">
        <ele>180.6</ele>
        <time>2022-06-18T09:43:59Z</time>
      </trkpt>
      <trkpt lat="42.2466360" lon="-8.6102300">
        <ele>179.6</ele>
        <time>2022-06-18T09:44:00Z</time>
      </trkpt>
      <trkpt lat="42.2467030" lon="-8.6102530">
        <ele>179.0</ele>
        <time>2022-06-18T09:44:01Z</time>
      </trkpt>
      <trkpt lat="42.2467810" lon="-8.6102780">
        <ele>179.0</ele>
        <time>2022-06-18T09:44:02Z</time>
      </trkpt>
      <trkpt lat="42.2468560" lon="-8.6103080">
        <ele>179.0</ele>
        <time>2022-06-18T09:44:03Z</time>
      </trkpt>
      <trkpt lat="42.2469310" lon="-8.6103410">
        <ele>178.0</ele>
        <time>2022-06-18T09:44:04Z</time>
      </trkpt>
      <trkpt lat="42.2470080" lon="-8.6103750">
        <ele>176.2</ele>
        <time>2022-06-18T09:44:05Z</time>
      </trkpt>
      <trkpt lat="42.2470900" lon="-8.6104150">
        <ele>176.2</ele>
        <time>2022-06-18T09:44:06Z</time>
      </trkpt>
      <trkpt lat="42.2471710" lon="-8.6104530">
        <ele>176.2</ele>
        <time>2022-06-18T09:44:07Z</time>
      </trkpt>
      <trkpt lat="42.2472530" lon="-8.6104950">
        <ele>175.2</ele>
        <time>2022-06-18T09:44:08Z</time>
      </trkpt>
      <trkpt lat="42.2473350" lon="-8.6105360">
        <ele>173.8</ele>
        <time>2022-06-18T09:44:09Z</time>
      </trkpt>
      <trkpt lat="42.2474150" lon="-8.6105760">
        <ele>173.8</ele>
        <time>2022-06-18T09:44:10Z</time>
      </trkpt>
      <trkpt lat="42.2475000" lon="-8.6106130">
        <ele>173.8</ele>
        <time>2022-06-18T09:44:11Z</time>
      </trkpt>
      <trkpt lat="42.2475860" lon="-8.6106460">
        <ele>173.8</ele>
        <time>2022-06-18T09:44:12Z</time>
      </trkpt>
      <trkpt lat="42.2476700" lon="-8.6106730">
        <ele>172.2</ele>
        <time>2022-06-18T09:44:13Z</time>
      </trkpt>
      <trkpt lat="42.2477530" lon="-8.6106850">
        <ele>172.2</ele>
        <time>2022-06-18T09:44:14Z</time>
      </trkpt>
      <trkpt lat="42.2478360" lon="-8.6106980">
        <ele>172.2</ele>
        <time>2022-06-18T09:44:15Z</time>
      </trkpt>
      <trkpt lat="42.2479160" lon="-8.6107260">
        <ele>171.8</ele>
        <time>2022-06-18T09:44:16Z</time>
      </trkpt>
      <trkpt lat="42.2479910" lon="-8.6107650">
        <ele>172.4</ele>
        <time>2022-06-18T09:44:17Z</time>
      </trkpt>
      <trkpt lat="42.2480500" lon="-8.6108160">
        <ele>172.4</ele>
        <time>2022-06-18T09:44:18Z</time>
      </trkpt>
      <trkpt lat="42.2480960" lon="-8.6108650">
        <ele>172.4</ele>
        <time>2022-06-18T09:44:19Z</time>
      </trkpt>
      <trkpt lat="42.2481350" lon="-8.6108960">
        <ele>172.4</ele>
        <time>2022-06-18T09:44:20Z</time>
      </trkpt>
      <trkpt lat="42.2481650" lon="-8.6108980">
        <ele>174.8</ele>
        <time>2022-06-18T09:44:21Z</time>
      </trkpt>
      <trkpt lat="42.2481960" lon="-8.6108960">
        <ele>174.8</ele>
        <time>2022-06-18T09:44:22Z</time>
      </trkpt>
      <trkpt lat="42.2482350" lon="-8.6108950">
        <ele>174.8</ele>
        <time>2022-06-18T09:44:23Z</time>
      </trkpt>
      <trkpt lat="42.2482750" lon="-8.6108980">
        <ele>174.2</ele>
        <time>2022-06-18T09:44:24Z</time>
      </trkpt>
      <trkpt lat="42.2483030" lon="-8.6109030">
        <ele>174.0</ele>
        <time>2022-06-18T09:44:25Z</time>
      </trkpt>
      <trkpt lat="42.2483310" lon="-8.6109010">
        <ele>174.0</ele>
        <time>2022-06-18T09:44:26Z</time>
      </trkpt>
      <trkpt lat="42.2483680" lon="-8.6109080">
        <ele>174.0</ele>
        <time>2022-06-18T09:44:27Z</time>
      </trkpt>
      <trkpt lat="42.2484200" lon="-8.6109160">
        <ele>174.0</ele>
        <time>2022-06-18T09:44:28Z</time>
      </trkpt>
      <trkpt lat="42.2484650" lon="-8.6109230">
        <ele>173.2</ele>
        <time>2022-06-18T09:44:29Z</time>
      </trkpt>
      <trkpt lat="42.2485010" lon="-8.6109310">
        <ele>173.2</ele>
        <time>2022-06-18T09:44:30Z</time>
      </trkpt>
      <trkpt lat="42.2485480" lon="-8.6109430">
        <ele>173.2</ele>
        <time>2022-06-18T09:44:31Z</time>
      </trkpt>
      <trkpt lat="42.2485860" lon="-8.6109410">
        <ele>173.2</ele>
        <time>2022-06-18T09:44:32Z</time>
      </trkpt>
      <trkpt lat="42.2486230" lon="-8.6109350">
        <ele>173.2</ele>
        <time>2022-06-18T09:44:33Z</time>
      </trkpt>
      <trkpt lat="42.2486600" lon="-8.6109400">
        <ele>173.2</ele>
        <time>2022-06-18T09:44:34Z</time>
      </trkpt>
      <trkpt lat="42.2487030" lon="-8.6109450">
        <ele>173.2</ele>
        <time>2022-06-18T09:44:35Z</time>
      </trkpt>
      <trkpt lat="42.2487460" lon="-8.6109350">
        <ele>174.2</ele>
        <time>2022-06-18T09:44:36Z</time>
      </trkpt>
      <trkpt lat="42.2487900" lon="-8.6109280">
        <ele>173.8</ele>
        <time>2022-06-18T09:44:37Z</time>
      </trkpt>
      <trkpt lat="42.2488360" lon="-8.6109250">
        <ele>173.8</ele>
        <time>2022-06-18T09:44:38Z</time>
      </trkpt>
      <trkpt lat="42.2488730" lon="-8.6109250">
        <ele>173.8</ele>
        <time>2022-06-18T09:44:39Z</time>
      </trkpt>
      <trkpt lat="42.2489250" lon="-8.6109060">
        <ele>172.8</ele>
        <time>2022-06-18T09:44:40Z</time>
      </trkpt>
      <trkpt lat="42.2489760" lon="-8.6108850">
        <ele>170.8</ele>
        <time>2022-06-18T09:44:41Z</time>
      </trkpt>
      <trkpt lat="42.2490210" lon="-8.6108780">
        <ele>170.8</ele>
        <time>2022-06-18T09:44:42Z</time>
      </trkpt>
      <trkpt lat="42.2490700" lon="-8.6108660">
        <ele>170.8</ele>
        <time>2022-06-18T09:44:43Z</time>
      </trkpt>
      <trkpt lat="42.2491230" lon="-8.6108600">
        <ele>169.8</ele>
        <time>2022-06-18T09:44:44Z</time>
      </trkpt>
      <trkpt lat="42.2491800" lon="-8.6108510">
        <ele>169.4</ele>
        <time>2022-06-18T09:44:45Z</time>
      </trkpt>
      <trkpt lat="42.2492430" lon="-8.6108580">
        <ele>169.4</ele>
        <time>2022-06-18T09:44:46Z</time>
      </trkpt>
      <trkpt lat="42.2493000" lon="-8.6108750">
        <ele>169.4</ele>
        <time>2022-06-18T09:44:47Z</time>
      </trkpt>
      <trkpt lat="42.2493550" lon="-8.6108960">
        <ele>169.4</ele>
        <time>2022-06-18T09:44:48Z</time>
      </trkpt>
      <trkpt lat="42.2494030" lon="-8.6109230">
        <ele>166.2</ele>
        <time>2022-06-18T09:44:49Z</time>
      </trkpt>
      <trkpt lat="42.2494650" lon="-8.6109410">
        <ele>166.2</ele>
        <time>2022-06-18T09:44:50Z</time>
      </trkpt>
      <trkpt lat="42.2495150" lon="-8.6109550">
        <ele>166.2</ele>
        <time>2022-06-18T09:44:51Z</time>
      </trkpt>
      <trkpt lat="42.2495660" lon="-8.6109750">
        <ele>165.2</ele>
        <time>2022-06-18T09:44:52Z</time>
      </trkpt>
      <trkpt lat="42.2496230" lon="-8.6109960">
        <ele>163.2</ele>
        <time>2022-06-18T09:44:53Z</time>
      </trkpt>
      <trkpt lat="42.2496710" lon="-8.6110260">
        <ele>163.2</ele>
        <time>2022-06-18T09:44:54Z</time>
      </trkpt>
      <trkpt lat="42.2497210" lon="-8.6110480">
        <ele>163.2</ele>
        <time>2022-06-18T09:44:55Z</time>
      </trkpt>
      <trkpt lat="42.2497730" lon="-8.6110630">
        <ele>163.2</ele>
        <time>2022-06-18T09:44:56Z</time>
      </trkpt>
      <trkpt lat="42.2498360" lon="-8.6110800">
        <ele>160.4</ele>
        <time>2022-06-18T09:44:57Z</time>
      </trkpt>
      <trkpt lat="42.2498960" lon="-8.6111010">
        <ele>160.4</ele>
        <time>2022-06-18T09:44:58Z</time>
      </trkpt>
      <trkpt lat="42.2499480" lon="-8.6111060">
        <ele>160.4</ele>
        <time>2022-06-18T09:44:59Z</time>
      </trkpt>
      <trkpt lat="42.2499930" lon="-8.6111160">
        <ele>160.4</ele>
        <time>2022-06-18T09:45:00Z</time>
      </trkpt>
      <trkpt lat="42.2500430" lon="-8.6111250">
        <ele>158.8</ele>
        <time>2022-06-18T09:45:01Z</time>
      </trkpt>
      <trkpt lat="42.2501060" lon="-8.6111430">
        <ele>158.8</ele>
        <time>2022-06-18T09:45:02Z</time>
      </trkpt>
      <trkpt lat="42.2501660" lon="-8.6111600">
        <ele>158.8</ele>
        <time>2022-06-18T09:45:03Z</time>
      </trkpt>
      <trkpt lat="42.2502410" lon="-8.6111980">
        <ele>157.8</ele>
        <time>2022-06-18T09:45:04Z</time>
      </trkpt>
      <trkpt lat="42.2503030" lon="-8.6112110">
        <ele>153.2</ele>
        <time>2022-06-18T09:45:05Z</time>
      </trkpt>
      <trkpt lat="42.2503610" lon="-8.6112310">
        <ele>153.2</ele>
        <time>2022-06-18T09:45:06Z</time>
      </trkpt>
      <trkpt lat="42.2504200" lon="-8.6112430">
        <ele>153.2</ele>
        <time>2022-06-18T09:45:07Z</time>
      </trkpt>
      <trkpt lat="42.2504780" lon="-8.6112550">
        <ele>152.2</ele>
        <time>2022-06-18T09:45:08Z</time>
      </trkpt>
      <trkpt lat="42.2505430" lon="-8.6112650">
        <ele>151.0</ele>
        <time>2022-06-18T09:45:09Z</time>
      </trkpt>
      <trkpt lat="42.2506080" lon="-8.6112780">
        <ele>151.0</ele>
        <time>2022-06-18T09:45:10Z</time>
      </trkpt>
      <trkpt lat="42.2506660" lon="-8.6112880">
        <ele>151.0</ele>
        <time>2022-06-18T09:45:11Z</time>
      </trkpt>
      <trkpt lat="42.2507250" lon="-8.6112930">
        <ele>150.0</ele>
        <time>2022-06-18T09:45:12Z</time>
      </trkpt>
      <trkpt lat="42.2507860" lon="-8.6113010">
        <ele>148.6</ele>
        <time>2022-06-18T09:45:13Z</time>
      </trkpt>
      <trkpt lat="42.2508530" lon="-8.6113150">
        <ele>148.6</ele>
        <time>2022-06-18T09:45:14Z</time>
      </trkpt>
      <trkpt lat="42.2509260" lon="-8.6113380">
        <ele>148.6</ele>
        <time>2022-06-18T09:45:15Z</time>
      </trkpt>
      <trkpt lat="42.2509810" lon="-8.6113710">
        <ele>147.6</ele>
        <time>2022-06-18T09:45:16Z</time>
      </trkpt>
      <trkpt lat="42.2510260" lon="-8.6114050">
        <ele>145.6</ele>
        <time>2022-06-18T09:45:17Z</time>
      </trkpt>
      <trkpt lat="42.2510800" lon="-8.6114280">
        <ele>145.6</ele>
        <time>2022-06-18T09:45:18Z</time>
      </trkpt>
      <trkpt lat="42.2511380" lon="-8.6114410">
        <ele>145.6</ele>
        <time>2022-06-18T09:45:19Z</time>
      </trkpt>
      <trkpt lat="42.2511980" lon="-8.6114430">
        <ele>144.6</ele>
        <time>2022-06-18T09:45:20Z</time>
      </trkpt>
      <trkpt lat="42.2512610" lon="-8.6114360">
        <ele>138.8</ele>
        <time>2022-06-18T09:45:21Z</time>
      </trkpt>
      <trkpt lat="42.2513200" lon="-8.6114250">
        <ele>138.8</ele>
        <time>2022-06-18T09:45:22Z</time>
      </trkpt>
      <trkpt lat="42.2513730" lon="-8.6114000">
        <ele>138.8</ele>
        <time>2022-06-18T09:45:23Z</time>
      </trkpt>
      <trkpt lat="42.2514200" lon="-8.6113680">
        <ele>137.8</ele>
        <time>2022-06-18T09:45:24Z</time>
      </trkpt>
      <trkpt lat="42.2514630" lon="-8.6113250">
        <ele>133.8</ele>
        <time>2022-06-18T09:45:25Z</time>
      </trkpt>
      <trkpt lat="42.2515110" lon="-8.6112780">
        <ele>133.8</ele>
        <time>2022-06-18T09:45:26Z</time>
      </trkpt>
      <trkpt lat="42.2515680" lon="-8.6112460">
        <ele>133.8</ele>
        <time>2022-06-18T09:45:27Z</time>
      </trkpt>
      <trkpt lat="42.2516310" lon="-8.6112300">
        <ele>132.8</ele>
        <time>2022-06-18T09:45:28Z</time>
      </trkpt>
      <trkpt lat="42.2516950" lon="-8.6112160">
        <ele>127.6</ele>
        <time>2022-06-18T09:45:29Z</time>
      </trkpt>
      <trkpt lat="42.2517600" lon="-8.6112110">
        <ele>127.6</ele>
        <time>2022-06-18T09:45:30Z</time>
      </trkpt>
      <trkpt lat="42.2518180" lon="-8.6112180">
        <ele>127.6</ele>
        <time>2022-06-18T09:45:31Z</time>
      </trkpt>
      <trkpt lat="42.2518700" lon="-8.6112380">
        <ele>126.6</ele>
        <time>2022-06-18T09:45:32Z</time>
      </trkpt>
      <trkpt lat="42.2519150" lon="-8.6112650">
        <ele>122.2</ele>
        <time>2022-06-18T09:45:33Z</time>
      </trkpt>
      <trkpt lat="42.2519510" lon="-8.6112860">
        <ele>122.2</ele>
        <time>2022-06-18T09:45:34Z</time>
      </trkpt>
      <trkpt lat="42.2519880" lon="-8.6113030">
        <ele>122.2</ele>
        <time>2022-06-18T09:45:35Z</time>
      </trkpt>
      <trkpt lat="42.2520230" lon="-8.6113060">
        <ele>121.2</ele>
        <time>2022-06-18T09:45:36Z</time>
      </trkpt>
      <trkpt lat="42.2520710" lon="-8.6112980">
        <ele>117.8</ele>
        <time>2022-06-18T09:45:37Z</time>
      </trkpt>
      <trkpt lat="42.2521250" lon="-8.6112810">
        <ele>117.8</ele>
        <time>2022-06-18T09:45:38Z</time>
      </trkpt>
      <trkpt lat="42.2521650" lon="-8.6112310">
        <ele>117.8</ele>
        <time>2022-06-18T09:45:39Z</time>
      </trkpt>
      <trkpt lat="42.2522060" lon="-8.6111650">
        <ele>116.8</ele>
        <time>2022-06-18T09:45:40Z</time>
      </trkpt>
      <trkpt lat="42.2522530" lon="-8.6110910">
        <ele>113.8</ele>
        <time>2022-06-18T09:45:41Z</time>
      </trkpt>
      <trkpt lat="42.2523010" lon="-8.6110060">
        <ele>113.8</ele>
        <time>2022-06-18T09:45:42Z</time>
      </trkpt>
      <trkpt lat="42.2523600" lon="-8.6109230">
        <ele>113.8</ele>
        <time>2022-06-18T09:45:43Z</time>
      </trkpt>
      <trkpt lat="42.2524280" lon="-8.6108410">
        <ele>112.8</ele>
        <time>2022-06-18T09:45:44Z</time>
      </trkpt>
      <trkpt lat="42.2524980" lon="-8.6107580">
        <ele>105.8</ele>
        <time>2022-06-18T09:45:45Z</time>
      </trkpt>
      <trkpt lat="42.2525660" lon="-8.6106760">
        <ele>105.8</ele>
        <time>2022-06-18T09:45:46Z</time>
      </trkpt>
      <trkpt lat="42.2526280" lon="-8.6105950">
        <ele>105.8</ele>
        <time>2022-06-18T09:45:47Z</time>
      </trkpt>
      <trkpt lat="42.2526810" lon="-8.6105150">
        <ele>104.8</ele>
        <time>2022-06-18T09:45:48Z</time>
      </trkpt>
      <trkpt lat="42.2527230" lon="-8.6104410">
        <ele>103.6</ele>
        <time>2022-06-18T09:45:49Z</time>
      </trkpt>
      <trkpt lat="42.2527550" lon="-8.6103750">
        <ele>103.6</ele>
        <time>2022-06-18T09:45:50Z</time>
      </trkpt>
      <trkpt lat="42.2527730" lon="-8.6103150">
        <ele>103.6</ele>
        <time>2022-06-18T09:45:51Z</time>
      </trkpt>
      <trkpt lat="42.2527860" lon="-8.6102710">
        <ele>104.0</ele>
        <time>2022-06-18T09:45:52Z</time>
      </trkpt>
      <trkpt lat="42.2528010" lon="-8.6102480">
        <ele>104.8</ele>
        <time>2022-06-18T09:45:53Z</time>
      </trkpt>
      <trkpt lat="42.2528210" lon="-8.6102330">
        <ele>104.8</ele>
        <time>2022-06-18T09:45:54Z</time>
      </trkpt>
      <trkpt lat="42.2528460" lon="-8.6102200">
        <ele>104.8</ele>
        <time>2022-06-18T09:45:55Z</time>
      </trkpt>
      <trkpt lat="42.2528760" lon="-8.6102150">
        <ele>103.8</ele>
        <time>2022-06-18T09:45:56Z</time>
      </trkpt>
      <trkpt lat="42.2529150" lon="-8.6102180">
        <ele>103.6</ele>
        <time>2022-06-18T09:45:57Z</time>
      </trkpt>
      <trkpt lat="42.2529550" lon="-8.6102210">
        <ele>103.6</ele>
        <time>2022-06-18T09:45:58Z</time>
      </trkpt>
      <trkpt lat="42.2529980" lon="-8.6102280">
        <ele>103.6</ele>
        <time>2022-06-18T09:45:59Z</time>
      </trkpt>
      <trkpt lat="42.2530450" lon="-8.6102330">
        <ele>102.6</ele>
        <time>2022-06-18T09:46:00Z</time>
      </trkpt>
      <trkpt lat="42.2530930" lon="-8.6102500">
        <ele>102.2</ele>
        <time>2022-06-18T09:46:01Z</time>
      </trkpt>
      <trkpt lat="42.2531450" lon="-8.6102700">
        <ele>102.2</ele>
        <time>2022-06-18T09:46:02Z</time>
      </trkpt>
      <trkpt lat="42.2532030" lon="-8.6102950">
        <ele>102.2</ele>
        <time>2022-06-18T09:46:03Z</time>
      </trkpt>
      <trkpt lat="42.2532650" lon="-8.6103250">
        <ele>101.2</ele>
        <time>2022-06-18T09:46:04Z</time>
      </trkpt>
      <trkpt lat="42.2533250" lon="-8.6103660">
        <ele>98.0</ele>
        <time>2022-06-18T09:46:05Z</time>
      </trkpt>
      <trkpt lat="42.2533810" lon="-8.6104130">
        <ele>98.0</ele>
        <time>2022-06-18T09:46:06Z</time>
      </trkpt>
      <trkpt lat="42.2534360" lon="-8.6104660">
        <ele>98.0</ele>
        <time>2022-06-18T09:46:07Z</time>
      </trkpt>
      <trkpt lat="42.2534880" lon="-8.6105160">
        <ele>97.0</ele>
        <time>2022-06-18T09:46:08Z</time>
      </trkpt>
      <trkpt lat="42.2535310" lon="-8.6105700">
        <ele>93.4</ele>
        <time>2022-06-18T09:46:09Z</time>
      </trkpt>
      <trkpt lat="42.2535680" lon="-8.6106210">
        <ele>93.4</ele>
        <time>2022-06-18T09:46:10Z</time>
      </trkpt>
      <trkpt lat="42.2536050" lon="-8.6106630">
        <ele>93.4</ele>
        <time>2022-06-18T09:46:11Z</time>
      </trkpt>
      <trkpt lat="42.2536430" lon="-8.6106880">
        <ele>92.4</ele>
        <time>2022-06-18T09:46:12Z</time>
      </trkpt>
      <trkpt lat="42.2536830" lon="-8.6106830">
        <ele>90.8</ele>
        <time>2022-06-18T09:46:13Z</time>
      </trkpt>
      <trkpt lat="42.2537250" lon="-8.6106480">
        <ele>90.8</ele>
        <time>2022-06-18T09:46:14Z</time>
      </trkpt>
      <trkpt lat="42.2537530" lon="-8.6105850">
        <ele>90.8</ele>
        <time>2022-06-18T09:46:15Z</time>
      </trkpt>
      <trkpt lat="42.2537730" lon="-8.6105060">
        <ele>89.8</ele>
        <time>2022-06-18T09:46:16Z</time>
      </trkpt>
      <trkpt lat="42.2537930" lon="-8.6104150">
        <ele>85.4</ele>
        <time>2022-06-18T09:46:17Z</time>
      </trkpt>
      <trkpt lat="42.2538180" lon="-8.6103130">
        <ele>85.4</ele>
        <time>2022-06-18T09:46:18Z</time>
      </trkpt>
      <trkpt lat="42.2538480" lon="-8.6102110">
        <ele>85.4</ele>
        <time>2022-06-18T09:46:19Z</time>
      </trkpt>
      <trkpt lat="42.2538760" lon="-8.6101160">
        <ele>84.4</ele>
        <time>2022-06-18T09:46:20Z</time>
      </trkpt>
      <trkpt lat="42.2539080" lon="-8.6100300">
        <ele>80.8</ele>
        <time>2022-06-18T09:46:21Z</time>
      </trkpt>
      <trkpt lat="42.2539450" lon="-8.6099480">
        <ele>80.8</ele>
        <time>2022-06-18T09:46:22Z</time>
      </trkpt>
      <trkpt lat="42.2539810" lon="-8.6098700">
        <ele>80.8</ele>
        <time>2022-06-18T09:46:23Z</time>
      </trkpt>
      <trkpt lat="42.2540110" lon="-8.6097850">
        <ele>79.8</ele>
        <time>2022-06-18T09:46:24Z</time>
      </trkpt>
      <trkpt lat="42.2540350" lon="-8.6097010">
        <ele>75.2</ele>
        <time>2022-06-18T09:46:25Z</time>
      </trkpt>
      <trkpt lat="42.2540580" lon="-8.6096210">
        <ele>75.2</ele>
        <time>2022-06-18T09:46:26Z</time>
      </trkpt>
      <trkpt lat="42.2540810" lon="-8.6095500">
        <ele>75.2</ele>
        <time>2022-06-18T09:46:27Z</time>
      </trkpt>
      <trkpt lat="42.2541050" lon="-8.6094830">
        <ele>74.6</ele>
        <time>2022-06-18T09:46:28Z</time>
      </trkpt>
      <trkpt lat="42.2541260" lon="-8.6094230">
        <ele>72.0</ele>
        <time>2022-06-18T09:46:29Z</time>
      </trkpt>
      <trkpt lat="42.2541510" lon="-8.6093730">
        <ele>72.0</ele>
        <time>2022-06-18T09:46:30Z</time>
      </trkpt>
      <trkpt lat="42.2541750" lon="-8.6093300">
        <ele>72.0</ele>
        <time>2022-06-18T09:46:31Z</time>
      </trkpt>
      <trkpt lat="42.2542030" lon="-8.6092950">
        <ele>71.0</ele>
        <time>2022-06-18T09:46:32Z</time>
      </trkpt>
      <trkpt lat="42.2542400" lon="-8.6092850">
        <ele>68.8</ele>
        <time>2022-06-18T09:46:33Z</time>
      </trkpt>
      <trkpt lat="42.2542800" lon="-8.6093030">
        <ele>68.8</ele>
        <time>2022-06-18T09:46:34Z</time>
      </trkpt>
      <trkpt lat="42.2543250" lon="-8.6093480">
        <ele>68.8</ele>
        <time>2022-06-18T09:46:35Z</time>
      </trkpt>
      <trkpt lat="42.2543630" lon="-8.6094030">
        <ele>67.8</ele>
        <time>2022-06-18T09:46:36Z</time>
      </trkpt>
      <trkpt lat="42.2544150" lon="-8.6094710">
        <ele>62.8</ele>
        <time>2022-06-18T09:46:37Z</time>
      </trkpt>
      <trkpt lat="42.2544780" lon="-8.6095400">
        <ele>62.8</ele>
        <time>2022-06-18T09:46:38Z</time>
      </trkpt>
      <trkpt lat="42.2545550" lon="-8.6096080">
        <ele>62.8</ele>
        <time>2022-06-18T09:46:39Z</time>
      </trkpt>
      <trkpt lat="42.2546400" lon="-8.6096730">
        <ele>61.8</ele>
        <time>2022-06-18T09:46:40Z</time>
      </trkpt>
      <trkpt lat="42.2547280" lon="-8.6097330">
        <ele>53.8</ele>
        <time>2022-06-18T09:46:41Z</time>
      </trkpt>
      <trkpt lat="42.2548160" lon="-8.6097880">
        <ele>53.8</ele>
        <time>2022-06-18T09:46:42Z</time>
      </trkpt>
      <trkpt lat="42.2549000" lon="-8.6098500">
        <ele>53.8</ele>
        <time>2022-06-18T09:46:43Z</time>
      </trkpt>
      <trkpt lat="42.2549710" lon="-8.6099130">
        <ele>52.8</ele>
        <time>2022-06-18T09:46:44Z</time>
      </trkpt>
      <trkpt lat="42.2550460" lon="-8.6099680">
        <ele>52.4</ele>
        <time>2022-06-18T09:46:45Z</time>
      </trkpt>
      <trkpt lat="42.2551260" lon="-8.6100100">
        <ele>52.4</ele>
        <time>2022-06-18T09:46:46Z</time>
      </trkpt>
      <trkpt lat="42.2552150" lon="-8.6100280">
        <ele>52.4</ele>
        <time>2022-06-18T09:46:47Z</time>
      </trkpt>
      <trkpt lat="42.2553030" lon="-8.6100210">
        <ele>51.4</ele>
        <time>2022-06-18T09:46:48Z</time>
      </trkpt>
      <trkpt lat="42.2553880" lon="-8.6100080">
        <ele>47.8</ele>
        <time>2022-06-18T09:46:49Z</time>
      </trkpt>
      <trkpt lat="42.2554830" lon="-8.6099960">
        <ele>47.8</ele>
        <time>2022-06-18T09:46:50Z</time>
      </trkpt>
      <trkpt lat="42.2555800" lon="-8.6099830">
        <ele>47.8</ele>
        <time>2022-06-18T09:46:51Z</time>
      </trkpt>
      <trkpt lat="42.2556800" lon="-8.6099550">
        <ele>46.8</ele>
        <time>2022-06-18T09:46:52Z</time>
      </trkpt>
      <trkpt lat="42.2557730" lon="-8.6099060">
        <ele>42.6</ele>
        <time>2022-06-18T09:46:53Z</time>
      </trkpt>
      <trkpt lat="42.2558560" lon="-8.6098330">
        <ele>42.6</ele>
        <time>2022-06-18T09:46:54Z</time>
      </trkpt>
      <trkpt lat="42.2559310" lon="-8.6097510">
        <ele>42.6</ele>
        <time>2022-06-18T09:46:55Z</time>
      </trkpt>
      <trkpt lat="42.2560050" lon="-8.6096710">
        <ele>42.6</ele>
        <time>2022-06-18T09:46:56Z</time>
      </trkpt>
      <trkpt lat="42.2560810" lon="-8.6096010">
        <ele>42.6</ele>
        <time>2022-06-18T09:46:57Z</time>
      </trkpt>
      <trkpt lat="42.2561600" lon="-8.6095360">
        <ele>42.6</ele>
        <time>2022-06-18T09:46:58Z</time>
      </trkpt>
      <trkpt lat="42.2562360" lon="-8.6094760">
        <ele>42.6</ele>
        <time>2022-06-18T09:46:59Z</time>
      </trkpt>
      <trkpt lat="42.2563160" lon="-8.6094250">
        <ele>42.6</ele>
        <time>2022-06-18T09:47:00Z</time>
      </trkpt>
      <trkpt lat="42.2563950" lon="-8.6093760">
        <ele>42.0</ele>
        <time>2022-06-18T09:47:01Z</time>
      </trkpt>
      <trkpt lat="42.2564680" lon="-8.6093260">
        <ele>42.0</ele>
        <time>2022-06-18T09:47:02Z</time>
      </trkpt>
      <trkpt lat="42.2565380" lon="-8.6092710">
        <ele>42.0</ele>
        <time>2022-06-18T09:47:03Z</time>
      </trkpt>
      <trkpt lat="42.2566080" lon="-8.6092160">
        <ele>42.0</ele>
        <time>2022-06-18T09:47:04Z</time>
      </trkpt>
      <trkpt lat="42.2566750" lon="-8.6091660">
        <ele>42.2</ele>
        <time>2022-06-18T09:47:05Z</time>
      </trkpt>
      <trkpt lat="42.2567400" lon="-8.6091160">
        <ele>42.2</ele>
        <time>2022-06-18T09:47:06Z</time>
      </trkpt>
      <trkpt lat="42.2568060" lon="-8.6090700">
        <ele>42.2</ele>
        <time>2022-06-18T09:47:07Z</time>
      </trkpt>
      <trkpt lat="42.2568700" lon="-8.6090210">
        <ele>42.6</ele>
        <time>2022-06-18T09:47:08Z</time>
      </trkpt>
      <trkpt lat="42.2569360" lon="-8.6089810">
        <ele>43.0</ele>
        <time>2022-06-18T09:47:09Z</time>
      </trkpt>
      <trkpt lat="42.2570010" lon="-8.6089460">
        <ele>43.0</ele>
        <time>2022-06-18T09:47:10Z</time>
      </trkpt>
      <trkpt lat="42.2570660" lon="-8.6089150">
        <ele>43.0</ele>
        <time>2022-06-18T09:47:11Z</time>
      </trkpt>
      <trkpt lat="42.2571300" lon="-8.6088850">
        <ele>43.0</ele>
        <time>2022-06-18T09:47:12Z</time>
      </trkpt>
      <trkpt lat="42.2571910" lon="-8.6088530">
        <ele>43.0</ele>
        <time>2022-06-18T09:47:13Z</time>
      </trkpt>
      <trkpt lat="42.2572510" lon="-8.6088260">
        <ele>43.0</ele>
        <time>2022-06-18T09:47:14Z</time>
      </trkpt>
      <trkpt lat="42.2573110" lon="-8.6088010">
        <ele>43.0</ele>
        <time>2022-06-18T09:47:15Z</time>
      </trkpt>
      <trkpt lat="42.2573680" lon="-8.6087730">
        <ele>43.0</ele>
        <time>2022-06-18T09:47:16Z</time>
      </trkpt>
      <trkpt lat="42.2574250" lon="-8.6087450">
        <ele>43.8</ele>
        <time>2022-06-18T09:47:17Z</time>
      </trkpt>
      <trkpt lat="42.2574780" lon="-8.6087230">
        <ele>43.8</ele>
        <time>2022-06-18T09:47:18Z</time>
      </trkpt>
      <trkpt lat="42.2575300" lon="-8.6087050">
        <ele>43.8</ele>
        <time>2022-06-18T09:47:19Z</time>
      </trkpt>
      <trkpt lat="42.2575780" lon="-8.6086860">
        <ele>44.8</ele>
        <time>2022-06-18T09:47:20Z</time>
      </trkpt>
      <trkpt lat="42.2576260" lon="-8.6086660">
        <ele>45.0</ele>
        <time>2022-06-18T09:47:21Z</time>
      </trkpt>
      <trkpt lat="42.2576710" lon="-8.6086450">
        <ele>45.0</ele>
        <time>2022-06-18T09:47:22Z</time>
      </trkpt>
      <trkpt lat="42.2577160" lon="-8.6086180">
        <ele>45.0</ele>
        <time>2022-06-18T09:47:23Z</time>
      </trkpt>
      <trkpt lat="42.2577610" lon="-8.6085930">
        <ele>45.0</ele>
        <time>2022-06-18T09:47:24Z</time>
      </trkpt>
      <trkpt lat="42.2578050" lon="-8.6085710">
        <ele>45.2</ele>
        <time>2022-06-18T09:47:25Z</time>
      </trkpt>
      <trkpt lat="42.2578480" lon="-8.6085500">
        <ele>45.2</ele>
        <time>2022-06-18T09:47:26Z</time>
      </trkpt>
      <trkpt lat="42.2578930" lon="-8.6085300">
        <ele>45.2</ele>
        <time>2022-06-18T09:47:27Z</time>
      </trkpt>
      <trkpt lat="42.2579350" lon="-8.6085130">
        <ele>45.2</ele>
        <time>2022-06-18T09:47:28Z</time>
      </trkpt>
      <trkpt lat="42.2579800" lon="-8.6084960">
        <ele>45.6</ele>
        <time>2022-06-18T09:47:29Z</time>
      </trkpt>
      <trkpt lat="42.2580250" lon="-8.6084800">
        <ele>45.6</ele>
        <time>2022-06-18T09:47:30Z</time>
      </trkpt>
      <trkpt lat="42.2580710" lon="-8.6084650">
        <ele>45.6</ele>
        <time>2022-06-18T09:47:31Z</time>
      </trkpt>
      <trkpt lat="42.2581200" lon="-8.6084480">
        <ele>45.0</ele>
        <time>2022-06-18T09:47:32Z</time>
      </trkpt>
      <trkpt lat="42.2581700" lon="-8.6084310">
        <ele>44.6</ele>
        <time>2022-06-18T09:47:33Z</time>
      </trkpt>
      <trkpt lat="42.2582210" lon="-8.6084150">
        <ele>44.6</ele>
        <time>2022-06-18T09:47:34Z</time>
      </trkpt>
      <trkpt lat="42.2582750" lon="-8.6083980">
        <ele>44.6</ele>
        <time>2022-06-18T09:47:35Z</time>
      </trkpt>
      <trkpt lat="42.2583280" lon="-8.6083810">
        <ele>44.0</ele>
        <time>2022-06-18T09:47:36Z</time>
      </trkpt>
      <trkpt lat="42.2583810" lon="-8.6083700">
        <ele>43.8</ele>
        <time>2022-06-18T09:47:37Z</time>
      </trkpt>
      <trkpt lat="42.2584330" lon="-8.6083550">
        <ele>43.8</ele>
        <time>2022-06-18T09:47:38Z</time>
      </trkpt>
      <trkpt lat="42.2584860" lon="-8.6083330">
        <ele>43.8</ele>
        <time>2022-06-18T09:47:39Z</time>
      </trkpt>
      <trkpt lat="42.2585380" lon="-8.6083130">
        <ele>43.8</ele>
        <time>2022-06-18T09:47:40Z</time>
      </trkpt>
      <trkpt lat="42.2585910" lon="-8.6082910">
        <ele>43.6</ele>
        <time>2022-06-18T09:47:41Z</time>
      </trkpt>
      <trkpt lat="42.2586410" lon="-8.6082700">
        <ele>43.6</ele>
        <time>2022-06-18T09:47:42Z</time>
      </trkpt>
      <trkpt lat="42.2586930" lon="-8.6082460">
        <ele>43.6</ele>
        <time>2022-06-18T09:47:43Z</time>
      </trkpt>
      <trkpt lat="42.2587430" lon="-8.6082260">
        <ele>43.6</ele>
        <time>2022-06-18T09:47:44Z</time>
      </trkpt>
      <trkpt lat="42.2587930" lon="-8.6082060">
        <ele>42.8</ele>
        <time>2022-06-18T09:47:45Z</time>
      </trkpt>
      <trkpt lat="42.2588400" lon="-8.6081880">
        <ele>42.8</ele>
        <time>2022-06-18T09:47:46Z</time>
      </trkpt>
      <trkpt lat="42.2588860" lon="-8.6081680">
        <ele>42.8</ele>
        <time>2022-06-18T09:47:47Z</time>
      </trkpt>
      <trkpt lat="42.2589330" lon="-8.6081460">
        <ele>43.4</ele>
        <time>2022-06-18T09:47:48Z</time>
      </trkpt>
      <trkpt lat="42.2589800" lon="-8.6081250">
        <ele>43.2</ele>
        <time>2022-06-18T09:47:49Z</time>
      </trkpt>
      <trkpt lat="42.2590260" lon="-8.6081030">
        <ele>43.2</ele>
        <time>2022-06-18T09:47:50Z</time>
      </trkpt>
      <trkpt lat="42.2590730" lon="-8.6080900">
        <ele>43.2</ele>
        <time>2022-06-18T09:47:51Z</time>
      </trkpt>
      <trkpt lat="42.2591210" lon="-8.6080780">
        <ele>43.2</ele>
        <time>2022-06-18T09:47:52Z</time>
      </trkpt>
      <trkpt lat="42.2591730" lon="-8.6080700">
        <ele>42.8</ele>
        <time>2022-06-18T09:47:53Z</time>
      </trkpt>
      <trkpt lat="42.2592250" lon="-8.6080610">
        <ele>42.8</ele>
        <time>2022-06-18T09:47:54Z</time>
      </trkpt>
      <trkpt lat="42.2592730" lon="-8.6080550">
        <ele>42.8</ele>
        <time>2022-06-18T09:47:55Z</time>
      </trkpt>
      <trkpt lat="42.2593210" lon="-8.6080460">
        <ele>42.8</ele>
        <time>2022-06-18T09:47:56Z</time>
      </trkpt>
      <trkpt lat="42.2593680" lon="-8.6080330">
        <ele>43.6</ele>
        <time>2022-06-18T09:47:57Z</time>
      </trkpt>
      <trkpt lat="42.2594150" lon="-8.6080200">
        <ele>43.6</ele>
        <time>2022-06-18T09:47:58Z</time>
      </trkpt>
      <trkpt lat="42.2594580" lon="-8.6080010">
        <ele>43.6</ele>
        <time>2022-06-18T09:47:59Z</time>
      </trkpt>
      <trkpt lat="42.2595010" lon="-8.6079780">
        <ele>43.6</ele>
        <time>2022-06-18T09:48:00Z</time>
      </trkpt>
      <trkpt lat="42.2595450" lon="-8.6079550">
        <ele>45.0</ele>
        <time>2022-06-18T09:48:01Z</time>
      </trkpt>
      <trkpt lat="42.2595850" lon="-8.6079300">
        <ele>45.0</ele>
        <time>2022-06-18T09:48:02Z</time>
      </trkpt>
      <trkpt lat="42.2596230" lon="-8.6079060">
        <ele>45.0</ele>
        <time>2022-06-18T09:48:03Z</time>
      </trkpt>
      <trkpt lat="42.2596580" lon="-8.6078850">
        <ele>44.6</ele>
        <time>2022-06-18T09:48:04Z</time>
      </trkpt>
      <trkpt lat="42.2596950" lon="-8.6078710">
        <ele>44.4</ele>
        <time>2022-06-18T09:48:05Z</time>
      </trkpt>
      <trkpt lat="42.2597300" lon="-8.6078660">
        <ele>44.4</ele>
        <time>2022-06-18T09:48:06Z</time>
      </trkpt>
      <trkpt lat="42.2597650" lon="-8.6078660">
        <ele>44.4</ele>
        <time>2022-06-18T09:48:07Z</time>
      </trkpt>
      <trkpt lat="42.2598010" lon="-8.6078660">
        <ele>44.6</ele>
        <time>2022-06-18T09:48:08Z</time>
      </trkpt>
      <trkpt lat="42.2598410" lon="-8.6078660">
        <ele>44.6</ele>
        <time>2022-06-18T09:48:09Z</time>
      </trkpt>
      <trkpt lat="42.2598830" lon="-8.6078650">
        <ele>44.6</ele>
        <time>2022-06-18T09:48:10Z</time>
      </trkpt>
      <trkpt lat="42.2599280" lon="-8.6078630">
        <ele>44.6</ele>
        <time>2022-06-18T09:48:11Z</time>
      </trkpt>
      <trkpt lat="42.2599730" lon="-8.6078580">
        <ele>44.0</ele>
        <time>2022-06-18T09:48:12Z</time>
      </trkpt>
      <trkpt lat="42.2600160" lon="-8.6078550">
        <ele>44.2</ele>
        <time>2022-06-18T09:48:13Z</time>
      </trkpt>
      <trkpt lat="42.2600630" lon="-8.6078550">
        <ele>44.2</ele>
        <time>2022-06-18T09:48:14Z</time>
      </trkpt>
      <trkpt lat="42.2601100" lon="-8.6078580">
        <ele>44.2</ele>
        <time>2022-06-18T09:48:15Z</time>
      </trkpt>
      <trkpt lat="42.2601580" lon="-8.6078600">
        <ele>43.8</ele>
        <time>2022-06-18T09:48:16Z</time>
      </trkpt>
      <trkpt lat="42.2602080" lon="-8.6078610">
        <ele>44.0</ele>
        <time>2022-06-18T09:48:17Z</time>
      </trkpt>
      <trkpt lat="42.2602580" lon="-8.6078650">
        <ele>44.0</ele>
        <time>2022-06-18T09:48:18Z</time>
      </trkpt>
      <trkpt lat="42.2603060" lon="-8.6078680">
        <ele>44.0</ele>
        <time>2022-06-18T09:48:19Z</time>
      </trkpt>
      <trkpt lat="42.2603550" lon="-8.6078750">
        <ele>44.0</ele>
        <time>2022-06-18T09:48:20Z</time>
      </trkpt>
      <trkpt lat="42.2604000" lon="-8.6078850">
        <ele>44.0</ele>
        <time>2022-06-18T09:48:21Z</time>
      </trkpt>
      <trkpt lat="42.2604450" lon="-8.6078930">
        <ele>44.0</ele>
        <time>2022-06-18T09:48:22Z</time>
      </trkpt>
      <trkpt lat="42.2604880" lon="-8.6079000">
        <ele>44.0</ele>
        <time>2022-06-18T09:48:23Z</time>
      </trkpt>
      <trkpt lat="42.2605350" lon="-8.6079050">
        <ele>44.0</ele>
        <time>2022-06-18T09:48:24Z</time>
      </trkpt>
      <trkpt lat="42.2605800" lon="-8.6079110">
        <ele>43.6</ele>
        <time>2022-06-18T09:48:25Z</time>
      </trkpt>
      <trkpt lat="42.2606280" lon="-8.6079180">
        <ele>43.6</ele>
        <time>2022-06-18T09:48:26Z</time>
      </trkpt>
      <trkpt lat="42.2606780" lon="-8.6079180">
        <ele>43.6</ele>
        <time>2022-06-18T09:48:27Z</time>
      </trkpt>
      <trkpt lat="42.2607280" lon="-8.6079180">
        <ele>43.0</ele>
        <time>2022-06-18T09:48:28Z</time>
      </trkpt>
      <trkpt lat="42.2607780" lon="-8.6079200">
        <ele>42.8</ele>
        <time>2022-06-18T09:48:29Z</time>
      </trkpt>
      <trkpt lat="42.2608280" lon="-8.6079200">
        <ele>42.8</ele>
        <time>2022-06-18T09:48:30Z</time>
      </trkpt>
      <trkpt lat="42.2608800" lon="-8.6079160">
        <ele>42.8</ele>
        <time>2022-06-18T09:48:31Z</time>
      </trkpt>
      <trkpt lat="42.2609300" lon="-8.6079130">
        <ele>42.8</ele>
        <time>2022-06-18T09:48:32Z</time>
      </trkpt>
      <trkpt lat="42.2609810" lon="-8.6079050">
        <ele>42.6</ele>
        <time>2022-06-18T09:48:33Z</time>
      </trkpt>
      <trkpt lat="42.2610310" lon="-8.6078950">
        <ele>42.6</ele>
        <time>2022-06-18T09:48:34Z</time>
      </trkpt>
      <trkpt lat="42.2610800" lon="-8.6078800">
        <ele>42.6</ele>
        <time>2022-06-18T09:48:35Z</time>
      </trkpt>
      <trkpt lat="42.2611280" lon="-8.6078630">
        <ele>42.6</ele>
        <time>2022-06-18T09:48:36Z</time>
      </trkpt>
      <trkpt lat="42.2611750" lon="-8.6078450">
        <ele>42.8</ele>
        <time>2022-06-18T09:48:37Z</time>
      </trkpt>
      <trkpt lat="42.2612200" lon="-8.6078300">
        <ele>42.8</ele>
        <time>2022-06-18T09:48:38Z</time>
      </trkpt>
      <trkpt lat="42.2612630" lon="-8.6078130">
        <ele>42.8</ele>
        <time>2022-06-18T09:48:39Z</time>
      </trkpt>
      <trkpt lat="42.2613060" lon="-8.6077910">
        <ele>42.8</ele>
        <time>2022-06-18T09:48:40Z</time>
      </trkpt>
      <trkpt lat="42.2613480" lon="-8.6077680">
        <ele>42.2</ele>
        <time>2022-06-18T09:48:41Z</time>
      </trkpt>
      <trkpt lat="42.2613960" lon="-8.6077430">
        <ele>42.2</ele>
        <time>2022-06-18T09:48:42Z</time>
      </trkpt>
      <trkpt lat="42.2614450" lon="-8.6077180">
        <ele>42.2</ele>
        <time>2022-06-18T09:48:43Z</time>
      </trkpt>
      <trkpt lat="42.2614950" lon="-8.6076980">
        <ele>42.2</ele>
        <time>2022-06-18T09:48:44Z</time>
      </trkpt>
      <trkpt lat="42.2615430" lon="-8.6076800">
        <ele>42.4</ele>
        <time>2022-06-18T09:48:45Z</time>
      </trkpt>
      <trkpt lat="42.2615950" lon="-8.6076630">
        <ele>42.4</ele>
        <time>2022-06-18T09:48:46Z</time>
      </trkpt>
      <trkpt lat="42.2616460" lon="-8.6076460">
        <ele>42.4</ele>
        <time>2022-06-18T09:48:47Z</time>
      </trkpt>
      <trkpt lat="42.2616960" lon="-8.6076280">
        <ele>42.2</ele>
        <time>2022-06-18T09:48:48Z</time>
      </trkpt>
      <trkpt lat="42.2617510" lon="-8.6076130">
        <ele>42.2</ele>
        <time>2022-06-18T09:48:49Z</time>
      </trkpt>
      <trkpt lat="42.2618050" lon="-8.6075980">
        <ele>42.2</ele>
        <time>2022-06-18T09:48:50Z</time>
      </trkpt>
      <trkpt lat="42.2618600" lon="-8.6075860">
        <ele>42.2</ele>
        <time>2022-06-18T09:48:51Z</time>
      </trkpt>
      <trkpt lat="42.2619160" lon="-8.6075730">
        <ele>41.4</ele>
        <time>2022-06-18T09:48:52Z</time>
      </trkpt>
      <trkpt lat="42.2619730" lon="-8.6075630">
        <ele>42.0</ele>
        <time>2022-06-18T09:48:53Z</time>
      </trkpt>
      <trkpt lat="42.2620310" lon="-8.6075550">
        <ele>42.0</ele>
        <time>2022-06-18T09:48:54Z</time>
      </trkpt>
      <trkpt lat="42.2620900" lon="-8.6075500">
        <ele>42.0</ele>
        <time>2022-06-18T09:48:55Z</time>
      </trkpt>
      <trkpt lat="42.2621500" lon="-8.6075480">
        <ele>41.8</ele>
        <time>2022-06-18T09:48:56Z</time>
      </trkpt>
      <trkpt lat="42.2622100" lon="-8.6075500">
        <ele>41.4</ele>
        <time>2022-06-18T09:48:57Z</time>
      </trkpt>
      <trkpt lat="42.2622710" lon="-8.6075560">
        <ele>41.4</ele>
        <time>2022-06-18T09:48:58Z</time>
      </trkpt>
      <trkpt lat="42.2623310" lon="-8.6075630">
        <ele>41.4</ele>
        <time>2022-06-18T09:48:59Z</time>
      </trkpt>
      <trkpt lat="42.2623900" lon="-8.6075710">
        <ele>40.8</ele>
        <time>2022-06-18T09:49:00Z</time>
      </trkpt>
      <trkpt lat="42.2624480" lon="-8.6075810">
        <ele>41.2</ele>
        <time>2022-06-18T09:49:01Z</time>
      </trkpt>
      <trkpt lat="42.2625060" lon="-8.6075960">
        <ele>41.2</ele>
        <time>2022-06-18T09:49:02Z</time>
      </trkpt>
      <trkpt lat="42.2625630" lon="-8.6076180">
        <ele>41.2</ele>
        <time>2022-06-18T09:49:03Z</time>
      </trkpt>
      <trkpt lat="42.2626160" lon="-8.6076430">
        <ele>41.0</ele>
        <time>2022-06-18T09:49:04Z</time>
      </trkpt>
      <trkpt lat="42.2626700" lon="-8.6076700">
        <ele>41.2</ele>
        <time>2022-06-18T09:49:05Z</time>
      </trkpt>
      <trkpt lat="42.2627230" lon="-8.6076930">
        <ele>41.2</ele>
        <time>2022-06-18T09:49:06Z</time>
      </trkpt>
      <trkpt lat="42.2627760" lon="-8.6077210">
        <ele>41.2</ele>
        <time>2022-06-18T09:49:07Z</time>
      </trkpt>
      <trkpt lat="42.2628300" lon="-8.6077580">
        <ele>40.2</ele>
        <time>2022-06-18T09:49:08Z</time>
      </trkpt>
      <trkpt lat="42.2628850" lon="-8.6077930">
        <ele>40.2</ele>
        <time>2022-06-18T09:49:09Z</time>
      </trkpt>
      <trkpt lat="42.2629430" lon="-8.6078280">
        <ele>40.2</ele>
        <time>2022-06-18T09:49:10Z</time>
      </trkpt>
      <trkpt lat="42.2630010" lon="-8.6078610">
        <ele>40.2</ele>
        <time>2022-06-18T09:49:11Z</time>
      </trkpt>
      <trkpt lat="42.2630600" lon="-8.6078950">
        <ele>40.2</ele>
        <time>2022-06-18T09:49:12Z</time>
      </trkpt>
      <trkpt lat="42.2631230" lon="-8.6079210">
        <ele>40.0</ele>
        <time>2022-06-18T09:49:13Z</time>
      </trkpt>
      <trkpt lat="42.2631880" lon="-8.6079410">
        <ele>40.0</ele>
        <time>2022-06-18T09:49:14Z</time>
      </trkpt>
      <trkpt lat="42.2632530" lon="-8.6079510">
        <ele>40.0</ele>
        <time>2022-06-18T09:49:15Z</time>
      </trkpt>
      <trkpt lat="42.2633160" lon="-8.6079580">
        <ele>39.2</ele>
        <time>2022-06-18T09:49:16Z</time>
      </trkpt>
      <trkpt lat="42.2633810" lon="-8.6079630">
        <ele>38.8</ele>
        <time>2022-06-18T09:49:17Z</time>
      </trkpt>
      <trkpt lat="42.2634460" lon="-8.6079680">
        <ele>38.8</ele>
        <time>2022-06-18T09:49:18Z</time>
      </trkpt>
      <trkpt lat="42.2635110" lon="-8.6079750">
        <ele>38.8</ele>
        <time>2022-06-18T09:49:19Z</time>
      </trkpt>
      <trkpt lat="42.2635730" lon="-8.6079850">
        <ele>38.8</ele>
        <time>2022-06-18T09:49:20Z</time>
      </trkpt>
      <trkpt lat="42.2636380" lon="-8.6079960">
        <ele>39.0</ele>
        <time>2022-06-18T09:49:21Z</time>
      </trkpt>
      <trkpt lat="42.2637030" lon="-8.6080060">
        <ele>39.0</ele>
        <time>2022-06-18T09:49:22Z</time>
      </trkpt>
      <trkpt lat="42.2637630" lon="-8.6080160">
        <ele>39.0</ele>
        <time>2022-06-18T09:49:23Z</time>
      </trkpt>
      <trkpt lat="42.2638250" lon="-8.6080280">
        <ele>39.0</ele>
        <time>2022-06-18T09:49:24Z</time>
      </trkpt>
      <trkpt lat="42.2638880" lon="-8.6080410">
        <ele>39.6</ele>
        <time>2022-06-18T09:49:25Z</time>
      </trkpt>
      <trkpt lat="42.2639480" lon="-8.6080560">
        <ele>39.6</ele>
        <time>2022-06-18T09:49:26Z</time>
      </trkpt>
      <trkpt lat="42.2640100" lon="-8.6080730">
        <ele>39.6</ele>
        <time>2022-06-18T09:49:27Z</time>
      </trkpt>
      <trkpt lat="42.2640700" lon="-8.6080880">
        <ele>38.8</ele>
        <time>2022-06-18T09:49:28Z</time>
      </trkpt>
      <trkpt lat="42.2641310" lon="-8.6081060">
        <ele>38.8</ele>
        <time>2022-06-18T09:49:29Z</time>
      </trkpt>
      <trkpt lat="42.2641950" lon="-8.6081260">
        <ele>38.8</ele>
        <time>2022-06-18T09:49:30Z</time>
      </trkpt>
      <trkpt lat="42.2642580" lon="-8.6081410">
        <ele>38.8</ele>
        <time>2022-06-18T09:49:31Z</time>
      </trkpt>
      <trkpt lat="42.2643210" lon="-8.6081610">
        <ele>38.8</ele>
        <time>2022-06-18T09:49:32Z</time>
      </trkpt>
      <trkpt lat="42.2643830" lon="-8.6081810">
        <ele>38.4</ele>
        <time>2022-06-18T09:49:33Z</time>
      </trkpt>
      <trkpt lat="42.2644430" lon="-8.6081950">
        <ele>38.4</ele>
        <time>2022-06-18T09:49:34Z</time>
      </trkpt>
      <trkpt lat="42.2645050" lon="-8.6082030">
        <ele>38.4</ele>
        <time>2022-06-18T09:49:35Z</time>
      </trkpt>
      <trkpt lat="42.2645660" lon="-8.6082100">
        <ele>38.4</ele>
        <time>2022-06-18T09:49:36Z</time>
      </trkpt>
      <trkpt lat="42.2646300" lon="-8.6082150">
        <ele>38.0</ele>
        <time>2022-06-18T09:49:37Z</time>
      </trkpt>
      <trkpt lat="42.2646930" lon="-8.6082180">
        <ele>38.0</ele>
        <time>2022-06-18T09:49:38Z</time>
      </trkpt>
      <trkpt lat="42.2647560" lon="-8.6082200">
        <ele>38.0</ele>
        <time>2022-06-18T09:49:39Z</time>
      </trkpt>
      <trkpt lat="42.2648150" lon="-8.6082250">
        <ele>38.0</ele>
        <time>2022-06-18T09:49:40Z</time>
      </trkpt>
      <trkpt lat="42.2648750" lon="-8.6082280">
        <ele>38.4</ele>
        <time>2022-06-18T09:49:41Z</time>
      </trkpt>
      <trkpt lat="42.2649330" lon="-8.6082350">
        <ele>38.4</ele>
        <time>2022-06-18T09:49:42Z</time>
      </trkpt>
      <trkpt lat="42.2649900" lon="-8.6082410">
        <ele>38.4</ele>
        <time>2022-06-18T09:49:43Z</time>
      </trkpt>
      <trkpt lat="42.2650460" lon="-8.6082450">
        <ele>38.4</ele>
        <time>2022-06-18T09:49:44Z</time>
      </trkpt>
      <trkpt lat="42.2651010" lon="-8.6082500">
        <ele>38.8</ele>
        <time>2022-06-18T09:49:45Z</time>
      </trkpt>
      <trkpt lat="42.2651530" lon="-8.6082580">
        <ele>38.8</ele>
        <time>2022-06-18T09:49:46Z</time>
      </trkpt>
      <trkpt lat="42.2652060" lon="-8.6082650">
        <ele>38.8</ele>
        <time>2022-06-18T09:49:47Z</time>
      </trkpt>
      <trkpt lat="42.2652580" lon="-8.6082750">
        <ele>39.8</ele>
        <time>2022-06-18T09:49:48Z</time>
      </trkpt>
      <trkpt lat="42.2653050" lon="-8.6082880">
        <ele>40.2</ele>
        <time>2022-06-18T09:49:49Z</time>
      </trkpt>
      <trkpt lat="42.2653530" lon="-8.6083060">
        <ele>40.2</ele>
        <time>2022-06-18T09:49:50Z</time>
      </trkpt>
      <trkpt lat="42.2653980" lon="-8.6083310">
        <ele>40.2</ele>
        <time>2022-06-18T09:49:51Z</time>
      </trkpt>
      <trkpt lat="42.2654430" lon="-8.6083610">
        <ele>39.8</ele>
        <time>2022-06-18T09:49:52Z</time>
      </trkpt>
      <trkpt lat="42.2654850" lon="-8.6083930">
        <ele>39.4</ele>
        <time>2022-06-18T09:49:53Z</time>
      </trkpt>
      <trkpt lat="42.2655300" lon="-8.6084230">
        <ele>39.4</ele>
        <time>2022-06-18T09:49:54Z</time>
      </trkpt>
      <trkpt lat="42.2655760" lon="-8.6084480">
        <ele>39.4</ele>
        <time>2022-06-18T09:49:55Z</time>
      </trkpt>
      <trkpt lat="42.2656250" lon="-8.6084710">
        <ele>39.6</ele>
        <time>2022-06-18T09:49:56Z</time>
      </trkpt>
      <trkpt lat="42.2656730" lon="-8.6085000">
        <ele>39.4</ele>
        <time>2022-06-18T09:49:57Z</time>
      </trkpt>
      <trkpt lat="42.2657200" lon="-8.6085280">
        <ele>39.4</ele>
        <time>2022-06-18T09:49:58Z</time>
      </trkpt>
      <trkpt lat="42.2657660" lon="-8.6085510">
        <ele>39.4</ele>
        <time>2022-06-18T09:49:59Z</time>
      </trkpt>
      <trkpt lat="42.2658160" lon="-8.6085700">
        <ele>39.4</ele>
        <time>2022-06-18T09:50:00Z</time>
      </trkpt>
      <trkpt lat="42.2658660" lon="-8.6085880">
        <ele>38.8</ele>
        <time>2022-06-18T09:50:01Z</time>
      </trkpt>
      <trkpt lat="42.2659180" lon="-8.6086050">
        <ele>38.8</ele>
        <time>2022-06-18T09:50:02Z</time>
      </trkpt>
      <trkpt lat="42.2659660" lon="-8.6086250">
        <ele>38.8</ele>
        <time>2022-06-18T09:50:03Z</time>
      </trkpt>
      <trkpt lat="42.2660150" lon="-8.6086510">
        <ele>38.8</ele>
        <time>2022-06-18T09:50:04Z</time>
      </trkpt>
      <trkpt lat="42.2660610" lon="-8.6086780">
        <ele>38.2</ele>
        <time>2022-06-18T09:50:05Z</time>
      </trkpt>
      <trkpt lat="42.2661010" lon="-8.6087100">
        <ele>38.2</ele>
        <time>2022-06-18T09:50:06Z</time>
      </trkpt>
      <trkpt lat="42.2661410" lon="-8.6087410">
        <ele>38.2</ele>
        <time>2022-06-18T09:50:07Z</time>
      </trkpt>
      <trkpt lat="42.2661760" lon="-8.6087730">
        <ele>38.4</ele>
        <time>2022-06-18T09:50:08Z</time>
      </trkpt>
      <trkpt lat="42.2662010" lon="-8.6088010">
        <ele>39.2</ele>
        <time>2022-06-18T09:50:09Z</time>
      </trkpt>
      <trkpt lat="42.2662150" lon="-8.6088280">
        <ele>39.2</ele>
        <time>2022-06-18T09:50:10Z</time>
      </trkpt>
      <trkpt lat="42.2662200" lon="-8.6088560">
        <ele>39.2</ele>
        <time>2022-06-18T09:50:11Z</time>
      </trkpt>
      <trkpt lat="42.2662200" lon="-8.6088800">
        <ele>39.2</ele>
        <time>2022-06-18T09:50:12Z</time>
      </trkpt>
      <trkpt lat="42.2662150" lon="-8.6088950">
        <ele>39.2</ele>
        <time>2022-06-18T09:50:13Z</time>
      </trkpt>
      <trkpt lat="42.2662110" lon="-8.6089000">
        <ele>39.2</ele>
        <time>2022-06-18T09:50:14Z</time>
      </trkpt>
      <trkpt lat="42.2662110" lon="-8.6089080">
        <ele>39.2</ele>
        <time>2022-06-18T09:50:15Z</time>
      </trkpt>
      <trkpt lat="42.2662160" lon="-8.6089110">
        <ele>39.2</ele>
        <time>2022-06-18T09:50:16Z</time>
      </trkpt>
      <trkpt lat="42.2662200" lon="-8.6089150">
        <ele>39.2</ele>
        <time>2022-06-18T09:50:17Z</time>
      </trkpt>
      <trkpt lat="42.2662230" lon="-8.6089130">
        <ele>39.2</ele>
        <time>2022-06-18T09:50:18Z</time>
      </trkpt>
      <trkpt lat="42.2662250" lon="-8.6089050">
        <ele>40.0</ele>
        <time>2022-06-18T09:52:30Z</time>
      </trkpt>
      <trkpt lat="42.2662330" lon="-8.6089130">
        <ele>40.0</ele>
        <time>2022-06-18T09:52:31Z</time>
      </trkpt>
      <trkpt lat="42.2662330" lon="-8.6089130">
        <ele>40.0</ele>
        <time>2022-06-18T09:52:32Z</time>
      </trkpt>
      <trkpt lat="42.2662400" lon="-8.6089230">
        <ele>40.2</ele>
        <time>2022-06-18T09:52:33Z</time>
      </trkpt>
      <trkpt lat="42.2662410" lon="-8.6089350">
        <ele>40.2</ele>
        <time>2022-06-18T09:52:34Z</time>
      </trkpt>
      <trkpt lat="42.2662460" lon="-8.6089460">
        <ele>40.2</ele>
        <time>2022-06-18T09:52:35Z</time>
      </trkpt>
      <trkpt lat="42.2662480" lon="-8.6089510">
        <ele>40.2</ele>
        <time>2022-06-18T09:52:36Z</time>
      </trkpt>
      <trkpt lat="42.2663310" lon="-8.6089300">
        <ele>40.4</ele>
        <time>2022-06-18T09:54:06Z</time>
      </trkpt>
      <trkpt lat="42.2663460" lon="-8.6089280">
        <ele>40.4</ele>
        <time>2022-06-18T09:54:07Z</time>
      </trkpt>
      <trkpt lat="42.2663600" lon="-8.6089280">
        <ele>40.4</ele>
        <time>2022-06-18T09:54:08Z</time>
      </trkpt>
      <trkpt lat="42.2663800" lon="-8.6089150">
        <ele>39.8</ele>
        <time>2022-06-18T09:54:09Z</time>
      </trkpt>
      <trkpt lat="42.2664050" lon="-8.6089030">
        <ele>39.8</ele>
        <time>2022-06-18T09:54:10Z</time>
      </trkpt>
      <trkpt lat="42.2664350" lon="-8.6089080">
        <ele>39.8</ele>
        <time>2022-06-18T09:54:11Z</time>
      </trkpt>
      <trkpt lat="42.2664700" lon="-8.6089260">
        <ele>39.8</ele>
        <time>2022-06-18T09:54:12Z</time>
      </trkpt>
      <trkpt lat="42.2665050" lon="-8.6089410">
        <ele>39.8</ele>
        <time>2022-06-18T09:54:13Z</time>
      </trkpt>
      <trkpt lat="42.2665360" lon="-8.6089560">
        <ele>39.8</ele>
        <time>2022-06-18T09:54:14Z</time>
      </trkpt>
      <trkpt lat="42.2665700" lon="-8.6089700">
        <ele>39.8</ele>
        <time>2022-06-18T09:54:15Z</time>
      </trkpt>
      <trkpt lat="42.2666100" lon="-8.6089750">
        <ele>39.6</ele>
        <time>2022-06-18T09:54:16Z</time>
      </trkpt>
      <trkpt lat="42.2666500" lon="-8.6089810">
        <ele>39.4</ele>
        <time>2022-06-18T09:54:17Z</time>
      </trkpt>
      <trkpt lat="42.2666830" lon="-8.6090000">
        <ele>39.4</ele>
        <time>2022-06-18T09:54:18Z</time>
      </trkpt>
      <trkpt lat="42.2667180" lon="-8.6090230">
        <ele>39.4</ele>
        <time>2022-06-18T09:54:19Z</time>
      </trkpt>
      <trkpt lat="42.2667550" lon="-8.6090480">
        <ele>39.2</ele>
        <time>2022-06-18T09:54:20Z</time>
      </trkpt>
      <trkpt lat="42.2667910" lon="-8.6090710">
        <ele>39.0</ele>
        <time>2022-06-18T09:54:21Z</time>
      </trkpt>
      <trkpt lat="42.2668300" lon="-8.6090960">
        <ele>39.0</ele>
        <time>2022-06-18T09:54:22Z</time>
      </trkpt>
      <trkpt lat="42.2668730" lon="-8.6091180">
        <ele>39.0</ele>
        <time>2022-06-18T09:54:23Z</time>
      </trkpt>
      <trkpt lat="42.2669110" lon="-8.6091430">
        <ele>39.0</ele>
        <time>2022-06-18T09:54:24Z</time>
      </trkpt>
      <trkpt lat="42.2669480" lon="-8.6091700">
        <ele>39.2</ele>
        <time>2022-06-18T09:54:25Z</time>
      </trkpt>
      <trkpt lat="42.2669780" lon="-8.6092010">
        <ele>39.2</ele>
        <time>2022-06-18T09:54:26Z</time>
      </trkpt>
      <trkpt lat="42.2670080" lon="-8.6092300">
        <ele>39.2</ele>
        <time>2022-06-18T09:54:27Z</time>
      </trkpt>
      <trkpt lat="42.2670360" lon="-8.6092550">
        <ele>40.2</ele>
        <time>2022-06-18T09:54:28Z</time>
      </trkpt>
      <trkpt lat="42.2670660" lon="-8.6092730">
        <ele>40.6</ele>
        <time>2022-06-18T09:54:29Z</time>
      </trkpt>
      <trkpt lat="42.2670950" lon="-8.6092910">
        <ele>40.6</ele>
        <time>2022-06-18T09:54:30Z</time>
      </trkpt>
      <trkpt lat="42.2671210" lon="-8.6093060">
        <ele>40.6</ele>
        <time>2022-06-18T09:54:31Z</time>
      </trkpt>
      <trkpt lat="42.2671500" lon="-8.6093200">
        <ele>40.2</ele>
        <time>2022-06-18T09:54:32Z</time>
      </trkpt>
      <trkpt lat="42.2671710" lon="-8.6093400">
        <ele>40.6</ele>
        <time>2022-06-18T09:54:33Z</time>
      </trkpt>
      <trkpt lat="42.2671980" lon="-8.6093550">
        <ele>40.6</ele>
        <time>2022-06-18T09:54:34Z</time>
      </trkpt>
      <trkpt lat="42.2672230" lon="-8.6093680">
        <ele>40.6</ele>
        <time>2022-06-18T09:54:35Z</time>
      </trkpt>
      <trkpt lat="42.2672480" lon="-8.6093780">
        <ele>40.6</ele>
        <time>2022-06-18T09:54:36Z</time>
      </trkpt>
      <trkpt lat="42.2672800" lon="-8.6093880">
        <ele>41.2</ele>
        <time>2022-06-18T09:54:37Z</time>
      </trkpt>
      <trkpt lat="42.2673050" lon="-8.6094010">
        <ele>41.2</ele>
        <time>2022-06-18T09:54:38Z</time>
      </trkpt>
      <trkpt lat="42.2673250" lon="-8.6094080">
        <ele>41.2</ele>
        <time>2022-06-18T09:54:39Z</time>
      </trkpt>
      <trkpt lat="42.2673410" lon="-8.6094200">
        <ele>41.2</ele>
        <time>2022-06-18T09:54:40Z</time>
      </trkpt>
      <trkpt lat="42.2673610" lon="-8.6094300">
        <ele>41.2</ele>
        <time>2022-06-18T09:54:41Z</time>
      </trkpt>
      <trkpt lat="42.2673810" lon="-8.6094450">
        <ele>41.2</ele>
        <time>2022-06-18T09:54:42Z</time>
      </trkpt>
      <trkpt lat="42.2674030" lon="-8.6094660">
        <ele>41.2</ele>
        <time>2022-06-18T09:54:43Z</time>
      </trkpt>
      <trkpt lat="42.2674330" lon="-8.6094880">
        <ele>41.2</ele>
        <time>2022-06-18T09:54:44Z</time>
      </trkpt>
      <trkpt lat="42.2674630" lon="-8.6095100">
        <ele>41.0</ele>
        <time>2022-06-18T09:54:45Z</time>
      </trkpt>
      <trkpt lat="42.2674960" lon="-8.6095360">
        <ele>41.0</ele>
        <time>2022-06-18T09:54:46Z</time>
      </trkpt>
      <trkpt lat="42.2675300" lon="-8.6095530">
        <ele>41.0</ele>
        <time>2022-06-18T09:54:47Z</time>
      </trkpt>
      <trkpt lat="42.2675680" lon="-8.6095780">
        <ele>40.2</ele>
        <time>2022-06-18T09:54:48Z</time>
      </trkpt>
      <trkpt lat="42.2676130" lon="-8.6096010">
        <ele>40.0</ele>
        <time>2022-06-18T09:54:49Z</time>
      </trkpt>
      <trkpt lat="42.2676580" lon="-8.6096250">
        <ele>40.0</ele>
        <time>2022-06-18T09:54:50Z</time>
      </trkpt>
      <trkpt lat="42.2677060" lon="-8.6096360">
        <ele>40.0</ele>
        <time>2022-06-18T09:54:51Z</time>
      </trkpt>
      <trkpt lat="42.2677560" lon="-8.6096500">
        <ele>39.0</ele>
        <time>2022-06-18T09:54:52Z</time>
      </trkpt>
      <trkpt lat="42.2678060" lon="-8.6096650">
        <ele>38.8</ele>
        <time>2022-06-18T09:54:53Z</time>
      </trkpt>
      <trkpt lat="42.2678630" lon="-8.6096760">
        <ele>38.8</ele>
        <time>2022-06-18T09:54:54Z</time>
      </trkpt>
      <trkpt lat="42.2679160" lon="-8.6096900">
        <ele>38.8</ele>
        <time>2022-06-18T09:54:55Z</time>
      </trkpt>
      <trkpt lat="42.2679680" lon="-8.6097010">
        <ele>38.8</ele>
        <time>2022-06-18T09:54:56Z</time>
      </trkpt>
      <trkpt lat="42.2680210" lon="-8.6097130">
        <ele>39.2</ele>
        <time>2022-06-18T09:54:57Z</time>
      </trkpt>
      <trkpt lat="42.2680730" lon="-8.6097250">
        <ele>39.2</ele>
        <time>2022-06-18T09:54:58Z</time>
      </trkpt>
      <trkpt lat="42.2681200" lon="-8.6097350">
        <ele>39.2</ele>
        <time>2022-06-18T09:54:59Z</time>
      </trkpt>
      <trkpt lat="42.2681680" lon="-8.6097460">
        <ele>39.2</ele>
        <time>2022-06-18T09:55:00Z</time>
      </trkpt>
      <trkpt lat="42.2682110" lon="-8.6097580">
        <ele>39.2</ele>
        <time>2022-06-18T09:55:01Z</time>
      </trkpt>
      <trkpt lat="42.2682550" lon="-8.6097730">
        <ele>39.2</ele>
        <time>2022-06-18T09:55:02Z</time>
      </trkpt>
      <trkpt lat="42.2682980" lon="-8.6097860">
        <ele>39.2</ele>
        <time>2022-06-18T09:55:03Z</time>
      </trkpt>
      <trkpt lat="42.2683410" lon="-8.6098010">
        <ele>38.8</ele>
        <time>2022-06-18T09:55:04Z</time>
      </trkpt>
      <trkpt lat="42.2683830" lon="-8.6098200">
        <ele>39.2</ele>
        <time>2022-06-18T09:55:05Z</time>
      </trkpt>
      <trkpt lat="42.2684250" lon="-8.6098330">
        <ele>39.2</ele>
        <time>2022-06-18T09:55:06Z</time>
      </trkpt>
      <trkpt lat="42.2684650" lon="-8.6098500">
        <ele>39.2</ele>
        <time>2022-06-18T09:55:07Z</time>
      </trkpt>
      <trkpt lat="42.2685010" lon="-8.6098660">
        <ele>40.2</ele>
        <time>2022-06-18T09:55:08Z</time>
      </trkpt>
      <trkpt lat="42.2685380" lon="-8.6098810">
        <ele>39.6</ele>
        <time>2022-06-18T09:55:09Z</time>
      </trkpt>
      <trkpt lat="42.2685730" lon="-8.6098960">
        <ele>39.6</ele>
        <time>2022-06-18T09:55:10Z</time>
      </trkpt>
      <trkpt lat="42.2686080" lon="-8.6099110">
        <ele>39.6</ele>
        <time>2022-06-18T09:55:11Z</time>
      </trkpt>
      <trkpt lat="42.2686460" lon="-8.6099260">
        <ele>39.8</ele>
        <time>2022-06-18T09:55:12Z</time>
      </trkpt>
      <trkpt lat="42.2686880" lon="-8.6099410">
        <ele>39.2</ele>
        <time>2022-06-18T09:55:13Z</time>
      </trkpt>
      <trkpt lat="42.2687260" lon="-8.6099610">
        <ele>39.2</ele>
        <time>2022-06-18T09:55:14Z</time>
      </trkpt>
      <trkpt lat="42.2687680" lon="-8.6099850">
        <ele>39.2</ele>
        <time>2022-06-18T09:55:15Z</time>
      </trkpt>
      <trkpt lat="42.2688080" lon="-8.6100080">
        <ele>39.2</ele>
        <time>2022-06-18T09:55:16Z</time>
      </trkpt>
      <trkpt lat="42.2688480" lon="-8.6100330">
        <ele>39.0</ele>
        <time>2022-06-18T09:55:17Z</time>
      </trkpt>
      <trkpt lat="42.2688880" lon="-8.6100560">
        <ele>39.0</ele>
        <time>2022-06-18T09:55:18Z</time>
      </trkpt>
      <trkpt lat="42.2689330" lon="-8.6100830">
        <ele>39.0</ele>
        <time>2022-06-18T09:55:19Z</time>
      </trkpt>
      <trkpt lat="42.2689760" lon="-8.6101060">
        <ele>39.0</ele>
        <time>2022-06-18T09:55:20Z</time>
      </trkpt>
      <trkpt lat="42.2690160" lon="-8.6101280">
        <ele>39.2</ele>
        <time>2022-06-18T09:55:21Z</time>
      </trkpt>
      <trkpt lat="42.2690550" lon="-8.6101560">
        <ele>39.2</ele>
        <time>2022-06-18T09:55:22Z</time>
      </trkpt>
      <trkpt lat="42.2690910" lon="-8.6101880">
        <ele>39.2</ele>
        <time>2022-06-18T09:55:23Z</time>
      </trkpt>
      <trkpt lat="42.2691280" lon="-8.6102180">
        <ele>39.2</ele>
        <time>2022-06-18T09:55:24Z</time>
      </trkpt>
      <trkpt lat="42.2691700" lon="-8.6102500">
        <ele>38.6</ele>
        <time>2022-06-18T09:55:25Z</time>
      </trkpt>
      <trkpt lat="42.2692130" lon="-8.6102850">
        <ele>38.6</ele>
        <time>2022-06-18T09:55:26Z</time>
      </trkpt>
      <trkpt lat="42.2692580" lon="-8.6103210">
        <ele>38.6</ele>
        <time>2022-06-18T09:55:27Z</time>
      </trkpt>
      <trkpt lat="42.2693050" lon="-8.6103550">
        <ele>38.6</ele>
        <time>2022-06-18T09:55:28Z</time>
      </trkpt>
      <trkpt lat="42.2693500" lon="-8.6103900">
        <ele>37.2</ele>
        <time>2022-06-18T09:55:29Z</time>
      </trkpt>
      <trkpt lat="42.2693950" lon="-8.6104260">
        <ele>37.2</ele>
        <time>2022-06-18T09:55:30Z</time>
      </trkpt>
      <trkpt lat="42.2694400" lon="-8.6104630">
        <ele>37.2</ele>
        <time>2022-06-18T09:55:31Z</time>
      </trkpt>
      <trkpt lat="42.2694810" lon="-8.6104960">
        <ele>37.4</ele>
        <time>2022-06-18T09:55:32Z</time>
      </trkpt>
      <trkpt lat="42.2695230" lon="-8.6105280">
        <ele>37.2</ele>
        <time>2022-06-18T09:55:33Z</time>
      </trkpt>
      <trkpt lat="42.2695660" lon="-8.6105530">
        <ele>37.2</ele>
        <time>2022-06-18T09:55:34Z</time>
      </trkpt>
      <trkpt lat="42.2696130" lon="-8.6105730">
        <ele>37.2</ele>
        <time>2022-06-18T09:55:35Z</time>
      </trkpt>
      <trkpt lat="42.2696610" lon="-8.6105950">
        <ele>38.2</ele>
        <time>2022-06-18T09:55:36Z</time>
      </trkpt>
      <trkpt lat="42.2697110" lon="-8.6106160">
        <ele>37.8</ele>
        <time>2022-06-18T09:55:37Z</time>
      </trkpt>
      <trkpt lat="42.2697580" lon="-8.6106450">
        <ele>37.8</ele>
        <time>2022-06-18T09:55:38Z</time>
      </trkpt>
      <trkpt lat="42.2698080" lon="-8.6106700">
        <ele>37.8</ele>
        <time>2022-06-18T09:55:39Z</time>
      </trkpt>
      <trkpt lat="42.2698610" lon="-8.6107010">
        <ele>37.2</ele>
        <time>2022-06-18T09:55:40Z</time>
      </trkpt>
      <trkpt lat="42.2699150" lon="-8.6107310">
        <ele>37.0</ele>
        <time>2022-06-18T09:55:41Z</time>
      </trkpt>
      <trkpt lat="42.2699730" lon="-8.6107610">
        <ele>37.0</ele>
        <time>2022-06-18T09:55:42Z</time>
      </trkpt>
      <trkpt lat="42.2700310" lon="-8.6107910">
        <ele>37.0</ele>
        <time>2022-06-18T09:55:43Z</time>
      </trkpt>
      <trkpt lat="42.2700880" lon="-8.6108230">
        <ele>36.0</ele>
        <time>2022-06-18T09:55:44Z</time>
      </trkpt>
      <trkpt lat="42.2701480" lon="-8.6108550">
        <ele>36.4</ele>
        <time>2022-06-18T09:55:45Z</time>
      </trkpt>
      <trkpt lat="42.2702080" lon="-8.6108850">
        <ele>36.4</ele>
        <time>2022-06-18T09:55:46Z</time>
      </trkpt>
      <trkpt lat="42.2702700" lon="-8.6109180">
        <ele>36.4</ele>
        <time>2022-06-18T09:55:47Z</time>
      </trkpt>
      <trkpt lat="42.2703330" lon="-8.6109480">
        <ele>35.4</ele>
        <time>2022-06-18T09:55:48Z</time>
      </trkpt>
      <trkpt lat="42.2704000" lon="-8.6109710">
        <ele>35.4</ele>
        <time>2022-06-18T09:55:49Z</time>
      </trkpt>
      <trkpt lat="42.2704680" lon="-8.6109860">
        <ele>35.4</ele>
        <time>2022-06-18T09:55:50Z</time>
      </trkpt>
      <trkpt lat="42.2705380" lon="-8.6109900">
        <ele>35.4</ele>
        <time>2022-06-18T09:55:51Z</time>
      </trkpt>
      <trkpt lat="42.2706080" lon="-8.6109860">
        <ele>35.6</ele>
        <time>2022-06-18T09:55:52Z</time>
      </trkpt>
      <trkpt lat="42.2706760" lon="-8.6109680">
        <ele>35.2</ele>
        <time>2022-06-18T09:55:53Z</time>
      </trkpt>
      <trkpt lat="42.2707430" lon="-8.6109480">
        <ele>35.2</ele>
        <time>2022-06-18T09:55:54Z</time>
      </trkpt>
      <trkpt lat="42.2708060" lon="-8.6109280">
        <ele>35.2</ele>
        <time>2022-06-18T09:55:55Z</time>
      </trkpt>
      <trkpt lat="42.2708680" lon="-8.6109010">
        <ele>35.2</ele>
        <time>2022-06-18T09:55:56Z</time>
      </trkpt>
      <trkpt lat="42.2709310" lon="-8.6108700">
        <ele>34.6</ele>
        <time>2022-06-18T09:55:57Z</time>
      </trkpt>
      <trkpt lat="42.2709900" lon="-8.6108360">
        <ele>34.6</ele>
        <time>2022-06-18T09:55:58Z</time>
      </trkpt>
      <trkpt lat="42.2710500" lon="-8.6108000">
        <ele>34.6</ele>
        <time>2022-06-18T09:55:59Z</time>
      </trkpt>
      <trkpt lat="42.2711060" lon="-8.6107560">
        <ele>33.8</ele>
        <time>2022-06-18T09:56:00Z</time>
      </trkpt>
      <trkpt lat="42.2711580" lon="-8.6107100">
        <ele>33.4</ele>
        <time>2022-06-18T09:56:01Z</time>
      </trkpt>
      <trkpt lat="42.2712150" lon="-8.6106630">
        <ele>33.4</ele>
        <time>2022-06-18T09:56:02Z</time>
      </trkpt>
      <trkpt lat="42.2712650" lon="-8.6106160">
        <ele>33.4</ele>
        <time>2022-06-18T09:56:03Z</time>
      </trkpt>
      <trkpt lat="42.2713160" lon="-8.6105760">
        <ele>33.4</ele>
        <time>2022-06-18T09:56:04Z</time>
      </trkpt>
      <trkpt lat="42.2713650" lon="-8.6105330">
        <ele>34.8</ele>
        <time>2022-06-18T09:56:05Z</time>
      </trkpt>
      <trkpt lat="42.2714080" lon="-8.6104900">
        <ele>34.8</ele>
        <time>2022-06-18T09:56:06Z</time>
      </trkpt>
      <trkpt lat="42.2714510" lon="-8.6104530">
        <ele>34.8</ele>
        <time>2022-06-18T09:56:07Z</time>
      </trkpt>
      <trkpt lat="42.2714910" lon="-8.6104200">
        <ele>35.2</ele>
        <time>2022-06-18T09:56:08Z</time>
      </trkpt>
      <trkpt lat="42.2715230" lon="-8.6103900">
        <ele>35.8</ele>
        <time>2022-06-18T09:56:09Z</time>
      </trkpt>
      <trkpt lat="42.2715410" lon="-8.6103650">
        <ele>35.8</ele>
        <time>2022-06-18T09:56:10Z</time>
      </trkpt>
      <trkpt lat="42.2715580" lon="-8.6103460">
        <ele>35.8</ele>
        <time>2022-06-18T09:56:11Z</time>
      </trkpt>
      <trkpt lat="42.2715710" lon="-8.6103330">
        <ele>36.6</ele>
        <time>2022-06-18T09:56:12Z</time>
      </trkpt>
      <trkpt lat="42.2715800" lon="-8.6103230">
        <ele>37.2</ele>
        <time>2022-06-18T09:56:13Z</time>
      </trkpt>
      <trkpt lat="42.2715850" lon="-8.6103160">
        <ele>37.2</ele>
        <time>2022-06-18T09:56:14Z</time>
      </trkpt>
      <trkpt lat="42.2715860" lon="-8.6103130">
        <ele>37.2</ele>
        <time>2022-06-18T09:56:15Z</time>
      </trkpt>
      <trkpt lat="42.2716160" lon="-8.6102650">
        <ele>37.2</ele>
        <time>2022-06-18T09:56:32Z</time>
      </trkpt>
      <trkpt lat="42.2716300" lon="-8.6102480">
        <ele>36.8</ele>
        <time>2022-06-18T09:56:33Z</time>
      </trkpt>
      <trkpt lat="42.2716530" lon="-8.6102350">
        <ele>36.8</ele>
        <time>2022-06-18T09:56:34Z</time>
      </trkpt>
      <trkpt lat="42.2716800" lon="-8.6102310">
        <ele>36.8</ele>
        <time>2022-06-18T09:56:35Z</time>
      </trkpt>
      <trkpt lat="42.2717110" lon="-8.6102330">
        <ele>36.8</ele>
        <time>2022-06-18T09:56:36Z</time>
      </trkpt>
      <trkpt lat="42.2717450" lon="-8.6102310">
        <ele>36.0</ele>
        <time>2022-06-18T09:56:37Z</time>
      </trkpt>
      <trkpt lat="42.2717830" lon="-8.6102250">
        <ele>36.0</ele>
        <time>2022-06-18T09:56:38Z</time>
      </trkpt>
      <trkpt lat="42.2718250" lon="-8.6102200">
        <ele>36.0</ele>
        <time>2022-06-18T09:56:39Z</time>
      </trkpt>
      <trkpt lat="42.2718700" lon="-8.6102200">
        <ele>36.0</ele>
        <time>2022-06-18T09:56:40Z</time>
      </trkpt>
      <trkpt lat="42.2719180" lon="-8.6102180">
        <ele>35.2</ele>
        <time>2022-06-18T09:56:41Z</time>
      </trkpt>
      <trkpt lat="42.2719700" lon="-8.6102160">
        <ele>35.2</ele>
        <time>2022-06-18T09:56:42Z</time>
      </trkpt>
      <trkpt lat="42.2720230" lon="-8.6102180">
        <ele>35.2</ele>
        <time>2022-06-18T09:56:43Z</time>
      </trkpt>
      <trkpt lat="42.2720810" lon="-8.6102210">
        <ele>34.2</ele>
        <time>2022-06-18T09:56:44Z</time>
      </trkpt>
      <trkpt lat="42.2721400" lon="-8.6102230">
        <ele>32.8</ele>
        <time>2022-06-18T09:56:45Z</time>
      </trkpt>
      <trkpt lat="42.2721980" lon="-8.6102250">
        <ele>32.8</ele>
        <time>2022-06-18T09:56:46Z</time>
      </trkpt>
      <trkpt lat="42.2722530" lon="-8.6102300">
        <ele>32.8</ele>
        <time>2022-06-18T09:56:47Z</time>
      </trkpt>
      <trkpt lat="42.2723060" lon="-8.6102280">
        <ele>32.0</ele>
        <time>2022-06-18T09:56:48Z</time>
      </trkpt>
      <trkpt lat="42.2723610" lon="-8.6102310">
        <ele>31.8</ele>
        <time>2022-06-18T09:56:49Z</time>
      </trkpt>
      <trkpt lat="42.2724200" lon="-8.6102350">
        <ele>31.8</ele>
        <time>2022-06-18T09:56:50Z</time>
      </trkpt>
      <trkpt lat="42.2724810" lon="-8.6102350">
        <ele>31.8</ele>
        <time>2022-06-18T09:56:51Z</time>
      </trkpt>
      <trkpt lat="42.2725460" lon="-8.6102330">
        <ele>31.0</ele>
        <time>2022-06-18T09:56:52Z</time>
      </trkpt>
      <trkpt lat="42.2726110" lon="-8.6102350">
        <ele>31.0</ele>
        <time>2022-06-18T09:56:53Z</time>
      </trkpt>
      <trkpt lat="42.2726760" lon="-8.6102360">
        <ele>31.0</ele>
        <time>2022-06-18T09:56:54Z</time>
      </trkpt>
      <trkpt lat="42.2727430" lon="-8.6102310">
        <ele>31.0</ele>
        <time>2022-06-18T09:56:55Z</time>
      </trkpt>
      <trkpt lat="42.2728080" lon="-8.6102260">
        <ele>30.0</ele>
        <time>2022-06-18T09:56:56Z</time>
      </trkpt>
      <trkpt lat="42.2728750" lon="-8.6102230">
        <ele>29.8</ele>
        <time>2022-06-18T09:56:57Z</time>
      </trkpt>
      <trkpt lat="42.2729410" lon="-8.6102230">
        <ele>29.8</ele>
        <time>2022-06-18T09:56:58Z</time>
      </trkpt>
      <trkpt lat="42.2730080" lon="-8.6102210">
        <ele>29.8</ele>
        <time>2022-06-18T09:56:59Z</time>
      </trkpt>
      <trkpt lat="42.2730710" lon="-8.6102230">
        <ele>29.6</ele>
        <time>2022-06-18T09:57:00Z</time>
      </trkpt>
      <trkpt lat="42.2731330" lon="-8.6102230">
        <ele>29.8</ele>
        <time>2022-06-18T09:57:01Z</time>
      </trkpt>
      <trkpt lat="42.2731880" lon="-8.6102250">
        <ele>29.8</ele>
        <time>2022-06-18T09:57:02Z</time>
      </trkpt>
      <trkpt lat="42.2732430" lon="-8.6102230">
        <ele>29.8</ele>
        <time>2022-06-18T09:57:03Z</time>
      </trkpt>
      <trkpt lat="42.2732910" lon="-8.6102230">
        <ele>29.6</ele>
        <time>2022-06-18T09:57:04Z</time>
      </trkpt>
      <trkpt lat="42.2733430" lon="-8.6102180">
        <ele>29.6</ele>
        <time>2022-06-18T09:57:05Z</time>
      </trkpt>
      <trkpt lat="42.2733910" lon="-8.6102150">
        <ele>29.6</ele>
        <time>2022-06-18T09:57:06Z</time>
      </trkpt>
      <trkpt lat="42.2734410" lon="-8.6102150">
        <ele>29.6</ele>
        <time>2022-06-18T09:57:07Z</time>
      </trkpt>
      <trkpt lat="42.2734910" lon="-8.6102210">
        <ele>29.6</ele>
        <time>2022-06-18T09:57:08Z</time>
      </trkpt>
      <trkpt lat="42.2735450" lon="-8.6102250">
        <ele>29.4</ele>
        <time>2022-06-18T09:57:09Z</time>
      </trkpt>
      <trkpt lat="42.2735980" lon="-8.6102300">
        <ele>29.4</ele>
        <time>2022-06-18T09:57:10Z</time>
      </trkpt>
      <trkpt lat="42.2736450" lon="-8.6102310">
        <ele>29.4</ele>
        <time>2022-06-18T09:57:11Z</time>
      </trkpt>
      <trkpt lat="42.2737000" lon="-8.6102280">
        <ele>28.6</ele>
        <time>2022-06-18T09:57:12Z</time>
      </trkpt>
      <trkpt lat="42.2737510" lon="-8.6102230">
        <ele>29.0</ele>
        <time>2022-06-18T09:57:13Z</time>
      </trkpt>
      <trkpt lat="42.2738050" lon="-8.6102200">
        <ele>29.0</ele>
        <time>2022-06-18T09:57:14Z</time>
      </trkpt>
      <trkpt lat="42.2738580" lon="-8.6102200">
        <ele>29.0</ele>
        <time>2022-06-18T09:57:15Z</time>
      </trkpt>
      <trkpt lat="42.2739130" lon="-8.6102200">
        <ele>28.0</ele>
        <time>2022-06-18T09:57:16Z</time>
      </trkpt>
      <trkpt lat="42.2739660" lon="-8.6102260">
        <ele>28.2</ele>
        <time>2022-06-18T09:57:17Z</time>
      </trkpt>
      <trkpt lat="42.2740130" lon="-8.6102300">
        <ele>28.2</ele>
        <time>2022-06-18T09:57:18Z</time>
      </trkpt>
      <trkpt lat="42.2740700" lon="-8.6102280">
        <ele>28.2</ele>
        <time>2022-06-18T09:57:19Z</time>
      </trkpt>
      <trkpt lat="42.2741250" lon="-8.6102230">
        <ele>28.0</ele>
        <time>2022-06-18T09:57:20Z</time>
      </trkpt>
      <trkpt lat="42.2741810" lon="-8.6102200">
        <ele>27.0</ele>
        <time>2022-06-18T09:57:21Z</time>
      </trkpt>
      <trkpt lat="42.2742380" lon="-8.6102180">
        <ele>27.0</ele>
        <time>2022-06-18T09:57:22Z</time>
      </trkpt>
      <trkpt lat="42.2742960" lon="-8.6102200">
        <ele>27.0</ele>
        <time>2022-06-18T09:57:23Z</time>
      </trkpt>
      <trkpt lat="42.2743530" lon="-8.6102200">
        <ele>27.0</ele>
        <time>2022-06-18T09:57:24Z</time>
      </trkpt>
      <trkpt lat="42.2744100" lon="-8.6102210">
        <ele>26.4</ele>
        <time>2022-06-18T09:57:25Z</time>
      </trkpt>
      <trkpt lat="42.2744660" lon="-8.6102210">
        <ele>26.4</ele>
        <time>2022-06-18T09:57:26Z</time>
      </trkpt>
      <trkpt lat="42.2745260" lon="-8.6102280">
        <ele>26.4</ele>
        <time>2022-06-18T09:57:27Z</time>
      </trkpt>
      <trkpt lat="42.2745860" lon="-8.6102280">
        <ele>25.8</ele>
        <time>2022-06-18T09:57:28Z</time>
      </trkpt>
      <trkpt lat="42.2746450" lon="-8.6102300">
        <ele>25.4</ele>
        <time>2022-06-18T09:57:29Z</time>
      </trkpt>
      <trkpt lat="42.2747030" lon="-8.6102280">
        <ele>25.4</ele>
        <time>2022-06-18T09:57:30Z</time>
      </trkpt>
      <trkpt lat="42.2747610" lon="-8.6102280">
        <ele>25.4</ele>
        <time>2022-06-18T09:57:31Z</time>
      </trkpt>
      <trkpt lat="42.2748180" lon="-8.6102280">
        <ele>25.6</ele>
        <time>2022-06-18T09:57:32Z</time>
      </trkpt>
      <trkpt lat="42.2748780" lon="-8.6102260">
        <ele>25.8</ele>
        <time>2022-06-18T09:57:33Z</time>
      </trkpt>
      <trkpt lat="42.2749360" lon="-8.6102260">
        <ele>25.8</ele>
        <time>2022-06-18T09:57:34Z</time>
      </trkpt>
      <trkpt lat="42.2749950" lon="-8.6102280">
        <ele>25.8</ele>
        <time>2022-06-18T09:57:35Z</time>
      </trkpt>
      <trkpt lat="42.2750550" lon="-8.6102310">
        <ele>24.8</ele>
        <time>2022-06-18T09:57:36Z</time>
      </trkpt>
      <trkpt lat="42.2751160" lon="-8.6102310">
        <ele>25.0</ele>
        <time>2022-06-18T09:57:37Z</time>
      </trkpt>
      <trkpt lat="42.2751800" lon="-8.6102330">
        <ele>25.0</ele>
        <time>2022-06-18T09:57:38Z</time>
      </trkpt>
      <trkpt lat="42.2752410" lon="-8.6102350">
        <ele>25.0</ele>
        <time>2022-06-18T09:57:39Z</time>
      </trkpt>
      <trkpt lat="42.2753030" lon="-8.6102350">
        <ele>25.0</ele>
        <time>2022-06-18T09:57:40Z</time>
      </trkpt>
      <trkpt lat="42.2753660" lon="-8.6102350">
        <ele>23.8</ele>
        <time>2022-06-18T09:57:41Z</time>
      </trkpt>
      <trkpt lat="42.2754280" lon="-8.6102300">
        <ele>23.8</ele>
        <time>2022-06-18T09:57:42Z</time>
      </trkpt>
      <trkpt lat="42.2754910" lon="-8.6102260">
        <ele>23.8</ele>
        <time>2022-06-18T09:57:43Z</time>
      </trkpt>
      <trkpt lat="42.2755500" lon="-8.6102250">
        <ele>23.8</ele>
        <time>2022-06-18T09:57:44Z</time>
      </trkpt>
      <trkpt lat="42.2756080" lon="-8.6102250">
        <ele>24.0</ele>
        <time>2022-06-18T09:57:45Z</time>
      </trkpt>
      <trkpt lat="42.2756650" lon="-8.6102250">
        <ele>24.0</ele>
        <time>2022-06-18T09:57:46Z</time>
      </trkpt>
      <trkpt lat="42.2757230" lon="-8.6102260">
        <ele>24.0</ele>
        <time>2022-06-18T09:57:47Z</time>
      </trkpt>
      <trkpt lat="42.2757830" lon="-8.6102280">
        <ele>24.0</ele>
        <time>2022-06-18T09:57:48Z</time>
      </trkpt>
      <trkpt lat="42.2758380" lon="-8.6102250">
        <ele>23.6</ele>
        <time>2022-06-18T09:57:49Z</time>
      </trkpt>
      <trkpt lat="42.2758930" lon="-8.6102250">
        <ele>23.6</ele>
        <time>2022-06-18T09:57:50Z</time>
      </trkpt>
      <trkpt lat="42.2759500" lon="-8.6102250">
        <ele>23.6</ele>
        <time>2022-06-18T09:57:51Z</time>
      </trkpt>
      <trkpt lat="42.2760050" lon="-8.6102230">
        <ele>23.6</ele>
        <time>2022-06-18T09:57:52Z</time>
      </trkpt>
      <trkpt lat="42.2760580" lon="-8.6102230">
        <ele>23.6</ele>
        <time>2022-06-18T09:57:53Z</time>
      </trkpt>
      <trkpt lat="42.2761110" lon="-8.6102260">
        <ele>23.6</ele>
        <time>2022-06-18T09:57:54Z</time>
      </trkpt>
      <trkpt lat="42.2761630" lon="-8.6102260">
        <ele>23.6</ele>
        <time>2022-06-18T09:57:55Z</time>
      </trkpt>
      <trkpt lat="42.2762150" lon="-8.6102260">
        <ele>23.6</ele>
        <time>2022-06-18T09:57:56Z</time>
      </trkpt>
      <trkpt lat="42.2762650" lon="-8.6102260">
        <ele>23.4</ele>
        <time>2022-06-18T09:57:57Z</time>
      </trkpt>
      <trkpt lat="42.2763150" lon="-8.6102280">
        <ele>23.4</ele>
        <time>2022-06-18T09:57:58Z</time>
      </trkpt>
      <trkpt lat="42.2763630" lon="-8.6102330">
        <ele>23.4</ele>
        <time>2022-06-18T09:57:59Z</time>
      </trkpt>
      <trkpt lat="42.2764130" lon="-8.6102360">
        <ele>23.6</ele>
        <time>2022-06-18T09:58:00Z</time>
      </trkpt>
      <trkpt lat="42.2764610" lon="-8.6102410">
        <ele>23.4</ele>
        <time>2022-06-18T09:58:01Z</time>
      </trkpt>
      <trkpt lat="42.2765110" lon="-8.6102450">
        <ele>23.4</ele>
        <time>2022-06-18T09:58:02Z</time>
      </trkpt>
      <trkpt lat="42.2765660" lon="-8.6102480">
        <ele>23.4</ele>
        <time>2022-06-18T09:58:03Z</time>
      </trkpt>
      <trkpt lat="42.2766210" lon="-8.6102530">
        <ele>23.8</ele>
        <time>2022-06-18T09:58:04Z</time>
      </trkpt>
      <trkpt lat="42.2766760" lon="-8.6102630">
        <ele>23.4</ele>
        <time>2022-06-18T09:58:05Z</time>
      </trkpt>
      <trkpt lat="42.2767280" lon="-8.6102780">
        <ele>23.4</ele>
        <time>2022-06-18T09:58:06Z</time>
      </trkpt>
      <trkpt lat="42.2767850" lon="-8.6102980">
        <ele>23.4</ele>
        <time>2022-06-18T09:58:07Z</time>
      </trkpt>
      <trkpt lat="42.2768350" lon="-8.6103230">
        <ele>23.4</ele>
        <time>2022-06-18T09:58:08Z</time>
      </trkpt>
      <trkpt lat="42.2768910" lon="-8.6103330">
        <ele>22.2</ele>
        <time>2022-06-18T09:58:09Z</time>
      </trkpt>
      <trkpt lat="42.2769500" lon="-8.6103380">
        <ele>22.2</ele>
        <time>2022-06-18T09:58:10Z</time>
      </trkpt>
      <trkpt lat="42.2770110" lon="-8.6103410">
        <ele>22.2</ele>
        <time>2022-06-18T09:58:11Z</time>
      </trkpt>
      <trkpt lat="42.2770750" lon="-8.6103330">
        <ele>22.2</ele>
        <time>2022-06-18T09:58:12Z</time>
      </trkpt>
      <trkpt lat="42.2771380" lon="-8.6103210">
        <ele>21.6</ele>
        <time>2022-06-18T09:58:13Z</time>
      </trkpt>
      <trkpt lat="42.2772000" lon="-8.6103110">
        <ele>21.6</ele>
        <time>2022-06-18T09:58:14Z</time>
      </trkpt>
      <trkpt lat="42.2772630" lon="-8.6103030">
        <ele>21.6</ele>
        <time>2022-06-18T09:58:15Z</time>
      </trkpt>
      <trkpt lat="42.2773260" lon="-8.6103000">
        <ele>21.6</ele>
        <time>2022-06-18T09:58:16Z</time>
      </trkpt>
      <trkpt lat="42.2773910" lon="-8.6102980">
        <ele>21.6</ele>
        <time>2022-06-18T09:58:17Z</time>
      </trkpt>
      <trkpt lat="42.2774530" lon="-8.6102930">
        <ele>21.6</ele>
        <time>2022-06-18T09:58:18Z</time>
      </trkpt>
      <trkpt lat="42.2775150" lon="-8.6102880">
        <ele>21.6</ele>
        <time>2022-06-18T09:58:19Z</time>
      </trkpt>
      <trkpt lat="42.2775750" lon="-8.6102760">
        <ele>20.6</ele>
        <time>2022-06-18T09:58:20Z</time>
      </trkpt>
      <trkpt lat="42.2776330" lon="-8.6102630">
        <ele>20.8</ele>
        <time>2022-06-18T09:58:21Z</time>
      </trkpt>
      <trkpt lat="42.2776900" lon="-8.6102460">
        <ele>20.8</ele>
        <time>2022-06-18T09:58:22Z</time>
      </trkpt>
      <trkpt lat="42.2777450" lon="-8.6102310">
        <ele>20.8</ele>
        <time>2022-06-18T09:58:23Z</time>
      </trkpt>
      <trkpt lat="42.2778030" lon="-8.6102130">
        <ele>20.8</ele>
        <time>2022-06-18T09:58:24Z</time>
      </trkpt>
      <trkpt lat="42.2778580" lon="-8.6101950">
        <ele>21.4</ele>
        <time>2022-06-18T09:58:25Z</time>
      </trkpt>
      <trkpt lat="42.2779150" lon="-8.6101750">
        <ele>21.4</ele>
        <time>2022-06-18T09:58:26Z</time>
      </trkpt>
      <trkpt lat="42.2779730" lon="-8.6101600">
        <ele>21.4</ele>
        <time>2022-06-18T09:58:27Z</time>
      </trkpt>
      <trkpt lat="42.2780280" lon="-8.6101400">
        <ele>20.6</ele>
        <time>2022-06-18T09:58:28Z</time>
      </trkpt>
      <trkpt lat="42.2780780" lon="-8.6101150">
        <ele>20.6</ele>
        <time>2022-06-18T09:58:29Z</time>
      </trkpt>
      <trkpt lat="42.2781300" lon="-8.6100910">
        <ele>20.6</ele>
        <time>2022-06-18T09:58:30Z</time>
      </trkpt>
      <trkpt lat="42.2781810" lon="-8.6100710">
        <ele>20.6</ele>
        <time>2022-06-18T09:58:31Z</time>
      </trkpt>
      <trkpt lat="42.2782350" lon="-8.6100530">
        <ele>20.4</ele>
        <time>2022-06-18T09:58:32Z</time>
      </trkpt>
      <trkpt lat="42.2782860" lon="-8.6100380">
        <ele>20.2</ele>
        <time>2022-06-18T09:58:33Z</time>
      </trkpt>
      <trkpt lat="42.2783400" lon="-8.6100230">
        <ele>20.2</ele>
        <time>2022-06-18T09:58:34Z</time>
      </trkpt>
      <trkpt lat="42.2783950" lon="-8.6100110">
        <ele>20.2</ele>
        <time>2022-06-18T09:58:35Z</time>
      </trkpt>
      <trkpt lat="42.2784460" lon="-8.6100000">
        <ele>19.2</ele>
        <time>2022-06-18T09:58:36Z</time>
      </trkpt>
      <trkpt lat="42.2784980" lon="-8.6099950">
        <ele>19.2</ele>
        <time>2022-06-18T09:58:37Z</time>
      </trkpt>
      <trkpt lat="42.2785500" lon="-8.6099960">
        <ele>19.2</ele>
        <time>2022-06-18T09:58:38Z</time>
      </trkpt>
      <trkpt lat="42.2785960" lon="-8.6100030">
        <ele>19.2</ele>
        <time>2022-06-18T09:58:39Z</time>
      </trkpt>
      <trkpt lat="42.2786380" lon="-8.6100160">
        <ele>19.2</ele>
        <time>2022-06-18T09:58:40Z</time>
      </trkpt>
      <trkpt lat="42.2786750" lon="-8.6100350">
        <ele>19.2</ele>
        <time>2022-06-18T09:58:41Z</time>
      </trkpt>
      <trkpt lat="42.2787080" lon="-8.6100630">
        <ele>19.2</ele>
        <time>2022-06-18T09:58:42Z</time>
      </trkpt>
      <trkpt lat="42.2787430" lon="-8.6100930">
        <ele>19.2</ele>
        <time>2022-06-18T09:58:43Z</time>
      </trkpt>
      <trkpt lat="42.2787830" lon="-8.6101100">
        <ele>19.0</ele>
        <time>2022-06-18T09:58:44Z</time>
      </trkpt>
      <trkpt lat="42.2788250" lon="-8.6101250">
        <ele>18.4</ele>
        <time>2022-06-18T09:58:45Z</time>
      </trkpt>
      <trkpt lat="42.2788680" lon="-8.6101380">
        <ele>18.4</ele>
        <time>2022-06-18T09:58:46Z</time>
      </trkpt>
      <trkpt lat="42.2789110" lon="-8.6101430">
        <ele>18.4</ele>
        <time>2022-06-18T09:58:47Z</time>
      </trkpt>
      <trkpt lat="42.2789600" lon="-8.6101580">
        <ele>18.4</ele>
        <time>2022-06-18T09:58:48Z</time>
      </trkpt>
      <trkpt lat="42.2790080" lon="-8.6101660">
        <ele>18.0</ele>
        <time>2022-06-18T09:58:49Z</time>
      </trkpt>
      <trkpt lat="42.2790510" lon="-8.6101660">
        <ele>18.0</ele>
        <time>2022-06-18T09:58:50Z</time>
      </trkpt>
      <trkpt lat="42.2790930" lon="-8.6101680">
        <ele>18.0</ele>
        <time>2022-06-18T09:58:51Z</time>
      </trkpt>
      <trkpt lat="42.2791330" lon="-8.6101700">
        <ele>18.2</ele>
        <time>2022-06-18T09:58:52Z</time>
      </trkpt>
      <trkpt lat="42.2791730" lon="-8.6101710">
        <ele>18.6</ele>
        <time>2022-06-18T09:58:53Z</time>
      </trkpt>
      <trkpt lat="42.2792160" lon="-8.6101660">
        <ele>18.6</ele>
        <time>2022-06-18T09:58:54Z</time>
      </trkpt>
      <trkpt lat="42.2792500" lon="-8.6101530">
        <ele>18.6</ele>
        <time>2022-06-18T09:58:55Z</time>
      </trkpt>
      <trkpt lat="42.2792780" lon="-8.6101200">
        <ele>18.6</ele>
        <time>2022-06-18T09:58:56Z</time>
      </trkpt>
      <trkpt lat="42.2793000" lon="-8.6100810">
        <ele>19.0</ele>
        <time>2022-06-18T09:58:57Z</time>
      </trkpt>
      <trkpt lat="42.2793180" lon="-8.6100480">
        <ele>19.0</ele>
        <time>2022-06-18T09:58:58Z</time>
      </trkpt>
      <trkpt lat="42.2793460" lon="-8.6100280">
        <ele>19.0</ele>
        <time>2022-06-18T09:58:59Z</time>
      </trkpt>
      <trkpt lat="42.2793730" lon="-8.6100200">
        <ele>19.0</ele>
        <time>2022-06-18T09:59:00Z</time>
      </trkpt>
      <trkpt lat="42.2793960" lon="-8.6100150">
        <ele>19.2</ele>
        <time>2022-06-18T09:59:01Z</time>
      </trkpt>
      <trkpt lat="42.2794180" lon="-8.6100050">
        <ele>19.2</ele>
        <time>2022-06-18T09:59:02Z</time>
      </trkpt>
      <trkpt lat="42.2794430" lon="-8.6099960">
        <ele>19.2</ele>
        <time>2022-06-18T09:59:03Z</time>
      </trkpt>
      <trkpt lat="42.2794710" lon="-8.6099980">
        <ele>18.4</ele>
        <time>2022-06-18T09:59:04Z</time>
      </trkpt>
      <trkpt lat="42.2794930" lon="-8.6100060">
        <ele>18.4</ele>
        <time>2022-06-18T09:59:05Z</time>
      </trkpt>
      <trkpt lat="42.2795250" lon="-8.6100100">
        <ele>18.4</ele>
        <time>2022-06-18T09:59:06Z</time>
      </trkpt>
      <trkpt lat="42.2795550" lon="-8.6100050">
        <ele>18.4</ele>
        <time>2022-06-18T09:59:07Z</time>
      </trkpt>
      <trkpt lat="42.2795910" lon="-8.6100080">
        <ele>18.0</ele>
        <time>2022-06-18T09:59:08Z</time>
      </trkpt>
      <trkpt lat="42.2796330" lon="-8.6100050">
        <ele>17.6</ele>
        <time>2022-06-18T09:59:09Z</time>
      </trkpt>
      <trkpt lat="42.2796700" lon="-8.6100080">
        <ele>17.6</ele>
        <time>2022-06-18T09:59:10Z</time>
      </trkpt>
      <trkpt lat="42.2797010" lon="-8.6100150">
        <ele>17.6</ele>
        <time>2022-06-18T09:59:11Z</time>
      </trkpt>
      <trkpt lat="42.2797360" lon="-8.6100260">
        <ele>18.4</ele>
        <time>2022-06-18T09:59:12Z</time>
      </trkpt>
      <trkpt lat="42.2797760" lon="-8.6100160">
        <ele>18.2</ele>
        <time>2022-06-18T09:59:13Z</time>
      </trkpt>
      <trkpt lat="42.2798160" lon="-8.6100160">
        <ele>18.2</ele>
        <time>2022-06-18T09:59:14Z</time>
      </trkpt>
      <trkpt lat="42.2798430" lon="-8.6099980">
        <ele>18.2</ele>
        <time>2022-06-18T09:59:15Z</time>
      </trkpt>
      <trkpt lat="42.2798710" lon="-8.6100030">
        <ele>18.2</ele>
        <time>2022-06-18T09:59:16Z</time>
      </trkpt>
      <trkpt lat="42.2799030" lon="-8.6099880">
        <ele>18.8</ele>
        <time>2022-06-18T09:59:17Z</time>
      </trkpt>
      <trkpt lat="42.2799330" lon="-8.6099780">
        <ele>18.8</ele>
        <time>2022-06-18T09:59:18Z</time>
      </trkpt>
      <trkpt lat="42.2799610" lon="-8.6099780">
        <ele>18.8</ele>
        <time>2022-06-18T09:59:19Z</time>
      </trkpt>
      <trkpt lat="42.2799880" lon="-8.6099850">
        <ele>18.8</ele>
        <time>2022-06-18T09:59:20Z</time>
      </trkpt>
      <trkpt lat="42.2800150" lon="-8.6099880">
        <ele>19.0</ele>
        <time>2022-06-18T09:59:21Z</time>
      </trkpt>
      <trkpt lat="42.2800400" lon="-8.6099960">
        <ele>19.0</ele>
        <time>2022-06-18T09:59:22Z</time>
      </trkpt>
      <trkpt lat="42.2800630" lon="-8.6100000">
        <ele>19.0</ele>
        <time>2022-06-18T09:59:23Z</time>
      </trkpt>
      <trkpt lat="42.2800910" lon="-8.6100010">
        <ele>19.0</ele>
        <time>2022-06-18T09:59:24Z</time>
      </trkpt>
      <trkpt lat="42.2801180" lon="-8.6099980">
        <ele>19.0</ele>
        <time>2022-06-18T09:59:25Z</time>
      </trkpt>
      <trkpt lat="42.2801480" lon="-8.6100030">
        <ele>19.0</ele>
        <time>2022-06-18T09:59:26Z</time>
      </trkpt>
      <trkpt lat="42.2801760" lon="-8.6100000">
        <ele>19.0</ele>
        <time>2022-06-18T09:59:27Z</time>
      </trkpt>
      <trkpt lat="42.2802150" lon="-8.6099930">
        <ele>19.0</ele>
        <time>2022-06-18T09:59:28Z</time>
      </trkpt>
      <trkpt lat="42.2802460" lon="-8.6099810">
        <ele>18.2</ele>
        <time>2022-06-18T09:59:29Z</time>
      </trkpt>
      <trkpt lat="42.2802780" lon="-8.6099760">
        <ele>18.2</ele>
        <time>2022-06-18T09:59:30Z</time>
      </trkpt>
      <trkpt lat="42.2803110" lon="-8.6099580">
        <ele>18.2</ele>
        <time>2022-06-18T09:59:31Z</time>
      </trkpt>
      <trkpt lat="42.2803480" lon="-8.6099410">
        <ele>18.2</ele>
        <time>2022-06-18T09:59:32Z</time>
      </trkpt>
      <trkpt lat="42.2803800" lon="-8.6099330">
        <ele>17.0</ele>
        <time>2022-06-18T09:59:33Z</time>
      </trkpt>
      <trkpt lat="42.2804100" lon="-8.6099310">
        <ele>17.0</ele>
        <time>2022-06-18T09:59:34Z</time>
      </trkpt>
      <trkpt lat="42.2804430" lon="-8.6099550">
        <ele>17.0</ele>
        <time>2022-06-18T09:59:35Z</time>
      </trkpt>
      <trkpt lat="42.2804760" lon="-8.6099850">
        <ele>17.0</ele>
        <time>2022-06-18T09:59:36Z</time>
      </trkpt>
      <trkpt lat="42.2805100" lon="-8.6100160">
        <ele>17.2</ele>
        <time>2022-06-18T09:59:37Z</time>
      </trkpt>
      <trkpt lat="42.2805430" lon="-8.6100510">
        <ele>17.2</ele>
        <time>2022-06-18T09:59:38Z</time>
      </trkpt>
      <trkpt lat="42.2805660" lon="-8.6100860">
        <ele>17.2</ele>
        <time>2022-06-18T09:59:39Z</time>
      </trkpt>
      <trkpt lat="42.2805900" lon="-8.6101150">
        <ele>16.8</ele>
        <time>2022-06-18T09:59:40Z</time>
      </trkpt>
      <trkpt lat="42.2806150" lon="-8.6101450">
        <ele>16.2</ele>
        <time>2022-06-18T09:59:41Z</time>
      </trkpt>
      <trkpt lat="42.2806330" lon="-8.6101760">
        <ele>16.2</ele>
        <time>2022-06-18T09:59:42Z</time>
      </trkpt>
      <trkpt lat="42.2806550" lon="-8.6101980">
        <ele>16.2</ele>
        <time>2022-06-18T09:59:43Z</time>
      </trkpt>
      <trkpt lat="42.2806680" lon="-8.6102010">
        <ele>16.2</ele>
        <time>2022-06-18T09:59:44Z</time>
      </trkpt>
      <trkpt lat="42.2806730" lon="-8.6102060">
        <ele>17.0</ele>
        <time>2022-06-18T09:59:45Z</time>
      </trkpt>
      <trkpt lat="42.2806780" lon="-8.6102080">
        <ele>17.0</ele>
        <time>2022-06-18T09:59:46Z</time>
      </trkpt>
      <trkpt lat="42.2806780" lon="-8.6102050">
        <ele>17.0</ele>
        <time>2022-06-18T09:59:47Z</time>
      </trkpt>
      <trkpt lat="42.2806780" lon="-8.6102050">
        <ele>17.0</ele>
        <time>2022-06-18T09:59:48Z</time>
      </trkpt>
      <trkpt lat="42.2806730" lon="-8.6102130">
        <ele>16.8</ele>
        <time>2022-06-18T09:59:49Z</time>
      </trkpt>
      <trkpt lat="42.2806650" lon="-8.6102230">
        <ele>16.8</ele>
        <time>2022-06-18T09:59:50Z</time>
      </trkpt>
      <trkpt lat="42.2806650" lon="-8.6102210">
        <ele>16.8</ele>
        <time>2022-06-18T09:59:51Z</time>
      </trkpt>
      <trkpt lat="42.2809180" lon="-8.6102050">
        <ele>17.0</ele>
        <time>2022-06-18T10:01:06Z</time>
      </trkpt>
      <trkpt lat="42.2809280" lon="-8.6101930">
        <ele>17.0</ele>
        <time>2022-06-18T10:01:07Z</time>
      </trkpt>
      <trkpt lat="42.2809430" lon="-8.6101710">
        <ele>17.0</ele>
        <time>2022-06-18T10:01:08Z</time>
      </trkpt>
      <trkpt lat="42.2809630" lon="-8.6101550">
        <ele>16.8</ele>
        <time>2022-06-18T10:01:09Z</time>
      </trkpt>
      <trkpt lat="42.2809850" lon="-8.6101360">
        <ele>16.8</ele>
        <time>2022-06-18T10:01:10Z</time>
      </trkpt>
      <trkpt lat="42.2810030" lon="-8.6101110">
        <ele>16.8</ele>
        <time>2022-06-18T10:01:11Z</time>
      </trkpt>
      <trkpt lat="42.2810210" lon="-8.6100930">
        <ele>16.8</ele>
        <time>2022-06-18T10:01:12Z</time>
      </trkpt>
      <trkpt lat="42.2810400" lon="-8.6100760">
        <ele>17.0</ele>
        <time>2022-06-18T10:01:13Z</time>
      </trkpt>
      <trkpt lat="42.2810550" lon="-8.6100610">
        <ele>17.0</ele>
        <time>2022-06-18T10:01:14Z</time>
      </trkpt>
      <trkpt lat="42.2810700" lon="-8.6100460">
        <ele>17.0</ele>
        <time>2022-06-18T10:01:15Z</time>
      </trkpt>
      <trkpt lat="42.2810800" lon="-8.6100230">
        <ele>17.0</ele>
        <time>2022-06-18T10:01:16Z</time>
      </trkpt>
      <trkpt lat="42.2810950" lon="-8.6100080">
        <ele>17.6</ele>
        <time>2022-06-18T10:01:17Z</time>
      </trkpt>
      <trkpt lat="42.2811150" lon="-8.6099900">
        <ele>17.6</ele>
        <time>2022-06-18T10:01:18Z</time>
      </trkpt>
      <trkpt lat="42.2811350" lon="-8.6099730">
        <ele>17.6</ele>
        <time>2022-06-18T10:01:19Z</time>
      </trkpt>
      <trkpt lat="42.2811510" lon="-8.6099580">
        <ele>17.0</ele>
        <time>2022-06-18T10:01:20Z</time>
      </trkpt>
      <trkpt lat="42.2811680" lon="-8.6099400">
        <ele>17.4</ele>
        <time>2022-06-18T10:01:21Z</time>
      </trkpt>
      <trkpt lat="42.2811810" lon="-8.6099300">
        <ele>17.4</ele>
        <time>2022-06-18T10:01:22Z</time>
      </trkpt>
      <trkpt lat="42.2811960" lon="-8.6099210">
        <ele>17.4</ele>
        <time>2022-06-18T10:01:23Z</time>
      </trkpt>
      <trkpt lat="42.2812160" lon="-8.6099150">
        <ele>16.8</ele>
        <time>2022-06-18T10:01:24Z</time>
      </trkpt>
      <trkpt lat="42.2812310" lon="-8.6099080">
        <ele>17.2</ele>
        <time>2022-06-18T10:01:25Z</time>
      </trkpt>
      <trkpt lat="42.2812500" lon="-8.6098960">
        <ele>17.2</ele>
        <time>2022-06-18T10:01:26Z</time>
      </trkpt>
      <trkpt lat="42.2812610" lon="-8.6098830">
        <ele>17.2</ele>
        <time>2022-06-18T10:01:27Z</time>
      </trkpt>
      <trkpt lat="42.2812580" lon="-8.6098530">
        <ele>17.2</ele>
        <time>2022-06-18T10:01:28Z</time>
      </trkpt>
      <trkpt lat="42.2812680" lon="-8.6098380">
        <ele>17.2</ele>
        <time>2022-06-18T10:01:29Z</time>
      </trkpt>
      <trkpt lat="42.2812750" lon="-8.6098230">
        <ele>17.2</ele>
        <time>2022-06-18T10:01:30Z</time>
      </trkpt>
      <trkpt lat="42.2812780" lon="-8.6098130">
        <ele>17.2</ele>
        <time>2022-06-18T10:01:31Z</time>
      </trkpt>
      <trkpt lat="42.2812760" lon="-8.6098050">
        <ele>17.2</ele>
        <time>2022-06-18T10:01:32Z</time>
      </trkpt>
      <trkpt lat="42.2812800" lon="-8.6097900">
        <ele>17.2</ele>
        <time>2022-06-18T10:01:33Z</time>
      </trkpt>
      <trkpt lat="42.2813050" lon="-8.6097660">
        <ele>17.2</ele>
        <time>2022-06-18T10:01:34Z</time>
      </trkpt>
      <trkpt lat="42.2813230" lon="-8.6097530">
        <ele>17.2</ele>
        <time>2022-06-18T10:01:35Z</time>
      </trkpt>
      <trkpt lat="42.2813460" lon="-8.6097360">
        <ele>17.2</ele>
        <time>2022-06-18T10:01:36Z</time>
      </trkpt>
      <trkpt lat="42.2813660" lon="-8.6097200">
        <ele>17.0</ele>
        <time>2022-06-18T10:01:37Z</time>
      </trkpt>
      <trkpt lat="42.2813810" lon="-8.6097150">
        <ele>17.0</ele>
        <time>2022-06-18T10:01:38Z</time>
      </trkpt>
      <trkpt lat="42.2813930" lon="-8.6097110">
        <ele>17.0</ele>
        <time>2022-06-18T10:01:39Z</time>
      </trkpt>
      <trkpt lat="42.2814050" lon="-8.6097100">
        <ele>17.0</ele>
        <time>2022-06-18T10:01:40Z</time>
      </trkpt>
      <trkpt lat="42.2814150" lon="-8.6097100">
        <ele>17.4</ele>
        <time>2022-06-18T10:01:41Z</time>
      </trkpt>
      <trkpt lat="42.2814280" lon="-8.6097130">
        <ele>17.4</ele>
        <time>2022-06-18T10:01:42Z</time>
      </trkpt>
      <trkpt lat="42.2814430" lon="-8.6097150">
        <ele>17.4</ele>
        <time>2022-06-18T10:01:43Z</time>
      </trkpt>
      <trkpt lat="42.2814580" lon="-8.6097060">
        <ele>17.4</ele>
        <time>2022-06-18T10:01:44Z</time>
      </trkpt>
      <trkpt lat="42.2814730" lon="-8.6097030">
        <ele>17.0</ele>
        <time>2022-06-18T10:01:45Z</time>
      </trkpt>
      <trkpt lat="42.2814960" lon="-8.6096950">
        <ele>17.0</ele>
        <time>2022-06-18T10:01:46Z</time>
      </trkpt>
      <trkpt lat="42.2815110" lon="-8.6096910">
        <ele>17.0</ele>
        <time>2022-06-18T10:01:47Z</time>
      </trkpt>
      <trkpt lat="42.2815300" lon="-8.6096880">
        <ele>17.2</ele>
        <time>2022-06-18T10:01:48Z</time>
      </trkpt>
      <trkpt lat="42.2815460" lon="-8.6096800">
        <ele>17.2</ele>
        <time>2022-06-18T10:01:49Z</time>
      </trkpt>
      <trkpt lat="42.2815660" lon="-8.6096760">
        <ele>17.2</ele>
        <time>2022-06-18T10:01:50Z</time>
      </trkpt>
      <trkpt lat="42.2815880" lon="-8.6096710">
        <ele>17.2</ele>
        <time>2022-06-18T10:01:51Z</time>
      </trkpt>
      <trkpt lat="42.2816100" lon="-8.6096650">
        <ele>17.2</ele>
        <time>2022-06-18T10:01:52Z</time>
      </trkpt>
      <trkpt lat="42.2816300" lon="-8.6096650">
        <ele>17.2</ele>
        <time>2022-06-18T10:01:53Z</time>
      </trkpt>
      <trkpt lat="42.2816480" lon="-8.6096510">
        <ele>17.2</ele>
        <time>2022-06-18T10:01:54Z</time>
      </trkpt>
      <trkpt lat="42.2816660" lon="-8.6096380">
        <ele>17.2</ele>
        <time>2022-06-18T10:01:55Z</time>
      </trkpt>
      <trkpt lat="42.2816850" lon="-8.6096210">
        <ele>17.2</ele>
        <time>2022-06-18T10:01:56Z</time>
      </trkpt>
      <trkpt lat="42.2817000" lon="-8.6096110">
        <ele>17.4</ele>
        <time>2022-06-18T10:01:57Z</time>
      </trkpt>
      <trkpt lat="42.2817160" lon="-8.6096110">
        <ele>17.4</ele>
        <time>2022-06-18T10:01:58Z</time>
      </trkpt>
      <trkpt lat="42.2817300" lon="-8.6096060">
        <ele>17.4</ele>
        <time>2022-06-18T10:01:59Z</time>
      </trkpt>
      <trkpt lat="42.2817480" lon="-8.6095950">
        <ele>17.4</ele>
        <time>2022-06-18T10:02:00Z</time>
      </trkpt>
      <trkpt lat="42.2817660" lon="-8.6095850">
        <ele>17.6</ele>
        <time>2022-06-18T10:02:01Z</time>
      </trkpt>
      <trkpt lat="42.2817800" lon="-8.6095700">
        <ele>17.6</ele>
        <time>2022-06-18T10:02:02Z</time>
      </trkpt>
      <trkpt lat="42.2817930" lon="-8.6095560">
        <ele>17.6</ele>
        <time>2022-06-18T10:02:03Z</time>
      </trkpt>
      <trkpt lat="42.2818080" lon="-8.6095480">
        <ele>17.6</ele>
        <time>2022-06-18T10:02:04Z</time>
      </trkpt>
      <trkpt lat="42.2818230" lon="-8.6095260">
        <ele>17.4</ele>
        <time>2022-06-18T10:02:05Z</time>
      </trkpt>
      <trkpt lat="42.2818360" lon="-8.6095100">
        <ele>17.4</ele>
        <time>2022-06-18T10:02:06Z</time>
      </trkpt>
      <trkpt lat="42.2818410" lon="-8.6094850">
        <ele>17.4</ele>
        <time>2022-06-18T10:02:07Z</time>
      </trkpt>
      <trkpt lat="42.2818430" lon="-8.6094580">
        <ele>17.2</ele>
        <time>2022-06-18T10:02:08Z</time>
      </trkpt>
      <trkpt lat="42.2818480" lon="-8.6094330">
        <ele>17.2</ele>
        <time>2022-06-18T10:02:09Z</time>
      </trkpt>
      <trkpt lat="42.2818580" lon="-8.6094160">
        <ele>17.2</ele>
        <time>2022-06-18T10:02:10Z</time>
      </trkpt>
      <trkpt lat="42.2818660" lon="-8.6094030">
        <ele>17.2</ele>
        <time>2022-06-18T10:02:11Z</time>
      </trkpt>
      <trkpt lat="42.2818660" lon="-8.6093760">
        <ele>17.2</ele>
        <time>2022-06-18T10:02:12Z</time>
      </trkpt>
      <trkpt lat="42.2818510" lon="-8.6093360">
        <ele>17.2</ele>
        <time>2022-06-18T10:02:13Z</time>
      </trkpt>
      <trkpt lat="42.2818480" lon="-8.6093060">
        <ele>17.2</ele>
        <time>2022-06-18T10:02:14Z</time>
      </trkpt>
      <trkpt lat="42.2818450" lon="-8.6092780">
        <ele>17.2</ele>
        <time>2022-06-18T10:02:15Z</time>
      </trkpt>
      <trkpt lat="42.2818500" lon="-8.6092500">
        <ele>17.4</ele>
        <time>2022-06-18T10:02:16Z</time>
      </trkpt>
      <trkpt lat="42.2818550" lon="-8.6092260">
        <ele>17.2</ele>
        <time>2022-06-18T10:02:17Z</time>
      </trkpt>
      <trkpt lat="42.2818650" lon="-8.6092010">
        <ele>17.2</ele>
        <time>2022-06-18T10:02:18Z</time>
      </trkpt>
      <trkpt lat="42.2818660" lon="-8.6091760">
        <ele>17.2</ele>
        <time>2022-06-18T10:02:19Z</time>
      </trkpt>
      <trkpt lat="42.2818700" lon="-8.6091450">
        <ele>17.2</ele>
        <time>2022-06-18T10:02:20Z</time>
      </trkpt>
      <trkpt lat="42.2818660" lon="-8.6091150">
        <ele>17.4</ele>
        <time>2022-06-18T10:02:21Z</time>
      </trkpt>
      <trkpt lat="42.2818600" lon="-8.6090910">
        <ele>17.4</ele>
        <time>2022-06-18T10:02:22Z</time>
      </trkpt>
      <trkpt lat="42.2818460" lon="-8.6090680">
        <ele>17.4</ele>
        <time>2022-06-18T10:02:23Z</time>
      </trkpt>
      <trkpt lat="42.2818380" lon="-8.6090510">
        <ele>17.2</ele>
        <time>2022-06-18T10:02:24Z</time>
      </trkpt>
      <trkpt lat="42.2818310" lon="-8.6090360">
        <ele>17.2</ele>
        <time>2022-06-18T10:02:25Z</time>
      </trkpt>
      <trkpt lat="42.2818230" lon="-8.6090230">
        <ele>17.2</ele>
        <time>2022-06-18T10:02:26Z</time>
      </trkpt>
      <trkpt lat="42.2818160" lon="-8.6090110">
        <ele>17.2</ele>
        <time>2022-06-18T10:02:27Z</time>
      </trkpt>
      <trkpt lat="42.2818180" lon="-8.6090030">
        <ele>17.2</ele>
        <time>2022-06-18T10:02:28Z</time>
      </trkpt>
      <trkpt lat="42.2818200" lon="-8.6089900">
        <ele>17.4</ele>
        <time>2022-06-18T10:02:29Z</time>
      </trkpt>
      <trkpt lat="42.2818180" lon="-8.6089750">
        <ele>17.4</ele>
        <time>2022-06-18T10:02:30Z</time>
      </trkpt>
      <trkpt lat="42.2818180" lon="-8.6089630">
        <ele>17.4</ele>
        <time>2022-06-18T10:02:31Z</time>
      </trkpt>
      <trkpt lat="42.2818200" lon="-8.6089550">
        <ele>17.4</ele>
        <time>2022-06-18T10:02:32Z</time>
      </trkpt>
      <trkpt lat="42.2818230" lon="-8.6089460">
        <ele>17.6</ele>
        <time>2022-06-18T10:02:33Z</time>
      </trkpt>
      <trkpt lat="42.2818300" lon="-8.6089360">
        <ele>17.6</ele>
        <time>2022-06-18T10:02:34Z</time>
      </trkpt>
      <trkpt lat="42.2818310" lon="-8.6089250">
        <ele>17.6</ele>
        <time>2022-06-18T10:02:35Z</time>
      </trkpt>
      <trkpt lat="42.2818360" lon="-8.6089160">
        <ele>17.6</ele>
        <time>2022-06-18T10:02:36Z</time>
      </trkpt>
      <trkpt lat="42.2818360" lon="-8.6089160">
        <ele>17.4</ele>
        <time>2022-06-18T10:02:37Z</time>
      </trkpt>
      <trkpt lat="42.2817780" lon="-8.6089110">
        <ele>17.4</ele>
        <time>2022-06-18T10:06:01Z</time>
      </trkpt>
      <trkpt lat="42.2817600" lon="-8.6089050">
        <ele>17.4</ele>
        <time>2022-06-18T10:06:02Z</time>
      </trkpt>
      <trkpt lat="42.2817430" lon="-8.6089000">
        <ele>17.4</ele>
        <time>2022-06-18T10:06:03Z</time>
      </trkpt>
      <trkpt lat="42.2817260" lon="-8.6088960">
        <ele>17.2</ele>
        <time>2022-06-18T10:06:04Z</time>
      </trkpt>
      <trkpt lat="42.2817080" lon="-8.6089030">
        <ele>17.4</ele>
        <time>2022-06-18T10:06:05Z</time>
      </trkpt>
      <trkpt lat="42.2816860" lon="-8.6089110">
        <ele>17.4</ele>
        <time>2022-06-18T10:06:06Z</time>
      </trkpt>
      <trkpt lat="42.2816730" lon="-8.6089150">
        <ele>17.4</ele>
        <time>2022-06-18T10:06:07Z</time>
      </trkpt>
      <trkpt lat="42.2816550" lon="-8.6089200">
        <ele>17.4</ele>
        <time>2022-06-18T10:06:08Z</time>
      </trkpt>
      <trkpt lat="42.2816380" lon="-8.6089250">
        <ele>17.6</ele>
        <time>2022-06-18T10:06:09Z</time>
      </trkpt>
      <trkpt lat="42.2816260" lon="-8.6089230">
        <ele>17.6</ele>
        <time>2022-06-18T10:06:10Z</time>
      </trkpt>
      <trkpt lat="42.2816110" lon="-8.6089250">
        <ele>17.6</ele>
        <time>2022-06-18T10:06:11Z</time>
      </trkpt>
      <trkpt lat="42.2816000" lon="-8.6089250">
        <ele>17.6</ele>
        <time>2022-06-18T10:06:12Z</time>
      </trkpt>
      <trkpt lat="42.2815950" lon="-8.6089300">
        <ele>17.6</ele>
        <time>2022-06-18T10:06:13Z</time>
      </trkpt>
      <trkpt lat="42.2815950" lon="-8.6089300">
        <ele>17.6</ele>
        <time>2022-06-18T10:06:14Z</time>
      </trkpt>
      <trkpt lat="42.2815850" lon="-8.6090680">
        <ele>18.0</ele>
        <time>2022-06-18T11:24:43Z</time>
      </trkpt>
      <trkpt lat="42.2815950" lon="-8.6090530">
        <ele>17.6</ele>
        <time>2022-06-18T11:24:44Z</time>
      </trkpt>
      <trkpt lat="42.2816030" lon="-8.6090430">
        <ele>17.6</ele>
        <time>2022-06-18T11:24:45Z</time>
      </trkpt>
      <trkpt lat="42.2816150" lon="-8.6090380">
        <ele>17.6</ele>
        <time>2022-06-18T11:24:46Z</time>
      </trkpt>
      <trkpt lat="42.2816250" lon="-8.6090410">
        <ele>17.6</ele>
        <time>2022-06-18T11:24:47Z</time>
      </trkpt>
      <trkpt lat="42.2816260" lon="-8.6090360">
        <ele>17.6</ele>
        <time>2022-06-18T11:24:48Z</time>
      </trkpt>
      <trkpt lat="42.2816400" lon="-8.6090380">
        <ele>17.8</ele>
        <time>2022-06-18T11:24:49Z</time>
      </trkpt>
      <trkpt lat="42.2816500" lon="-8.6090460">
        <ele>17.8</ele>
        <time>2022-06-18T11:24:50Z</time>
      </trkpt>
      <trkpt lat="42.2816450" lon="-8.6089930">
        <ele>17.8</ele>
        <time>2022-06-18T11:24:51Z</time>
      </trkpt>
      <trkpt lat="42.2816650" lon="-8.6090000">
        <ele>17.8</ele>
        <time>2022-06-18T11:24:52Z</time>
      </trkpt>
      <trkpt lat="42.2816710" lon="-8.6089880">
        <ele>17.8</ele>
        <time>2022-06-18T11:24:53Z</time>
      </trkpt>
      <trkpt lat="42.2816780" lon="-8.6089830">
        <ele>17.8</ele>
        <time>2022-06-18T11:24:54Z</time>
      </trkpt>
      <trkpt lat="42.2816780" lon="-8.6089830">
        <ele>17.8</ele>
        <time>2022-06-18T11:24:55Z</time>
      </trkpt>
      <trkpt lat="42.2817000" lon="-8.6089830">
        <ele>17.8</ele>
        <time>2022-06-18T11:24:56Z</time>
      </trkpt>
      <trkpt lat="42.2817180" lon="-8.6089760">
        <ele>18.4</ele>
        <time>2022-06-18T11:24:57Z</time>
      </trkpt>
      <trkpt lat="42.2817400" lon="-8.6089660">
        <ele>18.4</ele>
        <time>2022-06-18T11:24:58Z</time>
      </trkpt>
      <trkpt lat="42.2817630" lon="-8.6089510">
        <ele>18.4</ele>
        <time>2022-06-18T11:24:59Z</time>
      </trkpt>
      <trkpt lat="42.2817880" lon="-8.6089480">
        <ele>17.4</ele>
        <time>2022-06-18T11:25:00Z</time>
      </trkpt>
      <trkpt lat="42.2818160" lon="-8.6089550">
        <ele>17.4</ele>
        <time>2022-06-18T11:25:01Z</time>
      </trkpt>
      <trkpt lat="42.2818450" lon="-8.6089610">
        <ele>17.4</ele>
        <time>2022-06-18T11:25:02Z</time>
      </trkpt>
      <trkpt lat="42.2818750" lon="-8.6089660">
        <ele>17.4</ele>
        <time>2022-06-18T11:25:03Z</time>
      </trkpt>
      <trkpt lat="42.2818980" lon="-8.6089710">
        <ele>17.4</ele>
        <time>2022-06-18T11:25:04Z</time>
      </trkpt>
      <trkpt lat="42.2819200" lon="-8.6089750">
        <ele>18.0</ele>
        <time>2022-06-18T11:25:05Z</time>
      </trkpt>
      <trkpt lat="42.2819410" lon="-8.6089800">
        <ele>18.0</ele>
        <time>2022-06-18T11:25:06Z</time>
      </trkpt>
      <trkpt lat="42.2819580" lon="-8.6089780">
        <ele>18.0</ele>
        <time>2022-06-18T11:25:07Z</time>
      </trkpt>
      <trkpt lat="42.2819730" lon="-8.6089660">
        <ele>17.8</ele>
        <time>2022-06-18T11:25:08Z</time>
      </trkpt>
      <trkpt lat="42.2819880" lon="-8.6089500">
        <ele>17.8</ele>
        <time>2022-06-18T11:25:09Z</time>
      </trkpt>
      <trkpt lat="42.2820030" lon="-8.6089330">
        <ele>17.8</ele>
        <time>2022-06-18T11:25:10Z</time>
      </trkpt>
      <trkpt lat="42.2820160" lon="-8.6089080">
        <ele>17.8</ele>
        <time>2022-06-18T11:25:11Z</time>
      </trkpt>
      <trkpt lat="42.2820280" lon="-8.6088830">
        <ele>18.0</ele>
        <time>2022-06-18T11:25:12Z</time>
      </trkpt>
      <trkpt lat="42.2820410" lon="-8.6088560">
        <ele>17.4</ele>
        <time>2022-06-18T11:25:13Z</time>
      </trkpt>
      <trkpt lat="42.2820510" lon="-8.6088280">
        <ele>17.4</ele>
        <time>2022-06-18T11:25:14Z</time>
      </trkpt>
      <trkpt lat="42.2820610" lon="-8.6088010">
        <ele>17.4</ele>
        <time>2022-06-18T11:25:15Z</time>
      </trkpt>
      <trkpt lat="42.2820730" lon="-8.6087810">
        <ele>17.6</ele>
        <time>2022-06-18T11:25:16Z</time>
      </trkpt>
      <trkpt lat="42.2820830" lon="-8.6087610">
        <ele>18.0</ele>
        <time>2022-06-18T11:25:17Z</time>
      </trkpt>
      <trkpt lat="42.2820930" lon="-8.6087450">
        <ele>18.0</ele>
        <time>2022-06-18T11:25:18Z</time>
      </trkpt>
      <trkpt lat="42.2821000" lon="-8.6087260">
        <ele>18.0</ele>
        <time>2022-06-18T11:25:19Z</time>
      </trkpt>
      <trkpt lat="42.2821080" lon="-8.6087100">
        <ele>18.0</ele>
        <time>2022-06-18T11:25:20Z</time>
      </trkpt>
      <trkpt lat="42.2821150" lon="-8.6086930">
        <ele>17.6</ele>
        <time>2022-06-18T11:25:21Z</time>
      </trkpt>
      <trkpt lat="42.2821250" lon="-8.6086800">
        <ele>17.6</ele>
        <time>2022-06-18T11:25:22Z</time>
      </trkpt>
      <trkpt lat="42.2821360" lon="-8.6086700">
        <ele>17.6</ele>
        <time>2022-06-18T11:25:23Z</time>
      </trkpt>
      <trkpt lat="42.2821480" lon="-8.6086630">
        <ele>18.0</ele>
        <time>2022-06-18T11:25:24Z</time>
      </trkpt>
      <trkpt lat="42.2821580" lon="-8.6086660">
        <ele>18.0</ele>
        <time>2022-06-18T11:25:25Z</time>
      </trkpt>
      <trkpt lat="42.2821700" lon="-8.6086700">
        <ele>18.0</ele>
        <time>2022-06-18T11:25:26Z</time>
      </trkpt>
      <trkpt lat="42.2821780" lon="-8.6086760">
        <ele>18.0</ele>
        <time>2022-06-18T11:25:27Z</time>
      </trkpt>
      <trkpt lat="42.2821860" lon="-8.6086830">
        <ele>17.8</ele>
        <time>2022-06-18T11:25:28Z</time>
      </trkpt>
      <trkpt lat="42.2821960" lon="-8.6086850">
        <ele>18.0</ele>
        <time>2022-06-18T11:25:29Z</time>
      </trkpt>
      <trkpt lat="42.2822080" lon="-8.6086810">
        <ele>18.0</ele>
        <time>2022-06-18T11:25:30Z</time>
      </trkpt>
      <trkpt lat="42.2822250" lon="-8.6086660">
        <ele>18.0</ele>
        <time>2022-06-18T11:25:31Z</time>
      </trkpt>
      <trkpt lat="42.2822360" lon="-8.6086480">
        <ele>18.0</ele>
        <time>2022-06-18T11:25:32Z</time>
      </trkpt>
      <trkpt lat="42.2822480" lon="-8.6086400">
        <ele>18.0</ele>
        <time>2022-06-18T11:25:33Z</time>
      </trkpt>
      <trkpt lat="42.2822560" lon="-8.6086330">
        <ele>18.0</ele>
        <time>2022-06-18T11:25:34Z</time>
      </trkpt>
      <trkpt lat="42.2822650" lon="-8.6086230">
        <ele>18.0</ele>
        <time>2022-06-18T11:25:35Z</time>
      </trkpt>
      <trkpt lat="42.2822760" lon="-8.6086210">
        <ele>18.0</ele>
        <time>2022-06-18T11:25:36Z</time>
      </trkpt>
      <trkpt lat="42.2822880" lon="-8.6086260">
        <ele>18.2</ele>
        <time>2022-06-18T11:25:37Z</time>
      </trkpt>
      <trkpt lat="42.2822960" lon="-8.6086450">
        <ele>18.2</ele>
        <time>2022-06-18T11:25:38Z</time>
      </trkpt>
      <trkpt lat="42.2823050" lon="-8.6086700">
        <ele>18.2</ele>
        <time>2022-06-18T11:25:39Z</time>
      </trkpt>
      <trkpt lat="42.2823060" lon="-8.6086830">
        <ele>18.2</ele>
        <time>2022-06-18T11:25:40Z</time>
      </trkpt>
      <trkpt lat="42.2823080" lon="-8.6086960">
        <ele>18.2</ele>
        <time>2022-06-18T11:25:41Z</time>
      </trkpt>
      <trkpt lat="42.2823150" lon="-8.6087080">
        <ele>18.2</ele>
        <time>2022-06-18T11:25:42Z</time>
      </trkpt>
      <trkpt lat="42.2823200" lon="-8.6086950">
        <ele>18.2</ele>
        <time>2022-06-18T11:25:43Z</time>
      </trkpt>
      <trkpt lat="42.2823330" lon="-8.6086750">
        <ele>18.6</ele>
        <time>2022-06-18T11:25:44Z</time>
      </trkpt>
      <trkpt lat="42.2823300" lon="-8.6086600">
        <ele>18.6</ele>
        <time>2022-06-18T11:25:45Z</time>
      </trkpt>
      <trkpt lat="42.2823260" lon="-8.6086450">
        <ele>18.6</ele>
        <time>2022-06-18T11:25:46Z</time>
      </trkpt>
      <trkpt lat="42.2823210" lon="-8.6086250">
        <ele>18.6</ele>
        <time>2022-06-18T11:25:47Z</time>
      </trkpt>
      <trkpt lat="42.2823180" lon="-8.6086050">
        <ele>18.6</ele>
        <time>2022-06-18T11:25:48Z</time>
      </trkpt>
      <trkpt lat="42.2823180" lon="-8.6085900">
        <ele>18.8</ele>
        <time>2022-06-18T11:25:49Z</time>
      </trkpt>
      <trkpt lat="42.2823180" lon="-8.6085750">
        <ele>18.8</ele>
        <time>2022-06-18T11:25:50Z</time>
      </trkpt>
      <trkpt lat="42.2823200" lon="-8.6085600">
        <ele>18.8</ele>
        <time>2022-06-18T11:25:51Z</time>
      </trkpt>
      <trkpt lat="42.2823250" lon="-8.6085460">
        <ele>18.8</ele>
        <time>2022-06-18T11:25:52Z</time>
      </trkpt>
      <trkpt lat="42.2823350" lon="-8.6085360">
        <ele>19.0</ele>
        <time>2022-06-18T11:25:53Z</time>
      </trkpt>
      <trkpt lat="42.2823450" lon="-8.6085230">
        <ele>19.0</ele>
        <time>2022-06-18T11:25:54Z</time>
      </trkpt>
      <trkpt lat="42.2823530" lon="-8.6085110">
        <ele>19.0</ele>
        <time>2022-06-18T11:25:55Z</time>
      </trkpt>
      <trkpt lat="42.2823610" lon="-8.6085010">
        <ele>19.0</ele>
        <time>2022-06-18T11:25:56Z</time>
      </trkpt>
      <trkpt lat="42.2823710" lon="-8.6084980">
        <ele>19.6</ele>
        <time>2022-06-18T11:25:57Z</time>
      </trkpt>
      <trkpt lat="42.2823810" lon="-8.6085010">
        <ele>19.6</ele>
        <time>2022-06-18T11:25:58Z</time>
      </trkpt>
      <trkpt lat="42.2823930" lon="-8.6085080">
        <ele>19.6</ele>
        <time>2022-06-18T11:25:59Z</time>
      </trkpt>
      <trkpt lat="42.2824050" lon="-8.6085010">
        <ele>19.6</ele>
        <time>2022-06-18T11:26:00Z</time>
      </trkpt>
      <trkpt lat="42.2824200" lon="-8.6084800">
        <ele>20.2</ele>
        <time>2022-06-18T11:26:01Z</time>
      </trkpt>
      <trkpt lat="42.2824350" lon="-8.6084580">
        <ele>20.2</ele>
        <time>2022-06-18T11:26:02Z</time>
      </trkpt>
      <trkpt lat="42.2824450" lon="-8.6084480">
        <ele>20.2</ele>
        <time>2022-06-18T11:26:03Z</time>
      </trkpt>
      <trkpt lat="42.2824560" lon="-8.6084430">
        <ele>20.6</ele>
        <time>2022-06-18T11:26:04Z</time>
      </trkpt>
      <trkpt lat="42.2824680" lon="-8.6084430">
        <ele>21.0</ele>
        <time>2022-06-18T11:26:05Z</time>
      </trkpt>
      <trkpt lat="42.2824780" lon="-8.6084300">
        <ele>21.0</ele>
        <time>2022-06-18T11:26:06Z</time>
      </trkpt>
      <trkpt lat="42.2824910" lon="-8.6084200">
        <ele>21.0</ele>
        <time>2022-06-18T11:26:07Z</time>
      </trkpt>
      <trkpt lat="42.2825080" lon="-8.6084130">
        <ele>21.6</ele>
        <time>2022-06-18T11:26:08Z</time>
      </trkpt>
      <trkpt lat="42.2825210" lon="-8.6084080">
        <ele>21.8</ele>
        <time>2022-06-18T11:26:09Z</time>
      </trkpt>
      <trkpt lat="42.2825400" lon="-8.6084060">
        <ele>21.8</ele>
        <time>2022-06-18T11:26:10Z</time>
      </trkpt>
      <trkpt lat="42.2825510" lon="-8.6083930">
        <ele>21.8</ele>
        <time>2022-06-18T11:26:11Z</time>
      </trkpt>
      <trkpt lat="42.2825700" lon="-8.6083910">
        <ele>22.6</ele>
        <time>2022-06-18T11:26:12Z</time>
      </trkpt>
      <trkpt lat="42.2825880" lon="-8.6083850">
        <ele>22.8</ele>
        <time>2022-06-18T11:26:13Z</time>
      </trkpt>
      <trkpt lat="42.2826060" lon="-8.6083750">
        <ele>22.8</ele>
        <time>2022-06-18T11:26:14Z</time>
      </trkpt>
      <trkpt lat="42.2826230" lon="-8.6083580">
        <ele>22.8</ele>
        <time>2022-06-18T11:26:15Z</time>
      </trkpt>
      <trkpt lat="42.2826410" lon="-8.6083580">
        <ele>23.0</ele>
        <time>2022-06-18T11:26:16Z</time>
      </trkpt>
      <trkpt lat="42.2826510" lon="-8.6083510">
        <ele>23.4</ele>
        <time>2022-06-18T11:26:17Z</time>
      </trkpt>
      <trkpt lat="42.2826660" lon="-8.6083410">
        <ele>23.4</ele>
        <time>2022-06-18T11:26:18Z</time>
      </trkpt>
      <trkpt lat="42.2826800" lon="-8.6083410">
        <ele>23.4</ele>
        <time>2022-06-18T11:26:19Z</time>
      </trkpt>
      <trkpt lat="42.2826980" lon="-8.6083460">
        <ele>23.4</ele>
        <time>2022-06-18T11:26:20Z</time>
      </trkpt>
      <trkpt lat="42.2827150" lon="-8.6083330">
        <ele>23.0</ele>
        <time>2022-06-18T11:26:21Z</time>
      </trkpt>
      <trkpt lat="42.2827330" lon="-8.6083250">
        <ele>23.0</ele>
        <time>2022-06-18T11:26:22Z</time>
      </trkpt>
      <trkpt lat="42.2827450" lon="-8.6083130">
        <ele>23.0</ele>
        <time>2022-06-18T11:26:23Z</time>
      </trkpt>
      <trkpt lat="42.2827560" lon="-8.6082980">
        <ele>23.6</ele>
        <time>2022-06-18T11:26:24Z</time>
      </trkpt>
      <trkpt lat="42.2827660" lon="-8.6082810">
        <ele>23.8</ele>
        <time>2022-06-18T11:26:25Z</time>
      </trkpt>
      <trkpt lat="42.2827760" lon="-8.6082780">
        <ele>23.8</ele>
        <time>2022-06-18T11:26:26Z</time>
      </trkpt>
      <trkpt lat="42.2827850" lon="-8.6082760">
        <ele>23.8</ele>
        <time>2022-06-18T11:26:27Z</time>
      </trkpt>
      <trkpt lat="42.2827930" lon="-8.6082750">
        <ele>23.4</ele>
        <time>2022-06-18T11:26:28Z</time>
      </trkpt>
      <trkpt lat="42.2827930" lon="-8.6082750">
        <ele>23.6</ele>
        <time>2022-06-18T11:26:29Z</time>
      </trkpt>
      <trkpt lat="42.2828910" lon="-8.6082350">
        <ele>23.2</ele>
        <time>2022-06-18T11:34:19Z</time>
      </trkpt>
      <trkpt lat="42.2829010" lon="-8.6082480">
        <ele>23.2</ele>
        <time>2022-06-18T11:34:20Z</time>
      </trkpt>
      <trkpt lat="42.2829160" lon="-8.6082500">
        <ele>23.2</ele>
        <time>2022-06-18T11:34:21Z</time>
      </trkpt>
      <trkpt lat="42.2829300" lon="-8.6082480">
        <ele>23.2</ele>
        <time>2022-06-18T11:34:22Z</time>
      </trkpt>
      <trkpt lat="42.2829410" lon="-8.6082410">
        <ele>23.2</ele>
        <time>2022-06-18T11:34:23Z</time>
      </trkpt>
      <trkpt lat="42.2829560" lon="-8.6082360">
        <ele>23.2</ele>
        <time>2022-06-18T11:34:24Z</time>
      </trkpt>
      <trkpt lat="42.2829680" lon="-8.6082310">
        <ele>23.6</ele>
        <time>2022-06-18T11:34:25Z</time>
      </trkpt>
      <trkpt lat="42.2829780" lon="-8.6082280">
        <ele>23.6</ele>
        <time>2022-06-18T11:34:26Z</time>
      </trkpt>
      <trkpt lat="42.2829850" lon="-8.6082280">
        <ele>23.6</ele>
        <time>2022-06-18T11:34:27Z</time>
      </trkpt>
      <trkpt lat="42.2829950" lon="-8.6082230">
        <ele>23.6</ele>
        <time>2022-06-18T11:34:28Z</time>
      </trkpt>
      <trkpt lat="42.2830130" lon="-8.6082200">
        <ele>24.0</ele>
        <time>2022-06-18T11:34:29Z</time>
      </trkpt>
      <trkpt lat="42.2830330" lon="-8.6082130">
        <ele>24.0</ele>
        <time>2022-06-18T11:34:30Z</time>
      </trkpt>
      <trkpt lat="42.2830530" lon="-8.6082080">
        <ele>24.0</ele>
        <time>2022-06-18T11:34:31Z</time>
      </trkpt>
      <trkpt lat="42.2830710" lon="-8.6082110">
        <ele>24.0</ele>
        <time>2022-06-18T11:34:32Z</time>
      </trkpt>
      <trkpt lat="42.2830880" lon="-8.6082050">
        <ele>24.2</ele>
        <time>2022-06-18T11:34:33Z</time>
      </trkpt>
      <trkpt lat="42.2831000" lon="-8.6081960">
        <ele>24.2</ele>
        <time>2022-06-18T11:34:34Z</time>
      </trkpt>
      <trkpt lat="42.2831150" lon="-8.6081860">
        <ele>24.2</ele>
        <time>2022-06-18T11:34:35Z</time>
      </trkpt>
      <trkpt lat="42.2831310" lon="-8.6081730">
        <ele>24.2</ele>
        <time>2022-06-18T11:34:36Z</time>
      </trkpt>
      <trkpt lat="42.2831500" lon="-8.6081630">
        <ele>24.2</ele>
        <time>2022-06-18T11:34:37Z</time>
      </trkpt>
      <trkpt lat="42.2831680" lon="-8.6081410">
        <ele>24.2</ele>
        <time>2022-06-18T11:34:38Z</time>
      </trkpt>
      <trkpt lat="42.2831830" lon="-8.6081280">
        <ele>24.2</ele>
        <time>2022-06-18T11:34:39Z</time>
      </trkpt>
      <trkpt lat="42.2832000" lon="-8.6081160">
        <ele>24.2</ele>
        <time>2022-06-18T11:34:40Z</time>
      </trkpt>
      <trkpt lat="42.2832280" lon="-8.6081110">
        <ele>23.8</ele>
        <time>2022-06-18T11:34:41Z</time>
      </trkpt>
      <trkpt lat="42.2832510" lon="-8.6080960">
        <ele>23.8</ele>
        <time>2022-06-18T11:34:42Z</time>
      </trkpt>
      <trkpt lat="42.2832730" lon="-8.6080850">
        <ele>23.8</ele>
        <time>2022-06-18T11:34:43Z</time>
      </trkpt>
      <trkpt lat="42.2832860" lon="-8.6080580">
        <ele>23.8</ele>
        <time>2022-06-18T11:34:44Z</time>
      </trkpt>
      <trkpt lat="42.2832960" lon="-8.6080380">
        <ele>23.8</ele>
        <time>2022-06-18T11:34:45Z</time>
      </trkpt>
      <trkpt lat="42.2833200" lon="-8.6080300">
        <ele>23.8</ele>
        <time>2022-06-18T11:34:46Z</time>
      </trkpt>
      <trkpt lat="42.2833350" lon="-8.6080080">
        <ele>23.8</ele>
        <time>2022-06-18T11:34:47Z</time>
      </trkpt>
      <trkpt lat="42.2833530" lon="-8.6079810">
        <ele>22.8</ele>
        <time>2022-06-18T11:34:48Z</time>
      </trkpt>
      <trkpt lat="42.2833750" lon="-8.6079630">
        <ele>21.4</ele>
        <time>2022-06-18T11:34:49Z</time>
      </trkpt>
      <trkpt lat="42.2833980" lon="-8.6079510">
        <ele>21.4</ele>
        <time>2022-06-18T11:34:50Z</time>
      </trkpt>
      <trkpt lat="42.2834330" lon="-8.6079360">
        <ele>21.4</ele>
        <time>2022-06-18T11:34:51Z</time>
      </trkpt>
      <trkpt lat="42.2834510" lon="-8.6079210">
        <ele>21.4</ele>
        <time>2022-06-18T11:34:52Z</time>
      </trkpt>
      <trkpt lat="42.2834700" lon="-8.6079010">
        <ele>19.8</ele>
        <time>2022-06-18T11:34:53Z</time>
      </trkpt>
      <trkpt lat="42.2835050" lon="-8.6078730">
        <ele>19.8</ele>
        <time>2022-06-18T11:34:54Z</time>
      </trkpt>
      <trkpt lat="42.2835350" lon="-8.6078510">
        <ele>19.8</ele>
        <time>2022-06-18T11:34:55Z</time>
      </trkpt>
      <trkpt lat="42.2835510" lon="-8.6078510">
        <ele>19.8</ele>
        <time>2022-06-18T11:34:56Z</time>
      </trkpt>
      <trkpt lat="42.2835680" lon="-8.6078550">
        <ele>19.6</ele>
        <time>2022-06-18T11:34:57Z</time>
      </trkpt>
      <trkpt lat="42.2835800" lon="-8.6078560">
        <ele>19.6</ele>
        <time>2022-06-18T11:34:58Z</time>
      </trkpt>
      <trkpt lat="42.2835930" lon="-8.6078550">
        <ele>19.6</ele>
        <time>2022-06-18T11:34:59Z</time>
      </trkpt>
      <trkpt lat="42.2836050" lon="-8.6078550">
        <ele>19.0</ele>
        <time>2022-06-18T11:35:00Z</time>
      </trkpt>
      <trkpt lat="42.2836400" lon="-8.6078500">
        <ele>18.6</ele>
        <time>2022-06-18T11:35:01Z</time>
      </trkpt>
      <trkpt lat="42.2836730" lon="-8.6078350">
        <ele>18.6</ele>
        <time>2022-06-18T11:35:02Z</time>
      </trkpt>
      <trkpt lat="42.2837060" lon="-8.6078250">
        <ele>18.6</ele>
        <time>2022-06-18T11:35:03Z</time>
      </trkpt>
      <trkpt lat="42.2837330" lon="-8.6078080">
        <ele>18.6</ele>
        <time>2022-06-18T11:35:04Z</time>
      </trkpt>
      <trkpt lat="42.2837510" lon="-8.6078030">
        <ele>19.6</ele>
        <time>2022-06-18T11:35:05Z</time>
      </trkpt>
      <trkpt lat="42.2837680" lon="-8.6078060">
        <ele>19.6</ele>
        <time>2022-06-18T11:35:06Z</time>
      </trkpt>
      <trkpt lat="42.2837960" lon="-8.6078130">
        <ele>19.6</ele>
        <time>2022-06-18T11:35:07Z</time>
      </trkpt>
      <trkpt lat="42.2838180" lon="-8.6078230">
        <ele>20.6</ele>
        <time>2022-06-18T11:35:08Z</time>
      </trkpt>
      <trkpt lat="42.2838410" lon="-8.6078180">
        <ele>20.6</ele>
        <time>2022-06-18T11:35:09Z</time>
      </trkpt>
      <trkpt lat="42.2838650" lon="-8.6078130">
        <ele>20.6</ele>
        <time>2022-06-18T11:35:10Z</time>
      </trkpt>
      <trkpt lat="42.2838830" lon="-8.6078230">
        <ele>20.6</ele>
        <time>2022-06-18T11:35:11Z</time>
      </trkpt>
      <trkpt lat="42.2839060" lon="-8.6078230">
        <ele>21.2</ele>
        <time>2022-06-18T11:35:12Z</time>
      </trkpt>
      <trkpt lat="42.2839360" lon="-8.6078260">
        <ele>21.2</ele>
        <time>2022-06-18T11:35:13Z</time>
      </trkpt>
      <trkpt lat="42.2839600" lon="-8.6078310">
        <ele>21.2</ele>
        <time>2022-06-18T11:35:14Z</time>
      </trkpt>
      <trkpt lat="42.2839880" lon="-8.6078310">
        <ele>21.2</ele>
        <time>2022-06-18T11:35:15Z</time>
      </trkpt>
      <trkpt lat="42.2840130" lon="-8.6078430">
        <ele>21.6</ele>
        <time>2022-06-18T11:35:16Z</time>
      </trkpt>
      <trkpt lat="42.2840410" lon="-8.6078430">
        <ele>21.6</ele>
        <time>2022-06-18T11:35:17Z</time>
      </trkpt>
      <trkpt lat="42.2840680" lon="-8.6078430">
        <ele>21.6</ele>
        <time>2022-06-18T11:35:18Z</time>
      </trkpt>
      <trkpt lat="42.2840910" lon="-8.6078400">
        <ele>21.6</ele>
        <time>2022-06-18T11:35:19Z</time>
      </trkpt>
      <trkpt lat="42.2841180" lon="-8.6078410">
        <ele>22.0</ele>
        <time>2022-06-18T11:35:20Z</time>
      </trkpt>
      <trkpt lat="42.2841430" lon="-8.6078480">
        <ele>23.0</ele>
        <time>2022-06-18T11:35:21Z</time>
      </trkpt>
      <trkpt lat="42.2841650" lon="-8.6078510">
        <ele>23.0</ele>
        <time>2022-06-18T11:35:22Z</time>
      </trkpt>
      <trkpt lat="42.2841850" lon="-8.6078550">
        <ele>23.0</ele>
        <time>2022-06-18T11:35:23Z</time>
      </trkpt>
      <trkpt lat="42.2842030" lon="-8.6078600">
        <ele>23.8</ele>
        <time>2022-06-18T11:35:24Z</time>
      </trkpt>
      <trkpt lat="42.2842210" lon="-8.6078630">
        <ele>24.4</ele>
        <time>2022-06-18T11:35:25Z</time>
      </trkpt>
      <trkpt lat="42.2842350" lon="-8.6078730">
        <ele>24.4</ele>
        <time>2022-06-18T11:35:26Z</time>
      </trkpt>
      <trkpt lat="42.2842500" lon="-8.6078750">
        <ele>24.4</ele>
        <time>2022-06-18T11:35:27Z</time>
      </trkpt>
      <trkpt lat="42.2842710" lon="-8.6078780">
        <ele>25.2</ele>
        <time>2022-06-18T11:35:28Z</time>
      </trkpt>
      <trkpt lat="42.2842930" lon="-8.6078800">
        <ele>25.0</ele>
        <time>2022-06-18T11:35:29Z</time>
      </trkpt>
      <trkpt lat="42.2843160" lon="-8.6078800">
        <ele>25.0</ele>
        <time>2022-06-18T11:35:30Z</time>
      </trkpt>
      <trkpt lat="42.2843350" lon="-8.6078800">
        <ele>25.0</ele>
        <time>2022-06-18T11:35:31Z</time>
      </trkpt>
      <trkpt lat="42.2843560" lon="-8.6078860">
        <ele>26.0</ele>
        <time>2022-06-18T11:35:32Z</time>
      </trkpt>
      <trkpt lat="42.2843760" lon="-8.6078860">
        <ele>26.6</ele>
        <time>2022-06-18T11:35:33Z</time>
      </trkpt>
      <trkpt lat="42.2843980" lon="-8.6078880">
        <ele>26.6</ele>
        <time>2022-06-18T11:35:34Z</time>
      </trkpt>
      <trkpt lat="42.2844210" lon="-8.6078860">
        <ele>26.6</ele>
        <time>2022-06-18T11:35:35Z</time>
      </trkpt>
      <trkpt lat="42.2844360" lon="-8.6078760">
        <ele>26.6</ele>
        <time>2022-06-18T11:35:36Z</time>
      </trkpt>
      <trkpt lat="42.2844530" lon="-8.6078710">
        <ele>27.8</ele>
        <time>2022-06-18T11:35:37Z</time>
      </trkpt>
      <trkpt lat="42.2844680" lon="-8.6078600">
        <ele>27.8</ele>
        <time>2022-06-18T11:35:38Z</time>
      </trkpt>
      <trkpt lat="42.2844930" lon="-8.6078430">
        <ele>27.8</ele>
        <time>2022-06-18T11:35:39Z</time>
      </trkpt>
      <trkpt lat="42.2845280" lon="-8.6078150">
        <ele>27.8</ele>
        <time>2022-06-18T11:35:40Z</time>
      </trkpt>
      <trkpt lat="42.2845550" lon="-8.6077980">
        <ele>28.4</ele>
        <time>2022-06-18T11:35:41Z</time>
      </trkpt>
      <trkpt lat="42.2845760" lon="-8.6077950">
        <ele>28.4</ele>
        <time>2022-06-18T11:35:42Z</time>
      </trkpt>
      <trkpt lat="42.2845960" lon="-8.6077980">
        <ele>28.4</ele>
        <time>2022-06-18T11:35:43Z</time>
      </trkpt>
      <trkpt lat="42.2846230" lon="-8.6077960">
        <ele>28.4</ele>
        <time>2022-06-18T11:35:44Z</time>
      </trkpt>
      <trkpt lat="42.2846480" lon="-8.6077900">
        <ele>29.8</ele>
        <time>2022-06-18T11:35:45Z</time>
      </trkpt>
      <trkpt lat="42.2846760" lon="-8.6077810">
        <ele>29.8</ele>
        <time>2022-06-18T11:35:46Z</time>
      </trkpt>
      <trkpt lat="42.2847000" lon="-8.6077780">
        <ele>29.8</ele>
        <time>2022-06-18T11:35:47Z</time>
      </trkpt>
      <trkpt lat="42.2847180" lon="-8.6077750">
        <ele>30.2</ele>
        <time>2022-06-18T11:35:48Z</time>
      </trkpt>
      <trkpt lat="42.2847360" lon="-8.6077750">
        <ele>29.8</ele>
        <time>2022-06-18T11:35:49Z</time>
      </trkpt>
      <trkpt lat="42.2847510" lon="-8.6077730">
        <ele>29.8</ele>
        <time>2022-06-18T11:35:50Z</time>
      </trkpt>
      <trkpt lat="42.2847710" lon="-8.6077660">
        <ele>29.8</ele>
        <time>2022-06-18T11:35:51Z</time>
      </trkpt>
      <trkpt lat="42.2847880" lon="-8.6077550">
        <ele>29.8</ele>
        <time>2022-06-18T11:35:52Z</time>
      </trkpt>
      <trkpt lat="42.2848060" lon="-8.6077460">
        <ele>29.6</ele>
        <time>2022-06-18T11:35:53Z</time>
      </trkpt>
      <trkpt lat="42.2848250" lon="-8.6077400">
        <ele>29.6</ele>
        <time>2022-06-18T11:35:54Z</time>
      </trkpt>
      <trkpt lat="42.2848450" lon="-8.6077330">
        <ele>29.6</ele>
        <time>2022-06-18T11:35:55Z</time>
      </trkpt>
      <trkpt lat="42.2848680" lon="-8.6077260">
        <ele>30.2</ele>
        <time>2022-06-18T11:35:56Z</time>
      </trkpt>
      <trkpt lat="42.2848910" lon="-8.6077360">
        <ele>29.6</ele>
        <time>2022-06-18T11:35:57Z</time>
      </trkpt>
      <trkpt lat="42.2849130" lon="-8.6077410">
        <ele>29.6</ele>
        <time>2022-06-18T11:35:58Z</time>
      </trkpt>
      <trkpt lat="42.2849350" lon="-8.6077460">
        <ele>29.6</ele>
        <time>2022-06-18T11:35:59Z</time>
      </trkpt>
      <trkpt lat="42.2849550" lon="-8.6077430">
        <ele>30.2</ele>
        <time>2022-06-18T11:36:00Z</time>
      </trkpt>
      <trkpt lat="42.2849700" lon="-8.6077410">
        <ele>29.8</ele>
        <time>2022-06-18T11:36:01Z</time>
      </trkpt>
      <trkpt lat="42.2849850" lon="-8.6077380">
        <ele>29.8</ele>
        <time>2022-06-18T11:36:02Z</time>
      </trkpt>
      <trkpt lat="42.2850010" lon="-8.6077350">
        <ele>29.8</ele>
        <time>2022-06-18T11:36:03Z</time>
      </trkpt>
      <trkpt lat="42.2850180" lon="-8.6077350">
        <ele>29.8</ele>
        <time>2022-06-18T11:36:04Z</time>
      </trkpt>
      <trkpt lat="42.2850400" lon="-8.6077310">
        <ele>29.6</ele>
        <time>2022-06-18T11:36:05Z</time>
      </trkpt>
      <trkpt lat="42.2850630" lon="-8.6077280">
        <ele>29.6</ele>
        <time>2022-06-18T11:36:06Z</time>
      </trkpt>
      <trkpt lat="42.2850830" lon="-8.6077210">
        <ele>29.6</ele>
        <time>2022-06-18T11:36:07Z</time>
      </trkpt>
      <trkpt lat="42.2851010" lon="-8.6077130">
        <ele>29.6</ele>
        <time>2022-06-18T11:36:08Z</time>
      </trkpt>
      <trkpt lat="42.2851150" lon="-8.6077060">
        <ele>30.2</ele>
        <time>2022-06-18T11:36:09Z</time>
      </trkpt>
      <trkpt lat="42.2851310" lon="-8.6076980">
        <ele>30.2</ele>
        <time>2022-06-18T11:36:10Z</time>
      </trkpt>
      <trkpt lat="42.2851480" lon="-8.6076900">
        <ele>30.2</ele>
        <time>2022-06-18T11:36:11Z</time>
      </trkpt>
      <trkpt lat="42.2851610" lon="-8.6076800">
        <ele>30.2</ele>
        <time>2022-06-18T11:36:12Z</time>
      </trkpt>
      <trkpt lat="42.2851750" lon="-8.6076730">
        <ele>28.8</ele>
        <time>2022-06-18T11:36:13Z</time>
      </trkpt>
      <trkpt lat="42.2851930" lon="-8.6076610">
        <ele>28.8</ele>
        <time>2022-06-18T11:36:14Z</time>
      </trkpt>
      <trkpt lat="42.2852110" lon="-8.6076510">
        <ele>28.8</ele>
        <time>2022-06-18T11:36:15Z</time>
      </trkpt>
      <trkpt lat="42.2852280" lon="-8.6076400">
        <ele>29.8</ele>
        <time>2022-06-18T11:36:16Z</time>
      </trkpt>
      <trkpt lat="42.2852430" lon="-8.6076300">
        <ele>30.8</ele>
        <time>2022-06-18T11:36:17Z</time>
      </trkpt>
      <trkpt lat="42.2852600" lon="-8.6076230">
        <ele>30.8</ele>
        <time>2022-06-18T11:36:18Z</time>
      </trkpt>
      <trkpt lat="42.2852760" lon="-8.6076130">
        <ele>30.8</ele>
        <time>2022-06-18T11:36:19Z</time>
      </trkpt>
      <trkpt lat="42.2852950" lon="-8.6076030">
        <ele>30.8</ele>
        <time>2022-06-18T11:36:20Z</time>
      </trkpt>
      <trkpt lat="42.2853060" lon="-8.6075980">
        <ele>30.4</ele>
        <time>2022-06-18T11:36:21Z</time>
      </trkpt>
      <trkpt lat="42.2853250" lon="-8.6075930">
        <ele>30.4</ele>
        <time>2022-06-18T11:36:22Z</time>
      </trkpt>
      <trkpt lat="42.2853400" lon="-8.6075930">
        <ele>30.4</ele>
        <time>2022-06-18T11:36:23Z</time>
      </trkpt>
      <trkpt lat="42.2853560" lon="-8.6075910">
        <ele>31.0</ele>
        <time>2022-06-18T11:36:24Z</time>
      </trkpt>
      <trkpt lat="42.2853700" lon="-8.6075880">
        <ele>31.4</ele>
        <time>2022-06-18T11:36:25Z</time>
      </trkpt>
      <trkpt lat="42.2853850" lon="-8.6075860">
        <ele>31.4</ele>
        <time>2022-06-18T11:36:26Z</time>
      </trkpt>
      <trkpt lat="42.2853950" lon="-8.6075880">
        <ele>31.4</ele>
        <time>2022-06-18T11:36:27Z</time>
      </trkpt>
      <trkpt lat="42.2854100" lon="-8.6075930">
        <ele>31.4</ele>
        <time>2022-06-18T11:36:28Z</time>
      </trkpt>
      <trkpt lat="42.2854280" lon="-8.6075930">
        <ele>31.0</ele>
        <time>2022-06-18T11:36:29Z</time>
      </trkpt>
      <trkpt lat="42.2854430" lon="-8.6075910">
        <ele>31.0</ele>
        <time>2022-06-18T11:36:30Z</time>
      </trkpt>
      <trkpt lat="42.2854580" lon="-8.6075930">
        <ele>31.0</ele>
        <time>2022-06-18T11:36:31Z</time>
      </trkpt>
      <trkpt lat="42.2854680" lon="-8.6075950">
        <ele>32.0</ele>
        <time>2022-06-18T11:36:32Z</time>
      </trkpt>
      <trkpt lat="42.2854800" lon="-8.6076010">
        <ele>32.2</ele>
        <time>2022-06-18T11:36:33Z</time>
      </trkpt>
      <trkpt lat="42.2854980" lon="-8.6076080">
        <ele>32.2</ele>
        <time>2022-06-18T11:36:34Z</time>
      </trkpt>
      <trkpt lat="42.2855110" lon="-8.6076200">
        <ele>32.2</ele>
        <time>2022-06-18T11:36:35Z</time>
      </trkpt>
      <trkpt lat="42.2855230" lon="-8.6076300">
        <ele>32.2</ele>
        <time>2022-06-18T11:36:36Z</time>
      </trkpt>
      <trkpt lat="42.2855360" lon="-8.6076380">
        <ele>33.0</ele>
        <time>2022-06-18T11:36:37Z</time>
      </trkpt>
      <trkpt lat="42.2855510" lon="-8.6076500">
        <ele>33.0</ele>
        <time>2022-06-18T11:36:38Z</time>
      </trkpt>
      <trkpt lat="42.2855650" lon="-8.6076510">
        <ele>33.0</ele>
        <time>2022-06-18T11:36:39Z</time>
      </trkpt>
      <trkpt lat="42.2855810" lon="-8.6076560">
        <ele>32.8</ele>
        <time>2022-06-18T11:36:40Z</time>
      </trkpt>
      <trkpt lat="42.2856010" lon="-8.6076560">
        <ele>32.4</ele>
        <time>2022-06-18T11:36:41Z</time>
      </trkpt>
      <trkpt lat="42.2856210" lon="-8.6076530">
        <ele>32.4</ele>
        <time>2022-06-18T11:36:42Z</time>
      </trkpt>
      <trkpt lat="42.2856410" lon="-8.6076510">
        <ele>32.4</ele>
        <time>2022-06-18T11:36:43Z</time>
      </trkpt>
      <trkpt lat="42.2856600" lon="-8.6076550">
        <ele>33.4</ele>
        <time>2022-06-18T11:36:44Z</time>
      </trkpt>
      <trkpt lat="42.2856760" lon="-8.6076550">
        <ele>33.2</ele>
        <time>2022-06-18T11:36:45Z</time>
      </trkpt>
      <trkpt lat="42.2856930" lon="-8.6076600">
        <ele>33.2</ele>
        <time>2022-06-18T11:36:46Z</time>
      </trkpt>
      <trkpt lat="42.2857050" lon="-8.6076610">
        <ele>33.2</ele>
        <time>2022-06-18T11:36:47Z</time>
      </trkpt>
      <trkpt lat="42.2857130" lon="-8.6076630">
        <ele>33.6</ele>
        <time>2022-06-18T11:36:48Z</time>
      </trkpt>
      <trkpt lat="42.2857260" lon="-8.6076650">
        <ele>33.2</ele>
        <time>2022-06-18T11:36:49Z</time>
      </trkpt>
      <trkpt lat="42.2857410" lon="-8.6076650">
        <ele>33.2</ele>
        <time>2022-06-18T11:36:50Z</time>
      </trkpt>
      <trkpt lat="42.2857610" lon="-8.6076700">
        <ele>33.2</ele>
        <time>2022-06-18T11:36:51Z</time>
      </trkpt>
      <trkpt lat="42.2857760" lon="-8.6076700">
        <ele>33.8</ele>
        <time>2022-06-18T11:36:52Z</time>
      </trkpt>
      <trkpt lat="42.2857960" lon="-8.6076680">
        <ele>34.2</ele>
        <time>2022-06-18T11:36:53Z</time>
      </trkpt>
      <trkpt lat="42.2858080" lon="-8.6076660">
        <ele>34.2</ele>
        <time>2022-06-18T11:36:54Z</time>
      </trkpt>
      <trkpt lat="42.2858200" lon="-8.6076630">
        <ele>34.2</ele>
        <time>2022-06-18T11:36:55Z</time>
      </trkpt>
      <trkpt lat="42.2858310" lon="-8.6076610">
        <ele>34.2</ele>
        <time>2022-06-18T11:36:56Z</time>
      </trkpt>
      <trkpt lat="42.2858400" lon="-8.6076710">
        <ele>34.0</ele>
        <time>2022-06-18T11:36:57Z</time>
      </trkpt>
      <trkpt lat="42.2858430" lon="-8.6076780">
        <ele>34.0</ele>
        <time>2022-06-18T11:36:58Z</time>
      </trkpt>
      <trkpt lat="42.2858430" lon="-8.6076780">
        <ele>34.0</ele>
        <time>2022-06-18T11:36:59Z</time>
      </trkpt>
      <trkpt lat="42.2858660" lon="-8.6076800">
        <ele>34.0</ele>
        <time>2022-06-18T11:37:00Z</time>
      </trkpt>
      <trkpt lat="42.2858930" lon="-8.6076800">
        <ele>34.2</ele>
        <time>2022-06-18T11:37:01Z</time>
      </trkpt>
      <trkpt lat="42.2859130" lon="-8.6076850">
        <ele>34.2</ele>
        <time>2022-06-18T11:37:02Z</time>
      </trkpt>
      <trkpt lat="42.2859380" lon="-8.6076900">
        <ele>34.2</ele>
        <time>2022-06-18T11:37:03Z</time>
      </trkpt>
      <trkpt lat="42.2859530" lon="-8.6076950">
        <ele>34.2</ele>
        <time>2022-06-18T11:37:04Z</time>
      </trkpt>
      <trkpt lat="42.2859610" lon="-8.6077000">
        <ele>34.6</ele>
        <time>2022-06-18T11:37:05Z</time>
      </trkpt>
      <trkpt lat="42.2859750" lon="-8.6077100">
        <ele>34.6</ele>
        <time>2022-06-18T11:37:06Z</time>
      </trkpt>
      <trkpt lat="42.2859860" lon="-8.6077100">
        <ele>34.6</ele>
        <time>2022-06-18T11:37:07Z</time>
      </trkpt>
      <trkpt lat="42.2860010" lon="-8.6077160">
        <ele>34.6</ele>
        <time>2022-06-18T11:37:08Z</time>
      </trkpt>
      <trkpt lat="42.2860180" lon="-8.6077180">
        <ele>35.2</ele>
        <time>2022-06-18T11:37:09Z</time>
      </trkpt>
      <trkpt lat="42.2860300" lon="-8.6077180">
        <ele>35.2</ele>
        <time>2022-06-18T11:37:10Z</time>
      </trkpt>
      <trkpt lat="42.2860400" lon="-8.6077210">
        <ele>35.2</ele>
        <time>2022-06-18T11:37:11Z</time>
      </trkpt>
      <trkpt lat="42.2860510" lon="-8.6077230">
        <ele>35.0</ele>
        <time>2022-06-18T11:37:12Z</time>
      </trkpt>
      <trkpt lat="42.2860630" lon="-8.6077250">
        <ele>35.0</ele>
        <time>2022-06-18T11:37:13Z</time>
      </trkpt>
      <trkpt lat="42.2860750" lon="-8.6077260">
        <ele>35.0</ele>
        <time>2022-06-18T11:37:14Z</time>
      </trkpt>
      <trkpt lat="42.2860910" lon="-8.6077230">
        <ele>35.0</ele>
        <time>2022-06-18T11:37:15Z</time>
      </trkpt>
      <trkpt lat="42.2861060" lon="-8.6077250">
        <ele>35.0</ele>
        <time>2022-06-18T11:37:16Z</time>
      </trkpt>
      <trkpt lat="42.2861360" lon="-8.6077400">
        <ele>35.4</ele>
        <time>2022-06-18T11:37:17Z</time>
      </trkpt>
      <trkpt lat="42.2861580" lon="-8.6077580">
        <ele>35.4</ele>
        <time>2022-06-18T11:37:18Z</time>
      </trkpt>
      <trkpt lat="42.2861760" lon="-8.6077830">
        <ele>35.4</ele>
        <time>2022-06-18T11:37:19Z</time>
      </trkpt>
      <trkpt lat="42.2861910" lon="-8.6078060">
        <ele>34.8</ele>
        <time>2022-06-18T11:37:20Z</time>
      </trkpt>
      <trkpt lat="42.2862030" lon="-8.6078260">
        <ele>34.8</ele>
        <time>2022-06-18T11:37:21Z</time>
      </trkpt>
      <trkpt lat="42.2862150" lon="-8.6078430">
        <ele>34.8</ele>
        <time>2022-06-18T11:37:22Z</time>
      </trkpt>
      <trkpt lat="42.2862450" lon="-8.6078600">
        <ele>34.8</ele>
        <time>2022-06-18T11:37:23Z</time>
      </trkpt>
      <trkpt lat="42.2862680" lon="-8.6078760">
        <ele>34.8</ele>
        <time>2022-06-18T11:37:24Z</time>
      </trkpt>
      <trkpt lat="42.2862900" lon="-8.6078930">
        <ele>34.2</ele>
        <time>2022-06-18T11:37:25Z</time>
      </trkpt>
      <trkpt lat="42.2863130" lon="-8.6079060">
        <ele>34.2</ele>
        <time>2022-06-18T11:37:26Z</time>
      </trkpt>
      <trkpt lat="42.2863380" lon="-8.6079110">
        <ele>34.2</ele>
        <time>2022-06-18T11:37:27Z</time>
      </trkpt>
      <trkpt lat="42.2863560" lon="-8.6079210">
        <ele>33.6</ele>
        <time>2022-06-18T11:37:28Z</time>
      </trkpt>
      <trkpt lat="42.2863760" lon="-8.6079400">
        <ele>33.0</ele>
        <time>2022-06-18T11:37:29Z</time>
      </trkpt>
      <trkpt lat="42.2864010" lon="-8.6079600">
        <ele>33.0</ele>
        <time>2022-06-18T11:37:30Z</time>
      </trkpt>
      <trkpt lat="42.2864260" lon="-8.6079650">
        <ele>33.0</ele>
        <time>2022-06-18T11:37:31Z</time>
      </trkpt>
      <trkpt lat="42.2864550" lon="-8.6079750">
        <ele>33.0</ele>
        <time>2022-06-18T11:37:32Z</time>
      </trkpt>
      <trkpt lat="42.2864780" lon="-8.6079880">
        <ele>33.4</ele>
        <time>2022-06-18T11:37:33Z</time>
      </trkpt>
      <trkpt lat="42.2865080" lon="-8.6080060">
        <ele>33.4</ele>
        <time>2022-06-18T11:37:34Z</time>
      </trkpt>
      <trkpt lat="42.2865400" lon="-8.6080180">
        <ele>33.4</ele>
        <time>2022-06-18T11:37:35Z</time>
      </trkpt>
      <trkpt lat="42.2865700" lon="-8.6080300">
        <ele>33.8</ele>
        <time>2022-06-18T11:37:36Z</time>
      </trkpt>
      <trkpt lat="42.2866010" lon="-8.6080430">
        <ele>33.0</ele>
        <time>2022-06-18T11:37:37Z</time>
      </trkpt>
      <trkpt lat="42.2866250" lon="-8.6080580">
        <ele>33.0</ele>
        <time>2022-06-18T11:37:38Z</time>
      </trkpt>
      <trkpt lat="42.2866510" lon="-8.6080750">
        <ele>33.0</ele>
        <time>2022-06-18T11:37:39Z</time>
      </trkpt>
      <trkpt lat="42.2866850" lon="-8.6080880">
        <ele>33.4</ele>
        <time>2022-06-18T11:37:40Z</time>
      </trkpt>
      <trkpt lat="42.2867210" lon="-8.6080930">
        <ele>33.4</ele>
        <time>2022-06-18T11:37:41Z</time>
      </trkpt>
      <trkpt lat="42.2867600" lon="-8.6080950">
        <ele>33.4</ele>
        <time>2022-06-18T11:37:42Z</time>
      </trkpt>
      <trkpt lat="42.2867950" lon="-8.6081030">
        <ele>33.4</ele>
        <time>2022-06-18T11:37:43Z</time>
      </trkpt>
      <trkpt lat="42.2868230" lon="-8.6081110">
        <ele>32.4</ele>
        <time>2022-06-18T11:37:44Z</time>
      </trkpt>
      <trkpt lat="42.2868530" lon="-8.6081100">
        <ele>31.6</ele>
        <time>2022-06-18T11:37:45Z</time>
      </trkpt>
      <trkpt lat="42.2868800" lon="-8.6081110">
        <ele>31.6</ele>
        <time>2022-06-18T11:37:46Z</time>
      </trkpt>
      <trkpt lat="42.2869180" lon="-8.6081200">
        <ele>31.6</ele>
        <time>2022-06-18T11:37:47Z</time>
      </trkpt>
      <trkpt lat="42.2869500" lon="-8.6081280">
        <ele>31.6</ele>
        <time>2022-06-18T11:37:48Z</time>
      </trkpt>
      <trkpt lat="42.2869800" lon="-8.6081330">
        <ele>30.4</ele>
        <time>2022-06-18T11:37:49Z</time>
      </trkpt>
      <trkpt lat="42.2870130" lon="-8.6081380">
        <ele>30.4</ele>
        <time>2022-06-18T11:37:50Z</time>
      </trkpt>
      <trkpt lat="42.2870480" lon="-8.6081460">
        <ele>30.4</ele>
        <time>2022-06-18T11:37:51Z</time>
      </trkpt>
      <trkpt lat="42.2870950" lon="-8.6081810">
        <ele>29.4</ele>
        <time>2022-06-18T11:37:52Z</time>
      </trkpt>
      <trkpt lat="42.2871330" lon="-8.6082050">
        <ele>28.4</ele>
        <time>2022-06-18T11:37:53Z</time>
      </trkpt>
      <trkpt lat="42.2871700" lon="-8.6082310">
        <ele>28.4</ele>
        <time>2022-06-18T11:37:54Z</time>
      </trkpt>
      <trkpt lat="42.2872050" lon="-8.6082330">
        <ele>28.4</ele>
        <time>2022-06-18T11:37:55Z</time>
      </trkpt>
      <trkpt lat="42.2872350" lon="-8.6082480">
        <ele>27.4</ele>
        <time>2022-06-18T11:37:56Z</time>
      </trkpt>
      <trkpt lat="42.2872580" lon="-8.6082650">
        <ele>26.4</ele>
        <time>2022-06-18T11:37:57Z</time>
      </trkpt>
      <trkpt lat="42.2872760" lon="-8.6082860">
        <ele>26.4</ele>
        <time>2022-06-18T11:37:58Z</time>
      </trkpt>
      <trkpt lat="42.2872960" lon="-8.6083010">
        <ele>26.4</ele>
        <time>2022-06-18T11:37:59Z</time>
      </trkpt>
      <trkpt lat="42.2873280" lon="-8.6083130">
        <ele>26.4</ele>
        <time>2022-06-18T11:38:00Z</time>
      </trkpt>
      <trkpt lat="42.2873550" lon="-8.6083350">
        <ele>25.4</ele>
        <time>2022-06-18T11:38:01Z</time>
      </trkpt>
      <trkpt lat="42.2873680" lon="-8.6083710">
        <ele>25.4</ele>
        <time>2022-06-18T11:38:02Z</time>
      </trkpt>
      <trkpt lat="42.2873830" lon="-8.6084200">
        <ele>25.4</ele>
        <time>2022-06-18T11:38:03Z</time>
      </trkpt>
      <trkpt lat="42.2874160" lon="-8.6084730">
        <ele>24.4</ele>
        <time>2022-06-18T11:38:04Z</time>
      </trkpt>
      <trkpt lat="42.2874810" lon="-8.6085210">
        <ele>19.4</ele>
        <time>2022-06-18T11:38:05Z</time>
      </trkpt>
      <trkpt lat="42.2875650" lon="-8.6085180">
        <ele>19.4</ele>
        <time>2022-06-18T11:38:06Z</time>
      </trkpt>
      <trkpt lat="42.2876410" lon="-8.6085000">
        <ele>19.4</ele>
        <time>2022-06-18T11:38:07Z</time>
      </trkpt>
      <trkpt lat="42.2877100" lon="-8.6084730">
        <ele>18.4</ele>
        <time>2022-06-18T11:38:08Z</time>
      </trkpt>
      <trkpt lat="42.2877660" lon="-8.6084430">
        <ele>18.0</ele>
        <time>2022-06-18T11:38:09Z</time>
      </trkpt>
      <trkpt lat="42.2878200" lon="-8.6084210">
        <ele>18.0</ele>
        <time>2022-06-18T11:38:10Z</time>
      </trkpt>
      <trkpt lat="42.2878660" lon="-8.6084010">
        <ele>18.0</ele>
        <time>2022-06-18T11:38:11Z</time>
      </trkpt>
      <trkpt lat="42.2879050" lon="-8.6083930">
        <ele>18.0</ele>
        <time>2022-06-18T11:38:12Z</time>
      </trkpt>
      <trkpt lat="42.2879430" lon="-8.6084010">
        <ele>18.4</ele>
        <time>2022-06-18T11:38:13Z</time>
      </trkpt>
      <trkpt lat="42.2879750" lon="-8.6084300">
        <ele>18.4</ele>
        <time>2022-06-18T11:38:14Z</time>
      </trkpt>
      <trkpt lat="42.2880010" lon="-8.6084710">
        <ele>18.4</ele>
        <time>2022-06-18T11:38:15Z</time>
      </trkpt>
      <trkpt lat="42.2880260" lon="-8.6085180">
        <ele>17.4</ele>
        <time>2022-06-18T11:38:16Z</time>
      </trkpt>
      <trkpt lat="42.2880510" lon="-8.6085630">
        <ele>15.0</ele>
        <time>2022-06-18T11:38:17Z</time>
      </trkpt>
      <trkpt lat="42.2880850" lon="-8.6086110">
        <ele>15.0</ele>
        <time>2022-06-18T11:38:18Z</time>
      </trkpt>
      <trkpt lat="42.2881130" lon="-8.6086530">
        <ele>15.0</ele>
        <time>2022-06-18T11:38:19Z</time>
      </trkpt>
      <trkpt lat="42.2881460" lon="-8.6086830">
        <ele>16.0</ele>
        <time>2022-06-18T11:38:20Z</time>
      </trkpt>
      <trkpt lat="42.2881810" lon="-8.6086960">
        <ele>18.2</ele>
        <time>2022-06-18T11:38:21Z</time>
      </trkpt>
      <trkpt lat="42.2882150" lon="-8.6086930">
        <ele>18.2</ele>
        <time>2022-06-18T11:38:22Z</time>
      </trkpt>
      <trkpt lat="42.2882410" lon="-8.6086880">
        <ele>18.2</ele>
        <time>2022-06-18T11:38:23Z</time>
      </trkpt>
      <trkpt lat="42.2882700" lon="-8.6086830">
        <ele>18.8</ele>
        <time>2022-06-18T11:38:24Z</time>
      </trkpt>
      <trkpt lat="42.2882960" lon="-8.6086780">
        <ele>18.4</ele>
        <time>2022-06-18T11:38:25Z</time>
      </trkpt>
      <trkpt lat="42.2883200" lon="-8.6086710">
        <ele>18.4</ele>
        <time>2022-06-18T11:38:26Z</time>
      </trkpt>
      <trkpt lat="42.2883400" lon="-8.6086660">
        <ele>18.4</ele>
        <time>2022-06-18T11:38:27Z</time>
      </trkpt>
      <trkpt lat="42.2883600" lon="-8.6086650">
        <ele>18.4</ele>
        <time>2022-06-18T11:38:28Z</time>
      </trkpt>
      <trkpt lat="42.2883760" lon="-8.6086600">
        <ele>19.0</ele>
        <time>2022-06-18T11:38:29Z</time>
      </trkpt>
      <trkpt lat="42.2883930" lon="-8.6086560">
        <ele>19.0</ele>
        <time>2022-06-18T11:38:30Z</time>
      </trkpt>
      <trkpt lat="42.2884080" lon="-8.6086510">
        <ele>19.0</ele>
        <time>2022-06-18T11:38:31Z</time>
      </trkpt>
      <trkpt lat="42.2884250" lon="-8.6086460">
        <ele>19.0</ele>
        <time>2022-06-18T11:38:32Z</time>
      </trkpt>
      <trkpt lat="42.2884410" lon="-8.6086400">
        <ele>19.0</ele>
        <time>2022-06-18T11:38:33Z</time>
      </trkpt>
      <trkpt lat="42.2884560" lon="-8.6086350">
        <ele>19.0</ele>
        <time>2022-06-18T11:38:34Z</time>
      </trkpt>
      <trkpt lat="42.2884700" lon="-8.6086280">
        <ele>19.0</ele>
        <time>2022-06-18T11:38:35Z</time>
      </trkpt>
      <trkpt lat="42.2884810" lon="-8.6086230">
        <ele>19.4</ele>
        <time>2022-06-18T11:38:36Z</time>
      </trkpt>
      <trkpt lat="42.2884960" lon="-8.6086200">
        <ele>19.4</ele>
        <time>2022-06-18T11:38:37Z</time>
      </trkpt>
      <trkpt lat="42.2885030" lon="-8.6086200">
        <ele>19.4</ele>
        <time>2022-06-18T11:38:38Z</time>
      </trkpt>
      <trkpt lat="42.2885030" lon="-8.6086200">
        <ele>19.4</ele>
        <time>2022-06-18T11:38:39Z</time>
      </trkpt>
      <trkpt lat="42.2885480" lon="-8.6086430">
        <ele>19.6</ele>
        <time>2022-06-18T11:38:54Z</time>
      </trkpt>
      <trkpt lat="42.2885700" lon="-8.6086680">
        <ele>19.6</ele>
        <time>2022-06-18T11:38:55Z</time>
      </trkpt>
      <trkpt lat="42.2885900" lon="-8.6086750">
        <ele>19.0</ele>
        <time>2022-06-18T11:38:56Z</time>
      </trkpt>
      <trkpt lat="42.2886150" lon="-8.6086780">
        <ele>19.0</ele>
        <time>2022-06-18T11:38:57Z</time>
      </trkpt>
      <trkpt lat="42.2886430" lon="-8.6086760">
        <ele>19.0</ele>
        <time>2022-06-18T11:38:58Z</time>
      </trkpt>
      <trkpt lat="42.2886680" lon="-8.6086760">
        <ele>19.0</ele>
        <time>2022-06-18T11:38:59Z</time>
      </trkpt>
      <trkpt lat="42.2887000" lon="-8.6086750">
        <ele>19.0</ele>
        <time>2022-06-18T11:39:00Z</time>
      </trkpt>
      <trkpt lat="42.2887280" lon="-8.6086680">
        <ele>19.0</ele>
        <time>2022-06-18T11:39:01Z</time>
      </trkpt>
      <trkpt lat="42.2887560" lon="-8.6086610">
        <ele>19.0</ele>
        <time>2022-06-18T11:39:02Z</time>
      </trkpt>
      <trkpt lat="42.2887810" lon="-8.6086580">
        <ele>19.0</ele>
        <time>2022-06-18T11:39:03Z</time>
      </trkpt>
      <trkpt lat="42.2888060" lon="-8.6086530">
        <ele>18.6</ele>
        <time>2022-06-18T11:39:04Z</time>
      </trkpt>
      <trkpt lat="42.2888350" lon="-8.6086480">
        <ele>18.8</ele>
        <time>2022-06-18T11:39:05Z</time>
      </trkpt>
      <trkpt lat="42.2888660" lon="-8.6086400">
        <ele>18.8</ele>
        <time>2022-06-18T11:39:06Z</time>
      </trkpt>
      <trkpt lat="42.2888980" lon="-8.6086310">
        <ele>18.8</ele>
        <time>2022-06-18T11:39:07Z</time>
      </trkpt>
      <trkpt lat="42.2889300" lon="-8.6086230">
        <ele>19.4</ele>
        <time>2022-06-18T11:39:08Z</time>
      </trkpt>
      <trkpt lat="42.2889600" lon="-8.6086150">
        <ele>19.2</ele>
        <time>2022-06-18T11:39:09Z</time>
      </trkpt>
      <trkpt lat="42.2889860" lon="-8.6086050">
        <ele>19.2</ele>
        <time>2022-06-18T11:39:10Z</time>
      </trkpt>
      <trkpt lat="42.2890130" lon="-8.6085980">
        <ele>19.2</ele>
        <time>2022-06-18T11:39:11Z</time>
      </trkpt>
      <trkpt lat="42.2890380" lon="-8.6085930">
        <ele>19.6</ele>
        <time>2022-06-18T11:39:12Z</time>
      </trkpt>
      <trkpt lat="42.2890650" lon="-8.6085900">
        <ele>19.8</ele>
        <time>2022-06-18T11:39:13Z</time>
      </trkpt>
      <trkpt lat="42.2890900" lon="-8.6085860">
        <ele>19.8</ele>
        <time>2022-06-18T11:39:14Z</time>
      </trkpt>
      <trkpt lat="42.2891180" lon="-8.6085800">
        <ele>19.8</ele>
        <time>2022-06-18T11:39:15Z</time>
      </trkpt>
      <trkpt lat="42.2891450" lon="-8.6085750">
        <ele>19.4</ele>
        <time>2022-06-18T11:39:16Z</time>
      </trkpt>
      <trkpt lat="42.2891700" lon="-8.6085710">
        <ele>19.4</ele>
        <time>2022-06-18T11:39:17Z</time>
      </trkpt>
      <trkpt lat="42.2891930" lon="-8.6085660">
        <ele>19.4</ele>
        <time>2022-06-18T11:39:18Z</time>
      </trkpt>
      <trkpt lat="42.2892150" lon="-8.6085600">
        <ele>19.4</ele>
        <time>2022-06-18T11:39:19Z</time>
      </trkpt>
      <trkpt lat="42.2892380" lon="-8.6085550">
        <ele>19.6</ele>
        <time>2022-06-18T11:39:20Z</time>
      </trkpt>
      <trkpt lat="42.2892630" lon="-8.6085500">
        <ele>19.6</ele>
        <time>2022-06-18T11:39:21Z</time>
      </trkpt>
      <trkpt lat="42.2892860" lon="-8.6085410">
        <ele>19.6</ele>
        <time>2022-06-18T11:39:22Z</time>
      </trkpt>
      <trkpt lat="42.2893110" lon="-8.6085350">
        <ele>19.6</ele>
        <time>2022-06-18T11:39:23Z</time>
      </trkpt>
      <trkpt lat="42.2893380" lon="-8.6085230">
        <ele>19.6</ele>
        <time>2022-06-18T11:39:24Z</time>
      </trkpt>
      <trkpt lat="42.2893660" lon="-8.6085130">
        <ele>19.6</ele>
        <time>2022-06-18T11:39:25Z</time>
      </trkpt>
      <trkpt lat="42.2893950" lon="-8.6085100">
        <ele>19.6</ele>
        <time>2022-06-18T11:39:26Z</time>
      </trkpt>
      <trkpt lat="42.2894180" lon="-8.6085030">
        <ele>19.6</ele>
        <time>2022-06-18T11:39:27Z</time>
      </trkpt>
      <trkpt lat="42.2894430" lon="-8.6084950">
        <ele>20.0</ele>
        <time>2022-06-18T11:39:28Z</time>
      </trkpt>
      <trkpt lat="42.2894630" lon="-8.6084850">
        <ele>19.8</ele>
        <time>2022-06-18T11:39:29Z</time>
      </trkpt>
      <trkpt lat="42.2894760" lon="-8.6084830">
        <ele>19.8</ele>
        <time>2022-06-18T11:39:30Z</time>
      </trkpt>
      <trkpt lat="42.2894950" lon="-8.6084810">
        <ele>19.8</ele>
        <time>2022-06-18T11:39:31Z</time>
      </trkpt>
      <trkpt lat="42.2895150" lon="-8.6084800">
        <ele>19.8</ele>
        <time>2022-06-18T11:39:32Z</time>
      </trkpt>
      <trkpt lat="42.2895410" lon="-8.6084760">
        <ele>19.6</ele>
        <time>2022-06-18T11:39:33Z</time>
      </trkpt>
      <trkpt lat="42.2895710" lon="-8.6084730">
        <ele>19.6</ele>
        <time>2022-06-18T11:39:34Z</time>
      </trkpt>
      <trkpt lat="42.2896030" lon="-8.6084750">
        <ele>19.6</ele>
        <time>2022-06-18T11:39:35Z</time>
      </trkpt>
      <trkpt lat="42.2896300" lon="-8.6084710">
        <ele>19.6</ele>
        <time>2022-06-18T11:39:36Z</time>
      </trkpt>
      <trkpt lat="42.2896560" lon="-8.6084610">
        <ele>19.6</ele>
        <time>2022-06-18T11:39:37Z</time>
      </trkpt>
      <trkpt lat="42.2896860" lon="-8.6084510">
        <ele>19.6</ele>
        <time>2022-06-18T11:39:38Z</time>
      </trkpt>
      <trkpt lat="42.2897180" lon="-8.6084480">
        <ele>19.6</ele>
        <time>2022-06-18T11:39:39Z</time>
      </trkpt>
      <trkpt lat="42.2897430" lon="-8.6084460">
        <ele>19.2</ele>
        <time>2022-06-18T11:39:40Z</time>
      </trkpt>
      <trkpt lat="42.2897660" lon="-8.6084500">
        <ele>19.0</ele>
        <time>2022-06-18T11:39:41Z</time>
      </trkpt>
      <trkpt lat="42.2897950" lon="-8.6084550">
        <ele>19.0</ele>
        <time>2022-06-18T11:39:42Z</time>
      </trkpt>
      <trkpt lat="42.2898230" lon="-8.6084530">
        <ele>19.0</ele>
        <time>2022-06-18T11:39:43Z</time>
      </trkpt>
      <trkpt lat="42.2898550" lon="-8.6084460">
        <ele>19.6</ele>
        <time>2022-06-18T11:39:44Z</time>
      </trkpt>
      <trkpt lat="42.2898900" lon="-8.6084500">
        <ele>20.2</ele>
        <time>2022-06-18T11:39:45Z</time>
      </trkpt>
      <trkpt lat="42.2899250" lon="-8.6084480">
        <ele>20.2</ele>
        <time>2022-06-18T11:39:46Z</time>
      </trkpt>
      <trkpt lat="42.2899550" lon="-8.6084460">
        <ele>20.2</ele>
        <time>2022-06-18T11:39:47Z</time>
      </trkpt>
      <trkpt lat="42.2899880" lon="-8.6084480">
        <ele>19.6</ele>
        <time>2022-06-18T11:39:48Z</time>
      </trkpt>
      <trkpt lat="42.2900250" lon="-8.6084480">
        <ele>19.6</ele>
        <time>2022-06-18T11:39:49Z</time>
      </trkpt>
      <trkpt lat="42.2900650" lon="-8.6084410">
        <ele>19.6</ele>
        <time>2022-06-18T11:39:50Z</time>
      </trkpt>
      <trkpt lat="42.2901100" lon="-8.6084280">
        <ele>19.6</ele>
        <time>2022-06-18T11:39:51Z</time>
      </trkpt>
      <trkpt lat="42.2901510" lon="-8.6084180">
        <ele>19.6</ele>
        <time>2022-06-18T11:39:52Z</time>
      </trkpt>
      <trkpt lat="42.2901910" lon="-8.6084100">
        <ele>20.0</ele>
        <time>2022-06-18T11:39:53Z</time>
      </trkpt>
      <trkpt lat="42.2902330" lon="-8.6083980">
        <ele>20.0</ele>
        <time>2022-06-18T11:39:54Z</time>
      </trkpt>
      <trkpt lat="42.2902750" lon="-8.6083880">
        <ele>20.0</ele>
        <time>2022-06-18T11:39:55Z</time>
      </trkpt>
      <trkpt lat="42.2903130" lon="-8.6083760">
        <ele>19.2</ele>
        <time>2022-06-18T11:39:56Z</time>
      </trkpt>
      <trkpt lat="42.2903510" lon="-8.6083580">
        <ele>19.6</ele>
        <time>2022-06-18T11:39:57Z</time>
      </trkpt>
      <trkpt lat="42.2903910" lon="-8.6083430">
        <ele>19.6</ele>
        <time>2022-06-18T11:39:58Z</time>
      </trkpt>
      <trkpt lat="42.2904260" lon="-8.6083310">
        <ele>19.6</ele>
        <time>2022-06-18T11:39:59Z</time>
      </trkpt>
      <trkpt lat="42.2904660" lon="-8.6083110">
        <ele>19.6</ele>
        <time>2022-06-18T11:40:00Z</time>
      </trkpt>
      <trkpt lat="42.2905030" lon="-8.6082950">
        <ele>19.4</ele>
        <time>2022-06-18T11:40:01Z</time>
      </trkpt>
      <trkpt lat="42.2905400" lon="-8.6082800">
        <ele>19.4</ele>
        <time>2022-06-18T11:40:02Z</time>
      </trkpt>
      <trkpt lat="42.2905760" lon="-8.6082630">
        <ele>19.4</ele>
        <time>2022-06-18T11:40:03Z</time>
      </trkpt>
      <trkpt lat="42.2906160" lon="-8.6082460">
        <ele>19.4</ele>
        <time>2022-06-18T11:40:04Z</time>
      </trkpt>
      <trkpt lat="42.2906580" lon="-8.6082350">
        <ele>19.6</ele>
        <time>2022-06-18T11:40:05Z</time>
      </trkpt>
      <trkpt lat="42.2906980" lon="-8.6082180">
        <ele>19.6</ele>
        <time>2022-06-18T11:40:06Z</time>
      </trkpt>
      <trkpt lat="42.2907380" lon="-8.6082030">
        <ele>19.6</ele>
        <time>2022-06-18T11:40:07Z</time>
      </trkpt>
      <trkpt lat="42.2907760" lon="-8.6081880">
        <ele>19.4</ele>
        <time>2022-06-18T11:40:08Z</time>
      </trkpt>
      <trkpt lat="42.2908160" lon="-8.6081710">
        <ele>19.8</ele>
        <time>2022-06-18T11:40:09Z</time>
      </trkpt>
      <trkpt lat="42.2908510" lon="-8.6081560">
        <ele>19.8</ele>
        <time>2022-06-18T11:40:10Z</time>
      </trkpt>
      <trkpt lat="42.2908880" lon="-8.6081430">
        <ele>19.8</ele>
        <time>2022-06-18T11:40:11Z</time>
      </trkpt>
      <trkpt lat="42.2909260" lon="-8.6081280">
        <ele>19.8</ele>
        <time>2022-06-18T11:40:12Z</time>
      </trkpt>
      <trkpt lat="42.2909650" lon="-8.6081100">
        <ele>19.2</ele>
        <time>2022-06-18T11:40:13Z</time>
      </trkpt>
      <trkpt lat="42.2910000" lon="-8.6080910">
        <ele>19.2</ele>
        <time>2022-06-18T11:40:14Z</time>
      </trkpt>
      <trkpt lat="42.2910360" lon="-8.6080750">
        <ele>19.2</ele>
        <time>2022-06-18T11:40:15Z</time>
      </trkpt>
      <trkpt lat="42.2910760" lon="-8.6080610">
        <ele>19.8</ele>
        <time>2022-06-18T11:40:16Z</time>
      </trkpt>
      <trkpt lat="42.2911160" lon="-8.6080500">
        <ele>19.2</ele>
        <time>2022-06-18T11:40:17Z</time>
      </trkpt>
      <trkpt lat="42.2911560" lon="-8.6080400">
        <ele>19.2</ele>
        <time>2022-06-18T11:40:18Z</time>
      </trkpt>
      <trkpt lat="42.2912000" lon="-8.6080260">
        <ele>19.2</ele>
        <time>2022-06-18T11:40:19Z</time>
      </trkpt>
      <trkpt lat="42.2912410" lon="-8.6080080">
        <ele>19.2</ele>
        <time>2022-06-18T11:40:20Z</time>
      </trkpt>
      <trkpt lat="42.2912830" lon="-8.6079900">
        <ele>18.8</ele>
        <time>2022-06-18T11:40:21Z</time>
      </trkpt>
      <trkpt lat="42.2913260" lon="-8.6079810">
        <ele>18.8</ele>
        <time>2022-06-18T11:40:22Z</time>
      </trkpt>
      <trkpt lat="42.2913680" lon="-8.6079730">
        <ele>18.8</ele>
        <time>2022-06-18T11:40:23Z</time>
      </trkpt>
      <trkpt lat="42.2914110" lon="-8.6079650">
        <ele>18.8</ele>
        <time>2022-06-18T11:40:24Z</time>
      </trkpt>
      <trkpt lat="42.2914550" lon="-8.6079530">
        <ele>18.0</ele>
        <time>2022-06-18T11:40:25Z</time>
      </trkpt>
      <trkpt lat="42.2915000" lon="-8.6079430">
        <ele>18.0</ele>
        <time>2022-06-18T11:40:26Z</time>
      </trkpt>
      <trkpt lat="42.2915410" lon="-8.6079360">
        <ele>18.0</ele>
        <time>2022-06-18T11:40:27Z</time>
      </trkpt>
      <trkpt lat="42.2915810" lon="-8.6079310">
        <ele>18.0</ele>
        <time>2022-06-18T11:40:28Z</time>
      </trkpt>
      <trkpt lat="42.2916210" lon="-8.6079250">
        <ele>18.0</ele>
        <time>2022-06-18T11:40:29Z</time>
      </trkpt>
      <trkpt lat="42.2916610" lon="-8.6079200">
        <ele>18.0</ele>
        <time>2022-06-18T11:40:30Z</time>
      </trkpt>
      <trkpt lat="42.2917000" lon="-8.6079150">
        <ele>18.0</ele>
        <time>2022-06-18T11:40:31Z</time>
      </trkpt>
      <trkpt lat="42.2917380" lon="-8.6079080">
        <ele>18.0</ele>
        <time>2022-06-18T11:40:32Z</time>
      </trkpt>
      <trkpt lat="42.2917760" lon="-8.6079010">
        <ele>18.2</ele>
        <time>2022-06-18T11:40:33Z</time>
      </trkpt>
      <trkpt lat="42.2918130" lon="-8.6078950">
        <ele>18.2</ele>
        <time>2022-06-18T11:40:34Z</time>
      </trkpt>
      <trkpt lat="42.2918500" lon="-8.6078880">
        <ele>18.2</ele>
        <time>2022-06-18T11:40:35Z</time>
      </trkpt>
      <trkpt lat="42.2918880" lon="-8.6078760">
        <ele>18.2</ele>
        <time>2022-06-18T11:40:36Z</time>
      </trkpt>
      <trkpt lat="42.2919260" lon="-8.6078660">
        <ele>17.8</ele>
        <time>2022-06-18T11:40:37Z</time>
      </trkpt>
      <trkpt lat="42.2919660" lon="-8.6078580">
        <ele>17.8</ele>
        <time>2022-06-18T11:40:38Z</time>
      </trkpt>
      <trkpt lat="42.2920080" lon="-8.6078480">
        <ele>17.8</ele>
        <time>2022-06-18T11:40:39Z</time>
      </trkpt>
      <trkpt lat="42.2920500" lon="-8.6078380">
        <ele>17.8</ele>
        <time>2022-06-18T11:40:40Z</time>
      </trkpt>
      <trkpt lat="42.2920900" lon="-8.6078280">
        <ele>17.6</ele>
        <time>2022-06-18T11:40:41Z</time>
      </trkpt>
      <trkpt lat="42.2921350" lon="-8.6078200">
        <ele>17.6</ele>
        <time>2022-06-18T11:40:42Z</time>
      </trkpt>
      <trkpt lat="42.2921780" lon="-8.6078100">
        <ele>17.6</ele>
        <time>2022-06-18T11:40:43Z</time>
      </trkpt>
      <trkpt lat="42.2922230" lon="-8.6077960">
        <ele>16.6</ele>
        <time>2022-06-18T11:40:44Z</time>
      </trkpt>
      <trkpt lat="42.2922660" lon="-8.6077830">
        <ele>16.2</ele>
        <time>2022-06-18T11:40:45Z</time>
      </trkpt>
      <trkpt lat="42.2923100" lon="-8.6077700">
        <ele>16.2</ele>
        <time>2022-06-18T11:40:46Z</time>
      </trkpt>
      <trkpt lat="42.2923580" lon="-8.6077580">
        <ele>16.2</ele>
        <time>2022-06-18T11:40:47Z</time>
      </trkpt>
      <trkpt lat="42.2924050" lon="-8.6077460">
        <ele>16.4</ele>
        <time>2022-06-18T11:40:48Z</time>
      </trkpt>
      <trkpt lat="42.2924510" lon="-8.6077330">
        <ele>16.2</ele>
        <time>2022-06-18T11:40:49Z</time>
      </trkpt>
      <trkpt lat="42.2925000" lon="-8.6077210">
        <ele>16.2</ele>
        <time>2022-06-18T11:40:50Z</time>
      </trkpt>
      <trkpt lat="42.2925450" lon="-8.6077080">
        <ele>16.2</ele>
        <time>2022-06-18T11:40:51Z</time>
      </trkpt>
      <trkpt lat="42.2925930" lon="-8.6076950">
        <ele>16.2</ele>
        <time>2022-06-18T11:40:52Z</time>
      </trkpt>
      <trkpt lat="42.2926400" lon="-8.6076850">
        <ele>16.2</ele>
        <time>2022-06-18T11:40:53Z</time>
      </trkpt>
      <trkpt lat="42.2926860" lon="-8.6076710">
        <ele>16.2</ele>
        <time>2022-06-18T11:40:54Z</time>
      </trkpt>
      <trkpt lat="42.2927300" lon="-8.6076580">
        <ele>16.2</ele>
        <time>2022-06-18T11:40:55Z</time>
      </trkpt>
      <trkpt lat="42.2927710" lon="-8.6076460">
        <ele>16.2</ele>
        <time>2022-06-18T11:40:56Z</time>
      </trkpt>
      <trkpt lat="42.2928110" lon="-8.6076360">
        <ele>16.2</ele>
        <time>2022-06-18T11:40:57Z</time>
      </trkpt>
      <trkpt lat="42.2928500" lon="-8.6076260">
        <ele>16.2</ele>
        <time>2022-06-18T11:40:58Z</time>
      </trkpt>
      <trkpt lat="42.2928950" lon="-8.6076110">
        <ele>16.2</ele>
        <time>2022-06-18T11:40:59Z</time>
      </trkpt>
      <trkpt lat="42.2929410" lon="-8.6075980">
        <ele>15.8</ele>
        <time>2022-06-18T11:41:00Z</time>
      </trkpt>
      <trkpt lat="42.2929860" lon="-8.6075900">
        <ele>16.6</ele>
        <time>2022-06-18T11:41:01Z</time>
      </trkpt>
      <trkpt lat="42.2930310" lon="-8.6075760">
        <ele>16.6</ele>
        <time>2022-06-18T11:41:02Z</time>
      </trkpt>
      <trkpt lat="42.2930750" lon="-8.6075600">
        <ele>16.6</ele>
        <time>2022-06-18T11:41:03Z</time>
      </trkpt>
      <trkpt lat="42.2931230" lon="-8.6075460">
        <ele>16.2</ele>
        <time>2022-06-18T11:41:04Z</time>
      </trkpt>
      <trkpt lat="42.2931730" lon="-8.6075310">
        <ele>16.2</ele>
        <time>2022-06-18T11:41:05Z</time>
      </trkpt>
      <trkpt lat="42.2932230" lon="-8.6075150">
        <ele>16.2</ele>
        <time>2022-06-18T11:41:06Z</time>
      </trkpt>
      <trkpt lat="42.2932750" lon="-8.6074950">
        <ele>16.2</ele>
        <time>2022-06-18T11:41:07Z</time>
      </trkpt>
      <trkpt lat="42.2933200" lon="-8.6074730">
        <ele>16.0</ele>
        <time>2022-06-18T11:41:08Z</time>
      </trkpt>
      <trkpt lat="42.2933610" lon="-8.6074500">
        <ele>16.2</ele>
        <time>2022-06-18T11:41:09Z</time>
      </trkpt>
      <trkpt lat="42.2934050" lon="-8.6074260">
        <ele>16.2</ele>
        <time>2022-06-18T11:41:10Z</time>
      </trkpt>
      <trkpt lat="42.2934480" lon="-8.6074030">
        <ele>16.2</ele>
        <time>2022-06-18T11:41:11Z</time>
      </trkpt>
      <trkpt lat="42.2934950" lon="-8.6073810">
        <ele>16.2</ele>
        <time>2022-06-18T11:41:12Z</time>
      </trkpt>
      <trkpt lat="42.2935410" lon="-8.6073680">
        <ele>16.8</ele>
        <time>2022-06-18T11:41:13Z</time>
      </trkpt>
      <trkpt lat="42.2935850" lon="-8.6073630">
        <ele>16.8</ele>
        <time>2022-06-18T11:41:14Z</time>
      </trkpt>
      <trkpt lat="42.2936300" lon="-8.6073650">
        <ele>16.8</ele>
        <time>2022-06-18T11:41:15Z</time>
      </trkpt>
      <trkpt lat="42.2936750" lon="-8.6073660">
        <ele>16.2</ele>
        <time>2022-06-18T11:41:16Z</time>
      </trkpt>
      <trkpt lat="42.2937200" lon="-8.6073700">
        <ele>16.0</ele>
        <time>2022-06-18T11:41:17Z</time>
      </trkpt>
      <trkpt lat="42.2937650" lon="-8.6073800">
        <ele>16.0</ele>
        <time>2022-06-18T11:41:18Z</time>
      </trkpt>
      <trkpt lat="42.2938100" lon="-8.6073930">
        <ele>16.0</ele>
        <time>2022-06-18T11:41:19Z</time>
      </trkpt>
      <trkpt lat="42.2938480" lon="-8.6074130">
        <ele>16.0</ele>
        <time>2022-06-18T11:41:20Z</time>
      </trkpt>
      <trkpt lat="42.2938830" lon="-8.6074300">
        <ele>16.6</ele>
        <time>2022-06-18T11:41:21Z</time>
      </trkpt>
      <trkpt lat="42.2939180" lon="-8.6074480">
        <ele>16.6</ele>
        <time>2022-06-18T11:41:22Z</time>
      </trkpt>
      <trkpt lat="42.2939500" lon="-8.6074680">
        <ele>16.6</ele>
        <time>2022-06-18T11:41:23Z</time>
      </trkpt>
      <trkpt lat="42.2939750" lon="-8.6074910">
        <ele>16.6</ele>
        <time>2022-06-18T11:41:24Z</time>
      </trkpt>
      <trkpt lat="42.2939950" lon="-8.6075180">
        <ele>18.0</ele>
        <time>2022-06-18T11:41:25Z</time>
      </trkpt>
      <trkpt lat="42.2940110" lon="-8.6075450">
        <ele>18.0</ele>
        <time>2022-06-18T11:41:26Z</time>
      </trkpt>
      <trkpt lat="42.2940260" lon="-8.6075730">
        <ele>18.0</ele>
        <time>2022-06-18T11:41:27Z</time>
      </trkpt>
      <trkpt lat="42.2940400" lon="-8.6075930">
        <ele>18.0</ele>
        <time>2022-06-18T11:41:28Z</time>
      </trkpt>
      <trkpt lat="42.2940510" lon="-8.6076100">
        <ele>19.0</ele>
        <time>2022-06-18T11:41:29Z</time>
      </trkpt>
      <trkpt lat="42.2940630" lon="-8.6076250">
        <ele>19.2</ele>
        <time>2022-06-18T11:41:30Z</time>
      </trkpt>
      <trkpt lat="42.2940700" lon="-8.6076430">
        <ele>19.2</ele>
        <time>2022-06-18T11:41:31Z</time>
      </trkpt>
      <trkpt lat="42.2940730" lon="-8.6076560">
        <ele>19.2</ele>
        <time>2022-06-18T11:41:32Z</time>
      </trkpt>
      <trkpt lat="42.2940760" lon="-8.6076750">
        <ele>19.2</ele>
        <time>2022-06-18T11:41:33Z</time>
      </trkpt>
      <trkpt lat="42.2940810" lon="-8.6076980">
        <ele>19.6</ele>
        <time>2022-06-18T11:41:34Z</time>
      </trkpt>
      <trkpt lat="42.2940900" lon="-8.6077230">
        <ele>19.6</ele>
        <time>2022-06-18T11:41:35Z</time>
      </trkpt>
      <trkpt lat="42.2941000" lon="-8.6077460">
        <ele>19.6</ele>
        <time>2022-06-18T11:41:36Z</time>
      </trkpt>
      <trkpt lat="42.2941100" lon="-8.6077710">
        <ele>19.6</ele>
        <time>2022-06-18T11:41:37Z</time>
      </trkpt>
      <trkpt lat="42.2941200" lon="-8.6078000">
        <ele>20.4</ele>
        <time>2022-06-18T11:41:38Z</time>
      </trkpt>
      <trkpt lat="42.2941310" lon="-8.6078250">
        <ele>20.4</ele>
        <time>2022-06-18T11:41:39Z</time>
      </trkpt>
      <trkpt lat="42.2941430" lon="-8.6078460">
        <ele>20.4</ele>
        <time>2022-06-18T11:41:40Z</time>
      </trkpt>
      <trkpt lat="42.2941530" lon="-8.6078660">
        <ele>20.4</ele>
        <time>2022-06-18T11:41:41Z</time>
      </trkpt>
      <trkpt lat="42.2941610" lon="-8.6078850">
        <ele>21.4</ele>
        <time>2022-06-18T11:41:42Z</time>
      </trkpt>
      <trkpt lat="42.2941700" lon="-8.6079030">
        <ele>21.4</ele>
        <time>2022-06-18T11:41:43Z</time>
      </trkpt>
      <trkpt lat="42.2941810" lon="-8.6079200">
        <ele>21.4</ele>
        <time>2022-06-18T11:41:44Z</time>
      </trkpt>
      <trkpt lat="42.2941930" lon="-8.6079380">
        <ele>21.4</ele>
        <time>2022-06-18T11:41:45Z</time>
      </trkpt>
      <trkpt lat="42.2942030" lon="-8.6079580">
        <ele>22.0</ele>
        <time>2022-06-18T11:41:46Z</time>
      </trkpt>
      <trkpt lat="42.2942130" lon="-8.6079730">
        <ele>22.0</ele>
        <time>2022-06-18T11:41:47Z</time>
      </trkpt>
      <trkpt lat="42.2942210" lon="-8.6079880">
        <ele>22.0</ele>
        <time>2022-06-18T11:41:48Z</time>
      </trkpt>
      <trkpt lat="42.2942300" lon="-8.6080010">
        <ele>22.0</ele>
        <time>2022-06-18T11:41:49Z</time>
      </trkpt>
      <trkpt lat="42.2942360" lon="-8.6080130">
        <ele>22.4</ele>
        <time>2022-06-18T11:41:50Z</time>
      </trkpt>
      <trkpt lat="42.2942430" lon="-8.6080250">
        <ele>22.4</ele>
        <time>2022-06-18T11:41:51Z</time>
      </trkpt>
      <trkpt lat="42.2942460" lon="-8.6080330">
        <ele>22.4</ele>
        <time>2022-06-18T11:41:52Z</time>
      </trkpt>
      <trkpt lat="42.2942460" lon="-8.6080330">
        <ele>22.4</ele>
        <time>2022-06-18T11:41:53Z</time>
      </trkpt>
      <trkpt lat="42.2942460" lon="-8.6080450">
        <ele>22.4</ele>
        <time>2022-06-18T11:41:54Z</time>
      </trkpt>
      <trkpt lat="42.2942510" lon="-8.6080600">
        <ele>22.4</ele>
        <time>2022-06-18T11:41:55Z</time>
      </trkpt>
      <trkpt lat="42.2942580" lon="-8.6080760">
        <ele>22.4</ele>
        <time>2022-06-18T11:41:56Z</time>
      </trkpt>
      <trkpt lat="42.2942700" lon="-8.6080950">
        <ele>22.6</ele>
        <time>2022-06-18T11:41:57Z</time>
      </trkpt>
      <trkpt lat="42.2942810" lon="-8.6081150">
        <ele>23.0</ele>
        <time>2022-06-18T11:41:58Z</time>
      </trkpt>
      <trkpt lat="42.2942880" lon="-8.6081330">
        <ele>23.0</ele>
        <time>2022-06-18T11:41:59Z</time>
      </trkpt>
      <trkpt lat="42.2942950" lon="-8.6081510">
        <ele>23.0</ele>
        <time>2022-06-18T11:42:00Z</time>
      </trkpt>
      <trkpt lat="42.2943050" lon="-8.6081710">
        <ele>23.0</ele>
        <time>2022-06-18T11:42:01Z</time>
      </trkpt>
      <trkpt lat="42.2943130" lon="-8.6081880">
        <ele>23.6</ele>
        <time>2022-06-18T11:42:02Z</time>
      </trkpt>
      <trkpt lat="42.2943210" lon="-8.6082080">
        <ele>23.6</ele>
        <time>2022-06-18T11:42:03Z</time>
      </trkpt>
      <trkpt lat="42.2943310" lon="-8.6082310">
        <ele>23.6</ele>
        <time>2022-06-18T11:42:04Z</time>
      </trkpt>
      <trkpt lat="42.2943410" lon="-8.6082530">
        <ele>23.6</ele>
        <time>2022-06-18T11:42:05Z</time>
      </trkpt>
      <trkpt lat="42.2943550" lon="-8.6082710">
        <ele>24.0</ele>
        <time>2022-06-18T11:42:06Z</time>
      </trkpt>
      <trkpt lat="42.2943680" lon="-8.6082900">
        <ele>24.0</ele>
        <time>2022-06-18T11:42:07Z</time>
      </trkpt>
      <trkpt lat="42.2943800" lon="-8.6083100">
        <ele>24.0</ele>
        <time>2022-06-18T11:42:08Z</time>
      </trkpt>
      <trkpt lat="42.2943900" lon="-8.6083300">
        <ele>24.6</ele>
        <time>2022-06-18T11:42:09Z</time>
      </trkpt>
      <trkpt lat="42.2944010" lon="-8.6083530">
        <ele>24.4</ele>
        <time>2022-06-18T11:42:10Z</time>
      </trkpt>
      <trkpt lat="42.2944130" lon="-8.6083730">
        <ele>24.4</ele>
        <time>2022-06-18T11:42:11Z</time>
      </trkpt>
      <trkpt lat="42.2944260" lon="-8.6083910">
        <ele>24.4</ele>
        <time>2022-06-18T11:42:12Z</time>
      </trkpt>
      <trkpt lat="42.2944400" lon="-8.6084110">
        <ele>25.4</ele>
        <time>2022-06-18T11:42:13Z</time>
      </trkpt>
      <trkpt lat="42.2944560" lon="-8.6084300">
        <ele>26.0</ele>
        <time>2022-06-18T11:42:14Z</time>
      </trkpt>
      <trkpt lat="42.2944680" lon="-8.6084480">
        <ele>26.0</ele>
        <time>2022-06-18T11:42:15Z</time>
      </trkpt>
      <trkpt lat="42.2944780" lon="-8.6084680">
        <ele>26.0</ele>
        <time>2022-06-18T11:42:16Z</time>
      </trkpt>
      <trkpt lat="42.2944880" lon="-8.6084860">
        <ele>26.2</ele>
        <time>2022-06-18T11:42:17Z</time>
      </trkpt>
      <trkpt lat="42.2945000" lon="-8.6085060">
        <ele>26.6</ele>
        <time>2022-06-18T11:42:18Z</time>
      </trkpt>
      <trkpt lat="42.2945110" lon="-8.6085250">
        <ele>26.6</ele>
        <time>2022-06-18T11:42:19Z</time>
      </trkpt>
      <trkpt lat="42.2945260" lon="-8.6085460">
        <ele>26.6</ele>
        <time>2022-06-18T11:42:20Z</time>
      </trkpt>
      <trkpt lat="42.2945400" lon="-8.6085680">
        <ele>27.4</ele>
        <time>2022-06-18T11:42:21Z</time>
      </trkpt>
      <trkpt lat="42.2945510" lon="-8.6085880">
        <ele>27.4</ele>
        <time>2022-06-18T11:42:22Z</time>
      </trkpt>
      <trkpt lat="42.2945630" lon="-8.6086100">
        <ele>27.4</ele>
        <time>2022-06-18T11:42:23Z</time>
      </trkpt>
      <trkpt lat="42.2945750" lon="-8.6086280">
        <ele>27.4</ele>
        <time>2022-06-18T11:42:24Z</time>
      </trkpt>
      <trkpt lat="42.2945830" lon="-8.6086500">
        <ele>27.8</ele>
        <time>2022-06-18T11:42:25Z</time>
      </trkpt>
      <trkpt lat="42.2945900" lon="-8.6086750">
        <ele>28.2</ele>
        <time>2022-06-18T11:42:26Z</time>
      </trkpt>
      <trkpt lat="42.2945980" lon="-8.6086950">
        <ele>28.2</ele>
        <time>2022-06-18T11:42:27Z</time>
      </trkpt>
      <trkpt lat="42.2946100" lon="-8.6087110">
        <ele>28.2</ele>
        <time>2022-06-18T11:42:28Z</time>
      </trkpt>
      <trkpt lat="42.2946200" lon="-8.6087260">
        <ele>28.2</ele>
        <time>2022-06-18T11:42:29Z</time>
      </trkpt>
      <trkpt lat="42.2946300" lon="-8.6087460">
        <ele>28.8</ele>
        <time>2022-06-18T11:42:30Z</time>
      </trkpt>
      <trkpt lat="42.2946430" lon="-8.6087660">
        <ele>28.8</ele>
        <time>2022-06-18T11:42:31Z</time>
      </trkpt>
      <trkpt lat="42.2946560" lon="-8.6087860">
        <ele>28.8</ele>
        <time>2022-06-18T11:42:32Z</time>
      </trkpt>
      <trkpt lat="42.2946700" lon="-8.6088030">
        <ele>29.4</ele>
        <time>2022-06-18T11:42:33Z</time>
      </trkpt>
      <trkpt lat="42.2946860" lon="-8.6088180">
        <ele>29.6</ele>
        <time>2022-06-18T11:42:34Z</time>
      </trkpt>
      <trkpt lat="42.2947010" lon="-8.6088310">
        <ele>29.6</ele>
        <time>2022-06-18T11:42:35Z</time>
      </trkpt>
      <trkpt lat="42.2947160" lon="-8.6088480">
        <ele>29.6</ele>
        <time>2022-06-18T11:42:36Z</time>
      </trkpt>
      <trkpt lat="42.2947310" lon="-8.6088660">
        <ele>30.4</ele>
        <time>2022-06-18T11:42:37Z</time>
      </trkpt>
      <trkpt lat="42.2947480" lon="-8.6088830">
        <ele>30.4</ele>
        <time>2022-06-18T11:42:38Z</time>
      </trkpt>
      <trkpt lat="42.2947630" lon="-8.6088980">
        <ele>30.4</ele>
        <time>2022-06-18T11:42:39Z</time>
      </trkpt>
      <trkpt lat="42.2947810" lon="-8.6089160">
        <ele>30.4</ele>
        <time>2022-06-18T11:42:40Z</time>
      </trkpt>
      <trkpt lat="42.2948000" lon="-8.6089360">
        <ele>30.4</ele>
        <time>2022-06-18T11:42:41Z</time>
      </trkpt>
      <trkpt lat="42.2948150" lon="-8.6089550">
        <ele>30.4</ele>
        <time>2022-06-18T11:42:42Z</time>
      </trkpt>
      <trkpt lat="42.2948310" lon="-8.6089750">
        <ele>30.4</ele>
        <time>2022-06-18T11:42:43Z</time>
      </trkpt>
      <trkpt lat="42.2948460" lon="-8.6089980">
        <ele>30.4</ele>
        <time>2022-06-18T11:42:44Z</time>
      </trkpt>
      <trkpt lat="42.2948610" lon="-8.6090200">
        <ele>31.0</ele>
        <time>2022-06-18T11:42:45Z</time>
      </trkpt>
      <trkpt lat="42.2948810" lon="-8.6090410">
        <ele>31.2</ele>
        <time>2022-06-18T11:42:46Z</time>
      </trkpt>
      <trkpt lat="42.2948980" lon="-8.6090600">
        <ele>31.2</ele>
        <time>2022-06-18T11:42:47Z</time>
      </trkpt>
      <trkpt lat="42.2949130" lon="-8.6090810">
        <ele>31.2</ele>
        <time>2022-06-18T11:42:48Z</time>
      </trkpt>
      <trkpt lat="42.2949310" lon="-8.6091050">
        <ele>31.2</ele>
        <time>2022-06-18T11:42:49Z</time>
      </trkpt>
      <trkpt lat="42.2949500" lon="-8.6091200">
        <ele>31.4</ele>
        <time>2022-06-18T11:42:50Z</time>
      </trkpt>
      <trkpt lat="42.2949650" lon="-8.6091360">
        <ele>31.4</ele>
        <time>2022-06-18T11:42:51Z</time>
      </trkpt>
      <trkpt lat="42.2949860" lon="-8.6091550">
        <ele>31.4</ele>
        <time>2022-06-18T11:42:52Z</time>
      </trkpt>
      <trkpt lat="42.2950050" lon="-8.6091750">
        <ele>31.6</ele>
        <time>2022-06-18T11:42:53Z</time>
      </trkpt>
      <trkpt lat="42.2950230" lon="-8.6091910">
        <ele>32.0</ele>
        <time>2022-06-18T11:42:54Z</time>
      </trkpt>
      <trkpt lat="42.2950410" lon="-8.6092050">
        <ele>32.0</ele>
        <time>2022-06-18T11:42:55Z</time>
      </trkpt>
      <trkpt lat="42.2950610" lon="-8.6092210">
        <ele>32.0</ele>
        <time>2022-06-18T11:42:56Z</time>
      </trkpt>
      <trkpt lat="42.2950800" lon="-8.6092400">
        <ele>32.0</ele>
        <time>2022-06-18T11:42:57Z</time>
      </trkpt>
      <trkpt lat="42.2951010" lon="-8.6092600">
        <ele>31.0</ele>
        <time>2022-06-18T11:42:58Z</time>
      </trkpt>
      <trkpt lat="42.2951210" lon="-8.6092780">
        <ele>31.0</ele>
        <time>2022-06-18T11:42:59Z</time>
      </trkpt>
      <trkpt lat="42.2951450" lon="-8.6092950">
        <ele>31.0</ele>
        <time>2022-06-18T11:43:00Z</time>
      </trkpt>
      <trkpt lat="42.2951630" lon="-8.6093100">
        <ele>31.8</ele>
        <time>2022-06-18T11:43:01Z</time>
      </trkpt>
      <trkpt lat="42.2951810" lon="-8.6093260">
        <ele>32.0</ele>
        <time>2022-06-18T11:43:02Z</time>
      </trkpt>
      <trkpt lat="42.2952010" lon="-8.6093450">
        <ele>32.0</ele>
        <time>2022-06-18T11:43:03Z</time>
      </trkpt>
      <trkpt lat="42.2952200" lon="-8.6093600">
        <ele>32.0</ele>
        <time>2022-06-18T11:43:04Z</time>
      </trkpt>
      <trkpt lat="42.2952410" lon="-8.6093710">
        <ele>32.0</ele>
        <time>2022-06-18T11:43:05Z</time>
      </trkpt>
      <trkpt lat="42.2952610" lon="-8.6093860">
        <ele>32.4</ele>
        <time>2022-06-18T11:43:06Z</time>
      </trkpt>
      <trkpt lat="42.2952850" lon="-8.6094010">
        <ele>32.4</ele>
        <time>2022-06-18T11:43:07Z</time>
      </trkpt>
      <trkpt lat="42.2953060" lon="-8.6094180">
        <ele>32.4</ele>
        <time>2022-06-18T11:43:08Z</time>
      </trkpt>
      <trkpt lat="42.2953260" lon="-8.6094350">
        <ele>32.0</ele>
        <time>2022-06-18T11:43:09Z</time>
      </trkpt>
      <trkpt lat="42.2953500" lon="-8.6094530">
        <ele>32.4</ele>
        <time>2022-06-18T11:43:10Z</time>
      </trkpt>
      <trkpt lat="42.2953700" lon="-8.6094700">
        <ele>32.4</ele>
        <time>2022-06-18T11:43:11Z</time>
      </trkpt>
      <trkpt lat="42.2953880" lon="-8.6094860">
        <ele>32.4</ele>
        <time>2022-06-18T11:43:12Z</time>
      </trkpt>
      <trkpt lat="42.2954080" lon="-8.6095030">
        <ele>32.4</ele>
        <time>2022-06-18T11:43:13Z</time>
      </trkpt>
      <trkpt lat="42.2954300" lon="-8.6095160">
        <ele>32.2</ele>
        <time>2022-06-18T11:43:14Z</time>
      </trkpt>
      <trkpt lat="42.2954500" lon="-8.6095330">
        <ele>32.2</ele>
        <time>2022-06-18T11:43:15Z</time>
      </trkpt>
      <trkpt lat="42.2954700" lon="-8.6095500">
        <ele>32.2</ele>
        <time>2022-06-18T11:43:16Z</time>
      </trkpt>
      <trkpt lat="42.2954930" lon="-8.6095680">
        <ele>32.6</ele>
        <time>2022-06-18T11:43:17Z</time>
      </trkpt>
      <trkpt lat="42.2955150" lon="-8.6095860">
        <ele>33.0</ele>
        <time>2022-06-18T11:43:18Z</time>
      </trkpt>
      <trkpt lat="42.2955350" lon="-8.6096030">
        <ele>33.0</ele>
        <time>2022-06-18T11:43:19Z</time>
      </trkpt>
      <trkpt lat="42.2955560" lon="-8.6096210">
        <ele>33.0</ele>
        <time>2022-06-18T11:43:20Z</time>
      </trkpt>
      <trkpt lat="42.2955760" lon="-8.6096400">
        <ele>33.2</ele>
        <time>2022-06-18T11:43:21Z</time>
      </trkpt>
      <trkpt lat="42.2955950" lon="-8.6096610">
        <ele>33.6</ele>
        <time>2022-06-18T11:43:22Z</time>
      </trkpt>
      <trkpt lat="42.2956110" lon="-8.6096830">
        <ele>33.6</ele>
        <time>2022-06-18T11:43:23Z</time>
      </trkpt>
      <trkpt lat="42.2956280" lon="-8.6097060">
        <ele>33.6</ele>
        <time>2022-06-18T11:43:24Z</time>
      </trkpt>
      <trkpt lat="42.2956460" lon="-8.6097280">
        <ele>33.6</ele>
        <time>2022-06-18T11:43:25Z</time>
      </trkpt>
      <trkpt lat="42.2956650" lon="-8.6097500">
        <ele>34.0</ele>
        <time>2022-06-18T11:43:26Z</time>
      </trkpt>
      <trkpt lat="42.2956850" lon="-8.6097680">
        <ele>34.0</ele>
        <time>2022-06-18T11:43:27Z</time>
      </trkpt>
      <trkpt lat="42.2957000" lon="-8.6097900">
        <ele>34.0</ele>
        <time>2022-06-18T11:43:28Z</time>
      </trkpt>
      <trkpt lat="42.2957200" lon="-8.6098130">
        <ele>34.0</ele>
        <time>2022-06-18T11:43:29Z</time>
      </trkpt>
      <trkpt lat="42.2957400" lon="-8.6098330">
        <ele>34.8</ele>
        <time>2022-06-18T11:43:30Z</time>
      </trkpt>
      <trkpt lat="42.2957580" lon="-8.6098510">
        <ele>34.8</ele>
        <time>2022-06-18T11:43:31Z</time>
      </trkpt>
      <trkpt lat="42.2957750" lon="-8.6098710">
        <ele>34.8</ele>
        <time>2022-06-18T11:43:32Z</time>
      </trkpt>
      <trkpt lat="42.2957900" lon="-8.6098950">
        <ele>35.0</ele>
        <time>2022-06-18T11:43:33Z</time>
      </trkpt>
      <trkpt lat="42.2958110" lon="-8.6099160">
        <ele>35.0</ele>
        <time>2022-06-18T11:43:34Z</time>
      </trkpt>
      <trkpt lat="42.2958310" lon="-8.6099400">
        <ele>35.0</ele>
        <time>2022-06-18T11:43:35Z</time>
      </trkpt>
      <trkpt lat="42.2958530" lon="-8.6099650">
        <ele>35.0</ele>
        <time>2022-06-18T11:43:36Z</time>
      </trkpt>
      <trkpt lat="42.2958710" lon="-8.6099860">
        <ele>35.0</ele>
        <time>2022-06-18T11:43:37Z</time>
      </trkpt>
      <trkpt lat="42.2958880" lon="-8.6100060">
        <ele>33.8</ele>
        <time>2022-06-18T11:43:38Z</time>
      </trkpt>
      <trkpt lat="42.2959030" lon="-8.6100280">
        <ele>33.8</ele>
        <time>2022-06-18T11:43:39Z</time>
      </trkpt>
      <trkpt lat="42.2959210" lon="-8.6100500">
        <ele>33.8</ele>
        <time>2022-06-18T11:43:40Z</time>
      </trkpt>
      <trkpt lat="42.2959450" lon="-8.6100730">
        <ele>33.8</ele>
        <time>2022-06-18T11:43:41Z</time>
      </trkpt>
      <trkpt lat="42.2959700" lon="-8.6100960">
        <ele>35.0</ele>
        <time>2022-06-18T11:43:42Z</time>
      </trkpt>
      <trkpt lat="42.2959980" lon="-8.6101150">
        <ele>35.0</ele>
        <time>2022-06-18T11:43:43Z</time>
      </trkpt>
      <trkpt lat="42.2960230" lon="-8.6101380">
        <ele>35.0</ele>
        <time>2022-06-18T11:43:44Z</time>
      </trkpt>
      <trkpt lat="42.2960510" lon="-8.6101580">
        <ele>34.6</ele>
        <time>2022-06-18T11:43:45Z</time>
      </trkpt>
      <trkpt lat="42.2960760" lon="-8.6101780">
        <ele>34.6</ele>
        <time>2022-06-18T11:43:46Z</time>
      </trkpt>
      <trkpt lat="42.2961010" lon="-8.6101980">
        <ele>34.6</ele>
        <time>2022-06-18T11:43:47Z</time>
      </trkpt>
      <trkpt lat="42.2961280" lon="-8.6102160">
        <ele>34.6</ele>
        <time>2022-06-18T11:43:48Z</time>
      </trkpt>
      <trkpt lat="42.2961560" lon="-8.6102350">
        <ele>34.6</ele>
        <time>2022-06-18T11:43:49Z</time>
      </trkpt>
      <trkpt lat="42.2961850" lon="-8.6102450">
        <ele>34.8</ele>
        <time>2022-06-18T11:43:50Z</time>
      </trkpt>
      <trkpt lat="42.2962150" lon="-8.6102500">
        <ele>34.8</ele>
        <time>2022-06-18T11:43:51Z</time>
      </trkpt>
      <trkpt lat="42.2962460" lon="-8.6102480">
        <ele>34.8</ele>
        <time>2022-06-18T11:43:52Z</time>
      </trkpt>
      <trkpt lat="42.2962800" lon="-8.6102460">
        <ele>34.8</ele>
        <time>2022-06-18T11:43:53Z</time>
      </trkpt>
      <trkpt lat="42.2963100" lon="-8.6102450">
        <ele>34.4</ele>
        <time>2022-06-18T11:43:54Z</time>
      </trkpt>
      <trkpt lat="42.2963430" lon="-8.6102330">
        <ele>34.4</ele>
        <time>2022-06-18T11:43:55Z</time>
      </trkpt>
      <trkpt lat="42.2963760" lon="-8.6102250">
        <ele>34.4</ele>
        <time>2022-06-18T11:43:56Z</time>
      </trkpt>
      <trkpt lat="42.2964100" lon="-8.6102180">
        <ele>34.4</ele>
        <time>2022-06-18T11:43:57Z</time>
      </trkpt>
      <trkpt lat="42.2964430" lon="-8.6102130">
        <ele>33.8</ele>
        <time>2022-06-18T11:43:58Z</time>
      </trkpt>
      <trkpt lat="42.2964760" lon="-8.6102050">
        <ele>33.8</ele>
        <time>2022-06-18T11:43:59Z</time>
      </trkpt>
      <trkpt lat="42.2965100" lon="-8.6101910">
        <ele>33.8</ele>
        <time>2022-06-18T11:44:00Z</time>
      </trkpt>
      <trkpt lat="42.2965450" lon="-8.6101850">
        <ele>34.2</ele>
        <time>2022-06-18T11:44:01Z</time>
      </trkpt>
      <trkpt lat="42.2965760" lon="-8.6101810">
        <ele>34.6</ele>
        <time>2022-06-18T11:44:02Z</time>
      </trkpt>
      <trkpt lat="42.2966080" lon="-8.6101800">
        <ele>34.6</ele>
        <time>2022-06-18T11:44:03Z</time>
      </trkpt>
      <trkpt lat="42.2966400" lon="-8.6101780">
        <ele>34.6</ele>
        <time>2022-06-18T11:44:04Z</time>
      </trkpt>
      <trkpt lat="42.2966730" lon="-8.6101780">
        <ele>33.6</ele>
        <time>2022-06-18T11:44:05Z</time>
      </trkpt>
      <trkpt lat="42.2967030" lon="-8.6101800">
        <ele>33.4</ele>
        <time>2022-06-18T11:44:06Z</time>
      </trkpt>
      <trkpt lat="42.2967380" lon="-8.6101800">
        <ele>33.4</ele>
        <time>2022-06-18T11:44:07Z</time>
      </trkpt>
      <trkpt lat="42.2967730" lon="-8.6101800">
        <ele>33.4</ele>
        <time>2022-06-18T11:44:08Z</time>
      </trkpt>
      <trkpt lat="42.2968060" lon="-8.6101800">
        <ele>33.4</ele>
        <time>2022-06-18T11:44:09Z</time>
      </trkpt>
      <trkpt lat="42.2968380" lon="-8.6101760">
        <ele>33.4</ele>
        <time>2022-06-18T11:44:10Z</time>
      </trkpt>
      <trkpt lat="42.2968710" lon="-8.6101710">
        <ele>33.4</ele>
        <time>2022-06-18T11:44:11Z</time>
      </trkpt>
      <trkpt lat="42.2969050" lon="-8.6101680">
        <ele>33.4</ele>
        <time>2022-06-18T11:44:12Z</time>
      </trkpt>
      <trkpt lat="42.2969380" lon="-8.6101660">
        <ele>33.4</ele>
        <time>2022-06-18T11:44:13Z</time>
      </trkpt>
      <trkpt lat="42.2969710" lon="-8.6101650">
        <ele>34.2</ele>
        <time>2022-06-18T11:44:14Z</time>
      </trkpt>
      <trkpt lat="42.2970050" lon="-8.6101630">
        <ele>34.2</ele>
        <time>2022-06-18T11:44:15Z</time>
      </trkpt>
      <trkpt lat="42.2970410" lon="-8.6101600">
        <ele>34.2</ele>
        <time>2022-06-18T11:44:16Z</time>
      </trkpt>
      <trkpt lat="42.2970780" lon="-8.6101530">
        <ele>34.6</ele>
        <time>2022-06-18T11:44:17Z</time>
      </trkpt>
      <trkpt lat="42.2971160" lon="-8.6101400">
        <ele>34.8</ele>
        <time>2022-06-18T11:44:18Z</time>
      </trkpt>
      <trkpt lat="42.2971600" lon="-8.6101250">
        <ele>34.8</ele>
        <time>2022-06-18T11:44:19Z</time>
      </trkpt>
      <trkpt lat="42.2972030" lon="-8.6101080">
        <ele>34.8</ele>
        <time>2022-06-18T11:44:20Z</time>
      </trkpt>
      <trkpt lat="42.2972480" lon="-8.6100960">
        <ele>33.8</ele>
        <time>2022-06-18T11:44:21Z</time>
      </trkpt>
      <trkpt lat="42.2972960" lon="-8.6100780">
        <ele>33.8</ele>
        <time>2022-06-18T11:44:22Z</time>
      </trkpt>
      <trkpt lat="42.2973460" lon="-8.6100560">
        <ele>33.8</ele>
        <time>2022-06-18T11:44:23Z</time>
      </trkpt>
      <trkpt lat="42.2973960" lon="-8.6100330">
        <ele>33.8</ele>
        <time>2022-06-18T11:44:24Z</time>
      </trkpt>
      <trkpt lat="42.2974460" lon="-8.6100130">
        <ele>32.8</ele>
        <time>2022-06-18T11:44:25Z</time>
      </trkpt>
      <trkpt lat="42.2974980" lon="-8.6099930">
        <ele>32.4</ele>
        <time>2022-06-18T11:44:26Z</time>
      </trkpt>
      <trkpt lat="42.2975500" lon="-8.6099750">
        <ele>32.4</ele>
        <time>2022-06-18T11:44:27Z</time>
      </trkpt>
      <trkpt lat="42.2976050" lon="-8.6099600">
        <ele>32.4</ele>
        <time>2022-06-18T11:44:28Z</time>
      </trkpt>
      <trkpt lat="42.2976580" lon="-8.6099430">
        <ele>31.4</ele>
        <time>2022-06-18T11:44:29Z</time>
      </trkpt>
      <trkpt lat="42.2977110" lon="-8.6099230">
        <ele>31.6</ele>
        <time>2022-06-18T11:44:30Z</time>
      </trkpt>
      <trkpt lat="42.2977630" lon="-8.6099030">
        <ele>31.6</ele>
        <time>2022-06-18T11:44:31Z</time>
      </trkpt>
      <trkpt lat="42.2978160" lon="-8.6098810">
        <ele>31.6</ele>
        <time>2022-06-18T11:44:32Z</time>
      </trkpt>
      <trkpt lat="42.2978700" lon="-8.6098560">
        <ele>31.0</ele>
        <time>2022-06-18T11:44:33Z</time>
      </trkpt>
      <trkpt lat="42.2979200" lon="-8.6098310">
        <ele>31.2</ele>
        <time>2022-06-18T11:44:34Z</time>
      </trkpt>
      <trkpt lat="42.2979700" lon="-8.6098060">
        <ele>31.2</ele>
        <time>2022-06-18T11:44:35Z</time>
      </trkpt>
      <trkpt lat="42.2980210" lon="-8.6097850">
        <ele>31.2</ele>
        <time>2022-06-18T11:44:36Z</time>
      </trkpt>
      <trkpt lat="42.2980760" lon="-8.6097610">
        <ele>31.0</ele>
        <time>2022-06-18T11:44:37Z</time>
      </trkpt>
      <trkpt lat="42.2981260" lon="-8.6097280">
        <ele>30.4</ele>
        <time>2022-06-18T11:44:38Z</time>
      </trkpt>
      <trkpt lat="42.2981760" lon="-8.6096930">
        <ele>30.4</ele>
        <time>2022-06-18T11:44:39Z</time>
      </trkpt>
      <trkpt lat="42.2982280" lon="-8.6096630">
        <ele>30.4</ele>
        <time>2022-06-18T11:44:40Z</time>
      </trkpt>
      <trkpt lat="42.2982810" lon="-8.6096380">
        <ele>30.2</ele>
        <time>2022-06-18T11:44:41Z</time>
      </trkpt>
      <trkpt lat="42.2983400" lon="-8.6096200">
        <ele>30.0</ele>
        <time>2022-06-18T11:44:42Z</time>
      </trkpt>
      <trkpt lat="42.2983960" lon="-8.6096010">
        <ele>30.0</ele>
        <time>2022-06-18T11:44:43Z</time>
      </trkpt>
      <trkpt lat="42.2984560" lon="-8.6095850">
        <ele>30.0</ele>
        <time>2022-06-18T11:44:44Z</time>
      </trkpt>
      <trkpt lat="42.2985150" lon="-8.6095700">
        <ele>29.4</ele>
        <time>2022-06-18T11:44:45Z</time>
      </trkpt>
      <trkpt lat="42.2985730" lon="-8.6095560">
        <ele>29.2</ele>
        <time>2022-06-18T11:44:46Z</time>
      </trkpt>
      <trkpt lat="42.2986300" lon="-8.6095430">
        <ele>29.2</ele>
        <time>2022-06-18T11:44:47Z</time>
      </trkpt>
      <trkpt lat="42.2986880" lon="-8.6095330">
        <ele>29.2</ele>
        <time>2022-06-18T11:44:48Z</time>
      </trkpt>
      <trkpt lat="42.2987430" lon="-8.6095310">
        <ele>28.2</ele>
        <time>2022-06-18T11:44:49Z</time>
      </trkpt>
      <trkpt lat="42.2987960" lon="-8.6095360">
        <ele>27.8</ele>
        <time>2022-06-18T11:44:50Z</time>
      </trkpt>
      <trkpt lat="42.2988480" lon="-8.6095360">
        <ele>27.8</ele>
        <time>2022-06-18T11:44:51Z</time>
      </trkpt>
      <trkpt lat="42.2988980" lon="-8.6095310">
        <ele>27.8</ele>
        <time>2022-06-18T11:44:52Z</time>
      </trkpt>
      <trkpt lat="42.2989460" lon="-8.6095310">
        <ele>28.4</ele>
        <time>2022-06-18T11:44:53Z</time>
      </trkpt>
      <trkpt lat="42.2989930" lon="-8.6095330">
        <ele>29.2</ele>
        <time>2022-06-18T11:44:54Z</time>
      </trkpt>
      <trkpt lat="42.2990400" lon="-8.6095360">
        <ele>29.2</ele>
        <time>2022-06-18T11:44:55Z</time>
      </trkpt>
      <trkpt lat="42.2990860" lon="-8.6095400">
        <ele>29.2</ele>
        <time>2022-06-18T11:44:56Z</time>
      </trkpt>
      <trkpt lat="42.2991280" lon="-8.6095430">
        <ele>29.2</ele>
        <time>2022-06-18T11:44:57Z</time>
      </trkpt>
      <trkpt lat="42.2991660" lon="-8.6095350">
        <ele>29.0</ele>
        <time>2022-06-18T11:44:58Z</time>
      </trkpt>
      <trkpt lat="42.2992030" lon="-8.6095280">
        <ele>29.0</ele>
        <time>2022-06-18T11:44:59Z</time>
      </trkpt>
      <trkpt lat="42.2992380" lon="-8.6095180">
        <ele>29.0</ele>
        <time>2022-06-18T11:45:00Z</time>
      </trkpt>
      <trkpt lat="42.2992760" lon="-8.6095080">
        <ele>30.0</ele>
        <time>2022-06-18T11:45:01Z</time>
      </trkpt>
      <trkpt lat="42.2993100" lon="-8.6095000">
        <ele>30.8</ele>
        <time>2022-06-18T11:45:02Z</time>
      </trkpt>
      <trkpt lat="42.2993350" lon="-8.6094980">
        <ele>30.8</ele>
        <time>2022-06-18T11:45:03Z</time>
      </trkpt>
      <trkpt lat="42.2993600" lon="-8.6094950">
        <ele>30.8</ele>
        <time>2022-06-18T11:45:04Z</time>
      </trkpt>
      <trkpt lat="42.2993860" lon="-8.6094880">
        <ele>31.8</ele>
        <time>2022-06-18T11:45:05Z</time>
      </trkpt>
      <trkpt lat="42.2994100" lon="-8.6094860">
        <ele>32.2</ele>
        <time>2022-06-18T11:45:06Z</time>
      </trkpt>
      <trkpt lat="42.2994300" lon="-8.6094780">
        <ele>32.2</ele>
        <time>2022-06-18T11:45:07Z</time>
      </trkpt>
      <trkpt lat="42.2994510" lon="-8.6094630">
        <ele>32.2</ele>
        <time>2022-06-18T11:45:08Z</time>
      </trkpt>
      <trkpt lat="42.2994680" lon="-8.6094410">
        <ele>32.2</ele>
        <time>2022-06-18T11:45:09Z</time>
      </trkpt>
      <trkpt lat="42.2994830" lon="-8.6094210">
        <ele>32.8</ele>
        <time>2022-06-18T11:45:10Z</time>
      </trkpt>
      <trkpt lat="42.2994950" lon="-8.6093950">
        <ele>32.8</ele>
        <time>2022-06-18T11:45:11Z</time>
      </trkpt>
      <trkpt lat="42.2995030" lon="-8.6093700">
        <ele>32.8</ele>
        <time>2022-06-18T11:45:12Z</time>
      </trkpt>
      <trkpt lat="42.2995100" lon="-8.6093450">
        <ele>33.2</ele>
        <time>2022-06-18T11:45:13Z</time>
      </trkpt>
      <trkpt lat="42.2995200" lon="-8.6093180">
        <ele>33.2</ele>
        <time>2022-06-18T11:45:14Z</time>
      </trkpt>
      <trkpt lat="42.2995310" lon="-8.6092930">
        <ele>33.2</ele>
        <time>2022-06-18T11:45:15Z</time>
      </trkpt>
      <trkpt lat="42.2995400" lon="-8.6092680">
        <ele>33.2</ele>
        <time>2022-06-18T11:45:16Z</time>
      </trkpt>
      <trkpt lat="42.2995510" lon="-8.6092400">
        <ele>34.0</ele>
        <time>2022-06-18T11:45:17Z</time>
      </trkpt>
      <trkpt lat="42.2995600" lon="-8.6092180">
        <ele>34.2</ele>
        <time>2022-06-18T11:45:18Z</time>
      </trkpt>
      <trkpt lat="42.2995650" lon="-8.6092030">
        <ele>34.2</ele>
        <time>2022-06-18T11:45:19Z</time>
      </trkpt>
      <trkpt lat="42.2995710" lon="-8.6091850">
        <ele>34.2</ele>
        <time>2022-06-18T11:45:20Z</time>
      </trkpt>
      <trkpt lat="42.2995810" lon="-8.6091630">
        <ele>35.0</ele>
        <time>2022-06-18T11:45:21Z</time>
      </trkpt>
      <trkpt lat="42.2995930" lon="-8.6091430">
        <ele>35.0</ele>
        <time>2022-06-18T11:45:22Z</time>
      </trkpt>
      <trkpt lat="42.2996060" lon="-8.6091250">
        <ele>35.0</ele>
        <time>2022-06-18T11:45:23Z</time>
      </trkpt>
      <trkpt lat="42.2996180" lon="-8.6091050">
        <ele>35.0</ele>
        <time>2022-06-18T11:45:24Z</time>
      </trkpt>
      <trkpt lat="42.2996280" lon="-8.6090850">
        <ele>35.0</ele>
        <time>2022-06-18T11:45:25Z</time>
      </trkpt>
      <trkpt lat="42.2996400" lon="-8.6090660">
        <ele>35.8</ele>
        <time>2022-06-18T11:45:26Z</time>
      </trkpt>
      <trkpt lat="42.2996510" lon="-8.6090480">
        <ele>35.8</ele>
        <time>2022-06-18T11:45:27Z</time>
      </trkpt>
      <trkpt lat="42.2996610" lon="-8.6090280">
        <ele>35.8</ele>
        <time>2022-06-18T11:45:28Z</time>
      </trkpt>
      <trkpt lat="42.2996730" lon="-8.6090100">
        <ele>35.8</ele>
        <time>2022-06-18T11:45:29Z</time>
      </trkpt>
      <trkpt lat="42.2996860" lon="-8.6089930">
        <ele>36.6</ele>
        <time>2022-06-18T11:45:30Z</time>
      </trkpt>
      <trkpt lat="42.2997000" lon="-8.6089780">
        <ele>36.6</ele>
        <time>2022-06-18T11:45:31Z</time>
      </trkpt>
      <trkpt lat="42.2997130" lon="-8.6089660">
        <ele>36.6</ele>
        <time>2022-06-18T11:45:32Z</time>
      </trkpt>
      <trkpt lat="42.2997250" lon="-8.6089550">
        <ele>36.6</ele>
        <time>2022-06-18T11:45:33Z</time>
      </trkpt>
      <trkpt lat="42.2997360" lon="-8.6089410">
        <ele>36.8</ele>
        <time>2022-06-18T11:45:34Z</time>
      </trkpt>
      <trkpt lat="42.2997510" lon="-8.6089260">
        <ele>36.8</ele>
        <time>2022-06-18T11:45:35Z</time>
      </trkpt>
      <trkpt lat="42.2997710" lon="-8.6089110">
        <ele>36.8</ele>
        <time>2022-06-18T11:45:36Z</time>
      </trkpt>
      <trkpt lat="42.2997900" lon="-8.6089050">
        <ele>36.8</ele>
        <time>2022-06-18T11:45:37Z</time>
      </trkpt>
      <trkpt lat="42.2998060" lon="-8.6089000">
        <ele>37.0</ele>
        <time>2022-06-18T11:45:38Z</time>
      </trkpt>
      <trkpt lat="42.2998230" lon="-8.6088910">
        <ele>37.0</ele>
        <time>2022-06-18T11:45:39Z</time>
      </trkpt>
      <trkpt lat="42.2998400" lon="-8.6088830">
        <ele>37.0</ele>
        <time>2022-06-18T11:45:40Z</time>
      </trkpt>
      <trkpt lat="42.2998530" lon="-8.6088750">
        <ele>37.0</ele>
        <time>2022-06-18T11:45:41Z</time>
      </trkpt>
      <trkpt lat="42.2998630" lon="-8.6088660">
        <ele>37.6</ele>
        <time>2022-06-18T11:45:42Z</time>
      </trkpt>
      <trkpt lat="42.2998730" lon="-8.6088580">
        <ele>37.6</ele>
        <time>2022-06-18T11:45:43Z</time>
      </trkpt>
      <trkpt lat="42.2998830" lon="-8.6088480">
        <ele>37.6</ele>
        <time>2022-06-18T11:45:44Z</time>
      </trkpt>
      <trkpt lat="42.2998910" lon="-8.6088400">
        <ele>38.2</ele>
        <time>2022-06-18T11:45:45Z</time>
      </trkpt>
      <trkpt lat="42.2999030" lon="-8.6088260">
        <ele>38.4</ele>
        <time>2022-06-18T11:45:46Z</time>
      </trkpt>
      <trkpt lat="42.2999130" lon="-8.6088130">
        <ele>38.4</ele>
        <time>2022-06-18T11:45:47Z</time>
      </trkpt>
      <trkpt lat="42.2999230" lon="-8.6088000">
        <ele>38.4</ele>
        <time>2022-06-18T11:45:48Z</time>
      </trkpt>
      <trkpt lat="42.2999330" lon="-8.6087860">
        <ele>39.2</ele>
        <time>2022-06-18T11:45:49Z</time>
      </trkpt>
      <trkpt lat="42.2999430" lon="-8.6087730">
        <ele>39.2</ele>
        <time>2022-06-18T11:45:50Z</time>
      </trkpt>
      <trkpt lat="42.2999530" lon="-8.6087610">
        <ele>39.2</ele>
        <time>2022-06-18T11:45:51Z</time>
      </trkpt>
      <trkpt lat="42.2999650" lon="-8.6087500">
        <ele>39.2</ele>
        <time>2022-06-18T11:45:52Z</time>
      </trkpt>
      <trkpt lat="42.2999780" lon="-8.6087380">
        <ele>39.4</ele>
        <time>2022-06-18T11:45:53Z</time>
      </trkpt>
      <trkpt lat="42.2999880" lon="-8.6087280">
        <ele>39.6</ele>
        <time>2022-06-18T11:45:54Z</time>
      </trkpt>
      <trkpt lat="42.2999980" lon="-8.6087180">
        <ele>39.6</ele>
        <time>2022-06-18T11:45:55Z</time>
      </trkpt>
      <trkpt lat="42.3000080" lon="-8.6087060">
        <ele>39.6</ele>
        <time>2022-06-18T11:45:56Z</time>
      </trkpt>
      <trkpt lat="42.3000200" lon="-8.6086930">
        <ele>40.6</ele>
        <time>2022-06-18T11:45:57Z</time>
      </trkpt>
      <trkpt lat="42.3000300" lon="-8.6086780">
        <ele>40.6</ele>
        <time>2022-06-18T11:45:58Z</time>
      </trkpt>
      <trkpt lat="42.3000400" lon="-8.6086700">
        <ele>40.6</ele>
        <time>2022-06-18T11:45:59Z</time>
      </trkpt>
      <trkpt lat="42.3000500" lon="-8.6086600">
        <ele>40.6</ele>
        <time>2022-06-18T11:46:00Z</time>
      </trkpt>
      <trkpt lat="42.3000650" lon="-8.6086510">
        <ele>40.6</ele>
        <time>2022-06-18T11:46:01Z</time>
      </trkpt>
      <trkpt lat="42.3000750" lon="-8.6086450">
        <ele>41.2</ele>
        <time>2022-06-18T11:46:02Z</time>
      </trkpt>
      <trkpt lat="42.3000830" lon="-8.6086350">
        <ele>41.2</ele>
        <time>2022-06-18T11:46:03Z</time>
      </trkpt>
      <trkpt lat="42.3000950" lon="-8.6086230">
        <ele>41.2</ele>
        <time>2022-06-18T11:46:04Z</time>
      </trkpt>
      <trkpt lat="42.3001060" lon="-8.6086100">
        <ele>42.2</ele>
        <time>2022-06-18T11:46:05Z</time>
      </trkpt>
      <trkpt lat="42.3001150" lon="-8.6085910">
        <ele>42.4</ele>
        <time>2022-06-18T11:46:06Z</time>
      </trkpt>
      <trkpt lat="42.3001250" lon="-8.6085780">
        <ele>42.4</ele>
        <time>2022-06-18T11:46:07Z</time>
      </trkpt>
      <trkpt lat="42.3001350" lon="-8.6085680">
        <ele>42.4</ele>
        <time>2022-06-18T11:46:08Z</time>
      </trkpt>
      <trkpt lat="42.3001480" lon="-8.6085530">
        <ele>42.4</ele>
        <time>2022-06-18T11:46:09Z</time>
      </trkpt>
      <trkpt lat="42.3001600" lon="-8.6085410">
        <ele>42.8</ele>
        <time>2022-06-18T11:46:10Z</time>
      </trkpt>
      <trkpt lat="42.3001680" lon="-8.6085310">
        <ele>42.8</ele>
        <time>2022-06-18T11:46:11Z</time>
      </trkpt>
      <trkpt lat="42.3001710" lon="-8.6085180">
        <ele>42.8</ele>
        <time>2022-06-18T11:46:12Z</time>
      </trkpt>
      <trkpt lat="42.3001780" lon="-8.6085050">
        <ele>43.6</ele>
        <time>2022-06-18T11:46:13Z</time>
      </trkpt>
      <trkpt lat="42.3001860" lon="-8.6084900">
        <ele>43.6</ele>
        <time>2022-06-18T11:46:14Z</time>
      </trkpt>
      <trkpt lat="42.3001930" lon="-8.6084760">
        <ele>43.6</ele>
        <time>2022-06-18T11:46:15Z</time>
      </trkpt>
      <trkpt lat="42.3002030" lon="-8.6084630">
        <ele>43.6</ele>
        <time>2022-06-18T11:46:16Z</time>
      </trkpt>
      <trkpt lat="42.3002110" lon="-8.6084500">
        <ele>44.2</ele>
        <time>2022-06-18T11:46:17Z</time>
      </trkpt>
      <trkpt lat="42.3002210" lon="-8.6084380">
        <ele>44.0</ele>
        <time>2022-06-18T11:46:18Z</time>
      </trkpt>
      <trkpt lat="42.3002280" lon="-8.6084280">
        <ele>44.0</ele>
        <time>2022-06-18T11:46:19Z</time>
      </trkpt>
      <trkpt lat="42.3002380" lon="-8.6084200">
        <ele>44.0</ele>
        <time>2022-06-18T11:46:20Z</time>
      </trkpt>
      <trkpt lat="42.3002460" lon="-8.6084080">
        <ele>45.0</ele>
        <time>2022-06-18T11:46:21Z</time>
      </trkpt>
      <trkpt lat="42.3002550" lon="-8.6083950">
        <ele>45.6</ele>
        <time>2022-06-18T11:46:22Z</time>
      </trkpt>
      <trkpt lat="42.3002650" lon="-8.6083800">
        <ele>45.6</ele>
        <time>2022-06-18T11:46:23Z</time>
      </trkpt>
      <trkpt lat="42.3002730" lon="-8.6083700">
        <ele>45.6</ele>
        <time>2022-06-18T11:46:24Z</time>
      </trkpt>
      <trkpt lat="42.3002800" lon="-8.6083560">
        <ele>45.6</ele>
        <time>2022-06-18T11:46:25Z</time>
      </trkpt>
      <trkpt lat="42.3002850" lon="-8.6083400">
        <ele>45.8</ele>
        <time>2022-06-18T11:46:26Z</time>
      </trkpt>
      <trkpt lat="42.3002880" lon="-8.6083250">
        <ele>45.8</ele>
        <time>2022-06-18T11:46:27Z</time>
      </trkpt>
      <trkpt lat="42.3002950" lon="-8.6083130">
        <ele>45.8</ele>
        <time>2022-06-18T11:46:28Z</time>
      </trkpt>
      <trkpt lat="42.3003030" lon="-8.6083010">
        <ele>46.6</ele>
        <time>2022-06-18T11:46:29Z</time>
      </trkpt>
      <trkpt lat="42.3003110" lon="-8.6082900">
        <ele>47.0</ele>
        <time>2022-06-18T11:46:30Z</time>
      </trkpt>
      <trkpt lat="42.3003180" lon="-8.6082730">
        <ele>47.0</ele>
        <time>2022-06-18T11:46:31Z</time>
      </trkpt>
      <trkpt lat="42.3003200" lon="-8.6082580">
        <ele>47.0</ele>
        <time>2022-06-18T11:46:32Z</time>
      </trkpt>
      <trkpt lat="42.3003260" lon="-8.6082450">
        <ele>47.4</ele>
        <time>2022-06-18T11:46:33Z</time>
      </trkpt>
      <trkpt lat="42.3003330" lon="-8.6082300">
        <ele>47.4</ele>
        <time>2022-06-18T11:46:34Z</time>
      </trkpt>
      <trkpt lat="42.3003410" lon="-8.6082150">
        <ele>47.4</ele>
        <time>2022-06-18T11:46:35Z</time>
      </trkpt>
      <trkpt lat="42.3003500" lon="-8.6082030">
        <ele>47.4</ele>
        <time>2022-06-18T11:46:36Z</time>
      </trkpt>
      <trkpt lat="42.3003580" lon="-8.6081900">
        <ele>48.0</ele>
        <time>2022-06-18T11:46:37Z</time>
      </trkpt>
      <trkpt lat="42.3003680" lon="-8.6081780">
        <ele>48.4</ele>
        <time>2022-06-18T11:46:38Z</time>
      </trkpt>
      <trkpt lat="42.3003750" lon="-8.6081650">
        <ele>48.4</ele>
        <time>2022-06-18T11:46:39Z</time>
      </trkpt>
      <trkpt lat="42.3003830" lon="-8.6081510">
        <ele>48.4</ele>
        <time>2022-06-18T11:46:40Z</time>
      </trkpt>
      <trkpt lat="42.3003910" lon="-8.6081360">
        <ele>48.4</ele>
        <time>2022-06-18T11:46:41Z</time>
      </trkpt>
      <trkpt lat="42.3004000" lon="-8.6081230">
        <ele>48.8</ele>
        <time>2022-06-18T11:46:42Z</time>
      </trkpt>
      <trkpt lat="42.3004060" lon="-8.6081080">
        <ele>48.8</ele>
        <time>2022-06-18T11:46:43Z</time>
      </trkpt>
      <trkpt lat="42.3004150" lon="-8.6081000">
        <ele>48.8</ele>
        <time>2022-06-18T11:46:44Z</time>
      </trkpt>
      <trkpt lat="42.3004230" lon="-8.6080960">
        <ele>49.4</ele>
        <time>2022-06-18T11:46:45Z</time>
      </trkpt>
      <trkpt lat="42.3004300" lon="-8.6080960">
        <ele>49.4</ele>
        <time>2022-06-18T11:46:46Z</time>
      </trkpt>
      <trkpt lat="42.3004380" lon="-8.6081000">
        <ele>49.4</ele>
        <time>2022-06-18T11:46:47Z</time>
      </trkpt>
      <trkpt lat="42.3004480" lon="-8.6081030">
        <ele>49.4</ele>
        <time>2022-06-18T11:46:48Z</time>
      </trkpt>
      <trkpt lat="42.3004600" lon="-8.6081110">
        <ele>49.4</ele>
        <time>2022-06-18T11:46:49Z</time>
      </trkpt>
      <trkpt lat="42.3004710" lon="-8.6081200">
        <ele>49.4</ele>
        <time>2022-06-18T11:46:50Z</time>
      </trkpt>
      <trkpt lat="42.3004830" lon="-8.6081280">
        <ele>49.4</ele>
        <time>2022-06-18T11:46:51Z</time>
      </trkpt>
      <trkpt lat="42.3004960" lon="-8.6081330">
        <ele>49.4</ele>
        <time>2022-06-18T11:46:52Z</time>
      </trkpt>
      <trkpt lat="42.3005080" lon="-8.6081380">
        <ele>49.4</ele>
        <time>2022-06-18T11:46:53Z</time>
      </trkpt>
      <trkpt lat="42.3005210" lon="-8.6081450">
        <ele>48.8</ele>
        <time>2022-06-18T11:46:54Z</time>
      </trkpt>
      <trkpt lat="42.3005330" lon="-8.6081500">
        <ele>48.8</ele>
        <time>2022-06-18T11:46:55Z</time>
      </trkpt>
      <trkpt lat="42.3005450" lon="-8.6081530">
        <ele>48.8</ele>
        <time>2022-06-18T11:46:56Z</time>
      </trkpt>
      <trkpt lat="42.3005580" lon="-8.6081610">
        <ele>49.4</ele>
        <time>2022-06-18T11:46:57Z</time>
      </trkpt>
      <trkpt lat="42.3005760" lon="-8.6081760">
        <ele>48.4</ele>
        <time>2022-06-18T11:46:58Z</time>
      </trkpt>
      <trkpt lat="42.3006010" lon="-8.6081960">
        <ele>48.4</ele>
        <time>2022-06-18T11:46:59Z</time>
      </trkpt>
      <trkpt lat="42.3006310" lon="-8.6082260">
        <ele>48.4</ele>
        <time>2022-06-18T11:47:00Z</time>
      </trkpt>
      <trkpt lat="42.3006680" lon="-8.6082650">
        <ele>48.4</ele>
        <time>2022-06-18T11:47:01Z</time>
      </trkpt>
      <trkpt lat="42.3007060" lon="-8.6083030">
        <ele>45.4</ele>
        <time>2022-06-18T11:47:02Z</time>
      </trkpt>
      <trkpt lat="42.3007480" lon="-8.6083350">
        <ele>45.4</ele>
        <time>2022-06-18T11:47:03Z</time>
      </trkpt>
      <trkpt lat="42.3007950" lon="-8.6083600">
        <ele>45.4</ele>
        <time>2022-06-18T11:47:04Z</time>
      </trkpt>
      <trkpt lat="42.3008410" lon="-8.6083660">
        <ele>44.4</ele>
        <time>2022-06-18T11:47:05Z</time>
      </trkpt>
      <trkpt lat="42.3008880" lon="-8.6083550">
        <ele>43.0</ele>
        <time>2022-06-18T11:47:06Z</time>
      </trkpt>
      <trkpt lat="42.3009280" lon="-8.6083350">
        <ele>43.0</ele>
        <time>2022-06-18T11:47:07Z</time>
      </trkpt>
      <trkpt lat="42.3009630" lon="-8.6083110">
        <ele>43.0</ele>
        <time>2022-06-18T11:47:08Z</time>
      </trkpt>
      <trkpt lat="42.3009980" lon="-8.6082900">
        <ele>44.0</ele>
        <time>2022-06-18T11:47:09Z</time>
      </trkpt>
      <trkpt lat="42.3010300" lon="-8.6082730">
        <ele>43.6</ele>
        <time>2022-06-18T11:47:10Z</time>
      </trkpt>
      <trkpt lat="42.3010610" lon="-8.6082580">
        <ele>43.6</ele>
        <time>2022-06-18T11:47:11Z</time>
      </trkpt>
      <trkpt lat="42.3010880" lon="-8.6082450">
        <ele>43.6</ele>
        <time>2022-06-18T11:47:12Z</time>
      </trkpt>
      <trkpt lat="42.3011150" lon="-8.6082380">
        <ele>44.0</ele>
        <time>2022-06-18T11:47:13Z</time>
      </trkpt>
      <trkpt lat="42.3011380" lon="-8.6082330">
        <ele>44.4</ele>
        <time>2022-06-18T11:47:14Z</time>
      </trkpt>
      <trkpt lat="42.3011610" lon="-8.6082310">
        <ele>44.4</ele>
        <time>2022-06-18T11:47:15Z</time>
      </trkpt>
      <trkpt lat="42.3011860" lon="-8.6082310">
        <ele>44.4</ele>
        <time>2022-06-18T11:47:16Z</time>
      </trkpt>
      <trkpt lat="42.3012130" lon="-8.6082330">
        <ele>44.4</ele>
        <time>2022-06-18T11:47:17Z</time>
      </trkpt>
      <trkpt lat="42.3012430" lon="-8.6082360">
        <ele>44.0</ele>
        <time>2022-06-18T11:47:18Z</time>
      </trkpt>
      <trkpt lat="42.3012750" lon="-8.6082400">
        <ele>44.0</ele>
        <time>2022-06-18T11:47:19Z</time>
      </trkpt>
      <trkpt lat="42.3013080" lon="-8.6082450">
        <ele>44.0</ele>
        <time>2022-06-18T11:47:20Z</time>
      </trkpt>
      <trkpt lat="42.3013430" lon="-8.6082500">
        <ele>44.0</ele>
        <time>2022-06-18T11:47:21Z</time>
      </trkpt>
      <trkpt lat="42.3013780" lon="-8.6082510">
        <ele>43.6</ele>
        <time>2022-06-18T11:47:22Z</time>
      </trkpt>
      <trkpt lat="42.3014150" lon="-8.6082460">
        <ele>43.6</ele>
        <time>2022-06-18T11:47:23Z</time>
      </trkpt>
      <trkpt lat="42.3014460" lon="-8.6082330">
        <ele>43.6</ele>
        <time>2022-06-18T11:47:24Z</time>
      </trkpt>
      <trkpt lat="42.3014760" lon="-8.6082130">
        <ele>43.6</ele>
        <time>2022-06-18T11:47:25Z</time>
      </trkpt>
      <trkpt lat="42.3015050" lon="-8.6081930">
        <ele>44.0</ele>
        <time>2022-06-18T11:47:26Z</time>
      </trkpt>
      <trkpt lat="42.3015310" lon="-8.6081750">
        <ele>44.0</ele>
        <time>2022-06-18T11:47:27Z</time>
      </trkpt>
      <trkpt lat="42.3015580" lon="-8.6081600">
        <ele>44.0</ele>
        <time>2022-06-18T11:47:28Z</time>
      </trkpt>
      <trkpt lat="42.3015830" lon="-8.6081450">
        <ele>44.0</ele>
        <time>2022-06-18T11:47:29Z</time>
      </trkpt>
      <trkpt lat="42.3016030" lon="-8.6081300">
        <ele>45.0</ele>
        <time>2022-06-18T11:47:30Z</time>
      </trkpt>
      <trkpt lat="42.3016210" lon="-8.6081180">
        <ele>45.0</ele>
        <time>2022-06-18T11:47:31Z</time>
      </trkpt>
      <trkpt lat="42.3016430" lon="-8.6081030">
        <ele>45.0</ele>
        <time>2022-06-18T11:47:32Z</time>
      </trkpt>
      <trkpt lat="42.3016650" lon="-8.6080880">
        <ele>45.0</ele>
        <time>2022-06-18T11:47:33Z</time>
      </trkpt>
      <trkpt lat="42.3016830" lon="-8.6080730">
        <ele>45.4</ele>
        <time>2022-06-18T11:47:34Z</time>
      </trkpt>
      <trkpt lat="42.3017030" lon="-8.6080560">
        <ele>45.4</ele>
        <time>2022-06-18T11:47:35Z</time>
      </trkpt>
      <trkpt lat="42.3017180" lon="-8.6080450">
        <ele>45.4</ele>
        <time>2022-06-18T11:47:36Z</time>
      </trkpt>
      <trkpt lat="42.3017400" lon="-8.6080350">
        <ele>45.6</ele>
        <time>2022-06-18T11:47:37Z</time>
      </trkpt>
      <trkpt lat="42.3017660" lon="-8.6080230">
        <ele>45.8</ele>
        <time>2022-06-18T11:47:38Z</time>
      </trkpt>
      <trkpt lat="42.3017910" lon="-8.6080100">
        <ele>45.8</ele>
        <time>2022-06-18T11:47:39Z</time>
      </trkpt>
      <trkpt lat="42.3018130" lon="-8.6080000">
        <ele>45.8</ele>
        <time>2022-06-18T11:47:40Z</time>
      </trkpt>
      <trkpt lat="42.3018360" lon="-8.6079900">
        <ele>46.4</ele>
        <time>2022-06-18T11:47:41Z</time>
      </trkpt>
      <trkpt lat="42.3018560" lon="-8.6079830">
        <ele>46.0</ele>
        <time>2022-06-18T11:47:42Z</time>
      </trkpt>
      <trkpt lat="42.3018780" lon="-8.6079760">
        <ele>46.0</ele>
        <time>2022-06-18T11:47:43Z</time>
      </trkpt>
      <trkpt lat="42.3019000" lon="-8.6079660">
        <ele>46.0</ele>
        <time>2022-06-18T11:47:44Z</time>
      </trkpt>
      <trkpt lat="42.3019230" lon="-8.6079560">
        <ele>46.4</ele>
        <time>2022-06-18T11:47:45Z</time>
      </trkpt>
      <trkpt lat="42.3019450" lon="-8.6079410">
        <ele>46.4</ele>
        <time>2022-06-18T11:47:46Z</time>
      </trkpt>
      <trkpt lat="42.3019660" lon="-8.6079230">
        <ele>46.4</ele>
        <time>2022-06-18T11:47:47Z</time>
      </trkpt>
      <trkpt lat="42.3019810" lon="-8.6079010">
        <ele>46.4</ele>
        <time>2022-06-18T11:47:48Z</time>
      </trkpt>
      <trkpt lat="42.3019950" lon="-8.6078830">
        <ele>46.2</ele>
        <time>2022-06-18T11:47:49Z</time>
      </trkpt>
      <trkpt lat="42.3020110" lon="-8.6078680">
        <ele>45.6</ele>
        <time>2022-06-18T11:47:50Z</time>
      </trkpt>
      <trkpt lat="42.3020230" lon="-8.6078530">
        <ele>45.6</ele>
        <time>2022-06-18T11:47:51Z</time>
      </trkpt>
      <trkpt lat="42.3020330" lon="-8.6078360">
        <ele>45.6</ele>
        <time>2022-06-18T11:47:52Z</time>
      </trkpt>
      <trkpt lat="42.3020480" lon="-8.6078210">
        <ele>46.6</ele>
        <time>2022-06-18T11:47:53Z</time>
      </trkpt>
      <trkpt lat="42.3020610" lon="-8.6078030">
        <ele>47.2</ele>
        <time>2022-06-18T11:47:54Z</time>
      </trkpt>
      <trkpt lat="42.3020760" lon="-8.6077830">
        <ele>47.2</ele>
        <time>2022-06-18T11:47:55Z</time>
      </trkpt>
      <trkpt lat="42.3020880" lon="-8.6077650">
        <ele>47.2</ele>
        <time>2022-06-18T11:47:56Z</time>
      </trkpt>
      <trkpt lat="42.3020980" lon="-8.6077530">
        <ele>47.2</ele>
        <time>2022-06-18T11:47:57Z</time>
      </trkpt>
      <trkpt lat="42.3021110" lon="-8.6077350">
        <ele>47.6</ele>
        <time>2022-06-18T11:47:58Z</time>
      </trkpt>
      <trkpt lat="42.3021200" lon="-8.6077160">
        <ele>47.6</ele>
        <time>2022-06-18T11:47:59Z</time>
      </trkpt>
      <trkpt lat="42.3021330" lon="-8.6077010">
        <ele>47.6</ele>
        <time>2022-06-18T11:48:00Z</time>
      </trkpt>
      <trkpt lat="42.3021480" lon="-8.6076860">
        <ele>48.2</ele>
        <time>2022-06-18T11:48:01Z</time>
      </trkpt>
      <trkpt lat="42.3021630" lon="-8.6076650">
        <ele>48.4</ele>
        <time>2022-06-18T11:48:02Z</time>
      </trkpt>
      <trkpt lat="42.3021810" lon="-8.6076460">
        <ele>48.4</ele>
        <time>2022-06-18T11:48:03Z</time>
      </trkpt>
      <trkpt lat="42.3021980" lon="-8.6076210">
        <ele>48.4</ele>
        <time>2022-06-18T11:48:04Z</time>
      </trkpt>
      <trkpt lat="42.3022110" lon="-8.6076050">
        <ele>48.4</ele>
        <time>2022-06-18T11:48:05Z</time>
      </trkpt>
      <trkpt lat="42.3022280" lon="-8.6075980">
        <ele>48.2</ele>
        <time>2022-06-18T11:48:06Z</time>
      </trkpt>
      <trkpt lat="42.3022410" lon="-8.6075900">
        <ele>48.2</ele>
        <time>2022-06-18T11:48:07Z</time>
      </trkpt>
      <trkpt lat="42.3022610" lon="-8.6075830">
        <ele>48.2</ele>
        <time>2022-06-18T11:48:08Z</time>
      </trkpt>
      <trkpt lat="42.3022850" lon="-8.6075710">
        <ele>49.2</ele>
        <time>2022-06-18T11:48:09Z</time>
      </trkpt>
      <trkpt lat="42.3023060" lon="-8.6075550">
        <ele>49.6</ele>
        <time>2022-06-18T11:48:10Z</time>
      </trkpt>
      <trkpt lat="42.3023260" lon="-8.6075430">
        <ele>49.6</ele>
        <time>2022-06-18T11:48:11Z</time>
      </trkpt>
      <trkpt lat="42.3023450" lon="-8.6075250">
        <ele>49.6</ele>
        <time>2022-06-18T11:48:12Z</time>
      </trkpt>
      <trkpt lat="42.3023610" lon="-8.6075060">
        <ele>49.6</ele>
        <time>2022-06-18T11:48:13Z</time>
      </trkpt>
      <trkpt lat="42.3023800" lon="-8.6074830">
        <ele>50.0</ele>
        <time>2022-06-18T11:48:14Z</time>
      </trkpt>
      <trkpt lat="42.3024010" lon="-8.6074600">
        <ele>50.0</ele>
        <time>2022-06-18T11:48:15Z</time>
      </trkpt>
      <trkpt lat="42.3024230" lon="-8.6074350">
        <ele>50.0</ele>
        <time>2022-06-18T11:48:16Z</time>
      </trkpt>
      <trkpt lat="42.3024480" lon="-8.6074050">
        <ele>50.0</ele>
        <time>2022-06-18T11:48:17Z</time>
      </trkpt>
      <trkpt lat="42.3024780" lon="-8.6073800">
        <ele>50.2</ele>
        <time>2022-06-18T11:48:18Z</time>
      </trkpt>
      <trkpt lat="42.3025030" lon="-8.6073550">
        <ele>50.2</ele>
        <time>2022-06-18T11:48:19Z</time>
      </trkpt>
      <trkpt lat="42.3025260" lon="-8.6073250">
        <ele>50.2</ele>
        <time>2022-06-18T11:48:20Z</time>
      </trkpt>
      <trkpt lat="42.3025500" lon="-8.6072930">
        <ele>50.2</ele>
        <time>2022-06-18T11:48:21Z</time>
      </trkpt>
      <trkpt lat="42.3025730" lon="-8.6072660">
        <ele>50.6</ele>
        <time>2022-06-18T11:48:22Z</time>
      </trkpt>
      <trkpt lat="42.3025930" lon="-8.6072410">
        <ele>50.6</ele>
        <time>2022-06-18T11:48:23Z</time>
      </trkpt>
      <trkpt lat="42.3026130" lon="-8.6072160">
        <ele>50.6</ele>
        <time>2022-06-18T11:48:24Z</time>
      </trkpt>
      <trkpt lat="42.3026330" lon="-8.6071880">
        <ele>51.0</ele>
        <time>2022-06-18T11:48:25Z</time>
      </trkpt>
      <trkpt lat="42.3026480" lon="-8.6071550">
        <ele>51.8</ele>
        <time>2022-06-18T11:48:26Z</time>
      </trkpt>
      <trkpt lat="42.3026730" lon="-8.6071280">
        <ele>51.8</ele>
        <time>2022-06-18T11:48:27Z</time>
      </trkpt>
      <trkpt lat="42.3027030" lon="-8.6070960">
        <ele>51.8</ele>
        <time>2022-06-18T11:48:28Z</time>
      </trkpt>
      <trkpt lat="42.3027330" lon="-8.6070750">
        <ele>51.0</ele>
        <time>2022-06-18T11:48:29Z</time>
      </trkpt>
      <trkpt lat="42.3027610" lon="-8.6070560">
        <ele>51.2</ele>
        <time>2022-06-18T11:48:30Z</time>
      </trkpt>
      <trkpt lat="42.3027900" lon="-8.6070350">
        <ele>51.2</ele>
        <time>2022-06-18T11:48:31Z</time>
      </trkpt>
      <trkpt lat="42.3028180" lon="-8.6070110">
        <ele>51.2</ele>
        <time>2022-06-18T11:48:32Z</time>
      </trkpt>
      <trkpt lat="42.3028410" lon="-8.6069860">
        <ele>51.2</ele>
        <time>2022-06-18T11:48:33Z</time>
      </trkpt>
      <trkpt lat="42.3028660" lon="-8.6069600">
        <ele>52.2</ele>
        <time>2022-06-18T11:48:34Z</time>
      </trkpt>
      <trkpt lat="42.3028900" lon="-8.6069310">
        <ele>52.2</ele>
        <time>2022-06-18T11:48:35Z</time>
      </trkpt>
      <trkpt lat="42.3029150" lon="-8.6069110">
        <ele>52.2</ele>
        <time>2022-06-18T11:48:36Z</time>
      </trkpt>
      <trkpt lat="42.3029400" lon="-8.6068910">
        <ele>52.0</ele>
        <time>2022-06-18T11:48:37Z</time>
      </trkpt>
      <trkpt lat="42.3029650" lon="-8.6068660">
        <ele>52.4</ele>
        <time>2022-06-18T11:48:38Z</time>
      </trkpt>
      <trkpt lat="42.3029910" lon="-8.6068430">
        <ele>52.4</ele>
        <time>2022-06-18T11:48:39Z</time>
      </trkpt>
      <trkpt lat="42.3030160" lon="-8.6068150">
        <ele>52.4</ele>
        <time>2022-06-18T11:48:40Z</time>
      </trkpt>
      <trkpt lat="42.3030430" lon="-8.6067900">
        <ele>52.2</ele>
        <time>2022-06-18T11:48:41Z</time>
      </trkpt>
      <trkpt lat="42.3030700" lon="-8.6067660">
        <ele>52.0</ele>
        <time>2022-06-18T11:48:42Z</time>
      </trkpt>
      <trkpt lat="42.3030930" lon="-8.6067360">
        <ele>52.0</ele>
        <time>2022-06-18T11:48:43Z</time>
      </trkpt>
      <trkpt lat="42.3031150" lon="-8.6067110">
        <ele>52.0</ele>
        <time>2022-06-18T11:48:44Z</time>
      </trkpt>
      <trkpt lat="42.3031400" lon="-8.6066860">
        <ele>52.0</ele>
        <time>2022-06-18T11:48:45Z</time>
      </trkpt>
      <trkpt lat="42.3031630" lon="-8.6066600">
        <ele>51.8</ele>
        <time>2022-06-18T11:48:46Z</time>
      </trkpt>
      <trkpt lat="42.3031810" lon="-8.6066330">
        <ele>51.8</ele>
        <time>2022-06-18T11:48:47Z</time>
      </trkpt>
      <trkpt lat="42.3032050" lon="-8.6066060">
        <ele>51.8</ele>
        <time>2022-06-18T11:48:48Z</time>
      </trkpt>
      <trkpt lat="42.3032280" lon="-8.6065800">
        <ele>52.8</ele>
        <time>2022-06-18T11:48:49Z</time>
      </trkpt>
      <trkpt lat="42.3032500" lon="-8.6065530">
        <ele>53.0</ele>
        <time>2022-06-18T11:48:50Z</time>
      </trkpt>
      <trkpt lat="42.3032710" lon="-8.6065280">
        <ele>53.0</ele>
        <time>2022-06-18T11:48:51Z</time>
      </trkpt>
      <trkpt lat="42.3032980" lon="-8.6065030">
        <ele>53.0</ele>
        <time>2022-06-18T11:48:52Z</time>
      </trkpt>
      <trkpt lat="42.3033180" lon="-8.6064750">
        <ele>53.0</ele>
        <time>2022-06-18T11:48:53Z</time>
      </trkpt>
      <trkpt lat="42.3033410" lon="-8.6064460">
        <ele>53.8</ele>
        <time>2022-06-18T11:48:54Z</time>
      </trkpt>
      <trkpt lat="42.3033650" lon="-8.6064180">
        <ele>53.8</ele>
        <time>2022-06-18T11:48:55Z</time>
      </trkpt>
      <trkpt lat="42.3033900" lon="-8.6063910">
        <ele>53.8</ele>
        <time>2022-06-18T11:48:56Z</time>
      </trkpt>
      <trkpt lat="42.3034160" lon="-8.6063750">
        <ele>54.0</ele>
        <time>2022-06-18T11:48:57Z</time>
      </trkpt>
      <trkpt lat="42.3034450" lon="-8.6063550">
        <ele>54.6</ele>
        <time>2022-06-18T11:48:58Z</time>
      </trkpt>
      <trkpt lat="42.3034730" lon="-8.6063380">
        <ele>54.6</ele>
        <time>2022-06-18T11:48:59Z</time>
      </trkpt>
      <trkpt lat="42.3035030" lon="-8.6063180">
        <ele>54.6</ele>
        <time>2022-06-18T11:49:00Z</time>
      </trkpt>
      <trkpt lat="42.3035330" lon="-8.6063000">
        <ele>54.6</ele>
        <time>2022-06-18T11:49:01Z</time>
      </trkpt>
      <trkpt lat="42.3035580" lon="-8.6062800">
        <ele>54.4</ele>
        <time>2022-06-18T11:49:02Z</time>
      </trkpt>
      <trkpt lat="42.3035880" lon="-8.6062610">
        <ele>54.4</ele>
        <time>2022-06-18T11:49:03Z</time>
      </trkpt>
      <trkpt lat="42.3036150" lon="-8.6062480">
        <ele>54.4</ele>
        <time>2022-06-18T11:49:04Z</time>
      </trkpt>
      <trkpt lat="42.3036410" lon="-8.6062360">
        <ele>54.2</ele>
        <time>2022-06-18T11:49:05Z</time>
      </trkpt>
      <trkpt lat="42.3036700" lon="-8.6062300">
        <ele>54.6</ele>
        <time>2022-06-18T11:49:06Z</time>
      </trkpt>
      <trkpt lat="42.3036960" lon="-8.6062230">
        <ele>54.6</ele>
        <time>2022-06-18T11:49:07Z</time>
      </trkpt>
      <trkpt lat="42.3037250" lon="-8.6062160">
        <ele>54.6</ele>
        <time>2022-06-18T11:49:08Z</time>
      </trkpt>
      <trkpt lat="42.3037560" lon="-8.6062060">
        <ele>54.6</ele>
        <time>2022-06-18T11:49:09Z</time>
      </trkpt>
      <trkpt lat="42.3037850" lon="-8.6061950">
        <ele>54.8</ele>
        <time>2022-06-18T11:49:10Z</time>
      </trkpt>
      <trkpt lat="42.3038150" lon="-8.6061880">
        <ele>54.8</ele>
        <time>2022-06-18T11:49:11Z</time>
      </trkpt>
      <trkpt lat="42.3038410" lon="-8.6061850">
        <ele>54.8</ele>
        <time>2022-06-18T11:49:12Z</time>
      </trkpt>
      <trkpt lat="42.3038650" lon="-8.6061710">
        <ele>54.8</ele>
        <time>2022-06-18T11:49:13Z</time>
      </trkpt>
      <trkpt lat="42.3038880" lon="-8.6061600">
        <ele>55.8</ele>
        <time>2022-06-18T11:49:14Z</time>
      </trkpt>
      <trkpt lat="42.3039110" lon="-8.6061300">
        <ele>55.8</ele>
        <time>2022-06-18T11:49:15Z</time>
      </trkpt>
      <trkpt lat="42.3039350" lon="-8.6061050">
        <ele>55.8</ele>
        <time>2022-06-18T11:49:16Z</time>
      </trkpt>
      <trkpt lat="42.3039550" lon="-8.6060780">
        <ele>55.8</ele>
        <time>2022-06-18T11:49:17Z</time>
      </trkpt>
      <trkpt lat="42.3039700" lon="-8.6060500">
        <ele>55.8</ele>
        <time>2022-06-18T11:49:18Z</time>
      </trkpt>
      <trkpt lat="42.3039800" lon="-8.6060110">
        <ele>55.8</ele>
        <time>2022-06-18T11:49:19Z</time>
      </trkpt>
      <trkpt lat="42.3039880" lon="-8.6059800">
        <ele>55.8</ele>
        <time>2022-06-18T11:49:20Z</time>
      </trkpt>
      <trkpt lat="42.3039980" lon="-8.6059600">
        <ele>56.8</ele>
        <time>2022-06-18T11:49:21Z</time>
      </trkpt>
      <trkpt lat="42.3040080" lon="-8.6059460">
        <ele>57.0</ele>
        <time>2022-06-18T11:49:22Z</time>
      </trkpt>
      <trkpt lat="42.3040180" lon="-8.6059330">
        <ele>57.0</ele>
        <time>2022-06-18T11:49:23Z</time>
      </trkpt>
      <trkpt lat="42.3040350" lon="-8.6059200">
        <ele>57.0</ele>
        <time>2022-06-18T11:49:24Z</time>
      </trkpt>
      <trkpt lat="42.3040560" lon="-8.6059160">
        <ele>57.0</ele>
        <time>2022-06-18T11:49:25Z</time>
      </trkpt>
      <trkpt lat="42.3040810" lon="-8.6059200">
        <ele>56.2</ele>
        <time>2022-06-18T11:49:26Z</time>
      </trkpt>
      <trkpt lat="42.3041100" lon="-8.6059230">
        <ele>56.2</ele>
        <time>2022-06-18T11:49:27Z</time>
      </trkpt>
      <trkpt lat="42.3041380" lon="-8.6059250">
        <ele>56.2</ele>
        <time>2022-06-18T11:49:28Z</time>
      </trkpt>
      <trkpt lat="42.3041660" lon="-8.6059260">
        <ele>56.8</ele>
        <time>2022-06-18T11:49:29Z</time>
      </trkpt>
      <trkpt lat="42.3041950" lon="-8.6059280">
        <ele>57.2</ele>
        <time>2022-06-18T11:49:30Z</time>
      </trkpt>
      <trkpt lat="42.3042210" lon="-8.6059280">
        <ele>57.2</ele>
        <time>2022-06-18T11:49:31Z</time>
      </trkpt>
      <trkpt lat="42.3042510" lon="-8.6059260">
        <ele>57.2</ele>
        <time>2022-06-18T11:49:32Z</time>
      </trkpt>
      <trkpt lat="42.3042800" lon="-8.6059260">
        <ele>57.2</ele>
        <time>2022-06-18T11:49:33Z</time>
      </trkpt>
      <trkpt lat="42.3043110" lon="-8.6059260">
        <ele>57.2</ele>
        <time>2022-06-18T11:49:34Z</time>
      </trkpt>
      <trkpt lat="42.3043430" lon="-8.6059250">
        <ele>57.2</ele>
        <time>2022-06-18T11:49:35Z</time>
      </trkpt>
      <trkpt lat="42.3043710" lon="-8.6059230">
        <ele>57.2</ele>
        <time>2022-06-18T11:49:36Z</time>
      </trkpt>
      <trkpt lat="42.3044030" lon="-8.6059250">
        <ele>57.2</ele>
        <time>2022-06-18T11:49:37Z</time>
      </trkpt>
      <trkpt lat="42.3044310" lon="-8.6059260">
        <ele>57.4</ele>
        <time>2022-06-18T11:49:38Z</time>
      </trkpt>
      <trkpt lat="42.3044600" lon="-8.6059280">
        <ele>57.4</ele>
        <time>2022-06-18T11:49:39Z</time>
      </trkpt>
      <trkpt lat="42.3044880" lon="-8.6059280">
        <ele>57.4</ele>
        <time>2022-06-18T11:49:40Z</time>
      </trkpt>
      <trkpt lat="42.3045110" lon="-8.6059260">
        <ele>57.4</ele>
        <time>2022-06-18T11:49:41Z</time>
      </trkpt>
      <trkpt lat="42.3045350" lon="-8.6059280">
        <ele>57.2</ele>
        <time>2022-06-18T11:49:42Z</time>
      </trkpt>
      <trkpt lat="42.3045610" lon="-8.6059330">
        <ele>57.2</ele>
        <time>2022-06-18T11:49:43Z</time>
      </trkpt>
      <trkpt lat="42.3045860" lon="-8.6059380">
        <ele>57.2</ele>
        <time>2022-06-18T11:49:44Z</time>
      </trkpt>
      <trkpt lat="42.3046100" lon="-8.6059360">
        <ele>57.2</ele>
        <time>2022-06-18T11:49:45Z</time>
      </trkpt>
      <trkpt lat="42.3046280" lon="-8.6059380">
        <ele>57.8</ele>
        <time>2022-06-18T11:49:46Z</time>
      </trkpt>
      <trkpt lat="42.3046450" lon="-8.6059400">
        <ele>57.8</ele>
        <time>2022-06-18T11:49:47Z</time>
      </trkpt>
      <trkpt lat="42.3046550" lon="-8.6059500">
        <ele>57.8</ele>
        <time>2022-06-18T11:49:48Z</time>
      </trkpt>
      <trkpt lat="42.3046560" lon="-8.6059730">
        <ele>57.8</ele>
        <time>2022-06-18T11:49:49Z</time>
      </trkpt>
      <trkpt lat="42.3046550" lon="-8.6059980">
        <ele>57.8</ele>
        <time>2022-06-18T11:49:50Z</time>
      </trkpt>
      <trkpt lat="42.3046560" lon="-8.6060260">
        <ele>57.8</ele>
        <time>2022-06-18T11:49:51Z</time>
      </trkpt>
      <trkpt lat="42.3046600" lon="-8.6060650">
        <ele>57.8</ele>
        <time>2022-06-18T11:49:52Z</time>
      </trkpt>
      <trkpt lat="42.3046650" lon="-8.6061000">
        <ele>57.8</ele>
        <time>2022-06-18T11:49:53Z</time>
      </trkpt>
      <trkpt lat="42.3046760" lon="-8.6061260">
        <ele>58.2</ele>
        <time>2022-06-18T11:49:54Z</time>
      </trkpt>
      <trkpt lat="42.3046860" lon="-8.6061530">
        <ele>58.2</ele>
        <time>2022-06-18T11:49:55Z</time>
      </trkpt>
      <trkpt lat="42.3046980" lon="-8.6061760">
        <ele>58.2</ele>
        <time>2022-06-18T11:49:56Z</time>
      </trkpt>
      <trkpt lat="42.3047080" lon="-8.6061910">
        <ele>58.2</ele>
        <time>2022-06-18T11:49:57Z</time>
      </trkpt>
      <trkpt lat="42.3047150" lon="-8.6062010">
        <ele>59.0</ele>
        <time>2022-06-18T11:49:58Z</time>
      </trkpt>
      <trkpt lat="42.3047180" lon="-8.6062160">
        <ele>59.0</ele>
        <time>2022-06-18T11:49:59Z</time>
      </trkpt>
      <trkpt lat="42.3047210" lon="-8.6062250">
        <ele>59.0</ele>
        <time>2022-06-18T11:50:00Z</time>
      </trkpt>
      <trkpt lat="42.3047210" lon="-8.6062250">
        <ele>59.0</ele>
        <time>2022-06-18T11:50:01Z</time>
      </trkpt>
      <trkpt lat="42.3047280" lon="-8.6062300">
        <ele>59.2</ele>
        <time>2022-06-18T11:50:02Z</time>
      </trkpt>
      <trkpt lat="42.3047350" lon="-8.6062330">
        <ele>59.2</ele>
        <time>2022-06-18T11:50:03Z</time>
      </trkpt>
      <trkpt lat="42.3047410" lon="-8.6062380">
        <ele>59.2</ele>
        <time>2022-06-18T11:50:04Z</time>
      </trkpt>
      <trkpt lat="42.3047450" lon="-8.6062430">
        <ele>59.2</ele>
        <time>2022-06-18T11:50:05Z</time>
      </trkpt>
      <trkpt lat="42.3047480" lon="-8.6063000">
        <ele>59.4</ele>
        <time>2022-06-18T11:51:41Z</time>
      </trkpt>
      <trkpt lat="42.3047400" lon="-8.6062810">
        <ele>59.6</ele>
        <time>2022-06-18T11:51:42Z</time>
      </trkpt>
      <trkpt lat="42.3047350" lon="-8.6062550">
        <ele>59.6</ele>
        <time>2022-06-18T11:51:43Z</time>
      </trkpt>
      <trkpt lat="42.3047260" lon="-8.6062300">
        <ele>59.6</ele>
        <time>2022-06-18T11:51:44Z</time>
      </trkpt>
      <trkpt lat="42.3047180" lon="-8.6062000">
        <ele>59.2</ele>
        <time>2022-06-18T11:51:45Z</time>
      </trkpt>
      <trkpt lat="42.3047110" lon="-8.6061710">
        <ele>58.8</ele>
        <time>2022-06-18T11:51:46Z</time>
      </trkpt>
      <trkpt lat="42.3047030" lon="-8.6061380">
        <ele>58.8</ele>
        <time>2022-06-18T11:51:47Z</time>
      </trkpt>
      <trkpt lat="42.3047030" lon="-8.6060980">
        <ele>58.8</ele>
        <time>2022-06-18T11:51:48Z</time>
      </trkpt>
      <trkpt lat="42.3047060" lon="-8.6060700">
        <ele>59.4</ele>
        <time>2022-06-18T11:51:49Z</time>
      </trkpt>
      <trkpt lat="42.3047150" lon="-8.6060450">
        <ele>59.2</ele>
        <time>2022-06-18T11:51:50Z</time>
      </trkpt>
      <trkpt lat="42.3047330" lon="-8.6060250">
        <ele>59.2</ele>
        <time>2022-06-18T11:51:51Z</time>
      </trkpt>
      <trkpt lat="42.3047500" lon="-8.6060100">
        <ele>59.2</ele>
        <time>2022-06-18T11:51:52Z</time>
      </trkpt>
      <trkpt lat="42.3047630" lon="-8.6059930">
        <ele>59.2</ele>
        <time>2022-06-18T11:51:53Z</time>
      </trkpt>
      <trkpt lat="42.3047800" lon="-8.6059860">
        <ele>59.8</ele>
        <time>2022-06-18T11:51:54Z</time>
      </trkpt>
      <trkpt lat="42.3048010" lon="-8.6059750">
        <ele>59.8</ele>
        <time>2022-06-18T11:51:55Z</time>
      </trkpt>
      <trkpt lat="42.3048180" lon="-8.6059660">
        <ele>59.8</ele>
        <time>2022-06-18T11:51:56Z</time>
      </trkpt>
      <trkpt lat="42.3048330" lon="-8.6059610">
        <ele>60.2</ele>
        <time>2022-06-18T11:51:57Z</time>
      </trkpt>
      <trkpt lat="42.3048530" lon="-8.6059560">
        <ele>60.2</ele>
        <time>2022-06-18T11:51:58Z</time>
      </trkpt>
      <trkpt lat="42.3048710" lon="-8.6059500">
        <ele>60.2</ele>
        <time>2022-06-18T11:51:59Z</time>
      </trkpt>
      <trkpt lat="42.3048860" lon="-8.6059460">
        <ele>60.2</ele>
        <time>2022-06-18T11:52:00Z</time>
      </trkpt>
      <trkpt lat="42.3048980" lon="-8.6059510">
        <ele>60.8</ele>
        <time>2022-06-18T11:52:01Z</time>
      </trkpt>
      <trkpt lat="42.3049150" lon="-8.6059510">
        <ele>60.8</ele>
        <time>2022-06-18T11:52:02Z</time>
      </trkpt>
      <trkpt lat="42.3049300" lon="-8.6059510">
        <ele>60.8</ele>
        <time>2022-06-18T11:52:03Z</time>
      </trkpt>
      <trkpt lat="42.3049430" lon="-8.6059530">
        <ele>60.8</ele>
        <time>2022-06-18T11:52:04Z</time>
      </trkpt>
      <trkpt lat="42.3049580" lon="-8.6059580">
        <ele>61.4</ele>
        <time>2022-06-18T11:52:05Z</time>
      </trkpt>
      <trkpt lat="42.3049780" lon="-8.6059600">
        <ele>61.8</ele>
        <time>2022-06-18T11:52:06Z</time>
      </trkpt>
      <trkpt lat="42.3049980" lon="-8.6059630">
        <ele>61.8</ele>
        <time>2022-06-18T11:52:07Z</time>
      </trkpt>
      <trkpt lat="42.3050150" lon="-8.6059660">
        <ele>61.8</ele>
        <time>2022-06-18T11:52:08Z</time>
      </trkpt>
      <trkpt lat="42.3050300" lon="-8.6059650">
        <ele>61.8</ele>
        <time>2022-06-18T11:52:09Z</time>
      </trkpt>
      <trkpt lat="42.3050480" lon="-8.6059580">
        <ele>62.2</ele>
        <time>2022-06-18T11:52:10Z</time>
      </trkpt>
      <trkpt lat="42.3050650" lon="-8.6059550">
        <ele>62.2</ele>
        <time>2022-06-18T11:52:11Z</time>
      </trkpt>
      <trkpt lat="42.3050830" lon="-8.6059500">
        <ele>62.2</ele>
        <time>2022-06-18T11:52:12Z</time>
      </trkpt>
      <trkpt lat="42.3051010" lon="-8.6059410">
        <ele>62.8</ele>
        <time>2022-06-18T11:52:13Z</time>
      </trkpt>
      <trkpt lat="42.3051210" lon="-8.6059350">
        <ele>63.2</ele>
        <time>2022-06-18T11:52:14Z</time>
      </trkpt>
      <trkpt lat="42.3051350" lon="-8.6059250">
        <ele>63.2</ele>
        <time>2022-06-18T11:52:15Z</time>
      </trkpt>
      <trkpt lat="42.3051560" lon="-8.6059230">
        <ele>63.2</ele>
        <time>2022-06-18T11:52:16Z</time>
      </trkpt>
      <trkpt lat="42.3051800" lon="-8.6059160">
        <ele>63.2</ele>
        <time>2022-06-18T11:52:17Z</time>
      </trkpt>
      <trkpt lat="42.3052000" lon="-8.6059100">
        <ele>63.8</ele>
        <time>2022-06-18T11:52:18Z</time>
      </trkpt>
      <trkpt lat="42.3052210" lon="-8.6059000">
        <ele>63.8</ele>
        <time>2022-06-18T11:52:19Z</time>
      </trkpt>
      <trkpt lat="42.3052450" lon="-8.6058910">
        <ele>63.8</ele>
        <time>2022-06-18T11:52:20Z</time>
      </trkpt>
      <trkpt lat="42.3052630" lon="-8.6058750">
        <ele>63.8</ele>
        <time>2022-06-18T11:52:21Z</time>
      </trkpt>
      <trkpt lat="42.3052830" lon="-8.6058580">
        <ele>64.2</ele>
        <time>2022-06-18T11:52:22Z</time>
      </trkpt>
      <trkpt lat="42.3053050" lon="-8.6058430">
        <ele>64.2</ele>
        <time>2022-06-18T11:52:23Z</time>
      </trkpt>
      <trkpt lat="42.3053280" lon="-8.6058400">
        <ele>64.2</ele>
        <time>2022-06-18T11:52:24Z</time>
      </trkpt>
      <trkpt lat="42.3053480" lon="-8.6058380">
        <ele>65.2</ele>
        <time>2022-06-18T11:52:25Z</time>
      </trkpt>
      <trkpt lat="42.3053680" lon="-8.6058330">
        <ele>65.4</ele>
        <time>2022-06-18T11:52:26Z</time>
      </trkpt>
      <trkpt lat="42.3053910" lon="-8.6058300">
        <ele>65.4</ele>
        <time>2022-06-18T11:52:27Z</time>
      </trkpt>
      <trkpt lat="42.3054160" lon="-8.6058280">
        <ele>65.4</ele>
        <time>2022-06-18T11:52:28Z</time>
      </trkpt>
      <trkpt lat="42.3054360" lon="-8.6058230">
        <ele>66.2</ele>
        <time>2022-06-18T11:52:29Z</time>
      </trkpt>
      <trkpt lat="42.3054610" lon="-8.6058150">
        <ele>66.4</ele>
        <time>2022-06-18T11:52:30Z</time>
      </trkpt>
      <trkpt lat="42.3054860" lon="-8.6058110">
        <ele>66.4</ele>
        <time>2022-06-18T11:52:31Z</time>
      </trkpt>
      <trkpt lat="42.3055110" lon="-8.6058060">
        <ele>66.4</ele>
        <time>2022-06-18T11:52:32Z</time>
      </trkpt>
      <trkpt lat="42.3055360" lon="-8.6058030">
        <ele>66.8</ele>
        <time>2022-06-18T11:52:33Z</time>
      </trkpt>
      <trkpt lat="42.3055650" lon="-8.6057880">
        <ele>66.8</ele>
        <time>2022-06-18T11:52:34Z</time>
      </trkpt>
      <trkpt lat="42.3055930" lon="-8.6057780">
        <ele>66.8</ele>
        <time>2022-06-18T11:52:35Z</time>
      </trkpt>
      <trkpt lat="42.3056260" lon="-8.6057730">
        <ele>66.8</ele>
        <time>2022-06-18T11:52:36Z</time>
      </trkpt>
      <trkpt lat="42.3056500" lon="-8.6057710">
        <ele>66.8</ele>
        <time>2022-06-18T11:52:37Z</time>
      </trkpt>
      <trkpt lat="42.3056750" lon="-8.6057730">
        <ele>67.0</ele>
        <time>2022-06-18T11:52:38Z</time>
      </trkpt>
      <trkpt lat="42.3056960" lon="-8.6057700">
        <ele>67.0</ele>
        <time>2022-06-18T11:52:39Z</time>
      </trkpt>
      <trkpt lat="42.3057200" lon="-8.6057630">
        <ele>67.0</ele>
        <time>2022-06-18T11:52:40Z</time>
      </trkpt>
      <trkpt lat="42.3057380" lon="-8.6057600">
        <ele>67.0</ele>
        <time>2022-06-18T11:52:41Z</time>
      </trkpt>
      <trkpt lat="42.3057580" lon="-8.6057610">
        <ele>67.2</ele>
        <time>2022-06-18T11:52:42Z</time>
      </trkpt>
      <trkpt lat="42.3057860" lon="-8.6057680">
        <ele>67.2</ele>
        <time>2022-06-18T11:52:43Z</time>
      </trkpt>
      <trkpt lat="42.3058110" lon="-8.6057650">
        <ele>67.2</ele>
        <time>2022-06-18T11:52:44Z</time>
      </trkpt>
      <trkpt lat="42.3058350" lon="-8.6057530">
        <ele>67.2</ele>
        <time>2022-06-18T11:52:45Z</time>
      </trkpt>
      <trkpt lat="42.3058600" lon="-8.6057460">
        <ele>67.4</ele>
        <time>2022-06-18T11:52:46Z</time>
      </trkpt>
      <trkpt lat="42.3058900" lon="-8.6057400">
        <ele>67.4</ele>
        <time>2022-06-18T11:52:47Z</time>
      </trkpt>
      <trkpt lat="42.3059180" lon="-8.6057360">
        <ele>67.4</ele>
        <time>2022-06-18T11:52:48Z</time>
      </trkpt>
      <trkpt lat="42.3059430" lon="-8.6057300">
        <ele>67.4</ele>
        <time>2022-06-18T11:52:49Z</time>
      </trkpt>
      <trkpt lat="42.3059710" lon="-8.6057260">
        <ele>68.2</ele>
        <time>2022-06-18T11:52:50Z</time>
      </trkpt>
      <trkpt lat="42.3059960" lon="-8.6057160">
        <ele>68.2</ele>
        <time>2022-06-18T11:52:51Z</time>
      </trkpt>
      <trkpt lat="42.3060210" lon="-8.6057080">
        <ele>68.2</ele>
        <time>2022-06-18T11:52:52Z</time>
      </trkpt>
      <trkpt lat="42.3060460" lon="-8.6057000">
        <ele>68.2</ele>
        <time>2022-06-18T11:52:53Z</time>
      </trkpt>
      <trkpt lat="42.3060710" lon="-8.6056880">
        <ele>68.4</ele>
        <time>2022-06-18T11:52:54Z</time>
      </trkpt>
      <trkpt lat="42.3061000" lon="-8.6056760">
        <ele>68.4</ele>
        <time>2022-06-18T11:52:55Z</time>
      </trkpt>
      <trkpt lat="42.3061260" lon="-8.6056660">
        <ele>68.4</ele>
        <time>2022-06-18T11:52:56Z</time>
      </trkpt>
      <trkpt lat="42.3061530" lon="-8.6056580">
        <ele>69.0</ele>
        <time>2022-06-18T11:52:57Z</time>
      </trkpt>
      <trkpt lat="42.3061780" lon="-8.6056460">
        <ele>69.2</ele>
        <time>2022-06-18T11:52:58Z</time>
      </trkpt>
      <trkpt lat="42.3062060" lon="-8.6056330">
        <ele>69.2</ele>
        <time>2022-06-18T11:52:59Z</time>
      </trkpt>
      <trkpt lat="42.3062310" lon="-8.6056180">
        <ele>69.2</ele>
        <time>2022-06-18T11:53:00Z</time>
      </trkpt>
      <trkpt lat="42.3062560" lon="-8.6056050">
        <ele>69.2</ele>
        <time>2022-06-18T11:53:01Z</time>
      </trkpt>
      <trkpt lat="42.3062800" lon="-8.6055900">
        <ele>69.6</ele>
        <time>2022-06-18T11:53:02Z</time>
      </trkpt>
      <trkpt lat="42.3063010" lon="-8.6055760">
        <ele>69.6</ele>
        <time>2022-06-18T11:53:03Z</time>
      </trkpt>
      <trkpt lat="42.3063250" lon="-8.6055600">
        <ele>69.6</ele>
        <time>2022-06-18T11:53:04Z</time>
      </trkpt>
      <trkpt lat="42.3063460" lon="-8.6055410">
        <ele>69.6</ele>
        <time>2022-06-18T11:53:05Z</time>
      </trkpt>
      <trkpt lat="42.3063650" lon="-8.6055200">
        <ele>69.8</ele>
        <time>2022-06-18T11:53:06Z</time>
      </trkpt>
      <trkpt lat="42.3063800" lon="-8.6054950">
        <ele>69.8</ele>
        <time>2022-06-18T11:53:07Z</time>
      </trkpt>
      <trkpt lat="42.3063950" lon="-8.6054710">
        <ele>69.8</ele>
        <time>2022-06-18T11:53:08Z</time>
      </trkpt>
      <trkpt lat="42.3064080" lon="-8.6054450">
        <ele>70.0</ele>
        <time>2022-06-18T11:53:09Z</time>
      </trkpt>
      <trkpt lat="42.3064200" lon="-8.6054150">
        <ele>70.4</ele>
        <time>2022-06-18T11:53:10Z</time>
      </trkpt>
      <trkpt lat="42.3064310" lon="-8.6053850">
        <ele>70.4</ele>
        <time>2022-06-18T11:53:11Z</time>
      </trkpt>
      <trkpt lat="42.3064430" lon="-8.6053550">
        <ele>70.4</ele>
        <time>2022-06-18T11:53:12Z</time>
      </trkpt>
      <trkpt lat="42.3064510" lon="-8.6053260">
        <ele>70.8</ele>
        <time>2022-06-18T11:53:13Z</time>
      </trkpt>
      <trkpt lat="42.3064610" lon="-8.6053000">
        <ele>70.8</ele>
        <time>2022-06-18T11:53:14Z</time>
      </trkpt>
      <trkpt lat="42.3064750" lon="-8.6052730">
        <ele>70.8</ele>
        <time>2022-06-18T11:53:15Z</time>
      </trkpt>
      <trkpt lat="42.3064900" lon="-8.6052450">
        <ele>70.8</ele>
        <time>2022-06-18T11:53:16Z</time>
      </trkpt>
      <trkpt lat="42.3065050" lon="-8.6052160">
        <ele>71.0</ele>
        <time>2022-06-18T11:53:17Z</time>
      </trkpt>
      <trkpt lat="42.3065200" lon="-8.6051900">
        <ele>71.2</ele>
        <time>2022-06-18T11:53:18Z</time>
      </trkpt>
      <trkpt lat="42.3065350" lon="-8.6051680">
        <ele>71.2</ele>
        <time>2022-06-18T11:53:19Z</time>
      </trkpt>
      <trkpt lat="42.3065510" lon="-8.6051460">
        <ele>71.2</ele>
        <time>2022-06-18T11:53:20Z</time>
      </trkpt>
      <trkpt lat="42.3065660" lon="-8.6051280">
        <ele>71.2</ele>
        <time>2022-06-18T11:53:21Z</time>
      </trkpt>
      <trkpt lat="42.3065800" lon="-8.6051130">
        <ele>71.8</ele>
        <time>2022-06-18T11:53:22Z</time>
      </trkpt>
      <trkpt lat="42.3065960" lon="-8.6051000">
        <ele>71.8</ele>
        <time>2022-06-18T11:53:23Z</time>
      </trkpt>
      <trkpt lat="42.3066130" lon="-8.6050860">
        <ele>71.8</ele>
        <time>2022-06-18T11:53:24Z</time>
      </trkpt>
      <trkpt lat="42.3066300" lon="-8.6050700">
        <ele>72.8</ele>
        <time>2022-06-18T11:53:25Z</time>
      </trkpt>
      <trkpt lat="42.3066400" lon="-8.6050460">
        <ele>72.8</ele>
        <time>2022-06-18T11:53:26Z</time>
      </trkpt>
      <trkpt lat="42.3066500" lon="-8.6050260">
        <ele>72.8</ele>
        <time>2022-06-18T11:53:27Z</time>
      </trkpt>
      <trkpt lat="42.3066650" lon="-8.6050050">
        <ele>72.8</ele>
        <time>2022-06-18T11:53:28Z</time>
      </trkpt>
      <trkpt lat="42.3066780" lon="-8.6049850">
        <ele>73.4</ele>
        <time>2022-06-18T11:53:29Z</time>
      </trkpt>
      <trkpt lat="42.3066930" lon="-8.6049630">
        <ele>74.0</ele>
        <time>2022-06-18T11:53:30Z</time>
      </trkpt>
      <trkpt lat="42.3067100" lon="-8.6049400">
        <ele>74.0</ele>
        <time>2022-06-18T11:53:31Z</time>
      </trkpt>
      <trkpt lat="42.3067210" lon="-8.6049180">
        <ele>74.0</ele>
        <time>2022-06-18T11:53:32Z</time>
      </trkpt>
      <trkpt lat="42.3067350" lon="-8.6048950">
        <ele>75.0</ele>
        <time>2022-06-18T11:53:33Z</time>
      </trkpt>
      <trkpt lat="42.3067450" lon="-8.6048730">
        <ele>75.8</ele>
        <time>2022-06-18T11:53:34Z</time>
      </trkpt>
      <trkpt lat="42.3067480" lon="-8.6048530">
        <ele>75.8</ele>
        <time>2022-06-18T11:53:35Z</time>
      </trkpt>
      <trkpt lat="42.3067500" lon="-8.6048310">
        <ele>75.8</ele>
        <time>2022-06-18T11:53:36Z</time>
      </trkpt>
      <trkpt lat="42.3067510" lon="-8.6048100">
        <ele>76.8</ele>
        <time>2022-06-18T11:53:37Z</time>
      </trkpt>
      <trkpt lat="42.3067550" lon="-8.6047910">
        <ele>76.8</ele>
        <time>2022-06-18T11:53:38Z</time>
      </trkpt>
      <trkpt lat="42.3067600" lon="-8.6047760">
        <ele>76.8</ele>
        <time>2022-06-18T11:53:39Z</time>
      </trkpt>
      <trkpt lat="42.3067660" lon="-8.6047600">
        <ele>76.8</ele>
        <time>2022-06-18T11:53:40Z</time>
      </trkpt>
      <trkpt lat="42.3067760" lon="-8.6047410">
        <ele>76.8</ele>
        <time>2022-06-18T11:53:41Z</time>
      </trkpt>
      <trkpt lat="42.3067960" lon="-8.6047280">
        <ele>77.0</ele>
        <time>2022-06-18T11:53:42Z</time>
      </trkpt>
      <trkpt lat="42.3068210" lon="-8.6047210">
        <ele>77.0</ele>
        <time>2022-06-18T11:53:43Z</time>
      </trkpt>
      <trkpt lat="42.3068450" lon="-8.6047150">
        <ele>77.0</ele>
        <time>2022-06-18T11:53:44Z</time>
      </trkpt>
      <trkpt lat="42.3068700" lon="-8.6047200">
        <ele>76.2</ele>
        <time>2022-06-18T11:53:45Z</time>
      </trkpt>
      <trkpt lat="42.3068930" lon="-8.6047330">
        <ele>76.2</ele>
        <time>2022-06-18T11:53:46Z</time>
      </trkpt>
      <trkpt lat="42.3069150" lon="-8.6047530">
        <ele>76.2</ele>
        <time>2022-06-18T11:53:47Z</time>
      </trkpt>
      <trkpt lat="42.3069330" lon="-8.6047750">
        <ele>76.2</ele>
        <time>2022-06-18T11:53:48Z</time>
      </trkpt>
      <trkpt lat="42.3069510" lon="-8.6047930">
        <ele>76.4</ele>
        <time>2022-06-18T11:53:49Z</time>
      </trkpt>
      <trkpt lat="42.3069700" lon="-8.6048100">
        <ele>76.2</ele>
        <time>2022-06-18T11:53:50Z</time>
      </trkpt>
      <trkpt lat="42.3069900" lon="-8.6048230">
        <ele>76.2</ele>
        <time>2022-06-18T11:53:51Z</time>
      </trkpt>
      <trkpt lat="42.3070130" lon="-8.6048350">
        <ele>76.2</ele>
        <time>2022-06-18T11:53:52Z</time>
      </trkpt>
      <trkpt lat="42.3070380" lon="-8.6048380">
        <ele>76.6</ele>
        <time>2022-06-18T11:53:53Z</time>
      </trkpt>
      <trkpt lat="42.3070610" lon="-8.6048410">
        <ele>77.2</ele>
        <time>2022-06-18T11:53:54Z</time>
      </trkpt>
      <trkpt lat="42.3070850" lon="-8.6048430">
        <ele>77.2</ele>
        <time>2022-06-18T11:53:55Z</time>
      </trkpt>
      <trkpt lat="42.3071060" lon="-8.6048450">
        <ele>77.2</ele>
        <time>2022-06-18T11:53:56Z</time>
      </trkpt>
      <trkpt lat="42.3071300" lon="-8.6048450">
        <ele>77.2</ele>
        <time>2022-06-18T11:53:57Z</time>
      </trkpt>
      <trkpt lat="42.3071510" lon="-8.6048410">
        <ele>77.2</ele>
        <time>2022-06-18T11:53:58Z</time>
      </trkpt>
      <trkpt lat="42.3071750" lon="-8.6048360">
        <ele>77.2</ele>
        <time>2022-06-18T11:53:59Z</time>
      </trkpt>
      <trkpt lat="42.3071960" lon="-8.6048280">
        <ele>77.2</ele>
        <time>2022-06-18T11:54:00Z</time>
      </trkpt>
      <trkpt lat="42.3072160" lon="-8.6048150">
        <ele>77.2</ele>
        <time>2022-06-18T11:54:01Z</time>
      </trkpt>
      <trkpt lat="42.3072360" lon="-8.6048010">
        <ele>77.6</ele>
        <time>2022-06-18T11:54:02Z</time>
      </trkpt>
      <trkpt lat="42.3072560" lon="-8.6047880">
        <ele>77.6</ele>
        <time>2022-06-18T11:54:03Z</time>
      </trkpt>
      <trkpt lat="42.3072780" lon="-8.6047760">
        <ele>77.6</ele>
        <time>2022-06-18T11:54:04Z</time>
      </trkpt>
      <trkpt lat="42.3072960" lon="-8.6047630">
        <ele>78.0</ele>
        <time>2022-06-18T11:54:05Z</time>
      </trkpt>
      <trkpt lat="42.3073160" lon="-8.6047480">
        <ele>78.2</ele>
        <time>2022-06-18T11:54:06Z</time>
      </trkpt>
      <trkpt lat="42.3073360" lon="-8.6047330">
        <ele>78.2</ele>
        <time>2022-06-18T11:54:07Z</time>
      </trkpt>
      <trkpt lat="42.3073580" lon="-8.6047160">
        <ele>78.2</ele>
        <time>2022-06-18T11:54:08Z</time>
      </trkpt>
      <trkpt lat="42.3073800" lon="-8.6047050">
        <ele>78.2</ele>
        <time>2022-06-18T11:54:09Z</time>
      </trkpt>
      <trkpt lat="42.3074000" lon="-8.6046930">
        <ele>78.8</ele>
        <time>2022-06-18T11:54:10Z</time>
      </trkpt>
      <trkpt lat="42.3074200" lon="-8.6046810">
        <ele>78.8</ele>
        <time>2022-06-18T11:54:11Z</time>
      </trkpt>
      <trkpt lat="42.3074410" lon="-8.6046680">
        <ele>78.8</ele>
        <time>2022-06-18T11:54:12Z</time>
      </trkpt>
      <trkpt lat="42.3074610" lon="-8.6046510">
        <ele>79.2</ele>
        <time>2022-06-18T11:54:13Z</time>
      </trkpt>
      <trkpt lat="42.3074810" lon="-8.6046310">
        <ele>79.4</ele>
        <time>2022-06-18T11:54:14Z</time>
      </trkpt>
      <trkpt lat="42.3075000" lon="-8.6046100">
        <ele>79.4</ele>
        <time>2022-06-18T11:54:15Z</time>
      </trkpt>
      <trkpt lat="42.3075180" lon="-8.6045880">
        <ele>79.4</ele>
        <time>2022-06-18T11:54:16Z</time>
      </trkpt>
      <trkpt lat="42.3075380" lon="-8.6045660">
        <ele>79.4</ele>
        <time>2022-06-18T11:54:17Z</time>
      </trkpt>
      <trkpt lat="42.3075560" lon="-8.6045450">
        <ele>79.6</ele>
        <time>2022-06-18T11:54:18Z</time>
      </trkpt>
      <trkpt lat="42.3075730" lon="-8.6045230">
        <ele>79.6</ele>
        <time>2022-06-18T11:54:19Z</time>
      </trkpt>
      <trkpt lat="42.3075900" lon="-8.6045000">
        <ele>79.6</ele>
        <time>2022-06-18T11:54:20Z</time>
      </trkpt>
      <trkpt lat="42.3076050" lon="-8.6044760">
        <ele>80.6</ele>
        <time>2022-06-18T11:54:21Z</time>
      </trkpt>
      <trkpt lat="42.3076210" lon="-8.6044500">
        <ele>81.0</ele>
        <time>2022-06-18T11:54:22Z</time>
      </trkpt>
      <trkpt lat="42.3076350" lon="-8.6044210">
        <ele>81.0</ele>
        <time>2022-06-18T11:54:23Z</time>
      </trkpt>
      <trkpt lat="42.3076480" lon="-8.6043930">
        <ele>81.0</ele>
        <time>2022-06-18T11:54:24Z</time>
      </trkpt>
      <trkpt lat="42.3076600" lon="-8.6043650">
        <ele>81.0</ele>
        <time>2022-06-18T11:54:25Z</time>
      </trkpt>
      <trkpt lat="42.3076700" lon="-8.6043360">
        <ele>81.6</ele>
        <time>2022-06-18T11:54:26Z</time>
      </trkpt>
      <trkpt lat="42.3076810" lon="-8.6043100">
        <ele>81.6</ele>
        <time>2022-06-18T11:54:27Z</time>
      </trkpt>
      <trkpt lat="42.3076950" lon="-8.6042850">
        <ele>81.6</ele>
        <time>2022-06-18T11:54:28Z</time>
      </trkpt>
      <trkpt lat="42.3077060" lon="-8.6042600">
        <ele>81.6</ele>
        <time>2022-06-18T11:54:29Z</time>
      </trkpt>
      <trkpt lat="42.3077160" lon="-8.6042310">
        <ele>82.2</ele>
        <time>2022-06-18T11:54:30Z</time>
      </trkpt>
      <trkpt lat="42.3077250" lon="-8.6042010">
        <ele>82.2</ele>
        <time>2022-06-18T11:54:31Z</time>
      </trkpt>
      <trkpt lat="42.3077330" lon="-8.6041700">
        <ele>82.2</ele>
        <time>2022-06-18T11:54:32Z</time>
      </trkpt>
      <trkpt lat="42.3077430" lon="-8.6041400">
        <ele>83.2</ele>
        <time>2022-06-18T11:54:33Z</time>
      </trkpt>
      <trkpt lat="42.3077530" lon="-8.6041110">
        <ele>83.0</ele>
        <time>2022-06-18T11:54:34Z</time>
      </trkpt>
      <trkpt lat="42.3077650" lon="-8.6040830">
        <ele>83.0</ele>
        <time>2022-06-18T11:54:35Z</time>
      </trkpt>
      <trkpt lat="42.3077730" lon="-8.6040550">
        <ele>83.0</ele>
        <time>2022-06-18T11:54:36Z</time>
      </trkpt>
      <trkpt lat="42.3077830" lon="-8.6040280">
        <ele>83.6</ele>
        <time>2022-06-18T11:54:37Z</time>
      </trkpt>
      <trkpt lat="42.3077950" lon="-8.6040010">
        <ele>83.8</ele>
        <time>2022-06-18T11:54:38Z</time>
      </trkpt>
      <trkpt lat="42.3078050" lon="-8.6039760">
        <ele>83.8</ele>
        <time>2022-06-18T11:54:39Z</time>
      </trkpt>
      <trkpt lat="42.3078180" lon="-8.6039500">
        <ele>83.8</ele>
        <time>2022-06-18T11:54:40Z</time>
      </trkpt>
      <trkpt lat="42.3078300" lon="-8.6039230">
        <ele>83.8</ele>
        <time>2022-06-18T11:54:41Z</time>
      </trkpt>
      <trkpt lat="42.3078430" lon="-8.6039000">
        <ele>84.2</ele>
        <time>2022-06-18T11:54:42Z</time>
      </trkpt>
      <trkpt lat="42.3078580" lon="-8.6038810">
        <ele>84.2</ele>
        <time>2022-06-18T11:54:43Z</time>
      </trkpt>
      <trkpt lat="42.3078710" lon="-8.6038630">
        <ele>84.2</ele>
        <time>2022-06-18T11:54:44Z</time>
      </trkpt>
      <trkpt lat="42.3078830" lon="-8.6038450">
        <ele>84.2</ele>
        <time>2022-06-18T11:54:45Z</time>
      </trkpt>
      <trkpt lat="42.3078950" lon="-8.6038230">
        <ele>84.6</ele>
        <time>2022-06-18T11:54:46Z</time>
      </trkpt>
      <trkpt lat="42.3079060" lon="-8.6038050">
        <ele>84.6</ele>
        <time>2022-06-18T11:54:47Z</time>
      </trkpt>
      <trkpt lat="42.3079150" lon="-8.6037860">
        <ele>84.6</ele>
        <time>2022-06-18T11:54:48Z</time>
      </trkpt>
      <trkpt lat="42.3079250" lon="-8.6037710">
        <ele>84.6</ele>
        <time>2022-06-18T11:54:49Z</time>
      </trkpt>
      <trkpt lat="42.3079350" lon="-8.6037530">
        <ele>84.6</ele>
        <time>2022-06-18T11:54:50Z</time>
      </trkpt>
      <trkpt lat="42.3079430" lon="-8.6037380">
        <ele>84.6</ele>
        <time>2022-06-18T11:54:51Z</time>
      </trkpt>
      <trkpt lat="42.3079510" lon="-8.6037250">
        <ele>84.6</ele>
        <time>2022-06-18T11:54:52Z</time>
      </trkpt>
      <trkpt lat="42.3079630" lon="-8.6037200">
        <ele>84.6</ele>
        <time>2022-06-18T11:54:53Z</time>
      </trkpt>
      <trkpt lat="42.3079760" lon="-8.6037130">
        <ele>84.8</ele>
        <time>2022-06-18T11:54:54Z</time>
      </trkpt>
      <trkpt lat="42.3079900" lon="-8.6037030">
        <ele>84.8</ele>
        <time>2022-06-18T11:54:55Z</time>
      </trkpt>
      <trkpt lat="42.3080060" lon="-8.6036880">
        <ele>84.8</ele>
        <time>2022-06-18T11:54:56Z</time>
      </trkpt>
      <trkpt lat="42.3080250" lon="-8.6036700">
        <ele>84.8</ele>
        <time>2022-06-18T11:54:57Z</time>
      </trkpt>
      <trkpt lat="42.3080410" lon="-8.6036510">
        <ele>85.0</ele>
        <time>2022-06-18T11:54:58Z</time>
      </trkpt>
      <trkpt lat="42.3080580" lon="-8.6036330">
        <ele>85.0</ele>
        <time>2022-06-18T11:54:59Z</time>
      </trkpt>
      <trkpt lat="42.3080780" lon="-8.6036130">
        <ele>85.0</ele>
        <time>2022-06-18T11:55:00Z</time>
      </trkpt>
      <trkpt lat="42.3080980" lon="-8.6035930">
        <ele>85.0</ele>
        <time>2022-06-18T11:55:01Z</time>
      </trkpt>
      <trkpt lat="42.3081200" lon="-8.6035730">
        <ele>85.0</ele>
        <time>2022-06-18T11:55:02Z</time>
      </trkpt>
      <trkpt lat="42.3081410" lon="-8.6035530">
        <ele>85.0</ele>
        <time>2022-06-18T11:55:03Z</time>
      </trkpt>
      <trkpt lat="42.3081610" lon="-8.6035330">
        <ele>85.0</ele>
        <time>2022-06-18T11:55:04Z</time>
      </trkpt>
      <trkpt lat="42.3081810" lon="-8.6035110">
        <ele>84.8</ele>
        <time>2022-06-18T11:55:05Z</time>
      </trkpt>
      <trkpt lat="42.3082010" lon="-8.6034930">
        <ele>84.6</ele>
        <time>2022-06-18T11:55:06Z</time>
      </trkpt>
      <trkpt lat="42.3082200" lon="-8.6034730">
        <ele>84.6</ele>
        <time>2022-06-18T11:55:07Z</time>
      </trkpt>
      <trkpt lat="42.3082400" lon="-8.6034530">
        <ele>84.6</ele>
        <time>2022-06-18T11:55:08Z</time>
      </trkpt>
      <trkpt lat="42.3082610" lon="-8.6034330">
        <ele>84.6</ele>
        <time>2022-06-18T11:55:09Z</time>
      </trkpt>
      <trkpt lat="42.3082830" lon="-8.6034150">
        <ele>85.0</ele>
        <time>2022-06-18T11:55:10Z</time>
      </trkpt>
      <trkpt lat="42.3083030" lon="-8.6033960">
        <ele>85.0</ele>
        <time>2022-06-18T11:55:11Z</time>
      </trkpt>
      <trkpt lat="42.3083210" lon="-8.6033750">
        <ele>85.0</ele>
        <time>2022-06-18T11:55:12Z</time>
      </trkpt>
      <trkpt lat="42.3083410" lon="-8.6033550">
        <ele>85.0</ele>
        <time>2022-06-18T11:55:13Z</time>
      </trkpt>
      <trkpt lat="42.3083650" lon="-8.6033380">
        <ele>85.2</ele>
        <time>2022-06-18T11:55:14Z</time>
      </trkpt>
      <trkpt lat="42.3083900" lon="-8.6033200">
        <ele>85.2</ele>
        <time>2022-06-18T11:55:15Z</time>
      </trkpt>
      <trkpt lat="42.3084130" lon="-8.6033050">
        <ele>85.2</ele>
        <time>2022-06-18T11:55:16Z</time>
      </trkpt>
      <trkpt lat="42.3084360" lon="-8.6032910">
        <ele>85.2</ele>
        <time>2022-06-18T11:55:17Z</time>
      </trkpt>
      <trkpt lat="42.3084610" lon="-8.6032800">
        <ele>85.6</ele>
        <time>2022-06-18T11:55:18Z</time>
      </trkpt>
      <trkpt lat="42.3084860" lon="-8.6032660">
        <ele>85.6</ele>
        <time>2022-06-18T11:55:19Z</time>
      </trkpt>
      <trkpt lat="42.3085100" lon="-8.6032510">
        <ele>85.6</ele>
        <time>2022-06-18T11:55:20Z</time>
      </trkpt>
      <trkpt lat="42.3085310" lon="-8.6032410">
        <ele>85.2</ele>
        <time>2022-06-18T11:55:21Z</time>
      </trkpt>
      <trkpt lat="42.3085550" lon="-8.6032350">
        <ele>85.4</ele>
        <time>2022-06-18T11:55:22Z</time>
      </trkpt>
      <trkpt lat="42.3085780" lon="-8.6032300">
        <ele>85.4</ele>
        <time>2022-06-18T11:55:23Z</time>
      </trkpt>
      <trkpt lat="42.3086000" lon="-8.6032250">
        <ele>85.4</ele>
        <time>2022-06-18T11:55:24Z</time>
      </trkpt>
      <trkpt lat="42.3086210" lon="-8.6032200">
        <ele>85.8</ele>
        <time>2022-06-18T11:55:25Z</time>
      </trkpt>
      <trkpt lat="42.3086430" lon="-8.6032150">
        <ele>86.2</ele>
        <time>2022-06-18T11:55:26Z</time>
      </trkpt>
      <trkpt lat="42.3086660" lon="-8.6032080">
        <ele>86.2</ele>
        <time>2022-06-18T11:55:27Z</time>
      </trkpt>
      <trkpt lat="42.3086860" lon="-8.6032030">
        <ele>86.2</ele>
        <time>2022-06-18T11:55:28Z</time>
      </trkpt>
      <trkpt lat="42.3087100" lon="-8.6032010">
        <ele>87.0</ele>
        <time>2022-06-18T11:55:29Z</time>
      </trkpt>
      <trkpt lat="42.3087300" lon="-8.6032000">
        <ele>86.8</ele>
        <time>2022-06-18T11:55:30Z</time>
      </trkpt>
      <trkpt lat="42.3087510" lon="-8.6032000">
        <ele>86.8</ele>
        <time>2022-06-18T11:55:31Z</time>
      </trkpt>
      <trkpt lat="42.3087700" lon="-8.6031980">
        <ele>86.8</ele>
        <time>2022-06-18T11:55:32Z</time>
      </trkpt>
      <trkpt lat="42.3087860" lon="-8.6031980">
        <ele>86.8</ele>
        <time>2022-06-18T11:55:33Z</time>
      </trkpt>
      <trkpt lat="42.3088050" lon="-8.6031960">
        <ele>87.2</ele>
        <time>2022-06-18T11:55:34Z</time>
      </trkpt>
      <trkpt lat="42.3088230" lon="-8.6031950">
        <ele>87.2</ele>
        <time>2022-06-18T11:55:35Z</time>
      </trkpt>
      <trkpt lat="42.3088410" lon="-8.6031930">
        <ele>87.2</ele>
        <time>2022-06-18T11:55:36Z</time>
      </trkpt>
      <trkpt lat="42.3088580" lon="-8.6031910">
        <ele>87.4</ele>
        <time>2022-06-18T11:55:37Z</time>
      </trkpt>
      <trkpt lat="42.3088750" lon="-8.6031910">
        <ele>87.4</ele>
        <time>2022-06-18T11:55:38Z</time>
      </trkpt>
      <trkpt lat="42.3088930" lon="-8.6031910">
        <ele>87.4</ele>
        <time>2022-06-18T11:55:39Z</time>
      </trkpt>
      <trkpt lat="42.3089130" lon="-8.6031910">
        <ele>87.4</ele>
        <time>2022-06-18T11:55:40Z</time>
      </trkpt>
      <trkpt lat="42.3089330" lon="-8.6031910">
        <ele>88.0</ele>
        <time>2022-06-18T11:55:41Z</time>
      </trkpt>
      <trkpt lat="42.3089510" lon="-8.6031910">
        <ele>87.8</ele>
        <time>2022-06-18T11:55:42Z</time>
      </trkpt>
      <trkpt lat="42.3089660" lon="-8.6031900">
        <ele>87.8</ele>
        <time>2022-06-18T11:55:43Z</time>
      </trkpt>
      <trkpt lat="42.3089830" lon="-8.6031910">
        <ele>87.8</ele>
        <time>2022-06-18T11:55:44Z</time>
      </trkpt>
      <trkpt lat="42.3089980" lon="-8.6031910">
        <ele>88.6</ele>
        <time>2022-06-18T11:55:45Z</time>
      </trkpt>
      <trkpt lat="42.3090160" lon="-8.6031900">
        <ele>88.6</ele>
        <time>2022-06-18T11:55:46Z</time>
      </trkpt>
      <trkpt lat="42.3090350" lon="-8.6031880">
        <ele>88.6</ele>
        <time>2022-06-18T11:55:47Z</time>
      </trkpt>
      <trkpt lat="42.3090530" lon="-8.6031880">
        <ele>88.6</ele>
        <time>2022-06-18T11:55:48Z</time>
      </trkpt>
      <trkpt lat="42.3090750" lon="-8.6031860">
        <ele>89.4</ele>
        <time>2022-06-18T11:55:49Z</time>
      </trkpt>
      <trkpt lat="42.3090960" lon="-8.6031860">
        <ele>89.4</ele>
        <time>2022-06-18T11:55:50Z</time>
      </trkpt>
      <trkpt lat="42.3091160" lon="-8.6031850">
        <ele>89.4</ele>
        <time>2022-06-18T11:55:51Z</time>
      </trkpt>
      <trkpt lat="42.3091360" lon="-8.6031850">
        <ele>89.4</ele>
        <time>2022-06-18T11:55:52Z</time>
      </trkpt>
      <trkpt lat="42.3091560" lon="-8.6031810">
        <ele>89.4</ele>
        <time>2022-06-18T11:55:53Z</time>
      </trkpt>
      <trkpt lat="42.3091760" lon="-8.6031780">
        <ele>89.8</ele>
        <time>2022-06-18T11:55:54Z</time>
      </trkpt>
      <trkpt lat="42.3091960" lon="-8.6031760">
        <ele>89.8</ele>
        <time>2022-06-18T11:55:55Z</time>
      </trkpt>
      <trkpt lat="42.3092160" lon="-8.6031760">
        <ele>89.8</ele>
        <time>2022-06-18T11:55:56Z</time>
      </trkpt>
      <trkpt lat="42.3092330" lon="-8.6031730">
        <ele>90.2</ele>
        <time>2022-06-18T11:55:57Z</time>
      </trkpt>
      <trkpt lat="42.3092510" lon="-8.6031710">
        <ele>90.4</ele>
        <time>2022-06-18T11:55:58Z</time>
      </trkpt>
      <trkpt lat="42.3092680" lon="-8.6031680">
        <ele>90.4</ele>
        <time>2022-06-18T11:55:59Z</time>
      </trkpt>
      <trkpt lat="42.3092850" lon="-8.6031660">
        <ele>90.4</ele>
        <time>2022-06-18T11:56:00Z</time>
      </trkpt>
      <trkpt lat="42.3093010" lon="-8.6031660">
        <ele>90.8</ele>
        <time>2022-06-18T11:56:01Z</time>
      </trkpt>
      <trkpt lat="42.3093200" lon="-8.6031660">
        <ele>91.0</ele>
        <time>2022-06-18T11:56:02Z</time>
      </trkpt>
      <trkpt lat="42.3093400" lon="-8.6031650">
        <ele>91.0</ele>
        <time>2022-06-18T11:56:03Z</time>
      </trkpt>
      <trkpt lat="42.3093600" lon="-8.6031630">
        <ele>91.0</ele>
        <time>2022-06-18T11:56:04Z</time>
      </trkpt>
      <trkpt lat="42.3093810" lon="-8.6031600">
        <ele>91.0</ele>
        <time>2022-06-18T11:56:05Z</time>
      </trkpt>
      <trkpt lat="42.3094010" lon="-8.6031560">
        <ele>91.0</ele>
        <time>2022-06-18T11:56:06Z</time>
      </trkpt>
      <trkpt lat="42.3094200" lon="-8.6031530">
        <ele>91.0</ele>
        <time>2022-06-18T11:56:07Z</time>
      </trkpt>
      <trkpt lat="42.3094400" lon="-8.6031480">
        <ele>91.0</ele>
        <time>2022-06-18T11:56:08Z</time>
      </trkpt>
      <trkpt lat="42.3094580" lon="-8.6031460">
        <ele>91.8</ele>
        <time>2022-06-18T11:56:09Z</time>
      </trkpt>
      <trkpt lat="42.3094760" lon="-8.6031460">
        <ele>91.8</ele>
        <time>2022-06-18T11:56:10Z</time>
      </trkpt>
      <trkpt lat="42.3094960" lon="-8.6031460">
        <ele>91.8</ele>
        <time>2022-06-18T11:56:11Z</time>
      </trkpt>
      <trkpt lat="42.3095160" lon="-8.6031460">
        <ele>91.8</ele>
        <time>2022-06-18T11:56:12Z</time>
      </trkpt>
      <trkpt lat="42.3095350" lon="-8.6031450">
        <ele>92.4</ele>
        <time>2022-06-18T11:56:13Z</time>
      </trkpt>
      <trkpt lat="42.3095530" lon="-8.6031430">
        <ele>92.6</ele>
        <time>2022-06-18T11:56:14Z</time>
      </trkpt>
      <trkpt lat="42.3095700" lon="-8.6031410">
        <ele>92.6</ele>
        <time>2022-06-18T11:56:15Z</time>
      </trkpt>
      <trkpt lat="42.3095880" lon="-8.6031400">
        <ele>92.6</ele>
        <time>2022-06-18T11:56:16Z</time>
      </trkpt>
      <trkpt lat="42.3096050" lon="-8.6031360">
        <ele>92.8</ele>
        <time>2022-06-18T11:56:17Z</time>
      </trkpt>
      <trkpt lat="42.3096230" lon="-8.6031300">
        <ele>93.0</ele>
        <time>2022-06-18T11:56:18Z</time>
      </trkpt>
      <trkpt lat="42.3096400" lon="-8.6031280">
        <ele>93.0</ele>
        <time>2022-06-18T11:56:19Z</time>
      </trkpt>
      <trkpt lat="42.3096560" lon="-8.6031260">
        <ele>93.0</ele>
        <time>2022-06-18T11:56:20Z</time>
      </trkpt>
      <trkpt lat="42.3096750" lon="-8.6031260">
        <ele>93.0</ele>
        <time>2022-06-18T11:56:21Z</time>
      </trkpt>
      <trkpt lat="42.3096910" lon="-8.6031250">
        <ele>94.0</ele>
        <time>2022-06-18T11:56:22Z</time>
      </trkpt>
      <trkpt lat="42.3097060" lon="-8.6031250">
        <ele>94.0</ele>
        <time>2022-06-18T11:56:23Z</time>
      </trkpt>
      <trkpt lat="42.3097250" lon="-8.6031250">
        <ele>94.0</ele>
        <time>2022-06-18T11:56:24Z</time>
      </trkpt>
      <trkpt lat="42.3097430" lon="-8.6031250">
        <ele>94.0</ele>
        <time>2022-06-18T11:56:25Z</time>
      </trkpt>
      <trkpt lat="42.3097610" lon="-8.6031230">
        <ele>94.4</ele>
        <time>2022-06-18T11:56:26Z</time>
      </trkpt>
      <trkpt lat="42.3097780" lon="-8.6031230">
        <ele>94.4</ele>
        <time>2022-06-18T11:56:27Z</time>
      </trkpt>
      <trkpt lat="42.3097980" lon="-8.6031230">
        <ele>94.4</ele>
        <time>2022-06-18T11:56:28Z</time>
      </trkpt>
      <trkpt lat="42.3098150" lon="-8.6031180">
        <ele>94.4</ele>
        <time>2022-06-18T11:56:29Z</time>
      </trkpt>
      <trkpt lat="42.3098350" lon="-8.6031100">
        <ele>94.8</ele>
        <time>2022-06-18T11:56:30Z</time>
      </trkpt>
      <trkpt lat="42.3098550" lon="-8.6031050">
        <ele>94.8</ele>
        <time>2022-06-18T11:56:31Z</time>
      </trkpt>
      <trkpt lat="42.3098750" lon="-8.6031010">
        <ele>94.8</ele>
        <time>2022-06-18T11:56:32Z</time>
      </trkpt>
      <trkpt lat="42.3098930" lon="-8.6031000">
        <ele>95.4</ele>
        <time>2022-06-18T11:56:33Z</time>
      </trkpt>
      <trkpt lat="42.3099130" lon="-8.6030950">
        <ele>95.8</ele>
        <time>2022-06-18T11:56:34Z</time>
      </trkpt>
      <trkpt lat="42.3099330" lon="-8.6030900">
        <ele>95.8</ele>
        <time>2022-06-18T11:56:35Z</time>
      </trkpt>
      <trkpt lat="42.3099500" lon="-8.6030860">
        <ele>95.8</ele>
        <time>2022-06-18T11:56:36Z</time>
      </trkpt>
      <trkpt lat="42.3099680" lon="-8.6030810">
        <ele>95.6</ele>
        <time>2022-06-18T11:56:37Z</time>
      </trkpt>
      <trkpt lat="42.3099850" lon="-8.6030780">
        <ele>96.0</ele>
        <time>2022-06-18T11:56:38Z</time>
      </trkpt>
      <trkpt lat="42.3100030" lon="-8.6030780">
        <ele>96.0</ele>
        <time>2022-06-18T11:56:39Z</time>
      </trkpt>
      <trkpt lat="42.3100200" lon="-8.6030760">
        <ele>96.0</ele>
        <time>2022-06-18T11:56:40Z</time>
      </trkpt>
      <trkpt lat="42.3100380" lon="-8.6030760">
        <ele>97.0</ele>
        <time>2022-06-18T11:56:41Z</time>
      </trkpt>
      <trkpt lat="42.3100550" lon="-8.6030750">
        <ele>96.8</ele>
        <time>2022-06-18T11:56:42Z</time>
      </trkpt>
      <trkpt lat="42.3100710" lon="-8.6030730">
        <ele>96.8</ele>
        <time>2022-06-18T11:56:43Z</time>
      </trkpt>
      <trkpt lat="42.3100900" lon="-8.6030710">
        <ele>96.8</ele>
        <time>2022-06-18T11:56:44Z</time>
      </trkpt>
      <trkpt lat="42.3101080" lon="-8.6030660">
        <ele>97.2</ele>
        <time>2022-06-18T11:56:45Z</time>
      </trkpt>
      <trkpt lat="42.3101260" lon="-8.6030610">
        <ele>97.4</ele>
        <time>2022-06-18T11:56:46Z</time>
      </trkpt>
      <trkpt lat="42.3101450" lon="-8.6030560">
        <ele>97.4</ele>
        <time>2022-06-18T11:56:47Z</time>
      </trkpt>
      <trkpt lat="42.3101610" lon="-8.6030500">
        <ele>97.4</ele>
        <time>2022-06-18T11:56:48Z</time>
      </trkpt>
      <trkpt lat="42.3101800" lon="-8.6030450">
        <ele>97.4</ele>
        <time>2022-06-18T11:56:49Z</time>
      </trkpt>
      <trkpt lat="42.3101980" lon="-8.6030380">
        <ele>97.6</ele>
        <time>2022-06-18T11:56:50Z</time>
      </trkpt>
      <trkpt lat="42.3102150" lon="-8.6030310">
        <ele>97.6</ele>
        <time>2022-06-18T11:56:51Z</time>
      </trkpt>
      <trkpt lat="42.3102330" lon="-8.6030250">
        <ele>97.6</ele>
        <time>2022-06-18T11:56:52Z</time>
      </trkpt>
      <trkpt lat="42.3102510" lon="-8.6030200">
        <ele>98.2</ele>
        <time>2022-06-18T11:56:53Z</time>
      </trkpt>
      <trkpt lat="42.3102660" lon="-8.6030130">
        <ele>98.0</ele>
        <time>2022-06-18T11:56:54Z</time>
      </trkpt>
      <trkpt lat="42.3102830" lon="-8.6030080">
        <ele>98.0</ele>
        <time>2022-06-18T11:56:55Z</time>
      </trkpt>
      <trkpt lat="42.3103010" lon="-8.6030050">
        <ele>98.0</ele>
        <time>2022-06-18T11:56:56Z</time>
      </trkpt>
      <trkpt lat="42.3103200" lon="-8.6030000">
        <ele>98.6</ele>
        <time>2022-06-18T11:56:57Z</time>
      </trkpt>
      <trkpt lat="42.3103380" lon="-8.6029930">
        <ele>99.0</ele>
        <time>2022-06-18T11:56:58Z</time>
      </trkpt>
      <trkpt lat="42.3103580" lon="-8.6029850">
        <ele>99.0</ele>
        <time>2022-06-18T11:56:59Z</time>
      </trkpt>
      <trkpt lat="42.3103750" lon="-8.6029760">
        <ele>99.0</ele>
        <time>2022-06-18T11:57:00Z</time>
      </trkpt>
      <trkpt lat="42.3103930" lon="-8.6029700">
        <ele>99.0</ele>
        <time>2022-06-18T11:57:01Z</time>
      </trkpt>
      <trkpt lat="42.3104110" lon="-8.6029610">
        <ele>99.2</ele>
        <time>2022-06-18T11:57:02Z</time>
      </trkpt>
      <trkpt lat="42.3104300" lon="-8.6029550">
        <ele>99.2</ele>
        <time>2022-06-18T11:57:03Z</time>
      </trkpt>
      <trkpt lat="42.3104480" lon="-8.6029460">
        <ele>99.2</ele>
        <time>2022-06-18T11:57:04Z</time>
      </trkpt>
      <trkpt lat="42.3104680" lon="-8.6029380">
        <ele>99.2</ele>
        <time>2022-06-18T11:57:05Z</time>
      </trkpt>
      <trkpt lat="42.3104860" lon="-8.6029310">
        <ele>99.6</ele>
        <time>2022-06-18T11:57:06Z</time>
      </trkpt>
      <trkpt lat="42.3105050" lon="-8.6029230">
        <ele>99.6</ele>
        <time>2022-06-18T11:57:07Z</time>
      </trkpt>
      <trkpt lat="42.3105230" lon="-8.6029160">
        <ele>99.6</ele>
        <time>2022-06-18T11:57:08Z</time>
      </trkpt>
      <trkpt lat="42.3105410" lon="-8.6029080">
        <ele>99.8</ele>
        <time>2022-06-18T11:57:09Z</time>
      </trkpt>
      <trkpt lat="42.3105600" lon="-8.6029000">
        <ele>100.0</ele>
        <time>2022-06-18T11:57:10Z</time>
      </trkpt>
      <trkpt lat="42.3105780" lon="-8.6028910">
        <ele>100.0</ele>
        <time>2022-06-18T11:57:11Z</time>
      </trkpt>
      <trkpt lat="42.3105950" lon="-8.6028830">
        <ele>100.0</ele>
        <time>2022-06-18T11:57:12Z</time>
      </trkpt>
      <trkpt lat="42.3106130" lon="-8.6028750">
        <ele>100.0</ele>
        <time>2022-06-18T11:57:13Z</time>
      </trkpt>
      <trkpt lat="42.3106300" lon="-8.6028650">
        <ele>101.0</ele>
        <time>2022-06-18T11:57:14Z</time>
      </trkpt>
      <trkpt lat="42.3106480" lon="-8.6028530">
        <ele>101.0</ele>
        <time>2022-06-18T11:57:15Z</time>
      </trkpt>
      <trkpt lat="42.3106660" lon="-8.6028410">
        <ele>101.0</ele>
        <time>2022-06-18T11:57:16Z</time>
      </trkpt>
      <trkpt lat="42.3106830" lon="-8.6028300">
        <ele>101.6</ele>
        <time>2022-06-18T11:57:17Z</time>
      </trkpt>
      <trkpt lat="42.3107000" lon="-8.6028180">
        <ele>101.4</ele>
        <time>2022-06-18T11:57:18Z</time>
      </trkpt>
      <trkpt lat="42.3107160" lon="-8.6028050">
        <ele>101.4</ele>
        <time>2022-06-18T11:57:19Z</time>
      </trkpt>
      <trkpt lat="42.3107350" lon="-8.6027930">
        <ele>101.4</ele>
        <time>2022-06-18T11:57:20Z</time>
      </trkpt>
      <trkpt lat="42.3107510" lon="-8.6027810">
        <ele>101.8</ele>
        <time>2022-06-18T11:57:21Z</time>
      </trkpt>
      <trkpt lat="42.3107700" lon="-8.6027710">
        <ele>102.0</ele>
        <time>2022-06-18T11:57:22Z</time>
      </trkpt>
      <trkpt lat="42.3107860" lon="-8.6027600">
        <ele>102.0</ele>
        <time>2022-06-18T11:57:23Z</time>
      </trkpt>
      <trkpt lat="42.3108030" lon="-8.6027500">
        <ele>102.0</ele>
        <time>2022-06-18T11:57:24Z</time>
      </trkpt>
      <trkpt lat="42.3108200" lon="-8.6027360">
        <ele>102.0</ele>
        <time>2022-06-18T11:57:25Z</time>
      </trkpt>
      <trkpt lat="42.3108360" lon="-8.6027250">
        <ele>102.6</ele>
        <time>2022-06-18T11:57:26Z</time>
      </trkpt>
      <trkpt lat="42.3108500" lon="-8.6027230">
        <ele>102.6</ele>
        <time>2022-06-18T11:57:27Z</time>
      </trkpt>
      <trkpt lat="42.3108610" lon="-8.6027210">
        <ele>102.6</ele>
        <time>2022-06-18T11:57:28Z</time>
      </trkpt>
      <trkpt lat="42.3108730" lon="-8.6027210">
        <ele>102.8</ele>
        <time>2022-06-18T11:57:29Z</time>
      </trkpt>
      <trkpt lat="42.3108810" lon="-8.6027310">
        <ele>102.6</ele>
        <time>2022-06-18T11:57:30Z</time>
      </trkpt>
      <trkpt lat="42.3108860" lon="-8.6027480">
        <ele>102.6</ele>
        <time>2022-06-18T11:57:31Z</time>
      </trkpt>
      <trkpt lat="42.3108780" lon="-8.6027660">
        <ele>102.6</ele>
        <time>2022-06-18T11:57:32Z</time>
      </trkpt>
      <trkpt lat="42.3108630" lon="-8.6027810">
        <ele>102.0</ele>
        <time>2022-06-18T11:57:33Z</time>
      </trkpt>
      <trkpt lat="42.3108460" lon="-8.6027950">
        <ele>102.0</ele>
        <time>2022-06-18T11:57:34Z</time>
      </trkpt>
      <trkpt lat="42.3108280" lon="-8.6028080">
        <ele>102.0</ele>
        <time>2022-06-18T11:57:35Z</time>
      </trkpt>
      <trkpt lat="42.3108060" lon="-8.6028180">
        <ele>102.0</ele>
        <time>2022-06-18T11:57:36Z</time>
      </trkpt>
      <trkpt lat="42.3107860" lon="-8.6028300">
        <ele>101.6</ele>
        <time>2022-06-18T11:57:37Z</time>
      </trkpt>
      <trkpt lat="42.3107680" lon="-8.6028430">
        <ele>101.0</ele>
        <time>2022-06-18T11:57:38Z</time>
      </trkpt>
      <trkpt lat="42.3107500" lon="-8.6028550">
        <ele>101.0</ele>
        <time>2022-06-18T11:57:39Z</time>
      </trkpt>
      <trkpt lat="42.3107300" lon="-8.6028650">
        <ele>101.0</ele>
        <time>2022-06-18T11:57:40Z</time>
      </trkpt>
      <trkpt lat="42.3107080" lon="-8.6028760">
        <ele>101.0</ele>
        <time>2022-06-18T11:57:41Z</time>
      </trkpt>
      <trkpt lat="42.3106850" lon="-8.6028880">
        <ele>100.4</ele>
        <time>2022-06-18T11:57:42Z</time>
      </trkpt>
      <trkpt lat="42.3106610" lon="-8.6029000">
        <ele>100.4</ele>
        <time>2022-06-18T11:57:43Z</time>
      </trkpt>
      <trkpt lat="42.3106350" lon="-8.6029110">
        <ele>100.4</ele>
        <time>2022-06-18T11:57:44Z</time>
      </trkpt>
      <trkpt lat="42.3106100" lon="-8.6029230">
        <ele>100.4</ele>
        <time>2022-06-18T11:57:45Z</time>
      </trkpt>
      <trkpt lat="42.3105810" lon="-8.6029310">
        <ele>99.2</ele>
        <time>2022-06-18T11:57:46Z</time>
      </trkpt>
      <trkpt lat="42.3105560" lon="-8.6029430">
        <ele>99.2</ele>
        <time>2022-06-18T11:57:47Z</time>
      </trkpt>
      <trkpt lat="42.3105300" lon="-8.6029560">
        <ele>99.2</ele>
        <time>2022-06-18T11:57:48Z</time>
      </trkpt>
      <trkpt lat="42.3105030" lon="-8.6029650">
        <ele>99.2</ele>
        <time>2022-06-18T11:57:49Z</time>
      </trkpt>
      <trkpt lat="42.3104760" lon="-8.6029730">
        <ele>99.0</ele>
        <time>2022-06-18T11:57:50Z</time>
      </trkpt>
      <trkpt lat="42.3104500" lon="-8.6029810">
        <ele>99.0</ele>
        <time>2022-06-18T11:57:51Z</time>
      </trkpt>
      <trkpt lat="42.3104250" lon="-8.6029900">
        <ele>99.0</ele>
        <time>2022-06-18T11:57:52Z</time>
      </trkpt>
      <trkpt lat="42.3104000" lon="-8.6029960">
        <ele>99.0</ele>
        <time>2022-06-18T11:57:53Z</time>
      </trkpt>
      <trkpt lat="42.3103760" lon="-8.6030030">
        <ele>99.2</ele>
        <time>2022-06-18T11:57:54Z</time>
      </trkpt>
      <trkpt lat="42.3103530" lon="-8.6030110">
        <ele>99.2</ele>
        <time>2022-06-18T11:57:55Z</time>
      </trkpt>
      <trkpt lat="42.3103260" lon="-8.6030200">
        <ele>99.2</ele>
        <time>2022-06-18T11:57:56Z</time>
      </trkpt>
      <trkpt lat="42.3102960" lon="-8.6030260">
        <ele>98.2</ele>
        <time>2022-06-18T11:57:57Z</time>
      </trkpt>
      <trkpt lat="42.3102660" lon="-8.6030360">
        <ele>97.2</ele>
        <time>2022-06-18T11:57:58Z</time>
      </trkpt>
      <trkpt lat="42.3102360" lon="-8.6030430">
        <ele>97.2</ele>
        <time>2022-06-18T11:57:59Z</time>
      </trkpt>
      <trkpt lat="42.3102100" lon="-8.6030530">
        <ele>97.2</ele>
        <time>2022-06-18T11:58:00Z</time>
      </trkpt>
      <trkpt lat="42.3101860" lon="-8.6030650">
        <ele>97.2</ele>
        <time>2022-06-18T11:58:01Z</time>
      </trkpt>
      <trkpt lat="42.3101680" lon="-8.6030800">
        <ele>97.4</ele>
        <time>2022-06-18T11:58:02Z</time>
      </trkpt>
      <trkpt lat="42.3101610" lon="-8.6031010">
        <ele>97.4</ele>
        <time>2022-06-18T11:58:03Z</time>
      </trkpt>
      <trkpt lat="42.3101630" lon="-8.6031260">
        <ele>97.4</ele>
        <time>2022-06-18T11:58:04Z</time>
      </trkpt>
      <trkpt lat="42.3101730" lon="-8.6031510">
        <ele>98.4</ele>
        <time>2022-06-18T11:58:05Z</time>
      </trkpt>
      <trkpt lat="42.3101830" lon="-8.6031780">
        <ele>98.6</ele>
        <time>2022-06-18T11:58:06Z</time>
      </trkpt>
      <trkpt lat="42.3101910" lon="-8.6032010">
        <ele>98.6</ele>
        <time>2022-06-18T11:58:07Z</time>
      </trkpt>
      <trkpt lat="42.3102000" lon="-8.6032230">
        <ele>98.6</ele>
        <time>2022-06-18T11:58:08Z</time>
      </trkpt>
      <trkpt lat="42.3102080" lon="-8.6032430">
        <ele>99.2</ele>
        <time>2022-06-18T11:58:09Z</time>
      </trkpt>
      <trkpt lat="42.3102150" lon="-8.6032630">
        <ele>99.2</ele>
        <time>2022-06-18T11:58:10Z</time>
      </trkpt>
      <trkpt lat="42.3102200" lon="-8.6032830">
        <ele>99.2</ele>
        <time>2022-06-18T11:58:11Z</time>
      </trkpt>
      <trkpt lat="42.3102260" lon="-8.6033030">
        <ele>99.2</ele>
        <time>2022-06-18T11:58:12Z</time>
      </trkpt>
      <trkpt lat="42.3102330" lon="-8.6033200">
        <ele>100.2</ele>
        <time>2022-06-18T11:58:13Z</time>
      </trkpt>
      <trkpt lat="42.3102400" lon="-8.6033380">
        <ele>100.4</ele>
        <time>2022-06-18T11:58:14Z</time>
      </trkpt>
      <trkpt lat="42.3102460" lon="-8.6033560">
        <ele>100.4</ele>
        <time>2022-06-18T11:58:15Z</time>
      </trkpt>
      <trkpt lat="42.3102550" lon="-8.6033760">
        <ele>100.4</ele>
        <time>2022-06-18T11:58:16Z</time>
      </trkpt>
      <trkpt lat="42.3102630" lon="-8.6033960">
        <ele>100.4</ele>
        <time>2022-06-18T11:58:17Z</time>
      </trkpt>
      <trkpt lat="42.3102710" lon="-8.6034160">
        <ele>101.6</ele>
        <time>2022-06-18T11:58:18Z</time>
      </trkpt>
      <trkpt lat="42.3102780" lon="-8.6034360">
        <ele>101.6</ele>
        <time>2022-06-18T11:58:19Z</time>
      </trkpt>
      <trkpt lat="42.3102860" lon="-8.6034550">
        <ele>101.6</ele>
        <time>2022-06-18T11:58:20Z</time>
      </trkpt>
      <trkpt lat="42.3102950" lon="-8.6034730">
        <ele>102.0</ele>
        <time>2022-06-18T11:58:21Z</time>
      </trkpt>
      <trkpt lat="42.3103060" lon="-8.6034910">
        <ele>102.0</ele>
        <time>2022-06-18T11:58:22Z</time>
      </trkpt>
      <trkpt lat="42.3103180" lon="-8.6035100">
        <ele>102.0</ele>
        <time>2022-06-18T11:58:23Z</time>
      </trkpt>
      <trkpt lat="42.3103280" lon="-8.6035300">
        <ele>102.0</ele>
        <time>2022-06-18T11:58:24Z</time>
      </trkpt>
      <trkpt lat="42.3103360" lon="-8.6035480">
        <ele>102.0</ele>
        <time>2022-06-18T11:58:25Z</time>
      </trkpt>
      <trkpt lat="42.3103410" lon="-8.6035650">
        <ele>103.0</ele>
        <time>2022-06-18T11:58:26Z</time>
      </trkpt>
      <trkpt lat="42.3103480" lon="-8.6035830">
        <ele>103.0</ele>
        <time>2022-06-18T11:58:27Z</time>
      </trkpt>
      <trkpt lat="42.3103560" lon="-8.6036000">
        <ele>103.0</ele>
        <time>2022-06-18T11:58:28Z</time>
      </trkpt>
      <trkpt lat="42.3103660" lon="-8.6036160">
        <ele>103.4</ele>
        <time>2022-06-18T11:58:29Z</time>
      </trkpt>
      <trkpt lat="42.3103730" lon="-8.6036330">
        <ele>103.6</ele>
        <time>2022-06-18T11:58:30Z</time>
      </trkpt>
      <trkpt lat="42.3103810" lon="-8.6036480">
        <ele>103.6</ele>
        <time>2022-06-18T11:58:31Z</time>
      </trkpt>
      <trkpt lat="42.3103910" lon="-8.6036610">
        <ele>103.6</ele>
        <time>2022-06-18T11:58:32Z</time>
      </trkpt>
      <trkpt lat="42.3104030" lon="-8.6036780">
        <ele>103.6</ele>
        <time>2022-06-18T11:58:33Z</time>
      </trkpt>
      <trkpt lat="42.3104160" lon="-8.6036900">
        <ele>104.4</ele>
        <time>2022-06-18T11:58:34Z</time>
      </trkpt>
      <trkpt lat="42.3104280" lon="-8.6036960">
        <ele>104.4</ele>
        <time>2022-06-18T11:58:35Z</time>
      </trkpt>
      <trkpt lat="42.3104400" lon="-8.6037050">
        <ele>104.4</ele>
        <time>2022-06-18T11:58:36Z</time>
      </trkpt>
      <trkpt lat="42.3104510" lon="-8.6037110">
        <ele>105.0</ele>
        <time>2022-06-18T11:58:37Z</time>
      </trkpt>
      <trkpt lat="42.3104610" lon="-8.6037200">
        <ele>105.0</ele>
        <time>2022-06-18T11:58:38Z</time>
      </trkpt>
      <trkpt lat="42.3104730" lon="-8.6037260">
        <ele>105.0</ele>
        <time>2022-06-18T11:58:39Z</time>
      </trkpt>
      <trkpt lat="42.3104850" lon="-8.6037350">
        <ele>105.0</ele>
        <time>2022-06-18T11:58:40Z</time>
      </trkpt>
      <trkpt lat="42.3104960" lon="-8.6037400">
        <ele>105.0</ele>
        <time>2022-06-18T11:58:41Z</time>
      </trkpt>
      <trkpt lat="42.3105060" lon="-8.6037450">
        <ele>106.0</ele>
        <time>2022-06-18T11:58:42Z</time>
      </trkpt>
      <trkpt lat="42.3105160" lon="-8.6037550">
        <ele>106.0</ele>
        <time>2022-06-18T11:58:43Z</time>
      </trkpt>
      <trkpt lat="42.3105310" lon="-8.6037630">
        <ele>106.0</ele>
        <time>2022-06-18T11:58:44Z</time>
      </trkpt>
      <trkpt lat="42.3105450" lon="-8.6037710">
        <ele>106.0</ele>
        <time>2022-06-18T11:58:45Z</time>
      </trkpt>
      <trkpt lat="42.3105580" lon="-8.6037780">
        <ele>106.2</ele>
        <time>2022-06-18T11:58:46Z</time>
      </trkpt>
      <trkpt lat="42.3105700" lon="-8.6037830">
        <ele>106.2</ele>
        <time>2022-06-18T11:58:47Z</time>
      </trkpt>
      <trkpt lat="42.3105830" lon="-8.6037880">
        <ele>106.2</ele>
        <time>2022-06-18T11:58:48Z</time>
      </trkpt>
      <trkpt lat="42.3105930" lon="-8.6037950">
        <ele>106.8</ele>
        <time>2022-06-18T11:58:49Z</time>
      </trkpt>
      <trkpt lat="42.3106030" lon="-8.6038030">
        <ele>107.0</ele>
        <time>2022-06-18T11:58:50Z</time>
      </trkpt>
      <trkpt lat="42.3106150" lon="-8.6038110">
        <ele>107.0</ele>
        <time>2022-06-18T11:58:51Z</time>
      </trkpt>
      <trkpt lat="42.3106250" lon="-8.6038180">
        <ele>107.0</ele>
        <time>2022-06-18T11:58:52Z</time>
      </trkpt>
      <trkpt lat="42.3106380" lon="-8.6038230">
        <ele>107.0</ele>
        <time>2022-06-18T11:58:53Z</time>
      </trkpt>
      <trkpt lat="42.3106500" lon="-8.6038330">
        <ele>107.8</ele>
        <time>2022-06-18T11:58:54Z</time>
      </trkpt>
      <trkpt lat="42.3106600" lon="-8.6038430">
        <ele>107.8</ele>
        <time>2022-06-18T11:58:55Z</time>
      </trkpt>
      <trkpt lat="42.3106680" lon="-8.6038530">
        <ele>107.8</ele>
        <time>2022-06-18T11:58:56Z</time>
      </trkpt>
      <trkpt lat="42.3106780" lon="-8.6038630">
        <ele>108.2</ele>
        <time>2022-06-18T11:58:57Z</time>
      </trkpt>
      <trkpt lat="42.3106860" lon="-8.6038750">
        <ele>108.4</ele>
        <time>2022-06-18T11:58:58Z</time>
      </trkpt>
      <trkpt lat="42.3106910" lon="-8.6038860">
        <ele>108.4</ele>
        <time>2022-06-18T11:58:59Z</time>
      </trkpt>
      <trkpt lat="42.3106980" lon="-8.6038960">
        <ele>108.4</ele>
        <time>2022-06-18T11:59:00Z</time>
      </trkpt>
      <trkpt lat="42.3107080" lon="-8.6039050">
        <ele>109.2</ele>
        <time>2022-06-18T11:59:01Z</time>
      </trkpt>
      <trkpt lat="42.3107180" lon="-8.6039130">
        <ele>109.6</ele>
        <time>2022-06-18T11:59:02Z</time>
      </trkpt>
      <trkpt lat="42.3107260" lon="-8.6039210">
        <ele>109.6</ele>
        <time>2022-06-18T11:59:03Z</time>
      </trkpt>
      <trkpt lat="42.3107360" lon="-8.6039310">
        <ele>109.6</ele>
        <time>2022-06-18T11:59:04Z</time>
      </trkpt>
      <trkpt lat="42.3107500" lon="-8.6039400">
        <ele>109.6</ele>
        <time>2022-06-18T11:59:05Z</time>
      </trkpt>
      <trkpt lat="42.3107610" lon="-8.6039500">
        <ele>110.8</ele>
        <time>2022-06-18T11:59:06Z</time>
      </trkpt>
      <trkpt lat="42.3107710" lon="-8.6039610">
        <ele>110.8</ele>
        <time>2022-06-18T11:59:07Z</time>
      </trkpt>
      <trkpt lat="42.3107810" lon="-8.6039700">
        <ele>110.8</ele>
        <time>2022-06-18T11:59:08Z</time>
      </trkpt>
      <trkpt lat="42.3107910" lon="-8.6039780">
        <ele>110.8</ele>
        <time>2022-06-18T11:59:09Z</time>
      </trkpt>
      <trkpt lat="42.3108010" lon="-8.6039860">
        <ele>111.6</ele>
        <time>2022-06-18T11:59:10Z</time>
      </trkpt>
      <trkpt lat="42.3108110" lon="-8.6039960">
        <ele>111.6</ele>
        <time>2022-06-18T11:59:11Z</time>
      </trkpt>
      <trkpt lat="42.3108200" lon="-8.6040110">
        <ele>111.6</ele>
        <time>2022-06-18T11:59:12Z</time>
      </trkpt>
      <trkpt lat="42.3108250" lon="-8.6040230">
        <ele>111.6</ele>
        <time>2022-06-18T11:59:13Z</time>
      </trkpt>
      <trkpt lat="42.3108330" lon="-8.6040310">
        <ele>111.6</ele>
        <time>2022-06-18T11:59:14Z</time>
      </trkpt>
      <trkpt lat="42.3108410" lon="-8.6040380">
        <ele>111.6</ele>
        <time>2022-06-18T11:59:15Z</time>
      </trkpt>
      <trkpt lat="42.3108500" lon="-8.6040480">
        <ele>111.6</ele>
        <time>2022-06-18T11:59:16Z</time>
      </trkpt>
      <trkpt lat="42.3108600" lon="-8.6040580">
        <ele>112.4</ele>
        <time>2022-06-18T11:59:17Z</time>
      </trkpt>
      <trkpt lat="42.3108700" lon="-8.6040680">
        <ele>112.8</ele>
        <time>2022-06-18T11:59:18Z</time>
      </trkpt>
      <trkpt lat="42.3108760" lon="-8.6040780">
        <ele>112.8</ele>
        <time>2022-06-18T11:59:19Z</time>
      </trkpt>
      <trkpt lat="42.3108850" lon="-8.6040880">
        <ele>112.8</ele>
        <time>2022-06-18T11:59:20Z</time>
      </trkpt>
      <trkpt lat="42.3108930" lon="-8.6040960">
        <ele>113.4</ele>
        <time>2022-06-18T11:59:21Z</time>
      </trkpt>
      <trkpt lat="42.3109050" lon="-8.6041060">
        <ele>113.4</ele>
        <time>2022-06-18T11:59:22Z</time>
      </trkpt>
      <trkpt lat="42.3109130" lon="-8.6041160">
        <ele>113.4</ele>
        <time>2022-06-18T11:59:23Z</time>
      </trkpt>
      <trkpt lat="42.3109160" lon="-8.6041260">
        <ele>113.4</ele>
        <time>2022-06-18T11:59:24Z</time>
      </trkpt>
      <trkpt lat="42.3109230" lon="-8.6041380">
        <ele>114.4</ele>
        <time>2022-06-18T11:59:25Z</time>
      </trkpt>
      <trkpt lat="42.3109280" lon="-8.6041500">
        <ele>114.4</ele>
        <time>2022-06-18T11:59:26Z</time>
      </trkpt>
      <trkpt lat="42.3109400" lon="-8.6041600">
        <ele>114.4</ele>
        <time>2022-06-18T11:59:27Z</time>
      </trkpt>
      <trkpt lat="42.3109500" lon="-8.6041680">
        <ele>114.4</ele>
        <time>2022-06-18T11:59:28Z</time>
      </trkpt>
      <trkpt lat="42.3109600" lon="-8.6041760">
        <ele>114.4</ele>
        <time>2022-06-18T11:59:29Z</time>
      </trkpt>
      <trkpt lat="42.3109680" lon="-8.6041880">
        <ele>115.2</ele>
        <time>2022-06-18T11:59:30Z</time>
      </trkpt>
      <trkpt lat="42.3109750" lon="-8.6042030">
        <ele>115.2</ele>
        <time>2022-06-18T11:59:31Z</time>
      </trkpt>
      <trkpt lat="42.3109780" lon="-8.6042150">
        <ele>115.2</ele>
        <time>2022-06-18T11:59:32Z</time>
      </trkpt>
      <trkpt lat="42.3109850" lon="-8.6042250">
        <ele>115.8</ele>
        <time>2022-06-18T11:59:33Z</time>
      </trkpt>
      <trkpt lat="42.3109900" lon="-8.6042360">
        <ele>115.6</ele>
        <time>2022-06-18T11:59:34Z</time>
      </trkpt>
      <trkpt lat="42.3109950" lon="-8.6042510">
        <ele>115.6</ele>
        <time>2022-06-18T11:59:35Z</time>
      </trkpt>
      <trkpt lat="42.3110000" lon="-8.6042650">
        <ele>115.6</ele>
        <time>2022-06-18T11:59:36Z</time>
      </trkpt>
      <trkpt lat="42.3110080" lon="-8.6042760">
        <ele>116.2</ele>
        <time>2022-06-18T11:59:37Z</time>
      </trkpt>
      <trkpt lat="42.3110150" lon="-8.6042900">
        <ele>116.4</ele>
        <time>2022-06-18T11:59:38Z</time>
      </trkpt>
      <trkpt lat="42.3110210" lon="-8.6043010">
        <ele>116.4</ele>
        <time>2022-06-18T11:59:39Z</time>
      </trkpt>
      <trkpt lat="42.3110280" lon="-8.6043110">
        <ele>116.4</ele>
        <time>2022-06-18T11:59:40Z</time>
      </trkpt>
      <trkpt lat="42.3110350" lon="-8.6043250">
        <ele>117.0</ele>
        <time>2022-06-18T11:59:41Z</time>
      </trkpt>
      <trkpt lat="42.3110400" lon="-8.6043380">
        <ele>117.0</ele>
        <time>2022-06-18T11:59:42Z</time>
      </trkpt>
      <trkpt lat="42.3110450" lon="-8.6043510">
        <ele>117.0</ele>
        <time>2022-06-18T11:59:43Z</time>
      </trkpt>
      <trkpt lat="42.3110510" lon="-8.6043630">
        <ele>117.0</ele>
        <time>2022-06-18T11:59:44Z</time>
      </trkpt>
      <trkpt lat="42.3110600" lon="-8.6043730">
        <ele>117.8</ele>
        <time>2022-06-18T11:59:45Z</time>
      </trkpt>
      <trkpt lat="42.3110660" lon="-8.6043860">
        <ele>117.6</ele>
        <time>2022-06-18T11:59:46Z</time>
      </trkpt>
      <trkpt lat="42.3110730" lon="-8.6043980">
        <ele>117.6</ele>
        <time>2022-06-18T11:59:47Z</time>
      </trkpt>
      <trkpt lat="42.3110810" lon="-8.6044100">
        <ele>117.6</ele>
        <time>2022-06-18T11:59:48Z</time>
      </trkpt>
      <trkpt lat="42.3110900" lon="-8.6044180">
        <ele>118.6</ele>
        <time>2022-06-18T11:59:49Z</time>
      </trkpt>
      <trkpt lat="42.3110980" lon="-8.6044280">
        <ele>118.8</ele>
        <time>2022-06-18T11:59:50Z</time>
      </trkpt>
      <trkpt lat="42.3111060" lon="-8.6044380">
        <ele>118.8</ele>
        <time>2022-06-18T11:59:51Z</time>
      </trkpt>
      <trkpt lat="42.3111150" lon="-8.6044460">
        <ele>118.8</ele>
        <time>2022-06-18T11:59:52Z</time>
      </trkpt>
      <trkpt lat="42.3111250" lon="-8.6044510">
        <ele>119.2</ele>
        <time>2022-06-18T11:59:53Z</time>
      </trkpt>
      <trkpt lat="42.3111350" lon="-8.6044610">
        <ele>119.4</ele>
        <time>2022-06-18T11:59:54Z</time>
      </trkpt>
      <trkpt lat="42.3111400" lon="-8.6044710">
        <ele>119.4</ele>
        <time>2022-06-18T11:59:55Z</time>
      </trkpt>
      <trkpt lat="42.3111460" lon="-8.6044830">
        <ele>119.4</ele>
        <time>2022-06-18T11:59:56Z</time>
      </trkpt>
      <trkpt lat="42.3111530" lon="-8.6044930">
        <ele>119.8</ele>
        <time>2022-06-18T11:59:57Z</time>
      </trkpt>
      <trkpt lat="42.3111580" lon="-8.6045030">
        <ele>120.2</ele>
        <time>2022-06-18T11:59:58Z</time>
      </trkpt>
      <trkpt lat="42.3111660" lon="-8.6045130">
        <ele>120.2</ele>
        <time>2022-06-18T11:59:59Z</time>
      </trkpt>
      <trkpt lat="42.3111710" lon="-8.6045230">
        <ele>120.2</ele>
        <time>2022-06-18T12:00:00Z</time>
      </trkpt>
      <trkpt lat="42.3111780" lon="-8.6045300">
        <ele>120.8</ele>
        <time>2022-06-18T12:00:01Z</time>
      </trkpt>
      <trkpt lat="42.3111880" lon="-8.6045380">
        <ele>121.2</ele>
        <time>2022-06-18T12:00:02Z</time>
      </trkpt>
      <trkpt lat="42.3111980" lon="-8.6045480">
        <ele>121.2</ele>
        <time>2022-06-18T12:00:03Z</time>
      </trkpt>
      <trkpt lat="42.3112050" lon="-8.6045560">
        <ele>121.2</ele>
        <time>2022-06-18T12:00:04Z</time>
      </trkpt>
      <trkpt lat="42.3112100" lon="-8.6045660">
        <ele>122.0</ele>
        <time>2022-06-18T12:00:05Z</time>
      </trkpt>
      <trkpt lat="42.3112150" lon="-8.6045750">
        <ele>122.0</ele>
        <time>2022-06-18T12:00:06Z</time>
      </trkpt>
      <trkpt lat="42.3112210" lon="-8.6045810">
        <ele>122.0</ele>
        <time>2022-06-18T12:00:07Z</time>
      </trkpt>
      <trkpt lat="42.3112260" lon="-8.6045860">
        <ele>122.0</ele>
        <time>2022-06-18T12:00:08Z</time>
      </trkpt>
      <trkpt lat="42.3112360" lon="-8.6045930">
        <ele>123.0</ele>
        <time>2022-06-18T12:00:09Z</time>
      </trkpt>
      <trkpt lat="42.3112450" lon="-8.6045980">
        <ele>123.0</ele>
        <time>2022-06-18T12:00:10Z</time>
      </trkpt>
      <trkpt lat="42.3112510" lon="-8.6046030">
        <ele>123.0</ele>
        <time>2022-06-18T12:00:11Z</time>
      </trkpt>
      <trkpt lat="42.3112580" lon="-8.6046100">
        <ele>123.0</ele>
        <time>2022-06-18T12:00:12Z</time>
      </trkpt>
      <trkpt lat="42.3112680" lon="-8.6046180">
        <ele>123.6</ele>
        <time>2022-06-18T12:00:13Z</time>
      </trkpt>
      <trkpt lat="42.3112750" lon="-8.6046250">
        <ele>123.6</ele>
        <time>2022-06-18T12:00:14Z</time>
      </trkpt>
      <trkpt lat="42.3112830" lon="-8.6046310">
        <ele>123.6</ele>
        <time>2022-06-18T12:00:15Z</time>
      </trkpt>
      <trkpt lat="42.3112910" lon="-8.6046400">
        <ele>123.6</ele>
        <time>2022-06-18T12:00:16Z</time>
      </trkpt>
      <trkpt lat="42.3113000" lon="-8.6046480">
        <ele>123.6</ele>
        <time>2022-06-18T12:00:17Z</time>
      </trkpt>
      <trkpt lat="42.3113060" lon="-8.6046550">
        <ele>124.8</ele>
        <time>2022-06-18T12:00:18Z</time>
      </trkpt>
      <trkpt lat="42.3113150" lon="-8.6046580">
        <ele>124.8</ele>
        <time>2022-06-18T12:00:19Z</time>
      </trkpt>
      <trkpt lat="42.3113260" lon="-8.6046650">
        <ele>124.8</ele>
        <time>2022-06-18T12:00:20Z</time>
      </trkpt>
      <trkpt lat="42.3113400" lon="-8.6046730">
        <ele>124.8</ele>
        <time>2022-06-18T12:00:21Z</time>
      </trkpt>
      <trkpt lat="42.3113510" lon="-8.6046850">
        <ele>124.8</ele>
        <time>2022-06-18T12:00:22Z</time>
      </trkpt>
      <trkpt lat="42.3113610" lon="-8.6046910">
        <ele>124.8</ele>
        <time>2022-06-18T12:00:23Z</time>
      </trkpt>
      <trkpt lat="42.3113710" lon="-8.6046980">
        <ele>124.8</ele>
        <time>2022-06-18T12:00:24Z</time>
      </trkpt>
      <trkpt lat="42.3113810" lon="-8.6047030">
        <ele>125.6</ele>
        <time>2022-06-18T12:00:25Z</time>
      </trkpt>
      <trkpt lat="42.3113950" lon="-8.6047110">
        <ele>126.0</ele>
        <time>2022-06-18T12:00:26Z</time>
      </trkpt>
      <trkpt lat="42.3114060" lon="-8.6047210">
        <ele>126.0</ele>
        <time>2022-06-18T12:00:27Z</time>
      </trkpt>
      <trkpt lat="42.3114160" lon="-8.6047280">
        <ele>126.0</ele>
        <time>2022-06-18T12:00:28Z</time>
      </trkpt>
      <trkpt lat="42.3114300" lon="-8.6047350">
        <ele>126.4</ele>
        <time>2022-06-18T12:00:29Z</time>
      </trkpt>
      <trkpt lat="42.3114400" lon="-8.6047410">
        <ele>127.0</ele>
        <time>2022-06-18T12:00:30Z</time>
      </trkpt>
      <trkpt lat="42.3114510" lon="-8.6047480">
        <ele>127.0</ele>
        <time>2022-06-18T12:00:31Z</time>
      </trkpt>
      <trkpt lat="42.3114650" lon="-8.6047530">
        <ele>127.0</ele>
        <time>2022-06-18T12:00:32Z</time>
      </trkpt>
      <trkpt lat="42.3114760" lon="-8.6047580">
        <ele>127.0</ele>
        <time>2022-06-18T12:00:33Z</time>
      </trkpt>
      <trkpt lat="42.3114880" lon="-8.6047650">
        <ele>127.8</ele>
        <time>2022-06-18T12:00:34Z</time>
      </trkpt>
      <trkpt lat="42.3114960" lon="-8.6047700">
        <ele>127.8</ele>
        <time>2022-06-18T12:00:35Z</time>
      </trkpt>
      <trkpt lat="42.3115050" lon="-8.6047760">
        <ele>127.8</ele>
        <time>2022-06-18T12:00:36Z</time>
      </trkpt>
      <trkpt lat="42.3115160" lon="-8.6047830">
        <ele>127.8</ele>
        <time>2022-06-18T12:00:37Z</time>
      </trkpt>
      <trkpt lat="42.3115300" lon="-8.6047910">
        <ele>128.4</ele>
        <time>2022-06-18T12:00:38Z</time>
      </trkpt>
      <trkpt lat="42.3115400" lon="-8.6047960">
        <ele>128.4</ele>
        <time>2022-06-18T12:00:39Z</time>
      </trkpt>
      <trkpt lat="42.3115480" lon="-8.6048030">
        <ele>128.4</ele>
        <time>2022-06-18T12:00:40Z</time>
      </trkpt>
      <trkpt lat="42.3115560" lon="-8.6048080">
        <ele>128.8</ele>
        <time>2022-06-18T12:00:41Z</time>
      </trkpt>
      <trkpt lat="42.3115650" lon="-8.6048160">
        <ele>129.2</ele>
        <time>2022-06-18T12:00:42Z</time>
      </trkpt>
      <trkpt lat="42.3115730" lon="-8.6048230">
        <ele>129.2</ele>
        <time>2022-06-18T12:00:43Z</time>
      </trkpt>
      <trkpt lat="42.3115830" lon="-8.6048300">
        <ele>129.2</ele>
        <time>2022-06-18T12:00:44Z</time>
      </trkpt>
      <trkpt lat="42.3115930" lon="-8.6048380">
        <ele>129.4</ele>
        <time>2022-06-18T12:00:45Z</time>
      </trkpt>
      <trkpt lat="42.3116030" lon="-8.6048460">
        <ele>129.6</ele>
        <time>2022-06-18T12:00:46Z</time>
      </trkpt>
      <trkpt lat="42.3116130" lon="-8.6048580">
        <ele>129.6</ele>
        <time>2022-06-18T12:00:47Z</time>
      </trkpt>
      <trkpt lat="42.3116210" lon="-8.6048650">
        <ele>129.6</ele>
        <time>2022-06-18T12:00:48Z</time>
      </trkpt>
      <trkpt lat="42.3116280" lon="-8.6048750">
        <ele>130.0</ele>
        <time>2022-06-18T12:00:49Z</time>
      </trkpt>
      <trkpt lat="42.3116380" lon="-8.6048850">
        <ele>130.2</ele>
        <time>2022-06-18T12:00:50Z</time>
      </trkpt>
      <trkpt lat="42.3116500" lon="-8.6048960">
        <ele>130.2</ele>
        <time>2022-06-18T12:00:51Z</time>
      </trkpt>
      <trkpt lat="42.3116580" lon="-8.6049060">
        <ele>130.2</ele>
        <time>2022-06-18T12:00:52Z</time>
      </trkpt>
      <trkpt lat="42.3116680" lon="-8.6049150">
        <ele>130.2</ele>
        <time>2022-06-18T12:00:53Z</time>
      </trkpt>
      <trkpt lat="42.3116760" lon="-8.6049260">
        <ele>131.0</ele>
        <time>2022-06-18T12:00:54Z</time>
      </trkpt>
      <trkpt lat="42.3116850" lon="-8.6049360">
        <ele>131.0</ele>
        <time>2022-06-18T12:00:55Z</time>
      </trkpt>
      <trkpt lat="42.3116930" lon="-8.6049450">
        <ele>131.0</ele>
        <time>2022-06-18T12:00:56Z</time>
      </trkpt>
      <trkpt lat="42.3117010" lon="-8.6049560">
        <ele>131.0</ele>
        <time>2022-06-18T12:00:57Z</time>
      </trkpt>
      <trkpt lat="42.3117130" lon="-8.6049660">
        <ele>131.0</ele>
        <time>2022-06-18T12:00:58Z</time>
      </trkpt>
      <trkpt lat="42.3117230" lon="-8.6049750">
        <ele>131.0</ele>
        <time>2022-06-18T12:00:59Z</time>
      </trkpt>
      <trkpt lat="42.3117310" lon="-8.6049850">
        <ele>131.0</ele>
        <time>2022-06-18T12:01:00Z</time>
      </trkpt>
      <trkpt lat="42.3117380" lon="-8.6049950">
        <ele>131.6</ele>
        <time>2022-06-18T12:01:01Z</time>
      </trkpt>
      <trkpt lat="42.3117480" lon="-8.6050060">
        <ele>131.8</ele>
        <time>2022-06-18T12:01:02Z</time>
      </trkpt>
      <trkpt lat="42.3117530" lon="-8.6050180">
        <ele>131.8</ele>
        <time>2022-06-18T12:01:03Z</time>
      </trkpt>
      <trkpt lat="42.3117600" lon="-8.6050300">
        <ele>131.8</ele>
        <time>2022-06-18T12:01:04Z</time>
      </trkpt>
      <trkpt lat="42.3117700" lon="-8.6050360">
        <ele>132.4</ele>
        <time>2022-06-18T12:01:05Z</time>
      </trkpt>
      <trkpt lat="42.3117810" lon="-8.6050450">
        <ele>133.0</ele>
        <time>2022-06-18T12:01:06Z</time>
      </trkpt>
      <trkpt lat="42.3117910" lon="-8.6050560">
        <ele>133.0</ele>
        <time>2022-06-18T12:01:07Z</time>
      </trkpt>
      <trkpt lat="42.3118010" lon="-8.6050680">
        <ele>133.0</ele>
        <time>2022-06-18T12:01:08Z</time>
      </trkpt>
      <trkpt lat="42.3118100" lon="-8.6050760">
        <ele>133.6</ele>
        <time>2022-06-18T12:01:09Z</time>
      </trkpt>
      <trkpt lat="42.3118180" lon="-8.6050830">
        <ele>133.8</ele>
        <time>2022-06-18T12:01:10Z</time>
      </trkpt>
      <trkpt lat="42.3118310" lon="-8.6050900">
        <ele>133.8</ele>
        <time>2022-06-18T12:01:11Z</time>
      </trkpt>
      <trkpt lat="42.3118460" lon="-8.6050950">
        <ele>133.8</ele>
        <time>2022-06-18T12:01:12Z</time>
      </trkpt>
      <trkpt lat="42.3118600" lon="-8.6051010">
        <ele>133.8</ele>
        <time>2022-06-18T12:01:13Z</time>
      </trkpt>
      <trkpt lat="42.3118750" lon="-8.6051080">
        <ele>134.4</ele>
        <time>2022-06-18T12:01:14Z</time>
      </trkpt>
      <trkpt lat="42.3118880" lon="-8.6051150">
        <ele>134.4</ele>
        <time>2022-06-18T12:01:15Z</time>
      </trkpt>
      <trkpt lat="42.3119010" lon="-8.6051250">
        <ele>134.4</ele>
        <time>2022-06-18T12:01:16Z</time>
      </trkpt>
      <trkpt lat="42.3119150" lon="-8.6051300">
        <ele>134.4</ele>
        <time>2022-06-18T12:01:17Z</time>
      </trkpt>
      <trkpt lat="42.3119260" lon="-8.6051350">
        <ele>134.6</ele>
        <time>2022-06-18T12:01:18Z</time>
      </trkpt>
      <trkpt lat="42.3119360" lon="-8.6051410">
        <ele>134.6</ele>
        <time>2022-06-18T12:01:19Z</time>
      </trkpt>
      <trkpt lat="42.3119460" lon="-8.6051480">
        <ele>134.6</ele>
        <time>2022-06-18T12:01:20Z</time>
      </trkpt>
      <trkpt lat="42.3119560" lon="-8.6051530">
        <ele>135.2</ele>
        <time>2022-06-18T12:01:21Z</time>
      </trkpt>
      <trkpt lat="42.3119660" lon="-8.6051610">
        <ele>135.4</ele>
        <time>2022-06-18T12:01:22Z</time>
      </trkpt>
      <trkpt lat="42.3119750" lon="-8.6051660">
        <ele>135.4</ele>
        <time>2022-06-18T12:01:23Z</time>
      </trkpt>
      <trkpt lat="42.3119850" lon="-8.6051710">
        <ele>135.4</ele>
        <time>2022-06-18T12:01:24Z</time>
      </trkpt>
      <trkpt lat="42.3120000" lon="-8.6051730">
        <ele>135.4</ele>
        <time>2022-06-18T12:01:25Z</time>
      </trkpt>
      <trkpt lat="42.3120110" lon="-8.6051730">
        <ele>135.4</ele>
        <time>2022-06-18T12:01:26Z</time>
      </trkpt>
      <trkpt lat="42.3120210" lon="-8.6051700">
        <ele>135.4</ele>
        <time>2022-06-18T12:01:27Z</time>
      </trkpt>
      <trkpt lat="42.3120350" lon="-8.6051700">
        <ele>135.4</ele>
        <time>2022-06-18T12:01:28Z</time>
      </trkpt>
      <trkpt lat="42.3120460" lon="-8.6051710">
        <ele>136.4</ele>
        <time>2022-06-18T12:01:29Z</time>
      </trkpt>
      <trkpt lat="42.3120560" lon="-8.6051750">
        <ele>136.4</ele>
        <time>2022-06-18T12:01:30Z</time>
      </trkpt>
      <trkpt lat="42.3120650" lon="-8.6051800">
        <ele>136.4</ele>
        <time>2022-06-18T12:01:31Z</time>
      </trkpt>
      <trkpt lat="42.3120710" lon="-8.6051810">
        <ele>136.4</ele>
        <time>2022-06-18T12:01:32Z</time>
      </trkpt>
      <trkpt lat="42.3120710" lon="-8.6051810">
        <ele>137.2</ele>
        <time>2022-06-18T12:01:33Z</time>
      </trkpt>
      <trkpt lat="42.3120750" lon="-8.6051810">
        <ele>137.4</ele>
        <time>2022-06-18T12:01:34Z</time>
      </trkpt>
      <trkpt lat="42.3120880" lon="-8.6051810">
        <ele>137.4</ele>
        <time>2022-06-18T12:01:35Z</time>
      </trkpt>
      <trkpt lat="42.3121010" lon="-8.6051810">
        <ele>137.4</ele>
        <time>2022-06-18T12:01:36Z</time>
      </trkpt>
      <trkpt lat="42.3121110" lon="-8.6051810">
        <ele>137.4</ele>
        <time>2022-06-18T12:01:37Z</time>
      </trkpt>
      <trkpt lat="42.3121260" lon="-8.6051830">
        <ele>138.4</ele>
        <time>2022-06-18T12:01:38Z</time>
      </trkpt>
      <trkpt lat="42.3121430" lon="-8.6051800">
        <ele>138.4</ele>
        <time>2022-06-18T12:01:39Z</time>
      </trkpt>
      <trkpt lat="42.3121600" lon="-8.6051780">
        <ele>138.4</ele>
        <time>2022-06-18T12:01:40Z</time>
      </trkpt>
      <trkpt lat="42.3121780" lon="-8.6051780">
        <ele>139.0</ele>
        <time>2022-06-18T12:01:41Z</time>
      </trkpt>
      <trkpt lat="42.3121880" lon="-8.6051700">
        <ele>139.2</ele>
        <time>2022-06-18T12:01:42Z</time>
      </trkpt>
      <trkpt lat="42.3121960" lon="-8.6051650">
        <ele>139.2</ele>
        <time>2022-06-18T12:01:43Z</time>
      </trkpt>
      <trkpt lat="42.3122100" lon="-8.6051600">
        <ele>139.2</ele>
        <time>2022-06-18T12:01:44Z</time>
      </trkpt>
      <trkpt lat="42.3122200" lon="-8.6051530">
        <ele>139.2</ele>
        <time>2022-06-18T12:01:45Z</time>
      </trkpt>
      <trkpt lat="42.3122310" lon="-8.6051460">
        <ele>139.8</ele>
        <time>2022-06-18T12:01:46Z</time>
      </trkpt>
      <trkpt lat="42.3122430" lon="-8.6051400">
        <ele>139.8</ele>
        <time>2022-06-18T12:01:47Z</time>
      </trkpt>
      <trkpt lat="42.3122530" lon="-8.6051400">
        <ele>139.8</ele>
        <time>2022-06-18T12:01:48Z</time>
      </trkpt>
      <trkpt lat="42.3122630" lon="-8.6051360">
        <ele>140.4</ele>
        <time>2022-06-18T12:01:49Z</time>
      </trkpt>
      <trkpt lat="42.3122710" lon="-8.6051300">
        <ele>140.6</ele>
        <time>2022-06-18T12:01:50Z</time>
      </trkpt>
      <trkpt lat="42.3122800" lon="-8.6051250">
        <ele>140.6</ele>
        <time>2022-06-18T12:01:51Z</time>
      </trkpt>
      <trkpt lat="42.3122910" lon="-8.6051180">
        <ele>140.6</ele>
        <time>2022-06-18T12:01:52Z</time>
      </trkpt>
      <trkpt lat="42.3123030" lon="-8.6051050">
        <ele>141.4</ele>
        <time>2022-06-18T12:01:53Z</time>
      </trkpt>
      <trkpt lat="42.3123160" lon="-8.6050910">
        <ele>141.4</ele>
        <time>2022-06-18T12:01:54Z</time>
      </trkpt>
      <trkpt lat="42.3123260" lon="-8.6050850">
        <ele>141.4</ele>
        <time>2022-06-18T12:01:55Z</time>
      </trkpt>
      <trkpt lat="42.3123330" lon="-8.6050780">
        <ele>141.4</ele>
        <time>2022-06-18T12:01:56Z</time>
      </trkpt>
      <trkpt lat="42.3123410" lon="-8.6050730">
        <ele>142.0</ele>
        <time>2022-06-18T12:01:57Z</time>
      </trkpt>
      <trkpt lat="42.3123550" lon="-8.6050650">
        <ele>142.4</ele>
        <time>2022-06-18T12:01:58Z</time>
      </trkpt>
      <trkpt lat="42.3123610" lon="-8.6050530">
        <ele>142.4</ele>
        <time>2022-06-18T12:01:59Z</time>
      </trkpt>
      <trkpt lat="42.3123700" lon="-8.6050360">
        <ele>142.4</ele>
        <time>2022-06-18T12:02:00Z</time>
      </trkpt>
      <trkpt lat="42.3123800" lon="-8.6050300">
        <ele>142.4</ele>
        <time>2022-06-18T12:02:01Z</time>
      </trkpt>
      <trkpt lat="42.3123880" lon="-8.6050230">
        <ele>142.8</ele>
        <time>2022-06-18T12:02:02Z</time>
      </trkpt>
      <trkpt lat="42.3124000" lon="-8.6050130">
        <ele>142.8</ele>
        <time>2022-06-18T12:02:03Z</time>
      </trkpt>
      <trkpt lat="42.3124150" lon="-8.6050030">
        <ele>142.8</ele>
        <time>2022-06-18T12:02:04Z</time>
      </trkpt>
      <trkpt lat="42.3124260" lon="-8.6049950">
        <ele>143.4</ele>
        <time>2022-06-18T12:02:05Z</time>
      </trkpt>
      <trkpt lat="42.3124360" lon="-8.6049880">
        <ele>144.0</ele>
        <time>2022-06-18T12:02:06Z</time>
      </trkpt>
      <trkpt lat="42.3124480" lon="-8.6049800">
        <ele>144.0</ele>
        <time>2022-06-18T12:02:07Z</time>
      </trkpt>
      <trkpt lat="42.3124560" lon="-8.6049660">
        <ele>144.0</ele>
        <time>2022-06-18T12:02:08Z</time>
      </trkpt>
      <trkpt lat="42.3124650" lon="-8.6049560">
        <ele>144.0</ele>
        <time>2022-06-18T12:02:09Z</time>
      </trkpt>
      <trkpt lat="42.3124750" lon="-8.6049460">
        <ele>144.6</ele>
        <time>2022-06-18T12:02:10Z</time>
      </trkpt>
      <trkpt lat="42.3124850" lon="-8.6049360">
        <ele>144.6</ele>
        <time>2022-06-18T12:02:11Z</time>
      </trkpt>
      <trkpt lat="42.3124930" lon="-8.6049250">
        <ele>144.6</ele>
        <time>2022-06-18T12:02:12Z</time>
      </trkpt>
      <trkpt lat="42.3125010" lon="-8.6049160">
        <ele>145.2</ele>
        <time>2022-06-18T12:02:13Z</time>
      </trkpt>
      <trkpt lat="42.3125100" lon="-8.6049080">
        <ele>145.2</ele>
        <time>2022-06-18T12:02:14Z</time>
      </trkpt>
      <trkpt lat="42.3125160" lon="-8.6048950">
        <ele>145.2</ele>
        <time>2022-06-18T12:02:15Z</time>
      </trkpt>
      <trkpt lat="42.3125250" lon="-8.6048850">
        <ele>145.2</ele>
        <time>2022-06-18T12:02:16Z</time>
      </trkpt>
      <trkpt lat="42.3125300" lon="-8.6048750">
        <ele>146.2</ele>
        <time>2022-06-18T12:02:17Z</time>
      </trkpt>
      <trkpt lat="42.3125380" lon="-8.6048650">
        <ele>146.2</ele>
        <time>2022-06-18T12:02:18Z</time>
      </trkpt>
      <trkpt lat="42.3125480" lon="-8.6048560">
        <ele>146.2</ele>
        <time>2022-06-18T12:02:19Z</time>
      </trkpt>
      <trkpt lat="42.3125560" lon="-8.6048500">
        <ele>146.2</ele>
        <time>2022-06-18T12:02:20Z</time>
      </trkpt>
      <trkpt lat="42.3125630" lon="-8.6048410">
        <ele>146.8</ele>
        <time>2022-06-18T12:02:21Z</time>
      </trkpt>
      <trkpt lat="42.3125730" lon="-8.6048310">
        <ele>147.2</ele>
        <time>2022-06-18T12:02:22Z</time>
      </trkpt>
      <trkpt lat="42.3125830" lon="-8.6048250">
        <ele>147.2</ele>
        <time>2022-06-18T12:02:23Z</time>
      </trkpt>
      <trkpt lat="42.3125900" lon="-8.6048180">
        <ele>147.2</ele>
        <time>2022-06-18T12:02:24Z</time>
      </trkpt>
      <trkpt lat="42.3125960" lon="-8.6048080">
        <ele>147.6</ele>
        <time>2022-06-18T12:02:25Z</time>
      </trkpt>
      <trkpt lat="42.3126030" lon="-8.6048010">
        <ele>147.8</ele>
        <time>2022-06-18T12:02:26Z</time>
      </trkpt>
      <trkpt lat="42.3126130" lon="-8.6047960">
        <ele>147.8</ele>
        <time>2022-06-18T12:02:27Z</time>
      </trkpt>
      <trkpt lat="42.3126210" lon="-8.6047930">
        <ele>147.8</ele>
        <time>2022-06-18T12:02:28Z</time>
      </trkpt>
      <trkpt lat="42.3126310" lon="-8.6047880">
        <ele>148.4</ele>
        <time>2022-06-18T12:02:29Z</time>
      </trkpt>
      <trkpt lat="42.3126410" lon="-8.6047810">
        <ele>148.8</ele>
        <time>2022-06-18T12:02:30Z</time>
      </trkpt>
      <trkpt lat="42.3126500" lon="-8.6047780">
        <ele>148.8</ele>
        <time>2022-06-18T12:02:31Z</time>
      </trkpt>
      <trkpt lat="42.3126610" lon="-8.6047710">
        <ele>148.8</ele>
        <time>2022-06-18T12:02:32Z</time>
      </trkpt>
      <trkpt lat="42.3126700" lon="-8.6047730">
        <ele>149.4</ele>
        <time>2022-06-18T12:02:33Z</time>
      </trkpt>
      <trkpt lat="42.3126810" lon="-8.6047730">
        <ele>149.4</ele>
        <time>2022-06-18T12:02:34Z</time>
      </trkpt>
      <trkpt lat="42.3126910" lon="-8.6047750">
        <ele>149.4</ele>
        <time>2022-06-18T12:02:35Z</time>
      </trkpt>
      <trkpt lat="42.3127010" lon="-8.6047780">
        <ele>149.4</ele>
        <time>2022-06-18T12:02:36Z</time>
      </trkpt>
      <trkpt lat="42.3127100" lon="-8.6047800">
        <ele>150.2</ele>
        <time>2022-06-18T12:02:37Z</time>
      </trkpt>
      <trkpt lat="42.3127230" lon="-8.6047800">
        <ele>150.4</ele>
        <time>2022-06-18T12:02:38Z</time>
      </trkpt>
      <trkpt lat="42.3127350" lon="-8.6047760">
        <ele>150.4</ele>
        <time>2022-06-18T12:02:39Z</time>
      </trkpt>
      <trkpt lat="42.3127480" lon="-8.6047750">
        <ele>150.4</ele>
        <time>2022-06-18T12:02:40Z</time>
      </trkpt>
      <trkpt lat="42.3127560" lon="-8.6047700">
        <ele>151.2</ele>
        <time>2022-06-18T12:02:41Z</time>
      </trkpt>
      <trkpt lat="42.3127580" lon="-8.6047600">
        <ele>151.4</ele>
        <time>2022-06-18T12:02:42Z</time>
      </trkpt>
      <trkpt lat="42.3127550" lon="-8.6047650">
        <ele>151.4</ele>
        <time>2022-06-18T12:02:43Z</time>
      </trkpt>
      <trkpt lat="42.3127450" lon="-8.6047700">
        <ele>151.4</ele>
        <time>2022-06-18T12:02:44Z</time>
      </trkpt>
      <trkpt lat="42.3127300" lon="-8.6047630">
        <ele>150.4</ele>
        <time>2022-06-18T12:02:45Z</time>
      </trkpt>
      <trkpt lat="42.3127080" lon="-8.6047580">
        <ele>149.8</ele>
        <time>2022-06-18T12:02:46Z</time>
      </trkpt>
      <trkpt lat="42.3126810" lon="-8.6047660">
        <ele>149.8</ele>
        <time>2022-06-18T12:02:47Z</time>
      </trkpt>
      <trkpt lat="42.3126510" lon="-8.6047780">
        <ele>149.8</ele>
        <time>2022-06-18T12:02:48Z</time>
      </trkpt>
      <trkpt lat="42.3126210" lon="-8.6048000">
        <ele>148.8</ele>
        <time>2022-06-18T12:02:49Z</time>
      </trkpt>
      <trkpt lat="42.3125880" lon="-8.6048260">
        <ele>146.0</ele>
        <time>2022-06-18T12:02:50Z</time>
      </trkpt>
      <trkpt lat="42.3125580" lon="-8.6048580">
        <ele>146.0</ele>
        <time>2022-06-18T12:02:51Z</time>
      </trkpt>
      <trkpt lat="42.3125230" lon="-8.6048760">
        <ele>146.0</ele>
        <time>2022-06-18T12:02:52Z</time>
      </trkpt>
      <trkpt lat="42.3124860" lon="-8.6049060">
        <ele>145.0</ele>
        <time>2022-06-18T12:02:53Z</time>
      </trkpt>
      <trkpt lat="42.3124500" lon="-8.6049360">
        <ele>142.2</ele>
        <time>2022-06-18T12:02:54Z</time>
      </trkpt>
      <trkpt lat="42.3124110" lon="-8.6049660">
        <ele>142.2</ele>
        <time>2022-06-18T12:02:55Z</time>
      </trkpt>
      <trkpt lat="42.3123730" lon="-8.6049980">
        <ele>142.2</ele>
        <time>2022-06-18T12:02:56Z</time>
      </trkpt>
      <trkpt lat="42.3123280" lon="-8.6050260">
        <ele>141.2</ele>
        <time>2022-06-18T12:02:57Z</time>
      </trkpt>
      <trkpt lat="42.3122880" lon="-8.6050500">
        <ele>138.2</ele>
        <time>2022-06-18T12:02:58Z</time>
      </trkpt>
      <trkpt lat="42.3122400" lon="-8.6050680">
        <ele>138.2</ele>
        <time>2022-06-18T12:02:59Z</time>
      </trkpt>
      <trkpt lat="42.3121800" lon="-8.6050850">
        <ele>138.2</ele>
        <time>2022-06-18T12:03:00Z</time>
      </trkpt>
      <trkpt lat="42.3121210" lon="-8.6050960">
        <ele>137.2</ele>
        <time>2022-06-18T12:03:01Z</time>
      </trkpt>
      <trkpt lat="42.3120680" lon="-8.6050950">
        <ele>134.4</ele>
        <time>2022-06-18T12:03:02Z</time>
      </trkpt>
      <trkpt lat="42.3120150" lon="-8.6050850">
        <ele>134.4</ele>
        <time>2022-06-18T12:03:03Z</time>
      </trkpt>
      <trkpt lat="42.3119650" lon="-8.6050680">
        <ele>134.4</ele>
        <time>2022-06-18T12:03:04Z</time>
      </trkpt>
      <trkpt lat="42.3119260" lon="-8.6050550">
        <ele>133.6</ele>
        <time>2022-06-18T12:03:05Z</time>
      </trkpt>
      <trkpt lat="42.3119000" lon="-8.6050360">
        <ele>133.8</ele>
        <time>2022-06-18T12:03:06Z</time>
      </trkpt>
      <trkpt lat="42.3118780" lon="-8.6050210">
        <ele>133.8</ele>
        <time>2022-06-18T12:03:07Z</time>
      </trkpt>
      <trkpt lat="42.3118610" lon="-8.6050150">
        <ele>133.8</ele>
        <time>2022-06-18T12:03:08Z</time>
      </trkpt>
      <trkpt lat="42.3118450" lon="-8.6050110">
        <ele>133.0</ele>
        <time>2022-06-18T12:03:09Z</time>
      </trkpt>
      <trkpt lat="42.3118310" lon="-8.6050210">
        <ele>132.8</ele>
        <time>2022-06-18T12:03:10Z</time>
      </trkpt>
      <trkpt lat="42.3118200" lon="-8.6050380">
        <ele>132.8</ele>
        <time>2022-06-18T12:03:11Z</time>
      </trkpt>
      <trkpt lat="42.3118210" lon="-8.6050700">
        <ele>132.8</ele>
        <time>2022-06-18T12:03:12Z</time>
      </trkpt>
      <trkpt lat="42.3118350" lon="-8.6051000">
        <ele>132.6</ele>
        <time>2022-06-18T12:03:13Z</time>
      </trkpt>
      <trkpt lat="42.3118510" lon="-8.6051260">
        <ele>132.0</ele>
        <time>2022-06-18T12:03:14Z</time>
      </trkpt>
      <trkpt lat="42.3118660" lon="-8.6051480">
        <ele>132.0</ele>
        <time>2022-06-18T12:03:15Z</time>
      </trkpt>
      <trkpt lat="42.3118850" lon="-8.6051700">
        <ele>132.0</ele>
        <time>2022-06-18T12:03:16Z</time>
      </trkpt>
      <trkpt lat="42.3118980" lon="-8.6051860">
        <ele>132.0</ele>
        <time>2022-06-18T12:03:17Z</time>
      </trkpt>
      <trkpt lat="42.3119130" lon="-8.6052010">
        <ele>132.6</ele>
        <time>2022-06-18T12:03:18Z</time>
      </trkpt>
      <trkpt lat="42.3119280" lon="-8.6052230">
        <ele>132.6</ele>
        <time>2022-06-18T12:03:19Z</time>
      </trkpt>
      <trkpt lat="42.3119450" lon="-8.6052500">
        <ele>132.6</ele>
        <time>2022-06-18T12:03:20Z</time>
      </trkpt>
      <trkpt lat="42.3119610" lon="-8.6052750">
        <ele>132.6</ele>
        <time>2022-06-18T12:03:21Z</time>
      </trkpt>
      <trkpt lat="42.3119810" lon="-8.6052980">
        <ele>132.6</ele>
        <time>2022-06-18T12:03:22Z</time>
      </trkpt>
      <trkpt lat="42.3120010" lon="-8.6053210">
        <ele>132.6</ele>
        <time>2022-06-18T12:03:23Z</time>
      </trkpt>
      <trkpt lat="42.3120210" lon="-8.6053500">
        <ele>132.6</ele>
        <time>2022-06-18T12:03:24Z</time>
      </trkpt>
      <trkpt lat="42.3120410" lon="-8.6053750">
        <ele>132.4</ele>
        <time>2022-06-18T12:03:25Z</time>
      </trkpt>
      <trkpt lat="42.3120580" lon="-8.6053960">
        <ele>132.2</ele>
        <time>2022-06-18T12:03:26Z</time>
      </trkpt>
      <trkpt lat="42.3120800" lon="-8.6054200">
        <ele>132.2</ele>
        <time>2022-06-18T12:03:27Z</time>
      </trkpt>
      <trkpt lat="42.3121010" lon="-8.6054450">
        <ele>132.2</ele>
        <time>2022-06-18T12:03:28Z</time>
      </trkpt>
      <trkpt lat="42.3121230" lon="-8.6054700">
        <ele>132.6</ele>
        <time>2022-06-18T12:03:29Z</time>
      </trkpt>
      <trkpt lat="42.3121450" lon="-8.6054910">
        <ele>132.8</ele>
        <time>2022-06-18T12:03:30Z</time>
      </trkpt>
      <trkpt lat="42.3121650" lon="-8.6055130">
        <ele>132.8</ele>
        <time>2022-06-18T12:03:31Z</time>
      </trkpt>
      <trkpt lat="42.3121850" lon="-8.6055330">
        <ele>132.8</ele>
        <time>2022-06-18T12:03:32Z</time>
      </trkpt>
      <trkpt lat="42.3122050" lon="-8.6055500">
        <ele>132.8</ele>
        <time>2022-06-18T12:03:33Z</time>
      </trkpt>
      <trkpt lat="42.3122280" lon="-8.6055660">
        <ele>132.0</ele>
        <time>2022-06-18T12:03:34Z</time>
      </trkpt>
      <trkpt lat="42.3122530" lon="-8.6055860">
        <ele>132.0</ele>
        <time>2022-06-18T12:03:35Z</time>
      </trkpt>
      <trkpt lat="42.3122760" lon="-8.6056050">
        <ele>132.0</ele>
        <time>2022-06-18T12:03:36Z</time>
      </trkpt>
      <trkpt lat="42.3123030" lon="-8.6056230">
        <ele>132.0</ele>
        <time>2022-06-18T12:03:37Z</time>
      </trkpt>
      <trkpt lat="42.3123260" lon="-8.6056400">
        <ele>133.0</ele>
        <time>2022-06-18T12:03:38Z</time>
      </trkpt>
      <trkpt lat="42.3123510" lon="-8.6056580">
        <ele>133.0</ele>
        <time>2022-06-18T12:03:39Z</time>
      </trkpt>
      <trkpt lat="42.3123780" lon="-8.6056750">
        <ele>133.0</ele>
        <time>2022-06-18T12:03:40Z</time>
      </trkpt>
      <trkpt lat="42.3124030" lon="-8.6056910">
        <ele>133.0</ele>
        <time>2022-06-18T12:03:41Z</time>
      </trkpt>
      <trkpt lat="42.3124300" lon="-8.6057080">
        <ele>132.8</ele>
        <time>2022-06-18T12:03:42Z</time>
      </trkpt>
      <trkpt lat="42.3124550" lon="-8.6057260">
        <ele>132.8</ele>
        <time>2022-06-18T12:03:43Z</time>
      </trkpt>
      <trkpt lat="42.3124800" lon="-8.6057430">
        <ele>132.8</ele>
        <time>2022-06-18T12:03:44Z</time>
      </trkpt>
      <trkpt lat="42.3125060" lon="-8.6057580">
        <ele>132.8</ele>
        <time>2022-06-18T12:03:45Z</time>
      </trkpt>
      <trkpt lat="42.3125350" lon="-8.6057700">
        <ele>133.4</ele>
        <time>2022-06-18T12:03:46Z</time>
      </trkpt>
      <trkpt lat="42.3125600" lon="-8.6057830">
        <ele>133.4</ele>
        <time>2022-06-18T12:03:47Z</time>
      </trkpt>
      <trkpt lat="42.3125880" lon="-8.6057950">
        <ele>133.4</ele>
        <time>2022-06-18T12:03:48Z</time>
      </trkpt>
      <trkpt lat="42.3126150" lon="-8.6058080">
        <ele>133.4</ele>
        <time>2022-06-18T12:03:49Z</time>
      </trkpt>
      <trkpt lat="42.3126430" lon="-8.6058180">
        <ele>133.8</ele>
        <time>2022-06-18T12:03:50Z</time>
      </trkpt>
      <trkpt lat="42.3126710" lon="-8.6058280">
        <ele>133.8</ele>
        <time>2022-06-18T12:03:51Z</time>
      </trkpt>
      <trkpt lat="42.3126980" lon="-8.6058400">
        <ele>133.8</ele>
        <time>2022-06-18T12:03:52Z</time>
      </trkpt>
      <trkpt lat="42.3127260" lon="-8.6058530">
        <ele>133.8</ele>
        <time>2022-06-18T12:03:53Z</time>
      </trkpt>
      <trkpt lat="42.3127550" lon="-8.6058650">
        <ele>134.2</ele>
        <time>2022-06-18T12:03:54Z</time>
      </trkpt>
      <trkpt lat="42.3127810" lon="-8.6058760">
        <ele>134.2</ele>
        <time>2022-06-18T12:03:55Z</time>
      </trkpt>
      <trkpt lat="42.3128030" lon="-8.6058880">
        <ele>134.2</ele>
        <time>2022-06-18T12:03:56Z</time>
      </trkpt>
      <trkpt lat="42.3128260" lon="-8.6059000">
        <ele>135.2</ele>
        <time>2022-06-18T12:03:57Z</time>
      </trkpt>
      <trkpt lat="42.3128510" lon="-8.6059110">
        <ele>134.8</ele>
        <time>2022-06-18T12:03:58Z</time>
      </trkpt>
      <trkpt lat="42.3128760" lon="-8.6059230">
        <ele>134.8</ele>
        <time>2022-06-18T12:03:59Z</time>
      </trkpt>
      <trkpt lat="42.3129030" lon="-8.6059310">
        <ele>134.8</ele>
        <time>2022-06-18T12:04:00Z</time>
      </trkpt>
      <trkpt lat="42.3129260" lon="-8.6059430">
        <ele>134.8</ele>
        <time>2022-06-18T12:04:01Z</time>
      </trkpt>
      <trkpt lat="42.3129510" lon="-8.6059560">
        <ele>135.2</ele>
        <time>2022-06-18T12:04:02Z</time>
      </trkpt>
      <trkpt lat="42.3129730" lon="-8.6059680">
        <ele>135.2</ele>
        <time>2022-06-18T12:04:03Z</time>
      </trkpt>
      <trkpt lat="42.3129950" lon="-8.6059800">
        <ele>135.2</ele>
        <time>2022-06-18T12:04:04Z</time>
      </trkpt>
      <trkpt lat="42.3130180" lon="-8.6059910">
        <ele>136.2</ele>
        <time>2022-06-18T12:04:05Z</time>
      </trkpt>
      <trkpt lat="42.3130430" lon="-8.6060030">
        <ele>136.0</ele>
        <time>2022-06-18T12:04:06Z</time>
      </trkpt>
      <trkpt lat="42.3130650" lon="-8.6060150">
        <ele>136.0</ele>
        <time>2022-06-18T12:04:07Z</time>
      </trkpt>
      <trkpt lat="42.3130880" lon="-8.6060250">
        <ele>136.0</ele>
        <time>2022-06-18T12:04:08Z</time>
      </trkpt>
      <trkpt lat="42.3131110" lon="-8.6060350">
        <ele>136.4</ele>
        <time>2022-06-18T12:04:09Z</time>
      </trkpt>
      <trkpt lat="42.3131330" lon="-8.6060430">
        <ele>136.8</ele>
        <time>2022-06-18T12:04:10Z</time>
      </trkpt>
      <trkpt lat="42.3131550" lon="-8.6060530">
        <ele>136.8</ele>
        <time>2022-06-18T12:04:11Z</time>
      </trkpt>
      <trkpt lat="42.3131710" lon="-8.6060610">
        <ele>136.8</ele>
        <time>2022-06-18T12:04:12Z</time>
      </trkpt>
      <trkpt lat="42.3131880" lon="-8.6060700">
        <ele>137.6</ele>
        <time>2022-06-18T12:04:13Z</time>
      </trkpt>
      <trkpt lat="42.3132080" lon="-8.6060760">
        <ele>137.4</ele>
        <time>2022-06-18T12:04:14Z</time>
      </trkpt>
      <trkpt lat="42.3132260" lon="-8.6060850">
        <ele>137.4</ele>
        <time>2022-06-18T12:04:15Z</time>
      </trkpt>
      <trkpt lat="42.3132430" lon="-8.6060930">
        <ele>137.4</ele>
        <time>2022-06-18T12:04:16Z</time>
      </trkpt>
      <trkpt lat="42.3132600" lon="-8.6061000">
        <ele>137.4</ele>
        <time>2022-06-18T12:04:17Z</time>
      </trkpt>
      <trkpt lat="42.3132800" lon="-8.6061060">
        <ele>138.2</ele>
        <time>2022-06-18T12:04:18Z</time>
      </trkpt>
      <trkpt lat="42.3133010" lon="-8.6061130">
        <ele>138.2</ele>
        <time>2022-06-18T12:04:19Z</time>
      </trkpt>
      <trkpt lat="42.3133210" lon="-8.6061180">
        <ele>138.2</ele>
        <time>2022-06-18T12:04:20Z</time>
      </trkpt>
      <trkpt lat="42.3133410" lon="-8.6061280">
        <ele>139.2</ele>
        <time>2022-06-18T12:04:21Z</time>
      </trkpt>
      <trkpt lat="42.3133600" lon="-8.6061380">
        <ele>138.6</ele>
        <time>2022-06-18T12:04:22Z</time>
      </trkpt>
      <trkpt lat="42.3133780" lon="-8.6061450">
        <ele>138.6</ele>
        <time>2022-06-18T12:04:23Z</time>
      </trkpt>
      <trkpt lat="42.3133960" lon="-8.6061410">
        <ele>138.6</ele>
        <time>2022-06-18T12:04:24Z</time>
      </trkpt>
      <trkpt lat="42.3134160" lon="-8.6061430">
        <ele>139.2</ele>
        <time>2022-06-18T12:04:25Z</time>
      </trkpt>
      <trkpt lat="42.3134350" lon="-8.6061480">
        <ele>139.6</ele>
        <time>2022-06-18T12:04:26Z</time>
      </trkpt>
      <trkpt lat="42.3134530" lon="-8.6061500">
        <ele>139.6</ele>
        <time>2022-06-18T12:04:27Z</time>
      </trkpt>
      <trkpt lat="42.3134700" lon="-8.6061500">
        <ele>139.6</ele>
        <time>2022-06-18T12:04:28Z</time>
      </trkpt>
      <trkpt lat="42.3134900" lon="-8.6061480">
        <ele>139.6</ele>
        <time>2022-06-18T12:04:29Z</time>
      </trkpt>
      <trkpt lat="42.3135100" lon="-8.6061480">
        <ele>140.6</ele>
        <time>2022-06-18T12:04:30Z</time>
      </trkpt>
      <trkpt lat="42.3135280" lon="-8.6061500">
        <ele>140.6</ele>
        <time>2022-06-18T12:04:31Z</time>
      </trkpt>
      <trkpt lat="42.3135460" lon="-8.6061550">
        <ele>140.6</ele>
        <time>2022-06-18T12:04:32Z</time>
      </trkpt>
      <trkpt lat="42.3135660" lon="-8.6061560">
        <ele>140.6</ele>
        <time>2022-06-18T12:04:33Z</time>
      </trkpt>
      <trkpt lat="42.3135880" lon="-8.6061530">
        <ele>140.8</ele>
        <time>2022-06-18T12:04:34Z</time>
      </trkpt>
      <trkpt lat="42.3136060" lon="-8.6061580">
        <ele>140.8</ele>
        <time>2022-06-18T12:04:35Z</time>
      </trkpt>
      <trkpt lat="42.3136280" lon="-8.6061600">
        <ele>140.8</ele>
        <time>2022-06-18T12:04:36Z</time>
      </trkpt>
      <trkpt lat="42.3136510" lon="-8.6061550">
        <ele>140.8</ele>
        <time>2022-06-18T12:04:37Z</time>
      </trkpt>
      <trkpt lat="42.3136750" lon="-8.6061550">
        <ele>141.0</ele>
        <time>2022-06-18T12:04:38Z</time>
      </trkpt>
      <trkpt lat="42.3136930" lon="-8.6061550">
        <ele>141.0</ele>
        <time>2022-06-18T12:04:39Z</time>
      </trkpt>
      <trkpt lat="42.3137100" lon="-8.6061530">
        <ele>141.0</ele>
        <time>2022-06-18T12:04:40Z</time>
      </trkpt>
      <trkpt lat="42.3137300" lon="-8.6061510">
        <ele>141.8</ele>
        <time>2022-06-18T12:04:41Z</time>
      </trkpt>
      <trkpt lat="42.3137510" lon="-8.6061500">
        <ele>142.2</ele>
        <time>2022-06-18T12:04:42Z</time>
      </trkpt>
      <trkpt lat="42.3137700" lon="-8.6061500">
        <ele>142.2</ele>
        <time>2022-06-18T12:04:43Z</time>
      </trkpt>
      <trkpt lat="42.3137900" lon="-8.6061510">
        <ele>142.2</ele>
        <time>2022-06-18T12:04:44Z</time>
      </trkpt>
      <trkpt lat="42.3138100" lon="-8.6061510">
        <ele>142.6</ele>
        <time>2022-06-18T12:04:45Z</time>
      </trkpt>
      <trkpt lat="42.3138260" lon="-8.6061530">
        <ele>142.6</ele>
        <time>2022-06-18T12:04:46Z</time>
      </trkpt>
      <trkpt lat="42.3138460" lon="-8.6061560">
        <ele>142.6</ele>
        <time>2022-06-18T12:04:47Z</time>
      </trkpt>
      <trkpt lat="42.3138660" lon="-8.6061600">
        <ele>142.6</ele>
        <time>2022-06-18T12:04:48Z</time>
      </trkpt>
      <trkpt lat="42.3138880" lon="-8.6061610">
        <ele>142.8</ele>
        <time>2022-06-18T12:04:49Z</time>
      </trkpt>
      <trkpt lat="42.3139100" lon="-8.6061650">
        <ele>143.2</ele>
        <time>2022-06-18T12:04:50Z</time>
      </trkpt>
      <trkpt lat="42.3139300" lon="-8.6061700">
        <ele>143.2</ele>
        <time>2022-06-18T12:04:51Z</time>
      </trkpt>
      <trkpt lat="42.3139500" lon="-8.6061760">
        <ele>143.2</ele>
        <time>2022-06-18T12:04:52Z</time>
      </trkpt>
      <trkpt lat="42.3139680" lon="-8.6061830">
        <ele>143.2</ele>
        <time>2022-06-18T12:04:53Z</time>
      </trkpt>
      <trkpt lat="42.3139850" lon="-8.6061880">
        <ele>143.8</ele>
        <time>2022-06-18T12:04:54Z</time>
      </trkpt>
      <trkpt lat="42.3140010" lon="-8.6061960">
        <ele>143.8</ele>
        <time>2022-06-18T12:04:55Z</time>
      </trkpt>
      <trkpt lat="42.3140250" lon="-8.6062080">
        <ele>143.8</ele>
        <time>2022-06-18T12:04:56Z</time>
      </trkpt>
      <trkpt lat="42.3140460" lon="-8.6062180">
        <ele>143.8</ele>
        <time>2022-06-18T12:04:57Z</time>
      </trkpt>
      <trkpt lat="42.3140630" lon="-8.6062260">
        <ele>144.0</ele>
        <time>2022-06-18T12:04:58Z</time>
      </trkpt>
      <trkpt lat="42.3140860" lon="-8.6062330">
        <ele>144.0</ele>
        <time>2022-06-18T12:04:59Z</time>
      </trkpt>
      <trkpt lat="42.3141060" lon="-8.6062380">
        <ele>144.0</ele>
        <time>2022-06-18T12:05:00Z</time>
      </trkpt>
      <trkpt lat="42.3141260" lon="-8.6062500">
        <ele>144.0</ele>
        <time>2022-06-18T12:05:01Z</time>
      </trkpt>
      <trkpt lat="42.3141500" lon="-8.6062600">
        <ele>144.4</ele>
        <time>2022-06-18T12:05:02Z</time>
      </trkpt>
      <trkpt lat="42.3141710" lon="-8.6062710">
        <ele>144.4</ele>
        <time>2022-06-18T12:05:03Z</time>
      </trkpt>
      <trkpt lat="42.3141900" lon="-8.6062810">
        <ele>144.4</ele>
        <time>2022-06-18T12:05:04Z</time>
      </trkpt>
      <trkpt lat="42.3142080" lon="-8.6062910">
        <ele>145.2</ele>
        <time>2022-06-18T12:05:05Z</time>
      </trkpt>
      <trkpt lat="42.3142260" lon="-8.6062980">
        <ele>145.2</ele>
        <time>2022-06-18T12:05:06Z</time>
      </trkpt>
      <trkpt lat="42.3142430" lon="-8.6063060">
        <ele>145.2</ele>
        <time>2022-06-18T12:05:07Z</time>
      </trkpt>
      <trkpt lat="42.3142610" lon="-8.6063150">
        <ele>145.2</ele>
        <time>2022-06-18T12:05:08Z</time>
      </trkpt>
      <trkpt lat="42.3142800" lon="-8.6063200">
        <ele>145.4</ele>
        <time>2022-06-18T12:05:09Z</time>
      </trkpt>
      <trkpt lat="42.3143000" lon="-8.6063300">
        <ele>146.0</ele>
        <time>2022-06-18T12:05:10Z</time>
      </trkpt>
      <trkpt lat="42.3143180" lon="-8.6063410">
        <ele>146.0</ele>
        <time>2022-06-18T12:05:11Z</time>
      </trkpt>
      <trkpt lat="42.3143380" lon="-8.6063530">
        <ele>146.0</ele>
        <time>2022-06-18T12:05:12Z</time>
      </trkpt>
      <trkpt lat="42.3143560" lon="-8.6063660">
        <ele>146.0</ele>
        <time>2022-06-18T12:05:13Z</time>
      </trkpt>
      <trkpt lat="42.3143700" lon="-8.6063810">
        <ele>145.8</ele>
        <time>2022-06-18T12:05:14Z</time>
      </trkpt>
      <trkpt lat="42.3143880" lon="-8.6063950">
        <ele>145.8</ele>
        <time>2022-06-18T12:05:15Z</time>
      </trkpt>
      <trkpt lat="42.3144060" lon="-8.6064100">
        <ele>145.8</ele>
        <time>2022-06-18T12:05:16Z</time>
      </trkpt>
      <trkpt lat="42.3144230" lon="-8.6064280">
        <ele>145.8</ele>
        <time>2022-06-18T12:05:17Z</time>
      </trkpt>
      <trkpt lat="42.3144380" lon="-8.6064500">
        <ele>145.4</ele>
        <time>2022-06-18T12:05:18Z</time>
      </trkpt>
      <trkpt lat="42.3144510" lon="-8.6064630">
        <ele>145.4</ele>
        <time>2022-06-18T12:05:19Z</time>
      </trkpt>
      <trkpt lat="42.3144680" lon="-8.6064750">
        <ele>145.4</ele>
        <time>2022-06-18T12:05:20Z</time>
      </trkpt>
      <trkpt lat="42.3144810" lon="-8.6064860">
        <ele>145.4</ele>
        <time>2022-06-18T12:05:21Z</time>
      </trkpt>
      <trkpt lat="42.3144950" lon="-8.6065030">
        <ele>146.4</ele>
        <time>2022-06-18T12:05:22Z</time>
      </trkpt>
      <trkpt lat="42.3145130" lon="-8.6065210">
        <ele>146.4</ele>
        <time>2022-06-18T12:05:23Z</time>
      </trkpt>
      <trkpt lat="42.3145250" lon="-8.6065330">
        <ele>146.4</ele>
        <time>2022-06-18T12:05:24Z</time>
      </trkpt>
      <trkpt lat="42.3145380" lon="-8.6065380">
        <ele>146.8</ele>
        <time>2022-06-18T12:05:25Z</time>
      </trkpt>
      <trkpt lat="42.3145510" lon="-8.6065550">
        <ele>147.4</ele>
        <time>2022-06-18T12:05:26Z</time>
      </trkpt>
      <trkpt lat="42.3145650" lon="-8.6065680">
        <ele>147.4</ele>
        <time>2022-06-18T12:05:27Z</time>
      </trkpt>
      <trkpt lat="42.3145810" lon="-8.6065800">
        <ele>147.4</ele>
        <time>2022-06-18T12:05:28Z</time>
      </trkpt>
      <trkpt lat="42.3146000" lon="-8.6065900">
        <ele>147.4</ele>
        <time>2022-06-18T12:05:29Z</time>
      </trkpt>
      <trkpt lat="42.3146150" lon="-8.6066010">
        <ele>147.8</ele>
        <time>2022-06-18T12:05:30Z</time>
      </trkpt>
      <trkpt lat="42.3146310" lon="-8.6066150">
        <ele>147.8</ele>
        <time>2022-06-18T12:05:31Z</time>
      </trkpt>
      <trkpt lat="42.3146480" lon="-8.6066250">
        <ele>147.8</ele>
        <time>2022-06-18T12:05:32Z</time>
      </trkpt>
      <trkpt lat="42.3146610" lon="-8.6066360">
        <ele>147.8</ele>
        <time>2022-06-18T12:05:33Z</time>
      </trkpt>
      <trkpt lat="42.3146800" lon="-8.6066450">
        <ele>148.4</ele>
        <time>2022-06-18T12:05:34Z</time>
      </trkpt>
      <trkpt lat="42.3146950" lon="-8.6066580">
        <ele>148.4</ele>
        <time>2022-06-18T12:05:35Z</time>
      </trkpt>
      <trkpt lat="42.3147100" lon="-8.6066680">
        <ele>148.4</ele>
        <time>2022-06-18T12:05:36Z</time>
      </trkpt>
      <trkpt lat="42.3147350" lon="-8.6066810">
        <ele>149.0</ele>
        <time>2022-06-18T12:05:37Z</time>
      </trkpt>
      <trkpt lat="42.3147510" lon="-8.6066910">
        <ele>149.2</ele>
        <time>2022-06-18T12:05:38Z</time>
      </trkpt>
      <trkpt lat="42.3147710" lon="-8.6066980">
        <ele>149.2</ele>
        <time>2022-06-18T12:05:39Z</time>
      </trkpt>
      <trkpt lat="42.3147950" lon="-8.6067080">
        <ele>149.2</ele>
        <time>2022-06-18T12:05:40Z</time>
      </trkpt>
      <trkpt lat="42.3148150" lon="-8.6067160">
        <ele>149.2</ele>
        <time>2022-06-18T12:05:41Z</time>
      </trkpt>
      <trkpt lat="42.3148410" lon="-8.6067300">
        <ele>149.2</ele>
        <time>2022-06-18T12:05:42Z</time>
      </trkpt>
      <trkpt lat="42.3148680" lon="-8.6067400">
        <ele>149.2</ele>
        <time>2022-06-18T12:05:43Z</time>
      </trkpt>
      <trkpt lat="42.3148910" lon="-8.6067550">
        <ele>149.2</ele>
        <time>2022-06-18T12:05:44Z</time>
      </trkpt>
      <trkpt lat="42.3149150" lon="-8.6067730">
        <ele>149.2</ele>
        <time>2022-06-18T12:05:45Z</time>
      </trkpt>
      <trkpt lat="42.3149350" lon="-8.6067950">
        <ele>149.4</ele>
        <time>2022-06-18T12:05:46Z</time>
      </trkpt>
      <trkpt lat="42.3149530" lon="-8.6068180">
        <ele>149.4</ele>
        <time>2022-06-18T12:05:47Z</time>
      </trkpt>
      <trkpt lat="42.3149760" lon="-8.6068450">
        <ele>149.4</ele>
        <time>2022-06-18T12:05:48Z</time>
      </trkpt>
      <trkpt lat="42.3149960" lon="-8.6068710">
        <ele>149.4</ele>
        <time>2022-06-18T12:05:49Z</time>
      </trkpt>
      <trkpt lat="42.3150180" lon="-8.6069010">
        <ele>149.0</ele>
        <time>2022-06-18T12:05:50Z</time>
      </trkpt>
      <trkpt lat="42.3150360" lon="-8.6069280">
        <ele>149.0</ele>
        <time>2022-06-18T12:05:51Z</time>
      </trkpt>
      <trkpt lat="42.3150550" lon="-8.6069500">
        <ele>149.0</ele>
        <time>2022-06-18T12:05:52Z</time>
      </trkpt>
      <trkpt lat="42.3150760" lon="-8.6069700">
        <ele>149.0</ele>
        <time>2022-06-18T12:05:53Z</time>
      </trkpt>
      <trkpt lat="42.3151000" lon="-8.6069930">
        <ele>149.2</ele>
        <time>2022-06-18T12:05:54Z</time>
      </trkpt>
      <trkpt lat="42.3151200" lon="-8.6070180">
        <ele>149.2</ele>
        <time>2022-06-18T12:05:55Z</time>
      </trkpt>
      <trkpt lat="42.3151330" lon="-8.6070350">
        <ele>149.2</ele>
        <time>2022-06-18T12:05:56Z</time>
      </trkpt>
      <trkpt lat="42.3151530" lon="-8.6070430">
        <ele>149.2</ele>
        <time>2022-06-18T12:05:57Z</time>
      </trkpt>
      <trkpt lat="42.3151750" lon="-8.6070600">
        <ele>150.0</ele>
        <time>2022-06-18T12:05:58Z</time>
      </trkpt>
      <trkpt lat="42.3151980" lon="-8.6070680">
        <ele>150.0</ele>
        <time>2022-06-18T12:05:59Z</time>
      </trkpt>
      <trkpt lat="42.3152180" lon="-8.6070750">
        <ele>150.0</ele>
        <time>2022-06-18T12:06:00Z</time>
      </trkpt>
      <trkpt lat="42.3152300" lon="-8.6070860">
        <ele>149.8</ele>
        <time>2022-06-18T12:06:01Z</time>
      </trkpt>
      <trkpt lat="42.3152500" lon="-8.6071000">
        <ele>150.0</ele>
        <time>2022-06-18T12:06:02Z</time>
      </trkpt>
      <trkpt lat="42.3152710" lon="-8.6071180">
        <ele>150.0</ele>
        <time>2022-06-18T12:06:03Z</time>
      </trkpt>
      <trkpt lat="42.3152930" lon="-8.6071310">
        <ele>150.0</ele>
        <time>2022-06-18T12:06:04Z</time>
      </trkpt>
      <trkpt lat="42.3153150" lon="-8.6071410">
        <ele>150.0</ele>
        <time>2022-06-18T12:06:05Z</time>
      </trkpt>
      <trkpt lat="42.3153360" lon="-8.6071560">
        <ele>150.4</ele>
        <time>2022-06-18T12:06:06Z</time>
      </trkpt>
      <trkpt lat="42.3153560" lon="-8.6071750">
        <ele>150.4</ele>
        <time>2022-06-18T12:06:07Z</time>
      </trkpt>
      <trkpt lat="42.3153730" lon="-8.6071910">
        <ele>150.4</ele>
        <time>2022-06-18T12:06:08Z</time>
      </trkpt>
      <trkpt lat="42.3153950" lon="-8.6072100">
        <ele>150.8</ele>
        <time>2022-06-18T12:06:09Z</time>
      </trkpt>
      <trkpt lat="42.3154160" lon="-8.6072280">
        <ele>150.8</ele>
        <time>2022-06-18T12:06:10Z</time>
      </trkpt>
      <trkpt lat="42.3154460" lon="-8.6072430">
        <ele>150.8</ele>
        <time>2022-06-18T12:06:11Z</time>
      </trkpt>
      <trkpt lat="42.3154710" lon="-8.6072600">
        <ele>150.8</ele>
        <time>2022-06-18T12:06:12Z</time>
      </trkpt>
      <trkpt lat="42.3154960" lon="-8.6072830">
        <ele>150.8</ele>
        <time>2022-06-18T12:06:13Z</time>
      </trkpt>
      <trkpt lat="42.3155210" lon="-8.6073080">
        <ele>150.6</ele>
        <time>2022-06-18T12:06:14Z</time>
      </trkpt>
      <trkpt lat="42.3155460" lon="-8.6073260">
        <ele>150.6</ele>
        <time>2022-06-18T12:06:15Z</time>
      </trkpt>
      <trkpt lat="42.3155710" lon="-8.6073410">
        <ele>150.6</ele>
        <time>2022-06-18T12:06:16Z</time>
      </trkpt>
      <trkpt lat="42.3155930" lon="-8.6073580">
        <ele>150.8</ele>
        <time>2022-06-18T12:06:17Z</time>
      </trkpt>
      <trkpt lat="42.3156150" lon="-8.6073750">
        <ele>150.8</ele>
        <time>2022-06-18T12:06:18Z</time>
      </trkpt>
      <trkpt lat="42.3156310" lon="-8.6073900">
        <ele>150.8</ele>
        <time>2022-06-18T12:06:19Z</time>
      </trkpt>
      <trkpt lat="42.3156530" lon="-8.6074050">
        <ele>150.8</ele>
        <time>2022-06-18T12:06:20Z</time>
      </trkpt>
      <trkpt lat="42.3156800" lon="-8.6074160">
        <ele>150.8</ele>
        <time>2022-06-18T12:06:21Z</time>
      </trkpt>
      <trkpt lat="42.3157100" lon="-8.6074350">
        <ele>150.6</ele>
        <time>2022-06-18T12:06:22Z</time>
      </trkpt>
      <trkpt lat="42.3157410" lon="-8.6074500">
        <ele>150.6</ele>
        <time>2022-06-18T12:06:23Z</time>
      </trkpt>
      <trkpt lat="42.3157750" lon="-8.6074660">
        <ele>150.6</ele>
        <time>2022-06-18T12:06:24Z</time>
      </trkpt>
      <trkpt lat="42.3158050" lon="-8.6074780">
        <ele>150.6</ele>
        <time>2022-06-18T12:06:25Z</time>
      </trkpt>
      <trkpt lat="42.3158310" lon="-8.6074860">
        <ele>150.8</ele>
        <time>2022-06-18T12:06:26Z</time>
      </trkpt>
      <trkpt lat="42.3158550" lon="-8.6074930">
        <ele>150.8</ele>
        <time>2022-06-18T12:06:27Z</time>
      </trkpt>
      <trkpt lat="42.3158810" lon="-8.6074910">
        <ele>150.8</ele>
        <time>2022-06-18T12:06:28Z</time>
      </trkpt>
      <trkpt lat="42.3159100" lon="-8.6074900">
        <ele>151.2</ele>
        <time>2022-06-18T12:06:29Z</time>
      </trkpt>
      <trkpt lat="42.3159350" lon="-8.6074980">
        <ele>151.4</ele>
        <time>2022-06-18T12:06:30Z</time>
      </trkpt>
      <trkpt lat="42.3159560" lon="-8.6075000">
        <ele>151.4</ele>
        <time>2022-06-18T12:06:31Z</time>
      </trkpt>
      <trkpt lat="42.3159730" lon="-8.6074960">
        <ele>151.4</ele>
        <time>2022-06-18T12:06:32Z</time>
      </trkpt>
      <trkpt lat="42.3159900" lon="-8.6074950">
        <ele>152.4</ele>
        <time>2022-06-18T12:06:33Z</time>
      </trkpt>
      <trkpt lat="42.3160100" lon="-8.6074910">
        <ele>152.0</ele>
        <time>2022-06-18T12:06:34Z</time>
      </trkpt>
      <trkpt lat="42.3160310" lon="-8.6074850">
        <ele>152.0</ele>
        <time>2022-06-18T12:06:35Z</time>
      </trkpt>
      <trkpt lat="42.3160500" lon="-8.6074830">
        <ele>152.0</ele>
        <time>2022-06-18T12:06:36Z</time>
      </trkpt>
      <trkpt lat="42.3160680" lon="-8.6074830">
        <ele>153.0</ele>
        <time>2022-06-18T12:06:37Z</time>
      </trkpt>
      <trkpt lat="42.3160930" lon="-8.6074880">
        <ele>154.0</ele>
        <time>2022-06-18T12:06:38Z</time>
      </trkpt>
      <trkpt lat="42.3161200" lon="-8.6074860">
        <ele>154.0</ele>
        <time>2022-06-18T12:06:39Z</time>
      </trkpt>
      <trkpt lat="42.3161480" lon="-8.6074880">
        <ele>154.0</ele>
        <time>2022-06-18T12:06:40Z</time>
      </trkpt>
      <trkpt lat="42.3161750" lon="-8.6074830">
        <ele>154.6</ele>
        <time>2022-06-18T12:06:41Z</time>
      </trkpt>
      <trkpt lat="42.3162010" lon="-8.6074810">
        <ele>155.4</ele>
        <time>2022-06-18T12:06:42Z</time>
      </trkpt>
      <trkpt lat="42.3162250" lon="-8.6074830">
        <ele>155.4</ele>
        <time>2022-06-18T12:06:43Z</time>
      </trkpt>
      <trkpt lat="42.3162510" lon="-8.6074830">
        <ele>155.4</ele>
        <time>2022-06-18T12:06:44Z</time>
      </trkpt>
      <trkpt lat="42.3162760" lon="-8.6074810">
        <ele>155.4</ele>
        <time>2022-06-18T12:06:45Z</time>
      </trkpt>
      <trkpt lat="42.3163010" lon="-8.6074760">
        <ele>156.2</ele>
        <time>2022-06-18T12:06:46Z</time>
      </trkpt>
      <trkpt lat="42.3163260" lon="-8.6074680">
        <ele>156.2</ele>
        <time>2022-06-18T12:06:47Z</time>
      </trkpt>
      <trkpt lat="42.3163550" lon="-8.6074680">
        <ele>156.2</ele>
        <time>2022-06-18T12:06:48Z</time>
      </trkpt>
      <trkpt lat="42.3163900" lon="-8.6074750">
        <ele>155.2</ele>
        <time>2022-06-18T12:06:49Z</time>
      </trkpt>
      <trkpt lat="42.3164300" lon="-8.6074830">
        <ele>154.2</ele>
        <time>2022-06-18T12:06:50Z</time>
      </trkpt>
      <trkpt lat="42.3164750" lon="-8.6075030">
        <ele>154.2</ele>
        <time>2022-06-18T12:06:51Z</time>
      </trkpt>
      <trkpt lat="42.3165280" lon="-8.6075030">
        <ele>154.2</ele>
        <time>2022-06-18T12:06:52Z</time>
      </trkpt>
      <trkpt lat="42.3165830" lon="-8.6074950">
        <ele>153.2</ele>
        <time>2022-06-18T12:06:53Z</time>
      </trkpt>
      <trkpt lat="42.3166310" lon="-8.6074650">
        <ele>151.6</ele>
        <time>2022-06-18T12:06:54Z</time>
      </trkpt>
      <trkpt lat="42.3166780" lon="-8.6074300">
        <ele>151.6</ele>
        <time>2022-06-18T12:06:55Z</time>
      </trkpt>
      <trkpt lat="42.3167260" lon="-8.6074060">
        <ele>151.6</ele>
        <time>2022-06-18T12:06:56Z</time>
      </trkpt>
      <trkpt lat="42.3167730" lon="-8.6073800">
        <ele>151.6</ele>
        <time>2022-06-18T12:06:57Z</time>
      </trkpt>
      <trkpt lat="42.3168330" lon="-8.6073530">
        <ele>151.4</ele>
        <time>2022-06-18T12:06:58Z</time>
      </trkpt>
      <trkpt lat="42.3168850" lon="-8.6073280">
        <ele>151.4</ele>
        <time>2022-06-18T12:06:59Z</time>
      </trkpt>
      <trkpt lat="42.3169350" lon="-8.6073110">
        <ele>151.4</ele>
        <time>2022-06-18T12:07:00Z</time>
      </trkpt>
      <trkpt lat="42.3169850" lon="-8.6072900">
        <ele>150.4</ele>
        <time>2022-06-18T12:07:01Z</time>
      </trkpt>
      <trkpt lat="42.3170360" lon="-8.6072610">
        <ele>150.0</ele>
        <time>2022-06-18T12:07:02Z</time>
      </trkpt>
      <trkpt lat="42.3170850" lon="-8.6072330">
        <ele>150.0</ele>
        <time>2022-06-18T12:07:03Z</time>
      </trkpt>
      <trkpt lat="42.3171330" lon="-8.6072100">
        <ele>150.0</ele>
        <time>2022-06-18T12:07:04Z</time>
      </trkpt>
      <trkpt lat="42.3171850" lon="-8.6071830">
        <ele>151.0</ele>
        <time>2022-06-18T12:07:05Z</time>
      </trkpt>
      <trkpt lat="42.3172330" lon="-8.6071500">
        <ele>150.8</ele>
        <time>2022-06-18T12:07:06Z</time>
      </trkpt>
      <trkpt lat="42.3172850" lon="-8.6071180">
        <ele>150.8</ele>
        <time>2022-06-18T12:07:07Z</time>
      </trkpt>
      <trkpt lat="42.3173350" lon="-8.6070930">
        <ele>150.8</ele>
        <time>2022-06-18T12:07:08Z</time>
      </trkpt>
      <trkpt lat="42.3173830" lon="-8.6070680">
        <ele>150.8</ele>
        <time>2022-06-18T12:07:09Z</time>
      </trkpt>
      <trkpt lat="42.3174310" lon="-8.6070450">
        <ele>151.0</ele>
        <time>2022-06-18T12:07:10Z</time>
      </trkpt>
      <trkpt lat="42.3174760" lon="-8.6070210">
        <ele>151.0</ele>
        <time>2022-06-18T12:07:11Z</time>
      </trkpt>
      <trkpt lat="42.3175250" lon="-8.6069980">
        <ele>151.0</ele>
        <time>2022-06-18T12:07:12Z</time>
      </trkpt>
      <trkpt lat="42.3175710" lon="-8.6069650">
        <ele>150.2</ele>
        <time>2022-06-18T12:07:13Z</time>
      </trkpt>
      <trkpt lat="42.3176080" lon="-8.6069280">
        <ele>150.4</ele>
        <time>2022-06-18T12:07:14Z</time>
      </trkpt>
      <trkpt lat="42.3176450" lon="-8.6068800">
        <ele>150.4</ele>
        <time>2022-06-18T12:07:15Z</time>
      </trkpt>
      <trkpt lat="42.3176880" lon="-8.6068260">
        <ele>150.4</ele>
        <time>2022-06-18T12:07:16Z</time>
      </trkpt>
      <trkpt lat="42.3177310" lon="-8.6067660">
        <ele>149.4</ele>
        <time>2022-06-18T12:07:17Z</time>
      </trkpt>
      <trkpt lat="42.3177700" lon="-8.6067050">
        <ele>148.6</ele>
        <time>2022-06-18T12:07:18Z</time>
      </trkpt>
      <trkpt lat="42.3178130" lon="-8.6066480">
        <ele>148.6</ele>
        <time>2022-06-18T12:07:19Z</time>
      </trkpt>
      <trkpt lat="42.3178550" lon="-8.6065810">
        <ele>148.6</ele>
        <time>2022-06-18T12:07:20Z</time>
      </trkpt>
      <trkpt lat="42.3179010" lon="-8.6065110">
        <ele>147.6</ele>
        <time>2022-06-18T12:07:21Z</time>
      </trkpt>
      <trkpt lat="42.3179410" lon="-8.6064330">
        <ele>145.4</ele>
        <time>2022-06-18T12:07:22Z</time>
      </trkpt>
      <trkpt lat="42.3179880" lon="-8.6063600">
        <ele>145.4</ele>
        <time>2022-06-18T12:07:23Z</time>
      </trkpt>
      <trkpt lat="42.3180360" lon="-8.6062860">
        <ele>145.4</ele>
        <time>2022-06-18T12:07:24Z</time>
      </trkpt>
      <trkpt lat="42.3180900" lon="-8.6062180">
        <ele>144.4</ele>
        <time>2022-06-18T12:07:25Z</time>
      </trkpt>
      <trkpt lat="42.3181480" lon="-8.6061600">
        <ele>143.4</ele>
        <time>2022-06-18T12:07:26Z</time>
      </trkpt>
      <trkpt lat="42.3182010" lon="-8.6061100">
        <ele>143.4</ele>
        <time>2022-06-18T12:07:27Z</time>
      </trkpt>
      <trkpt lat="42.3182610" lon="-8.6060580">
        <ele>143.4</ele>
        <time>2022-06-18T12:07:28Z</time>
      </trkpt>
      <trkpt lat="42.3183200" lon="-8.6060300">
        <ele>143.4</ele>
        <time>2022-06-18T12:07:29Z</time>
      </trkpt>
      <trkpt lat="42.3183700" lon="-8.6060160">
        <ele>144.6</ele>
        <time>2022-06-18T12:07:30Z</time>
      </trkpt>
      <trkpt lat="42.3184150" lon="-8.6060130">
        <ele>144.6</ele>
        <time>2022-06-18T12:07:31Z</time>
      </trkpt>
      <trkpt lat="42.3184500" lon="-8.6060180">
        <ele>144.6</ele>
        <time>2022-06-18T12:07:32Z</time>
      </trkpt>
      <trkpt lat="42.3184660" lon="-8.6060160">
        <ele>145.4</ele>
        <time>2022-06-18T12:07:33Z</time>
      </trkpt>
      <trkpt lat="42.3184780" lon="-8.6060180">
        <ele>145.4</ele>
        <time>2022-06-18T12:07:34Z</time>
      </trkpt>
      <trkpt lat="42.3185030" lon="-8.6060210">
        <ele>145.4</ele>
        <time>2022-06-18T12:07:35Z</time>
      </trkpt>
      <trkpt lat="42.3185160" lon="-8.6060210">
        <ele>145.4</ele>
        <time>2022-06-18T12:07:36Z</time>
      </trkpt>
      <trkpt lat="42.3185310" lon="-8.6060230">
        <ele>145.4</ele>
        <time>2022-06-18T12:07:37Z</time>
      </trkpt>
      <trkpt lat="42.3185560" lon="-8.6060380">
        <ele>144.2</ele>
        <time>2022-06-18T12:07:38Z</time>
      </trkpt>
      <trkpt lat="42.3185810" lon="-8.6060530">
        <ele>144.2</ele>
        <time>2022-06-18T12:07:39Z</time>
      </trkpt>
      <trkpt lat="42.3186150" lon="-8.6060650">
        <ele>144.2</ele>
        <time>2022-06-18T12:07:40Z</time>
      </trkpt>
      <trkpt lat="42.3186510" lon="-8.6060850">
        <ele>145.2</ele>
        <time>2022-06-18T12:07:41Z</time>
      </trkpt>
      <trkpt lat="42.3186830" lon="-8.6061000">
        <ele>144.6</ele>
        <time>2022-06-18T12:07:42Z</time>
      </trkpt>
      <trkpt lat="42.3187230" lon="-8.6061100">
        <ele>144.6</ele>
        <time>2022-06-18T12:07:43Z</time>
      </trkpt>
      <trkpt lat="42.3187580" lon="-8.6061180">
        <ele>144.6</ele>
        <time>2022-06-18T12:07:44Z</time>
      </trkpt>
      <trkpt lat="42.3187950" lon="-8.6061260">
        <ele>144.6</ele>
        <time>2022-06-18T12:07:45Z</time>
      </trkpt>
      <trkpt lat="42.3188330" lon="-8.6061380">
        <ele>145.4</ele>
        <time>2022-06-18T12:07:46Z</time>
      </trkpt>
      <trkpt lat="42.3188750" lon="-8.6061430">
        <ele>145.4</ele>
        <time>2022-06-18T12:07:47Z</time>
      </trkpt>
      <trkpt lat="42.3189060" lon="-8.6061460">
        <ele>145.4</ele>
        <time>2022-06-18T12:07:48Z</time>
      </trkpt>
      <trkpt lat="42.3189430" lon="-8.6061480">
        <ele>144.6</ele>
        <time>2022-06-18T12:07:49Z</time>
      </trkpt>
      <trkpt lat="42.3189780" lon="-8.6061510">
        <ele>144.8</ele>
        <time>2022-06-18T12:07:50Z</time>
      </trkpt>
      <trkpt lat="42.3190150" lon="-8.6061530">
        <ele>144.8</ele>
        <time>2022-06-18T12:07:51Z</time>
      </trkpt>
      <trkpt lat="42.3190510" lon="-8.6061530">
        <ele>144.8</ele>
        <time>2022-06-18T12:07:52Z</time>
      </trkpt>
      <trkpt lat="42.3190900" lon="-8.6061560">
        <ele>144.6</ele>
        <time>2022-06-18T12:07:53Z</time>
      </trkpt>
      <trkpt lat="42.3191300" lon="-8.6061610">
        <ele>144.2</ele>
        <time>2022-06-18T12:07:54Z</time>
      </trkpt>
      <trkpt lat="42.3191750" lon="-8.6061680">
        <ele>144.2</ele>
        <time>2022-06-18T12:07:55Z</time>
      </trkpt>
      <trkpt lat="42.3192200" lon="-8.6061710">
        <ele>144.2</ele>
        <time>2022-06-18T12:07:56Z</time>
      </trkpt>
      <trkpt lat="42.3192650" lon="-8.6061800">
        <ele>144.2</ele>
        <time>2022-06-18T12:07:57Z</time>
      </trkpt>
      <trkpt lat="42.3193100" lon="-8.6061930">
        <ele>143.2</ele>
        <time>2022-06-18T12:07:58Z</time>
      </trkpt>
      <trkpt lat="42.3193560" lon="-8.6062030">
        <ele>143.2</ele>
        <time>2022-06-18T12:07:59Z</time>
      </trkpt>
      <trkpt lat="42.3194010" lon="-8.6062060">
        <ele>143.2</ele>
        <time>2022-06-18T12:08:00Z</time>
      </trkpt>
      <trkpt lat="42.3194400" lon="-8.6062150">
        <ele>142.2</ele>
        <time>2022-06-18T12:08:01Z</time>
      </trkpt>
      <trkpt lat="42.3194780" lon="-8.6062310">
        <ele>142.2</ele>
        <time>2022-06-18T12:08:02Z</time>
      </trkpt>
      <trkpt lat="42.3195230" lon="-8.6062550">
        <ele>142.2</ele>
        <time>2022-06-18T12:08:03Z</time>
      </trkpt>
      <trkpt lat="42.3195710" lon="-8.6062760">
        <ele>142.2</ele>
        <time>2022-06-18T12:08:04Z</time>
      </trkpt>
      <trkpt lat="42.3196200" lon="-8.6063100">
        <ele>141.2</ele>
        <time>2022-06-18T12:08:05Z</time>
      </trkpt>
      <trkpt lat="42.3196680" lon="-8.6063510">
        <ele>139.0</ele>
        <time>2022-06-18T12:08:06Z</time>
      </trkpt>
      <trkpt lat="42.3197150" lon="-8.6063880">
        <ele>139.0</ele>
        <time>2022-06-18T12:08:07Z</time>
      </trkpt>
      <trkpt lat="42.3197580" lon="-8.6064180">
        <ele>139.0</ele>
        <time>2022-06-18T12:08:08Z</time>
      </trkpt>
      <trkpt lat="42.3198000" lon="-8.6064500">
        <ele>138.2</ele>
        <time>2022-06-18T12:08:09Z</time>
      </trkpt>
      <trkpt lat="42.3198360" lon="-8.6064810">
        <ele>137.8</ele>
        <time>2022-06-18T12:08:10Z</time>
      </trkpt>
      <trkpt lat="42.3198730" lon="-8.6065150">
        <ele>137.8</ele>
        <time>2022-06-18T12:08:11Z</time>
      </trkpt>
      <trkpt lat="42.3199150" lon="-8.6065430">
        <ele>137.8</ele>
        <time>2022-06-18T12:08:12Z</time>
      </trkpt>
      <trkpt lat="42.3199600" lon="-8.6065750">
        <ele>136.8</ele>
        <time>2022-06-18T12:08:13Z</time>
      </trkpt>
      <trkpt lat="42.3200060" lon="-8.6066130">
        <ele>134.2</ele>
        <time>2022-06-18T12:08:14Z</time>
      </trkpt>
      <trkpt lat="42.3200530" lon="-8.6066580">
        <ele>134.2</ele>
        <time>2022-06-18T12:08:15Z</time>
      </trkpt>
      <trkpt lat="42.3200980" lon="-8.6067130">
        <ele>134.2</ele>
        <time>2022-06-18T12:08:16Z</time>
      </trkpt>
      <trkpt lat="42.3201430" lon="-8.6067760">
        <ele>133.2</ele>
        <time>2022-06-18T12:08:17Z</time>
      </trkpt>
      <trkpt lat="42.3201850" lon="-8.6068460">
        <ele>131.4</ele>
        <time>2022-06-18T12:08:18Z</time>
      </trkpt>
      <trkpt lat="42.3202280" lon="-8.6069160">
        <ele>131.4</ele>
        <time>2022-06-18T12:08:19Z</time>
      </trkpt>
      <trkpt lat="42.3202700" lon="-8.6069850">
        <ele>131.4</ele>
        <time>2022-06-18T12:08:20Z</time>
      </trkpt>
      <trkpt lat="42.3203130" lon="-8.6070480">
        <ele>130.4</ele>
        <time>2022-06-18T12:08:21Z</time>
      </trkpt>
      <trkpt lat="42.3203530" lon="-8.6071080">
        <ele>128.8</ele>
        <time>2022-06-18T12:08:22Z</time>
      </trkpt>
      <trkpt lat="42.3203930" lon="-8.6071710">
        <ele>128.8</ele>
        <time>2022-06-18T12:08:23Z</time>
      </trkpt>
      <trkpt lat="42.3204350" lon="-8.6072350">
        <ele>128.8</ele>
        <time>2022-06-18T12:08:24Z</time>
      </trkpt>
      <trkpt lat="42.3204800" lon="-8.6072960">
        <ele>127.8</ele>
        <time>2022-06-18T12:08:25Z</time>
      </trkpt>
      <trkpt lat="42.3205230" lon="-8.6073500">
        <ele>127.6</ele>
        <time>2022-06-18T12:08:26Z</time>
      </trkpt>
      <trkpt lat="42.3205650" lon="-8.6073950">
        <ele>127.6</ele>
        <time>2022-06-18T12:08:27Z</time>
      </trkpt>
      <trkpt lat="42.3206010" lon="-8.6074250">
        <ele>127.6</ele>
        <time>2022-06-18T12:08:28Z</time>
      </trkpt>
      <trkpt lat="42.3206310" lon="-8.6074480">
        <ele>127.6</ele>
        <time>2022-06-18T12:08:29Z</time>
      </trkpt>
      <trkpt lat="42.3206600" lon="-8.6074650">
        <ele>127.8</ele>
        <time>2022-06-18T12:08:30Z</time>
      </trkpt>
      <trkpt lat="42.3206900" lon="-8.6074780">
        <ele>127.8</ele>
        <time>2022-06-18T12:08:31Z</time>
      </trkpt>
      <trkpt lat="42.3207160" lon="-8.6074930">
        <ele>127.8</ele>
        <time>2022-06-18T12:08:32Z</time>
      </trkpt>
      <trkpt lat="42.3207430" lon="-8.6075000">
        <ele>126.8</ele>
        <time>2022-06-18T12:08:33Z</time>
      </trkpt>
      <trkpt lat="42.3207680" lon="-8.6075060">
        <ele>127.2</ele>
        <time>2022-06-18T12:08:34Z</time>
      </trkpt>
      <trkpt lat="42.3207930" lon="-8.6075100">
        <ele>127.2</ele>
        <time>2022-06-18T12:08:35Z</time>
      </trkpt>
      <trkpt lat="42.3208180" lon="-8.6075150">
        <ele>127.2</ele>
        <time>2022-06-18T12:08:36Z</time>
      </trkpt>
      <trkpt lat="42.3208400" lon="-8.6075210">
        <ele>126.2</ele>
        <time>2022-06-18T12:08:37Z</time>
      </trkpt>
      <trkpt lat="42.3208610" lon="-8.6075260">
        <ele>126.0</ele>
        <time>2022-06-18T12:08:38Z</time>
      </trkpt>
      <trkpt lat="42.3208810" lon="-8.6075360">
        <ele>126.0</ele>
        <time>2022-06-18T12:08:39Z</time>
      </trkpt>
      <trkpt lat="42.3209210" lon="-8.6075590">
        <ele>126.0</ele>
        <time>2022-06-18T12:08:40Z</time>
      </trkpt>
      <trkpt lat="42.3209430" lon="-8.6075650">
        <ele>125.2</ele>
        <time>2022-06-18T12:08:41Z</time>
      </trkpt>
      <trkpt lat="42.3209660" lon="-8.6075710">
        <ele>125.4</ele>
        <time>2022-06-18T12:08:42Z</time>
      </trkpt>
      <trkpt lat="42.3209880" lon="-8.6075770">
        <ele>125.0</ele>
        <time>2022-06-18T12:08:59Z</time>
      </trkpt>
      <trkpt lat="42.3210110" lon="-8.6075830">
        <ele>125.0</ele>
        <time>2022-06-18T12:09:00Z</time>
      </trkpt>
      <trkpt lat="42.3210600" lon="-8.6075810">
        <ele>124.0</ele>
        <time>2022-06-18T12:09:01Z</time>
      </trkpt>
      <trkpt lat="42.3211150" lon="-8.6075810">
        <ele>123.0</ele>
        <time>2022-06-18T12:09:02Z</time>
      </trkpt>
      <trkpt lat="42.3211800" lon="-8.6075780">
        <ele>123.0</ele>
        <time>2022-06-18T12:09:03Z</time>
      </trkpt>
      <trkpt lat="42.3212460" lon="-8.6075700">
        <ele>123.0</ele>
        <time>2022-06-18T12:09:04Z</time>
      </trkpt>
      <trkpt lat="42.3213100" lon="-8.6075510">
        <ele>122.0</ele>
        <time>2022-06-18T12:09:05Z</time>
      </trkpt>
      <trkpt lat="42.3213730" lon="-8.6075300">
        <ele>118.4</ele>
        <time>2022-06-18T12:09:06Z</time>
      </trkpt>
      <trkpt lat="42.3214350" lon="-8.6075080">
        <ele>118.4</ele>
        <time>2022-06-18T12:09:07Z</time>
      </trkpt>
      <trkpt lat="42.3214860" lon="-8.6074910">
        <ele>118.4</ele>
        <time>2022-06-18T12:09:08Z</time>
      </trkpt>
      <trkpt lat="42.3215350" lon="-8.6074780">
        <ele>117.8</ele>
        <time>2022-06-18T12:09:09Z</time>
      </trkpt>
      <trkpt lat="42.3215810" lon="-8.6074650">
        <ele>116.6</ele>
        <time>2022-06-18T12:09:10Z</time>
      </trkpt>
      <trkpt lat="42.3216260" lon="-8.6074410">
        <ele>116.6</ele>
        <time>2022-06-18T12:09:11Z</time>
      </trkpt>
      <trkpt lat="42.3216780" lon="-8.6074160">
        <ele>116.6</ele>
        <time>2022-06-18T12:09:12Z</time>
      </trkpt>
      <trkpt lat="42.3217380" lon="-8.6073880">
        <ele>115.6</ele>
        <time>2022-06-18T12:09:13Z</time>
      </trkpt>
      <trkpt lat="42.3218010" lon="-8.6073650">
        <ele>112.6</ele>
        <time>2022-06-18T12:09:14Z</time>
      </trkpt>
      <trkpt lat="42.3218660" lon="-8.6073460">
        <ele>112.6</ele>
        <time>2022-06-18T12:09:15Z</time>
      </trkpt>
      <trkpt lat="42.3219300" lon="-8.6073280">
        <ele>112.6</ele>
        <time>2022-06-18T12:09:16Z</time>
      </trkpt>
      <trkpt lat="42.3219910" lon="-8.6073110">
        <ele>111.6</ele>
        <time>2022-06-18T12:09:17Z</time>
      </trkpt>
      <trkpt lat="42.3220480" lon="-8.6072950">
        <ele>110.6</ele>
        <time>2022-06-18T12:09:18Z</time>
      </trkpt>
      <trkpt lat="42.3221080" lon="-8.6072800">
        <ele>110.6</ele>
        <time>2022-06-18T12:09:19Z</time>
      </trkpt>
      <trkpt lat="42.3221700" lon="-8.6072700">
        <ele>110.6</ele>
        <time>2022-06-18T12:09:20Z</time>
      </trkpt>
      <trkpt lat="42.3222300" lon="-8.6072610">
        <ele>110.6</ele>
        <time>2022-06-18T12:09:21Z</time>
      </trkpt>
      <trkpt lat="42.3222900" lon="-8.6072500">
        <ele>109.6</ele>
        <time>2022-06-18T12:09:22Z</time>
      </trkpt>
      <trkpt lat="42.3223450" lon="-8.6072450">
        <ele>109.6</ele>
        <time>2022-06-18T12:09:23Z</time>
      </trkpt>
      <trkpt lat="42.3223880" lon="-8.6072430">
        <ele>109.6</ele>
        <time>2022-06-18T12:09:24Z</time>
      </trkpt>
      <trkpt lat="42.3224250" lon="-8.6072380">
        <ele>108.6</ele>
        <time>2022-06-18T12:09:25Z</time>
      </trkpt>
      <trkpt lat="42.3224530" lon="-8.6072400">
        <ele>107.2</ele>
        <time>2022-06-18T12:09:26Z</time>
      </trkpt>
      <trkpt lat="42.3224780" lon="-8.6072400">
        <ele>107.2</ele>
        <time>2022-06-18T12:09:27Z</time>
      </trkpt>
      <trkpt lat="42.3225050" lon="-8.6072360">
        <ele>107.2</ele>
        <time>2022-06-18T12:09:28Z</time>
      </trkpt>
      <trkpt lat="42.3225330" lon="-8.6072310">
        <ele>107.2</ele>
        <time>2022-06-18T12:09:29Z</time>
      </trkpt>
      <trkpt lat="42.3225650" lon="-8.6072300">
        <ele>105.8</ele>
        <time>2022-06-18T12:09:30Z</time>
      </trkpt>
      <trkpt lat="42.3225960" lon="-8.6072280">
        <ele>105.8</ele>
        <time>2022-06-18T12:09:31Z</time>
      </trkpt>
      <trkpt lat="42.3226280" lon="-8.6072250">
        <ele>105.8</ele>
        <time>2022-06-18T12:09:32Z</time>
      </trkpt>
      <trkpt lat="42.3226600" lon="-8.6072230">
        <ele>104.8</ele>
        <time>2022-06-18T12:09:33Z</time>
      </trkpt>
      <trkpt lat="42.3226950" lon="-8.6072160">
        <ele>103.4</ele>
        <time>2022-06-18T12:09:34Z</time>
      </trkpt>
      <trkpt lat="42.3227310" lon="-8.6072110">
        <ele>103.4</ele>
        <time>2022-06-18T12:09:35Z</time>
      </trkpt>
      <trkpt lat="42.3227630" lon="-8.6072080">
        <ele>103.4</ele>
        <time>2022-06-18T12:09:36Z</time>
      </trkpt>
      <trkpt lat="42.3227910" lon="-8.6072100">
        <ele>102.4</ele>
        <time>2022-06-18T12:09:37Z</time>
      </trkpt>
      <trkpt lat="42.3228200" lon="-8.6072130">
        <ele>101.6</ele>
        <time>2022-06-18T12:09:38Z</time>
      </trkpt>
      <trkpt lat="42.3228480" lon="-8.6072130">
        <ele>101.6</ele>
        <time>2022-06-18T12:09:39Z</time>
      </trkpt>
      <trkpt lat="42.3228750" lon="-8.6072160">
        <ele>101.6</ele>
        <time>2022-06-18T12:09:40Z</time>
      </trkpt>
      <trkpt lat="42.3229030" lon="-8.6072160">
        <ele>100.6</ele>
        <time>2022-06-18T12:09:41Z</time>
      </trkpt>
      <trkpt lat="42.3229400" lon="-8.6072230">
        <ele>101.2</ele>
        <time>2022-06-18T12:09:42Z</time>
      </trkpt>
      <trkpt lat="42.3229910" lon="-8.6072250">
        <ele>101.2</ele>
        <time>2022-06-18T12:09:43Z</time>
      </trkpt>
      <trkpt lat="42.3230550" lon="-8.6072200">
        <ele>101.2</ele>
        <time>2022-06-18T12:09:44Z</time>
      </trkpt>
      <trkpt lat="42.3231230" lon="-8.6072150">
        <ele>100.2</ele>
        <time>2022-06-18T12:09:45Z</time>
      </trkpt>
      <trkpt lat="42.3232000" lon="-8.6072110">
        <ele>90.0</ele>
        <time>2022-06-18T12:09:46Z</time>
      </trkpt>
      <trkpt lat="42.3232860" lon="-8.6072110">
        <ele>90.0</ele>
        <time>2022-06-18T12:09:47Z</time>
      </trkpt>
      <trkpt lat="42.3233760" lon="-8.6072180">
        <ele>90.0</ele>
        <time>2022-06-18T12:09:48Z</time>
      </trkpt>
      <trkpt lat="42.3234650" lon="-8.6072250">
        <ele>89.0</ele>
        <time>2022-06-18T12:09:49Z</time>
      </trkpt>
      <trkpt lat="42.3235460" lon="-8.6072300">
        <ele>88.8</ele>
        <time>2022-06-18T12:09:50Z</time>
      </trkpt>
      <trkpt lat="42.3236250" lon="-8.6072300">
        <ele>88.8</ele>
        <time>2022-06-18T12:09:51Z</time>
      </trkpt>
      <trkpt lat="42.3237000" lon="-8.6072160">
        <ele>88.8</ele>
        <time>2022-06-18T12:09:52Z</time>
      </trkpt>
      <trkpt lat="42.3237730" lon="-8.6071980">
        <ele>88.8</ele>
        <time>2022-06-18T12:09:53Z</time>
      </trkpt>
      <trkpt lat="42.3238450" lon="-8.6071780">
        <ele>89.4</ele>
        <time>2022-06-18T12:09:54Z</time>
      </trkpt>
      <trkpt lat="42.3239160" lon="-8.6071550">
        <ele>89.4</ele>
        <time>2022-06-18T12:09:55Z</time>
      </trkpt>
      <trkpt lat="42.3239910" lon="-8.6071380">
        <ele>89.4</ele>
        <time>2022-06-18T12:09:56Z</time>
      </trkpt>
      <trkpt lat="42.3240700" lon="-8.6071210">
        <ele>89.4</ele>
        <time>2022-06-18T12:09:57Z</time>
      </trkpt>
      <trkpt lat="42.3241500" lon="-8.6071100">
        <ele>87.0</ele>
        <time>2022-06-18T12:09:58Z</time>
      </trkpt>
      <trkpt lat="42.3242310" lon="-8.6071030">
        <ele>87.0</ele>
        <time>2022-06-18T12:09:59Z</time>
      </trkpt>
      <trkpt lat="42.3243210" lon="-8.6071000">
        <ele>87.0</ele>
        <time>2022-06-18T12:10:00Z</time>
      </trkpt>
      <trkpt lat="42.3244130" lon="-8.6070900">
        <ele>86.0</ele>
        <time>2022-06-18T12:10:01Z</time>
      </trkpt>
      <trkpt lat="42.3245080" lon="-8.6070700">
        <ele>83.4</ele>
        <time>2022-06-18T12:10:02Z</time>
      </trkpt>
      <trkpt lat="42.3246100" lon="-8.6070450">
        <ele>83.4</ele>
        <time>2022-06-18T12:10:03Z</time>
      </trkpt>
      <trkpt lat="42.3247080" lon="-8.6070100">
        <ele>83.4</ele>
        <time>2022-06-18T12:10:04Z</time>
      </trkpt>
      <trkpt lat="42.3248100" lon="-8.6069730">
        <ele>83.4</ele>
        <time>2022-06-18T12:10:05Z</time>
      </trkpt>
      <trkpt lat="42.3249160" lon="-8.6069360">
        <ele>79.6</ele>
        <time>2022-06-18T12:10:06Z</time>
      </trkpt>
      <trkpt lat="42.3250260" lon="-8.6069010">
        <ele>79.6</ele>
        <time>2022-06-18T12:10:07Z</time>
      </trkpt>
      <trkpt lat="42.3251410" lon="-8.6068560">
        <ele>79.6</ele>
        <time>2022-06-18T12:10:08Z</time>
      </trkpt>
      <trkpt lat="42.3252560" lon="-8.6068050">
        <ele>78.6</ele>
        <time>2022-06-18T12:10:09Z</time>
      </trkpt>
      <trkpt lat="42.3253710" lon="-8.6067400">
        <ele>70.0</ele>
        <time>2022-06-18T12:10:10Z</time>
      </trkpt>
      <trkpt lat="42.3254800" lon="-8.6066610">
        <ele>70.0</ele>
        <time>2022-06-18T12:10:11Z</time>
      </trkpt>
      <trkpt lat="42.3255810" lon="-8.6065700">
        <ele>70.0</ele>
        <time>2022-06-18T12:10:12Z</time>
      </trkpt>
      <trkpt lat="42.3256810" lon="-8.6064830">
        <ele>69.0</ele>
        <time>2022-06-18T12:10:13Z</time>
      </trkpt>
      <trkpt lat="42.3257750" lon="-8.6064010">
        <ele>63.2</ele>
        <time>2022-06-18T12:10:14Z</time>
      </trkpt>
      <trkpt lat="42.3258630" lon="-8.6063260">
        <ele>63.2</ele>
        <time>2022-06-18T12:10:15Z</time>
      </trkpt>
      <trkpt lat="42.3259560" lon="-8.6062660">
        <ele>63.2</ele>
        <time>2022-06-18T12:10:16Z</time>
      </trkpt>
      <trkpt lat="42.3260500" lon="-8.6062210">
        <ele>62.2</ele>
        <time>2022-06-18T12:10:17Z</time>
      </trkpt>
      <trkpt lat="42.3261430" lon="-8.6062150">
        <ele>60.6</ele>
        <time>2022-06-18T12:10:18Z</time>
      </trkpt>
      <trkpt lat="42.3262430" lon="-8.6062230">
        <ele>60.6</ele>
        <time>2022-06-18T12:10:19Z</time>
      </trkpt>
      <trkpt lat="42.3263450" lon="-8.6062260">
        <ele>60.6</ele>
        <time>2022-06-18T12:10:20Z</time>
      </trkpt>
      <trkpt lat="42.3264450" lon="-8.6062080">
        <ele>59.6</ele>
        <time>2022-06-18T12:10:21Z</time>
      </trkpt>
      <trkpt lat="42.3265430" lon="-8.6061800">
        <ele>54.6</ele>
        <time>2022-06-18T12:10:22Z</time>
      </trkpt>
      <trkpt lat="42.3266380" lon="-8.6061180">
        <ele>54.6</ele>
        <time>2022-06-18T12:10:23Z</time>
      </trkpt>
      <trkpt lat="42.3267160" lon="-8.6060380">
        <ele>54.6</ele>
        <time>2022-06-18T12:10:24Z</time>
      </trkpt>
      <trkpt lat="42.3267810" lon="-8.6059680">
        <ele>53.6</ele>
        <time>2022-06-18T12:10:25Z</time>
      </trkpt>
      <trkpt lat="42.3268350" lon="-8.6059300">
        <ele>53.8</ele>
        <time>2022-06-18T12:10:26Z</time>
      </trkpt>
      <trkpt lat="42.3268760" lon="-8.6059210">
        <ele>53.8</ele>
        <time>2022-06-18T12:10:27Z</time>
      </trkpt>
      <trkpt lat="42.3268900" lon="-8.6059360">
        <ele>53.8</ele>
        <time>2022-06-18T12:10:28Z</time>
      </trkpt>
      <trkpt lat="42.3268930" lon="-8.6059610">
        <ele>54.4</ele>
        <time>2022-06-18T12:10:29Z</time>
      </trkpt>
      <trkpt lat="42.3268910" lon="-8.6059850">
        <ele>54.0</ele>
        <time>2022-06-18T12:10:30Z</time>
      </trkpt>
      <trkpt lat="42.3268760" lon="-8.6059980">
        <ele>54.0</ele>
        <time>2022-06-18T12:10:31Z</time>
      </trkpt>
      <trkpt lat="42.3268580" lon="-8.6059910">
        <ele>54.0</ele>
        <time>2022-06-18T12:10:32Z</time>
      </trkpt>
      <trkpt lat="42.3268480" lon="-8.6059660">
        <ele>54.0</ele>
        <time>2022-06-18T12:10:33Z</time>
      </trkpt>
      <trkpt lat="42.3268530" lon="-8.6059430">
        <ele>54.8</ele>
        <time>2022-06-18T12:10:34Z</time>
      </trkpt>
      <trkpt lat="42.3268700" lon="-8.6059230">
        <ele>54.8</ele>
        <time>2022-06-18T12:10:35Z</time>
      </trkpt>
      <trkpt lat="42.3268880" lon="-8.6059030">
        <ele>54.8</ele>
        <time>2022-06-18T12:10:36Z</time>
      </trkpt>
      <trkpt lat="42.3269030" lon="-8.6058800">
        <ele>54.8</ele>
        <time>2022-06-18T12:10:37Z</time>
      </trkpt>
      <trkpt lat="42.3269150" lon="-8.6058610">
        <ele>54.8</ele>
        <time>2022-06-18T12:10:38Z</time>
      </trkpt>
      <trkpt lat="42.3269260" lon="-8.6058460">
        <ele>54.8</ele>
        <time>2022-06-18T12:10:39Z</time>
      </trkpt>
      <trkpt lat="42.3269360" lon="-8.6058400">
        <ele>54.8</ele>
        <time>2022-06-18T12:10:40Z</time>
      </trkpt>
      <trkpt lat="42.3269450" lon="-8.6058300">
        <ele>54.8</ele>
        <time>2022-06-18T12:10:41Z</time>
      </trkpt>
      <trkpt lat="42.3269550" lon="-8.6058200">
        <ele>55.2</ele>
        <time>2022-06-18T12:10:42Z</time>
      </trkpt>
      <trkpt lat="42.3269650" lon="-8.6058150">
        <ele>55.2</ele>
        <time>2022-06-18T12:10:43Z</time>
      </trkpt>
      <trkpt lat="42.3269730" lon="-8.6058030">
        <ele>55.2</ele>
        <time>2022-06-18T12:10:44Z</time>
      </trkpt>
      <trkpt lat="42.3269830" lon="-8.6057930">
        <ele>55.2</ele>
        <time>2022-06-18T12:10:45Z</time>
      </trkpt>
      <trkpt lat="42.3269930" lon="-8.6057850">
        <ele>55.4</ele>
        <time>2022-06-18T12:10:46Z</time>
      </trkpt>
      <trkpt lat="42.3270010" lon="-8.6057800">
        <ele>55.4</ele>
        <time>2022-06-18T12:10:47Z</time>
      </trkpt>
      <trkpt lat="42.3270100" lon="-8.6057810">
        <ele>55.4</ele>
        <time>2022-06-18T12:10:48Z</time>
      </trkpt>
      <trkpt lat="42.3271030" lon="-8.6057660">
        <ele>56.4</ele>
        <time>2022-06-18T12:15:05Z</time>
      </trkpt>
      <trkpt lat="42.3271210" lon="-8.6057550">
        <ele>56.6</ele>
        <time>2022-06-18T12:15:06Z</time>
      </trkpt>
      <trkpt lat="42.3271380" lon="-8.6057450">
        <ele>56.6</ele>
        <time>2022-06-18T12:15:07Z</time>
      </trkpt>
      <trkpt lat="42.3271550" lon="-8.6057360">
        <ele>56.6</ele>
        <time>2022-06-18T12:15:08Z</time>
      </trkpt>
      <trkpt lat="42.3271730" lon="-8.6057260">
        <ele>56.6</ele>
        <time>2022-06-18T12:15:09Z</time>
      </trkpt>
      <trkpt lat="42.3271930" lon="-8.6057210">
        <ele>56.6</ele>
        <time>2022-06-18T12:15:10Z</time>
      </trkpt>
      <trkpt lat="42.3272110" lon="-8.6057180">
        <ele>56.6</ele>
        <time>2022-06-18T12:15:11Z</time>
      </trkpt>
      <trkpt lat="42.3272300" lon="-8.6057130">
        <ele>56.6</ele>
        <time>2022-06-18T12:15:12Z</time>
      </trkpt>
      <trkpt lat="42.3272480" lon="-8.6057050">
        <ele>56.6</ele>
        <time>2022-06-18T12:15:13Z</time>
      </trkpt>
      <trkpt lat="42.3272660" lon="-8.6056950">
        <ele>56.0</ele>
        <time>2022-06-18T12:15:14Z</time>
      </trkpt>
      <trkpt lat="42.3272880" lon="-8.6056760">
        <ele>56.0</ele>
        <time>2022-06-18T12:15:15Z</time>
      </trkpt>
      <trkpt lat="42.3273080" lon="-8.6056610">
        <ele>56.0</ele>
        <time>2022-06-18T12:15:16Z</time>
      </trkpt>
      <trkpt lat="42.3273300" lon="-8.6056510">
        <ele>56.4</ele>
        <time>2022-06-18T12:15:17Z</time>
      </trkpt>
      <trkpt lat="42.3273550" lon="-8.6056430">
        <ele>56.8</ele>
        <time>2022-06-18T12:15:18Z</time>
      </trkpt>
      <trkpt lat="42.3273800" lon="-8.6056350">
        <ele>56.8</ele>
        <time>2022-06-18T12:15:19Z</time>
      </trkpt>
      <trkpt lat="42.3274060" lon="-8.6056330">
        <ele>56.8</ele>
        <time>2022-06-18T12:15:20Z</time>
      </trkpt>
      <trkpt lat="42.3274310" lon="-8.6056250">
        <ele>57.0</ele>
        <time>2022-06-18T12:15:21Z</time>
      </trkpt>
      <trkpt lat="42.3274550" lon="-8.6056180">
        <ele>57.4</ele>
        <time>2022-06-18T12:15:22Z</time>
      </trkpt>
      <trkpt lat="42.3274810" lon="-8.6056180">
        <ele>57.4</ele>
        <time>2022-06-18T12:15:23Z</time>
      </trkpt>
      <trkpt lat="42.3275030" lon="-8.6056200">
        <ele>57.4</ele>
        <time>2022-06-18T12:15:24Z</time>
      </trkpt>
      <trkpt lat="42.3275250" lon="-8.6056250">
        <ele>57.4</ele>
        <time>2022-06-18T12:15:25Z</time>
      </trkpt>
      <trkpt lat="42.3275460" lon="-8.6056330">
        <ele>57.6</ele>
        <time>2022-06-18T12:15:26Z</time>
      </trkpt>
      <trkpt lat="42.3275680" lon="-8.6056410">
        <ele>57.6</ele>
        <time>2022-06-18T12:15:27Z</time>
      </trkpt>
      <trkpt lat="42.3275900" lon="-8.6056500">
        <ele>57.6</ele>
        <time>2022-06-18T12:15:28Z</time>
      </trkpt>
      <trkpt lat="42.3276130" lon="-8.6056600">
        <ele>58.4</ele>
        <time>2022-06-18T12:15:29Z</time>
      </trkpt>
      <trkpt lat="42.3276360" lon="-8.6056650">
        <ele>58.2</ele>
        <time>2022-06-18T12:15:30Z</time>
      </trkpt>
      <trkpt lat="42.3276610" lon="-8.6056680">
        <ele>58.2</ele>
        <time>2022-06-18T12:15:31Z</time>
      </trkpt>
      <trkpt lat="42.3276850" lon="-8.6056730">
        <ele>58.2</ele>
        <time>2022-06-18T12:15:32Z</time>
      </trkpt>
      <trkpt lat="42.3277060" lon="-8.6056850">
        <ele>58.8</ele>
        <time>2022-06-18T12:15:33Z</time>
      </trkpt>
      <trkpt lat="42.3277300" lon="-8.6056960">
        <ele>59.2</ele>
        <time>2022-06-18T12:15:34Z</time>
      </trkpt>
      <trkpt lat="42.3277530" lon="-8.6057030">
        <ele>59.2</ele>
        <time>2022-06-18T12:15:35Z</time>
      </trkpt>
      <trkpt lat="42.3277750" lon="-8.6057060">
        <ele>59.2</ele>
        <time>2022-06-18T12:15:36Z</time>
      </trkpt>
      <trkpt lat="42.3277960" lon="-8.6057030">
        <ele>59.2</ele>
        <time>2022-06-18T12:15:37Z</time>
      </trkpt>
      <trkpt lat="42.3278210" lon="-8.6057000">
        <ele>59.4</ele>
        <time>2022-06-18T12:15:38Z</time>
      </trkpt>
      <trkpt lat="42.3278450" lon="-8.6057010">
        <ele>59.4</ele>
        <time>2022-06-18T12:15:39Z</time>
      </trkpt>
      <trkpt lat="42.3278680" lon="-8.6057030">
        <ele>59.4</ele>
        <time>2022-06-18T12:15:40Z</time>
      </trkpt>
      <trkpt lat="42.3278930" lon="-8.6057060">
        <ele>59.4</ele>
        <time>2022-06-18T12:15:41Z</time>
      </trkpt>
      <trkpt lat="42.3279160" lon="-8.6057080">
        <ele>60.0</ele>
        <time>2022-06-18T12:15:42Z</time>
      </trkpt>
      <trkpt lat="42.3279410" lon="-8.6057100">
        <ele>60.0</ele>
        <time>2022-06-18T12:15:43Z</time>
      </trkpt>
      <trkpt lat="42.3279650" lon="-8.6057100">
        <ele>60.0</ele>
        <time>2022-06-18T12:15:44Z</time>
      </trkpt>
      <trkpt lat="42.3279880" lon="-8.6057100">
        <ele>60.4</ele>
        <time>2022-06-18T12:15:45Z</time>
      </trkpt>
      <trkpt lat="42.3280110" lon="-8.6057080">
        <ele>60.4</ele>
        <time>2022-06-18T12:15:46Z</time>
      </trkpt>
      <trkpt lat="42.3280350" lon="-8.6057100">
        <ele>60.4</ele>
        <time>2022-06-18T12:15:47Z</time>
      </trkpt>
      <trkpt lat="42.3280580" lon="-8.6057110">
        <ele>60.4</ele>
        <time>2022-06-18T12:15:48Z</time>
      </trkpt>
      <trkpt lat="42.3280800" lon="-8.6057150">
        <ele>60.4</ele>
        <time>2022-06-18T12:15:49Z</time>
      </trkpt>
      <trkpt lat="42.3281030" lon="-8.6057130">
        <ele>60.8</ele>
        <time>2022-06-18T12:15:50Z</time>
      </trkpt>
      <trkpt lat="42.3281300" lon="-8.6057200">
        <ele>60.8</ele>
        <time>2022-06-18T12:15:51Z</time>
      </trkpt>
      <trkpt lat="42.3281550" lon="-8.6057250">
        <ele>60.8</ele>
        <time>2022-06-18T12:15:52Z</time>
      </trkpt>
      <trkpt lat="42.3281800" lon="-8.6057300">
        <ele>61.4</ele>
        <time>2022-06-18T12:15:53Z</time>
      </trkpt>
      <trkpt lat="42.3282010" lon="-8.6057350">
        <ele>61.4</ele>
        <time>2022-06-18T12:15:54Z</time>
      </trkpt>
      <trkpt lat="42.3282250" lon="-8.6057450">
        <ele>61.4</ele>
        <time>2022-06-18T12:15:55Z</time>
      </trkpt>
      <trkpt lat="42.3282480" lon="-8.6057530">
        <ele>61.4</ele>
        <time>2022-06-18T12:15:56Z</time>
      </trkpt>
      <trkpt lat="42.3282710" lon="-8.6057630">
        <ele>61.4</ele>
        <time>2022-06-18T12:15:57Z</time>
      </trkpt>
      <trkpt lat="42.3282960" lon="-8.6057730">
        <ele>61.4</ele>
        <time>2022-06-18T12:15:58Z</time>
      </trkpt>
      <trkpt lat="42.3283200" lon="-8.6057830">
        <ele>61.4</ele>
        <time>2022-06-18T12:15:59Z</time>
      </trkpt>
      <trkpt lat="42.3283450" lon="-8.6057930">
        <ele>61.4</ele>
        <time>2022-06-18T12:16:00Z</time>
      </trkpt>
      <trkpt lat="42.3283700" lon="-8.6058060">
        <ele>62.2</ele>
        <time>2022-06-18T12:16:01Z</time>
      </trkpt>
      <trkpt lat="42.3283950" lon="-8.6058180">
        <ele>62.4</ele>
        <time>2022-06-18T12:16:02Z</time>
      </trkpt>
      <trkpt lat="42.3284160" lon="-8.6058300">
        <ele>62.4</ele>
        <time>2022-06-18T12:16:03Z</time>
      </trkpt>
      <trkpt lat="42.3284400" lon="-8.6058380">
        <ele>62.4</ele>
        <time>2022-06-18T12:16:04Z</time>
      </trkpt>
      <trkpt lat="42.3284650" lon="-8.6058450">
        <ele>62.8</ele>
        <time>2022-06-18T12:16:05Z</time>
      </trkpt>
      <trkpt lat="42.3284880" lon="-8.6058550">
        <ele>62.6</ele>
        <time>2022-06-18T12:16:06Z</time>
      </trkpt>
      <trkpt lat="42.3285080" lon="-8.6058680">
        <ele>62.6</ele>
        <time>2022-06-18T12:16:07Z</time>
      </trkpt>
      <trkpt lat="42.3285300" lon="-8.6058830">
        <ele>62.6</ele>
        <time>2022-06-18T12:16:08Z</time>
      </trkpt>
      <trkpt lat="42.3285510" lon="-8.6058960">
        <ele>63.2</ele>
        <time>2022-06-18T12:16:09Z</time>
      </trkpt>
      <trkpt lat="42.3285730" lon="-8.6059150">
        <ele>63.2</ele>
        <time>2022-06-18T12:16:10Z</time>
      </trkpt>
      <trkpt lat="42.3285960" lon="-8.6059350">
        <ele>63.2</ele>
        <time>2022-06-18T12:16:11Z</time>
      </trkpt>
      <trkpt lat="42.3286210" lon="-8.6059480">
        <ele>63.2</ele>
        <time>2022-06-18T12:16:12Z</time>
      </trkpt>
      <trkpt lat="42.3286460" lon="-8.6059610">
        <ele>64.0</ele>
        <time>2022-06-18T12:16:13Z</time>
      </trkpt>
      <trkpt lat="42.3286710" lon="-8.6059810">
        <ele>64.0</ele>
        <time>2022-06-18T12:16:14Z</time>
      </trkpt>
      <trkpt lat="42.3286930" lon="-8.6060000">
        <ele>64.0</ele>
        <time>2022-06-18T12:16:15Z</time>
      </trkpt>
      <trkpt lat="42.3287180" lon="-8.6060160">
        <ele>64.0</ele>
        <time>2022-06-18T12:16:16Z</time>
      </trkpt>
      <trkpt lat="42.3287410" lon="-8.6060280">
        <ele>64.0</ele>
        <time>2022-06-18T12:16:17Z</time>
      </trkpt>
      <trkpt lat="42.3287650" lon="-8.6060360">
        <ele>64.8</ele>
        <time>2022-06-18T12:16:18Z</time>
      </trkpt>
      <trkpt lat="42.3287850" lon="-8.6060510">
        <ele>64.8</ele>
        <time>2022-06-18T12:16:19Z</time>
      </trkpt>
      <trkpt lat="42.3288100" lon="-8.6060660">
        <ele>64.8</ele>
        <time>2022-06-18T12:16:20Z</time>
      </trkpt>
      <trkpt lat="42.3288280" lon="-8.6060710">
        <ele>64.8</ele>
        <time>2022-06-18T12:16:21Z</time>
      </trkpt>
      <trkpt lat="42.3288530" lon="-8.6060830">
        <ele>64.8</ele>
        <time>2022-06-18T12:16:22Z</time>
      </trkpt>
      <trkpt lat="42.3288760" lon="-8.6061000">
        <ele>64.8</ele>
        <time>2022-06-18T12:16:23Z</time>
      </trkpt>
      <trkpt lat="42.3289010" lon="-8.6061130">
        <ele>64.8</ele>
        <time>2022-06-18T12:16:24Z</time>
      </trkpt>
      <trkpt lat="42.3289250" lon="-8.6061260">
        <ele>64.8</ele>
        <time>2022-06-18T12:16:25Z</time>
      </trkpt>
      <trkpt lat="42.3289500" lon="-8.6061460">
        <ele>65.6</ele>
        <time>2022-06-18T12:16:26Z</time>
      </trkpt>
      <trkpt lat="42.3289750" lon="-8.6061610">
        <ele>65.6</ele>
        <time>2022-06-18T12:16:27Z</time>
      </trkpt>
      <trkpt lat="42.3289960" lon="-8.6061780">
        <ele>65.6</ele>
        <time>2022-06-18T12:16:28Z</time>
      </trkpt>
      <trkpt lat="42.3290200" lon="-8.6061930">
        <ele>66.2</ele>
        <time>2022-06-18T12:16:29Z</time>
      </trkpt>
      <trkpt lat="42.3290430" lon="-8.6062080">
        <ele>66.6</ele>
        <time>2022-06-18T12:16:30Z</time>
      </trkpt>
      <trkpt lat="42.3290680" lon="-8.6062280">
        <ele>66.6</ele>
        <time>2022-06-18T12:16:31Z</time>
      </trkpt>
      <trkpt lat="42.3290910" lon="-8.6062400">
        <ele>66.6</ele>
        <time>2022-06-18T12:16:32Z</time>
      </trkpt>
      <trkpt lat="42.3291150" lon="-8.6062550">
        <ele>66.6</ele>
        <time>2022-06-18T12:16:33Z</time>
      </trkpt>
      <trkpt lat="42.3291380" lon="-8.6062660">
        <ele>66.8</ele>
        <time>2022-06-18T12:16:34Z</time>
      </trkpt>
      <trkpt lat="42.3291610" lon="-8.6062760">
        <ele>66.8</ele>
        <time>2022-06-18T12:16:35Z</time>
      </trkpt>
      <trkpt lat="42.3291860" lon="-8.6062930">
        <ele>66.8</ele>
        <time>2022-06-18T12:16:36Z</time>
      </trkpt>
      <trkpt lat="42.3292100" lon="-8.6063150">
        <ele>67.4</ele>
        <time>2022-06-18T12:16:37Z</time>
      </trkpt>
      <trkpt lat="42.3292310" lon="-8.6063350">
        <ele>67.6</ele>
        <time>2022-06-18T12:16:38Z</time>
      </trkpt>
      <trkpt lat="42.3292550" lon="-8.6063560">
        <ele>67.6</ele>
        <time>2022-06-18T12:16:39Z</time>
      </trkpt>
      <trkpt lat="42.3292800" lon="-8.6063710">
        <ele>67.6</ele>
        <time>2022-06-18T12:16:40Z</time>
      </trkpt>
      <trkpt lat="42.3293050" lon="-8.6063810">
        <ele>68.0</ele>
        <time>2022-06-18T12:16:41Z</time>
      </trkpt>
      <trkpt lat="42.3293280" lon="-8.6063960">
        <ele>67.8</ele>
        <time>2022-06-18T12:16:42Z</time>
      </trkpt>
      <trkpt lat="42.3293500" lon="-8.6064080">
        <ele>67.8</ele>
        <time>2022-06-18T12:16:43Z</time>
      </trkpt>
      <trkpt lat="42.3293730" lon="-8.6064250">
        <ele>67.8</ele>
        <time>2022-06-18T12:16:44Z</time>
      </trkpt>
      <trkpt lat="42.3293950" lon="-8.6064430">
        <ele>68.8</ele>
        <time>2022-06-18T12:16:45Z</time>
      </trkpt>
      <trkpt lat="42.3294180" lon="-8.6064580">
        <ele>69.2</ele>
        <time>2022-06-18T12:16:46Z</time>
      </trkpt>
      <trkpt lat="42.3294400" lon="-8.6064730">
        <ele>69.2</ele>
        <time>2022-06-18T12:16:47Z</time>
      </trkpt>
      <trkpt lat="42.3294610" lon="-8.6064860">
        <ele>69.2</ele>
        <time>2022-06-18T12:16:48Z</time>
      </trkpt>
      <trkpt lat="42.3294850" lon="-8.6065000">
        <ele>69.4</ele>
        <time>2022-06-18T12:16:49Z</time>
      </trkpt>
      <trkpt lat="42.3295100" lon="-8.6065130">
        <ele>69.8</ele>
        <time>2022-06-18T12:16:50Z</time>
      </trkpt>
      <trkpt lat="42.3295330" lon="-8.6065260">
        <ele>69.8</ele>
        <time>2022-06-18T12:16:51Z</time>
      </trkpt>
      <trkpt lat="42.3295560" lon="-8.6065400">
        <ele>69.8</ele>
        <time>2022-06-18T12:16:52Z</time>
      </trkpt>
      <trkpt lat="42.3295800" lon="-8.6065510">
        <ele>69.8</ele>
        <time>2022-06-18T12:16:53Z</time>
      </trkpt>
      <trkpt lat="42.3296050" lon="-8.6065630">
        <ele>70.2</ele>
        <time>2022-06-18T12:16:54Z</time>
      </trkpt>
      <trkpt lat="42.3296300" lon="-8.6065750">
        <ele>70.2</ele>
        <time>2022-06-18T12:16:55Z</time>
      </trkpt>
      <trkpt lat="42.3296550" lon="-8.6065860">
        <ele>70.2</ele>
        <time>2022-06-18T12:16:56Z</time>
      </trkpt>
      <trkpt lat="42.3296800" lon="-8.6065960">
        <ele>70.2</ele>
        <time>2022-06-18T12:16:57Z</time>
      </trkpt>
      <trkpt lat="42.3297010" lon="-8.6066080">
        <ele>70.6</ele>
        <time>2022-06-18T12:16:58Z</time>
      </trkpt>
      <trkpt lat="42.3297210" lon="-8.6066160">
        <ele>70.6</ele>
        <time>2022-06-18T12:16:59Z</time>
      </trkpt>
      <trkpt lat="42.3297450" lon="-8.6066250">
        <ele>70.6</ele>
        <time>2022-06-18T12:17:00Z</time>
      </trkpt>
      <trkpt lat="42.3297680" lon="-8.6066310">
        <ele>71.2</ele>
        <time>2022-06-18T12:17:01Z</time>
      </trkpt>
      <trkpt lat="42.3297900" lon="-8.6066400">
        <ele>71.2</ele>
        <time>2022-06-18T12:17:02Z</time>
      </trkpt>
      <trkpt lat="42.3298110" lon="-8.6066450">
        <ele>71.2</ele>
        <time>2022-06-18T12:17:03Z</time>
      </trkpt>
      <trkpt lat="42.3298330" lon="-8.6066530">
        <ele>71.2</ele>
        <time>2022-06-18T12:17:04Z</time>
      </trkpt>
      <trkpt lat="42.3298550" lon="-8.6066610">
        <ele>71.2</ele>
        <time>2022-06-18T12:17:05Z</time>
      </trkpt>
      <trkpt lat="42.3298780" lon="-8.6066680">
        <ele>71.6</ele>
        <time>2022-06-18T12:17:06Z</time>
      </trkpt>
      <trkpt lat="42.3299010" lon="-8.6066730">
        <ele>71.6</ele>
        <time>2022-06-18T12:17:07Z</time>
      </trkpt>
      <trkpt lat="42.3299230" lon="-8.6066800">
        <ele>71.6</ele>
        <time>2022-06-18T12:17:08Z</time>
      </trkpt>
      <trkpt lat="42.3299430" lon="-8.6066880">
        <ele>72.2</ele>
        <time>2022-06-18T12:17:09Z</time>
      </trkpt>
      <trkpt lat="42.3299660" lon="-8.6066950">
        <ele>72.4</ele>
        <time>2022-06-18T12:17:10Z</time>
      </trkpt>
      <trkpt lat="42.3299900" lon="-8.6066980">
        <ele>72.4</ele>
        <time>2022-06-18T12:17:11Z</time>
      </trkpt>
      <trkpt lat="42.3300110" lon="-8.6066960">
        <ele>72.4</ele>
        <time>2022-06-18T12:17:12Z</time>
      </trkpt>
      <trkpt lat="42.3300310" lon="-8.6066960">
        <ele>73.0</ele>
        <time>2022-06-18T12:17:13Z</time>
      </trkpt>
      <trkpt lat="42.3300530" lon="-8.6066980">
        <ele>73.2</ele>
        <time>2022-06-18T12:17:14Z</time>
      </trkpt>
      <trkpt lat="42.3300760" lon="-8.6067030">
        <ele>73.2</ele>
        <time>2022-06-18T12:17:15Z</time>
      </trkpt>
      <trkpt lat="42.3301000" lon="-8.6067030">
        <ele>73.2</ele>
        <time>2022-06-18T12:17:16Z</time>
      </trkpt>
      <trkpt lat="42.3301230" lon="-8.6067060">
        <ele>73.2</ele>
        <time>2022-06-18T12:17:17Z</time>
      </trkpt>
      <trkpt lat="42.3301480" lon="-8.6067080">
        <ele>73.4</ele>
        <time>2022-06-18T12:17:18Z</time>
      </trkpt>
      <trkpt lat="42.3301730" lon="-8.6067130">
        <ele>73.4</ele>
        <time>2022-06-18T12:17:19Z</time>
      </trkpt>
      <trkpt lat="42.3302000" lon="-8.6067160">
        <ele>73.4</ele>
        <time>2022-06-18T12:17:20Z</time>
      </trkpt>
      <trkpt lat="42.3302210" lon="-8.6067200">
        <ele>73.8</ele>
        <time>2022-06-18T12:17:21Z</time>
      </trkpt>
      <trkpt lat="42.3302430" lon="-8.6067230">
        <ele>74.0</ele>
        <time>2022-06-18T12:17:22Z</time>
      </trkpt>
      <trkpt lat="42.3302650" lon="-8.6067260">
        <ele>74.0</ele>
        <time>2022-06-18T12:17:23Z</time>
      </trkpt>
      <trkpt lat="42.3302860" lon="-8.6067280">
        <ele>74.0</ele>
        <time>2022-06-18T12:17:24Z</time>
      </trkpt>
      <trkpt lat="42.3303100" lon="-8.6067300">
        <ele>74.0</ele>
        <time>2022-06-18T12:17:25Z</time>
      </trkpt>
      <trkpt lat="42.3303350" lon="-8.6067360">
        <ele>74.4</ele>
        <time>2022-06-18T12:17:26Z</time>
      </trkpt>
      <trkpt lat="42.3303610" lon="-8.6067400">
        <ele>74.4</ele>
        <time>2022-06-18T12:17:27Z</time>
      </trkpt>
      <trkpt lat="42.3303850" lon="-8.6067430">
        <ele>74.4</ele>
        <time>2022-06-18T12:17:28Z</time>
      </trkpt>
      <trkpt lat="42.3304080" lon="-8.6067460">
        <ele>75.2</ele>
        <time>2022-06-18T12:17:29Z</time>
      </trkpt>
      <trkpt lat="42.3304310" lon="-8.6067500">
        <ele>75.2</ele>
        <time>2022-06-18T12:17:30Z</time>
      </trkpt>
      <trkpt lat="42.3304550" lon="-8.6067550">
        <ele>75.2</ele>
        <time>2022-06-18T12:17:31Z</time>
      </trkpt>
      <trkpt lat="42.3304800" lon="-8.6067510">
        <ele>75.2</ele>
        <time>2022-06-18T12:17:32Z</time>
      </trkpt>
      <trkpt lat="42.3305060" lon="-8.6067550">
        <ele>75.2</ele>
        <time>2022-06-18T12:17:33Z</time>
      </trkpt>
      <trkpt lat="42.3305310" lon="-8.6067600">
        <ele>75.4</ele>
        <time>2022-06-18T12:17:34Z</time>
      </trkpt>
      <trkpt lat="42.3305550" lon="-8.6067650">
        <ele>75.4</ele>
        <time>2022-06-18T12:17:35Z</time>
      </trkpt>
      <trkpt lat="42.3305760" lon="-8.6067610">
        <ele>75.4</ele>
        <time>2022-06-18T12:17:36Z</time>
      </trkpt>
      <trkpt lat="42.3306010" lon="-8.6067650">
        <ele>75.4</ele>
        <time>2022-06-18T12:17:37Z</time>
      </trkpt>
      <trkpt lat="42.3306250" lon="-8.6067650">
        <ele>75.8</ele>
        <time>2022-06-18T12:17:38Z</time>
      </trkpt>
      <trkpt lat="42.3306510" lon="-8.6067650">
        <ele>75.8</ele>
        <time>2022-06-18T12:17:39Z</time>
      </trkpt>
      <trkpt lat="42.3306760" lon="-8.6067660">
        <ele>75.8</ele>
        <time>2022-06-18T12:17:40Z</time>
      </trkpt>
      <trkpt lat="42.3306980" lon="-8.6067680">
        <ele>75.8</ele>
        <time>2022-06-18T12:17:41Z</time>
      </trkpt>
      <trkpt lat="42.3307210" lon="-8.6067700">
        <ele>76.2</ele>
        <time>2022-06-18T12:17:42Z</time>
      </trkpt>
      <trkpt lat="42.3307480" lon="-8.6067710">
        <ele>76.2</ele>
        <time>2022-06-18T12:17:43Z</time>
      </trkpt>
      <trkpt lat="42.3307700" lon="-8.6067710">
        <ele>76.2</ele>
        <time>2022-06-18T12:17:44Z</time>
      </trkpt>
      <trkpt lat="42.3307910" lon="-8.6067750">
        <ele>76.2</ele>
        <time>2022-06-18T12:17:45Z</time>
      </trkpt>
      <trkpt lat="42.3308150" lon="-8.6067780">
        <ele>76.6</ele>
        <time>2022-06-18T12:17:46Z</time>
      </trkpt>
      <trkpt lat="42.3308380" lon="-8.6067780">
        <ele>76.6</ele>
        <time>2022-06-18T12:17:47Z</time>
      </trkpt>
      <trkpt lat="42.3308610" lon="-8.6067800">
        <ele>76.6</ele>
        <time>2022-06-18T12:17:48Z</time>
      </trkpt>
      <trkpt lat="42.3308850" lon="-8.6067810">
        <ele>76.6</ele>
        <time>2022-06-18T12:17:49Z</time>
      </trkpt>
      <trkpt lat="42.3309080" lon="-8.6067830">
        <ele>76.8</ele>
        <time>2022-06-18T12:17:50Z</time>
      </trkpt>
      <trkpt lat="42.3309330" lon="-8.6067860">
        <ele>76.8</ele>
        <time>2022-06-18T12:17:51Z</time>
      </trkpt>
      <trkpt lat="42.3309560" lon="-8.6067860">
        <ele>76.8</ele>
        <time>2022-06-18T12:17:52Z</time>
      </trkpt>
      <trkpt lat="42.3309780" lon="-8.6067860">
        <ele>77.2</ele>
        <time>2022-06-18T12:17:53Z</time>
      </trkpt>
      <trkpt lat="42.3310010" lon="-8.6067860">
        <ele>77.4</ele>
        <time>2022-06-18T12:17:54Z</time>
      </trkpt>
      <trkpt lat="42.3310260" lon="-8.6067900">
        <ele>77.4</ele>
        <time>2022-06-18T12:17:55Z</time>
      </trkpt>
      <trkpt lat="42.3310500" lon="-8.6067910">
        <ele>77.4</ele>
        <time>2022-06-18T12:17:56Z</time>
      </trkpt>
      <trkpt lat="42.3310750" lon="-8.6067930">
        <ele>78.2</ele>
        <time>2022-06-18T12:17:57Z</time>
      </trkpt>
      <trkpt lat="42.3311000" lon="-8.6067960">
        <ele>77.8</ele>
        <time>2022-06-18T12:17:58Z</time>
      </trkpt>
      <trkpt lat="42.3311230" lon="-8.6067980">
        <ele>77.8</ele>
        <time>2022-06-18T12:17:59Z</time>
      </trkpt>
      <trkpt lat="42.3311450" lon="-8.6067980">
        <ele>77.8</ele>
        <time>2022-06-18T12:18:00Z</time>
      </trkpt>
      <trkpt lat="42.3311700" lon="-8.6068000">
        <ele>77.8</ele>
        <time>2022-06-18T12:18:01Z</time>
      </trkpt>
      <trkpt lat="42.3311930" lon="-8.6068010">
        <ele>77.8</ele>
        <time>2022-06-18T12:18:02Z</time>
      </trkpt>
      <trkpt lat="42.3312180" lon="-8.6068010">
        <ele>77.8</ele>
        <time>2022-06-18T12:18:03Z</time>
      </trkpt>
      <trkpt lat="42.3312430" lon="-8.6068060">
        <ele>77.8</ele>
        <time>2022-06-18T12:18:04Z</time>
      </trkpt>
      <trkpt lat="42.3312660" lon="-8.6068080">
        <ele>78.2</ele>
        <time>2022-06-18T12:18:05Z</time>
      </trkpt>
      <trkpt lat="42.3312930" lon="-8.6068130">
        <ele>78.6</ele>
        <time>2022-06-18T12:18:06Z</time>
      </trkpt>
      <trkpt lat="42.3313180" lon="-8.6068150">
        <ele>78.6</ele>
        <time>2022-06-18T12:18:07Z</time>
      </trkpt>
      <trkpt lat="42.3313410" lon="-8.6068180">
        <ele>78.6</ele>
        <time>2022-06-18T12:18:08Z</time>
      </trkpt>
      <trkpt lat="42.3313650" lon="-8.6068200">
        <ele>78.2</ele>
        <time>2022-06-18T12:18:09Z</time>
      </trkpt>
      <trkpt lat="42.3313860" lon="-8.6068210">
        <ele>78.8</ele>
        <time>2022-06-18T12:18:10Z</time>
      </trkpt>
      <trkpt lat="42.3314100" lon="-8.6068260">
        <ele>78.8</ele>
        <time>2022-06-18T12:18:11Z</time>
      </trkpt>
      <trkpt lat="42.3314330" lon="-8.6068280">
        <ele>78.8</ele>
        <time>2022-06-18T12:18:12Z</time>
      </trkpt>
      <trkpt lat="42.3314550" lon="-8.6068310">
        <ele>78.8</ele>
        <time>2022-06-18T12:18:13Z</time>
      </trkpt>
      <trkpt lat="42.3314760" lon="-8.6068350">
        <ele>78.8</ele>
        <time>2022-06-18T12:18:14Z</time>
      </trkpt>
      <trkpt lat="42.3314980" lon="-8.6068350">
        <ele>78.8</ele>
        <time>2022-06-18T12:18:15Z</time>
      </trkpt>
      <trkpt lat="42.3315200" lon="-8.6068360">
        <ele>78.8</ele>
        <time>2022-06-18T12:18:16Z</time>
      </trkpt>
      <trkpt lat="42.3315380" lon="-8.6068360">
        <ele>78.8</ele>
        <time>2022-06-18T12:18:17Z</time>
      </trkpt>
      <trkpt lat="42.3315550" lon="-8.6068360">
        <ele>78.6</ele>
        <time>2022-06-18T12:18:18Z</time>
      </trkpt>
      <trkpt lat="42.3315610" lon="-8.6068350">
        <ele>78.6</ele>
        <time>2022-06-18T12:18:19Z</time>
      </trkpt>
      <trkpt lat="42.3315710" lon="-8.6068310">
        <ele>78.4</ele>
        <time>2022-06-18T12:18:42Z</time>
      </trkpt>
      <trkpt lat="42.3315950" lon="-8.6068330">
        <ele>78.4</ele>
        <time>2022-06-18T12:18:43Z</time>
      </trkpt>
      <trkpt lat="42.3316210" lon="-8.6068330">
        <ele>78.4</ele>
        <time>2022-06-18T12:18:44Z</time>
      </trkpt>
      <trkpt lat="42.3316460" lon="-8.6068300">
        <ele>78.4</ele>
        <time>2022-06-18T12:18:45Z</time>
      </trkpt>
      <trkpt lat="42.3316730" lon="-8.6068310">
        <ele>77.8</ele>
        <time>2022-06-18T12:18:46Z</time>
      </trkpt>
      <trkpt lat="42.3317030" lon="-8.6068310">
        <ele>77.8</ele>
        <time>2022-06-18T12:18:47Z</time>
      </trkpt>
      <trkpt lat="42.3317350" lon="-8.6068330">
        <ele>77.8</ele>
        <time>2022-06-18T12:18:48Z</time>
      </trkpt>
      <trkpt lat="42.3317660" lon="-8.6068380">
        <ele>77.8</ele>
        <time>2022-06-18T12:18:49Z</time>
      </trkpt>
      <trkpt lat="42.3318000" lon="-8.6068400">
        <ele>78.2</ele>
        <time>2022-06-18T12:18:50Z</time>
      </trkpt>
      <trkpt lat="42.3318360" lon="-8.6068330">
        <ele>78.2</ele>
        <time>2022-06-18T12:18:51Z</time>
      </trkpt>
      <trkpt lat="42.3318760" lon="-8.6068280">
        <ele>78.2</ele>
        <time>2022-06-18T12:18:52Z</time>
      </trkpt>
      <trkpt lat="42.3319180" lon="-8.6068250">
        <ele>77.6</ele>
        <time>2022-06-18T12:18:53Z</time>
      </trkpt>
      <trkpt lat="42.3319630" lon="-8.6068210">
        <ele>77.2</ele>
        <time>2022-06-18T12:18:54Z</time>
      </trkpt>
      <trkpt lat="42.3320050" lon="-8.6068160">
        <ele>77.2</ele>
        <time>2022-06-18T12:18:55Z</time>
      </trkpt>
      <trkpt lat="42.3320450" lon="-8.6068130">
        <ele>77.2</ele>
        <time>2022-06-18T12:18:56Z</time>
      </trkpt>
      <trkpt lat="42.3320880" lon="-8.6068100">
        <ele>76.2</ele>
        <time>2022-06-18T12:18:57Z</time>
      </trkpt>
      <trkpt lat="42.3321310" lon="-8.6068060">
        <ele>76.2</ele>
        <time>2022-06-18T12:18:58Z</time>
      </trkpt>
      <trkpt lat="42.3321750" lon="-8.6068050">
        <ele>76.2</ele>
        <time>2022-06-18T12:18:59Z</time>
      </trkpt>
      <trkpt lat="42.3322210" lon="-8.6068010">
        <ele>76.2</ele>
        <time>2022-06-18T12:19:00Z</time>
      </trkpt>
      <trkpt lat="42.3322680" lon="-8.6067960">
        <ele>75.2</ele>
        <time>2022-06-18T12:19:01Z</time>
      </trkpt>
      <trkpt lat="42.3323110" lon="-8.6067910">
        <ele>75.2</ele>
        <time>2022-06-18T12:19:02Z</time>
      </trkpt>
      <trkpt lat="42.3323560" lon="-8.6067860">
        <ele>75.2</ele>
        <time>2022-06-18T12:19:03Z</time>
      </trkpt>
      <trkpt lat="42.3324010" lon="-8.6067810">
        <ele>75.2</ele>
        <time>2022-06-18T12:19:04Z</time>
      </trkpt>
      <trkpt lat="42.3324480" lon="-8.6067760">
        <ele>75.2</ele>
        <time>2022-06-18T12:19:05Z</time>
      </trkpt>
      <trkpt lat="42.3325000" lon="-8.6067710">
        <ele>74.0</ele>
        <time>2022-06-18T12:19:06Z</time>
      </trkpt>
      <trkpt lat="42.3325500" lon="-8.6067650">
        <ele>74.0</ele>
        <time>2022-06-18T12:19:07Z</time>
      </trkpt>
      <trkpt lat="42.3326010" lon="-8.6067610">
        <ele>74.0</ele>
        <time>2022-06-18T12:19:08Z</time>
      </trkpt>
      <trkpt lat="42.3326530" lon="-8.6067560">
        <ele>73.4</ele>
        <time>2022-06-18T12:19:09Z</time>
      </trkpt>
      <trkpt lat="42.3327060" lon="-8.6067500">
        <ele>72.8</ele>
        <time>2022-06-18T12:19:10Z</time>
      </trkpt>
      <trkpt lat="42.3327560" lon="-8.6067410">
        <ele>72.8</ele>
        <time>2022-06-18T12:19:11Z</time>
      </trkpt>
      <trkpt lat="42.3328060" lon="-8.6067360">
        <ele>72.8</ele>
        <time>2022-06-18T12:19:12Z</time>
      </trkpt>
      <trkpt lat="42.3328580" lon="-8.6067300">
        <ele>71.8</ele>
        <time>2022-06-18T12:19:13Z</time>
      </trkpt>
      <trkpt lat="42.3329100" lon="-8.6067230">
        <ele>72.0</ele>
        <time>2022-06-18T12:19:14Z</time>
      </trkpt>
      <trkpt lat="42.3329650" lon="-8.6067180">
        <ele>72.0</ele>
        <time>2022-06-18T12:19:15Z</time>
      </trkpt>
      <trkpt lat="42.3330210" lon="-8.6067180">
        <ele>72.0</ele>
        <time>2022-06-18T12:19:16Z</time>
      </trkpt>
      <trkpt lat="42.3330810" lon="-8.6067150">
        <ele>71.0</ele>
        <time>2022-06-18T12:19:17Z</time>
      </trkpt>
      <trkpt lat="42.3331450" lon="-8.6067080">
        <ele>69.2</ele>
        <time>2022-06-18T12:19:18Z</time>
      </trkpt>
      <trkpt lat="42.3332100" lon="-8.6066960">
        <ele>69.2</ele>
        <time>2022-06-18T12:19:19Z</time>
      </trkpt>
      <trkpt lat="42.3332750" lon="-8.6066880">
        <ele>69.2</ele>
        <time>2022-06-18T12:19:20Z</time>
      </trkpt>
      <trkpt lat="42.3333400" lon="-8.6066800">
        <ele>68.2</ele>
        <time>2022-06-18T12:19:21Z</time>
      </trkpt>
      <trkpt lat="42.3334050" lon="-8.6066760">
        <ele>68.4</ele>
        <time>2022-06-18T12:19:22Z</time>
      </trkpt>
      <trkpt lat="42.3334610" lon="-8.6066700">
        <ele>68.4</ele>
        <time>2022-06-18T12:19:23Z</time>
      </trkpt>
      <trkpt lat="42.3335110" lon="-8.6066660">
        <ele>68.4</ele>
        <time>2022-06-18T12:19:24Z</time>
      </trkpt>
      <trkpt lat="42.3335580" lon="-8.6066630">
        <ele>68.4</ele>
        <time>2022-06-18T12:19:25Z</time>
      </trkpt>
      <trkpt lat="42.3336000" lon="-8.6066610">
        <ele>68.2</ele>
        <time>2022-06-18T12:19:26Z</time>
      </trkpt>
      <trkpt lat="42.3336400" lon="-8.6066660">
        <ele>68.2</ele>
        <time>2022-06-18T12:19:27Z</time>
      </trkpt>
      <trkpt lat="42.3336760" lon="-8.6066710">
        <ele>68.2</ele>
        <time>2022-06-18T12:19:28Z</time>
      </trkpt>
      <trkpt lat="42.3337060" lon="-8.6066730">
        <ele>68.0</ele>
        <time>2022-06-18T12:19:29Z</time>
      </trkpt>
      <trkpt lat="42.3337330" lon="-8.6066730">
        <ele>68.0</ele>
        <time>2022-06-18T12:19:30Z</time>
      </trkpt>
      <trkpt lat="42.3337510" lon="-8.6066750">
        <ele>68.0</ele>
        <time>2022-06-18T12:19:31Z</time>
      </trkpt>
      <trkpt lat="42.3337610" lon="-8.6066750">
        <ele>68.0</ele>
        <time>2022-06-18T12:19:32Z</time>
      </trkpt>
      <trkpt lat="42.3337660" lon="-8.6066750">
        <ele>68.0</ele>
        <time>2022-06-18T12:19:33Z</time>
      </trkpt>
      <trkpt lat="42.3337700" lon="-8.6066760">
        <ele>67.4</ele>
        <time>2022-06-18T12:19:34Z</time>
      </trkpt>
      <trkpt lat="42.3337750" lon="-8.6066800">
        <ele>67.4</ele>
        <time>2022-06-18T12:19:35Z</time>
      </trkpt>
      <trkpt lat="42.3337880" lon="-8.6066780">
        <ele>67.4</ele>
        <time>2022-06-18T12:19:36Z</time>
      </trkpt>
      <trkpt lat="42.3338030" lon="-8.6066660">
        <ele>67.4</ele>
        <time>2022-06-18T12:19:37Z</time>
      </trkpt>
      <trkpt lat="42.3338300" lon="-8.6066600">
        <ele>67.2</ele>
        <time>2022-06-18T12:19:38Z</time>
      </trkpt>
      <trkpt lat="42.3338630" lon="-8.6066510">
        <ele>67.2</ele>
        <time>2022-06-18T12:19:39Z</time>
      </trkpt>
      <trkpt lat="42.3338980" lon="-8.6066450">
        <ele>67.2</ele>
        <time>2022-06-18T12:19:40Z</time>
      </trkpt>
      <trkpt lat="42.3339280" lon="-8.6066360">
        <ele>66.4</ele>
        <time>2022-06-18T12:19:41Z</time>
      </trkpt>
      <trkpt lat="42.3339560" lon="-8.6066300">
        <ele>66.2</ele>
        <time>2022-06-18T12:19:42Z</time>
      </trkpt>
      <trkpt lat="42.3339880" lon="-8.6066200">
        <ele>66.2</ele>
        <time>2022-06-18T12:19:43Z</time>
      </trkpt>
      <trkpt lat="42.3340180" lon="-8.6066030">
        <ele>66.2</ele>
        <time>2022-06-18T12:19:44Z</time>
      </trkpt>
      <trkpt lat="42.3340500" lon="-8.6065960">
        <ele>65.6</ele>
        <time>2022-06-18T12:19:45Z</time>
      </trkpt>
      <trkpt lat="42.3340860" lon="-8.6066030">
        <ele>65.8</ele>
        <time>2022-06-18T12:19:46Z</time>
      </trkpt>
      <trkpt lat="42.3341250" lon="-8.6066100">
        <ele>65.8</ele>
        <time>2022-06-18T12:19:47Z</time>
      </trkpt>
      <trkpt lat="42.3341650" lon="-8.6066200">
        <ele>65.8</ele>
        <time>2022-06-18T12:19:48Z</time>
      </trkpt>
      <trkpt lat="42.3342060" lon="-8.6066230">
        <ele>64.8</ele>
        <time>2022-06-18T12:19:49Z</time>
      </trkpt>
      <trkpt lat="42.3342450" lon="-8.6066260">
        <ele>64.0</ele>
        <time>2022-06-18T12:19:50Z</time>
      </trkpt>
      <trkpt lat="42.3342850" lon="-8.6066280">
        <ele>64.0</ele>
        <time>2022-06-18T12:19:51Z</time>
      </trkpt>
      <trkpt lat="42.3343310" lon="-8.6066250">
        <ele>64.0</ele>
        <time>2022-06-18T12:19:52Z</time>
      </trkpt>
      <trkpt lat="42.3343780" lon="-8.6066210">
        <ele>63.6</ele>
        <time>2022-06-18T12:19:53Z</time>
      </trkpt>
      <trkpt lat="42.3344260" lon="-8.6066200">
        <ele>63.6</ele>
        <time>2022-06-18T12:19:54Z</time>
      </trkpt>
      <trkpt lat="42.3344800" lon="-8.6066200">
        <ele>63.6</ele>
        <time>2022-06-18T12:19:55Z</time>
      </trkpt>
      <trkpt lat="42.3345360" lon="-8.6066200">
        <ele>63.6</ele>
        <time>2022-06-18T12:19:56Z</time>
      </trkpt>
      <trkpt lat="42.3346000" lon="-8.6066230">
        <ele>62.8</ele>
        <time>2022-06-18T12:19:57Z</time>
      </trkpt>
      <trkpt lat="42.3346650" lon="-8.6066310">
        <ele>62.0</ele>
        <time>2022-06-18T12:19:58Z</time>
      </trkpt>
      <trkpt lat="42.3347300" lon="-8.6066410">
        <ele>62.0</ele>
        <time>2022-06-18T12:19:59Z</time>
      </trkpt>
      <trkpt lat="42.3347950" lon="-8.6066550">
        <ele>62.0</ele>
        <time>2022-06-18T12:20:00Z</time>
      </trkpt>
      <trkpt lat="42.3348610" lon="-8.6066700">
        <ele>61.0</ele>
        <time>2022-06-18T12:20:01Z</time>
      </trkpt>
      <trkpt lat="42.3349310" lon="-8.6066880">
        <ele>58.8</ele>
        <time>2022-06-18T12:20:02Z</time>
      </trkpt>
      <trkpt lat="42.3350010" lon="-8.6067110">
        <ele>58.8</ele>
        <time>2022-06-18T12:20:03Z</time>
      </trkpt>
      <trkpt lat="42.3350750" lon="-8.6067380">
        <ele>58.8</ele>
        <time>2022-06-18T12:20:04Z</time>
      </trkpt>
      <trkpt lat="42.3351480" lon="-8.6067710">
        <ele>57.8</ele>
        <time>2022-06-18T12:20:05Z</time>
      </trkpt>
      <trkpt lat="42.3352230" lon="-8.6068100">
        <ele>57.2</ele>
        <time>2022-06-18T12:20:06Z</time>
      </trkpt>
      <trkpt lat="42.3353000" lon="-8.6068480">
        <ele>57.2</ele>
        <time>2022-06-18T12:20:07Z</time>
      </trkpt>
      <trkpt lat="42.3353830" lon="-8.6068860">
        <ele>57.2</ele>
        <time>2022-06-18T12:20:08Z</time>
      </trkpt>
      <trkpt lat="42.3354660" lon="-8.6069200">
        <ele>56.2</ele>
        <time>2022-06-18T12:20:09Z</time>
      </trkpt>
      <trkpt lat="42.3355460" lon="-8.6069530">
        <ele>54.6</ele>
        <time>2022-06-18T12:20:10Z</time>
      </trkpt>
      <trkpt lat="42.3356180" lon="-8.6069830">
        <ele>54.6</ele>
        <time>2022-06-18T12:20:11Z</time>
      </trkpt>
      <trkpt lat="42.3356850" lon="-8.6070100">
        <ele>54.6</ele>
        <time>2022-06-18T12:20:12Z</time>
      </trkpt>
      <trkpt lat="42.3357480" lon="-8.6070350">
        <ele>54.8</ele>
        <time>2022-06-18T12:20:13Z</time>
      </trkpt>
      <trkpt lat="42.3358100" lon="-8.6070630">
        <ele>54.4</ele>
        <time>2022-06-18T12:20:14Z</time>
      </trkpt>
      <trkpt lat="42.3358680" lon="-8.6070910">
        <ele>54.4</ele>
        <time>2022-06-18T12:20:15Z</time>
      </trkpt>
      <trkpt lat="42.3359210" lon="-8.6071180">
        <ele>54.4</ele>
        <time>2022-06-18T12:20:16Z</time>
      </trkpt>
      <trkpt lat="42.3359700" lon="-8.6071410">
        <ele>54.4</ele>
        <time>2022-06-18T12:20:17Z</time>
      </trkpt>
      <trkpt lat="42.3360150" lon="-8.6071630">
        <ele>54.6</ele>
        <time>2022-06-18T12:20:18Z</time>
      </trkpt>
      <trkpt lat="42.3360550" lon="-8.6071810">
        <ele>54.6</ele>
        <time>2022-06-18T12:20:19Z</time>
      </trkpt>
      <trkpt lat="42.3360930" lon="-8.6071980">
        <ele>54.6</ele>
        <time>2022-06-18T12:20:20Z</time>
      </trkpt>
      <trkpt lat="42.3361300" lon="-8.6072150">
        <ele>54.0</ele>
        <time>2022-06-18T12:20:21Z</time>
      </trkpt>
      <trkpt lat="42.3361660" lon="-8.6072280">
        <ele>54.0</ele>
        <time>2022-06-18T12:20:22Z</time>
      </trkpt>
      <trkpt lat="42.3362060" lon="-8.6072330">
        <ele>54.0</ele>
        <time>2022-06-18T12:20:23Z</time>
      </trkpt>
      <trkpt lat="42.3362430" lon="-8.6072230">
        <ele>54.0</ele>
        <time>2022-06-18T12:20:24Z</time>
      </trkpt>
      <trkpt lat="42.3362700" lon="-8.6072030">
        <ele>54.0</ele>
        <time>2022-06-18T12:20:25Z</time>
      </trkpt>
      <trkpt lat="42.3362900" lon="-8.6071810">
        <ele>53.2</ele>
        <time>2022-06-18T12:20:26Z</time>
      </trkpt>
      <trkpt lat="42.3363030" lon="-8.6071610">
        <ele>53.2</ele>
        <time>2022-06-18T12:20:27Z</time>
      </trkpt>
      <trkpt lat="42.3363110" lon="-8.6071450">
        <ele>53.2</ele>
        <time>2022-06-18T12:20:28Z</time>
      </trkpt>
      <trkpt lat="42.3363150" lon="-8.6071260">
        <ele>54.0</ele>
        <time>2022-06-18T12:20:29Z</time>
      </trkpt>
      <trkpt lat="42.3363160" lon="-8.6071060">
        <ele>54.4</ele>
        <time>2022-06-18T12:20:30Z</time>
      </trkpt>
      <trkpt lat="42.3363210" lon="-8.6070910">
        <ele>54.4</ele>
        <time>2022-06-18T12:20:31Z</time>
      </trkpt>
      <trkpt lat="42.3363250" lon="-8.6070860">
        <ele>54.4</ele>
        <time>2022-06-18T12:20:32Z</time>
      </trkpt>
      <trkpt lat="42.3363250" lon="-8.6070860">
        <ele>54.4</ele>
        <time>2022-06-18T12:20:33Z</time>
      </trkpt>
      <trkpt lat="42.3363560" lon="-8.6070310">
        <ele>54.4</ele>
        <time>2022-06-18T12:20:51Z</time>
      </trkpt>
      <trkpt lat="42.3363660" lon="-8.6070260">
        <ele>54.4</ele>
        <time>2022-06-18T12:20:52Z</time>
      </trkpt>
      <trkpt lat="42.3363730" lon="-8.6070080">
        <ele>54.6</ele>
        <time>2022-06-18T12:20:53Z</time>
      </trkpt>
      <trkpt lat="42.3363800" lon="-8.6069860">
        <ele>55.0</ele>
        <time>2022-06-18T12:20:54Z</time>
      </trkpt>
      <trkpt lat="42.3363880" lon="-8.6069650">
        <ele>55.0</ele>
        <time>2022-06-18T12:20:55Z</time>
      </trkpt>
      <trkpt lat="42.3363980" lon="-8.6069410">
        <ele>55.0</ele>
        <time>2022-06-18T12:20:56Z</time>
      </trkpt>
      <trkpt lat="42.3364080" lon="-8.6069230">
        <ele>55.4</ele>
        <time>2022-06-18T12:20:57Z</time>
      </trkpt>
      <trkpt lat="42.3364160" lon="-8.6069080">
        <ele>56.0</ele>
        <time>2022-06-18T12:20:58Z</time>
      </trkpt>
      <trkpt lat="42.3364230" lon="-8.6068950">
        <ele>56.0</ele>
        <time>2022-06-18T12:20:59Z</time>
      </trkpt>
      <trkpt lat="42.3364310" lon="-8.6068800">
        <ele>56.0</ele>
        <time>2022-06-18T12:21:00Z</time>
      </trkpt>
      <trkpt lat="42.3364400" lon="-8.6068630">
        <ele>56.0</ele>
        <time>2022-06-18T12:21:01Z</time>
      </trkpt>
      <trkpt lat="42.3364510" lon="-8.6068430">
        <ele>56.0</ele>
        <time>2022-06-18T12:21:02Z</time>
      </trkpt>
      <trkpt lat="42.3364650" lon="-8.6068210">
        <ele>56.0</ele>
        <time>2022-06-18T12:21:03Z</time>
      </trkpt>
      <trkpt lat="42.3364800" lon="-8.6068010">
        <ele>56.0</ele>
        <time>2022-06-18T12:21:04Z</time>
      </trkpt>
      <trkpt lat="42.3364910" lon="-8.6067810">
        <ele>56.0</ele>
        <time>2022-06-18T12:21:05Z</time>
      </trkpt>
      <trkpt lat="42.3364980" lon="-8.6067630">
        <ele>56.8</ele>
        <time>2022-06-18T12:21:06Z</time>
      </trkpt>
      <trkpt lat="42.3365050" lon="-8.6067450">
        <ele>56.8</ele>
        <time>2022-06-18T12:21:07Z</time>
      </trkpt>
      <trkpt lat="42.3365100" lon="-8.6067280">
        <ele>56.8</ele>
        <time>2022-06-18T12:21:08Z</time>
      </trkpt>
      <trkpt lat="42.3365180" lon="-8.6067160">
        <ele>56.8</ele>
        <time>2022-06-18T12:21:09Z</time>
      </trkpt>
      <trkpt lat="42.3365250" lon="-8.6067060">
        <ele>57.4</ele>
        <time>2022-06-18T12:21:10Z</time>
      </trkpt>
      <trkpt lat="42.3365350" lon="-8.6067030">
        <ele>57.4</ele>
        <time>2022-06-18T12:21:11Z</time>
      </trkpt>
      <trkpt lat="42.3365510" lon="-8.6067000">
        <ele>57.4</ele>
        <time>2022-06-18T12:21:12Z</time>
      </trkpt>
      <trkpt lat="42.3365730" lon="-8.6066930">
        <ele>57.4</ele>
        <time>2022-06-18T12:21:13Z</time>
      </trkpt>
      <trkpt lat="42.3365930" lon="-8.6066830">
        <ele>57.8</ele>
        <time>2022-06-18T12:21:14Z</time>
      </trkpt>
      <trkpt lat="42.3366150" lon="-8.6066780">
        <ele>57.8</ele>
        <time>2022-06-18T12:21:15Z</time>
      </trkpt>
      <trkpt lat="42.3366380" lon="-8.6066730">
        <ele>57.8</ele>
        <time>2022-06-18T12:21:16Z</time>
      </trkpt>
      <trkpt lat="42.3366610" lon="-8.6066610">
        <ele>57.2</ele>
        <time>2022-06-18T12:21:17Z</time>
      </trkpt>
      <trkpt lat="42.3366810" lon="-8.6066510">
        <ele>57.2</ele>
        <time>2022-06-18T12:21:18Z</time>
      </trkpt>
      <trkpt lat="42.3367010" lon="-8.6066500">
        <ele>57.2</ele>
        <time>2022-06-18T12:21:19Z</time>
      </trkpt>
      <trkpt lat="42.3367210" lon="-8.6066460">
        <ele>57.2</ele>
        <time>2022-06-18T12:21:20Z</time>
      </trkpt>
      <trkpt lat="42.3367430" lon="-8.6066400">
        <ele>58.0</ele>
        <time>2022-06-18T12:21:21Z</time>
      </trkpt>
      <trkpt lat="42.3367650" lon="-8.6066360">
        <ele>57.4</ele>
        <time>2022-06-18T12:21:22Z</time>
      </trkpt>
      <trkpt lat="42.3367850" lon="-8.6066300">
        <ele>57.4</ele>
        <time>2022-06-18T12:21:23Z</time>
      </trkpt>
      <trkpt lat="42.3368060" lon="-8.6066260">
        <ele>57.4</ele>
        <time>2022-06-18T12:21:24Z</time>
      </trkpt>
      <trkpt lat="42.3368260" lon="-8.6066280">
        <ele>58.0</ele>
        <time>2022-06-18T12:21:25Z</time>
      </trkpt>
      <trkpt lat="42.3368450" lon="-8.6066310">
        <ele>57.8</ele>
        <time>2022-06-18T12:21:26Z</time>
      </trkpt>
      <trkpt lat="42.3368630" lon="-8.6066310">
        <ele>57.8</ele>
        <time>2022-06-18T12:21:27Z</time>
      </trkpt>
      <trkpt lat="42.3368830" lon="-8.6066310">
        <ele>57.8</ele>
        <time>2022-06-18T12:21:28Z</time>
      </trkpt>
      <trkpt lat="42.3369050" lon="-8.6066300">
        <ele>57.8</ele>
        <time>2022-06-18T12:21:29Z</time>
      </trkpt>
      <trkpt lat="42.3369350" lon="-8.6066250">
        <ele>56.8</ele>
        <time>2022-06-18T12:21:30Z</time>
      </trkpt>
      <trkpt lat="42.3369680" lon="-8.6066180">
        <ele>56.8</ele>
        <time>2022-06-18T12:21:31Z</time>
      </trkpt>
      <trkpt lat="42.3370010" lon="-8.6066110">
        <ele>56.8</ele>
        <time>2022-06-18T12:21:32Z</time>
      </trkpt>
      <trkpt lat="42.3370330" lon="-8.6066100">
        <ele>56.8</ele>
        <time>2022-06-18T12:21:33Z</time>
      </trkpt>
      <trkpt lat="42.3370660" lon="-8.6066080">
        <ele>57.2</ele>
        <time>2022-06-18T12:21:34Z</time>
      </trkpt>
      <trkpt lat="42.3370980" lon="-8.6066060">
        <ele>57.2</ele>
        <time>2022-06-18T12:21:35Z</time>
      </trkpt>
      <trkpt lat="42.3371310" lon="-8.6066010">
        <ele>57.2</ele>
        <time>2022-06-18T12:21:36Z</time>
      </trkpt>
      <trkpt lat="42.3371630" lon="-8.6065980">
        <ele>57.4</ele>
        <time>2022-06-18T12:21:37Z</time>
      </trkpt>
      <trkpt lat="42.3371960" lon="-8.6065950">
        <ele>57.8</ele>
        <time>2022-06-18T12:21:38Z</time>
      </trkpt>
      <trkpt lat="42.3372260" lon="-8.6065960">
        <ele>57.8</ele>
        <time>2022-06-18T12:21:39Z</time>
      </trkpt>
      <trkpt lat="42.3372560" lon="-8.6066030">
        <ele>57.8</ele>
        <time>2022-06-18T12:21:40Z</time>
      </trkpt>
      <trkpt lat="42.3372860" lon="-8.6066160">
        <ele>57.8</ele>
        <time>2022-06-18T12:21:41Z</time>
      </trkpt>
      <trkpt lat="42.3373110" lon="-8.6066300">
        <ele>58.4</ele>
        <time>2022-06-18T12:21:42Z</time>
      </trkpt>
      <trkpt lat="42.3373360" lon="-8.6066410">
        <ele>58.4</ele>
        <time>2022-06-18T12:21:43Z</time>
      </trkpt>
      <trkpt lat="42.3373600" lon="-8.6066480">
        <ele>58.4</ele>
        <time>2022-06-18T12:21:44Z</time>
      </trkpt>
      <trkpt lat="42.3373830" lon="-8.6066550">
        <ele>58.4</ele>
        <time>2022-06-18T12:21:45Z</time>
      </trkpt>
      <trkpt lat="42.3374080" lon="-8.6066600">
        <ele>58.8</ele>
        <time>2022-06-18T12:21:46Z</time>
      </trkpt>
      <trkpt lat="42.3374310" lon="-8.6066630">
        <ele>58.8</ele>
        <time>2022-06-18T12:21:47Z</time>
      </trkpt>
      <trkpt lat="42.3374510" lon="-8.6066630">
        <ele>58.8</ele>
        <time>2022-06-18T12:21:48Z</time>
      </trkpt>
      <trkpt lat="42.3374680" lon="-8.6066550">
        <ele>58.8</ele>
        <time>2022-06-18T12:21:49Z</time>
      </trkpt>
      <trkpt lat="42.3374850" lon="-8.6066480">
        <ele>58.0</ele>
        <time>2022-06-18T12:21:50Z</time>
      </trkpt>
      <trkpt lat="42.3375050" lon="-8.6066400">
        <ele>58.0</ele>
        <time>2022-06-18T12:21:51Z</time>
      </trkpt>
      <trkpt lat="42.3375260" lon="-8.6066310">
        <ele>58.0</ele>
        <time>2022-06-18T12:21:52Z</time>
      </trkpt>
      <trkpt lat="42.3375530" lon="-8.6066180">
        <ele>57.4</ele>
        <time>2022-06-18T12:21:53Z</time>
      </trkpt>
      <trkpt lat="42.3375800" lon="-8.6066000">
        <ele>56.8</ele>
        <time>2022-06-18T12:21:54Z</time>
      </trkpt>
      <trkpt lat="42.3376130" lon="-8.6065860">
        <ele>56.8</ele>
        <time>2022-06-18T12:21:55Z</time>
      </trkpt>
      <trkpt lat="42.3376500" lon="-8.6065730">
        <ele>56.8</ele>
        <time>2022-06-18T12:21:56Z</time>
      </trkpt>
      <trkpt lat="42.3376880" lon="-8.6065560">
        <ele>56.8</ele>
        <time>2022-06-18T12:21:57Z</time>
      </trkpt>
      <trkpt lat="42.3377300" lon="-8.6065380">
        <ele>56.2</ele>
        <time>2022-06-18T12:21:58Z</time>
      </trkpt>
      <trkpt lat="42.3377710" lon="-8.6065210">
        <ele>56.2</ele>
        <time>2022-06-18T12:21:59Z</time>
      </trkpt>
      <trkpt lat="42.3378160" lon="-8.6065050">
        <ele>56.2</ele>
        <time>2022-06-18T12:22:00Z</time>
      </trkpt>
      <trkpt lat="42.3378610" lon="-8.6064930">
        <ele>55.2</ele>
        <time>2022-06-18T12:22:01Z</time>
      </trkpt>
      <trkpt lat="42.3379100" lon="-8.6064880">
        <ele>55.0</ele>
        <time>2022-06-18T12:22:02Z</time>
      </trkpt>
      <trkpt lat="42.3379610" lon="-8.6064900">
        <ele>55.0</ele>
        <time>2022-06-18T12:22:03Z</time>
      </trkpt>
      <trkpt lat="42.3380150" lon="-8.6064900">
        <ele>55.0</ele>
        <time>2022-06-18T12:22:04Z</time>
      </trkpt>
      <trkpt lat="42.3380680" lon="-8.6064880">
        <ele>54.0</ele>
        <time>2022-06-18T12:22:05Z</time>
      </trkpt>
      <trkpt lat="42.3381260" lon="-8.6064880">
        <ele>51.6</ele>
        <time>2022-06-18T12:22:06Z</time>
      </trkpt>
      <trkpt lat="42.3381850" lon="-8.6064850">
        <ele>51.6</ele>
        <time>2022-06-18T12:22:07Z</time>
      </trkpt>
      <trkpt lat="42.3382410" lon="-8.6064850">
        <ele>51.6</ele>
        <time>2022-06-18T12:22:08Z</time>
      </trkpt>
      <trkpt lat="42.3383030" lon="-8.6064950">
        <ele>50.6</ele>
        <time>2022-06-18T12:22:09Z</time>
      </trkpt>
      <trkpt lat="42.3383650" lon="-8.6065030">
        <ele>48.2</ele>
        <time>2022-06-18T12:22:10Z</time>
      </trkpt>
      <trkpt lat="42.3384300" lon="-8.6065100">
        <ele>48.2</ele>
        <time>2022-06-18T12:22:11Z</time>
      </trkpt>
      <trkpt lat="42.3384900" lon="-8.6065200">
        <ele>48.2</ele>
        <time>2022-06-18T12:22:12Z</time>
      </trkpt>
      <trkpt lat="42.3385510" lon="-8.6065260">
        <ele>48.2</ele>
        <time>2022-06-18T12:22:13Z</time>
      </trkpt>
      <trkpt lat="42.3386100" lon="-8.6065100">
        <ele>47.4</ele>
        <time>2022-06-18T12:22:14Z</time>
      </trkpt>
      <trkpt lat="42.3386660" lon="-8.6064800">
        <ele>47.4</ele>
        <time>2022-06-18T12:22:15Z</time>
      </trkpt>
      <trkpt lat="42.3387150" lon="-8.6064480">
        <ele>47.4</ele>
        <time>2022-06-18T12:22:16Z</time>
      </trkpt>
      <trkpt lat="42.3387650" lon="-8.6064260">
        <ele>47.4</ele>
        <time>2022-06-18T12:22:17Z</time>
      </trkpt>
      <trkpt lat="42.3388160" lon="-8.6064160">
        <ele>47.6</ele>
        <time>2022-06-18T12:22:18Z</time>
      </trkpt>
      <trkpt lat="42.3388730" lon="-8.6064130">
        <ele>47.6</ele>
        <time>2022-06-18T12:22:19Z</time>
      </trkpt>
      <trkpt lat="42.3389250" lon="-8.6064150">
        <ele>47.6</ele>
        <time>2022-06-18T12:22:20Z</time>
      </trkpt>
      <trkpt lat="42.3389730" lon="-8.6064180">
        <ele>47.6</ele>
        <time>2022-06-18T12:22:21Z</time>
      </trkpt>
      <trkpt lat="42.3390200" lon="-8.6064330">
        <ele>47.8</ele>
        <time>2022-06-18T12:22:22Z</time>
      </trkpt>
      <trkpt lat="42.3390630" lon="-8.6064550">
        <ele>47.8</ele>
        <time>2022-06-18T12:22:23Z</time>
      </trkpt>
      <trkpt lat="42.3391030" lon="-8.6064800">
        <ele>47.8</ele>
        <time>2022-06-18T12:22:24Z</time>
      </trkpt>
      <trkpt lat="42.3391380" lon="-8.6065150">
        <ele>47.8</ele>
        <time>2022-06-18T12:22:25Z</time>
      </trkpt>
      <trkpt lat="42.3391710" lon="-8.6065480">
        <ele>48.2</ele>
        <time>2022-06-18T12:22:26Z</time>
      </trkpt>
      <trkpt lat="42.3392060" lon="-8.6065780">
        <ele>48.2</ele>
        <time>2022-06-18T12:22:27Z</time>
      </trkpt>
      <trkpt lat="42.3392410" lon="-8.6066030">
        <ele>48.2</ele>
        <time>2022-06-18T12:22:28Z</time>
      </trkpt>
      <trkpt lat="42.3392760" lon="-8.6066210">
        <ele>48.2</ele>
        <time>2022-06-18T12:22:29Z</time>
      </trkpt>
      <trkpt lat="42.3393130" lon="-8.6066310">
        <ele>48.4</ele>
        <time>2022-06-18T12:22:30Z</time>
      </trkpt>
      <trkpt lat="42.3393530" lon="-8.6066410">
        <ele>48.4</ele>
        <time>2022-06-18T12:22:31Z</time>
      </trkpt>
      <trkpt lat="42.3393900" lon="-8.6066500">
        <ele>48.4</ele>
        <time>2022-06-18T12:22:32Z</time>
      </trkpt>
      <trkpt lat="42.3394280" lon="-8.6066560">
        <ele>47.6</ele>
        <time>2022-06-18T12:22:33Z</time>
      </trkpt>
      <trkpt lat="42.3394680" lon="-8.6066600">
        <ele>48.0</ele>
        <time>2022-06-18T12:22:34Z</time>
      </trkpt>
      <trkpt lat="42.3395060" lon="-8.6066660">
        <ele>48.0</ele>
        <time>2022-06-18T12:22:35Z</time>
      </trkpt>
      <trkpt lat="42.3395450" lon="-8.6066780">
        <ele>48.0</ele>
        <time>2022-06-18T12:22:36Z</time>
      </trkpt>
      <trkpt lat="42.3395850" lon="-8.6066850">
        <ele>48.0</ele>
        <time>2022-06-18T12:22:37Z</time>
      </trkpt>
      <trkpt lat="42.3396280" lon="-8.6066880">
        <ele>48.0</ele>
        <time>2022-06-18T12:22:38Z</time>
      </trkpt>
      <trkpt lat="42.3396750" lon="-8.6066860">
        <ele>48.0</ele>
        <time>2022-06-18T12:22:39Z</time>
      </trkpt>
      <trkpt lat="42.3397250" lon="-8.6066860">
        <ele>48.0</ele>
        <time>2022-06-18T12:22:40Z</time>
      </trkpt>
      <trkpt lat="42.3397700" lon="-8.6066810">
        <ele>47.0</ele>
        <time>2022-06-18T12:22:41Z</time>
      </trkpt>
      <trkpt lat="42.3398110" lon="-8.6066810">
        <ele>47.0</ele>
        <time>2022-06-18T12:22:42Z</time>
      </trkpt>
      <trkpt lat="42.3398510" lon="-8.6066950">
        <ele>47.0</ele>
        <time>2022-06-18T12:22:43Z</time>
      </trkpt>
      <trkpt lat="42.3398910" lon="-8.6067260">
        <ele>47.0</ele>
        <time>2022-06-18T12:22:44Z</time>
      </trkpt>
      <trkpt lat="42.3399350" lon="-8.6067650">
        <ele>46.0</ele>
        <time>2022-06-18T12:22:45Z</time>
      </trkpt>
      <trkpt lat="42.3399800" lon="-8.6068010">
        <ele>45.0</ele>
        <time>2022-06-18T12:22:46Z</time>
      </trkpt>
      <trkpt lat="42.3400250" lon="-8.6068350">
        <ele>45.0</ele>
        <time>2022-06-18T12:22:47Z</time>
      </trkpt>
      <trkpt lat="42.3400710" lon="-8.6068700">
        <ele>45.0</ele>
        <time>2022-06-18T12:22:48Z</time>
      </trkpt>
      <trkpt lat="42.3401210" lon="-8.6069000">
        <ele>44.8</ele>
        <time>2022-06-18T12:22:49Z</time>
      </trkpt>
      <trkpt lat="42.3401780" lon="-8.6069300">
        <ele>43.6</ele>
        <time>2022-06-18T12:22:50Z</time>
      </trkpt>
      <trkpt lat="42.3402410" lon="-8.6069610">
        <ele>43.6</ele>
        <time>2022-06-18T12:22:51Z</time>
      </trkpt>
      <trkpt lat="42.3403080" lon="-8.6069950">
        <ele>43.6</ele>
        <time>2022-06-18T12:22:52Z</time>
      </trkpt>
      <trkpt lat="42.3403810" lon="-8.6070350">
        <ele>42.6</ele>
        <time>2022-06-18T12:22:53Z</time>
      </trkpt>
      <trkpt lat="42.3404560" lon="-8.6070750">
        <ele>39.6</ele>
        <time>2022-06-18T12:22:54Z</time>
      </trkpt>
      <trkpt lat="42.3405350" lon="-8.6071080">
        <ele>39.6</ele>
        <time>2022-06-18T12:22:55Z</time>
      </trkpt>
      <trkpt lat="42.3406130" lon="-8.6071350">
        <ele>39.6</ele>
        <time>2022-06-18T12:22:56Z</time>
      </trkpt>
      <trkpt lat="42.3406900" lon="-8.6071410">
        <ele>38.6</ele>
        <time>2022-06-18T12:22:57Z</time>
      </trkpt>
      <trkpt lat="42.3407550" lon="-8.6071410">
        <ele>39.2</ele>
        <time>2022-06-18T12:22:58Z</time>
      </trkpt>
      <trkpt lat="42.3408100" lon="-8.6071680">
        <ele>39.2</ele>
        <time>2022-06-18T12:22:59Z</time>
      </trkpt>
      <trkpt lat="42.3408460" lon="-8.6072250">
        <ele>39.2</ele>
        <time>2022-06-18T12:23:00Z</time>
      </trkpt>
      <trkpt lat="42.3408660" lon="-8.6072980">
        <ele>38.2</ele>
        <time>2022-06-18T12:23:01Z</time>
      </trkpt>
      <trkpt lat="42.3408810" lon="-8.6073850">
        <ele>36.0</ele>
        <time>2022-06-18T12:23:02Z</time>
      </trkpt>
      <trkpt lat="42.3408960" lon="-8.6074730">
        <ele>36.0</ele>
        <time>2022-06-18T12:23:03Z</time>
      </trkpt>
      <trkpt lat="42.3409150" lon="-8.6075610">
        <ele>36.0</ele>
        <time>2022-06-18T12:23:04Z</time>
      </trkpt>
      <trkpt lat="42.3409260" lon="-8.6076510">
        <ele>35.2</ele>
        <time>2022-06-18T12:23:05Z</time>
      </trkpt>
      <trkpt lat="42.3409360" lon="-8.6077410">
        <ele>35.4</ele>
        <time>2022-06-18T12:23:06Z</time>
      </trkpt>
      <trkpt lat="42.3409510" lon="-8.6078250">
        <ele>35.4</ele>
        <time>2022-06-18T12:23:07Z</time>
      </trkpt>
      <trkpt lat="42.3409610" lon="-8.6079100">
        <ele>35.4</ele>
        <time>2022-06-18T12:23:08Z</time>
      </trkpt>
      <trkpt lat="42.3409850" lon="-8.6079950">
        <ele>35.4</ele>
        <time>2022-06-18T12:23:09Z</time>
      </trkpt>
      <trkpt lat="42.3410200" lon="-8.6080680">
        <ele>34.8</ele>
        <time>2022-06-18T12:23:10Z</time>
      </trkpt>
      <trkpt lat="42.3410580" lon="-8.6081310">
        <ele>34.8</ele>
        <time>2022-06-18T12:23:11Z</time>
      </trkpt>
      <trkpt lat="42.3410960" lon="-8.6081960">
        <ele>34.8</ele>
        <time>2022-06-18T12:23:12Z</time>
      </trkpt>
      <trkpt lat="42.3411330" lon="-8.6082610">
        <ele>35.4</ele>
        <time>2022-06-18T12:23:13Z</time>
      </trkpt>
      <trkpt lat="42.3411760" lon="-8.6083180">
        <ele>34.4</ele>
        <time>2022-06-18T12:23:14Z</time>
      </trkpt>
      <trkpt lat="42.3412200" lon="-8.6083760">
        <ele>34.4</ele>
        <time>2022-06-18T12:23:15Z</time>
      </trkpt>
      <trkpt lat="42.3412630" lon="-8.6084350">
        <ele>34.4</ele>
        <time>2022-06-18T12:23:16Z</time>
      </trkpt>
      <trkpt lat="42.3413060" lon="-8.6084950">
        <ele>34.4</ele>
        <time>2022-06-18T12:23:17Z</time>
      </trkpt>
      <trkpt lat="42.3413510" lon="-8.6085530">
        <ele>33.8</ele>
        <time>2022-06-18T12:23:18Z</time>
      </trkpt>
      <trkpt lat="42.3413960" lon="-8.6086100">
        <ele>33.8</ele>
        <time>2022-06-18T12:23:19Z</time>
      </trkpt>
      <trkpt lat="42.3414410" lon="-8.6086700">
        <ele>33.8</ele>
        <time>2022-06-18T12:23:20Z</time>
      </trkpt>
      <trkpt lat="42.3414880" lon="-8.6087160">
        <ele>33.8</ele>
        <time>2022-06-18T12:23:21Z</time>
      </trkpt>
      <trkpt lat="42.3415400" lon="-8.6087360">
        <ele>33.8</ele>
        <time>2022-06-18T12:23:22Z</time>
      </trkpt>
      <trkpt lat="42.3415950" lon="-8.6087350">
        <ele>33.8</ele>
        <time>2022-06-18T12:23:23Z</time>
      </trkpt>
      <trkpt lat="42.3416510" lon="-8.6087310">
        <ele>33.8</ele>
        <time>2022-06-18T12:23:24Z</time>
      </trkpt>
      <trkpt lat="42.3417050" lon="-8.6087300">
        <ele>34.0</ele>
        <time>2022-06-18T12:23:25Z</time>
      </trkpt>
      <trkpt lat="42.3417550" lon="-8.6087300">
        <ele>33.4</ele>
        <time>2022-06-18T12:23:26Z</time>
      </trkpt>
      <trkpt lat="42.3418030" lon="-8.6087360">
        <ele>33.4</ele>
        <time>2022-06-18T12:23:27Z</time>
      </trkpt>
      <trkpt lat="42.3418510" lon="-8.6087430">
        <ele>33.4</ele>
        <time>2022-06-18T12:23:28Z</time>
      </trkpt>
      <trkpt lat="42.3419000" lon="-8.6087510">
        <ele>33.4</ele>
        <time>2022-06-18T12:23:29Z</time>
      </trkpt>
      <trkpt lat="42.3419480" lon="-8.6087630">
        <ele>31.8</ele>
        <time>2022-06-18T12:23:30Z</time>
      </trkpt>
      <trkpt lat="42.3419860" lon="-8.6087780">
        <ele>31.8</ele>
        <time>2022-06-18T12:23:31Z</time>
      </trkpt>
      <trkpt lat="42.3420160" lon="-8.6087880">
        <ele>31.8</ele>
        <time>2022-06-18T12:23:32Z</time>
      </trkpt>
      <trkpt lat="42.3420400" lon="-8.6087910">
        <ele>32.0</ele>
        <time>2022-06-18T12:23:33Z</time>
      </trkpt>
      <trkpt lat="42.3420560" lon="-8.6087950">
        <ele>32.0</ele>
        <time>2022-06-18T12:23:34Z</time>
      </trkpt>
      <trkpt lat="42.3420680" lon="-8.6087950">
        <ele>32.0</ele>
        <time>2022-06-18T12:23:35Z</time>
      </trkpt>
      <trkpt lat="42.3420710" lon="-8.6087950">
        <ele>32.0</ele>
        <time>2022-06-18T12:23:36Z</time>
      </trkpt>
      <trkpt lat="42.3421280" lon="-8.6088260">
        <ele>32.8</ele>
        <time>2022-06-18T12:24:01Z</time>
      </trkpt>
      <trkpt lat="42.3421430" lon="-8.6088310">
        <ele>32.4</ele>
        <time>2022-06-18T12:24:02Z</time>
      </trkpt>
      <trkpt lat="42.3421630" lon="-8.6088460">
        <ele>32.4</ele>
        <time>2022-06-18T12:24:03Z</time>
      </trkpt>
      <trkpt lat="42.3421860" lon="-8.6088650">
        <ele>32.4</ele>
        <time>2022-06-18T12:24:04Z</time>
      </trkpt>
      <trkpt lat="42.3422110" lon="-8.6088830">
        <ele>32.2</ele>
        <time>2022-06-18T12:24:05Z</time>
      </trkpt>
      <trkpt lat="42.3422350" lon="-8.6088980">
        <ele>32.8</ele>
        <time>2022-06-18T12:24:06Z</time>
      </trkpt>
      <trkpt lat="42.3422610" lon="-8.6089160">
        <ele>32.8</ele>
        <time>2022-06-18T12:24:07Z</time>
      </trkpt>
      <trkpt lat="42.3422830" lon="-8.6089250">
        <ele>32.8</ele>
        <time>2022-06-18T12:24:08Z</time>
      </trkpt>
      <trkpt lat="42.3423160" lon="-8.6089330">
        <ele>32.0</ele>
        <time>2022-06-18T12:24:09Z</time>
      </trkpt>
      <trkpt lat="42.3423450" lon="-8.6089450">
        <ele>32.2</ele>
        <time>2022-06-18T12:24:10Z</time>
      </trkpt>
      <trkpt lat="42.3423750" lon="-8.6089560">
        <ele>32.2</ele>
        <time>2022-06-18T12:24:11Z</time>
      </trkpt>
      <trkpt lat="42.3424110" lon="-8.6089660">
        <ele>32.2</ele>
        <time>2022-06-18T12:24:12Z</time>
      </trkpt>
      <trkpt lat="42.3424450" lon="-8.6089780">
        <ele>32.2</ele>
        <time>2022-06-18T12:24:13Z</time>
      </trkpt>
      <trkpt lat="42.3424850" lon="-8.6089860">
        <ele>31.0</ele>
        <time>2022-06-18T12:24:14Z</time>
      </trkpt>
      <trkpt lat="42.3425160" lon="-8.6089980">
        <ele>31.0</ele>
        <time>2022-06-18T12:24:15Z</time>
      </trkpt>
      <trkpt lat="42.3425480" lon="-8.6090180">
        <ele>31.0</ele>
        <time>2022-06-18T12:24:16Z</time>
      </trkpt>
      <trkpt lat="42.3425860" lon="-8.6090300">
        <ele>31.6</ele>
        <time>2022-06-18T12:24:17Z</time>
      </trkpt>
      <trkpt lat="42.3426180" lon="-8.6090380">
        <ele>31.8</ele>
        <time>2022-06-18T12:24:18Z</time>
      </trkpt>
      <trkpt lat="42.3426450" lon="-8.6090450">
        <ele>31.8</ele>
        <time>2022-06-18T12:24:19Z</time>
      </trkpt>
      <trkpt lat="42.3426810" lon="-8.6090460">
        <ele>31.8</ele>
        <time>2022-06-18T12:24:20Z</time>
      </trkpt>
      <trkpt lat="42.3427180" lon="-8.6090410">
        <ele>31.2</ele>
        <time>2022-06-18T12:24:21Z</time>
      </trkpt>
      <trkpt lat="42.3427500" lon="-8.6090380">
        <ele>31.0</ele>
        <time>2022-06-18T12:24:22Z</time>
      </trkpt>
      <trkpt lat="42.3427930" lon="-8.6090280">
        <ele>31.0</ele>
        <time>2022-06-18T12:24:23Z</time>
      </trkpt>
      <trkpt lat="42.3428310" lon="-8.6090160">
        <ele>31.0</ele>
        <time>2022-06-18T12:24:24Z</time>
      </trkpt>
      <trkpt lat="42.3428810" lon="-8.6089960">
        <ele>30.6</ele>
        <time>2022-06-18T12:24:25Z</time>
      </trkpt>
      <trkpt lat="42.3429230" lon="-8.6089860">
        <ele>30.4</ele>
        <time>2022-06-18T12:24:26Z</time>
      </trkpt>
      <trkpt lat="42.3429610" lon="-8.6089760">
        <ele>30.4</ele>
        <time>2022-06-18T12:24:27Z</time>
      </trkpt>
      <trkpt lat="42.3430000" lon="-8.6089660">
        <ele>30.4</ele>
        <time>2022-06-18T12:24:28Z</time>
      </trkpt>
      <trkpt lat="42.3430450" lon="-8.6089560">
        <ele>30.2</ele>
        <time>2022-06-18T12:24:29Z</time>
      </trkpt>
      <trkpt lat="42.3430880" lon="-8.6089550">
        <ele>29.8</ele>
        <time>2022-06-18T12:24:30Z</time>
      </trkpt>
      <trkpt lat="42.3431260" lon="-8.6089610">
        <ele>29.8</ele>
        <time>2022-06-18T12:24:31Z</time>
      </trkpt>
      <trkpt lat="42.3431660" lon="-8.6089650">
        <ele>29.8</ele>
        <time>2022-06-18T12:24:32Z</time>
      </trkpt>
      <trkpt lat="42.3432100" lon="-8.6089580">
        <ele>29.8</ele>
        <time>2022-06-18T12:24:33Z</time>
      </trkpt>
      <trkpt lat="42.3432500" lon="-8.6089450">
        <ele>29.0</ele>
        <time>2022-06-18T12:24:34Z</time>
      </trkpt>
      <trkpt lat="42.3432960" lon="-8.6089300">
        <ele>29.0</ele>
        <time>2022-06-18T12:24:35Z</time>
      </trkpt>
      <trkpt lat="42.3433400" lon="-8.6089000">
        <ele>29.0</ele>
        <time>2022-06-18T12:24:36Z</time>
      </trkpt>
      <trkpt lat="42.3433880" lon="-8.6088480">
        <ele>28.0</ele>
        <time>2022-06-18T12:24:37Z</time>
      </trkpt>
      <trkpt lat="42.3434380" lon="-8.6087860">
        <ele>24.6</ele>
        <time>2022-06-18T12:24:38Z</time>
      </trkpt>
      <trkpt lat="42.3434900" lon="-8.6087160">
        <ele>24.6</ele>
        <time>2022-06-18T12:24:39Z</time>
      </trkpt>
      <trkpt lat="42.3435380" lon="-8.6086350">
        <ele>24.6</ele>
        <time>2022-06-18T12:24:40Z</time>
      </trkpt>
      <trkpt lat="42.3436000" lon="-8.6085560">
        <ele>23.6</ele>
        <time>2022-06-18T12:24:41Z</time>
      </trkpt>
      <trkpt lat="42.3436730" lon="-8.6084760">
        <ele>18.6</ele>
        <time>2022-06-18T12:24:42Z</time>
      </trkpt>
      <trkpt lat="42.3437500" lon="-8.6084030">
        <ele>18.6</ele>
        <time>2022-06-18T12:24:43Z</time>
      </trkpt>
      <trkpt lat="42.3438260" lon="-8.6083350">
        <ele>18.6</ele>
        <time>2022-06-18T12:24:44Z</time>
      </trkpt>
      <trkpt lat="42.3438980" lon="-8.6082710">
        <ele>18.6</ele>
        <time>2022-06-18T12:24:45Z</time>
      </trkpt>
      <trkpt lat="42.3439660" lon="-8.6082130">
        <ele>18.8</ele>
        <time>2022-06-18T12:24:46Z</time>
      </trkpt>
      <trkpt lat="42.3440210" lon="-8.6081500">
        <ele>18.8</ele>
        <time>2022-06-18T12:24:47Z</time>
      </trkpt>
      <trkpt lat="42.3440630" lon="-8.6080810">
        <ele>18.8</ele>
        <time>2022-06-18T12:24:48Z</time>
      </trkpt>
      <trkpt lat="42.3440950" lon="-8.6080150">
        <ele>19.8</ele>
        <time>2022-06-18T12:24:49Z</time>
      </trkpt>
      <trkpt lat="42.3441160" lon="-8.6079580">
        <ele>22.4</ele>
        <time>2022-06-18T12:24:50Z</time>
      </trkpt>
      <trkpt lat="42.3441360" lon="-8.6079150">
        <ele>22.4</ele>
        <time>2022-06-18T12:24:51Z</time>
      </trkpt>
      <trkpt lat="42.3441560" lon="-8.6078800">
        <ele>22.4</ele>
        <time>2022-06-18T12:24:52Z</time>
      </trkpt>
      <trkpt lat="42.3441680" lon="-8.6078450">
        <ele>23.4</ele>
        <time>2022-06-18T12:24:53Z</time>
      </trkpt>
      <trkpt lat="42.3441800" lon="-8.6078100">
        <ele>24.4</ele>
        <time>2022-06-18T12:24:54Z</time>
      </trkpt>
      <trkpt lat="42.3441950" lon="-8.6077800">
        <ele>24.4</ele>
        <time>2022-06-18T12:24:55Z</time>
      </trkpt>
      <trkpt lat="42.3442100" lon="-8.6077430">
        <ele>24.4</ele>
        <time>2022-06-18T12:24:56Z</time>
      </trkpt>
      <trkpt lat="42.3442310" lon="-8.6077030">
        <ele>24.8</ele>
        <time>2022-06-18T12:24:57Z</time>
      </trkpt>
      <trkpt lat="42.3442500" lon="-8.6076630">
        <ele>25.2</ele>
        <time>2022-06-18T12:24:58Z</time>
      </trkpt>
      <trkpt lat="42.3442730" lon="-8.6076230">
        <ele>25.2</ele>
        <time>2022-06-18T12:24:59Z</time>
      </trkpt>
      <trkpt lat="42.3442950" lon="-8.6075810">
        <ele>25.2</ele>
        <time>2022-06-18T12:25:00Z</time>
      </trkpt>
      <trkpt lat="42.3443110" lon="-8.6075360">
        <ele>25.4</ele>
        <time>2022-06-18T12:25:01Z</time>
      </trkpt>
      <trkpt lat="42.3443310" lon="-8.6074950">
        <ele>26.4</ele>
        <time>2022-06-18T12:25:02Z</time>
      </trkpt>
      <trkpt lat="42.3443450" lon="-8.6074680">
        <ele>26.4</ele>
        <time>2022-06-18T12:25:03Z</time>
      </trkpt>
      <trkpt lat="42.3443580" lon="-8.6074510">
        <ele>26.4</ele>
        <time>2022-06-18T12:25:04Z</time>
      </trkpt>
      <trkpt lat="42.3443680" lon="-8.6074480">
        <ele>27.4</ele>
        <time>2022-06-18T12:25:05Z</time>
      </trkpt>
      <trkpt lat="42.3443930" lon="-8.6074530">
        <ele>27.4</ele>
        <time>2022-06-18T12:25:06Z</time>
      </trkpt>
      <trkpt lat="42.3444200" lon="-8.6074600">
        <ele>27.4</ele>
        <time>2022-06-18T12:25:07Z</time>
      </trkpt>
      <trkpt lat="42.3444580" lon="-8.6074710">
        <ele>27.4</ele>
        <time>2022-06-18T12:25:08Z</time>
      </trkpt>
      <trkpt lat="42.3445050" lon="-8.6074800">
        <ele>26.4</ele>
        <time>2022-06-18T12:25:09Z</time>
      </trkpt>
      <trkpt lat="42.3445510" lon="-8.6074900">
        <ele>25.2</ele>
        <time>2022-06-18T12:25:10Z</time>
      </trkpt>
      <trkpt lat="42.3446050" lon="-8.6075000">
        <ele>25.2</ele>
        <time>2022-06-18T12:25:11Z</time>
      </trkpt>
      <trkpt lat="42.3446660" lon="-8.6075110">
        <ele>25.2</ele>
        <time>2022-06-18T12:25:12Z</time>
      </trkpt>
      <trkpt lat="42.3447310" lon="-8.6075130">
        <ele>24.2</ele>
        <time>2022-06-18T12:25:13Z</time>
      </trkpt>
      <trkpt lat="42.3447950" lon="-8.6074980">
        <ele>20.4</ele>
        <time>2022-06-18T12:25:14Z</time>
      </trkpt>
      <trkpt lat="42.3448580" lon="-8.6074550">
        <ele>20.4</ele>
        <time>2022-06-18T12:25:15Z</time>
      </trkpt>
      <trkpt lat="42.3449210" lon="-8.6074010">
        <ele>20.4</ele>
        <time>2022-06-18T12:25:16Z</time>
      </trkpt>
      <trkpt lat="42.3449800" lon="-8.6073400">
        <ele>20.4</ele>
        <time>2022-06-18T12:25:17Z</time>
      </trkpt>
      <trkpt lat="42.3450330" lon="-8.6072830">
        <ele>20.2</ele>
        <time>2022-06-18T12:25:18Z</time>
      </trkpt>
      <trkpt lat="42.3450810" lon="-8.6072300">
        <ele>20.2</ele>
        <time>2022-06-18T12:25:19Z</time>
      </trkpt>
      <trkpt lat="42.3451180" lon="-8.6071960">
        <ele>20.2</ele>
        <time>2022-06-18T12:25:20Z</time>
      </trkpt>
      <trkpt lat="42.3451550" lon="-8.6071650">
        <ele>20.6</ele>
        <time>2022-06-18T12:25:21Z</time>
      </trkpt>
      <trkpt lat="42.3451860" lon="-8.6071410">
        <ele>20.6</ele>
        <time>2022-06-18T12:25:22Z</time>
      </trkpt>
      <trkpt lat="42.3452180" lon="-8.6071160">
        <ele>20.6</ele>
        <time>2022-06-18T12:25:23Z</time>
      </trkpt>
      <trkpt lat="42.3452400" lon="-8.6070810">
        <ele>20.6</ele>
        <time>2022-06-18T12:25:24Z</time>
      </trkpt>
      <trkpt lat="42.3452610" lon="-8.6070430">
        <ele>20.2</ele>
        <time>2022-06-18T12:25:25Z</time>
      </trkpt>
      <trkpt lat="42.3452850" lon="-8.6070060">
        <ele>20.2</ele>
        <time>2022-06-18T12:25:26Z</time>
      </trkpt>
      <trkpt lat="42.3453130" lon="-8.6069780">
        <ele>20.2</ele>
        <time>2022-06-18T12:25:27Z</time>
      </trkpt>
      <trkpt lat="42.3453430" lon="-8.6069580">
        <ele>20.2</ele>
        <time>2022-06-18T12:25:28Z</time>
      </trkpt>
      <trkpt lat="42.3453760" lon="-8.6069410">
        <ele>20.2</ele>
        <time>2022-06-18T12:25:29Z</time>
      </trkpt>
      <trkpt lat="42.3454100" lon="-8.6069260">
        <ele>19.8</ele>
        <time>2022-06-18T12:25:30Z</time>
      </trkpt>
      <trkpt lat="42.3454410" lon="-8.6069150">
        <ele>19.8</ele>
        <time>2022-06-18T12:25:31Z</time>
      </trkpt>
      <trkpt lat="42.3454730" lon="-8.6069050">
        <ele>19.8</ele>
        <time>2022-06-18T12:25:32Z</time>
      </trkpt>
      <trkpt lat="42.3455000" lon="-8.6068980">
        <ele>20.2</ele>
        <time>2022-06-18T12:25:33Z</time>
      </trkpt>
      <trkpt lat="42.3455160" lon="-8.6068930">
        <ele>20.4</ele>
        <time>2022-06-18T12:25:34Z</time>
      </trkpt>
      <trkpt lat="42.3455300" lon="-8.6068880">
        <ele>20.4</ele>
        <time>2022-06-18T12:25:35Z</time>
      </trkpt>
      <trkpt lat="42.3455330" lon="-8.6068860">
        <ele>20.4</ele>
        <time>2022-06-18T12:25:36Z</time>
      </trkpt>
      <trkpt lat="42.3455600" lon="-8.6068950">
        <ele>20.6</ele>
        <time>2022-06-18T12:25:41Z</time>
      </trkpt>
      <trkpt lat="42.3455860" lon="-8.6068980">
        <ele>20.0</ele>
        <time>2022-06-18T12:25:42Z</time>
      </trkpt>
      <trkpt lat="42.3456150" lon="-8.6069000">
        <ele>20.0</ele>
        <time>2022-06-18T12:25:43Z</time>
      </trkpt>
      <trkpt lat="42.3456460" lon="-8.6069000">
        <ele>20.0</ele>
        <time>2022-06-18T12:25:44Z</time>
      </trkpt>
      <trkpt lat="42.3456780" lon="-8.6068980">
        <ele>20.0</ele>
        <time>2022-06-18T12:25:45Z</time>
      </trkpt>
      <trkpt lat="42.3457130" lon="-8.6068910">
        <ele>20.6</ele>
        <time>2022-06-18T12:25:46Z</time>
      </trkpt>
      <trkpt lat="42.3457500" lon="-8.6068810">
        <ele>20.6</ele>
        <time>2022-06-18T12:25:47Z</time>
      </trkpt>
      <trkpt lat="42.3457830" lon="-8.6068730">
        <ele>20.6</ele>
        <time>2022-06-18T12:25:48Z</time>
      </trkpt>
      <trkpt lat="42.3458210" lon="-8.6068700">
        <ele>20.6</ele>
        <time>2022-06-18T12:25:49Z</time>
      </trkpt>
      <trkpt lat="42.3458580" lon="-8.6068630">
        <ele>19.8</ele>
        <time>2022-06-18T12:25:50Z</time>
      </trkpt>
      <trkpt lat="42.3458930" lon="-8.6068560">
        <ele>19.8</ele>
        <time>2022-06-18T12:25:51Z</time>
      </trkpt>
      <trkpt lat="42.3459260" lon="-8.6068500">
        <ele>19.8</ele>
        <time>2022-06-18T12:25:52Z</time>
      </trkpt>
      <trkpt lat="42.3459600" lon="-8.6068430">
        <ele>19.8</ele>
        <time>2022-06-18T12:25:53Z</time>
      </trkpt>
      <trkpt lat="42.3459930" lon="-8.6068310">
        <ele>19.2</ele>
        <time>2022-06-18T12:25:54Z</time>
      </trkpt>
      <trkpt lat="42.3460230" lon="-8.6068200">
        <ele>19.2</ele>
        <time>2022-06-18T12:25:55Z</time>
      </trkpt>
      <trkpt lat="42.3460560" lon="-8.6068110">
        <ele>19.2</ele>
        <time>2022-06-18T12:25:56Z</time>
      </trkpt>
      <trkpt lat="42.3460900" lon="-8.6068050">
        <ele>19.8</ele>
        <time>2022-06-18T12:25:57Z</time>
      </trkpt>
      <trkpt lat="42.3461230" lon="-8.6068000">
        <ele>19.0</ele>
        <time>2022-06-18T12:25:58Z</time>
      </trkpt>
      <trkpt lat="42.3461580" lon="-8.6067930">
        <ele>19.0</ele>
        <time>2022-06-18T12:25:59Z</time>
      </trkpt>
      <trkpt lat="42.3461930" lon="-8.6067860">
        <ele>19.0</ele>
        <time>2022-06-18T12:26:00Z</time>
      </trkpt>
      <trkpt lat="42.3462300" lon="-8.6067800">
        <ele>19.2</ele>
        <time>2022-06-18T12:26:01Z</time>
      </trkpt>
      <trkpt lat="42.3462650" lon="-8.6067750">
        <ele>19.2</ele>
        <time>2022-06-18T12:26:02Z</time>
      </trkpt>
      <trkpt lat="42.3463010" lon="-8.6067680">
        <ele>19.2</ele>
        <time>2022-06-18T12:26:03Z</time>
      </trkpt>
      <trkpt lat="42.3463380" lon="-8.6067610">
        <ele>19.2</ele>
        <time>2022-06-18T12:26:04Z</time>
      </trkpt>
      <trkpt lat="42.3463760" lon="-8.6067550">
        <ele>19.2</ele>
        <time>2022-06-18T12:26:05Z</time>
      </trkpt>
      <trkpt lat="42.3464150" lon="-8.6067500">
        <ele>18.6</ele>
        <time>2022-06-18T12:26:06Z</time>
      </trkpt>
      <trkpt lat="42.3464500" lon="-8.6067430">
        <ele>18.6</ele>
        <time>2022-06-18T12:26:07Z</time>
      </trkpt>
      <trkpt lat="42.3464830" lon="-8.6067360">
        <ele>18.6</ele>
        <time>2022-06-18T12:26:08Z</time>
      </trkpt>
      <trkpt lat="42.3465180" lon="-8.6067310">
        <ele>18.6</ele>
        <time>2022-06-18T12:26:09Z</time>
      </trkpt>
      <trkpt lat="42.3465530" lon="-8.6067230">
        <ele>19.4</ele>
        <time>2022-06-18T12:26:10Z</time>
      </trkpt>
      <trkpt lat="42.3465910" lon="-8.6067230">
        <ele>19.4</ele>
        <time>2022-06-18T12:26:11Z</time>
      </trkpt>
      <trkpt lat="42.3466300" lon="-8.6067330">
        <ele>19.4</ele>
        <time>2022-06-18T12:26:12Z</time>
      </trkpt>
      <trkpt lat="42.3466650" lon="-8.6067550">
        <ele>18.4</ele>
        <time>2022-06-18T12:26:13Z</time>
      </trkpt>
      <trkpt lat="42.3466960" lon="-8.6067830">
        <ele>18.8</ele>
        <time>2022-06-18T12:26:14Z</time>
      </trkpt>
      <trkpt lat="42.3467260" lon="-8.6068180">
        <ele>18.8</ele>
        <time>2022-06-18T12:26:15Z</time>
      </trkpt>
      <trkpt lat="42.3467550" lon="-8.6068580">
        <ele>18.8</ele>
        <time>2022-06-18T12:26:16Z</time>
      </trkpt>
      <trkpt lat="42.3467850" lon="-8.6069000">
        <ele>17.8</ele>
        <time>2022-06-18T12:26:17Z</time>
      </trkpt>
      <trkpt lat="42.3468150" lon="-8.6069400">
        <ele>18.2</ele>
        <time>2022-06-18T12:26:18Z</time>
      </trkpt>
      <trkpt lat="42.3468450" lon="-8.6069730">
        <ele>18.2</ele>
        <time>2022-06-18T12:26:19Z</time>
      </trkpt>
      <trkpt lat="42.3468730" lon="-8.6070050">
        <ele>18.2</ele>
        <time>2022-06-18T12:26:20Z</time>
      </trkpt>
      <trkpt lat="42.3468960" lon="-8.6070350">
        <ele>19.2</ele>
        <time>2022-06-18T12:26:21Z</time>
      </trkpt>
      <trkpt lat="42.3469160" lon="-8.6070580">
        <ele>20.2</ele>
        <time>2022-06-18T12:26:22Z</time>
      </trkpt>
      <trkpt lat="42.3469350" lon="-8.6070730">
        <ele>20.2</ele>
        <time>2022-06-18T12:26:23Z</time>
      </trkpt>
      <trkpt lat="42.3469550" lon="-8.6070810">
        <ele>20.2</ele>
        <time>2022-06-18T12:26:24Z</time>
      </trkpt>
      <trkpt lat="42.3469710" lon="-8.6070860">
        <ele>20.2</ele>
        <time>2022-06-18T12:26:25Z</time>
      </trkpt>
      <trkpt lat="42.3469810" lon="-8.6070880">
        <ele>21.6</ele>
        <time>2022-06-18T12:26:26Z</time>
      </trkpt>
      <trkpt lat="42.3469880" lon="-8.6070900">
        <ele>21.6</ele>
        <time>2022-06-18T12:26:27Z</time>
      </trkpt>
      <trkpt lat="42.3470000" lon="-8.6070880">
        <ele>21.6</ele>
        <time>2022-06-18T12:26:28Z</time>
      </trkpt>
      <trkpt lat="42.3470180" lon="-8.6070880">
        <ele>21.8</ele>
        <time>2022-06-18T12:26:29Z</time>
      </trkpt>
      <trkpt lat="42.3470360" lon="-8.6070910">
        <ele>22.2</ele>
        <time>2022-06-18T12:26:30Z</time>
      </trkpt>
      <trkpt lat="42.3470580" lon="-8.6070880">
        <ele>22.2</ele>
        <time>2022-06-18T12:26:31Z</time>
      </trkpt>
      <trkpt lat="42.3470750" lon="-8.6070830">
        <ele>22.2</ele>
        <time>2022-06-18T12:26:32Z</time>
      </trkpt>
      <trkpt lat="42.3470900" lon="-8.6070810">
        <ele>22.2</ele>
        <time>2022-06-18T12:26:33Z</time>
      </trkpt>
      <trkpt lat="42.3471010" lon="-8.6070780">
        <ele>23.0</ele>
        <time>2022-06-18T12:26:34Z</time>
      </trkpt>
      <trkpt lat="42.3471130" lon="-8.6070780">
        <ele>23.0</ele>
        <time>2022-06-18T12:26:35Z</time>
      </trkpt>
      <trkpt lat="42.3471230" lon="-8.6070810">
        <ele>23.0</ele>
        <time>2022-06-18T12:26:36Z</time>
      </trkpt>
      <trkpt lat="42.3471260" lon="-8.6070860">
        <ele>23.2</ele>
        <time>2022-06-18T12:26:37Z</time>
      </trkpt>
      <trkpt lat="42.3471280" lon="-8.6070960">
        <ele>23.4</ele>
        <time>2022-06-18T12:26:38Z</time>
      </trkpt>
      <trkpt lat="42.3471250" lon="-8.6071060">
        <ele>23.4</ele>
        <time>2022-06-18T12:26:39Z</time>
      </trkpt>
      <trkpt lat="42.3471100" lon="-8.6071180">
        <ele>23.4</ele>
        <time>2022-06-18T12:26:40Z</time>
      </trkpt>
      <trkpt lat="42.3470980" lon="-8.6071230">
        <ele>22.4</ele>
        <time>2022-06-18T12:26:41Z</time>
      </trkpt>
      <trkpt lat="42.3470860" lon="-8.6071280">
        <ele>23.0</ele>
        <time>2022-06-18T12:26:42Z</time>
      </trkpt>
      <trkpt lat="42.3470700" lon="-8.6071280">
        <ele>23.0</ele>
        <time>2022-06-18T12:26:43Z</time>
      </trkpt>
      <trkpt lat="42.3470430" lon="-8.6071330">
        <ele>23.0</ele>
        <time>2022-06-18T12:26:44Z</time>
      </trkpt>
      <trkpt lat="42.3470160" lon="-8.6071360">
        <ele>22.0</ele>
        <time>2022-06-18T12:26:45Z</time>
      </trkpt>
      <trkpt lat="42.3469900" lon="-8.6071400">
        <ele>21.4</ele>
        <time>2022-06-18T12:26:46Z</time>
      </trkpt>
      <trkpt lat="42.3469700" lon="-8.6071430">
        <ele>21.4</ele>
        <time>2022-06-18T12:26:47Z</time>
      </trkpt>
      <trkpt lat="42.3469530" lon="-8.6071580">
        <ele>21.4</ele>
        <time>2022-06-18T12:26:48Z</time>
      </trkpt>
      <trkpt lat="42.3469430" lon="-8.6071800">
        <ele>22.2</ele>
        <time>2022-06-18T12:26:49Z</time>
      </trkpt>
      <trkpt lat="42.3469360" lon="-8.6072000">
        <ele>21.2</ele>
        <time>2022-06-18T12:26:50Z</time>
      </trkpt>
      <trkpt lat="42.3469300" lon="-8.6072180">
        <ele>21.2</ele>
        <time>2022-06-18T12:26:51Z</time>
      </trkpt>
      <trkpt lat="42.3469250" lon="-8.6072400">
        <ele>21.2</ele>
        <time>2022-06-18T12:26:52Z</time>
      </trkpt>
      <trkpt lat="42.3469180" lon="-8.6072660">
        <ele>21.2</ele>
        <time>2022-06-18T12:26:53Z</time>
      </trkpt>
      <trkpt lat="42.3469150" lon="-8.6072950">
        <ele>21.4</ele>
        <time>2022-06-18T12:26:54Z</time>
      </trkpt>
      <trkpt lat="42.3469100" lon="-8.6073180">
        <ele>21.4</ele>
        <time>2022-06-18T12:26:55Z</time>
      </trkpt>
      <trkpt lat="42.3469080" lon="-8.6073380">
        <ele>21.4</ele>
        <time>2022-06-18T12:26:56Z</time>
      </trkpt>
      <trkpt lat="42.3469100" lon="-8.6073550">
        <ele>21.4</ele>
        <time>2022-06-18T12:26:57Z</time>
      </trkpt>
      <trkpt lat="42.3469110" lon="-8.6073750">
        <ele>22.0</ele>
        <time>2022-06-18T12:26:58Z</time>
      </trkpt>
      <trkpt lat="42.3469150" lon="-8.6073910">
        <ele>22.0</ele>
        <time>2022-06-18T12:26:59Z</time>
      </trkpt>
      <trkpt lat="42.3469180" lon="-8.6074050">
        <ele>22.0</ele>
        <time>2022-06-18T12:27:00Z</time>
      </trkpt>
      <trkpt lat="42.3469200" lon="-8.6074200">
        <ele>22.2</ele>
        <time>2022-06-18T12:27:01Z</time>
      </trkpt>
      <trkpt lat="42.3469230" lon="-8.6074350">
        <ele>22.2</ele>
        <time>2022-06-18T12:27:02Z</time>
      </trkpt>
      <trkpt lat="42.3469250" lon="-8.6074500">
        <ele>22.2</ele>
        <time>2022-06-18T12:27:03Z</time>
      </trkpt>
      <trkpt lat="42.3469250" lon="-8.6074630">
        <ele>22.2</ele>
        <time>2022-06-18T12:27:04Z</time>
      </trkpt>
      <trkpt lat="42.3469250" lon="-8.6074800">
        <ele>23.2</ele>
        <time>2022-06-18T12:27:05Z</time>
      </trkpt>
      <trkpt lat="42.3469280" lon="-8.6074960">
        <ele>23.6</ele>
        <time>2022-06-18T12:27:06Z</time>
      </trkpt>
      <trkpt lat="42.3469310" lon="-8.6075100">
        <ele>23.6</ele>
        <time>2022-06-18T12:27:07Z</time>
      </trkpt>
      <trkpt lat="42.3469410" lon="-8.6075200">
        <ele>23.6</ele>
        <time>2022-06-18T12:27:08Z</time>
      </trkpt>
      <trkpt lat="42.3469510" lon="-8.6075200">
        <ele>24.6</ele>
        <time>2022-06-18T12:27:09Z</time>
      </trkpt>
      <trkpt lat="42.3469600" lon="-8.6075100">
        <ele>25.0</ele>
        <time>2022-06-18T12:27:10Z</time>
      </trkpt>
      <trkpt lat="42.3469710" lon="-8.6074950">
        <ele>25.0</ele>
        <time>2022-06-18T12:27:11Z</time>
      </trkpt>
      <trkpt lat="42.3469810" lon="-8.6074730">
        <ele>25.0</ele>
        <time>2022-06-18T12:27:12Z</time>
      </trkpt>
      <trkpt lat="42.3469930" lon="-8.6074550">
        <ele>26.0</ele>
        <time>2022-06-18T12:27:13Z</time>
      </trkpt>
      <trkpt lat="42.3470010" lon="-8.6074380">
        <ele>26.0</ele>
        <time>2022-06-18T12:27:14Z</time>
      </trkpt>
      <trkpt lat="42.3470110" lon="-8.6074230">
        <ele>26.0</ele>
        <time>2022-06-18T12:27:15Z</time>
      </trkpt>
      <trkpt lat="42.3470230" lon="-8.6074080">
        <ele>26.0</ele>
        <time>2022-06-18T12:27:16Z</time>
      </trkpt>
      <trkpt lat="42.3470360" lon="-8.6073960">
        <ele>27.0</ele>
        <time>2022-06-18T12:27:17Z</time>
      </trkpt>
      <trkpt lat="42.3470500" lon="-8.6073900">
        <ele>27.4</ele>
        <time>2022-06-18T12:27:18Z</time>
      </trkpt>
      <trkpt lat="42.3470650" lon="-8.6073830">
        <ele>27.4</ele>
        <time>2022-06-18T12:27:19Z</time>
      </trkpt>
      <trkpt lat="42.3470760" lon="-8.6073730">
        <ele>27.4</ele>
        <time>2022-06-18T12:27:20Z</time>
      </trkpt>
      <trkpt lat="42.3470880" lon="-8.6073660">
        <ele>28.4</ele>
        <time>2022-06-18T12:27:21Z</time>
      </trkpt>
      <trkpt lat="42.3471000" lon="-8.6073630">
        <ele>27.8</ele>
        <time>2022-06-18T12:27:22Z</time>
      </trkpt>
      <trkpt lat="42.3471080" lon="-8.6073660">
        <ele>27.8</ele>
        <time>2022-06-18T12:27:23Z</time>
      </trkpt>
      <trkpt lat="42.3471180" lon="-8.6073660">
        <ele>27.8</ele>
        <time>2022-06-18T12:27:24Z</time>
      </trkpt>
      <trkpt lat="42.3471310" lon="-8.6073660">
        <ele>28.6</ele>
        <time>2022-06-18T12:27:25Z</time>
      </trkpt>
      <trkpt lat="42.3471430" lon="-8.6073660">
        <ele>29.0</ele>
        <time>2022-06-18T12:27:26Z</time>
      </trkpt>
      <trkpt lat="42.3471510" lon="-8.6073660">
        <ele>29.0</ele>
        <time>2022-06-18T12:27:27Z</time>
      </trkpt>
      <trkpt lat="42.3471600" lon="-8.6073600">
        <ele>29.0</ele>
        <time>2022-06-18T12:27:28Z</time>
      </trkpt>
      <trkpt lat="42.3471750" lon="-8.6073600">
        <ele>29.6</ele>
        <time>2022-06-18T12:27:29Z</time>
      </trkpt>
      <trkpt lat="42.3471900" lon="-8.6073610">
        <ele>29.6</ele>
        <time>2022-06-18T12:27:30Z</time>
      </trkpt>
      <trkpt lat="42.3472050" lon="-8.6073580">
        <ele>29.6</ele>
        <time>2022-06-18T12:27:31Z</time>
      </trkpt>
      <trkpt lat="42.3472150" lon="-8.6073550">
        <ele>29.6</ele>
        <time>2022-06-18T12:27:32Z</time>
      </trkpt>
      <trkpt lat="42.3472230" lon="-8.6073560">
        <ele>29.6</ele>
        <time>2022-06-18T12:27:33Z</time>
      </trkpt>
      <trkpt lat="42.3472330" lon="-8.6073580">
        <ele>30.2</ele>
        <time>2022-06-18T12:27:34Z</time>
      </trkpt>
      <trkpt lat="42.3472410" lon="-8.6073630">
        <ele>30.2</ele>
        <time>2022-06-18T12:27:35Z</time>
      </trkpt>
      <trkpt lat="42.3472500" lon="-8.6073660">
        <ele>30.2</ele>
        <time>2022-06-18T12:27:36Z</time>
      </trkpt>
      <trkpt lat="42.3472510" lon="-8.6073660">
        <ele>30.6</ele>
        <time>2022-06-18T12:27:37Z</time>
      </trkpt>
      <trkpt lat="42.3472610" lon="-8.6073680">
        <ele>30.4</ele>
        <time>2022-06-18T12:27:38Z</time>
      </trkpt>
      <trkpt lat="42.3472700" lon="-8.6073750">
        <ele>30.4</ele>
        <time>2022-06-18T12:27:39Z</time>
      </trkpt>
      <trkpt lat="42.3472800" lon="-8.6073850">
        <ele>30.4</ele>
        <time>2022-06-18T12:27:40Z</time>
      </trkpt>
      <trkpt lat="42.3472860" lon="-8.6073830">
        <ele>31.2</ele>
        <time>2022-06-18T12:27:41Z</time>
      </trkpt>
      <trkpt lat="42.3472930" lon="-8.6073830">
        <ele>31.4</ele>
        <time>2022-06-18T12:27:42Z</time>
      </trkpt>
      <trkpt lat="42.3473060" lon="-8.6073910">
        <ele>31.4</ele>
        <time>2022-06-18T12:27:43Z</time>
      </trkpt>
      <trkpt lat="42.3473110" lon="-8.6074000">
        <ele>31.4</ele>
        <time>2022-06-18T12:27:44Z</time>
      </trkpt>
      <trkpt lat="42.3473100" lon="-8.6074060">
        <ele>31.4</ele>
        <time>2022-06-18T12:27:45Z</time>
      </trkpt>
      <trkpt lat="42.3473080" lon="-8.6074130">
        <ele>31.6</ele>
        <time>2022-06-18T12:27:46Z</time>
      </trkpt>
      <trkpt lat="42.3473080" lon="-8.6074300">
        <ele>31.6</ele>
        <time>2022-06-18T12:27:47Z</time>
      </trkpt>
      <trkpt lat="42.3473080" lon="-8.6074410">
        <ele>31.6</ele>
        <time>2022-06-18T12:27:48Z</time>
      </trkpt>
      <trkpt lat="42.3473030" lon="-8.6074500">
        <ele>32.6</ele>
        <time>2022-06-18T12:27:49Z</time>
      </trkpt>
      <trkpt lat="42.3473000" lon="-8.6074660">
        <ele>32.4</ele>
        <time>2022-06-18T12:27:50Z</time>
      </trkpt>
      <trkpt lat="42.3473010" lon="-8.6074830">
        <ele>32.4</ele>
        <time>2022-06-18T12:27:51Z</time>
      </trkpt>
      <trkpt lat="42.3472980" lon="-8.6074980">
        <ele>32.4</ele>
        <time>2022-06-18T12:27:52Z</time>
      </trkpt>
      <trkpt lat="42.3472950" lon="-8.6075080">
        <ele>32.4</ele>
        <time>2022-06-18T12:27:53Z</time>
      </trkpt>
      <trkpt lat="42.3472950" lon="-8.6075260">
        <ele>33.0</ele>
        <time>2022-06-18T12:27:54Z</time>
      </trkpt>
      <trkpt lat="42.3472930" lon="-8.6075410">
        <ele>33.0</ele>
        <time>2022-06-18T12:27:55Z</time>
      </trkpt>
      <trkpt lat="42.3472910" lon="-8.6075580">
        <ele>33.0</ele>
        <time>2022-06-18T12:27:56Z</time>
      </trkpt>
      <trkpt lat="42.3472880" lon="-8.6075730">
        <ele>33.6</ele>
        <time>2022-06-18T12:27:57Z</time>
      </trkpt>
      <trkpt lat="42.3472880" lon="-8.6075880">
        <ele>34.2</ele>
        <time>2022-06-18T12:27:58Z</time>
      </trkpt>
      <trkpt lat="42.3472910" lon="-8.6076030">
        <ele>34.2</ele>
        <time>2022-06-18T12:27:59Z</time>
      </trkpt>
      <trkpt lat="42.3472930" lon="-8.6076130">
        <ele>34.2</ele>
        <time>2022-06-18T12:28:00Z</time>
      </trkpt>
      <trkpt lat="42.3472980" lon="-8.6076260">
        <ele>35.2</ele>
        <time>2022-06-18T12:28:01Z</time>
      </trkpt>
      <trkpt lat="42.3472960" lon="-8.6076360">
        <ele>35.4</ele>
        <time>2022-06-18T12:28:02Z</time>
      </trkpt>
      <trkpt lat="42.3472930" lon="-8.6076550">
        <ele>35.4</ele>
        <time>2022-06-18T12:28:03Z</time>
      </trkpt>
      <trkpt lat="42.3472880" lon="-8.6076710">
        <ele>35.4</ele>
        <time>2022-06-18T12:28:04Z</time>
      </trkpt>
      <trkpt lat="42.3472910" lon="-8.6076800">
        <ele>36.0</ele>
        <time>2022-06-18T12:28:05Z</time>
      </trkpt>
      <trkpt lat="42.3472900" lon="-8.6076860">
        <ele>36.4</ele>
        <time>2022-06-18T12:28:06Z</time>
      </trkpt>
      <trkpt lat="42.3472900" lon="-8.6076860">
        <ele>36.4</ele>
        <time>2022-06-18T12:28:07Z</time>
      </trkpt>
      <trkpt lat="42.3472980" lon="-8.6076950">
        <ele>36.4</ele>
        <time>2022-06-18T12:28:08Z</time>
      </trkpt>
      <trkpt lat="42.3473060" lon="-8.6077010">
        <ele>37.0</ele>
        <time>2022-06-18T12:28:09Z</time>
      </trkpt>
      <trkpt lat="42.3473110" lon="-8.6077050">
        <ele>36.6</ele>
        <time>2022-06-18T12:28:10Z</time>
      </trkpt>
      <trkpt lat="42.3473230" lon="-8.6077110">
        <ele>36.6</ele>
        <time>2022-06-18T12:28:11Z</time>
      </trkpt>
      <trkpt lat="42.3473350" lon="-8.6077180">
        <ele>36.6</ele>
        <time>2022-06-18T12:28:12Z</time>
      </trkpt>
      <trkpt lat="42.3473460" lon="-8.6077230">
        <ele>37.6</ele>
        <time>2022-06-18T12:28:13Z</time>
      </trkpt>
      <trkpt lat="42.3473600" lon="-8.6077260">
        <ele>37.6</ele>
        <time>2022-06-18T12:28:14Z</time>
      </trkpt>
      <trkpt lat="42.3473730" lon="-8.6077280">
        <ele>37.6</ele>
        <time>2022-06-18T12:28:15Z</time>
      </trkpt>
      <trkpt lat="42.3473850" lon="-8.6077330">
        <ele>37.6</ele>
        <time>2022-06-18T12:28:16Z</time>
      </trkpt>
      <trkpt lat="42.3473930" lon="-8.6077350">
        <ele>38.2</ele>
        <time>2022-06-18T12:28:17Z</time>
      </trkpt>
      <trkpt lat="42.3474050" lon="-8.6077460">
        <ele>38.4</ele>
        <time>2022-06-18T12:28:18Z</time>
      </trkpt>
      <trkpt lat="42.3474110" lon="-8.6077460">
        <ele>38.4</ele>
        <time>2022-06-18T12:28:19Z</time>
      </trkpt>
      <trkpt lat="42.3474260" lon="-8.6077610">
        <ele>38.4</ele>
        <time>2022-06-18T12:28:20Z</time>
      </trkpt>
      <trkpt lat="42.3474380" lon="-8.6077710">
        <ele>38.6</ele>
        <time>2022-06-18T12:28:21Z</time>
      </trkpt>
      <trkpt lat="42.3474450" lon="-8.6077760">
        <ele>38.6</ele>
        <time>2022-06-18T12:28:22Z</time>
      </trkpt>
      <trkpt lat="42.3474650" lon="-8.6077830">
        <ele>38.6</ele>
        <time>2022-06-18T12:28:23Z</time>
      </trkpt>
      <trkpt lat="42.3474830" lon="-8.6077910">
        <ele>38.6</ele>
        <time>2022-06-18T12:28:24Z</time>
      </trkpt>
      <trkpt lat="42.3474960" lon="-8.6078000">
        <ele>39.2</ele>
        <time>2022-06-18T12:28:25Z</time>
      </trkpt>
      <trkpt lat="42.3475100" lon="-8.6078060">
        <ele>39.2</ele>
        <time>2022-06-18T12:28:26Z</time>
      </trkpt>
      <trkpt lat="42.3475230" lon="-8.6078100">
        <ele>39.2</ele>
        <time>2022-06-18T12:28:27Z</time>
      </trkpt>
      <trkpt lat="42.3475280" lon="-8.6078180">
        <ele>39.2</ele>
        <time>2022-06-18T12:28:28Z</time>
      </trkpt>
      <trkpt lat="42.3475380" lon="-8.6078260">
        <ele>39.2</ele>
        <time>2022-06-18T12:28:29Z</time>
      </trkpt>
      <trkpt lat="42.3475500" lon="-8.6078280">
        <ele>39.6</ele>
        <time>2022-06-18T12:28:30Z</time>
      </trkpt>
      <trkpt lat="42.3475610" lon="-8.6078250">
        <ele>39.6</ele>
        <time>2022-06-18T12:28:31Z</time>
      </trkpt>
      <trkpt lat="42.3475730" lon="-8.6078330">
        <ele>39.6</ele>
        <time>2022-06-18T12:28:32Z</time>
      </trkpt>
      <trkpt lat="42.3475910" lon="-8.6078410">
        <ele>39.6</ele>
        <time>2022-06-18T12:28:33Z</time>
      </trkpt>
      <trkpt lat="42.3476060" lon="-8.6078560">
        <ele>39.6</ele>
        <time>2022-06-18T12:28:34Z</time>
      </trkpt>
      <trkpt lat="42.3476300" lon="-8.6078610">
        <ele>39.6</ele>
        <time>2022-06-18T12:28:35Z</time>
      </trkpt>
      <trkpt lat="42.3476480" lon="-8.6078710">
        <ele>39.6</ele>
        <time>2022-06-18T12:28:36Z</time>
      </trkpt>
      <trkpt lat="42.3476660" lon="-8.6078830">
        <ele>39.2</ele>
        <time>2022-06-18T12:28:37Z</time>
      </trkpt>
      <trkpt lat="42.3476880" lon="-8.6078830">
        <ele>38.8</ele>
        <time>2022-06-18T12:28:38Z</time>
      </trkpt>
      <trkpt lat="42.3477030" lon="-8.6078810">
        <ele>38.8</ele>
        <time>2022-06-18T12:28:39Z</time>
      </trkpt>
      <trkpt lat="42.3477260" lon="-8.6078800">
        <ele>38.8</ele>
        <time>2022-06-18T12:28:40Z</time>
      </trkpt>
      <trkpt lat="42.3477480" lon="-8.6078730">
        <ele>37.8</ele>
        <time>2022-06-18T12:28:41Z</time>
      </trkpt>
      <trkpt lat="42.3477810" lon="-8.6078680">
        <ele>36.4</ele>
        <time>2022-06-18T12:28:42Z</time>
      </trkpt>
      <trkpt lat="42.3478160" lon="-8.6078630">
        <ele>36.4</ele>
        <time>2022-06-18T12:28:43Z</time>
      </trkpt>
      <trkpt lat="42.3478530" lon="-8.6078630">
        <ele>36.4</ele>
        <time>2022-06-18T12:28:44Z</time>
      </trkpt>
      <trkpt lat="42.3478980" lon="-8.6078610">
        <ele>35.4</ele>
        <time>2022-06-18T12:28:45Z</time>
      </trkpt>
      <trkpt lat="42.3479410" lon="-8.6078530">
        <ele>30.4</ele>
        <time>2022-06-18T12:28:46Z</time>
      </trkpt>
      <trkpt lat="42.3479900" lon="-8.6078410">
        <ele>30.4</ele>
        <time>2022-06-18T12:28:47Z</time>
      </trkpt>
      <trkpt lat="42.3480260" lon="-8.6078330">
        <ele>30.4</ele>
        <time>2022-06-18T12:28:48Z</time>
      </trkpt>
      <trkpt lat="42.3480580" lon="-8.6078330">
        <ele>30.4</ele>
        <time>2022-06-18T12:28:49Z</time>
      </trkpt>
      <trkpt lat="42.3481010" lon="-8.6078480">
        <ele>31.4</ele>
        <time>2022-06-18T12:28:50Z</time>
      </trkpt>
      <trkpt lat="42.3481330" lon="-8.6078550">
        <ele>31.4</ele>
        <time>2022-06-18T12:28:51Z</time>
      </trkpt>
      <trkpt lat="42.3481460" lon="-8.6078530">
        <ele>31.4</ele>
        <time>2022-06-18T12:28:52Z</time>
      </trkpt>
      <trkpt lat="42.3481600" lon="-8.6078600">
        <ele>31.4</ele>
        <time>2022-06-18T12:28:53Z</time>
      </trkpt>
      <trkpt lat="42.3481630" lon="-8.6078710">
        <ele>31.2</ele>
        <time>2022-06-18T12:28:54Z</time>
      </trkpt>
      <trkpt lat="42.3481780" lon="-8.6078960">
        <ele>31.2</ele>
        <time>2022-06-18T12:28:55Z</time>
      </trkpt>
      <trkpt lat="42.3481860" lon="-8.6079310">
        <ele>31.2</ele>
        <time>2022-06-18T12:28:56Z</time>
      </trkpt>
      <trkpt lat="42.3482010" lon="-8.6079710">
        <ele>30.2</ele>
        <time>2022-06-18T12:28:57Z</time>
      </trkpt>
      <trkpt lat="42.3482300" lon="-8.6080200">
        <ele>29.2</ele>
        <time>2022-06-18T12:28:58Z</time>
      </trkpt>
      <trkpt lat="42.3482680" lon="-8.6080780">
        <ele>29.2</ele>
        <time>2022-06-18T12:28:59Z</time>
      </trkpt>
      <trkpt lat="42.3483060" lon="-8.6081450">
        <ele>29.2</ele>
        <time>2022-06-18T12:29:00Z</time>
      </trkpt>
      <trkpt lat="42.3483500" lon="-8.6082100">
        <ele>28.2</ele>
        <time>2022-06-18T12:29:01Z</time>
      </trkpt>
      <trkpt lat="42.3483880" lon="-8.6082800">
        <ele>23.0</ele>
        <time>2022-06-18T12:29:02Z</time>
      </trkpt>
      <trkpt lat="42.3484180" lon="-8.6083530">
        <ele>23.0</ele>
        <time>2022-06-18T12:29:03Z</time>
      </trkpt>
      <trkpt lat="42.3484400" lon="-8.6084160">
        <ele>23.0</ele>
        <time>2022-06-18T12:29:04Z</time>
      </trkpt>
      <trkpt lat="42.3484650" lon="-8.6084660">
        <ele>24.0</ele>
        <time>2022-06-18T12:29:05Z</time>
      </trkpt>
      <trkpt lat="42.3484910" lon="-8.6084980">
        <ele>24.4</ele>
        <time>2022-06-18T12:29:06Z</time>
      </trkpt>
      <trkpt lat="42.3485250" lon="-8.6085130">
        <ele>24.4</ele>
        <time>2022-06-18T12:29:07Z</time>
      </trkpt>
      <trkpt lat="42.3485700" lon="-8.6085110">
        <ele>24.4</ele>
        <time>2022-06-18T12:29:08Z</time>
      </trkpt>
      <trkpt lat="42.3486330" lon="-8.6084910">
        <ele>24.4</ele>
        <time>2022-06-18T12:29:09Z</time>
      </trkpt>
      <trkpt lat="42.3487030" lon="-8.6084730">
        <ele>17.6</ele>
        <time>2022-06-18T12:29:10Z</time>
      </trkpt>
      <trkpt lat="42.3487800" lon="-8.6084610">
        <ele>17.6</ele>
        <time>2022-06-18T12:29:11Z</time>
      </trkpt>
      <trkpt lat="42.3488580" lon="-8.6084480">
        <ele>17.6</ele>
        <time>2022-06-18T12:29:12Z</time>
      </trkpt>
      <trkpt lat="42.3489350" lon="-8.6084410">
        <ele>17.6</ele>
        <time>2022-06-18T12:29:13Z</time>
      </trkpt>
      <trkpt lat="42.3490150" lon="-8.6084400">
        <ele>16.2</ele>
        <time>2022-06-18T12:29:14Z</time>
      </trkpt>
      <trkpt lat="42.3490950" lon="-8.6084400">
        <ele>16.2</ele>
        <time>2022-06-18T12:29:15Z</time>
      </trkpt>
      <trkpt lat="42.3491780" lon="-8.6084300">
        <ele>16.2</ele>
        <time>2022-06-18T12:29:16Z</time>
      </trkpt>
      <trkpt lat="42.3492560" lon="-8.6084110">
        <ele>15.4</ele>
        <time>2022-06-18T12:29:17Z</time>
      </trkpt>
      <trkpt lat="42.3493300" lon="-8.6083880">
        <ele>16.4</ele>
        <time>2022-06-18T12:29:18Z</time>
      </trkpt>
      <trkpt lat="42.3494000" lon="-8.6083600">
        <ele>16.4</ele>
        <time>2022-06-18T12:29:19Z</time>
      </trkpt>
      <trkpt lat="42.3494700" lon="-8.6083330">
        <ele>16.4</ele>
        <time>2022-06-18T12:29:20Z</time>
      </trkpt>
      <trkpt lat="42.3495360" lon="-8.6083010">
        <ele>16.4</ele>
        <time>2022-06-18T12:29:21Z</time>
      </trkpt>
      <trkpt lat="42.3496000" lon="-8.6082680">
        <ele>15.4</ele>
        <time>2022-06-18T12:29:22Z</time>
      </trkpt>
      <trkpt lat="42.3496560" lon="-8.6082380">
        <ele>15.4</ele>
        <time>2022-06-18T12:29:23Z</time>
      </trkpt>
      <trkpt lat="42.3497100" lon="-8.6082230">
        <ele>15.4</ele>
        <time>2022-06-18T12:29:24Z</time>
      </trkpt>
      <trkpt lat="42.3497610" lon="-8.6082260">
        <ele>16.4</ele>
        <time>2022-06-18T12:29:25Z</time>
      </trkpt>
      <trkpt lat="42.3497980" lon="-8.6082530">
        <ele>19.2</ele>
        <time>2022-06-18T12:29:26Z</time>
      </trkpt>
      <trkpt lat="42.3498150" lon="-8.6082850">
        <ele>19.2</ele>
        <time>2022-06-18T12:29:27Z</time>
      </trkpt>
      <trkpt lat="42.3498250" lon="-8.6083150">
        <ele>19.2</ele>
        <time>2022-06-18T12:29:28Z</time>
      </trkpt>
      <trkpt lat="42.3498350" lon="-8.6083380">
        <ele>20.2</ele>
        <time>2022-06-18T12:29:29Z</time>
      </trkpt>
      <trkpt lat="42.3498400" lon="-8.6083530">
        <ele>20.6</ele>
        <time>2022-06-18T12:29:30Z</time>
      </trkpt>
      <trkpt lat="42.3498430" lon="-8.6083580">
        <ele>20.6</ele>
        <time>2022-06-18T12:29:31Z</time>
      </trkpt>
      <trkpt lat="42.3498400" lon="-8.6083780">
        <ele>20.8</ele>
        <time>2022-06-18T12:29:35Z</time>
      </trkpt>
      <trkpt lat="42.3498410" lon="-8.6083980">
        <ele>20.8</ele>
        <time>2022-06-18T12:29:36Z</time>
      </trkpt>
      <trkpt lat="42.3498450" lon="-8.6084200">
        <ele>21.0</ele>
        <time>2022-06-18T12:29:37Z</time>
      </trkpt>
      <trkpt lat="42.3498460" lon="-8.6084380">
        <ele>21.0</ele>
        <time>2022-06-18T12:29:38Z</time>
      </trkpt>
      <trkpt lat="42.3498480" lon="-8.6084560">
        <ele>21.0</ele>
        <time>2022-06-18T12:29:39Z</time>
      </trkpt>
      <trkpt lat="42.3498480" lon="-8.6084750">
        <ele>21.0</ele>
        <time>2022-06-18T12:29:40Z</time>
      </trkpt>
      <trkpt lat="42.3498480" lon="-8.6084910">
        <ele>21.4</ele>
        <time>2022-06-18T12:29:41Z</time>
      </trkpt>
      <trkpt lat="42.3498500" lon="-8.6085100">
        <ele>21.6</ele>
        <time>2022-06-18T12:29:42Z</time>
      </trkpt>
      <trkpt lat="42.3498530" lon="-8.6085280">
        <ele>21.6</ele>
        <time>2022-06-18T12:29:43Z</time>
      </trkpt>
      <trkpt lat="42.3498500" lon="-8.6085460">
        <ele>21.6</ele>
        <time>2022-06-18T12:29:44Z</time>
      </trkpt>
      <trkpt lat="42.3498510" lon="-8.6085630">
        <ele>22.4</ele>
        <time>2022-06-18T12:29:45Z</time>
      </trkpt>
      <trkpt lat="42.3498550" lon="-8.6085760">
        <ele>22.2</ele>
        <time>2022-06-18T12:29:46Z</time>
      </trkpt>
      <trkpt lat="42.3498580" lon="-8.6085950">
        <ele>22.2</ele>
        <time>2022-06-18T12:29:47Z</time>
      </trkpt>
      <trkpt lat="42.3498610" lon="-8.6086150">
        <ele>22.2</ele>
        <time>2022-06-18T12:29:48Z</time>
      </trkpt>
      <trkpt lat="42.3498650" lon="-8.6086360">
        <ele>22.8</ele>
        <time>2022-06-18T12:29:49Z</time>
      </trkpt>
      <trkpt lat="42.3498650" lon="-8.6086600">
        <ele>22.8</ele>
        <time>2022-06-18T12:29:50Z</time>
      </trkpt>
      <trkpt lat="42.3498650" lon="-8.6086850">
        <ele>22.8</ele>
        <time>2022-06-18T12:29:51Z</time>
      </trkpt>
      <trkpt lat="42.3498560" lon="-8.6087060">
        <ele>22.8</ele>
        <time>2022-06-18T12:29:52Z</time>
      </trkpt>
      <trkpt lat="42.3498500" lon="-8.6087310">
        <ele>23.2</ele>
        <time>2022-06-18T12:29:53Z</time>
      </trkpt>
      <trkpt lat="42.3498450" lon="-8.6087560">
        <ele>23.4</ele>
        <time>2022-06-18T12:29:54Z</time>
      </trkpt>
      <trkpt lat="42.3498360" lon="-8.6087800">
        <ele>23.4</ele>
        <time>2022-06-18T12:29:55Z</time>
      </trkpt>
      <trkpt lat="42.3498310" lon="-8.6088030">
        <ele>23.4</ele>
        <time>2022-06-18T12:29:56Z</time>
      </trkpt>
      <trkpt lat="42.3498260" lon="-8.6088250">
        <ele>23.4</ele>
        <time>2022-06-18T12:29:57Z</time>
      </trkpt>
      <trkpt lat="42.3498200" lon="-8.6088460">
        <ele>23.8</ele>
        <time>2022-06-18T12:29:58Z</time>
      </trkpt>
      <trkpt lat="42.3498130" lon="-8.6088660">
        <ele>23.8</ele>
        <time>2022-06-18T12:29:59Z</time>
      </trkpt>
      <trkpt lat="42.3498060" lon="-8.6088860">
        <ele>23.8</ele>
        <time>2022-06-18T12:30:00Z</time>
      </trkpt>
      <trkpt lat="42.3498000" lon="-8.6089000">
        <ele>23.8</ele>
        <time>2022-06-18T12:30:01Z</time>
      </trkpt>
      <trkpt lat="42.3497900" lon="-8.6089150">
        <ele>24.2</ele>
        <time>2022-06-18T12:30:02Z</time>
      </trkpt>
      <trkpt lat="42.3497810" lon="-8.6089310">
        <ele>24.2</ele>
        <time>2022-06-18T12:30:03Z</time>
      </trkpt>
      <trkpt lat="42.3497700" lon="-8.6089500">
        <ele>24.2</ele>
        <time>2022-06-18T12:30:04Z</time>
      </trkpt>
      <trkpt lat="42.3497580" lon="-8.6089700">
        <ele>25.0</ele>
        <time>2022-06-18T12:30:05Z</time>
      </trkpt>
      <trkpt lat="42.3497460" lon="-8.6089900">
        <ele>25.0</ele>
        <time>2022-06-18T12:30:06Z</time>
      </trkpt>
      <trkpt lat="42.3497330" lon="-8.6090080">
        <ele>25.0</ele>
        <time>2022-06-18T12:30:07Z</time>
      </trkpt>
      <trkpt lat="42.3497210" lon="-8.6090300">
        <ele>25.0</ele>
        <time>2022-06-18T12:30:08Z</time>
      </trkpt>
      <trkpt lat="42.3497110" lon="-8.6090500">
        <ele>25.0</ele>
        <time>2022-06-18T12:30:09Z</time>
      </trkpt>
      <trkpt lat="42.3497050" lon="-8.6090700">
        <ele>25.8</ele>
        <time>2022-06-18T12:30:10Z</time>
      </trkpt>
      <trkpt lat="42.3496930" lon="-8.6090850">
        <ele>25.8</ele>
        <time>2022-06-18T12:30:11Z</time>
      </trkpt>
      <trkpt lat="42.3496800" lon="-8.6090960">
        <ele>25.8</ele>
        <time>2022-06-18T12:30:12Z</time>
      </trkpt>
      <trkpt lat="42.3496660" lon="-8.6091060">
        <ele>26.2</ele>
        <time>2022-06-18T12:30:13Z</time>
      </trkpt>
      <trkpt lat="42.3496510" lon="-8.6091130">
        <ele>26.4</ele>
        <time>2022-06-18T12:30:14Z</time>
      </trkpt>
      <trkpt lat="42.3496400" lon="-8.6091200">
        <ele>26.4</ele>
        <time>2022-06-18T12:30:15Z</time>
      </trkpt>
      <trkpt lat="42.3496260" lon="-8.6091260">
        <ele>26.4</ele>
        <time>2022-06-18T12:30:16Z</time>
      </trkpt>
      <trkpt lat="42.3496110" lon="-8.6091260">
        <ele>26.6</ele>
        <time>2022-06-18T12:30:17Z</time>
      </trkpt>
      <trkpt lat="42.3495960" lon="-8.6091280">
        <ele>26.6</ele>
        <time>2022-06-18T12:30:18Z</time>
      </trkpt>
      <trkpt lat="42.3495850" lon="-8.6091350">
        <ele>26.6</ele>
        <time>2022-06-18T12:30:19Z</time>
      </trkpt>
      <trkpt lat="42.3495730" lon="-8.6091380">
        <ele>26.6</ele>
        <time>2022-06-18T12:30:20Z</time>
      </trkpt>
      <trkpt lat="42.3495600" lon="-8.6091400">
        <ele>27.2</ele>
        <time>2022-06-18T12:30:21Z</time>
      </trkpt>
      <trkpt lat="42.3495480" lon="-8.6091450">
        <ele>27.2</ele>
        <time>2022-06-18T12:30:22Z</time>
      </trkpt>
      <trkpt lat="42.3495350" lon="-8.6091500">
        <ele>27.2</ele>
        <time>2022-06-18T12:30:23Z</time>
      </trkpt>
      <trkpt lat="42.3495250" lon="-8.6091530">
        <ele>27.2</ele>
        <time>2022-06-18T12:30:24Z</time>
      </trkpt>
      <trkpt lat="42.3495150" lon="-8.6091560">
        <ele>28.0</ele>
        <time>2022-06-18T12:30:25Z</time>
      </trkpt>
      <trkpt lat="42.3495050" lon="-8.6091600">
        <ele>28.0</ele>
        <time>2022-06-18T12:30:26Z</time>
      </trkpt>
      <trkpt lat="42.3494950" lon="-8.6091660">
        <ele>28.0</ele>
        <time>2022-06-18T12:30:27Z</time>
      </trkpt>
      <trkpt lat="42.3494860" lon="-8.6091730">
        <ele>28.0</ele>
        <time>2022-06-18T12:30:28Z</time>
      </trkpt>
      <trkpt lat="42.3494780" lon="-8.6091830">
        <ele>28.4</ele>
        <time>2022-06-18T12:30:29Z</time>
      </trkpt>
      <trkpt lat="42.3494760" lon="-8.6092000">
        <ele>29.0</ele>
        <time>2022-06-18T12:30:30Z</time>
      </trkpt>
      <trkpt lat="42.3494800" lon="-8.6092110">
        <ele>29.0</ele>
        <time>2022-06-18T12:30:31Z</time>
      </trkpt>
      <trkpt lat="42.3494880" lon="-8.6092210">
        <ele>29.0</ele>
        <time>2022-06-18T12:30:32Z</time>
      </trkpt>
      <trkpt lat="42.3494980" lon="-8.6092350">
        <ele>29.6</ele>
        <time>2022-06-18T12:30:33Z</time>
      </trkpt>
      <trkpt lat="42.3495080" lon="-8.6092480">
        <ele>29.8</ele>
        <time>2022-06-18T12:30:34Z</time>
      </trkpt>
      <trkpt lat="42.3495130" lon="-8.6092610">
        <ele>29.8</ele>
        <time>2022-06-18T12:30:35Z</time>
      </trkpt>
      <trkpt lat="42.3495160" lon="-8.6092730">
        <ele>29.8</ele>
        <time>2022-06-18T12:30:36Z</time>
      </trkpt>
      <trkpt lat="42.3495210" lon="-8.6092860">
        <ele>30.8</ele>
        <time>2022-06-18T12:30:37Z</time>
      </trkpt>
      <trkpt lat="42.3495260" lon="-8.6093000">
        <ele>31.4</ele>
        <time>2022-06-18T12:30:38Z</time>
      </trkpt>
      <trkpt lat="42.3495280" lon="-8.6093130">
        <ele>31.4</ele>
        <time>2022-06-18T12:30:39Z</time>
      </trkpt>
      <trkpt lat="42.3495300" lon="-8.6093280">
        <ele>31.4</ele>
        <time>2022-06-18T12:30:40Z</time>
      </trkpt>
      <trkpt lat="42.3495310" lon="-8.6093460">
        <ele>31.4</ele>
        <time>2022-06-18T12:30:41Z</time>
      </trkpt>
      <trkpt lat="42.3495330" lon="-8.6093650">
        <ele>32.8</ele>
        <time>2022-06-18T12:30:42Z</time>
      </trkpt>
      <trkpt lat="42.3495360" lon="-8.6093810">
        <ele>32.8</ele>
        <time>2022-06-18T12:30:43Z</time>
      </trkpt>
      <trkpt lat="42.3495400" lon="-8.6093980">
        <ele>32.8</ele>
        <time>2022-06-18T12:30:44Z</time>
      </trkpt>
      <trkpt lat="42.3495430" lon="-8.6094130">
        <ele>33.4</ele>
        <time>2022-06-18T12:30:45Z</time>
      </trkpt>
      <trkpt lat="42.3495450" lon="-8.6094260">
        <ele>33.4</ele>
        <time>2022-06-18T12:30:46Z</time>
      </trkpt>
      <trkpt lat="42.3495460" lon="-8.6094410">
        <ele>33.4</ele>
        <time>2022-06-18T12:30:47Z</time>
      </trkpt>
      <trkpt lat="42.3495510" lon="-8.6094560">
        <ele>33.4</ele>
        <time>2022-06-18T12:30:48Z</time>
      </trkpt>
      <trkpt lat="42.3495550" lon="-8.6094700">
        <ele>34.4</ele>
        <time>2022-06-18T12:30:49Z</time>
      </trkpt>
      <trkpt lat="42.3495580" lon="-8.6094850">
        <ele>34.2</ele>
        <time>2022-06-18T12:30:50Z</time>
      </trkpt>
      <trkpt lat="42.3495610" lon="-8.6095010">
        <ele>34.2</ele>
        <time>2022-06-18T12:30:51Z</time>
      </trkpt>
      <trkpt lat="42.3495660" lon="-8.6095150">
        <ele>34.2</ele>
        <time>2022-06-18T12:30:52Z</time>
      </trkpt>
      <trkpt lat="42.3495710" lon="-8.6095310">
        <ele>35.0</ele>
        <time>2022-06-18T12:30:53Z</time>
      </trkpt>
      <trkpt lat="42.3495800" lon="-8.6095450">
        <ele>35.2</ele>
        <time>2022-06-18T12:30:54Z</time>
      </trkpt>
      <trkpt lat="42.3495860" lon="-8.6095560">
        <ele>35.2</ele>
        <time>2022-06-18T12:30:55Z</time>
      </trkpt>
      <trkpt lat="42.3495980" lon="-8.6095680">
        <ele>35.2</ele>
        <time>2022-06-18T12:30:56Z</time>
      </trkpt>
      <trkpt lat="42.3496060" lon="-8.6095780">
        <ele>35.6</ele>
        <time>2022-06-18T12:30:57Z</time>
      </trkpt>
      <trkpt lat="42.3496180" lon="-8.6095880">
        <ele>35.8</ele>
        <time>2022-06-18T12:30:58Z</time>
      </trkpt>
      <trkpt lat="42.3496260" lon="-8.6095960">
        <ele>35.8</ele>
        <time>2022-06-18T12:30:59Z</time>
      </trkpt>
      <trkpt lat="42.3496360" lon="-8.6096050">
        <ele>35.8</ele>
        <time>2022-06-18T12:31:00Z</time>
      </trkpt>
      <trkpt lat="42.3496480" lon="-8.6096150">
        <ele>35.8</ele>
        <time>2022-06-18T12:31:01Z</time>
      </trkpt>
      <trkpt lat="42.3496580" lon="-8.6096250">
        <ele>36.0</ele>
        <time>2022-06-18T12:31:02Z</time>
      </trkpt>
      <trkpt lat="42.3496710" lon="-8.6096350">
        <ele>36.0</ele>
        <time>2022-06-18T12:31:03Z</time>
      </trkpt>
      <trkpt lat="42.3496830" lon="-8.6096430">
        <ele>36.0</ele>
        <time>2022-06-18T12:31:04Z</time>
      </trkpt>
      <trkpt lat="42.3496960" lon="-8.6096510">
        <ele>36.2</ele>
        <time>2022-06-18T12:31:05Z</time>
      </trkpt>
      <trkpt lat="42.3497100" lon="-8.6096600">
        <ele>36.2</ele>
        <time>2022-06-18T12:31:06Z</time>
      </trkpt>
      <trkpt lat="42.3497200" lon="-8.6096650">
        <ele>36.2</ele>
        <time>2022-06-18T12:31:07Z</time>
      </trkpt>
      <trkpt lat="42.3497310" lon="-8.6096710">
        <ele>36.2</ele>
        <time>2022-06-18T12:31:08Z</time>
      </trkpt>
      <trkpt lat="42.3497430" lon="-8.6096810">
        <ele>36.8</ele>
        <time>2022-06-18T12:31:09Z</time>
      </trkpt>
      <trkpt lat="42.3497550" lon="-8.6096910">
        <ele>37.0</ele>
        <time>2022-06-18T12:31:10Z</time>
      </trkpt>
      <trkpt lat="42.3497610" lon="-8.6096980">
        <ele>37.0</ele>
        <time>2022-06-18T12:31:11Z</time>
      </trkpt>
      <trkpt lat="42.3497710" lon="-8.6097050">
        <ele>37.0</ele>
        <time>2022-06-18T12:31:12Z</time>
      </trkpt>
      <trkpt lat="42.3497830" lon="-8.6097110">
        <ele>37.2</ele>
        <time>2022-06-18T12:31:13Z</time>
      </trkpt>
      <trkpt lat="42.3497930" lon="-8.6097230">
        <ele>37.6</ele>
        <time>2022-06-18T12:31:14Z</time>
      </trkpt>
      <trkpt lat="42.3498030" lon="-8.6097330">
        <ele>37.6</ele>
        <time>2022-06-18T12:31:15Z</time>
      </trkpt>
      <trkpt lat="42.3498100" lon="-8.6097410">
        <ele>37.6</ele>
        <time>2022-06-18T12:31:16Z</time>
      </trkpt>
      <trkpt lat="42.3498200" lon="-8.6097510">
        <ele>38.2</ele>
        <time>2022-06-18T12:31:17Z</time>
      </trkpt>
      <trkpt lat="42.3498300" lon="-8.6097610">
        <ele>38.4</ele>
        <time>2022-06-18T12:31:18Z</time>
      </trkpt>
      <trkpt lat="42.3498410" lon="-8.6097680">
        <ele>38.4</ele>
        <time>2022-06-18T12:31:19Z</time>
      </trkpt>
      <trkpt lat="42.3498510" lon="-8.6097760">
        <ele>38.4</ele>
        <time>2022-06-18T12:31:20Z</time>
      </trkpt>
      <trkpt lat="42.3498600" lon="-8.6097850">
        <ele>39.2</ele>
        <time>2022-06-18T12:31:21Z</time>
      </trkpt>
      <trkpt lat="42.3498680" lon="-8.6097960">
        <ele>39.4</ele>
        <time>2022-06-18T12:31:22Z</time>
      </trkpt>
      <trkpt lat="42.3498730" lon="-8.6098080">
        <ele>39.4</ele>
        <time>2022-06-18T12:31:23Z</time>
      </trkpt>
      <trkpt lat="42.3498800" lon="-8.6098180">
        <ele>39.4</ele>
        <time>2022-06-18T12:31:24Z</time>
      </trkpt>
      <trkpt lat="42.3498900" lon="-8.6098280">
        <ele>39.4</ele>
        <time>2022-06-18T12:31:25Z</time>
      </trkpt>
      <trkpt lat="42.3498930" lon="-8.6098410">
        <ele>39.6</ele>
        <time>2022-06-18T12:31:26Z</time>
      </trkpt>
      <trkpt lat="42.3499050" lon="-8.6098500">
        <ele>39.6</ele>
        <time>2022-06-18T12:31:27Z</time>
      </trkpt>
      <trkpt lat="42.3499130" lon="-8.6098560">
        <ele>39.6</ele>
        <time>2022-06-18T12:31:28Z</time>
      </trkpt>
      <trkpt lat="42.3499180" lon="-8.6098630">
        <ele>40.6</ele>
        <time>2022-06-18T12:31:29Z</time>
      </trkpt>
      <trkpt lat="42.3499280" lon="-8.6098700">
        <ele>41.0</ele>
        <time>2022-06-18T12:31:30Z</time>
      </trkpt>
      <trkpt lat="42.3499350" lon="-8.6098700">
        <ele>41.0</ele>
        <time>2022-06-18T12:31:31Z</time>
      </trkpt>
      <trkpt lat="42.3499480" lon="-8.6098730">
        <ele>41.0</ele>
        <time>2022-06-18T12:31:32Z</time>
      </trkpt>
      <trkpt lat="42.3499600" lon="-8.6098800">
        <ele>41.0</ele>
        <time>2022-06-18T12:31:33Z</time>
      </trkpt>
      <trkpt lat="42.3499680" lon="-8.6098800">
        <ele>41.4</ele>
        <time>2022-06-18T12:31:34Z</time>
      </trkpt>
      <trkpt lat="42.3499710" lon="-8.6098810">
        <ele>41.4</ele>
        <time>2022-06-18T12:31:35Z</time>
      </trkpt>
      <trkpt lat="42.3499800" lon="-8.6098860">
        <ele>41.4</ele>
        <time>2022-06-18T12:31:36Z</time>
      </trkpt>
      <trkpt lat="42.3499900" lon="-8.6098930">
        <ele>41.6</ele>
        <time>2022-06-18T12:31:37Z</time>
      </trkpt>
      <trkpt lat="42.3499980" lon="-8.6099060">
        <ele>42.0</ele>
        <time>2022-06-18T12:31:38Z</time>
      </trkpt>
      <trkpt lat="42.3500060" lon="-8.6099210">
        <ele>42.0</ele>
        <time>2022-06-18T12:31:39Z</time>
      </trkpt>
      <trkpt lat="42.3500150" lon="-8.6099360">
        <ele>42.0</ele>
        <time>2022-06-18T12:31:40Z</time>
      </trkpt>
      <trkpt lat="42.3500230" lon="-8.6099480">
        <ele>42.6</ele>
        <time>2022-06-18T12:31:41Z</time>
      </trkpt>
      <trkpt lat="42.3500310" lon="-8.6099650">
        <ele>42.8</ele>
        <time>2022-06-18T12:31:42Z</time>
      </trkpt>
      <trkpt lat="42.3500360" lon="-8.6099810">
        <ele>42.8</ele>
        <time>2022-06-18T12:31:43Z</time>
      </trkpt>
      <trkpt lat="42.3500400" lon="-8.6100000">
        <ele>42.8</ele>
        <time>2022-06-18T12:31:44Z</time>
      </trkpt>
      <trkpt lat="42.3500450" lon="-8.6100160">
        <ele>43.6</ele>
        <time>2022-06-18T12:31:45Z</time>
      </trkpt>
      <trkpt lat="42.3500500" lon="-8.6100330">
        <ele>44.0</ele>
        <time>2022-06-18T12:31:46Z</time>
      </trkpt>
      <trkpt lat="42.3500510" lon="-8.6100460">
        <ele>44.0</ele>
        <time>2022-06-18T12:31:47Z</time>
      </trkpt>
      <trkpt lat="42.3500560" lon="-8.6100600">
        <ele>44.0</ele>
        <time>2022-06-18T12:31:48Z</time>
      </trkpt>
      <trkpt lat="42.3500610" lon="-8.6100800">
        <ele>44.0</ele>
        <time>2022-06-18T12:31:49Z</time>
      </trkpt>
      <trkpt lat="42.3500680" lon="-8.6100980">
        <ele>44.4</ele>
        <time>2022-06-18T12:31:50Z</time>
      </trkpt>
      <trkpt lat="42.3500760" lon="-8.6101150">
        <ele>44.4</ele>
        <time>2022-06-18T12:31:51Z</time>
      </trkpt>
      <trkpt lat="42.3500830" lon="-8.6101350">
        <ele>44.4</ele>
        <time>2022-06-18T12:31:52Z</time>
      </trkpt>
      <trkpt lat="42.3500850" lon="-8.6101550">
        <ele>44.4</ele>
        <time>2022-06-18T12:31:53Z</time>
      </trkpt>
      <trkpt lat="42.3500830" lon="-8.6101760">
        <ele>44.2</ele>
        <time>2022-06-18T12:31:54Z</time>
      </trkpt>
      <trkpt lat="42.3500860" lon="-8.6101980">
        <ele>44.2</ele>
        <time>2022-06-18T12:31:55Z</time>
      </trkpt>
      <trkpt lat="42.3500900" lon="-8.6102210">
        <ele>44.2</ele>
        <time>2022-06-18T12:31:56Z</time>
      </trkpt>
      <trkpt lat="42.3500880" lon="-8.6102460">
        <ele>44.2</ele>
        <time>2022-06-18T12:31:57Z</time>
      </trkpt>
      <trkpt lat="42.3500860" lon="-8.6102780">
        <ele>44.0</ele>
        <time>2022-06-18T12:31:58Z</time>
      </trkpt>
      <trkpt lat="42.3500850" lon="-8.6103180">
        <ele>44.0</ele>
        <time>2022-06-18T12:31:59Z</time>
      </trkpt>
      <trkpt lat="42.3500880" lon="-8.6103680">
        <ele>44.0</ele>
        <time>2022-06-18T12:32:00Z</time>
      </trkpt>
      <trkpt lat="42.3500910" lon="-8.6104230">
        <ele>43.0</ele>
        <time>2022-06-18T12:32:01Z</time>
      </trkpt>
      <trkpt lat="42.3500980" lon="-8.6104830">
        <ele>42.6</ele>
        <time>2022-06-18T12:32:02Z</time>
      </trkpt>
      <trkpt lat="42.3501030" lon="-8.6105460">
        <ele>42.6</ele>
        <time>2022-06-18T12:32:03Z</time>
      </trkpt>
      <trkpt lat="42.3501060" lon="-8.6106180">
        <ele>42.6</ele>
        <time>2022-06-18T12:32:04Z</time>
      </trkpt>
      <trkpt lat="42.3501110" lon="-8.6106900">
        <ele>41.6</ele>
        <time>2022-06-18T12:32:05Z</time>
      </trkpt>
      <trkpt lat="42.3501210" lon="-8.6107630">
        <ele>41.0</ele>
        <time>2022-06-18T12:32:06Z</time>
      </trkpt>
      <trkpt lat="42.3501380" lon="-8.6108380">
        <ele>41.0</ele>
        <time>2022-06-18T12:32:07Z</time>
      </trkpt>
      <trkpt lat="42.3501630" lon="-8.6109150">
        <ele>41.0</ele>
        <time>2022-06-18T12:32:08Z</time>
      </trkpt>
      <trkpt lat="42.3502010" lon="-8.6109830">
        <ele>40.0</ele>
        <time>2022-06-18T12:32:09Z</time>
      </trkpt>
      <trkpt lat="42.3502480" lon="-8.6110450">
        <ele>39.0</ele>
        <time>2022-06-18T12:32:10Z</time>
      </trkpt>
      <trkpt lat="42.3502980" lon="-8.6111050">
        <ele>39.0</ele>
        <time>2022-06-18T12:32:11Z</time>
      </trkpt>
      <trkpt lat="42.3503510" lon="-8.6111580">
        <ele>39.0</ele>
        <time>2022-06-18T12:32:12Z</time>
      </trkpt>
      <trkpt lat="42.3504060" lon="-8.6112010">
        <ele>38.2</ele>
        <time>2022-06-18T12:32:13Z</time>
      </trkpt>
      <trkpt lat="42.3504650" lon="-8.6112380">
        <ele>38.4</ele>
        <time>2022-06-18T12:32:14Z</time>
      </trkpt>
      <trkpt lat="42.3505300" lon="-8.6112660">
        <ele>38.4</ele>
        <time>2022-06-18T12:32:15Z</time>
      </trkpt>
      <trkpt lat="42.3505950" lon="-8.6112880">
        <ele>38.4</ele>
        <time>2022-06-18T12:32:16Z</time>
      </trkpt>
      <trkpt lat="42.3506600" lon="-8.6113100">
        <ele>37.8</ele>
        <time>2022-06-18T12:32:17Z</time>
      </trkpt>
      <trkpt lat="42.3507260" lon="-8.6113330">
        <ele>37.2</ele>
        <time>2022-06-18T12:32:18Z</time>
      </trkpt>
      <trkpt lat="42.3507930" lon="-8.6113630">
        <ele>37.2</ele>
        <time>2022-06-18T12:32:19Z</time>
      </trkpt>
      <trkpt lat="42.3508600" lon="-8.6113930">
        <ele>37.2</ele>
        <time>2022-06-18T12:32:20Z</time>
      </trkpt>
      <trkpt lat="42.3509250" lon="-8.6114250">
        <ele>37.2</ele>
        <time>2022-06-18T12:32:21Z</time>
      </trkpt>
      <trkpt lat="42.3509900" lon="-8.6114550">
        <ele>36.6</ele>
        <time>2022-06-18T12:32:22Z</time>
      </trkpt>
      <trkpt lat="42.3510530" lon="-8.6114830">
        <ele>36.6</ele>
        <time>2022-06-18T12:32:23Z</time>
      </trkpt>
      <trkpt lat="42.3511060" lon="-8.6115130">
        <ele>36.6</ele>
        <time>2022-06-18T12:32:24Z</time>
      </trkpt>
      <trkpt lat="42.3511530" lon="-8.6115380">
        <ele>35.6</ele>
        <time>2022-06-18T12:32:25Z</time>
      </trkpt>
      <trkpt lat="42.3511910" lon="-8.6115600">
        <ele>34.8</ele>
        <time>2022-06-18T12:32:26Z</time>
      </trkpt>
      <trkpt lat="42.3512260" lon="-8.6115760">
        <ele>34.8</ele>
        <time>2022-06-18T12:32:27Z</time>
      </trkpt>
      <trkpt lat="42.3512550" lon="-8.6115880">
        <ele>34.8</ele>
        <time>2022-06-18T12:32:28Z</time>
      </trkpt>
      <trkpt lat="42.3512750" lon="-8.6115980">
        <ele>34.0</ele>
        <time>2022-06-18T12:32:29Z</time>
      </trkpt>
      <trkpt lat="42.3513000" lon="-8.6116110">
        <ele>33.8</ele>
        <time>2022-06-18T12:32:30Z</time>
      </trkpt>
      <trkpt lat="42.3513150" lon="-8.6116330">
        <ele>33.8</ele>
        <time>2022-06-18T12:32:31Z</time>
      </trkpt>
      <trkpt lat="42.3513250" lon="-8.6116480">
        <ele>33.8</ele>
        <time>2022-06-18T12:32:32Z</time>
      </trkpt>
      <trkpt lat="42.3513330" lon="-8.6116650">
        <ele>32.8</ele>
        <time>2022-06-18T12:32:33Z</time>
      </trkpt>
      <trkpt lat="42.3513380" lon="-8.6116830">
        <ele>33.2</ele>
        <time>2022-06-18T12:32:34Z</time>
      </trkpt>
      <trkpt lat="42.3513430" lon="-8.6116980">
        <ele>33.2</ele>
        <time>2022-06-18T12:32:35Z</time>
      </trkpt>
      <trkpt lat="42.3513500" lon="-8.6117130">
        <ele>33.2</ele>
        <time>2022-06-18T12:32:36Z</time>
      </trkpt>
      <trkpt lat="42.3513560" lon="-8.6117300">
        <ele>33.2</ele>
        <time>2022-06-18T12:32:37Z</time>
      </trkpt>
      <trkpt lat="42.3513600" lon="-8.6117450">
        <ele>32.2</ele>
        <time>2022-06-18T12:32:38Z</time>
      </trkpt>
      <trkpt lat="42.3513610" lon="-8.6117610">
        <ele>32.2</ele>
        <time>2022-06-18T12:32:39Z</time>
      </trkpt>
      <trkpt lat="42.3513650" lon="-8.6117800">
        <ele>32.2</ele>
        <time>2022-06-18T12:32:40Z</time>
      </trkpt>
      <trkpt lat="42.3513680" lon="-8.6118000">
        <ele>31.4</ele>
        <time>2022-06-18T12:32:41Z</time>
      </trkpt>
      <trkpt lat="42.3513710" lon="-8.6118210">
        <ele>30.8</ele>
        <time>2022-06-18T12:32:42Z</time>
      </trkpt>
      <trkpt lat="42.3513730" lon="-8.6118430">
        <ele>30.8</ele>
        <time>2022-06-18T12:32:43Z</time>
      </trkpt>
      <trkpt lat="42.3513730" lon="-8.6118680">
        <ele>30.8</ele>
        <time>2022-06-18T12:32:44Z</time>
      </trkpt>
      <trkpt lat="42.3513780" lon="-8.6118900">
        <ele>29.8</ele>
        <time>2022-06-18T12:32:45Z</time>
      </trkpt>
      <trkpt lat="42.3513810" lon="-8.6119110">
        <ele>28.0</ele>
        <time>2022-06-18T12:32:46Z</time>
      </trkpt>
      <trkpt lat="42.3513880" lon="-8.6119350">
        <ele>28.0</ele>
        <time>2022-06-18T12:32:47Z</time>
      </trkpt>
      <trkpt lat="42.3513960" lon="-8.6119580">
        <ele>28.0</ele>
        <time>2022-06-18T12:32:48Z</time>
      </trkpt>
      <trkpt lat="42.3514030" lon="-8.6119810">
        <ele>27.0</ele>
        <time>2022-06-18T12:32:49Z</time>
      </trkpt>
      <trkpt lat="42.3514080" lon="-8.6120030">
        <ele>26.4</ele>
        <time>2022-06-18T12:32:50Z</time>
      </trkpt>
      <trkpt lat="42.3514160" lon="-8.6120230">
        <ele>26.4</ele>
        <time>2022-06-18T12:32:51Z</time>
      </trkpt>
      <trkpt lat="42.3514260" lon="-8.6120410">
        <ele>26.4</ele>
        <time>2022-06-18T12:32:52Z</time>
      </trkpt>
      <trkpt lat="42.3514430" lon="-8.6120530">
        <ele>25.4</ele>
        <time>2022-06-18T12:32:53Z</time>
      </trkpt>
      <trkpt lat="42.3514580" lon="-8.6120650">
        <ele>25.0</ele>
        <time>2022-06-18T12:32:54Z</time>
      </trkpt>
      <trkpt lat="42.3514750" lon="-8.6120750">
        <ele>25.0</ele>
        <time>2022-06-18T12:32:55Z</time>
      </trkpt>
      <trkpt lat="42.3514910" lon="-8.6120800">
        <ele>25.0</ele>
        <time>2022-06-18T12:32:56Z</time>
      </trkpt>
      <trkpt lat="42.3515130" lon="-8.6120800">
        <ele>24.0</ele>
        <time>2022-06-18T12:32:57Z</time>
      </trkpt>
      <trkpt lat="42.3515410" lon="-8.6120780">
        <ele>23.0</ele>
        <time>2022-06-18T12:32:58Z</time>
      </trkpt>
      <trkpt lat="42.3515710" lon="-8.6120830">
        <ele>23.0</ele>
        <time>2022-06-18T12:32:59Z</time>
      </trkpt>
      <trkpt lat="42.3516030" lon="-8.6120900">
        <ele>23.0</ele>
        <time>2022-06-18T12:33:00Z</time>
      </trkpt>
      <trkpt lat="42.3516360" lon="-8.6120880">
        <ele>23.0</ele>
        <time>2022-06-18T12:33:01Z</time>
      </trkpt>
      <trkpt lat="42.3516660" lon="-8.6120780">
        <ele>22.8</ele>
        <time>2022-06-18T12:33:02Z</time>
      </trkpt>
      <trkpt lat="42.3516980" lon="-8.6120650">
        <ele>22.8</ele>
        <time>2022-06-18T12:33:03Z</time>
      </trkpt>
      <trkpt lat="42.3517310" lon="-8.6120450">
        <ele>22.8</ele>
        <time>2022-06-18T12:33:04Z</time>
      </trkpt>
      <trkpt lat="42.3517680" lon="-8.6120310">
        <ele>21.8</ele>
        <time>2022-06-18T12:33:05Z</time>
      </trkpt>
      <trkpt lat="42.3517980" lon="-8.6120260">
        <ele>22.2</ele>
        <time>2022-06-18T12:33:06Z</time>
      </trkpt>
      <trkpt lat="42.3518180" lon="-8.6120160">
        <ele>22.2</ele>
        <time>2022-06-18T12:33:07Z</time>
      </trkpt>
      <trkpt lat="42.3518410" lon="-8.6120110">
        <ele>22.2</ele>
        <time>2022-06-18T12:33:08Z</time>
      </trkpt>
      <trkpt lat="42.3518630" lon="-8.6120000">
        <ele>22.2</ele>
        <time>2022-06-18T12:33:09Z</time>
      </trkpt>
      <trkpt lat="42.3518880" lon="-8.6119850">
        <ele>21.6</ele>
        <time>2022-06-18T12:33:10Z</time>
      </trkpt>
      <trkpt lat="42.3519110" lon="-8.6119730">
        <ele>21.6</ele>
        <time>2022-06-18T12:33:11Z</time>
      </trkpt>
      <trkpt lat="42.3519380" lon="-8.6119600">
        <ele>21.6</ele>
        <time>2022-06-18T12:33:12Z</time>
      </trkpt>
      <trkpt lat="42.3519650" lon="-8.6119460">
        <ele>21.6</ele>
        <time>2022-06-18T12:33:13Z</time>
      </trkpt>
      <trkpt lat="42.3519960" lon="-8.6119330">
        <ele>21.2</ele>
        <time>2022-06-18T12:33:14Z</time>
      </trkpt>
      <trkpt lat="42.3520280" lon="-8.6119100">
        <ele>21.2</ele>
        <time>2022-06-18T12:33:15Z</time>
      </trkpt>
      <trkpt lat="42.3520530" lon="-8.6118700">
        <ele>21.2</ele>
        <time>2022-06-18T12:33:16Z</time>
      </trkpt>
      <trkpt lat="42.3520830" lon="-8.6118410">
        <ele>20.4</ele>
        <time>2022-06-18T12:33:17Z</time>
      </trkpt>
      <trkpt lat="42.3521110" lon="-8.6118200">
        <ele>21.0</ele>
        <time>2022-06-18T12:33:18Z</time>
      </trkpt>
      <trkpt lat="42.3521400" lon="-8.6117930">
        <ele>21.0</ele>
        <time>2022-06-18T12:33:19Z</time>
      </trkpt>
      <trkpt lat="42.3521610" lon="-8.6117680">
        <ele>21.0</ele>
        <time>2022-06-18T12:33:20Z</time>
      </trkpt>
      <trkpt lat="42.3521830" lon="-8.6117430">
        <ele>21.0</ele>
        <time>2022-06-18T12:33:21Z</time>
      </trkpt>
      <trkpt lat="42.3522000" lon="-8.6117210">
        <ele>21.0</ele>
        <time>2022-06-18T12:33:22Z</time>
      </trkpt>
      <trkpt lat="42.3522160" lon="-8.6117180">
        <ele>21.0</ele>
        <time>2022-06-18T12:33:23Z</time>
      </trkpt>
      <trkpt lat="42.3522350" lon="-8.6117310">
        <ele>21.0</ele>
        <time>2022-06-18T12:33:24Z</time>
      </trkpt>
      <trkpt lat="42.3522560" lon="-8.6117510">
        <ele>21.0</ele>
        <time>2022-06-18T12:33:25Z</time>
      </trkpt>
      <trkpt lat="42.3522750" lon="-8.6117750">
        <ele>21.0</ele>
        <time>2022-06-18T12:33:26Z</time>
      </trkpt>
      <trkpt lat="42.3522910" lon="-8.6117930">
        <ele>21.0</ele>
        <time>2022-06-18T12:33:27Z</time>
      </trkpt>
      <trkpt lat="42.3523100" lon="-8.6118110">
        <ele>21.0</ele>
        <time>2022-06-18T12:33:28Z</time>
      </trkpt>
      <trkpt lat="42.3523330" lon="-8.6118230">
        <ele>20.6</ele>
        <time>2022-06-18T12:33:29Z</time>
      </trkpt>
      <trkpt lat="42.3523600" lon="-8.6118360">
        <ele>18.4</ele>
        <time>2022-06-18T12:33:30Z</time>
      </trkpt>
      <trkpt lat="42.3523910" lon="-8.6118500">
        <ele>18.4</ele>
        <time>2022-06-18T12:33:31Z</time>
      </trkpt>
      <trkpt lat="42.3524180" lon="-8.6118680">
        <ele>18.4</ele>
        <time>2022-06-18T12:33:32Z</time>
      </trkpt>
      <trkpt lat="42.3524550" lon="-8.6118860">
        <ele>18.4</ele>
        <time>2022-06-18T12:33:33Z</time>
      </trkpt>
      <trkpt lat="42.3524860" lon="-8.6119080">
        <ele>20.2</ele>
        <time>2022-06-18T12:33:34Z</time>
      </trkpt>
      <trkpt lat="42.3525160" lon="-8.6119360">
        <ele>20.2</ele>
        <time>2022-06-18T12:33:35Z</time>
      </trkpt>
      <trkpt lat="42.3525550" lon="-8.6119650">
        <ele>20.2</ele>
        <time>2022-06-18T12:33:36Z</time>
      </trkpt>
      <trkpt lat="42.3525750" lon="-8.6119850">
        <ele>20.8</ele>
        <time>2022-06-18T12:33:37Z</time>
      </trkpt>
      <trkpt lat="42.3525950" lon="-8.6120050">
        <ele>21.0</ele>
        <time>2022-06-18T12:33:47Z</time>
      </trkpt>
      <trkpt lat="42.3526150" lon="-8.6120250">
        <ele>21.0</ele>
        <time>2022-06-18T12:33:48Z</time>
      </trkpt>
      <trkpt lat="42.3526350" lon="-8.6120450">
        <ele>21.0</ele>
        <time>2022-06-18T12:33:49Z</time>
      </trkpt>
      <trkpt lat="42.3526700" lon="-8.6120780">
        <ele>20.8</ele>
        <time>2022-06-18T12:33:50Z</time>
      </trkpt>
      <trkpt lat="42.3527050" lon="-8.6121080">
        <ele>20.8</ele>
        <time>2022-06-18T12:33:51Z</time>
      </trkpt>
      <trkpt lat="42.3527260" lon="-8.6121300">
        <ele>20.8</ele>
        <time>2022-06-18T12:33:52Z</time>
      </trkpt>
      <trkpt lat="42.3527430" lon="-8.6121500">
        <ele>21.6</ele>
        <time>2022-06-18T12:33:53Z</time>
      </trkpt>
      <trkpt lat="42.3527550" lon="-8.6121700">
        <ele>21.6</ele>
        <time>2022-06-18T12:33:54Z</time>
      </trkpt>
      <trkpt lat="42.3527630" lon="-8.6121880">
        <ele>21.6</ele>
        <time>2022-06-18T12:33:55Z</time>
      </trkpt>
      <trkpt lat="42.3527750" lon="-8.6122080">
        <ele>21.6</ele>
        <time>2022-06-18T12:33:56Z</time>
      </trkpt>
      <trkpt lat="42.3527860" lon="-8.6122230">
        <ele>21.6</ele>
        <time>2022-06-18T12:33:57Z</time>
      </trkpt>
      <trkpt lat="42.3527950" lon="-8.6122400">
        <ele>21.6</ele>
        <time>2022-06-18T12:33:58Z</time>
      </trkpt>
      <trkpt lat="42.3528110" lon="-8.6122550">
        <ele>21.6</ele>
        <time>2022-06-18T12:33:59Z</time>
      </trkpt>
      <trkpt lat="42.3528280" lon="-8.6122710">
        <ele>21.6</ele>
        <time>2022-06-18T12:34:00Z</time>
      </trkpt>
      <trkpt lat="42.3528430" lon="-8.6122800">
        <ele>21.6</ele>
        <time>2022-06-18T12:34:01Z</time>
      </trkpt>
      <trkpt lat="42.3528550" lon="-8.6122850">
        <ele>22.0</ele>
        <time>2022-06-18T12:34:02Z</time>
      </trkpt>
      <trkpt lat="42.3528610" lon="-8.6122930">
        <ele>22.0</ele>
        <time>2022-06-18T12:34:03Z</time>
      </trkpt>
      <trkpt lat="42.3528630" lon="-8.6122960">
        <ele>22.0</ele>
        <time>2022-06-18T12:34:04Z</time>
      </trkpt>
      <trkpt lat="42.3528630" lon="-8.6122960">
        <ele>22.0</ele>
        <time>2022-06-18T12:34:05Z</time>
      </trkpt>
      <trkpt lat="42.3528730" lon="-8.6122980">
        <ele>21.8</ele>
        <time>2022-06-18T12:34:06Z</time>
      </trkpt>
      <trkpt lat="42.3528830" lon="-8.6123010">
        <ele>21.8</ele>
        <time>2022-06-18T12:34:07Z</time>
      </trkpt>
      <trkpt lat="42.3528960" lon="-8.6123100">
        <ele>21.8</ele>
        <time>2022-06-18T12:34:08Z</time>
      </trkpt>
      <trkpt lat="42.3529100" lon="-8.6123180">
        <ele>21.8</ele>
        <time>2022-06-18T12:34:09Z</time>
      </trkpt>
      <trkpt lat="42.3529200" lon="-8.6123210">
        <ele>22.2</ele>
        <time>2022-06-18T12:34:10Z</time>
      </trkpt>
      <trkpt lat="42.3529300" lon="-8.6123260">
        <ele>22.2</ele>
        <time>2022-06-18T12:34:11Z</time>
      </trkpt>
      <trkpt lat="42.3529410" lon="-8.6123300">
        <ele>22.2</ele>
        <time>2022-06-18T12:34:12Z</time>
      </trkpt>
      <trkpt lat="42.3529530" lon="-8.6123350">
        <ele>22.6</ele>
        <time>2022-06-18T12:34:13Z</time>
      </trkpt>
      <trkpt lat="42.3529630" lon="-8.6123430">
        <ele>22.8</ele>
        <time>2022-06-18T12:34:14Z</time>
      </trkpt>
      <trkpt lat="42.3529750" lon="-8.6123510">
        <ele>22.8</ele>
        <time>2022-06-18T12:34:15Z</time>
      </trkpt>
      <trkpt lat="42.3529850" lon="-8.6123510">
        <ele>22.8</ele>
        <time>2022-06-18T12:34:16Z</time>
      </trkpt>
      <trkpt lat="42.3529960" lon="-8.6123480">
        <ele>22.8</ele>
        <time>2022-06-18T12:34:17Z</time>
      </trkpt>
      <trkpt lat="42.3530050" lon="-8.6123500">
        <ele>23.2</ele>
        <time>2022-06-18T12:34:18Z</time>
      </trkpt>
      <trkpt lat="42.3530160" lon="-8.6123480">
        <ele>23.2</ele>
        <time>2022-06-18T12:34:19Z</time>
      </trkpt>
      <trkpt lat="42.3530230" lon="-8.6123480">
        <ele>23.2</ele>
        <time>2022-06-18T12:34:20Z</time>
      </trkpt>
      <trkpt lat="42.3530280" lon="-8.6123550">
        <ele>24.2</ele>
        <time>2022-06-18T12:34:21Z</time>
      </trkpt>
      <trkpt lat="42.3530330" lon="-8.6123650">
        <ele>24.4</ele>
        <time>2022-06-18T12:34:22Z</time>
      </trkpt>
      <trkpt lat="42.3530400" lon="-8.6123780">
        <ele>24.4</ele>
        <time>2022-06-18T12:34:23Z</time>
      </trkpt>
      <trkpt lat="42.3530450" lon="-8.6123910">
        <ele>24.4</ele>
        <time>2022-06-18T12:34:24Z</time>
      </trkpt>
      <trkpt lat="42.3530480" lon="-8.6124100">
        <ele>24.4</ele>
        <time>2022-06-18T12:34:25Z</time>
      </trkpt>
      <trkpt lat="42.3530480" lon="-8.6124260">
        <ele>25.0</ele>
        <time>2022-06-18T12:34:26Z</time>
      </trkpt>
      <trkpt lat="42.3530480" lon="-8.6124410">
        <ele>25.0</ele>
        <time>2022-06-18T12:34:27Z</time>
      </trkpt>
      <trkpt lat="42.3530460" lon="-8.6124530">
        <ele>25.0</ele>
        <time>2022-06-18T12:34:28Z</time>
      </trkpt>
      <trkpt lat="42.3530450" lon="-8.6124660">
        <ele>24.0</ele>
        <time>2022-06-18T12:34:29Z</time>
      </trkpt>
      <trkpt lat="42.3530430" lon="-8.6124780">
        <ele>24.4</ele>
        <time>2022-06-18T12:34:30Z</time>
      </trkpt>
      <trkpt lat="42.3530450" lon="-8.6124910">
        <ele>24.4</ele>
        <time>2022-06-18T12:34:31Z</time>
      </trkpt>
      <trkpt lat="42.3530410" lon="-8.6125030">
        <ele>24.4</ele>
        <time>2022-06-18T12:34:32Z</time>
      </trkpt>
      <trkpt lat="42.3530410" lon="-8.6125150">
        <ele>24.4</ele>
        <time>2022-06-18T12:34:33Z</time>
      </trkpt>
      <trkpt lat="42.3530380" lon="-8.6125300">
        <ele>25.4</ele>
        <time>2022-06-18T12:34:34Z</time>
      </trkpt>
      <trkpt lat="42.3530330" lon="-8.6125410">
        <ele>25.4</ele>
        <time>2022-06-18T12:34:35Z</time>
      </trkpt>
      <trkpt lat="42.3530330" lon="-8.6125560">
        <ele>25.4</ele>
        <time>2022-06-18T12:34:36Z</time>
      </trkpt>
      <trkpt lat="42.3530300" lon="-8.6125660">
        <ele>25.8</ele>
        <time>2022-06-18T12:34:37Z</time>
      </trkpt>
      <trkpt lat="42.3530280" lon="-8.6125780">
        <ele>26.2</ele>
        <time>2022-06-18T12:34:38Z</time>
      </trkpt>
      <trkpt lat="42.3530280" lon="-8.6125860">
        <ele>26.2</ele>
        <time>2022-06-18T12:34:39Z</time>
      </trkpt>
      <trkpt lat="42.3530250" lon="-8.6125980">
        <ele>26.2</ele>
        <time>2022-06-18T12:34:40Z</time>
      </trkpt>
      <trkpt lat="42.3530200" lon="-8.6126110">
        <ele>26.4</ele>
        <time>2022-06-18T12:34:41Z</time>
      </trkpt>
      <trkpt lat="42.3530150" lon="-8.6126250">
        <ele>26.0</ele>
        <time>2022-06-18T12:34:42Z</time>
      </trkpt>
      <trkpt lat="42.3530130" lon="-8.6126400">
        <ele>26.0</ele>
        <time>2022-06-18T12:34:43Z</time>
      </trkpt>
      <trkpt lat="42.3530110" lon="-8.6126480">
        <ele>26.0</ele>
        <time>2022-06-18T12:34:44Z</time>
      </trkpt>
      <trkpt lat="42.3530080" lon="-8.6126560">
        <ele>26.0</ele>
        <time>2022-06-18T12:34:45Z</time>
      </trkpt>
      <trkpt lat="42.3530060" lon="-8.6126680">
        <ele>27.0</ele>
        <time>2022-06-18T12:34:46Z</time>
      </trkpt>
      <trkpt lat="42.3530050" lon="-8.6126760">
        <ele>27.0</ele>
        <time>2022-06-18T12:34:47Z</time>
      </trkpt>
      <trkpt lat="42.3530050" lon="-8.6126880">
        <ele>27.0</ele>
        <time>2022-06-18T12:34:48Z</time>
      </trkpt>
      <trkpt lat="42.3530030" lon="-8.6127000">
        <ele>27.0</ele>
        <time>2022-06-18T12:34:49Z</time>
      </trkpt>
      <trkpt lat="42.3530060" lon="-8.6127100">
        <ele>27.0</ele>
        <time>2022-06-18T12:34:50Z</time>
      </trkpt>
      <trkpt lat="42.3530080" lon="-8.6127230">
        <ele>27.0</ele>
        <time>2022-06-18T12:34:51Z</time>
      </trkpt>
      <trkpt lat="42.3530060" lon="-8.6127350">
        <ele>27.0</ele>
        <time>2022-06-18T12:34:52Z</time>
      </trkpt>
      <trkpt lat="42.3530050" lon="-8.6127500">
        <ele>27.0</ele>
        <time>2022-06-18T12:34:53Z</time>
      </trkpt>
      <trkpt lat="42.3530050" lon="-8.6127610">
        <ele>27.0</ele>
        <time>2022-06-18T12:34:54Z</time>
      </trkpt>
      <trkpt lat="42.3530060" lon="-8.6127750">
        <ele>27.0</ele>
        <time>2022-06-18T12:34:55Z</time>
      </trkpt>
      <trkpt lat="42.3530080" lon="-8.6127810">
        <ele>27.0</ele>
        <time>2022-06-18T12:34:56Z</time>
      </trkpt>
      <trkpt lat="42.3530100" lon="-8.6127910">
        <ele>27.0</ele>
        <time>2022-06-18T12:34:57Z</time>
      </trkpt>
      <trkpt lat="42.3530130" lon="-8.6128030">
        <ele>27.4</ele>
        <time>2022-06-18T12:34:58Z</time>
      </trkpt>
      <trkpt lat="42.3530160" lon="-8.6128110">
        <ele>27.4</ele>
        <time>2022-06-18T12:34:59Z</time>
      </trkpt>
      <trkpt lat="42.3530110" lon="-8.6128160">
        <ele>27.4</ele>
        <time>2022-06-18T12:35:00Z</time>
      </trkpt>
      <trkpt lat="42.3530060" lon="-8.6128180">
        <ele>27.4</ele>
        <time>2022-06-18T12:35:01Z</time>
      </trkpt>
      <trkpt lat="42.3530060" lon="-8.6128180">
        <ele>27.4</ele>
        <time>2022-06-18T12:35:02Z</time>
      </trkpt>
      <trkpt lat="42.3530250" lon="-8.6128430">
        <ele>27.4</ele>
        <time>2022-06-18T12:35:05Z</time>
      </trkpt>
      <trkpt lat="42.3530330" lon="-8.6128630">
        <ele>27.2</ele>
        <time>2022-06-18T12:35:06Z</time>
      </trkpt>
      <trkpt lat="42.3530410" lon="-8.6128830">
        <ele>27.2</ele>
        <time>2022-06-18T12:35:07Z</time>
      </trkpt>
      <trkpt lat="42.3530530" lon="-8.6129110">
        <ele>27.2</ele>
        <time>2022-06-18T12:35:08Z</time>
      </trkpt>
      <trkpt lat="42.3530660" lon="-8.6129400">
        <ele>26.2</ele>
        <time>2022-06-18T12:35:09Z</time>
      </trkpt>
      <trkpt lat="42.3530830" lon="-8.6129650">
        <ele>26.8</ele>
        <time>2022-06-18T12:35:10Z</time>
      </trkpt>
      <trkpt lat="42.3530950" lon="-8.6129950">
        <ele>26.8</ele>
        <time>2022-06-18T12:35:11Z</time>
      </trkpt>
      <trkpt lat="42.3531060" lon="-8.6130280">
        <ele>26.8</ele>
        <time>2022-06-18T12:35:12Z</time>
      </trkpt>
      <trkpt lat="42.3531180" lon="-8.6130580">
        <ele>26.4</ele>
        <time>2022-06-18T12:35:13Z</time>
      </trkpt>
      <trkpt lat="42.3531310" lon="-8.6130950">
        <ele>25.6</ele>
        <time>2022-06-18T12:35:14Z</time>
      </trkpt>
      <trkpt lat="42.3531450" lon="-8.6131360">
        <ele>25.6</ele>
        <time>2022-06-18T12:35:15Z</time>
      </trkpt>
      <trkpt lat="42.3531610" lon="-8.6131830">
        <ele>25.6</ele>
        <time>2022-06-18T12:35:16Z</time>
      </trkpt>
      <trkpt lat="42.3531880" lon="-8.6132150">
        <ele>24.6</ele>
        <time>2022-06-18T12:35:17Z</time>
      </trkpt>
      <trkpt lat="42.3532130" lon="-8.6132330">
        <ele>26.2</ele>
        <time>2022-06-18T12:35:18Z</time>
      </trkpt>
      <trkpt lat="42.3532360" lon="-8.6132450">
        <ele>26.2</ele>
        <time>2022-06-18T12:35:19Z</time>
      </trkpt>
      <trkpt lat="42.3532600" lon="-8.6132560">
        <ele>26.2</ele>
        <time>2022-06-18T12:35:20Z</time>
      </trkpt>
      <trkpt lat="42.3532850" lon="-8.6132780">
        <ele>25.8</ele>
        <time>2022-06-18T12:35:21Z</time>
      </trkpt>
      <trkpt lat="42.3533050" lon="-8.6133010">
        <ele>25.8</ele>
        <time>2022-06-18T12:35:22Z</time>
      </trkpt>
      <trkpt lat="42.3533180" lon="-8.6133260">
        <ele>25.8</ele>
        <time>2022-06-18T12:35:23Z</time>
      </trkpt>
      <trkpt lat="42.3533350" lon="-8.6133500">
        <ele>25.8</ele>
        <time>2022-06-18T12:35:24Z</time>
      </trkpt>
      <trkpt lat="42.3533510" lon="-8.6133710">
        <ele>25.8</ele>
        <time>2022-06-18T12:35:25Z</time>
      </trkpt>
      <trkpt lat="42.3533630" lon="-8.6133980">
        <ele>26.2</ele>
        <time>2022-06-18T12:35:26Z</time>
      </trkpt>
      <trkpt lat="42.3533810" lon="-8.6134210">
        <ele>26.2</ele>
        <time>2022-06-18T12:35:27Z</time>
      </trkpt>
      <trkpt lat="42.3534010" lon="-8.6134450">
        <ele>26.2</ele>
        <time>2022-06-18T12:35:28Z</time>
      </trkpt>
      <trkpt lat="42.3534200" lon="-8.6134710">
        <ele>26.2</ele>
        <time>2022-06-18T12:35:29Z</time>
      </trkpt>
      <trkpt lat="42.3534400" lon="-8.6134910">
        <ele>26.0</ele>
        <time>2022-06-18T12:35:30Z</time>
      </trkpt>
      <trkpt lat="42.3534580" lon="-8.6135130">
        <ele>26.0</ele>
        <time>2022-06-18T12:35:31Z</time>
      </trkpt>
      <trkpt lat="42.3534780" lon="-8.6135330">
        <ele>26.0</ele>
        <time>2022-06-18T12:35:32Z</time>
      </trkpt>
      <trkpt lat="42.3534960" lon="-8.6135510">
        <ele>26.4</ele>
        <time>2022-06-18T12:35:33Z</time>
      </trkpt>
      <trkpt lat="42.3535160" lon="-8.6135700">
        <ele>26.4</ele>
        <time>2022-06-18T12:35:34Z</time>
      </trkpt>
      <trkpt lat="42.3535350" lon="-8.6135960">
        <ele>26.4</ele>
        <time>2022-06-18T12:35:35Z</time>
      </trkpt>
      <trkpt lat="42.3535510" lon="-8.6136230">
        <ele>26.4</ele>
        <time>2022-06-18T12:35:36Z</time>
      </trkpt>
      <trkpt lat="42.3535680" lon="-8.6136530">
        <ele>26.2</ele>
        <time>2022-06-18T12:35:37Z</time>
      </trkpt>
      <trkpt lat="42.3535880" lon="-8.6136800">
        <ele>26.0</ele>
        <time>2022-06-18T12:35:38Z</time>
      </trkpt>
      <trkpt lat="42.3536130" lon="-8.6137060">
        <ele>26.0</ele>
        <time>2022-06-18T12:35:39Z</time>
      </trkpt>
      <trkpt lat="42.3536400" lon="-8.6137330">
        <ele>26.0</ele>
        <time>2022-06-18T12:35:40Z</time>
      </trkpt>
      <trkpt lat="42.3536660" lon="-8.6137600">
        <ele>26.0</ele>
        <time>2022-06-18T12:35:41Z</time>
      </trkpt>
      <trkpt lat="42.3536950" lon="-8.6137860">
        <ele>25.8</ele>
        <time>2022-06-18T12:35:42Z</time>
      </trkpt>
      <trkpt lat="42.3537330" lon="-8.6138060">
        <ele>25.8</ele>
        <time>2022-06-18T12:35:43Z</time>
      </trkpt>
      <trkpt lat="42.3537710" lon="-8.6138360">
        <ele>25.8</ele>
        <time>2022-06-18T12:35:44Z</time>
      </trkpt>
      <trkpt lat="42.3538130" lon="-8.6138630">
        <ele>24.8</ele>
        <time>2022-06-18T12:35:45Z</time>
      </trkpt>
      <trkpt lat="42.3538580" lon="-8.6138910">
        <ele>24.4</ele>
        <time>2022-06-18T12:35:46Z</time>
      </trkpt>
      <trkpt lat="42.3539000" lon="-8.6139200">
        <ele>24.4</ele>
        <time>2022-06-18T12:35:47Z</time>
      </trkpt>
      <trkpt lat="42.3539380" lon="-8.6139580">
        <ele>24.4</ele>
        <time>2022-06-18T12:35:48Z</time>
      </trkpt>
      <trkpt lat="42.3539760" lon="-8.6139900">
        <ele>24.4</ele>
        <time>2022-06-18T12:35:49Z</time>
      </trkpt>
      <trkpt lat="42.3540180" lon="-8.6140260">
        <ele>22.8</ele>
        <time>2022-06-18T12:35:50Z</time>
      </trkpt>
      <trkpt lat="42.3540710" lon="-8.6140630">
        <ele>22.8</ele>
        <time>2022-06-18T12:35:51Z</time>
      </trkpt>
      <trkpt lat="42.3541300" lon="-8.6140930">
        <ele>22.8</ele>
        <time>2022-06-18T12:35:52Z</time>
      </trkpt>
      <trkpt lat="42.3541860" lon="-8.6141200">
        <ele>21.8</ele>
        <time>2022-06-18T12:35:53Z</time>
      </trkpt>
      <trkpt lat="42.3542450" lon="-8.6141450">
        <ele>21.0</ele>
        <time>2022-06-18T12:35:54Z</time>
      </trkpt>
      <trkpt lat="42.3543030" lon="-8.6141700">
        <ele>21.0</ele>
        <time>2022-06-18T12:35:55Z</time>
      </trkpt>
      <trkpt lat="42.3543610" lon="-8.6141910">
        <ele>21.0</ele>
        <time>2022-06-18T12:35:56Z</time>
      </trkpt>
      <trkpt lat="42.3544180" lon="-8.6142130">
        <ele>20.2</ele>
        <time>2022-06-18T12:35:57Z</time>
      </trkpt>
      <trkpt lat="42.3544780" lon="-8.6142350">
        <ele>21.0</ele>
        <time>2022-06-18T12:35:58Z</time>
      </trkpt>
      <trkpt lat="42.3545310" lon="-8.6142580">
        <ele>21.0</ele>
        <time>2022-06-18T12:35:59Z</time>
      </trkpt>
      <trkpt lat="42.3545810" lon="-8.6142780">
        <ele>21.0</ele>
        <time>2022-06-18T12:36:00Z</time>
      </trkpt>
      <trkpt lat="42.3546280" lon="-8.6142980">
        <ele>21.6</ele>
        <time>2022-06-18T12:36:01Z</time>
      </trkpt>
      <trkpt lat="42.3546730" lon="-8.6143160">
        <ele>22.2</ele>
        <time>2022-06-18T12:36:02Z</time>
      </trkpt>
      <trkpt lat="42.3547100" lon="-8.6143410">
        <ele>22.2</ele>
        <time>2022-06-18T12:36:03Z</time>
      </trkpt>
      <trkpt lat="42.3547430" lon="-8.6143730">
        <ele>22.2</ele>
        <time>2022-06-18T12:36:04Z</time>
      </trkpt>
      <trkpt lat="42.3547710" lon="-8.6144080">
        <ele>22.2</ele>
        <time>2022-06-18T12:36:05Z</time>
      </trkpt>
      <trkpt lat="42.3547950" lon="-8.6144430">
        <ele>22.8</ele>
        <time>2022-06-18T12:36:06Z</time>
      </trkpt>
      <trkpt lat="42.3548130" lon="-8.6144850">
        <ele>22.8</ele>
        <time>2022-06-18T12:36:07Z</time>
      </trkpt>
      <trkpt lat="42.3548280" lon="-8.6145130">
        <ele>22.8</ele>
        <time>2022-06-18T12:36:08Z</time>
      </trkpt>
      <trkpt lat="42.3548430" lon="-8.6145300">
        <ele>22.8</ele>
        <time>2022-06-18T12:36:09Z</time>
      </trkpt>
      <trkpt lat="42.3548550" lon="-8.6145410">
        <ele>22.8</ele>
        <time>2022-06-18T12:36:10Z</time>
      </trkpt>
      <trkpt lat="42.3548610" lon="-8.6145660">
        <ele>22.8</ele>
        <time>2022-06-18T12:36:11Z</time>
      </trkpt>
      <trkpt lat="42.3548700" lon="-8.6145780">
        <ele>22.8</ele>
        <time>2022-06-18T12:36:12Z</time>
      </trkpt>
      <trkpt lat="42.3548830" lon="-8.6145900">
        <ele>23.0</ele>
        <time>2022-06-18T12:36:13Z</time>
      </trkpt>
      <trkpt lat="42.3548950" lon="-8.6146030">
        <ele>24.4</ele>
        <time>2022-06-18T12:36:14Z</time>
      </trkpt>
      <trkpt lat="42.3549050" lon="-8.6146160">
        <ele>24.4</ele>
        <time>2022-06-18T12:36:15Z</time>
      </trkpt>
      <trkpt lat="42.3549230" lon="-8.6146280">
        <ele>24.4</ele>
        <time>2022-06-18T12:36:16Z</time>
      </trkpt>
      <trkpt lat="42.3549400" lon="-8.6146460">
        <ele>24.4</ele>
        <time>2022-06-18T12:36:17Z</time>
      </trkpt>
      <trkpt lat="42.3549550" lon="-8.6146510">
        <ele>25.4</ele>
        <time>2022-06-18T12:36:18Z</time>
      </trkpt>
      <trkpt lat="42.3549650" lon="-8.6146630">
        <ele>25.4</ele>
        <time>2022-06-18T12:36:19Z</time>
      </trkpt>
      <trkpt lat="42.3549730" lon="-8.6146680">
        <ele>25.4</ele>
        <time>2022-06-18T12:36:20Z</time>
      </trkpt>
      <trkpt lat="42.3549800" lon="-8.6146750">
        <ele>25.8</ele>
        <time>2022-06-18T12:36:21Z</time>
      </trkpt>
      <trkpt lat="42.3549860" lon="-8.6146850">
        <ele>25.6</ele>
        <time>2022-06-18T12:36:22Z</time>
      </trkpt>
      <trkpt lat="42.3549850" lon="-8.6146960">
        <ele>25.6</ele>
        <time>2022-06-18T12:36:23Z</time>
      </trkpt>
      <trkpt lat="42.3549860" lon="-8.6147050">
        <ele>25.6</ele>
        <time>2022-06-18T12:36:24Z</time>
      </trkpt>
      <trkpt lat="42.3549860" lon="-8.6147050">
        <ele>26.0</ele>
        <time>2022-06-18T12:36:25Z</time>
      </trkpt>
      <trkpt lat="42.3550010" lon="-8.6147050">
        <ele>25.6</ele>
        <time>2022-06-18T12:36:26Z</time>
      </trkpt>
      <trkpt lat="42.3550160" lon="-8.6147080">
        <ele>25.6</ele>
        <time>2022-06-18T12:36:27Z</time>
      </trkpt>
      <trkpt lat="42.3550280" lon="-8.6147130">
        <ele>25.6</ele>
        <time>2022-06-18T12:36:28Z</time>
      </trkpt>
      <trkpt lat="42.3550360" lon="-8.6147180">
        <ele>25.6</ele>
        <time>2022-06-18T12:36:29Z</time>
      </trkpt>
      <trkpt lat="42.3550410" lon="-8.6147160">
        <ele>27.2</ele>
        <time>2022-06-18T12:36:30Z</time>
      </trkpt>
      <trkpt lat="42.3550500" lon="-8.6147180">
        <ele>27.2</ele>
        <time>2022-06-18T12:36:31Z</time>
      </trkpt>
      <trkpt lat="42.3550580" lon="-8.6147160">
        <ele>27.2</ele>
        <time>2022-06-18T12:36:32Z</time>
      </trkpt>
      <trkpt lat="42.3550650" lon="-8.6147230">
        <ele>27.0</ele>
        <time>2022-06-18T12:36:33Z</time>
      </trkpt>
      <trkpt lat="42.3550730" lon="-8.6147260">
        <ele>26.6</ele>
        <time>2022-06-18T12:36:34Z</time>
      </trkpt>
      <trkpt lat="42.3550810" lon="-8.6147260">
        <ele>26.6</ele>
        <time>2022-06-18T12:36:35Z</time>
      </trkpt>
      <trkpt lat="42.3550900" lon="-8.6147260">
        <ele>26.6</ele>
        <time>2022-06-18T12:36:36Z</time>
      </trkpt>
      <trkpt lat="42.3550950" lon="-8.6147330">
        <ele>26.6</ele>
        <time>2022-06-18T12:36:37Z</time>
      </trkpt>
      <trkpt lat="42.3550960" lon="-8.6147350">
        <ele>27.6</ele>
        <time>2022-06-18T12:36:38Z</time>
      </trkpt>
      <trkpt lat="42.3550980" lon="-8.6147360">
        <ele>27.6</ele>
        <time>2022-06-18T12:36:39Z</time>
      </trkpt>
      <trkpt lat="42.3551030" lon="-8.6147410">
        <ele>27.6</ele>
        <time>2022-06-18T12:36:40Z</time>
      </trkpt>
      <trkpt lat="42.3551130" lon="-8.6147410">
        <ele>27.6</ele>
        <time>2022-06-18T12:36:41Z</time>
      </trkpt>
      <trkpt lat="42.3551180" lon="-8.6147430">
        <ele>27.0</ele>
        <time>2022-06-18T12:36:42Z</time>
      </trkpt>
      <trkpt lat="42.3551210" lon="-8.6147480">
        <ele>27.0</ele>
        <time>2022-06-18T12:36:43Z</time>
      </trkpt>
      <trkpt lat="42.3551250" lon="-8.6147500">
        <ele>27.0</ele>
        <time>2022-06-18T12:36:44Z</time>
      </trkpt>
      <trkpt lat="42.3551330" lon="-8.6147460">
        <ele>27.8</ele>
        <time>2022-06-18T12:36:45Z</time>
      </trkpt>
      <trkpt lat="42.3551400" lon="-8.6147480">
        <ele>28.4</ele>
        <time>2022-06-18T12:36:46Z</time>
      </trkpt>
      <trkpt lat="42.3551480" lon="-8.6147480">
        <ele>28.4</ele>
        <time>2022-06-18T12:36:47Z</time>
      </trkpt>
      <trkpt lat="42.3560060" lon="-8.6157900">
        <ele>41.6</ele>
        <time>2022-06-18T12:40:48Z</time>
      </trkpt>
      <trkpt lat="42.3560160" lon="-8.6158000">
        <ele>42.2</ele>
        <time>2022-06-18T12:40:49Z</time>
      </trkpt>
      <trkpt lat="42.3560250" lon="-8.6158080">
        <ele>42.0</ele>
        <time>2022-06-18T12:40:50Z</time>
      </trkpt>
      <trkpt lat="42.3560350" lon="-8.6158180">
        <ele>42.0</ele>
        <time>2022-06-18T12:40:51Z</time>
      </trkpt>
      <trkpt lat="42.3560400" lon="-8.6158280">
        <ele>42.0</ele>
        <time>2022-06-18T12:40:52Z</time>
      </trkpt>
      <trkpt lat="42.3560510" lon="-8.6158430">
        <ele>42.2</ele>
        <time>2022-06-18T12:40:53Z</time>
      </trkpt>
      <trkpt lat="42.3560630" lon="-8.6158560">
        <ele>42.2</ele>
        <time>2022-06-18T12:40:54Z</time>
      </trkpt>
      <trkpt lat="42.3560730" lon="-8.6158710">
        <ele>42.2</ele>
        <time>2022-06-18T12:40:55Z</time>
      </trkpt>
      <trkpt lat="42.3560800" lon="-8.6158780">
        <ele>42.2</ele>
        <time>2022-06-18T12:40:56Z</time>
      </trkpt>
      <trkpt lat="42.3560880" lon="-8.6158850">
        <ele>42.2</ele>
        <time>2022-06-18T12:40:57Z</time>
      </trkpt>
      <trkpt lat="42.3561000" lon="-8.6159050">
        <ele>42.6</ele>
        <time>2022-06-18T12:40:58Z</time>
      </trkpt>
      <trkpt lat="42.3561130" lon="-8.6159300">
        <ele>42.6</ele>
        <time>2022-06-18T12:40:59Z</time>
      </trkpt>
      <trkpt lat="42.3561200" lon="-8.6159430">
        <ele>42.6</ele>
        <time>2022-06-18T12:41:00Z</time>
      </trkpt>
      <trkpt lat="42.3561280" lon="-8.6159580">
        <ele>42.6</ele>
        <time>2022-06-18T12:41:01Z</time>
      </trkpt>
      <trkpt lat="42.3561400" lon="-8.6159660">
        <ele>42.6</ele>
        <time>2022-06-18T12:41:02Z</time>
      </trkpt>
      <trkpt lat="42.3561480" lon="-8.6159730">
        <ele>42.6</ele>
        <time>2022-06-18T12:41:03Z</time>
      </trkpt>
      <trkpt lat="42.3561550" lon="-8.6159760">
        <ele>42.6</ele>
        <time>2022-06-18T12:41:04Z</time>
      </trkpt>
      <trkpt lat="42.3561630" lon="-8.6159800">
        <ele>42.6</ele>
        <time>2022-06-18T12:41:05Z</time>
      </trkpt>
      <trkpt lat="42.3561750" lon="-8.6159830">
        <ele>42.8</ele>
        <time>2022-06-18T12:41:06Z</time>
      </trkpt>
      <trkpt lat="42.3561810" lon="-8.6159800">
        <ele>42.8</ele>
        <time>2022-06-18T12:41:07Z</time>
      </trkpt>
      <trkpt lat="42.3561930" lon="-8.6159780">
        <ele>42.8</ele>
        <time>2022-06-18T12:41:08Z</time>
      </trkpt>
      <trkpt lat="42.3562050" lon="-8.6159810">
        <ele>42.8</ele>
        <time>2022-06-18T12:41:09Z</time>
      </trkpt>
      <trkpt lat="42.3562180" lon="-8.6159910">
        <ele>43.4</ele>
        <time>2022-06-18T12:41:10Z</time>
      </trkpt>
      <trkpt lat="42.3562310" lon="-8.6159980">
        <ele>43.4</ele>
        <time>2022-06-18T12:41:11Z</time>
      </trkpt>
      <trkpt lat="42.3562430" lon="-8.6160080">
        <ele>43.4</ele>
        <time>2022-06-18T12:41:12Z</time>
      </trkpt>
      <trkpt lat="42.3562550" lon="-8.6160130">
        <ele>44.4</ele>
        <time>2022-06-18T12:41:13Z</time>
      </trkpt>
      <trkpt lat="42.3562680" lon="-8.6160210">
        <ele>44.8</ele>
        <time>2022-06-18T12:41:14Z</time>
      </trkpt>
      <trkpt lat="42.3562780" lon="-8.6160300">
        <ele>44.8</ele>
        <time>2022-06-18T12:41:15Z</time>
      </trkpt>
      <trkpt lat="42.3562860" lon="-8.6160380">
        <ele>44.8</ele>
        <time>2022-06-18T12:41:16Z</time>
      </trkpt>
      <trkpt lat="42.3562910" lon="-8.6160480">
        <ele>44.8</ele>
        <time>2022-06-18T12:41:17Z</time>
      </trkpt>
      <trkpt lat="42.3562960" lon="-8.6160480">
        <ele>45.0</ele>
        <time>2022-06-18T12:41:18Z</time>
      </trkpt>
      <trkpt lat="42.3563060" lon="-8.6160460">
        <ele>45.0</ele>
        <time>2022-06-18T12:41:19Z</time>
      </trkpt>
      <trkpt lat="42.3563150" lon="-8.6160450">
        <ele>45.0</ele>
        <time>2022-06-18T12:41:20Z</time>
      </trkpt>
      <trkpt lat="42.3563210" lon="-8.6160480">
        <ele>45.8</ele>
        <time>2022-06-18T12:41:21Z</time>
      </trkpt>
      <trkpt lat="42.3563330" lon="-8.6160500">
        <ele>46.0</ele>
        <time>2022-06-18T12:41:22Z</time>
      </trkpt>
      <trkpt lat="42.3563480" lon="-8.6160550">
        <ele>46.0</ele>
        <time>2022-06-18T12:41:23Z</time>
      </trkpt>
      <trkpt lat="42.3563600" lon="-8.6160610">
        <ele>46.0</ele>
        <time>2022-06-18T12:41:24Z</time>
      </trkpt>
      <trkpt lat="42.3563700" lon="-8.6160660">
        <ele>46.6</ele>
        <time>2022-06-18T12:41:25Z</time>
      </trkpt>
      <trkpt lat="42.3563800" lon="-8.6160710">
        <ele>46.4</ele>
        <time>2022-06-18T12:41:26Z</time>
      </trkpt>
      <trkpt lat="42.3563860" lon="-8.6160750">
        <ele>46.4</ele>
        <time>2022-06-18T12:41:27Z</time>
      </trkpt>
      <trkpt lat="42.3564000" lon="-8.6160760">
        <ele>46.4</ele>
        <time>2022-06-18T12:41:28Z</time>
      </trkpt>
      <trkpt lat="42.3564110" lon="-8.6160760">
        <ele>47.4</ele>
        <time>2022-06-18T12:41:29Z</time>
      </trkpt>
      <trkpt lat="42.3564200" lon="-8.6160850">
        <ele>47.6</ele>
        <time>2022-06-18T12:41:30Z</time>
      </trkpt>
      <trkpt lat="42.3564400" lon="-8.6160910">
        <ele>47.6</ele>
        <time>2022-06-18T12:41:31Z</time>
      </trkpt>
      <trkpt lat="42.3564560" lon="-8.6161000">
        <ele>47.6</ele>
        <time>2022-06-18T12:41:32Z</time>
      </trkpt>
      <trkpt lat="42.3564750" lon="-8.6161080">
        <ele>47.6</ele>
        <time>2022-06-18T12:41:33Z</time>
      </trkpt>
      <trkpt lat="42.3564880" lon="-8.6161180">
        <ele>48.4</ele>
        <time>2022-06-18T12:41:34Z</time>
      </trkpt>
      <trkpt lat="42.3565050" lon="-8.6161230">
        <ele>48.4</ele>
        <time>2022-06-18T12:41:35Z</time>
      </trkpt>
      <trkpt lat="42.3565210" lon="-8.6161310">
        <ele>48.4</ele>
        <time>2022-06-18T12:41:36Z</time>
      </trkpt>
      <trkpt lat="42.3565350" lon="-8.6161410">
        <ele>48.8</ele>
        <time>2022-06-18T12:41:37Z</time>
      </trkpt>
      <trkpt lat="42.3565460" lon="-8.6161510">
        <ele>49.4</ele>
        <time>2022-06-18T12:41:38Z</time>
      </trkpt>
      <trkpt lat="42.3565580" lon="-8.6161600">
        <ele>49.4</ele>
        <time>2022-06-18T12:41:39Z</time>
      </trkpt>
      <trkpt lat="42.3565710" lon="-8.6161680">
        <ele>49.4</ele>
        <time>2022-06-18T12:41:40Z</time>
      </trkpt>
      <trkpt lat="42.3565850" lon="-8.6161750">
        <ele>49.4</ele>
        <time>2022-06-18T12:41:41Z</time>
      </trkpt>
      <trkpt lat="42.3565980" lon="-8.6161830">
        <ele>50.0</ele>
        <time>2022-06-18T12:41:42Z</time>
      </trkpt>
      <trkpt lat="42.3566080" lon="-8.6161900">
        <ele>50.0</ele>
        <time>2022-06-18T12:41:43Z</time>
      </trkpt>
      <trkpt lat="42.3566180" lon="-8.6161950">
        <ele>50.0</ele>
        <time>2022-06-18T12:41:44Z</time>
      </trkpt>
      <trkpt lat="42.3566310" lon="-8.6162030">
        <ele>50.0</ele>
        <time>2022-06-18T12:41:45Z</time>
      </trkpt>
      <trkpt lat="42.3566450" lon="-8.6162100">
        <ele>50.0</ele>
        <time>2022-06-18T12:41:46Z</time>
      </trkpt>
      <trkpt lat="42.3566530" lon="-8.6162210">
        <ele>50.0</ele>
        <time>2022-06-18T12:41:47Z</time>
      </trkpt>
      <trkpt lat="42.3566700" lon="-8.6162310">
        <ele>50.0</ele>
        <time>2022-06-18T12:41:48Z</time>
      </trkpt>
      <trkpt lat="42.3566810" lon="-8.6162350">
        <ele>50.8</ele>
        <time>2022-06-18T12:41:49Z</time>
      </trkpt>
      <trkpt lat="42.3566850" lon="-8.6162380">
        <ele>50.4</ele>
        <time>2022-06-18T12:41:50Z</time>
      </trkpt>
      <trkpt lat="42.3566850" lon="-8.6162380">
        <ele>50.4</ele>
        <time>2022-06-18T12:41:51Z</time>
      </trkpt>
      <trkpt lat="42.3567000" lon="-8.6162310">
        <ele>50.4</ele>
        <time>2022-06-18T12:41:52Z</time>
      </trkpt>
      <trkpt lat="42.3567000" lon="-8.6162330">
        <ele>50.8</ele>
        <time>2022-06-18T12:41:53Z</time>
      </trkpt>
      <trkpt lat="42.3567830" lon="-8.6162630">
        <ele>50.8</ele>
        <time>2022-06-18T12:42:07Z</time>
      </trkpt>
      <trkpt lat="42.3567980" lon="-8.6162660">
        <ele>50.8</ele>
        <time>2022-06-18T12:42:08Z</time>
      </trkpt>
      <trkpt lat="42.3568150" lon="-8.6162710">
        <ele>51.2</ele>
        <time>2022-06-18T12:42:09Z</time>
      </trkpt>
      <trkpt lat="42.3568350" lon="-8.6162730">
        <ele>51.4</ele>
        <time>2022-06-18T12:42:10Z</time>
      </trkpt>
      <trkpt lat="42.3568480" lon="-8.6162730">
        <ele>51.4</ele>
        <time>2022-06-18T12:42:11Z</time>
      </trkpt>
      <trkpt lat="42.3568530" lon="-8.6162680">
        <ele>51.4</ele>
        <time>2022-06-18T12:42:12Z</time>
      </trkpt>
      <trkpt lat="42.3568610" lon="-8.6162660">
        <ele>51.8</ele>
        <time>2022-06-18T12:42:13Z</time>
      </trkpt>
      <trkpt lat="42.3568730" lon="-8.6162630">
        <ele>52.4</ele>
        <time>2022-06-18T12:42:14Z</time>
      </trkpt>
      <trkpt lat="42.3568850" lon="-8.6162610">
        <ele>52.4</ele>
        <time>2022-06-18T12:42:15Z</time>
      </trkpt>
      <trkpt lat="42.3568930" lon="-8.6162610">
        <ele>52.4</ele>
        <time>2022-06-18T12:42:16Z</time>
      </trkpt>
      <trkpt lat="42.3568960" lon="-8.6162550">
        <ele>52.4</ele>
        <time>2022-06-18T12:42:17Z</time>
      </trkpt>
      <trkpt lat="42.3569030" lon="-8.6162460">
        <ele>52.6</ele>
        <time>2022-06-18T12:42:18Z</time>
      </trkpt>
      <trkpt lat="42.3569160" lon="-8.6162400">
        <ele>52.6</ele>
        <time>2022-06-18T12:42:19Z</time>
      </trkpt>
      <trkpt lat="42.3569310" lon="-8.6162380">
        <ele>52.6</ele>
        <time>2022-06-18T12:42:20Z</time>
      </trkpt>
      <trkpt lat="42.3569430" lon="-8.6162360">
        <ele>53.0</ele>
        <time>2022-06-18T12:42:21Z</time>
      </trkpt>
      <trkpt lat="42.3569510" lon="-8.6162360">
        <ele>53.0</ele>
        <time>2022-06-18T12:42:22Z</time>
      </trkpt>
      <trkpt lat="42.3569580" lon="-8.6162330">
        <ele>53.0</ele>
        <time>2022-06-18T12:42:23Z</time>
      </trkpt>
      <trkpt lat="42.3569610" lon="-8.6162300">
        <ele>53.0</ele>
        <time>2022-06-18T12:42:24Z</time>
      </trkpt>
      <trkpt lat="42.3569680" lon="-8.6162260">
        <ele>53.8</ele>
        <time>2022-06-18T12:42:25Z</time>
      </trkpt>
      <trkpt lat="42.3569750" lon="-8.6162250">
        <ele>54.0</ele>
        <time>2022-06-18T12:42:26Z</time>
      </trkpt>
      <trkpt lat="42.3569830" lon="-8.6162200">
        <ele>54.0</ele>
        <time>2022-06-18T12:42:27Z</time>
      </trkpt>
      <trkpt lat="42.3569910" lon="-8.6162180">
        <ele>54.0</ele>
        <time>2022-06-18T12:42:28Z</time>
      </trkpt>
      <trkpt lat="42.3570050" lon="-8.6162210">
        <ele>54.0</ele>
        <time>2022-06-18T12:42:29Z</time>
      </trkpt>
      <trkpt lat="42.3570200" lon="-8.6162280">
        <ele>54.2</ele>
        <time>2022-06-18T12:42:30Z</time>
      </trkpt>
      <trkpt lat="42.3570330" lon="-8.6162300">
        <ele>54.2</ele>
        <time>2022-06-18T12:42:31Z</time>
      </trkpt>
      <trkpt lat="42.3570410" lon="-8.6162230">
        <ele>54.2</ele>
        <time>2022-06-18T12:42:32Z</time>
      </trkpt>
      <trkpt lat="42.3570530" lon="-8.6162230">
        <ele>54.2</ele>
        <time>2022-06-18T12:42:33Z</time>
      </trkpt>
      <trkpt lat="42.3570660" lon="-8.6162230">
        <ele>55.6</ele>
        <time>2022-06-18T12:42:34Z</time>
      </trkpt>
      <trkpt lat="42.3570830" lon="-8.6162230">
        <ele>55.6</ele>
        <time>2022-06-18T12:42:35Z</time>
      </trkpt>
      <trkpt lat="42.3570910" lon="-8.6162200">
        <ele>55.6</ele>
        <time>2022-06-18T12:42:36Z</time>
      </trkpt>
      <trkpt lat="42.3571010" lon="-8.6162150">
        <ele>56.0</ele>
        <time>2022-06-18T12:42:37Z</time>
      </trkpt>
      <trkpt lat="42.3571180" lon="-8.6162080">
        <ele>55.6</ele>
        <time>2022-06-18T12:42:38Z</time>
      </trkpt>
      <trkpt lat="42.3571300" lon="-8.6161960">
        <ele>55.6</ele>
        <time>2022-06-18T12:42:39Z</time>
      </trkpt>
      <trkpt lat="42.3571430" lon="-8.6161930">
        <ele>55.6</ele>
        <time>2022-06-18T12:42:40Z</time>
      </trkpt>
      <trkpt lat="42.3571560" lon="-8.6161910">
        <ele>56.0</ele>
        <time>2022-06-18T12:42:41Z</time>
      </trkpt>
      <trkpt lat="42.3571700" lon="-8.6161900">
        <ele>55.8</ele>
        <time>2022-06-18T12:42:42Z</time>
      </trkpt>
      <trkpt lat="42.3571830" lon="-8.6161880">
        <ele>55.8</ele>
        <time>2022-06-18T12:42:43Z</time>
      </trkpt>
      <trkpt lat="42.3572000" lon="-8.6162000">
        <ele>55.8</ele>
        <time>2022-06-18T12:42:44Z</time>
      </trkpt>
      <trkpt lat="42.3572160" lon="-8.6162150">
        <ele>56.2</ele>
        <time>2022-06-18T12:42:45Z</time>
      </trkpt>
      <trkpt lat="42.3572360" lon="-8.6162300">
        <ele>56.4</ele>
        <time>2022-06-18T12:42:46Z</time>
      </trkpt>
      <trkpt lat="42.3572560" lon="-8.6162480">
        <ele>56.4</ele>
        <time>2022-06-18T12:42:47Z</time>
      </trkpt>
      <trkpt lat="42.3572760" lon="-8.6162610">
        <ele>56.4</ele>
        <time>2022-06-18T12:42:48Z</time>
      </trkpt>
      <trkpt lat="42.3572950" lon="-8.6162750">
        <ele>56.2</ele>
        <time>2022-06-18T12:42:49Z</time>
      </trkpt>
      <trkpt lat="42.3573180" lon="-8.6162810">
        <ele>56.8</ele>
        <time>2022-06-18T12:42:50Z</time>
      </trkpt>
      <trkpt lat="42.3573380" lon="-8.6162860">
        <ele>56.8</ele>
        <time>2022-06-18T12:42:51Z</time>
      </trkpt>
      <trkpt lat="42.3573600" lon="-8.6162980">
        <ele>56.8</ele>
        <time>2022-06-18T12:42:52Z</time>
      </trkpt>
      <trkpt lat="42.3573760" lon="-8.6163030">
        <ele>55.8</ele>
        <time>2022-06-18T12:42:53Z</time>
      </trkpt>
      <trkpt lat="42.3574000" lon="-8.6163110">
        <ele>56.2</ele>
        <time>2022-06-18T12:42:54Z</time>
      </trkpt>
      <trkpt lat="42.3574250" lon="-8.6163180">
        <ele>56.2</ele>
        <time>2022-06-18T12:42:55Z</time>
      </trkpt>
      <trkpt lat="42.3574410" lon="-8.6163160">
        <ele>56.2</ele>
        <time>2022-06-18T12:42:56Z</time>
      </trkpt>
      <trkpt lat="42.3574610" lon="-8.6163100">
        <ele>56.2</ele>
        <time>2022-06-18T12:42:57Z</time>
      </trkpt>
      <trkpt lat="42.3574980" lon="-8.6163030">
        <ele>55.8</ele>
        <time>2022-06-18T12:42:58Z</time>
      </trkpt>
      <trkpt lat="42.3575350" lon="-8.6162850">
        <ele>55.8</ele>
        <time>2022-06-18T12:42:59Z</time>
      </trkpt>
      <trkpt lat="42.3575750" lon="-8.6162650">
        <ele>55.8</ele>
        <time>2022-06-18T12:43:00Z</time>
      </trkpt>
      <trkpt lat="42.3576130" lon="-8.6162430">
        <ele>55.2</ele>
        <time>2022-06-18T12:43:01Z</time>
      </trkpt>
      <trkpt lat="42.3576480" lon="-8.6162160">
        <ele>55.2</ele>
        <time>2022-06-18T12:43:02Z</time>
      </trkpt>
      <trkpt lat="42.3576850" lon="-8.6161880">
        <ele>55.2</ele>
        <time>2022-06-18T12:43:03Z</time>
      </trkpt>
      <trkpt lat="42.3577160" lon="-8.6161650">
        <ele>55.2</ele>
        <time>2022-06-18T12:43:04Z</time>
      </trkpt>
      <trkpt lat="42.3577450" lon="-8.6161410">
        <ele>55.2</ele>
        <time>2022-06-18T12:43:05Z</time>
      </trkpt>
      <trkpt lat="42.3577730" lon="-8.6161180">
        <ele>55.2</ele>
        <time>2022-06-18T12:43:06Z</time>
      </trkpt>
      <trkpt lat="42.3577960" lon="-8.6160850">
        <ele>55.2</ele>
        <time>2022-06-18T12:43:07Z</time>
      </trkpt>
      <trkpt lat="42.3578180" lon="-8.6160710">
        <ele>55.2</ele>
        <time>2022-06-18T12:43:08Z</time>
      </trkpt>
      <trkpt lat="42.3578410" lon="-8.6160580">
        <ele>55.2</ele>
        <time>2022-06-18T12:43:09Z</time>
      </trkpt>
      <trkpt lat="42.3578660" lon="-8.6160410">
        <ele>55.4</ele>
        <time>2022-06-18T12:43:10Z</time>
      </trkpt>
      <trkpt lat="42.3578880" lon="-8.6160250">
        <ele>55.4</ele>
        <time>2022-06-18T12:43:11Z</time>
      </trkpt>
      <trkpt lat="42.3579110" lon="-8.6160160">
        <ele>55.4</ele>
        <time>2022-06-18T12:43:12Z</time>
      </trkpt>
      <trkpt lat="42.3579380" lon="-8.6159980">
        <ele>55.8</ele>
        <time>2022-06-18T12:43:13Z</time>
      </trkpt>
      <trkpt lat="42.3579650" lon="-8.6159760">
        <ele>55.8</ele>
        <time>2022-06-18T12:43:14Z</time>
      </trkpt>
      <trkpt lat="42.3579880" lon="-8.6159560">
        <ele>55.8</ele>
        <time>2022-06-18T12:43:15Z</time>
      </trkpt>
      <trkpt lat="42.3580060" lon="-8.6159180">
        <ele>55.8</ele>
        <time>2022-06-18T12:43:16Z</time>
      </trkpt>
      <trkpt lat="42.3580250" lon="-8.6158860">
        <ele>56.6</ele>
        <time>2022-06-18T12:43:17Z</time>
      </trkpt>
      <trkpt lat="42.3580430" lon="-8.6158600">
        <ele>57.8</ele>
        <time>2022-06-18T12:43:18Z</time>
      </trkpt>
      <trkpt lat="42.3580600" lon="-8.6158300">
        <ele>57.8</ele>
        <time>2022-06-18T12:43:19Z</time>
      </trkpt>
      <trkpt lat="42.3580800" lon="-8.6158150">
        <ele>57.8</ele>
        <time>2022-06-18T12:43:20Z</time>
      </trkpt>
      <trkpt lat="42.3581000" lon="-8.6157980">
        <ele>57.8</ele>
        <time>2022-06-18T12:43:21Z</time>
      </trkpt>
      <trkpt lat="42.3581180" lon="-8.6157830">
        <ele>58.0</ele>
        <time>2022-06-18T12:43:22Z</time>
      </trkpt>
      <trkpt lat="42.3581280" lon="-8.6157630">
        <ele>58.0</ele>
        <time>2022-06-18T12:43:23Z</time>
      </trkpt>
      <trkpt lat="42.3581460" lon="-8.6157460">
        <ele>58.0</ele>
        <time>2022-06-18T12:43:24Z</time>
      </trkpt>
      <trkpt lat="42.3581660" lon="-8.6157230">
        <ele>57.8</ele>
        <time>2022-06-18T12:43:25Z</time>
      </trkpt>
      <trkpt lat="42.3581930" lon="-8.6156960">
        <ele>57.4</ele>
        <time>2022-06-18T12:43:26Z</time>
      </trkpt>
      <trkpt lat="42.3582150" lon="-8.6156780">
        <ele>57.4</ele>
        <time>2022-06-18T12:43:27Z</time>
      </trkpt>
      <trkpt lat="42.3582310" lon="-8.6156550">
        <ele>57.4</ele>
        <time>2022-06-18T12:43:28Z</time>
      </trkpt>
      <trkpt lat="42.3582510" lon="-8.6156350">
        <ele>57.4</ele>
        <time>2022-06-18T12:43:29Z</time>
      </trkpt>
      <trkpt lat="42.3582780" lon="-8.6156180">
        <ele>58.0</ele>
        <time>2022-06-18T12:43:30Z</time>
      </trkpt>
      <trkpt lat="42.3583050" lon="-8.6156050">
        <ele>58.0</ele>
        <time>2022-06-18T12:43:31Z</time>
      </trkpt>
      <trkpt lat="42.3583260" lon="-8.6155950">
        <ele>58.0</ele>
        <time>2022-06-18T12:43:32Z</time>
      </trkpt>
      <trkpt lat="42.3583500" lon="-8.6155900">
        <ele>57.8</ele>
        <time>2022-06-18T12:43:33Z</time>
      </trkpt>
      <trkpt lat="42.3583680" lon="-8.6155880">
        <ele>57.6</ele>
        <time>2022-06-18T12:43:34Z</time>
      </trkpt>
      <trkpt lat="42.3583850" lon="-8.6155810">
        <ele>57.6</ele>
        <time>2022-06-18T12:43:35Z</time>
      </trkpt>
      <trkpt lat="42.3584010" lon="-8.6155760">
        <ele>57.6</ele>
        <time>2022-06-18T12:43:36Z</time>
      </trkpt>
      <trkpt lat="42.3584130" lon="-8.6155660">
        <ele>58.0</ele>
        <time>2022-06-18T12:43:37Z</time>
      </trkpt>
      <trkpt lat="42.3584280" lon="-8.6155610">
        <ele>57.6</ele>
        <time>2022-06-18T12:43:38Z</time>
      </trkpt>
      <trkpt lat="42.3584410" lon="-8.6155560">
        <ele>57.6</ele>
        <time>2022-06-18T12:43:39Z</time>
      </trkpt>
      <trkpt lat="42.3584530" lon="-8.6155510">
        <ele>57.6</ele>
        <time>2022-06-18T12:43:40Z</time>
      </trkpt>
      <trkpt lat="42.3584650" lon="-8.6155450">
        <ele>58.6</ele>
        <time>2022-06-18T12:43:41Z</time>
      </trkpt>
      <trkpt lat="42.3584810" lon="-8.6155400">
        <ele>59.2</ele>
        <time>2022-06-18T12:43:42Z</time>
      </trkpt>
      <trkpt lat="42.3584930" lon="-8.6155300">
        <ele>59.2</ele>
        <time>2022-06-18T12:43:43Z</time>
      </trkpt>
      <trkpt lat="42.3585060" lon="-8.6155160">
        <ele>59.2</ele>
        <time>2022-06-18T12:43:44Z</time>
      </trkpt>
      <trkpt lat="42.3585230" lon="-8.6155060">
        <ele>59.2</ele>
        <time>2022-06-18T12:43:45Z</time>
      </trkpt>
      <trkpt lat="42.3585380" lon="-8.6154980">
        <ele>59.4</ele>
        <time>2022-06-18T12:43:46Z</time>
      </trkpt>
      <trkpt lat="42.3585500" lon="-8.6154930">
        <ele>59.4</ele>
        <time>2022-06-18T12:43:47Z</time>
      </trkpt>
      <trkpt lat="42.3585580" lon="-8.6154880">
        <ele>59.4</ele>
        <time>2022-06-18T12:43:48Z</time>
      </trkpt>
      <trkpt lat="42.3585700" lon="-8.6154880">
        <ele>59.8</ele>
        <time>2022-06-18T12:43:49Z</time>
      </trkpt>
      <trkpt lat="42.3585800" lon="-8.6154910">
        <ele>59.6</ele>
        <time>2022-06-18T12:43:50Z</time>
      </trkpt>
      <trkpt lat="42.3585880" lon="-8.6154830">
        <ele>59.6</ele>
        <time>2022-06-18T12:43:51Z</time>
      </trkpt>
      <trkpt lat="42.3586000" lon="-8.6154760">
        <ele>59.6</ele>
        <time>2022-06-18T12:43:52Z</time>
      </trkpt>
      <trkpt lat="42.3586100" lon="-8.6154680">
        <ele>60.0</ele>
        <time>2022-06-18T12:43:53Z</time>
      </trkpt>
      <trkpt lat="42.3586210" lon="-8.6154680">
        <ele>60.4</ele>
        <time>2022-06-18T12:43:54Z</time>
      </trkpt>
      <trkpt lat="42.3586310" lon="-8.6154680">
        <ele>60.4</ele>
        <time>2022-06-18T12:43:55Z</time>
      </trkpt>
      <trkpt lat="42.3586410" lon="-8.6154650">
        <ele>60.4</ele>
        <time>2022-06-18T12:43:56Z</time>
      </trkpt>
      <trkpt lat="42.3586550" lon="-8.6154600">
        <ele>60.4</ele>
        <time>2022-06-18T12:43:57Z</time>
      </trkpt>
      <trkpt lat="42.3586680" lon="-8.6154560">
        <ele>61.2</ele>
        <time>2022-06-18T12:43:58Z</time>
      </trkpt>
      <trkpt lat="42.3586860" lon="-8.6154560">
        <ele>61.2</ele>
        <time>2022-06-18T12:43:59Z</time>
      </trkpt>
      <trkpt lat="42.3587000" lon="-8.6154510">
        <ele>61.2</ele>
        <time>2022-06-18T12:44:00Z</time>
      </trkpt>
      <trkpt lat="42.3587060" lon="-8.6154450">
        <ele>61.2</ele>
        <time>2022-06-18T12:44:01Z</time>
      </trkpt>
      <trkpt lat="42.3587150" lon="-8.6154400">
        <ele>61.4</ele>
        <time>2022-06-18T12:44:02Z</time>
      </trkpt>
      <trkpt lat="42.3587250" lon="-8.6154380">
        <ele>61.4</ele>
        <time>2022-06-18T12:44:03Z</time>
      </trkpt>
      <trkpt lat="42.3587330" lon="-8.6154330">
        <ele>61.4</ele>
        <time>2022-06-18T12:44:04Z</time>
      </trkpt>
      <trkpt lat="42.3587460" lon="-8.6154330">
        <ele>61.4</ele>
        <time>2022-06-18T12:44:05Z</time>
      </trkpt>
      <trkpt lat="42.3587510" lon="-8.6154360">
        <ele>61.8</ele>
        <time>2022-06-18T12:44:06Z</time>
      </trkpt>
      <trkpt lat="42.3587630" lon="-8.6154330">
        <ele>61.8</ele>
        <time>2022-06-18T12:44:07Z</time>
      </trkpt>
      <trkpt lat="42.3587760" lon="-8.6154280">
        <ele>61.8</ele>
        <time>2022-06-18T12:44:08Z</time>
      </trkpt>
      <trkpt lat="42.3587900" lon="-8.6154230">
        <ele>61.8</ele>
        <time>2022-06-18T12:44:09Z</time>
      </trkpt>
      <trkpt lat="42.3587980" lon="-8.6154160">
        <ele>62.4</ele>
        <time>2022-06-18T12:44:10Z</time>
      </trkpt>
      <trkpt lat="42.3588050" lon="-8.6154060">
        <ele>62.4</ele>
        <time>2022-06-18T12:44:11Z</time>
      </trkpt>
      <trkpt lat="42.3588150" lon="-8.6154010">
        <ele>62.4</ele>
        <time>2022-06-18T12:44:12Z</time>
      </trkpt>
      <trkpt lat="42.3588230" lon="-8.6153980">
        <ele>62.4</ele>
        <time>2022-06-18T12:44:13Z</time>
      </trkpt>
      <trkpt lat="42.3588330" lon="-8.6153980">
        <ele>62.2</ele>
        <time>2022-06-18T12:44:14Z</time>
      </trkpt>
      <trkpt lat="42.3588460" lon="-8.6154000">
        <ele>62.2</ele>
        <time>2022-06-18T12:44:15Z</time>
      </trkpt>
      <trkpt lat="42.3588580" lon="-8.6154050">
        <ele>62.2</ele>
        <time>2022-06-18T12:44:16Z</time>
      </trkpt>
      <trkpt lat="42.3588700" lon="-8.6154050">
        <ele>63.0</ele>
        <time>2022-06-18T12:44:17Z</time>
      </trkpt>
      <trkpt lat="42.3588810" lon="-8.6154060">
        <ele>63.0</ele>
        <time>2022-06-18T12:44:18Z</time>
      </trkpt>
      <trkpt lat="42.3588900" lon="-8.6154130">
        <ele>63.0</ele>
        <time>2022-06-18T12:44:19Z</time>
      </trkpt>
      <trkpt lat="42.3588980" lon="-8.6154150">
        <ele>63.0</ele>
        <time>2022-06-18T12:44:20Z</time>
      </trkpt>
      <trkpt lat="42.3589110" lon="-8.6154180">
        <ele>63.2</ele>
        <time>2022-06-18T12:44:21Z</time>
      </trkpt>
      <trkpt lat="42.3589250" lon="-8.6154230">
        <ele>63.2</ele>
        <time>2022-06-18T12:44:22Z</time>
      </trkpt>
      <trkpt lat="42.3589350" lon="-8.6154300">
        <ele>63.2</ele>
        <time>2022-06-18T12:44:23Z</time>
      </trkpt>
      <trkpt lat="42.3589460" lon="-8.6154400">
        <ele>63.2</ele>
        <time>2022-06-18T12:44:24Z</time>
      </trkpt>
      <trkpt lat="42.3589630" lon="-8.6154530">
        <ele>63.2</ele>
        <time>2022-06-18T12:44:25Z</time>
      </trkpt>
      <trkpt lat="42.3589780" lon="-8.6154630">
        <ele>63.2</ele>
        <time>2022-06-18T12:44:26Z</time>
      </trkpt>
      <trkpt lat="42.3589960" lon="-8.6154730">
        <ele>63.2</ele>
        <time>2022-06-18T12:44:27Z</time>
      </trkpt>
      <trkpt lat="42.3590110" lon="-8.6154850">
        <ele>63.2</ele>
        <time>2022-06-18T12:44:28Z</time>
      </trkpt>
      <trkpt lat="42.3590300" lon="-8.6154960">
        <ele>63.4</ele>
        <time>2022-06-18T12:44:29Z</time>
      </trkpt>
      <trkpt lat="42.3590500" lon="-8.6155050">
        <ele>63.0</ele>
        <time>2022-06-18T12:44:30Z</time>
      </trkpt>
      <trkpt lat="42.3590660" lon="-8.6155150">
        <ele>63.0</ele>
        <time>2022-06-18T12:44:31Z</time>
      </trkpt>
      <trkpt lat="42.3590780" lon="-8.6155250">
        <ele>63.0</ele>
        <time>2022-06-18T12:44:32Z</time>
      </trkpt>
      <trkpt lat="42.3590900" lon="-8.6155330">
        <ele>64.0</ele>
        <time>2022-06-18T12:44:33Z</time>
      </trkpt>
      <trkpt lat="42.3591010" lon="-8.6155450">
        <ele>64.2</ele>
        <time>2022-06-18T12:44:34Z</time>
      </trkpt>
      <trkpt lat="42.3591100" lon="-8.6155560">
        <ele>64.2</ele>
        <time>2022-06-18T12:44:35Z</time>
      </trkpt>
      <trkpt lat="42.3591200" lon="-8.6155660">
        <ele>64.2</ele>
        <time>2022-06-18T12:44:36Z</time>
      </trkpt>
      <trkpt lat="42.3591280" lon="-8.6155710">
        <ele>64.2</ele>
        <time>2022-06-18T12:44:37Z</time>
      </trkpt>
      <trkpt lat="42.3591410" lon="-8.6155830">
        <ele>64.6</ele>
        <time>2022-06-18T12:44:38Z</time>
      </trkpt>
      <trkpt lat="42.3591510" lon="-8.6155880">
        <ele>64.6</ele>
        <time>2022-06-18T12:44:39Z</time>
      </trkpt>
      <trkpt lat="42.3591650" lon="-8.6155960">
        <ele>64.6</ele>
        <time>2022-06-18T12:44:40Z</time>
      </trkpt>
      <trkpt lat="42.3591810" lon="-8.6156050">
        <ele>64.6</ele>
        <time>2022-06-18T12:44:41Z</time>
      </trkpt>
      <trkpt lat="42.3592030" lon="-8.6156180">
        <ele>64.8</ele>
        <time>2022-06-18T12:44:42Z</time>
      </trkpt>
      <trkpt lat="42.3592210" lon="-8.6156300">
        <ele>64.8</ele>
        <time>2022-06-18T12:44:43Z</time>
      </trkpt>
      <trkpt lat="42.3592380" lon="-8.6156430">
        <ele>64.8</ele>
        <time>2022-06-18T12:44:44Z</time>
      </trkpt>
      <trkpt lat="42.3592600" lon="-8.6156560">
        <ele>65.4</ele>
        <time>2022-06-18T12:44:45Z</time>
      </trkpt>
      <trkpt lat="42.3592850" lon="-8.6156680">
        <ele>65.4</ele>
        <time>2022-06-18T12:44:46Z</time>
      </trkpt>
      <trkpt lat="42.3593030" lon="-8.6156750">
        <ele>65.4</ele>
        <time>2022-06-18T12:44:47Z</time>
      </trkpt>
      <trkpt lat="42.3593210" lon="-8.6156830">
        <ele>65.4</ele>
        <time>2022-06-18T12:44:48Z</time>
      </trkpt>
      <trkpt lat="42.3593460" lon="-8.6156930">
        <ele>65.2</ele>
        <time>2022-06-18T12:44:49Z</time>
      </trkpt>
      <trkpt lat="42.3593680" lon="-8.6157060">
        <ele>65.2</ele>
        <time>2022-06-18T12:44:50Z</time>
      </trkpt>
      <trkpt lat="42.3593880" lon="-8.6157150">
        <ele>65.2</ele>
        <time>2022-06-18T12:44:51Z</time>
      </trkpt>
      <trkpt lat="42.3594100" lon="-8.6157280">
        <ele>65.2</ele>
        <time>2022-06-18T12:44:52Z</time>
      </trkpt>
      <trkpt lat="42.3594350" lon="-8.6157400">
        <ele>65.2</ele>
        <time>2022-06-18T12:44:53Z</time>
      </trkpt>
      <trkpt lat="42.3594560" lon="-8.6157460">
        <ele>65.4</ele>
        <time>2022-06-18T12:44:54Z</time>
      </trkpt>
      <trkpt lat="42.3594800" lon="-8.6157530">
        <ele>65.4</ele>
        <time>2022-06-18T12:44:55Z</time>
      </trkpt>
      <trkpt lat="42.3595060" lon="-8.6157600">
        <ele>65.4</ele>
        <time>2022-06-18T12:44:56Z</time>
      </trkpt>
      <trkpt lat="42.3595400" lon="-8.6157610">
        <ele>65.4</ele>
        <time>2022-06-18T12:44:57Z</time>
      </trkpt>
      <trkpt lat="42.3595710" lon="-8.6157600">
        <ele>64.8</ele>
        <time>2022-06-18T12:44:58Z</time>
      </trkpt>
      <trkpt lat="42.3596100" lon="-8.6157550">
        <ele>64.8</ele>
        <time>2022-06-18T12:44:59Z</time>
      </trkpt>
      <trkpt lat="42.3596460" lon="-8.6157480">
        <ele>64.8</ele>
        <time>2022-06-18T12:45:00Z</time>
      </trkpt>
      <trkpt lat="42.3596850" lon="-8.6157350">
        <ele>64.2</ele>
        <time>2022-06-18T12:45:01Z</time>
      </trkpt>
      <trkpt lat="42.3597230" lon="-8.6157200">
        <ele>64.2</ele>
        <time>2022-06-18T12:45:02Z</time>
      </trkpt>
      <trkpt lat="42.3597580" lon="-8.6157060">
        <ele>64.2</ele>
        <time>2022-06-18T12:45:03Z</time>
      </trkpt>
      <trkpt lat="42.3597910" lon="-8.6157000">
        <ele>64.2</ele>
        <time>2022-06-18T12:45:04Z</time>
      </trkpt>
      <trkpt lat="42.3598210" lon="-8.6156960">
        <ele>64.2</ele>
        <time>2022-06-18T12:45:05Z</time>
      </trkpt>
      <trkpt lat="42.3598480" lon="-8.6156960">
        <ele>65.0</ele>
        <time>2022-06-18T12:45:06Z</time>
      </trkpt>
      <trkpt lat="42.3598780" lon="-8.6156930">
        <ele>65.0</ele>
        <time>2022-06-18T12:45:07Z</time>
      </trkpt>
      <trkpt lat="42.3599060" lon="-8.6156930">
        <ele>65.0</ele>
        <time>2022-06-18T12:45:08Z</time>
      </trkpt>
      <trkpt lat="42.3599350" lon="-8.6156950">
        <ele>65.0</ele>
        <time>2022-06-18T12:45:09Z</time>
      </trkpt>
      <trkpt lat="42.3599630" lon="-8.6156930">
        <ele>65.0</ele>
        <time>2022-06-18T12:45:10Z</time>
      </trkpt>
      <trkpt lat="42.3599900" lon="-8.6156860">
        <ele>65.0</ele>
        <time>2022-06-18T12:45:11Z</time>
      </trkpt>
      <trkpt lat="42.3600160" lon="-8.6156830">
        <ele>65.0</ele>
        <time>2022-06-18T12:45:12Z</time>
      </trkpt>
      <trkpt lat="42.3600430" lon="-8.6156810">
        <ele>65.4</ele>
        <time>2022-06-18T12:45:13Z</time>
      </trkpt>
      <trkpt lat="42.3600680" lon="-8.6156830">
        <ele>66.0</ele>
        <time>2022-06-18T12:45:14Z</time>
      </trkpt>
      <trkpt lat="42.3600900" lon="-8.6156830">
        <ele>66.0</ele>
        <time>2022-06-18T12:45:15Z</time>
      </trkpt>
      <trkpt lat="42.3601150" lon="-8.6156880">
        <ele>66.0</ele>
        <time>2022-06-18T12:45:16Z</time>
      </trkpt>
      <trkpt lat="42.3601350" lon="-8.6156930">
        <ele>66.0</ele>
        <time>2022-06-18T12:45:17Z</time>
      </trkpt>
      <trkpt lat="42.3601550" lon="-8.6156960">
        <ele>66.4</ele>
        <time>2022-06-18T12:45:18Z</time>
      </trkpt>
      <trkpt lat="42.3601750" lon="-8.6157030">
        <ele>66.4</ele>
        <time>2022-06-18T12:45:19Z</time>
      </trkpt>
      <trkpt lat="42.3601910" lon="-8.6157150">
        <ele>66.4</ele>
        <time>2022-06-18T12:45:20Z</time>
      </trkpt>
      <trkpt lat="42.3602060" lon="-8.6157230">
        <ele>66.4</ele>
        <time>2022-06-18T12:45:21Z</time>
      </trkpt>
      <trkpt lat="42.3602200" lon="-8.6157310">
        <ele>67.4</ele>
        <time>2022-06-18T12:45:22Z</time>
      </trkpt>
      <trkpt lat="42.3602350" lon="-8.6157460">
        <ele>67.4</ele>
        <time>2022-06-18T12:45:23Z</time>
      </trkpt>
      <trkpt lat="42.3602500" lon="-8.6157630">
        <ele>67.4</ele>
        <time>2022-06-18T12:45:24Z</time>
      </trkpt>
      <trkpt lat="42.3602660" lon="-8.6157800">
        <ele>68.4</ele>
        <time>2022-06-18T12:45:25Z</time>
      </trkpt>
      <trkpt lat="42.3602800" lon="-8.6157980">
        <ele>68.8</ele>
        <time>2022-06-18T12:45:26Z</time>
      </trkpt>
      <trkpt lat="42.3602930" lon="-8.6158200">
        <ele>68.8</ele>
        <time>2022-06-18T12:45:27Z</time>
      </trkpt>
      <trkpt lat="42.3603060" lon="-8.6158410">
        <ele>68.8</ele>
        <time>2022-06-18T12:45:28Z</time>
      </trkpt>
      <trkpt lat="42.3603180" lon="-8.6158610">
        <ele>69.2</ele>
        <time>2022-06-18T12:45:29Z</time>
      </trkpt>
      <trkpt lat="42.3603330" lon="-8.6158760">
        <ele>69.4</ele>
        <time>2022-06-18T12:45:30Z</time>
      </trkpt>
      <trkpt lat="42.3603460" lon="-8.6158910">
        <ele>69.4</ele>
        <time>2022-06-18T12:45:31Z</time>
      </trkpt>
      <trkpt lat="42.3603630" lon="-8.6159060">
        <ele>69.4</ele>
        <time>2022-06-18T12:45:32Z</time>
      </trkpt>
      <trkpt lat="42.3603780" lon="-8.6159200">
        <ele>70.2</ele>
        <time>2022-06-18T12:45:33Z</time>
      </trkpt>
      <trkpt lat="42.3603930" lon="-8.6159350">
        <ele>69.6</ele>
        <time>2022-06-18T12:45:34Z</time>
      </trkpt>
      <trkpt lat="42.3604050" lon="-8.6159500">
        <ele>69.6</ele>
        <time>2022-06-18T12:45:35Z</time>
      </trkpt>
      <trkpt lat="42.3604160" lon="-8.6159650">
        <ele>69.6</ele>
        <time>2022-06-18T12:45:36Z</time>
      </trkpt>
      <trkpt lat="42.3604250" lon="-8.6159850">
        <ele>70.6</ele>
        <time>2022-06-18T12:45:37Z</time>
      </trkpt>
      <trkpt lat="42.3604350" lon="-8.6160030">
        <ele>71.0</ele>
        <time>2022-06-18T12:45:38Z</time>
      </trkpt>
      <trkpt lat="42.3604460" lon="-8.6160210">
        <ele>71.0</ele>
        <time>2022-06-18T12:45:39Z</time>
      </trkpt>
      <trkpt lat="42.3604580" lon="-8.6160360">
        <ele>71.0</ele>
        <time>2022-06-18T12:45:40Z</time>
      </trkpt>
      <trkpt lat="42.3604680" lon="-8.6160510">
        <ele>72.0</ele>
        <time>2022-06-18T12:45:41Z</time>
      </trkpt>
      <trkpt lat="42.3604800" lon="-8.6160650">
        <ele>73.2</ele>
        <time>2022-06-18T12:45:42Z</time>
      </trkpt>
      <trkpt lat="42.3604910" lon="-8.6160780">
        <ele>73.2</ele>
        <time>2022-06-18T12:45:43Z</time>
      </trkpt>
      <trkpt lat="42.3605100" lon="-8.6160900">
        <ele>73.2</ele>
        <time>2022-06-18T12:45:44Z</time>
      </trkpt>
      <trkpt lat="42.3605300" lon="-8.6160980">
        <ele>72.8</ele>
        <time>2022-06-18T12:45:45Z</time>
      </trkpt>
      <trkpt lat="42.3605510" lon="-8.6161060">
        <ele>72.8</ele>
        <time>2022-06-18T12:45:46Z</time>
      </trkpt>
      <trkpt lat="42.3605730" lon="-8.6161130">
        <ele>72.8</ele>
        <time>2022-06-18T12:45:47Z</time>
      </trkpt>
      <trkpt lat="42.3605950" lon="-8.6161210">
        <ele>72.8</ele>
        <time>2022-06-18T12:45:48Z</time>
      </trkpt>
      <trkpt lat="42.3606150" lon="-8.6161310">
        <ele>72.8</ele>
        <time>2022-06-18T12:45:49Z</time>
      </trkpt>
      <trkpt lat="42.3606350" lon="-8.6161450">
        <ele>73.0</ele>
        <time>2022-06-18T12:45:50Z</time>
      </trkpt>
      <trkpt lat="42.3606580" lon="-8.6161550">
        <ele>73.0</ele>
        <time>2022-06-18T12:45:51Z</time>
      </trkpt>
      <trkpt lat="42.3606800" lon="-8.6161650">
        <ele>73.0</ele>
        <time>2022-06-18T12:45:52Z</time>
      </trkpt>
      <trkpt lat="42.3607010" lon="-8.6161780">
        <ele>73.0</ele>
        <time>2022-06-18T12:45:53Z</time>
      </trkpt>
      <trkpt lat="42.3607230" lon="-8.6161930">
        <ele>72.8</ele>
        <time>2022-06-18T12:45:54Z</time>
      </trkpt>
      <trkpt lat="42.3607460" lon="-8.6162060">
        <ele>72.8</ele>
        <time>2022-06-18T12:45:55Z</time>
      </trkpt>
      <trkpt lat="42.3607710" lon="-8.6162150">
        <ele>72.8</ele>
        <time>2022-06-18T12:45:56Z</time>
      </trkpt>
      <trkpt lat="42.3607960" lon="-8.6162180">
        <ele>73.4</ele>
        <time>2022-06-18T12:45:57Z</time>
      </trkpt>
      <trkpt lat="42.3608230" lon="-8.6162210">
        <ele>73.4</ele>
        <time>2022-06-18T12:45:58Z</time>
      </trkpt>
      <trkpt lat="42.3608480" lon="-8.6162250">
        <ele>73.4</ele>
        <time>2022-06-18T12:45:59Z</time>
      </trkpt>
      <trkpt lat="42.3608730" lon="-8.6162250">
        <ele>73.4</ele>
        <time>2022-06-18T12:46:00Z</time>
      </trkpt>
      <trkpt lat="42.3608960" lon="-8.6162250">
        <ele>73.4</ele>
        <time>2022-06-18T12:46:01Z</time>
      </trkpt>
      <trkpt lat="42.3609210" lon="-8.6162250">
        <ele>73.8</ele>
        <time>2022-06-18T12:46:02Z</time>
      </trkpt>
      <trkpt lat="42.3609450" lon="-8.6162230">
        <ele>73.8</ele>
        <time>2022-06-18T12:46:03Z</time>
      </trkpt>
      <trkpt lat="42.3609700" lon="-8.6162180">
        <ele>73.8</ele>
        <time>2022-06-18T12:46:04Z</time>
      </trkpt>
      <trkpt lat="42.3609910" lon="-8.6162150">
        <ele>73.8</ele>
        <time>2022-06-18T12:46:05Z</time>
      </trkpt>
      <trkpt lat="42.3610130" lon="-8.6162100">
        <ele>73.8</ele>
        <time>2022-06-18T12:46:06Z</time>
      </trkpt>
      <trkpt lat="42.3610350" lon="-8.6162030">
        <ele>73.8</ele>
        <time>2022-06-18T12:46:07Z</time>
      </trkpt>
      <trkpt lat="42.3610600" lon="-8.6161980">
        <ele>73.8</ele>
        <time>2022-06-18T12:46:08Z</time>
      </trkpt>
      <trkpt lat="42.3610850" lon="-8.6161930">
        <ele>73.8</ele>
        <time>2022-06-18T12:46:09Z</time>
      </trkpt>
      <trkpt lat="42.3611100" lon="-8.6161880">
        <ele>74.0</ele>
        <time>2022-06-18T12:46:10Z</time>
      </trkpt>
      <trkpt lat="42.3611350" lon="-8.6161810">
        <ele>74.0</ele>
        <time>2022-06-18T12:46:11Z</time>
      </trkpt>
      <trkpt lat="42.3611580" lon="-8.6161750">
        <ele>74.0</ele>
        <time>2022-06-18T12:46:12Z</time>
      </trkpt>
      <trkpt lat="42.3611810" lon="-8.6161700">
        <ele>74.0</ele>
        <time>2022-06-18T12:46:13Z</time>
      </trkpt>
      <trkpt lat="42.3612060" lon="-8.6161660">
        <ele>74.2</ele>
        <time>2022-06-18T12:46:14Z</time>
      </trkpt>
      <trkpt lat="42.3612310" lon="-8.6161650">
        <ele>74.2</ele>
        <time>2022-06-18T12:46:15Z</time>
      </trkpt>
      <trkpt lat="42.3612510" lon="-8.6161660">
        <ele>74.2</ele>
        <time>2022-06-18T12:46:16Z</time>
      </trkpt>
      <trkpt lat="42.3612680" lon="-8.6161700">
        <ele>75.2</ele>
        <time>2022-06-18T12:46:17Z</time>
      </trkpt>
      <trkpt lat="42.3612850" lon="-8.6161730">
        <ele>75.2</ele>
        <time>2022-06-18T12:46:18Z</time>
      </trkpt>
      <trkpt lat="42.3613030" lon="-8.6161730">
        <ele>75.2</ele>
        <time>2022-06-18T12:46:19Z</time>
      </trkpt>
      <trkpt lat="42.3613200" lon="-8.6161750">
        <ele>75.2</ele>
        <time>2022-06-18T12:46:20Z</time>
      </trkpt>
      <trkpt lat="42.3613330" lon="-8.6161830">
        <ele>75.8</ele>
        <time>2022-06-18T12:46:21Z</time>
      </trkpt>
      <trkpt lat="42.3613500" lon="-8.6161960">
        <ele>75.8</ele>
        <time>2022-06-18T12:46:22Z</time>
      </trkpt>
      <trkpt lat="42.3613680" lon="-8.6162060">
        <ele>75.8</ele>
        <time>2022-06-18T12:46:23Z</time>
      </trkpt>
      <trkpt lat="42.3613860" lon="-8.6162160">
        <ele>75.8</ele>
        <time>2022-06-18T12:46:24Z</time>
      </trkpt>
      <trkpt lat="42.3614000" lon="-8.6162250">
        <ele>75.8</ele>
        <time>2022-06-18T12:46:25Z</time>
      </trkpt>
      <trkpt lat="42.3614150" lon="-8.6162300">
        <ele>75.8</ele>
        <time>2022-06-18T12:46:26Z</time>
      </trkpt>
      <trkpt lat="42.3614310" lon="-8.6162350">
        <ele>75.8</ele>
        <time>2022-06-18T12:46:27Z</time>
      </trkpt>
      <trkpt lat="42.3614460" lon="-8.6162400">
        <ele>75.8</ele>
        <time>2022-06-18T12:46:28Z</time>
      </trkpt>
      <trkpt lat="42.3614680" lon="-8.6162450">
        <ele>76.4</ele>
        <time>2022-06-18T12:46:29Z</time>
      </trkpt>
      <trkpt lat="42.3614860" lon="-8.6162530">
        <ele>76.6</ele>
        <time>2022-06-18T12:46:30Z</time>
      </trkpt>
      <trkpt lat="42.3615030" lon="-8.6162600">
        <ele>76.6</ele>
        <time>2022-06-18T12:46:31Z</time>
      </trkpt>
      <trkpt lat="42.3615200" lon="-8.6162660">
        <ele>76.6</ele>
        <time>2022-06-18T12:46:32Z</time>
      </trkpt>
      <trkpt lat="42.3615350" lon="-8.6162730">
        <ele>77.0</ele>
        <time>2022-06-18T12:46:33Z</time>
      </trkpt>
      <trkpt lat="42.3615500" lon="-8.6162780">
        <ele>77.4</ele>
        <time>2022-06-18T12:46:34Z</time>
      </trkpt>
      <trkpt lat="42.3615650" lon="-8.6162860">
        <ele>77.4</ele>
        <time>2022-06-18T12:46:35Z</time>
      </trkpt>
      <trkpt lat="42.3615780" lon="-8.6162950">
        <ele>77.4</ele>
        <time>2022-06-18T12:46:36Z</time>
      </trkpt>
      <trkpt lat="42.3615930" lon="-8.6162980">
        <ele>77.4</ele>
        <time>2022-06-18T12:46:37Z</time>
      </trkpt>
      <trkpt lat="42.3616100" lon="-8.6163030">
        <ele>78.0</ele>
        <time>2022-06-18T12:46:38Z</time>
      </trkpt>
      <trkpt lat="42.3616260" lon="-8.6163060">
        <ele>78.0</ele>
        <time>2022-06-18T12:46:39Z</time>
      </trkpt>
      <trkpt lat="42.3616410" lon="-8.6163100">
        <ele>78.0</ele>
        <time>2022-06-18T12:46:40Z</time>
      </trkpt>
      <trkpt lat="42.3616580" lon="-8.6163150">
        <ele>78.0</ele>
        <time>2022-06-18T12:46:41Z</time>
      </trkpt>
      <trkpt lat="42.3616750" lon="-8.6163180">
        <ele>78.0</ele>
        <time>2022-06-18T12:46:42Z</time>
      </trkpt>
      <trkpt lat="42.3616910" lon="-8.6163200">
        <ele>78.0</ele>
        <time>2022-06-18T12:46:43Z</time>
      </trkpt>
      <trkpt lat="42.3617060" lon="-8.6163210">
        <ele>78.0</ele>
        <time>2022-06-18T12:46:44Z</time>
      </trkpt>
      <trkpt lat="42.3617230" lon="-8.6163280">
        <ele>79.0</ele>
        <time>2022-06-18T12:46:45Z</time>
      </trkpt>
      <trkpt lat="42.3617400" lon="-8.6163350">
        <ele>79.4</ele>
        <time>2022-06-18T12:46:46Z</time>
      </trkpt>
      <trkpt lat="42.3617580" lon="-8.6163410">
        <ele>79.4</ele>
        <time>2022-06-18T12:46:47Z</time>
      </trkpt>
      <trkpt lat="42.3617760" lon="-8.6163500">
        <ele>79.4</ele>
        <time>2022-06-18T12:46:48Z</time>
      </trkpt>
      <trkpt lat="42.3617950" lon="-8.6163500">
        <ele>79.4</ele>
        <time>2022-06-18T12:46:49Z</time>
      </trkpt>
      <trkpt lat="42.3618110" lon="-8.6163500">
        <ele>79.4</ele>
        <time>2022-06-18T12:46:50Z</time>
      </trkpt>
      <trkpt lat="42.3618310" lon="-8.6163450">
        <ele>79.4</ele>
        <time>2022-06-18T12:46:51Z</time>
      </trkpt>
      <trkpt lat="42.3618510" lon="-8.6163400">
        <ele>79.4</ele>
        <time>2022-06-18T12:46:52Z</time>
      </trkpt>
      <trkpt lat="42.3618710" lon="-8.6163360">
        <ele>79.4</ele>
        <time>2022-06-18T12:46:53Z</time>
      </trkpt>
      <trkpt lat="42.3618950" lon="-8.6163300">
        <ele>79.2</ele>
        <time>2022-06-18T12:46:54Z</time>
      </trkpt>
      <trkpt lat="42.3619160" lon="-8.6163260">
        <ele>79.2</ele>
        <time>2022-06-18T12:46:55Z</time>
      </trkpt>
      <trkpt lat="42.3619400" lon="-8.6163250">
        <ele>79.2</ele>
        <time>2022-06-18T12:46:56Z</time>
      </trkpt>
      <trkpt lat="42.3619600" lon="-8.6163210">
        <ele>79.2</ele>
        <time>2022-06-18T12:46:57Z</time>
      </trkpt>
      <trkpt lat="42.3619800" lon="-8.6163160">
        <ele>79.8</ele>
        <time>2022-06-18T12:46:58Z</time>
      </trkpt>
      <trkpt lat="42.3619980" lon="-8.6163150">
        <ele>79.8</ele>
        <time>2022-06-18T12:46:59Z</time>
      </trkpt>
      <trkpt lat="42.3620180" lon="-8.6163130">
        <ele>79.8</ele>
        <time>2022-06-18T12:47:00Z</time>
      </trkpt>
      <trkpt lat="42.3620360" lon="-8.6163110">
        <ele>79.8</ele>
        <time>2022-06-18T12:47:01Z</time>
      </trkpt>
      <trkpt lat="42.3620530" lon="-8.6163080">
        <ele>79.8</ele>
        <time>2022-06-18T12:47:02Z</time>
      </trkpt>
      <trkpt lat="42.3620710" lon="-8.6163030">
        <ele>79.8</ele>
        <time>2022-06-18T12:47:03Z</time>
      </trkpt>
      <trkpt lat="42.3620880" lon="-8.6163000">
        <ele>79.8</ele>
        <time>2022-06-18T12:47:04Z</time>
      </trkpt>
      <trkpt lat="42.3621060" lon="-8.6162960">
        <ele>80.2</ele>
        <time>2022-06-18T12:47:05Z</time>
      </trkpt>
      <trkpt lat="42.3621230" lon="-8.6162950">
        <ele>80.4</ele>
        <time>2022-06-18T12:47:06Z</time>
      </trkpt>
      <trkpt lat="42.3621410" lon="-8.6162950">
        <ele>80.4</ele>
        <time>2022-06-18T12:47:07Z</time>
      </trkpt>
      <trkpt lat="42.3621560" lon="-8.6162980">
        <ele>80.4</ele>
        <time>2022-06-18T12:47:08Z</time>
      </trkpt>
      <trkpt lat="42.3621760" lon="-8.6162980">
        <ele>81.2</ele>
        <time>2022-06-18T12:47:09Z</time>
      </trkpt>
      <trkpt lat="42.3621960" lon="-8.6162930">
        <ele>81.0</ele>
        <time>2022-06-18T12:47:10Z</time>
      </trkpt>
      <trkpt lat="42.3622150" lon="-8.6162910">
        <ele>81.0</ele>
        <time>2022-06-18T12:47:11Z</time>
      </trkpt>
      <trkpt lat="42.3622330" lon="-8.6162880">
        <ele>81.0</ele>
        <time>2022-06-18T12:47:12Z</time>
      </trkpt>
      <trkpt lat="42.3622510" lon="-8.6162860">
        <ele>81.0</ele>
        <time>2022-06-18T12:47:13Z</time>
      </trkpt>
      <trkpt lat="42.3622660" lon="-8.6162830">
        <ele>81.0</ele>
        <time>2022-06-18T12:47:14Z</time>
      </trkpt>
      <trkpt lat="42.3622830" lon="-8.6162780">
        <ele>81.0</ele>
        <time>2022-06-18T12:47:15Z</time>
      </trkpt>
      <trkpt lat="42.3623030" lon="-8.6162750">
        <ele>81.0</ele>
        <time>2022-06-18T12:47:16Z</time>
      </trkpt>
      <trkpt lat="42.3623210" lon="-8.6162730">
        <ele>81.0</ele>
        <time>2022-06-18T12:47:17Z</time>
      </trkpt>
      <trkpt lat="42.3623400" lon="-8.6162710">
        <ele>81.6</ele>
        <time>2022-06-18T12:47:18Z</time>
      </trkpt>
      <trkpt lat="42.3623560" lon="-8.6162710">
        <ele>81.6</ele>
        <time>2022-06-18T12:47:19Z</time>
      </trkpt>
      <trkpt lat="42.3623730" lon="-8.6162710">
        <ele>81.6</ele>
        <time>2022-06-18T12:47:20Z</time>
      </trkpt>
      <trkpt lat="42.3623880" lon="-8.6162730">
        <ele>81.6</ele>
        <time>2022-06-18T12:47:21Z</time>
      </trkpt>
      <trkpt lat="42.3624050" lon="-8.6162760">
        <ele>81.8</ele>
        <time>2022-06-18T12:47:22Z</time>
      </trkpt>
      <trkpt lat="42.3624200" lon="-8.6162760">
        <ele>81.8</ele>
        <time>2022-06-18T12:47:23Z</time>
      </trkpt>
      <trkpt lat="42.3624380" lon="-8.6162800">
        <ele>81.8</ele>
        <time>2022-06-18T12:47:24Z</time>
      </trkpt>
      <trkpt lat="42.3624510" lon="-8.6162800">
        <ele>82.4</ele>
        <time>2022-06-18T12:47:25Z</time>
      </trkpt>
      <trkpt lat="42.3624660" lon="-8.6162800">
        <ele>82.4</ele>
        <time>2022-06-18T12:47:26Z</time>
      </trkpt>
      <trkpt lat="42.3624900" lon="-8.6162830">
        <ele>82.4</ele>
        <time>2022-06-18T12:47:27Z</time>
      </trkpt>
      <trkpt lat="42.3625110" lon="-8.6162860">
        <ele>82.4</ele>
        <time>2022-06-18T12:47:28Z</time>
      </trkpt>
      <trkpt lat="42.3625310" lon="-8.6162900">
        <ele>82.8</ele>
        <time>2022-06-18T12:47:29Z</time>
      </trkpt>
      <trkpt lat="42.3625500" lon="-8.6162930">
        <ele>82.8</ele>
        <time>2022-06-18T12:47:30Z</time>
      </trkpt>
      <trkpt lat="42.3625700" lon="-8.6163010">
        <ele>82.8</ele>
        <time>2022-06-18T12:47:31Z</time>
      </trkpt>
      <trkpt lat="42.3625850" lon="-8.6163100">
        <ele>82.8</ele>
        <time>2022-06-18T12:47:32Z</time>
      </trkpt>
      <trkpt lat="42.3626050" lon="-8.6163260">
        <ele>83.2</ele>
        <time>2022-06-18T12:47:33Z</time>
      </trkpt>
      <trkpt lat="42.3626230" lon="-8.6163400">
        <ele>83.2</ele>
        <time>2022-06-18T12:47:34Z</time>
      </trkpt>
      <trkpt lat="42.3626310" lon="-8.6163450">
        <ele>83.2</ele>
        <time>2022-06-18T12:47:35Z</time>
      </trkpt>
      <trkpt lat="42.3626460" lon="-8.6163530">
        <ele>83.2</ele>
        <time>2022-06-18T12:47:36Z</time>
      </trkpt>
      <trkpt lat="42.3626630" lon="-8.6163580">
        <ele>83.8</ele>
        <time>2022-06-18T12:47:37Z</time>
      </trkpt>
      <trkpt lat="42.3626760" lon="-8.6163600">
        <ele>83.8</ele>
        <time>2022-06-18T12:47:38Z</time>
      </trkpt>
      <trkpt lat="42.3626860" lon="-8.6163580">
        <ele>83.8</ele>
        <time>2022-06-18T12:47:39Z</time>
      </trkpt>
      <trkpt lat="42.3626950" lon="-8.6163660">
        <ele>83.8</ele>
        <time>2022-06-18T12:47:40Z</time>
      </trkpt>
      <trkpt lat="42.3627030" lon="-8.6163830">
        <ele>84.4</ele>
        <time>2022-06-18T12:47:41Z</time>
      </trkpt>
      <trkpt lat="42.3627130" lon="-8.6164000">
        <ele>84.6</ele>
        <time>2022-06-18T12:47:42Z</time>
      </trkpt>
      <trkpt lat="42.3627260" lon="-8.6164080">
        <ele>84.6</ele>
        <time>2022-06-18T12:47:43Z</time>
      </trkpt>
      <trkpt lat="42.3627360" lon="-8.6164130">
        <ele>84.6</ele>
        <time>2022-06-18T12:47:44Z</time>
      </trkpt>
      <trkpt lat="42.3627450" lon="-8.6164130">
        <ele>84.6</ele>
        <time>2022-06-18T12:47:45Z</time>
      </trkpt>
      <trkpt lat="42.3627560" lon="-8.6164210">
        <ele>85.2</ele>
        <time>2022-06-18T12:47:46Z</time>
      </trkpt>
      <trkpt lat="42.3627650" lon="-8.6164310">
        <ele>85.2</ele>
        <time>2022-06-18T12:47:47Z</time>
      </trkpt>
      <trkpt lat="42.3627750" lon="-8.6164330">
        <ele>85.2</ele>
        <time>2022-06-18T12:47:48Z</time>
      </trkpt>
      <trkpt lat="42.3627810" lon="-8.6164400">
        <ele>85.2</ele>
        <time>2022-06-18T12:47:49Z</time>
      </trkpt>
      <trkpt lat="42.3627900" lon="-8.6164380">
        <ele>86.0</ele>
        <time>2022-06-18T12:47:50Z</time>
      </trkpt>
      <trkpt lat="42.3628030" lon="-8.6164430">
        <ele>86.0</ele>
        <time>2022-06-18T12:47:51Z</time>
      </trkpt>
      <trkpt lat="42.3628100" lon="-8.6164430">
        <ele>86.0</ele>
        <time>2022-06-18T12:47:52Z</time>
      </trkpt>
      <trkpt lat="42.3628230" lon="-8.6164450">
        <ele>86.2</ele>
        <time>2022-06-18T12:47:53Z</time>
      </trkpt>
      <trkpt lat="42.3628350" lon="-8.6164480">
        <ele>86.8</ele>
        <time>2022-06-18T12:47:54Z</time>
      </trkpt>
      <trkpt lat="42.3628480" lon="-8.6164450">
        <ele>86.8</ele>
        <time>2022-06-18T12:47:55Z</time>
      </trkpt>
      <trkpt lat="42.3628630" lon="-8.6164450">
        <ele>86.8</ele>
        <time>2022-06-18T12:47:56Z</time>
      </trkpt>
      <trkpt lat="42.3628780" lon="-8.6164510">
        <ele>87.2</ele>
        <time>2022-06-18T12:47:57Z</time>
      </trkpt>
      <trkpt lat="42.3628850" lon="-8.6164510">
        <ele>87.4</ele>
        <time>2022-06-18T12:47:58Z</time>
      </trkpt>
      <trkpt lat="42.3628950" lon="-8.6164510">
        <ele>87.4</ele>
        <time>2022-06-18T12:47:59Z</time>
      </trkpt>
      <trkpt lat="42.3629110" lon="-8.6164610">
        <ele>87.4</ele>
        <time>2022-06-18T12:48:00Z</time>
      </trkpt>
      <trkpt lat="42.3629300" lon="-8.6164700">
        <ele>87.6</ele>
        <time>2022-06-18T12:48:01Z</time>
      </trkpt>
      <trkpt lat="42.3629380" lon="-8.6164750">
        <ele>87.6</ele>
        <time>2022-06-18T12:48:02Z</time>
      </trkpt>
      <trkpt lat="42.3629450" lon="-8.6164850">
        <ele>87.6</ele>
        <time>2022-06-18T12:48:03Z</time>
      </trkpt>
      <trkpt lat="42.3629480" lon="-8.6164850">
        <ele>87.6</ele>
        <time>2022-06-18T12:48:04Z</time>
      </trkpt>
      <trkpt lat="42.3629580" lon="-8.6164950">
        <ele>88.6</ele>
        <time>2022-06-18T12:48:05Z</time>
      </trkpt>
      <trkpt lat="42.3629710" lon="-8.6164960">
        <ele>88.8</ele>
        <time>2022-06-18T12:48:06Z</time>
      </trkpt>
      <trkpt lat="42.3629860" lon="-8.6164960">
        <ele>88.8</ele>
        <time>2022-06-18T12:48:07Z</time>
      </trkpt>
      <trkpt lat="42.3630010" lon="-8.6164930">
        <ele>88.8</ele>
        <time>2022-06-18T12:48:08Z</time>
      </trkpt>
      <trkpt lat="42.3630100" lon="-8.6164860">
        <ele>88.8</ele>
        <time>2022-06-18T12:48:09Z</time>
      </trkpt>
      <trkpt lat="42.3630180" lon="-8.6164810">
        <ele>88.8</ele>
        <time>2022-06-18T12:48:10Z</time>
      </trkpt>
      <trkpt lat="42.3630260" lon="-8.6164830">
        <ele>88.8</ele>
        <time>2022-06-18T12:48:11Z</time>
      </trkpt>
      <trkpt lat="42.3630330" lon="-8.6164800">
        <ele>88.8</ele>
        <time>2022-06-18T12:48:12Z</time>
      </trkpt>
      <trkpt lat="42.3630450" lon="-8.6164730">
        <ele>89.8</ele>
        <time>2022-06-18T12:48:13Z</time>
      </trkpt>
      <trkpt lat="42.3630580" lon="-8.6164730">
        <ele>90.0</ele>
        <time>2022-06-18T12:48:14Z</time>
      </trkpt>
      <trkpt lat="42.3630730" lon="-8.6164760">
        <ele>90.0</ele>
        <time>2022-06-18T12:48:15Z</time>
      </trkpt>
      <trkpt lat="42.3630910" lon="-8.6164800">
        <ele>90.0</ele>
        <time>2022-06-18T12:48:16Z</time>
      </trkpt>
      <trkpt lat="42.3631030" lon="-8.6164860">
        <ele>90.4</ele>
        <time>2022-06-18T12:48:17Z</time>
      </trkpt>
      <trkpt lat="42.3631150" lon="-8.6164910">
        <ele>91.0</ele>
        <time>2022-06-18T12:48:18Z</time>
      </trkpt>
      <trkpt lat="42.3631310" lon="-8.6164960">
        <ele>91.0</ele>
        <time>2022-06-18T12:48:19Z</time>
      </trkpt>
      <trkpt lat="42.3631510" lon="-8.6165030">
        <ele>91.0</ele>
        <time>2022-06-18T12:48:20Z</time>
      </trkpt>
      <trkpt lat="42.3631660" lon="-8.6165100">
        <ele>91.8</ele>
        <time>2022-06-18T12:48:21Z</time>
      </trkpt>
      <trkpt lat="42.3631800" lon="-8.6165110">
        <ele>91.6</ele>
        <time>2022-06-18T12:48:22Z</time>
      </trkpt>
      <trkpt lat="42.3631900" lon="-8.6165150">
        <ele>91.6</ele>
        <time>2022-06-18T12:48:23Z</time>
      </trkpt>
      <trkpt lat="42.3632030" lon="-8.6165230">
        <ele>91.6</ele>
        <time>2022-06-18T12:48:24Z</time>
      </trkpt>
      <trkpt lat="42.3632150" lon="-8.6165310">
        <ele>92.6</ele>
        <time>2022-06-18T12:48:25Z</time>
      </trkpt>
      <trkpt lat="42.3632280" lon="-8.6165380">
        <ele>92.4</ele>
        <time>2022-06-18T12:48:26Z</time>
      </trkpt>
      <trkpt lat="42.3632380" lon="-8.6165430">
        <ele>92.4</ele>
        <time>2022-06-18T12:48:27Z</time>
      </trkpt>
      <trkpt lat="42.3632480" lon="-8.6165550">
        <ele>92.4</ele>
        <time>2022-06-18T12:48:28Z</time>
      </trkpt>
      <trkpt lat="42.3632560" lon="-8.6165660">
        <ele>92.4</ele>
        <time>2022-06-18T12:48:29Z</time>
      </trkpt>
      <trkpt lat="42.3632680" lon="-8.6165800">
        <ele>93.0</ele>
        <time>2022-06-18T12:48:30Z</time>
      </trkpt>
      <trkpt lat="42.3632810" lon="-8.6165930">
        <ele>93.0</ele>
        <time>2022-06-18T12:48:31Z</time>
      </trkpt>
      <trkpt lat="42.3632860" lon="-8.6166000">
        <ele>93.0</ele>
        <time>2022-06-18T12:48:32Z</time>
      </trkpt>
      <trkpt lat="42.3633000" lon="-8.6166080">
        <ele>93.0</ele>
        <time>2022-06-18T12:48:33Z</time>
      </trkpt>
      <trkpt lat="42.3633150" lon="-8.6166180">
        <ele>93.6</ele>
        <time>2022-06-18T12:48:34Z</time>
      </trkpt>
      <trkpt lat="42.3633280" lon="-8.6166300">
        <ele>93.6</ele>
        <time>2022-06-18T12:48:35Z</time>
      </trkpt>
      <trkpt lat="42.3633350" lon="-8.6166410">
        <ele>93.6</ele>
        <time>2022-06-18T12:48:36Z</time>
      </trkpt>
      <trkpt lat="42.3633400" lon="-8.6166460">
        <ele>93.6</ele>
        <time>2022-06-18T12:48:37Z</time>
      </trkpt>
      <trkpt lat="42.3633500" lon="-8.6166580">
        <ele>93.8</ele>
        <time>2022-06-18T12:48:38Z</time>
      </trkpt>
      <trkpt lat="42.3633600" lon="-8.6166660">
        <ele>93.8</ele>
        <time>2022-06-18T12:48:39Z</time>
      </trkpt>
      <trkpt lat="42.3633730" lon="-8.6166730">
        <ele>93.8</ele>
        <time>2022-06-18T12:48:40Z</time>
      </trkpt>
      <trkpt lat="42.3633830" lon="-8.6166750">
        <ele>93.8</ele>
        <time>2022-06-18T12:48:41Z</time>
      </trkpt>
      <trkpt lat="42.3633900" lon="-8.6166780">
        <ele>94.6</ele>
        <time>2022-06-18T12:48:42Z</time>
      </trkpt>
      <trkpt lat="42.3634000" lon="-8.6166850">
        <ele>94.6</ele>
        <time>2022-06-18T12:48:43Z</time>
      </trkpt>
      <trkpt lat="42.3634100" lon="-8.6166930">
        <ele>94.6</ele>
        <time>2022-06-18T12:48:44Z</time>
      </trkpt>
      <trkpt lat="42.3634200" lon="-8.6167000">
        <ele>94.6</ele>
        <time>2022-06-18T12:48:45Z</time>
      </trkpt>
      <trkpt lat="42.3634260" lon="-8.6167030">
        <ele>95.2</ele>
        <time>2022-06-18T12:48:46Z</time>
      </trkpt>
      <trkpt lat="42.3634400" lon="-8.6167050">
        <ele>95.2</ele>
        <time>2022-06-18T12:48:47Z</time>
      </trkpt>
      <trkpt lat="42.3634550" lon="-8.6167010">
        <ele>95.2</ele>
        <time>2022-06-18T12:48:48Z</time>
      </trkpt>
      <trkpt lat="42.3634710" lon="-8.6167030">
        <ele>95.2</ele>
        <time>2022-06-18T12:48:49Z</time>
      </trkpt>
      <trkpt lat="42.3634760" lon="-8.6167050">
        <ele>95.6</ele>
        <time>2022-06-18T12:48:50Z</time>
      </trkpt>
      <trkpt lat="42.3634880" lon="-8.6167110">
        <ele>95.6</ele>
        <time>2022-06-18T12:48:51Z</time>
      </trkpt>
      <trkpt lat="42.3635080" lon="-8.6167160">
        <ele>95.6</ele>
        <time>2022-06-18T12:48:52Z</time>
      </trkpt>
      <trkpt lat="42.3635260" lon="-8.6167210">
        <ele>95.6</ele>
        <time>2022-06-18T12:48:53Z</time>
      </trkpt>
      <trkpt lat="42.3635400" lon="-8.6167280">
        <ele>96.4</ele>
        <time>2022-06-18T12:48:54Z</time>
      </trkpt>
      <trkpt lat="42.3635510" lon="-8.6167330">
        <ele>96.4</ele>
        <time>2022-06-18T12:48:55Z</time>
      </trkpt>
      <trkpt lat="42.3635660" lon="-8.6167410">
        <ele>96.4</ele>
        <time>2022-06-18T12:48:56Z</time>
      </trkpt>
      <trkpt lat="42.3635750" lon="-8.6167450">
        <ele>96.4</ele>
        <time>2022-06-18T12:48:57Z</time>
      </trkpt>
      <trkpt lat="42.3635800" lon="-8.6167410">
        <ele>97.0</ele>
        <time>2022-06-18T12:48:58Z</time>
      </trkpt>
      <trkpt lat="42.3635950" lon="-8.6167400">
        <ele>97.0</ele>
        <time>2022-06-18T12:48:59Z</time>
      </trkpt>
      <trkpt lat="42.3636010" lon="-8.6167380">
        <ele>97.0</ele>
        <time>2022-06-18T12:49:00Z</time>
      </trkpt>
      <trkpt lat="42.3636150" lon="-8.6167380">
        <ele>97.6</ele>
        <time>2022-06-18T12:49:01Z</time>
      </trkpt>
      <trkpt lat="42.3636260" lon="-8.6167360">
        <ele>97.4</ele>
        <time>2022-06-18T12:49:02Z</time>
      </trkpt>
      <trkpt lat="42.3636380" lon="-8.6167350">
        <ele>97.4</ele>
        <time>2022-06-18T12:49:03Z</time>
      </trkpt>
      <trkpt lat="42.3636550" lon="-8.6167380">
        <ele>97.4</ele>
        <time>2022-06-18T12:49:04Z</time>
      </trkpt>
      <trkpt lat="42.3636700" lon="-8.6167400">
        <ele>97.4</ele>
        <time>2022-06-18T12:49:05Z</time>
      </trkpt>
      <trkpt lat="42.3636810" lon="-8.6167410">
        <ele>98.2</ele>
        <time>2022-06-18T12:49:06Z</time>
      </trkpt>
      <trkpt lat="42.3636930" lon="-8.6167430">
        <ele>98.2</ele>
        <time>2022-06-18T12:49:07Z</time>
      </trkpt>
      <trkpt lat="42.3637030" lon="-8.6167450">
        <ele>98.2</ele>
        <time>2022-06-18T12:49:08Z</time>
      </trkpt>
      <trkpt lat="42.3637160" lon="-8.6167480">
        <ele>98.6</ele>
        <time>2022-06-18T12:49:09Z</time>
      </trkpt>
      <trkpt lat="42.3637250" lon="-8.6167410">
        <ele>99.0</ele>
        <time>2022-06-18T12:49:10Z</time>
      </trkpt>
      <trkpt lat="42.3637360" lon="-8.6167410">
        <ele>99.0</ele>
        <time>2022-06-18T12:49:11Z</time>
      </trkpt>
      <trkpt lat="42.3639930" lon="-8.6166960">
        <ele>102.2</ele>
        <time>2022-06-18T12:49:28Z</time>
      </trkpt>
      <trkpt lat="42.3640080" lon="-8.6166860">
        <ele>102.2</ele>
        <time>2022-06-18T12:49:29Z</time>
      </trkpt>
      <trkpt lat="42.3640230" lon="-8.6166760">
        <ele>102.4</ele>
        <time>2022-06-18T12:49:30Z</time>
      </trkpt>
      <trkpt lat="42.3640400" lon="-8.6166660">
        <ele>102.4</ele>
        <time>2022-06-18T12:49:31Z</time>
      </trkpt>
      <trkpt lat="42.3640510" lon="-8.6166630">
        <ele>102.4</ele>
        <time>2022-06-18T12:49:32Z</time>
      </trkpt>
      <trkpt lat="42.3640580" lon="-8.6166580">
        <ele>103.4</ele>
        <time>2022-06-18T12:49:33Z</time>
      </trkpt>
      <trkpt lat="42.3640630" lon="-8.6166430">
        <ele>103.0</ele>
        <time>2022-06-18T12:49:34Z</time>
      </trkpt>
      <trkpt lat="42.3640730" lon="-8.6166360">
        <ele>103.0</ele>
        <time>2022-06-18T12:49:35Z</time>
      </trkpt>
      <trkpt lat="42.3640850" lon="-8.6166280">
        <ele>103.0</ele>
        <time>2022-06-18T12:49:36Z</time>
      </trkpt>
      <trkpt lat="42.3640950" lon="-8.6166210">
        <ele>103.0</ele>
        <time>2022-06-18T12:49:37Z</time>
      </trkpt>
      <trkpt lat="42.3641030" lon="-8.6166130">
        <ele>103.2</ele>
        <time>2022-06-18T12:49:38Z</time>
      </trkpt>
      <trkpt lat="42.3641130" lon="-8.6166030">
        <ele>103.2</ele>
        <time>2022-06-18T12:49:39Z</time>
      </trkpt>
      <trkpt lat="42.3641310" lon="-8.6166000">
        <ele>103.2</ele>
        <time>2022-06-18T12:49:40Z</time>
      </trkpt>
      <trkpt lat="42.3641510" lon="-8.6166000">
        <ele>103.6</ele>
        <time>2022-06-18T12:49:41Z</time>
      </trkpt>
      <trkpt lat="42.3641700" lon="-8.6166000">
        <ele>103.6</ele>
        <time>2022-06-18T12:49:42Z</time>
      </trkpt>
      <trkpt lat="42.3641850" lon="-8.6166000">
        <ele>103.6</ele>
        <time>2022-06-18T12:49:43Z</time>
      </trkpt>
      <trkpt lat="42.3642000" lon="-8.6165980">
        <ele>103.6</ele>
        <time>2022-06-18T12:49:44Z</time>
      </trkpt>
      <trkpt lat="42.3642100" lon="-8.6165900">
        <ele>103.8</ele>
        <time>2022-06-18T12:49:45Z</time>
      </trkpt>
      <trkpt lat="42.3642230" lon="-8.6165850">
        <ele>103.4</ele>
        <time>2022-06-18T12:49:46Z</time>
      </trkpt>
      <trkpt lat="42.3642330" lon="-8.6165760">
        <ele>103.4</ele>
        <time>2022-06-18T12:49:47Z</time>
      </trkpt>
      <trkpt lat="42.3642450" lon="-8.6165760">
        <ele>103.4</ele>
        <time>2022-06-18T12:49:48Z</time>
      </trkpt>
      <trkpt lat="42.3642560" lon="-8.6165760">
        <ele>104.4</ele>
        <time>2022-06-18T12:49:49Z</time>
      </trkpt>
      <trkpt lat="42.3642700" lon="-8.6165730">
        <ele>104.6</ele>
        <time>2022-06-18T12:49:50Z</time>
      </trkpt>
      <trkpt lat="42.3642880" lon="-8.6165680">
        <ele>104.6</ele>
        <time>2022-06-18T12:49:51Z</time>
      </trkpt>
      <trkpt lat="42.3643030" lon="-8.6165660">
        <ele>104.6</ele>
        <time>2022-06-18T12:49:52Z</time>
      </trkpt>
      <trkpt lat="42.3643200" lon="-8.6165660">
        <ele>104.6</ele>
        <time>2022-06-18T12:49:53Z</time>
      </trkpt>
      <trkpt lat="42.3643400" lon="-8.6165660">
        <ele>104.8</ele>
        <time>2022-06-18T12:49:54Z</time>
      </trkpt>
      <trkpt lat="42.3643600" lon="-8.6165710">
        <ele>104.8</ele>
        <time>2022-06-18T12:49:55Z</time>
      </trkpt>
      <trkpt lat="42.3643780" lon="-8.6165680">
        <ele>104.8</ele>
        <time>2022-06-18T12:49:56Z</time>
      </trkpt>
      <trkpt lat="42.3643910" lon="-8.6165680">
        <ele>104.8</ele>
        <time>2022-06-18T12:49:57Z</time>
      </trkpt>
      <trkpt lat="42.3644050" lon="-8.6165660">
        <ele>105.2</ele>
        <time>2022-06-18T12:49:58Z</time>
      </trkpt>
      <trkpt lat="42.3644150" lon="-8.6165610">
        <ele>105.2</ele>
        <time>2022-06-18T12:49:59Z</time>
      </trkpt>
      <trkpt lat="42.3644180" lon="-8.6165550">
        <ele>105.2</ele>
        <time>2022-06-18T12:50:00Z</time>
      </trkpt>
      <trkpt lat="42.3644250" lon="-8.6165550">
        <ele>105.8</ele>
        <time>2022-06-18T12:50:01Z</time>
      </trkpt>
      <trkpt lat="42.3644400" lon="-8.6165560">
        <ele>105.8</ele>
        <time>2022-06-18T12:50:02Z</time>
      </trkpt>
      <trkpt lat="42.3644580" lon="-8.6165560">
        <ele>105.8</ele>
        <time>2022-06-18T12:50:03Z</time>
      </trkpt>
      <trkpt lat="42.3644710" lon="-8.6165550">
        <ele>105.8</ele>
        <time>2022-06-18T12:50:04Z</time>
      </trkpt>
      <trkpt lat="42.3644880" lon="-8.6165560">
        <ele>105.8</ele>
        <time>2022-06-18T12:50:05Z</time>
      </trkpt>
      <trkpt lat="42.3645000" lon="-8.6165600">
        <ele>106.0</ele>
        <time>2022-06-18T12:50:06Z</time>
      </trkpt>
      <trkpt lat="42.3645060" lon="-8.6165600">
        <ele>106.0</ele>
        <time>2022-06-18T12:50:07Z</time>
      </trkpt>
      <trkpt lat="42.3645150" lon="-8.6165550">
        <ele>106.0</ele>
        <time>2022-06-18T12:50:08Z</time>
      </trkpt>
      <trkpt lat="42.3645230" lon="-8.6165460">
        <ele>106.0</ele>
        <time>2022-06-18T12:50:09Z</time>
      </trkpt>
      <trkpt lat="42.3645330" lon="-8.6165430">
        <ele>106.2</ele>
        <time>2022-06-18T12:50:10Z</time>
      </trkpt>
      <trkpt lat="42.3645510" lon="-8.6165380">
        <ele>106.2</ele>
        <time>2022-06-18T12:50:11Z</time>
      </trkpt>
      <trkpt lat="42.3645700" lon="-8.6165300">
        <ele>106.2</ele>
        <time>2022-06-18T12:50:12Z</time>
      </trkpt>
      <trkpt lat="42.3645800" lon="-8.6165260">
        <ele>106.2</ele>
        <time>2022-06-18T12:50:13Z</time>
      </trkpt>
      <trkpt lat="42.3647660" lon="-8.6165550">
        <ele>104.8</ele>
        <time>2022-06-18T12:59:11Z</time>
      </trkpt>
      <trkpt lat="42.3647780" lon="-8.6165630">
        <ele>104.8</ele>
        <time>2022-06-18T12:59:12Z</time>
      </trkpt>
      <trkpt lat="42.3647880" lon="-8.6165680">
        <ele>104.8</ele>
        <time>2022-06-18T12:59:13Z</time>
      </trkpt>
      <trkpt lat="42.3648050" lon="-8.6165660">
        <ele>105.0</ele>
        <time>2022-06-18T12:59:14Z</time>
      </trkpt>
      <trkpt lat="42.3648150" lon="-8.6165710">
        <ele>105.0</ele>
        <time>2022-06-18T12:59:15Z</time>
      </trkpt>
      <trkpt lat="42.3648280" lon="-8.6165750">
        <ele>105.0</ele>
        <time>2022-06-18T12:59:16Z</time>
      </trkpt>
      <trkpt lat="42.3648350" lon="-8.6165800">
        <ele>105.0</ele>
        <time>2022-06-18T12:59:17Z</time>
      </trkpt>
      <trkpt lat="42.3648410" lon="-8.6165850">
        <ele>105.0</ele>
        <time>2022-06-18T12:59:18Z</time>
      </trkpt>
      <trkpt lat="42.3648530" lon="-8.6165880">
        <ele>105.0</ele>
        <time>2022-06-18T12:59:19Z</time>
      </trkpt>
      <trkpt lat="42.3648630" lon="-8.6165880">
        <ele>105.0</ele>
        <time>2022-06-18T12:59:20Z</time>
      </trkpt>
      <trkpt lat="42.3648730" lon="-8.6165950">
        <ele>105.6</ele>
        <time>2022-06-18T12:59:21Z</time>
      </trkpt>
      <trkpt lat="42.3648810" lon="-8.6166000">
        <ele>105.6</ele>
        <time>2022-06-18T12:59:22Z</time>
      </trkpt>
      <trkpt lat="42.3648910" lon="-8.6166060">
        <ele>105.6</ele>
        <time>2022-06-18T12:59:23Z</time>
      </trkpt>
      <trkpt lat="42.3649000" lon="-8.6166080">
        <ele>105.6</ele>
        <time>2022-06-18T12:59:24Z</time>
      </trkpt>
      <trkpt lat="42.3649100" lon="-8.6166100">
        <ele>106.0</ele>
        <time>2022-06-18T12:59:25Z</time>
      </trkpt>
      <trkpt lat="42.3649180" lon="-8.6166130">
        <ele>106.2</ele>
        <time>2022-06-18T12:59:26Z</time>
      </trkpt>
      <trkpt lat="42.3649250" lon="-8.6166160">
        <ele>106.2</ele>
        <time>2022-06-18T12:59:27Z</time>
      </trkpt>
      <trkpt lat="42.3649330" lon="-8.6166210">
        <ele>106.2</ele>
        <time>2022-06-18T12:59:28Z</time>
      </trkpt>
      <trkpt lat="42.3649380" lon="-8.6166280">
        <ele>106.6</ele>
        <time>2022-06-18T12:59:29Z</time>
      </trkpt>
      <trkpt lat="42.3649450" lon="-8.6166360">
        <ele>106.2</ele>
        <time>2022-06-18T12:59:30Z</time>
      </trkpt>
      <trkpt lat="42.3649510" lon="-8.6166410">
        <ele>106.2</ele>
        <time>2022-06-18T12:59:31Z</time>
      </trkpt>
      <trkpt lat="42.3649600" lon="-8.6166500">
        <ele>106.2</ele>
        <time>2022-06-18T12:59:32Z</time>
      </trkpt>
      <trkpt lat="42.3649650" lon="-8.6166580">
        <ele>107.0</ele>
        <time>2022-06-18T12:59:33Z</time>
      </trkpt>
      <trkpt lat="42.3649700" lon="-8.6166610">
        <ele>107.6</ele>
        <time>2022-06-18T12:59:34Z</time>
      </trkpt>
      <trkpt lat="42.3649810" lon="-8.6166700">
        <ele>107.6</ele>
        <time>2022-06-18T12:59:35Z</time>
      </trkpt>
      <trkpt lat="42.3649860" lon="-8.6166730">
        <ele>107.6</ele>
        <time>2022-06-18T12:59:36Z</time>
      </trkpt>
      <trkpt lat="42.3649950" lon="-8.6166810">
        <ele>107.6</ele>
        <time>2022-06-18T12:59:37Z</time>
      </trkpt>
      <trkpt lat="42.3650000" lon="-8.6166860">
        <ele>108.2</ele>
        <time>2022-06-18T12:59:38Z</time>
      </trkpt>
      <trkpt lat="42.3650010" lon="-8.6166960">
        <ele>108.2</ele>
        <time>2022-06-18T12:59:39Z</time>
      </trkpt>
      <trkpt lat="42.3650080" lon="-8.6167130">
        <ele>108.2</ele>
        <time>2022-06-18T12:59:40Z</time>
      </trkpt>
      <trkpt lat="42.3650200" lon="-8.6167200">
        <ele>108.2</ele>
        <time>2022-06-18T12:59:41Z</time>
      </trkpt>
      <trkpt lat="42.3650260" lon="-8.6167260">
        <ele>108.4</ele>
        <time>2022-06-18T12:59:42Z</time>
      </trkpt>
      <trkpt lat="42.3650350" lon="-8.6167380">
        <ele>108.4</ele>
        <time>2022-06-18T12:59:43Z</time>
      </trkpt>
      <trkpt lat="42.3650410" lon="-8.6167460">
        <ele>108.4</ele>
        <time>2022-06-18T12:59:44Z</time>
      </trkpt>
      <trkpt lat="42.3650460" lon="-8.6167560">
        <ele>108.4</ele>
        <time>2022-06-18T12:59:45Z</time>
      </trkpt>
      <trkpt lat="42.3650510" lon="-8.6167610">
        <ele>109.2</ele>
        <time>2022-06-18T12:59:46Z</time>
      </trkpt>
      <trkpt lat="42.3650600" lon="-8.6167610">
        <ele>109.2</ele>
        <time>2022-06-18T12:59:47Z</time>
      </trkpt>
      <trkpt lat="42.3650660" lon="-8.6167650">
        <ele>109.2</ele>
        <time>2022-06-18T12:59:48Z</time>
      </trkpt>
      <trkpt lat="42.3650750" lon="-8.6167700">
        <ele>109.2</ele>
        <time>2022-06-18T12:59:49Z</time>
      </trkpt>
      <trkpt lat="42.3650850" lon="-8.6167760">
        <ele>110.0</ele>
        <time>2022-06-18T12:59:50Z</time>
      </trkpt>
      <trkpt lat="42.3650960" lon="-8.6167830">
        <ele>110.0</ele>
        <time>2022-06-18T12:59:51Z</time>
      </trkpt>
      <trkpt lat="42.3650980" lon="-8.6167860">
        <ele>110.0</ele>
        <time>2022-06-18T12:59:52Z</time>
      </trkpt>
      <trkpt lat="42.3650980" lon="-8.6167860">
        <ele>110.2</ele>
        <time>2022-06-18T12:59:53Z</time>
      </trkpt>
      <trkpt lat="42.3651110" lon="-8.6167950">
        <ele>110.8</ele>
        <time>2022-06-18T12:59:54Z</time>
      </trkpt>
      <trkpt lat="42.3652500" lon="-8.6169700">
        <ele>114.8</ele>
        <time>2022-06-18T13:00:18Z</time>
      </trkpt>
      <trkpt lat="42.3652460" lon="-8.6169810">
        <ele>114.8</ele>
        <time>2022-06-18T13:00:19Z</time>
      </trkpt>
      <trkpt lat="42.3652450" lon="-8.6169900">
        <ele>114.8</ele>
        <time>2022-06-18T13:00:20Z</time>
      </trkpt>
      <trkpt lat="42.3652400" lon="-8.6169930">
        <ele>114.8</ele>
        <time>2022-06-18T13:00:21Z</time>
      </trkpt>
      <trkpt lat="42.3652400" lon="-8.6170000">
        <ele>114.6</ele>
        <time>2022-06-18T13:00:22Z</time>
      </trkpt>
      <trkpt lat="42.3652360" lon="-8.6170130">
        <ele>114.6</ele>
        <time>2022-06-18T13:00:23Z</time>
      </trkpt>
      <trkpt lat="42.3652330" lon="-8.6170180">
        <ele>114.6</ele>
        <time>2022-06-18T13:00:24Z</time>
      </trkpt>
      <trkpt lat="42.3652260" lon="-8.6170250">
        <ele>115.6</ele>
        <time>2022-06-18T13:00:25Z</time>
      </trkpt>
      <trkpt lat="42.3652200" lon="-8.6170280">
        <ele>115.8</ele>
        <time>2022-06-18T13:00:26Z</time>
      </trkpt>
      <trkpt lat="42.3652150" lon="-8.6170310">
        <ele>115.8</ele>
        <time>2022-06-18T13:00:27Z</time>
      </trkpt>
      <trkpt lat="42.3652100" lon="-8.6170360">
        <ele>115.8</ele>
        <time>2022-06-18T13:00:28Z</time>
      </trkpt>
      <trkpt lat="42.3652030" lon="-8.6170450">
        <ele>116.0</ele>
        <time>2022-06-18T13:00:29Z</time>
      </trkpt>
      <trkpt lat="42.3651960" lon="-8.6170510">
        <ele>116.8</ele>
        <time>2022-06-18T13:00:30Z</time>
      </trkpt>
      <trkpt lat="42.3651910" lon="-8.6170560">
        <ele>116.8</ele>
        <time>2022-06-18T13:00:31Z</time>
      </trkpt>
      <trkpt lat="42.3651880" lon="-8.6170600">
        <ele>116.8</ele>
        <time>2022-06-18T13:00:32Z</time>
      </trkpt>
      <trkpt lat="42.3651860" lon="-8.6170650">
        <ele>116.8</ele>
        <time>2022-06-18T13:00:33Z</time>
      </trkpt>
      <trkpt lat="42.3651860" lon="-8.6170650">
        <ele>117.0</ele>
        <time>2022-06-18T13:00:34Z</time>
      </trkpt>
      <trkpt lat="42.3651860" lon="-8.6170650">
        <ele>117.0</ele>
        <time>2022-06-18T13:00:35Z</time>
      </trkpt>
      <trkpt lat="42.3651430" lon="-8.6171610">
        <ele>118.4</ele>
        <time>2022-06-18T13:00:44Z</time>
      </trkpt>
      <trkpt lat="42.3651380" lon="-8.6171750">
        <ele>119.0</ele>
        <time>2022-06-18T13:00:45Z</time>
      </trkpt>
      <trkpt lat="42.3651350" lon="-8.6171860">
        <ele>118.8</ele>
        <time>2022-06-18T13:00:46Z</time>
      </trkpt>
      <trkpt lat="42.3651300" lon="-8.6172000">
        <ele>118.8</ele>
        <time>2022-06-18T13:00:47Z</time>
      </trkpt>
      <trkpt lat="42.3651300" lon="-8.6172130">
        <ele>118.8</ele>
        <time>2022-06-18T13:00:48Z</time>
      </trkpt>
      <trkpt lat="42.3651310" lon="-8.6172300">
        <ele>119.8</ele>
        <time>2022-06-18T13:00:49Z</time>
      </trkpt>
      <trkpt lat="42.3651360" lon="-8.6172450">
        <ele>120.2</ele>
        <time>2022-06-18T13:00:50Z</time>
      </trkpt>
      <trkpt lat="42.3651410" lon="-8.6172600">
        <ele>120.2</ele>
        <time>2022-06-18T13:00:51Z</time>
      </trkpt>
      <trkpt lat="42.3651410" lon="-8.6172750">
        <ele>120.2</ele>
        <time>2022-06-18T13:00:52Z</time>
      </trkpt>
      <trkpt lat="42.3651380" lon="-8.6172860">
        <ele>120.2</ele>
        <time>2022-06-18T13:00:53Z</time>
      </trkpt>
      <trkpt lat="42.3651400" lon="-8.6172980">
        <ele>120.4</ele>
        <time>2022-06-18T13:00:54Z</time>
      </trkpt>
      <trkpt lat="42.3651400" lon="-8.6173100">
        <ele>120.4</ele>
        <time>2022-06-18T13:00:55Z</time>
      </trkpt>
      <trkpt lat="42.3651350" lon="-8.6173230">
        <ele>120.4</ele>
        <time>2022-06-18T13:00:56Z</time>
      </trkpt>
      <trkpt lat="42.3651330" lon="-8.6173380">
        <ele>120.8</ele>
        <time>2022-06-18T13:00:57Z</time>
      </trkpt>
      <trkpt lat="42.3651300" lon="-8.6173480">
        <ele>121.0</ele>
        <time>2022-06-18T13:00:58Z</time>
      </trkpt>
      <trkpt lat="42.3651200" lon="-8.6173580">
        <ele>121.0</ele>
        <time>2022-06-18T13:00:59Z</time>
      </trkpt>
      <trkpt lat="42.3651130" lon="-8.6173730">
        <ele>121.0</ele>
        <time>2022-06-18T13:01:00Z</time>
      </trkpt>
      <trkpt lat="42.3651110" lon="-8.6173900">
        <ele>120.4</ele>
        <time>2022-06-18T13:01:01Z</time>
      </trkpt>
      <trkpt lat="42.3651050" lon="-8.6174030">
        <ele>120.8</ele>
        <time>2022-06-18T13:01:02Z</time>
      </trkpt>
      <trkpt lat="42.3650980" lon="-8.6174100">
        <ele>120.8</ele>
        <time>2022-06-18T13:01:03Z</time>
      </trkpt>
      <trkpt lat="42.3650900" lon="-8.6174200">
        <ele>120.8</ele>
        <time>2022-06-18T13:01:04Z</time>
      </trkpt>
      <trkpt lat="42.3650830" lon="-8.6174230">
        <ele>120.8</ele>
        <time>2022-06-18T13:01:05Z</time>
      </trkpt>
      <trkpt lat="42.3650800" lon="-8.6174250">
        <ele>120.4</ele>
        <time>2022-06-18T13:01:06Z</time>
      </trkpt>
      <trkpt lat="42.3650800" lon="-8.6174250">
        <ele>120.4</ele>
        <time>2022-06-18T13:01:07Z</time>
      </trkpt>
      <trkpt lat="42.3650780" lon="-8.6174330">
        <ele>120.4</ele>
        <time>2022-06-18T13:01:08Z</time>
      </trkpt>
      <trkpt lat="42.3650680" lon="-8.6174410">
        <ele>121.0</ele>
        <time>2022-06-18T13:01:09Z</time>
      </trkpt>
      <trkpt lat="42.3650560" lon="-8.6174460">
        <ele>121.0</ele>
        <time>2022-06-18T13:01:10Z</time>
      </trkpt>
      <trkpt lat="42.3650480" lon="-8.6174500">
        <ele>121.0</ele>
        <time>2022-06-18T13:01:11Z</time>
      </trkpt>
      <trkpt lat="42.3650380" lon="-8.6174580">
        <ele>121.0</ele>
        <time>2022-06-18T13:01:12Z</time>
      </trkpt>
      <trkpt lat="42.3650210" lon="-8.6174650">
        <ele>121.0</ele>
        <time>2022-06-18T13:01:13Z</time>
      </trkpt>
      <trkpt lat="42.3650100" lon="-8.6174710">
        <ele>121.6</ele>
        <time>2022-06-18T13:01:14Z</time>
      </trkpt>
      <trkpt lat="42.3649980" lon="-8.6174800">
        <ele>121.6</ele>
        <time>2022-06-18T13:01:15Z</time>
      </trkpt>
      <trkpt lat="42.3649860" lon="-8.6174910">
        <ele>121.6</ele>
        <time>2022-06-18T13:01:16Z</time>
      </trkpt>
      <trkpt lat="42.3649710" lon="-8.6175010">
        <ele>121.6</ele>
        <time>2022-06-18T13:01:17Z</time>
      </trkpt>
      <trkpt lat="42.3649600" lon="-8.6175110">
        <ele>121.8</ele>
        <time>2022-06-18T13:01:18Z</time>
      </trkpt>
      <trkpt lat="42.3649530" lon="-8.6175200">
        <ele>121.8</ele>
        <time>2022-06-18T13:01:19Z</time>
      </trkpt>
      <trkpt lat="42.3649410" lon="-8.6175250">
        <ele>121.8</ele>
        <time>2022-06-18T13:01:20Z</time>
      </trkpt>
      <trkpt lat="42.3649260" lon="-8.6175360">
        <ele>122.4</ele>
        <time>2022-06-18T13:01:21Z</time>
      </trkpt>
      <trkpt lat="42.3649130" lon="-8.6175510">
        <ele>122.0</ele>
        <time>2022-06-18T13:01:22Z</time>
      </trkpt>
      <trkpt lat="42.3649050" lon="-8.6175700">
        <ele>122.0</ele>
        <time>2022-06-18T13:01:23Z</time>
      </trkpt>
      <trkpt lat="42.3648930" lon="-8.6175880">
        <ele>122.0</ele>
        <time>2022-06-18T13:01:24Z</time>
      </trkpt>
      <trkpt lat="42.3648780" lon="-8.6176010">
        <ele>122.0</ele>
        <time>2022-06-18T13:01:25Z</time>
      </trkpt>
      <trkpt lat="42.3648580" lon="-8.6176130">
        <ele>121.6</ele>
        <time>2022-06-18T13:01:26Z</time>
      </trkpt>
      <trkpt lat="42.3648430" lon="-8.6176230">
        <ele>121.6</ele>
        <time>2022-06-18T13:01:27Z</time>
      </trkpt>
      <trkpt lat="42.3648260" lon="-8.6176330">
        <ele>121.6</ele>
        <time>2022-06-18T13:01:28Z</time>
      </trkpt>
      <trkpt lat="42.3648150" lon="-8.6176450">
        <ele>122.0</ele>
        <time>2022-06-18T13:01:29Z</time>
      </trkpt>
      <trkpt lat="42.3647950" lon="-8.6176500">
        <ele>122.0</ele>
        <time>2022-06-18T13:01:30Z</time>
      </trkpt>
      <trkpt lat="42.3647780" lon="-8.6176580">
        <ele>122.0</ele>
        <time>2022-06-18T13:01:31Z</time>
      </trkpt>
      <trkpt lat="42.3647600" lon="-8.6176680">
        <ele>122.0</ele>
        <time>2022-06-18T13:01:32Z</time>
      </trkpt>
      <trkpt lat="42.3647430" lon="-8.6176710">
        <ele>122.4</ele>
        <time>2022-06-18T13:01:33Z</time>
      </trkpt>
      <trkpt lat="42.3647210" lon="-8.6176730">
        <ele>122.6</ele>
        <time>2022-06-18T13:01:34Z</time>
      </trkpt>
      <trkpt lat="42.3647030" lon="-8.6176800">
        <ele>122.6</ele>
        <time>2022-06-18T13:01:35Z</time>
      </trkpt>
      <trkpt lat="42.3646900" lon="-8.6176860">
        <ele>122.6</ele>
        <time>2022-06-18T13:01:36Z</time>
      </trkpt>
      <trkpt lat="42.3646760" lon="-8.6176860">
        <ele>122.6</ele>
        <time>2022-06-18T13:01:37Z</time>
      </trkpt>
      <trkpt lat="42.3646600" lon="-8.6176860">
        <ele>123.0</ele>
        <time>2022-06-18T13:01:38Z</time>
      </trkpt>
      <trkpt lat="42.3646430" lon="-8.6176900">
        <ele>123.0</ele>
        <time>2022-06-18T13:01:39Z</time>
      </trkpt>
      <trkpt lat="42.3646260" lon="-8.6176910">
        <ele>123.0</ele>
        <time>2022-06-18T13:01:40Z</time>
      </trkpt>
      <trkpt lat="42.3646100" lon="-8.6176930">
        <ele>123.0</ele>
        <time>2022-06-18T13:01:41Z</time>
      </trkpt>
      <trkpt lat="42.3646000" lon="-8.6177010">
        <ele>123.4</ele>
        <time>2022-06-18T13:01:42Z</time>
      </trkpt>
      <trkpt lat="42.3645850" lon="-8.6177030">
        <ele>123.4</ele>
        <time>2022-06-18T13:01:43Z</time>
      </trkpt>
      <trkpt lat="42.3645710" lon="-8.6177050">
        <ele>123.4</ele>
        <time>2022-06-18T13:01:44Z</time>
      </trkpt>
      <trkpt lat="42.3645550" lon="-8.6177050">
        <ele>123.4</ele>
        <time>2022-06-18T13:01:45Z</time>
      </trkpt>
      <trkpt lat="42.3645330" lon="-8.6177180">
        <ele>123.6</ele>
        <time>2022-06-18T13:01:46Z</time>
      </trkpt>
      <trkpt lat="42.3645160" lon="-8.6177250">
        <ele>123.6</ele>
        <time>2022-06-18T13:01:47Z</time>
      </trkpt>
      <trkpt lat="42.3644980" lon="-8.6177350">
        <ele>123.6</ele>
        <time>2022-06-18T13:01:48Z</time>
      </trkpt>
      <trkpt lat="42.3644750" lon="-8.6177380">
        <ele>123.6</ele>
        <time>2022-06-18T13:01:49Z</time>
      </trkpt>
      <trkpt lat="42.3644530" lon="-8.6177410">
        <ele>123.6</ele>
        <time>2022-06-18T13:01:50Z</time>
      </trkpt>
      <trkpt lat="42.3644330" lon="-8.6177450">
        <ele>123.6</ele>
        <time>2022-06-18T13:01:51Z</time>
      </trkpt>
      <trkpt lat="42.3644160" lon="-8.6177510">
        <ele>123.6</ele>
        <time>2022-06-18T13:01:52Z</time>
      </trkpt>
      <trkpt lat="42.3643980" lon="-8.6177630">
        <ele>123.6</ele>
        <time>2022-06-18T13:01:53Z</time>
      </trkpt>
      <trkpt lat="42.3643800" lon="-8.6177660">
        <ele>123.6</ele>
        <time>2022-06-18T13:01:54Z</time>
      </trkpt>
      <trkpt lat="42.3643610" lon="-8.6177700">
        <ele>123.6</ele>
        <time>2022-06-18T13:01:55Z</time>
      </trkpt>
      <trkpt lat="42.3643450" lon="-8.6177760">
        <ele>123.6</ele>
        <time>2022-06-18T13:01:56Z</time>
      </trkpt>
      <trkpt lat="42.3643360" lon="-8.6177810">
        <ele>124.0</ele>
        <time>2022-06-18T13:01:57Z</time>
      </trkpt>
      <trkpt lat="42.3643310" lon="-8.6177900">
        <ele>124.4</ele>
        <time>2022-06-18T13:01:58Z</time>
      </trkpt>
      <trkpt lat="42.3643300" lon="-8.6178000">
        <ele>124.4</ele>
        <time>2022-06-18T13:01:59Z</time>
      </trkpt>
      <trkpt lat="42.3643350" lon="-8.6178150">
        <ele>124.4</ele>
        <time>2022-06-18T13:02:00Z</time>
      </trkpt>
      <trkpt lat="42.3643450" lon="-8.6178330">
        <ele>125.2</ele>
        <time>2022-06-18T13:02:01Z</time>
      </trkpt>
      <trkpt lat="42.3643510" lon="-8.6178460">
        <ele>125.0</ele>
        <time>2022-06-18T13:02:02Z</time>
      </trkpt>
      <trkpt lat="42.3643550" lon="-8.6178680">
        <ele>125.0</ele>
        <time>2022-06-18T13:02:03Z</time>
      </trkpt>
      <trkpt lat="42.3643600" lon="-8.6178860">
        <ele>125.0</ele>
        <time>2022-06-18T13:02:04Z</time>
      </trkpt>
      <trkpt lat="42.3643660" lon="-8.6179000">
        <ele>126.0</ele>
        <time>2022-06-18T13:02:05Z</time>
      </trkpt>
      <trkpt lat="42.3643680" lon="-8.6179160">
        <ele>125.2</ele>
        <time>2022-06-18T13:02:06Z</time>
      </trkpt>
      <trkpt lat="42.3643710" lon="-8.6179300">
        <ele>125.2</ele>
        <time>2022-06-18T13:02:07Z</time>
      </trkpt>
      <trkpt lat="42.3643760" lon="-8.6179400">
        <ele>125.2</ele>
        <time>2022-06-18T13:02:08Z</time>
      </trkpt>
      <trkpt lat="42.3643810" lon="-8.6179460">
        <ele>126.2</ele>
        <time>2022-06-18T13:02:09Z</time>
      </trkpt>
      <trkpt lat="42.3643850" lon="-8.6179610">
        <ele>127.0</ele>
        <time>2022-06-18T13:02:10Z</time>
      </trkpt>
      <trkpt lat="42.3643930" lon="-8.6179730">
        <ele>127.0</ele>
        <time>2022-06-18T13:02:11Z</time>
      </trkpt>
      <trkpt lat="42.3644030" lon="-8.6179810">
        <ele>127.0</ele>
        <time>2022-06-18T13:02:12Z</time>
      </trkpt>
      <trkpt lat="42.3644110" lon="-8.6179930">
        <ele>127.4</ele>
        <time>2022-06-18T13:02:13Z</time>
      </trkpt>
      <trkpt lat="42.3644130" lon="-8.6180030">
        <ele>127.6</ele>
        <time>2022-06-18T13:02:14Z</time>
      </trkpt>
      <trkpt lat="42.3644200" lon="-8.6180080">
        <ele>127.6</ele>
        <time>2022-06-18T13:02:15Z</time>
      </trkpt>
      <trkpt lat="42.3644300" lon="-8.6180100">
        <ele>127.6</ele>
        <time>2022-06-18T13:02:16Z</time>
      </trkpt>
      <trkpt lat="42.3644380" lon="-8.6180110">
        <ele>128.6</ele>
        <time>2022-06-18T13:02:17Z</time>
      </trkpt>
      <trkpt lat="42.3644480" lon="-8.6180210">
        <ele>129.0</ele>
        <time>2022-06-18T13:02:18Z</time>
      </trkpt>
      <trkpt lat="42.3644510" lon="-8.6180310">
        <ele>129.0</ele>
        <time>2022-06-18T13:02:19Z</time>
      </trkpt>
      <trkpt lat="42.3644550" lon="-8.6180380">
        <ele>129.0</ele>
        <time>2022-06-18T13:02:20Z</time>
      </trkpt>
      <trkpt lat="42.3644660" lon="-8.6180450">
        <ele>129.0</ele>
        <time>2022-06-18T13:02:21Z</time>
      </trkpt>
      <trkpt lat="42.3644710" lon="-8.6180610">
        <ele>129.0</ele>
        <time>2022-06-18T13:02:22Z</time>
      </trkpt>
      <trkpt lat="42.3644710" lon="-8.6180750">
        <ele>129.0</ele>
        <time>2022-06-18T13:02:23Z</time>
      </trkpt>
      <trkpt lat="42.3644810" lon="-8.6180850">
        <ele>129.0</ele>
        <time>2022-06-18T13:02:24Z</time>
      </trkpt>
      <trkpt lat="42.3644960" lon="-8.6180900">
        <ele>130.0</ele>
        <time>2022-06-18T13:02:25Z</time>
      </trkpt>
      <trkpt lat="42.3644980" lon="-8.6180960">
        <ele>130.0</ele>
        <time>2022-06-18T13:02:26Z</time>
      </trkpt>
      <trkpt lat="42.3645030" lon="-8.6181030">
        <ele>130.0</ele>
        <time>2022-06-18T13:02:27Z</time>
      </trkpt>
      <trkpt lat="42.3645180" lon="-8.6181110">
        <ele>130.0</ele>
        <time>2022-06-18T13:02:28Z</time>
      </trkpt>
      <trkpt lat="42.3645300" lon="-8.6181200">
        <ele>130.0</ele>
        <time>2022-06-18T13:02:29Z</time>
      </trkpt>
      <trkpt lat="42.3645450" lon="-8.6181210">
        <ele>130.6</ele>
        <time>2022-06-18T13:02:30Z</time>
      </trkpt>
      <trkpt lat="42.3645560" lon="-8.6181250">
        <ele>130.6</ele>
        <time>2022-06-18T13:02:31Z</time>
      </trkpt>
      <trkpt lat="42.3645780" lon="-8.6181330">
        <ele>130.6</ele>
        <time>2022-06-18T13:02:32Z</time>
      </trkpt>
      <trkpt lat="42.3645960" lon="-8.6181400">
        <ele>130.6</ele>
        <time>2022-06-18T13:02:33Z</time>
      </trkpt>
      <trkpt lat="42.3646100" lon="-8.6181480">
        <ele>130.6</ele>
        <time>2022-06-18T13:02:34Z</time>
      </trkpt>
      <trkpt lat="42.3646210" lon="-8.6181530">
        <ele>130.6</ele>
        <time>2022-06-18T13:02:35Z</time>
      </trkpt>
      <trkpt lat="42.3646350" lon="-8.6181560">
        <ele>130.6</ele>
        <time>2022-06-18T13:02:36Z</time>
      </trkpt>
      <trkpt lat="42.3646480" lon="-8.6181610">
        <ele>131.2</ele>
        <time>2022-06-18T13:02:37Z</time>
      </trkpt>
      <trkpt lat="42.3646650" lon="-8.6181650">
        <ele>131.4</ele>
        <time>2022-06-18T13:02:38Z</time>
      </trkpt>
      <trkpt lat="42.3646760" lon="-8.6181650">
        <ele>131.4</ele>
        <time>2022-06-18T13:02:39Z</time>
      </trkpt>
      <trkpt lat="42.3646830" lon="-8.6181660">
        <ele>131.4</ele>
        <time>2022-06-18T13:02:40Z</time>
      </trkpt>
      <trkpt lat="42.3646960" lon="-8.6181700">
        <ele>131.4</ele>
        <time>2022-06-18T13:02:41Z</time>
      </trkpt>
      <trkpt lat="42.3647000" lon="-8.6181700">
        <ele>131.4</ele>
        <time>2022-06-18T13:02:42Z</time>
      </trkpt>
      <trkpt lat="42.3647060" lon="-8.6181730">
        <ele>131.4</ele>
        <time>2022-06-18T13:02:43Z</time>
      </trkpt>
      <trkpt lat="42.3647180" lon="-8.6181760">
        <ele>131.4</ele>
        <time>2022-06-18T13:02:44Z</time>
      </trkpt>
      <trkpt lat="42.3647230" lon="-8.6181750">
        <ele>131.4</ele>
        <time>2022-06-18T13:02:45Z</time>
      </trkpt>
      <trkpt lat="42.3647380" lon="-8.6181730">
        <ele>131.8</ele>
        <time>2022-06-18T13:02:46Z</time>
      </trkpt>
      <trkpt lat="42.3647550" lon="-8.6181730">
        <ele>131.8</ele>
        <time>2022-06-18T13:02:47Z</time>
      </trkpt>
      <trkpt lat="42.3647730" lon="-8.6181800">
        <ele>131.8</ele>
        <time>2022-06-18T13:02:48Z</time>
      </trkpt>
      <trkpt lat="42.3647910" lon="-8.6181780">
        <ele>132.0</ele>
        <time>2022-06-18T13:02:49Z</time>
      </trkpt>
      <trkpt lat="42.3648060" lon="-8.6181810">
        <ele>132.4</ele>
        <time>2022-06-18T13:02:50Z</time>
      </trkpt>
      <trkpt lat="42.3648250" lon="-8.6181880">
        <ele>132.4</ele>
        <time>2022-06-18T13:02:51Z</time>
      </trkpt>
      <trkpt lat="42.3648460" lon="-8.6181950">
        <ele>132.4</ele>
        <time>2022-06-18T13:02:52Z</time>
      </trkpt>
      <trkpt lat="42.3648710" lon="-8.6182030">
        <ele>132.4</ele>
        <time>2022-06-18T13:02:53Z</time>
      </trkpt>
      <trkpt lat="42.3648980" lon="-8.6182160">
        <ele>132.4</ele>
        <time>2022-06-18T13:02:54Z</time>
      </trkpt>
      <trkpt lat="42.3649130" lon="-8.6182260">
        <ele>132.4</ele>
        <time>2022-06-18T13:02:55Z</time>
      </trkpt>
      <trkpt lat="42.3649300" lon="-8.6182330">
        <ele>132.4</ele>
        <time>2022-06-18T13:02:56Z</time>
      </trkpt>
      <trkpt lat="42.3649500" lon="-8.6182410">
        <ele>133.2</ele>
        <time>2022-06-18T13:02:57Z</time>
      </trkpt>
      <trkpt lat="42.3649660" lon="-8.6182500">
        <ele>133.0</ele>
        <time>2022-06-18T13:02:58Z</time>
      </trkpt>
      <trkpt lat="42.3649830" lon="-8.6182580">
        <ele>133.0</ele>
        <time>2022-06-18T13:02:59Z</time>
      </trkpt>
      <trkpt lat="42.3650030" lon="-8.6182660">
        <ele>133.0</ele>
        <time>2022-06-18T13:03:00Z</time>
      </trkpt>
      <trkpt lat="42.3650180" lon="-8.6182710">
        <ele>133.0</ele>
        <time>2022-06-18T13:03:01Z</time>
      </trkpt>
      <trkpt lat="42.3650330" lon="-8.6182810">
        <ele>133.8</ele>
        <time>2022-06-18T13:03:02Z</time>
      </trkpt>
      <trkpt lat="42.3650500" lon="-8.6182900">
        <ele>133.8</ele>
        <time>2022-06-18T13:03:03Z</time>
      </trkpt>
      <trkpt lat="42.3650680" lon="-8.6182950">
        <ele>133.8</ele>
        <time>2022-06-18T13:03:04Z</time>
      </trkpt>
      <trkpt lat="42.3650880" lon="-8.6183010">
        <ele>133.8</ele>
        <time>2022-06-18T13:03:05Z</time>
      </trkpt>
      <trkpt lat="42.3651050" lon="-8.6183060">
        <ele>134.0</ele>
        <time>2022-06-18T13:03:06Z</time>
      </trkpt>
      <trkpt lat="42.3651230" lon="-8.6183130">
        <ele>134.0</ele>
        <time>2022-06-18T13:03:07Z</time>
      </trkpt>
      <trkpt lat="42.3651400" lon="-8.6183180">
        <ele>134.0</ele>
        <time>2022-06-18T13:03:08Z</time>
      </trkpt>
      <trkpt lat="42.3651580" lon="-8.6183250">
        <ele>134.6</ele>
        <time>2022-06-18T13:03:09Z</time>
      </trkpt>
      <trkpt lat="42.3651760" lon="-8.6183330">
        <ele>134.4</ele>
        <time>2022-06-18T13:03:10Z</time>
      </trkpt>
      <trkpt lat="42.3651910" lon="-8.6183430">
        <ele>134.4</ele>
        <time>2022-06-18T13:03:11Z</time>
      </trkpt>
      <trkpt lat="42.3652100" lon="-8.6183530">
        <ele>134.4</ele>
        <time>2022-06-18T13:03:12Z</time>
      </trkpt>
      <trkpt lat="42.3652260" lon="-8.6183630">
        <ele>135.0</ele>
        <time>2022-06-18T13:03:13Z</time>
      </trkpt>
      <trkpt lat="42.3652450" lon="-8.6183700">
        <ele>135.4</ele>
        <time>2022-06-18T13:03:14Z</time>
      </trkpt>
      <trkpt lat="42.3652610" lon="-8.6183800">
        <ele>135.4</ele>
        <time>2022-06-18T13:03:15Z</time>
      </trkpt>
      <trkpt lat="42.3652730" lon="-8.6183900">
        <ele>135.4</ele>
        <time>2022-06-18T13:03:16Z</time>
      </trkpt>
      <trkpt lat="42.3652880" lon="-8.6184000">
        <ele>135.4</ele>
        <time>2022-06-18T13:03:17Z</time>
      </trkpt>
      <trkpt lat="42.3653030" lon="-8.6184130">
        <ele>135.8</ele>
        <time>2022-06-18T13:03:18Z</time>
      </trkpt>
      <trkpt lat="42.3653180" lon="-8.6184260">
        <ele>135.8</ele>
        <time>2022-06-18T13:03:19Z</time>
      </trkpt>
      <trkpt lat="42.3653280" lon="-8.6184400">
        <ele>135.8</ele>
        <time>2022-06-18T13:03:20Z</time>
      </trkpt>
      <trkpt lat="42.3653410" lon="-8.6184510">
        <ele>136.2</ele>
        <time>2022-06-18T13:03:21Z</time>
      </trkpt>
      <trkpt lat="42.3653550" lon="-8.6184630">
        <ele>137.0</ele>
        <time>2022-06-18T13:03:22Z</time>
      </trkpt>
      <trkpt lat="42.3653680" lon="-8.6184710">
        <ele>137.0</ele>
        <time>2022-06-18T13:03:23Z</time>
      </trkpt>
      <trkpt lat="42.3653800" lon="-8.6184830">
        <ele>137.0</ele>
        <time>2022-06-18T13:03:24Z</time>
      </trkpt>
      <trkpt lat="42.3653960" lon="-8.6184910">
        <ele>137.0</ele>
        <time>2022-06-18T13:03:25Z</time>
      </trkpt>
      <trkpt lat="42.3654110" lon="-8.6184960">
        <ele>137.4</ele>
        <time>2022-06-18T13:03:26Z</time>
      </trkpt>
      <trkpt lat="42.3654230" lon="-8.6185050">
        <ele>137.4</ele>
        <time>2022-06-18T13:03:27Z</time>
      </trkpt>
      <trkpt lat="42.3654310" lon="-8.6185180">
        <ele>137.4</ele>
        <time>2022-06-18T13:03:28Z</time>
      </trkpt>
      <trkpt lat="42.3654460" lon="-8.6185300">
        <ele>138.0</ele>
        <time>2022-06-18T13:03:29Z</time>
      </trkpt>
      <trkpt lat="42.3654600" lon="-8.6185450">
        <ele>138.2</ele>
        <time>2022-06-18T13:03:30Z</time>
      </trkpt>
      <trkpt lat="42.3654750" lon="-8.6185610">
        <ele>138.2</ele>
        <time>2022-06-18T13:03:31Z</time>
      </trkpt>
      <trkpt lat="42.3654950" lon="-8.6185730">
        <ele>138.2</ele>
        <time>2022-06-18T13:03:32Z</time>
      </trkpt>
      <trkpt lat="42.3655130" lon="-8.6185850">
        <ele>138.2</ele>
        <time>2022-06-18T13:03:33Z</time>
      </trkpt>
      <trkpt lat="42.3655350" lon="-8.6185960">
        <ele>138.6</ele>
        <time>2022-06-18T13:03:34Z</time>
      </trkpt>
      <trkpt lat="42.3655510" lon="-8.6186110">
        <ele>138.6</ele>
        <time>2022-06-18T13:03:35Z</time>
      </trkpt>
      <trkpt lat="42.3655650" lon="-8.6186260">
        <ele>138.6</ele>
        <time>2022-06-18T13:03:36Z</time>
      </trkpt>
      <trkpt lat="42.3655730" lon="-8.6186460">
        <ele>138.6</ele>
        <time>2022-06-18T13:03:37Z</time>
      </trkpt>
      <trkpt lat="42.3655880" lon="-8.6186680">
        <ele>139.0</ele>
        <time>2022-06-18T13:03:38Z</time>
      </trkpt>
      <trkpt lat="42.3656010" lon="-8.6186880">
        <ele>139.0</ele>
        <time>2022-06-18T13:03:39Z</time>
      </trkpt>
      <trkpt lat="42.3656130" lon="-8.6187060">
        <ele>139.0</ele>
        <time>2022-06-18T13:03:40Z</time>
      </trkpt>
      <trkpt lat="42.3656260" lon="-8.6187230">
        <ele>139.0</ele>
        <time>2022-06-18T13:03:41Z</time>
      </trkpt>
      <trkpt lat="42.3656400" lon="-8.6187400">
        <ele>139.2</ele>
        <time>2022-06-18T13:03:42Z</time>
      </trkpt>
      <trkpt lat="42.3656550" lon="-8.6187580">
        <ele>139.2</ele>
        <time>2022-06-18T13:03:43Z</time>
      </trkpt>
      <trkpt lat="42.3656660" lon="-8.6187750">
        <ele>139.2</ele>
        <time>2022-06-18T13:03:44Z</time>
      </trkpt>
      <trkpt lat="42.3656810" lon="-8.6187910">
        <ele>139.4</ele>
        <time>2022-06-18T13:03:45Z</time>
      </trkpt>
      <trkpt lat="42.3656950" lon="-8.6188110">
        <ele>139.6</ele>
        <time>2022-06-18T13:03:46Z</time>
      </trkpt>
      <trkpt lat="42.3657080" lon="-8.6188310">
        <ele>139.6</ele>
        <time>2022-06-18T13:03:47Z</time>
      </trkpt>
      <trkpt lat="42.3657210" lon="-8.6188530">
        <ele>139.6</ele>
        <time>2022-06-18T13:03:48Z</time>
      </trkpt>
      <trkpt lat="42.3657330" lon="-8.6188780">
        <ele>140.2</ele>
        <time>2022-06-18T13:03:49Z</time>
      </trkpt>
      <trkpt lat="42.3657430" lon="-8.6189010">
        <ele>140.2</ele>
        <time>2022-06-18T13:03:50Z</time>
      </trkpt>
      <trkpt lat="42.3657560" lon="-8.6189260">
        <ele>140.2</ele>
        <time>2022-06-18T13:03:51Z</time>
      </trkpt>
      <trkpt lat="42.3657700" lon="-8.6189460">
        <ele>140.2</ele>
        <time>2022-06-18T13:03:52Z</time>
      </trkpt>
      <trkpt lat="42.3657830" lon="-8.6189650">
        <ele>140.2</ele>
        <time>2022-06-18T13:03:53Z</time>
      </trkpt>
      <trkpt lat="42.3658000" lon="-8.6189830">
        <ele>140.8</ele>
        <time>2022-06-18T13:03:54Z</time>
      </trkpt>
      <trkpt lat="42.3658150" lon="-8.6190010">
        <ele>140.8</ele>
        <time>2022-06-18T13:03:55Z</time>
      </trkpt>
      <trkpt lat="42.3658310" lon="-8.6190200">
        <ele>140.8</ele>
        <time>2022-06-18T13:03:56Z</time>
      </trkpt>
      <trkpt lat="42.3658450" lon="-8.6190410">
        <ele>140.8</ele>
        <time>2022-06-18T13:03:57Z</time>
      </trkpt>
      <trkpt lat="42.3658610" lon="-8.6190600">
        <ele>141.0</ele>
        <time>2022-06-18T13:03:58Z</time>
      </trkpt>
      <trkpt lat="42.3658760" lon="-8.6190800">
        <ele>141.0</ele>
        <time>2022-06-18T13:03:59Z</time>
      </trkpt>
      <trkpt lat="42.3658910" lon="-8.6190980">
        <ele>141.0</ele>
        <time>2022-06-18T13:04:00Z</time>
      </trkpt>
      <trkpt lat="42.3659050" lon="-8.6191160">
        <ele>141.2</ele>
        <time>2022-06-18T13:04:01Z</time>
      </trkpt>
      <trkpt lat="42.3659200" lon="-8.6191350">
        <ele>141.2</ele>
        <time>2022-06-18T13:04:02Z</time>
      </trkpt>
      <trkpt lat="42.3659350" lon="-8.6191530">
        <ele>141.2</ele>
        <time>2022-06-18T13:04:03Z</time>
      </trkpt>
      <trkpt lat="42.3659500" lon="-8.6191710">
        <ele>141.2</ele>
        <time>2022-06-18T13:04:04Z</time>
      </trkpt>
      <trkpt lat="42.3659700" lon="-8.6191860">
        <ele>141.2</ele>
        <time>2022-06-18T13:04:05Z</time>
      </trkpt>
      <trkpt lat="42.3659880" lon="-8.6192030">
        <ele>141.6</ele>
        <time>2022-06-18T13:04:06Z</time>
      </trkpt>
      <trkpt lat="42.3660080" lon="-8.6192160">
        <ele>141.6</ele>
        <time>2022-06-18T13:04:07Z</time>
      </trkpt>
      <trkpt lat="42.3660300" lon="-8.6192300">
        <ele>141.6</ele>
        <time>2022-06-18T13:04:08Z</time>
      </trkpt>
      <trkpt lat="42.3660500" lon="-8.6192430">
        <ele>141.6</ele>
        <time>2022-06-18T13:04:09Z</time>
      </trkpt>
      <trkpt lat="42.3660700" lon="-8.6192550">
        <ele>141.8</ele>
        <time>2022-06-18T13:04:10Z</time>
      </trkpt>
      <trkpt lat="42.3660880" lon="-8.6192650">
        <ele>141.8</ele>
        <time>2022-06-18T13:04:11Z</time>
      </trkpt>
      <trkpt lat="42.3661080" lon="-8.6192750">
        <ele>141.8</ele>
        <time>2022-06-18T13:04:12Z</time>
      </trkpt>
      <trkpt lat="42.3661280" lon="-8.6192860">
        <ele>141.8</ele>
        <time>2022-06-18T13:04:13Z</time>
      </trkpt>
      <trkpt lat="42.3661500" lon="-8.6193010">
        <ele>142.4</ele>
        <time>2022-06-18T13:04:14Z</time>
      </trkpt>
      <trkpt lat="42.3661680" lon="-8.6193130">
        <ele>142.4</ele>
        <time>2022-06-18T13:04:15Z</time>
      </trkpt>
      <trkpt lat="42.3661860" lon="-8.6193250">
        <ele>142.4</ele>
        <time>2022-06-18T13:04:16Z</time>
      </trkpt>
      <trkpt lat="42.3662000" lon="-8.6193330">
        <ele>142.4</ele>
        <time>2022-06-18T13:04:17Z</time>
      </trkpt>
      <trkpt lat="42.3662130" lon="-8.6193410">
        <ele>142.8</ele>
        <time>2022-06-18T13:04:18Z</time>
      </trkpt>
      <trkpt lat="42.3662230" lon="-8.6193500">
        <ele>142.8</ele>
        <time>2022-06-18T13:04:19Z</time>
      </trkpt>
      <trkpt lat="42.3662350" lon="-8.6193560">
        <ele>142.8</ele>
        <time>2022-06-18T13:04:20Z</time>
      </trkpt>
      <trkpt lat="42.3662400" lon="-8.6193580">
        <ele>142.8</ele>
        <time>2022-06-18T13:04:21Z</time>
      </trkpt>
      <trkpt lat="42.3662400" lon="-8.6193630">
        <ele>143.8</ele>
        <time>2022-06-18T13:04:22Z</time>
      </trkpt>
      <trkpt lat="42.3662430" lon="-8.6193750">
        <ele>143.8</ele>
        <time>2022-06-18T13:04:23Z</time>
      </trkpt>
      <trkpt lat="42.3662580" lon="-8.6193850">
        <ele>143.8</ele>
        <time>2022-06-18T13:04:24Z</time>
      </trkpt>
      <trkpt lat="42.3662680" lon="-8.6193960">
        <ele>143.8</ele>
        <time>2022-06-18T13:04:25Z</time>
      </trkpt>
      <trkpt lat="42.3662750" lon="-8.6194080">
        <ele>144.2</ele>
        <time>2022-06-18T13:04:26Z</time>
      </trkpt>
      <trkpt lat="42.3662730" lon="-8.6194110">
        <ele>144.2</ele>
        <time>2022-06-18T13:04:27Z</time>
      </trkpt>
      <trkpt lat="42.3662780" lon="-8.6194210">
        <ele>144.2</ele>
        <time>2022-06-18T13:04:28Z</time>
      </trkpt>
      <trkpt lat="42.3662900" lon="-8.6194310">
        <ele>144.8</ele>
        <time>2022-06-18T13:04:29Z</time>
      </trkpt>
      <trkpt lat="42.3663060" lon="-8.6194480">
        <ele>145.0</ele>
        <time>2022-06-18T13:04:30Z</time>
      </trkpt>
      <trkpt lat="42.3663210" lon="-8.6194660">
        <ele>145.0</ele>
        <time>2022-06-18T13:04:31Z</time>
      </trkpt>
      <trkpt lat="42.3663350" lon="-8.6194800">
        <ele>145.0</ele>
        <time>2022-06-18T13:04:32Z</time>
      </trkpt>
      <trkpt lat="42.3663500" lon="-8.6194880">
        <ele>145.8</ele>
        <time>2022-06-18T13:04:33Z</time>
      </trkpt>
      <trkpt lat="42.3663680" lon="-8.6194960">
        <ele>146.0</ele>
        <time>2022-06-18T13:04:34Z</time>
      </trkpt>
      <trkpt lat="42.3663860" lon="-8.6195080">
        <ele>146.0</ele>
        <time>2022-06-18T13:04:35Z</time>
      </trkpt>
      <trkpt lat="42.3664150" lon="-8.6195200">
        <ele>146.0</ele>
        <time>2022-06-18T13:04:36Z</time>
      </trkpt>
      <trkpt lat="42.3664310" lon="-8.6195300">
        <ele>146.6</ele>
        <time>2022-06-18T13:04:37Z</time>
      </trkpt>
      <trkpt lat="42.3664460" lon="-8.6195450">
        <ele>146.6</ele>
        <time>2022-06-18T13:04:38Z</time>
      </trkpt>
      <trkpt lat="42.3664630" lon="-8.6195530">
        <ele>146.6</ele>
        <time>2022-06-18T13:04:39Z</time>
      </trkpt>
      <trkpt lat="42.3664800" lon="-8.6195650">
        <ele>146.6</ele>
        <time>2022-06-18T13:04:40Z</time>
      </trkpt>
      <trkpt lat="42.3664910" lon="-8.6195750">
        <ele>147.0</ele>
        <time>2022-06-18T13:04:41Z</time>
      </trkpt>
      <trkpt lat="42.3665060" lon="-8.6195910">
        <ele>147.0</ele>
        <time>2022-06-18T13:04:42Z</time>
      </trkpt>
      <trkpt lat="42.3665150" lon="-8.6196050">
        <ele>147.0</ele>
        <time>2022-06-18T13:04:43Z</time>
      </trkpt>
      <trkpt lat="42.3665230" lon="-8.6196200">
        <ele>147.0</ele>
        <time>2022-06-18T13:04:44Z</time>
      </trkpt>
      <trkpt lat="42.3665350" lon="-8.6196360">
        <ele>147.6</ele>
        <time>2022-06-18T13:04:45Z</time>
      </trkpt>
      <trkpt lat="42.3665530" lon="-8.6196510">
        <ele>147.8</ele>
        <time>2022-06-18T13:04:46Z</time>
      </trkpt>
      <trkpt lat="42.3665650" lon="-8.6196710">
        <ele>147.8</ele>
        <time>2022-06-18T13:04:47Z</time>
      </trkpt>
      <trkpt lat="42.3665730" lon="-8.6196900">
        <ele>147.8</ele>
        <time>2022-06-18T13:04:48Z</time>
      </trkpt>
      <trkpt lat="42.3665760" lon="-8.6197050">
        <ele>147.8</ele>
        <time>2022-06-18T13:04:49Z</time>
      </trkpt>
      <trkpt lat="42.3665800" lon="-8.6197250">
        <ele>148.2</ele>
        <time>2022-06-18T13:04:50Z</time>
      </trkpt>
      <trkpt lat="42.3665860" lon="-8.6197450">
        <ele>148.2</ele>
        <time>2022-06-18T13:04:51Z</time>
      </trkpt>
      <trkpt lat="42.3665930" lon="-8.6197630">
        <ele>148.2</ele>
        <time>2022-06-18T13:04:52Z</time>
      </trkpt>
      <trkpt lat="42.3665930" lon="-8.6197850">
        <ele>148.6</ele>
        <time>2022-06-18T13:04:53Z</time>
      </trkpt>
      <trkpt lat="42.3665910" lon="-8.6198030">
        <ele>148.6</ele>
        <time>2022-06-18T13:04:54Z</time>
      </trkpt>
      <trkpt lat="42.3665860" lon="-8.6198260">
        <ele>148.6</ele>
        <time>2022-06-18T13:04:55Z</time>
      </trkpt>
      <trkpt lat="42.3665830" lon="-8.6198460">
        <ele>148.6</ele>
        <time>2022-06-18T13:04:56Z</time>
      </trkpt>
      <trkpt lat="42.3665810" lon="-8.6198660">
        <ele>148.6</ele>
        <time>2022-06-18T13:04:57Z</time>
      </trkpt>
      <trkpt lat="42.3665800" lon="-8.6198800">
        <ele>149.2</ele>
        <time>2022-06-18T13:04:58Z</time>
      </trkpt>
      <trkpt lat="42.3665780" lon="-8.6198950">
        <ele>149.2</ele>
        <time>2022-06-18T13:04:59Z</time>
      </trkpt>
      <trkpt lat="42.3665760" lon="-8.6199160">
        <ele>149.2</ele>
        <time>2022-06-18T13:05:00Z</time>
      </trkpt>
      <trkpt lat="42.3665710" lon="-8.6199300">
        <ele>149.6</ele>
        <time>2022-06-18T13:05:01Z</time>
      </trkpt>
      <trkpt lat="42.3665700" lon="-8.6199480">
        <ele>150.2</ele>
        <time>2022-06-18T13:05:02Z</time>
      </trkpt>
      <trkpt lat="42.3665660" lon="-8.6199700">
        <ele>150.2</ele>
        <time>2022-06-18T13:05:03Z</time>
      </trkpt>
      <trkpt lat="42.3665660" lon="-8.6199900">
        <ele>150.2</ele>
        <time>2022-06-18T13:05:04Z</time>
      </trkpt>
      <trkpt lat="42.3665580" lon="-8.6200050">
        <ele>149.4</ele>
        <time>2022-06-18T13:05:05Z</time>
      </trkpt>
      <trkpt lat="42.3665580" lon="-8.6200250">
        <ele>150.0</ele>
        <time>2022-06-18T13:05:06Z</time>
      </trkpt>
      <trkpt lat="42.3665630" lon="-8.6200410">
        <ele>150.0</ele>
        <time>2022-06-18T13:05:07Z</time>
      </trkpt>
      <trkpt lat="42.3665710" lon="-8.6200610">
        <ele>150.0</ele>
        <time>2022-06-18T13:05:08Z</time>
      </trkpt>
      <trkpt lat="42.3665760" lon="-8.6200760">
        <ele>150.0</ele>
        <time>2022-06-18T13:05:09Z</time>
      </trkpt>
      <trkpt lat="42.3665760" lon="-8.6200880">
        <ele>149.8</ele>
        <time>2022-06-18T13:05:10Z</time>
      </trkpt>
      <trkpt lat="42.3665760" lon="-8.6200880">
        <ele>149.8</ele>
        <time>2022-06-18T13:05:11Z</time>
      </trkpt>
      <trkpt lat="42.3666010" lon="-8.6201150">
        <ele>149.8</ele>
        <time>2022-06-18T13:05:12Z</time>
      </trkpt>
      <trkpt lat="42.3666100" lon="-8.6201260">
        <ele>149.8</ele>
        <time>2022-06-18T13:05:13Z</time>
      </trkpt>
      <trkpt lat="42.3666160" lon="-8.6201460">
        <ele>150.0</ele>
        <time>2022-06-18T13:05:14Z</time>
      </trkpt>
      <trkpt lat="42.3666210" lon="-8.6201560">
        <ele>150.0</ele>
        <time>2022-06-18T13:05:15Z</time>
      </trkpt>
      <trkpt lat="42.3669010" lon="-8.6204180">
        <ele>154.6</ele>
        <time>2022-06-18T13:11:41Z</time>
      </trkpt>
      <trkpt lat="42.3669160" lon="-8.6204260">
        <ele>154.4</ele>
        <time>2022-06-18T13:11:42Z</time>
      </trkpt>
      <trkpt lat="42.3669300" lon="-8.6204410">
        <ele>154.4</ele>
        <time>2022-06-18T13:11:43Z</time>
      </trkpt>
      <trkpt lat="42.3669400" lon="-8.6204530">
        <ele>154.4</ele>
        <time>2022-06-18T13:11:44Z</time>
      </trkpt>
      <trkpt lat="42.3669530" lon="-8.6204710">
        <ele>154.4</ele>
        <time>2022-06-18T13:11:45Z</time>
      </trkpt>
      <trkpt lat="42.3669650" lon="-8.6204860">
        <ele>155.2</ele>
        <time>2022-06-18T13:11:46Z</time>
      </trkpt>
      <trkpt lat="42.3669800" lon="-8.6204930">
        <ele>155.2</ele>
        <time>2022-06-18T13:11:47Z</time>
      </trkpt>
      <trkpt lat="42.3669930" lon="-8.6205000">
        <ele>155.2</ele>
        <time>2022-06-18T13:11:48Z</time>
      </trkpt>
      <trkpt lat="42.3670060" lon="-8.6205030">
        <ele>154.6</ele>
        <time>2022-06-18T13:11:49Z</time>
      </trkpt>
      <trkpt lat="42.3670200" lon="-8.6205030">
        <ele>154.6</ele>
        <time>2022-06-18T13:11:50Z</time>
      </trkpt>
      <trkpt lat="42.3670300" lon="-8.6205060">
        <ele>154.6</ele>
        <time>2022-06-18T13:11:51Z</time>
      </trkpt>
      <trkpt lat="42.3670360" lon="-8.6205180">
        <ele>154.6</ele>
        <time>2022-06-18T13:11:52Z</time>
      </trkpt>
      <trkpt lat="42.3670460" lon="-8.6205310">
        <ele>154.6</ele>
        <time>2022-06-18T13:11:53Z</time>
      </trkpt>
      <trkpt lat="42.3670580" lon="-8.6205360">
        <ele>154.8</ele>
        <time>2022-06-18T13:11:54Z</time>
      </trkpt>
      <trkpt lat="42.3670680" lon="-8.6205350">
        <ele>154.8</ele>
        <time>2022-06-18T13:11:55Z</time>
      </trkpt>
      <trkpt lat="42.3670780" lon="-8.6205380">
        <ele>154.8</ele>
        <time>2022-06-18T13:11:56Z</time>
      </trkpt>
      <trkpt lat="42.3670910" lon="-8.6205400">
        <ele>154.4</ele>
        <time>2022-06-18T13:11:57Z</time>
      </trkpt>
      <trkpt lat="42.3671010" lon="-8.6205450">
        <ele>154.4</ele>
        <time>2022-06-18T13:11:58Z</time>
      </trkpt>
      <trkpt lat="42.3671100" lon="-8.6205460">
        <ele>154.4</ele>
        <time>2022-06-18T13:11:59Z</time>
      </trkpt>
      <trkpt lat="42.3671150" lon="-8.6205460">
        <ele>154.4</ele>
        <time>2022-06-18T13:12:00Z</time>
      </trkpt>
      <trkpt lat="42.3671250" lon="-8.6205530">
        <ele>154.8</ele>
        <time>2022-06-18T13:12:01Z</time>
      </trkpt>
      <trkpt lat="42.3671330" lon="-8.6205630">
        <ele>154.4</ele>
        <time>2022-06-18T13:12:02Z</time>
      </trkpt>
      <trkpt lat="42.3671760" lon="-8.6205720">
        <ele>154.4</ele>
        <time>2022-06-18T13:12:03Z</time>
      </trkpt>
      <trkpt lat="42.3672020" lon="-8.6205740">
        <ele>154.4</ele>
        <time>2022-06-18T13:12:04Z</time>
      </trkpt>
      <trkpt lat="42.3672280" lon="-8.6205750">
        <ele>154.4</ele>
        <time>2022-06-18T13:12:05Z</time>
      </trkpt>
      <trkpt lat="42.3672540" lon="-8.6205770">
        <ele>154.6</ele>
        <time>2022-06-18T13:12:06Z</time>
      </trkpt>
      <trkpt lat="42.3672800" lon="-8.6205780">
        <ele>154.4</ele>
        <time>2022-06-18T13:12:16Z</time>
      </trkpt>
      <trkpt lat="42.3673060" lon="-8.6205800">
        <ele>153.4</ele>
        <time>2022-06-18T13:12:17Z</time>
      </trkpt>
      <trkpt lat="42.3673610" lon="-8.6205850">
        <ele>149.8</ele>
        <time>2022-06-18T13:12:18Z</time>
      </trkpt>
      <trkpt lat="42.3674230" lon="-8.6205980">
        <ele>149.8</ele>
        <time>2022-06-18T13:12:19Z</time>
      </trkpt>
      <trkpt lat="42.3674780" lon="-8.6206080">
        <ele>149.8</ele>
        <time>2022-06-18T13:12:20Z</time>
      </trkpt>
      <trkpt lat="42.3675260" lon="-8.6206280">
        <ele>148.8</ele>
        <time>2022-06-18T13:12:21Z</time>
      </trkpt>
      <trkpt lat="42.3675750" lon="-8.6206560">
        <ele>147.0</ele>
        <time>2022-06-18T13:12:22Z</time>
      </trkpt>
      <trkpt lat="42.3676230" lon="-8.6206960">
        <ele>147.0</ele>
        <time>2022-06-18T13:12:23Z</time>
      </trkpt>
      <trkpt lat="42.3676650" lon="-8.6207500">
        <ele>147.0</ele>
        <time>2022-06-18T13:12:24Z</time>
      </trkpt>
      <trkpt lat="42.3677150" lon="-8.6208100">
        <ele>146.0</ele>
        <time>2022-06-18T13:12:25Z</time>
      </trkpt>
      <trkpt lat="42.3677630" lon="-8.6208600">
        <ele>141.2</ele>
        <time>2022-06-18T13:12:26Z</time>
      </trkpt>
      <trkpt lat="42.3678080" lon="-8.6209150">
        <ele>141.2</ele>
        <time>2022-06-18T13:12:27Z</time>
      </trkpt>
      <trkpt lat="42.3678380" lon="-8.6209810">
        <ele>141.2</ele>
        <time>2022-06-18T13:12:28Z</time>
      </trkpt>
      <trkpt lat="42.3678650" lon="-8.6210530">
        <ele>140.2</ele>
        <time>2022-06-18T13:12:29Z</time>
      </trkpt>
      <trkpt lat="42.3679030" lon="-8.6211130">
        <ele>139.4</ele>
        <time>2022-06-18T13:12:30Z</time>
      </trkpt>
      <trkpt lat="42.3679150" lon="-8.6211580">
        <ele>139.4</ele>
        <time>2022-06-18T13:12:31Z</time>
      </trkpt>
      <trkpt lat="42.3679250" lon="-8.6211950">
        <ele>139.4</ele>
        <time>2022-06-18T13:12:32Z</time>
      </trkpt>
      <trkpt lat="42.3679250" lon="-8.6212300">
        <ele>139.4</ele>
        <time>2022-06-18T13:12:33Z</time>
      </trkpt>
      <trkpt lat="42.3679360" lon="-8.6212730">
        <ele>139.0</ele>
        <time>2022-06-18T13:12:34Z</time>
      </trkpt>
      <trkpt lat="42.3679500" lon="-8.6213210">
        <ele>139.0</ele>
        <time>2022-06-18T13:12:35Z</time>
      </trkpt>
      <trkpt lat="42.3679610" lon="-8.6213810">
        <ele>139.0</ele>
        <time>2022-06-18T13:12:36Z</time>
      </trkpt>
      <trkpt lat="42.3679730" lon="-8.6214560">
        <ele>138.0</ele>
        <time>2022-06-18T13:12:37Z</time>
      </trkpt>
      <trkpt lat="42.3679750" lon="-8.6215360">
        <ele>132.6</ele>
        <time>2022-06-18T13:12:38Z</time>
      </trkpt>
      <trkpt lat="42.3679860" lon="-8.6216280">
        <ele>132.6</ele>
        <time>2022-06-18T13:12:39Z</time>
      </trkpt>
      <trkpt lat="42.3680150" lon="-8.6217160">
        <ele>132.6</ele>
        <time>2022-06-18T13:12:40Z</time>
      </trkpt>
      <trkpt lat="42.3680560" lon="-8.6217910">
        <ele>131.6</ele>
        <time>2022-06-18T13:12:41Z</time>
      </trkpt>
      <trkpt lat="42.3680910" lon="-8.6218610">
        <ele>131.4</ele>
        <time>2022-06-18T13:12:42Z</time>
      </trkpt>
      <trkpt lat="42.3681210" lon="-8.6219130">
        <ele>131.4</ele>
        <time>2022-06-18T13:12:43Z</time>
      </trkpt>
      <trkpt lat="42.3681450" lon="-8.6219560">
        <ele>131.4</ele>
        <time>2022-06-18T13:12:44Z</time>
      </trkpt>
      <trkpt lat="42.3681610" lon="-8.6219980">
        <ele>130.4</ele>
        <time>2022-06-18T13:12:45Z</time>
      </trkpt>
      <trkpt lat="42.3681780" lon="-8.6220400">
        <ele>128.8</ele>
        <time>2022-06-18T13:12:46Z</time>
      </trkpt>
      <trkpt lat="42.3681950" lon="-8.6220880">
        <ele>128.8</ele>
        <time>2022-06-18T13:12:47Z</time>
      </trkpt>
      <trkpt lat="42.3682030" lon="-8.6221350">
        <ele>128.8</ele>
        <time>2022-06-18T13:12:48Z</time>
      </trkpt>
      <trkpt lat="42.3682100" lon="-8.6221780">
        <ele>127.8</ele>
        <time>2022-06-18T13:12:49Z</time>
      </trkpt>
      <trkpt lat="42.3682110" lon="-8.6222150">
        <ele>126.8</ele>
        <time>2022-06-18T13:12:50Z</time>
      </trkpt>
      <trkpt lat="42.3682210" lon="-8.6222550">
        <ele>126.8</ele>
        <time>2022-06-18T13:12:51Z</time>
      </trkpt>
      <trkpt lat="42.3682410" lon="-8.6223150">
        <ele>126.8</ele>
        <time>2022-06-18T13:12:52Z</time>
      </trkpt>
      <trkpt lat="42.3682650" lon="-8.6223730">
        <ele>125.8</ele>
        <time>2022-06-18T13:12:53Z</time>
      </trkpt>
      <trkpt lat="42.3683010" lon="-8.6224330">
        <ele>122.8</ele>
        <time>2022-06-18T13:12:54Z</time>
      </trkpt>
      <trkpt lat="42.3683430" lon="-8.6224780">
        <ele>122.8</ele>
        <time>2022-06-18T13:12:55Z</time>
      </trkpt>
      <trkpt lat="42.3683880" lon="-8.6225010">
        <ele>122.8</ele>
        <time>2022-06-18T13:12:56Z</time>
      </trkpt>
      <trkpt lat="42.3684150" lon="-8.6225150">
        <ele>123.8</ele>
        <time>2022-06-18T13:12:57Z</time>
      </trkpt>
      <trkpt lat="42.3684360" lon="-8.6225250">
        <ele>126.0</ele>
        <time>2022-06-18T13:12:58Z</time>
      </trkpt>
      <trkpt lat="42.3684560" lon="-8.6225350">
        <ele>126.0</ele>
        <time>2022-06-18T13:12:59Z</time>
      </trkpt>
      <trkpt lat="42.3684780" lon="-8.6225450">
        <ele>126.0</ele>
        <time>2022-06-18T13:13:00Z</time>
      </trkpt>
      <trkpt lat="42.3685030" lon="-8.6225610">
        <ele>126.0</ele>
        <time>2022-06-18T13:13:01Z</time>
      </trkpt>
      <trkpt lat="42.3685360" lon="-8.6225760">
        <ele>125.0</ele>
        <time>2022-06-18T13:13:02Z</time>
      </trkpt>
      <trkpt lat="42.3685680" lon="-8.6225860">
        <ele>125.0</ele>
        <time>2022-06-18T13:13:03Z</time>
      </trkpt>
      <trkpt lat="42.3685980" lon="-8.6225930">
        <ele>125.0</ele>
        <time>2022-06-18T13:13:04Z</time>
      </trkpt>
      <trkpt lat="42.3686210" lon="-8.6226000">
        <ele>125.0</ele>
        <time>2022-06-18T13:13:05Z</time>
      </trkpt>
      <trkpt lat="42.3686450" lon="-8.6226080">
        <ele>125.0</ele>
        <time>2022-06-18T13:13:06Z</time>
      </trkpt>
      <trkpt lat="42.3686660" lon="-8.6226180">
        <ele>125.0</ele>
        <time>2022-06-18T13:13:07Z</time>
      </trkpt>
      <trkpt lat="42.3686880" lon="-8.6226330">
        <ele>125.0</ele>
        <time>2022-06-18T13:13:08Z</time>
      </trkpt>
      <trkpt lat="42.3687150" lon="-8.6226600">
        <ele>124.0</ele>
        <time>2022-06-18T13:13:09Z</time>
      </trkpt>
      <trkpt lat="42.3687400" lon="-8.6226980">
        <ele>122.4</ele>
        <time>2022-06-18T13:13:10Z</time>
      </trkpt>
      <trkpt lat="42.3687660" lon="-8.6227450">
        <ele>122.4</ele>
        <time>2022-06-18T13:13:11Z</time>
      </trkpt>
      <trkpt lat="42.3687930" lon="-8.6227960">
        <ele>122.4</ele>
        <time>2022-06-18T13:13:12Z</time>
      </trkpt>
      <trkpt lat="42.3688210" lon="-8.6228500">
        <ele>121.4</ele>
        <time>2022-06-18T13:13:13Z</time>
      </trkpt>
      <trkpt lat="42.3688480" lon="-8.6229080">
        <ele>119.0</ele>
        <time>2022-06-18T13:13:14Z</time>
      </trkpt>
      <trkpt lat="42.3688650" lon="-8.6229710">
        <ele>119.0</ele>
        <time>2022-06-18T13:13:15Z</time>
      </trkpt>
      <trkpt lat="42.3688680" lon="-8.6230310">
        <ele>119.0</ele>
        <time>2022-06-18T13:13:16Z</time>
      </trkpt>
      <trkpt lat="42.3688530" lon="-8.6230850">
        <ele>118.4</ele>
        <time>2022-06-18T13:13:17Z</time>
      </trkpt>
      <trkpt lat="42.3688260" lon="-8.6231250">
        <ele>118.6</ele>
        <time>2022-06-18T13:13:18Z</time>
      </trkpt>
      <trkpt lat="42.3687960" lon="-8.6231600">
        <ele>118.6</ele>
        <time>2022-06-18T13:13:19Z</time>
      </trkpt>
      <trkpt lat="42.3687750" lon="-8.6231960">
        <ele>118.6</ele>
        <time>2022-06-18T13:13:20Z</time>
      </trkpt>
      <trkpt lat="42.3687700" lon="-8.6232480">
        <ele>117.6</ele>
        <time>2022-06-18T13:13:21Z</time>
      </trkpt>
      <trkpt lat="42.3687780" lon="-8.6233030">
        <ele>117.0</ele>
        <time>2022-06-18T13:13:22Z</time>
      </trkpt>
      <trkpt lat="42.3687880" lon="-8.6233580">
        <ele>117.0</ele>
        <time>2022-06-18T13:13:23Z</time>
      </trkpt>
      <trkpt lat="42.3687980" lon="-8.6234100">
        <ele>117.0</ele>
        <time>2022-06-18T13:13:24Z</time>
      </trkpt>
      <trkpt lat="42.3688080" lon="-8.6234610">
        <ele>117.0</ele>
        <time>2022-06-18T13:13:25Z</time>
      </trkpt>
      <trkpt lat="42.3688200" lon="-8.6235130">
        <ele>117.8</ele>
        <time>2022-06-18T13:13:26Z</time>
      </trkpt>
      <trkpt lat="42.3688360" lon="-8.6235600">
        <ele>117.8</ele>
        <time>2022-06-18T13:13:27Z</time>
      </trkpt>
      <trkpt lat="42.3688510" lon="-8.6236010">
        <ele>117.8</ele>
        <time>2022-06-18T13:13:28Z</time>
      </trkpt>
      <trkpt lat="42.3688660" lon="-8.6236430">
        <ele>117.0</ele>
        <time>2022-06-18T13:13:29Z</time>
      </trkpt>
      <trkpt lat="42.3688800" lon="-8.6236830">
        <ele>117.6</ele>
        <time>2022-06-18T13:13:30Z</time>
      </trkpt>
      <trkpt lat="42.3688900" lon="-8.6237200">
        <ele>117.6</ele>
        <time>2022-06-18T13:13:31Z</time>
      </trkpt>
      <trkpt lat="42.3689010" lon="-8.6237560">
        <ele>117.6</ele>
        <time>2022-06-18T13:13:32Z</time>
      </trkpt>
      <trkpt lat="42.3689150" lon="-8.6237950">
        <ele>117.6</ele>
        <time>2022-06-18T13:13:33Z</time>
      </trkpt>
      <trkpt lat="42.3689260" lon="-8.6238350">
        <ele>117.8</ele>
        <time>2022-06-18T13:13:34Z</time>
      </trkpt>
      <trkpt lat="42.3689360" lon="-8.6238730">
        <ele>117.8</ele>
        <time>2022-06-18T13:13:35Z</time>
      </trkpt>
      <trkpt lat="42.3689460" lon="-8.6239100">
        <ele>117.8</ele>
        <time>2022-06-18T13:13:36Z</time>
      </trkpt>
      <trkpt lat="42.3689550" lon="-8.6239480">
        <ele>117.8</ele>
        <time>2022-06-18T13:13:37Z</time>
      </trkpt>
      <trkpt lat="42.3689610" lon="-8.6239850">
        <ele>118.4</ele>
        <time>2022-06-18T13:13:38Z</time>
      </trkpt>
      <trkpt lat="42.3689630" lon="-8.6240230">
        <ele>118.4</ele>
        <time>2022-06-18T13:13:39Z</time>
      </trkpt>
      <trkpt lat="42.3689630" lon="-8.6240580">
        <ele>118.4</ele>
        <time>2022-06-18T13:13:40Z</time>
      </trkpt>
      <trkpt lat="42.3689680" lon="-8.6240910">
        <ele>118.4</ele>
        <time>2022-06-18T13:13:41Z</time>
      </trkpt>
      <trkpt lat="42.3689700" lon="-8.6241260">
        <ele>119.0</ele>
        <time>2022-06-18T13:13:42Z</time>
      </trkpt>
      <trkpt lat="42.3689710" lon="-8.6241630">
        <ele>119.0</ele>
        <time>2022-06-18T13:13:43Z</time>
      </trkpt>
      <trkpt lat="42.3689730" lon="-8.6241980">
        <ele>119.0</ele>
        <time>2022-06-18T13:13:44Z</time>
      </trkpt>
      <trkpt lat="42.3689750" lon="-8.6242300">
        <ele>119.0</ele>
        <time>2022-06-18T13:13:45Z</time>
      </trkpt>
      <trkpt lat="42.3689760" lon="-8.6242580">
        <ele>119.4</ele>
        <time>2022-06-18T13:13:46Z</time>
      </trkpt>
      <trkpt lat="42.3689810" lon="-8.6242800">
        <ele>119.4</ele>
        <time>2022-06-18T13:13:47Z</time>
      </trkpt>
      <trkpt lat="42.3689900" lon="-8.6242980">
        <ele>119.4</ele>
        <time>2022-06-18T13:13:48Z</time>
      </trkpt>
      <trkpt lat="42.3689980" lon="-8.6243200">
        <ele>119.4</ele>
        <time>2022-06-18T13:13:49Z</time>
      </trkpt>
      <trkpt lat="42.3690080" lon="-8.6243400">
        <ele>119.4</ele>
        <time>2022-06-18T13:13:50Z</time>
      </trkpt>
      <trkpt lat="42.3690150" lon="-8.6243630">
        <ele>119.4</ele>
        <time>2022-06-18T13:13:51Z</time>
      </trkpt>
      <trkpt lat="42.3690280" lon="-8.6243880">
        <ele>119.4</ele>
        <time>2022-06-18T13:13:52Z</time>
      </trkpt>
      <trkpt lat="42.3690400" lon="-8.6244060">
        <ele>120.4</ele>
        <time>2022-06-18T13:13:53Z</time>
      </trkpt>
      <trkpt lat="42.3690550" lon="-8.6244230">
        <ele>121.0</ele>
        <time>2022-06-18T13:13:54Z</time>
      </trkpt>
      <trkpt lat="42.3690650" lon="-8.6244450">
        <ele>121.0</ele>
        <time>2022-06-18T13:13:55Z</time>
      </trkpt>
      <trkpt lat="42.3690780" lon="-8.6244680">
        <ele>121.0</ele>
        <time>2022-06-18T13:13:56Z</time>
      </trkpt>
      <trkpt lat="42.3690910" lon="-8.6244910">
        <ele>121.8</ele>
        <time>2022-06-18T13:13:57Z</time>
      </trkpt>
      <trkpt lat="42.3691050" lon="-8.6245150">
        <ele>122.4</ele>
        <time>2022-06-18T13:13:58Z</time>
      </trkpt>
      <trkpt lat="42.3691200" lon="-8.6245360">
        <ele>122.4</ele>
        <time>2022-06-18T13:13:59Z</time>
      </trkpt>
      <trkpt lat="42.3691350" lon="-8.6245510">
        <ele>122.4</ele>
        <time>2022-06-18T13:14:00Z</time>
      </trkpt>
      <trkpt lat="42.3691500" lon="-8.6245700">
        <ele>122.4</ele>
        <time>2022-06-18T13:14:01Z</time>
      </trkpt>
      <trkpt lat="42.3691610" lon="-8.6245930">
        <ele>123.4</ele>
        <time>2022-06-18T13:14:02Z</time>
      </trkpt>
      <trkpt lat="42.3691680" lon="-8.6246150">
        <ele>123.4</ele>
        <time>2022-06-18T13:14:03Z</time>
      </trkpt>
      <trkpt lat="42.3691780" lon="-8.6246310">
        <ele>123.4</ele>
        <time>2022-06-18T13:14:04Z</time>
      </trkpt>
      <trkpt lat="42.3691950" lon="-8.6246460">
        <ele>123.4</ele>
        <time>2022-06-18T13:14:05Z</time>
      </trkpt>
      <trkpt lat="42.3692060" lon="-8.6246610">
        <ele>124.0</ele>
        <time>2022-06-18T13:14:06Z</time>
      </trkpt>
      <trkpt lat="42.3692210" lon="-8.6246750">
        <ele>124.0</ele>
        <time>2022-06-18T13:14:07Z</time>
      </trkpt>
      <trkpt lat="42.3692350" lon="-8.6246950">
        <ele>124.0</ele>
        <time>2022-06-18T13:14:08Z</time>
      </trkpt>
      <trkpt lat="42.3692450" lon="-8.6247150">
        <ele>124.4</ele>
        <time>2022-06-18T13:14:09Z</time>
      </trkpt>
      <trkpt lat="42.3692560" lon="-8.6247350">
        <ele>125.0</ele>
        <time>2022-06-18T13:14:10Z</time>
      </trkpt>
      <trkpt lat="42.3692710" lon="-8.6247500">
        <ele>125.0</ele>
        <time>2022-06-18T13:14:11Z</time>
      </trkpt>
      <trkpt lat="42.3692810" lon="-8.6247660">
        <ele>125.0</ele>
        <time>2022-06-18T13:14:12Z</time>
      </trkpt>
      <trkpt lat="42.3692910" lon="-8.6247780">
        <ele>125.0</ele>
        <time>2022-06-18T13:14:13Z</time>
      </trkpt>
      <trkpt lat="42.3693050" lon="-8.6247980">
        <ele>125.6</ele>
        <time>2022-06-18T13:14:14Z</time>
      </trkpt>
      <trkpt lat="42.3693110" lon="-8.6248180">
        <ele>125.6</ele>
        <time>2022-06-18T13:14:15Z</time>
      </trkpt>
      <trkpt lat="42.3693160" lon="-8.6248410">
        <ele>125.6</ele>
        <time>2022-06-18T13:14:16Z</time>
      </trkpt>
      <trkpt lat="42.3693250" lon="-8.6248660">
        <ele>125.6</ele>
        <time>2022-06-18T13:14:17Z</time>
      </trkpt>
      <trkpt lat="42.3693360" lon="-8.6248900">
        <ele>125.0</ele>
        <time>2022-06-18T13:14:18Z</time>
      </trkpt>
      <trkpt lat="42.3693500" lon="-8.6249180">
        <ele>125.0</ele>
        <time>2022-06-18T13:14:19Z</time>
      </trkpt>
      <trkpt lat="42.3693600" lon="-8.6249510">
        <ele>125.0</ele>
        <time>2022-06-18T13:14:20Z</time>
      </trkpt>
      <trkpt lat="42.3693680" lon="-8.6249880">
        <ele>125.0</ele>
        <time>2022-06-18T13:14:21Z</time>
      </trkpt>
      <trkpt lat="42.3693810" lon="-8.6250250">
        <ele>124.4</ele>
        <time>2022-06-18T13:14:22Z</time>
      </trkpt>
      <trkpt lat="42.3693960" lon="-8.6250650">
        <ele>124.4</ele>
        <time>2022-06-18T13:14:23Z</time>
      </trkpt>
      <trkpt lat="42.3694130" lon="-8.6251030">
        <ele>124.4</ele>
        <time>2022-06-18T13:14:24Z</time>
      </trkpt>
      <trkpt lat="42.3694350" lon="-8.6251410">
        <ele>124.4</ele>
        <time>2022-06-18T13:14:25Z</time>
      </trkpt>
      <trkpt lat="42.3694560" lon="-8.6251730">
        <ele>124.4</ele>
        <time>2022-06-18T13:14:26Z</time>
      </trkpt>
      <trkpt lat="42.3694830" lon="-8.6252000">
        <ele>124.4</ele>
        <time>2022-06-18T13:14:27Z</time>
      </trkpt>
      <trkpt lat="42.3695100" lon="-8.6252230">
        <ele>124.4</ele>
        <time>2022-06-18T13:14:28Z</time>
      </trkpt>
      <trkpt lat="42.3695350" lon="-8.6252510">
        <ele>124.4</ele>
        <time>2022-06-18T13:14:29Z</time>
      </trkpt>
      <trkpt lat="42.3695610" lon="-8.6252810">
        <ele>124.0</ele>
        <time>2022-06-18T13:14:30Z</time>
      </trkpt>
      <trkpt lat="42.3695930" lon="-8.6253060">
        <ele>124.0</ele>
        <time>2022-06-18T13:14:31Z</time>
      </trkpt>
      <trkpt lat="42.3696260" lon="-8.6253300">
        <ele>124.0</ele>
        <time>2022-06-18T13:14:32Z</time>
      </trkpt>
      <trkpt lat="42.3696610" lon="-8.6253530">
        <ele>123.0</ele>
        <time>2022-06-18T13:14:33Z</time>
      </trkpt>
      <trkpt lat="42.3696960" lon="-8.6253780">
        <ele>123.0</ele>
        <time>2022-06-18T13:14:34Z</time>
      </trkpt>
      <trkpt lat="42.3697330" lon="-8.6254030">
        <ele>123.0</ele>
        <time>2022-06-18T13:14:35Z</time>
      </trkpt>
      <trkpt lat="42.3697700" lon="-8.6254280">
        <ele>123.0</ele>
        <time>2022-06-18T13:14:36Z</time>
      </trkpt>
      <trkpt lat="42.3698080" lon="-8.6254530">
        <ele>122.0</ele>
        <time>2022-06-18T13:14:37Z</time>
      </trkpt>
      <trkpt lat="42.3698500" lon="-8.6254780">
        <ele>121.8</ele>
        <time>2022-06-18T13:14:38Z</time>
      </trkpt>
      <trkpt lat="42.3698930" lon="-8.6255010">
        <ele>121.8</ele>
        <time>2022-06-18T13:14:39Z</time>
      </trkpt>
      <trkpt lat="42.3699360" lon="-8.6255300">
        <ele>121.8</ele>
        <time>2022-06-18T13:14:40Z</time>
      </trkpt>
      <trkpt lat="42.3699780" lon="-8.6255610">
        <ele>121.8</ele>
        <time>2022-06-18T13:14:41Z</time>
      </trkpt>
      <trkpt lat="42.3700210" lon="-8.6255910">
        <ele>120.8</ele>
        <time>2022-06-18T13:14:42Z</time>
      </trkpt>
      <trkpt lat="42.3700660" lon="-8.6256200">
        <ele>120.8</ele>
        <time>2022-06-18T13:14:43Z</time>
      </trkpt>
      <trkpt lat="42.3701130" lon="-8.6256500">
        <ele>120.8</ele>
        <time>2022-06-18T13:14:44Z</time>
      </trkpt>
      <trkpt lat="42.3701580" lon="-8.6256780">
        <ele>120.8</ele>
        <time>2022-06-18T13:14:45Z</time>
      </trkpt>
      <trkpt lat="42.3702050" lon="-8.6257050">
        <ele>119.4</ele>
        <time>2022-06-18T13:14:46Z</time>
      </trkpt>
      <trkpt lat="42.3702530" lon="-8.6257280">
        <ele>119.4</ele>
        <time>2022-06-18T13:14:47Z</time>
      </trkpt>
      <trkpt lat="42.3702980" lon="-8.6257480">
        <ele>119.4</ele>
        <time>2022-06-18T13:14:48Z</time>
      </trkpt>
      <trkpt lat="42.3703450" lon="-8.6257680">
        <ele>120.0</ele>
        <time>2022-06-18T13:14:49Z</time>
      </trkpt>
      <trkpt lat="42.3703900" lon="-8.6257880">
        <ele>120.4</ele>
        <time>2022-06-18T13:14:50Z</time>
      </trkpt>
      <trkpt lat="42.3704330" lon="-8.6258080">
        <ele>120.4</ele>
        <time>2022-06-18T13:14:51Z</time>
      </trkpt>
      <trkpt lat="42.3704750" lon="-8.6258310">
        <ele>120.4</ele>
        <time>2022-06-18T13:14:52Z</time>
      </trkpt>
      <trkpt lat="42.3705110" lon="-8.6258610">
        <ele>120.4</ele>
        <time>2022-06-18T13:14:53Z</time>
      </trkpt>
      <trkpt lat="42.3705430" lon="-8.6258950">
        <ele>121.2</ele>
        <time>2022-06-18T13:14:54Z</time>
      </trkpt>
      <trkpt lat="42.3705700" lon="-8.6259330">
        <ele>121.2</ele>
        <time>2022-06-18T13:14:55Z</time>
      </trkpt>
      <trkpt lat="42.3705930" lon="-8.6259700">
        <ele>121.2</ele>
        <time>2022-06-18T13:14:56Z</time>
      </trkpt>
      <trkpt lat="42.3706180" lon="-8.6260050">
        <ele>121.2</ele>
        <time>2022-06-18T13:14:57Z</time>
      </trkpt>
      <trkpt lat="42.3706450" lon="-8.6260360">
        <ele>120.4</ele>
        <time>2022-06-18T13:14:58Z</time>
      </trkpt>
      <trkpt lat="42.3706750" lon="-8.6260650">
        <ele>120.4</ele>
        <time>2022-06-18T13:14:59Z</time>
      </trkpt>
      <trkpt lat="42.3707130" lon="-8.6260880">
        <ele>120.4</ele>
        <time>2022-06-18T13:15:00Z</time>
      </trkpt>
      <trkpt lat="42.3707610" lon="-8.6261000">
        <ele>119.8</ele>
        <time>2022-06-18T13:15:01Z</time>
      </trkpt>
      <trkpt lat="42.3708100" lon="-8.6260960">
        <ele>118.8</ele>
        <time>2022-06-18T13:15:02Z</time>
      </trkpt>
      <trkpt lat="42.3708560" lon="-8.6260860">
        <ele>118.8</ele>
        <time>2022-06-18T13:15:03Z</time>
      </trkpt>
      <trkpt lat="42.3709010" lon="-8.6260780">
        <ele>118.8</ele>
        <time>2022-06-18T13:15:04Z</time>
      </trkpt>
      <trkpt lat="42.3709450" lon="-8.6260680">
        <ele>119.8</ele>
        <time>2022-06-18T13:15:05Z</time>
      </trkpt>
      <trkpt lat="42.3709830" lon="-8.6260600">
        <ele>120.2</ele>
        <time>2022-06-18T13:15:06Z</time>
      </trkpt>
      <trkpt lat="42.3710200" lon="-8.6260550">
        <ele>120.2</ele>
        <time>2022-06-18T13:15:07Z</time>
      </trkpt>
      <trkpt lat="42.3710560" lon="-8.6260430">
        <ele>120.2</ele>
        <time>2022-06-18T13:15:08Z</time>
      </trkpt>
      <trkpt lat="42.3710900" lon="-8.6260330">
        <ele>119.8</ele>
        <time>2022-06-18T13:15:09Z</time>
      </trkpt>
      <trkpt lat="42.3711250" lon="-8.6260230">
        <ele>120.2</ele>
        <time>2022-06-18T13:15:10Z</time>
      </trkpt>
      <trkpt lat="42.3711600" lon="-8.6260150">
        <ele>120.2</ele>
        <time>2022-06-18T13:15:11Z</time>
      </trkpt>
      <trkpt lat="42.3711950" lon="-8.6260050">
        <ele>120.2</ele>
        <time>2022-06-18T13:15:12Z</time>
      </trkpt>
      <trkpt lat="42.3712260" lon="-8.6259930">
        <ele>121.0</ele>
        <time>2022-06-18T13:15:13Z</time>
      </trkpt>
      <trkpt lat="42.3712560" lon="-8.6259830">
        <ele>121.0</ele>
        <time>2022-06-18T13:15:14Z</time>
      </trkpt>
      <trkpt lat="42.3712850" lon="-8.6259750">
        <ele>121.0</ele>
        <time>2022-06-18T13:15:15Z</time>
      </trkpt>
      <trkpt lat="42.3713130" lon="-8.6259650">
        <ele>121.0</ele>
        <time>2022-06-18T13:15:16Z</time>
      </trkpt>
      <trkpt lat="42.3713400" lon="-8.6259510">
        <ele>121.6</ele>
        <time>2022-06-18T13:15:17Z</time>
      </trkpt>
      <trkpt lat="42.3713650" lon="-8.6259400">
        <ele>121.8</ele>
        <time>2022-06-18T13:15:18Z</time>
      </trkpt>
      <trkpt lat="42.3713900" lon="-8.6259260">
        <ele>121.8</ele>
        <time>2022-06-18T13:15:19Z</time>
      </trkpt>
      <trkpt lat="42.3714160" lon="-8.6259130">
        <ele>121.8</ele>
        <time>2022-06-18T13:15:20Z</time>
      </trkpt>
      <trkpt lat="42.3714430" lon="-8.6259010">
        <ele>122.2</ele>
        <time>2022-06-18T13:15:21Z</time>
      </trkpt>
      <trkpt lat="42.3714710" lon="-8.6258850">
        <ele>122.0</ele>
        <time>2022-06-18T13:15:22Z</time>
      </trkpt>
      <trkpt lat="42.3714980" lon="-8.6258630">
        <ele>122.0</ele>
        <time>2022-06-18T13:15:23Z</time>
      </trkpt>
      <trkpt lat="42.3715260" lon="-8.6258410">
        <ele>122.0</ele>
        <time>2022-06-18T13:15:24Z</time>
      </trkpt>
      <trkpt lat="42.3715560" lon="-8.6258200">
        <ele>122.0</ele>
        <time>2022-06-18T13:15:25Z</time>
      </trkpt>
      <trkpt lat="42.3715910" lon="-8.6257930">
        <ele>120.8</ele>
        <time>2022-06-18T13:15:26Z</time>
      </trkpt>
      <trkpt lat="42.3716260" lon="-8.6257630">
        <ele>120.8</ele>
        <time>2022-06-18T13:15:27Z</time>
      </trkpt>
      <trkpt lat="42.3716600" lon="-8.6257330">
        <ele>120.8</ele>
        <time>2022-06-18T13:15:28Z</time>
      </trkpt>
      <trkpt lat="42.3716960" lon="-8.6257050">
        <ele>120.2</ele>
        <time>2022-06-18T13:15:29Z</time>
      </trkpt>
      <trkpt lat="42.3717330" lon="-8.6256780">
        <ele>120.2</ele>
        <time>2022-06-18T13:15:30Z</time>
      </trkpt>
      <trkpt lat="42.3717680" lon="-8.6256480">
        <ele>120.2</ele>
        <time>2022-06-18T13:15:31Z</time>
      </trkpt>
      <trkpt lat="42.3718030" lon="-8.6256200">
        <ele>120.2</ele>
        <time>2022-06-18T13:15:32Z</time>
      </trkpt>
      <trkpt lat="42.3718350" lon="-8.6255880">
        <ele>120.2</ele>
        <time>2022-06-18T13:15:33Z</time>
      </trkpt>
      <trkpt lat="42.3718700" lon="-8.6255580">
        <ele>120.2</ele>
        <time>2022-06-18T13:15:34Z</time>
      </trkpt>
      <trkpt lat="42.3719080" lon="-8.6255300">
        <ele>120.2</ele>
        <time>2022-06-18T13:15:35Z</time>
      </trkpt>
      <trkpt lat="42.3719410" lon="-8.6254980">
        <ele>120.2</ele>
        <time>2022-06-18T13:15:36Z</time>
      </trkpt>
      <trkpt lat="42.3719750" lon="-8.6254680">
        <ele>120.2</ele>
        <time>2022-06-18T13:15:37Z</time>
      </trkpt>
      <trkpt lat="42.3720080" lon="-8.6254410">
        <ele>120.4</ele>
        <time>2022-06-18T13:15:38Z</time>
      </trkpt>
      <trkpt lat="42.3720400" lon="-8.6254160">
        <ele>120.4</ele>
        <time>2022-06-18T13:15:39Z</time>
      </trkpt>
      <trkpt lat="42.3720680" lon="-8.6253900">
        <ele>120.4</ele>
        <time>2022-06-18T13:15:40Z</time>
      </trkpt>
      <trkpt lat="42.3720980" lon="-8.6253650">
        <ele>121.0</ele>
        <time>2022-06-18T13:15:41Z</time>
      </trkpt>
      <trkpt lat="42.3721260" lon="-8.6253400">
        <ele>121.2</ele>
        <time>2022-06-18T13:15:42Z</time>
      </trkpt>
      <trkpt lat="42.3721560" lon="-8.6253150">
        <ele>121.2</ele>
        <time>2022-06-18T13:15:43Z</time>
      </trkpt>
      <trkpt lat="42.3721860" lon="-8.6252930">
        <ele>121.2</ele>
        <time>2022-06-18T13:15:44Z</time>
      </trkpt>
      <trkpt lat="42.3722150" lon="-8.6252660">
        <ele>121.2</ele>
        <time>2022-06-18T13:15:45Z</time>
      </trkpt>
      <trkpt lat="42.3722410" lon="-8.6252380">
        <ele>121.4</ele>
        <time>2022-06-18T13:15:46Z</time>
      </trkpt>
      <trkpt lat="42.3722700" lon="-8.6252110">
        <ele>121.4</ele>
        <time>2022-06-18T13:15:47Z</time>
      </trkpt>
      <trkpt lat="42.3722980" lon="-8.6251850">
        <ele>121.4</ele>
        <time>2022-06-18T13:15:48Z</time>
      </trkpt>
      <trkpt lat="42.3723260" lon="-8.6251600">
        <ele>121.4</ele>
        <time>2022-06-18T13:15:49Z</time>
      </trkpt>
      <trkpt lat="42.3723530" lon="-8.6251380">
        <ele>122.4</ele>
        <time>2022-06-18T13:15:50Z</time>
      </trkpt>
      <trkpt lat="42.3723830" lon="-8.6251130">
        <ele>122.4</ele>
        <time>2022-06-18T13:15:51Z</time>
      </trkpt>
      <trkpt lat="42.3724100" lon="-8.6250850">
        <ele>122.4</ele>
        <time>2022-06-18T13:15:52Z</time>
      </trkpt>
      <trkpt lat="42.3724360" lon="-8.6250650">
        <ele>122.8</ele>
        <time>2022-06-18T13:15:53Z</time>
      </trkpt>
      <trkpt lat="42.3724630" lon="-8.6250410">
        <ele>122.8</ele>
        <time>2022-06-18T13:15:54Z</time>
      </trkpt>
      <trkpt lat="42.3724910" lon="-8.6250180">
        <ele>122.8</ele>
        <time>2022-06-18T13:15:55Z</time>
      </trkpt>
      <trkpt lat="42.3725180" lon="-8.6249960">
        <ele>122.8</ele>
        <time>2022-06-18T13:15:56Z</time>
      </trkpt>
      <trkpt lat="42.3725460" lon="-8.6249800">
        <ele>123.4</ele>
        <time>2022-06-18T13:15:57Z</time>
      </trkpt>
      <trkpt lat="42.3725730" lon="-8.6249610">
        <ele>123.0</ele>
        <time>2022-06-18T13:15:58Z</time>
      </trkpt>
      <trkpt lat="42.3725960" lon="-8.6249360">
        <ele>123.0</ele>
        <time>2022-06-18T13:15:59Z</time>
      </trkpt>
      <trkpt lat="42.3726230" lon="-8.6249200">
        <ele>123.0</ele>
        <time>2022-06-18T13:16:00Z</time>
      </trkpt>
      <trkpt lat="42.3726500" lon="-8.6248960">
        <ele>123.8</ele>
        <time>2022-06-18T13:16:01Z</time>
      </trkpt>
      <trkpt lat="42.3726810" lon="-8.6248810">
        <ele>123.4</ele>
        <time>2022-06-18T13:16:02Z</time>
      </trkpt>
      <trkpt lat="42.3727130" lon="-8.6248710">
        <ele>123.4</ele>
        <time>2022-06-18T13:16:03Z</time>
      </trkpt>
      <trkpt lat="42.3727450" lon="-8.6248660">
        <ele>123.4</ele>
        <time>2022-06-18T13:16:04Z</time>
      </trkpt>
      <trkpt lat="42.3727750" lon="-8.6248510">
        <ele>123.4</ele>
        <time>2022-06-18T13:16:05Z</time>
      </trkpt>
      <trkpt lat="42.3728050" lon="-8.6248430">
        <ele>123.6</ele>
        <time>2022-06-18T13:16:06Z</time>
      </trkpt>
      <trkpt lat="42.3728310" lon="-8.6248380">
        <ele>123.6</ele>
        <time>2022-06-18T13:16:07Z</time>
      </trkpt>
      <trkpt lat="42.3728610" lon="-8.6248430">
        <ele>123.6</ele>
        <time>2022-06-18T13:16:08Z</time>
      </trkpt>
      <trkpt lat="42.3728880" lon="-8.6248530">
        <ele>123.4</ele>
        <time>2022-06-18T13:16:09Z</time>
      </trkpt>
      <trkpt lat="42.3729160" lon="-8.6248650">
        <ele>123.0</ele>
        <time>2022-06-18T13:16:10Z</time>
      </trkpt>
      <trkpt lat="42.3729550" lon="-8.6248830">
        <ele>123.0</ele>
        <time>2022-06-18T13:16:11Z</time>
      </trkpt>
      <trkpt lat="42.3729930" lon="-8.6249010">
        <ele>123.0</ele>
        <time>2022-06-18T13:16:12Z</time>
      </trkpt>
      <trkpt lat="42.3730260" lon="-8.6249230">
        <ele>122.8</ele>
        <time>2022-06-18T13:16:13Z</time>
      </trkpt>
      <trkpt lat="42.3730610" lon="-8.6249430">
        <ele>122.8</ele>
        <time>2022-06-18T13:16:14Z</time>
      </trkpt>
      <trkpt lat="42.3730930" lon="-8.6249600">
        <ele>122.8</ele>
        <time>2022-06-18T13:16:15Z</time>
      </trkpt>
      <trkpt lat="42.3731250" lon="-8.6249780">
        <ele>122.8</ele>
        <time>2022-06-18T13:16:16Z</time>
      </trkpt>
      <trkpt lat="42.3731580" lon="-8.6249980">
        <ele>122.8</ele>
        <time>2022-06-18T13:16:17Z</time>
      </trkpt>
      <trkpt lat="42.3731910" lon="-8.6250160">
        <ele>123.2</ele>
        <time>2022-06-18T13:16:18Z</time>
      </trkpt>
      <trkpt lat="42.3732250" lon="-8.6250360">
        <ele>123.2</ele>
        <time>2022-06-18T13:16:19Z</time>
      </trkpt>
      <trkpt lat="42.3732580" lon="-8.6250550">
        <ele>123.2</ele>
        <time>2022-06-18T13:16:20Z</time>
      </trkpt>
      <trkpt lat="42.3732930" lon="-8.6250710">
        <ele>123.8</ele>
        <time>2022-06-18T13:16:21Z</time>
      </trkpt>
      <trkpt lat="42.3733250" lon="-8.6250860">
        <ele>124.4</ele>
        <time>2022-06-18T13:16:22Z</time>
      </trkpt>
      <trkpt lat="42.3733560" lon="-8.6251030">
        <ele>124.4</ele>
        <time>2022-06-18T13:16:23Z</time>
      </trkpt>
      <trkpt lat="42.3733860" lon="-8.6251230">
        <ele>124.4</ele>
        <time>2022-06-18T13:16:24Z</time>
      </trkpt>
      <trkpt lat="42.3734130" lon="-8.6251480">
        <ele>124.4</ele>
        <time>2022-06-18T13:16:25Z</time>
      </trkpt>
      <trkpt lat="42.3734410" lon="-8.6251730">
        <ele>125.0</ele>
        <time>2022-06-18T13:16:26Z</time>
      </trkpt>
      <trkpt lat="42.3734680" lon="-8.6251980">
        <ele>125.0</ele>
        <time>2022-06-18T13:16:27Z</time>
      </trkpt>
      <trkpt lat="42.3734960" lon="-8.6252230">
        <ele>125.0</ele>
        <time>2022-06-18T13:16:28Z</time>
      </trkpt>
      <trkpt lat="42.3735260" lon="-8.6252450">
        <ele>125.4</ele>
        <time>2022-06-18T13:16:29Z</time>
      </trkpt>
      <trkpt lat="42.3735580" lon="-8.6252610">
        <ele>125.6</ele>
        <time>2022-06-18T13:16:30Z</time>
      </trkpt>
      <trkpt lat="42.3735880" lon="-8.6252800">
        <ele>125.6</ele>
        <time>2022-06-18T13:16:31Z</time>
      </trkpt>
      <trkpt lat="42.3736210" lon="-8.6252980">
        <ele>125.6</ele>
        <time>2022-06-18T13:16:32Z</time>
      </trkpt>
      <trkpt lat="42.3736510" lon="-8.6253130">
        <ele>125.6</ele>
        <time>2022-06-18T13:16:33Z</time>
      </trkpt>
      <trkpt lat="42.3736830" lon="-8.6253280">
        <ele>125.8</ele>
        <time>2022-06-18T13:16:34Z</time>
      </trkpt>
      <trkpt lat="42.3737130" lon="-8.6253430">
        <ele>125.8</ele>
        <time>2022-06-18T13:16:35Z</time>
      </trkpt>
      <trkpt lat="42.3737430" lon="-8.6253580">
        <ele>125.8</ele>
        <time>2022-06-18T13:16:36Z</time>
      </trkpt>
      <trkpt lat="42.3737710" lon="-8.6253700">
        <ele>125.8</ele>
        <time>2022-06-18T13:16:37Z</time>
      </trkpt>
      <trkpt lat="42.3738010" lon="-8.6253810">
        <ele>125.8</ele>
        <time>2022-06-18T13:16:38Z</time>
      </trkpt>
      <trkpt lat="42.3738310" lon="-8.6253880">
        <ele>125.8</ele>
        <time>2022-06-18T13:16:39Z</time>
      </trkpt>
      <trkpt lat="42.3738650" lon="-8.6253950">
        <ele>125.8</ele>
        <time>2022-06-18T13:16:40Z</time>
      </trkpt>
      <trkpt lat="42.3739000" lon="-8.6253950">
        <ele>124.8</ele>
        <time>2022-06-18T13:16:41Z</time>
      </trkpt>
      <trkpt lat="42.3739360" lon="-8.6253950">
        <ele>125.0</ele>
        <time>2022-06-18T13:16:42Z</time>
      </trkpt>
      <trkpt lat="42.3739760" lon="-8.6253910">
        <ele>125.0</ele>
        <time>2022-06-18T13:16:43Z</time>
      </trkpt>
      <trkpt lat="42.3740180" lon="-8.6253900">
        <ele>125.0</ele>
        <time>2022-06-18T13:16:44Z</time>
      </trkpt>
      <trkpt lat="42.3740610" lon="-8.6253900">
        <ele>124.0</ele>
        <time>2022-06-18T13:16:45Z</time>
      </trkpt>
      <trkpt lat="42.3741080" lon="-8.6253860">
        <ele>123.6</ele>
        <time>2022-06-18T13:16:46Z</time>
      </trkpt>
      <trkpt lat="42.3741550" lon="-8.6253800">
        <ele>123.6</ele>
        <time>2022-06-18T13:16:47Z</time>
      </trkpt>
      <trkpt lat="42.3742030" lon="-8.6253750">
        <ele>123.6</ele>
        <time>2022-06-18T13:16:48Z</time>
      </trkpt>
      <trkpt lat="42.3742510" lon="-8.6253680">
        <ele>123.6</ele>
        <time>2022-06-18T13:16:49Z</time>
      </trkpt>
      <trkpt lat="42.3743000" lon="-8.6253600">
        <ele>122.8</ele>
        <time>2022-06-18T13:16:50Z</time>
      </trkpt>
      <trkpt lat="42.3743500" lon="-8.6253550">
        <ele>122.8</ele>
        <time>2022-06-18T13:16:51Z</time>
      </trkpt>
      <trkpt lat="42.3743980" lon="-8.6253600">
        <ele>122.8</ele>
        <time>2022-06-18T13:16:52Z</time>
      </trkpt>
      <trkpt lat="42.3744450" lon="-8.6253800">
        <ele>121.8</ele>
        <time>2022-06-18T13:16:53Z</time>
      </trkpt>
      <trkpt lat="42.3744880" lon="-8.6254210">
        <ele>120.4</ele>
        <time>2022-06-18T13:16:54Z</time>
      </trkpt>
      <trkpt lat="42.3745300" lon="-8.6254710">
        <ele>120.4</ele>
        <time>2022-06-18T13:16:55Z</time>
      </trkpt>
      <trkpt lat="42.3745730" lon="-8.6255210">
        <ele>120.4</ele>
        <time>2022-06-18T13:16:56Z</time>
      </trkpt>
      <trkpt lat="42.3746180" lon="-8.6255680">
        <ele>120.4</ele>
        <time>2022-06-18T13:16:57Z</time>
      </trkpt>
      <trkpt lat="42.3746700" lon="-8.6256110">
        <ele>117.6</ele>
        <time>2022-06-18T13:16:58Z</time>
      </trkpt>
      <trkpt lat="42.3747330" lon="-8.6256530">
        <ele>117.6</ele>
        <time>2022-06-18T13:16:59Z</time>
      </trkpt>
      <trkpt lat="42.3748030" lon="-8.6256960">
        <ele>117.6</ele>
        <time>2022-06-18T13:17:00Z</time>
      </trkpt>
      <trkpt lat="42.3748750" lon="-8.6257380">
        <ele>116.6</ele>
        <time>2022-06-18T13:17:01Z</time>
      </trkpt>
      <trkpt lat="42.3749510" lon="-8.6257800">
        <ele>112.8</ele>
        <time>2022-06-18T13:17:02Z</time>
      </trkpt>
      <trkpt lat="42.3750280" lon="-8.6258210">
        <ele>112.8</ele>
        <time>2022-06-18T13:17:03Z</time>
      </trkpt>
      <trkpt lat="42.3751030" lon="-8.6258660">
        <ele>112.8</ele>
        <time>2022-06-18T13:17:04Z</time>
      </trkpt>
      <trkpt lat="42.3751730" lon="-8.6259210">
        <ele>112.8</ele>
        <time>2022-06-18T13:17:05Z</time>
      </trkpt>
      <trkpt lat="42.3752430" lon="-8.6259880">
        <ele>110.6</ele>
        <time>2022-06-18T13:17:06Z</time>
      </trkpt>
      <trkpt lat="42.3753160" lon="-8.6260610">
        <ele>110.6</ele>
        <time>2022-06-18T13:17:07Z</time>
      </trkpt>
      <trkpt lat="42.3753900" lon="-8.6261400">
        <ele>110.6</ele>
        <time>2022-06-18T13:17:08Z</time>
      </trkpt>
      <trkpt lat="42.3754650" lon="-8.6262160">
        <ele>110.6</ele>
        <time>2022-06-18T13:17:09Z</time>
      </trkpt>
      <trkpt lat="42.3755410" lon="-8.6262910">
        <ele>108.8</ele>
        <time>2022-06-18T13:17:10Z</time>
      </trkpt>
      <trkpt lat="42.3756210" lon="-8.6263700">
        <ele>108.8</ele>
        <time>2022-06-18T13:17:11Z</time>
      </trkpt>
      <trkpt lat="42.3757050" lon="-8.6264510">
        <ele>108.8</ele>
        <time>2022-06-18T13:17:12Z</time>
      </trkpt>
      <trkpt lat="42.3757880" lon="-8.6265360">
        <ele>107.8</ele>
        <time>2022-06-18T13:17:13Z</time>
      </trkpt>
      <trkpt lat="42.3758760" lon="-8.6266210">
        <ele>103.6</ele>
        <time>2022-06-18T13:17:14Z</time>
      </trkpt>
      <trkpt lat="42.3759680" lon="-8.6267050">
        <ele>103.6</ele>
        <time>2022-06-18T13:17:15Z</time>
      </trkpt>
      <trkpt lat="42.3760650" lon="-8.6267860">
        <ele>103.6</ele>
        <time>2022-06-18T13:17:16Z</time>
      </trkpt>
      <trkpt lat="42.3761630" lon="-8.6268660">
        <ele>102.6</ele>
        <time>2022-06-18T13:17:17Z</time>
      </trkpt>
      <trkpt lat="42.3762650" lon="-8.6269400">
        <ele>100.2</ele>
        <time>2022-06-18T13:17:18Z</time>
      </trkpt>
      <trkpt lat="42.3763710" lon="-8.6269930">
        <ele>100.2</ele>
        <time>2022-06-18T13:17:19Z</time>
      </trkpt>
      <trkpt lat="42.3764800" lon="-8.6270200">
        <ele>100.2</ele>
        <time>2022-06-18T13:17:20Z</time>
      </trkpt>
      <trkpt lat="42.3765850" lon="-8.6270250">
        <ele>101.2</ele>
        <time>2022-06-18T13:17:21Z</time>
      </trkpt>
      <trkpt lat="42.3766810" lon="-8.6270150">
        <ele>103.4</ele>
        <time>2022-06-18T13:17:22Z</time>
      </trkpt>
      <trkpt lat="42.3767680" lon="-8.6270010">
        <ele>103.4</ele>
        <time>2022-06-18T13:17:23Z</time>
      </trkpt>
      <trkpt lat="42.3768430" lon="-8.6269880">
        <ele>103.4</ele>
        <time>2022-06-18T13:17:24Z</time>
      </trkpt>
      <trkpt lat="42.3769130" lon="-8.6269760">
        <ele>104.4</ele>
        <time>2022-06-18T13:17:25Z</time>
      </trkpt>
      <trkpt lat="42.3769760" lon="-8.6269710">
        <ele>107.2</ele>
        <time>2022-06-18T13:17:26Z</time>
      </trkpt>
      <trkpt lat="42.3770330" lon="-8.6269680">
        <ele>107.2</ele>
        <time>2022-06-18T13:17:27Z</time>
      </trkpt>
      <trkpt lat="42.3770830" lon="-8.6269650">
        <ele>107.2</ele>
        <time>2022-06-18T13:17:28Z</time>
      </trkpt>
      <trkpt lat="42.3771250" lon="-8.6269660">
        <ele>108.2</ele>
        <time>2022-06-18T13:17:29Z</time>
      </trkpt>
      <trkpt lat="42.3771610" lon="-8.6269730">
        <ele>109.6</ele>
        <time>2022-06-18T13:17:30Z</time>
      </trkpt>
      <trkpt lat="42.3772000" lon="-8.6269880">
        <ele>109.6</ele>
        <time>2022-06-18T13:17:31Z</time>
      </trkpt>
      <trkpt lat="42.3772350" lon="-8.6270150">
        <ele>109.6</ele>
        <time>2022-06-18T13:17:32Z</time>
      </trkpt>
      <trkpt lat="42.3772660" lon="-8.6270450">
        <ele>110.4</ele>
        <time>2022-06-18T13:17:33Z</time>
      </trkpt>
      <trkpt lat="42.3772950" lon="-8.6270810">
        <ele>110.6</ele>
        <time>2022-06-18T13:17:34Z</time>
      </trkpt>
      <trkpt lat="42.3773230" lon="-8.6271180">
        <ele>110.6</ele>
        <time>2022-06-18T13:17:35Z</time>
      </trkpt>
      <trkpt lat="42.3773450" lon="-8.6271510">
        <ele>110.6</ele>
        <time>2022-06-18T13:17:36Z</time>
      </trkpt>
      <trkpt lat="42.3773630" lon="-8.6271780">
        <ele>111.4</ele>
        <time>2022-06-18T13:17:37Z</time>
      </trkpt>
      <trkpt lat="42.3773800" lon="-8.6272030">
        <ele>111.2</ele>
        <time>2022-06-18T13:17:38Z</time>
      </trkpt>
      <trkpt lat="42.3773930" lon="-8.6272300">
        <ele>111.2</ele>
        <time>2022-06-18T13:17:39Z</time>
      </trkpt>
      <trkpt lat="42.3774100" lon="-8.6272600">
        <ele>111.2</ele>
        <time>2022-06-18T13:17:40Z</time>
      </trkpt>
      <trkpt lat="42.3774260" lon="-8.6272860">
        <ele>111.0</ele>
        <time>2022-06-18T13:17:41Z</time>
      </trkpt>
      <trkpt lat="42.3774430" lon="-8.6273000">
        <ele>110.6</ele>
        <time>2022-06-18T13:17:42Z</time>
      </trkpt>
      <trkpt lat="42.3774560" lon="-8.6273050">
        <ele>110.6</ele>
        <time>2022-06-18T13:17:43Z</time>
      </trkpt>
      <trkpt lat="42.3774610" lon="-8.6273060">
        <ele>110.6</ele>
        <time>2022-06-18T13:17:44Z</time>
      </trkpt>
      <trkpt lat="42.3775080" lon="-8.6272830">
        <ele>110.0</ele>
        <time>2022-06-18T13:20:28Z</time>
      </trkpt>
      <trkpt lat="42.3775330" lon="-8.6272810">
        <ele>110.0</ele>
        <time>2022-06-18T13:20:29Z</time>
      </trkpt>
      <trkpt lat="42.3775600" lon="-8.6272830">
        <ele>109.0</ele>
        <time>2022-06-18T13:20:30Z</time>
      </trkpt>
      <trkpt lat="42.3775880" lon="-8.6272810">
        <ele>109.0</ele>
        <time>2022-06-18T13:20:31Z</time>
      </trkpt>
      <trkpt lat="42.3776160" lon="-8.6272760">
        <ele>109.0</ele>
        <time>2022-06-18T13:20:32Z</time>
      </trkpt>
      <trkpt lat="42.3776500" lon="-8.6272700">
        <ele>109.0</ele>
        <time>2022-06-18T13:20:33Z</time>
      </trkpt>
      <trkpt lat="42.3776860" lon="-8.6272630">
        <ele>108.6</ele>
        <time>2022-06-18T13:20:34Z</time>
      </trkpt>
      <trkpt lat="42.3777250" lon="-8.6272560">
        <ele>108.6</ele>
        <time>2022-06-18T13:20:35Z</time>
      </trkpt>
      <trkpt lat="42.3777680" lon="-8.6272510">
        <ele>108.6</ele>
        <time>2022-06-18T13:20:36Z</time>
      </trkpt>
      <trkpt lat="42.3778110" lon="-8.6272530">
        <ele>108.2</ele>
        <time>2022-06-18T13:20:37Z</time>
      </trkpt>
      <trkpt lat="42.3778600" lon="-8.6272580">
        <ele>107.4</ele>
        <time>2022-06-18T13:20:38Z</time>
      </trkpt>
      <trkpt lat="42.3779100" lon="-8.6272650">
        <ele>107.4</ele>
        <time>2022-06-18T13:20:39Z</time>
      </trkpt>
      <trkpt lat="42.3779610" lon="-8.6272700">
        <ele>107.4</ele>
        <time>2022-06-18T13:20:40Z</time>
      </trkpt>
      <trkpt lat="42.3780130" lon="-8.6272730">
        <ele>106.4</ele>
        <time>2022-06-18T13:20:41Z</time>
      </trkpt>
      <trkpt lat="42.3780660" lon="-8.6272680">
        <ele>106.4</ele>
        <time>2022-06-18T13:20:42Z</time>
      </trkpt>
      <trkpt lat="42.3781210" lon="-8.6272610">
        <ele>106.4</ele>
        <time>2022-06-18T13:20:43Z</time>
      </trkpt>
      <trkpt lat="42.3781800" lon="-8.6272650">
        <ele>106.4</ele>
        <time>2022-06-18T13:20:44Z</time>
      </trkpt>
      <trkpt lat="42.3782410" lon="-8.6272760">
        <ele>105.4</ele>
        <time>2022-06-18T13:20:45Z</time>
      </trkpt>
      <trkpt lat="42.3783060" lon="-8.6272910">
        <ele>102.6</ele>
        <time>2022-06-18T13:20:46Z</time>
      </trkpt>
      <trkpt lat="42.3783730" lon="-8.6273110">
        <ele>102.6</ele>
        <time>2022-06-18T13:20:47Z</time>
      </trkpt>
      <trkpt lat="42.3784430" lon="-8.6273410">
        <ele>102.6</ele>
        <time>2022-06-18T13:20:48Z</time>
      </trkpt>
      <trkpt lat="42.3785150" lon="-8.6273850">
        <ele>102.6</ele>
        <time>2022-06-18T13:20:49Z</time>
      </trkpt>
      <trkpt lat="42.3785880" lon="-8.6274410">
        <ele>97.6</ele>
        <time>2022-06-18T13:20:50Z</time>
      </trkpt>
      <trkpt lat="42.3786600" lon="-8.6275080">
        <ele>97.6</ele>
        <time>2022-06-18T13:20:51Z</time>
      </trkpt>
      <trkpt lat="42.3787330" lon="-8.6275830">
        <ele>97.6</ele>
        <time>2022-06-18T13:20:52Z</time>
      </trkpt>
      <trkpt lat="42.3787930" lon="-8.6276550">
        <ele>96.6</ele>
        <time>2022-06-18T13:20:53Z</time>
      </trkpt>
      <trkpt lat="42.3788450" lon="-8.6277100">
        <ele>97.4</ele>
        <time>2022-06-18T13:20:54Z</time>
      </trkpt>
      <trkpt lat="42.3788800" lon="-8.6277400">
        <ele>97.4</ele>
        <time>2022-06-18T13:20:55Z</time>
      </trkpt>
      <trkpt lat="42.3789050" lon="-8.6277510">
        <ele>97.4</ele>
        <time>2022-06-18T13:20:56Z</time>
      </trkpt>
      <trkpt lat="42.3789250" lon="-8.6277560">
        <ele>97.6</ele>
        <time>2022-06-18T13:20:57Z</time>
      </trkpt>
      <trkpt lat="42.3789410" lon="-8.6277680">
        <ele>97.2</ele>
        <time>2022-06-18T13:20:58Z</time>
      </trkpt>
      <trkpt lat="42.3789610" lon="-8.6277900">
        <ele>97.2</ele>
        <time>2022-06-18T13:20:59Z</time>
      </trkpt>
      <trkpt lat="42.3789860" lon="-8.6278230">
        <ele>97.2</ele>
        <time>2022-06-18T13:21:00Z</time>
      </trkpt>
      <trkpt lat="42.3790130" lon="-8.6278710">
        <ele>96.2</ele>
        <time>2022-06-18T13:21:01Z</time>
      </trkpt>
      <trkpt lat="42.3790280" lon="-8.6279200">
        <ele>94.8</ele>
        <time>2022-06-18T13:21:02Z</time>
      </trkpt>
      <trkpt lat="42.3790460" lon="-8.6279750">
        <ele>94.8</ele>
        <time>2022-06-18T13:21:03Z</time>
      </trkpt>
      <trkpt lat="42.3790680" lon="-8.6280410">
        <ele>94.8</ele>
        <time>2022-06-18T13:21:04Z</time>
      </trkpt>
      <trkpt lat="42.3791010" lon="-8.6281150">
        <ele>93.8</ele>
        <time>2022-06-18T13:21:05Z</time>
      </trkpt>
      <trkpt lat="42.3791360" lon="-8.6281960">
        <ele>91.6</ele>
        <time>2022-06-18T13:21:06Z</time>
      </trkpt>
      <trkpt lat="42.3791710" lon="-8.6282810">
        <ele>91.6</ele>
        <time>2022-06-18T13:21:07Z</time>
      </trkpt>
      <trkpt lat="42.3792010" lon="-8.6283680">
        <ele>91.6</ele>
        <time>2022-06-18T13:21:08Z</time>
      </trkpt>
      <trkpt lat="42.3792330" lon="-8.6284530">
        <ele>90.6</ele>
        <time>2022-06-18T13:21:09Z</time>
      </trkpt>
      <trkpt lat="42.3792600" lon="-8.6285310">
        <ele>89.8</ele>
        <time>2022-06-18T13:21:10Z</time>
      </trkpt>
      <trkpt lat="42.3792850" lon="-8.6285950">
        <ele>89.8</ele>
        <time>2022-06-18T13:21:11Z</time>
      </trkpt>
      <trkpt lat="42.3793060" lon="-8.6286410">
        <ele>89.8</ele>
        <time>2022-06-18T13:21:12Z</time>
      </trkpt>
      <trkpt lat="42.3793210" lon="-8.6286700">
        <ele>90.8</ele>
        <time>2022-06-18T13:21:13Z</time>
      </trkpt>
      <trkpt lat="42.3793330" lon="-8.6286860">
        <ele>91.2</ele>
        <time>2022-06-18T13:21:14Z</time>
      </trkpt>
      <trkpt lat="42.3793460" lon="-8.6287050">
        <ele>91.2</ele>
        <time>2022-06-18T13:21:15Z</time>
      </trkpt>
      <trkpt lat="42.3793550" lon="-8.6287360">
        <ele>91.2</ele>
        <time>2022-06-18T13:21:16Z</time>
      </trkpt>
      <trkpt lat="42.3793610" lon="-8.6287730">
        <ele>90.6</ele>
        <time>2022-06-18T13:21:17Z</time>
      </trkpt>
      <trkpt lat="42.3793760" lon="-8.6288110">
        <ele>90.6</ele>
        <time>2022-06-18T13:21:18Z</time>
      </trkpt>
      <trkpt lat="42.3794010" lon="-8.6288480">
        <ele>90.6</ele>
        <time>2022-06-18T13:21:19Z</time>
      </trkpt>
      <trkpt lat="42.3794330" lon="-8.6288830">
        <ele>90.6</ele>
        <time>2022-06-18T13:21:20Z</time>
      </trkpt>
      <trkpt lat="42.3794730" lon="-8.6289250">
        <ele>89.6</ele>
        <time>2022-06-18T13:21:21Z</time>
      </trkpt>
      <trkpt lat="42.3795110" lon="-8.6289750">
        <ele>88.6</ele>
        <time>2022-06-18T13:21:22Z</time>
      </trkpt>
      <trkpt lat="42.3795480" lon="-8.6290300">
        <ele>88.6</ele>
        <time>2022-06-18T13:21:23Z</time>
      </trkpt>
      <trkpt lat="42.3795910" lon="-8.6290760">
        <ele>88.6</ele>
        <time>2022-06-18T13:21:24Z</time>
      </trkpt>
      <trkpt lat="42.3796380" lon="-8.6291160">
        <ele>87.6</ele>
        <time>2022-06-18T13:21:25Z</time>
      </trkpt>
      <trkpt lat="42.3796910" lon="-8.6291560">
        <ele>86.8</ele>
        <time>2022-06-18T13:21:26Z</time>
      </trkpt>
      <trkpt lat="42.3797500" lon="-8.6291950">
        <ele>86.8</ele>
        <time>2022-06-18T13:21:27Z</time>
      </trkpt>
      <trkpt lat="42.3798110" lon="-8.6292210">
        <ele>86.8</ele>
        <time>2022-06-18T13:21:28Z</time>
      </trkpt>
      <trkpt lat="42.3798760" lon="-8.6292410">
        <ele>85.8</ele>
        <time>2022-06-18T13:21:29Z</time>
      </trkpt>
      <trkpt lat="42.3799410" lon="-8.6292610">
        <ele>85.4</ele>
        <time>2022-06-18T13:21:30Z</time>
      </trkpt>
      <trkpt lat="42.3800060" lon="-8.6292830">
        <ele>85.4</ele>
        <time>2022-06-18T13:21:31Z</time>
      </trkpt>
      <trkpt lat="42.3800750" lon="-8.6293080">
        <ele>85.4</ele>
        <time>2022-06-18T13:21:32Z</time>
      </trkpt>
      <trkpt lat="42.3801430" lon="-8.6293330">
        <ele>85.4</ele>
        <time>2022-06-18T13:21:33Z</time>
      </trkpt>
      <trkpt lat="42.3802110" lon="-8.6293600">
        <ele>84.4</ele>
        <time>2022-06-18T13:21:34Z</time>
      </trkpt>
      <trkpt lat="42.3802800" lon="-8.6293860">
        <ele>84.4</ele>
        <time>2022-06-18T13:21:35Z</time>
      </trkpt>
      <trkpt lat="42.3803500" lon="-8.6294180">
        <ele>84.4</ele>
        <time>2022-06-18T13:21:36Z</time>
      </trkpt>
      <trkpt lat="42.3804200" lon="-8.6294530">
        <ele>84.4</ele>
        <time>2022-06-18T13:21:37Z</time>
      </trkpt>
      <trkpt lat="42.3804900" lon="-8.6294910">
        <ele>81.8</ele>
        <time>2022-06-18T13:21:38Z</time>
      </trkpt>
      <trkpt lat="42.3805630" lon="-8.6295260">
        <ele>81.8</ele>
        <time>2022-06-18T13:21:39Z</time>
      </trkpt>
      <trkpt lat="42.3806380" lon="-8.6295530">
        <ele>81.8</ele>
        <time>2022-06-18T13:21:40Z</time>
      </trkpt>
      <trkpt lat="42.3807130" lon="-8.6295760">
        <ele>81.8</ele>
        <time>2022-06-18T13:21:41Z</time>
      </trkpt>
      <trkpt lat="42.3807850" lon="-8.6295900">
        <ele>81.4</ele>
        <time>2022-06-18T13:21:42Z</time>
      </trkpt>
      <trkpt lat="42.3808550" lon="-8.6295960">
        <ele>81.4</ele>
        <time>2022-06-18T13:21:43Z</time>
      </trkpt>
      <trkpt lat="42.3809200" lon="-8.6295910">
        <ele>81.4</ele>
        <time>2022-06-18T13:21:44Z</time>
      </trkpt>
      <trkpt lat="42.3809800" lon="-8.6295750">
        <ele>80.8</ele>
        <time>2022-06-18T13:21:45Z</time>
      </trkpt>
      <trkpt lat="42.3810360" lon="-8.6295580">
        <ele>80.6</ele>
        <time>2022-06-18T13:21:46Z</time>
      </trkpt>
      <trkpt lat="42.3810960" lon="-8.6295460">
        <ele>80.6</ele>
        <time>2022-06-18T13:21:47Z</time>
      </trkpt>
      <trkpt lat="42.3811560" lon="-8.6295430">
        <ele>80.6</ele>
        <time>2022-06-18T13:21:48Z</time>
      </trkpt>
      <trkpt lat="42.3812130" lon="-8.6295360">
        <ele>80.6</ele>
        <time>2022-06-18T13:21:49Z</time>
      </trkpt>
      <trkpt lat="42.3812700" lon="-8.6295230">
        <ele>79.8</ele>
        <time>2022-06-18T13:21:50Z</time>
      </trkpt>
      <trkpt lat="42.3813280" lon="-8.6295100">
        <ele>79.8</ele>
        <time>2022-06-18T13:21:51Z</time>
      </trkpt>
      <trkpt lat="42.3813850" lon="-8.6294950">
        <ele>79.8</ele>
        <time>2022-06-18T13:21:52Z</time>
      </trkpt>
      <trkpt lat="42.3814430" lon="-8.6294850">
        <ele>78.8</ele>
        <time>2022-06-18T13:21:53Z</time>
      </trkpt>
      <trkpt lat="42.3815000" lon="-8.6294800">
        <ele>78.2</ele>
        <time>2022-06-18T13:21:54Z</time>
      </trkpt>
      <trkpt lat="42.3815560" lon="-8.6294830">
        <ele>78.2</ele>
        <time>2022-06-18T13:21:55Z</time>
      </trkpt>
      <trkpt lat="42.3816100" lon="-8.6294900">
        <ele>78.2</ele>
        <time>2022-06-18T13:21:56Z</time>
      </trkpt>
      <trkpt lat="42.3816580" lon="-8.6295060">
        <ele>78.2</ele>
        <time>2022-06-18T13:21:57Z</time>
      </trkpt>
      <trkpt lat="42.3817050" lon="-8.6295280">
        <ele>77.6</ele>
        <time>2022-06-18T13:21:58Z</time>
      </trkpt>
      <trkpt lat="42.3817500" lon="-8.6295450">
        <ele>77.6</ele>
        <time>2022-06-18T13:21:59Z</time>
      </trkpt>
      <trkpt lat="42.3817860" lon="-8.6295510">
        <ele>77.6</ele>
        <time>2022-06-18T13:22:00Z</time>
      </trkpt>
      <trkpt lat="42.3818080" lon="-8.6295530">
        <ele>77.8</ele>
        <time>2022-06-18T13:22:01Z</time>
      </trkpt>
      <trkpt lat="42.3818280" lon="-8.6295580">
        <ele>77.6</ele>
        <time>2022-06-18T13:22:02Z</time>
      </trkpt>
      <trkpt lat="42.3818510" lon="-8.6295650">
        <ele>77.6</ele>
        <time>2022-06-18T13:22:03Z</time>
      </trkpt>
      <trkpt lat="42.3818810" lon="-8.6295710">
        <ele>77.6</ele>
        <time>2022-06-18T13:22:04Z</time>
      </trkpt>
      <trkpt lat="42.3819130" lon="-8.6295760">
        <ele>77.0</ele>
        <time>2022-06-18T13:22:05Z</time>
      </trkpt>
      <trkpt lat="42.3819480" lon="-8.6295860">
        <ele>77.0</ele>
        <time>2022-06-18T13:22:06Z</time>
      </trkpt>
      <trkpt lat="42.3819850" lon="-8.6295950">
        <ele>77.0</ele>
        <time>2022-06-18T13:22:07Z</time>
      </trkpt>
      <trkpt lat="42.3820250" lon="-8.6296080">
        <ele>77.0</ele>
        <time>2022-06-18T13:22:08Z</time>
      </trkpt>
      <trkpt lat="42.3820680" lon="-8.6296260">
        <ele>76.0</ele>
        <time>2022-06-18T13:22:09Z</time>
      </trkpt>
      <trkpt lat="42.3821200" lon="-8.6296430">
        <ele>75.0</ele>
        <time>2022-06-18T13:22:10Z</time>
      </trkpt>
      <trkpt lat="42.3821730" lon="-8.6296500">
        <ele>75.0</ele>
        <time>2022-06-18T13:22:11Z</time>
      </trkpt>
      <trkpt lat="42.3822300" lon="-8.6296560">
        <ele>75.0</ele>
        <time>2022-06-18T13:22:12Z</time>
      </trkpt>
      <trkpt lat="42.3822830" lon="-8.6296580">
        <ele>74.0</ele>
        <time>2022-06-18T13:22:13Z</time>
      </trkpt>
      <trkpt lat="42.3823350" lon="-8.6296680">
        <ele>73.6</ele>
        <time>2022-06-18T13:22:14Z</time>
      </trkpt>
      <trkpt lat="42.3823910" lon="-8.6296810">
        <ele>73.6</ele>
        <time>2022-06-18T13:22:15Z</time>
      </trkpt>
      <trkpt lat="42.3824410" lon="-8.6296860">
        <ele>73.6</ele>
        <time>2022-06-18T13:22:16Z</time>
      </trkpt>
      <trkpt lat="42.3824850" lon="-8.6296900">
        <ele>73.6</ele>
        <time>2022-06-18T13:22:17Z</time>
      </trkpt>
      <trkpt lat="42.3825210" lon="-8.6296930">
        <ele>73.6</ele>
        <time>2022-06-18T13:22:18Z</time>
      </trkpt>
      <trkpt lat="42.3825550" lon="-8.6296930">
        <ele>73.6</ele>
        <time>2022-06-18T13:22:19Z</time>
      </trkpt>
      <trkpt lat="42.3825950" lon="-8.6296900">
        <ele>73.6</ele>
        <time>2022-06-18T13:22:20Z</time>
      </trkpt>
      <trkpt lat="42.3826310" lon="-8.6296930">
        <ele>73.6</ele>
        <time>2022-06-18T13:22:21Z</time>
      </trkpt>
      <trkpt lat="42.3826760" lon="-8.6296960">
        <ele>72.4</ele>
        <time>2022-06-18T13:22:22Z</time>
      </trkpt>
      <trkpt lat="42.3827200" lon="-8.6297100">
        <ele>72.4</ele>
        <time>2022-06-18T13:22:23Z</time>
      </trkpt>
      <trkpt lat="42.3827660" lon="-8.6297280">
        <ele>72.4</ele>
        <time>2022-06-18T13:22:24Z</time>
      </trkpt>
      <trkpt lat="42.3828130" lon="-8.6297530">
        <ele>72.0</ele>
        <time>2022-06-18T13:22:25Z</time>
      </trkpt>
      <trkpt lat="42.3828630" lon="-8.6297710">
        <ele>72.2</ele>
        <time>2022-06-18T13:22:26Z</time>
      </trkpt>
      <trkpt lat="42.3829050" lon="-8.6297900">
        <ele>72.2</ele>
        <time>2022-06-18T13:22:27Z</time>
      </trkpt>
      <trkpt lat="42.3829550" lon="-8.6298080">
        <ele>72.2</ele>
        <time>2022-06-18T13:22:28Z</time>
      </trkpt>
      <trkpt lat="42.3830050" lon="-8.6298230">
        <ele>71.2</ele>
        <time>2022-06-18T13:22:29Z</time>
      </trkpt>
      <trkpt lat="42.3830530" lon="-8.6298500">
        <ele>69.4</ele>
        <time>2022-06-18T13:22:30Z</time>
      </trkpt>
      <trkpt lat="42.3830980" lon="-8.6298860">
        <ele>69.4</ele>
        <time>2022-06-18T13:22:31Z</time>
      </trkpt>
      <trkpt lat="42.3831450" lon="-8.6299100">
        <ele>69.4</ele>
        <time>2022-06-18T13:22:32Z</time>
      </trkpt>
      <trkpt lat="42.3831810" lon="-8.6299210">
        <ele>70.4</ele>
        <time>2022-06-18T13:22:33Z</time>
      </trkpt>
      <trkpt lat="42.3832060" lon="-8.6299300">
        <ele>71.4</ele>
        <time>2022-06-18T13:22:34Z</time>
      </trkpt>
      <trkpt lat="42.3832250" lon="-8.6299400">
        <ele>71.4</ele>
        <time>2022-06-18T13:22:35Z</time>
      </trkpt>
      <trkpt lat="42.3832410" lon="-8.6299510">
        <ele>71.4</ele>
        <time>2022-06-18T13:22:36Z</time>
      </trkpt>
      <trkpt lat="42.3832680" lon="-8.6299650">
        <ele>71.4</ele>
        <time>2022-06-18T13:22:37Z</time>
      </trkpt>
      <trkpt lat="42.3833000" lon="-8.6299780">
        <ele>70.2</ele>
        <time>2022-06-18T13:22:38Z</time>
      </trkpt>
      <trkpt lat="42.3833350" lon="-8.6299950">
        <ele>70.2</ele>
        <time>2022-06-18T13:22:39Z</time>
      </trkpt>
      <trkpt lat="42.3833710" lon="-8.6300200">
        <ele>70.2</ele>
        <time>2022-06-18T13:22:40Z</time>
      </trkpt>
      <trkpt lat="42.3834050" lon="-8.6300460">
        <ele>69.2</ele>
        <time>2022-06-18T13:22:41Z</time>
      </trkpt>
      <trkpt lat="42.3834330" lon="-8.6300680">
        <ele>66.8</ele>
        <time>2022-06-18T13:22:42Z</time>
      </trkpt>
      <trkpt lat="42.3834600" lon="-8.6300930">
        <ele>66.8</ele>
        <time>2022-06-18T13:22:43Z</time>
      </trkpt>
      <trkpt lat="42.3834900" lon="-8.6301150">
        <ele>66.8</ele>
        <time>2022-06-18T13:22:44Z</time>
      </trkpt>
      <trkpt lat="42.3835210" lon="-8.6301300">
        <ele>67.0</ele>
        <time>2022-06-18T13:22:45Z</time>
      </trkpt>
      <trkpt lat="42.3835600" lon="-8.6301350">
        <ele>67.2</ele>
        <time>2022-06-18T13:22:46Z</time>
      </trkpt>
      <trkpt lat="42.3836030" lon="-8.6301210">
        <ele>67.2</ele>
        <time>2022-06-18T13:22:47Z</time>
      </trkpt>
      <trkpt lat="42.3836550" lon="-8.6300950">
        <ele>67.2</ele>
        <time>2022-06-18T13:22:48Z</time>
      </trkpt>
      <trkpt lat="42.3837030" lon="-8.6300650">
        <ele>66.2</ele>
        <time>2022-06-18T13:22:49Z</time>
      </trkpt>
      <trkpt lat="42.3837560" lon="-8.6300450">
        <ele>60.8</ele>
        <time>2022-06-18T13:22:50Z</time>
      </trkpt>
      <trkpt lat="42.3838050" lon="-8.6300230">
        <ele>60.8</ele>
        <time>2022-06-18T13:22:51Z</time>
      </trkpt>
      <trkpt lat="42.3838460" lon="-8.6300130">
        <ele>60.8</ele>
        <time>2022-06-18T13:22:52Z</time>
      </trkpt>
      <trkpt lat="42.3838860" lon="-8.6300110">
        <ele>59.8</ele>
        <time>2022-06-18T13:22:53Z</time>
      </trkpt>
      <trkpt lat="42.3839310" lon="-8.6300230">
        <ele>57.8</ele>
        <time>2022-06-18T13:22:54Z</time>
      </trkpt>
      <trkpt lat="42.3839730" lon="-8.6300550">
        <ele>57.8</ele>
        <time>2022-06-18T13:22:55Z</time>
      </trkpt>
      <trkpt lat="42.3840180" lon="-8.6301010">
        <ele>57.8</ele>
        <time>2022-06-18T13:22:56Z</time>
      </trkpt>
      <trkpt lat="42.3840630" lon="-8.6301480">
        <ele>57.8</ele>
        <time>2022-06-18T13:22:57Z</time>
      </trkpt>
      <trkpt lat="42.3841060" lon="-8.6301930">
        <ele>57.4</ele>
        <time>2022-06-18T13:22:58Z</time>
      </trkpt>
      <trkpt lat="42.3841560" lon="-8.6302360">
        <ele>57.4</ele>
        <time>2022-06-18T13:22:59Z</time>
      </trkpt>
      <trkpt lat="42.3842100" lon="-8.6302780">
        <ele>57.4</ele>
        <time>2022-06-18T13:23:00Z</time>
      </trkpt>
      <trkpt lat="42.3842650" lon="-8.6303210">
        <ele>56.4</ele>
        <time>2022-06-18T13:23:01Z</time>
      </trkpt>
      <trkpt lat="42.3843180" lon="-8.6303710">
        <ele>55.6</ele>
        <time>2022-06-18T13:23:02Z</time>
      </trkpt>
      <trkpt lat="42.3843750" lon="-8.6304230">
        <ele>55.6</ele>
        <time>2022-06-18T13:23:03Z</time>
      </trkpt>
      <trkpt lat="42.3844260" lon="-8.6304660">
        <ele>55.6</ele>
        <time>2022-06-18T13:23:04Z</time>
      </trkpt>
      <trkpt lat="42.3844680" lon="-8.6305010">
        <ele>56.0</ele>
        <time>2022-06-18T13:23:05Z</time>
      </trkpt>
      <trkpt lat="42.3845010" lon="-8.6305280">
        <ele>56.0</ele>
        <time>2022-06-18T13:23:06Z</time>
      </trkpt>
      <trkpt lat="42.3845280" lon="-8.6305510">
        <ele>56.0</ele>
        <time>2022-06-18T13:23:07Z</time>
      </trkpt>
      <trkpt lat="42.3845480" lon="-8.6305730">
        <ele>56.0</ele>
        <time>2022-06-18T13:23:08Z</time>
      </trkpt>
      <trkpt lat="42.3845730" lon="-8.6305860">
        <ele>55.0</ele>
        <time>2022-06-18T13:23:09Z</time>
      </trkpt>
      <trkpt lat="42.3846050" lon="-8.6306000">
        <ele>55.2</ele>
        <time>2022-06-18T13:23:10Z</time>
      </trkpt>
      <trkpt lat="42.3846410" lon="-8.6306060">
        <ele>55.2</ele>
        <time>2022-06-18T13:23:11Z</time>
      </trkpt>
      <trkpt lat="42.3846800" lon="-8.6306060">
        <ele>55.2</ele>
        <time>2022-06-18T13:23:12Z</time>
      </trkpt>
      <trkpt lat="42.3847200" lon="-8.6306030">
        <ele>54.4</ele>
        <time>2022-06-18T13:23:13Z</time>
      </trkpt>
      <trkpt lat="42.3847600" lon="-8.6306030">
        <ele>53.8</ele>
        <time>2022-06-18T13:23:14Z</time>
      </trkpt>
      <trkpt lat="42.3848000" lon="-8.6306000">
        <ele>53.8</ele>
        <time>2022-06-18T13:23:15Z</time>
      </trkpt>
      <trkpt lat="42.3848360" lon="-8.6305910">
        <ele>53.8</ele>
        <time>2022-06-18T13:23:16Z</time>
      </trkpt>
      <trkpt lat="42.3848730" lon="-8.6305810">
        <ele>53.8</ele>
        <time>2022-06-18T13:23:17Z</time>
      </trkpt>
      <trkpt lat="42.3849080" lon="-8.6305700">
        <ele>54.0</ele>
        <time>2022-06-18T13:23:18Z</time>
      </trkpt>
      <trkpt lat="42.3849400" lon="-8.6305600">
        <ele>54.0</ele>
        <time>2022-06-18T13:23:19Z</time>
      </trkpt>
      <trkpt lat="42.3849710" lon="-8.6305510">
        <ele>54.0</ele>
        <time>2022-06-18T13:23:20Z</time>
      </trkpt>
      <trkpt lat="42.3850030" lon="-8.6305400">
        <ele>54.0</ele>
        <time>2022-06-18T13:23:21Z</time>
      </trkpt>
      <trkpt lat="42.3850360" lon="-8.6305280">
        <ele>54.0</ele>
        <time>2022-06-18T13:23:22Z</time>
      </trkpt>
      <trkpt lat="42.3850660" lon="-8.6305210">
        <ele>54.0</ele>
        <time>2022-06-18T13:23:23Z</time>
      </trkpt>
      <trkpt lat="42.3851000" lon="-8.6305130">
        <ele>54.0</ele>
        <time>2022-06-18T13:23:24Z</time>
      </trkpt>
      <trkpt lat="42.3851330" lon="-8.6305050">
        <ele>54.4</ele>
        <time>2022-06-18T13:23:25Z</time>
      </trkpt>
      <trkpt lat="42.3851650" lon="-8.6304960">
        <ele>54.4</ele>
        <time>2022-06-18T13:23:26Z</time>
      </trkpt>
      <trkpt lat="42.3851950" lon="-8.6304950">
        <ele>54.4</ele>
        <time>2022-06-18T13:23:27Z</time>
      </trkpt>
      <trkpt lat="42.3852250" lon="-8.6304960">
        <ele>54.4</ele>
        <time>2022-06-18T13:23:28Z</time>
      </trkpt>
      <trkpt lat="42.3852550" lon="-8.6304980">
        <ele>54.4</ele>
        <time>2022-06-18T13:23:29Z</time>
      </trkpt>
      <trkpt lat="42.3852830" lon="-8.6304960">
        <ele>54.4</ele>
        <time>2022-06-18T13:23:30Z</time>
      </trkpt>
      <trkpt lat="42.3853110" lon="-8.6304930">
        <ele>54.4</ele>
        <time>2022-06-18T13:23:31Z</time>
      </trkpt>
      <trkpt lat="42.3853380" lon="-8.6304930">
        <ele>54.4</ele>
        <time>2022-06-18T13:23:32Z</time>
      </trkpt>
      <trkpt lat="42.3853660" lon="-8.6304950">
        <ele>54.6</ele>
        <time>2022-06-18T13:23:33Z</time>
      </trkpt>
      <trkpt lat="42.3853950" lon="-8.6304960">
        <ele>54.4</ele>
        <time>2022-06-18T13:23:34Z</time>
      </trkpt>
      <trkpt lat="42.3854210" lon="-8.6305000">
        <ele>54.4</ele>
        <time>2022-06-18T13:23:35Z</time>
      </trkpt>
      <trkpt lat="42.3854480" lon="-8.6305010">
        <ele>54.4</ele>
        <time>2022-06-18T13:23:36Z</time>
      </trkpt>
      <trkpt lat="42.3854750" lon="-8.6304960">
        <ele>55.0</ele>
        <time>2022-06-18T13:23:37Z</time>
      </trkpt>
      <trkpt lat="42.3854980" lon="-8.6304930">
        <ele>54.8</ele>
        <time>2022-06-18T13:23:38Z</time>
      </trkpt>
      <trkpt lat="42.3855200" lon="-8.6304910">
        <ele>54.8</ele>
        <time>2022-06-18T13:23:39Z</time>
      </trkpt>
      <trkpt lat="42.3855430" lon="-8.6304860">
        <ele>54.8</ele>
        <time>2022-06-18T13:23:40Z</time>
      </trkpt>
      <trkpt lat="42.3855660" lon="-8.6304800">
        <ele>55.2</ele>
        <time>2022-06-18T13:23:41Z</time>
      </trkpt>
      <trkpt lat="42.3855900" lon="-8.6304760">
        <ele>55.0</ele>
        <time>2022-06-18T13:23:42Z</time>
      </trkpt>
      <trkpt lat="42.3856150" lon="-8.6304750">
        <ele>55.0</ele>
        <time>2022-06-18T13:23:43Z</time>
      </trkpt>
      <trkpt lat="42.3856400" lon="-8.6304710">
        <ele>55.0</ele>
        <time>2022-06-18T13:23:44Z</time>
      </trkpt>
      <trkpt lat="42.3856630" lon="-8.6304680">
        <ele>55.0</ele>
        <time>2022-06-18T13:23:45Z</time>
      </trkpt>
      <trkpt lat="42.3856860" lon="-8.6304680">
        <ele>54.8</ele>
        <time>2022-06-18T13:23:46Z</time>
      </trkpt>
      <trkpt lat="42.3857100" lon="-8.6304680">
        <ele>54.8</ele>
        <time>2022-06-18T13:23:47Z</time>
      </trkpt>
      <trkpt lat="42.3857350" lon="-8.6304660">
        <ele>54.8</ele>
        <time>2022-06-18T13:23:48Z</time>
      </trkpt>
      <trkpt lat="42.3857600" lon="-8.6304650">
        <ele>54.8</ele>
        <time>2022-06-18T13:23:49Z</time>
      </trkpt>
      <trkpt lat="42.3857850" lon="-8.6304630">
        <ele>54.8</ele>
        <time>2022-06-18T13:23:50Z</time>
      </trkpt>
      <trkpt lat="42.3858100" lon="-8.6304600">
        <ele>54.8</ele>
        <time>2022-06-18T13:23:51Z</time>
      </trkpt>
      <trkpt lat="42.3858360" lon="-8.6304560">
        <ele>54.8</ele>
        <time>2022-06-18T13:23:52Z</time>
      </trkpt>
      <trkpt lat="42.3858630" lon="-8.6304560">
        <ele>54.8</ele>
        <time>2022-06-18T13:23:53Z</time>
      </trkpt>
      <trkpt lat="42.3858900" lon="-8.6304550">
        <ele>55.0</ele>
        <time>2022-06-18T13:23:54Z</time>
      </trkpt>
      <trkpt lat="42.3859160" lon="-8.6304510">
        <ele>55.0</ele>
        <time>2022-06-18T13:23:55Z</time>
      </trkpt>
      <trkpt lat="42.3859350" lon="-8.6304510">
        <ele>55.0</ele>
        <time>2022-06-18T13:23:56Z</time>
      </trkpt>
      <trkpt lat="42.3859580" lon="-8.6304500">
        <ele>55.0</ele>
        <time>2022-06-18T13:23:57Z</time>
      </trkpt>
      <trkpt lat="42.3859830" lon="-8.6304480">
        <ele>55.4</ele>
        <time>2022-06-18T13:23:58Z</time>
      </trkpt>
      <trkpt lat="42.3860060" lon="-8.6304460">
        <ele>55.4</ele>
        <time>2022-06-18T13:23:59Z</time>
      </trkpt>
      <trkpt lat="42.3860280" lon="-8.6304430">
        <ele>55.4</ele>
        <time>2022-06-18T13:24:00Z</time>
      </trkpt>
      <trkpt lat="42.3860480" lon="-8.6304400">
        <ele>56.2</ele>
        <time>2022-06-18T13:24:01Z</time>
      </trkpt>
      <trkpt lat="42.3860650" lon="-8.6304360">
        <ele>56.4</ele>
        <time>2022-06-18T13:24:02Z</time>
      </trkpt>
      <trkpt lat="42.3860810" lon="-8.6304380">
        <ele>56.4</ele>
        <time>2022-06-18T13:24:03Z</time>
      </trkpt>
      <trkpt lat="42.3861030" lon="-8.6304480">
        <ele>56.4</ele>
        <time>2022-06-18T13:24:04Z</time>
      </trkpt>
      <trkpt lat="42.3861260" lon="-8.6304580">
        <ele>55.6</ele>
        <time>2022-06-18T13:24:05Z</time>
      </trkpt>
      <trkpt lat="42.3861550" lon="-8.6304650">
        <ele>55.4</ele>
        <time>2022-06-18T13:24:06Z</time>
      </trkpt>
      <trkpt lat="42.3861800" lon="-8.6304660">
        <ele>55.4</ele>
        <time>2022-06-18T13:24:07Z</time>
      </trkpt>
      <trkpt lat="42.3862000" lon="-8.6304660">
        <ele>55.4</ele>
        <time>2022-06-18T13:24:08Z</time>
      </trkpt>
      <trkpt lat="42.3862160" lon="-8.6304660">
        <ele>55.4</ele>
        <time>2022-06-18T13:24:09Z</time>
      </trkpt>
      <trkpt lat="42.3862230" lon="-8.6304660">
        <ele>55.8</ele>
        <time>2022-06-18T13:24:10Z</time>
      </trkpt>
      <trkpt lat="42.3862230" lon="-8.6304660">
        <ele>55.8</ele>
        <time>2022-06-18T13:24:11Z</time>
      </trkpt>
      <trkpt lat="42.3863000" lon="-8.6304600">
        <ele>54.6</ele>
        <time>2022-06-18T13:25:48Z</time>
      </trkpt>
      <trkpt lat="42.3863160" lon="-8.6304530">
        <ele>54.6</ele>
        <time>2022-06-18T13:25:49Z</time>
      </trkpt>
      <trkpt lat="42.3863330" lon="-8.6304410">
        <ele>54.6</ele>
        <time>2022-06-18T13:25:50Z</time>
      </trkpt>
      <trkpt lat="42.3863500" lon="-8.6304310">
        <ele>54.6</ele>
        <time>2022-06-18T13:25:51Z</time>
      </trkpt>
      <trkpt lat="42.3863680" lon="-8.6304250">
        <ele>54.6</ele>
        <time>2022-06-18T13:25:52Z</time>
      </trkpt>
      <trkpt lat="42.3863860" lon="-8.6304160">
        <ele>54.6</ele>
        <time>2022-06-18T13:25:53Z</time>
      </trkpt>
      <trkpt lat="42.3864050" lon="-8.6304080">
        <ele>54.4</ele>
        <time>2022-06-18T13:25:54Z</time>
      </trkpt>
      <trkpt lat="42.3864260" lon="-8.6304000">
        <ele>54.4</ele>
        <time>2022-06-18T13:25:55Z</time>
      </trkpt>
      <trkpt lat="42.3864480" lon="-8.6303910">
        <ele>54.4</ele>
        <time>2022-06-18T13:25:56Z</time>
      </trkpt>
      <trkpt lat="42.3864710" lon="-8.6303810">
        <ele>54.4</ele>
        <time>2022-06-18T13:25:57Z</time>
      </trkpt>
      <trkpt lat="42.3864930" lon="-8.6303710">
        <ele>54.6</ele>
        <time>2022-06-18T13:25:58Z</time>
      </trkpt>
      <trkpt lat="42.3865130" lon="-8.6303580">
        <ele>54.6</ele>
        <time>2022-06-18T13:25:59Z</time>
      </trkpt>
      <trkpt lat="42.3865350" lon="-8.6303430">
        <ele>54.6</ele>
        <time>2022-06-18T13:26:00Z</time>
      </trkpt>
      <trkpt lat="42.3865600" lon="-8.6303260">
        <ele>53.8</ele>
        <time>2022-06-18T13:26:01Z</time>
      </trkpt>
      <trkpt lat="42.3865850" lon="-8.6303100">
        <ele>53.4</ele>
        <time>2022-06-18T13:26:02Z</time>
      </trkpt>
      <trkpt lat="42.3866150" lon="-8.6302900">
        <ele>53.4</ele>
        <time>2022-06-18T13:26:03Z</time>
      </trkpt>
      <trkpt lat="42.3866380" lon="-8.6302660">
        <ele>53.4</ele>
        <time>2022-06-18T13:26:04Z</time>
      </trkpt>
      <trkpt lat="42.3866610" lon="-8.6302410">
        <ele>53.0</ele>
        <time>2022-06-18T13:26:05Z</time>
      </trkpt>
      <trkpt lat="42.3866930" lon="-8.6302160">
        <ele>53.8</ele>
        <time>2022-06-18T13:26:06Z</time>
      </trkpt>
      <trkpt lat="42.3867250" lon="-8.6301900">
        <ele>53.8</ele>
        <time>2022-06-18T13:26:07Z</time>
      </trkpt>
      <trkpt lat="42.3867530" lon="-8.6301650">
        <ele>53.8</ele>
        <time>2022-06-18T13:26:08Z</time>
      </trkpt>
      <trkpt lat="42.3867810" lon="-8.6301350">
        <ele>53.6</ele>
        <time>2022-06-18T13:26:09Z</time>
      </trkpt>
      <trkpt lat="42.3868110" lon="-8.6301100">
        <ele>53.4</ele>
        <time>2022-06-18T13:26:10Z</time>
      </trkpt>
      <trkpt lat="42.3868430" lon="-8.6300880">
        <ele>53.4</ele>
        <time>2022-06-18T13:26:11Z</time>
      </trkpt>
      <trkpt lat="42.3868760" lon="-8.6300660">
        <ele>53.4</ele>
        <time>2022-06-18T13:26:12Z</time>
      </trkpt>
      <trkpt lat="42.3869110" lon="-8.6300500">
        <ele>53.0</ele>
        <time>2022-06-18T13:26:13Z</time>
      </trkpt>
      <trkpt lat="42.3869480" lon="-8.6300330">
        <ele>53.0</ele>
        <time>2022-06-18T13:26:14Z</time>
      </trkpt>
      <trkpt lat="42.3869800" lon="-8.6300150">
        <ele>53.0</ele>
        <time>2022-06-18T13:26:15Z</time>
      </trkpt>
      <trkpt lat="42.3870130" lon="-8.6299960">
        <ele>53.0</ele>
        <time>2022-06-18T13:26:16Z</time>
      </trkpt>
      <trkpt lat="42.3870460" lon="-8.6299800">
        <ele>53.0</ele>
        <time>2022-06-18T13:26:17Z</time>
      </trkpt>
      <trkpt lat="42.3870780" lon="-8.6299630">
        <ele>52.6</ele>
        <time>2022-06-18T13:26:18Z</time>
      </trkpt>
      <trkpt lat="42.3871100" lon="-8.6299460">
        <ele>52.6</ele>
        <time>2022-06-18T13:26:19Z</time>
      </trkpt>
      <trkpt lat="42.3871450" lon="-8.6299310">
        <ele>52.6</ele>
        <time>2022-06-18T13:26:20Z</time>
      </trkpt>
      <trkpt lat="42.3871800" lon="-8.6299180">
        <ele>53.0</ele>
        <time>2022-06-18T13:26:21Z</time>
      </trkpt>
      <trkpt lat="42.3872110" lon="-8.6299050">
        <ele>52.0</ele>
        <time>2022-06-18T13:26:22Z</time>
      </trkpt>
      <trkpt lat="42.3872410" lon="-8.6298950">
        <ele>52.0</ele>
        <time>2022-06-18T13:26:23Z</time>
      </trkpt>
      <trkpt lat="42.3872710" lon="-8.6298810">
        <ele>52.0</ele>
        <time>2022-06-18T13:26:24Z</time>
      </trkpt>
      <trkpt lat="42.3873000" lon="-8.6298660">
        <ele>52.4</ele>
        <time>2022-06-18T13:26:25Z</time>
      </trkpt>
      <trkpt lat="42.3873300" lon="-8.6298510">
        <ele>51.8</ele>
        <time>2022-06-18T13:26:26Z</time>
      </trkpt>
      <trkpt lat="42.3873630" lon="-8.6298330">
        <ele>51.8</ele>
        <time>2022-06-18T13:26:27Z</time>
      </trkpt>
      <trkpt lat="42.3873930" lon="-8.6298110">
        <ele>51.8</ele>
        <time>2022-06-18T13:26:28Z</time>
      </trkpt>
      <trkpt lat="42.3874230" lon="-8.6297880">
        <ele>51.8</ele>
        <time>2022-06-18T13:26:29Z</time>
      </trkpt>
      <trkpt lat="42.3874550" lon="-8.6297700">
        <ele>51.6</ele>
        <time>2022-06-18T13:26:30Z</time>
      </trkpt>
      <trkpt lat="42.3874860" lon="-8.6297480">
        <ele>51.6</ele>
        <time>2022-06-18T13:26:31Z</time>
      </trkpt>
      <trkpt lat="42.3875160" lon="-8.6297280">
        <ele>51.6</ele>
        <time>2022-06-18T13:26:32Z</time>
      </trkpt>
      <trkpt lat="42.3875450" lon="-8.6297080">
        <ele>51.6</ele>
        <time>2022-06-18T13:26:33Z</time>
      </trkpt>
      <trkpt lat="42.3875700" lon="-8.6296880">
        <ele>51.4</ele>
        <time>2022-06-18T13:26:34Z</time>
      </trkpt>
      <trkpt lat="42.3875960" lon="-8.6296660">
        <ele>51.4</ele>
        <time>2022-06-18T13:26:35Z</time>
      </trkpt>
      <trkpt lat="42.3876210" lon="-8.6296430">
        <ele>51.4</ele>
        <time>2022-06-18T13:26:36Z</time>
      </trkpt>
      <trkpt lat="42.3876500" lon="-8.6296210">
        <ele>51.8</ele>
        <time>2022-06-18T13:26:37Z</time>
      </trkpt>
      <trkpt lat="42.3876760" lon="-8.6296010">
        <ele>51.2</ele>
        <time>2022-06-18T13:26:38Z</time>
      </trkpt>
      <trkpt lat="42.3877010" lon="-8.6295850">
        <ele>51.2</ele>
        <time>2022-06-18T13:26:39Z</time>
      </trkpt>
      <trkpt lat="42.3877300" lon="-8.6295710">
        <ele>51.2</ele>
        <time>2022-06-18T13:26:40Z</time>
      </trkpt>
      <trkpt lat="42.3877580" lon="-8.6295630">
        <ele>51.4</ele>
        <time>2022-06-18T13:26:41Z</time>
      </trkpt>
      <trkpt lat="42.3877860" lon="-8.6295530">
        <ele>51.2</ele>
        <time>2022-06-18T13:26:42Z</time>
      </trkpt>
      <trkpt lat="42.3878200" lon="-8.6295460">
        <ele>51.2</ele>
        <time>2022-06-18T13:26:43Z</time>
      </trkpt>
      <trkpt lat="42.3878530" lon="-8.6295450">
        <ele>51.2</ele>
        <time>2022-06-18T13:26:44Z</time>
      </trkpt>
      <trkpt lat="42.3878850" lon="-8.6295450">
        <ele>51.2</ele>
        <time>2022-06-18T13:26:45Z</time>
      </trkpt>
      <trkpt lat="42.3879180" lon="-8.6295500">
        <ele>51.2</ele>
        <time>2022-06-18T13:26:46Z</time>
      </trkpt>
      <trkpt lat="42.3879500" lon="-8.6295530">
        <ele>51.2</ele>
        <time>2022-06-18T13:26:47Z</time>
      </trkpt>
      <trkpt lat="42.3879830" lon="-8.6295630">
        <ele>51.2</ele>
        <time>2022-06-18T13:26:48Z</time>
      </trkpt>
      <trkpt lat="42.3880180" lon="-8.6295760">
        <ele>51.0</ele>
        <time>2022-06-18T13:26:49Z</time>
      </trkpt>
      <trkpt lat="42.3880550" lon="-8.6295880">
        <ele>51.4</ele>
        <time>2022-06-18T13:26:50Z</time>
      </trkpt>
      <trkpt lat="42.3880860" lon="-8.6296030">
        <ele>51.4</ele>
        <time>2022-06-18T13:26:51Z</time>
      </trkpt>
      <trkpt lat="42.3881180" lon="-8.6296150">
        <ele>51.4</ele>
        <time>2022-06-18T13:26:52Z</time>
      </trkpt>
      <trkpt lat="42.3881460" lon="-8.6296250">
        <ele>51.4</ele>
        <time>2022-06-18T13:26:53Z</time>
      </trkpt>
      <trkpt lat="42.3881780" lon="-8.6296380">
        <ele>51.4</ele>
        <time>2022-06-18T13:26:54Z</time>
      </trkpt>
      <trkpt lat="42.3882110" lon="-8.6296500">
        <ele>51.4</ele>
        <time>2022-06-18T13:26:55Z</time>
      </trkpt>
      <trkpt lat="42.3882450" lon="-8.6296600">
        <ele>51.4</ele>
        <time>2022-06-18T13:26:56Z</time>
      </trkpt>
      <trkpt lat="42.3882800" lon="-8.6296680">
        <ele>51.4</ele>
        <time>2022-06-18T13:26:57Z</time>
      </trkpt>
      <trkpt lat="42.3883110" lon="-8.6296780">
        <ele>51.6</ele>
        <time>2022-06-18T13:26:58Z</time>
      </trkpt>
      <trkpt lat="42.3883430" lon="-8.6296880">
        <ele>51.6</ele>
        <time>2022-06-18T13:26:59Z</time>
      </trkpt>
      <trkpt lat="42.3883730" lon="-8.6297010">
        <ele>51.6</ele>
        <time>2022-06-18T13:27:00Z</time>
      </trkpt>
      <trkpt lat="42.3884010" lon="-8.6297160">
        <ele>51.2</ele>
        <time>2022-06-18T13:27:01Z</time>
      </trkpt>
      <trkpt lat="42.3884330" lon="-8.6297280">
        <ele>50.4</ele>
        <time>2022-06-18T13:27:02Z</time>
      </trkpt>
      <trkpt lat="42.3884660" lon="-8.6297410">
        <ele>50.4</ele>
        <time>2022-06-18T13:27:03Z</time>
      </trkpt>
      <trkpt lat="42.3885010" lon="-8.6297580">
        <ele>50.4</ele>
        <time>2022-06-18T13:27:04Z</time>
      </trkpt>
      <trkpt lat="42.3885360" lon="-8.6297750">
        <ele>50.6</ele>
        <time>2022-06-18T13:27:05Z</time>
      </trkpt>
      <trkpt lat="42.3885730" lon="-8.6297910">
        <ele>50.0</ele>
        <time>2022-06-18T13:27:06Z</time>
      </trkpt>
      <trkpt lat="42.3886110" lon="-8.6298010">
        <ele>50.0</ele>
        <time>2022-06-18T13:27:07Z</time>
      </trkpt>
      <trkpt lat="42.3886510" lon="-8.6298150">
        <ele>50.0</ele>
        <time>2022-06-18T13:27:08Z</time>
      </trkpt>
      <trkpt lat="42.3886930" lon="-8.6298300">
        <ele>50.0</ele>
        <time>2022-06-18T13:27:09Z</time>
      </trkpt>
      <trkpt lat="42.3887350" lon="-8.6298410">
        <ele>50.6</ele>
        <time>2022-06-18T13:27:10Z</time>
      </trkpt>
      <trkpt lat="42.3887760" lon="-8.6298550">
        <ele>50.6</ele>
        <time>2022-06-18T13:27:11Z</time>
      </trkpt>
      <trkpt lat="42.3888180" lon="-8.6298700">
        <ele>50.6</ele>
        <time>2022-06-18T13:27:12Z</time>
      </trkpt>
      <trkpt lat="42.3888560" lon="-8.6298800">
        <ele>50.8</ele>
        <time>2022-06-18T13:27:13Z</time>
      </trkpt>
      <trkpt lat="42.3888930" lon="-8.6298900">
        <ele>50.8</ele>
        <time>2022-06-18T13:27:14Z</time>
      </trkpt>
      <trkpt lat="42.3889260" lon="-8.6299030">
        <ele>50.8</ele>
        <time>2022-06-18T13:27:15Z</time>
      </trkpt>
      <trkpt lat="42.3889630" lon="-8.6299160">
        <ele>50.8</ele>
        <time>2022-06-18T13:27:16Z</time>
      </trkpt>
      <trkpt lat="42.3890000" lon="-8.6299230">
        <ele>50.8</ele>
        <time>2022-06-18T13:27:17Z</time>
      </trkpt>
      <trkpt lat="42.3890350" lon="-8.6299330">
        <ele>50.6</ele>
        <time>2022-06-18T13:27:18Z</time>
      </trkpt>
      <trkpt lat="42.3890700" lon="-8.6299430">
        <ele>50.6</ele>
        <time>2022-06-18T13:27:19Z</time>
      </trkpt>
      <trkpt lat="42.3891060" lon="-8.6299500">
        <ele>50.6</ele>
        <time>2022-06-18T13:27:20Z</time>
      </trkpt>
      <trkpt lat="42.3891410" lon="-8.6299600">
        <ele>51.2</ele>
        <time>2022-06-18T13:27:21Z</time>
      </trkpt>
      <trkpt lat="42.3891780" lon="-8.6299700">
        <ele>51.0</ele>
        <time>2022-06-18T13:27:22Z</time>
      </trkpt>
      <trkpt lat="42.3892130" lon="-8.6299830">
        <ele>51.0</ele>
        <time>2022-06-18T13:27:23Z</time>
      </trkpt>
      <trkpt lat="42.3892530" lon="-8.6299960">
        <ele>51.0</ele>
        <time>2022-06-18T13:27:24Z</time>
      </trkpt>
      <trkpt lat="42.3892950" lon="-8.6300030">
        <ele>51.0</ele>
        <time>2022-06-18T13:27:25Z</time>
      </trkpt>
      <trkpt lat="42.3893360" lon="-8.6300130">
        <ele>51.2</ele>
        <time>2022-06-18T13:27:26Z</time>
      </trkpt>
      <trkpt lat="42.3893780" lon="-8.6300230">
        <ele>51.2</ele>
        <time>2022-06-18T13:27:27Z</time>
      </trkpt>
      <trkpt lat="42.3894200" lon="-8.6300300">
        <ele>51.2</ele>
        <time>2022-06-18T13:27:28Z</time>
      </trkpt>
      <trkpt lat="42.3894600" lon="-8.6300360">
        <ele>50.4</ele>
        <time>2022-06-18T13:27:29Z</time>
      </trkpt>
      <trkpt lat="42.3895010" lon="-8.6300410">
        <ele>49.0</ele>
        <time>2022-06-18T13:27:30Z</time>
      </trkpt>
      <trkpt lat="42.3895460" lon="-8.6300480">
        <ele>49.0</ele>
        <time>2022-06-18T13:27:31Z</time>
      </trkpt>
      <trkpt lat="42.3895830" lon="-8.6300580">
        <ele>49.0</ele>
        <time>2022-06-18T13:27:32Z</time>
      </trkpt>
      <trkpt lat="42.3896200" lon="-8.6300630">
        <ele>49.0</ele>
        <time>2022-06-18T13:27:33Z</time>
      </trkpt>
      <trkpt lat="42.3896680" lon="-8.6300660">
        <ele>48.0</ele>
        <time>2022-06-18T13:27:34Z</time>
      </trkpt>
      <trkpt lat="42.3897180" lon="-8.6300650">
        <ele>48.0</ele>
        <time>2022-06-18T13:27:35Z</time>
      </trkpt>
      <trkpt lat="42.3897710" lon="-8.6300600">
        <ele>48.0</ele>
        <time>2022-06-18T13:27:36Z</time>
      </trkpt>
      <trkpt lat="42.3898300" lon="-8.6300550">
        <ele>48.0</ele>
        <time>2022-06-18T13:27:37Z</time>
      </trkpt>
      <trkpt lat="42.3898880" lon="-8.6300410">
        <ele>47.6</ele>
        <time>2022-06-18T13:27:38Z</time>
      </trkpt>
      <trkpt lat="42.3899380" lon="-8.6300300">
        <ele>47.6</ele>
        <time>2022-06-18T13:27:39Z</time>
      </trkpt>
      <trkpt lat="42.3899830" lon="-8.6300210">
        <ele>47.6</ele>
        <time>2022-06-18T13:27:40Z</time>
      </trkpt>
      <trkpt lat="42.3900360" lon="-8.6300160">
        <ele>46.6</ele>
        <time>2022-06-18T13:27:41Z</time>
      </trkpt>
      <trkpt lat="42.3900900" lon="-8.6300050">
        <ele>46.6</ele>
        <time>2022-06-18T13:27:42Z</time>
      </trkpt>
      <trkpt lat="42.3901550" lon="-8.6299960">
        <ele>46.6</ele>
        <time>2022-06-18T13:27:43Z</time>
      </trkpt>
      <trkpt lat="42.3902160" lon="-8.6299760">
        <ele>46.6</ele>
        <time>2022-06-18T13:27:44Z</time>
      </trkpt>
      <trkpt lat="42.3902760" lon="-8.6299600">
        <ele>46.8</ele>
        <time>2022-06-18T13:27:45Z</time>
      </trkpt>
      <trkpt lat="42.3903330" lon="-8.6299310">
        <ele>46.6</ele>
        <time>2022-06-18T13:27:46Z</time>
      </trkpt>
      <trkpt lat="42.3903850" lon="-8.6299030">
        <ele>46.6</ele>
        <time>2022-06-18T13:27:47Z</time>
      </trkpt>
      <trkpt lat="42.3904400" lon="-8.6298750">
        <ele>46.6</ele>
        <time>2022-06-18T13:27:48Z</time>
      </trkpt>
      <trkpt lat="42.3904930" lon="-8.6298530">
        <ele>46.6</ele>
        <time>2022-06-18T13:27:49Z</time>
      </trkpt>
      <trkpt lat="42.3905430" lon="-8.6298310">
        <ele>46.6</ele>
        <time>2022-06-18T13:27:50Z</time>
      </trkpt>
      <trkpt lat="42.3905960" lon="-8.6298210">
        <ele>46.6</ele>
        <time>2022-06-18T13:27:51Z</time>
      </trkpt>
      <trkpt lat="42.3906460" lon="-8.6298100">
        <ele>46.6</ele>
        <time>2022-06-18T13:27:52Z</time>
      </trkpt>
      <trkpt lat="42.3906980" lon="-8.6297980">
        <ele>45.8</ele>
        <time>2022-06-18T13:27:53Z</time>
      </trkpt>
      <trkpt lat="42.3907480" lon="-8.6297930">
        <ele>46.8</ele>
        <time>2022-06-18T13:27:54Z</time>
      </trkpt>
      <trkpt lat="42.3908000" lon="-8.6297830">
        <ele>46.8</ele>
        <time>2022-06-18T13:27:55Z</time>
      </trkpt>
      <trkpt lat="42.3908510" lon="-8.6297760">
        <ele>46.8</ele>
        <time>2022-06-18T13:27:56Z</time>
      </trkpt>
      <trkpt lat="42.3909000" lon="-8.6297650">
        <ele>46.6</ele>
        <time>2022-06-18T13:27:57Z</time>
      </trkpt>
      <trkpt lat="42.3909450" lon="-8.6297580">
        <ele>46.0</ele>
        <time>2022-06-18T13:27:58Z</time>
      </trkpt>
      <trkpt lat="42.3909930" lon="-8.6297510">
        <ele>46.0</ele>
        <time>2022-06-18T13:27:59Z</time>
      </trkpt>
      <trkpt lat="42.3910430" lon="-8.6297430">
        <ele>46.0</ele>
        <time>2022-06-18T13:28:00Z</time>
      </trkpt>
      <trkpt lat="42.3910910" lon="-8.6297410">
        <ele>45.0</ele>
        <time>2022-06-18T13:28:01Z</time>
      </trkpt>
      <trkpt lat="42.3911410" lon="-8.6297430">
        <ele>45.6</ele>
        <time>2022-06-18T13:28:02Z</time>
      </trkpt>
      <trkpt lat="42.3911910" lon="-8.6297480">
        <ele>45.6</ele>
        <time>2022-06-18T13:28:03Z</time>
      </trkpt>
      <trkpt lat="42.3912410" lon="-8.6297480">
        <ele>45.6</ele>
        <time>2022-06-18T13:28:04Z</time>
      </trkpt>
      <trkpt lat="42.3912930" lon="-8.6297500">
        <ele>45.6</ele>
        <time>2022-06-18T13:28:05Z</time>
      </trkpt>
      <trkpt lat="42.3913460" lon="-8.6297550">
        <ele>45.8</ele>
        <time>2022-06-18T13:28:06Z</time>
      </trkpt>
      <trkpt lat="42.3914010" lon="-8.6297600">
        <ele>45.8</ele>
        <time>2022-06-18T13:28:07Z</time>
      </trkpt>
      <trkpt lat="42.3914550" lon="-8.6297630">
        <ele>45.8</ele>
        <time>2022-06-18T13:28:08Z</time>
      </trkpt>
      <trkpt lat="42.3915060" lon="-8.6297710">
        <ele>44.8</ele>
        <time>2022-06-18T13:28:09Z</time>
      </trkpt>
      <trkpt lat="42.3915600" lon="-8.6297780">
        <ele>44.2</ele>
        <time>2022-06-18T13:28:10Z</time>
      </trkpt>
      <trkpt lat="42.3916100" lon="-8.6297880">
        <ele>44.2</ele>
        <time>2022-06-18T13:28:11Z</time>
      </trkpt>
      <trkpt lat="42.3916600" lon="-8.6297980">
        <ele>44.2</ele>
        <time>2022-06-18T13:28:12Z</time>
      </trkpt>
      <trkpt lat="42.3917100" lon="-8.6298150">
        <ele>44.2</ele>
        <time>2022-06-18T13:28:13Z</time>
      </trkpt>
      <trkpt lat="42.3917580" lon="-8.6298310">
        <ele>44.6</ele>
        <time>2022-06-18T13:28:14Z</time>
      </trkpt>
      <trkpt lat="42.3918060" lon="-8.6298510">
        <ele>44.6</ele>
        <time>2022-06-18T13:28:15Z</time>
      </trkpt>
      <trkpt lat="42.3918550" lon="-8.6298710">
        <ele>44.6</ele>
        <time>2022-06-18T13:28:16Z</time>
      </trkpt>
      <trkpt lat="42.3919010" lon="-8.6298860">
        <ele>44.6</ele>
        <time>2022-06-18T13:28:17Z</time>
      </trkpt>
      <trkpt lat="42.3919510" lon="-8.6299000">
        <ele>44.2</ele>
        <time>2022-06-18T13:28:18Z</time>
      </trkpt>
      <trkpt lat="42.3920000" lon="-8.6299080">
        <ele>44.2</ele>
        <time>2022-06-18T13:28:19Z</time>
      </trkpt>
      <trkpt lat="42.3920510" lon="-8.6299110">
        <ele>44.2</ele>
        <time>2022-06-18T13:28:20Z</time>
      </trkpt>
      <trkpt lat="42.3921010" lon="-8.6299110">
        <ele>44.2</ele>
        <time>2022-06-18T13:28:21Z</time>
      </trkpt>
      <trkpt lat="42.3921530" lon="-8.6299030">
        <ele>44.0</ele>
        <time>2022-06-18T13:28:22Z</time>
      </trkpt>
      <trkpt lat="42.3922010" lon="-8.6298930">
        <ele>44.0</ele>
        <time>2022-06-18T13:28:23Z</time>
      </trkpt>
      <trkpt lat="42.3922480" lon="-8.6298780">
        <ele>44.0</ele>
        <time>2022-06-18T13:28:24Z</time>
      </trkpt>
      <trkpt lat="42.3922930" lon="-8.6298600">
        <ele>44.8</ele>
        <time>2022-06-18T13:28:25Z</time>
      </trkpt>
      <trkpt lat="42.3923380" lon="-8.6298400">
        <ele>45.0</ele>
        <time>2022-06-18T13:28:26Z</time>
      </trkpt>
      <trkpt lat="42.3923830" lon="-8.6298230">
        <ele>45.0</ele>
        <time>2022-06-18T13:28:27Z</time>
      </trkpt>
      <trkpt lat="42.3924300" lon="-8.6298060">
        <ele>45.0</ele>
        <time>2022-06-18T13:28:28Z</time>
      </trkpt>
      <trkpt lat="42.3924750" lon="-8.6297930">
        <ele>45.0</ele>
        <time>2022-06-18T13:28:29Z</time>
      </trkpt>
      <trkpt lat="42.3925210" lon="-8.6297760">
        <ele>44.6</ele>
        <time>2022-06-18T13:28:30Z</time>
      </trkpt>
      <trkpt lat="42.3925680" lon="-8.6297650">
        <ele>44.6</ele>
        <time>2022-06-18T13:28:31Z</time>
      </trkpt>
      <trkpt lat="42.3926160" lon="-8.6297510">
        <ele>44.6</ele>
        <time>2022-06-18T13:28:32Z</time>
      </trkpt>
      <trkpt lat="42.3926650" lon="-8.6297380">
        <ele>44.0</ele>
        <time>2022-06-18T13:28:33Z</time>
      </trkpt>
      <trkpt lat="42.3927110" lon="-8.6297250">
        <ele>44.0</ele>
        <time>2022-06-18T13:28:34Z</time>
      </trkpt>
      <trkpt lat="42.3927580" lon="-8.6297080">
        <ele>44.0</ele>
        <time>2022-06-18T13:28:35Z</time>
      </trkpt>
      <trkpt lat="42.3928030" lon="-8.6296930">
        <ele>44.0</ele>
        <time>2022-06-18T13:28:36Z</time>
      </trkpt>
      <trkpt lat="42.3928480" lon="-8.6296810">
        <ele>44.0</ele>
        <time>2022-06-18T13:28:37Z</time>
      </trkpt>
      <trkpt lat="42.3928900" lon="-8.6296710">
        <ele>44.2</ele>
        <time>2022-06-18T13:28:38Z</time>
      </trkpt>
      <trkpt lat="42.3929310" lon="-8.6296610">
        <ele>44.2</ele>
        <time>2022-06-18T13:28:39Z</time>
      </trkpt>
      <trkpt lat="42.3929730" lon="-8.6296510">
        <ele>44.2</ele>
        <time>2022-06-18T13:28:40Z</time>
      </trkpt>
      <trkpt lat="42.3930150" lon="-8.6296350">
        <ele>44.0</ele>
        <time>2022-06-18T13:28:41Z</time>
      </trkpt>
      <trkpt lat="42.3930550" lon="-8.6296200">
        <ele>44.4</ele>
        <time>2022-06-18T13:28:42Z</time>
      </trkpt>
      <trkpt lat="42.3931000" lon="-8.6296050">
        <ele>44.4</ele>
        <time>2022-06-18T13:28:43Z</time>
      </trkpt>
      <trkpt lat="42.3931450" lon="-8.6295900">
        <ele>44.4</ele>
        <time>2022-06-18T13:28:44Z</time>
      </trkpt>
      <trkpt lat="42.3931900" lon="-8.6295780">
        <ele>44.4</ele>
        <time>2022-06-18T13:28:45Z</time>
      </trkpt>
      <trkpt lat="42.3932350" lon="-8.6295700">
        <ele>43.2</ele>
        <time>2022-06-18T13:28:46Z</time>
      </trkpt>
      <trkpt lat="42.3932780" lon="-8.6295630">
        <ele>43.2</ele>
        <time>2022-06-18T13:28:47Z</time>
      </trkpt>
      <trkpt lat="42.3933230" lon="-8.6295610">
        <ele>43.2</ele>
        <time>2022-06-18T13:28:48Z</time>
      </trkpt>
      <trkpt lat="42.3933660" lon="-8.6295580">
        <ele>43.6</ele>
        <time>2022-06-18T13:28:49Z</time>
      </trkpt>
      <trkpt lat="42.3934110" lon="-8.6295530">
        <ele>44.6</ele>
        <time>2022-06-18T13:28:50Z</time>
      </trkpt>
      <trkpt lat="42.3934560" lon="-8.6295480">
        <ele>44.6</ele>
        <time>2022-06-18T13:28:51Z</time>
      </trkpt>
      <trkpt lat="42.3935010" lon="-8.6295410">
        <ele>44.6</ele>
        <time>2022-06-18T13:28:52Z</time>
      </trkpt>
      <trkpt lat="42.3935460" lon="-8.6295330">
        <ele>44.6</ele>
        <time>2022-06-18T13:28:53Z</time>
      </trkpt>
      <trkpt lat="42.3935910" lon="-8.6295260">
        <ele>43.6</ele>
        <time>2022-06-18T13:28:54Z</time>
      </trkpt>
      <trkpt lat="42.3936350" lon="-8.6295180">
        <ele>43.6</ele>
        <time>2022-06-18T13:28:55Z</time>
      </trkpt>
      <trkpt lat="42.3936810" lon="-8.6295160">
        <ele>43.6</ele>
        <time>2022-06-18T13:28:56Z</time>
      </trkpt>
      <trkpt lat="42.3937280" lon="-8.6295180">
        <ele>43.6</ele>
        <time>2022-06-18T13:28:57Z</time>
      </trkpt>
      <trkpt lat="42.3937760" lon="-8.6295180">
        <ele>44.2</ele>
        <time>2022-06-18T13:28:58Z</time>
      </trkpt>
      <trkpt lat="42.3938210" lon="-8.6295180">
        <ele>44.2</ele>
        <time>2022-06-18T13:28:59Z</time>
      </trkpt>
      <trkpt lat="42.3938700" lon="-8.6295180">
        <ele>44.2</ele>
        <time>2022-06-18T13:29:00Z</time>
      </trkpt>
      <trkpt lat="42.3939200" lon="-8.6295160">
        <ele>43.4</ele>
        <time>2022-06-18T13:29:01Z</time>
      </trkpt>
      <trkpt lat="42.3939680" lon="-8.6295150">
        <ele>43.0</ele>
        <time>2022-06-18T13:29:02Z</time>
      </trkpt>
      <trkpt lat="42.3940150" lon="-8.6295100">
        <ele>43.0</ele>
        <time>2022-06-18T13:29:03Z</time>
      </trkpt>
      <trkpt lat="42.3940600" lon="-8.6295050">
        <ele>43.0</ele>
        <time>2022-06-18T13:29:04Z</time>
      </trkpt>
      <trkpt lat="42.3941030" lon="-8.6295000">
        <ele>43.0</ele>
        <time>2022-06-18T13:29:05Z</time>
      </trkpt>
      <trkpt lat="42.3941430" lon="-8.6294900">
        <ele>43.6</ele>
        <time>2022-06-18T13:29:06Z</time>
      </trkpt>
      <trkpt lat="42.3941830" lon="-8.6294760">
        <ele>43.6</ele>
        <time>2022-06-18T13:29:07Z</time>
      </trkpt>
      <trkpt lat="42.3942230" lon="-8.6294630">
        <ele>43.6</ele>
        <time>2022-06-18T13:29:08Z</time>
      </trkpt>
      <trkpt lat="42.3942600" lon="-8.6294530">
        <ele>43.6</ele>
        <time>2022-06-18T13:29:09Z</time>
      </trkpt>
      <trkpt lat="42.3942950" lon="-8.6294430">
        <ele>43.4</ele>
        <time>2022-06-18T13:29:10Z</time>
      </trkpt>
      <trkpt lat="42.3943350" lon="-8.6294310">
        <ele>43.4</ele>
        <time>2022-06-18T13:29:11Z</time>
      </trkpt>
      <trkpt lat="42.3943750" lon="-8.6294130">
        <ele>43.4</ele>
        <time>2022-06-18T13:29:12Z</time>
      </trkpt>
      <trkpt lat="42.3944160" lon="-8.6293910">
        <ele>43.4</ele>
        <time>2022-06-18T13:29:13Z</time>
      </trkpt>
      <trkpt lat="42.3944560" lon="-8.6293680">
        <ele>44.0</ele>
        <time>2022-06-18T13:29:14Z</time>
      </trkpt>
      <trkpt lat="42.3944960" lon="-8.6293380">
        <ele>44.0</ele>
        <time>2022-06-18T13:29:15Z</time>
      </trkpt>
      <trkpt lat="42.3945350" lon="-8.6293080">
        <ele>44.0</ele>
        <time>2022-06-18T13:29:16Z</time>
      </trkpt>
      <trkpt lat="42.3945710" lon="-8.6292850">
        <ele>44.0</ele>
        <time>2022-06-18T13:29:17Z</time>
      </trkpt>
      <trkpt lat="42.3946110" lon="-8.6292560">
        <ele>43.2</ele>
        <time>2022-06-18T13:29:18Z</time>
      </trkpt>
      <trkpt lat="42.3946510" lon="-8.6292280">
        <ele>43.2</ele>
        <time>2022-06-18T13:29:19Z</time>
      </trkpt>
      <trkpt lat="42.3946930" lon="-8.6292050">
        <ele>43.2</ele>
        <time>2022-06-18T13:29:20Z</time>
      </trkpt>
      <trkpt lat="42.3947360" lon="-8.6291860">
        <ele>43.2</ele>
        <time>2022-06-18T13:29:21Z</time>
      </trkpt>
      <trkpt lat="42.3947750" lon="-8.6291630">
        <ele>43.0</ele>
        <time>2022-06-18T13:29:22Z</time>
      </trkpt>
      <trkpt lat="42.3948110" lon="-8.6291360">
        <ele>43.0</ele>
        <time>2022-06-18T13:29:23Z</time>
      </trkpt>
      <trkpt lat="42.3948480" lon="-8.6291130">
        <ele>43.0</ele>
        <time>2022-06-18T13:29:24Z</time>
      </trkpt>
      <trkpt lat="42.3948810" lon="-8.6290930">
        <ele>44.0</ele>
        <time>2022-06-18T13:29:25Z</time>
      </trkpt>
      <trkpt lat="42.3949100" lon="-8.6290660">
        <ele>43.6</ele>
        <time>2022-06-18T13:29:26Z</time>
      </trkpt>
      <trkpt lat="42.3949430" lon="-8.6290460">
        <ele>43.6</ele>
        <time>2022-06-18T13:29:27Z</time>
      </trkpt>
      <trkpt lat="42.3949750" lon="-8.6290200">
        <ele>43.6</ele>
        <time>2022-06-18T13:29:28Z</time>
      </trkpt>
      <trkpt lat="42.3950130" lon="-8.6289900">
        <ele>42.6</ele>
        <time>2022-06-18T13:29:29Z</time>
      </trkpt>
      <trkpt lat="42.3950530" lon="-8.6289650">
        <ele>42.4</ele>
        <time>2022-06-18T13:29:30Z</time>
      </trkpt>
      <trkpt lat="42.3951000" lon="-8.6289450">
        <ele>42.4</ele>
        <time>2022-06-18T13:29:31Z</time>
      </trkpt>
      <trkpt lat="42.3951450" lon="-8.6289300">
        <ele>42.4</ele>
        <time>2022-06-18T13:29:32Z</time>
      </trkpt>
      <trkpt lat="42.3951880" lon="-8.6289150">
        <ele>42.4</ele>
        <time>2022-06-18T13:29:33Z</time>
      </trkpt>
      <trkpt lat="42.3952310" lon="-8.6289050">
        <ele>42.6</ele>
        <time>2022-06-18T13:29:34Z</time>
      </trkpt>
      <trkpt lat="42.3952750" lon="-8.6288960">
        <ele>42.6</ele>
        <time>2022-06-18T13:29:35Z</time>
      </trkpt>
      <trkpt lat="42.3953200" lon="-8.6288860">
        <ele>42.6</ele>
        <time>2022-06-18T13:29:36Z</time>
      </trkpt>
      <trkpt lat="42.3953610" lon="-8.6288750">
        <ele>42.0</ele>
        <time>2022-06-18T13:29:37Z</time>
      </trkpt>
      <trkpt lat="42.3954010" lon="-8.6288650">
        <ele>41.6</ele>
        <time>2022-06-18T13:29:38Z</time>
      </trkpt>
      <trkpt lat="42.3954460" lon="-8.6288560">
        <ele>41.6</ele>
        <time>2022-06-18T13:29:39Z</time>
      </trkpt>
      <trkpt lat="42.3954910" lon="-8.6288460">
        <ele>41.6</ele>
        <time>2022-06-18T13:29:40Z</time>
      </trkpt>
      <trkpt lat="42.3955360" lon="-8.6288350">
        <ele>42.6</ele>
        <time>2022-06-18T13:29:41Z</time>
      </trkpt>
      <trkpt lat="42.3955810" lon="-8.6288250">
        <ele>43.0</ele>
        <time>2022-06-18T13:29:42Z</time>
      </trkpt>
      <trkpt lat="42.3956280" lon="-8.6288130">
        <ele>43.0</ele>
        <time>2022-06-18T13:29:43Z</time>
      </trkpt>
      <trkpt lat="42.3956750" lon="-8.6288010">
        <ele>43.0</ele>
        <time>2022-06-18T13:29:44Z</time>
      </trkpt>
      <trkpt lat="42.3957200" lon="-8.6287880">
        <ele>42.4</ele>
        <time>2022-06-18T13:29:45Z</time>
      </trkpt>
      <trkpt lat="42.3957660" lon="-8.6287760">
        <ele>43.0</ele>
        <time>2022-06-18T13:29:46Z</time>
      </trkpt>
      <trkpt lat="42.3958110" lon="-8.6287650">
        <ele>43.0</ele>
        <time>2022-06-18T13:29:47Z</time>
      </trkpt>
      <trkpt lat="42.3958560" lon="-8.6287560">
        <ele>43.0</ele>
        <time>2022-06-18T13:29:48Z</time>
      </trkpt>
      <trkpt lat="42.3959010" lon="-8.6287530">
        <ele>43.4</ele>
        <time>2022-06-18T13:29:49Z</time>
      </trkpt>
      <trkpt lat="42.3959430" lon="-8.6287560">
        <ele>43.2</ele>
        <time>2022-06-18T13:29:50Z</time>
      </trkpt>
      <trkpt lat="42.3959850" lon="-8.6287650">
        <ele>43.2</ele>
        <time>2022-06-18T13:29:51Z</time>
      </trkpt>
      <trkpt lat="42.3960260" lon="-8.6287760">
        <ele>43.2</ele>
        <time>2022-06-18T13:29:52Z</time>
      </trkpt>
      <trkpt lat="42.3960660" lon="-8.6287930">
        <ele>43.2</ele>
        <time>2022-06-18T13:29:53Z</time>
      </trkpt>
      <trkpt lat="42.3961060" lon="-8.6288130">
        <ele>43.6</ele>
        <time>2022-06-18T13:29:54Z</time>
      </trkpt>
      <trkpt lat="42.3961450" lon="-8.6288400">
        <ele>43.6</ele>
        <time>2022-06-18T13:29:55Z</time>
      </trkpt>
      <trkpt lat="42.3961810" lon="-8.6288730">
        <ele>43.6</ele>
        <time>2022-06-18T13:29:56Z</time>
      </trkpt>
      <trkpt lat="42.3962150" lon="-8.6289080">
        <ele>44.0</ele>
        <time>2022-06-18T13:29:57Z</time>
      </trkpt>
      <trkpt lat="42.3962460" lon="-8.6289460">
        <ele>44.0</ele>
        <time>2022-06-18T13:29:58Z</time>
      </trkpt>
      <trkpt lat="42.3962750" lon="-8.6289860">
        <ele>44.0</ele>
        <time>2022-06-18T13:29:59Z</time>
      </trkpt>
      <trkpt lat="42.3963050" lon="-8.6290260">
        <ele>44.0</ele>
        <time>2022-06-18T13:30:00Z</time>
      </trkpt>
      <trkpt lat="42.3963330" lon="-8.6290660">
        <ele>44.0</ele>
        <time>2022-06-18T13:30:01Z</time>
      </trkpt>
      <trkpt lat="42.3963630" lon="-8.6291030">
        <ele>45.2</ele>
        <time>2022-06-18T13:30:02Z</time>
      </trkpt>
      <trkpt lat="42.3963910" lon="-8.6291410">
        <ele>45.2</ele>
        <time>2022-06-18T13:30:03Z</time>
      </trkpt>
      <trkpt lat="42.3964180" lon="-8.6291800">
        <ele>45.2</ele>
        <time>2022-06-18T13:30:04Z</time>
      </trkpt>
      <trkpt lat="42.3964460" lon="-8.6292200">
        <ele>45.2</ele>
        <time>2022-06-18T13:30:05Z</time>
      </trkpt>
      <trkpt lat="42.3964730" lon="-8.6292580">
        <ele>45.2</ele>
        <time>2022-06-18T13:30:06Z</time>
      </trkpt>
      <trkpt lat="42.3965010" lon="-8.6292960">
        <ele>45.2</ele>
        <time>2022-06-18T13:30:07Z</time>
      </trkpt>
      <trkpt lat="42.3965310" lon="-8.6293350">
        <ele>45.2</ele>
        <time>2022-06-18T13:30:08Z</time>
      </trkpt>
      <trkpt lat="42.3965600" lon="-8.6293700">
        <ele>46.0</ele>
        <time>2022-06-18T13:30:09Z</time>
      </trkpt>
      <trkpt lat="42.3965910" lon="-8.6294080">
        <ele>46.2</ele>
        <time>2022-06-18T13:30:10Z</time>
      </trkpt>
      <trkpt lat="42.3966210" lon="-8.6294450">
        <ele>46.2</ele>
        <time>2022-06-18T13:30:11Z</time>
      </trkpt>
      <trkpt lat="42.3966500" lon="-8.6294830">
        <ele>46.2</ele>
        <time>2022-06-18T13:30:12Z</time>
      </trkpt>
      <trkpt lat="42.3966780" lon="-8.6295200">
        <ele>47.0</ele>
        <time>2022-06-18T13:30:13Z</time>
      </trkpt>
      <trkpt lat="42.3967050" lon="-8.6295550">
        <ele>47.0</ele>
        <time>2022-06-18T13:30:14Z</time>
      </trkpt>
      <trkpt lat="42.3967300" lon="-8.6295900">
        <ele>47.0</ele>
        <time>2022-06-18T13:30:15Z</time>
      </trkpt>
      <trkpt lat="42.3967580" lon="-8.6296180">
        <ele>47.0</ele>
        <time>2022-06-18T13:30:16Z</time>
      </trkpt>
      <trkpt lat="42.3967850" lon="-8.6296510">
        <ele>47.0</ele>
        <time>2022-06-18T13:30:17Z</time>
      </trkpt>
      <trkpt lat="42.3968080" lon="-8.6296860">
        <ele>48.0</ele>
        <time>2022-06-18T13:30:18Z</time>
      </trkpt>
      <trkpt lat="42.3968330" lon="-8.6297200">
        <ele>48.0</ele>
        <time>2022-06-18T13:30:19Z</time>
      </trkpt>
      <trkpt lat="42.3968550" lon="-8.6297560">
        <ele>48.0</ele>
        <time>2022-06-18T13:30:20Z</time>
      </trkpt>
      <trkpt lat="42.3968710" lon="-8.6297900">
        <ele>47.8</ele>
        <time>2022-06-18T13:30:21Z</time>
      </trkpt>
      <trkpt lat="42.3968850" lon="-8.6298160">
        <ele>48.2</ele>
        <time>2022-06-18T13:30:22Z</time>
      </trkpt>
      <trkpt lat="42.3969000" lon="-8.6298330">
        <ele>48.2</ele>
        <time>2022-06-18T13:30:23Z</time>
      </trkpt>
      <trkpt lat="42.3969160" lon="-8.6298450">
        <ele>48.2</ele>
        <time>2022-06-18T13:30:24Z</time>
      </trkpt>
      <trkpt lat="42.3969380" lon="-8.6298560">
        <ele>48.2</ele>
        <time>2022-06-18T13:30:25Z</time>
      </trkpt>
      <trkpt lat="42.3969630" lon="-8.6298600">
        <ele>48.0</ele>
        <time>2022-06-18T13:30:26Z</time>
      </trkpt>
      <trkpt lat="42.3969930" lon="-8.6298550">
        <ele>48.0</ele>
        <time>2022-06-18T13:30:27Z</time>
      </trkpt>
      <trkpt lat="42.3970260" lon="-8.6298480">
        <ele>48.0</ele>
        <time>2022-06-18T13:30:28Z</time>
      </trkpt>
      <trkpt lat="42.3970630" lon="-8.6298510">
        <ele>48.0</ele>
        <time>2022-06-18T13:30:29Z</time>
      </trkpt>
      <trkpt lat="42.3970980" lon="-8.6298580">
        <ele>47.4</ele>
        <time>2022-06-18T13:30:30Z</time>
      </trkpt>
      <trkpt lat="42.3971350" lon="-8.6298630">
        <ele>47.4</ele>
        <time>2022-06-18T13:30:31Z</time>
      </trkpt>
      <trkpt lat="42.3971730" lon="-8.6298730">
        <ele>47.4</ele>
        <time>2022-06-18T13:30:32Z</time>
      </trkpt>
      <trkpt lat="42.3972080" lon="-8.6298880">
        <ele>47.4</ele>
        <time>2022-06-18T13:30:33Z</time>
      </trkpt>
      <trkpt lat="42.3972450" lon="-8.6299000">
        <ele>47.2</ele>
        <time>2022-06-18T13:30:34Z</time>
      </trkpt>
      <trkpt lat="42.3972810" lon="-8.6299150">
        <ele>47.2</ele>
        <time>2022-06-18T13:30:35Z</time>
      </trkpt>
      <trkpt lat="42.3973210" lon="-8.6299250">
        <ele>47.2</ele>
        <time>2022-06-18T13:30:36Z</time>
      </trkpt>
      <trkpt lat="42.3973610" lon="-8.6299280">
        <ele>47.2</ele>
        <time>2022-06-18T13:30:37Z</time>
      </trkpt>
      <trkpt lat="42.3974010" lon="-8.6299300">
        <ele>47.4</ele>
        <time>2022-06-18T13:30:38Z</time>
      </trkpt>
      <trkpt lat="42.3974410" lon="-8.6299330">
        <ele>47.4</ele>
        <time>2022-06-18T13:30:39Z</time>
      </trkpt>
      <trkpt lat="42.3974800" lon="-8.6299350">
        <ele>47.4</ele>
        <time>2022-06-18T13:30:40Z</time>
      </trkpt>
      <trkpt lat="42.3975180" lon="-8.6299310">
        <ele>48.2</ele>
        <time>2022-06-18T13:30:41Z</time>
      </trkpt>
      <trkpt lat="42.3975580" lon="-8.6299280">
        <ele>48.4</ele>
        <time>2022-06-18T13:30:42Z</time>
      </trkpt>
      <trkpt lat="42.3975960" lon="-8.6299310">
        <ele>48.4</ele>
        <time>2022-06-18T13:30:43Z</time>
      </trkpt>
      <trkpt lat="42.3976350" lon="-8.6299260">
        <ele>48.4</ele>
        <time>2022-06-18T13:30:44Z</time>
      </trkpt>
      <trkpt lat="42.3976660" lon="-8.6299210">
        <ele>48.4</ele>
        <time>2022-06-18T13:30:45Z</time>
      </trkpt>
      <trkpt lat="42.3976980" lon="-8.6299160">
        <ele>49.2</ele>
        <time>2022-06-18T13:30:46Z</time>
      </trkpt>
      <trkpt lat="42.3977280" lon="-8.6299080">
        <ele>49.2</ele>
        <time>2022-06-18T13:30:47Z</time>
      </trkpt>
      <trkpt lat="42.3977580" lon="-8.6299030">
        <ele>49.2</ele>
        <time>2022-06-18T13:30:48Z</time>
      </trkpt>
      <trkpt lat="42.3977880" lon="-8.6298950">
        <ele>49.2</ele>
        <time>2022-06-18T13:30:49Z</time>
      </trkpt>
      <trkpt lat="42.3978150" lon="-8.6298850">
        <ele>49.8</ele>
        <time>2022-06-18T13:30:50Z</time>
      </trkpt>
      <trkpt lat="42.3978430" lon="-8.6298760">
        <ele>49.8</ele>
        <time>2022-06-18T13:30:51Z</time>
      </trkpt>
      <trkpt lat="42.3978710" lon="-8.6298700">
        <ele>49.8</ele>
        <time>2022-06-18T13:30:52Z</time>
      </trkpt>
      <trkpt lat="42.3979000" lon="-8.6298550">
        <ele>50.4</ele>
        <time>2022-06-18T13:30:53Z</time>
      </trkpt>
      <trkpt lat="42.3979280" lon="-8.6298430">
        <ele>50.4</ele>
        <time>2022-06-18T13:30:54Z</time>
      </trkpt>
      <trkpt lat="42.3979560" lon="-8.6298280">
        <ele>50.4</ele>
        <time>2022-06-18T13:30:55Z</time>
      </trkpt>
      <trkpt lat="42.3979830" lon="-8.6298160">
        <ele>50.4</ele>
        <time>2022-06-18T13:30:56Z</time>
      </trkpt>
      <trkpt lat="42.3980110" lon="-8.6298050">
        <ele>50.0</ele>
        <time>2022-06-18T13:30:57Z</time>
      </trkpt>
      <trkpt lat="42.3980400" lon="-8.6297930">
        <ele>51.0</ele>
        <time>2022-06-18T13:30:58Z</time>
      </trkpt>
      <trkpt lat="42.3980700" lon="-8.6297780">
        <ele>51.0</ele>
        <time>2022-06-18T13:30:59Z</time>
      </trkpt>
      <trkpt lat="42.3981000" lon="-8.6297660">
        <ele>51.0</ele>
        <time>2022-06-18T13:31:00Z</time>
      </trkpt>
      <trkpt lat="42.3981260" lon="-8.6297560">
        <ele>51.0</ele>
        <time>2022-06-18T13:31:01Z</time>
      </trkpt>
      <trkpt lat="42.3981550" lon="-8.6297460">
        <ele>52.4</ele>
        <time>2022-06-18T13:31:02Z</time>
      </trkpt>
      <trkpt lat="42.3981810" lon="-8.6297400">
        <ele>52.4</ele>
        <time>2022-06-18T13:31:03Z</time>
      </trkpt>
      <trkpt lat="42.3982080" lon="-8.6297300">
        <ele>52.4</ele>
        <time>2022-06-18T13:31:04Z</time>
      </trkpt>
      <trkpt lat="42.3982350" lon="-8.6297230">
        <ele>51.8</ele>
        <time>2022-06-18T13:31:05Z</time>
      </trkpt>
      <trkpt lat="42.3982630" lon="-8.6297160">
        <ele>52.4</ele>
        <time>2022-06-18T13:31:06Z</time>
      </trkpt>
      <trkpt lat="42.3982880" lon="-8.6297130">
        <ele>52.4</ele>
        <time>2022-06-18T13:31:07Z</time>
      </trkpt>
      <trkpt lat="42.3983160" lon="-8.6297100">
        <ele>52.4</ele>
        <time>2022-06-18T13:31:08Z</time>
      </trkpt>
      <trkpt lat="42.3983430" lon="-8.6297060">
        <ele>51.4</ele>
        <time>2022-06-18T13:31:09Z</time>
      </trkpt>
      <trkpt lat="42.3983710" lon="-8.6297100">
        <ele>51.8</ele>
        <time>2022-06-18T13:31:10Z</time>
      </trkpt>
      <trkpt lat="42.3984010" lon="-8.6297130">
        <ele>51.8</ele>
        <time>2022-06-18T13:31:11Z</time>
      </trkpt>
      <trkpt lat="42.3984300" lon="-8.6297180">
        <ele>51.8</ele>
        <time>2022-06-18T13:31:12Z</time>
      </trkpt>
      <trkpt lat="42.3984580" lon="-8.6297260">
        <ele>51.4</ele>
        <time>2022-06-18T13:31:13Z</time>
      </trkpt>
      <trkpt lat="42.3984880" lon="-8.6297310">
        <ele>51.6</ele>
        <time>2022-06-18T13:31:14Z</time>
      </trkpt>
      <trkpt lat="42.3985160" lon="-8.6297400">
        <ele>51.6</ele>
        <time>2022-06-18T13:31:15Z</time>
      </trkpt>
      <trkpt lat="42.3985410" lon="-8.6297450">
        <ele>51.6</ele>
        <time>2022-06-18T13:31:16Z</time>
      </trkpt>
      <trkpt lat="42.3985680" lon="-8.6297480">
        <ele>51.6</ele>
        <time>2022-06-18T13:31:17Z</time>
      </trkpt>
      <trkpt lat="42.3985980" lon="-8.6297530">
        <ele>52.0</ele>
        <time>2022-06-18T13:31:18Z</time>
      </trkpt>
      <trkpt lat="42.3986280" lon="-8.6297610">
        <ele>52.0</ele>
        <time>2022-06-18T13:31:19Z</time>
      </trkpt>
      <trkpt lat="42.3986580" lon="-8.6297680">
        <ele>52.0</ele>
        <time>2022-06-18T13:31:20Z</time>
      </trkpt>
      <trkpt lat="42.3986850" lon="-8.6297750">
        <ele>52.4</ele>
        <time>2022-06-18T13:31:21Z</time>
      </trkpt>
      <trkpt lat="42.3987130" lon="-8.6297810">
        <ele>52.4</ele>
        <time>2022-06-18T13:31:22Z</time>
      </trkpt>
      <trkpt lat="42.3987410" lon="-8.6297900">
        <ele>52.4</ele>
        <time>2022-06-18T13:31:23Z</time>
      </trkpt>
      <trkpt lat="42.3987700" lon="-8.6297980">
        <ele>52.4</ele>
        <time>2022-06-18T13:31:24Z</time>
      </trkpt>
      <trkpt lat="42.3987980" lon="-8.6298080">
        <ele>52.4</ele>
        <time>2022-06-18T13:31:25Z</time>
      </trkpt>
      <trkpt lat="42.3988250" lon="-8.6298160">
        <ele>52.2</ele>
        <time>2022-06-18T13:31:26Z</time>
      </trkpt>
      <trkpt lat="42.3988510" lon="-8.6298230">
        <ele>52.2</ele>
        <time>2022-06-18T13:31:27Z</time>
      </trkpt>
      <trkpt lat="42.3988800" lon="-8.6298310">
        <ele>52.2</ele>
        <time>2022-06-18T13:31:28Z</time>
      </trkpt>
      <trkpt lat="42.3989060" lon="-8.6298410">
        <ele>52.2</ele>
        <time>2022-06-18T13:31:29Z</time>
      </trkpt>
      <trkpt lat="42.3989360" lon="-8.6298460">
        <ele>53.0</ele>
        <time>2022-06-18T13:31:30Z</time>
      </trkpt>
      <trkpt lat="42.3989660" lon="-8.6298510">
        <ele>53.0</ele>
        <time>2022-06-18T13:31:31Z</time>
      </trkpt>
      <trkpt lat="42.3989960" lon="-8.6298580">
        <ele>53.0</ele>
        <time>2022-06-18T13:31:32Z</time>
      </trkpt>
      <trkpt lat="42.3990260" lon="-8.6298700">
        <ele>53.0</ele>
        <time>2022-06-18T13:31:33Z</time>
      </trkpt>
      <trkpt lat="42.3990550" lon="-8.6298830">
        <ele>52.4</ele>
        <time>2022-06-18T13:31:34Z</time>
      </trkpt>
      <trkpt lat="42.3990860" lon="-8.6298950">
        <ele>52.4</ele>
        <time>2022-06-18T13:31:35Z</time>
      </trkpt>
      <trkpt lat="42.3991160" lon="-8.6299080">
        <ele>52.4</ele>
        <time>2022-06-18T13:31:36Z</time>
      </trkpt>
      <trkpt lat="42.3991480" lon="-8.6299260">
        <ele>52.8</ele>
        <time>2022-06-18T13:31:37Z</time>
      </trkpt>
      <trkpt lat="42.3991800" lon="-8.6299410">
        <ele>53.2</ele>
        <time>2022-06-18T13:31:38Z</time>
      </trkpt>
      <trkpt lat="42.3992110" lon="-8.6299580">
        <ele>53.2</ele>
        <time>2022-06-18T13:31:39Z</time>
      </trkpt>
      <trkpt lat="42.3992430" lon="-8.6299760">
        <ele>53.2</ele>
        <time>2022-06-18T13:31:40Z</time>
      </trkpt>
      <trkpt lat="42.3992760" lon="-8.6299950">
        <ele>53.2</ele>
        <time>2022-06-18T13:31:41Z</time>
      </trkpt>
      <trkpt lat="42.3993080" lon="-8.6300150">
        <ele>53.2</ele>
        <time>2022-06-18T13:31:42Z</time>
      </trkpt>
      <trkpt lat="42.3993410" lon="-8.6300350">
        <ele>53.2</ele>
        <time>2022-06-18T13:31:43Z</time>
      </trkpt>
      <trkpt lat="42.3993750" lon="-8.6300530">
        <ele>53.2</ele>
        <time>2022-06-18T13:31:44Z</time>
      </trkpt>
      <trkpt lat="42.3994060" lon="-8.6300730">
        <ele>53.2</ele>
        <time>2022-06-18T13:31:45Z</time>
      </trkpt>
      <trkpt lat="42.3994400" lon="-8.6300930">
        <ele>52.8</ele>
        <time>2022-06-18T13:31:46Z</time>
      </trkpt>
      <trkpt lat="42.3994710" lon="-8.6301130">
        <ele>52.8</ele>
        <time>2022-06-18T13:31:47Z</time>
      </trkpt>
      <trkpt lat="42.3995050" lon="-8.6301300">
        <ele>52.8</ele>
        <time>2022-06-18T13:31:48Z</time>
      </trkpt>
      <trkpt lat="42.3995380" lon="-8.6301450">
        <ele>52.8</ele>
        <time>2022-06-18T13:31:49Z</time>
      </trkpt>
      <trkpt lat="42.3995700" lon="-8.6301600">
        <ele>53.0</ele>
        <time>2022-06-18T13:31:50Z</time>
      </trkpt>
      <trkpt lat="42.3996030" lon="-8.6301760">
        <ele>53.0</ele>
        <time>2022-06-18T13:31:51Z</time>
      </trkpt>
      <trkpt lat="42.3996360" lon="-8.6301960">
        <ele>53.0</ele>
        <time>2022-06-18T13:31:52Z</time>
      </trkpt>
      <trkpt lat="42.3996700" lon="-8.6302110">
        <ele>54.0</ele>
        <time>2022-06-18T13:31:53Z</time>
      </trkpt>
      <trkpt lat="42.3997030" lon="-8.6302260">
        <ele>54.6</ele>
        <time>2022-06-18T13:31:54Z</time>
      </trkpt>
      <trkpt lat="42.3997360" lon="-8.6302400">
        <ele>54.6</ele>
        <time>2022-06-18T13:31:55Z</time>
      </trkpt>
      <trkpt lat="42.3997710" lon="-8.6302510">
        <ele>54.6</ele>
        <time>2022-06-18T13:31:56Z</time>
      </trkpt>
      <trkpt lat="42.3998050" lon="-8.6302650">
        <ele>53.6</ele>
        <time>2022-06-18T13:31:57Z</time>
      </trkpt>
      <trkpt lat="42.3998400" lon="-8.6302800">
        <ele>53.2</ele>
        <time>2022-06-18T13:31:58Z</time>
      </trkpt>
      <trkpt lat="42.3998750" lon="-8.6302960">
        <ele>53.2</ele>
        <time>2022-06-18T13:31:59Z</time>
      </trkpt>
      <trkpt lat="42.3999080" lon="-8.6303110">
        <ele>53.2</ele>
        <time>2022-06-18T13:32:00Z</time>
      </trkpt>
      <trkpt lat="42.3999430" lon="-8.6303250">
        <ele>52.4</ele>
        <time>2022-06-18T13:32:01Z</time>
      </trkpt>
      <trkpt lat="42.3999780" lon="-8.6303410">
        <ele>53.0</ele>
        <time>2022-06-18T13:32:02Z</time>
      </trkpt>
      <trkpt lat="42.4000110" lon="-8.6303580">
        <ele>53.0</ele>
        <time>2022-06-18T13:32:03Z</time>
      </trkpt>
      <trkpt lat="42.4000430" lon="-8.6303710">
        <ele>53.0</ele>
        <time>2022-06-18T13:32:04Z</time>
      </trkpt>
      <trkpt lat="42.4000760" lon="-8.6303860">
        <ele>53.0</ele>
        <time>2022-06-18T13:32:05Z</time>
      </trkpt>
      <trkpt lat="42.4001110" lon="-8.6304000">
        <ele>53.0</ele>
        <time>2022-06-18T13:32:06Z</time>
      </trkpt>
      <trkpt lat="42.4001430" lon="-8.6304130">
        <ele>53.0</ele>
        <time>2022-06-18T13:32:07Z</time>
      </trkpt>
      <trkpt lat="42.4001750" lon="-8.6304260">
        <ele>53.0</ele>
        <time>2022-06-18T13:32:08Z</time>
      </trkpt>
      <trkpt lat="42.4002050" lon="-8.6304430">
        <ele>53.4</ele>
        <time>2022-06-18T13:32:09Z</time>
      </trkpt>
      <trkpt lat="42.4002350" lon="-8.6304610">
        <ele>53.6</ele>
        <time>2022-06-18T13:32:10Z</time>
      </trkpt>
      <trkpt lat="42.4002650" lon="-8.6304780">
        <ele>53.6</ele>
        <time>2022-06-18T13:32:11Z</time>
      </trkpt>
      <trkpt lat="42.4002930" lon="-8.6304980">
        <ele>53.6</ele>
        <time>2022-06-18T13:32:12Z</time>
      </trkpt>
      <trkpt lat="42.4003230" lon="-8.6305210">
        <ele>53.6</ele>
        <time>2022-06-18T13:32:13Z</time>
      </trkpt>
      <trkpt lat="42.4003530" lon="-8.6305450">
        <ele>55.0</ele>
        <time>2022-06-18T13:32:14Z</time>
      </trkpt>
      <trkpt lat="42.4003850" lon="-8.6305660">
        <ele>55.0</ele>
        <time>2022-06-18T13:32:15Z</time>
      </trkpt>
      <trkpt lat="42.4004150" lon="-8.6305910">
        <ele>55.0</ele>
        <time>2022-06-18T13:32:16Z</time>
      </trkpt>
      <trkpt lat="42.4004450" lon="-8.6306150">
        <ele>55.0</ele>
        <time>2022-06-18T13:32:17Z</time>
      </trkpt>
      <trkpt lat="42.4004730" lon="-8.6306380">
        <ele>55.8</ele>
        <time>2022-06-18T13:32:18Z</time>
      </trkpt>
      <trkpt lat="42.4005000" lon="-8.6306610">
        <ele>55.8</ele>
        <time>2022-06-18T13:32:19Z</time>
      </trkpt>
      <trkpt lat="42.4005280" lon="-8.6306860">
        <ele>55.8</ele>
        <time>2022-06-18T13:32:20Z</time>
      </trkpt>
      <trkpt lat="42.4005550" lon="-8.6307130">
        <ele>55.4</ele>
        <time>2022-06-18T13:32:21Z</time>
      </trkpt>
      <trkpt lat="42.4005830" lon="-8.6307360">
        <ele>55.2</ele>
        <time>2022-06-18T13:32:22Z</time>
      </trkpt>
      <trkpt lat="42.4006100" lon="-8.6307630">
        <ele>55.2</ele>
        <time>2022-06-18T13:32:23Z</time>
      </trkpt>
      <trkpt lat="42.4006400" lon="-8.6307860">
        <ele>55.2</ele>
        <time>2022-06-18T13:32:24Z</time>
      </trkpt>
      <trkpt lat="42.4006680" lon="-8.6308130">
        <ele>55.2</ele>
        <time>2022-06-18T13:32:25Z</time>
      </trkpt>
      <trkpt lat="42.4006960" lon="-8.6308410">
        <ele>55.0</ele>
        <time>2022-06-18T13:32:26Z</time>
      </trkpt>
      <trkpt lat="42.4007250" lon="-8.6308730">
        <ele>55.0</ele>
        <time>2022-06-18T13:32:27Z</time>
      </trkpt>
      <trkpt lat="42.4007550" lon="-8.6309030">
        <ele>55.0</ele>
        <time>2022-06-18T13:32:28Z</time>
      </trkpt>
      <trkpt lat="42.4007850" lon="-8.6309350">
        <ele>55.0</ele>
        <time>2022-06-18T13:32:29Z</time>
      </trkpt>
      <trkpt lat="42.4008160" lon="-8.6309680">
        <ele>54.6</ele>
        <time>2022-06-18T13:32:30Z</time>
      </trkpt>
      <trkpt lat="42.4008480" lon="-8.6310030">
        <ele>54.6</ele>
        <time>2022-06-18T13:32:31Z</time>
      </trkpt>
      <trkpt lat="42.4008800" lon="-8.6310380">
        <ele>54.6</ele>
        <time>2022-06-18T13:32:32Z</time>
      </trkpt>
      <trkpt lat="42.4009110" lon="-8.6310750">
        <ele>53.6</ele>
        <time>2022-06-18T13:32:33Z</time>
      </trkpt>
      <trkpt lat="42.4009410" lon="-8.6311150">
        <ele>53.4</ele>
        <time>2022-06-18T13:32:34Z</time>
      </trkpt>
      <trkpt lat="42.4009730" lon="-8.6311530">
        <ele>53.4</ele>
        <time>2022-06-18T13:32:35Z</time>
      </trkpt>
      <trkpt lat="42.4010060" lon="-8.6311910">
        <ele>53.4</ele>
        <time>2022-06-18T13:32:36Z</time>
      </trkpt>
      <trkpt lat="42.4010380" lon="-8.6312310">
        <ele>52.4</ele>
        <time>2022-06-18T13:32:37Z</time>
      </trkpt>
      <trkpt lat="42.4010730" lon="-8.6312730">
        <ele>51.4</ele>
        <time>2022-06-18T13:32:38Z</time>
      </trkpt>
      <trkpt lat="42.4011080" lon="-8.6313100">
        <ele>51.4</ele>
        <time>2022-06-18T13:32:39Z</time>
      </trkpt>
      <trkpt lat="42.4011450" lon="-8.6313460">
        <ele>51.4</ele>
        <time>2022-06-18T13:32:40Z</time>
      </trkpt>
      <trkpt lat="42.4011800" lon="-8.6313850">
        <ele>51.4</ele>
        <time>2022-06-18T13:32:41Z</time>
      </trkpt>
      <trkpt lat="42.4012130" lon="-8.6314250">
        <ele>52.4</ele>
        <time>2022-06-18T13:32:42Z</time>
      </trkpt>
      <trkpt lat="42.4012480" lon="-8.6314650">
        <ele>52.4</ele>
        <time>2022-06-18T13:32:43Z</time>
      </trkpt>
      <trkpt lat="42.4012800" lon="-8.6315060">
        <ele>52.4</ele>
        <time>2022-06-18T13:32:44Z</time>
      </trkpt>
      <trkpt lat="42.4013150" lon="-8.6315450">
        <ele>52.4</ele>
        <time>2022-06-18T13:32:45Z</time>
      </trkpt>
      <trkpt lat="42.4013530" lon="-8.6315810">
        <ele>51.8</ele>
        <time>2022-06-18T13:32:46Z</time>
      </trkpt>
      <trkpt lat="42.4013900" lon="-8.6316230">
        <ele>51.8</ele>
        <time>2022-06-18T13:32:47Z</time>
      </trkpt>
      <trkpt lat="42.4014310" lon="-8.6316600">
        <ele>51.8</ele>
        <time>2022-06-18T13:32:48Z</time>
      </trkpt>
      <trkpt lat="42.4014710" lon="-8.6317030">
        <ele>51.0</ele>
        <time>2022-06-18T13:32:49Z</time>
      </trkpt>
      <trkpt lat="42.4015150" lon="-8.6317480">
        <ele>50.4</ele>
        <time>2022-06-18T13:32:50Z</time>
      </trkpt>
      <trkpt lat="42.4015550" lon="-8.6317930">
        <ele>50.4</ele>
        <time>2022-06-18T13:32:51Z</time>
      </trkpt>
      <trkpt lat="42.4015960" lon="-8.6318410">
        <ele>50.4</ele>
        <time>2022-06-18T13:32:52Z</time>
      </trkpt>
      <trkpt lat="42.4016380" lon="-8.6318880">
        <ele>50.4</ele>
        <time>2022-06-18T13:32:53Z</time>
      </trkpt>
      <trkpt lat="42.4016800" lon="-8.6319360">
        <ele>47.8</ele>
        <time>2022-06-18T13:32:54Z</time>
      </trkpt>
      <trkpt lat="42.4017230" lon="-8.6319850">
        <ele>47.8</ele>
        <time>2022-06-18T13:32:55Z</time>
      </trkpt>
      <trkpt lat="42.4017700" lon="-8.6320250">
        <ele>47.8</ele>
        <time>2022-06-18T13:32:56Z</time>
      </trkpt>
      <trkpt lat="42.4018210" lon="-8.6320650">
        <ele>47.8</ele>
        <time>2022-06-18T13:32:57Z</time>
      </trkpt>
      <trkpt lat="42.4018750" lon="-8.6320960">
        <ele>47.4</ele>
        <time>2022-06-18T13:32:58Z</time>
      </trkpt>
      <trkpt lat="42.4019280" lon="-8.6321230">
        <ele>47.4</ele>
        <time>2022-06-18T13:32:59Z</time>
      </trkpt>
      <trkpt lat="42.4019860" lon="-8.6321360">
        <ele>47.4</ele>
        <time>2022-06-18T13:33:00Z</time>
      </trkpt>
      <trkpt lat="42.4020430" lon="-8.6321400">
        <ele>46.6</ele>
        <time>2022-06-18T13:33:01Z</time>
      </trkpt>
      <trkpt lat="42.4021000" lon="-8.6321430">
        <ele>47.0</ele>
        <time>2022-06-18T13:33:02Z</time>
      </trkpt>
      <trkpt lat="42.4021560" lon="-8.6321430">
        <ele>47.0</ele>
        <time>2022-06-18T13:33:03Z</time>
      </trkpt>
      <trkpt lat="42.4022150" lon="-8.6321400">
        <ele>47.0</ele>
        <time>2022-06-18T13:33:04Z</time>
      </trkpt>
      <trkpt lat="42.4022700" lon="-8.6321360">
        <ele>46.0</ele>
        <time>2022-06-18T13:33:05Z</time>
      </trkpt>
      <trkpt lat="42.4023280" lon="-8.6321300">
        <ele>45.0</ele>
        <time>2022-06-18T13:33:06Z</time>
      </trkpt>
      <trkpt lat="42.4023900" lon="-8.6321250">
        <ele>45.0</ele>
        <time>2022-06-18T13:33:07Z</time>
      </trkpt>
      <trkpt lat="42.4024530" lon="-8.6321160">
        <ele>45.0</ele>
        <time>2022-06-18T13:33:08Z</time>
      </trkpt>
      <trkpt lat="42.4025160" lon="-8.6321080">
        <ele>46.0</ele>
        <time>2022-06-18T13:33:09Z</time>
      </trkpt>
      <trkpt lat="42.4025800" lon="-8.6321010">
        <ele>48.2</ele>
        <time>2022-06-18T13:33:10Z</time>
      </trkpt>
      <trkpt lat="42.4026410" lon="-8.6320960">
        <ele>48.2</ele>
        <time>2022-06-18T13:33:11Z</time>
      </trkpt>
      <trkpt lat="42.4027050" lon="-8.6320950">
        <ele>48.2</ele>
        <time>2022-06-18T13:33:12Z</time>
      </trkpt>
      <trkpt lat="42.4027660" lon="-8.6320980">
        <ele>47.2</ele>
        <time>2022-06-18T13:33:13Z</time>
      </trkpt>
      <trkpt lat="42.4028260" lon="-8.6321010">
        <ele>45.8</ele>
        <time>2022-06-18T13:33:14Z</time>
      </trkpt>
      <trkpt lat="42.4028860" lon="-8.6321060">
        <ele>45.8</ele>
        <time>2022-06-18T13:33:15Z</time>
      </trkpt>
      <trkpt lat="42.4029450" lon="-8.6321110">
        <ele>45.8</ele>
        <time>2022-06-18T13:33:16Z</time>
      </trkpt>
      <trkpt lat="42.4030010" lon="-8.6321210">
        <ele>46.0</ele>
        <time>2022-06-18T13:33:17Z</time>
      </trkpt>
      <trkpt lat="42.4030560" lon="-8.6321280">
        <ele>47.0</ele>
        <time>2022-06-18T13:33:18Z</time>
      </trkpt>
      <trkpt lat="42.4031080" lon="-8.6321330">
        <ele>47.0</ele>
        <time>2022-06-18T13:33:19Z</time>
      </trkpt>
      <trkpt lat="42.4031550" lon="-8.6321380">
        <ele>47.0</ele>
        <time>2022-06-18T13:33:20Z</time>
      </trkpt>
      <trkpt lat="42.4032010" lon="-8.6321400">
        <ele>47.6</ele>
        <time>2022-06-18T13:33:21Z</time>
      </trkpt>
      <trkpt lat="42.4032400" lon="-8.6321460">
        <ele>48.2</ele>
        <time>2022-06-18T13:33:22Z</time>
      </trkpt>
      <trkpt lat="42.4032780" lon="-8.6321510">
        <ele>48.2</ele>
        <time>2022-06-18T13:33:23Z</time>
      </trkpt>
      <trkpt lat="42.4033160" lon="-8.6321510">
        <ele>48.2</ele>
        <time>2022-06-18T13:33:24Z</time>
      </trkpt>
      <trkpt lat="42.4033510" lon="-8.6321510">
        <ele>48.8</ele>
        <time>2022-06-18T13:33:25Z</time>
      </trkpt>
      <trkpt lat="42.4033900" lon="-8.6321510">
        <ele>49.0</ele>
        <time>2022-06-18T13:33:26Z</time>
      </trkpt>
      <trkpt lat="42.4034310" lon="-8.6321560">
        <ele>49.0</ele>
        <time>2022-06-18T13:33:27Z</time>
      </trkpt>
      <trkpt lat="42.4034710" lon="-8.6321650">
        <ele>49.0</ele>
        <time>2022-06-18T13:33:28Z</time>
      </trkpt>
      <trkpt lat="42.4035130" lon="-8.6321700">
        <ele>48.6</ele>
        <time>2022-06-18T13:33:29Z</time>
      </trkpt>
      <trkpt lat="42.4035550" lon="-8.6321760">
        <ele>48.2</ele>
        <time>2022-06-18T13:33:30Z</time>
      </trkpt>
      <trkpt lat="42.4035950" lon="-8.6321830">
        <ele>48.2</ele>
        <time>2022-06-18T13:33:31Z</time>
      </trkpt>
      <trkpt lat="42.4036350" lon="-8.6321910">
        <ele>48.2</ele>
        <time>2022-06-18T13:33:32Z</time>
      </trkpt>
      <trkpt lat="42.4036730" lon="-8.6322010">
        <ele>48.4</ele>
        <time>2022-06-18T13:33:33Z</time>
      </trkpt>
      <trkpt lat="42.4037130" lon="-8.6322080">
        <ele>47.6</ele>
        <time>2022-06-18T13:33:34Z</time>
      </trkpt>
      <trkpt lat="42.4037560" lon="-8.6322110">
        <ele>47.6</ele>
        <time>2022-06-18T13:33:35Z</time>
      </trkpt>
      <trkpt lat="42.4037980" lon="-8.6322200">
        <ele>47.6</ele>
        <time>2022-06-18T13:33:36Z</time>
      </trkpt>
      <trkpt lat="42.4038410" lon="-8.6322260">
        <ele>47.6</ele>
        <time>2022-06-18T13:33:37Z</time>
      </trkpt>
      <trkpt lat="42.4038860" lon="-8.6322310">
        <ele>47.8</ele>
        <time>2022-06-18T13:33:38Z</time>
      </trkpt>
      <trkpt lat="42.4039330" lon="-8.6322360">
        <ele>47.8</ele>
        <time>2022-06-18T13:33:39Z</time>
      </trkpt>
      <trkpt lat="42.4039810" lon="-8.6322480">
        <ele>47.8</ele>
        <time>2022-06-18T13:33:40Z</time>
      </trkpt>
      <trkpt lat="42.4040300" lon="-8.6322560">
        <ele>47.0</ele>
        <time>2022-06-18T13:33:41Z</time>
      </trkpt>
      <trkpt lat="42.4040810" lon="-8.6322650">
        <ele>46.0</ele>
        <time>2022-06-18T13:33:42Z</time>
      </trkpt>
      <trkpt lat="42.4041350" lon="-8.6322730">
        <ele>46.0</ele>
        <time>2022-06-18T13:33:43Z</time>
      </trkpt>
      <trkpt lat="42.4041900" lon="-8.6322830">
        <ele>46.0</ele>
        <time>2022-06-18T13:33:44Z</time>
      </trkpt>
      <trkpt lat="42.4042460" lon="-8.6322900">
        <ele>46.0</ele>
        <time>2022-06-18T13:33:45Z</time>
      </trkpt>
      <trkpt lat="42.4043050" lon="-8.6322980">
        <ele>45.0</ele>
        <time>2022-06-18T13:33:46Z</time>
      </trkpt>
      <trkpt lat="42.4043630" lon="-8.6323060">
        <ele>45.0</ele>
        <time>2022-06-18T13:33:47Z</time>
      </trkpt>
      <trkpt lat="42.4044210" lon="-8.6323130">
        <ele>45.0</ele>
        <time>2022-06-18T13:33:48Z</time>
      </trkpt>
      <trkpt lat="42.4044800" lon="-8.6323260">
        <ele>44.0</ele>
        <time>2022-06-18T13:33:49Z</time>
      </trkpt>
      <trkpt lat="42.4045380" lon="-8.6323410">
        <ele>43.4</ele>
        <time>2022-06-18T13:33:50Z</time>
      </trkpt>
      <trkpt lat="42.4045980" lon="-8.6323560">
        <ele>43.4</ele>
        <time>2022-06-18T13:33:51Z</time>
      </trkpt>
      <trkpt lat="42.4046580" lon="-8.6323730">
        <ele>43.4</ele>
        <time>2022-06-18T13:33:52Z</time>
      </trkpt>
      <trkpt lat="42.4047200" lon="-8.6323900">
        <ele>43.4</ele>
        <time>2022-06-18T13:33:53Z</time>
      </trkpt>
      <trkpt lat="42.4047800" lon="-8.6324100">
        <ele>43.0</ele>
        <time>2022-06-18T13:33:54Z</time>
      </trkpt>
      <trkpt lat="42.4048410" lon="-8.6324310">
        <ele>43.0</ele>
        <time>2022-06-18T13:33:55Z</time>
      </trkpt>
      <trkpt lat="42.4049010" lon="-8.6324510">
        <ele>43.0</ele>
        <time>2022-06-18T13:33:56Z</time>
      </trkpt>
      <trkpt lat="42.4049630" lon="-8.6324660">
        <ele>43.0</ele>
        <time>2022-06-18T13:33:57Z</time>
      </trkpt>
      <trkpt lat="42.4050260" lon="-8.6324760">
        <ele>42.6</ele>
        <time>2022-06-18T13:33:58Z</time>
      </trkpt>
      <trkpt lat="42.4050900" lon="-8.6324860">
        <ele>42.6</ele>
        <time>2022-06-18T13:33:59Z</time>
      </trkpt>
      <trkpt lat="42.4051560" lon="-8.6324910">
        <ele>42.6</ele>
        <time>2022-06-18T13:34:00Z</time>
      </trkpt>
      <trkpt lat="42.4052250" lon="-8.6324950">
        <ele>42.6</ele>
        <time>2022-06-18T13:34:01Z</time>
      </trkpt>
      <trkpt lat="42.4052900" lon="-8.6324980">
        <ele>41.8</ele>
        <time>2022-06-18T13:34:02Z</time>
      </trkpt>
      <trkpt lat="42.4053560" lon="-8.6324980">
        <ele>41.8</ele>
        <time>2022-06-18T13:34:03Z</time>
      </trkpt>
      <trkpt lat="42.4054210" lon="-8.6325030">
        <ele>41.8</ele>
        <time>2022-06-18T13:34:04Z</time>
      </trkpt>
      <trkpt lat="42.4054830" lon="-8.6325100">
        <ele>41.8</ele>
        <time>2022-06-18T13:34:05Z</time>
      </trkpt>
      <trkpt lat="42.4055460" lon="-8.6325160">
        <ele>42.0</ele>
        <time>2022-06-18T13:34:06Z</time>
      </trkpt>
      <trkpt lat="42.4056110" lon="-8.6325250">
        <ele>42.0</ele>
        <time>2022-06-18T13:34:07Z</time>
      </trkpt>
      <trkpt lat="42.4056730" lon="-8.6325330">
        <ele>42.0</ele>
        <time>2022-06-18T13:34:08Z</time>
      </trkpt>
      <trkpt lat="42.4057350" lon="-8.6325430">
        <ele>41.6</ele>
        <time>2022-06-18T13:34:09Z</time>
      </trkpt>
      <trkpt lat="42.4057910" lon="-8.6325550">
        <ele>40.8</ele>
        <time>2022-06-18T13:34:10Z</time>
      </trkpt>
      <trkpt lat="42.4058460" lon="-8.6325700">
        <ele>40.8</ele>
        <time>2022-06-18T13:34:11Z</time>
      </trkpt>
      <trkpt lat="42.4059000" lon="-8.6325850">
        <ele>40.8</ele>
        <time>2022-06-18T13:34:12Z</time>
      </trkpt>
      <trkpt lat="42.4059510" lon="-8.6325980">
        <ele>41.2</ele>
        <time>2022-06-18T13:34:13Z</time>
      </trkpt>
      <trkpt lat="42.4060010" lon="-8.6326100">
        <ele>41.6</ele>
        <time>2022-06-18T13:34:14Z</time>
      </trkpt>
      <trkpt lat="42.4060500" lon="-8.6326230">
        <ele>41.6</ele>
        <time>2022-06-18T13:34:15Z</time>
      </trkpt>
      <trkpt lat="42.4061010" lon="-8.6326480">
        <ele>41.6</ele>
        <time>2022-06-18T13:34:16Z</time>
      </trkpt>
      <trkpt lat="42.4061550" lon="-8.6326780">
        <ele>41.6</ele>
        <time>2022-06-18T13:34:17Z</time>
      </trkpt>
      <trkpt lat="42.4062130" lon="-8.6327110">
        <ele>39.4</ele>
        <time>2022-06-18T13:34:18Z</time>
      </trkpt>
      <trkpt lat="42.4062750" lon="-8.6327450">
        <ele>39.4</ele>
        <time>2022-06-18T13:34:19Z</time>
      </trkpt>
      <trkpt lat="42.4063360" lon="-8.6327780">
        <ele>39.4</ele>
        <time>2022-06-18T13:34:20Z</time>
      </trkpt>
      <trkpt lat="42.4063960" lon="-8.6328100">
        <ele>39.4</ele>
        <time>2022-06-18T13:34:21Z</time>
      </trkpt>
      <trkpt lat="42.4064550" lon="-8.6328400">
        <ele>40.0</ele>
        <time>2022-06-18T13:34:22Z</time>
      </trkpt>
      <trkpt lat="42.4065110" lon="-8.6328680">
        <ele>40.0</ele>
        <time>2022-06-18T13:34:23Z</time>
      </trkpt>
      <trkpt lat="42.4065660" lon="-8.6328950">
        <ele>40.0</ele>
        <time>2022-06-18T13:34:24Z</time>
      </trkpt>
      <trkpt lat="42.4066230" lon="-8.6329200">
        <ele>40.0</ele>
        <time>2022-06-18T13:34:25Z</time>
      </trkpt>
      <trkpt lat="42.4066760" lon="-8.6329460">
        <ele>40.2</ele>
        <time>2022-06-18T13:34:26Z</time>
      </trkpt>
      <trkpt lat="42.4067300" lon="-8.6329750">
        <ele>40.2</ele>
        <time>2022-06-18T13:34:27Z</time>
      </trkpt>
      <trkpt lat="42.4067830" lon="-8.6330010">
        <ele>40.2</ele>
        <time>2022-06-18T13:34:28Z</time>
      </trkpt>
      <trkpt lat="42.4068330" lon="-8.6330260">
        <ele>40.2</ele>
        <time>2022-06-18T13:34:29Z</time>
      </trkpt>
      <trkpt lat="42.4068850" lon="-8.6330480">
        <ele>41.0</ele>
        <time>2022-06-18T13:34:30Z</time>
      </trkpt>
      <trkpt lat="42.4069350" lon="-8.6330710">
        <ele>41.0</ele>
        <time>2022-06-18T13:34:31Z</time>
      </trkpt>
      <trkpt lat="42.4069850" lon="-8.6330880">
        <ele>41.0</ele>
        <time>2022-06-18T13:34:32Z</time>
      </trkpt>
      <trkpt lat="42.4070350" lon="-8.6331030">
        <ele>40.0</ele>
        <time>2022-06-18T13:34:33Z</time>
      </trkpt>
      <trkpt lat="42.4070850" lon="-8.6331130">
        <ele>40.6</ele>
        <time>2022-06-18T13:34:34Z</time>
      </trkpt>
      <trkpt lat="42.4071380" lon="-8.6331250">
        <ele>40.6</ele>
        <time>2022-06-18T13:34:35Z</time>
      </trkpt>
      <trkpt lat="42.4071880" lon="-8.6331410">
        <ele>40.6</ele>
        <time>2022-06-18T13:34:36Z</time>
      </trkpt>
      <trkpt lat="42.4072380" lon="-8.6331560">
        <ele>39.6</ele>
        <time>2022-06-18T13:34:37Z</time>
      </trkpt>
      <trkpt lat="42.4072860" lon="-8.6331660">
        <ele>40.2</ele>
        <time>2022-06-18T13:34:38Z</time>
      </trkpt>
      <trkpt lat="42.4073330" lon="-8.6331730">
        <ele>40.2</ele>
        <time>2022-06-18T13:34:39Z</time>
      </trkpt>
      <trkpt lat="42.4073830" lon="-8.6331800">
        <ele>40.2</ele>
        <time>2022-06-18T13:34:40Z</time>
      </trkpt>
      <trkpt lat="42.4074310" lon="-8.6331860">
        <ele>41.0</ele>
        <time>2022-06-18T13:34:41Z</time>
      </trkpt>
      <trkpt lat="42.4074780" lon="-8.6331930">
        <ele>40.8</ele>
        <time>2022-06-18T13:34:42Z</time>
      </trkpt>
      <trkpt lat="42.4075260" lon="-8.6331960">
        <ele>40.8</ele>
        <time>2022-06-18T13:34:43Z</time>
      </trkpt>
      <trkpt lat="42.4075730" lon="-8.6332000">
        <ele>40.8</ele>
        <time>2022-06-18T13:34:44Z</time>
      </trkpt>
      <trkpt lat="42.4076210" lon="-8.6332050">
        <ele>40.8</ele>
        <time>2022-06-18T13:34:45Z</time>
      </trkpt>
      <trkpt lat="42.4076700" lon="-8.6332130">
        <ele>41.0</ele>
        <time>2022-06-18T13:34:46Z</time>
      </trkpt>
      <trkpt lat="42.4077180" lon="-8.6332200">
        <ele>41.0</ele>
        <time>2022-06-18T13:34:47Z</time>
      </trkpt>
      <trkpt lat="42.4077660" lon="-8.6332280">
        <ele>41.0</ele>
        <time>2022-06-18T13:34:48Z</time>
      </trkpt>
      <trkpt lat="42.4078110" lon="-8.6332350">
        <ele>41.0</ele>
        <time>2022-06-18T13:34:49Z</time>
      </trkpt>
      <trkpt lat="42.4078560" lon="-8.6332410">
        <ele>41.6</ele>
        <time>2022-06-18T13:34:50Z</time>
      </trkpt>
      <trkpt lat="42.4079000" lon="-8.6332510">
        <ele>41.6</ele>
        <time>2022-06-18T13:34:51Z</time>
      </trkpt>
      <trkpt lat="42.4079430" lon="-8.6332610">
        <ele>41.6</ele>
        <time>2022-06-18T13:34:52Z</time>
      </trkpt>
      <trkpt lat="42.4079880" lon="-8.6332710">
        <ele>42.2</ele>
        <time>2022-06-18T13:34:53Z</time>
      </trkpt>
      <trkpt lat="42.4080310" lon="-8.6332810">
        <ele>42.4</ele>
        <time>2022-06-18T13:34:54Z</time>
      </trkpt>
      <trkpt lat="42.4080750" lon="-8.6332910">
        <ele>42.4</ele>
        <time>2022-06-18T13:34:55Z</time>
      </trkpt>
      <trkpt lat="42.4081160" lon="-8.6333030">
        <ele>42.4</ele>
        <time>2022-06-18T13:34:56Z</time>
      </trkpt>
      <trkpt lat="42.4081610" lon="-8.6333110">
        <ele>41.6</ele>
        <time>2022-06-18T13:34:57Z</time>
      </trkpt>
      <trkpt lat="42.4082050" lon="-8.6333230">
        <ele>42.2</ele>
        <time>2022-06-18T13:34:58Z</time>
      </trkpt>
      <trkpt lat="42.4082500" lon="-8.6333310">
        <ele>42.2</ele>
        <time>2022-06-18T13:34:59Z</time>
      </trkpt>
      <trkpt lat="42.4082960" lon="-8.6333360">
        <ele>42.2</ele>
        <time>2022-06-18T13:35:00Z</time>
      </trkpt>
      <trkpt lat="42.4083400" lon="-8.6333400">
        <ele>41.2</ele>
        <time>2022-06-18T13:35:01Z</time>
      </trkpt>
      <trkpt lat="42.4083810" lon="-8.6333460">
        <ele>41.4</ele>
        <time>2022-06-18T13:35:02Z</time>
      </trkpt>
      <trkpt lat="42.4084250" lon="-8.6333530">
        <ele>41.4</ele>
        <time>2022-06-18T13:35:03Z</time>
      </trkpt>
      <trkpt lat="42.4084660" lon="-8.6333580">
        <ele>41.4</ele>
        <time>2022-06-18T13:35:04Z</time>
      </trkpt>
      <trkpt lat="42.4085080" lon="-8.6333600">
        <ele>42.4</ele>
        <time>2022-06-18T13:35:05Z</time>
      </trkpt>
      <trkpt lat="42.4085480" lon="-8.6333610">
        <ele>42.4</ele>
        <time>2022-06-18T13:35:06Z</time>
      </trkpt>
      <trkpt lat="42.4085900" lon="-8.6333630">
        <ele>42.4</ele>
        <time>2022-06-18T13:35:07Z</time>
      </trkpt>
      <trkpt lat="42.4086300" lon="-8.6333630">
        <ele>42.4</ele>
        <time>2022-06-18T13:35:08Z</time>
      </trkpt>
      <trkpt lat="42.4086700" lon="-8.6333610">
        <ele>42.4</ele>
        <time>2022-06-18T13:35:09Z</time>
      </trkpt>
      <trkpt lat="42.4087100" lon="-8.6333580">
        <ele>43.4</ele>
        <time>2022-06-18T13:35:10Z</time>
      </trkpt>
      <trkpt lat="42.4087480" lon="-8.6333560">
        <ele>43.4</ele>
        <time>2022-06-18T13:35:11Z</time>
      </trkpt>
      <trkpt lat="42.4087860" lon="-8.6333530">
        <ele>43.4</ele>
        <time>2022-06-18T13:35:12Z</time>
      </trkpt>
      <trkpt lat="42.4088230" lon="-8.6333500">
        <ele>44.2</ele>
        <time>2022-06-18T13:35:13Z</time>
      </trkpt>
      <trkpt lat="42.4088600" lon="-8.6333480">
        <ele>44.0</ele>
        <time>2022-06-18T13:35:14Z</time>
      </trkpt>
      <trkpt lat="42.4088960" lon="-8.6333460">
        <ele>44.0</ele>
        <time>2022-06-18T13:35:15Z</time>
      </trkpt>
      <trkpt lat="42.4089350" lon="-8.6333450">
        <ele>44.0</ele>
        <time>2022-06-18T13:35:16Z</time>
      </trkpt>
      <trkpt lat="42.4089730" lon="-8.6333410">
        <ele>44.0</ele>
        <time>2022-06-18T13:35:17Z</time>
      </trkpt>
      <trkpt lat="42.4090130" lon="-8.6333360">
        <ele>43.8</ele>
        <time>2022-06-18T13:35:18Z</time>
      </trkpt>
      <trkpt lat="42.4090510" lon="-8.6333310">
        <ele>43.8</ele>
        <time>2022-06-18T13:35:19Z</time>
      </trkpt>
      <trkpt lat="42.4090880" lon="-8.6333280">
        <ele>43.8</ele>
        <time>2022-06-18T13:35:20Z</time>
      </trkpt>
      <trkpt lat="42.4091250" lon="-8.6333230">
        <ele>44.8</ele>
        <time>2022-06-18T13:35:21Z</time>
      </trkpt>
      <trkpt lat="42.4091650" lon="-8.6333160">
        <ele>45.4</ele>
        <time>2022-06-18T13:35:22Z</time>
      </trkpt>
      <trkpt lat="42.4092080" lon="-8.6333050">
        <ele>45.4</ele>
        <time>2022-06-18T13:35:23Z</time>
      </trkpt>
      <trkpt lat="42.4092480" lon="-8.6332930">
        <ele>45.4</ele>
        <time>2022-06-18T13:35:24Z</time>
      </trkpt>
      <trkpt lat="42.4092860" lon="-8.6332800">
        <ele>45.6</ele>
        <time>2022-06-18T13:35:25Z</time>
      </trkpt>
      <trkpt lat="42.4093180" lon="-8.6332660">
        <ele>46.0</ele>
        <time>2022-06-18T13:35:26Z</time>
      </trkpt>
      <trkpt lat="42.4093460" lon="-8.6332560">
        <ele>46.0</ele>
        <time>2022-06-18T13:35:27Z</time>
      </trkpt>
      <trkpt lat="42.4093730" lon="-8.6332500">
        <ele>46.0</ele>
        <time>2022-06-18T13:35:28Z</time>
      </trkpt>
      <trkpt lat="42.4094010" lon="-8.6332410">
        <ele>46.0</ele>
        <time>2022-06-18T13:35:29Z</time>
      </trkpt>
      <trkpt lat="42.4094310" lon="-8.6332280">
        <ele>46.6</ele>
        <time>2022-06-18T13:35:30Z</time>
      </trkpt>
      <trkpt lat="42.4094630" lon="-8.6332200">
        <ele>46.6</ele>
        <time>2022-06-18T13:35:31Z</time>
      </trkpt>
      <trkpt lat="42.4094980" lon="-8.6332110">
        <ele>46.6</ele>
        <time>2022-06-18T13:35:32Z</time>
      </trkpt>
      <trkpt lat="42.4095360" lon="-8.6332060">
        <ele>45.8</ele>
        <time>2022-06-18T13:35:33Z</time>
      </trkpt>
      <trkpt lat="42.4095750" lon="-8.6331980">
        <ele>46.0</ele>
        <time>2022-06-18T13:35:34Z</time>
      </trkpt>
      <trkpt lat="42.4096150" lon="-8.6331860">
        <ele>46.0</ele>
        <time>2022-06-18T13:35:35Z</time>
      </trkpt>
      <trkpt lat="42.4096580" lon="-8.6331700">
        <ele>46.0</ele>
        <time>2022-06-18T13:35:36Z</time>
      </trkpt>
      <trkpt lat="42.4097010" lon="-8.6331530">
        <ele>46.0</ele>
        <time>2022-06-18T13:35:37Z</time>
      </trkpt>
      <trkpt lat="42.4097450" lon="-8.6331400">
        <ele>46.0</ele>
        <time>2022-06-18T13:35:38Z</time>
      </trkpt>
      <trkpt lat="42.4097860" lon="-8.6331260">
        <ele>46.0</ele>
        <time>2022-06-18T13:35:39Z</time>
      </trkpt>
      <trkpt lat="42.4098280" lon="-8.6331210">
        <ele>46.0</ele>
        <time>2022-06-18T13:35:40Z</time>
      </trkpt>
      <trkpt lat="42.4098660" lon="-8.6331180">
        <ele>45.0</ele>
        <time>2022-06-18T13:35:41Z</time>
      </trkpt>
      <trkpt lat="42.4099050" lon="-8.6331130">
        <ele>45.2</ele>
        <time>2022-06-18T13:35:42Z</time>
      </trkpt>
      <trkpt lat="42.4099410" lon="-8.6331080">
        <ele>45.2</ele>
        <time>2022-06-18T13:35:43Z</time>
      </trkpt>
      <trkpt lat="42.4099800" lon="-8.6331010">
        <ele>45.2</ele>
        <time>2022-06-18T13:35:44Z</time>
      </trkpt>
      <trkpt lat="42.4100200" lon="-8.6330930">
        <ele>45.2</ele>
        <time>2022-06-18T13:35:45Z</time>
      </trkpt>
      <trkpt lat="42.4100650" lon="-8.6330850">
        <ele>45.4</ele>
        <time>2022-06-18T13:35:46Z</time>
      </trkpt>
      <trkpt lat="42.4101110" lon="-8.6330800">
        <ele>45.4</ele>
        <time>2022-06-18T13:35:47Z</time>
      </trkpt>
      <trkpt lat="42.4101580" lon="-8.6330760">
        <ele>45.4</ele>
        <time>2022-06-18T13:35:48Z</time>
      </trkpt>
      <trkpt lat="42.4102030" lon="-8.6330710">
        <ele>45.4</ele>
        <time>2022-06-18T13:35:49Z</time>
      </trkpt>
      <trkpt lat="42.4102510" lon="-8.6330610">
        <ele>44.6</ele>
        <time>2022-06-18T13:35:50Z</time>
      </trkpt>
      <trkpt lat="42.4102980" lon="-8.6330510">
        <ele>44.6</ele>
        <time>2022-06-18T13:35:51Z</time>
      </trkpt>
      <trkpt lat="42.4103460" lon="-8.6330430">
        <ele>44.6</ele>
        <time>2022-06-18T13:35:52Z</time>
      </trkpt>
      <trkpt lat="42.4103910" lon="-8.6330360">
        <ele>44.6</ele>
        <time>2022-06-18T13:35:53Z</time>
      </trkpt>
      <trkpt lat="42.4104380" lon="-8.6330310">
        <ele>44.2</ele>
        <time>2022-06-18T13:35:54Z</time>
      </trkpt>
      <trkpt lat="42.4104830" lon="-8.6330260">
        <ele>44.2</ele>
        <time>2022-06-18T13:35:55Z</time>
      </trkpt>
      <trkpt lat="42.4105310" lon="-8.6330250">
        <ele>44.2</ele>
        <time>2022-06-18T13:35:56Z</time>
      </trkpt>
      <trkpt lat="42.4105810" lon="-8.6330260">
        <ele>43.2</ele>
        <time>2022-06-18T13:35:57Z</time>
      </trkpt>
      <trkpt lat="42.4106310" lon="-8.6330300">
        <ele>42.6</ele>
        <time>2022-06-18T13:35:58Z</time>
      </trkpt>
      <trkpt lat="42.4106860" lon="-8.6330360">
        <ele>42.6</ele>
        <time>2022-06-18T13:35:59Z</time>
      </trkpt>
      <trkpt lat="42.4107430" lon="-8.6330450">
        <ele>42.6</ele>
        <time>2022-06-18T13:36:00Z</time>
      </trkpt>
      <trkpt lat="42.4108030" lon="-8.6330510">
        <ele>41.6</ele>
        <time>2022-06-18T13:36:01Z</time>
      </trkpt>
      <trkpt lat="42.4108650" lon="-8.6330600">
        <ele>40.8</ele>
        <time>2022-06-18T13:36:02Z</time>
      </trkpt>
      <trkpt lat="42.4109280" lon="-8.6330680">
        <ele>40.8</ele>
        <time>2022-06-18T13:36:03Z</time>
      </trkpt>
      <trkpt lat="42.4109910" lon="-8.6330780">
        <ele>40.8</ele>
        <time>2022-06-18T13:36:04Z</time>
      </trkpt>
      <trkpt lat="42.4110560" lon="-8.6330860">
        <ele>40.6</ele>
        <time>2022-06-18T13:36:05Z</time>
      </trkpt>
      <trkpt lat="42.4111210" lon="-8.6330910">
        <ele>41.0</ele>
        <time>2022-06-18T13:36:06Z</time>
      </trkpt>
      <trkpt lat="42.4111880" lon="-8.6330910">
        <ele>41.0</ele>
        <time>2022-06-18T13:36:07Z</time>
      </trkpt>
      <trkpt lat="42.4112530" lon="-8.6330910">
        <ele>41.0</ele>
        <time>2022-06-18T13:36:08Z</time>
      </trkpt>
      <trkpt lat="42.4113200" lon="-8.6330860">
        <ele>40.0</ele>
        <time>2022-06-18T13:36:09Z</time>
      </trkpt>
      <trkpt lat="42.4113900" lon="-8.6330810">
        <ele>38.2</ele>
        <time>2022-06-18T13:36:10Z</time>
      </trkpt>
      <trkpt lat="42.4114600" lon="-8.6330760">
        <ele>38.2</ele>
        <time>2022-06-18T13:36:11Z</time>
      </trkpt>
      <trkpt lat="42.4115280" lon="-8.6330700">
        <ele>38.2</ele>
        <time>2022-06-18T13:36:12Z</time>
      </trkpt>
      <trkpt lat="42.4115980" lon="-8.6330610">
        <ele>37.8</ele>
        <time>2022-06-18T13:36:13Z</time>
      </trkpt>
      <trkpt lat="42.4116680" lon="-8.6330530">
        <ele>38.2</ele>
        <time>2022-06-18T13:36:14Z</time>
      </trkpt>
      <trkpt lat="42.4117400" lon="-8.6330460">
        <ele>38.2</ele>
        <time>2022-06-18T13:36:15Z</time>
      </trkpt>
      <trkpt lat="42.4118130" lon="-8.6330380">
        <ele>38.2</ele>
        <time>2022-06-18T13:36:16Z</time>
      </trkpt>
      <trkpt lat="42.4118850" lon="-8.6330330">
        <ele>38.2</ele>
        <time>2022-06-18T13:36:17Z</time>
      </trkpt>
      <trkpt lat="42.4119560" lon="-8.6330310">
        <ele>37.0</ele>
        <time>2022-06-18T13:36:18Z</time>
      </trkpt>
      <trkpt lat="42.4120300" lon="-8.6330310">
        <ele>37.0</ele>
        <time>2022-06-18T13:36:19Z</time>
      </trkpt>
      <trkpt lat="42.4121050" lon="-8.6330280">
        <ele>37.0</ele>
        <time>2022-06-18T13:36:20Z</time>
      </trkpt>
      <trkpt lat="42.4121800" lon="-8.6330230">
        <ele>36.0</ele>
        <time>2022-06-18T13:36:21Z</time>
      </trkpt>
      <trkpt lat="42.4122550" lon="-8.6330210">
        <ele>35.2</ele>
        <time>2022-06-18T13:36:22Z</time>
      </trkpt>
      <trkpt lat="42.4123300" lon="-8.6330230">
        <ele>35.2</ele>
        <time>2022-06-18T13:36:23Z</time>
      </trkpt>
      <trkpt lat="42.4124050" lon="-8.6330310">
        <ele>35.2</ele>
        <time>2022-06-18T13:36:24Z</time>
      </trkpt>
      <trkpt lat="42.4124810" lon="-8.6330430">
        <ele>35.2</ele>
        <time>2022-06-18T13:36:25Z</time>
      </trkpt>
      <trkpt lat="42.4125580" lon="-8.6330560">
        <ele>34.4</ele>
        <time>2022-06-18T13:36:26Z</time>
      </trkpt>
      <trkpt lat="42.4126330" lon="-8.6330710">
        <ele>34.4</ele>
        <time>2022-06-18T13:36:27Z</time>
      </trkpt>
      <trkpt lat="42.4127100" lon="-8.6330880">
        <ele>34.4</ele>
        <time>2022-06-18T13:36:28Z</time>
      </trkpt>
      <trkpt lat="42.4127830" lon="-8.6331060">
        <ele>34.4</ele>
        <time>2022-06-18T13:36:29Z</time>
      </trkpt>
      <trkpt lat="42.4128580" lon="-8.6331210">
        <ele>34.0</ele>
        <time>2022-06-18T13:36:30Z</time>
      </trkpt>
      <trkpt lat="42.4129300" lon="-8.6331330">
        <ele>34.0</ele>
        <time>2022-06-18T13:36:31Z</time>
      </trkpt>
      <trkpt lat="42.4130010" lon="-8.6331360">
        <ele>34.0</ele>
        <time>2022-06-18T13:36:32Z</time>
      </trkpt>
      <trkpt lat="42.4130730" lon="-8.6331350">
        <ele>34.0</ele>
        <time>2022-06-18T13:36:33Z</time>
      </trkpt>
      <trkpt lat="42.4131460" lon="-8.6331280">
        <ele>33.6</ele>
        <time>2022-06-18T13:36:34Z</time>
      </trkpt>
      <trkpt lat="42.4132180" lon="-8.6331160">
        <ele>33.6</ele>
        <time>2022-06-18T13:36:35Z</time>
      </trkpt>
      <trkpt lat="42.4132900" lon="-8.6331030">
        <ele>33.6</ele>
        <time>2022-06-18T13:36:36Z</time>
      </trkpt>
      <trkpt lat="42.4133610" lon="-8.6330880">
        <ele>33.6</ele>
        <time>2022-06-18T13:36:37Z</time>
      </trkpt>
      <trkpt lat="42.4134330" lon="-8.6330730">
        <ele>33.0</ele>
        <time>2022-06-18T13:36:38Z</time>
      </trkpt>
      <trkpt lat="42.4135080" lon="-8.6330550">
        <ele>33.0</ele>
        <time>2022-06-18T13:36:39Z</time>
      </trkpt>
      <trkpt lat="42.4135830" lon="-8.6330400">
        <ele>33.0</ele>
        <time>2022-06-18T13:36:40Z</time>
      </trkpt>
      <trkpt lat="42.4136560" lon="-8.6330260">
        <ele>32.6</ele>
        <time>2022-06-18T13:36:41Z</time>
      </trkpt>
      <trkpt lat="42.4137280" lon="-8.6330130">
        <ele>32.8</ele>
        <time>2022-06-18T13:36:42Z</time>
      </trkpt>
      <trkpt lat="42.4138000" lon="-8.6330010">
        <ele>32.8</ele>
        <time>2022-06-18T13:36:43Z</time>
      </trkpt>
      <trkpt lat="42.4138700" lon="-8.6329950">
        <ele>32.8</ele>
        <time>2022-06-18T13:36:44Z</time>
      </trkpt>
      <trkpt lat="42.4139450" lon="-8.6329910">
        <ele>32.8</ele>
        <time>2022-06-18T13:36:45Z</time>
      </trkpt>
      <trkpt lat="42.4140200" lon="-8.6329960">
        <ele>32.0</ele>
        <time>2022-06-18T13:36:46Z</time>
      </trkpt>
      <trkpt lat="42.4140930" lon="-8.6330060">
        <ele>32.0</ele>
        <time>2022-06-18T13:36:47Z</time>
      </trkpt>
      <trkpt lat="42.4141650" lon="-8.6330200">
        <ele>32.0</ele>
        <time>2022-06-18T13:36:48Z</time>
      </trkpt>
      <trkpt lat="42.4142380" lon="-8.6330350">
        <ele>32.0</ele>
        <time>2022-06-18T13:36:49Z</time>
      </trkpt>
      <trkpt lat="42.4143100" lon="-8.6330550">
        <ele>31.4</ele>
        <time>2022-06-18T13:36:50Z</time>
      </trkpt>
      <trkpt lat="42.4143810" lon="-8.6330730">
        <ele>31.4</ele>
        <time>2022-06-18T13:36:51Z</time>
      </trkpt>
      <trkpt lat="42.4144530" lon="-8.6330900">
        <ele>31.4</ele>
        <time>2022-06-18T13:36:52Z</time>
      </trkpt>
      <trkpt lat="42.4145230" lon="-8.6331080">
        <ele>31.4</ele>
        <time>2022-06-18T13:36:53Z</time>
      </trkpt>
      <trkpt lat="42.4145910" lon="-8.6331280">
        <ele>30.2</ele>
        <time>2022-06-18T13:36:54Z</time>
      </trkpt>
      <trkpt lat="42.4146600" lon="-8.6331480">
        <ele>30.2</ele>
        <time>2022-06-18T13:36:55Z</time>
      </trkpt>
      <trkpt lat="42.4147300" lon="-8.6331650">
        <ele>30.2</ele>
        <time>2022-06-18T13:36:56Z</time>
      </trkpt>
      <trkpt lat="42.4147980" lon="-8.6331800">
        <ele>30.2</ele>
        <time>2022-06-18T13:36:57Z</time>
      </trkpt>
      <trkpt lat="42.4148650" lon="-8.6331900">
        <ele>30.8</ele>
        <time>2022-06-18T13:36:58Z</time>
      </trkpt>
      <trkpt lat="42.4149310" lon="-8.6331980">
        <ele>30.8</ele>
        <time>2022-06-18T13:36:59Z</time>
      </trkpt>
      <trkpt lat="42.4150000" lon="-8.6332000">
        <ele>30.8</ele>
        <time>2022-06-18T13:37:00Z</time>
      </trkpt>
      <trkpt lat="42.4150660" lon="-8.6331980">
        <ele>31.4</ele>
        <time>2022-06-18T13:37:01Z</time>
      </trkpt>
      <trkpt lat="42.4151310" lon="-8.6331880">
        <ele>31.4</ele>
        <time>2022-06-18T13:37:02Z</time>
      </trkpt>
      <trkpt lat="42.4151950" lon="-8.6331710">
        <ele>31.4</ele>
        <time>2022-06-18T13:37:03Z</time>
      </trkpt>
      <trkpt lat="42.4152580" lon="-8.6331510">
        <ele>31.4</ele>
        <time>2022-06-18T13:37:04Z</time>
      </trkpt>
      <trkpt lat="42.4153200" lon="-8.6331260">
        <ele>32.2</ele>
        <time>2022-06-18T13:37:05Z</time>
      </trkpt>
      <trkpt lat="42.4153850" lon="-8.6331010">
        <ele>32.8</ele>
        <time>2022-06-18T13:37:06Z</time>
      </trkpt>
      <trkpt lat="42.4154480" lon="-8.6330810">
        <ele>32.8</ele>
        <time>2022-06-18T13:37:07Z</time>
      </trkpt>
      <trkpt lat="42.4155100" lon="-8.6330730">
        <ele>32.8</ele>
        <time>2022-06-18T13:37:08Z</time>
      </trkpt>
      <trkpt lat="42.4155700" lon="-8.6330730">
        <ele>32.8</ele>
        <time>2022-06-18T13:37:09Z</time>
      </trkpt>
      <trkpt lat="42.4156280" lon="-8.6330850">
        <ele>32.4</ele>
        <time>2022-06-18T13:37:10Z</time>
      </trkpt>
      <trkpt lat="42.4156810" lon="-8.6330980">
        <ele>32.4</ele>
        <time>2022-06-18T13:37:11Z</time>
      </trkpt>
      <trkpt lat="42.4157360" lon="-8.6331150">
        <ele>32.4</ele>
        <time>2022-06-18T13:37:12Z</time>
      </trkpt>
      <trkpt lat="42.4157880" lon="-8.6331310">
        <ele>32.4</ele>
        <time>2022-06-18T13:37:13Z</time>
      </trkpt>
      <trkpt lat="42.4158360" lon="-8.6331550">
        <ele>32.0</ele>
        <time>2022-06-18T13:37:14Z</time>
      </trkpt>
      <trkpt lat="42.4158830" lon="-8.6331780">
        <ele>32.0</ele>
        <time>2022-06-18T13:37:15Z</time>
      </trkpt>
      <trkpt lat="42.4159310" lon="-8.6332010">
        <ele>32.0</ele>
        <time>2022-06-18T13:37:16Z</time>
      </trkpt>
      <trkpt lat="42.4159800" lon="-8.6332230">
        <ele>32.0</ele>
        <time>2022-06-18T13:37:17Z</time>
      </trkpt>
      <trkpt lat="42.4160280" lon="-8.6332460">
        <ele>31.8</ele>
        <time>2022-06-18T13:37:18Z</time>
      </trkpt>
      <trkpt lat="42.4160760" lon="-8.6332700">
        <ele>31.8</ele>
        <time>2022-06-18T13:37:19Z</time>
      </trkpt>
      <trkpt lat="42.4161210" lon="-8.6332960">
        <ele>31.8</ele>
        <time>2022-06-18T13:37:20Z</time>
      </trkpt>
      <trkpt lat="42.4161660" lon="-8.6333230">
        <ele>31.8</ele>
        <time>2022-06-18T13:37:21Z</time>
      </trkpt>
      <trkpt lat="42.4162100" lon="-8.6333480">
        <ele>31.6</ele>
        <time>2022-06-18T13:37:22Z</time>
      </trkpt>
      <trkpt lat="42.4162530" lon="-8.6333680">
        <ele>31.6</ele>
        <time>2022-06-18T13:37:23Z</time>
      </trkpt>
      <trkpt lat="42.4162960" lon="-8.6333860">
        <ele>31.6</ele>
        <time>2022-06-18T13:37:24Z</time>
      </trkpt>
      <trkpt lat="42.4163400" lon="-8.6334030">
        <ele>30.8</ele>
        <time>2022-06-18T13:37:25Z</time>
      </trkpt>
      <trkpt lat="42.4163810" lon="-8.6334230">
        <ele>31.6</ele>
        <time>2022-06-18T13:37:26Z</time>
      </trkpt>
      <trkpt lat="42.4164180" lon="-8.6334480">
        <ele>31.6</ele>
        <time>2022-06-18T13:37:27Z</time>
      </trkpt>
      <trkpt lat="42.4164550" lon="-8.6334760">
        <ele>31.6</ele>
        <time>2022-06-18T13:37:28Z</time>
      </trkpt>
      <trkpt lat="42.4164910" lon="-8.6335000">
        <ele>31.6</ele>
        <time>2022-06-18T13:37:29Z</time>
      </trkpt>
      <trkpt lat="42.4165280" lon="-8.6335160">
        <ele>31.6</ele>
        <time>2022-06-18T13:37:30Z</time>
      </trkpt>
      <trkpt lat="42.4165650" lon="-8.6335250">
        <ele>31.6</ele>
        <time>2022-06-18T13:37:31Z</time>
      </trkpt>
      <trkpt lat="42.4166030" lon="-8.6335300">
        <ele>31.6</ele>
        <time>2022-06-18T13:37:32Z</time>
      </trkpt>
      <trkpt lat="42.4166410" lon="-8.6335280">
        <ele>31.6</ele>
        <time>2022-06-18T13:37:33Z</time>
      </trkpt>
      <trkpt lat="42.4166780" lon="-8.6335260">
        <ele>33.4</ele>
        <time>2022-06-18T13:37:34Z</time>
      </trkpt>
      <trkpt lat="42.4167180" lon="-8.6335350">
        <ele>33.4</ele>
        <time>2022-06-18T13:37:35Z</time>
      </trkpt>
      <trkpt lat="42.4167560" lon="-8.6335430">
        <ele>33.4</ele>
        <time>2022-06-18T13:37:36Z</time>
      </trkpt>
      <trkpt lat="42.4167930" lon="-8.6335460">
        <ele>33.4</ele>
        <time>2022-06-18T13:37:37Z</time>
      </trkpt>
      <trkpt lat="42.4168330" lon="-8.6335480">
        <ele>33.2</ele>
        <time>2022-06-18T13:37:38Z</time>
      </trkpt>
      <trkpt lat="42.4168710" lon="-8.6335480">
        <ele>33.2</ele>
        <time>2022-06-18T13:37:39Z</time>
      </trkpt>
      <trkpt lat="42.4169100" lon="-8.6335460">
        <ele>33.2</ele>
        <time>2022-06-18T13:37:40Z</time>
      </trkpt>
      <trkpt lat="42.4169480" lon="-8.6335460">
        <ele>32.8</ele>
        <time>2022-06-18T13:37:41Z</time>
      </trkpt>
      <trkpt lat="42.4169880" lon="-8.6335450">
        <ele>32.6</ele>
        <time>2022-06-18T13:37:42Z</time>
      </trkpt>
      <trkpt lat="42.4170310" lon="-8.6335450">
        <ele>32.6</ele>
        <time>2022-06-18T13:37:43Z</time>
      </trkpt>
      <trkpt lat="42.4170760" lon="-8.6335430">
        <ele>32.6</ele>
        <time>2022-06-18T13:37:44Z</time>
      </trkpt>
      <trkpt lat="42.4171180" lon="-8.6335410">
        <ele>32.6</ele>
        <time>2022-06-18T13:37:45Z</time>
      </trkpt>
      <trkpt lat="42.4171580" lon="-8.6335430">
        <ele>32.8</ele>
        <time>2022-06-18T13:37:46Z</time>
      </trkpt>
      <trkpt lat="42.4171980" lon="-8.6335450">
        <ele>32.8</ele>
        <time>2022-06-18T13:37:47Z</time>
      </trkpt>
      <trkpt lat="42.4172380" lon="-8.6335480">
        <ele>32.8</ele>
        <time>2022-06-18T13:37:48Z</time>
      </trkpt>
      <trkpt lat="42.4172780" lon="-8.6335460">
        <ele>33.2</ele>
        <time>2022-06-18T13:37:49Z</time>
      </trkpt>
      <trkpt lat="42.4173180" lon="-8.6335480">
        <ele>33.2</ele>
        <time>2022-06-18T13:37:50Z</time>
      </trkpt>
      <trkpt lat="42.4173560" lon="-8.6335480">
        <ele>33.2</ele>
        <time>2022-06-18T13:37:51Z</time>
      </trkpt>
      <trkpt lat="42.4173930" lon="-8.6335500">
        <ele>33.2</ele>
        <time>2022-06-18T13:37:52Z</time>
      </trkpt>
      <trkpt lat="42.4174300" lon="-8.6335510">
        <ele>33.2</ele>
        <time>2022-06-18T13:37:53Z</time>
      </trkpt>
      <trkpt lat="42.4174650" lon="-8.6335550">
        <ele>33.2</ele>
        <time>2022-06-18T13:37:54Z</time>
      </trkpt>
      <trkpt lat="42.4175000" lon="-8.6335580">
        <ele>33.2</ele>
        <time>2022-06-18T13:37:55Z</time>
      </trkpt>
      <trkpt lat="42.4175330" lon="-8.6335600">
        <ele>33.2</ele>
        <time>2022-06-18T13:37:56Z</time>
      </trkpt>
      <trkpt lat="42.4175650" lon="-8.6335630">
        <ele>33.2</ele>
        <time>2022-06-18T13:37:57Z</time>
      </trkpt>
      <trkpt lat="42.4175950" lon="-8.6335680">
        <ele>32.6</ele>
        <time>2022-06-18T13:37:58Z</time>
      </trkpt>
      <trkpt lat="42.4176260" lon="-8.6335750">
        <ele>32.6</ele>
        <time>2022-06-18T13:37:59Z</time>
      </trkpt>
      <trkpt lat="42.4176630" lon="-8.6335780">
        <ele>32.6</ele>
        <time>2022-06-18T13:38:00Z</time>
      </trkpt>
      <trkpt lat="42.4177010" lon="-8.6335810">
        <ele>32.6</ele>
        <time>2022-06-18T13:38:01Z</time>
      </trkpt>
      <trkpt lat="42.4177410" lon="-8.6335860">
        <ele>33.2</ele>
        <time>2022-06-18T13:38:02Z</time>
      </trkpt>
      <trkpt lat="42.4177800" lon="-8.6336000">
        <ele>33.2</ele>
        <time>2022-06-18T13:38:03Z</time>
      </trkpt>
      <trkpt lat="42.4178150" lon="-8.6336200">
        <ele>33.2</ele>
        <time>2022-06-18T13:38:04Z</time>
      </trkpt>
      <trkpt lat="42.4178500" lon="-8.6336380">
        <ele>32.2</ele>
        <time>2022-06-18T13:38:05Z</time>
      </trkpt>
      <trkpt lat="42.4178860" lon="-8.6336580">
        <ele>33.0</ele>
        <time>2022-06-18T13:38:06Z</time>
      </trkpt>
      <trkpt lat="42.4179230" lon="-8.6336800">
        <ele>33.0</ele>
        <time>2022-06-18T13:38:07Z</time>
      </trkpt>
      <trkpt lat="42.4179580" lon="-8.6336980">
        <ele>33.0</ele>
        <time>2022-06-18T13:38:08Z</time>
      </trkpt>
      <trkpt lat="42.4179900" lon="-8.6337200">
        <ele>33.0</ele>
        <time>2022-06-18T13:38:09Z</time>
      </trkpt>
      <trkpt lat="42.4180180" lon="-8.6337500">
        <ele>32.8</ele>
        <time>2022-06-18T13:38:10Z</time>
      </trkpt>
      <trkpt lat="42.4180410" lon="-8.6337880">
        <ele>32.8</ele>
        <time>2022-06-18T13:38:11Z</time>
      </trkpt>
      <trkpt lat="42.4180610" lon="-8.6338280">
        <ele>32.8</ele>
        <time>2022-06-18T13:38:12Z</time>
      </trkpt>
      <trkpt lat="42.4180810" lon="-8.6338700">
        <ele>32.8</ele>
        <time>2022-06-18T13:38:13Z</time>
      </trkpt>
      <trkpt lat="42.4181030" lon="-8.6339110">
        <ele>32.4</ele>
        <time>2022-06-18T13:38:14Z</time>
      </trkpt>
      <trkpt lat="42.4181210" lon="-8.6339560">
        <ele>32.4</ele>
        <time>2022-06-18T13:38:15Z</time>
      </trkpt>
      <trkpt lat="42.4181410" lon="-8.6340010">
        <ele>32.4</ele>
        <time>2022-06-18T13:38:16Z</time>
      </trkpt>
      <trkpt lat="42.4181630" lon="-8.6340450">
        <ele>32.4</ele>
        <time>2022-06-18T13:38:17Z</time>
      </trkpt>
      <trkpt lat="42.4181850" lon="-8.6340880">
        <ele>31.8</ele>
        <time>2022-06-18T13:38:18Z</time>
      </trkpt>
      <trkpt lat="42.4182060" lon="-8.6341310">
        <ele>31.8</ele>
        <time>2022-06-18T13:38:19Z</time>
      </trkpt>
      <trkpt lat="42.4182260" lon="-8.6341710">
        <ele>31.8</ele>
        <time>2022-06-18T13:38:20Z</time>
      </trkpt>
      <trkpt lat="42.4182450" lon="-8.6342130">
        <ele>31.8</ele>
        <time>2022-06-18T13:38:21Z</time>
      </trkpt>
      <trkpt lat="42.4182630" lon="-8.6342550">
        <ele>31.0</ele>
        <time>2022-06-18T13:38:22Z</time>
      </trkpt>
      <trkpt lat="42.4182800" lon="-8.6342930">
        <ele>31.0</ele>
        <time>2022-06-18T13:38:23Z</time>
      </trkpt>
      <trkpt lat="42.4182950" lon="-8.6343330">
        <ele>31.0</ele>
        <time>2022-06-18T13:38:24Z</time>
      </trkpt>
      <trkpt lat="42.4183060" lon="-8.6343730">
        <ele>32.0</ele>
        <time>2022-06-18T13:38:25Z</time>
      </trkpt>
      <trkpt lat="42.4183150" lon="-8.6344150">
        <ele>34.2</ele>
        <time>2022-06-18T13:38:26Z</time>
      </trkpt>
      <trkpt lat="42.4183230" lon="-8.6344600">
        <ele>34.2</ele>
        <time>2022-06-18T13:38:27Z</time>
      </trkpt>
      <trkpt lat="42.4183330" lon="-8.6345060">
        <ele>34.2</ele>
        <time>2022-06-18T13:38:28Z</time>
      </trkpt>
      <trkpt lat="42.4183430" lon="-8.6345560">
        <ele>33.4</ele>
        <time>2022-06-18T13:38:29Z</time>
      </trkpt>
      <trkpt lat="42.4183510" lon="-8.6346080">
        <ele>33.0</ele>
        <time>2022-06-18T13:38:30Z</time>
      </trkpt>
      <trkpt lat="42.4183580" lon="-8.6346610">
        <ele>33.0</ele>
        <time>2022-06-18T13:38:31Z</time>
      </trkpt>
      <trkpt lat="42.4183700" lon="-8.6347150">
        <ele>33.0</ele>
        <time>2022-06-18T13:38:32Z</time>
      </trkpt>
      <trkpt lat="42.4183800" lon="-8.6347680">
        <ele>33.0</ele>
        <time>2022-06-18T13:38:33Z</time>
      </trkpt>
      <trkpt lat="42.4183880" lon="-8.6348250">
        <ele>31.6</ele>
        <time>2022-06-18T13:38:34Z</time>
      </trkpt>
      <trkpt lat="42.4183960" lon="-8.6348810">
        <ele>31.6</ele>
        <time>2022-06-18T13:38:35Z</time>
      </trkpt>
      <trkpt lat="42.4184010" lon="-8.6349410">
        <ele>31.6</ele>
        <time>2022-06-18T13:38:36Z</time>
      </trkpt>
      <trkpt lat="42.4184110" lon="-8.6350000">
        <ele>30.6</ele>
        <time>2022-06-18T13:38:37Z</time>
      </trkpt>
      <trkpt lat="42.4184250" lon="-8.6350560">
        <ele>30.4</ele>
        <time>2022-06-18T13:38:38Z</time>
      </trkpt>
      <trkpt lat="42.4184400" lon="-8.6351130">
        <ele>30.4</ele>
        <time>2022-06-18T13:38:39Z</time>
      </trkpt>
      <trkpt lat="42.4184550" lon="-8.6351700">
        <ele>30.4</ele>
        <time>2022-06-18T13:38:40Z</time>
      </trkpt>
      <trkpt lat="42.4184710" lon="-8.6352230">
        <ele>31.4</ele>
        <time>2022-06-18T13:38:41Z</time>
      </trkpt>
      <trkpt lat="42.4184900" lon="-8.6352750">
        <ele>31.0</ele>
        <time>2022-06-18T13:38:42Z</time>
      </trkpt>
      <trkpt lat="42.4185080" lon="-8.6353250">
        <ele>31.0</ele>
        <time>2022-06-18T13:38:43Z</time>
      </trkpt>
      <trkpt lat="42.4185260" lon="-8.6353760">
        <ele>31.0</ele>
        <time>2022-06-18T13:38:44Z</time>
      </trkpt>
      <trkpt lat="42.4185450" lon="-8.6354300">
        <ele>32.0</ele>
        <time>2022-06-18T13:38:45Z</time>
      </trkpt>
      <trkpt lat="42.4185630" lon="-8.6354860">
        <ele>32.2</ele>
        <time>2022-06-18T13:38:46Z</time>
      </trkpt>
      <trkpt lat="42.4185810" lon="-8.6355410">
        <ele>32.2</ele>
        <time>2022-06-18T13:38:47Z</time>
      </trkpt>
      <trkpt lat="42.4185980" lon="-8.6355960">
        <ele>32.2</ele>
        <time>2022-06-18T13:38:48Z</time>
      </trkpt>
      <trkpt lat="42.4186110" lon="-8.6356510">
        <ele>31.2</ele>
        <time>2022-06-18T13:38:49Z</time>
      </trkpt>
      <trkpt lat="42.4186260" lon="-8.6357080">
        <ele>31.0</ele>
        <time>2022-06-18T13:38:50Z</time>
      </trkpt>
      <trkpt lat="42.4186450" lon="-8.6357660">
        <ele>31.0</ele>
        <time>2022-06-18T13:38:51Z</time>
      </trkpt>
      <trkpt lat="42.4186600" lon="-8.6358210">
        <ele>31.0</ele>
        <time>2022-06-18T13:38:52Z</time>
      </trkpt>
      <trkpt lat="42.4186730" lon="-8.6358780">
        <ele>30.4</ele>
        <time>2022-06-18T13:38:53Z</time>
      </trkpt>
      <trkpt lat="42.4186880" lon="-8.6359330">
        <ele>30.8</ele>
        <time>2022-06-18T13:38:54Z</time>
      </trkpt>
      <trkpt lat="42.4187030" lon="-8.6359860">
        <ele>30.8</ele>
        <time>2022-06-18T13:38:55Z</time>
      </trkpt>
      <trkpt lat="42.4187210" lon="-8.6360330">
        <ele>30.8</ele>
        <time>2022-06-18T13:38:56Z</time>
      </trkpt>
      <trkpt lat="42.4187400" lon="-8.6360750">
        <ele>30.8</ele>
        <time>2022-06-18T13:38:57Z</time>
      </trkpt>
      <trkpt lat="42.4187650" lon="-8.6361100">
        <ele>31.4</ele>
        <time>2022-06-18T13:38:58Z</time>
      </trkpt>
      <trkpt lat="42.4187980" lon="-8.6361350">
        <ele>31.4</ele>
        <time>2022-06-18T13:38:59Z</time>
      </trkpt>
      <trkpt lat="42.4188360" lon="-8.6361500">
        <ele>31.4</ele>
        <time>2022-06-18T13:39:00Z</time>
      </trkpt>
      <trkpt lat="42.4188750" lon="-8.6361580">
        <ele>31.4</ele>
        <time>2022-06-18T13:39:01Z</time>
      </trkpt>
      <trkpt lat="42.4189180" lon="-8.6361650">
        <ele>32.0</ele>
        <time>2022-06-18T13:39:02Z</time>
      </trkpt>
      <trkpt lat="42.4189530" lon="-8.6361780">
        <ele>32.0</ele>
        <time>2022-06-18T13:39:03Z</time>
      </trkpt>
      <trkpt lat="42.4189930" lon="-8.6361850">
        <ele>32.0</ele>
        <time>2022-06-18T13:39:04Z</time>
      </trkpt>
      <trkpt lat="42.4190350" lon="-8.6361930">
        <ele>32.0</ele>
        <time>2022-06-18T13:39:05Z</time>
      </trkpt>
      <trkpt lat="42.4190710" lon="-8.6362000">
        <ele>32.4</ele>
        <time>2022-06-18T13:39:06Z</time>
      </trkpt>
      <trkpt lat="42.4191100" lon="-8.6362100">
        <ele>32.4</ele>
        <time>2022-06-18T13:39:07Z</time>
      </trkpt>
      <trkpt lat="42.4191450" lon="-8.6362250">
        <ele>32.4</ele>
        <time>2022-06-18T13:39:08Z</time>
      </trkpt>
      <trkpt lat="42.4191830" lon="-8.6362410">
        <ele>32.4</ele>
        <time>2022-06-18T13:39:09Z</time>
      </trkpt>
      <trkpt lat="42.4192250" lon="-8.6362630">
        <ele>32.4</ele>
        <time>2022-06-18T13:39:10Z</time>
      </trkpt>
      <trkpt lat="42.4192660" lon="-8.6362880">
        <ele>32.4</ele>
        <time>2022-06-18T13:39:11Z</time>
      </trkpt>
      <trkpt lat="42.4193100" lon="-8.6363130">
        <ele>32.4</ele>
        <time>2022-06-18T13:39:12Z</time>
      </trkpt>
      <trkpt lat="42.4193510" lon="-8.6363350">
        <ele>32.4</ele>
        <time>2022-06-18T13:39:13Z</time>
      </trkpt>
      <trkpt lat="42.4193950" lon="-8.6363510">
        <ele>32.2</ele>
        <time>2022-06-18T13:39:14Z</time>
      </trkpt>
      <trkpt lat="42.4194350" lon="-8.6363650">
        <ele>32.2</ele>
        <time>2022-06-18T13:39:15Z</time>
      </trkpt>
      <trkpt lat="42.4194750" lon="-8.6363780">
        <ele>32.2</ele>
        <time>2022-06-18T13:39:16Z</time>
      </trkpt>
      <trkpt lat="42.4195130" lon="-8.6363930">
        <ele>32.2</ele>
        <time>2022-06-18T13:39:17Z</time>
      </trkpt>
      <trkpt lat="42.4195500" lon="-8.6364060">
        <ele>32.8</ele>
        <time>2022-06-18T13:39:18Z</time>
      </trkpt>
      <trkpt lat="42.4195810" lon="-8.6364180">
        <ele>32.8</ele>
        <time>2022-06-18T13:39:19Z</time>
      </trkpt>
      <trkpt lat="42.4196130" lon="-8.6364280">
        <ele>32.8</ele>
        <time>2022-06-18T13:39:20Z</time>
      </trkpt>
      <trkpt lat="42.4196430" lon="-8.6364380">
        <ele>33.8</ele>
        <time>2022-06-18T13:39:21Z</time>
      </trkpt>
      <trkpt lat="42.4196750" lon="-8.6364480">
        <ele>34.0</ele>
        <time>2022-06-18T13:39:22Z</time>
      </trkpt>
      <trkpt lat="42.4197000" lon="-8.6364610">
        <ele>34.0</ele>
        <time>2022-06-18T13:39:23Z</time>
      </trkpt>
      <trkpt lat="42.4197230" lon="-8.6364750">
        <ele>34.0</ele>
        <time>2022-06-18T13:39:24Z</time>
      </trkpt>
      <trkpt lat="42.4197530" lon="-8.6364850">
        <ele>34.6</ele>
        <time>2022-06-18T13:39:25Z</time>
      </trkpt>
      <trkpt lat="42.4197830" lon="-8.6364910">
        <ele>35.0</ele>
        <time>2022-06-18T13:39:26Z</time>
      </trkpt>
      <trkpt lat="42.4198110" lon="-8.6364980">
        <ele>35.0</ele>
        <time>2022-06-18T13:39:27Z</time>
      </trkpt>
      <trkpt lat="42.4198400" lon="-8.6365030">
        <ele>35.0</ele>
        <time>2022-06-18T13:39:28Z</time>
      </trkpt>
      <trkpt lat="42.4198680" lon="-8.6365080">
        <ele>35.0</ele>
        <time>2022-06-18T13:39:29Z</time>
      </trkpt>
      <trkpt lat="42.4198980" lon="-8.6365150">
        <ele>35.2</ele>
        <time>2022-06-18T13:39:30Z</time>
      </trkpt>
      <trkpt lat="42.4199250" lon="-8.6365200">
        <ele>35.2</ele>
        <time>2022-06-18T13:39:31Z</time>
      </trkpt>
      <trkpt lat="42.4199510" lon="-8.6365210">
        <ele>35.2</ele>
        <time>2022-06-18T13:39:32Z</time>
      </trkpt>
      <trkpt lat="42.4199800" lon="-8.6365260">
        <ele>35.2</ele>
        <time>2022-06-18T13:39:33Z</time>
      </trkpt>
      <trkpt lat="42.4200080" lon="-8.6365280">
        <ele>35.4</ele>
        <time>2022-06-18T13:39:34Z</time>
      </trkpt>
      <trkpt lat="42.4200360" lon="-8.6365350">
        <ele>35.4</ele>
        <time>2022-06-18T13:39:35Z</time>
      </trkpt>
      <trkpt lat="42.4200650" lon="-8.6365360">
        <ele>35.4</ele>
        <time>2022-06-18T13:39:36Z</time>
      </trkpt>
      <trkpt lat="42.4200930" lon="-8.6365360">
        <ele>36.2</ele>
        <time>2022-06-18T13:39:37Z</time>
      </trkpt>
      <trkpt lat="42.4201200" lon="-8.6365380">
        <ele>36.2</ele>
        <time>2022-06-18T13:39:38Z</time>
      </trkpt>
      <trkpt lat="42.4201510" lon="-8.6365360">
        <ele>36.2</ele>
        <time>2022-06-18T13:39:39Z</time>
      </trkpt>
      <trkpt lat="42.4201830" lon="-8.6365300">
        <ele>36.2</ele>
        <time>2022-06-18T13:39:40Z</time>
      </trkpt>
      <trkpt lat="42.4202100" lon="-8.6365280">
        <ele>36.2</ele>
        <time>2022-06-18T13:39:41Z</time>
      </trkpt>
      <trkpt lat="42.4202310" lon="-8.6365260">
        <ele>35.8</ele>
        <time>2022-06-18T13:39:42Z</time>
      </trkpt>
      <trkpt lat="42.4202550" lon="-8.6365280">
        <ele>35.8</ele>
        <time>2022-06-18T13:39:43Z</time>
      </trkpt>
      <trkpt lat="42.4202830" lon="-8.6365300">
        <ele>35.8</ele>
        <time>2022-06-18T13:39:44Z</time>
      </trkpt>
      <trkpt lat="42.4203130" lon="-8.6365280">
        <ele>36.6</ele>
        <time>2022-06-18T13:39:45Z</time>
      </trkpt>
      <trkpt lat="42.4203380" lon="-8.6365300">
        <ele>37.0</ele>
        <time>2022-06-18T13:39:46Z</time>
      </trkpt>
      <trkpt lat="42.4203680" lon="-8.6365350">
        <ele>37.0</ele>
        <time>2022-06-18T13:39:47Z</time>
      </trkpt>
      <trkpt lat="42.4203980" lon="-8.6365380">
        <ele>37.0</ele>
        <time>2022-06-18T13:39:48Z</time>
      </trkpt>
      <trkpt lat="42.4204300" lon="-8.6365360">
        <ele>36.8</ele>
        <time>2022-06-18T13:39:49Z</time>
      </trkpt>
      <trkpt lat="42.4204600" lon="-8.6365350">
        <ele>37.2</ele>
        <time>2022-06-18T13:39:50Z</time>
      </trkpt>
      <trkpt lat="42.4204950" lon="-8.6365300">
        <ele>37.2</ele>
        <time>2022-06-18T13:39:51Z</time>
      </trkpt>
      <trkpt lat="42.4205250" lon="-8.6365260">
        <ele>37.2</ele>
        <time>2022-06-18T13:39:52Z</time>
      </trkpt>
      <trkpt lat="42.4205550" lon="-8.6365230">
        <ele>37.2</ele>
        <time>2022-06-18T13:39:53Z</time>
      </trkpt>
      <trkpt lat="42.4205830" lon="-8.6365180">
        <ele>37.6</ele>
        <time>2022-06-18T13:39:54Z</time>
      </trkpt>
      <trkpt lat="42.4206100" lon="-8.6365130">
        <ele>37.6</ele>
        <time>2022-06-18T13:39:55Z</time>
      </trkpt>
      <trkpt lat="42.4206380" lon="-8.6365080">
        <ele>37.6</ele>
        <time>2022-06-18T13:39:56Z</time>
      </trkpt>
      <trkpt lat="42.4206650" lon="-8.6365030">
        <ele>38.2</ele>
        <time>2022-06-18T13:39:57Z</time>
      </trkpt>
      <trkpt lat="42.4206910" lon="-8.6364980">
        <ele>38.2</ele>
        <time>2022-06-18T13:39:58Z</time>
      </trkpt>
      <trkpt lat="42.4207180" lon="-8.6364930">
        <ele>38.2</ele>
        <time>2022-06-18T13:39:59Z</time>
      </trkpt>
      <trkpt lat="42.4207450" lon="-8.6364880">
        <ele>38.2</ele>
        <time>2022-06-18T13:40:00Z</time>
      </trkpt>
      <trkpt lat="42.4207710" lon="-8.6364830">
        <ele>38.2</ele>
        <time>2022-06-18T13:40:01Z</time>
      </trkpt>
      <trkpt lat="42.4207980" lon="-8.6364810">
        <ele>38.2</ele>
        <time>2022-06-18T13:40:02Z</time>
      </trkpt>
      <trkpt lat="42.4208230" lon="-8.6364800">
        <ele>38.2</ele>
        <time>2022-06-18T13:40:03Z</time>
      </trkpt>
      <trkpt lat="42.4208500" lon="-8.6364780">
        <ele>38.2</ele>
        <time>2022-06-18T13:40:04Z</time>
      </trkpt>
      <trkpt lat="42.4208800" lon="-8.6364730">
        <ele>38.4</ele>
        <time>2022-06-18T13:40:05Z</time>
      </trkpt>
      <trkpt lat="42.4209080" lon="-8.6364700">
        <ele>39.0</ele>
        <time>2022-06-18T13:40:06Z</time>
      </trkpt>
      <trkpt lat="42.4209350" lon="-8.6364680">
        <ele>39.0</ele>
        <time>2022-06-18T13:40:07Z</time>
      </trkpt>
      <trkpt lat="42.4209630" lon="-8.6364650">
        <ele>39.0</ele>
        <time>2022-06-18T13:40:08Z</time>
      </trkpt>
      <trkpt lat="42.4209930" lon="-8.6364600">
        <ele>39.0</ele>
        <time>2022-06-18T13:40:09Z</time>
      </trkpt>
      <trkpt lat="42.4210250" lon="-8.6364580">
        <ele>39.0</ele>
        <time>2022-06-18T13:40:10Z</time>
      </trkpt>
      <trkpt lat="42.4210530" lon="-8.6364560">
        <ele>39.0</ele>
        <time>2022-06-18T13:40:11Z</time>
      </trkpt>
      <trkpt lat="42.4210880" lon="-8.6364550">
        <ele>39.0</ele>
        <time>2022-06-18T13:40:12Z</time>
      </trkpt>
      <trkpt lat="42.4211200" lon="-8.6364510">
        <ele>39.0</ele>
        <time>2022-06-18T13:40:13Z</time>
      </trkpt>
      <trkpt lat="42.4211460" lon="-8.6364510">
        <ele>39.4</ele>
        <time>2022-06-18T13:40:14Z</time>
      </trkpt>
      <trkpt lat="42.4211750" lon="-8.6364530">
        <ele>39.4</ele>
        <time>2022-06-18T13:40:15Z</time>
      </trkpt>
      <trkpt lat="42.4212010" lon="-8.6364530">
        <ele>39.4</ele>
        <time>2022-06-18T13:40:16Z</time>
      </trkpt>
      <trkpt lat="42.4212310" lon="-8.6364550">
        <ele>38.6</ele>
        <time>2022-06-18T13:40:17Z</time>
      </trkpt>
      <trkpt lat="42.4212650" lon="-8.6364550">
        <ele>38.8</ele>
        <time>2022-06-18T13:40:18Z</time>
      </trkpt>
      <trkpt lat="42.4212900" lon="-8.6364550">
        <ele>38.8</ele>
        <time>2022-06-18T13:40:19Z</time>
      </trkpt>
      <trkpt lat="42.4213130" lon="-8.6364550">
        <ele>38.8</ele>
        <time>2022-06-18T13:40:20Z</time>
      </trkpt>
      <trkpt lat="42.4213380" lon="-8.6364530">
        <ele>39.6</ele>
        <time>2022-06-18T13:40:21Z</time>
      </trkpt>
      <trkpt lat="42.4213650" lon="-8.6364500">
        <ele>39.4</ele>
        <time>2022-06-18T13:40:22Z</time>
      </trkpt>
      <trkpt lat="42.4213880" lon="-8.6364480">
        <ele>39.4</ele>
        <time>2022-06-18T13:40:23Z</time>
      </trkpt>
      <trkpt lat="42.4214200" lon="-8.6364430">
        <ele>39.4</ele>
        <time>2022-06-18T13:40:24Z</time>
      </trkpt>
      <trkpt lat="42.4214500" lon="-8.6364410">
        <ele>39.0</ele>
        <time>2022-06-18T13:40:25Z</time>
      </trkpt>
      <trkpt lat="42.4214830" lon="-8.6364400">
        <ele>38.6</ele>
        <time>2022-06-18T13:40:26Z</time>
      </trkpt>
      <trkpt lat="42.4215160" lon="-8.6364350">
        <ele>38.6</ele>
        <time>2022-06-18T13:40:27Z</time>
      </trkpt>
      <trkpt lat="42.4215500" lon="-8.6364310">
        <ele>38.6</ele>
        <time>2022-06-18T13:40:28Z</time>
      </trkpt>
      <trkpt lat="42.4215860" lon="-8.6364250">
        <ele>38.4</ele>
        <time>2022-06-18T13:40:29Z</time>
      </trkpt>
      <trkpt lat="42.4216230" lon="-8.6364110">
        <ele>38.6</ele>
        <time>2022-06-18T13:40:30Z</time>
      </trkpt>
      <trkpt lat="42.4216560" lon="-8.6364000">
        <ele>38.6</ele>
        <time>2022-06-18T13:40:31Z</time>
      </trkpt>
      <trkpt lat="42.4216880" lon="-8.6363930">
        <ele>38.6</ele>
        <time>2022-06-18T13:40:32Z</time>
      </trkpt>
      <trkpt lat="42.4217200" lon="-8.6363910">
        <ele>39.0</ele>
        <time>2022-06-18T13:40:33Z</time>
      </trkpt>
      <trkpt lat="42.4217480" lon="-8.6363950">
        <ele>38.4</ele>
        <time>2022-06-18T13:40:34Z</time>
      </trkpt>
      <trkpt lat="42.4217780" lon="-8.6364030">
        <ele>38.4</ele>
        <time>2022-06-18T13:40:35Z</time>
      </trkpt>
      <trkpt lat="42.4218080" lon="-8.6364150">
        <ele>38.4</ele>
        <time>2022-06-18T13:40:36Z</time>
      </trkpt>
      <trkpt lat="42.4218380" lon="-8.6364280">
        <ele>39.2</ele>
        <time>2022-06-18T13:40:37Z</time>
      </trkpt>
      <trkpt lat="42.4218700" lon="-8.6364350">
        <ele>39.0</ele>
        <time>2022-06-18T13:40:38Z</time>
      </trkpt>
      <trkpt lat="42.4219010" lon="-8.6364350">
        <ele>39.0</ele>
        <time>2022-06-18T13:40:39Z</time>
      </trkpt>
      <trkpt lat="42.4219350" lon="-8.6364310">
        <ele>39.0</ele>
        <time>2022-06-18T13:40:40Z</time>
      </trkpt>
      <trkpt lat="42.4219660" lon="-8.6364300">
        <ele>39.0</ele>
        <time>2022-06-18T13:40:41Z</time>
      </trkpt>
      <trkpt lat="42.4219960" lon="-8.6364310">
        <ele>39.2</ele>
        <time>2022-06-18T13:40:42Z</time>
      </trkpt>
      <trkpt lat="42.4220260" lon="-8.6364350">
        <ele>39.2</ele>
        <time>2022-06-18T13:40:43Z</time>
      </trkpt>
      <trkpt lat="42.4220560" lon="-8.6364360">
        <ele>39.2</ele>
        <time>2022-06-18T13:40:44Z</time>
      </trkpt>
      <trkpt lat="42.4220910" lon="-8.6364360">
        <ele>39.2</ele>
        <time>2022-06-18T13:40:45Z</time>
      </trkpt>
      <trkpt lat="42.4221280" lon="-8.6364410">
        <ele>39.4</ele>
        <time>2022-06-18T13:40:46Z</time>
      </trkpt>
      <trkpt lat="42.4221650" lon="-8.6364480">
        <ele>39.4</ele>
        <time>2022-06-18T13:40:47Z</time>
      </trkpt>
      <trkpt lat="42.4222030" lon="-8.6364550">
        <ele>39.4</ele>
        <time>2022-06-18T13:40:48Z</time>
      </trkpt>
      <trkpt lat="42.4222380" lon="-8.6364630">
        <ele>39.4</ele>
        <time>2022-06-18T13:40:49Z</time>
      </trkpt>
      <trkpt lat="42.4222730" lon="-8.6364660">
        <ele>39.6</ele>
        <time>2022-06-18T13:40:50Z</time>
      </trkpt>
      <trkpt lat="42.4223060" lon="-8.6364680">
        <ele>39.6</ele>
        <time>2022-06-18T13:40:51Z</time>
      </trkpt>
      <trkpt lat="42.4223380" lon="-8.6364710">
        <ele>39.6</ele>
        <time>2022-06-18T13:40:52Z</time>
      </trkpt>
      <trkpt lat="42.4223710" lon="-8.6364730">
        <ele>39.6</ele>
        <time>2022-06-18T13:40:53Z</time>
      </trkpt>
      <trkpt lat="42.4224030" lon="-8.6364710">
        <ele>39.6</ele>
        <time>2022-06-18T13:40:54Z</time>
      </trkpt>
      <trkpt lat="42.4224360" lon="-8.6364700">
        <ele>39.6</ele>
        <time>2022-06-18T13:40:55Z</time>
      </trkpt>
      <trkpt lat="42.4224680" lon="-8.6364700">
        <ele>39.6</ele>
        <time>2022-06-18T13:40:56Z</time>
      </trkpt>
      <trkpt lat="42.4225010" lon="-8.6364680">
        <ele>39.6</ele>
        <time>2022-06-18T13:40:57Z</time>
      </trkpt>
      <trkpt lat="42.4225310" lon="-8.6364660">
        <ele>40.0</ele>
        <time>2022-06-18T13:40:58Z</time>
      </trkpt>
      <trkpt lat="42.4225610" lon="-8.6364680">
        <ele>40.0</ele>
        <time>2022-06-18T13:40:59Z</time>
      </trkpt>
      <trkpt lat="42.4225880" lon="-8.6364730">
        <ele>40.0</ele>
        <time>2022-06-18T13:41:00Z</time>
      </trkpt>
      <trkpt lat="42.4226150" lon="-8.6364730">
        <ele>40.0</ele>
        <time>2022-06-18T13:41:01Z</time>
      </trkpt>
      <trkpt lat="42.4226350" lon="-8.6364780">
        <ele>39.8</ele>
        <time>2022-06-18T13:41:02Z</time>
      </trkpt>
      <trkpt lat="42.4226650" lon="-8.6364810">
        <ele>39.8</ele>
        <time>2022-06-18T13:41:03Z</time>
      </trkpt>
      <trkpt lat="42.4226910" lon="-8.6364830">
        <ele>39.8</ele>
        <time>2022-06-18T13:41:04Z</time>
      </trkpt>
      <trkpt lat="42.4227160" lon="-8.6364830">
        <ele>40.8</ele>
        <time>2022-06-18T13:41:05Z</time>
      </trkpt>
      <trkpt lat="42.4227450" lon="-8.6364830">
        <ele>41.0</ele>
        <time>2022-06-18T13:41:06Z</time>
      </trkpt>
      <trkpt lat="42.4227780" lon="-8.6364830">
        <ele>41.0</ele>
        <time>2022-06-18T13:41:07Z</time>
      </trkpt>
      <trkpt lat="42.4228100" lon="-8.6364800">
        <ele>41.0</ele>
        <time>2022-06-18T13:41:08Z</time>
      </trkpt>
      <trkpt lat="42.4228430" lon="-8.6364760">
        <ele>40.2</ele>
        <time>2022-06-18T13:41:09Z</time>
      </trkpt>
      <trkpt lat="42.4228780" lon="-8.6364750">
        <ele>40.0</ele>
        <time>2022-06-18T13:41:10Z</time>
      </trkpt>
      <trkpt lat="42.4229080" lon="-8.6364800">
        <ele>40.0</ele>
        <time>2022-06-18T13:41:11Z</time>
      </trkpt>
      <trkpt lat="42.4229380" lon="-8.6364800">
        <ele>40.0</ele>
        <time>2022-06-18T13:41:12Z</time>
      </trkpt>
      <trkpt lat="42.4229710" lon="-8.6364800">
        <ele>40.0</ele>
        <time>2022-06-18T13:41:13Z</time>
      </trkpt>
      <trkpt lat="42.4230010" lon="-8.6364830">
        <ele>40.0</ele>
        <time>2022-06-18T13:41:14Z</time>
      </trkpt>
      <trkpt lat="42.4230260" lon="-8.6364860">
        <ele>40.0</ele>
        <time>2022-06-18T13:41:15Z</time>
      </trkpt>
      <trkpt lat="42.4230580" lon="-8.6364850">
        <ele>40.0</ele>
        <time>2022-06-18T13:41:16Z</time>
      </trkpt>
      <trkpt lat="42.4230860" lon="-8.6364860">
        <ele>40.4</ele>
        <time>2022-06-18T13:41:17Z</time>
      </trkpt>
      <trkpt lat="42.4231180" lon="-8.6364930">
        <ele>40.4</ele>
        <time>2022-06-18T13:41:18Z</time>
      </trkpt>
      <trkpt lat="42.4231500" lon="-8.6364960">
        <ele>40.4</ele>
        <time>2022-06-18T13:41:19Z</time>
      </trkpt>
      <trkpt lat="42.4231850" lon="-8.6365010">
        <ele>40.4</ele>
        <time>2022-06-18T13:41:20Z</time>
      </trkpt>
      <trkpt lat="42.4232180" lon="-8.6365030">
        <ele>40.4</ele>
        <time>2022-06-18T13:41:21Z</time>
      </trkpt>
      <trkpt lat="42.4232530" lon="-8.6365010">
        <ele>40.4</ele>
        <time>2022-06-18T13:41:22Z</time>
      </trkpt>
      <trkpt lat="42.4232900" lon="-8.6364980">
        <ele>40.4</ele>
        <time>2022-06-18T13:41:23Z</time>
      </trkpt>
      <trkpt lat="42.4233300" lon="-8.6364960">
        <ele>40.4</ele>
        <time>2022-06-18T13:41:24Z</time>
      </trkpt>
      <trkpt lat="42.4233630" lon="-8.6364950">
        <ele>40.2</ele>
        <time>2022-06-18T13:41:25Z</time>
      </trkpt>
      <trkpt lat="42.4233960" lon="-8.6364930">
        <ele>40.2</ele>
        <time>2022-06-18T13:41:26Z</time>
      </trkpt>
      <trkpt lat="42.4234300" lon="-8.6364950">
        <ele>40.2</ele>
        <time>2022-06-18T13:41:27Z</time>
      </trkpt>
      <trkpt lat="42.4234650" lon="-8.6364910">
        <ele>40.2</ele>
        <time>2022-06-18T13:41:28Z</time>
      </trkpt>
      <trkpt lat="42.4234980" lon="-8.6364880">
        <ele>40.2</ele>
        <time>2022-06-18T13:41:29Z</time>
      </trkpt>
      <trkpt lat="42.4235300" lon="-8.6364930">
        <ele>40.4</ele>
        <time>2022-06-18T13:41:30Z</time>
      </trkpt>
      <trkpt lat="42.4235680" lon="-8.6364930">
        <ele>40.4</ele>
        <time>2022-06-18T13:41:31Z</time>
      </trkpt>
      <trkpt lat="42.4236010" lon="-8.6364930">
        <ele>40.4</ele>
        <time>2022-06-18T13:41:32Z</time>
      </trkpt>
      <trkpt lat="42.4236360" lon="-8.6364900">
        <ele>40.4</ele>
        <time>2022-06-18T13:41:33Z</time>
      </trkpt>
      <trkpt lat="42.4236760" lon="-8.6364910">
        <ele>39.6</ele>
        <time>2022-06-18T13:41:34Z</time>
      </trkpt>
      <trkpt lat="42.4237150" lon="-8.6364910">
        <ele>39.6</ele>
        <time>2022-06-18T13:41:35Z</time>
      </trkpt>
      <trkpt lat="42.4237560" lon="-8.6364880">
        <ele>39.6</ele>
        <time>2022-06-18T13:41:36Z</time>
      </trkpt>
      <trkpt lat="42.4237960" lon="-8.6364900">
        <ele>40.2</ele>
        <time>2022-06-18T13:41:37Z</time>
      </trkpt>
      <trkpt lat="42.4238330" lon="-8.6364900">
        <ele>39.8</ele>
        <time>2022-06-18T13:41:38Z</time>
      </trkpt>
      <trkpt lat="42.4238730" lon="-8.6364860">
        <ele>39.8</ele>
        <time>2022-06-18T13:41:39Z</time>
      </trkpt>
      <trkpt lat="42.4239060" lon="-8.6364880">
        <ele>39.8</ele>
        <time>2022-06-18T13:41:40Z</time>
      </trkpt>
      <trkpt lat="42.4239530" lon="-8.6364860">
        <ele>39.2</ele>
        <time>2022-06-18T13:41:41Z</time>
      </trkpt>
      <trkpt lat="42.4239980" lon="-8.6364810">
        <ele>39.6</ele>
        <time>2022-06-18T13:41:42Z</time>
      </trkpt>
      <trkpt lat="42.4240480" lon="-8.6364750">
        <ele>39.6</ele>
        <time>2022-06-18T13:41:43Z</time>
      </trkpt>
      <trkpt lat="42.4240960" lon="-8.6364700">
        <ele>39.6</ele>
        <time>2022-06-18T13:41:44Z</time>
      </trkpt>
      <trkpt lat="42.4241400" lon="-8.6364680">
        <ele>39.6</ele>
        <time>2022-06-18T13:41:45Z</time>
      </trkpt>
      <trkpt lat="42.4241800" lon="-8.6364680">
        <ele>39.2</ele>
        <time>2022-06-18T13:41:46Z</time>
      </trkpt>
      <trkpt lat="42.4242250" lon="-8.6364650">
        <ele>39.2</ele>
        <time>2022-06-18T13:41:47Z</time>
      </trkpt>
      <trkpt lat="42.4242750" lon="-8.6364610">
        <ele>39.2</ele>
        <time>2022-06-18T13:41:48Z</time>
      </trkpt>
      <trkpt lat="42.4243160" lon="-8.6364550">
        <ele>38.8</ele>
        <time>2022-06-18T13:41:49Z</time>
      </trkpt>
      <trkpt lat="42.4243550" lon="-8.6364500">
        <ele>39.2</ele>
        <time>2022-06-18T13:41:50Z</time>
      </trkpt>
      <trkpt lat="42.4243950" lon="-8.6364400">
        <ele>39.2</ele>
        <time>2022-06-18T13:41:51Z</time>
      </trkpt>
      <trkpt lat="42.4244400" lon="-8.6364360">
        <ele>39.2</ele>
        <time>2022-06-18T13:41:52Z</time>
      </trkpt>
      <trkpt lat="42.4244880" lon="-8.6364380">
        <ele>39.2</ele>
        <time>2022-06-18T13:41:53Z</time>
      </trkpt>
      <trkpt lat="42.4245310" lon="-8.6364510">
        <ele>38.6</ele>
        <time>2022-06-18T13:41:54Z</time>
      </trkpt>
      <trkpt lat="42.4245710" lon="-8.6364810">
        <ele>38.6</ele>
        <time>2022-06-18T13:41:55Z</time>
      </trkpt>
      <trkpt lat="42.4246100" lon="-8.6365110">
        <ele>38.6</ele>
        <time>2022-06-18T13:41:56Z</time>
      </trkpt>
      <trkpt lat="42.4246500" lon="-8.6365400">
        <ele>38.6</ele>
        <time>2022-06-18T13:41:57Z</time>
      </trkpt>
      <trkpt lat="42.4246880" lon="-8.6365700">
        <ele>37.2</ele>
        <time>2022-06-18T13:41:58Z</time>
      </trkpt>
      <trkpt lat="42.4247230" lon="-8.6365910">
        <ele>37.2</ele>
        <time>2022-06-18T13:41:59Z</time>
      </trkpt>
      <trkpt lat="42.4247510" lon="-8.6366100">
        <ele>37.2</ele>
        <time>2022-06-18T13:42:00Z</time>
      </trkpt>
      <trkpt lat="42.4247830" lon="-8.6366210">
        <ele>36.6</ele>
        <time>2022-06-18T13:42:01Z</time>
      </trkpt>
      <trkpt lat="42.4248100" lon="-8.6366430">
        <ele>36.6</ele>
        <time>2022-06-18T13:42:02Z</time>
      </trkpt>
      <trkpt lat="42.4248380" lon="-8.6366550">
        <ele>36.6</ele>
        <time>2022-06-18T13:42:03Z</time>
      </trkpt>
      <trkpt lat="42.4248560" lon="-8.6366560">
        <ele>36.6</ele>
        <time>2022-06-18T13:42:04Z</time>
      </trkpt>
      <trkpt lat="42.4248710" lon="-8.6366450">
        <ele>37.6</ele>
        <time>2022-06-18T13:42:05Z</time>
      </trkpt>
      <trkpt lat="42.4248750" lon="-8.6366260">
        <ele>38.4</ele>
        <time>2022-06-18T13:42:06Z</time>
      </trkpt>
      <trkpt lat="42.4248630" lon="-8.6366110">
        <ele>38.4</ele>
        <time>2022-06-18T13:42:07Z</time>
      </trkpt>
      <trkpt lat="42.4248510" lon="-8.6366010">
        <ele>38.4</ele>
        <time>2022-06-18T13:42:08Z</time>
      </trkpt>
      <trkpt lat="42.4248410" lon="-8.6365910">
        <ele>38.6</ele>
        <time>2022-06-18T13:42:09Z</time>
      </trkpt>
      <trkpt lat="42.4248330" lon="-8.6365750">
        <ele>39.2</ele>
        <time>2022-06-18T13:42:10Z</time>
      </trkpt>
      <trkpt lat="42.4248250" lon="-8.6365550">
        <ele>39.2</ele>
        <time>2022-06-18T13:42:11Z</time>
      </trkpt>
      <trkpt lat="42.4248180" lon="-8.6365260">
        <ele>39.2</ele>
        <time>2022-06-18T13:42:12Z</time>
      </trkpt>
      <trkpt lat="42.4248150" lon="-8.6365000">
        <ele>39.0</ele>
        <time>2022-06-18T13:42:13Z</time>
      </trkpt>
      <trkpt lat="42.4248060" lon="-8.6364830">
        <ele>39.6</ele>
        <time>2022-06-18T13:42:14Z</time>
      </trkpt>
      <trkpt lat="42.4248080" lon="-8.6364630">
        <ele>39.6</ele>
        <time>2022-06-18T13:42:15Z</time>
      </trkpt>
      <trkpt lat="42.4248080" lon="-8.6364450">
        <ele>39.6</ele>
        <time>2022-06-18T13:42:16Z</time>
      </trkpt>
      <trkpt lat="42.4248050" lon="-8.6364260">
        <ele>39.4</ele>
        <time>2022-06-18T13:42:17Z</time>
      </trkpt>
      <trkpt lat="42.4248060" lon="-8.6364150">
        <ele>39.4</ele>
        <time>2022-06-18T13:42:18Z</time>
      </trkpt>
      <trkpt lat="42.4248080" lon="-8.6364060">
        <ele>39.4</ele>
        <time>2022-06-18T13:42:19Z</time>
      </trkpt>
      <trkpt lat="42.4248110" lon="-8.6364010">
        <ele>39.4</ele>
        <time>2022-06-18T13:42:20Z</time>
      </trkpt>
      <trkpt lat="42.4248180" lon="-8.6364060">
        <ele>39.4</ele>
        <time>2022-06-18T13:42:21Z</time>
      </trkpt>
      <trkpt lat="42.4248180" lon="-8.6364200">
        <ele>39.2</ele>
        <time>2022-06-18T13:42:22Z</time>
      </trkpt>
      <trkpt lat="42.4248160" lon="-8.6364410">
        <ele>39.2</ele>
        <time>2022-06-18T13:42:23Z</time>
      </trkpt>
      <trkpt lat="42.4248210" lon="-8.6364700">
        <ele>39.2</ele>
        <time>2022-06-18T13:42:24Z</time>
      </trkpt>
      <trkpt lat="42.4248310" lon="-8.6365010">
        <ele>38.2</ele>
        <time>2022-06-18T13:42:25Z</time>
      </trkpt>
      <trkpt lat="42.4248460" lon="-8.6365330">
        <ele>38.4</ele>
        <time>2022-06-18T13:42:26Z</time>
      </trkpt>
      <trkpt lat="42.4248680" lon="-8.6365680">
        <ele>38.4</ele>
        <time>2022-06-18T13:42:27Z</time>
      </trkpt>
      <trkpt lat="42.4248960" lon="-8.6365900">
        <ele>38.4</ele>
        <time>2022-06-18T13:42:28Z</time>
      </trkpt>
      <trkpt lat="42.4249260" lon="-8.6366080">
        <ele>37.4</ele>
        <time>2022-06-18T13:42:29Z</time>
      </trkpt>
      <trkpt lat="42.4249500" lon="-8.6366260">
        <ele>36.8</ele>
        <time>2022-06-18T13:42:30Z</time>
      </trkpt>
      <trkpt lat="42.4249830" lon="-8.6366400">
        <ele>36.8</ele>
        <time>2022-06-18T13:42:31Z</time>
      </trkpt>
      <trkpt lat="42.4250100" lon="-8.6366550">
        <ele>36.8</ele>
        <time>2022-06-18T13:42:32Z</time>
      </trkpt>
      <trkpt lat="42.4250380" lon="-8.6366710">
        <ele>37.4</ele>
        <time>2022-06-18T13:42:33Z</time>
      </trkpt>
      <trkpt lat="42.4250550" lon="-8.6366960">
        <ele>37.4</ele>
        <time>2022-06-18T13:42:34Z</time>
      </trkpt>
      <trkpt lat="42.4250810" lon="-8.6367200">
        <ele>37.4</ele>
        <time>2022-06-18T13:42:35Z</time>
      </trkpt>
      <trkpt lat="42.4251060" lon="-8.6367460">
        <ele>37.4</ele>
        <time>2022-06-18T13:42:36Z</time>
      </trkpt>
      <trkpt lat="42.4251380" lon="-8.6367630">
        <ele>37.6</ele>
        <time>2022-06-18T13:42:37Z</time>
      </trkpt>
      <trkpt lat="42.4251580" lon="-8.6367780">
        <ele>38.0</ele>
        <time>2022-06-18T13:42:38Z</time>
      </trkpt>
      <trkpt lat="42.4251830" lon="-8.6367950">
        <ele>38.0</ele>
        <time>2022-06-18T13:42:39Z</time>
      </trkpt>
      <trkpt lat="42.4251980" lon="-8.6368050">
        <ele>38.0</ele>
        <time>2022-06-18T13:42:40Z</time>
      </trkpt>
      <trkpt lat="42.4252160" lon="-8.6368230">
        <ele>38.0</ele>
        <time>2022-06-18T13:42:41Z</time>
      </trkpt>
      <trkpt lat="42.4252400" lon="-8.6368360">
        <ele>38.4</ele>
        <time>2022-06-18T13:42:42Z</time>
      </trkpt>
      <trkpt lat="42.4252600" lon="-8.6368580">
        <ele>38.4</ele>
        <time>2022-06-18T13:42:43Z</time>
      </trkpt>
      <trkpt lat="42.4252860" lon="-8.6368760">
        <ele>38.4</ele>
        <time>2022-06-18T13:42:44Z</time>
      </trkpt>
      <trkpt lat="42.4253150" lon="-8.6368910">
        <ele>38.4</ele>
        <time>2022-06-18T13:42:45Z</time>
      </trkpt>
      <trkpt lat="42.4253400" lon="-8.6368960">
        <ele>38.2</ele>
        <time>2022-06-18T13:42:46Z</time>
      </trkpt>
      <trkpt lat="42.4253610" lon="-8.6368980">
        <ele>38.2</ele>
        <time>2022-06-18T13:42:47Z</time>
      </trkpt>
      <trkpt lat="42.4253850" lon="-8.6369100">
        <ele>38.2</ele>
        <time>2022-06-18T13:42:48Z</time>
      </trkpt>
      <trkpt lat="42.4254150" lon="-8.6369230">
        <ele>38.0</ele>
        <time>2022-06-18T13:42:49Z</time>
      </trkpt>
      <trkpt lat="42.4254460" lon="-8.6369360">
        <ele>38.2</ele>
        <time>2022-06-18T13:42:50Z</time>
      </trkpt>
      <trkpt lat="42.4254780" lon="-8.6369550">
        <ele>38.2</ele>
        <time>2022-06-18T13:42:51Z</time>
      </trkpt>
      <trkpt lat="42.4255110" lon="-8.6369730">
        <ele>38.2</ele>
        <time>2022-06-18T13:42:52Z</time>
      </trkpt>
      <trkpt lat="42.4255410" lon="-8.6369950">
        <ele>38.2</ele>
        <time>2022-06-18T13:42:53Z</time>
      </trkpt>
      <trkpt lat="42.4255680" lon="-8.6370180">
        <ele>38.6</ele>
        <time>2022-06-18T13:42:54Z</time>
      </trkpt>
      <trkpt lat="42.4255930" lon="-8.6370360">
        <ele>38.6</ele>
        <time>2022-06-18T13:42:55Z</time>
      </trkpt>
      <trkpt lat="42.4256210" lon="-8.6370550">
        <ele>38.6</ele>
        <time>2022-06-18T13:42:56Z</time>
      </trkpt>
      <trkpt lat="42.4256480" lon="-8.6370750">
        <ele>38.2</ele>
        <time>2022-06-18T13:42:57Z</time>
      </trkpt>
      <trkpt lat="42.4256660" lon="-8.6370930">
        <ele>38.6</ele>
        <time>2022-06-18T13:42:58Z</time>
      </trkpt>
      <trkpt lat="42.4256810" lon="-8.6371080">
        <ele>38.6</ele>
        <time>2022-06-18T13:42:59Z</time>
      </trkpt>
      <trkpt lat="42.4256960" lon="-8.6371210">
        <ele>38.6</ele>
        <time>2022-06-18T13:43:00Z</time>
      </trkpt>
      <trkpt lat="42.4257150" lon="-8.6371360">
        <ele>38.6</ele>
        <time>2022-06-18T13:43:01Z</time>
      </trkpt>
      <trkpt lat="42.4257360" lon="-8.6371530">
        <ele>38.2</ele>
        <time>2022-06-18T13:43:02Z</time>
      </trkpt>
      <trkpt lat="42.4257580" lon="-8.6371710">
        <ele>38.2</ele>
        <time>2022-06-18T13:43:03Z</time>
      </trkpt>
      <trkpt lat="42.4257710" lon="-8.6371880">
        <ele>38.2</ele>
        <time>2022-06-18T13:43:04Z</time>
      </trkpt>
      <trkpt lat="42.4257880" lon="-8.6372010">
        <ele>38.2</ele>
        <time>2022-06-18T13:43:05Z</time>
      </trkpt>
      <trkpt lat="42.4258080" lon="-8.6372160">
        <ele>37.8</ele>
        <time>2022-06-18T13:43:06Z</time>
      </trkpt>
      <trkpt lat="42.4258330" lon="-8.6372310">
        <ele>37.8</ele>
        <time>2022-06-18T13:43:07Z</time>
      </trkpt>
      <trkpt lat="42.4258630" lon="-8.6372500">
        <ele>37.8</ele>
        <time>2022-06-18T13:43:08Z</time>
      </trkpt>
      <trkpt lat="42.4258910" lon="-8.6372700">
        <ele>37.2</ele>
        <time>2022-06-18T13:43:09Z</time>
      </trkpt>
      <trkpt lat="42.4259200" lon="-8.6372950">
        <ele>37.0</ele>
        <time>2022-06-18T13:43:10Z</time>
      </trkpt>
      <trkpt lat="42.4259460" lon="-8.6373180">
        <ele>37.0</ele>
        <time>2022-06-18T13:43:11Z</time>
      </trkpt>
      <trkpt lat="42.4259700" lon="-8.6373400">
        <ele>37.0</ele>
        <time>2022-06-18T13:43:12Z</time>
      </trkpt>
      <trkpt lat="42.4259900" lon="-8.6373580">
        <ele>37.0</ele>
        <time>2022-06-18T13:43:13Z</time>
      </trkpt>
      <trkpt lat="42.4260050" lon="-8.6373810">
        <ele>38.4</ele>
        <time>2022-06-18T13:43:14Z</time>
      </trkpt>
      <trkpt lat="42.4260200" lon="-8.6374000">
        <ele>38.4</ele>
        <time>2022-06-18T13:43:15Z</time>
      </trkpt>
      <trkpt lat="42.4260330" lon="-8.6374150">
        <ele>38.4</ele>
        <time>2022-06-18T13:43:16Z</time>
      </trkpt>
      <trkpt lat="42.4260460" lon="-8.6374260">
        <ele>38.0</ele>
        <time>2022-06-18T13:43:17Z</time>
      </trkpt>
      <trkpt lat="42.4260550" lon="-8.6374350">
        <ele>37.6</ele>
        <time>2022-06-18T13:43:18Z</time>
      </trkpt>
      <trkpt lat="42.4260650" lon="-8.6374450">
        <ele>37.6</ele>
        <time>2022-06-18T13:43:19Z</time>
      </trkpt>
      <trkpt lat="42.4260800" lon="-8.6374530">
        <ele>37.6</ele>
        <time>2022-06-18T13:43:20Z</time>
      </trkpt>
      <trkpt lat="42.4260930" lon="-8.6374610">
        <ele>37.2</ele>
        <time>2022-06-18T13:43:21Z</time>
      </trkpt>
      <trkpt lat="42.4261110" lon="-8.6374660">
        <ele>38.6</ele>
        <time>2022-06-18T13:43:22Z</time>
      </trkpt>
      <trkpt lat="42.4261300" lon="-8.6374680">
        <ele>38.6</ele>
        <time>2022-06-18T13:43:23Z</time>
      </trkpt>
      <trkpt lat="42.4261450" lon="-8.6374700">
        <ele>38.6</ele>
        <time>2022-06-18T13:43:24Z</time>
      </trkpt>
      <trkpt lat="42.4261580" lon="-8.6374630">
        <ele>38.6</ele>
        <time>2022-06-18T13:43:25Z</time>
      </trkpt>
      <trkpt lat="42.4261660" lon="-8.6374600">
        <ele>39.6</ele>
        <time>2022-06-18T13:43:26Z</time>
      </trkpt>
      <trkpt lat="42.4261700" lon="-8.6374400">
        <ele>39.6</ele>
        <time>2022-06-18T13:43:27Z</time>
      </trkpt>
      <trkpt lat="42.4261700" lon="-8.6374180">
        <ele>39.6</ele>
        <time>2022-06-18T13:43:28Z</time>
      </trkpt>
      <trkpt lat="42.4261710" lon="-8.6373950">
        <ele>40.0</ele>
        <time>2022-06-18T13:43:29Z</time>
      </trkpt>
      <trkpt lat="42.4261800" lon="-8.6373730">
        <ele>38.6</ele>
        <time>2022-06-18T13:43:30Z</time>
      </trkpt>
      <trkpt lat="42.4261950" lon="-8.6373610">
        <ele>38.6</ele>
        <time>2022-06-18T13:43:31Z</time>
      </trkpt>
      <trkpt lat="42.4262100" lon="-8.6373560">
        <ele>38.6</ele>
        <time>2022-06-18T13:43:32Z</time>
      </trkpt>
      <trkpt lat="42.4262180" lon="-8.6373610">
        <ele>38.4</ele>
        <time>2022-06-18T13:43:33Z</time>
      </trkpt>
      <trkpt lat="42.4262330" lon="-8.6373730">
        <ele>38.6</ele>
        <time>2022-06-18T13:43:34Z</time>
      </trkpt>
      <trkpt lat="42.4262550" lon="-8.6373960">
        <ele>38.6</ele>
        <time>2022-06-18T13:43:35Z</time>
      </trkpt>
      <trkpt lat="42.4262710" lon="-8.6374260">
        <ele>38.6</ele>
        <time>2022-06-18T13:43:36Z</time>
      </trkpt>
      <trkpt lat="42.4262880" lon="-8.6374560">
        <ele>37.8</ele>
        <time>2022-06-18T13:43:37Z</time>
      </trkpt>
      <trkpt lat="42.4263050" lon="-8.6374860">
        <ele>37.8</ele>
        <time>2022-06-18T13:43:38Z</time>
      </trkpt>
      <trkpt lat="42.4263230" lon="-8.6375130">
        <ele>37.8</ele>
        <time>2022-06-18T13:43:39Z</time>
      </trkpt>
      <trkpt lat="42.4263380" lon="-8.6375430">
        <ele>37.8</ele>
        <time>2022-06-18T13:43:40Z</time>
      </trkpt>
      <trkpt lat="42.4263530" lon="-8.6375700">
        <ele>38.8</ele>
        <time>2022-06-18T13:43:41Z</time>
      </trkpt>
      <trkpt lat="42.4263680" lon="-8.6375950">
        <ele>38.2</ele>
        <time>2022-06-18T13:43:42Z</time>
      </trkpt>
      <trkpt lat="42.4263830" lon="-8.6376250">
        <ele>38.2</ele>
        <time>2022-06-18T13:43:43Z</time>
      </trkpt>
      <trkpt lat="42.4263950" lon="-8.6376550">
        <ele>38.2</ele>
        <time>2022-06-18T13:43:44Z</time>
      </trkpt>
      <trkpt lat="42.4264060" lon="-8.6376850">
        <ele>38.2</ele>
        <time>2022-06-18T13:43:45Z</time>
      </trkpt>
      <trkpt lat="42.4264180" lon="-8.6377150">
        <ele>39.0</ele>
        <time>2022-06-18T13:43:46Z</time>
      </trkpt>
      <trkpt lat="42.4264280" lon="-8.6377410">
        <ele>39.0</ele>
        <time>2022-06-18T13:43:47Z</time>
      </trkpt>
      <trkpt lat="42.4264360" lon="-8.6377610">
        <ele>39.0</ele>
        <time>2022-06-18T13:43:48Z</time>
      </trkpt>
      <trkpt lat="42.4264480" lon="-8.6377780">
        <ele>39.0</ele>
        <time>2022-06-18T13:43:49Z</time>
      </trkpt>
      <trkpt lat="42.4264560" lon="-8.6377930">
        <ele>39.0</ele>
        <time>2022-06-18T13:43:50Z</time>
      </trkpt>
      <trkpt lat="42.4264660" lon="-8.6378010">
        <ele>39.0</ele>
        <time>2022-06-18T13:43:51Z</time>
      </trkpt>
      <trkpt lat="42.4264760" lon="-8.6378100">
        <ele>39.0</ele>
        <time>2022-06-18T13:43:52Z</time>
      </trkpt>
      <trkpt lat="42.4264830" lon="-8.6378200">
        <ele>40.0</ele>
        <time>2022-06-18T13:43:53Z</time>
      </trkpt>
      <trkpt lat="42.4264960" lon="-8.6378200">
        <ele>40.2</ele>
        <time>2022-06-18T13:43:54Z</time>
      </trkpt>
      <trkpt lat="42.4265060" lon="-8.6378210">
        <ele>40.2</ele>
        <time>2022-06-18T13:43:55Z</time>
      </trkpt>
      <trkpt lat="42.4265150" lon="-8.6378400">
        <ele>40.2</ele>
        <time>2022-06-18T13:43:56Z</time>
      </trkpt>
      <trkpt lat="42.4265200" lon="-8.6378650">
        <ele>40.0</ele>
        <time>2022-06-18T13:43:57Z</time>
      </trkpt>
      <trkpt lat="42.4265230" lon="-8.6378900">
        <ele>40.2</ele>
        <time>2022-06-18T13:43:58Z</time>
      </trkpt>
      <trkpt lat="42.4265280" lon="-8.6379150">
        <ele>40.2</ele>
        <time>2022-06-18T13:43:59Z</time>
      </trkpt>
      <trkpt lat="42.4265310" lon="-8.6379410">
        <ele>40.2</ele>
        <time>2022-06-18T13:44:00Z</time>
      </trkpt>
      <trkpt lat="42.4265380" lon="-8.6379730">
        <ele>39.2</ele>
        <time>2022-06-18T13:44:01Z</time>
      </trkpt>
      <trkpt lat="42.4265450" lon="-8.6380030">
        <ele>38.6</ele>
        <time>2022-06-18T13:44:02Z</time>
      </trkpt>
      <trkpt lat="42.4265530" lon="-8.6380310">
        <ele>38.6</ele>
        <time>2022-06-18T13:44:03Z</time>
      </trkpt>
      <trkpt lat="42.4265630" lon="-8.6380560">
        <ele>38.6</ele>
        <time>2022-06-18T13:44:04Z</time>
      </trkpt>
      <trkpt lat="42.4265750" lon="-8.6380800">
        <ele>37.6</ele>
        <time>2022-06-18T13:44:05Z</time>
      </trkpt>
      <trkpt lat="42.4265880" lon="-8.6381080">
        <ele>37.4</ele>
        <time>2022-06-18T13:44:06Z</time>
      </trkpt>
      <trkpt lat="42.4266060" lon="-8.6381350">
        <ele>37.4</ele>
        <time>2022-06-18T13:44:07Z</time>
      </trkpt>
      <trkpt lat="42.4266250" lon="-8.6381630">
        <ele>37.4</ele>
        <time>2022-06-18T13:44:08Z</time>
      </trkpt>
      <trkpt lat="42.4266460" lon="-8.6381930">
        <ele>37.4</ele>
        <time>2022-06-18T13:44:09Z</time>
      </trkpt>
      <trkpt lat="42.4266650" lon="-8.6382250">
        <ele>36.6</ele>
        <time>2022-06-18T13:44:10Z</time>
      </trkpt>
      <trkpt lat="42.4266860" lon="-8.6382560">
        <ele>36.6</ele>
        <time>2022-06-18T13:44:11Z</time>
      </trkpt>
      <trkpt lat="42.4267110" lon="-8.6382760">
        <ele>36.6</ele>
        <time>2022-06-18T13:44:12Z</time>
      </trkpt>
      <trkpt lat="42.4267280" lon="-8.6382980">
        <ele>36.6</ele>
        <time>2022-06-18T13:44:13Z</time>
      </trkpt>
      <trkpt lat="42.4267360" lon="-8.6383230">
        <ele>37.2</ele>
        <time>2022-06-18T13:44:14Z</time>
      </trkpt>
      <trkpt lat="42.4267530" lon="-8.6383400">
        <ele>37.2</ele>
        <time>2022-06-18T13:44:15Z</time>
      </trkpt>
      <trkpt lat="42.4267660" lon="-8.6383630">
        <ele>37.2</ele>
        <time>2022-06-18T13:44:16Z</time>
      </trkpt>
      <trkpt lat="42.4267800" lon="-8.6383910">
        <ele>37.2</ele>
        <time>2022-06-18T13:44:17Z</time>
      </trkpt>
      <trkpt lat="42.4268030" lon="-8.6384180">
        <ele>38.2</ele>
        <time>2022-06-18T13:44:18Z</time>
      </trkpt>
      <trkpt lat="42.4268250" lon="-8.6384480">
        <ele>38.2</ele>
        <time>2022-06-18T13:44:19Z</time>
      </trkpt>
      <trkpt lat="42.4268460" lon="-8.6384730">
        <ele>38.2</ele>
        <time>2022-06-18T13:44:20Z</time>
      </trkpt>
      <trkpt lat="42.4268630" lon="-8.6385000">
        <ele>39.0</ele>
        <time>2022-06-18T13:44:21Z</time>
      </trkpt>
      <trkpt lat="42.4268730" lon="-8.6385310">
        <ele>39.2</ele>
        <time>2022-06-18T13:44:22Z</time>
      </trkpt>
      <trkpt lat="42.4268800" lon="-8.6385700">
        <ele>39.2</ele>
        <time>2022-06-18T13:44:23Z</time>
      </trkpt>
      <trkpt lat="42.4268960" lon="-8.6386010">
        <ele>39.2</ele>
        <time>2022-06-18T13:44:24Z</time>
      </trkpt>
      <trkpt lat="42.4269130" lon="-8.6386350">
        <ele>39.2</ele>
        <time>2022-06-18T13:44:25Z</time>
      </trkpt>
      <trkpt lat="42.4269310" lon="-8.6386700">
        <ele>38.6</ele>
        <time>2022-06-18T13:44:26Z</time>
      </trkpt>
      <trkpt lat="42.4269530" lon="-8.6387030">
        <ele>38.6</ele>
        <time>2022-06-18T13:44:27Z</time>
      </trkpt>
      <trkpt lat="42.4269660" lon="-8.6387400">
        <ele>38.6</ele>
        <time>2022-06-18T13:44:28Z</time>
      </trkpt>
      <trkpt lat="42.4269830" lon="-8.6387730">
        <ele>38.4</ele>
        <time>2022-06-18T13:44:29Z</time>
      </trkpt>
      <trkpt lat="42.4270050" lon="-8.6388030">
        <ele>39.0</ele>
        <time>2022-06-18T13:44:30Z</time>
      </trkpt>
      <trkpt lat="42.4270250" lon="-8.6388300">
        <ele>39.0</ele>
        <time>2022-06-18T13:44:31Z</time>
      </trkpt>
      <trkpt lat="42.4270260" lon="-8.6388580">
        <ele>39.0</ele>
        <time>2022-06-18T13:44:32Z</time>
      </trkpt>
      <trkpt lat="42.4270350" lon="-8.6388830">
        <ele>39.6</ele>
        <time>2022-06-18T13:44:33Z</time>
      </trkpt>
      <trkpt lat="42.4270430" lon="-8.6389050">
        <ele>39.6</ele>
        <time>2022-06-18T13:44:34Z</time>
      </trkpt>
      <trkpt lat="42.4270560" lon="-8.6389200">
        <ele>39.6</ele>
        <time>2022-06-18T13:44:35Z</time>
      </trkpt>
      <trkpt lat="42.4270630" lon="-8.6389400">
        <ele>39.6</ele>
        <time>2022-06-18T13:44:36Z</time>
      </trkpt>
      <trkpt lat="42.4270630" lon="-8.6389560">
        <ele>39.6</ele>
        <time>2022-06-18T13:44:37Z</time>
      </trkpt>
      <trkpt lat="42.4270700" lon="-8.6389700">
        <ele>40.0</ele>
        <time>2022-06-18T13:44:38Z</time>
      </trkpt>
      <trkpt lat="42.4270780" lon="-8.6389850">
        <ele>40.0</ele>
        <time>2022-06-18T13:44:39Z</time>
      </trkpt>
      <trkpt lat="42.4270900" lon="-8.6389950">
        <ele>40.0</ele>
        <time>2022-06-18T13:44:40Z</time>
      </trkpt>
      <trkpt lat="42.4271010" lon="-8.6390030">
        <ele>40.0</ele>
        <time>2022-06-18T13:44:41Z</time>
      </trkpt>
      <trkpt lat="42.4271130" lon="-8.6390110">
        <ele>40.2</ele>
        <time>2022-06-18T13:44:42Z</time>
      </trkpt>
      <trkpt lat="42.4271250" lon="-8.6390230">
        <ele>40.2</ele>
        <time>2022-06-18T13:44:43Z</time>
      </trkpt>
      <trkpt lat="42.4271360" lon="-8.6390380">
        <ele>40.2</ele>
        <time>2022-06-18T13:44:44Z</time>
      </trkpt>
      <trkpt lat="42.4271450" lon="-8.6390450">
        <ele>40.2</ele>
        <time>2022-06-18T13:44:45Z</time>
      </trkpt>
      <trkpt lat="42.4271510" lon="-8.6390500">
        <ele>40.4</ele>
        <time>2022-06-18T13:44:46Z</time>
      </trkpt>
      <trkpt lat="42.4271600" lon="-8.6390510">
        <ele>40.4</ele>
        <time>2022-06-18T13:44:47Z</time>
      </trkpt>
      <trkpt lat="42.4271630" lon="-8.6390560">
        <ele>40.4</ele>
        <time>2022-06-18T13:44:48Z</time>
      </trkpt>
      <trkpt lat="42.4271600" lon="-8.6390600">
        <ele>40.4</ele>
        <time>2022-06-18T13:44:49Z</time>
      </trkpt>
      <trkpt lat="42.4271600" lon="-8.6390600">
        <ele>40.8</ele>
        <time>2022-06-18T13:44:50Z</time>
      </trkpt>
      <trkpt lat="42.4271450" lon="-8.6392200">
        <ele>39.6</ele>
        <time>2022-06-18T13:45:08Z</time>
      </trkpt>
      <trkpt lat="42.4271500" lon="-8.6392580">
        <ele>39.8</ele>
        <time>2022-06-18T13:45:09Z</time>
      </trkpt>
      <trkpt lat="42.4271600" lon="-8.6392930">
        <ele>39.8</ele>
        <time>2022-06-18T13:45:10Z</time>
      </trkpt>
      <trkpt lat="42.4271700" lon="-8.6393280">
        <ele>39.8</ele>
        <time>2022-06-18T13:45:11Z</time>
      </trkpt>
      <trkpt lat="42.4271730" lon="-8.6393600">
        <ele>39.8</ele>
        <time>2022-06-18T13:45:12Z</time>
      </trkpt>
      <trkpt lat="42.4271780" lon="-8.6393900">
        <ele>40.2</ele>
        <time>2022-06-18T13:45:13Z</time>
      </trkpt>
      <trkpt lat="42.4271860" lon="-8.6394180">
        <ele>40.8</ele>
        <time>2022-06-18T13:45:14Z</time>
      </trkpt>
      <trkpt lat="42.4271900" lon="-8.6394460">
        <ele>40.8</ele>
        <time>2022-06-18T13:45:15Z</time>
      </trkpt>
      <trkpt lat="42.4271950" lon="-8.6394710">
        <ele>40.8</ele>
        <time>2022-06-18T13:45:16Z</time>
      </trkpt>
      <trkpt lat="42.4272030" lon="-8.6395000">
        <ele>40.2</ele>
        <time>2022-06-18T13:45:17Z</time>
      </trkpt>
      <trkpt lat="42.4272130" lon="-8.6395360">
        <ele>39.6</ele>
        <time>2022-06-18T13:45:18Z</time>
      </trkpt>
      <trkpt lat="42.4272230" lon="-8.6395750">
        <ele>39.6</ele>
        <time>2022-06-18T13:45:19Z</time>
      </trkpt>
      <trkpt lat="42.4272310" lon="-8.6396110">
        <ele>39.6</ele>
        <time>2022-06-18T13:45:20Z</time>
      </trkpt>
      <trkpt lat="42.4272460" lon="-8.6396450">
        <ele>39.6</ele>
        <time>2022-06-18T13:45:21Z</time>
      </trkpt>
      <trkpt lat="42.4272650" lon="-8.6396710">
        <ele>39.6</ele>
        <time>2022-06-18T13:45:22Z</time>
      </trkpt>
      <trkpt lat="42.4272850" lon="-8.6396950">
        <ele>39.6</ele>
        <time>2022-06-18T13:45:23Z</time>
      </trkpt>
      <trkpt lat="42.4272980" lon="-8.6397180">
        <ele>39.6</ele>
        <time>2022-06-18T13:45:24Z</time>
      </trkpt>
      <trkpt lat="42.4273080" lon="-8.6397360">
        <ele>39.6</ele>
        <time>2022-06-18T13:45:25Z</time>
      </trkpt>
      <trkpt lat="42.4273200" lon="-8.6397550">
        <ele>40.4</ele>
        <time>2022-06-18T13:45:26Z</time>
      </trkpt>
      <trkpt lat="42.4273260" lon="-8.6397750">
        <ele>40.4</ele>
        <time>2022-06-18T13:45:27Z</time>
      </trkpt>
      <trkpt lat="42.4273360" lon="-8.6397910">
        <ele>40.4</ele>
        <time>2022-06-18T13:45:28Z</time>
      </trkpt>
      <trkpt lat="42.4273450" lon="-8.6398100">
        <ele>40.2</ele>
        <time>2022-06-18T13:45:29Z</time>
      </trkpt>
      <trkpt lat="42.4273530" lon="-8.6398280">
        <ele>39.4</ele>
        <time>2022-06-18T13:45:30Z</time>
      </trkpt>
      <trkpt lat="42.4273630" lon="-8.6398460">
        <ele>39.4</ele>
        <time>2022-06-18T13:45:31Z</time>
      </trkpt>
      <trkpt lat="42.4273730" lon="-8.6398660">
        <ele>39.4</ele>
        <time>2022-06-18T13:45:32Z</time>
      </trkpt>
      <trkpt lat="42.4273830" lon="-8.6398860">
        <ele>39.8</ele>
        <time>2022-06-18T13:45:33Z</time>
      </trkpt>
      <trkpt lat="42.4273930" lon="-8.6399060">
        <ele>39.6</ele>
        <time>2022-06-18T13:45:34Z</time>
      </trkpt>
      <trkpt lat="42.4274030" lon="-8.6399280">
        <ele>39.6</ele>
        <time>2022-06-18T13:45:35Z</time>
      </trkpt>
      <trkpt lat="42.4274080" lon="-8.6399450">
        <ele>39.6</ele>
        <time>2022-06-18T13:45:36Z</time>
      </trkpt>
      <trkpt lat="42.4274060" lon="-8.6399500">
        <ele>40.4</ele>
        <time>2022-06-18T13:45:37Z</time>
      </trkpt>
      <trkpt lat="42.4274060" lon="-8.6399460">
        <ele>40.6</ele>
        <time>2022-06-18T13:45:38Z</time>
      </trkpt>
      <trkpt lat="42.4274000" lon="-8.6399430">
        <ele>40.6</ele>
        <time>2022-06-18T13:45:39Z</time>
      </trkpt>
      <trkpt lat="42.4273910" lon="-8.6399430">
        <ele>40.6</ele>
        <time>2022-06-18T13:45:40Z</time>
      </trkpt>
      <trkpt lat="42.4273860" lon="-8.6399410">
        <ele>40.4</ele>
        <time>2022-06-18T13:45:41Z</time>
      </trkpt>
      <trkpt lat="42.4273860" lon="-8.6399410">
        <ele>40.2</ele>
        <time>2022-06-18T13:45:42Z</time>
      </trkpt>
      <trkpt lat="42.4273510" lon="-8.6398280">
        <ele>40.2</ele>
        <time>2022-06-18T13:45:52Z</time>
      </trkpt>
      <trkpt lat="42.4273260" lon="-8.6398010">
        <ele>40.2</ele>
        <time>2022-06-18T13:45:53Z</time>
      </trkpt>
      <trkpt lat="42.4273130" lon="-8.6397580">
        <ele>40.2</ele>
        <time>2022-06-18T13:45:54Z</time>
      </trkpt>
      <trkpt lat="42.4272980" lon="-8.6397150">
        <ele>40.2</ele>
        <time>2022-06-18T13:45:55Z</time>
      </trkpt>
      <trkpt lat="42.4272930" lon="-8.6396730">
        <ele>40.2</ele>
        <time>2022-06-18T13:45:56Z</time>
      </trkpt>
      <trkpt lat="42.4272900" lon="-8.6396310">
        <ele>40.2</ele>
        <time>2022-06-18T13:45:57Z</time>
      </trkpt>
      <trkpt lat="42.4272800" lon="-8.6396010">
        <ele>39.4</ele>
        <time>2022-06-18T13:45:58Z</time>
      </trkpt>
      <trkpt lat="42.4272630" lon="-8.6395750">
        <ele>39.4</ele>
        <time>2022-06-18T13:45:59Z</time>
      </trkpt>
      <trkpt lat="42.4272530" lon="-8.6395480">
        <ele>39.4</ele>
        <time>2022-06-18T13:46:00Z</time>
      </trkpt>
      <trkpt lat="42.4272530" lon="-8.6395200">
        <ele>40.4</ele>
        <time>2022-06-18T13:46:01Z</time>
      </trkpt>
      <trkpt lat="42.4272500" lon="-8.6394930">
        <ele>40.4</ele>
        <time>2022-06-18T13:46:02Z</time>
      </trkpt>
      <trkpt lat="42.4272430" lon="-8.6394760">
        <ele>40.4</ele>
        <time>2022-06-18T13:46:03Z</time>
      </trkpt>
      <trkpt lat="42.4272460" lon="-8.6394680">
        <ele>40.4</ele>
        <time>2022-06-18T13:46:04Z</time>
      </trkpt>
      <trkpt lat="42.4272510" lon="-8.6394760">
        <ele>40.4</ele>
        <time>2022-06-18T13:46:05Z</time>
      </trkpt>
      <trkpt lat="42.4272530" lon="-8.6394930">
        <ele>40.2</ele>
        <time>2022-06-18T13:46:06Z</time>
      </trkpt>
      <trkpt lat="42.4272550" lon="-8.6395160">
        <ele>40.2</ele>
        <time>2022-06-18T13:46:07Z</time>
      </trkpt>
      <trkpt lat="42.4272600" lon="-8.6395510">
        <ele>40.2</ele>
        <time>2022-06-18T13:46:08Z</time>
      </trkpt>
      <trkpt lat="42.4272660" lon="-8.6395910">
        <ele>39.2</ele>
        <time>2022-06-18T13:46:09Z</time>
      </trkpt>
      <trkpt lat="42.4272780" lon="-8.6396350">
        <ele>39.6</ele>
        <time>2022-06-18T13:46:10Z</time>
      </trkpt>
      <trkpt lat="42.4272910" lon="-8.6396760">
        <ele>39.6</ele>
        <time>2022-06-18T13:46:11Z</time>
      </trkpt>
      <trkpt lat="42.4273030" lon="-8.6397210">
        <ele>39.6</ele>
        <time>2022-06-18T13:46:12Z</time>
      </trkpt>
      <trkpt lat="42.4273080" lon="-8.6397680">
        <ele>38.6</ele>
        <time>2022-06-18T13:46:13Z</time>
      </trkpt>
      <trkpt lat="42.4273100" lon="-8.6398080">
        <ele>38.2</ele>
        <time>2022-06-18T13:46:14Z</time>
      </trkpt>
      <trkpt lat="42.4273060" lon="-8.6398360">
        <ele>38.2</ele>
        <time>2022-06-18T13:46:15Z</time>
      </trkpt>
      <trkpt lat="42.4273030" lon="-8.6398530">
        <ele>38.2</ele>
        <time>2022-06-18T13:46:16Z</time>
      </trkpt>
      <trkpt lat="42.4272980" lon="-8.6398700">
        <ele>38.6</ele>
        <time>2022-06-18T13:46:17Z</time>
      </trkpt>
      <trkpt lat="42.4273000" lon="-8.6398830">
        <ele>38.4</ele>
        <time>2022-06-18T13:46:18Z</time>
      </trkpt>
      <trkpt lat="42.4272960" lon="-8.6399010">
        <ele>38.4</ele>
        <time>2022-06-18T13:46:19Z</time>
      </trkpt>
      <trkpt lat="42.4272950" lon="-8.6399230">
        <ele>38.4</ele>
        <time>2022-06-18T13:46:20Z</time>
      </trkpt>
      <trkpt lat="42.4272910" lon="-8.6399510">
        <ele>38.0</ele>
        <time>2022-06-18T13:46:21Z</time>
      </trkpt>
      <trkpt lat="42.4272930" lon="-8.6399780">
        <ele>38.2</ele>
        <time>2022-06-18T13:46:22Z</time>
      </trkpt>
      <trkpt lat="42.4272980" lon="-8.6400000">
        <ele>38.2</ele>
        <time>2022-06-18T13:46:23Z</time>
      </trkpt>
      <trkpt lat="42.4273030" lon="-8.6400130">
        <ele>38.2</ele>
        <time>2022-06-18T13:46:24Z</time>
      </trkpt>
      <trkpt lat="42.4272910" lon="-8.6400260">
        <ele>38.2</ele>
        <time>2022-06-18T13:46:25Z</time>
      </trkpt>
      <trkpt lat="42.4272850" lon="-8.6400350">
        <ele>38.2</ele>
        <time>2022-06-18T13:46:26Z</time>
      </trkpt>
      <trkpt lat="42.4272860" lon="-8.6400360">
        <ele>38.2</ele>
        <time>2022-06-18T13:46:27Z</time>
      </trkpt>
      <trkpt lat="42.4272860" lon="-8.6400360">
        <ele>38.2</ele>
        <time>2022-06-18T13:46:28Z</time>
      </trkpt>
      <trkpt lat="42.4273800" lon="-8.6401360">
        <ele>40.2</ele>
        <time>2022-06-18T14:25:15Z</time>
      </trkpt>
      <trkpt lat="42.4273950" lon="-8.6401660">
        <ele>40.2</ele>
        <time>2022-06-18T14:25:16Z</time>
      </trkpt>
      <trkpt lat="42.4274030" lon="-8.6402050">
        <ele>40.2</ele>
        <time>2022-06-18T14:25:17Z</time>
      </trkpt>
      <trkpt lat="42.4274130" lon="-8.6402460">
        <ele>40.2</ele>
        <time>2022-06-18T14:25:18Z</time>
      </trkpt>
      <trkpt lat="42.4274210" lon="-8.6402950">
        <ele>39.2</ele>
        <time>2022-06-18T14:25:19Z</time>
      </trkpt>
      <trkpt lat="42.4274310" lon="-8.6403410">
        <ele>39.2</ele>
        <time>2022-06-18T14:25:20Z</time>
      </trkpt>
      <trkpt lat="42.4274330" lon="-8.6403910">
        <ele>39.2</ele>
        <time>2022-06-18T14:25:21Z</time>
      </trkpt>
      <trkpt lat="42.4274430" lon="-8.6404460">
        <ele>38.6</ele>
        <time>2022-06-18T14:25:22Z</time>
      </trkpt>
      <trkpt lat="42.4274530" lon="-8.6405060">
        <ele>38.6</ele>
        <time>2022-06-18T14:25:23Z</time>
      </trkpt>
      <trkpt lat="42.4274650" lon="-8.6405660">
        <ele>38.6</ele>
        <time>2022-06-18T14:25:24Z</time>
      </trkpt>
      <trkpt lat="42.4274810" lon="-8.6406260">
        <ele>38.6</ele>
        <time>2022-06-18T14:25:25Z</time>
      </trkpt>
      <trkpt lat="42.4275000" lon="-8.6406850">
        <ele>37.6</ele>
        <time>2022-06-18T14:25:26Z</time>
      </trkpt>
      <trkpt lat="42.4275110" lon="-8.6407450">
        <ele>36.0</ele>
        <time>2022-06-18T14:25:27Z</time>
      </trkpt>
      <trkpt lat="42.4275200" lon="-8.6408130">
        <ele>36.0</ele>
        <time>2022-06-18T14:25:28Z</time>
      </trkpt>
      <trkpt lat="42.4275400" lon="-8.6408700">
        <ele>36.0</ele>
        <time>2022-06-18T14:25:29Z</time>
      </trkpt>
      <trkpt lat="42.4275680" lon="-8.6409260">
        <ele>36.0</ele>
        <time>2022-06-18T14:25:30Z</time>
      </trkpt>
      <trkpt lat="42.4275860" lon="-8.6409980">
        <ele>34.2</ele>
        <time>2022-06-18T14:25:31Z</time>
      </trkpt>
      <trkpt lat="42.4276080" lon="-8.6410700">
        <ele>34.2</ele>
        <time>2022-06-18T14:25:32Z</time>
      </trkpt>
      <trkpt lat="42.4276230" lon="-8.6411450">
        <ele>34.2</ele>
        <time>2022-06-18T14:25:33Z</time>
      </trkpt>
      <trkpt lat="42.4276380" lon="-8.6412250">
        <ele>34.0</ele>
        <time>2022-06-18T14:25:34Z</time>
      </trkpt>
      <trkpt lat="42.4276550" lon="-8.6413030">
        <ele>34.4</ele>
        <time>2022-06-18T14:25:35Z</time>
      </trkpt>
      <trkpt lat="42.4276730" lon="-8.6413780">
        <ele>34.4</ele>
        <time>2022-06-18T14:25:36Z</time>
      </trkpt>
      <trkpt lat="42.4276930" lon="-8.6414500">
        <ele>34.4</ele>
        <time>2022-06-18T14:25:37Z</time>
      </trkpt>
      <trkpt lat="42.4277180" lon="-8.6414980">
        <ele>34.4</ele>
        <time>2022-06-18T14:25:38Z</time>
      </trkpt>
      <trkpt lat="42.4277280" lon="-8.6415480">
        <ele>35.2</ele>
        <time>2022-06-18T14:25:39Z</time>
      </trkpt>
      <trkpt lat="42.4277400" lon="-8.6415960">
        <ele>35.2</ele>
        <time>2022-06-18T14:25:40Z</time>
      </trkpt>
      <trkpt lat="42.4277510" lon="-8.6416680">
        <ele>35.2</ele>
        <time>2022-06-18T14:25:41Z</time>
      </trkpt>
      <trkpt lat="42.4277610" lon="-8.6417480">
        <ele>35.4</ele>
        <time>2022-06-18T14:25:42Z</time>
      </trkpt>
      <trkpt lat="42.4277750" lon="-8.6418200">
        <ele>35.4</ele>
        <time>2022-06-18T14:25:43Z</time>
      </trkpt>
      <trkpt lat="42.4277860" lon="-8.6418900">
        <ele>35.4</ele>
        <time>2022-06-18T14:25:44Z</time>
      </trkpt>
      <trkpt lat="42.4277950" lon="-8.6419550">
        <ele>35.4</ele>
        <time>2022-06-18T14:25:45Z</time>
      </trkpt>
      <trkpt lat="42.4277980" lon="-8.6420160">
        <ele>35.2</ele>
        <time>2022-06-18T14:25:46Z</time>
      </trkpt>
      <trkpt lat="42.4278030" lon="-8.6420750">
        <ele>35.8</ele>
        <time>2022-06-18T14:25:47Z</time>
      </trkpt>
      <trkpt lat="42.4278160" lon="-8.6421260">
        <ele>35.8</ele>
        <time>2022-06-18T14:25:48Z</time>
      </trkpt>
      <trkpt lat="42.4278260" lon="-8.6421750">
        <ele>35.8</ele>
        <time>2022-06-18T14:25:49Z</time>
      </trkpt>
      <trkpt lat="42.4278350" lon="-8.6422260">
        <ele>35.8</ele>
        <time>2022-06-18T14:25:50Z</time>
      </trkpt>
      <trkpt lat="42.4278380" lon="-8.6422800">
        <ele>36.0</ele>
        <time>2022-06-18T14:25:51Z</time>
      </trkpt>
      <trkpt lat="42.4278480" lon="-8.6423280">
        <ele>36.0</ele>
        <time>2022-06-18T14:25:52Z</time>
      </trkpt>
      <trkpt lat="42.4278500" lon="-8.6423780">
        <ele>36.0</ele>
        <time>2022-06-18T14:25:53Z</time>
      </trkpt>
      <trkpt lat="42.4278580" lon="-8.6424230">
        <ele>35.6</ele>
        <time>2022-06-18T14:25:54Z</time>
      </trkpt>
      <trkpt lat="42.4278660" lon="-8.6424650">
        <ele>36.8</ele>
        <time>2022-06-18T14:25:55Z</time>
      </trkpt>
      <trkpt lat="42.4278680" lon="-8.6425050">
        <ele>36.8</ele>
        <time>2022-06-18T14:25:56Z</time>
      </trkpt>
      <trkpt lat="42.4278750" lon="-8.6425450">
        <ele>36.8</ele>
        <time>2022-06-18T14:25:57Z</time>
      </trkpt>
      <trkpt lat="42.4278760" lon="-8.6425900">
        <ele>36.2</ele>
        <time>2022-06-18T14:25:58Z</time>
      </trkpt>
      <trkpt lat="42.4278810" lon="-8.6426380">
        <ele>36.0</ele>
        <time>2022-06-18T14:25:59Z</time>
      </trkpt>
      <trkpt lat="42.4278910" lon="-8.6426810">
        <ele>36.0</ele>
        <time>2022-06-18T14:26:00Z</time>
      </trkpt>
      <trkpt lat="42.4279000" lon="-8.6427250">
        <ele>36.0</ele>
        <time>2022-06-18T14:26:01Z</time>
      </trkpt>
      <trkpt lat="42.4279150" lon="-8.6427660">
        <ele>36.0</ele>
        <time>2022-06-18T14:26:02Z</time>
      </trkpt>
      <trkpt lat="42.4279260" lon="-8.6428110">
        <ele>35.4</ele>
        <time>2022-06-18T14:26:03Z</time>
      </trkpt>
      <trkpt lat="42.4279430" lon="-8.6428560">
        <ele>35.4</ele>
        <time>2022-06-18T14:26:04Z</time>
      </trkpt>
      <trkpt lat="42.4279650" lon="-8.6428980">
        <ele>35.4</ele>
        <time>2022-06-18T14:26:05Z</time>
      </trkpt>
      <trkpt lat="42.4279850" lon="-8.6429380">
        <ele>35.4</ele>
        <time>2022-06-18T14:26:06Z</time>
      </trkpt>
      <trkpt lat="42.4280010" lon="-8.6429760">
        <ele>34.6</ele>
        <time>2022-06-18T14:26:07Z</time>
      </trkpt>
      <trkpt lat="42.4280130" lon="-8.6430200">
        <ele>34.6</ele>
        <time>2022-06-18T14:26:08Z</time>
      </trkpt>
      <trkpt lat="42.4280230" lon="-8.6430680">
        <ele>34.6</ele>
        <time>2022-06-18T14:26:09Z</time>
      </trkpt>
      <trkpt lat="42.4280260" lon="-8.6431160">
        <ele>34.6</ele>
        <time>2022-06-18T14:26:10Z</time>
      </trkpt>
      <trkpt lat="42.4280310" lon="-8.6431610">
        <ele>35.0</ele>
        <time>2022-06-18T14:26:11Z</time>
      </trkpt>
      <trkpt lat="42.4280430" lon="-8.6432060">
        <ele>35.0</ele>
        <time>2022-06-18T14:26:12Z</time>
      </trkpt>
      <trkpt lat="42.4280500" lon="-8.6432500">
        <ele>35.0</ele>
        <time>2022-06-18T14:26:13Z</time>
      </trkpt>
      <trkpt lat="42.4280560" lon="-8.6432980">
        <ele>35.0</ele>
        <time>2022-06-18T14:26:14Z</time>
      </trkpt>
      <trkpt lat="42.4280610" lon="-8.6433430">
        <ele>35.8</ele>
        <time>2022-06-18T14:26:15Z</time>
      </trkpt>
      <trkpt lat="42.4280680" lon="-8.6433880">
        <ele>35.8</ele>
        <time>2022-06-18T14:26:16Z</time>
      </trkpt>
      <trkpt lat="42.4280760" lon="-8.6434360">
        <ele>35.8</ele>
        <time>2022-06-18T14:26:17Z</time>
      </trkpt>
      <trkpt lat="42.4280880" lon="-8.6434780">
        <ele>35.4</ele>
        <time>2022-06-18T14:26:18Z</time>
      </trkpt>
      <trkpt lat="42.4281010" lon="-8.6435210">
        <ele>35.2</ele>
        <time>2022-06-18T14:26:19Z</time>
      </trkpt>
      <trkpt lat="42.4281150" lon="-8.6435550">
        <ele>35.2</ele>
        <time>2022-06-18T14:26:20Z</time>
      </trkpt>
      <trkpt lat="42.4281250" lon="-8.6435900">
        <ele>35.2</ele>
        <time>2022-06-18T14:26:21Z</time>
      </trkpt>
      <trkpt lat="42.4281350" lon="-8.6436280">
        <ele>34.8</ele>
        <time>2022-06-18T14:26:22Z</time>
      </trkpt>
      <trkpt lat="42.4281460" lon="-8.6436650">
        <ele>35.2</ele>
        <time>2022-06-18T14:26:23Z</time>
      </trkpt>
      <trkpt lat="42.4281560" lon="-8.6436980">
        <ele>35.2</ele>
        <time>2022-06-18T14:26:24Z</time>
      </trkpt>
      <trkpt lat="42.4281580" lon="-8.6437330">
        <ele>35.2</ele>
        <time>2022-06-18T14:26:25Z</time>
      </trkpt>
      <trkpt lat="42.4281580" lon="-8.6437660">
        <ele>35.2</ele>
        <time>2022-06-18T14:26:26Z</time>
      </trkpt>
      <trkpt lat="42.4281630" lon="-8.6437980">
        <ele>35.6</ele>
        <time>2022-06-18T14:26:27Z</time>
      </trkpt>
      <trkpt lat="42.4281700" lon="-8.6438300">
        <ele>35.6</ele>
        <time>2022-06-18T14:26:28Z</time>
      </trkpt>
      <trkpt lat="42.4281700" lon="-8.6438610">
        <ele>35.6</ele>
        <time>2022-06-18T14:26:29Z</time>
      </trkpt>
      <trkpt lat="42.4281710" lon="-8.6438860">
        <ele>36.4</ele>
        <time>2022-06-18T14:26:30Z</time>
      </trkpt>
      <trkpt lat="42.4281700" lon="-8.6439080">
        <ele>35.8</ele>
        <time>2022-06-18T14:26:31Z</time>
      </trkpt>
      <trkpt lat="42.4281760" lon="-8.6439310">
        <ele>35.8</ele>
        <time>2022-06-18T14:26:32Z</time>
      </trkpt>
      <trkpt lat="42.4281900" lon="-8.6439530">
        <ele>35.8</ele>
        <time>2022-06-18T14:26:33Z</time>
      </trkpt>
      <trkpt lat="42.4282060" lon="-8.6439610">
        <ele>36.4</ele>
        <time>2022-06-18T14:26:34Z</time>
      </trkpt>
      <trkpt lat="42.4282210" lon="-8.6439600">
        <ele>36.2</ele>
        <time>2022-06-18T14:26:35Z</time>
      </trkpt>
      <trkpt lat="42.4282400" lon="-8.6439550">
        <ele>36.2</ele>
        <time>2022-06-18T14:26:36Z</time>
      </trkpt>
      <trkpt lat="42.4282610" lon="-8.6439580">
        <ele>36.2</ele>
        <time>2022-06-18T14:26:37Z</time>
      </trkpt>
      <trkpt lat="42.4282860" lon="-8.6439600">
        <ele>36.2</ele>
        <time>2022-06-18T14:26:38Z</time>
      </trkpt>
      <trkpt lat="42.4283130" lon="-8.6439630">
        <ele>36.4</ele>
        <time>2022-06-18T14:26:39Z</time>
      </trkpt>
      <trkpt lat="42.4283280" lon="-8.6439700">
        <ele>36.4</ele>
        <time>2022-06-18T14:26:40Z</time>
      </trkpt>
      <trkpt lat="42.4283450" lon="-8.6439660">
        <ele>36.4</ele>
        <time>2022-06-18T14:26:41Z</time>
      </trkpt>
      <trkpt lat="42.4283660" lon="-8.6439550">
        <ele>36.4</ele>
        <time>2022-06-18T14:26:42Z</time>
      </trkpt>
      <trkpt lat="42.4283780" lon="-8.6439430">
        <ele>36.4</ele>
        <time>2022-06-18T14:26:43Z</time>
      </trkpt>
      <trkpt lat="42.4283960" lon="-8.6439330">
        <ele>36.4</ele>
        <time>2022-06-18T14:26:44Z</time>
      </trkpt>
      <trkpt lat="42.4284110" lon="-8.6439310">
        <ele>36.4</ele>
        <time>2022-06-18T14:26:45Z</time>
      </trkpt>
      <trkpt lat="42.4284180" lon="-8.6439200">
        <ele>36.8</ele>
        <time>2022-06-18T14:26:46Z</time>
      </trkpt>
      <trkpt lat="42.4284260" lon="-8.6439100">
        <ele>36.8</ele>
        <time>2022-06-18T14:26:47Z</time>
      </trkpt>
      <trkpt lat="42.4284380" lon="-8.6439080">
        <ele>36.8</ele>
        <time>2022-06-18T14:26:48Z</time>
      </trkpt>
      <trkpt lat="42.4284580" lon="-8.6439100">
        <ele>36.8</ele>
        <time>2022-06-18T14:26:49Z</time>
      </trkpt>
      <trkpt lat="42.4284800" lon="-8.6439150">
        <ele>36.6</ele>
        <time>2022-06-18T14:26:50Z</time>
      </trkpt>
      <trkpt lat="42.4285050" lon="-8.6439250">
        <ele>37.0</ele>
        <time>2022-06-18T14:26:51Z</time>
      </trkpt>
      <trkpt lat="42.4285400" lon="-8.6439380">
        <ele>37.0</ele>
        <time>2022-06-18T14:26:52Z</time>
      </trkpt>
      <trkpt lat="42.4285700" lon="-8.6439510">
        <ele>37.0</ele>
        <time>2022-06-18T14:26:53Z</time>
      </trkpt>
      <trkpt lat="42.4286050" lon="-8.6439560">
        <ele>37.0</ele>
        <time>2022-06-18T14:26:54Z</time>
      </trkpt>
      <trkpt lat="42.4286500" lon="-8.6439550">
        <ele>37.4</ele>
        <time>2022-06-18T14:26:55Z</time>
      </trkpt>
      <trkpt lat="42.4286800" lon="-8.6439510">
        <ele>37.4</ele>
        <time>2022-06-18T14:26:56Z</time>
      </trkpt>
      <trkpt lat="42.4287060" lon="-8.6439450">
        <ele>37.4</ele>
        <time>2022-06-18T14:26:57Z</time>
      </trkpt>
      <trkpt lat="42.4287300" lon="-8.6439400">
        <ele>37.4</ele>
        <time>2022-06-18T14:26:58Z</time>
      </trkpt>
      <trkpt lat="42.4287550" lon="-8.6439410">
        <ele>37.4</ele>
        <time>2022-06-18T14:26:59Z</time>
      </trkpt>
      <trkpt lat="42.4287850" lon="-8.6439380">
        <ele>37.4</ele>
        <time>2022-06-18T14:27:00Z</time>
      </trkpt>
      <trkpt lat="42.4288080" lon="-8.6439410">
        <ele>37.4</ele>
        <time>2022-06-18T14:27:01Z</time>
      </trkpt>
      <trkpt lat="42.4288280" lon="-8.6439380">
        <ele>38.4</ele>
        <time>2022-06-18T14:27:02Z</time>
      </trkpt>
      <trkpt lat="42.4288500" lon="-8.6439300">
        <ele>38.6</ele>
        <time>2022-06-18T14:27:03Z</time>
      </trkpt>
      <trkpt lat="42.4288680" lon="-8.6439210">
        <ele>38.6</ele>
        <time>2022-06-18T14:27:04Z</time>
      </trkpt>
      <trkpt lat="42.4288900" lon="-8.6438930">
        <ele>38.6</ele>
        <time>2022-06-18T14:27:05Z</time>
      </trkpt>
      <trkpt lat="42.4289030" lon="-8.6438810">
        <ele>38.2</ele>
        <time>2022-06-18T14:27:06Z</time>
      </trkpt>
      <trkpt lat="42.4289180" lon="-8.6438730">
        <ele>38.2</ele>
        <time>2022-06-18T14:27:07Z</time>
      </trkpt>
      <trkpt lat="42.4289310" lon="-8.6438700">
        <ele>38.2</ele>
        <time>2022-06-18T14:27:08Z</time>
      </trkpt>
      <trkpt lat="42.4289510" lon="-8.6438710">
        <ele>38.2</ele>
        <time>2022-06-18T14:27:09Z</time>
      </trkpt>
      <trkpt lat="42.4289760" lon="-8.6438700">
        <ele>38.2</ele>
        <time>2022-06-18T14:27:10Z</time>
      </trkpt>
      <trkpt lat="42.4290150" lon="-8.6438730">
        <ele>38.8</ele>
        <time>2022-06-18T14:27:11Z</time>
      </trkpt>
      <trkpt lat="42.4290360" lon="-8.6438730">
        <ele>38.8</ele>
        <time>2022-06-18T14:27:12Z</time>
      </trkpt>
      <trkpt lat="42.4290650" lon="-8.6438750">
        <ele>38.8</ele>
        <time>2022-06-18T14:27:13Z</time>
      </trkpt>
      <trkpt lat="42.4290860" lon="-8.6438780">
        <ele>39.2</ele>
        <time>2022-06-18T14:27:14Z</time>
      </trkpt>
      <trkpt lat="42.4291080" lon="-8.6438850">
        <ele>39.2</ele>
        <time>2022-06-18T14:27:15Z</time>
      </trkpt>
      <trkpt lat="42.4291350" lon="-8.6438810">
        <ele>39.2</ele>
        <time>2022-06-18T14:27:16Z</time>
      </trkpt>
      <trkpt lat="42.4291530" lon="-8.6438850">
        <ele>39.2</ele>
        <time>2022-06-18T14:27:17Z</time>
      </trkpt>
      <trkpt lat="42.4291700" lon="-8.6438850">
        <ele>39.2</ele>
        <time>2022-06-18T14:27:18Z</time>
      </trkpt>
      <trkpt lat="42.4291830" lon="-8.6438700">
        <ele>39.6</ele>
        <time>2022-06-18T14:27:19Z</time>
      </trkpt>
      <trkpt lat="42.4292050" lon="-8.6438730">
        <ele>39.6</ele>
        <time>2022-06-18T14:27:20Z</time>
      </trkpt>
      <trkpt lat="42.4292310" lon="-8.6438810">
        <ele>39.6</ele>
        <time>2022-06-18T14:27:21Z</time>
      </trkpt>
      <trkpt lat="42.4292510" lon="-8.6438750">
        <ele>39.6</ele>
        <time>2022-06-18T14:27:22Z</time>
      </trkpt>
      <trkpt lat="42.4292710" lon="-8.6438600">
        <ele>39.4</ele>
        <time>2022-06-18T14:27:23Z</time>
      </trkpt>
      <trkpt lat="42.4292880" lon="-8.6438610">
        <ele>39.4</ele>
        <time>2022-06-18T14:27:24Z</time>
      </trkpt>
      <trkpt lat="42.4293260" lon="-8.6438750">
        <ele>39.4</ele>
        <time>2022-06-18T14:27:25Z</time>
      </trkpt>
      <trkpt lat="42.4293380" lon="-8.6438780">
        <ele>40.2</ele>
        <time>2022-06-18T14:27:26Z</time>
      </trkpt>
      <trkpt lat="42.4293550" lon="-8.6438880">
        <ele>40.2</ele>
        <time>2022-06-18T14:27:27Z</time>
      </trkpt>
      <trkpt lat="42.4293730" lon="-8.6438850">
        <ele>40.2</ele>
        <time>2022-06-18T14:27:28Z</time>
      </trkpt>
      <trkpt lat="42.4293910" lon="-8.6438750">
        <ele>40.2</ele>
        <time>2022-06-18T14:27:29Z</time>
      </trkpt>
      <trkpt lat="42.4294180" lon="-8.6438580">
        <ele>40.4</ele>
        <time>2022-06-18T14:27:30Z</time>
      </trkpt>
      <trkpt lat="42.4294400" lon="-8.6438110">
        <ele>40.2</ele>
        <time>2022-06-18T14:27:31Z</time>
      </trkpt>
      <trkpt lat="42.4294630" lon="-8.6438010">
        <ele>40.2</ele>
        <time>2022-06-18T14:27:32Z</time>
      </trkpt>
      <trkpt lat="42.4294800" lon="-8.6437760">
        <ele>40.2</ele>
        <time>2022-06-18T14:27:33Z</time>
      </trkpt>
      <trkpt lat="42.4295050" lon="-8.6437600">
        <ele>40.2</ele>
        <time>2022-06-18T14:27:34Z</time>
      </trkpt>
      <trkpt lat="42.4295360" lon="-8.6437430">
        <ele>40.8</ele>
        <time>2022-06-18T14:27:35Z</time>
      </trkpt>
      <trkpt lat="42.4295600" lon="-8.6437350">
        <ele>40.8</ele>
        <time>2022-06-18T14:27:36Z</time>
      </trkpt>
      <trkpt lat="42.4295860" lon="-8.6437280">
        <ele>40.8</ele>
        <time>2022-06-18T14:27:37Z</time>
      </trkpt>
      <trkpt lat="42.4295960" lon="-8.6437130">
        <ele>41.2</ele>
        <time>2022-06-18T14:27:38Z</time>
      </trkpt>
      <trkpt lat="42.4296150" lon="-8.6436930">
        <ele>41.0</ele>
        <time>2022-06-18T14:27:39Z</time>
      </trkpt>
      <trkpt lat="42.4296310" lon="-8.6436780">
        <ele>41.0</ele>
        <time>2022-06-18T14:27:40Z</time>
      </trkpt>
      <trkpt lat="42.4296500" lon="-8.6436600">
        <ele>41.0</ele>
        <time>2022-06-18T14:27:41Z</time>
      </trkpt>
      <trkpt lat="42.4296780" lon="-8.6436530">
        <ele>40.6</ele>
        <time>2022-06-18T14:27:42Z</time>
      </trkpt>
      <trkpt lat="42.4296960" lon="-8.6436550">
        <ele>40.8</ele>
        <time>2022-06-18T14:27:43Z</time>
      </trkpt>
      <trkpt lat="42.4297060" lon="-8.6436560">
        <ele>40.8</ele>
        <time>2022-06-18T14:27:44Z</time>
      </trkpt>
      <trkpt lat="42.4297200" lon="-8.6436560">
        <ele>40.8</ele>
        <time>2022-06-18T14:27:45Z</time>
      </trkpt>
      <trkpt lat="42.4297300" lon="-8.6436530">
        <ele>40.8</ele>
        <time>2022-06-18T14:27:46Z</time>
      </trkpt>
      <trkpt lat="42.4297500" lon="-8.6436460">
        <ele>41.8</ele>
        <time>2022-06-18T14:27:47Z</time>
      </trkpt>
      <trkpt lat="42.4297650" lon="-8.6436380">
        <ele>41.8</ele>
        <time>2022-06-18T14:27:48Z</time>
      </trkpt>
      <trkpt lat="42.4297800" lon="-8.6436310">
        <ele>41.8</ele>
        <time>2022-06-18T14:27:49Z</time>
      </trkpt>
      <trkpt lat="42.4297910" lon="-8.6436250">
        <ele>41.8</ele>
        <time>2022-06-18T14:27:50Z</time>
      </trkpt>
      <trkpt lat="42.4298010" lon="-8.6436200">
        <ele>41.8</ele>
        <time>2022-06-18T14:27:51Z</time>
      </trkpt>
      <trkpt lat="42.4298080" lon="-8.6436110">
        <ele>41.8</ele>
        <time>2022-06-18T14:27:52Z</time>
      </trkpt>
      <trkpt lat="42.4298230" lon="-8.6436000">
        <ele>41.8</ele>
        <time>2022-06-18T14:27:53Z</time>
      </trkpt>
      <trkpt lat="42.4298310" lon="-8.6435930">
        <ele>42.8</ele>
        <time>2022-06-18T14:27:54Z</time>
      </trkpt>
      <trkpt lat="42.4298380" lon="-8.6435850">
        <ele>42.0</ele>
        <time>2022-06-18T14:27:55Z</time>
      </trkpt>
      <trkpt lat="42.4298630" lon="-8.6436060">
        <ele>42.0</ele>
        <time>2022-06-18T14:27:59Z</time>
      </trkpt>
      <trkpt lat="42.4298700" lon="-8.6436280">
        <ele>42.0</ele>
        <time>2022-06-18T14:28:00Z</time>
      </trkpt>
      <trkpt lat="42.4298860" lon="-8.6436480">
        <ele>42.0</ele>
        <time>2022-06-18T14:28:01Z</time>
      </trkpt>
      <trkpt lat="42.4299080" lon="-8.6436650">
        <ele>42.0</ele>
        <time>2022-06-18T14:28:02Z</time>
      </trkpt>
      <trkpt lat="42.4299310" lon="-8.6436760">
        <ele>41.8</ele>
        <time>2022-06-18T14:28:03Z</time>
      </trkpt>
      <trkpt lat="42.4299560" lon="-8.6436830">
        <ele>41.8</ele>
        <time>2022-06-18T14:28:04Z</time>
      </trkpt>
      <trkpt lat="42.4299780" lon="-8.6436880">
        <ele>41.8</ele>
        <time>2022-06-18T14:28:05Z</time>
      </trkpt>
      <trkpt lat="42.4299960" lon="-8.6436980">
        <ele>41.2</ele>
        <time>2022-06-18T14:28:06Z</time>
      </trkpt>
      <trkpt lat="42.4300160" lon="-8.6437180">
        <ele>41.2</ele>
        <time>2022-06-18T14:28:07Z</time>
      </trkpt>
      <trkpt lat="42.4300330" lon="-8.6437330">
        <ele>41.2</ele>
        <time>2022-06-18T14:28:08Z</time>
      </trkpt>
      <trkpt lat="42.4300530" lon="-8.6437380">
        <ele>41.2</ele>
        <time>2022-06-18T14:28:09Z</time>
      </trkpt>
      <trkpt lat="42.4300700" lon="-8.6437460">
        <ele>41.2</ele>
        <time>2022-06-18T14:28:10Z</time>
      </trkpt>
      <trkpt lat="42.4300850" lon="-8.6437600">
        <ele>41.0</ele>
        <time>2022-06-18T14:28:11Z</time>
      </trkpt>
      <trkpt lat="42.4301010" lon="-8.6437810">
        <ele>41.0</ele>
        <time>2022-06-18T14:28:12Z</time>
      </trkpt>
      <trkpt lat="42.4301260" lon="-8.6437930">
        <ele>41.0</ele>
        <time>2022-06-18T14:28:13Z</time>
      </trkpt>
      <trkpt lat="42.4301500" lon="-8.6438030">
        <ele>40.8</ele>
        <time>2022-06-18T14:28:14Z</time>
      </trkpt>
      <trkpt lat="42.4301660" lon="-8.6438160">
        <ele>41.2</ele>
        <time>2022-06-18T14:28:15Z</time>
      </trkpt>
      <trkpt lat="42.4301810" lon="-8.6438210">
        <ele>41.2</ele>
        <time>2022-06-18T14:28:16Z</time>
      </trkpt>
      <trkpt lat="42.4301880" lon="-8.6438230">
        <ele>41.2</ele>
        <time>2022-06-18T14:28:17Z</time>
      </trkpt>
      <trkpt lat="42.4302060" lon="-8.6438300">
        <ele>40.8</ele>
        <time>2022-06-18T14:28:18Z</time>
      </trkpt>
      <trkpt lat="42.4302330" lon="-8.6438360">
        <ele>40.8</ele>
        <time>2022-06-18T14:28:19Z</time>
      </trkpt>
      <trkpt lat="42.4302660" lon="-8.6438430">
        <ele>40.8</ele>
        <time>2022-06-18T14:28:20Z</time>
      </trkpt>
      <trkpt lat="42.4302900" lon="-8.6438510">
        <ele>40.8</ele>
        <time>2022-06-18T14:28:21Z</time>
      </trkpt>
      <trkpt lat="42.4303330" lon="-8.6438730">
        <ele>40.6</ele>
        <time>2022-06-18T14:28:22Z</time>
      </trkpt>
      <trkpt lat="42.4303650" lon="-8.6438850">
        <ele>40.2</ele>
        <time>2022-06-18T14:28:23Z</time>
      </trkpt>
      <trkpt lat="42.4304110" lon="-8.6438980">
        <ele>40.2</ele>
        <time>2022-06-18T14:28:24Z</time>
      </trkpt>
      <trkpt lat="42.4304460" lon="-8.6439180">
        <ele>40.2</ele>
        <time>2022-06-18T14:28:25Z</time>
      </trkpt>
      <trkpt lat="42.4304810" lon="-8.6439380">
        <ele>40.2</ele>
        <time>2022-06-18T14:28:26Z</time>
      </trkpt>
      <trkpt lat="42.4305030" lon="-8.6439430">
        <ele>40.8</ele>
        <time>2022-06-18T14:28:27Z</time>
      </trkpt>
      <trkpt lat="42.4305350" lon="-8.6439480">
        <ele>40.8</ele>
        <time>2022-06-18T14:28:28Z</time>
      </trkpt>
      <trkpt lat="42.4305710" lon="-8.6439630">
        <ele>40.8</ele>
        <time>2022-06-18T14:28:29Z</time>
      </trkpt>
      <trkpt lat="42.4305910" lon="-8.6439780">
        <ele>40.8</ele>
        <time>2022-06-18T14:28:30Z</time>
      </trkpt>
      <trkpt lat="42.4306180" lon="-8.6439850">
        <ele>41.0</ele>
        <time>2022-06-18T14:28:31Z</time>
      </trkpt>
      <trkpt lat="42.4306400" lon="-8.6439930">
        <ele>41.0</ele>
        <time>2022-06-18T14:28:32Z</time>
      </trkpt>
      <trkpt lat="42.4306660" lon="-8.6440080">
        <ele>41.0</ele>
        <time>2022-06-18T14:28:33Z</time>
      </trkpt>
      <trkpt lat="42.4306930" lon="-8.6440280">
        <ele>40.6</ele>
        <time>2022-06-18T14:28:34Z</time>
      </trkpt>
      <trkpt lat="42.4307160" lon="-8.6440460">
        <ele>40.6</ele>
        <time>2022-06-18T14:28:35Z</time>
      </trkpt>
      <trkpt lat="42.4307430" lon="-8.6440680">
        <ele>40.6</ele>
        <time>2022-06-18T14:28:36Z</time>
      </trkpt>
      <trkpt lat="42.4307680" lon="-8.6440950">
        <ele>40.6</ele>
        <time>2022-06-18T14:28:37Z</time>
      </trkpt>
      <trkpt lat="42.4307850" lon="-8.6441260">
        <ele>40.2</ele>
        <time>2022-06-18T14:28:38Z</time>
      </trkpt>
      <trkpt lat="42.4308000" lon="-8.6441580">
        <ele>40.6</ele>
        <time>2022-06-18T14:28:39Z</time>
      </trkpt>
      <trkpt lat="42.4308180" lon="-8.6441900">
        <ele>40.6</ele>
        <time>2022-06-18T14:28:40Z</time>
      </trkpt>
      <trkpt lat="42.4308400" lon="-8.6442200">
        <ele>40.6</ele>
        <time>2022-06-18T14:28:41Z</time>
      </trkpt>
      <trkpt lat="42.4308610" lon="-8.6442450">
        <ele>40.6</ele>
        <time>2022-06-18T14:28:42Z</time>
      </trkpt>
      <trkpt lat="42.4308850" lon="-8.6442510">
        <ele>40.6</ele>
        <time>2022-06-18T14:28:43Z</time>
      </trkpt>
      <trkpt lat="42.4309100" lon="-8.6442510">
        <ele>40.6</ele>
        <time>2022-06-18T14:28:44Z</time>
      </trkpt>
      <trkpt lat="42.4309300" lon="-8.6442530">
        <ele>40.6</ele>
        <time>2022-06-18T14:28:45Z</time>
      </trkpt>
      <trkpt lat="42.4309460" lon="-8.6442550">
        <ele>39.6</ele>
        <time>2022-06-18T14:28:46Z</time>
      </trkpt>
      <trkpt lat="42.4309630" lon="-8.6442600">
        <ele>38.4</ele>
        <time>2022-06-18T14:28:47Z</time>
      </trkpt>
      <trkpt lat="42.4309910" lon="-8.6442650">
        <ele>38.4</ele>
        <time>2022-06-18T14:28:48Z</time>
      </trkpt>
      <trkpt lat="42.4310180" lon="-8.6442700">
        <ele>38.4</ele>
        <time>2022-06-18T14:28:49Z</time>
      </trkpt>
      <trkpt lat="42.4310400" lon="-8.6442760">
        <ele>38.4</ele>
        <time>2022-06-18T14:28:50Z</time>
      </trkpt>
      <trkpt lat="42.4310560" lon="-8.6442880">
        <ele>39.0</ele>
        <time>2022-06-18T14:28:51Z</time>
      </trkpt>
      <trkpt lat="42.4310680" lon="-8.6443010">
        <ele>39.0</ele>
        <time>2022-06-18T14:28:52Z</time>
      </trkpt>
      <trkpt lat="42.4310830" lon="-8.6443100">
        <ele>39.0</ele>
        <time>2022-06-18T14:28:53Z</time>
      </trkpt>
      <trkpt lat="42.4311010" lon="-8.6443180">
        <ele>39.2</ele>
        <time>2022-06-18T14:28:54Z</time>
      </trkpt>
      <trkpt lat="42.4311160" lon="-8.6443230">
        <ele>39.2</ele>
        <time>2022-06-18T14:28:55Z</time>
      </trkpt>
      <trkpt lat="42.4311330" lon="-8.6443150">
        <ele>39.2</ele>
        <time>2022-06-18T14:28:56Z</time>
      </trkpt>
      <trkpt lat="42.4311710" lon="-8.6443200">
        <ele>38.4</ele>
        <time>2022-06-18T14:29:00Z</time>
      </trkpt>
      <trkpt lat="42.4311800" lon="-8.6443360">
        <ele>38.4</ele>
        <time>2022-06-18T14:29:01Z</time>
      </trkpt>
      <trkpt lat="42.4311910" lon="-8.6443480">
        <ele>38.4</ele>
        <time>2022-06-18T14:29:02Z</time>
      </trkpt>
      <trkpt lat="42.4312030" lon="-8.6443650">
        <ele>38.0</ele>
        <time>2022-06-18T14:29:03Z</time>
      </trkpt>
      <trkpt lat="42.4312210" lon="-8.6443830">
        <ele>38.0</ele>
        <time>2022-06-18T14:29:04Z</time>
      </trkpt>
      <trkpt lat="42.4312450" lon="-8.6444010">
        <ele>38.0</ele>
        <time>2022-06-18T14:29:05Z</time>
      </trkpt>
      <trkpt lat="42.4312660" lon="-8.6444210">
        <ele>38.0</ele>
        <time>2022-06-18T14:29:06Z</time>
      </trkpt>
      <trkpt lat="42.4312830" lon="-8.6444460">
        <ele>38.2</ele>
        <time>2022-06-18T14:29:07Z</time>
      </trkpt>
      <trkpt lat="42.4313010" lon="-8.6444660">
        <ele>38.2</ele>
        <time>2022-06-18T14:29:08Z</time>
      </trkpt>
      <trkpt lat="42.4313150" lon="-8.6444910">
        <ele>38.2</ele>
        <time>2022-06-18T14:29:09Z</time>
      </trkpt>
      <trkpt lat="42.4313330" lon="-8.6445130">
        <ele>37.6</ele>
        <time>2022-06-18T14:29:10Z</time>
      </trkpt>
      <trkpt lat="42.4313510" lon="-8.6445360">
        <ele>37.6</ele>
        <time>2022-06-18T14:29:11Z</time>
      </trkpt>
      <trkpt lat="42.4313680" lon="-8.6445610">
        <ele>37.6</ele>
        <time>2022-06-18T14:29:12Z</time>
      </trkpt>
      <trkpt lat="42.4313900" lon="-8.6445880">
        <ele>37.6</ele>
        <time>2022-06-18T14:29:13Z</time>
      </trkpt>
      <trkpt lat="42.4314060" lon="-8.6446200">
        <ele>36.6</ele>
        <time>2022-06-18T14:29:14Z</time>
      </trkpt>
      <trkpt lat="42.4314260" lon="-8.6446500">
        <ele>36.6</ele>
        <time>2022-06-18T14:29:15Z</time>
      </trkpt>
      <trkpt lat="42.4314500" lon="-8.6446780">
        <ele>36.6</ele>
        <time>2022-06-18T14:29:16Z</time>
      </trkpt>
      <trkpt lat="42.4314750" lon="-8.6447060">
        <ele>36.6</ele>
        <time>2022-06-18T14:29:17Z</time>
      </trkpt>
      <trkpt lat="42.4315030" lon="-8.6447260">
        <ele>36.6</ele>
        <time>2022-06-18T14:29:18Z</time>
      </trkpt>
      <trkpt lat="42.4315230" lon="-8.6447530">
        <ele>36.6</ele>
        <time>2022-06-18T14:29:19Z</time>
      </trkpt>
      <trkpt lat="42.4315500" lon="-8.6447650">
        <ele>36.6</ele>
        <time>2022-06-18T14:29:20Z</time>
      </trkpt>
      <trkpt lat="42.4315830" lon="-8.6447700">
        <ele>36.6</ele>
        <time>2022-06-18T14:29:21Z</time>
      </trkpt>
      <trkpt lat="42.4316160" lon="-8.6447780">
        <ele>36.6</ele>
        <time>2022-06-18T14:29:22Z</time>
      </trkpt>
      <trkpt lat="42.4316410" lon="-8.6447810">
        <ele>36.2</ele>
        <time>2022-06-18T14:29:23Z</time>
      </trkpt>
      <trkpt lat="42.4316550" lon="-8.6447930">
        <ele>36.2</ele>
        <time>2022-06-18T14:29:24Z</time>
      </trkpt>
      <trkpt lat="42.4316710" lon="-8.6448110">
        <ele>36.2</ele>
        <time>2022-06-18T14:29:25Z</time>
      </trkpt>
      <trkpt lat="42.4316950" lon="-8.6448330">
        <ele>36.2</ele>
        <time>2022-06-18T14:29:26Z</time>
      </trkpt>
      <trkpt lat="42.4317000" lon="-8.6448730">
        <ele>36.4</ele>
        <time>2022-06-18T14:29:27Z</time>
      </trkpt>
      <trkpt lat="42.4317080" lon="-8.6449000">
        <ele>36.4</ele>
        <time>2022-06-18T14:29:28Z</time>
      </trkpt>
      <trkpt lat="42.4317050" lon="-8.6449210">
        <ele>36.4</ele>
        <time>2022-06-18T14:29:29Z</time>
      </trkpt>
      <trkpt lat="42.4317160" lon="-8.6449210">
        <ele>36.2</ele>
        <time>2022-06-18T14:29:30Z</time>
      </trkpt>
      <trkpt lat="42.4317360" lon="-8.6449150">
        <ele>36.2</ele>
        <time>2022-06-18T14:29:31Z</time>
      </trkpt>
      <trkpt lat="42.4317580" lon="-8.6449110">
        <ele>36.2</ele>
        <time>2022-06-18T14:29:32Z</time>
      </trkpt>
      <trkpt lat="42.4317860" lon="-8.6449080">
        <ele>36.2</ele>
        <time>2022-06-18T14:29:33Z</time>
      </trkpt>
      <trkpt lat="42.4318110" lon="-8.6449050">
        <ele>35.6</ele>
        <time>2022-06-18T14:29:34Z</time>
      </trkpt>
      <trkpt lat="42.4318360" lon="-8.6448930">
        <ele>35.2</ele>
        <time>2022-06-18T14:29:35Z</time>
      </trkpt>
      <trkpt lat="42.4318600" lon="-8.6448810">
        <ele>35.2</ele>
        <time>2022-06-18T14:29:36Z</time>
      </trkpt>
      <trkpt lat="42.4318810" lon="-8.6448780">
        <ele>35.2</ele>
        <time>2022-06-18T14:29:37Z</time>
      </trkpt>
      <trkpt lat="42.4319010" lon="-8.6448860">
        <ele>35.6</ele>
        <time>2022-06-18T14:29:38Z</time>
      </trkpt>
      <trkpt lat="42.4319150" lon="-8.6448960">
        <ele>35.2</ele>
        <time>2022-06-18T14:29:39Z</time>
      </trkpt>
      <trkpt lat="42.4319330" lon="-8.6449050">
        <ele>35.2</ele>
        <time>2022-06-18T14:29:40Z</time>
      </trkpt>
      <trkpt lat="42.4319480" lon="-8.6449180">
        <ele>35.2</ele>
        <time>2022-06-18T14:29:41Z</time>
      </trkpt>
      <trkpt lat="42.4319650" lon="-8.6449350">
        <ele>34.8</ele>
        <time>2022-06-18T14:29:42Z</time>
      </trkpt>
      <trkpt lat="42.4319810" lon="-8.6449460">
        <ele>34.4</ele>
        <time>2022-06-18T14:29:43Z</time>
      </trkpt>
      <trkpt lat="42.4320030" lon="-8.6449560">
        <ele>34.4</ele>
        <time>2022-06-18T14:29:44Z</time>
      </trkpt>
      <trkpt lat="42.4320250" lon="-8.6449680">
        <ele>34.4</ele>
        <time>2022-06-18T14:29:45Z</time>
      </trkpt>
      <trkpt lat="42.4320450" lon="-8.6449810">
        <ele>33.6</ele>
        <time>2022-06-18T14:29:46Z</time>
      </trkpt>
      <trkpt lat="42.4320610" lon="-8.6449950">
        <ele>33.4</ele>
        <time>2022-06-18T14:29:47Z</time>
      </trkpt>
      <trkpt lat="42.4320780" lon="-8.6450080">
        <ele>33.4</ele>
        <time>2022-06-18T14:29:48Z</time>
      </trkpt>
      <trkpt lat="42.4320910" lon="-8.6450210">
        <ele>33.4</ele>
        <time>2022-06-18T14:29:49Z</time>
      </trkpt>
      <trkpt lat="42.4321010" lon="-8.6450280">
        <ele>33.4</ele>
        <time>2022-06-18T14:29:50Z</time>
      </trkpt>
      <trkpt lat="42.4321200" lon="-8.6450330">
        <ele>33.0</ele>
        <time>2022-06-18T14:29:51Z</time>
      </trkpt>
      <trkpt lat="42.4321350" lon="-8.6450410">
        <ele>33.0</ele>
        <time>2022-06-18T14:29:52Z</time>
      </trkpt>
      <trkpt lat="42.4321550" lon="-8.6450560">
        <ele>33.0</ele>
        <time>2022-06-18T14:29:53Z</time>
      </trkpt>
      <trkpt lat="42.4321760" lon="-8.6450800">
        <ele>33.0</ele>
        <time>2022-06-18T14:29:54Z</time>
      </trkpt>
      <trkpt lat="42.4322010" lon="-8.6450930">
        <ele>33.2</ele>
        <time>2022-06-18T14:29:55Z</time>
      </trkpt>
      <trkpt lat="42.4322250" lon="-8.6451100">
        <ele>33.2</ele>
        <time>2022-06-18T14:29:56Z</time>
      </trkpt>
      <trkpt lat="42.4322410" lon="-8.6451230">
        <ele>33.2</ele>
        <time>2022-06-18T14:29:57Z</time>
      </trkpt>
      <trkpt lat="42.4322630" lon="-8.6451350">
        <ele>33.2</ele>
        <time>2022-06-18T14:29:58Z</time>
      </trkpt>
      <trkpt lat="42.4322930" lon="-8.6451430">
        <ele>33.4</ele>
        <time>2022-06-18T14:29:59Z</time>
      </trkpt>
      <trkpt lat="42.4323080" lon="-8.6451530">
        <ele>33.4</ele>
        <time>2022-06-18T14:30:00Z</time>
      </trkpt>
      <trkpt lat="42.4323210" lon="-8.6451560">
        <ele>33.4</ele>
        <time>2022-06-18T14:30:01Z</time>
      </trkpt>
      <trkpt lat="42.4323260" lon="-8.6451530">
        <ele>33.0</ele>
        <time>2022-06-18T14:30:02Z</time>
      </trkpt>
      <trkpt lat="42.4323330" lon="-8.6451530">
        <ele>33.0</ele>
        <time>2022-06-18T14:30:03Z</time>
      </trkpt>
      <trkpt lat="42.4323410" lon="-8.6451580">
        <ele>33.0</ele>
        <time>2022-06-18T14:30:04Z</time>
      </trkpt>
      <trkpt lat="42.4323550" lon="-8.6451660">
        <ele>33.0</ele>
        <time>2022-06-18T14:30:05Z</time>
      </trkpt>
      <trkpt lat="42.4323630" lon="-8.6451660">
        <ele>32.0</ele>
        <time>2022-06-18T14:30:06Z</time>
      </trkpt>
      <trkpt lat="42.4323780" lon="-8.6451660">
        <ele>32.0</ele>
        <time>2022-06-18T14:30:07Z</time>
      </trkpt>
      <trkpt lat="42.4323980" lon="-8.6451680">
        <ele>32.0</ele>
        <time>2022-06-18T14:30:08Z</time>
      </trkpt>
      <trkpt lat="42.4324110" lon="-8.6451780">
        <ele>32.0</ele>
        <time>2022-06-18T14:30:09Z</time>
      </trkpt>
      <trkpt lat="42.4324330" lon="-8.6451900">
        <ele>32.0</ele>
        <time>2022-06-18T14:30:10Z</time>
      </trkpt>
      <trkpt lat="42.4324580" lon="-8.6451960">
        <ele>31.4</ele>
        <time>2022-06-18T14:30:11Z</time>
      </trkpt>
      <trkpt lat="42.4324830" lon="-8.6452060">
        <ele>31.4</ele>
        <time>2022-06-18T14:30:12Z</time>
      </trkpt>
      <trkpt lat="42.4325030" lon="-8.6452150">
        <ele>31.4</ele>
        <time>2022-06-18T14:30:13Z</time>
      </trkpt>
      <trkpt lat="42.4325350" lon="-8.6452510">
        <ele>31.4</ele>
        <time>2022-06-18T14:30:14Z</time>
      </trkpt>
      <trkpt lat="42.4325810" lon="-8.6452660">
        <ele>30.8</ele>
        <time>2022-06-18T14:30:15Z</time>
      </trkpt>
      <trkpt lat="42.4326430" lon="-8.6452700">
        <ele>30.8</ele>
        <time>2022-06-18T14:30:16Z</time>
      </trkpt>
      <trkpt lat="42.4327050" lon="-8.6452710">
        <ele>30.8</ele>
        <time>2022-06-18T14:30:17Z</time>
      </trkpt>
      <trkpt lat="42.4327480" lon="-8.6452680">
        <ele>30.6</ele>
        <time>2022-06-18T14:30:18Z</time>
      </trkpt>
      <trkpt lat="42.4327850" lon="-8.6452510">
        <ele>31.2</ele>
        <time>2022-06-18T14:30:19Z</time>
      </trkpt>
      <trkpt lat="42.4328230" lon="-8.6452380">
        <ele>31.2</ele>
        <time>2022-06-18T14:30:20Z</time>
      </trkpt>
      <trkpt lat="42.4328680" lon="-8.6452350">
        <ele>31.2</ele>
        <time>2022-06-18T14:30:21Z</time>
      </trkpt>
      <trkpt lat="42.4328980" lon="-8.6452230">
        <ele>31.0</ele>
        <time>2022-06-18T14:30:22Z</time>
      </trkpt>
      <trkpt lat="42.4329180" lon="-8.6452310">
        <ele>30.4</ele>
        <time>2022-06-18T14:30:23Z</time>
      </trkpt>
      <trkpt lat="42.4329630" lon="-8.6452500">
        <ele>30.4</ele>
        <time>2022-06-18T14:30:24Z</time>
      </trkpt>
      <trkpt lat="42.4330110" lon="-8.6452480">
        <ele>30.4</ele>
        <time>2022-06-18T14:30:25Z</time>
      </trkpt>
      <trkpt lat="42.4330410" lon="-8.6452510">
        <ele>29.8</ele>
        <time>2022-06-18T14:30:26Z</time>
      </trkpt>
      <trkpt lat="42.4330730" lon="-8.6452400">
        <ele>29.8</ele>
        <time>2022-06-18T14:30:27Z</time>
      </trkpt>
      <trkpt lat="42.4331010" lon="-8.6452260">
        <ele>29.8</ele>
        <time>2022-06-18T14:30:28Z</time>
      </trkpt>
      <trkpt lat="42.4331330" lon="-8.6452150">
        <ele>29.8</ele>
        <time>2022-06-18T14:30:29Z</time>
      </trkpt>
      <trkpt lat="42.4331650" lon="-8.6452060">
        <ele>29.6</ele>
        <time>2022-06-18T14:30:30Z</time>
      </trkpt>
      <trkpt lat="42.4331910" lon="-8.6452180">
        <ele>29.2</ele>
        <time>2022-06-18T14:30:31Z</time>
      </trkpt>
      <trkpt lat="42.4332110" lon="-8.6452150">
        <ele>29.2</ele>
        <time>2022-06-18T14:30:32Z</time>
      </trkpt>
      <trkpt lat="42.4332330" lon="-8.6452110">
        <ele>29.2</ele>
        <time>2022-06-18T14:30:33Z</time>
      </trkpt>
      <trkpt lat="42.4332650" lon="-8.6452010">
        <ele>29.2</ele>
        <time>2022-06-18T14:30:34Z</time>
      </trkpt>
      <trkpt lat="42.4333110" lon="-8.6451880">
        <ele>29.0</ele>
        <time>2022-06-18T14:30:35Z</time>
      </trkpt>
      <trkpt lat="42.4333400" lon="-8.6451800">
        <ele>29.0</ele>
        <time>2022-06-18T14:30:36Z</time>
      </trkpt>
      <trkpt lat="42.4333630" lon="-8.6451650">
        <ele>29.0</ele>
        <time>2022-06-18T14:30:37Z</time>
      </trkpt>
      <trkpt lat="42.4333960" lon="-8.6451550">
        <ele>29.0</ele>
        <time>2022-06-18T14:30:38Z</time>
      </trkpt>
      <trkpt lat="42.4334280" lon="-8.6451480">
        <ele>28.8</ele>
        <time>2022-06-18T14:30:39Z</time>
      </trkpt>
      <trkpt lat="42.4334510" lon="-8.6451400">
        <ele>28.8</ele>
        <time>2022-06-18T14:30:40Z</time>
      </trkpt>
      <trkpt lat="42.4334900" lon="-8.6451350">
        <ele>28.8</ele>
        <time>2022-06-18T14:30:41Z</time>
      </trkpt>
      <trkpt lat="42.4335130" lon="-8.6451260">
        <ele>28.0</ele>
        <time>2022-06-18T14:30:42Z</time>
      </trkpt>
      <trkpt lat="42.4335330" lon="-8.6451210">
        <ele>28.0</ele>
        <time>2022-06-18T14:30:43Z</time>
      </trkpt>
      <trkpt lat="42.4335580" lon="-8.6451230">
        <ele>28.0</ele>
        <time>2022-06-18T14:30:44Z</time>
      </trkpt>
      <trkpt lat="42.4336030" lon="-8.6451180">
        <ele>28.0</ele>
        <time>2022-06-18T14:30:45Z</time>
      </trkpt>
      <trkpt lat="42.4336450" lon="-8.6451000">
        <ele>28.0</ele>
        <time>2022-06-18T14:30:46Z</time>
      </trkpt>
      <trkpt lat="42.4336800" lon="-8.6450880">
        <ele>27.4</ele>
        <time>2022-06-18T14:30:47Z</time>
      </trkpt>
      <trkpt lat="42.4337000" lon="-8.6450660">
        <ele>27.4</ele>
        <time>2022-06-18T14:30:48Z</time>
      </trkpt>
      <trkpt lat="42.4337180" lon="-8.6450450">
        <ele>27.4</ele>
        <time>2022-06-18T14:30:49Z</time>
      </trkpt>
      <trkpt lat="42.4337660" lon="-8.6450110">
        <ele>27.4</ele>
        <time>2022-06-18T14:30:50Z</time>
      </trkpt>
      <trkpt lat="42.4338100" lon="-8.6449960">
        <ele>26.4</ele>
        <time>2022-06-18T14:30:51Z</time>
      </trkpt>
      <trkpt lat="42.4338500" lon="-8.6449660">
        <ele>26.4</ele>
        <time>2022-06-18T14:30:52Z</time>
      </trkpt>
      <trkpt lat="42.4338880" lon="-8.6449530">
        <ele>26.4</ele>
        <time>2022-06-18T14:30:53Z</time>
      </trkpt>
      <trkpt lat="42.4339200" lon="-8.6449380">
        <ele>26.4</ele>
        <time>2022-06-18T14:30:54Z</time>
      </trkpt>
      <trkpt lat="42.4339510" lon="-8.6449280">
        <ele>26.2</ele>
        <time>2022-06-18T14:30:55Z</time>
      </trkpt>
      <trkpt lat="42.4339780" lon="-8.6449030">
        <ele>26.2</ele>
        <time>2022-06-18T14:30:56Z</time>
      </trkpt>
      <trkpt lat="42.4340150" lon="-8.6448880">
        <ele>26.2</ele>
        <time>2022-06-18T14:30:57Z</time>
      </trkpt>
      <trkpt lat="42.4340460" lon="-8.6448780">
        <ele>27.0</ele>
        <time>2022-06-18T14:30:58Z</time>
      </trkpt>
      <trkpt lat="42.4340710" lon="-8.6448760">
        <ele>26.8</ele>
        <time>2022-06-18T14:30:59Z</time>
      </trkpt>
      <trkpt lat="42.4340900" lon="-8.6448830">
        <ele>26.8</ele>
        <time>2022-06-18T14:31:00Z</time>
      </trkpt>
      <trkpt lat="42.4340900" lon="-8.6448830">
        <ele>26.8</ele>
        <time>2022-06-18T14:31:01Z</time>
      </trkpt>
      <trkpt lat="42.4341180" lon="-8.6448680">
        <ele>27.0</ele>
        <time>2022-06-18T14:31:02Z</time>
      </trkpt>
      <trkpt lat="42.4341350" lon="-8.6448510">
        <ele>27.0</ele>
        <time>2022-06-18T14:31:03Z</time>
      </trkpt>
      <trkpt lat="42.4341580" lon="-8.6448380">
        <ele>27.0</ele>
        <time>2022-06-18T14:31:04Z</time>
      </trkpt>
      <trkpt lat="42.4341750" lon="-8.6448250">
        <ele>27.0</ele>
        <time>2022-06-18T14:31:05Z</time>
      </trkpt>
      <trkpt lat="42.4341900" lon="-8.6448050">
        <ele>27.0</ele>
        <time>2022-06-18T14:31:06Z</time>
      </trkpt>
      <trkpt lat="42.4342050" lon="-8.6447830">
        <ele>26.4</ele>
        <time>2022-06-18T14:31:07Z</time>
      </trkpt>
      <trkpt lat="42.4342230" lon="-8.6447560">
        <ele>26.4</ele>
        <time>2022-06-18T14:31:08Z</time>
      </trkpt>
      <trkpt lat="42.4342480" lon="-8.6447310">
        <ele>26.4</ele>
        <time>2022-06-18T14:31:09Z</time>
      </trkpt>
      <trkpt lat="42.4342760" lon="-8.6447000">
        <ele>26.4</ele>
        <time>2022-06-18T14:31:10Z</time>
      </trkpt>
      <trkpt lat="42.4343010" lon="-8.6446680">
        <ele>26.4</ele>
        <time>2022-06-18T14:31:11Z</time>
      </trkpt>
      <trkpt lat="42.4343430" lon="-8.6446500">
        <ele>26.4</ele>
        <time>2022-06-18T14:31:12Z</time>
      </trkpt>
      <trkpt lat="42.4343760" lon="-8.6446300">
        <ele>26.4</ele>
        <time>2022-06-18T14:31:13Z</time>
      </trkpt>
      <trkpt lat="42.4344080" lon="-8.6446060">
        <ele>26.4</ele>
        <time>2022-06-18T14:31:14Z</time>
      </trkpt>
      <trkpt lat="42.4344450" lon="-8.6445800">
        <ele>25.8</ele>
        <time>2022-06-18T14:31:15Z</time>
      </trkpt>
      <trkpt lat="42.4344780" lon="-8.6445610">
        <ele>25.8</ele>
        <time>2022-06-18T14:31:16Z</time>
      </trkpt>
      <trkpt lat="42.4345080" lon="-8.6445430">
        <ele>25.8</ele>
        <time>2022-06-18T14:31:17Z</time>
      </trkpt>
      <trkpt lat="42.4345400" lon="-8.6445380">
        <ele>25.8</ele>
        <time>2022-06-18T14:31:18Z</time>
      </trkpt>
      <trkpt lat="42.4345700" lon="-8.6445310">
        <ele>26.4</ele>
        <time>2022-06-18T14:31:19Z</time>
      </trkpt>
      <trkpt lat="42.4346050" lon="-8.6445410">
        <ele>26.4</ele>
        <time>2022-06-18T14:31:20Z</time>
      </trkpt>
      <trkpt lat="42.4346350" lon="-8.6445510">
        <ele>26.4</ele>
        <time>2022-06-18T14:31:21Z</time>
      </trkpt>
      <trkpt lat="42.4346630" lon="-8.6445630">
        <ele>26.4</ele>
        <time>2022-06-18T14:31:22Z</time>
      </trkpt>
      <trkpt lat="42.4346880" lon="-8.6445660">
        <ele>26.0</ele>
        <time>2022-06-18T14:31:23Z</time>
      </trkpt>
      <trkpt lat="42.4347100" lon="-8.6445560">
        <ele>26.0</ele>
        <time>2022-06-18T14:31:24Z</time>
      </trkpt>
      <trkpt lat="42.4347280" lon="-8.6445480">
        <ele>26.0</ele>
        <time>2022-06-18T14:31:25Z</time>
      </trkpt>
      <trkpt lat="42.4347510" lon="-8.6445510">
        <ele>26.6</ele>
        <time>2022-06-18T14:31:26Z</time>
      </trkpt>
      <trkpt lat="42.4347750" lon="-8.6445580">
        <ele>26.4</ele>
        <time>2022-06-18T14:31:27Z</time>
      </trkpt>
      <trkpt lat="42.4347980" lon="-8.6445700">
        <ele>26.4</ele>
        <time>2022-06-18T14:31:28Z</time>
      </trkpt>
      <trkpt lat="42.4348230" lon="-8.6445780">
        <ele>26.4</ele>
        <time>2022-06-18T14:31:29Z</time>
      </trkpt>
      <trkpt lat="42.4348500" lon="-8.6445780">
        <ele>27.0</ele>
        <time>2022-06-18T14:31:30Z</time>
      </trkpt>
      <trkpt lat="42.4348760" lon="-8.6445880">
        <ele>26.8</ele>
        <time>2022-06-18T14:31:31Z</time>
      </trkpt>
      <trkpt lat="42.4348980" lon="-8.6445960">
        <ele>26.8</ele>
        <time>2022-06-18T14:31:32Z</time>
      </trkpt>
      <trkpt lat="42.4349160" lon="-8.6446080">
        <ele>26.8</ele>
        <time>2022-06-18T14:31:33Z</time>
      </trkpt>
      <trkpt lat="42.4349280" lon="-8.6446210">
        <ele>27.2</ele>
        <time>2022-06-18T14:31:34Z</time>
      </trkpt>
      <trkpt lat="42.4349410" lon="-8.6446430">
        <ele>27.2</ele>
        <time>2022-06-18T14:31:35Z</time>
      </trkpt>
      <trkpt lat="42.4349600" lon="-8.6446680">
        <ele>27.2</ele>
        <time>2022-06-18T14:31:36Z</time>
      </trkpt>
      <trkpt lat="42.4349850" lon="-8.6446830">
        <ele>27.2</ele>
        <time>2022-06-18T14:31:37Z</time>
      </trkpt>
      <trkpt lat="42.4350080" lon="-8.6446810">
        <ele>27.2</ele>
        <time>2022-06-18T14:31:38Z</time>
      </trkpt>
      <trkpt lat="42.4350310" lon="-8.6446650">
        <ele>28.4</ele>
        <time>2022-06-18T14:31:39Z</time>
      </trkpt>
      <trkpt lat="42.4350560" lon="-8.6446380">
        <ele>28.4</ele>
        <time>2022-06-18T14:31:40Z</time>
      </trkpt>
      <trkpt lat="42.4350850" lon="-8.6446100">
        <ele>28.4</ele>
        <time>2022-06-18T14:31:41Z</time>
      </trkpt>
      <trkpt lat="42.4351130" lon="-8.6445830">
        <ele>28.0</ele>
        <time>2022-06-18T14:31:42Z</time>
      </trkpt>
      <trkpt lat="42.4351400" lon="-8.6445560">
        <ele>29.0</ele>
        <time>2022-06-18T14:31:43Z</time>
      </trkpt>
      <trkpt lat="42.4351630" lon="-8.6445310">
        <ele>29.0</ele>
        <time>2022-06-18T14:31:44Z</time>
      </trkpt>
      <trkpt lat="42.4351830" lon="-8.6445080">
        <ele>29.0</ele>
        <time>2022-06-18T14:31:45Z</time>
      </trkpt>
      <trkpt lat="42.4352050" lon="-8.6444830">
        <ele>29.0</ele>
        <time>2022-06-18T14:31:46Z</time>
      </trkpt>
      <trkpt lat="42.4352260" lon="-8.6444560">
        <ele>29.8</ele>
        <time>2022-06-18T14:31:47Z</time>
      </trkpt>
      <trkpt lat="42.4352480" lon="-8.6444330">
        <ele>29.8</ele>
        <time>2022-06-18T14:31:48Z</time>
      </trkpt>
      <trkpt lat="42.4352700" lon="-8.6444060">
        <ele>29.8</ele>
        <time>2022-06-18T14:31:49Z</time>
      </trkpt>
      <trkpt lat="42.4352910" lon="-8.6443800">
        <ele>28.8</ele>
        <time>2022-06-18T14:31:50Z</time>
      </trkpt>
      <trkpt lat="42.4353150" lon="-8.6443550">
        <ele>29.2</ele>
        <time>2022-06-18T14:31:51Z</time>
      </trkpt>
      <trkpt lat="42.4353360" lon="-8.6443330">
        <ele>29.2</ele>
        <time>2022-06-18T14:31:52Z</time>
      </trkpt>
      <trkpt lat="42.4353560" lon="-8.6443130">
        <ele>29.2</ele>
        <time>2022-06-18T14:31:53Z</time>
      </trkpt>
      <trkpt lat="42.4353750" lon="-8.6442930">
        <ele>30.2</ele>
        <time>2022-06-18T14:31:54Z</time>
      </trkpt>
      <trkpt lat="42.4353930" lon="-8.6442680">
        <ele>30.4</ele>
        <time>2022-06-18T14:31:55Z</time>
      </trkpt>
      <trkpt lat="42.4354130" lon="-8.6442430">
        <ele>30.4</ele>
        <time>2022-06-18T14:31:56Z</time>
      </trkpt>
      <trkpt lat="42.4354380" lon="-8.6442160">
        <ele>30.4</ele>
        <time>2022-06-18T14:31:57Z</time>
      </trkpt>
      <trkpt lat="42.4354630" lon="-8.6441930">
        <ele>29.4</ele>
        <time>2022-06-18T14:31:58Z</time>
      </trkpt>
      <trkpt lat="42.4354880" lon="-8.6441710">
        <ele>29.6</ele>
        <time>2022-06-18T14:31:59Z</time>
      </trkpt>
      <trkpt lat="42.4355150" lon="-8.6441480">
        <ele>29.6</ele>
        <time>2022-06-18T14:32:00Z</time>
      </trkpt>
      <trkpt lat="42.4355360" lon="-8.6441250">
        <ele>29.6</ele>
        <time>2022-06-18T14:32:01Z</time>
      </trkpt>
      <trkpt lat="42.4355580" lon="-8.6441030">
        <ele>29.6</ele>
        <time>2022-06-18T14:32:02Z</time>
      </trkpt>
      <trkpt lat="42.4355780" lon="-8.6440800">
        <ele>29.6</ele>
        <time>2022-06-18T14:32:03Z</time>
      </trkpt>
      <trkpt lat="42.4355960" lon="-8.6440550">
        <ele>29.6</ele>
        <time>2022-06-18T14:32:04Z</time>
      </trkpt>
      <trkpt lat="42.4356150" lon="-8.6440280">
        <ele>29.6</ele>
        <time>2022-06-18T14:32:05Z</time>
      </trkpt>
      <trkpt lat="42.4356350" lon="-8.6440050">
        <ele>29.6</ele>
        <time>2022-06-18T14:32:06Z</time>
      </trkpt>
      <trkpt lat="42.4356580" lon="-8.6439850">
        <ele>29.2</ele>
        <time>2022-06-18T14:32:07Z</time>
      </trkpt>
      <trkpt lat="42.4356830" lon="-8.6439630">
        <ele>29.2</ele>
        <time>2022-06-18T14:32:08Z</time>
      </trkpt>
      <trkpt lat="42.4357060" lon="-8.6439450">
        <ele>29.2</ele>
        <time>2022-06-18T14:32:09Z</time>
      </trkpt>
      <trkpt lat="42.4357330" lon="-8.6439350">
        <ele>29.4</ele>
        <time>2022-06-18T14:32:10Z</time>
      </trkpt>
      <trkpt lat="42.4357610" lon="-8.6439260">
        <ele>28.8</ele>
        <time>2022-06-18T14:32:11Z</time>
      </trkpt>
      <trkpt lat="42.4357860" lon="-8.6439060">
        <ele>28.8</ele>
        <time>2022-06-18T14:32:12Z</time>
      </trkpt>
      <trkpt lat="42.4358110" lon="-8.6438810">
        <ele>28.8</ele>
        <time>2022-06-18T14:32:13Z</time>
      </trkpt>
      <trkpt lat="42.4358410" lon="-8.6438650">
        <ele>28.8</ele>
        <time>2022-06-18T14:32:14Z</time>
      </trkpt>
      <trkpt lat="42.4358680" lon="-8.6438460">
        <ele>28.6</ele>
        <time>2022-06-18T14:32:15Z</time>
      </trkpt>
      <trkpt lat="42.4358910" lon="-8.6438230">
        <ele>28.6</ele>
        <time>2022-06-18T14:32:16Z</time>
      </trkpt>
      <trkpt lat="42.4359130" lon="-8.6437930">
        <ele>28.6</ele>
        <time>2022-06-18T14:32:17Z</time>
      </trkpt>
      <trkpt lat="42.4359360" lon="-8.6437650">
        <ele>28.6</ele>
        <time>2022-06-18T14:32:18Z</time>
      </trkpt>
      <trkpt lat="42.4359600" lon="-8.6437380">
        <ele>28.6</ele>
        <time>2022-06-18T14:32:19Z</time>
      </trkpt>
      <trkpt lat="42.4359860" lon="-8.6437110">
        <ele>28.6</ele>
        <time>2022-06-18T14:32:20Z</time>
      </trkpt>
      <trkpt lat="42.4360150" lon="-8.6436800">
        <ele>28.6</ele>
        <time>2022-06-18T14:32:21Z</time>
      </trkpt>
      <trkpt lat="42.4360400" lon="-8.6436410">
        <ele>28.0</ele>
        <time>2022-06-18T14:32:22Z</time>
      </trkpt>
      <trkpt lat="42.4360700" lon="-8.6436110">
        <ele>28.0</ele>
        <time>2022-06-18T14:32:23Z</time>
      </trkpt>
      <trkpt lat="42.4361060" lon="-8.6435910">
        <ele>28.0</ele>
        <time>2022-06-18T14:32:24Z</time>
      </trkpt>
      <trkpt lat="42.4361430" lon="-8.6435730">
        <ele>28.0</ele>
        <time>2022-06-18T14:32:25Z</time>
      </trkpt>
      <trkpt lat="42.4361760" lon="-8.6435480">
        <ele>27.6</ele>
        <time>2022-06-18T14:32:26Z</time>
      </trkpt>
      <trkpt lat="42.4362110" lon="-8.6435210">
        <ele>27.2</ele>
        <time>2022-06-18T14:32:27Z</time>
      </trkpt>
      <trkpt lat="42.4362480" lon="-8.6434960">
        <ele>27.2</ele>
        <time>2022-06-18T14:32:28Z</time>
      </trkpt>
      <trkpt lat="42.4362850" lon="-8.6434700">
        <ele>27.2</ele>
        <time>2022-06-18T14:32:29Z</time>
      </trkpt>
      <trkpt lat="42.4363180" lon="-8.6434410">
        <ele>27.2</ele>
        <time>2022-06-18T14:32:30Z</time>
      </trkpt>
      <trkpt lat="42.4363500" lon="-8.6434110">
        <ele>27.4</ele>
        <time>2022-06-18T14:32:31Z</time>
      </trkpt>
      <trkpt lat="42.4363760" lon="-8.6433810">
        <ele>27.4</ele>
        <time>2022-06-18T14:32:32Z</time>
      </trkpt>
      <trkpt lat="42.4364010" lon="-8.6433560">
        <ele>27.4</ele>
        <time>2022-06-18T14:32:33Z</time>
      </trkpt>
      <trkpt lat="42.4364300" lon="-8.6433450">
        <ele>27.6</ele>
        <time>2022-06-18T14:32:34Z</time>
      </trkpt>
      <trkpt lat="42.4364580" lon="-8.6433500">
        <ele>27.2</ele>
        <time>2022-06-18T14:32:35Z</time>
      </trkpt>
      <trkpt lat="42.4364800" lon="-8.6433650">
        <ele>27.2</ele>
        <time>2022-06-18T14:32:36Z</time>
      </trkpt>
      <trkpt lat="42.4365010" lon="-8.6433780">
        <ele>27.2</ele>
        <time>2022-06-18T14:32:37Z</time>
      </trkpt>
      <trkpt lat="42.4365300" lon="-8.6433760">
        <ele>27.0</ele>
        <time>2022-06-18T14:32:38Z</time>
      </trkpt>
      <trkpt lat="42.4365600" lon="-8.6433630">
        <ele>26.6</ele>
        <time>2022-06-18T14:32:39Z</time>
      </trkpt>
      <trkpt lat="42.4365900" lon="-8.6433480">
        <ele>26.6</ele>
        <time>2022-06-18T14:32:40Z</time>
      </trkpt>
      <trkpt lat="42.4366230" lon="-8.6433300">
        <ele>26.6</ele>
        <time>2022-06-18T14:32:41Z</time>
      </trkpt>
      <trkpt lat="42.4366580" lon="-8.6433100">
        <ele>26.6</ele>
        <time>2022-06-18T14:32:42Z</time>
      </trkpt>
      <trkpt lat="42.4366900" lon="-8.6432900">
        <ele>27.0</ele>
        <time>2022-06-18T14:32:43Z</time>
      </trkpt>
      <trkpt lat="42.4367210" lon="-8.6432680">
        <ele>27.0</ele>
        <time>2022-06-18T14:32:44Z</time>
      </trkpt>
      <trkpt lat="42.4367530" lon="-8.6432500">
        <ele>27.0</ele>
        <time>2022-06-18T14:32:45Z</time>
      </trkpt>
      <trkpt lat="42.4367850" lon="-8.6432460">
        <ele>27.0</ele>
        <time>2022-06-18T14:32:46Z</time>
      </trkpt>
      <trkpt lat="42.4368160" lon="-8.6432380">
        <ele>27.4</ele>
        <time>2022-06-18T14:32:47Z</time>
      </trkpt>
      <trkpt lat="42.4368500" lon="-8.6432300">
        <ele>27.4</ele>
        <time>2022-06-18T14:32:48Z</time>
      </trkpt>
      <trkpt lat="42.4368800" lon="-8.6432230">
        <ele>27.4</ele>
        <time>2022-06-18T14:32:49Z</time>
      </trkpt>
      <trkpt lat="42.4369010" lon="-8.6432110">
        <ele>27.0</ele>
        <time>2022-06-18T14:32:50Z</time>
      </trkpt>
      <trkpt lat="42.4369250" lon="-8.6432110">
        <ele>27.6</ele>
        <time>2022-06-18T14:32:51Z</time>
      </trkpt>
      <trkpt lat="42.4369500" lon="-8.6432160">
        <ele>27.6</ele>
        <time>2022-06-18T14:32:52Z</time>
      </trkpt>
      <trkpt lat="42.4369730" lon="-8.6432210">
        <ele>27.6</ele>
        <time>2022-06-18T14:32:53Z</time>
      </trkpt>
      <trkpt lat="42.4370000" lon="-8.6432310">
        <ele>27.0</ele>
        <time>2022-06-18T14:32:54Z</time>
      </trkpt>
      <trkpt lat="42.4370230" lon="-8.6432550">
        <ele>27.8</ele>
        <time>2022-06-18T14:32:55Z</time>
      </trkpt>
      <trkpt lat="42.4370400" lon="-8.6432910">
        <ele>27.8</ele>
        <time>2022-06-18T14:32:56Z</time>
      </trkpt>
      <trkpt lat="42.4370580" lon="-8.6433310">
        <ele>27.8</ele>
        <time>2022-06-18T14:32:57Z</time>
      </trkpt>
      <trkpt lat="42.4370760" lon="-8.6433630">
        <ele>27.8</ele>
        <time>2022-06-18T14:32:58Z</time>
      </trkpt>
      <trkpt lat="42.4370980" lon="-8.6433810">
        <ele>26.4</ele>
        <time>2022-06-18T14:32:59Z</time>
      </trkpt>
      <trkpt lat="42.4371230" lon="-8.6433980">
        <ele>26.4</ele>
        <time>2022-06-18T14:33:00Z</time>
      </trkpt>
      <trkpt lat="42.4371480" lon="-8.6434100">
        <ele>26.4</ele>
        <time>2022-06-18T14:33:01Z</time>
      </trkpt>
      <trkpt lat="42.4371730" lon="-8.6434110">
        <ele>26.4</ele>
        <time>2022-06-18T14:33:02Z</time>
      </trkpt>
      <trkpt lat="42.4371980" lon="-8.6434150">
        <ele>26.6</ele>
        <time>2022-06-18T14:33:03Z</time>
      </trkpt>
      <trkpt lat="42.4372160" lon="-8.6434200">
        <ele>26.6</ele>
        <time>2022-06-18T14:33:04Z</time>
      </trkpt>
      <trkpt lat="42.4372360" lon="-8.6434210">
        <ele>26.6</ele>
        <time>2022-06-18T14:33:05Z</time>
      </trkpt>
      <trkpt lat="42.4372560" lon="-8.6434330">
        <ele>27.0</ele>
        <time>2022-06-18T14:33:06Z</time>
      </trkpt>
      <trkpt lat="42.4372830" lon="-8.6434330">
        <ele>27.2</ele>
        <time>2022-06-18T14:33:07Z</time>
      </trkpt>
      <trkpt lat="42.4373000" lon="-8.6434400">
        <ele>27.2</ele>
        <time>2022-06-18T14:33:08Z</time>
      </trkpt>
      <trkpt lat="42.4373260" lon="-8.6434360">
        <ele>27.2</ele>
        <time>2022-06-18T14:33:09Z</time>
      </trkpt>
      <trkpt lat="42.4373480" lon="-8.6434380">
        <ele>27.2</ele>
        <time>2022-06-18T14:33:10Z</time>
      </trkpt>
      <trkpt lat="42.4373680" lon="-8.6434250">
        <ele>27.6</ele>
        <time>2022-06-18T14:33:11Z</time>
      </trkpt>
      <trkpt lat="42.4373850" lon="-8.6434260">
        <ele>27.6</ele>
        <time>2022-06-18T14:33:12Z</time>
      </trkpt>
      <trkpt lat="42.4374060" lon="-8.6434210">
        <ele>27.6</ele>
        <time>2022-06-18T14:33:13Z</time>
      </trkpt>
      <trkpt lat="42.4374500" lon="-8.6433950">
        <ele>27.6</ele>
        <time>2022-06-18T14:33:14Z</time>
      </trkpt>
      <trkpt lat="42.4374850" lon="-8.6433860">
        <ele>27.2</ele>
        <time>2022-06-18T14:33:15Z</time>
      </trkpt>
      <trkpt lat="42.4375130" lon="-8.6433760">
        <ele>27.2</ele>
        <time>2022-06-18T14:33:16Z</time>
      </trkpt>
      <trkpt lat="42.4375360" lon="-8.6433650">
        <ele>27.2</ele>
        <time>2022-06-18T14:33:17Z</time>
      </trkpt>
      <trkpt lat="42.4375660" lon="-8.6433630">
        <ele>27.2</ele>
        <time>2022-06-18T14:33:18Z</time>
      </trkpt>
      <trkpt lat="42.4376100" lon="-8.6433610">
        <ele>27.4</ele>
        <time>2022-06-18T14:33:19Z</time>
      </trkpt>
      <trkpt lat="42.4376350" lon="-8.6433600">
        <ele>27.4</ele>
        <time>2022-06-18T14:33:20Z</time>
      </trkpt>
      <trkpt lat="42.4376580" lon="-8.6433650">
        <ele>27.4</ele>
        <time>2022-06-18T14:33:21Z</time>
      </trkpt>
      <trkpt lat="42.4376830" lon="-8.6433660">
        <ele>27.4</ele>
        <time>2022-06-18T14:33:22Z</time>
      </trkpt>
      <trkpt lat="42.4377160" lon="-8.6433580">
        <ele>27.8</ele>
        <time>2022-06-18T14:33:23Z</time>
      </trkpt>
      <trkpt lat="42.4377550" lon="-8.6433550">
        <ele>27.8</ele>
        <time>2022-06-18T14:33:24Z</time>
      </trkpt>
      <trkpt lat="42.4377930" lon="-8.6433550">
        <ele>27.8</ele>
        <time>2022-06-18T14:33:25Z</time>
      </trkpt>
      <trkpt lat="42.4378250" lon="-8.6433400">
        <ele>28.8</ele>
        <time>2022-06-18T14:33:26Z</time>
      </trkpt>
      <trkpt lat="42.4378560" lon="-8.6433200">
        <ele>30.2</ele>
        <time>2022-06-18T14:33:27Z</time>
      </trkpt>
      <trkpt lat="42.4378850" lon="-8.6432960">
        <ele>30.2</ele>
        <time>2022-06-18T14:33:28Z</time>
      </trkpt>
      <trkpt lat="42.4379080" lon="-8.6432710">
        <ele>30.2</ele>
        <time>2022-06-18T14:33:29Z</time>
      </trkpt>
      <trkpt lat="42.4379360" lon="-8.6432560">
        <ele>29.8</ele>
        <time>2022-06-18T14:33:30Z</time>
      </trkpt>
      <trkpt lat="42.4379650" lon="-8.6432260">
        <ele>29.4</ele>
        <time>2022-06-18T14:33:31Z</time>
      </trkpt>
      <trkpt lat="42.4379910" lon="-8.6432000">
        <ele>29.4</ele>
        <time>2022-06-18T14:33:32Z</time>
      </trkpt>
      <trkpt lat="42.4380200" lon="-8.6431760">
        <ele>29.4</ele>
        <time>2022-06-18T14:33:33Z</time>
      </trkpt>
      <trkpt lat="42.4380460" lon="-8.6431560">
        <ele>30.0</ele>
        <time>2022-06-18T14:33:34Z</time>
      </trkpt>
      <trkpt lat="42.4380760" lon="-8.6431400">
        <ele>30.4</ele>
        <time>2022-06-18T14:33:35Z</time>
      </trkpt>
      <trkpt lat="42.4381150" lon="-8.6431180">
        <ele>30.4</ele>
        <time>2022-06-18T14:33:36Z</time>
      </trkpt>
      <trkpt lat="42.4381430" lon="-8.6430910">
        <ele>30.4</ele>
        <time>2022-06-18T14:33:37Z</time>
      </trkpt>
      <trkpt lat="42.4381730" lon="-8.6430700">
        <ele>30.4</ele>
        <time>2022-06-18T14:33:38Z</time>
      </trkpt>
      <trkpt lat="42.4381880" lon="-8.6430500">
        <ele>31.2</ele>
        <time>2022-06-18T14:33:39Z</time>
      </trkpt>
      <trkpt lat="42.4382000" lon="-8.6430510">
        <ele>31.2</ele>
        <time>2022-06-18T14:33:40Z</time>
      </trkpt>
      <trkpt lat="42.4382310" lon="-8.6430780">
        <ele>31.2</ele>
        <time>2022-06-18T14:33:41Z</time>
      </trkpt>
      <trkpt lat="42.4382630" lon="-8.6430780">
        <ele>31.2</ele>
        <time>2022-06-18T14:33:42Z</time>
      </trkpt>
      <trkpt lat="42.4382960" lon="-8.6430780">
        <ele>31.2</ele>
        <time>2022-06-18T14:33:43Z</time>
      </trkpt>
      <trkpt lat="42.4383230" lon="-8.6430730">
        <ele>31.2</ele>
        <time>2022-06-18T14:33:44Z</time>
      </trkpt>
      <trkpt lat="42.4383500" lon="-8.6430710">
        <ele>31.2</ele>
        <time>2022-06-18T14:33:45Z</time>
      </trkpt>
      <trkpt lat="42.4383830" lon="-8.6430650">
        <ele>31.0</ele>
        <time>2022-06-18T14:33:46Z</time>
      </trkpt>
      <trkpt lat="42.4384050" lon="-8.6430610">
        <ele>31.8</ele>
        <time>2022-06-18T14:33:47Z</time>
      </trkpt>
      <trkpt lat="42.4384360" lon="-8.6430650">
        <ele>31.8</ele>
        <time>2022-06-18T14:33:48Z</time>
      </trkpt>
      <trkpt lat="42.4384700" lon="-8.6430660">
        <ele>31.8</ele>
        <time>2022-06-18T14:33:49Z</time>
      </trkpt>
      <trkpt lat="42.4385050" lon="-8.6430710">
        <ele>31.8</ele>
        <time>2022-06-18T14:33:50Z</time>
      </trkpt>
      <trkpt lat="42.4385460" lon="-8.6430660">
        <ele>32.0</ele>
        <time>2022-06-18T14:33:51Z</time>
      </trkpt>
      <trkpt lat="42.4385800" lon="-8.6430650">
        <ele>32.0</ele>
        <time>2022-06-18T14:33:52Z</time>
      </trkpt>
      <trkpt lat="42.4386130" lon="-8.6430610">
        <ele>32.0</ele>
        <time>2022-06-18T14:33:53Z</time>
      </trkpt>
      <trkpt lat="42.4386480" lon="-8.6430480">
        <ele>32.4</ele>
        <time>2022-06-18T14:33:54Z</time>
      </trkpt>
      <trkpt lat="42.4386860" lon="-8.6430380">
        <ele>32.2</ele>
        <time>2022-06-18T14:33:55Z</time>
      </trkpt>
      <trkpt lat="42.4387260" lon="-8.6430180">
        <ele>32.2</ele>
        <time>2022-06-18T14:33:56Z</time>
      </trkpt>
      <trkpt lat="42.4387600" lon="-8.6429850">
        <ele>32.2</ele>
        <time>2022-06-18T14:33:57Z</time>
      </trkpt>
      <trkpt lat="42.4388030" lon="-8.6429650">
        <ele>32.2</ele>
        <time>2022-06-18T14:33:58Z</time>
      </trkpt>
      <trkpt lat="42.4388400" lon="-8.6429580">
        <ele>32.0</ele>
        <time>2022-06-18T14:33:59Z</time>
      </trkpt>
      <trkpt lat="42.4388710" lon="-8.6429530">
        <ele>32.0</ele>
        <time>2022-06-18T14:34:00Z</time>
      </trkpt>
      <trkpt lat="42.4389010" lon="-8.6429430">
        <ele>32.0</ele>
        <time>2022-06-18T14:34:01Z</time>
      </trkpt>
      <trkpt lat="42.4389350" lon="-8.6429310">
        <ele>32.0</ele>
        <time>2022-06-18T14:34:02Z</time>
      </trkpt>
      <trkpt lat="42.4389680" lon="-8.6429180">
        <ele>32.2</ele>
        <time>2022-06-18T14:34:03Z</time>
      </trkpt>
      <trkpt lat="42.4389980" lon="-8.6429110">
        <ele>32.2</ele>
        <time>2022-06-18T14:34:04Z</time>
      </trkpt>
      <trkpt lat="42.4390310" lon="-8.6429130">
        <ele>32.2</ele>
        <time>2022-06-18T14:34:05Z</time>
      </trkpt>
      <trkpt lat="42.4390560" lon="-8.6429060">
        <ele>32.2</ele>
        <time>2022-06-18T14:34:06Z</time>
      </trkpt>
      <trkpt lat="42.4390800" lon="-8.6428930">
        <ele>33.2</ele>
        <time>2022-06-18T14:34:07Z</time>
      </trkpt>
      <trkpt lat="42.4391060" lon="-8.6428760">
        <ele>33.2</ele>
        <time>2022-06-18T14:34:08Z</time>
      </trkpt>
      <trkpt lat="42.4391330" lon="-8.6428560">
        <ele>33.2</ele>
        <time>2022-06-18T14:34:09Z</time>
      </trkpt>
      <trkpt lat="42.4391580" lon="-8.6428400">
        <ele>33.2</ele>
        <time>2022-06-18T14:34:10Z</time>
      </trkpt>
      <trkpt lat="42.4391880" lon="-8.6428400">
        <ele>33.2</ele>
        <time>2022-06-18T14:34:11Z</time>
      </trkpt>
      <trkpt lat="42.4392210" lon="-8.6428450">
        <ele>33.2</ele>
        <time>2022-06-18T14:34:12Z</time>
      </trkpt>
      <trkpt lat="42.4392510" lon="-8.6428380">
        <ele>33.2</ele>
        <time>2022-06-18T14:34:13Z</time>
      </trkpt>
      <trkpt lat="42.4392830" lon="-8.6428260">
        <ele>33.4</ele>
        <time>2022-06-18T14:34:14Z</time>
      </trkpt>
      <trkpt lat="42.4393200" lon="-8.6428080">
        <ele>33.2</ele>
        <time>2022-06-18T14:34:15Z</time>
      </trkpt>
      <trkpt lat="42.4393630" lon="-8.6427900">
        <ele>33.2</ele>
        <time>2022-06-18T14:34:16Z</time>
      </trkpt>
      <trkpt lat="42.4393980" lon="-8.6427760">
        <ele>33.2</ele>
        <time>2022-06-18T14:34:17Z</time>
      </trkpt>
      <trkpt lat="42.4394380" lon="-8.6427680">
        <ele>33.6</ele>
        <time>2022-06-18T14:34:18Z</time>
      </trkpt>
      <trkpt lat="42.4394750" lon="-8.6427550">
        <ele>33.8</ele>
        <time>2022-06-18T14:34:19Z</time>
      </trkpt>
      <trkpt lat="42.4395080" lon="-8.6427450">
        <ele>33.8</ele>
        <time>2022-06-18T14:34:20Z</time>
      </trkpt>
      <trkpt lat="42.4395380" lon="-8.6427300">
        <ele>33.8</ele>
        <time>2022-06-18T14:34:21Z</time>
      </trkpt>
      <trkpt lat="42.4395780" lon="-8.6427200">
        <ele>33.0</ele>
        <time>2022-06-18T14:34:22Z</time>
      </trkpt>
      <trkpt lat="42.4396180" lon="-8.6427110">
        <ele>33.0</ele>
        <time>2022-06-18T14:34:23Z</time>
      </trkpt>
      <trkpt lat="42.4396630" lon="-8.6426900">
        <ele>33.0</ele>
        <time>2022-06-18T14:34:24Z</time>
      </trkpt>
      <trkpt lat="42.4397050" lon="-8.6426700">
        <ele>33.0</ele>
        <time>2022-06-18T14:34:25Z</time>
      </trkpt>
      <trkpt lat="42.4397450" lon="-8.6426600">
        <ele>33.8</ele>
        <time>2022-06-18T14:34:26Z</time>
      </trkpt>
      <trkpt lat="42.4397780" lon="-8.6426510">
        <ele>33.8</ele>
        <time>2022-06-18T14:34:27Z</time>
      </trkpt>
      <trkpt lat="42.4398110" lon="-8.6426500">
        <ele>33.8</ele>
        <time>2022-06-18T14:34:28Z</time>
      </trkpt>
      <trkpt lat="42.4398450" lon="-8.6426450">
        <ele>33.8</ele>
        <time>2022-06-18T14:34:29Z</time>
      </trkpt>
      <trkpt lat="42.4398750" lon="-8.6426460">
        <ele>34.0</ele>
        <time>2022-06-18T14:34:30Z</time>
      </trkpt>
      <trkpt lat="42.4399060" lon="-8.6426460">
        <ele>34.0</ele>
        <time>2022-06-18T14:34:31Z</time>
      </trkpt>
      <trkpt lat="42.4399380" lon="-8.6426430">
        <ele>34.0</ele>
        <time>2022-06-18T14:34:32Z</time>
      </trkpt>
      <trkpt lat="42.4399710" lon="-8.6426330">
        <ele>34.0</ele>
        <time>2022-06-18T14:34:33Z</time>
      </trkpt>
      <trkpt lat="42.4400080" lon="-8.6426200">
        <ele>34.2</ele>
        <time>2022-06-18T14:34:34Z</time>
      </trkpt>
      <trkpt lat="42.4400410" lon="-8.6426100">
        <ele>34.4</ele>
        <time>2022-06-18T14:34:35Z</time>
      </trkpt>
      <trkpt lat="42.4400660" lon="-8.6425910">
        <ele>34.4</ele>
        <time>2022-06-18T14:34:36Z</time>
      </trkpt>
      <trkpt lat="42.4400930" lon="-8.6425800">
        <ele>34.4</ele>
        <time>2022-06-18T14:34:37Z</time>
      </trkpt>
      <trkpt lat="42.4401200" lon="-8.6425860">
        <ele>34.4</ele>
        <time>2022-06-18T14:34:38Z</time>
      </trkpt>
      <trkpt lat="42.4401550" lon="-8.6425760">
        <ele>34.6</ele>
        <time>2022-06-18T14:34:39Z</time>
      </trkpt>
      <trkpt lat="42.4401930" lon="-8.6425680">
        <ele>34.6</ele>
        <time>2022-06-18T14:34:40Z</time>
      </trkpt>
      <trkpt lat="42.4402280" lon="-8.6425800">
        <ele>34.6</ele>
        <time>2022-06-18T14:34:41Z</time>
      </trkpt>
      <trkpt lat="42.4402650" lon="-8.6426000">
        <ele>34.6</ele>
        <time>2022-06-18T14:34:42Z</time>
      </trkpt>
      <trkpt lat="42.4402950" lon="-8.6426210">
        <ele>34.2</ele>
        <time>2022-06-18T14:34:43Z</time>
      </trkpt>
      <trkpt lat="42.4403260" lon="-8.6426410">
        <ele>34.2</ele>
        <time>2022-06-18T14:34:44Z</time>
      </trkpt>
      <trkpt lat="42.4403610" lon="-8.6426550">
        <ele>34.2</ele>
        <time>2022-06-18T14:34:45Z</time>
      </trkpt>
      <trkpt lat="42.4403980" lon="-8.6426680">
        <ele>34.2</ele>
        <time>2022-06-18T14:34:46Z</time>
      </trkpt>
      <trkpt lat="42.4404330" lon="-8.6426810">
        <ele>34.8</ele>
        <time>2022-06-18T14:34:47Z</time>
      </trkpt>
      <trkpt lat="42.4404660" lon="-8.6426950">
        <ele>34.8</ele>
        <time>2022-06-18T14:34:48Z</time>
      </trkpt>
      <trkpt lat="42.4405050" lon="-8.6427010">
        <ele>34.8</ele>
        <time>2022-06-18T14:34:49Z</time>
      </trkpt>
      <trkpt lat="42.4405460" lon="-8.6427060">
        <ele>35.2</ele>
        <time>2022-06-18T14:34:50Z</time>
      </trkpt>
      <trkpt lat="42.4405830" lon="-8.6427150">
        <ele>35.2</ele>
        <time>2022-06-18T14:34:51Z</time>
      </trkpt>
      <trkpt lat="42.4406200" lon="-8.6427210">
        <ele>35.2</ele>
        <time>2022-06-18T14:34:52Z</time>
      </trkpt>
      <trkpt lat="42.4406510" lon="-8.6427380">
        <ele>35.2</ele>
        <time>2022-06-18T14:34:53Z</time>
      </trkpt>
      <trkpt lat="42.4406850" lon="-8.6427510">
        <ele>35.2</ele>
        <time>2022-06-18T14:34:54Z</time>
      </trkpt>
      <trkpt lat="42.4407210" lon="-8.6427650">
        <ele>35.2</ele>
        <time>2022-06-18T14:34:55Z</time>
      </trkpt>
      <trkpt lat="42.4407530" lon="-8.6427760">
        <ele>35.2</ele>
        <time>2022-06-18T14:34:56Z</time>
      </trkpt>
      <trkpt lat="42.4407810" lon="-8.6427910">
        <ele>35.2</ele>
        <time>2022-06-18T14:34:57Z</time>
      </trkpt>
      <trkpt lat="42.4408080" lon="-8.6428080">
        <ele>36.2</ele>
        <time>2022-06-18T14:34:58Z</time>
      </trkpt>
      <trkpt lat="42.4408350" lon="-8.6428230">
        <ele>37.2</ele>
        <time>2022-06-18T14:34:59Z</time>
      </trkpt>
      <trkpt lat="42.4408600" lon="-8.6428400">
        <ele>37.2</ele>
        <time>2022-06-18T14:35:00Z</time>
      </trkpt>
      <trkpt lat="42.4408850" lon="-8.6428550">
        <ele>37.2</ele>
        <time>2022-06-18T14:35:01Z</time>
      </trkpt>
      <trkpt lat="42.4409130" lon="-8.6428610">
        <ele>38.2</ele>
        <time>2022-06-18T14:35:02Z</time>
      </trkpt>
      <trkpt lat="42.4409380" lon="-8.6428650">
        <ele>38.0</ele>
        <time>2022-06-18T14:35:03Z</time>
      </trkpt>
      <trkpt lat="42.4409580" lon="-8.6428660">
        <ele>38.0</ele>
        <time>2022-06-18T14:35:04Z</time>
      </trkpt>
      <trkpt lat="42.4409810" lon="-8.6428730">
        <ele>38.0</ele>
        <time>2022-06-18T14:35:05Z</time>
      </trkpt>
      <trkpt lat="42.4409980" lon="-8.6428800">
        <ele>37.6</ele>
        <time>2022-06-18T14:35:06Z</time>
      </trkpt>
      <trkpt lat="42.4410060" lon="-8.6428930">
        <ele>37.8</ele>
        <time>2022-06-18T14:35:07Z</time>
      </trkpt>
      <trkpt lat="42.4410130" lon="-8.6429060">
        <ele>37.8</ele>
        <time>2022-06-18T14:35:08Z</time>
      </trkpt>
      <trkpt lat="42.4410250" lon="-8.6429130">
        <ele>37.8</ele>
        <time>2022-06-18T14:35:09Z</time>
      </trkpt>
      <trkpt lat="42.4410380" lon="-8.6429110">
        <ele>37.8</ele>
        <time>2022-06-18T14:35:10Z</time>
      </trkpt>
      <trkpt lat="42.4410510" lon="-8.6429110">
        <ele>38.0</ele>
        <time>2022-06-18T14:35:11Z</time>
      </trkpt>
      <trkpt lat="42.4410660" lon="-8.6429080">
        <ele>38.0</ele>
        <time>2022-06-18T14:35:12Z</time>
      </trkpt>
      <trkpt lat="42.4410800" lon="-8.6429080">
        <ele>38.0</ele>
        <time>2022-06-18T14:35:13Z</time>
      </trkpt>
      <trkpt lat="42.4410910" lon="-8.6429050">
        <ele>38.0</ele>
        <time>2022-06-18T14:35:14Z</time>
      </trkpt>
      <trkpt lat="42.4411030" lon="-8.6429010">
        <ele>38.0</ele>
        <time>2022-06-18T14:35:15Z</time>
      </trkpt>
      <trkpt lat="42.4411210" lon="-8.6429030">
        <ele>38.0</ele>
        <time>2022-06-18T14:35:16Z</time>
      </trkpt>
      <trkpt lat="42.4411400" lon="-8.6429080">
        <ele>38.0</ele>
        <time>2022-06-18T14:35:17Z</time>
      </trkpt>
      <trkpt lat="42.4411630" lon="-8.6429110">
        <ele>37.6</ele>
        <time>2022-06-18T14:35:18Z</time>
      </trkpt>
      <trkpt lat="42.4411880" lon="-8.6429210">
        <ele>37.2</ele>
        <time>2022-06-18T14:35:19Z</time>
      </trkpt>
      <trkpt lat="42.4412180" lon="-8.6429300">
        <ele>37.2</ele>
        <time>2022-06-18T14:35:20Z</time>
      </trkpt>
      <trkpt lat="42.4412510" lon="-8.6429360">
        <ele>37.2</ele>
        <time>2022-06-18T14:35:21Z</time>
      </trkpt>
      <trkpt lat="42.4412880" lon="-8.6429450">
        <ele>37.2</ele>
        <time>2022-06-18T14:35:22Z</time>
      </trkpt>
      <trkpt lat="42.4413250" lon="-8.6429480">
        <ele>36.2</ele>
        <time>2022-06-18T14:35:23Z</time>
      </trkpt>
      <trkpt lat="42.4413600" lon="-8.6429480">
        <ele>36.2</ele>
        <time>2022-06-18T14:35:24Z</time>
      </trkpt>
      <trkpt lat="42.4413930" lon="-8.6429460">
        <ele>36.2</ele>
        <time>2022-06-18T14:35:25Z</time>
      </trkpt>
      <trkpt lat="42.4414310" lon="-8.6429530">
        <ele>36.2</ele>
        <time>2022-06-18T14:35:26Z</time>
      </trkpt>
      <trkpt lat="42.4414800" lon="-8.6429750">
        <ele>35.6</ele>
        <time>2022-06-18T14:35:27Z</time>
      </trkpt>
      <trkpt lat="42.4415260" lon="-8.6429760">
        <ele>35.6</ele>
        <time>2022-06-18T14:35:28Z</time>
      </trkpt>
      <trkpt lat="42.4415660" lon="-8.6429750">
        <ele>35.6</ele>
        <time>2022-06-18T14:35:29Z</time>
      </trkpt>
      <trkpt lat="42.4416000" lon="-8.6429710">
        <ele>35.6</ele>
        <time>2022-06-18T14:35:30Z</time>
      </trkpt>
      <trkpt lat="42.4416360" lon="-8.6429680">
        <ele>34.6</ele>
        <time>2022-06-18T14:35:31Z</time>
      </trkpt>
      <trkpt lat="42.4416750" lon="-8.6429680">
        <ele>34.6</ele>
        <time>2022-06-18T14:35:32Z</time>
      </trkpt>
      <trkpt lat="42.4417150" lon="-8.6429700">
        <ele>34.6</ele>
        <time>2022-06-18T14:35:33Z</time>
      </trkpt>
      <trkpt lat="42.4417530" lon="-8.6429700">
        <ele>34.6</ele>
        <time>2022-06-18T14:35:34Z</time>
      </trkpt>
      <trkpt lat="42.4417950" lon="-8.6429830">
        <ele>35.2</ele>
        <time>2022-06-18T14:35:35Z</time>
      </trkpt>
      <trkpt lat="42.4418360" lon="-8.6429980">
        <ele>35.2</ele>
        <time>2022-06-18T14:35:36Z</time>
      </trkpt>
      <trkpt lat="42.4418780" lon="-8.6430050">
        <ele>35.2</ele>
        <time>2022-06-18T14:35:37Z</time>
      </trkpt>
      <trkpt lat="42.4419150" lon="-8.6430100">
        <ele>35.2</ele>
        <time>2022-06-18T14:35:38Z</time>
      </trkpt>
      <trkpt lat="42.4419500" lon="-8.6430150">
        <ele>35.2</ele>
        <time>2022-06-18T14:35:39Z</time>
      </trkpt>
      <trkpt lat="42.4419850" lon="-8.6430210">
        <ele>35.2</ele>
        <time>2022-06-18T14:35:40Z</time>
      </trkpt>
      <trkpt lat="42.4420180" lon="-8.6430310">
        <ele>35.2</ele>
        <time>2022-06-18T14:35:41Z</time>
      </trkpt>
      <trkpt lat="42.4420550" lon="-8.6430430">
        <ele>35.2</ele>
        <time>2022-06-18T14:35:42Z</time>
      </trkpt>
      <trkpt lat="42.4420900" lon="-8.6430530">
        <ele>35.2</ele>
        <time>2022-06-18T14:35:43Z</time>
      </trkpt>
      <trkpt lat="42.4421210" lon="-8.6430600">
        <ele>35.2</ele>
        <time>2022-06-18T14:35:44Z</time>
      </trkpt>
      <trkpt lat="42.4421550" lon="-8.6430650">
        <ele>35.2</ele>
        <time>2022-06-18T14:35:45Z</time>
      </trkpt>
      <trkpt lat="42.4421880" lon="-8.6430750">
        <ele>35.2</ele>
        <time>2022-06-18T14:35:46Z</time>
      </trkpt>
      <trkpt lat="42.4422250" lon="-8.6430800">
        <ele>35.2</ele>
        <time>2022-06-18T14:35:47Z</time>
      </trkpt>
      <trkpt lat="42.4422560" lon="-8.6430850">
        <ele>35.2</ele>
        <time>2022-06-18T14:35:48Z</time>
      </trkpt>
      <trkpt lat="42.4422900" lon="-8.6430960">
        <ele>35.2</ele>
        <time>2022-06-18T14:35:49Z</time>
      </trkpt>
      <trkpt lat="42.4423210" lon="-8.6431100">
        <ele>35.2</ele>
        <time>2022-06-18T14:35:50Z</time>
      </trkpt>
      <trkpt lat="42.4423560" lon="-8.6431260">
        <ele>33.8</ele>
        <time>2022-06-18T14:35:51Z</time>
      </trkpt>
      <trkpt lat="42.4423960" lon="-8.6431480">
        <ele>33.8</ele>
        <time>2022-06-18T14:35:52Z</time>
      </trkpt>
      <trkpt lat="42.4424400" lon="-8.6431680">
        <ele>33.8</ele>
        <time>2022-06-18T14:35:53Z</time>
      </trkpt>
      <trkpt lat="42.4424860" lon="-8.6431810">
        <ele>33.0</ele>
        <time>2022-06-18T14:35:54Z</time>
      </trkpt>
      <trkpt lat="42.4425380" lon="-8.6431960">
        <ele>32.8</ele>
        <time>2022-06-18T14:35:55Z</time>
      </trkpt>
      <trkpt lat="42.4425900" lon="-8.6432180">
        <ele>32.8</ele>
        <time>2022-06-18T14:35:56Z</time>
      </trkpt>
      <trkpt lat="42.4426450" lon="-8.6432450">
        <ele>32.8</ele>
        <time>2022-06-18T14:35:57Z</time>
      </trkpt>
      <trkpt lat="42.4427060" lon="-8.6432710">
        <ele>31.8</ele>
        <time>2022-06-18T14:35:58Z</time>
      </trkpt>
      <trkpt lat="42.4427730" lon="-8.6433000">
        <ele>28.8</ele>
        <time>2022-06-18T14:35:59Z</time>
      </trkpt>
      <trkpt lat="42.4428430" lon="-8.6433250">
        <ele>28.8</ele>
        <time>2022-06-18T14:36:00Z</time>
      </trkpt>
      <trkpt lat="42.4429160" lon="-8.6433480">
        <ele>28.8</ele>
        <time>2022-06-18T14:36:01Z</time>
      </trkpt>
      <trkpt lat="42.4429900" lon="-8.6433750">
        <ele>28.8</ele>
        <time>2022-06-18T14:36:02Z</time>
      </trkpt>
      <trkpt lat="42.4430610" lon="-8.6434060">
        <ele>27.8</ele>
        <time>2022-06-18T14:36:03Z</time>
      </trkpt>
      <trkpt lat="42.4431350" lon="-8.6434350">
        <ele>27.8</ele>
        <time>2022-06-18T14:36:04Z</time>
      </trkpt>
      <trkpt lat="42.4432080" lon="-8.6434510">
        <ele>27.8</ele>
        <time>2022-06-18T14:36:05Z</time>
      </trkpt>
      <trkpt lat="42.4432830" lon="-8.6434630">
        <ele>26.8</ele>
        <time>2022-06-18T14:36:06Z</time>
      </trkpt>
      <trkpt lat="42.4433550" lon="-8.6434850">
        <ele>27.2</ele>
        <time>2022-06-18T14:36:07Z</time>
      </trkpt>
      <trkpt lat="42.4434250" lon="-8.6435050">
        <ele>27.2</ele>
        <time>2022-06-18T14:36:08Z</time>
      </trkpt>
      <trkpt lat="42.4434960" lon="-8.6435210">
        <ele>27.2</ele>
        <time>2022-06-18T14:36:09Z</time>
      </trkpt>
      <trkpt lat="42.4435650" lon="-8.6435530">
        <ele>27.2</ele>
        <time>2022-06-18T14:36:10Z</time>
      </trkpt>
      <trkpt lat="42.4436330" lon="-8.6435810">
        <ele>24.4</ele>
        <time>2022-06-18T14:36:11Z</time>
      </trkpt>
      <trkpt lat="42.4436980" lon="-8.6436060">
        <ele>24.4</ele>
        <time>2022-06-18T14:36:12Z</time>
      </trkpt>
      <trkpt lat="42.4437600" lon="-8.6436260">
        <ele>24.4</ele>
        <time>2022-06-18T14:36:13Z</time>
      </trkpt>
      <trkpt lat="42.4438160" lon="-8.6436400">
        <ele>25.4</ele>
        <time>2022-06-18T14:36:14Z</time>
      </trkpt>
      <trkpt lat="42.4438610" lon="-8.6436450">
        <ele>27.2</ele>
        <time>2022-06-18T14:36:15Z</time>
      </trkpt>
      <trkpt lat="42.4439010" lon="-8.6436430">
        <ele>27.2</ele>
        <time>2022-06-18T14:36:16Z</time>
      </trkpt>
      <trkpt lat="42.4439410" lon="-8.6436380">
        <ele>27.2</ele>
        <time>2022-06-18T14:36:17Z</time>
      </trkpt>
      <trkpt lat="42.4439830" lon="-8.6436330">
        <ele>27.4</ele>
        <time>2022-06-18T14:36:18Z</time>
      </trkpt>
      <trkpt lat="42.4440230" lon="-8.6436250">
        <ele>27.8</ele>
        <time>2022-06-18T14:36:19Z</time>
      </trkpt>
      <trkpt lat="42.4440650" lon="-8.6436130">
        <ele>27.8</ele>
        <time>2022-06-18T14:36:20Z</time>
      </trkpt>
      <trkpt lat="42.4441010" lon="-8.6435960">
        <ele>27.8</ele>
        <time>2022-06-18T14:36:21Z</time>
      </trkpt>
      <trkpt lat="42.4441380" lon="-8.6435730">
        <ele>27.4</ele>
        <time>2022-06-18T14:36:22Z</time>
      </trkpt>
      <trkpt lat="42.4441750" lon="-8.6435460">
        <ele>27.4</ele>
        <time>2022-06-18T14:36:23Z</time>
      </trkpt>
      <trkpt lat="42.4442110" lon="-8.6435210">
        <ele>27.4</ele>
        <time>2022-06-18T14:36:24Z</time>
      </trkpt>
      <trkpt lat="42.4442450" lon="-8.6435010">
        <ele>27.4</ele>
        <time>2022-06-18T14:36:25Z</time>
      </trkpt>
      <trkpt lat="42.4442780" lon="-8.6434760">
        <ele>27.4</ele>
        <time>2022-06-18T14:36:26Z</time>
      </trkpt>
      <trkpt lat="42.4443110" lon="-8.6434510">
        <ele>28.0</ele>
        <time>2022-06-18T14:36:27Z</time>
      </trkpt>
      <trkpt lat="42.4443500" lon="-8.6434330">
        <ele>28.0</ele>
        <time>2022-06-18T14:36:28Z</time>
      </trkpt>
      <trkpt lat="42.4443880" lon="-8.6434200">
        <ele>28.0</ele>
        <time>2022-06-18T14:36:29Z</time>
      </trkpt>
      <trkpt lat="42.4444230" lon="-8.6434100">
        <ele>28.0</ele>
        <time>2022-06-18T14:36:30Z</time>
      </trkpt>
      <trkpt lat="42.4444600" lon="-8.6433980">
        <ele>27.4</ele>
        <time>2022-06-18T14:36:31Z</time>
      </trkpt>
      <trkpt lat="42.4444980" lon="-8.6433880">
        <ele>27.4</ele>
        <time>2022-06-18T14:36:32Z</time>
      </trkpt>
      <trkpt lat="42.4445380" lon="-8.6433780">
        <ele>27.4</ele>
        <time>2022-06-18T14:36:33Z</time>
      </trkpt>
      <trkpt lat="42.4445760" lon="-8.6433680">
        <ele>27.6</ele>
        <time>2022-06-18T14:36:34Z</time>
      </trkpt>
      <trkpt lat="42.4446130" lon="-8.6433650">
        <ele>27.8</ele>
        <time>2022-06-18T14:36:35Z</time>
      </trkpt>
      <trkpt lat="42.4446510" lon="-8.6433550">
        <ele>27.8</ele>
        <time>2022-06-18T14:36:36Z</time>
      </trkpt>
      <trkpt lat="42.4446760" lon="-8.6433450">
        <ele>27.8</ele>
        <time>2022-06-18T14:36:37Z</time>
      </trkpt>
      <trkpt lat="42.4447080" lon="-8.6433310">
        <ele>28.4</ele>
        <time>2022-06-18T14:36:38Z</time>
      </trkpt>
      <trkpt lat="42.4447450" lon="-8.6433150">
        <ele>28.2</ele>
        <time>2022-06-18T14:36:39Z</time>
      </trkpt>
      <trkpt lat="42.4447860" lon="-8.6432960">
        <ele>28.2</ele>
        <time>2022-06-18T14:36:40Z</time>
      </trkpt>
      <trkpt lat="42.4448250" lon="-8.6432700">
        <ele>28.2</ele>
        <time>2022-06-18T14:36:41Z</time>
      </trkpt>
      <trkpt lat="42.4448610" lon="-8.6432430">
        <ele>28.2</ele>
        <time>2022-06-18T14:36:42Z</time>
      </trkpt>
      <trkpt lat="42.4448960" lon="-8.6432180">
        <ele>28.4</ele>
        <time>2022-06-18T14:36:43Z</time>
      </trkpt>
      <trkpt lat="42.4449260" lon="-8.6431960">
        <ele>28.4</ele>
        <time>2022-06-18T14:36:44Z</time>
      </trkpt>
      <trkpt lat="42.4449580" lon="-8.6431750">
        <ele>28.4</ele>
        <time>2022-06-18T14:36:45Z</time>
      </trkpt>
      <trkpt lat="42.4449880" lon="-8.6431550">
        <ele>29.4</ele>
        <time>2022-06-18T14:36:46Z</time>
      </trkpt>
      <trkpt lat="42.4450130" lon="-8.6431350">
        <ele>29.8</ele>
        <time>2022-06-18T14:36:47Z</time>
      </trkpt>
      <trkpt lat="42.4450380" lon="-8.6431200">
        <ele>29.8</ele>
        <time>2022-06-18T14:36:48Z</time>
      </trkpt>
      <trkpt lat="42.4450600" lon="-8.6431060">
        <ele>29.8</ele>
        <time>2022-06-18T14:36:49Z</time>
      </trkpt>
      <trkpt lat="42.4450730" lon="-8.6430960">
        <ele>30.8</ele>
        <time>2022-06-18T14:36:50Z</time>
      </trkpt>
      <trkpt lat="42.4450810" lon="-8.6430880">
        <ele>31.8</ele>
        <time>2022-06-18T14:36:51Z</time>
      </trkpt>
      <trkpt lat="42.4451010" lon="-8.6430810">
        <ele>31.8</ele>
        <time>2022-06-18T14:36:52Z</time>
      </trkpt>
      <trkpt lat="42.4451230" lon="-8.6430700">
        <ele>31.8</ele>
        <time>2022-06-18T14:36:53Z</time>
      </trkpt>
      <trkpt lat="42.4451430" lon="-8.6430580">
        <ele>31.8</ele>
        <time>2022-06-18T14:36:54Z</time>
      </trkpt>
      <trkpt lat="42.4451650" lon="-8.6430450">
        <ele>32.2</ele>
        <time>2022-06-18T14:36:55Z</time>
      </trkpt>
      <trkpt lat="42.4451850" lon="-8.6430360">
        <ele>32.2</ele>
        <time>2022-06-18T14:36:56Z</time>
      </trkpt>
      <trkpt lat="42.4452060" lon="-8.6430260">
        <ele>32.2</ele>
        <time>2022-06-18T14:36:57Z</time>
      </trkpt>
      <trkpt lat="42.4452230" lon="-8.6430180">
        <ele>32.2</ele>
        <time>2022-06-18T14:36:58Z</time>
      </trkpt>
      <trkpt lat="42.4452380" lon="-8.6430100">
        <ele>32.6</ele>
        <time>2022-06-18T14:36:59Z</time>
      </trkpt>
      <trkpt lat="42.4452630" lon="-8.6430000">
        <ele>32.6</ele>
        <time>2022-06-18T14:37:00Z</time>
      </trkpt>
      <trkpt lat="42.4452860" lon="-8.6429850">
        <ele>32.6</ele>
        <time>2022-06-18T14:37:01Z</time>
      </trkpt>
      <trkpt lat="42.4453110" lon="-8.6429700">
        <ele>32.8</ele>
        <time>2022-06-18T14:37:02Z</time>
      </trkpt>
      <trkpt lat="42.4453310" lon="-8.6429610">
        <ele>32.8</ele>
        <time>2022-06-18T14:37:03Z</time>
      </trkpt>
      <trkpt lat="42.4453510" lon="-8.6429530">
        <ele>32.8</ele>
        <time>2022-06-18T14:37:04Z</time>
      </trkpt>
      <trkpt lat="42.4453710" lon="-8.6429430">
        <ele>32.8</ele>
        <time>2022-06-18T14:37:05Z</time>
      </trkpt>
      <trkpt lat="42.4453930" lon="-8.6429360">
        <ele>32.8</ele>
        <time>2022-06-18T14:37:06Z</time>
      </trkpt>
      <trkpt lat="42.4454110" lon="-8.6429300">
        <ele>33.2</ele>
        <time>2022-06-18T14:37:07Z</time>
      </trkpt>
      <trkpt lat="42.4454210" lon="-8.6429260">
        <ele>33.2</ele>
        <time>2022-06-18T14:37:08Z</time>
      </trkpt>
      <trkpt lat="42.4454380" lon="-8.6429230">
        <ele>33.2</ele>
        <time>2022-06-18T14:37:09Z</time>
      </trkpt>
      <trkpt lat="42.4454650" lon="-8.6429180">
        <ele>33.8</ele>
        <time>2022-06-18T14:37:10Z</time>
      </trkpt>
      <trkpt lat="42.4454850" lon="-8.6429080">
        <ele>33.8</ele>
        <time>2022-06-18T14:37:11Z</time>
      </trkpt>
      <trkpt lat="42.4455050" lon="-8.6429010">
        <ele>33.8</ele>
        <time>2022-06-18T14:37:12Z</time>
      </trkpt>
      <trkpt lat="42.4455310" lon="-8.6428950">
        <ele>33.8</ele>
        <time>2022-06-18T14:37:13Z</time>
      </trkpt>
      <trkpt lat="42.4455610" lon="-8.6428880">
        <ele>33.8</ele>
        <time>2022-06-18T14:37:14Z</time>
      </trkpt>
      <trkpt lat="42.4455860" lon="-8.6428800">
        <ele>34.2</ele>
        <time>2022-06-18T14:37:15Z</time>
      </trkpt>
      <trkpt lat="42.4456130" lon="-8.6428750">
        <ele>34.2</ele>
        <time>2022-06-18T14:37:16Z</time>
      </trkpt>
      <trkpt lat="42.4456400" lon="-8.6428680">
        <ele>34.2</ele>
        <time>2022-06-18T14:37:17Z</time>
      </trkpt>
      <trkpt lat="42.4456660" lon="-8.6428580">
        <ele>34.2</ele>
        <time>2022-06-18T14:37:18Z</time>
      </trkpt>
      <trkpt lat="42.4456950" lon="-8.6428500">
        <ele>34.4</ele>
        <time>2022-06-18T14:37:19Z</time>
      </trkpt>
      <trkpt lat="42.4457250" lon="-8.6428400">
        <ele>34.4</ele>
        <time>2022-06-18T14:37:20Z</time>
      </trkpt>
      <trkpt lat="42.4457550" lon="-8.6428300">
        <ele>34.4</ele>
        <time>2022-06-18T14:37:21Z</time>
      </trkpt>
      <trkpt lat="42.4457810" lon="-8.6428200">
        <ele>35.2</ele>
        <time>2022-06-18T14:37:22Z</time>
      </trkpt>
      <trkpt lat="42.4458060" lon="-8.6428130">
        <ele>35.0</ele>
        <time>2022-06-18T14:37:23Z</time>
      </trkpt>
      <trkpt lat="42.4458350" lon="-8.6428060">
        <ele>35.0</ele>
        <time>2022-06-18T14:37:24Z</time>
      </trkpt>
      <trkpt lat="42.4458610" lon="-8.6427960">
        <ele>35.0</ele>
        <time>2022-06-18T14:37:25Z</time>
      </trkpt>
      <trkpt lat="42.4458880" lon="-8.6427850">
        <ele>35.6</ele>
        <time>2022-06-18T14:37:26Z</time>
      </trkpt>
      <trkpt lat="42.4459160" lon="-8.6427780">
        <ele>36.0</ele>
        <time>2022-06-18T14:37:27Z</time>
      </trkpt>
      <trkpt lat="42.4459410" lon="-8.6427730">
        <ele>36.0</ele>
        <time>2022-06-18T14:37:28Z</time>
      </trkpt>
      <trkpt lat="42.4459650" lon="-8.6427680">
        <ele>36.0</ele>
        <time>2022-06-18T14:37:29Z</time>
      </trkpt>
      <trkpt lat="42.4459910" lon="-8.6427580">
        <ele>36.8</ele>
        <time>2022-06-18T14:37:30Z</time>
      </trkpt>
      <trkpt lat="42.4460180" lon="-8.6427510">
        <ele>36.6</ele>
        <time>2022-06-18T14:37:31Z</time>
      </trkpt>
      <trkpt lat="42.4460450" lon="-8.6427410">
        <ele>36.6</ele>
        <time>2022-06-18T14:37:32Z</time>
      </trkpt>
      <trkpt lat="42.4460730" lon="-8.6427310">
        <ele>36.6</ele>
        <time>2022-06-18T14:37:33Z</time>
      </trkpt>
      <trkpt lat="42.4461030" lon="-8.6427230">
        <ele>36.6</ele>
        <time>2022-06-18T14:37:34Z</time>
      </trkpt>
      <trkpt lat="42.4461350" lon="-8.6427180">
        <ele>36.4</ele>
        <time>2022-06-18T14:37:35Z</time>
      </trkpt>
      <trkpt lat="42.4461660" lon="-8.6427150">
        <ele>36.4</ele>
        <time>2022-06-18T14:37:36Z</time>
      </trkpt>
      <trkpt lat="42.4461950" lon="-8.6427110">
        <ele>36.4</ele>
        <time>2022-06-18T14:37:37Z</time>
      </trkpt>
      <trkpt lat="42.4462250" lon="-8.6427080">
        <ele>36.2</ele>
        <time>2022-06-18T14:37:38Z</time>
      </trkpt>
      <trkpt lat="42.4462610" lon="-8.6427030">
        <ele>36.4</ele>
        <time>2022-06-18T14:37:39Z</time>
      </trkpt>
      <trkpt lat="42.4462950" lon="-8.6427010">
        <ele>36.4</ele>
        <time>2022-06-18T14:37:40Z</time>
      </trkpt>
      <trkpt lat="42.4463250" lon="-8.6426980">
        <ele>36.4</ele>
        <time>2022-06-18T14:37:41Z</time>
      </trkpt>
      <trkpt lat="42.4463530" lon="-8.6426960">
        <ele>36.4</ele>
        <time>2022-06-18T14:37:42Z</time>
      </trkpt>
      <trkpt lat="42.4463810" lon="-8.6426980">
        <ele>36.6</ele>
        <time>2022-06-18T14:37:43Z</time>
      </trkpt>
      <trkpt lat="42.4464100" lon="-8.6427050">
        <ele>36.6</ele>
        <time>2022-06-18T14:37:44Z</time>
      </trkpt>
      <trkpt lat="42.4464410" lon="-8.6427100">
        <ele>36.6</ele>
        <time>2022-06-18T14:37:45Z</time>
      </trkpt>
      <trkpt lat="42.4464710" lon="-8.6427210">
        <ele>36.6</ele>
        <time>2022-06-18T14:37:46Z</time>
      </trkpt>
      <trkpt lat="42.4464980" lon="-8.6427350">
        <ele>35.8</ele>
        <time>2022-06-18T14:37:47Z</time>
      </trkpt>
      <trkpt lat="42.4465280" lon="-8.6427530">
        <ele>35.8</ele>
        <time>2022-06-18T14:37:48Z</time>
      </trkpt>
      <trkpt lat="42.4465580" lon="-8.6427660">
        <ele>35.8</ele>
        <time>2022-06-18T14:37:49Z</time>
      </trkpt>
      <trkpt lat="42.4465860" lon="-8.6427760">
        <ele>35.8</ele>
        <time>2022-06-18T14:37:50Z</time>
      </trkpt>
      <trkpt lat="42.4466160" lon="-8.6427860">
        <ele>36.4</ele>
        <time>2022-06-18T14:37:51Z</time>
      </trkpt>
      <trkpt lat="42.4466460" lon="-8.6427910">
        <ele>36.4</ele>
        <time>2022-06-18T14:37:52Z</time>
      </trkpt>
      <trkpt lat="42.4466760" lon="-8.6427980">
        <ele>36.4</ele>
        <time>2022-06-18T14:37:53Z</time>
      </trkpt>
      <trkpt lat="42.4467080" lon="-8.6428030">
        <ele>36.6</ele>
        <time>2022-06-18T14:37:54Z</time>
      </trkpt>
      <trkpt lat="42.4467400" lon="-8.6428080">
        <ele>37.2</ele>
        <time>2022-06-18T14:37:55Z</time>
      </trkpt>
      <trkpt lat="42.4467780" lon="-8.6428100">
        <ele>37.2</ele>
        <time>2022-06-18T14:37:56Z</time>
      </trkpt>
      <trkpt lat="42.4468160" lon="-8.6428100">
        <ele>37.2</ele>
        <time>2022-06-18T14:37:57Z</time>
      </trkpt>
      <trkpt lat="42.4468550" lon="-8.6428150">
        <ele>37.2</ele>
        <time>2022-06-18T14:37:58Z</time>
      </trkpt>
      <trkpt lat="42.4468930" lon="-8.6428180">
        <ele>36.6</ele>
        <time>2022-06-18T14:37:59Z</time>
      </trkpt>
      <trkpt lat="42.4469280" lon="-8.6428180">
        <ele>36.6</ele>
        <time>2022-06-18T14:38:00Z</time>
      </trkpt>
      <trkpt lat="42.4469610" lon="-8.6428110">
        <ele>36.6</ele>
        <time>2022-06-18T14:38:01Z</time>
      </trkpt>
      <trkpt lat="42.4469960" lon="-8.6428110">
        <ele>36.6</ele>
        <time>2022-06-18T14:38:02Z</time>
      </trkpt>
      <trkpt lat="42.4470310" lon="-8.6428150">
        <ele>36.8</ele>
        <time>2022-06-18T14:38:03Z</time>
      </trkpt>
      <trkpt lat="42.4470680" lon="-8.6428160">
        <ele>36.8</ele>
        <time>2022-06-18T14:38:04Z</time>
      </trkpt>
      <trkpt lat="42.4471050" lon="-8.6428180">
        <ele>36.8</ele>
        <time>2022-06-18T14:38:05Z</time>
      </trkpt>
      <trkpt lat="42.4471400" lon="-8.6428200">
        <ele>36.8</ele>
        <time>2022-06-18T14:38:06Z</time>
      </trkpt>
      <trkpt lat="42.4471760" lon="-8.6428180">
        <ele>37.2</ele>
        <time>2022-06-18T14:38:07Z</time>
      </trkpt>
      <trkpt lat="42.4472100" lon="-8.6428180">
        <ele>37.2</ele>
        <time>2022-06-18T14:38:08Z</time>
      </trkpt>
      <trkpt lat="42.4472400" lon="-8.6428230">
        <ele>37.2</ele>
        <time>2022-06-18T14:38:09Z</time>
      </trkpt>
      <trkpt lat="42.4472680" lon="-8.6428310">
        <ele>37.2</ele>
        <time>2022-06-18T14:38:10Z</time>
      </trkpt>
      <trkpt lat="42.4472980" lon="-8.6428380">
        <ele>37.6</ele>
        <time>2022-06-18T14:38:11Z</time>
      </trkpt>
      <trkpt lat="42.4473310" lon="-8.6428450">
        <ele>37.6</ele>
        <time>2022-06-18T14:38:12Z</time>
      </trkpt>
      <trkpt lat="42.4473650" lon="-8.6428480">
        <ele>37.6</ele>
        <time>2022-06-18T14:38:13Z</time>
      </trkpt>
      <trkpt lat="42.4473910" lon="-8.6428510">
        <ele>38.0</ele>
        <time>2022-06-18T14:38:14Z</time>
      </trkpt>
      <trkpt lat="42.4474160" lon="-8.6428530">
        <ele>38.6</ele>
        <time>2022-06-18T14:38:15Z</time>
      </trkpt>
      <trkpt lat="42.4474450" lon="-8.6428560">
        <ele>38.6</ele>
        <time>2022-06-18T14:38:16Z</time>
      </trkpt>
      <trkpt lat="42.4474780" lon="-8.6428560">
        <ele>38.6</ele>
        <time>2022-06-18T14:38:17Z</time>
      </trkpt>
      <trkpt lat="42.4475130" lon="-8.6428610">
        <ele>38.2</ele>
        <time>2022-06-18T14:38:18Z</time>
      </trkpt>
      <trkpt lat="42.4475460" lon="-8.6428630">
        <ele>38.0</ele>
        <time>2022-06-18T14:38:19Z</time>
      </trkpt>
      <trkpt lat="42.4475810" lon="-8.6428700">
        <ele>38.0</ele>
        <time>2022-06-18T14:38:20Z</time>
      </trkpt>
      <trkpt lat="42.4476180" lon="-8.6428700">
        <ele>38.0</ele>
        <time>2022-06-18T14:38:21Z</time>
      </trkpt>
      <trkpt lat="42.4476560" lon="-8.6428700">
        <ele>38.0</ele>
        <time>2022-06-18T14:38:22Z</time>
      </trkpt>
      <trkpt lat="42.4476950" lon="-8.6428710">
        <ele>38.2</ele>
        <time>2022-06-18T14:38:23Z</time>
      </trkpt>
      <trkpt lat="42.4477380" lon="-8.6428710">
        <ele>38.2</ele>
        <time>2022-06-18T14:38:24Z</time>
      </trkpt>
      <trkpt lat="42.4477830" lon="-8.6428630">
        <ele>38.2</ele>
        <time>2022-06-18T14:38:25Z</time>
      </trkpt>
      <trkpt lat="42.4478280" lon="-8.6428510">
        <ele>37.6</ele>
        <time>2022-06-18T14:38:26Z</time>
      </trkpt>
      <trkpt lat="42.4478710" lon="-8.6428400">
        <ele>36.0</ele>
        <time>2022-06-18T14:38:27Z</time>
      </trkpt>
      <trkpt lat="42.4479200" lon="-8.6428250">
        <ele>36.0</ele>
        <time>2022-06-18T14:38:28Z</time>
      </trkpt>
      <trkpt lat="42.4479810" lon="-8.6427980">
        <ele>36.0</ele>
        <time>2022-06-18T14:38:29Z</time>
      </trkpt>
      <trkpt lat="42.4480500" lon="-8.6427550">
        <ele>35.0</ele>
        <time>2022-06-18T14:38:30Z</time>
      </trkpt>
      <trkpt lat="42.4481160" lon="-8.6427000">
        <ele>31.8</ele>
        <time>2022-06-18T14:38:31Z</time>
      </trkpt>
      <trkpt lat="42.4481810" lon="-8.6426330">
        <ele>31.8</ele>
        <time>2022-06-18T14:38:32Z</time>
      </trkpt>
      <trkpt lat="42.4482550" lon="-8.6425760">
        <ele>31.8</ele>
        <time>2022-06-18T14:38:33Z</time>
      </trkpt>
      <trkpt lat="42.4483300" lon="-8.6425210">
        <ele>30.8</ele>
        <time>2022-06-18T14:38:34Z</time>
      </trkpt>
      <trkpt lat="42.4484130" lon="-8.6424630">
        <ele>28.8</ele>
        <time>2022-06-18T14:38:35Z</time>
      </trkpt>
      <trkpt lat="42.4484930" lon="-8.6424100">
        <ele>28.8</ele>
        <time>2022-06-18T14:38:36Z</time>
      </trkpt>
      <trkpt lat="42.4485700" lon="-8.6423650">
        <ele>28.8</ele>
        <time>2022-06-18T14:38:37Z</time>
      </trkpt>
      <trkpt lat="42.4486360" lon="-8.6423260">
        <ele>27.8</ele>
        <time>2022-06-18T14:38:38Z</time>
      </trkpt>
      <trkpt lat="42.4486950" lon="-8.6422910">
        <ele>27.2</ele>
        <time>2022-06-18T14:38:39Z</time>
      </trkpt>
      <trkpt lat="42.4487550" lon="-8.6422650">
        <ele>27.2</ele>
        <time>2022-06-18T14:38:40Z</time>
      </trkpt>
      <trkpt lat="42.4488100" lon="-8.6422380">
        <ele>27.2</ele>
        <time>2022-06-18T14:38:41Z</time>
      </trkpt>
      <trkpt lat="42.4488580" lon="-8.6422110">
        <ele>28.2</ele>
        <time>2022-06-18T14:38:42Z</time>
      </trkpt>
      <trkpt lat="42.4488980" lon="-8.6421900">
        <ele>27.6</ele>
        <time>2022-06-18T14:38:43Z</time>
      </trkpt>
      <trkpt lat="42.4489360" lon="-8.6421760">
        <ele>27.6</ele>
        <time>2022-06-18T14:38:44Z</time>
      </trkpt>
      <trkpt lat="42.4489730" lon="-8.6421700">
        <ele>27.6</ele>
        <time>2022-06-18T14:38:45Z</time>
      </trkpt>
      <trkpt lat="42.4490080" lon="-8.6421660">
        <ele>27.6</ele>
        <time>2022-06-18T14:38:46Z</time>
      </trkpt>
      <trkpt lat="42.4490430" lon="-8.6421580">
        <ele>27.4</ele>
        <time>2022-06-18T14:38:47Z</time>
      </trkpt>
      <trkpt lat="42.4490780" lon="-8.6421500">
        <ele>27.4</ele>
        <time>2022-06-18T14:38:48Z</time>
      </trkpt>
      <trkpt lat="42.4491130" lon="-8.6421400">
        <ele>27.4</ele>
        <time>2022-06-18T14:38:49Z</time>
      </trkpt>
      <trkpt lat="42.4491510" lon="-8.6421300">
        <ele>27.2</ele>
        <time>2022-06-18T14:38:50Z</time>
      </trkpt>
      <trkpt lat="42.4491930" lon="-8.6421180">
        <ele>26.6</ele>
        <time>2022-06-18T14:38:51Z</time>
      </trkpt>
      <trkpt lat="42.4492410" lon="-8.6421030">
        <ele>26.6</ele>
        <time>2022-06-18T14:38:52Z</time>
      </trkpt>
      <trkpt lat="42.4492860" lon="-8.6420860">
        <ele>26.6</ele>
        <time>2022-06-18T14:38:53Z</time>
      </trkpt>
      <trkpt lat="42.4493360" lon="-8.6420760">
        <ele>27.6</ele>
        <time>2022-06-18T14:38:54Z</time>
      </trkpt>
      <trkpt lat="42.4493860" lon="-8.6420680">
        <ele>27.4</ele>
        <time>2022-06-18T14:38:55Z</time>
      </trkpt>
      <trkpt lat="42.4494360" lon="-8.6420600">
        <ele>27.4</ele>
        <time>2022-06-18T14:38:56Z</time>
      </trkpt>
      <trkpt lat="42.4494850" lon="-8.6420510">
        <ele>27.4</ele>
        <time>2022-06-18T14:38:57Z</time>
      </trkpt>
      <trkpt lat="42.4495250" lon="-8.6420460">
        <ele>27.4</ele>
        <time>2022-06-18T14:38:58Z</time>
      </trkpt>
      <trkpt lat="42.4495630" lon="-8.6420460">
        <ele>27.6</ele>
        <time>2022-06-18T14:38:59Z</time>
      </trkpt>
      <trkpt lat="42.4496030" lon="-8.6420400">
        <ele>27.6</ele>
        <time>2022-06-18T14:39:00Z</time>
      </trkpt>
      <trkpt lat="42.4496460" lon="-8.6420260">
        <ele>27.6</ele>
        <time>2022-06-18T14:39:01Z</time>
      </trkpt>
      <trkpt lat="42.4496930" lon="-8.6420100">
        <ele>28.0</ele>
        <time>2022-06-18T14:39:02Z</time>
      </trkpt>
      <trkpt lat="42.4497360" lon="-8.6419910">
        <ele>27.8</ele>
        <time>2022-06-18T14:39:03Z</time>
      </trkpt>
      <trkpt lat="42.4497800" lon="-8.6419730">
        <ele>27.8</ele>
        <time>2022-06-18T14:39:04Z</time>
      </trkpt>
      <trkpt lat="42.4498210" lon="-8.6419550">
        <ele>27.8</ele>
        <time>2022-06-18T14:39:05Z</time>
      </trkpt>
      <trkpt lat="42.4498630" lon="-8.6419410">
        <ele>27.8</ele>
        <time>2022-06-18T14:39:06Z</time>
      </trkpt>
      <trkpt lat="42.4499030" lon="-8.6419300">
        <ele>27.8</ele>
        <time>2022-06-18T14:39:07Z</time>
      </trkpt>
      <trkpt lat="42.4499400" lon="-8.6419150">
        <ele>27.8</ele>
        <time>2022-06-18T14:39:08Z</time>
      </trkpt>
      <trkpt lat="42.4499700" lon="-8.6418950">
        <ele>27.8</ele>
        <time>2022-06-18T14:39:09Z</time>
      </trkpt>
      <trkpt lat="42.4499960" lon="-8.6418780">
        <ele>28.0</ele>
        <time>2022-06-18T14:39:10Z</time>
      </trkpt>
      <trkpt lat="42.4500260" lon="-8.6418660">
        <ele>27.6</ele>
        <time>2022-06-18T14:39:11Z</time>
      </trkpt>
      <trkpt lat="42.4500550" lon="-8.6418500">
        <ele>27.6</ele>
        <time>2022-06-18T14:39:12Z</time>
      </trkpt>
      <trkpt lat="42.4500800" lon="-8.6418310">
        <ele>27.6</ele>
        <time>2022-06-18T14:39:13Z</time>
      </trkpt>
      <trkpt lat="42.4500960" lon="-8.6418200">
        <ele>28.0</ele>
        <time>2022-06-18T14:39:14Z</time>
      </trkpt>
      <trkpt lat="42.4501060" lon="-8.6418160">
        <ele>28.4</ele>
        <time>2022-06-18T14:39:15Z</time>
      </trkpt>
      <trkpt lat="42.4501110" lon="-8.6418150">
        <ele>28.4</ele>
        <time>2022-06-18T14:39:16Z</time>
      </trkpt>
      <trkpt lat="42.4501110" lon="-8.6418150">
        <ele>28.4</ele>
        <time>2022-06-18T14:39:17Z</time>
      </trkpt>
      <trkpt lat="42.4501080" lon="-8.6418150">
        <ele>28.2</ele>
        <time>2022-06-18T14:39:18Z</time>
      </trkpt>
      <trkpt lat="42.4501060" lon="-8.6418160">
        <ele>28.4</ele>
        <time>2022-06-18T14:39:19Z</time>
      </trkpt>
      <trkpt lat="42.4501760" lon="-8.6418530">
        <ele>27.4</ele>
        <time>2022-06-18T14:41:04Z</time>
      </trkpt>
      <trkpt lat="42.4501860" lon="-8.6418510">
        <ele>27.4</ele>
        <time>2022-06-18T14:41:05Z</time>
      </trkpt>
      <trkpt lat="42.4501980" lon="-8.6418530">
        <ele>27.4</ele>
        <time>2022-06-18T14:41:06Z</time>
      </trkpt>
      <trkpt lat="42.4502110" lon="-8.6418550">
        <ele>27.0</ele>
        <time>2022-06-18T14:41:07Z</time>
      </trkpt>
      <trkpt lat="42.4502210" lon="-8.6418510">
        <ele>27.0</ele>
        <time>2022-06-18T14:41:08Z</time>
      </trkpt>
      <trkpt lat="42.4502330" lon="-8.6418500">
        <ele>27.0</ele>
        <time>2022-06-18T14:41:09Z</time>
      </trkpt>
      <trkpt lat="42.4502410" lon="-8.6418460">
        <ele>27.4</ele>
        <time>2022-06-18T14:41:10Z</time>
      </trkpt>
      <trkpt lat="42.4502450" lon="-8.6418410">
        <ele>27.4</ele>
        <time>2022-06-18T14:41:11Z</time>
      </trkpt>
      <trkpt lat="42.4502460" lon="-8.6418410">
        <ele>27.4</ele>
        <time>2022-06-18T14:41:12Z</time>
      </trkpt>
      <trkpt lat="42.4502930" lon="-8.6418250">
        <ele>27.4</ele>
        <time>2022-06-18T14:41:25Z</time>
      </trkpt>
      <trkpt lat="42.4503180" lon="-8.6418160">
        <ele>27.4</ele>
        <time>2022-06-18T14:41:26Z</time>
      </trkpt>
      <trkpt lat="42.4503480" lon="-8.6418100">
        <ele>27.2</ele>
        <time>2022-06-18T14:41:27Z</time>
      </trkpt>
      <trkpt lat="42.4503780" lon="-8.6418080">
        <ele>27.2</ele>
        <time>2022-06-18T14:41:28Z</time>
      </trkpt>
      <trkpt lat="42.4504060" lon="-8.6418010">
        <ele>27.2</ele>
        <time>2022-06-18T14:41:29Z</time>
      </trkpt>
      <trkpt lat="42.4504400" lon="-8.6417950">
        <ele>27.2</ele>
        <time>2022-06-18T14:41:30Z</time>
      </trkpt>
      <trkpt lat="42.4504730" lon="-8.6417880">
        <ele>27.4</ele>
        <time>2022-06-18T14:41:31Z</time>
      </trkpt>
      <trkpt lat="42.4505050" lon="-8.6417830">
        <ele>27.4</ele>
        <time>2022-06-18T14:41:32Z</time>
      </trkpt>
      <trkpt lat="42.4505330" lon="-8.6417800">
        <ele>27.4</ele>
        <time>2022-06-18T14:41:33Z</time>
      </trkpt>
      <trkpt lat="42.4505650" lon="-8.6417760">
        <ele>27.4</ele>
        <time>2022-06-18T14:41:34Z</time>
      </trkpt>
      <trkpt lat="42.4505930" lon="-8.6417730">
        <ele>27.4</ele>
        <time>2022-06-18T14:41:35Z</time>
      </trkpt>
      <trkpt lat="42.4506260" lon="-8.6417650">
        <ele>27.4</ele>
        <time>2022-06-18T14:41:36Z</time>
      </trkpt>
      <trkpt lat="42.4506550" lon="-8.6417500">
        <ele>27.4</ele>
        <time>2022-06-18T14:41:37Z</time>
      </trkpt>
      <trkpt lat="42.4506850" lon="-8.6417330">
        <ele>27.4</ele>
        <time>2022-06-18T14:41:38Z</time>
      </trkpt>
      <trkpt lat="42.4507110" lon="-8.6417200">
        <ele>27.0</ele>
        <time>2022-06-18T14:41:39Z</time>
      </trkpt>
      <trkpt lat="42.4507360" lon="-8.6417100">
        <ele>27.0</ele>
        <time>2022-06-18T14:41:40Z</time>
      </trkpt>
      <trkpt lat="42.4507630" lon="-8.6417010">
        <ele>27.0</ele>
        <time>2022-06-18T14:41:41Z</time>
      </trkpt>
      <trkpt lat="42.4507960" lon="-8.6416900">
        <ele>27.0</ele>
        <time>2022-06-18T14:41:42Z</time>
      </trkpt>
      <trkpt lat="42.4508380" lon="-8.6416730">
        <ele>27.4</ele>
        <time>2022-06-18T14:41:43Z</time>
      </trkpt>
      <trkpt lat="42.4508810" lon="-8.6416550">
        <ele>27.4</ele>
        <time>2022-06-18T14:41:44Z</time>
      </trkpt>
      <trkpt lat="42.4509210" lon="-8.6416400">
        <ele>27.4</ele>
        <time>2022-06-18T14:41:45Z</time>
      </trkpt>
      <trkpt lat="42.4509650" lon="-8.6416250">
        <ele>27.4</ele>
        <time>2022-06-18T14:41:46Z</time>
      </trkpt>
      <trkpt lat="42.4510060" lon="-8.6416060">
        <ele>27.0</ele>
        <time>2022-06-18T14:41:47Z</time>
      </trkpt>
      <trkpt lat="42.4510460" lon="-8.6415900">
        <ele>27.0</ele>
        <time>2022-06-18T14:41:48Z</time>
      </trkpt>
      <trkpt lat="42.4510860" lon="-8.6415810">
        <ele>27.0</ele>
        <time>2022-06-18T14:41:49Z</time>
      </trkpt>
      <trkpt lat="42.4511310" lon="-8.6415710">
        <ele>26.2</ele>
        <time>2022-06-18T14:41:50Z</time>
      </trkpt>
      <trkpt lat="42.4511760" lon="-8.6415610">
        <ele>27.0</ele>
        <time>2022-06-18T14:41:51Z</time>
      </trkpt>
      <trkpt lat="42.4512180" lon="-8.6415550">
        <ele>27.0</ele>
        <time>2022-06-18T14:41:52Z</time>
      </trkpt>
      <trkpt lat="42.4512580" lon="-8.6415500">
        <ele>27.0</ele>
        <time>2022-06-18T14:41:53Z</time>
      </trkpt>
      <trkpt lat="42.4512950" lon="-8.6415460">
        <ele>27.0</ele>
        <time>2022-06-18T14:41:54Z</time>
      </trkpt>
      <trkpt lat="42.4513300" lon="-8.6415450">
        <ele>27.2</ele>
        <time>2022-06-18T14:41:55Z</time>
      </trkpt>
      <trkpt lat="42.4513630" lon="-8.6415400">
        <ele>27.2</ele>
        <time>2022-06-18T14:41:56Z</time>
      </trkpt>
      <trkpt lat="42.4513950" lon="-8.6415400">
        <ele>27.2</ele>
        <time>2022-06-18T14:41:57Z</time>
      </trkpt>
      <trkpt lat="42.4514280" lon="-8.6415360">
        <ele>27.6</ele>
        <time>2022-06-18T14:41:58Z</time>
      </trkpt>
      <trkpt lat="42.4514600" lon="-8.6415300">
        <ele>27.8</ele>
        <time>2022-06-18T14:41:59Z</time>
      </trkpt>
      <trkpt lat="42.4514950" lon="-8.6415230">
        <ele>27.8</ele>
        <time>2022-06-18T14:42:00Z</time>
      </trkpt>
      <trkpt lat="42.4515280" lon="-8.6415200">
        <ele>27.8</ele>
        <time>2022-06-18T14:42:01Z</time>
      </trkpt>
      <trkpt lat="42.4515610" lon="-8.6415110">
        <ele>27.8</ele>
        <time>2022-06-18T14:42:02Z</time>
      </trkpt>
      <trkpt lat="42.4515910" lon="-8.6415060">
        <ele>27.6</ele>
        <time>2022-06-18T14:42:03Z</time>
      </trkpt>
      <trkpt lat="42.4516230" lon="-8.6415000">
        <ele>27.6</ele>
        <time>2022-06-18T14:42:04Z</time>
      </trkpt>
      <trkpt lat="42.4516550" lon="-8.6414960">
        <ele>27.6</ele>
        <time>2022-06-18T14:42:05Z</time>
      </trkpt>
      <trkpt lat="42.4516860" lon="-8.6414960">
        <ele>28.0</ele>
        <time>2022-06-18T14:42:06Z</time>
      </trkpt>
      <trkpt lat="42.4517230" lon="-8.6414960">
        <ele>28.2</ele>
        <time>2022-06-18T14:42:07Z</time>
      </trkpt>
      <trkpt lat="42.4517600" lon="-8.6415000">
        <ele>28.2</ele>
        <time>2022-06-18T14:42:08Z</time>
      </trkpt>
      <trkpt lat="42.4517930" lon="-8.6415080">
        <ele>28.2</ele>
        <time>2022-06-18T14:42:09Z</time>
      </trkpt>
      <trkpt lat="42.4518300" lon="-8.6415180">
        <ele>28.2</ele>
        <time>2022-06-18T14:42:10Z</time>
      </trkpt>
      <trkpt lat="42.4518680" lon="-8.6415260">
        <ele>27.6</ele>
        <time>2022-06-18T14:42:11Z</time>
      </trkpt>
      <trkpt lat="42.4519050" lon="-8.6415360">
        <ele>27.6</ele>
        <time>2022-06-18T14:42:12Z</time>
      </trkpt>
      <trkpt lat="42.4519430" lon="-8.6415500">
        <ele>27.6</ele>
        <time>2022-06-18T14:42:13Z</time>
      </trkpt>
      <trkpt lat="42.4519810" lon="-8.6415630">
        <ele>28.0</ele>
        <time>2022-06-18T14:42:14Z</time>
      </trkpt>
      <trkpt lat="42.4520180" lon="-8.6415780">
        <ele>27.8</ele>
        <time>2022-06-18T14:42:15Z</time>
      </trkpt>
      <trkpt lat="42.4520560" lon="-8.6415930">
        <ele>27.8</ele>
        <time>2022-06-18T14:42:16Z</time>
      </trkpt>
      <trkpt lat="42.4520960" lon="-8.6416080">
        <ele>27.8</ele>
        <time>2022-06-18T14:42:17Z</time>
      </trkpt>
      <trkpt lat="42.4521350" lon="-8.6416260">
        <ele>27.8</ele>
        <time>2022-06-18T14:42:18Z</time>
      </trkpt>
      <trkpt lat="42.4521730" lon="-8.6416430">
        <ele>28.2</ele>
        <time>2022-06-18T14:42:19Z</time>
      </trkpt>
      <trkpt lat="42.4522110" lon="-8.6416580">
        <ele>28.2</ele>
        <time>2022-06-18T14:42:20Z</time>
      </trkpt>
      <trkpt lat="42.4522510" lon="-8.6416760">
        <ele>28.2</ele>
        <time>2022-06-18T14:42:21Z</time>
      </trkpt>
      <trkpt lat="42.4522900" lon="-8.6416930">
        <ele>28.4</ele>
        <time>2022-06-18T14:42:22Z</time>
      </trkpt>
      <trkpt lat="42.4523280" lon="-8.6417080">
        <ele>28.0</ele>
        <time>2022-06-18T14:42:23Z</time>
      </trkpt>
      <trkpt lat="42.4523630" lon="-8.6417200">
        <ele>28.0</ele>
        <time>2022-06-18T14:42:24Z</time>
      </trkpt>
      <trkpt lat="42.4523980" lon="-8.6417280">
        <ele>28.0</ele>
        <time>2022-06-18T14:42:25Z</time>
      </trkpt>
      <trkpt lat="42.4524350" lon="-8.6417380">
        <ele>28.2</ele>
        <time>2022-06-18T14:42:26Z</time>
      </trkpt>
      <trkpt lat="42.4524710" lon="-8.6417460">
        <ele>28.0</ele>
        <time>2022-06-18T14:42:27Z</time>
      </trkpt>
      <trkpt lat="42.4525060" lon="-8.6417550">
        <ele>28.0</ele>
        <time>2022-06-18T14:42:28Z</time>
      </trkpt>
      <trkpt lat="42.4525400" lon="-8.6417630">
        <ele>28.0</ele>
        <time>2022-06-18T14:42:29Z</time>
      </trkpt>
      <trkpt lat="42.4525750" lon="-8.6417750">
        <ele>28.6</ele>
        <time>2022-06-18T14:42:30Z</time>
      </trkpt>
      <trkpt lat="42.4526100" lon="-8.6417860">
        <ele>29.0</ele>
        <time>2022-06-18T14:42:31Z</time>
      </trkpt>
      <trkpt lat="42.4526450" lon="-8.6418000">
        <ele>29.0</ele>
        <time>2022-06-18T14:42:32Z</time>
      </trkpt>
      <trkpt lat="42.4526780" lon="-8.6418130">
        <ele>29.0</ele>
        <time>2022-06-18T14:42:33Z</time>
      </trkpt>
      <trkpt lat="42.4527130" lon="-8.6418300">
        <ele>29.0</ele>
        <time>2022-06-18T14:42:34Z</time>
      </trkpt>
      <trkpt lat="42.4527460" lon="-8.6418450">
        <ele>29.2</ele>
        <time>2022-06-18T14:42:35Z</time>
      </trkpt>
      <trkpt lat="42.4527750" lon="-8.6418610">
        <ele>29.2</ele>
        <time>2022-06-18T14:42:36Z</time>
      </trkpt>
      <trkpt lat="42.4528050" lon="-8.6418760">
        <ele>29.2</ele>
        <time>2022-06-18T14:42:37Z</time>
      </trkpt>
      <trkpt lat="42.4528350" lon="-8.6418910">
        <ele>29.2</ele>
        <time>2022-06-18T14:42:38Z</time>
      </trkpt>
      <trkpt lat="42.4528610" lon="-8.6419160">
        <ele>28.8</ele>
        <time>2022-06-18T14:42:39Z</time>
      </trkpt>
      <trkpt lat="42.4528930" lon="-8.6419380">
        <ele>28.8</ele>
        <time>2022-06-18T14:42:40Z</time>
      </trkpt>
      <trkpt lat="42.4529280" lon="-8.6419580">
        <ele>28.8</ele>
        <time>2022-06-18T14:42:41Z</time>
      </trkpt>
      <trkpt lat="42.4529600" lon="-8.6419800">
        <ele>28.8</ele>
        <time>2022-06-18T14:42:42Z</time>
      </trkpt>
      <trkpt lat="42.4529910" lon="-8.6420010">
        <ele>29.6</ele>
        <time>2022-06-18T14:42:43Z</time>
      </trkpt>
      <trkpt lat="42.4530210" lon="-8.6420210">
        <ele>29.6</ele>
        <time>2022-06-18T14:42:44Z</time>
      </trkpt>
      <trkpt lat="42.4530500" lon="-8.6420410">
        <ele>29.6</ele>
        <time>2022-06-18T14:42:45Z</time>
      </trkpt>
      <trkpt lat="42.4530750" lon="-8.6420630">
        <ele>29.6</ele>
        <time>2022-06-18T14:42:46Z</time>
      </trkpt>
      <trkpt lat="42.4531010" lon="-8.6420850">
        <ele>29.8</ele>
        <time>2022-06-18T14:42:47Z</time>
      </trkpt>
      <trkpt lat="42.4531280" lon="-8.6421010">
        <ele>29.8</ele>
        <time>2022-06-18T14:42:48Z</time>
      </trkpt>
      <trkpt lat="42.4531600" lon="-8.6421200">
        <ele>29.8</ele>
        <time>2022-06-18T14:42:49Z</time>
      </trkpt>
      <trkpt lat="42.4531910" lon="-8.6421380">
        <ele>29.4</ele>
        <time>2022-06-18T14:42:50Z</time>
      </trkpt>
      <trkpt lat="42.4532230" lon="-8.6421610">
        <ele>29.6</ele>
        <time>2022-06-18T14:42:51Z</time>
      </trkpt>
      <trkpt lat="42.4532560" lon="-8.6421830">
        <ele>29.6</ele>
        <time>2022-06-18T14:42:52Z</time>
      </trkpt>
      <trkpt lat="42.4532900" lon="-8.6422000">
        <ele>29.6</ele>
        <time>2022-06-18T14:42:53Z</time>
      </trkpt>
      <trkpt lat="42.4533260" lon="-8.6422150">
        <ele>29.6</ele>
        <time>2022-06-18T14:42:54Z</time>
      </trkpt>
      <trkpt lat="42.4533610" lon="-8.6422350">
        <ele>29.4</ele>
        <time>2022-06-18T14:42:55Z</time>
      </trkpt>
      <trkpt lat="42.4533980" lon="-8.6422530">
        <ele>29.4</ele>
        <time>2022-06-18T14:42:56Z</time>
      </trkpt>
      <trkpt lat="42.4534350" lon="-8.6422710">
        <ele>29.4</ele>
        <time>2022-06-18T14:42:57Z</time>
      </trkpt>
      <trkpt lat="42.4534680" lon="-8.6422880">
        <ele>29.4</ele>
        <time>2022-06-18T14:42:58Z</time>
      </trkpt>
      <trkpt lat="42.4535010" lon="-8.6423050">
        <ele>29.6</ele>
        <time>2022-06-18T14:42:59Z</time>
      </trkpt>
      <trkpt lat="42.4535360" lon="-8.6423260">
        <ele>29.6</ele>
        <time>2022-06-18T14:43:00Z</time>
      </trkpt>
      <trkpt lat="42.4535680" lon="-8.6423530">
        <ele>29.6</ele>
        <time>2022-06-18T14:43:01Z</time>
      </trkpt>
      <trkpt lat="42.4536000" lon="-8.6423800">
        <ele>29.6</ele>
        <time>2022-06-18T14:43:02Z</time>
      </trkpt>
      <trkpt lat="42.4536350" lon="-8.6424030">
        <ele>30.2</ele>
        <time>2022-06-18T14:43:03Z</time>
      </trkpt>
      <trkpt lat="42.4536680" lon="-8.6424280">
        <ele>30.2</ele>
        <time>2022-06-18T14:43:04Z</time>
      </trkpt>
      <trkpt lat="42.4537010" lon="-8.6424550">
        <ele>30.2</ele>
        <time>2022-06-18T14:43:05Z</time>
      </trkpt>
      <trkpt lat="42.4537360" lon="-8.6424800">
        <ele>30.2</ele>
        <time>2022-06-18T14:43:06Z</time>
      </trkpt>
      <trkpt lat="42.4537700" lon="-8.6425030">
        <ele>30.0</ele>
        <time>2022-06-18T14:43:07Z</time>
      </trkpt>
      <trkpt lat="42.4538050" lon="-8.6425210">
        <ele>30.0</ele>
        <time>2022-06-18T14:43:08Z</time>
      </trkpt>
      <trkpt lat="42.4538400" lon="-8.6425400">
        <ele>30.0</ele>
        <time>2022-06-18T14:43:09Z</time>
      </trkpt>
      <trkpt lat="42.4538780" lon="-8.6425630">
        <ele>30.0</ele>
        <time>2022-06-18T14:43:10Z</time>
      </trkpt>
      <trkpt lat="42.4539130" lon="-8.6425880">
        <ele>29.8</ele>
        <time>2022-06-18T14:43:11Z</time>
      </trkpt>
      <trkpt lat="42.4539500" lon="-8.6426100">
        <ele>29.8</ele>
        <time>2022-06-18T14:43:12Z</time>
      </trkpt>
      <trkpt lat="42.4539810" lon="-8.6426360">
        <ele>29.8</ele>
        <time>2022-06-18T14:43:13Z</time>
      </trkpt>
      <trkpt lat="42.4540150" lon="-8.6426610">
        <ele>29.2</ele>
        <time>2022-06-18T14:43:14Z</time>
      </trkpt>
      <trkpt lat="42.4540550" lon="-8.6426850">
        <ele>29.8</ele>
        <time>2022-06-18T14:43:15Z</time>
      </trkpt>
      <trkpt lat="42.4540950" lon="-8.6427130">
        <ele>29.8</ele>
        <time>2022-06-18T14:43:16Z</time>
      </trkpt>
      <trkpt lat="42.4541360" lon="-8.6427450">
        <ele>29.8</ele>
        <time>2022-06-18T14:43:17Z</time>
      </trkpt>
      <trkpt lat="42.4541760" lon="-8.6427730">
        <ele>29.2</ele>
        <time>2022-06-18T14:43:18Z</time>
      </trkpt>
      <trkpt lat="42.4542200" lon="-8.6428000">
        <ele>28.8</ele>
        <time>2022-06-18T14:43:19Z</time>
      </trkpt>
      <trkpt lat="42.4542610" lon="-8.6428300">
        <ele>28.8</ele>
        <time>2022-06-18T14:43:20Z</time>
      </trkpt>
      <trkpt lat="42.4543030" lon="-8.6428610">
        <ele>28.8</ele>
        <time>2022-06-18T14:43:21Z</time>
      </trkpt>
      <trkpt lat="42.4543410" lon="-8.6428950">
        <ele>28.8</ele>
        <time>2022-06-18T14:43:22Z</time>
      </trkpt>
      <trkpt lat="42.4543830" lon="-8.6429260">
        <ele>29.2</ele>
        <time>2022-06-18T14:43:23Z</time>
      </trkpt>
      <trkpt lat="42.4544230" lon="-8.6429550">
        <ele>29.2</ele>
        <time>2022-06-18T14:43:24Z</time>
      </trkpt>
      <trkpt lat="42.4544630" lon="-8.6429800">
        <ele>29.2</ele>
        <time>2022-06-18T14:43:25Z</time>
      </trkpt>
      <trkpt lat="42.4545050" lon="-8.6430080">
        <ele>29.2</ele>
        <time>2022-06-18T14:43:26Z</time>
      </trkpt>
      <trkpt lat="42.4545430" lon="-8.6430360">
        <ele>28.4</ele>
        <time>2022-06-18T14:43:27Z</time>
      </trkpt>
      <trkpt lat="42.4545810" lon="-8.6430650">
        <ele>28.4</ele>
        <time>2022-06-18T14:43:28Z</time>
      </trkpt>
      <trkpt lat="42.4546200" lon="-8.6430900">
        <ele>28.4</ele>
        <time>2022-06-18T14:43:29Z</time>
      </trkpt>
      <trkpt lat="42.4546560" lon="-8.6431150">
        <ele>28.8</ele>
        <time>2022-06-18T14:43:30Z</time>
      </trkpt>
      <trkpt lat="42.4546930" lon="-8.6431430">
        <ele>28.4</ele>
        <time>2022-06-18T14:43:31Z</time>
      </trkpt>
      <trkpt lat="42.4547330" lon="-8.6431750">
        <ele>28.4</ele>
        <time>2022-06-18T14:43:32Z</time>
      </trkpt>
      <trkpt lat="42.4547710" lon="-8.6432030">
        <ele>28.4</ele>
        <time>2022-06-18T14:43:33Z</time>
      </trkpt>
      <trkpt lat="42.4548110" lon="-8.6432300">
        <ele>28.4</ele>
        <time>2022-06-18T14:43:34Z</time>
      </trkpt>
      <trkpt lat="42.4548500" lon="-8.6432530">
        <ele>27.8</ele>
        <time>2022-06-18T14:43:35Z</time>
      </trkpt>
      <trkpt lat="42.4548900" lon="-8.6432760">
        <ele>27.8</ele>
        <time>2022-06-18T14:43:36Z</time>
      </trkpt>
      <trkpt lat="42.4549280" lon="-8.6433010">
        <ele>27.8</ele>
        <time>2022-06-18T14:43:37Z</time>
      </trkpt>
      <trkpt lat="42.4549660" lon="-8.6433310">
        <ele>27.8</ele>
        <time>2022-06-18T14:43:38Z</time>
      </trkpt>
      <trkpt lat="42.4550080" lon="-8.6433580">
        <ele>28.4</ele>
        <time>2022-06-18T14:43:39Z</time>
      </trkpt>
      <trkpt lat="42.4550500" lon="-8.6433860">
        <ele>28.4</ele>
        <time>2022-06-18T14:43:40Z</time>
      </trkpt>
      <trkpt lat="42.4550900" lon="-8.6434150">
        <ele>28.4</ele>
        <time>2022-06-18T14:43:41Z</time>
      </trkpt>
      <trkpt lat="42.4551310" lon="-8.6434400">
        <ele>29.2</ele>
        <time>2022-06-18T14:43:42Z</time>
      </trkpt>
      <trkpt lat="42.4551710" lon="-8.6434680">
        <ele>29.2</ele>
        <time>2022-06-18T14:43:43Z</time>
      </trkpt>
      <trkpt lat="42.4552130" lon="-8.6434910">
        <ele>29.2</ele>
        <time>2022-06-18T14:43:44Z</time>
      </trkpt>
      <trkpt lat="42.4552530" lon="-8.6435160">
        <ele>29.2</ele>
        <time>2022-06-18T14:43:45Z</time>
      </trkpt>
      <trkpt lat="42.4552950" lon="-8.6435400">
        <ele>28.4</ele>
        <time>2022-06-18T14:43:46Z</time>
      </trkpt>
      <trkpt lat="42.4553360" lon="-8.6435660">
        <ele>28.0</ele>
        <time>2022-06-18T14:43:47Z</time>
      </trkpt>
      <trkpt lat="42.4553780" lon="-8.6435930">
        <ele>28.0</ele>
        <time>2022-06-18T14:43:48Z</time>
      </trkpt>
      <trkpt lat="42.4554180" lon="-8.6436160">
        <ele>28.0</ele>
        <time>2022-06-18T14:43:49Z</time>
      </trkpt>
      <trkpt lat="42.4554600" lon="-8.6436410">
        <ele>28.0</ele>
        <time>2022-06-18T14:43:50Z</time>
      </trkpt>
      <trkpt lat="42.4555000" lon="-8.6436650">
        <ele>28.2</ele>
        <time>2022-06-18T14:43:51Z</time>
      </trkpt>
      <trkpt lat="42.4555410" lon="-8.6436880">
        <ele>28.2</ele>
        <time>2022-06-18T14:43:52Z</time>
      </trkpt>
      <trkpt lat="42.4555830" lon="-8.6437100">
        <ele>28.2</ele>
        <time>2022-06-18T14:43:53Z</time>
      </trkpt>
      <trkpt lat="42.4556210" lon="-8.6437330">
        <ele>28.2</ele>
        <time>2022-06-18T14:43:54Z</time>
      </trkpt>
      <trkpt lat="42.4556610" lon="-8.6437550">
        <ele>28.4</ele>
        <time>2022-06-18T14:43:55Z</time>
      </trkpt>
      <trkpt lat="42.4557000" lon="-8.6437800">
        <ele>28.4</ele>
        <time>2022-06-18T14:43:56Z</time>
      </trkpt>
      <trkpt lat="42.4557360" lon="-8.6438060">
        <ele>28.4</ele>
        <time>2022-06-18T14:43:57Z</time>
      </trkpt>
      <trkpt lat="42.4557750" lon="-8.6438350">
        <ele>28.4</ele>
        <time>2022-06-18T14:43:58Z</time>
      </trkpt>
      <trkpt lat="42.4558150" lon="-8.6438560">
        <ele>28.6</ele>
        <time>2022-06-18T14:43:59Z</time>
      </trkpt>
      <trkpt lat="42.4558550" lon="-8.6438750">
        <ele>28.6</ele>
        <time>2022-06-18T14:44:00Z</time>
      </trkpt>
      <trkpt lat="42.4558950" lon="-8.6438810">
        <ele>28.6</ele>
        <time>2022-06-18T14:44:01Z</time>
      </trkpt>
      <trkpt lat="42.4559330" lon="-8.6438880">
        <ele>28.0</ele>
        <time>2022-06-18T14:44:02Z</time>
      </trkpt>
      <trkpt lat="42.4559760" lon="-8.6438950">
        <ele>27.6</ele>
        <time>2022-06-18T14:44:03Z</time>
      </trkpt>
      <trkpt lat="42.4560210" lon="-8.6439100">
        <ele>27.6</ele>
        <time>2022-06-18T14:44:04Z</time>
      </trkpt>
      <trkpt lat="42.4560650" lon="-8.6439280">
        <ele>27.6</ele>
        <time>2022-06-18T14:44:05Z</time>
      </trkpt>
      <trkpt lat="42.4561080" lon="-8.6439530">
        <ele>28.0</ele>
        <time>2022-06-18T14:44:06Z</time>
      </trkpt>
      <trkpt lat="42.4561480" lon="-8.6439760">
        <ele>28.6</ele>
        <time>2022-06-18T14:44:07Z</time>
      </trkpt>
      <trkpt lat="42.4561900" lon="-8.6440000">
        <ele>28.6</ele>
        <time>2022-06-18T14:44:08Z</time>
      </trkpt>
      <trkpt lat="42.4562310" lon="-8.6440230">
        <ele>28.6</ele>
        <time>2022-06-18T14:44:09Z</time>
      </trkpt>
      <trkpt lat="42.4562710" lon="-8.6440500">
        <ele>28.6</ele>
        <time>2022-06-18T14:44:10Z</time>
      </trkpt>
      <trkpt lat="42.4563100" lon="-8.6440730">
        <ele>28.6</ele>
        <time>2022-06-18T14:44:11Z</time>
      </trkpt>
      <trkpt lat="42.4563480" lon="-8.6440980">
        <ele>28.6</ele>
        <time>2022-06-18T14:44:12Z</time>
      </trkpt>
      <trkpt lat="42.4563880" lon="-8.6441250">
        <ele>28.6</ele>
        <time>2022-06-18T14:44:13Z</time>
      </trkpt>
      <trkpt lat="42.4564250" lon="-8.6441500">
        <ele>28.6</ele>
        <time>2022-06-18T14:44:14Z</time>
      </trkpt>
      <trkpt lat="42.4564630" lon="-8.6441760">
        <ele>28.4</ele>
        <time>2022-06-18T14:44:15Z</time>
      </trkpt>
      <trkpt lat="42.4564980" lon="-8.6442030">
        <ele>28.4</ele>
        <time>2022-06-18T14:44:16Z</time>
      </trkpt>
      <trkpt lat="42.4565350" lon="-8.6442300">
        <ele>28.4</ele>
        <time>2022-06-18T14:44:17Z</time>
      </trkpt>
      <trkpt lat="42.4565730" lon="-8.6442530">
        <ele>28.4</ele>
        <time>2022-06-18T14:44:18Z</time>
      </trkpt>
      <trkpt lat="42.4566130" lon="-8.6442750">
        <ele>28.4</ele>
        <time>2022-06-18T14:44:19Z</time>
      </trkpt>
      <trkpt lat="42.4566500" lon="-8.6442950">
        <ele>28.4</ele>
        <time>2022-06-18T14:44:20Z</time>
      </trkpt>
      <trkpt lat="42.4566850" lon="-8.6443130">
        <ele>28.4</ele>
        <time>2022-06-18T14:44:21Z</time>
      </trkpt>
      <trkpt lat="42.4567180" lon="-8.6443350">
        <ele>28.4</ele>
        <time>2022-06-18T14:44:22Z</time>
      </trkpt>
      <trkpt lat="42.4567460" lon="-8.6443500">
        <ele>28.6</ele>
        <time>2022-06-18T14:44:23Z</time>
      </trkpt>
      <trkpt lat="42.4567780" lon="-8.6443610">
        <ele>28.6</ele>
        <time>2022-06-18T14:44:24Z</time>
      </trkpt>
      <trkpt lat="42.4568100" lon="-8.6443630">
        <ele>28.6</ele>
        <time>2022-06-18T14:44:25Z</time>
      </trkpt>
      <trkpt lat="42.4568460" lon="-8.6443500">
        <ele>29.6</ele>
        <time>2022-06-18T14:44:26Z</time>
      </trkpt>
      <trkpt lat="42.4568800" lon="-8.6443250">
        <ele>30.2</ele>
        <time>2022-06-18T14:44:27Z</time>
      </trkpt>
      <trkpt lat="42.4569100" lon="-8.6443100">
        <ele>30.2</ele>
        <time>2022-06-18T14:44:28Z</time>
      </trkpt>
      <trkpt lat="42.4569330" lon="-8.6443060">
        <ele>30.2</ele>
        <time>2022-06-18T14:44:29Z</time>
      </trkpt>
      <trkpt lat="42.4569600" lon="-8.6442900">
        <ele>30.2</ele>
        <time>2022-06-18T14:44:30Z</time>
      </trkpt>
      <trkpt lat="42.4569900" lon="-8.6442630">
        <ele>30.2</ele>
        <time>2022-06-18T14:44:31Z</time>
      </trkpt>
      <trkpt lat="42.4570280" lon="-8.6442460">
        <ele>30.2</ele>
        <time>2022-06-18T14:44:32Z</time>
      </trkpt>
      <trkpt lat="42.4570630" lon="-8.6442460">
        <ele>30.2</ele>
        <time>2022-06-18T14:44:33Z</time>
      </trkpt>
      <trkpt lat="42.4570960" lon="-8.6442450">
        <ele>30.4</ele>
        <time>2022-06-18T14:44:34Z</time>
      </trkpt>
      <trkpt lat="42.4571300" lon="-8.6442480">
        <ele>30.8</ele>
        <time>2022-06-18T14:44:35Z</time>
      </trkpt>
      <trkpt lat="42.4571610" lon="-8.6442510">
        <ele>30.8</ele>
        <time>2022-06-18T14:44:36Z</time>
      </trkpt>
      <trkpt lat="42.4571950" lon="-8.6442600">
        <ele>30.8</ele>
        <time>2022-06-18T14:44:37Z</time>
      </trkpt>
      <trkpt lat="42.4572250" lon="-8.6442650">
        <ele>30.8</ele>
        <time>2022-06-18T14:44:38Z</time>
      </trkpt>
      <trkpt lat="42.4572510" lon="-8.6442660">
        <ele>31.4</ele>
        <time>2022-06-18T14:44:39Z</time>
      </trkpt>
      <trkpt lat="42.4572750" lon="-8.6442630">
        <ele>31.4</ele>
        <time>2022-06-18T14:44:40Z</time>
      </trkpt>
      <trkpt lat="42.4572950" lon="-8.6442580">
        <ele>31.4</ele>
        <time>2022-06-18T14:44:41Z</time>
      </trkpt>
      <trkpt lat="42.4573130" lon="-8.6442530">
        <ele>31.8</ele>
        <time>2022-06-18T14:44:42Z</time>
      </trkpt>
      <trkpt lat="42.4573300" lon="-8.6442510">
        <ele>32.4</ele>
        <time>2022-06-18T14:44:43Z</time>
      </trkpt>
      <trkpt lat="42.4573500" lon="-8.6442480">
        <ele>32.4</ele>
        <time>2022-06-18T14:44:44Z</time>
      </trkpt>
      <trkpt lat="42.4573680" lon="-8.6442460">
        <ele>32.4</ele>
        <time>2022-06-18T14:44:45Z</time>
      </trkpt>
      <trkpt lat="42.4573850" lon="-8.6442450">
        <ele>32.4</ele>
        <time>2022-06-18T14:44:46Z</time>
      </trkpt>
      <trkpt lat="42.4574030" lon="-8.6442430">
        <ele>33.0</ele>
        <time>2022-06-18T14:44:47Z</time>
      </trkpt>
      <trkpt lat="42.4574230" lon="-8.6442410">
        <ele>33.0</ele>
        <time>2022-06-18T14:44:48Z</time>
      </trkpt>
      <trkpt lat="42.4574460" lon="-8.6442280">
        <ele>33.0</ele>
        <time>2022-06-18T14:44:49Z</time>
      </trkpt>
      <trkpt lat="42.4574660" lon="-8.6442230">
        <ele>33.0</ele>
        <time>2022-06-18T14:44:50Z</time>
      </trkpt>
      <trkpt lat="42.4574860" lon="-8.6442200">
        <ele>34.0</ele>
        <time>2022-06-18T14:44:51Z</time>
      </trkpt>
      <trkpt lat="42.4575050" lon="-8.6442110">
        <ele>34.0</ele>
        <time>2022-06-18T14:44:52Z</time>
      </trkpt>
      <trkpt lat="42.4575200" lon="-8.6442050">
        <ele>34.0</ele>
        <time>2022-06-18T14:44:53Z</time>
      </trkpt>
      <trkpt lat="42.4575350" lon="-8.6442050">
        <ele>34.2</ele>
        <time>2022-06-18T14:44:54Z</time>
      </trkpt>
      <trkpt lat="42.4575500" lon="-8.6442030">
        <ele>34.6</ele>
        <time>2022-06-18T14:44:55Z</time>
      </trkpt>
      <trkpt lat="42.4575680" lon="-8.6442050">
        <ele>34.6</ele>
        <time>2022-06-18T14:44:56Z</time>
      </trkpt>
      <trkpt lat="42.4575860" lon="-8.6442080">
        <ele>34.6</ele>
        <time>2022-06-18T14:44:57Z</time>
      </trkpt>
      <trkpt lat="42.4576060" lon="-8.6442080">
        <ele>35.0</ele>
        <time>2022-06-18T14:44:58Z</time>
      </trkpt>
      <trkpt lat="42.4576230" lon="-8.6442080">
        <ele>35.2</ele>
        <time>2022-06-18T14:44:59Z</time>
      </trkpt>
      <trkpt lat="42.4576400" lon="-8.6442150">
        <ele>35.2</ele>
        <time>2022-06-18T14:45:00Z</time>
      </trkpt>
      <trkpt lat="42.4576560" lon="-8.6442230">
        <ele>35.2</ele>
        <time>2022-06-18T14:45:01Z</time>
      </trkpt>
      <trkpt lat="42.4576750" lon="-8.6442300">
        <ele>35.2</ele>
        <time>2022-06-18T14:45:02Z</time>
      </trkpt>
      <trkpt lat="42.4576930" lon="-8.6442330">
        <ele>35.4</ele>
        <time>2022-06-18T14:45:03Z</time>
      </trkpt>
      <trkpt lat="42.4577100" lon="-8.6442360">
        <ele>35.4</ele>
        <time>2022-06-18T14:45:04Z</time>
      </trkpt>
      <trkpt lat="42.4577280" lon="-8.6442410">
        <ele>35.4</ele>
        <time>2022-06-18T14:45:05Z</time>
      </trkpt>
      <trkpt lat="42.4577410" lon="-8.6442460">
        <ele>36.0</ele>
        <time>2022-06-18T14:45:06Z</time>
      </trkpt>
      <trkpt lat="42.4577580" lon="-8.6442500">
        <ele>36.2</ele>
        <time>2022-06-18T14:45:07Z</time>
      </trkpt>
      <trkpt lat="42.4577730" lon="-8.6442530">
        <ele>36.2</ele>
        <time>2022-06-18T14:45:08Z</time>
      </trkpt>
      <trkpt lat="42.4577880" lon="-8.6442580">
        <ele>36.2</ele>
        <time>2022-06-18T14:45:09Z</time>
      </trkpt>
      <trkpt lat="42.4578060" lon="-8.6442630">
        <ele>36.6</ele>
        <time>2022-06-18T14:45:10Z</time>
      </trkpt>
      <trkpt lat="42.4578230" lon="-8.6442650">
        <ele>36.6</ele>
        <time>2022-06-18T14:45:11Z</time>
      </trkpt>
      <trkpt lat="42.4578400" lon="-8.6442680">
        <ele>36.6</ele>
        <time>2022-06-18T14:45:12Z</time>
      </trkpt>
      <trkpt lat="42.4578580" lon="-8.6442750">
        <ele>36.6</ele>
        <time>2022-06-18T14:45:13Z</time>
      </trkpt>
      <trkpt lat="42.4578760" lon="-8.6442850">
        <ele>36.6</ele>
        <time>2022-06-18T14:45:14Z</time>
      </trkpt>
      <trkpt lat="42.4578930" lon="-8.6442930">
        <ele>37.8</ele>
        <time>2022-06-18T14:45:15Z</time>
      </trkpt>
      <trkpt lat="42.4579110" lon="-8.6442960">
        <ele>37.8</ele>
        <time>2022-06-18T14:45:16Z</time>
      </trkpt>
      <trkpt lat="42.4579310" lon="-8.6442980">
        <ele>37.8</ele>
        <time>2022-06-18T14:45:17Z</time>
      </trkpt>
      <trkpt lat="42.4579510" lon="-8.6442960">
        <ele>37.8</ele>
        <time>2022-06-18T14:45:18Z</time>
      </trkpt>
      <trkpt lat="42.4579710" lon="-8.6442980">
        <ele>37.6</ele>
        <time>2022-06-18T14:45:19Z</time>
      </trkpt>
      <trkpt lat="42.4579880" lon="-8.6443010">
        <ele>37.6</ele>
        <time>2022-06-18T14:45:20Z</time>
      </trkpt>
      <trkpt lat="42.4580060" lon="-8.6443060">
        <ele>37.6</ele>
        <time>2022-06-18T14:45:21Z</time>
      </trkpt>
      <trkpt lat="42.4580250" lon="-8.6443100">
        <ele>37.6</ele>
        <time>2022-06-18T14:45:22Z</time>
      </trkpt>
      <trkpt lat="42.4580450" lon="-8.6443130">
        <ele>36.8</ele>
        <time>2022-06-18T14:45:23Z</time>
      </trkpt>
      <trkpt lat="42.4580650" lon="-8.6443150">
        <ele>36.8</ele>
        <time>2022-06-18T14:45:24Z</time>
      </trkpt>
      <trkpt lat="42.4580830" lon="-8.6443200">
        <ele>36.8</ele>
        <time>2022-06-18T14:45:25Z</time>
      </trkpt>
      <trkpt lat="42.4581030" lon="-8.6443260">
        <ele>37.2</ele>
        <time>2022-06-18T14:45:26Z</time>
      </trkpt>
      <trkpt lat="42.4581250" lon="-8.6443300">
        <ele>37.2</ele>
        <time>2022-06-18T14:45:27Z</time>
      </trkpt>
      <trkpt lat="42.4581460" lon="-8.6443300">
        <ele>37.2</ele>
        <time>2022-06-18T14:45:28Z</time>
      </trkpt>
      <trkpt lat="42.4581680" lon="-8.6443310">
        <ele>37.2</ele>
        <time>2022-06-18T14:45:29Z</time>
      </trkpt>
      <trkpt lat="42.4581880" lon="-8.6443360">
        <ele>38.0</ele>
        <time>2022-06-18T14:45:30Z</time>
      </trkpt>
      <trkpt lat="42.4582080" lon="-8.6443380">
        <ele>38.2</ele>
        <time>2022-06-18T14:45:31Z</time>
      </trkpt>
      <trkpt lat="42.4582280" lon="-8.6443410">
        <ele>38.2</ele>
        <time>2022-06-18T14:45:32Z</time>
      </trkpt>
      <trkpt lat="42.4582480" lon="-8.6443450">
        <ele>38.2</ele>
        <time>2022-06-18T14:45:33Z</time>
      </trkpt>
      <trkpt lat="42.4582680" lon="-8.6443480">
        <ele>38.2</ele>
        <time>2022-06-18T14:45:34Z</time>
      </trkpt>
      <trkpt lat="42.4582900" lon="-8.6443550">
        <ele>38.2</ele>
        <time>2022-06-18T14:45:35Z</time>
      </trkpt>
      <trkpt lat="42.4583100" lon="-8.6443560">
        <ele>38.2</ele>
        <time>2022-06-18T14:45:36Z</time>
      </trkpt>
      <trkpt lat="42.4583310" lon="-8.6443560">
        <ele>38.2</ele>
        <time>2022-06-18T14:45:37Z</time>
      </trkpt>
      <trkpt lat="42.4583510" lon="-8.6443600">
        <ele>38.6</ele>
        <time>2022-06-18T14:45:38Z</time>
      </trkpt>
      <trkpt lat="42.4583750" lon="-8.6443630">
        <ele>38.8</ele>
        <time>2022-06-18T14:45:39Z</time>
      </trkpt>
      <trkpt lat="42.4583950" lon="-8.6443630">
        <ele>38.8</ele>
        <time>2022-06-18T14:45:40Z</time>
      </trkpt>
      <trkpt lat="42.4584160" lon="-8.6443610">
        <ele>38.8</ele>
        <time>2022-06-18T14:45:41Z</time>
      </trkpt>
      <trkpt lat="42.4584350" lon="-8.6443610">
        <ele>39.4</ele>
        <time>2022-06-18T14:45:42Z</time>
      </trkpt>
      <trkpt lat="42.4584530" lon="-8.6443580">
        <ele>39.4</ele>
        <time>2022-06-18T14:45:43Z</time>
      </trkpt>
      <trkpt lat="42.4584750" lon="-8.6443510">
        <ele>39.4</ele>
        <time>2022-06-18T14:45:44Z</time>
      </trkpt>
      <trkpt lat="42.4584960" lon="-8.6443460">
        <ele>39.4</ele>
        <time>2022-06-18T14:45:45Z</time>
      </trkpt>
      <trkpt lat="42.4585160" lon="-8.6443400">
        <ele>39.4</ele>
        <time>2022-06-18T14:45:46Z</time>
      </trkpt>
      <trkpt lat="42.4585380" lon="-8.6443380">
        <ele>39.4</ele>
        <time>2022-06-18T14:45:47Z</time>
      </trkpt>
      <trkpt lat="42.4585580" lon="-8.6443360">
        <ele>39.4</ele>
        <time>2022-06-18T14:45:48Z</time>
      </trkpt>
      <trkpt lat="42.4585810" lon="-8.6443310">
        <ele>39.4</ele>
        <time>2022-06-18T14:45:49Z</time>
      </trkpt>
      <trkpt lat="42.4586030" lon="-8.6443260">
        <ele>39.4</ele>
        <time>2022-06-18T14:45:50Z</time>
      </trkpt>
      <trkpt lat="42.4586250" lon="-8.6443250">
        <ele>39.8</ele>
        <time>2022-06-18T14:45:51Z</time>
      </trkpt>
      <trkpt lat="42.4586450" lon="-8.6443250">
        <ele>39.8</ele>
        <time>2022-06-18T14:45:52Z</time>
      </trkpt>
      <trkpt lat="42.4586680" lon="-8.6443210">
        <ele>39.8</ele>
        <time>2022-06-18T14:45:53Z</time>
      </trkpt>
      <trkpt lat="42.4586930" lon="-8.6443160">
        <ele>40.2</ele>
        <time>2022-06-18T14:45:54Z</time>
      </trkpt>
      <trkpt lat="42.4587150" lon="-8.6443150">
        <ele>40.4</ele>
        <time>2022-06-18T14:45:55Z</time>
      </trkpt>
      <trkpt lat="42.4587350" lon="-8.6443160">
        <ele>40.4</ele>
        <time>2022-06-18T14:45:56Z</time>
      </trkpt>
      <trkpt lat="42.4587580" lon="-8.6443200">
        <ele>40.4</ele>
        <time>2022-06-18T14:45:57Z</time>
      </trkpt>
      <trkpt lat="42.4587780" lon="-8.6443230">
        <ele>40.6</ele>
        <time>2022-06-18T14:45:58Z</time>
      </trkpt>
      <trkpt lat="42.4587980" lon="-8.6443260">
        <ele>41.4</ele>
        <time>2022-06-18T14:45:59Z</time>
      </trkpt>
      <trkpt lat="42.4588180" lon="-8.6443300">
        <ele>41.4</ele>
        <time>2022-06-18T14:46:00Z</time>
      </trkpt>
      <trkpt lat="42.4588360" lon="-8.6443310">
        <ele>41.4</ele>
        <time>2022-06-18T14:46:01Z</time>
      </trkpt>
      <trkpt lat="42.4588560" lon="-8.6443310">
        <ele>41.4</ele>
        <time>2022-06-18T14:46:02Z</time>
      </trkpt>
      <trkpt lat="42.4588750" lon="-8.6443360">
        <ele>41.8</ele>
        <time>2022-06-18T14:46:03Z</time>
      </trkpt>
      <trkpt lat="42.4588910" lon="-8.6443360">
        <ele>41.8</ele>
        <time>2022-06-18T14:46:04Z</time>
      </trkpt>
      <trkpt lat="42.4589100" lon="-8.6443430">
        <ele>41.8</ele>
        <time>2022-06-18T14:46:05Z</time>
      </trkpt>
      <trkpt lat="42.4589280" lon="-8.6443500">
        <ele>42.8</ele>
        <time>2022-06-18T14:46:06Z</time>
      </trkpt>
      <trkpt lat="42.4589450" lon="-8.6443560">
        <ele>43.0</ele>
        <time>2022-06-18T14:46:07Z</time>
      </trkpt>
      <trkpt lat="42.4589630" lon="-8.6443650">
        <ele>43.0</ele>
        <time>2022-06-18T14:46:08Z</time>
      </trkpt>
      <trkpt lat="42.4589800" lon="-8.6443750">
        <ele>43.0</ele>
        <time>2022-06-18T14:46:09Z</time>
      </trkpt>
      <trkpt lat="42.4589960" lon="-8.6443850">
        <ele>43.6</ele>
        <time>2022-06-18T14:46:10Z</time>
      </trkpt>
      <trkpt lat="42.4590080" lon="-8.6443930">
        <ele>43.6</ele>
        <time>2022-06-18T14:46:11Z</time>
      </trkpt>
      <trkpt lat="42.4590250" lon="-8.6444000">
        <ele>43.6</ele>
        <time>2022-06-18T14:46:12Z</time>
      </trkpt>
      <trkpt lat="42.4590450" lon="-8.6444050">
        <ele>43.6</ele>
        <time>2022-06-18T14:46:13Z</time>
      </trkpt>
      <trkpt lat="42.4590630" lon="-8.6444100">
        <ele>43.6</ele>
        <time>2022-06-18T14:46:14Z</time>
      </trkpt>
      <trkpt lat="42.4590810" lon="-8.6444160">
        <ele>44.4</ele>
        <time>2022-06-18T14:46:15Z</time>
      </trkpt>
      <trkpt lat="42.4591030" lon="-8.6444230">
        <ele>44.4</ele>
        <time>2022-06-18T14:46:16Z</time>
      </trkpt>
      <trkpt lat="42.4591260" lon="-8.6444280">
        <ele>44.4</ele>
        <time>2022-06-18T14:46:17Z</time>
      </trkpt>
      <trkpt lat="42.4591460" lon="-8.6444310">
        <ele>44.4</ele>
        <time>2022-06-18T14:46:18Z</time>
      </trkpt>
      <trkpt lat="42.4591680" lon="-8.6444350">
        <ele>44.2</ele>
        <time>2022-06-18T14:46:19Z</time>
      </trkpt>
      <trkpt lat="42.4591930" lon="-8.6444410">
        <ele>44.2</ele>
        <time>2022-06-18T14:46:20Z</time>
      </trkpt>
      <trkpt lat="42.4592160" lon="-8.6444460">
        <ele>44.2</ele>
        <time>2022-06-18T14:46:21Z</time>
      </trkpt>
      <trkpt lat="42.4592400" lon="-8.6444550">
        <ele>44.2</ele>
        <time>2022-06-18T14:46:22Z</time>
      </trkpt>
      <trkpt lat="42.4592650" lon="-8.6444630">
        <ele>44.2</ele>
        <time>2022-06-18T14:46:23Z</time>
      </trkpt>
      <trkpt lat="42.4592930" lon="-8.6444700">
        <ele>44.2</ele>
        <time>2022-06-18T14:46:24Z</time>
      </trkpt>
      <trkpt lat="42.4593230" lon="-8.6444780">
        <ele>44.2</ele>
        <time>2022-06-18T14:46:25Z</time>
      </trkpt>
      <trkpt lat="42.4593560" lon="-8.6444900">
        <ele>44.2</ele>
        <time>2022-06-18T14:46:26Z</time>
      </trkpt>
      <trkpt lat="42.4593880" lon="-8.6444980">
        <ele>43.8</ele>
        <time>2022-06-18T14:46:27Z</time>
      </trkpt>
      <trkpt lat="42.4594230" lon="-8.6445060">
        <ele>43.8</ele>
        <time>2022-06-18T14:46:28Z</time>
      </trkpt>
      <trkpt lat="42.4594600" lon="-8.6445160">
        <ele>43.8</ele>
        <time>2022-06-18T14:46:29Z</time>
      </trkpt>
      <trkpt lat="42.4595000" lon="-8.6445280">
        <ele>43.8</ele>
        <time>2022-06-18T14:46:30Z</time>
      </trkpt>
      <trkpt lat="42.4595460" lon="-8.6445380">
        <ele>42.4</ele>
        <time>2022-06-18T14:46:31Z</time>
      </trkpt>
      <trkpt lat="42.4595930" lon="-8.6445550">
        <ele>42.4</ele>
        <time>2022-06-18T14:46:32Z</time>
      </trkpt>
      <trkpt lat="42.4596450" lon="-8.6445800">
        <ele>42.4</ele>
        <time>2022-06-18T14:46:33Z</time>
      </trkpt>
      <trkpt lat="42.4596980" lon="-8.6446030">
        <ele>41.4</ele>
        <time>2022-06-18T14:46:34Z</time>
      </trkpt>
      <trkpt lat="42.4597580" lon="-8.6446310">
        <ele>39.8</ele>
        <time>2022-06-18T14:46:35Z</time>
      </trkpt>
      <trkpt lat="42.4598230" lon="-8.6446630">
        <ele>39.8</ele>
        <time>2022-06-18T14:46:36Z</time>
      </trkpt>
      <trkpt lat="42.4598910" lon="-8.6446910">
        <ele>39.8</ele>
        <time>2022-06-18T14:46:37Z</time>
      </trkpt>
      <trkpt lat="42.4599650" lon="-8.6447150">
        <ele>39.8</ele>
        <time>2022-06-18T14:46:38Z</time>
      </trkpt>
      <trkpt lat="42.4600400" lon="-8.6447310">
        <ele>38.6</ele>
        <time>2022-06-18T14:46:39Z</time>
      </trkpt>
      <trkpt lat="42.4601210" lon="-8.6447400">
        <ele>38.6</ele>
        <time>2022-06-18T14:46:40Z</time>
      </trkpt>
      <trkpt lat="42.4602030" lon="-8.6447430">
        <ele>38.6</ele>
        <time>2022-06-18T14:46:41Z</time>
      </trkpt>
      <trkpt lat="42.4602830" lon="-8.6447430">
        <ele>37.6</ele>
        <time>2022-06-18T14:46:42Z</time>
      </trkpt>
      <trkpt lat="42.4603630" lon="-8.6447460">
        <ele>36.4</ele>
        <time>2022-06-18T14:46:43Z</time>
      </trkpt>
      <trkpt lat="42.4604450" lon="-8.6447600">
        <ele>36.4</ele>
        <time>2022-06-18T14:46:44Z</time>
      </trkpt>
      <trkpt lat="42.4605260" lon="-8.6447600">
        <ele>36.4</ele>
        <time>2022-06-18T14:46:45Z</time>
      </trkpt>
      <trkpt lat="42.4606050" lon="-8.6447500">
        <ele>36.4</ele>
        <time>2022-06-18T14:46:46Z</time>
      </trkpt>
      <trkpt lat="42.4606810" lon="-8.6447200">
        <ele>36.4</ele>
        <time>2022-06-18T14:46:47Z</time>
      </trkpt>
      <trkpt lat="42.4607400" lon="-8.6446700">
        <ele>36.4</ele>
        <time>2022-06-18T14:46:48Z</time>
      </trkpt>
      <trkpt lat="42.4608010" lon="-8.6446150">
        <ele>36.4</ele>
        <time>2022-06-18T14:46:49Z</time>
      </trkpt>
      <trkpt lat="42.4608610" lon="-8.6445500">
        <ele>35.4</ele>
        <time>2022-06-18T14:46:50Z</time>
      </trkpt>
      <trkpt lat="42.4609200" lon="-8.6444850">
        <ele>35.6</ele>
        <time>2022-06-18T14:46:51Z</time>
      </trkpt>
      <trkpt lat="42.4609810" lon="-8.6444250">
        <ele>35.6</ele>
        <time>2022-06-18T14:46:52Z</time>
      </trkpt>
      <trkpt lat="42.4610360" lon="-8.6443700">
        <ele>35.6</ele>
        <time>2022-06-18T14:46:53Z</time>
      </trkpt>
      <trkpt lat="42.4610960" lon="-8.6443300">
        <ele>36.4</ele>
        <time>2022-06-18T14:46:54Z</time>
      </trkpt>
      <trkpt lat="42.4611550" lon="-8.6442980">
        <ele>37.2</ele>
        <time>2022-06-18T14:46:55Z</time>
      </trkpt>
      <trkpt lat="42.4612060" lon="-8.6442700">
        <ele>37.2</ele>
        <time>2022-06-18T14:46:56Z</time>
      </trkpt>
      <trkpt lat="42.4612600" lon="-8.6442430">
        <ele>37.2</ele>
        <time>2022-06-18T14:46:57Z</time>
      </trkpt>
      <trkpt lat="42.4613080" lon="-8.6442210">
        <ele>37.2</ele>
        <time>2022-06-18T14:46:58Z</time>
      </trkpt>
      <trkpt lat="42.4613580" lon="-8.6442050">
        <ele>38.6</ele>
        <time>2022-06-18T14:46:59Z</time>
      </trkpt>
      <trkpt lat="42.4614050" lon="-8.6441900">
        <ele>38.6</ele>
        <time>2022-06-18T14:47:00Z</time>
      </trkpt>
      <trkpt lat="42.4614500" lon="-8.6441700">
        <ele>38.6</ele>
        <time>2022-06-18T14:47:01Z</time>
      </trkpt>
      <trkpt lat="42.4614950" lon="-8.6441460">
        <ele>38.6</ele>
        <time>2022-06-18T14:47:02Z</time>
      </trkpt>
      <trkpt lat="42.4615380" lon="-8.6441210">
        <ele>40.2</ele>
        <time>2022-06-18T14:47:03Z</time>
      </trkpt>
      <trkpt lat="42.4615800" lon="-8.6440950">
        <ele>40.2</ele>
        <time>2022-06-18T14:47:04Z</time>
      </trkpt>
      <trkpt lat="42.4616150" lon="-8.6440760">
        <ele>40.2</ele>
        <time>2022-06-18T14:47:05Z</time>
      </trkpt>
      <trkpt lat="42.4616460" lon="-8.6440600">
        <ele>40.2</ele>
        <time>2022-06-18T14:47:06Z</time>
      </trkpt>
      <trkpt lat="42.4616800" lon="-8.6440480">
        <ele>40.4</ele>
        <time>2022-06-18T14:47:07Z</time>
      </trkpt>
      <trkpt lat="42.4617110" lon="-8.6440430">
        <ele>40.4</ele>
        <time>2022-06-18T14:47:08Z</time>
      </trkpt>
      <trkpt lat="42.4617430" lon="-8.6440450">
        <ele>40.4</ele>
        <time>2022-06-18T14:47:09Z</time>
      </trkpt>
      <trkpt lat="42.4617750" lon="-8.6440600">
        <ele>40.4</ele>
        <time>2022-06-18T14:47:10Z</time>
      </trkpt>
      <trkpt lat="42.4618050" lon="-8.6440760">
        <ele>40.6</ele>
        <time>2022-06-18T14:47:11Z</time>
      </trkpt>
      <trkpt lat="42.4618260" lon="-8.6440930">
        <ele>40.6</ele>
        <time>2022-06-18T14:47:12Z</time>
      </trkpt>
      <trkpt lat="42.4618410" lon="-8.6441080">
        <ele>40.6</ele>
        <time>2022-06-18T14:47:13Z</time>
      </trkpt>
      <trkpt lat="42.4618600" lon="-8.6441230">
        <ele>41.6</ele>
        <time>2022-06-18T14:47:14Z</time>
      </trkpt>
      <trkpt lat="42.4618750" lon="-8.6441410">
        <ele>42.0</ele>
        <time>2022-06-18T14:47:15Z</time>
      </trkpt>
      <trkpt lat="42.4618850" lon="-8.6441580">
        <ele>42.0</ele>
        <time>2022-06-18T14:47:16Z</time>
      </trkpt>
      <trkpt lat="42.4618980" lon="-8.6441750">
        <ele>42.0</ele>
        <time>2022-06-18T14:47:17Z</time>
      </trkpt>
      <trkpt lat="42.4619100" lon="-8.6441930">
        <ele>42.0</ele>
        <time>2022-06-18T14:47:18Z</time>
      </trkpt>
      <trkpt lat="42.4619280" lon="-8.6442010">
        <ele>42.8</ele>
        <time>2022-06-18T14:47:19Z</time>
      </trkpt>
      <trkpt lat="42.4619400" lon="-8.6442100">
        <ele>42.8</ele>
        <time>2022-06-18T14:47:20Z</time>
      </trkpt>
      <trkpt lat="42.4619600" lon="-8.6442180">
        <ele>42.8</ele>
        <time>2022-06-18T14:47:21Z</time>
      </trkpt>
      <trkpt lat="42.4619780" lon="-8.6442310">
        <ele>43.8</ele>
        <time>2022-06-18T14:47:22Z</time>
      </trkpt>
      <trkpt lat="42.4619950" lon="-8.6442430">
        <ele>44.0</ele>
        <time>2022-06-18T14:47:23Z</time>
      </trkpt>
      <trkpt lat="42.4620180" lon="-8.6442530">
        <ele>44.0</ele>
        <time>2022-06-18T14:47:24Z</time>
      </trkpt>
      <trkpt lat="42.4620450" lon="-8.6442610">
        <ele>44.0</ele>
        <time>2022-06-18T14:47:25Z</time>
      </trkpt>
      <trkpt lat="42.4620680" lon="-8.6442660">
        <ele>44.0</ele>
        <time>2022-06-18T14:47:26Z</time>
      </trkpt>
      <trkpt lat="42.4620860" lon="-8.6442710">
        <ele>44.6</ele>
        <time>2022-06-18T14:47:27Z</time>
      </trkpt>
      <trkpt lat="42.4621030" lon="-8.6442760">
        <ele>44.6</ele>
        <time>2022-06-18T14:47:28Z</time>
      </trkpt>
      <trkpt lat="42.4621210" lon="-8.6442800">
        <ele>44.6</ele>
        <time>2022-06-18T14:47:29Z</time>
      </trkpt>
      <trkpt lat="42.4621410" lon="-8.6442830">
        <ele>45.2</ele>
        <time>2022-06-18T14:47:30Z</time>
      </trkpt>
      <trkpt lat="42.4621610" lon="-8.6442880">
        <ele>45.0</ele>
        <time>2022-06-18T14:47:31Z</time>
      </trkpt>
      <trkpt lat="42.4621780" lon="-8.6442960">
        <ele>45.0</ele>
        <time>2022-06-18T14:47:32Z</time>
      </trkpt>
      <trkpt lat="42.4621960" lon="-8.6443050">
        <ele>45.0</ele>
        <time>2022-06-18T14:47:33Z</time>
      </trkpt>
      <trkpt lat="42.4622110" lon="-8.6443100">
        <ele>46.0</ele>
        <time>2022-06-18T14:47:34Z</time>
      </trkpt>
      <trkpt lat="42.4622280" lon="-8.6443150">
        <ele>46.2</ele>
        <time>2022-06-18T14:47:35Z</time>
      </trkpt>
      <trkpt lat="42.4622450" lon="-8.6443200">
        <ele>46.2</ele>
        <time>2022-06-18T14:47:36Z</time>
      </trkpt>
      <trkpt lat="42.4622610" lon="-8.6443230">
        <ele>46.2</ele>
        <time>2022-06-18T14:47:37Z</time>
      </trkpt>
      <trkpt lat="42.4622780" lon="-8.6443280">
        <ele>46.6</ele>
        <time>2022-06-18T14:47:38Z</time>
      </trkpt>
      <trkpt lat="42.4622930" lon="-8.6443300">
        <ele>47.0</ele>
        <time>2022-06-18T14:47:39Z</time>
      </trkpt>
      <trkpt lat="42.4623080" lon="-8.6443360">
        <ele>47.0</ele>
        <time>2022-06-18T14:47:40Z</time>
      </trkpt>
      <trkpt lat="42.4623230" lon="-8.6443430">
        <ele>47.0</ele>
        <time>2022-06-18T14:47:41Z</time>
      </trkpt>
      <trkpt lat="42.4623350" lon="-8.6443510">
        <ele>47.4</ele>
        <time>2022-06-18T14:47:42Z</time>
      </trkpt>
      <trkpt lat="42.4623460" lon="-8.6443600">
        <ele>48.0</ele>
        <time>2022-06-18T14:47:43Z</time>
      </trkpt>
      <trkpt lat="42.4623600" lon="-8.6443700">
        <ele>48.0</ele>
        <time>2022-06-18T14:47:44Z</time>
      </trkpt>
      <trkpt lat="42.4623750" lon="-8.6443800">
        <ele>48.0</ele>
        <time>2022-06-18T14:47:45Z</time>
      </trkpt>
      <trkpt lat="42.4623910" lon="-8.6443910">
        <ele>48.0</ele>
        <time>2022-06-18T14:47:46Z</time>
      </trkpt>
      <trkpt lat="42.4624100" lon="-8.6444030">
        <ele>48.8</ele>
        <time>2022-06-18T14:47:47Z</time>
      </trkpt>
      <trkpt lat="42.4624250" lon="-8.6444110">
        <ele>48.8</ele>
        <time>2022-06-18T14:47:48Z</time>
      </trkpt>
      <trkpt lat="42.4624350" lon="-8.6444160">
        <ele>48.8</ele>
        <time>2022-06-18T14:47:49Z</time>
      </trkpt>
      <trkpt lat="42.4624400" lon="-8.6444180">
        <ele>48.8</ele>
        <time>2022-06-18T14:47:50Z</time>
      </trkpt>
      <trkpt lat="42.4624460" lon="-8.6444130">
        <ele>48.8</ele>
        <time>2022-06-18T14:47:51Z</time>
      </trkpt>
      <trkpt lat="42.4624530" lon="-8.6444080">
        <ele>48.8</ele>
        <time>2022-06-18T14:47:52Z</time>
      </trkpt>
      <trkpt lat="42.4624600" lon="-8.6444080">
        <ele>48.8</ele>
        <time>2022-06-18T14:47:53Z</time>
      </trkpt>
      <trkpt lat="42.4624660" lon="-8.6444130">
        <ele>49.0</ele>
        <time>2022-06-18T14:47:54Z</time>
      </trkpt>
      <trkpt lat="42.4624710" lon="-8.6444210">
        <ele>49.0</ele>
        <time>2022-06-18T14:47:55Z</time>
      </trkpt>
      <trkpt lat="42.4624750" lon="-8.6444260">
        <ele>49.0</ele>
        <time>2022-06-18T14:47:56Z</time>
      </trkpt>
      <trkpt lat="42.4625050" lon="-8.6443750">
        <ele>48.4</ele>
        <time>2022-06-18T14:49:46Z</time>
      </trkpt>
      <trkpt lat="42.4625130" lon="-8.6443610">
        <ele>48.6</ele>
        <time>2022-06-18T14:49:47Z</time>
      </trkpt>
      <trkpt lat="42.4625230" lon="-8.6443530">
        <ele>48.6</ele>
        <time>2022-06-18T14:49:48Z</time>
      </trkpt>
      <trkpt lat="42.4625330" lon="-8.6443530">
        <ele>48.6</ele>
        <time>2022-06-18T14:49:49Z</time>
      </trkpt>
      <trkpt lat="42.4625460" lon="-8.6443600">
        <ele>48.6</ele>
        <time>2022-06-18T14:49:50Z</time>
      </trkpt>
      <trkpt lat="42.4625610" lon="-8.6443560">
        <ele>49.2</ele>
        <time>2022-06-18T14:49:51Z</time>
      </trkpt>
      <trkpt lat="42.4625760" lon="-8.6443500">
        <ele>49.2</ele>
        <time>2022-06-18T14:49:52Z</time>
      </trkpt>
      <trkpt lat="42.4625910" lon="-8.6443450">
        <ele>49.2</ele>
        <time>2022-06-18T14:49:53Z</time>
      </trkpt>
      <trkpt lat="42.4626060" lon="-8.6443400">
        <ele>49.2</ele>
        <time>2022-06-18T14:49:54Z</time>
      </trkpt>
      <trkpt lat="42.4626250" lon="-8.6443380">
        <ele>49.6</ele>
        <time>2022-06-18T14:49:55Z</time>
      </trkpt>
      <trkpt lat="42.4626400" lon="-8.6443400">
        <ele>49.6</ele>
        <time>2022-06-18T14:49:56Z</time>
      </trkpt>
      <trkpt lat="42.4626560" lon="-8.6443450">
        <ele>49.6</ele>
        <time>2022-06-18T14:49:57Z</time>
      </trkpt>
      <trkpt lat="42.4626730" lon="-8.6443460">
        <ele>49.6</ele>
        <time>2022-06-18T14:49:58Z</time>
      </trkpt>
      <trkpt lat="42.4626860" lon="-8.6443500">
        <ele>50.6</ele>
        <time>2022-06-18T14:49:59Z</time>
      </trkpt>
      <trkpt lat="42.4627000" lon="-8.6443550">
        <ele>50.6</ele>
        <time>2022-06-18T14:50:00Z</time>
      </trkpt>
      <trkpt lat="42.4627150" lon="-8.6443600">
        <ele>50.6</ele>
        <time>2022-06-18T14:50:01Z</time>
      </trkpt>
      <trkpt lat="42.4627330" lon="-8.6443610">
        <ele>50.4</ele>
        <time>2022-06-18T14:50:02Z</time>
      </trkpt>
      <trkpt lat="42.4627530" lon="-8.6443600">
        <ele>50.2</ele>
        <time>2022-06-18T14:50:03Z</time>
      </trkpt>
      <trkpt lat="42.4627700" lon="-8.6443600">
        <ele>50.2</ele>
        <time>2022-06-18T14:50:04Z</time>
      </trkpt>
      <trkpt lat="42.4627880" lon="-8.6443600">
        <ele>50.2</ele>
        <time>2022-06-18T14:50:05Z</time>
      </trkpt>
      <trkpt lat="42.4628060" lon="-8.6443630">
        <ele>50.8</ele>
        <time>2022-06-18T14:50:06Z</time>
      </trkpt>
      <trkpt lat="42.4628230" lon="-8.6443650">
        <ele>51.0</ele>
        <time>2022-06-18T14:50:07Z</time>
      </trkpt>
      <trkpt lat="42.4628400" lon="-8.6443700">
        <ele>51.0</ele>
        <time>2022-06-18T14:50:08Z</time>
      </trkpt>
      <trkpt lat="42.4628550" lon="-8.6443710">
        <ele>51.0</ele>
        <time>2022-06-18T14:50:09Z</time>
      </trkpt>
      <trkpt lat="42.4628710" lon="-8.6443700">
        <ele>51.8</ele>
        <time>2022-06-18T14:50:10Z</time>
      </trkpt>
      <trkpt lat="42.4628900" lon="-8.6443680">
        <ele>52.0</ele>
        <time>2022-06-18T14:50:11Z</time>
      </trkpt>
      <trkpt lat="42.4629080" lon="-8.6443610">
        <ele>52.0</ele>
        <time>2022-06-18T14:50:12Z</time>
      </trkpt>
      <trkpt lat="42.4629260" lon="-8.6443580">
        <ele>52.0</ele>
        <time>2022-06-18T14:50:13Z</time>
      </trkpt>
      <trkpt lat="42.4629460" lon="-8.6443530">
        <ele>52.0</ele>
        <time>2022-06-18T14:50:14Z</time>
      </trkpt>
      <trkpt lat="42.4629660" lon="-8.6443500">
        <ele>52.4</ele>
        <time>2022-06-18T14:50:15Z</time>
      </trkpt>
      <trkpt lat="42.4629860" lon="-8.6443480">
        <ele>52.4</ele>
        <time>2022-06-18T14:50:16Z</time>
      </trkpt>
      <trkpt lat="42.4630030" lon="-8.6443500">
        <ele>52.4</ele>
        <time>2022-06-18T14:50:17Z</time>
      </trkpt>
      <trkpt lat="42.4630230" lon="-8.6443530">
        <ele>52.4</ele>
        <time>2022-06-18T14:50:18Z</time>
      </trkpt>
      <trkpt lat="42.4630410" lon="-8.6443550">
        <ele>52.4</ele>
        <time>2022-06-18T14:50:19Z</time>
      </trkpt>
      <trkpt lat="42.4630610" lon="-8.6443550">
        <ele>52.4</ele>
        <time>2022-06-18T14:50:20Z</time>
      </trkpt>
      <trkpt lat="42.4630800" lon="-8.6443560">
        <ele>52.4</ele>
        <time>2022-06-18T14:50:21Z</time>
      </trkpt>
      <trkpt lat="42.4631000" lon="-8.6443550">
        <ele>52.4</ele>
        <time>2022-06-18T14:50:22Z</time>
      </trkpt>
      <trkpt lat="42.4631200" lon="-8.6443550">
        <ele>53.0</ele>
        <time>2022-06-18T14:50:23Z</time>
      </trkpt>
      <trkpt lat="42.4631380" lon="-8.6443550">
        <ele>53.0</ele>
        <time>2022-06-18T14:50:24Z</time>
      </trkpt>
      <trkpt lat="42.4631550" lon="-8.6443560">
        <ele>53.0</ele>
        <time>2022-06-18T14:50:25Z</time>
      </trkpt>
      <trkpt lat="42.4631730" lon="-8.6443580">
        <ele>53.8</ele>
        <time>2022-06-18T14:50:26Z</time>
      </trkpt>
      <trkpt lat="42.4631900" lon="-8.6443580">
        <ele>54.2</ele>
        <time>2022-06-18T14:50:27Z</time>
      </trkpt>
      <trkpt lat="42.4632060" lon="-8.6443600">
        <ele>54.2</ele>
        <time>2022-06-18T14:50:28Z</time>
      </trkpt>
      <trkpt lat="42.4632250" lon="-8.6443580">
        <ele>54.2</ele>
        <time>2022-06-18T14:50:29Z</time>
      </trkpt>
      <trkpt lat="42.4632450" lon="-8.6443560">
        <ele>55.0</ele>
        <time>2022-06-18T14:50:30Z</time>
      </trkpt>
      <trkpt lat="42.4632630" lon="-8.6443530">
        <ele>55.2</ele>
        <time>2022-06-18T14:50:31Z</time>
      </trkpt>
      <trkpt lat="42.4632810" lon="-8.6443500">
        <ele>55.2</ele>
        <time>2022-06-18T14:50:32Z</time>
      </trkpt>
      <trkpt lat="42.4633000" lon="-8.6443460">
        <ele>55.2</ele>
        <time>2022-06-18T14:50:33Z</time>
      </trkpt>
      <trkpt lat="42.4633160" lon="-8.6443410">
        <ele>55.8</ele>
        <time>2022-06-18T14:50:34Z</time>
      </trkpt>
      <trkpt lat="42.4633330" lon="-8.6443400">
        <ele>56.0</ele>
        <time>2022-06-18T14:50:35Z</time>
      </trkpt>
      <trkpt lat="42.4633510" lon="-8.6443400">
        <ele>56.0</ele>
        <time>2022-06-18T14:50:36Z</time>
      </trkpt>
      <trkpt lat="42.4633700" lon="-8.6443380">
        <ele>56.0</ele>
        <time>2022-06-18T14:50:37Z</time>
      </trkpt>
      <trkpt lat="42.4633900" lon="-8.6443360">
        <ele>56.0</ele>
        <time>2022-06-18T14:50:38Z</time>
      </trkpt>
      <trkpt lat="42.4634080" lon="-8.6443330">
        <ele>56.8</ele>
        <time>2022-06-18T14:50:39Z</time>
      </trkpt>
      <trkpt lat="42.4634250" lon="-8.6443280">
        <ele>56.8</ele>
        <time>2022-06-18T14:50:40Z</time>
      </trkpt>
      <trkpt lat="42.4634430" lon="-8.6443210">
        <ele>56.8</ele>
        <time>2022-06-18T14:50:41Z</time>
      </trkpt>
      <trkpt lat="42.4634610" lon="-8.6443160">
        <ele>56.8</ele>
        <time>2022-06-18T14:50:42Z</time>
      </trkpt>
      <trkpt lat="42.4634800" lon="-8.6443110">
        <ele>57.4</ele>
        <time>2022-06-18T14:50:43Z</time>
      </trkpt>
      <trkpt lat="42.4634980" lon="-8.6443080">
        <ele>57.4</ele>
        <time>2022-06-18T14:50:44Z</time>
      </trkpt>
      <trkpt lat="42.4635150" lon="-8.6443080">
        <ele>57.4</ele>
        <time>2022-06-18T14:50:45Z</time>
      </trkpt>
      <trkpt lat="42.4635330" lon="-8.6443100">
        <ele>57.4</ele>
        <time>2022-06-18T14:50:46Z</time>
      </trkpt>
      <trkpt lat="42.4635510" lon="-8.6443110">
        <ele>57.8</ele>
        <time>2022-06-18T14:50:47Z</time>
      </trkpt>
      <trkpt lat="42.4635700" lon="-8.6443160">
        <ele>57.8</ele>
        <time>2022-06-18T14:50:48Z</time>
      </trkpt>
      <trkpt lat="42.4635900" lon="-8.6443210">
        <ele>57.8</ele>
        <time>2022-06-18T14:50:49Z</time>
      </trkpt>
      <trkpt lat="42.4636080" lon="-8.6443300">
        <ele>57.8</ele>
        <time>2022-06-18T14:50:50Z</time>
      </trkpt>
      <trkpt lat="42.4636230" lon="-8.6443410">
        <ele>58.2</ele>
        <time>2022-06-18T14:50:51Z</time>
      </trkpt>
      <trkpt lat="42.4636410" lon="-8.6443550">
        <ele>58.2</ele>
        <time>2022-06-18T14:50:52Z</time>
      </trkpt>
      <trkpt lat="42.4636580" lon="-8.6443660">
        <ele>58.2</ele>
        <time>2022-06-18T14:50:53Z</time>
      </trkpt>
      <trkpt lat="42.4636760" lon="-8.6443780">
        <ele>58.2</ele>
        <time>2022-06-18T14:50:54Z</time>
      </trkpt>
      <trkpt lat="42.4636950" lon="-8.6443880">
        <ele>58.8</ele>
        <time>2022-06-18T14:50:55Z</time>
      </trkpt>
      <trkpt lat="42.4637110" lon="-8.6444010">
        <ele>58.8</ele>
        <time>2022-06-18T14:50:56Z</time>
      </trkpt>
      <trkpt lat="42.4637300" lon="-8.6444130">
        <ele>58.8</ele>
        <time>2022-06-18T14:50:57Z</time>
      </trkpt>
      <trkpt lat="42.4637460" lon="-8.6444250">
        <ele>59.6</ele>
        <time>2022-06-18T14:50:58Z</time>
      </trkpt>
      <trkpt lat="42.4637630" lon="-8.6444360">
        <ele>59.8</ele>
        <time>2022-06-18T14:50:59Z</time>
      </trkpt>
      <trkpt lat="42.4637800" lon="-8.6444460">
        <ele>59.8</ele>
        <time>2022-06-18T14:51:00Z</time>
      </trkpt>
      <trkpt lat="42.4637950" lon="-8.6444560">
        <ele>59.8</ele>
        <time>2022-06-18T14:51:01Z</time>
      </trkpt>
      <trkpt lat="42.4638110" lon="-8.6444700">
        <ele>60.2</ele>
        <time>2022-06-18T14:51:02Z</time>
      </trkpt>
      <trkpt lat="42.4638260" lon="-8.6444830">
        <ele>60.2</ele>
        <time>2022-06-18T14:51:03Z</time>
      </trkpt>
      <trkpt lat="42.4638430" lon="-8.6444950">
        <ele>60.2</ele>
        <time>2022-06-18T14:51:04Z</time>
      </trkpt>
      <trkpt lat="42.4638600" lon="-8.6445050">
        <ele>60.2</ele>
        <time>2022-06-18T14:51:05Z</time>
      </trkpt>
      <trkpt lat="42.4638730" lon="-8.6445180">
        <ele>60.8</ele>
        <time>2022-06-18T14:51:06Z</time>
      </trkpt>
      <trkpt lat="42.4638860" lon="-8.6445350">
        <ele>60.8</ele>
        <time>2022-06-18T14:51:07Z</time>
      </trkpt>
      <trkpt lat="42.4639000" lon="-8.6445510">
        <ele>60.8</ele>
        <time>2022-06-18T14:51:08Z</time>
      </trkpt>
      <trkpt lat="42.4639110" lon="-8.6445660">
        <ele>60.8</ele>
        <time>2022-06-18T14:51:09Z</time>
      </trkpt>
      <trkpt lat="42.4639260" lon="-8.6445830">
        <ele>60.0</ele>
        <time>2022-06-18T14:51:10Z</time>
      </trkpt>
      <trkpt lat="42.4639410" lon="-8.6445960">
        <ele>60.4</ele>
        <time>2022-06-18T14:51:11Z</time>
      </trkpt>
      <trkpt lat="42.4639560" lon="-8.6446080">
        <ele>60.4</ele>
        <time>2022-06-18T14:51:12Z</time>
      </trkpt>
      <trkpt lat="42.4639730" lon="-8.6446200">
        <ele>60.4</ele>
        <time>2022-06-18T14:51:13Z</time>
      </trkpt>
      <trkpt lat="42.4639860" lon="-8.6446310">
        <ele>60.8</ele>
        <time>2022-06-18T14:51:14Z</time>
      </trkpt>
      <trkpt lat="42.4639960" lon="-8.6446410">
        <ele>61.0</ele>
        <time>2022-06-18T14:51:15Z</time>
      </trkpt>
      <trkpt lat="42.4640050" lon="-8.6446500">
        <ele>61.0</ele>
        <time>2022-06-18T14:51:16Z</time>
      </trkpt>
      <trkpt lat="42.4640110" lon="-8.6446600">
        <ele>61.0</ele>
        <time>2022-06-18T14:51:17Z</time>
      </trkpt>
      <trkpt lat="42.4640150" lon="-8.6446680">
        <ele>61.0</ele>
        <time>2022-06-18T14:51:18Z</time>
      </trkpt>
      <trkpt lat="42.4640200" lon="-8.6446780">
        <ele>60.6</ele>
        <time>2022-06-18T14:51:19Z</time>
      </trkpt>
      <trkpt lat="42.4640230" lon="-8.6446850">
        <ele>60.6</ele>
        <time>2022-06-18T14:51:20Z</time>
      </trkpt>
      <trkpt lat="42.4640250" lon="-8.6446860">
        <ele>60.6</ele>
        <time>2022-06-18T14:51:21Z</time>
      </trkpt>
      <trkpt lat="42.4640250" lon="-8.6446860">
        <ele>60.6</ele>
        <time>2022-06-18T14:51:22Z</time>
      </trkpt>
      <trkpt lat="42.4640400" lon="-8.6446950">
        <ele>61.8</ele>
        <time>2022-06-18T14:53:12Z</time>
      </trkpt>
      <trkpt lat="42.4640410" lon="-8.6447180">
        <ele>61.8</ele>
        <time>2022-06-18T14:53:13Z</time>
      </trkpt>
      <trkpt lat="42.4640450" lon="-8.6447480">
        <ele>60.8</ele>
        <time>2022-06-18T14:53:14Z</time>
      </trkpt>
      <trkpt lat="42.4640510" lon="-8.6447860">
        <ele>60.4</ele>
        <time>2022-06-18T14:53:15Z</time>
      </trkpt>
      <trkpt lat="42.4640630" lon="-8.6448350">
        <ele>60.4</ele>
        <time>2022-06-18T14:53:16Z</time>
      </trkpt>
      <trkpt lat="42.4640760" lon="-8.6448980">
        <ele>60.4</ele>
        <time>2022-06-18T14:53:17Z</time>
      </trkpt>
      <trkpt lat="42.4640850" lon="-8.6449750">
        <ele>59.4</ele>
        <time>2022-06-18T14:53:18Z</time>
      </trkpt>
      <trkpt lat="42.4640980" lon="-8.6450660">
        <ele>53.0</ele>
        <time>2022-06-18T14:53:19Z</time>
      </trkpt>
      <trkpt lat="42.4641180" lon="-8.6451630">
        <ele>53.0</ele>
        <time>2022-06-18T14:53:20Z</time>
      </trkpt>
      <trkpt lat="42.4641460" lon="-8.6452600">
        <ele>53.0</ele>
        <time>2022-06-18T14:53:21Z</time>
      </trkpt>
      <trkpt lat="42.4641750" lon="-8.6453700">
        <ele>52.0</ele>
        <time>2022-06-18T14:53:22Z</time>
      </trkpt>
      <trkpt lat="42.4642060" lon="-8.6454810">
        <ele>47.4</ele>
        <time>2022-06-18T14:53:23Z</time>
      </trkpt>
      <trkpt lat="42.4642380" lon="-8.6455930">
        <ele>47.4</ele>
        <time>2022-06-18T14:53:24Z</time>
      </trkpt>
      <trkpt lat="42.4642800" lon="-8.6456960">
        <ele>47.4</ele>
        <time>2022-06-18T14:53:25Z</time>
      </trkpt>
      <trkpt lat="42.4643360" lon="-8.6457860">
        <ele>46.4</ele>
        <time>2022-06-18T14:53:26Z</time>
      </trkpt>
      <trkpt lat="42.4644080" lon="-8.6458650">
        <ele>42.4</ele>
        <time>2022-06-18T14:53:27Z</time>
      </trkpt>
      <trkpt lat="42.4644860" lon="-8.6459360">
        <ele>42.4</ele>
        <time>2022-06-18T14:53:28Z</time>
      </trkpt>
      <trkpt lat="42.4645660" lon="-8.6459950">
        <ele>42.4</ele>
        <time>2022-06-18T14:53:29Z</time>
      </trkpt>
      <trkpt lat="42.4646430" lon="-8.6460260">
        <ele>42.4</ele>
        <time>2022-06-18T14:53:30Z</time>
      </trkpt>
      <trkpt lat="42.4647060" lon="-8.6460380">
        <ele>43.6</ele>
        <time>2022-06-18T14:53:31Z</time>
      </trkpt>
      <trkpt lat="42.4647560" lon="-8.6460310">
        <ele>43.6</ele>
        <time>2022-06-18T14:53:32Z</time>
      </trkpt>
      <trkpt lat="42.4647880" lon="-8.6460200">
        <ele>43.6</ele>
        <time>2022-06-18T14:53:33Z</time>
      </trkpt>
      <trkpt lat="42.4648080" lon="-8.6460110">
        <ele>44.0</ele>
        <time>2022-06-18T14:53:34Z</time>
      </trkpt>
      <trkpt lat="42.4648210" lon="-8.6460080">
        <ele>43.8</ele>
        <time>2022-06-18T14:53:35Z</time>
      </trkpt>
      <trkpt lat="42.4648360" lon="-8.6460100">
        <ele>43.8</ele>
        <time>2022-06-18T14:53:36Z</time>
      </trkpt>
      <trkpt lat="42.4648580" lon="-8.6460260">
        <ele>43.8</ele>
        <time>2022-06-18T14:53:37Z</time>
      </trkpt>
      <trkpt lat="42.4648760" lon="-8.6460580">
        <ele>42.8</ele>
        <time>2022-06-18T14:53:38Z</time>
      </trkpt>
      <trkpt lat="42.4648900" lon="-8.6461050">
        <ele>40.6</ele>
        <time>2022-06-18T14:53:39Z</time>
      </trkpt>
      <trkpt lat="42.4649100" lon="-8.6461530">
        <ele>40.6</ele>
        <time>2022-06-18T14:53:40Z</time>
      </trkpt>
      <trkpt lat="42.4649300" lon="-8.6461960">
        <ele>40.6</ele>
        <time>2022-06-18T14:53:41Z</time>
      </trkpt>
      <trkpt lat="42.4649480" lon="-8.6462450">
        <ele>40.2</ele>
        <time>2022-06-18T14:53:42Z</time>
      </trkpt>
      <trkpt lat="42.4649630" lon="-8.6462980">
        <ele>40.6</ele>
        <time>2022-06-18T14:53:43Z</time>
      </trkpt>
      <trkpt lat="42.4649650" lon="-8.6463510">
        <ele>40.6</ele>
        <time>2022-06-18T14:53:44Z</time>
      </trkpt>
      <trkpt lat="42.4649700" lon="-8.6464050">
        <ele>40.6</ele>
        <time>2022-06-18T14:53:45Z</time>
      </trkpt>
      <trkpt lat="42.4649750" lon="-8.6464480">
        <ele>41.6</ele>
        <time>2022-06-18T14:53:46Z</time>
      </trkpt>
      <trkpt lat="42.4649680" lon="-8.6464860">
        <ele>41.0</ele>
        <time>2022-06-18T14:53:47Z</time>
      </trkpt>
      <trkpt lat="42.4649500" lon="-8.6465210">
        <ele>41.0</ele>
        <time>2022-06-18T14:53:48Z</time>
      </trkpt>
      <trkpt lat="42.4649360" lon="-8.6465660">
        <ele>41.0</ele>
        <time>2022-06-18T14:53:49Z</time>
      </trkpt>
      <trkpt lat="42.4649380" lon="-8.6466150">
        <ele>41.0</ele>
        <time>2022-06-18T14:53:50Z</time>
      </trkpt>
      <trkpt lat="42.4649500" lon="-8.6466560">
        <ele>41.6</ele>
        <time>2022-06-18T14:53:51Z</time>
      </trkpt>
      <trkpt lat="42.4649630" lon="-8.6466980">
        <ele>41.6</ele>
        <time>2022-06-18T14:53:52Z</time>
      </trkpt>
      <trkpt lat="42.4649750" lon="-8.6467400">
        <ele>41.6</ele>
        <time>2022-06-18T14:53:53Z</time>
      </trkpt>
      <trkpt lat="42.4649880" lon="-8.6467810">
        <ele>40.8</ele>
        <time>2022-06-18T14:53:54Z</time>
      </trkpt>
      <trkpt lat="42.4650010" lon="-8.6468230">
        <ele>40.2</ele>
        <time>2022-06-18T14:53:55Z</time>
      </trkpt>
      <trkpt lat="42.4650160" lon="-8.6468660">
        <ele>40.2</ele>
        <time>2022-06-18T14:53:56Z</time>
      </trkpt>
      <trkpt lat="42.4650350" lon="-8.6469130">
        <ele>40.2</ele>
        <time>2022-06-18T14:53:57Z</time>
      </trkpt>
      <trkpt lat="42.4650550" lon="-8.6469610">
        <ele>40.8</ele>
        <time>2022-06-18T14:53:58Z</time>
      </trkpt>
      <trkpt lat="42.4650750" lon="-8.6470130">
        <ele>40.8</ele>
        <time>2022-06-18T14:53:59Z</time>
      </trkpt>
      <trkpt lat="42.4650930" lon="-8.6470630">
        <ele>40.8</ele>
        <time>2022-06-18T14:54:00Z</time>
      </trkpt>
      <trkpt lat="42.4651180" lon="-8.6471100">
        <ele>40.8</ele>
        <time>2022-06-18T14:54:01Z</time>
      </trkpt>
      <trkpt lat="42.4651430" lon="-8.6471530">
        <ele>40.8</ele>
        <time>2022-06-18T14:54:02Z</time>
      </trkpt>
      <trkpt lat="42.4651660" lon="-8.6471960">
        <ele>40.8</ele>
        <time>2022-06-18T14:54:03Z</time>
      </trkpt>
      <trkpt lat="42.4651850" lon="-8.6472310">
        <ele>40.8</ele>
        <time>2022-06-18T14:54:04Z</time>
      </trkpt>
      <trkpt lat="42.4652010" lon="-8.6472550">
        <ele>40.8</ele>
        <time>2022-06-18T14:54:05Z</time>
      </trkpt>
      <trkpt lat="42.4652110" lon="-8.6472660">
        <ele>41.8</ele>
        <time>2022-06-18T14:54:06Z</time>
      </trkpt>
      <trkpt lat="42.4652150" lon="-8.6472710">
        <ele>42.4</ele>
        <time>2022-06-18T14:54:07Z</time>
      </trkpt>
      <trkpt lat="42.4652150" lon="-8.6472710">
        <ele>42.4</ele>
        <time>2022-06-18T14:54:08Z</time>
      </trkpt>
      <trkpt lat="42.4652680" lon="-8.6473210">
        <ele>41.8</ele>
        <time>2022-06-18T14:54:31Z</time>
      </trkpt>
      <trkpt lat="42.4652800" lon="-8.6473360">
        <ele>41.8</ele>
        <time>2022-06-18T14:54:32Z</time>
      </trkpt>
      <trkpt lat="42.4652930" lon="-8.6473530">
        <ele>41.8</ele>
        <time>2022-06-18T14:54:33Z</time>
      </trkpt>
      <trkpt lat="42.4653060" lon="-8.6473680">
        <ele>41.8</ele>
        <time>2022-06-18T14:54:34Z</time>
      </trkpt>
      <trkpt lat="42.4653180" lon="-8.6473830">
        <ele>41.6</ele>
        <time>2022-06-18T14:54:35Z</time>
      </trkpt>
      <trkpt lat="42.4653310" lon="-8.6473960">
        <ele>41.6</ele>
        <time>2022-06-18T14:54:36Z</time>
      </trkpt>
      <trkpt lat="42.4653450" lon="-8.6474100">
        <ele>41.6</ele>
        <time>2022-06-18T14:54:37Z</time>
      </trkpt>
      <trkpt lat="42.4653580" lon="-8.6474250">
        <ele>41.8</ele>
        <time>2022-06-18T14:54:38Z</time>
      </trkpt>
      <trkpt lat="42.4653730" lon="-8.6474410">
        <ele>41.6</ele>
        <time>2022-06-18T14:54:39Z</time>
      </trkpt>
      <trkpt lat="42.4653880" lon="-8.6474560">
        <ele>41.6</ele>
        <time>2022-06-18T14:54:40Z</time>
      </trkpt>
      <trkpt lat="42.4654060" lon="-8.6474730">
        <ele>41.6</ele>
        <time>2022-06-18T14:54:41Z</time>
      </trkpt>
      <trkpt lat="42.4654280" lon="-8.6474900">
        <ele>41.6</ele>
        <time>2022-06-18T14:54:42Z</time>
      </trkpt>
      <trkpt lat="42.4654500" lon="-8.6475060">
        <ele>41.0</ele>
        <time>2022-06-18T14:54:43Z</time>
      </trkpt>
      <trkpt lat="42.4654750" lon="-8.6475260">
        <ele>41.0</ele>
        <time>2022-06-18T14:54:44Z</time>
      </trkpt>
      <trkpt lat="42.4655030" lon="-8.6475480">
        <ele>41.0</ele>
        <time>2022-06-18T14:54:45Z</time>
      </trkpt>
      <trkpt lat="42.4655310" lon="-8.6475700">
        <ele>41.6</ele>
        <time>2022-06-18T14:54:46Z</time>
      </trkpt>
      <trkpt lat="42.4655610" lon="-8.6475930">
        <ele>40.6</ele>
        <time>2022-06-18T14:54:47Z</time>
      </trkpt>
      <trkpt lat="42.4655910" lon="-8.6476180">
        <ele>40.6</ele>
        <time>2022-06-18T14:54:48Z</time>
      </trkpt>
      <trkpt lat="42.4656210" lon="-8.6476430">
        <ele>40.6</ele>
        <time>2022-06-18T14:54:49Z</time>
      </trkpt>
      <trkpt lat="42.4656530" lon="-8.6476660">
        <ele>41.2</ele>
        <time>2022-06-18T14:54:50Z</time>
      </trkpt>
      <trkpt lat="42.4656850" lon="-8.6476910">
        <ele>40.8</ele>
        <time>2022-06-18T14:54:51Z</time>
      </trkpt>
      <trkpt lat="42.4657160" lon="-8.6477180">
        <ele>40.8</ele>
        <time>2022-06-18T14:54:52Z</time>
      </trkpt>
      <trkpt lat="42.4657480" lon="-8.6477500">
        <ele>40.8</ele>
        <time>2022-06-18T14:54:53Z</time>
      </trkpt>
      <trkpt lat="42.4657800" lon="-8.6477850">
        <ele>40.8</ele>
        <time>2022-06-18T14:54:54Z</time>
      </trkpt>
      <trkpt lat="42.4658100" lon="-8.6478230">
        <ele>39.2</ele>
        <time>2022-06-18T14:54:55Z</time>
      </trkpt>
      <trkpt lat="42.4658380" lon="-8.6478650">
        <ele>39.2</ele>
        <time>2022-06-18T14:54:56Z</time>
      </trkpt>
      <trkpt lat="42.4658660" lon="-8.6479060">
        <ele>39.2</ele>
        <time>2022-06-18T14:54:57Z</time>
      </trkpt>
      <trkpt lat="42.4658910" lon="-8.6479430">
        <ele>40.2</ele>
        <time>2022-06-18T14:54:58Z</time>
      </trkpt>
      <trkpt lat="42.4659150" lon="-8.6479730">
        <ele>40.6</ele>
        <time>2022-06-18T14:54:59Z</time>
      </trkpt>
      <trkpt lat="42.4659430" lon="-8.6479860">
        <ele>40.6</ele>
        <time>2022-06-18T14:55:00Z</time>
      </trkpt>
      <trkpt lat="42.4659750" lon="-8.6479960">
        <ele>40.6</ele>
        <time>2022-06-18T14:55:01Z</time>
      </trkpt>
      <trkpt lat="42.4660060" lon="-8.6480100">
        <ele>40.6</ele>
        <time>2022-06-18T14:55:02Z</time>
      </trkpt>
      <trkpt lat="42.4660380" lon="-8.6480250">
        <ele>40.8</ele>
        <time>2022-06-18T14:55:03Z</time>
      </trkpt>
      <trkpt lat="42.4660680" lon="-8.6480400">
        <ele>40.8</ele>
        <time>2022-06-18T14:55:04Z</time>
      </trkpt>
      <trkpt lat="42.4661000" lon="-8.6480580">
        <ele>40.8</ele>
        <time>2022-06-18T14:55:05Z</time>
      </trkpt>
      <trkpt lat="42.4661330" lon="-8.6480780">
        <ele>41.0</ele>
        <time>2022-06-18T14:55:06Z</time>
      </trkpt>
      <trkpt lat="42.4661660" lon="-8.6480980">
        <ele>40.4</ele>
        <time>2022-06-18T14:55:07Z</time>
      </trkpt>
      <trkpt lat="42.4662000" lon="-8.6481180">
        <ele>40.4</ele>
        <time>2022-06-18T14:55:08Z</time>
      </trkpt>
      <trkpt lat="42.4662330" lon="-8.6481360">
        <ele>40.4</ele>
        <time>2022-06-18T14:55:09Z</time>
      </trkpt>
      <trkpt lat="42.4662660" lon="-8.6481530">
        <ele>40.4</ele>
        <time>2022-06-18T14:55:10Z</time>
      </trkpt>
      <trkpt lat="42.4662980" lon="-8.6481680">
        <ele>41.4</ele>
        <time>2022-06-18T14:55:11Z</time>
      </trkpt>
      <trkpt lat="42.4663310" lon="-8.6481850">
        <ele>41.4</ele>
        <time>2022-06-18T14:55:12Z</time>
      </trkpt>
      <trkpt lat="42.4663630" lon="-8.6482010">
        <ele>41.4</ele>
        <time>2022-06-18T14:55:13Z</time>
      </trkpt>
      <trkpt lat="42.4663950" lon="-8.6482180">
        <ele>40.6</ele>
        <time>2022-06-18T14:55:14Z</time>
      </trkpt>
      <trkpt lat="42.4664260" lon="-8.6482350">
        <ele>41.0</ele>
        <time>2022-06-18T14:55:15Z</time>
      </trkpt>
      <trkpt lat="42.4664580" lon="-8.6482500">
        <ele>41.0</ele>
        <time>2022-06-18T14:55:16Z</time>
      </trkpt>
      <trkpt lat="42.4664880" lon="-8.6482660">
        <ele>41.0</ele>
        <time>2022-06-18T14:55:17Z</time>
      </trkpt>
      <trkpt lat="42.4665200" lon="-8.6482800">
        <ele>41.0</ele>
        <time>2022-06-18T14:55:18Z</time>
      </trkpt>
      <trkpt lat="42.4665530" lon="-8.6482950">
        <ele>40.6</ele>
        <time>2022-06-18T14:55:19Z</time>
      </trkpt>
      <trkpt lat="42.4665880" lon="-8.6483060">
        <ele>40.6</ele>
        <time>2022-06-18T14:55:20Z</time>
      </trkpt>
      <trkpt lat="42.4666210" lon="-8.6483200">
        <ele>40.6</ele>
        <time>2022-06-18T14:55:21Z</time>
      </trkpt>
      <trkpt lat="42.4666550" lon="-8.6483310">
        <ele>40.6</ele>
        <time>2022-06-18T14:55:22Z</time>
      </trkpt>
      <trkpt lat="42.4666900" lon="-8.6483430">
        <ele>40.8</ele>
        <time>2022-06-18T14:55:23Z</time>
      </trkpt>
      <trkpt lat="42.4667230" lon="-8.6483530">
        <ele>40.8</ele>
        <time>2022-06-18T14:55:24Z</time>
      </trkpt>
      <trkpt lat="42.4667580" lon="-8.6483630">
        <ele>40.8</ele>
        <time>2022-06-18T14:55:25Z</time>
      </trkpt>
      <trkpt lat="42.4667930" lon="-8.6483730">
        <ele>40.8</ele>
        <time>2022-06-18T14:55:26Z</time>
      </trkpt>
      <trkpt lat="42.4668230" lon="-8.6483880">
        <ele>40.8</ele>
        <time>2022-06-18T14:55:27Z</time>
      </trkpt>
      <trkpt lat="42.4668560" lon="-8.6484010">
        <ele>40.8</ele>
        <time>2022-06-18T14:55:28Z</time>
      </trkpt>
      <trkpt lat="42.4668900" lon="-8.6484150">
        <ele>40.8</ele>
        <time>2022-06-18T14:55:29Z</time>
      </trkpt>
      <trkpt lat="42.4669250" lon="-8.6484280">
        <ele>40.8</ele>
        <time>2022-06-18T14:55:30Z</time>
      </trkpt>
      <trkpt lat="42.4669600" lon="-8.6484400">
        <ele>40.8</ele>
        <time>2022-06-18T14:55:31Z</time>
      </trkpt>
      <trkpt lat="42.4669950" lon="-8.6484500">
        <ele>40.8</ele>
        <time>2022-06-18T14:55:32Z</time>
      </trkpt>
      <trkpt lat="42.4670300" lon="-8.6484560">
        <ele>40.8</ele>
        <time>2022-06-18T14:55:33Z</time>
      </trkpt>
      <trkpt lat="42.4670650" lon="-8.6484610">
        <ele>41.2</ele>
        <time>2022-06-18T14:55:34Z</time>
      </trkpt>
      <trkpt lat="42.4671010" lon="-8.6484680">
        <ele>40.8</ele>
        <time>2022-06-18T14:55:35Z</time>
      </trkpt>
      <trkpt lat="42.4671350" lon="-8.6484760">
        <ele>40.8</ele>
        <time>2022-06-18T14:55:36Z</time>
      </trkpt>
      <trkpt lat="42.4671680" lon="-8.6484830">
        <ele>40.8</ele>
        <time>2022-06-18T14:55:37Z</time>
      </trkpt>
      <trkpt lat="42.4672010" lon="-8.6484910">
        <ele>41.6</ele>
        <time>2022-06-18T14:55:38Z</time>
      </trkpt>
      <trkpt lat="42.4672350" lon="-8.6484950">
        <ele>41.6</ele>
        <time>2022-06-18T14:55:39Z</time>
      </trkpt>
      <trkpt lat="42.4672700" lon="-8.6484950">
        <ele>41.6</ele>
        <time>2022-06-18T14:55:40Z</time>
      </trkpt>
      <trkpt lat="42.4673100" lon="-8.6484900">
        <ele>41.6</ele>
        <time>2022-06-18T14:55:41Z</time>
      </trkpt>
      <trkpt lat="42.4673500" lon="-8.6484850">
        <ele>41.6</ele>
        <time>2022-06-18T14:55:42Z</time>
      </trkpt>
      <trkpt lat="42.4673950" lon="-8.6484780">
        <ele>40.8</ele>
        <time>2022-06-18T14:55:43Z</time>
      </trkpt>
      <trkpt lat="42.4674400" lon="-8.6484660">
        <ele>40.8</ele>
        <time>2022-06-18T14:55:44Z</time>
      </trkpt>
      <trkpt lat="42.4674830" lon="-8.6484510">
        <ele>40.8</ele>
        <time>2022-06-18T14:55:45Z</time>
      </trkpt>
      <trkpt lat="42.4675260" lon="-8.6484310">
        <ele>40.2</ele>
        <time>2022-06-18T14:55:46Z</time>
      </trkpt>
      <trkpt lat="42.4675700" lon="-8.6484130">
        <ele>40.2</ele>
        <time>2022-06-18T14:55:47Z</time>
      </trkpt>
      <trkpt lat="42.4676150" lon="-8.6483950">
        <ele>40.2</ele>
        <time>2022-06-18T14:55:48Z</time>
      </trkpt>
      <trkpt lat="42.4676600" lon="-8.6483760">
        <ele>40.2</ele>
        <time>2022-06-18T14:55:49Z</time>
      </trkpt>
      <trkpt lat="42.4677030" lon="-8.6483650">
        <ele>40.2</ele>
        <time>2022-06-18T14:55:50Z</time>
      </trkpt>
      <trkpt lat="42.4677460" lon="-8.6483510">
        <ele>39.8</ele>
        <time>2022-06-18T14:55:51Z</time>
      </trkpt>
      <trkpt lat="42.4677960" lon="-8.6483410">
        <ele>39.8</ele>
        <time>2022-06-18T14:55:52Z</time>
      </trkpt>
      <trkpt lat="42.4678480" lon="-8.6483310">
        <ele>39.8</ele>
        <time>2022-06-18T14:55:53Z</time>
      </trkpt>
      <trkpt lat="42.4678980" lon="-8.6483260">
        <ele>39.8</ele>
        <time>2022-06-18T14:55:54Z</time>
      </trkpt>
      <trkpt lat="42.4679430" lon="-8.6483250">
        <ele>40.6</ele>
        <time>2022-06-18T14:55:55Z</time>
      </trkpt>
      <trkpt lat="42.4679850" lon="-8.6483260">
        <ele>40.6</ele>
        <time>2022-06-18T14:55:56Z</time>
      </trkpt>
      <trkpt lat="42.4680260" lon="-8.6483200">
        <ele>40.6</ele>
        <time>2022-06-18T14:55:57Z</time>
      </trkpt>
      <trkpt lat="42.4680650" lon="-8.6483130">
        <ele>40.8</ele>
        <time>2022-06-18T14:55:58Z</time>
      </trkpt>
      <trkpt lat="42.4681050" lon="-8.6483110">
        <ele>40.0</ele>
        <time>2022-06-18T14:55:59Z</time>
      </trkpt>
      <trkpt lat="42.4681500" lon="-8.6483130">
        <ele>40.0</ele>
        <time>2022-06-18T14:56:00Z</time>
      </trkpt>
      <trkpt lat="42.4682010" lon="-8.6483150">
        <ele>40.0</ele>
        <time>2022-06-18T14:56:01Z</time>
      </trkpt>
      <trkpt lat="42.4682480" lon="-8.6483100">
        <ele>40.0</ele>
        <time>2022-06-18T14:56:02Z</time>
      </trkpt>
      <trkpt lat="42.4682900" lon="-8.6483110">
        <ele>40.8</ele>
        <time>2022-06-18T14:56:03Z</time>
      </trkpt>
      <trkpt lat="42.4683230" lon="-8.6483210">
        <ele>40.8</ele>
        <time>2022-06-18T14:56:04Z</time>
      </trkpt>
      <trkpt lat="42.4683530" lon="-8.6483380">
        <ele>40.8</ele>
        <time>2022-06-18T14:56:05Z</time>
      </trkpt>
      <trkpt lat="42.4683850" lon="-8.6483500">
        <ele>41.0</ele>
        <time>2022-06-18T14:56:06Z</time>
      </trkpt>
      <trkpt lat="42.4684200" lon="-8.6483550">
        <ele>41.0</ele>
        <time>2022-06-18T14:56:07Z</time>
      </trkpt>
      <trkpt lat="42.4684560" lon="-8.6483530">
        <ele>41.0</ele>
        <time>2022-06-18T14:56:08Z</time>
      </trkpt>
      <trkpt lat="42.4684950" lon="-8.6483460">
        <ele>41.0</ele>
        <time>2022-06-18T14:56:09Z</time>
      </trkpt>
      <trkpt lat="42.4685350" lon="-8.6483380">
        <ele>41.0</ele>
        <time>2022-06-18T14:56:10Z</time>
      </trkpt>
      <trkpt lat="42.4685750" lon="-8.6483330">
        <ele>41.2</ele>
        <time>2022-06-18T14:56:11Z</time>
      </trkpt>
      <trkpt lat="42.4686150" lon="-8.6483360">
        <ele>41.2</ele>
        <time>2022-06-18T14:56:12Z</time>
      </trkpt>
      <trkpt lat="42.4686450" lon="-8.6483480">
        <ele>41.2</ele>
        <time>2022-06-18T14:56:13Z</time>
      </trkpt>
      <trkpt lat="42.4686730" lon="-8.6483300">
        <ele>41.2</ele>
        <time>2022-06-18T14:56:14Z</time>
      </trkpt>
      <trkpt lat="42.4687060" lon="-8.6482960">
        <ele>41.0</ele>
        <time>2022-06-18T14:56:15Z</time>
      </trkpt>
      <trkpt lat="42.4687410" lon="-8.6482710">
        <ele>41.0</ele>
        <time>2022-06-18T14:56:16Z</time>
      </trkpt>
      <trkpt lat="42.4687780" lon="-8.6482560">
        <ele>41.0</ele>
        <time>2022-06-18T14:56:17Z</time>
      </trkpt>
      <trkpt lat="42.4688130" lon="-8.6482560">
        <ele>41.0</ele>
        <time>2022-06-18T14:56:18Z</time>
      </trkpt>
      <trkpt lat="42.4688500" lon="-8.6482660">
        <ele>41.0</ele>
        <time>2022-06-18T14:56:19Z</time>
      </trkpt>
      <trkpt lat="42.4688850" lon="-8.6482760">
        <ele>41.0</ele>
        <time>2022-06-18T14:56:20Z</time>
      </trkpt>
      <trkpt lat="42.4689200" lon="-8.6482830">
        <ele>41.0</ele>
        <time>2022-06-18T14:56:21Z</time>
      </trkpt>
      <trkpt lat="42.4689560" lon="-8.6482880">
        <ele>41.6</ele>
        <time>2022-06-18T14:56:22Z</time>
      </trkpt>
      <trkpt lat="42.4689910" lon="-8.6482960">
        <ele>42.0</ele>
        <time>2022-06-18T14:56:23Z</time>
      </trkpt>
      <trkpt lat="42.4690250" lon="-8.6483100">
        <ele>42.0</ele>
        <time>2022-06-18T14:56:24Z</time>
      </trkpt>
      <trkpt lat="42.4690600" lon="-8.6483200">
        <ele>42.0</ele>
        <time>2022-06-18T14:56:25Z</time>
      </trkpt>
      <trkpt lat="42.4690960" lon="-8.6483330">
        <ele>42.0</ele>
        <time>2022-06-18T14:56:26Z</time>
      </trkpt>
      <trkpt lat="42.4691310" lon="-8.6483460">
        <ele>41.8</ele>
        <time>2022-06-18T14:56:27Z</time>
      </trkpt>
      <trkpt lat="42.4691680" lon="-8.6483610">
        <ele>41.8</ele>
        <time>2022-06-18T14:56:28Z</time>
      </trkpt>
      <trkpt lat="42.4692050" lon="-8.6483730">
        <ele>41.8</ele>
        <time>2022-06-18T14:56:29Z</time>
      </trkpt>
      <trkpt lat="42.4692400" lon="-8.6483800">
        <ele>42.8</ele>
        <time>2022-06-18T14:56:30Z</time>
      </trkpt>
      <trkpt lat="42.4692750" lon="-8.6483860">
        <ele>42.6</ele>
        <time>2022-06-18T14:56:31Z</time>
      </trkpt>
      <trkpt lat="42.4693100" lon="-8.6483960">
        <ele>42.6</ele>
        <time>2022-06-18T14:56:32Z</time>
      </trkpt>
      <trkpt lat="42.4693480" lon="-8.6484080">
        <ele>42.6</ele>
        <time>2022-06-18T14:56:33Z</time>
      </trkpt>
      <trkpt lat="42.4693880" lon="-8.6484210">
        <ele>42.6</ele>
        <time>2022-06-18T14:56:34Z</time>
      </trkpt>
      <trkpt lat="42.4694300" lon="-8.6484260">
        <ele>43.4</ele>
        <time>2022-06-18T14:56:35Z</time>
      </trkpt>
      <trkpt lat="42.4694680" lon="-8.6484160">
        <ele>43.4</ele>
        <time>2022-06-18T14:56:36Z</time>
      </trkpt>
      <trkpt lat="42.4695030" lon="-8.6484080">
        <ele>43.4</ele>
        <time>2022-06-18T14:56:37Z</time>
      </trkpt>
      <trkpt lat="42.4695400" lon="-8.6484060">
        <ele>43.6</ele>
        <time>2022-06-18T14:56:38Z</time>
      </trkpt>
      <trkpt lat="42.4695750" lon="-8.6484100">
        <ele>43.6</ele>
        <time>2022-06-18T14:56:39Z</time>
      </trkpt>
      <trkpt lat="42.4696100" lon="-8.6484150">
        <ele>43.6</ele>
        <time>2022-06-18T14:56:40Z</time>
      </trkpt>
      <trkpt lat="42.4696430" lon="-8.6484250">
        <ele>43.6</ele>
        <time>2022-06-18T14:56:41Z</time>
      </trkpt>
      <trkpt lat="42.4696730" lon="-8.6484300">
        <ele>44.0</ele>
        <time>2022-06-18T14:56:42Z</time>
      </trkpt>
      <trkpt lat="42.4697030" lon="-8.6484310">
        <ele>44.0</ele>
        <time>2022-06-18T14:56:43Z</time>
      </trkpt>
      <trkpt lat="42.4697330" lon="-8.6484350">
        <ele>44.0</ele>
        <time>2022-06-18T14:56:44Z</time>
      </trkpt>
      <trkpt lat="42.4697610" lon="-8.6484380">
        <ele>44.0</ele>
        <time>2022-06-18T14:56:45Z</time>
      </trkpt>
      <trkpt lat="42.4697910" lon="-8.6484450">
        <ele>44.0</ele>
        <time>2022-06-18T14:56:46Z</time>
      </trkpt>
      <trkpt lat="42.4698180" lon="-8.6484480">
        <ele>44.4</ele>
        <time>2022-06-18T14:56:47Z</time>
      </trkpt>
      <trkpt lat="42.4698450" lon="-8.6484500">
        <ele>44.4</ele>
        <time>2022-06-18T14:56:48Z</time>
      </trkpt>
      <trkpt lat="42.4698710" lon="-8.6484610">
        <ele>44.4</ele>
        <time>2022-06-18T14:56:49Z</time>
      </trkpt>
      <trkpt lat="42.4698930" lon="-8.6484810">
        <ele>44.4</ele>
        <time>2022-06-18T14:56:50Z</time>
      </trkpt>
      <trkpt lat="42.4699200" lon="-8.6485000">
        <ele>45.6</ele>
        <time>2022-06-18T14:56:51Z</time>
      </trkpt>
      <trkpt lat="42.4699450" lon="-8.6485050">
        <ele>45.6</ele>
        <time>2022-06-18T14:56:52Z</time>
      </trkpt>
      <trkpt lat="42.4699710" lon="-8.6484980">
        <ele>45.6</ele>
        <time>2022-06-18T14:56:53Z</time>
      </trkpt>
      <trkpt lat="42.4699980" lon="-8.6484860">
        <ele>45.4</ele>
        <time>2022-06-18T14:56:54Z</time>
      </trkpt>
      <trkpt lat="42.4700260" lon="-8.6484760">
        <ele>45.8</ele>
        <time>2022-06-18T14:56:55Z</time>
      </trkpt>
      <trkpt lat="42.4700530" lon="-8.6484750">
        <ele>45.8</ele>
        <time>2022-06-18T14:56:56Z</time>
      </trkpt>
      <trkpt lat="42.4700830" lon="-8.6484780">
        <ele>45.8</ele>
        <time>2022-06-18T14:56:57Z</time>
      </trkpt>
      <trkpt lat="42.4701110" lon="-8.6484800">
        <ele>46.4</ele>
        <time>2022-06-18T14:56:58Z</time>
      </trkpt>
      <trkpt lat="42.4701360" lon="-8.6484830">
        <ele>46.6</ele>
        <time>2022-06-18T14:56:59Z</time>
      </trkpt>
      <trkpt lat="42.4701610" lon="-8.6484860">
        <ele>46.6</ele>
        <time>2022-06-18T14:57:00Z</time>
      </trkpt>
      <trkpt lat="42.4701860" lon="-8.6484880">
        <ele>46.6</ele>
        <time>2022-06-18T14:57:01Z</time>
      </trkpt>
      <trkpt lat="42.4702110" lon="-8.6484850">
        <ele>46.6</ele>
        <time>2022-06-18T14:57:02Z</time>
      </trkpt>
      <trkpt lat="42.4702350" lon="-8.6484830">
        <ele>47.2</ele>
        <time>2022-06-18T14:57:03Z</time>
      </trkpt>
      <trkpt lat="42.4702580" lon="-8.6484830">
        <ele>47.2</ele>
        <time>2022-06-18T14:57:04Z</time>
      </trkpt>
      <trkpt lat="42.4702810" lon="-8.6484830">
        <ele>47.2</ele>
        <time>2022-06-18T14:57:05Z</time>
      </trkpt>
      <trkpt lat="42.4703030" lon="-8.6484800">
        <ele>47.2</ele>
        <time>2022-06-18T14:57:06Z</time>
      </trkpt>
      <trkpt lat="42.4703210" lon="-8.6484800">
        <ele>47.2</ele>
        <time>2022-06-18T14:57:07Z</time>
      </trkpt>
      <trkpt lat="42.4703410" lon="-8.6484800">
        <ele>47.2</ele>
        <time>2022-06-18T14:57:08Z</time>
      </trkpt>
      <trkpt lat="42.4703630" lon="-8.6484830">
        <ele>47.2</ele>
        <time>2022-06-18T14:57:09Z</time>
      </trkpt>
      <trkpt lat="42.4703830" lon="-8.6484860">
        <ele>47.6</ele>
        <time>2022-06-18T14:57:10Z</time>
      </trkpt>
      <trkpt lat="42.4704030" lon="-8.6484900">
        <ele>47.8</ele>
        <time>2022-06-18T14:57:11Z</time>
      </trkpt>
      <trkpt lat="42.4704230" lon="-8.6484860">
        <ele>47.8</ele>
        <time>2022-06-18T14:57:12Z</time>
      </trkpt>
      <trkpt lat="42.4704450" lon="-8.6484810">
        <ele>47.8</ele>
        <time>2022-06-18T14:57:13Z</time>
      </trkpt>
      <trkpt lat="42.4704660" lon="-8.6484780">
        <ele>47.8</ele>
        <time>2022-06-18T14:57:14Z</time>
      </trkpt>
      <trkpt lat="42.4704900" lon="-8.6484760">
        <ele>48.2</ele>
        <time>2022-06-18T14:57:15Z</time>
      </trkpt>
      <trkpt lat="42.4705100" lon="-8.6484760">
        <ele>48.2</ele>
        <time>2022-06-18T14:57:16Z</time>
      </trkpt>
      <trkpt lat="42.4705310" lon="-8.6484780">
        <ele>48.2</ele>
        <time>2022-06-18T14:57:17Z</time>
      </trkpt>
      <trkpt lat="42.4705530" lon="-8.6484800">
        <ele>48.2</ele>
        <time>2022-06-18T14:57:18Z</time>
      </trkpt>
      <trkpt lat="42.4705760" lon="-8.6484810">
        <ele>48.4</ele>
        <time>2022-06-18T14:57:19Z</time>
      </trkpt>
      <trkpt lat="42.4705960" lon="-8.6484830">
        <ele>48.4</ele>
        <time>2022-06-18T14:57:20Z</time>
      </trkpt>
      <trkpt lat="42.4706160" lon="-8.6484850">
        <ele>48.4</ele>
        <time>2022-06-18T14:57:21Z</time>
      </trkpt>
      <trkpt lat="42.4706360" lon="-8.6484850">
        <ele>48.4</ele>
        <time>2022-06-18T14:57:22Z</time>
      </trkpt>
      <trkpt lat="42.4706560" lon="-8.6484830">
        <ele>49.0</ele>
        <time>2022-06-18T14:57:23Z</time>
      </trkpt>
      <trkpt lat="42.4706730" lon="-8.6484810">
        <ele>49.0</ele>
        <time>2022-06-18T14:57:24Z</time>
      </trkpt>
      <trkpt lat="42.4706900" lon="-8.6484810">
        <ele>49.0</ele>
        <time>2022-06-18T14:57:25Z</time>
      </trkpt>
      <trkpt lat="42.4707080" lon="-8.6484810">
        <ele>49.0</ele>
        <time>2022-06-18T14:57:26Z</time>
      </trkpt>
      <trkpt lat="42.4707230" lon="-8.6484760">
        <ele>48.8</ele>
        <time>2022-06-18T14:57:27Z</time>
      </trkpt>
      <trkpt lat="42.4707400" lon="-8.6484730">
        <ele>48.8</ele>
        <time>2022-06-18T14:57:28Z</time>
      </trkpt>
      <trkpt lat="42.4707580" lon="-8.6484730">
        <ele>48.8</ele>
        <time>2022-06-18T14:57:29Z</time>
      </trkpt>
      <trkpt lat="42.4707730" lon="-8.6484750">
        <ele>49.2</ele>
        <time>2022-06-18T14:57:30Z</time>
      </trkpt>
      <trkpt lat="42.4707880" lon="-8.6484810">
        <ele>49.2</ele>
        <time>2022-06-18T14:57:31Z</time>
      </trkpt>
      <trkpt lat="42.4708080" lon="-8.6484880">
        <ele>49.2</ele>
        <time>2022-06-18T14:57:32Z</time>
      </trkpt>
      <trkpt lat="42.4708330" lon="-8.6484930">
        <ele>49.2</ele>
        <time>2022-06-18T14:57:33Z</time>
      </trkpt>
      <trkpt lat="42.4708610" lon="-8.6484860">
        <ele>50.0</ele>
        <time>2022-06-18T14:57:34Z</time>
      </trkpt>
      <trkpt lat="42.4708880" lon="-8.6484760">
        <ele>49.4</ele>
        <time>2022-06-18T14:57:35Z</time>
      </trkpt>
      <trkpt lat="42.4709130" lon="-8.6484660">
        <ele>49.4</ele>
        <time>2022-06-18T14:57:36Z</time>
      </trkpt>
      <trkpt lat="42.4709360" lon="-8.6484610">
        <ele>49.4</ele>
        <time>2022-06-18T14:57:37Z</time>
      </trkpt>
      <trkpt lat="42.4709600" lon="-8.6484580">
        <ele>50.4</ele>
        <time>2022-06-18T14:57:38Z</time>
      </trkpt>
      <trkpt lat="42.4709830" lon="-8.6484550">
        <ele>50.4</ele>
        <time>2022-06-18T14:57:39Z</time>
      </trkpt>
      <trkpt lat="42.4710050" lon="-8.6484500">
        <ele>50.4</ele>
        <time>2022-06-18T14:57:40Z</time>
      </trkpt>
      <trkpt lat="42.4710280" lon="-8.6484400">
        <ele>50.4</ele>
        <time>2022-06-18T14:57:41Z</time>
      </trkpt>
      <trkpt lat="42.4710480" lon="-8.6484380">
        <ele>51.2</ele>
        <time>2022-06-18T14:57:42Z</time>
      </trkpt>
      <trkpt lat="42.4710660" lon="-8.6484350">
        <ele>51.6</ele>
        <time>2022-06-18T14:57:43Z</time>
      </trkpt>
      <trkpt lat="42.4710810" lon="-8.6484280">
        <ele>51.6</ele>
        <time>2022-06-18T14:57:44Z</time>
      </trkpt>
      <trkpt lat="42.4710960" lon="-8.6484280">
        <ele>51.6</ele>
        <time>2022-06-18T14:57:45Z</time>
      </trkpt>
      <trkpt lat="42.4711150" lon="-8.6484260">
        <ele>51.4</ele>
        <time>2022-06-18T14:57:46Z</time>
      </trkpt>
      <trkpt lat="42.4711300" lon="-8.6484250">
        <ele>52.0</ele>
        <time>2022-06-18T14:57:47Z</time>
      </trkpt>
      <trkpt lat="42.4711450" lon="-8.6484180">
        <ele>52.0</ele>
        <time>2022-06-18T14:57:48Z</time>
      </trkpt>
      <trkpt lat="42.4711600" lon="-8.6484110">
        <ele>52.0</ele>
        <time>2022-06-18T14:57:49Z</time>
      </trkpt>
      <trkpt lat="42.4711750" lon="-8.6484060">
        <ele>52.4</ele>
        <time>2022-06-18T14:57:50Z</time>
      </trkpt>
      <trkpt lat="42.4711910" lon="-8.6484050">
        <ele>52.4</ele>
        <time>2022-06-18T14:57:51Z</time>
      </trkpt>
      <trkpt lat="42.4712080" lon="-8.6484000">
        <ele>52.4</ele>
        <time>2022-06-18T14:57:52Z</time>
      </trkpt>
      <trkpt lat="42.4712230" lon="-8.6483950">
        <ele>52.4</ele>
        <time>2022-06-18T14:57:53Z</time>
      </trkpt>
      <trkpt lat="42.4712380" lon="-8.6483900">
        <ele>53.0</ele>
        <time>2022-06-18T14:57:54Z</time>
      </trkpt>
      <trkpt lat="42.4712500" lon="-8.6483880">
        <ele>53.8</ele>
        <time>2022-06-18T14:57:55Z</time>
      </trkpt>
      <trkpt lat="42.4712630" lon="-8.6483860">
        <ele>53.8</ele>
        <time>2022-06-18T14:57:56Z</time>
      </trkpt>
      <trkpt lat="42.4712780" lon="-8.6483850">
        <ele>53.8</ele>
        <time>2022-06-18T14:57:57Z</time>
      </trkpt>
      <trkpt lat="42.4712910" lon="-8.6483780">
        <ele>53.8</ele>
        <time>2022-06-18T14:57:58Z</time>
      </trkpt>
      <trkpt lat="42.4713030" lon="-8.6483730">
        <ele>54.8</ele>
        <time>2022-06-18T14:57:59Z</time>
      </trkpt>
      <trkpt lat="42.4713150" lon="-8.6483710">
        <ele>54.8</ele>
        <time>2022-06-18T14:58:00Z</time>
      </trkpt>
      <trkpt lat="42.4713250" lon="-8.6483680">
        <ele>54.8</ele>
        <time>2022-06-18T14:58:01Z</time>
      </trkpt>
      <trkpt lat="42.4713350" lon="-8.6483680">
        <ele>54.8</ele>
        <time>2022-06-18T14:58:02Z</time>
      </trkpt>
      <trkpt lat="42.4713460" lon="-8.6483710">
        <ele>55.6</ele>
        <time>2022-06-18T14:58:03Z</time>
      </trkpt>
      <trkpt lat="42.4713600" lon="-8.6483710">
        <ele>55.6</ele>
        <time>2022-06-18T14:58:04Z</time>
      </trkpt>
      <trkpt lat="42.4713750" lon="-8.6483730">
        <ele>55.6</ele>
        <time>2022-06-18T14:58:05Z</time>
      </trkpt>
      <trkpt lat="42.4713880" lon="-8.6483780">
        <ele>55.6</ele>
        <time>2022-06-18T14:58:06Z</time>
      </trkpt>
      <trkpt lat="42.4714050" lon="-8.6483850">
        <ele>55.8</ele>
        <time>2022-06-18T14:58:07Z</time>
      </trkpt>
      <trkpt lat="42.4714210" lon="-8.6483980">
        <ele>55.8</ele>
        <time>2022-06-18T14:58:08Z</time>
      </trkpt>
      <trkpt lat="42.4714400" lon="-8.6484210">
        <ele>55.8</ele>
        <time>2022-06-18T14:58:09Z</time>
      </trkpt>
      <trkpt lat="42.4714600" lon="-8.6484550">
        <ele>55.0</ele>
        <time>2022-06-18T14:58:10Z</time>
      </trkpt>
      <trkpt lat="42.4714780" lon="-8.6484860">
        <ele>54.4</ele>
        <time>2022-06-18T14:58:11Z</time>
      </trkpt>
      <trkpt lat="42.4715030" lon="-8.6485130">
        <ele>54.4</ele>
        <time>2022-06-18T14:58:12Z</time>
      </trkpt>
      <trkpt lat="42.4715260" lon="-8.6485400">
        <ele>54.4</ele>
        <time>2022-06-18T14:58:13Z</time>
      </trkpt>
      <trkpt lat="42.4715450" lon="-8.6485680">
        <ele>54.4</ele>
        <time>2022-06-18T14:58:14Z</time>
      </trkpt>
      <trkpt lat="42.4715630" lon="-8.6485950">
        <ele>54.8</ele>
        <time>2022-06-18T14:58:15Z</time>
      </trkpt>
      <trkpt lat="42.4715800" lon="-8.6486210">
        <ele>54.8</ele>
        <time>2022-06-18T14:58:16Z</time>
      </trkpt>
      <trkpt lat="42.4716000" lon="-8.6486460">
        <ele>54.8</ele>
        <time>2022-06-18T14:58:17Z</time>
      </trkpt>
      <trkpt lat="42.4716210" lon="-8.6486730">
        <ele>54.8</ele>
        <time>2022-06-18T14:58:18Z</time>
      </trkpt>
      <trkpt lat="42.4716480" lon="-8.6486950">
        <ele>55.0</ele>
        <time>2022-06-18T14:58:19Z</time>
      </trkpt>
      <trkpt lat="42.4716730" lon="-8.6487160">
        <ele>55.0</ele>
        <time>2022-06-18T14:58:20Z</time>
      </trkpt>
      <trkpt lat="42.4716930" lon="-8.6487380">
        <ele>55.0</ele>
        <time>2022-06-18T14:58:21Z</time>
      </trkpt>
      <trkpt lat="42.4717160" lon="-8.6487580">
        <ele>55.2</ele>
        <time>2022-06-18T14:58:22Z</time>
      </trkpt>
      <trkpt lat="42.4717460" lon="-8.6487760">
        <ele>54.4</ele>
        <time>2022-06-18T14:58:23Z</time>
      </trkpt>
      <trkpt lat="42.4717810" lon="-8.6488000">
        <ele>54.4</ele>
        <time>2022-06-18T14:58:24Z</time>
      </trkpt>
      <trkpt lat="42.4718210" lon="-8.6488250">
        <ele>54.4</ele>
        <time>2022-06-18T14:58:25Z</time>
      </trkpt>
      <trkpt lat="42.4718680" lon="-8.6488550">
        <ele>53.4</ele>
        <time>2022-06-18T14:58:26Z</time>
      </trkpt>
      <trkpt lat="42.4719180" lon="-8.6488810">
        <ele>52.4</ele>
        <time>2022-06-18T14:58:27Z</time>
      </trkpt>
      <trkpt lat="42.4719700" lon="-8.6489050">
        <ele>52.4</ele>
        <time>2022-06-18T14:58:28Z</time>
      </trkpt>
      <trkpt lat="42.4720150" lon="-8.6489250">
        <ele>52.4</ele>
        <time>2022-06-18T14:58:29Z</time>
      </trkpt>
      <trkpt lat="42.4720610" lon="-8.6489460">
        <ele>52.6</ele>
        <time>2022-06-18T14:58:30Z</time>
      </trkpt>
      <trkpt lat="42.4721080" lon="-8.6489730">
        <ele>52.8</ele>
        <time>2022-06-18T14:58:31Z</time>
      </trkpt>
      <trkpt lat="42.4721550" lon="-8.6490000">
        <ele>52.8</ele>
        <time>2022-06-18T14:58:32Z</time>
      </trkpt>
      <trkpt lat="42.4722030" lon="-8.6490210">
        <ele>52.8</ele>
        <time>2022-06-18T14:58:33Z</time>
      </trkpt>
      <trkpt lat="42.4722510" lon="-8.6490400">
        <ele>53.2</ele>
        <time>2022-06-18T14:58:34Z</time>
      </trkpt>
      <trkpt lat="42.4722980" lon="-8.6490600">
        <ele>53.8</ele>
        <time>2022-06-18T14:58:35Z</time>
      </trkpt>
      <trkpt lat="42.4723450" lon="-8.6490800">
        <ele>53.8</ele>
        <time>2022-06-18T14:58:36Z</time>
      </trkpt>
      <trkpt lat="42.4723930" lon="-8.6491000">
        <ele>53.8</ele>
        <time>2022-06-18T14:58:37Z</time>
      </trkpt>
      <trkpt lat="42.4724400" lon="-8.6491230">
        <ele>54.4</ele>
        <time>2022-06-18T14:58:38Z</time>
      </trkpt>
      <trkpt lat="42.4724880" lon="-8.6491480">
        <ele>53.8</ele>
        <time>2022-06-18T14:58:39Z</time>
      </trkpt>
      <trkpt lat="42.4725330" lon="-8.6491700">
        <ele>53.8</ele>
        <time>2022-06-18T14:58:40Z</time>
      </trkpt>
      <trkpt lat="42.4725800" lon="-8.6491880">
        <ele>53.8</ele>
        <time>2022-06-18T14:58:41Z</time>
      </trkpt>
      <trkpt lat="42.4726230" lon="-8.6492060">
        <ele>54.6</ele>
        <time>2022-06-18T14:58:42Z</time>
      </trkpt>
      <trkpt lat="42.4726680" lon="-8.6492280">
        <ele>54.4</ele>
        <time>2022-06-18T14:58:43Z</time>
      </trkpt>
      <trkpt lat="42.4727110" lon="-8.6492480">
        <ele>54.4</ele>
        <time>2022-06-18T14:58:44Z</time>
      </trkpt>
      <trkpt lat="42.4727550" lon="-8.6492630">
        <ele>54.4</ele>
        <time>2022-06-18T14:58:45Z</time>
      </trkpt>
      <trkpt lat="42.4728030" lon="-8.6492760">
        <ele>54.6</ele>
        <time>2022-06-18T14:58:46Z</time>
      </trkpt>
      <trkpt lat="42.4728530" lon="-8.6492930">
        <ele>54.4</ele>
        <time>2022-06-18T14:58:47Z</time>
      </trkpt>
      <trkpt lat="42.4729050" lon="-8.6493130">
        <ele>54.4</ele>
        <time>2022-06-18T14:58:48Z</time>
      </trkpt>
      <trkpt lat="42.4729580" lon="-8.6493310">
        <ele>54.4</ele>
        <time>2022-06-18T14:58:49Z</time>
      </trkpt>
      <trkpt lat="42.4730130" lon="-8.6493460">
        <ele>54.6</ele>
        <time>2022-06-18T14:58:50Z</time>
      </trkpt>
      <trkpt lat="42.4730660" lon="-8.6493580">
        <ele>54.4</ele>
        <time>2022-06-18T14:58:51Z</time>
      </trkpt>
      <trkpt lat="42.4731200" lon="-8.6493730">
        <ele>54.4</ele>
        <time>2022-06-18T14:58:52Z</time>
      </trkpt>
      <trkpt lat="42.4731700" lon="-8.6493910">
        <ele>54.4</ele>
        <time>2022-06-18T14:58:53Z</time>
      </trkpt>
      <trkpt lat="42.4732180" lon="-8.6494100">
        <ele>54.4</ele>
        <time>2022-06-18T14:58:54Z</time>
      </trkpt>
      <trkpt lat="42.4732630" lon="-8.6494300">
        <ele>54.8</ele>
        <time>2022-06-18T14:58:55Z</time>
      </trkpt>
      <trkpt lat="42.4733030" lon="-8.6494500">
        <ele>54.8</ele>
        <time>2022-06-18T14:58:56Z</time>
      </trkpt>
      <trkpt lat="42.4733380" lon="-8.6494700">
        <ele>54.8</ele>
        <time>2022-06-18T14:58:57Z</time>
      </trkpt>
      <trkpt lat="42.4733730" lon="-8.6494880">
        <ele>55.4</ele>
        <time>2022-06-18T14:58:58Z</time>
      </trkpt>
      <trkpt lat="42.4734010" lon="-8.6495100">
        <ele>55.8</ele>
        <time>2022-06-18T14:58:59Z</time>
      </trkpt>
      <trkpt lat="42.4734310" lon="-8.6495330">
        <ele>55.8</ele>
        <time>2022-06-18T14:59:00Z</time>
      </trkpt>
      <trkpt lat="42.4734610" lon="-8.6495550">
        <ele>55.8</ele>
        <time>2022-06-18T14:59:01Z</time>
      </trkpt>
      <trkpt lat="42.4734930" lon="-8.6495760">
        <ele>56.4</ele>
        <time>2022-06-18T14:59:02Z</time>
      </trkpt>
      <trkpt lat="42.4735230" lon="-8.6495980">
        <ele>56.6</ele>
        <time>2022-06-18T14:59:03Z</time>
      </trkpt>
      <trkpt lat="42.4735530" lon="-8.6496150">
        <ele>56.6</ele>
        <time>2022-06-18T14:59:04Z</time>
      </trkpt>
      <trkpt lat="42.4735830" lon="-8.6496330">
        <ele>56.6</ele>
        <time>2022-06-18T14:59:05Z</time>
      </trkpt>
      <trkpt lat="42.4736130" lon="-8.6496410">
        <ele>56.6</ele>
        <time>2022-06-18T14:59:06Z</time>
      </trkpt>
      <trkpt lat="42.4736430" lon="-8.6496460">
        <ele>56.4</ele>
        <time>2022-06-18T14:59:07Z</time>
      </trkpt>
      <trkpt lat="42.4736760" lon="-8.6496460">
        <ele>56.4</ele>
        <time>2022-06-18T14:59:08Z</time>
      </trkpt>
      <trkpt lat="42.4737080" lon="-8.6496450">
        <ele>56.4</ele>
        <time>2022-06-18T14:59:09Z</time>
      </trkpt>
      <trkpt lat="42.4737410" lon="-8.6496430">
        <ele>57.4</ele>
        <time>2022-06-18T14:59:10Z</time>
      </trkpt>
      <trkpt lat="42.4737760" lon="-8.6496330">
        <ele>57.2</ele>
        <time>2022-06-18T14:59:11Z</time>
      </trkpt>
      <trkpt lat="42.4738080" lon="-8.6496260">
        <ele>57.2</ele>
        <time>2022-06-18T14:59:12Z</time>
      </trkpt>
      <trkpt lat="42.4738410" lon="-8.6496210">
        <ele>57.2</ele>
        <time>2022-06-18T14:59:13Z</time>
      </trkpt>
      <trkpt lat="42.4738760" lon="-8.6496160">
        <ele>57.2</ele>
        <time>2022-06-18T14:59:14Z</time>
      </trkpt>
      <trkpt lat="42.4739100" lon="-8.6496100">
        <ele>56.8</ele>
        <time>2022-06-18T14:59:15Z</time>
      </trkpt>
      <trkpt lat="42.4739430" lon="-8.6496000">
        <ele>56.8</ele>
        <time>2022-06-18T14:59:16Z</time>
      </trkpt>
      <trkpt lat="42.4739730" lon="-8.6495910">
        <ele>56.8</ele>
        <time>2022-06-18T14:59:17Z</time>
      </trkpt>
      <trkpt lat="42.4740030" lon="-8.6495850">
        <ele>57.4</ele>
        <time>2022-06-18T14:59:18Z</time>
      </trkpt>
      <trkpt lat="42.4740360" lon="-8.6495750">
        <ele>57.8</ele>
        <time>2022-06-18T14:59:19Z</time>
      </trkpt>
      <trkpt lat="42.4740680" lon="-8.6495680">
        <ele>57.8</ele>
        <time>2022-06-18T14:59:20Z</time>
      </trkpt>
      <trkpt lat="42.4741000" lon="-8.6495700">
        <ele>57.8</ele>
        <time>2022-06-18T14:59:21Z</time>
      </trkpt>
      <trkpt lat="42.4741330" lon="-8.6495730">
        <ele>57.8</ele>
        <time>2022-06-18T14:59:22Z</time>
      </trkpt>
      <trkpt lat="42.4741610" lon="-8.6495780">
        <ele>57.6</ele>
        <time>2022-06-18T14:59:23Z</time>
      </trkpt>
      <trkpt lat="42.4741930" lon="-8.6495910">
        <ele>57.6</ele>
        <time>2022-06-18T14:59:24Z</time>
      </trkpt>
      <trkpt lat="42.4742250" lon="-8.6496050">
        <ele>57.6</ele>
        <time>2022-06-18T14:59:25Z</time>
      </trkpt>
      <trkpt lat="42.4742560" lon="-8.6496150">
        <ele>57.6</ele>
        <time>2022-06-18T14:59:26Z</time>
      </trkpt>
      <trkpt lat="42.4742900" lon="-8.6496260">
        <ele>58.0</ele>
        <time>2022-06-18T14:59:27Z</time>
      </trkpt>
      <trkpt lat="42.4743250" lon="-8.6496410">
        <ele>58.0</ele>
        <time>2022-06-18T14:59:28Z</time>
      </trkpt>
      <trkpt lat="42.4743600" lon="-8.6496580">
        <ele>58.0</ele>
        <time>2022-06-18T14:59:29Z</time>
      </trkpt>
      <trkpt lat="42.4743980" lon="-8.6496760">
        <ele>57.4</ele>
        <time>2022-06-18T14:59:30Z</time>
      </trkpt>
      <trkpt lat="42.4744360" lon="-8.6496950">
        <ele>57.2</ele>
        <time>2022-06-18T14:59:31Z</time>
      </trkpt>
      <trkpt lat="42.4744750" lon="-8.6497110">
        <ele>57.2</ele>
        <time>2022-06-18T14:59:32Z</time>
      </trkpt>
      <trkpt lat="42.4745150" lon="-8.6497310">
        <ele>57.2</ele>
        <time>2022-06-18T14:59:33Z</time>
      </trkpt>
      <trkpt lat="42.4745580" lon="-8.6497530">
        <ele>56.2</ele>
        <time>2022-06-18T14:59:34Z</time>
      </trkpt>
      <trkpt lat="42.4746010" lon="-8.6497760">
        <ele>56.0</ele>
        <time>2022-06-18T14:59:35Z</time>
      </trkpt>
      <trkpt lat="42.4746480" lon="-8.6498010">
        <ele>56.0</ele>
        <time>2022-06-18T14:59:36Z</time>
      </trkpt>
      <trkpt lat="42.4746930" lon="-8.6498230">
        <ele>56.0</ele>
        <time>2022-06-18T14:59:37Z</time>
      </trkpt>
      <trkpt lat="42.4747360" lon="-8.6498400">
        <ele>55.6</ele>
        <time>2022-06-18T14:59:38Z</time>
      </trkpt>
      <trkpt lat="42.4747800" lon="-8.6498560">
        <ele>55.0</ele>
        <time>2022-06-18T14:59:39Z</time>
      </trkpt>
      <trkpt lat="42.4748230" lon="-8.6498680">
        <ele>55.0</ele>
        <time>2022-06-18T14:59:40Z</time>
      </trkpt>
      <trkpt lat="42.4748650" lon="-8.6498800">
        <ele>55.0</ele>
        <time>2022-06-18T14:59:41Z</time>
      </trkpt>
      <trkpt lat="42.4749030" lon="-8.6498930">
        <ele>56.0</ele>
        <time>2022-06-18T14:59:42Z</time>
      </trkpt>
      <trkpt lat="42.4749410" lon="-8.6498980">
        <ele>55.4</ele>
        <time>2022-06-18T14:59:43Z</time>
      </trkpt>
      <trkpt lat="42.4749830" lon="-8.6498980">
        <ele>55.4</ele>
        <time>2022-06-18T14:59:44Z</time>
      </trkpt>
      <trkpt lat="42.4750180" lon="-8.6499010">
        <ele>55.4</ele>
        <time>2022-06-18T14:59:45Z</time>
      </trkpt>
      <trkpt lat="42.4750530" lon="-8.6499080">
        <ele>56.2</ele>
        <time>2022-06-18T14:59:46Z</time>
      </trkpt>
      <trkpt lat="42.4750750" lon="-8.6499180">
        <ele>56.8</ele>
        <time>2022-06-18T14:59:47Z</time>
      </trkpt>
      <trkpt lat="42.4751130" lon="-8.6499300">
        <ele>56.8</ele>
        <time>2022-06-18T14:59:48Z</time>
      </trkpt>
      <trkpt lat="42.4751500" lon="-8.6499410">
        <ele>56.8</ele>
        <time>2022-06-18T14:59:49Z</time>
      </trkpt>
      <trkpt lat="42.4751850" lon="-8.6499530">
        <ele>56.8</ele>
        <time>2022-06-18T14:59:50Z</time>
      </trkpt>
      <trkpt lat="42.4752210" lon="-8.6499760">
        <ele>57.2</ele>
        <time>2022-06-18T14:59:51Z</time>
      </trkpt>
      <trkpt lat="42.4752610" lon="-8.6499910">
        <ele>57.2</ele>
        <time>2022-06-18T14:59:52Z</time>
      </trkpt>
      <trkpt lat="42.4752930" lon="-8.6500060">
        <ele>57.2</ele>
        <time>2022-06-18T14:59:53Z</time>
      </trkpt>
      <trkpt lat="42.4753310" lon="-8.6500160">
        <ele>57.4</ele>
        <time>2022-06-18T14:59:54Z</time>
      </trkpt>
      <trkpt lat="42.4753660" lon="-8.6500310">
        <ele>57.2</ele>
        <time>2022-06-18T14:59:55Z</time>
      </trkpt>
      <trkpt lat="42.4754060" lon="-8.6500400">
        <ele>57.2</ele>
        <time>2022-06-18T14:59:56Z</time>
      </trkpt>
      <trkpt lat="42.4754480" lon="-8.6500500">
        <ele>57.2</ele>
        <time>2022-06-18T14:59:57Z</time>
      </trkpt>
      <trkpt lat="42.4754950" lon="-8.6500600">
        <ele>56.8</ele>
        <time>2022-06-18T14:59:58Z</time>
      </trkpt>
      <trkpt lat="42.4755380" lon="-8.6500610">
        <ele>57.2</ele>
        <time>2022-06-18T14:59:59Z</time>
      </trkpt>
      <trkpt lat="42.4755810" lon="-8.6500650">
        <ele>57.2</ele>
        <time>2022-06-18T15:00:00Z</time>
      </trkpt>
      <trkpt lat="42.4756300" lon="-8.6500660">
        <ele>57.2</ele>
        <time>2022-06-18T15:00:01Z</time>
      </trkpt>
      <trkpt lat="42.4756780" lon="-8.6500750">
        <ele>57.2</ele>
        <time>2022-06-18T15:00:02Z</time>
      </trkpt>
      <trkpt lat="42.4757310" lon="-8.6500810">
        <ele>57.4</ele>
        <time>2022-06-18T15:00:03Z</time>
      </trkpt>
      <trkpt lat="42.4757860" lon="-8.6500850">
        <ele>57.4</ele>
        <time>2022-06-18T15:00:04Z</time>
      </trkpt>
      <trkpt lat="42.4758360" lon="-8.6500900">
        <ele>57.4</ele>
        <time>2022-06-18T15:00:05Z</time>
      </trkpt>
      <trkpt lat="42.4758850" lon="-8.6500960">
        <ele>57.8</ele>
        <time>2022-06-18T15:00:06Z</time>
      </trkpt>
      <trkpt lat="42.4759380" lon="-8.6501010">
        <ele>57.4</ele>
        <time>2022-06-18T15:00:07Z</time>
      </trkpt>
      <trkpt lat="42.4759810" lon="-8.6501110">
        <ele>57.4</ele>
        <time>2022-06-18T15:00:08Z</time>
      </trkpt>
      <trkpt lat="42.4760200" lon="-8.6501230">
        <ele>57.4</ele>
        <time>2022-06-18T15:00:09Z</time>
      </trkpt>
      <trkpt lat="42.4760580" lon="-8.6501410">
        <ele>57.4</ele>
        <time>2022-06-18T15:00:10Z</time>
      </trkpt>
      <trkpt lat="42.4761100" lon="-8.6501560">
        <ele>56.8</ele>
        <time>2022-06-18T15:00:11Z</time>
      </trkpt>
      <trkpt lat="42.4761680" lon="-8.6501660">
        <ele>56.8</ele>
        <time>2022-06-18T15:00:12Z</time>
      </trkpt>
      <trkpt lat="42.4762330" lon="-8.6501760">
        <ele>56.8</ele>
        <time>2022-06-18T15:00:13Z</time>
      </trkpt>
      <trkpt lat="42.4762960" lon="-8.6501900">
        <ele>55.8</ele>
        <time>2022-06-18T15:00:14Z</time>
      </trkpt>
      <trkpt lat="42.4763550" lon="-8.6502200">
        <ele>55.8</ele>
        <time>2022-06-18T15:00:15Z</time>
      </trkpt>
      <trkpt lat="42.4764130" lon="-8.6502510">
        <ele>55.8</ele>
        <time>2022-06-18T15:00:16Z</time>
      </trkpt>
      <trkpt lat="42.4764730" lon="-8.6502910">
        <ele>55.8</ele>
        <time>2022-06-18T15:00:17Z</time>
      </trkpt>
      <trkpt lat="42.4765530" lon="-8.6503150">
        <ele>56.4</ele>
        <time>2022-06-18T15:00:18Z</time>
      </trkpt>
      <trkpt lat="42.4766130" lon="-8.6503530">
        <ele>56.8</ele>
        <time>2022-06-18T15:00:19Z</time>
      </trkpt>
      <trkpt lat="42.4766730" lon="-8.6503800">
        <ele>56.8</ele>
        <time>2022-06-18T15:00:20Z</time>
      </trkpt>
      <trkpt lat="42.4767250" lon="-8.6504110">
        <ele>56.8</ele>
        <time>2022-06-18T15:00:21Z</time>
      </trkpt>
      <trkpt lat="42.4767810" lon="-8.6504500">
        <ele>56.8</ele>
        <time>2022-06-18T15:00:22Z</time>
      </trkpt>
      <trkpt lat="42.4768360" lon="-8.6504880">
        <ele>57.2</ele>
        <time>2022-06-18T15:00:23Z</time>
      </trkpt>
      <trkpt lat="42.4768880" lon="-8.6505230">
        <ele>57.2</ele>
        <time>2022-06-18T15:00:24Z</time>
      </trkpt>
      <trkpt lat="42.4769480" lon="-8.6505530">
        <ele>57.2</ele>
        <time>2022-06-18T15:00:25Z</time>
      </trkpt>
      <trkpt lat="42.4769980" lon="-8.6505850">
        <ele>58.2</ele>
        <time>2022-06-18T15:00:26Z</time>
      </trkpt>
      <trkpt lat="42.4770510" lon="-8.6506050">
        <ele>58.0</ele>
        <time>2022-06-18T15:00:27Z</time>
      </trkpt>
      <trkpt lat="42.4771080" lon="-8.6506160">
        <ele>58.0</ele>
        <time>2022-06-18T15:00:28Z</time>
      </trkpt>
      <trkpt lat="42.4771630" lon="-8.6506250">
        <ele>58.0</ele>
        <time>2022-06-18T15:00:29Z</time>
      </trkpt>
      <trkpt lat="42.4772130" lon="-8.6506350">
        <ele>58.6</ele>
        <time>2022-06-18T15:00:30Z</time>
      </trkpt>
      <trkpt lat="42.4772550" lon="-8.6506430">
        <ele>58.6</ele>
        <time>2022-06-18T15:00:31Z</time>
      </trkpt>
      <trkpt lat="42.4773030" lon="-8.6506510">
        <ele>58.6</ele>
        <time>2022-06-18T15:00:32Z</time>
      </trkpt>
      <trkpt lat="42.4773600" lon="-8.6506580">
        <ele>58.6</ele>
        <time>2022-06-18T15:00:33Z</time>
      </trkpt>
      <trkpt lat="42.4774150" lon="-8.6506660">
        <ele>59.2</ele>
        <time>2022-06-18T15:00:34Z</time>
      </trkpt>
      <trkpt lat="42.4774680" lon="-8.6506780">
        <ele>59.4</ele>
        <time>2022-06-18T15:00:35Z</time>
      </trkpt>
      <trkpt lat="42.4775260" lon="-8.6506900">
        <ele>59.4</ele>
        <time>2022-06-18T15:00:36Z</time>
      </trkpt>
      <trkpt lat="42.4775760" lon="-8.6507100">
        <ele>59.4</ele>
        <time>2022-06-18T15:00:37Z</time>
      </trkpt>
      <trkpt lat="42.4776330" lon="-8.6507310">
        <ele>59.4</ele>
        <time>2022-06-18T15:00:38Z</time>
      </trkpt>
      <trkpt lat="42.4776850" lon="-8.6507580">
        <ele>59.0</ele>
        <time>2022-06-18T15:00:39Z</time>
      </trkpt>
      <trkpt lat="42.4777410" lon="-8.6507750">
        <ele>59.0</ele>
        <time>2022-06-18T15:00:40Z</time>
      </trkpt>
      <trkpt lat="42.4778030" lon="-8.6507800">
        <ele>59.0</ele>
        <time>2022-06-18T15:00:41Z</time>
      </trkpt>
      <trkpt lat="42.4778630" lon="-8.6507950">
        <ele>59.8</ele>
        <time>2022-06-18T15:00:42Z</time>
      </trkpt>
      <trkpt lat="42.4779150" lon="-8.6508060">
        <ele>59.8</ele>
        <time>2022-06-18T15:00:43Z</time>
      </trkpt>
      <trkpt lat="42.4779730" lon="-8.6508080">
        <ele>59.8</ele>
        <time>2022-06-18T15:00:44Z</time>
      </trkpt>
      <trkpt lat="42.4780330" lon="-8.6508150">
        <ele>59.8</ele>
        <time>2022-06-18T15:00:45Z</time>
      </trkpt>
      <trkpt lat="42.4780930" lon="-8.6508260">
        <ele>59.8</ele>
        <time>2022-06-18T15:00:46Z</time>
      </trkpt>
      <trkpt lat="42.4781660" lon="-8.6508380">
        <ele>59.0</ele>
        <time>2022-06-18T15:00:47Z</time>
      </trkpt>
      <trkpt lat="42.4782280" lon="-8.6508510">
        <ele>59.0</ele>
        <time>2022-06-18T15:00:48Z</time>
      </trkpt>
      <trkpt lat="42.4782950" lon="-8.6508650">
        <ele>59.0</ele>
        <time>2022-06-18T15:00:49Z</time>
      </trkpt>
      <trkpt lat="42.4783550" lon="-8.6508800">
        <ele>59.0</ele>
        <time>2022-06-18T15:00:50Z</time>
      </trkpt>
      <trkpt lat="42.4784130" lon="-8.6508860">
        <ele>59.4</ele>
        <time>2022-06-18T15:00:51Z</time>
      </trkpt>
      <trkpt lat="42.4784700" lon="-8.6508910">
        <ele>59.4</ele>
        <time>2022-06-18T15:00:52Z</time>
      </trkpt>
      <trkpt lat="42.4785210" lon="-8.6508950">
        <ele>59.4</ele>
        <time>2022-06-18T15:00:53Z</time>
      </trkpt>
      <trkpt lat="42.4785730" lon="-8.6508950">
        <ele>60.4</ele>
        <time>2022-06-18T15:00:54Z</time>
      </trkpt>
      <trkpt lat="42.4786250" lon="-8.6508910">
        <ele>60.6</ele>
        <time>2022-06-18T15:00:55Z</time>
      </trkpt>
      <trkpt lat="42.4786760" lon="-8.6508860">
        <ele>60.6</ele>
        <time>2022-06-18T15:00:56Z</time>
      </trkpt>
      <trkpt lat="42.4787280" lon="-8.6508860">
        <ele>60.6</ele>
        <time>2022-06-18T15:00:57Z</time>
      </trkpt>
      <trkpt lat="42.4787800" lon="-8.6508960">
        <ele>60.6</ele>
        <time>2022-06-18T15:00:58Z</time>
      </trkpt>
      <trkpt lat="42.4788330" lon="-8.6509080">
        <ele>60.6</ele>
        <time>2022-06-18T15:00:59Z</time>
      </trkpt>
      <trkpt lat="42.4788860" lon="-8.6509210">
        <ele>60.6</ele>
        <time>2022-06-18T15:01:00Z</time>
      </trkpt>
      <trkpt lat="42.4789380" lon="-8.6509350">
        <ele>60.6</ele>
        <time>2022-06-18T15:01:01Z</time>
      </trkpt>
      <trkpt lat="42.4789910" lon="-8.6509450">
        <ele>60.6</ele>
        <time>2022-06-18T15:01:02Z</time>
      </trkpt>
      <trkpt lat="42.4790410" lon="-8.6509580">
        <ele>60.0</ele>
        <time>2022-06-18T15:01:03Z</time>
      </trkpt>
      <trkpt lat="42.4790900" lon="-8.6509730">
        <ele>60.0</ele>
        <time>2022-06-18T15:01:04Z</time>
      </trkpt>
      <trkpt lat="42.4791460" lon="-8.6509880">
        <ele>60.0</ele>
        <time>2022-06-18T15:01:05Z</time>
      </trkpt>
      <trkpt lat="42.4792010" lon="-8.6510030">
        <ele>59.6</ele>
        <time>2022-06-18T15:01:06Z</time>
      </trkpt>
      <trkpt lat="42.4792580" lon="-8.6510230">
        <ele>60.0</ele>
        <time>2022-06-18T15:01:07Z</time>
      </trkpt>
      <trkpt lat="42.4793160" lon="-8.6510460">
        <ele>60.0</ele>
        <time>2022-06-18T15:01:08Z</time>
      </trkpt>
      <trkpt lat="42.4793760" lon="-8.6510660">
        <ele>60.0</ele>
        <time>2022-06-18T15:01:09Z</time>
      </trkpt>
      <trkpt lat="42.4794330" lon="-8.6510910">
        <ele>60.0</ele>
        <time>2022-06-18T15:01:10Z</time>
      </trkpt>
      <trkpt lat="42.4794910" lon="-8.6511130">
        <ele>59.4</ele>
        <time>2022-06-18T15:01:11Z</time>
      </trkpt>
      <trkpt lat="42.4795460" lon="-8.6511350">
        <ele>59.4</ele>
        <time>2022-06-18T15:01:12Z</time>
      </trkpt>
      <trkpt lat="42.4796030" lon="-8.6511550">
        <ele>59.4</ele>
        <time>2022-06-18T15:01:13Z</time>
      </trkpt>
      <trkpt lat="42.4796630" lon="-8.6511710">
        <ele>59.8</ele>
        <time>2022-06-18T15:01:14Z</time>
      </trkpt>
      <trkpt lat="42.4797210" lon="-8.6511880">
        <ele>60.4</ele>
        <time>2022-06-18T15:01:15Z</time>
      </trkpt>
      <trkpt lat="42.4797750" lon="-8.6512050">
        <ele>60.4</ele>
        <time>2022-06-18T15:01:16Z</time>
      </trkpt>
      <trkpt lat="42.4798300" lon="-8.6512130">
        <ele>60.4</ele>
        <time>2022-06-18T15:01:17Z</time>
      </trkpt>
      <trkpt lat="42.4798880" lon="-8.6512100">
        <ele>60.4</ele>
        <time>2022-06-18T15:01:18Z</time>
      </trkpt>
      <trkpt lat="42.4799410" lon="-8.6511950">
        <ele>61.4</ele>
        <time>2022-06-18T15:01:19Z</time>
      </trkpt>
      <trkpt lat="42.4799930" lon="-8.6511830">
        <ele>61.4</ele>
        <time>2022-06-18T15:01:20Z</time>
      </trkpt>
      <trkpt lat="42.4800430" lon="-8.6511710">
        <ele>61.4</ele>
        <time>2022-06-18T15:01:21Z</time>
      </trkpt>
      <trkpt lat="42.4800860" lon="-8.6511700">
        <ele>62.0</ele>
        <time>2022-06-18T15:01:22Z</time>
      </trkpt>
      <trkpt lat="42.4801280" lon="-8.6511660">
        <ele>61.4</ele>
        <time>2022-06-18T15:01:23Z</time>
      </trkpt>
      <trkpt lat="42.4801710" lon="-8.6511600">
        <ele>61.4</ele>
        <time>2022-06-18T15:01:24Z</time>
      </trkpt>
      <trkpt lat="42.4802150" lon="-8.6511480">
        <ele>61.4</ele>
        <time>2022-06-18T15:01:25Z</time>
      </trkpt>
      <trkpt lat="42.4802610" lon="-8.6511280">
        <ele>60.4</ele>
        <time>2022-06-18T15:01:26Z</time>
      </trkpt>
      <trkpt lat="42.4803200" lon="-8.6510950">
        <ele>59.4</ele>
        <time>2022-06-18T15:01:27Z</time>
      </trkpt>
      <trkpt lat="42.4803830" lon="-8.6510560">
        <ele>59.4</ele>
        <time>2022-06-18T15:01:28Z</time>
      </trkpt>
      <trkpt lat="42.4804460" lon="-8.6510110">
        <ele>59.4</ele>
        <time>2022-06-18T15:01:29Z</time>
      </trkpt>
      <trkpt lat="42.4805060" lon="-8.6509580">
        <ele>59.4</ele>
        <time>2022-06-18T15:01:30Z</time>
      </trkpt>
      <trkpt lat="42.4805610" lon="-8.6509160">
        <ele>59.4</ele>
        <time>2022-06-18T15:01:31Z</time>
      </trkpt>
      <trkpt lat="42.4806150" lon="-8.6508760">
        <ele>59.4</ele>
        <time>2022-06-18T15:01:32Z</time>
      </trkpt>
      <trkpt lat="42.4806700" lon="-8.6508400">
        <ele>59.4</ele>
        <time>2022-06-18T15:01:33Z</time>
      </trkpt>
      <trkpt lat="42.4807160" lon="-8.6507960">
        <ele>59.4</ele>
        <time>2022-06-18T15:01:34Z</time>
      </trkpt>
      <trkpt lat="42.4807530" lon="-8.6507550">
        <ele>59.6</ele>
        <time>2022-06-18T15:01:35Z</time>
      </trkpt>
      <trkpt lat="42.4807900" lon="-8.6507260">
        <ele>59.6</ele>
        <time>2022-06-18T15:01:36Z</time>
      </trkpt>
      <trkpt lat="42.4808230" lon="-8.6507150">
        <ele>59.6</ele>
        <time>2022-06-18T15:01:37Z</time>
      </trkpt>
      <trkpt lat="42.4808480" lon="-8.6507130">
        <ele>59.6</ele>
        <time>2022-06-18T15:01:38Z</time>
      </trkpt>
      <trkpt lat="42.4808680" lon="-8.6507080">
        <ele>60.6</ele>
        <time>2022-06-18T15:01:39Z</time>
      </trkpt>
      <trkpt lat="42.4808800" lon="-8.6507030">
        <ele>60.6</ele>
        <time>2022-06-18T15:01:40Z</time>
      </trkpt>
      <trkpt lat="42.4808880" lon="-8.6507010">
        <ele>60.6</ele>
        <time>2022-06-18T15:01:41Z</time>
      </trkpt>
      <trkpt lat="42.4809700" lon="-8.6506950">
        <ele>60.4</ele>
        <time>2022-06-18T15:01:57Z</time>
      </trkpt>
      <trkpt lat="42.4809950" lon="-8.6506980">
        <ele>60.4</ele>
        <time>2022-06-18T15:01:58Z</time>
      </trkpt>
      <trkpt lat="42.4810160" lon="-8.6507010">
        <ele>60.2</ele>
        <time>2022-06-18T15:01:59Z</time>
      </trkpt>
      <trkpt lat="42.4810350" lon="-8.6507100">
        <ele>60.2</ele>
        <time>2022-06-18T15:02:00Z</time>
      </trkpt>
      <trkpt lat="42.4810560" lon="-8.6507200">
        <ele>60.2</ele>
        <time>2022-06-18T15:02:01Z</time>
      </trkpt>
      <trkpt lat="42.4810900" lon="-8.6507310">
        <ele>60.2</ele>
        <time>2022-06-18T15:02:02Z</time>
      </trkpt>
      <trkpt lat="42.4811250" lon="-8.6507460">
        <ele>59.6</ele>
        <time>2022-06-18T15:02:03Z</time>
      </trkpt>
      <trkpt lat="42.4811580" lon="-8.6507630">
        <ele>59.6</ele>
        <time>2022-06-18T15:02:04Z</time>
      </trkpt>
      <trkpt lat="42.4811910" lon="-8.6507880">
        <ele>59.6</ele>
        <time>2022-06-18T15:02:05Z</time>
      </trkpt>
      <trkpt lat="42.4812230" lon="-8.6508130">
        <ele>59.6</ele>
        <time>2022-06-18T15:02:06Z</time>
      </trkpt>
      <trkpt lat="42.4812510" lon="-8.6508280">
        <ele>59.8</ele>
        <time>2022-06-18T15:02:07Z</time>
      </trkpt>
      <trkpt lat="42.4812910" lon="-8.6508380">
        <ele>59.8</ele>
        <time>2022-06-18T15:02:08Z</time>
      </trkpt>
      <trkpt lat="42.4813350" lon="-8.6508480">
        <ele>59.8</ele>
        <time>2022-06-18T15:02:09Z</time>
      </trkpt>
      <trkpt lat="42.4813700" lon="-8.6508580">
        <ele>59.6</ele>
        <time>2022-06-18T15:02:10Z</time>
      </trkpt>
      <trkpt lat="42.4814060" lon="-8.6508700">
        <ele>59.8</ele>
        <time>2022-06-18T15:02:11Z</time>
      </trkpt>
      <trkpt lat="42.4814430" lon="-8.6508830">
        <ele>59.8</ele>
        <time>2022-06-18T15:02:12Z</time>
      </trkpt>
      <trkpt lat="42.4814780" lon="-8.6508930">
        <ele>59.8</ele>
        <time>2022-06-18T15:02:13Z</time>
      </trkpt>
      <trkpt lat="42.4815130" lon="-8.6508980">
        <ele>60.4</ele>
        <time>2022-06-18T15:02:14Z</time>
      </trkpt>
      <trkpt lat="42.4815460" lon="-8.6509060">
        <ele>60.0</ele>
        <time>2022-06-18T15:02:15Z</time>
      </trkpt>
      <trkpt lat="42.4815800" lon="-8.6509150">
        <ele>60.0</ele>
        <time>2022-06-18T15:02:16Z</time>
      </trkpt>
      <trkpt lat="42.4816080" lon="-8.6509250">
        <ele>60.0</ele>
        <time>2022-06-18T15:02:17Z</time>
      </trkpt>
      <trkpt lat="42.4816300" lon="-8.6509380">
        <ele>60.6</ele>
        <time>2022-06-18T15:02:18Z</time>
      </trkpt>
      <trkpt lat="42.4816600" lon="-8.6509480">
        <ele>61.2</ele>
        <time>2022-06-18T15:02:19Z</time>
      </trkpt>
      <trkpt lat="42.4816980" lon="-8.6509510">
        <ele>61.2</ele>
        <time>2022-06-18T15:02:20Z</time>
      </trkpt>
      <trkpt lat="42.4817350" lon="-8.6509560">
        <ele>61.2</ele>
        <time>2022-06-18T15:02:21Z</time>
      </trkpt>
      <trkpt lat="42.4817750" lon="-8.6509530">
        <ele>61.0</ele>
        <time>2022-06-18T15:02:22Z</time>
      </trkpt>
      <trkpt lat="42.4818130" lon="-8.6509560">
        <ele>61.2</ele>
        <time>2022-06-18T15:02:23Z</time>
      </trkpt>
      <trkpt lat="42.4818600" lon="-8.6509630">
        <ele>61.2</ele>
        <time>2022-06-18T15:02:24Z</time>
      </trkpt>
      <trkpt lat="42.4819060" lon="-8.6509700">
        <ele>61.2</ele>
        <time>2022-06-18T15:02:25Z</time>
      </trkpt>
      <trkpt lat="42.4819410" lon="-8.6509810">
        <ele>61.2</ele>
        <time>2022-06-18T15:02:26Z</time>
      </trkpt>
      <trkpt lat="42.4819760" lon="-8.6509910">
        <ele>61.8</ele>
        <time>2022-06-18T15:02:27Z</time>
      </trkpt>
      <trkpt lat="42.4820160" lon="-8.6509930">
        <ele>61.8</ele>
        <time>2022-06-18T15:02:28Z</time>
      </trkpt>
      <trkpt lat="42.4820650" lon="-8.6509950">
        <ele>61.8</ele>
        <time>2022-06-18T15:02:29Z</time>
      </trkpt>
      <trkpt lat="42.4821200" lon="-8.6509980">
        <ele>61.8</ele>
        <time>2022-06-18T15:02:30Z</time>
      </trkpt>
      <trkpt lat="42.4821680" lon="-8.6510000">
        <ele>62.8</ele>
        <time>2022-06-18T15:02:31Z</time>
      </trkpt>
      <trkpt lat="42.4822150" lon="-8.6509960">
        <ele>62.8</ele>
        <time>2022-06-18T15:02:32Z</time>
      </trkpt>
      <trkpt lat="42.4822560" lon="-8.6509930">
        <ele>62.8</ele>
        <time>2022-06-18T15:02:33Z</time>
      </trkpt>
      <trkpt lat="42.4823000" lon="-8.6509880">
        <ele>63.6</ele>
        <time>2022-06-18T15:02:34Z</time>
      </trkpt>
      <trkpt lat="42.4823400" lon="-8.6509810">
        <ele>63.6</ele>
        <time>2022-06-18T15:02:35Z</time>
      </trkpt>
      <trkpt lat="42.4823780" lon="-8.6509760">
        <ele>63.6</ele>
        <time>2022-06-18T15:02:36Z</time>
      </trkpt>
      <trkpt lat="42.4824130" lon="-8.6509750">
        <ele>63.6</ele>
        <time>2022-06-18T15:02:37Z</time>
      </trkpt>
      <trkpt lat="42.4824480" lon="-8.6509730">
        <ele>63.6</ele>
        <time>2022-06-18T15:02:38Z</time>
      </trkpt>
      <trkpt lat="42.4824860" lon="-8.6509650">
        <ele>64.4</ele>
        <time>2022-06-18T15:02:39Z</time>
      </trkpt>
      <trkpt lat="42.4825250" lon="-8.6509480">
        <ele>64.4</ele>
        <time>2022-06-18T15:02:40Z</time>
      </trkpt>
      <trkpt lat="42.4825660" lon="-8.6509350">
        <ele>64.4</ele>
        <time>2022-06-18T15:02:41Z</time>
      </trkpt>
      <trkpt lat="42.4826080" lon="-8.6509280">
        <ele>64.4</ele>
        <time>2022-06-18T15:02:42Z</time>
      </trkpt>
      <trkpt lat="42.4826480" lon="-8.6509260">
        <ele>64.8</ele>
        <time>2022-06-18T15:02:43Z</time>
      </trkpt>
      <trkpt lat="42.4826900" lon="-8.6509200">
        <ele>64.8</ele>
        <time>2022-06-18T15:02:44Z</time>
      </trkpt>
      <trkpt lat="42.4827300" lon="-8.6509200">
        <ele>64.8</ele>
        <time>2022-06-18T15:02:45Z</time>
      </trkpt>
      <trkpt lat="42.4827710" lon="-8.6509150">
        <ele>65.8</ele>
        <time>2022-06-18T15:02:46Z</time>
      </trkpt>
      <trkpt lat="42.4828080" lon="-8.6509060">
        <ele>65.4</ele>
        <time>2022-06-18T15:02:47Z</time>
      </trkpt>
      <trkpt lat="42.4828450" lon="-8.6508950">
        <ele>65.4</ele>
        <time>2022-06-18T15:02:48Z</time>
      </trkpt>
      <trkpt lat="42.4828810" lon="-8.6508860">
        <ele>65.4</ele>
        <time>2022-06-18T15:02:49Z</time>
      </trkpt>
      <trkpt lat="42.4829180" lon="-8.6508830">
        <ele>65.8</ele>
        <time>2022-06-18T15:02:50Z</time>
      </trkpt>
      <trkpt lat="42.4829550" lon="-8.6508800">
        <ele>67.0</ele>
        <time>2022-06-18T15:02:51Z</time>
      </trkpt>
      <trkpt lat="42.4829930" lon="-8.6508710">
        <ele>67.0</ele>
        <time>2022-06-18T15:02:52Z</time>
      </trkpt>
      <trkpt lat="42.4830300" lon="-8.6508700">
        <ele>67.0</ele>
        <time>2022-06-18T15:02:53Z</time>
      </trkpt>
      <trkpt lat="42.4830650" lon="-8.6508730">
        <ele>67.0</ele>
        <time>2022-06-18T15:02:54Z</time>
      </trkpt>
      <trkpt lat="42.4830980" lon="-8.6508800">
        <ele>67.2</ele>
        <time>2022-06-18T15:02:55Z</time>
      </trkpt>
      <trkpt lat="42.4831330" lon="-8.6508860">
        <ele>67.2</ele>
        <time>2022-06-18T15:02:56Z</time>
      </trkpt>
      <trkpt lat="42.4831710" lon="-8.6508900">
        <ele>67.2</ele>
        <time>2022-06-18T15:02:57Z</time>
      </trkpt>
      <trkpt lat="42.4832080" lon="-8.6508960">
        <ele>67.0</ele>
        <time>2022-06-18T15:02:58Z</time>
      </trkpt>
      <trkpt lat="42.4832450" lon="-8.6509010">
        <ele>67.6</ele>
        <time>2022-06-18T15:02:59Z</time>
      </trkpt>
      <trkpt lat="42.4832780" lon="-8.6508980">
        <ele>67.6</ele>
        <time>2022-06-18T15:03:00Z</time>
      </trkpt>
      <trkpt lat="42.4833110" lon="-8.6508950">
        <ele>67.6</ele>
        <time>2022-06-18T15:03:01Z</time>
      </trkpt>
      <trkpt lat="42.4833380" lon="-8.6508910">
        <ele>67.6</ele>
        <time>2022-06-18T15:03:02Z</time>
      </trkpt>
      <trkpt lat="42.4833660" lon="-8.6508880">
        <ele>67.4</ele>
        <time>2022-06-18T15:03:03Z</time>
      </trkpt>
      <trkpt lat="42.4833980" lon="-8.6508860">
        <ele>67.4</ele>
        <time>2022-06-18T15:03:04Z</time>
      </trkpt>
      <trkpt lat="42.4834300" lon="-8.6508830">
        <ele>67.4</ele>
        <time>2022-06-18T15:03:05Z</time>
      </trkpt>
      <trkpt lat="42.4834600" lon="-8.6508750">
        <ele>68.0</ele>
        <time>2022-06-18T15:03:06Z</time>
      </trkpt>
      <trkpt lat="42.4834880" lon="-8.6508710">
        <ele>68.2</ele>
        <time>2022-06-18T15:03:07Z</time>
      </trkpt>
      <trkpt lat="42.4835130" lon="-8.6508750">
        <ele>68.2</ele>
        <time>2022-06-18T15:03:08Z</time>
      </trkpt>
      <trkpt lat="42.4835400" lon="-8.6508660">
        <ele>68.2</ele>
        <time>2022-06-18T15:03:09Z</time>
      </trkpt>
      <trkpt lat="42.4835660" lon="-8.6508560">
        <ele>68.2</ele>
        <time>2022-06-18T15:03:10Z</time>
      </trkpt>
      <trkpt lat="42.4835950" lon="-8.6508510">
        <ele>68.2</ele>
        <time>2022-06-18T15:03:11Z</time>
      </trkpt>
      <trkpt lat="42.4836250" lon="-8.6508460">
        <ele>68.2</ele>
        <time>2022-06-18T15:03:12Z</time>
      </trkpt>
      <trkpt lat="42.4836550" lon="-8.6508380">
        <ele>68.2</ele>
        <time>2022-06-18T15:03:13Z</time>
      </trkpt>
      <trkpt lat="42.4836880" lon="-8.6508350">
        <ele>68.2</ele>
        <time>2022-06-18T15:03:14Z</time>
      </trkpt>
      <trkpt lat="42.4837210" lon="-8.6508310">
        <ele>68.2</ele>
        <time>2022-06-18T15:03:15Z</time>
      </trkpt>
      <trkpt lat="42.4837500" lon="-8.6508250">
        <ele>68.2</ele>
        <time>2022-06-18T15:03:16Z</time>
      </trkpt>
      <trkpt lat="42.4837730" lon="-8.6508200">
        <ele>68.2</ele>
        <time>2022-06-18T15:03:17Z</time>
      </trkpt>
      <trkpt lat="42.4837880" lon="-8.6508110">
        <ele>69.2</ele>
        <time>2022-06-18T15:03:18Z</time>
      </trkpt>
      <trkpt lat="42.4838010" lon="-8.6508060">
        <ele>69.8</ele>
        <time>2022-06-18T15:03:19Z</time>
      </trkpt>
      <trkpt lat="42.4838230" lon="-8.6508010">
        <ele>69.8</ele>
        <time>2022-06-18T15:03:20Z</time>
      </trkpt>
      <trkpt lat="42.4838500" lon="-8.6508000">
        <ele>69.8</ele>
        <time>2022-06-18T15:03:21Z</time>
      </trkpt>
      <trkpt lat="42.4838780" lon="-8.6508050">
        <ele>69.8</ele>
        <time>2022-06-18T15:03:22Z</time>
      </trkpt>
      <trkpt lat="42.4839050" lon="-8.6508110">
        <ele>69.8</ele>
        <time>2022-06-18T15:03:23Z</time>
      </trkpt>
      <trkpt lat="42.4839380" lon="-8.6508160">
        <ele>69.8</ele>
        <time>2022-06-18T15:03:24Z</time>
      </trkpt>
      <trkpt lat="42.4839750" lon="-8.6508210">
        <ele>69.8</ele>
        <time>2022-06-18T15:03:25Z</time>
      </trkpt>
      <trkpt lat="42.4840110" lon="-8.6508250">
        <ele>69.8</ele>
        <time>2022-06-18T15:03:26Z</time>
      </trkpt>
      <trkpt lat="42.4840460" lon="-8.6508260">
        <ele>69.2</ele>
        <time>2022-06-18T15:03:27Z</time>
      </trkpt>
      <trkpt lat="42.4840850" lon="-8.6508300">
        <ele>69.2</ele>
        <time>2022-06-18T15:03:28Z</time>
      </trkpt>
      <trkpt lat="42.4841230" lon="-8.6508280">
        <ele>69.2</ele>
        <time>2022-06-18T15:03:29Z</time>
      </trkpt>
      <trkpt lat="42.4841580" lon="-8.6508300">
        <ele>69.6</ele>
        <time>2022-06-18T15:03:30Z</time>
      </trkpt>
      <trkpt lat="42.4841930" lon="-8.6508260">
        <ele>69.8</ele>
        <time>2022-06-18T15:03:31Z</time>
      </trkpt>
      <trkpt lat="42.4842300" lon="-8.6508210">
        <ele>69.8</ele>
        <time>2022-06-18T15:03:32Z</time>
      </trkpt>
      <trkpt lat="42.4842660" lon="-8.6508160">
        <ele>69.8</ele>
        <time>2022-06-18T15:03:33Z</time>
      </trkpt>
      <trkpt lat="42.4843010" lon="-8.6508060">
        <ele>69.8</ele>
        <time>2022-06-18T15:03:34Z</time>
      </trkpt>
      <trkpt lat="42.4843360" lon="-8.6508010">
        <ele>70.0</ele>
        <time>2022-06-18T15:03:35Z</time>
      </trkpt>
      <trkpt lat="42.4843700" lon="-8.6507930">
        <ele>70.0</ele>
        <time>2022-06-18T15:03:36Z</time>
      </trkpt>
      <trkpt lat="42.4844050" lon="-8.6507880">
        <ele>70.0</ele>
        <time>2022-06-18T15:03:37Z</time>
      </trkpt>
      <trkpt lat="42.4844400" lon="-8.6507950">
        <ele>70.0</ele>
        <time>2022-06-18T15:03:38Z</time>
      </trkpt>
      <trkpt lat="42.4844760" lon="-8.6508010">
        <ele>70.4</ele>
        <time>2022-06-18T15:03:39Z</time>
      </trkpt>
      <trkpt lat="42.4845150" lon="-8.6508030">
        <ele>70.4</ele>
        <time>2022-06-18T15:03:40Z</time>
      </trkpt>
      <trkpt lat="42.4845550" lon="-8.6508030">
        <ele>70.4</ele>
        <time>2022-06-18T15:03:41Z</time>
      </trkpt>
      <trkpt lat="42.4845960" lon="-8.6508030">
        <ele>70.2</ele>
        <time>2022-06-18T15:03:42Z</time>
      </trkpt>
      <trkpt lat="42.4846360" lon="-8.6508030">
        <ele>69.2</ele>
        <time>2022-06-18T15:03:43Z</time>
      </trkpt>
      <trkpt lat="42.4846760" lon="-8.6508030">
        <ele>69.2</ele>
        <time>2022-06-18T15:03:44Z</time>
      </trkpt>
      <trkpt lat="42.4847180" lon="-8.6508030">
        <ele>69.2</ele>
        <time>2022-06-18T15:03:45Z</time>
      </trkpt>
      <trkpt lat="42.4847600" lon="-8.6508030">
        <ele>69.2</ele>
        <time>2022-06-18T15:03:46Z</time>
      </trkpt>
      <trkpt lat="42.4848010" lon="-8.6508000">
        <ele>69.6</ele>
        <time>2022-06-18T15:03:47Z</time>
      </trkpt>
      <trkpt lat="42.4848410" lon="-8.6507900">
        <ele>69.6</ele>
        <time>2022-06-18T15:03:48Z</time>
      </trkpt>
      <trkpt lat="42.4848800" lon="-8.6507800">
        <ele>69.6</ele>
        <time>2022-06-18T15:03:49Z</time>
      </trkpt>
      <trkpt lat="42.4849160" lon="-8.6507700">
        <ele>69.6</ele>
        <time>2022-06-18T15:03:50Z</time>
      </trkpt>
      <trkpt lat="42.4849560" lon="-8.6507600">
        <ele>69.8</ele>
        <time>2022-06-18T15:03:51Z</time>
      </trkpt>
      <trkpt lat="42.4849930" lon="-8.6507450">
        <ele>69.8</ele>
        <time>2022-06-18T15:03:52Z</time>
      </trkpt>
      <trkpt lat="42.4850280" lon="-8.6507300">
        <ele>69.8</ele>
        <time>2022-06-18T15:03:53Z</time>
      </trkpt>
      <trkpt lat="42.4850650" lon="-8.6507200">
        <ele>69.8</ele>
        <time>2022-06-18T15:03:54Z</time>
      </trkpt>
      <trkpt lat="42.4851000" lon="-8.6507060">
        <ele>70.0</ele>
        <time>2022-06-18T15:03:55Z</time>
      </trkpt>
      <trkpt lat="42.4851350" lon="-8.6506930">
        <ele>70.0</ele>
        <time>2022-06-18T15:03:56Z</time>
      </trkpt>
      <trkpt lat="42.4851660" lon="-8.6506830">
        <ele>70.0</ele>
        <time>2022-06-18T15:03:57Z</time>
      </trkpt>
      <trkpt lat="42.4851960" lon="-8.6506780">
        <ele>70.0</ele>
        <time>2022-06-18T15:03:58Z</time>
      </trkpt>
      <trkpt lat="42.4852280" lon="-8.6506700">
        <ele>70.2</ele>
        <time>2022-06-18T15:03:59Z</time>
      </trkpt>
      <trkpt lat="42.4852560" lon="-8.6506660">
        <ele>70.2</ele>
        <time>2022-06-18T15:04:00Z</time>
      </trkpt>
      <trkpt lat="42.4852880" lon="-8.6506650">
        <ele>70.2</ele>
        <time>2022-06-18T15:04:01Z</time>
      </trkpt>
      <trkpt lat="42.4853160" lon="-8.6506700">
        <ele>70.2</ele>
        <time>2022-06-18T15:04:02Z</time>
      </trkpt>
      <trkpt lat="42.4853460" lon="-8.6506710">
        <ele>69.8</ele>
        <time>2022-06-18T15:04:03Z</time>
      </trkpt>
      <trkpt lat="42.4853800" lon="-8.6506710">
        <ele>69.8</ele>
        <time>2022-06-18T15:04:04Z</time>
      </trkpt>
      <trkpt lat="42.4854110" lon="-8.6506710">
        <ele>69.8</ele>
        <time>2022-06-18T15:04:05Z</time>
      </trkpt>
      <trkpt lat="42.4854450" lon="-8.6506710">
        <ele>70.8</ele>
        <time>2022-06-18T15:04:06Z</time>
      </trkpt>
      <trkpt lat="42.4854810" lon="-8.6506760">
        <ele>70.2</ele>
        <time>2022-06-18T15:04:07Z</time>
      </trkpt>
      <trkpt lat="42.4855160" lon="-8.6506780">
        <ele>70.2</ele>
        <time>2022-06-18T15:04:08Z</time>
      </trkpt>
      <trkpt lat="42.4855550" lon="-8.6506750">
        <ele>70.2</ele>
        <time>2022-06-18T15:04:09Z</time>
      </trkpt>
      <trkpt lat="42.4855860" lon="-8.6506650">
        <ele>70.2</ele>
        <time>2022-06-18T15:04:10Z</time>
      </trkpt>
      <trkpt lat="42.4856160" lon="-8.6506650">
        <ele>70.4</ele>
        <time>2022-06-18T15:04:11Z</time>
      </trkpt>
      <trkpt lat="42.4856460" lon="-8.6506630">
        <ele>70.4</ele>
        <time>2022-06-18T15:04:12Z</time>
      </trkpt>
      <trkpt lat="42.4856880" lon="-8.6506610">
        <ele>70.4</ele>
        <time>2022-06-18T15:04:13Z</time>
      </trkpt>
      <trkpt lat="42.4857300" lon="-8.6506550">
        <ele>70.4</ele>
        <time>2022-06-18T15:04:14Z</time>
      </trkpt>
      <trkpt lat="42.4857680" lon="-8.6506580">
        <ele>70.4</ele>
        <time>2022-06-18T15:04:15Z</time>
      </trkpt>
      <trkpt lat="42.4858060" lon="-8.6506580">
        <ele>70.4</ele>
        <time>2022-06-18T15:04:16Z</time>
      </trkpt>
      <trkpt lat="42.4858460" lon="-8.6506610">
        <ele>70.4</ele>
        <time>2022-06-18T15:04:17Z</time>
      </trkpt>
      <trkpt lat="42.4858830" lon="-8.6506580">
        <ele>70.4</ele>
        <time>2022-06-18T15:04:18Z</time>
      </trkpt>
      <trkpt lat="42.4859180" lon="-8.6506610">
        <ele>69.6</ele>
        <time>2022-06-18T15:04:19Z</time>
      </trkpt>
      <trkpt lat="42.4859530" lon="-8.6506580">
        <ele>69.6</ele>
        <time>2022-06-18T15:04:20Z</time>
      </trkpt>
      <trkpt lat="42.4859860" lon="-8.6506560">
        <ele>69.6</ele>
        <time>2022-06-18T15:04:21Z</time>
      </trkpt>
      <trkpt lat="42.4860110" lon="-8.6506530">
        <ele>70.6</ele>
        <time>2022-06-18T15:04:22Z</time>
      </trkpt>
      <trkpt lat="42.4860450" lon="-8.6506460">
        <ele>70.8</ele>
        <time>2022-06-18T15:04:23Z</time>
      </trkpt>
      <trkpt lat="42.4860850" lon="-8.6506380">
        <ele>70.8</ele>
        <time>2022-06-18T15:04:24Z</time>
      </trkpt>
      <trkpt lat="42.4861180" lon="-8.6506280">
        <ele>70.8</ele>
        <time>2022-06-18T15:04:25Z</time>
      </trkpt>
      <trkpt lat="42.4861560" lon="-8.6506080">
        <ele>70.6</ele>
        <time>2022-06-18T15:04:26Z</time>
      </trkpt>
      <trkpt lat="42.4861950" lon="-8.6505930">
        <ele>70.8</ele>
        <time>2022-06-18T15:04:27Z</time>
      </trkpt>
      <trkpt lat="42.4862300" lon="-8.6505760">
        <ele>70.8</ele>
        <time>2022-06-18T15:04:28Z</time>
      </trkpt>
      <trkpt lat="42.4862600" lon="-8.6505560">
        <ele>70.8</ele>
        <time>2022-06-18T15:04:29Z</time>
      </trkpt>
      <trkpt lat="42.4862860" lon="-8.6505360">
        <ele>71.8</ele>
        <time>2022-06-18T15:04:30Z</time>
      </trkpt>
      <trkpt lat="42.4863100" lon="-8.6505200">
        <ele>72.4</ele>
        <time>2022-06-18T15:04:31Z</time>
      </trkpt>
      <trkpt lat="42.4863310" lon="-8.6505050">
        <ele>72.4</ele>
        <time>2022-06-18T15:04:32Z</time>
      </trkpt>
      <trkpt lat="42.4863550" lon="-8.6504900">
        <ele>72.4</ele>
        <time>2022-06-18T15:04:33Z</time>
      </trkpt>
      <trkpt lat="42.4863760" lon="-8.6504800">
        <ele>73.4</ele>
        <time>2022-06-18T15:04:34Z</time>
      </trkpt>
      <trkpt lat="42.4863910" lon="-8.6504660">
        <ele>74.4</ele>
        <time>2022-06-18T15:04:35Z</time>
      </trkpt>
      <trkpt lat="42.4864080" lon="-8.6504510">
        <ele>74.4</ele>
        <time>2022-06-18T15:04:36Z</time>
      </trkpt>
      <trkpt lat="42.4864280" lon="-8.6504430">
        <ele>74.4</ele>
        <time>2022-06-18T15:04:37Z</time>
      </trkpt>
      <trkpt lat="42.4864500" lon="-8.6504380">
        <ele>74.4</ele>
        <time>2022-06-18T15:04:38Z</time>
      </trkpt>
      <trkpt lat="42.4864730" lon="-8.6504300">
        <ele>74.4</ele>
        <time>2022-06-18T15:04:39Z</time>
      </trkpt>
      <trkpt lat="42.4864950" lon="-8.6504130">
        <ele>74.4</ele>
        <time>2022-06-18T15:04:40Z</time>
      </trkpt>
      <trkpt lat="42.4865200" lon="-8.6504030">
        <ele>74.4</ele>
        <time>2022-06-18T15:04:41Z</time>
      </trkpt>
      <trkpt lat="42.4865450" lon="-8.6503950">
        <ele>75.2</ele>
        <time>2022-06-18T15:04:42Z</time>
      </trkpt>
      <trkpt lat="42.4865610" lon="-8.6503880">
        <ele>74.8</ele>
        <time>2022-06-18T15:04:43Z</time>
      </trkpt>
      <trkpt lat="42.4865810" lon="-8.6503760">
        <ele>74.8</ele>
        <time>2022-06-18T15:04:44Z</time>
      </trkpt>
      <trkpt lat="42.4866010" lon="-8.6503700">
        <ele>74.8</ele>
        <time>2022-06-18T15:04:45Z</time>
      </trkpt>
      <trkpt lat="42.4866260" lon="-8.6503630">
        <ele>75.8</ele>
        <time>2022-06-18T15:04:46Z</time>
      </trkpt>
      <trkpt lat="42.4866500" lon="-8.6503600">
        <ele>75.2</ele>
        <time>2022-06-18T15:04:47Z</time>
      </trkpt>
      <trkpt lat="42.4866630" lon="-8.6503550">
        <ele>75.2</ele>
        <time>2022-06-18T15:04:48Z</time>
      </trkpt>
      <trkpt lat="42.4866800" lon="-8.6503450">
        <ele>75.2</ele>
        <time>2022-06-18T15:04:49Z</time>
      </trkpt>
      <trkpt lat="42.4867010" lon="-8.6503310">
        <ele>75.2</ele>
        <time>2022-06-18T15:04:50Z</time>
      </trkpt>
      <trkpt lat="42.4867230" lon="-8.6503210">
        <ele>74.8</ele>
        <time>2022-06-18T15:04:51Z</time>
      </trkpt>
      <trkpt lat="42.4867460" lon="-8.6503080">
        <ele>74.8</ele>
        <time>2022-06-18T15:04:52Z</time>
      </trkpt>
      <trkpt lat="42.4867710" lon="-8.6503050">
        <ele>74.8</ele>
        <time>2022-06-18T15:04:53Z</time>
      </trkpt>
      <trkpt lat="42.4868060" lon="-8.6503010">
        <ele>74.8</ele>
        <time>2022-06-18T15:04:54Z</time>
      </trkpt>
      <trkpt lat="42.4868380" lon="-8.6502950">
        <ele>75.2</ele>
        <time>2022-06-18T15:04:55Z</time>
      </trkpt>
      <trkpt lat="42.4868630" lon="-8.6502810">
        <ele>75.2</ele>
        <time>2022-06-18T15:04:56Z</time>
      </trkpt>
      <trkpt lat="42.4868980" lon="-8.6502750">
        <ele>75.2</ele>
        <time>2022-06-18T15:04:57Z</time>
      </trkpt>
      <trkpt lat="42.4869330" lon="-8.6502680">
        <ele>75.2</ele>
        <time>2022-06-18T15:04:58Z</time>
      </trkpt>
      <trkpt lat="42.4869530" lon="-8.6502630">
        <ele>74.6</ele>
        <time>2022-06-18T15:04:59Z</time>
      </trkpt>
      <trkpt lat="42.4869630" lon="-8.6502600">
        <ele>74.6</ele>
        <time>2022-06-18T15:05:00Z</time>
      </trkpt>
      <trkpt lat="42.4869880" lon="-8.6502600">
        <ele>74.6</ele>
        <time>2022-06-18T15:05:01Z</time>
      </trkpt>
      <trkpt lat="42.4870230" lon="-8.6502510">
        <ele>74.6</ele>
        <time>2022-06-18T15:05:02Z</time>
      </trkpt>
      <trkpt lat="42.4870500" lon="-8.6502410">
        <ele>74.6</ele>
        <time>2022-06-18T15:05:03Z</time>
      </trkpt>
      <trkpt lat="42.4870860" lon="-8.6502280">
        <ele>74.6</ele>
        <time>2022-06-18T15:05:04Z</time>
      </trkpt>
      <trkpt lat="42.4871260" lon="-8.6502200">
        <ele>74.6</ele>
        <time>2022-06-18T15:05:05Z</time>
      </trkpt>
      <trkpt lat="42.4871660" lon="-8.6502030">
        <ele>74.6</ele>
        <time>2022-06-18T15:05:06Z</time>
      </trkpt>
      <trkpt lat="42.4872080" lon="-8.6501900">
        <ele>74.2</ele>
        <time>2022-06-18T15:05:07Z</time>
      </trkpt>
      <trkpt lat="42.4872450" lon="-8.6501830">
        <ele>74.2</ele>
        <time>2022-06-18T15:05:08Z</time>
      </trkpt>
      <trkpt lat="42.4872750" lon="-8.6501810">
        <ele>74.2</ele>
        <time>2022-06-18T15:05:09Z</time>
      </trkpt>
      <trkpt lat="42.4873000" lon="-8.6501830">
        <ele>74.2</ele>
        <time>2022-06-18T15:05:10Z</time>
      </trkpt>
      <trkpt lat="42.4873230" lon="-8.6501780">
        <ele>74.2</ele>
        <time>2022-06-18T15:05:11Z</time>
      </trkpt>
      <trkpt lat="42.4873560" lon="-8.6501700">
        <ele>74.2</ele>
        <time>2022-06-18T15:05:12Z</time>
      </trkpt>
      <trkpt lat="42.4873900" lon="-8.6501630">
        <ele>74.2</ele>
        <time>2022-06-18T15:05:13Z</time>
      </trkpt>
      <trkpt lat="42.4874230" lon="-8.6501650">
        <ele>74.2</ele>
        <time>2022-06-18T15:05:14Z</time>
      </trkpt>
      <trkpt lat="42.4874550" lon="-8.6501630">
        <ele>74.2</ele>
        <time>2022-06-18T15:05:15Z</time>
      </trkpt>
      <trkpt lat="42.4874830" lon="-8.6501680">
        <ele>74.2</ele>
        <time>2022-06-18T15:05:16Z</time>
      </trkpt>
      <trkpt lat="42.4875080" lon="-8.6501700">
        <ele>74.2</ele>
        <time>2022-06-18T15:05:17Z</time>
      </trkpt>
      <trkpt lat="42.4875280" lon="-8.6501660">
        <ele>74.2</ele>
        <time>2022-06-18T15:05:18Z</time>
      </trkpt>
      <trkpt lat="42.4875580" lon="-8.6501650">
        <ele>75.4</ele>
        <time>2022-06-18T15:05:19Z</time>
      </trkpt>
      <trkpt lat="42.4875810" lon="-8.6501600">
        <ele>75.4</ele>
        <time>2022-06-18T15:05:20Z</time>
      </trkpt>
      <trkpt lat="42.4876060" lon="-8.6501600">
        <ele>75.4</ele>
        <time>2022-06-18T15:05:21Z</time>
      </trkpt>
      <trkpt lat="42.4876330" lon="-8.6501560">
        <ele>74.6</ele>
        <time>2022-06-18T15:05:22Z</time>
      </trkpt>
      <trkpt lat="42.4876680" lon="-8.6501500">
        <ele>75.2</ele>
        <time>2022-06-18T15:05:23Z</time>
      </trkpt>
      <trkpt lat="42.4877000" lon="-8.6501630">
        <ele>75.2</ele>
        <time>2022-06-18T15:05:24Z</time>
      </trkpt>
      <trkpt lat="42.4877410" lon="-8.6501530">
        <ele>75.2</ele>
        <time>2022-06-18T15:05:25Z</time>
      </trkpt>
      <trkpt lat="42.4877680" lon="-8.6501530">
        <ele>75.2</ele>
        <time>2022-06-18T15:05:26Z</time>
      </trkpt>
      <trkpt lat="42.4877980" lon="-8.6501610">
        <ele>74.6</ele>
        <time>2022-06-18T15:05:27Z</time>
      </trkpt>
      <trkpt lat="42.4878310" lon="-8.6501600">
        <ele>74.6</ele>
        <time>2022-06-18T15:05:28Z</time>
      </trkpt>
      <trkpt lat="42.4878650" lon="-8.6501630">
        <ele>74.6</ele>
        <time>2022-06-18T15:05:29Z</time>
      </trkpt>
      <trkpt lat="42.4879030" lon="-8.6501650">
        <ele>75.6</ele>
        <time>2022-06-18T15:05:30Z</time>
      </trkpt>
      <trkpt lat="42.4879460" lon="-8.6501650">
        <ele>75.0</ele>
        <time>2022-06-18T15:05:31Z</time>
      </trkpt>
      <trkpt lat="42.4879850" lon="-8.6501560">
        <ele>75.0</ele>
        <time>2022-06-18T15:05:32Z</time>
      </trkpt>
      <trkpt lat="42.4880280" lon="-8.6501450">
        <ele>75.0</ele>
        <time>2022-06-18T15:05:33Z</time>
      </trkpt>
      <trkpt lat="42.4880580" lon="-8.6501400">
        <ele>76.0</ele>
        <time>2022-06-18T15:05:34Z</time>
      </trkpt>
      <trkpt lat="42.4880900" lon="-8.6501160">
        <ele>75.6</ele>
        <time>2022-06-18T15:05:35Z</time>
      </trkpt>
      <trkpt lat="42.4881250" lon="-8.6501010">
        <ele>75.6</ele>
        <time>2022-06-18T15:05:36Z</time>
      </trkpt>
      <trkpt lat="42.4881560" lon="-8.6500910">
        <ele>75.6</ele>
        <time>2022-06-18T15:05:37Z</time>
      </trkpt>
      <trkpt lat="42.4881830" lon="-8.6500880">
        <ele>75.6</ele>
        <time>2022-06-18T15:05:38Z</time>
      </trkpt>
      <trkpt lat="42.4882100" lon="-8.6500830">
        <ele>76.8</ele>
        <time>2022-06-18T15:05:39Z</time>
      </trkpt>
      <trkpt lat="42.4882400" lon="-8.6500780">
        <ele>76.8</ele>
        <time>2022-06-18T15:05:40Z</time>
      </trkpt>
      <trkpt lat="42.4882700" lon="-8.6500760">
        <ele>76.8</ele>
        <time>2022-06-18T15:05:41Z</time>
      </trkpt>
      <trkpt lat="42.4882950" lon="-8.6500750">
        <ele>75.8</ele>
        <time>2022-06-18T15:05:42Z</time>
      </trkpt>
      <trkpt lat="42.4883250" lon="-8.6500700">
        <ele>75.6</ele>
        <time>2022-06-18T15:05:43Z</time>
      </trkpt>
      <trkpt lat="42.4883510" lon="-8.6500610">
        <ele>75.6</ele>
        <time>2022-06-18T15:05:44Z</time>
      </trkpt>
      <trkpt lat="42.4883830" lon="-8.6500430">
        <ele>75.6</ele>
        <time>2022-06-18T15:05:45Z</time>
      </trkpt>
      <trkpt lat="42.4884200" lon="-8.6500300">
        <ele>76.2</ele>
        <time>2022-06-18T15:05:46Z</time>
      </trkpt>
      <trkpt lat="42.4884530" lon="-8.6500280">
        <ele>76.4</ele>
        <time>2022-06-18T15:05:47Z</time>
      </trkpt>
      <trkpt lat="42.4884860" lon="-8.6500300">
        <ele>76.4</ele>
        <time>2022-06-18T15:05:48Z</time>
      </trkpt>
      <trkpt lat="42.4885160" lon="-8.6500230">
        <ele>76.4</ele>
        <time>2022-06-18T15:05:49Z</time>
      </trkpt>
      <trkpt lat="42.4885430" lon="-8.6500160">
        <ele>76.4</ele>
        <time>2022-06-18T15:05:50Z</time>
      </trkpt>
      <trkpt lat="42.4885660" lon="-8.6500250">
        <ele>77.0</ele>
        <time>2022-06-18T15:05:51Z</time>
      </trkpt>
      <trkpt lat="42.4885930" lon="-8.6500260">
        <ele>77.0</ele>
        <time>2022-06-18T15:05:52Z</time>
      </trkpt>
      <trkpt lat="42.4886180" lon="-8.6500260">
        <ele>77.0</ele>
        <time>2022-06-18T15:05:53Z</time>
      </trkpt>
      <trkpt lat="42.4886460" lon="-8.6500180">
        <ele>77.0</ele>
        <time>2022-06-18T15:05:54Z</time>
      </trkpt>
      <trkpt lat="42.4886750" lon="-8.6500210">
        <ele>77.4</ele>
        <time>2022-06-18T15:05:55Z</time>
      </trkpt>
      <trkpt lat="42.4886950" lon="-8.6500210">
        <ele>77.4</ele>
        <time>2022-06-18T15:05:56Z</time>
      </trkpt>
      <trkpt lat="42.4887130" lon="-8.6500200">
        <ele>77.4</ele>
        <time>2022-06-18T15:05:57Z</time>
      </trkpt>
      <trkpt lat="42.4887280" lon="-8.6500210">
        <ele>77.4</ele>
        <time>2022-06-18T15:05:58Z</time>
      </trkpt>
      <trkpt lat="42.4887550" lon="-8.6500230">
        <ele>76.8</ele>
        <time>2022-06-18T15:05:59Z</time>
      </trkpt>
      <trkpt lat="42.4887750" lon="-8.6500260">
        <ele>76.8</ele>
        <time>2022-06-18T15:06:00Z</time>
      </trkpt>
      <trkpt lat="42.4888000" lon="-8.6500160">
        <ele>76.8</ele>
        <time>2022-06-18T15:06:01Z</time>
      </trkpt>
      <trkpt lat="42.4888260" lon="-8.6500030">
        <ele>76.8</ele>
        <time>2022-06-18T15:06:02Z</time>
      </trkpt>
      <trkpt lat="42.4888600" lon="-8.6499930">
        <ele>79.0</ele>
        <time>2022-06-18T15:06:03Z</time>
      </trkpt>
      <trkpt lat="42.4888900" lon="-8.6499830">
        <ele>79.0</ele>
        <time>2022-06-18T15:06:04Z</time>
      </trkpt>
      <trkpt lat="42.4889210" lon="-8.6499680">
        <ele>79.0</ele>
        <time>2022-06-18T15:06:05Z</time>
      </trkpt>
      <trkpt lat="42.4889550" lon="-8.6499460">
        <ele>79.0</ele>
        <time>2022-06-18T15:06:06Z</time>
      </trkpt>
      <trkpt lat="42.4889800" lon="-8.6499310">
        <ele>78.6</ele>
        <time>2022-06-18T15:06:07Z</time>
      </trkpt>
      <trkpt lat="42.4890080" lon="-8.6499130">
        <ele>78.6</ele>
        <time>2022-06-18T15:06:08Z</time>
      </trkpt>
      <trkpt lat="42.4890380" lon="-8.6498950">
        <ele>78.6</ele>
        <time>2022-06-18T15:06:09Z</time>
      </trkpt>
      <trkpt lat="42.4890600" lon="-8.6498860">
        <ele>78.6</ele>
        <time>2022-06-18T15:06:10Z</time>
      </trkpt>
      <trkpt lat="42.4890860" lon="-8.6498680">
        <ele>79.0</ele>
        <time>2022-06-18T15:06:11Z</time>
      </trkpt>
      <trkpt lat="42.4891130" lon="-8.6498550">
        <ele>79.0</ele>
        <time>2022-06-18T15:06:12Z</time>
      </trkpt>
      <trkpt lat="42.4891480" lon="-8.6498360">
        <ele>79.0</ele>
        <time>2022-06-18T15:06:13Z</time>
      </trkpt>
      <trkpt lat="42.4891760" lon="-8.6498180">
        <ele>79.8</ele>
        <time>2022-06-18T15:06:14Z</time>
      </trkpt>
      <trkpt lat="42.4892060" lon="-8.6498010">
        <ele>79.8</ele>
        <time>2022-06-18T15:06:15Z</time>
      </trkpt>
      <trkpt lat="42.4892310" lon="-8.6497850">
        <ele>79.8</ele>
        <time>2022-06-18T15:06:16Z</time>
      </trkpt>
      <trkpt lat="42.4892610" lon="-8.6497660">
        <ele>79.8</ele>
        <time>2022-06-18T15:06:17Z</time>
      </trkpt>
      <trkpt lat="42.4892900" lon="-8.6497480">
        <ele>79.8</ele>
        <time>2022-06-18T15:06:18Z</time>
      </trkpt>
      <trkpt lat="42.4893210" lon="-8.6497360">
        <ele>80.8</ele>
        <time>2022-06-18T15:06:19Z</time>
      </trkpt>
      <trkpt lat="42.4893530" lon="-8.6497180">
        <ele>80.8</ele>
        <time>2022-06-18T15:06:20Z</time>
      </trkpt>
      <trkpt lat="42.4893810" lon="-8.6497030">
        <ele>80.8</ele>
        <time>2022-06-18T15:06:21Z</time>
      </trkpt>
      <trkpt lat="42.4894110" lon="-8.6496880">
        <ele>80.4</ele>
        <time>2022-06-18T15:06:22Z</time>
      </trkpt>
      <trkpt lat="42.4894400" lon="-8.6496750">
        <ele>81.4</ele>
        <time>2022-06-18T15:06:23Z</time>
      </trkpt>
      <trkpt lat="42.4894750" lon="-8.6496680">
        <ele>81.4</ele>
        <time>2022-06-18T15:06:24Z</time>
      </trkpt>
      <trkpt lat="42.4894960" lon="-8.6496610">
        <ele>81.4</ele>
        <time>2022-06-18T15:06:25Z</time>
      </trkpt>
      <trkpt lat="42.4895260" lon="-8.6496480">
        <ele>81.4</ele>
        <time>2022-06-18T15:06:26Z</time>
      </trkpt>
      <trkpt lat="42.4895550" lon="-8.6496500">
        <ele>81.2</ele>
        <time>2022-06-18T15:06:27Z</time>
      </trkpt>
      <trkpt lat="42.4895900" lon="-8.6496430">
        <ele>81.2</ele>
        <time>2022-06-18T15:06:28Z</time>
      </trkpt>
      <trkpt lat="42.4896280" lon="-8.6496350">
        <ele>81.2</ele>
        <time>2022-06-18T15:06:29Z</time>
      </trkpt>
      <trkpt lat="42.4896630" lon="-8.6496380">
        <ele>81.2</ele>
        <time>2022-06-18T15:06:30Z</time>
      </trkpt>
      <trkpt lat="42.4896930" lon="-8.6496410">
        <ele>82.0</ele>
        <time>2022-06-18T15:06:31Z</time>
      </trkpt>
      <trkpt lat="42.4897230" lon="-8.6496360">
        <ele>82.0</ele>
        <time>2022-06-18T15:06:32Z</time>
      </trkpt>
      <trkpt lat="42.4897650" lon="-8.6496250">
        <ele>82.0</ele>
        <time>2022-06-18T15:06:33Z</time>
      </trkpt>
      <trkpt lat="42.4898010" lon="-8.6496200">
        <ele>82.0</ele>
        <time>2022-06-18T15:06:34Z</time>
      </trkpt>
      <trkpt lat="42.4898480" lon="-8.6496150">
        <ele>82.2</ele>
        <time>2022-06-18T15:06:35Z</time>
      </trkpt>
      <trkpt lat="42.4898930" lon="-8.6496060">
        <ele>82.2</ele>
        <time>2022-06-18T15:06:36Z</time>
      </trkpt>
      <trkpt lat="42.4899330" lon="-8.6496000">
        <ele>82.2</ele>
        <time>2022-06-18T15:06:37Z</time>
      </trkpt>
      <trkpt lat="42.4899730" lon="-8.6495900">
        <ele>82.6</ele>
        <time>2022-06-18T15:06:38Z</time>
      </trkpt>
      <trkpt lat="42.4900080" lon="-8.6495830">
        <ele>82.4</ele>
        <time>2022-06-18T15:06:39Z</time>
      </trkpt>
      <trkpt lat="42.4900360" lon="-8.6495760">
        <ele>82.4</ele>
        <time>2022-06-18T15:06:40Z</time>
      </trkpt>
      <trkpt lat="42.4900760" lon="-8.6495650">
        <ele>82.4</ele>
        <time>2022-06-18T15:06:41Z</time>
      </trkpt>
      <trkpt lat="42.4901110" lon="-8.6495530">
        <ele>82.4</ele>
        <time>2022-06-18T15:06:42Z</time>
      </trkpt>
      <trkpt lat="42.4901430" lon="-8.6495380">
        <ele>82.6</ele>
        <time>2022-06-18T15:06:43Z</time>
      </trkpt>
      <trkpt lat="42.4901730" lon="-8.6495200">
        <ele>82.6</ele>
        <time>2022-06-18T15:06:44Z</time>
      </trkpt>
      <trkpt lat="42.4902180" lon="-8.6495080">
        <ele>82.6</ele>
        <time>2022-06-18T15:06:45Z</time>
      </trkpt>
      <trkpt lat="42.4902600" lon="-8.6495000">
        <ele>83.4</ele>
        <time>2022-06-18T15:06:46Z</time>
      </trkpt>
      <trkpt lat="42.4902910" lon="-8.6494900">
        <ele>83.6</ele>
        <time>2022-06-18T15:06:47Z</time>
      </trkpt>
      <trkpt lat="42.4903250" lon="-8.6494800">
        <ele>83.6</ele>
        <time>2022-06-18T15:06:48Z</time>
      </trkpt>
      <trkpt lat="42.4903560" lon="-8.6494730">
        <ele>83.6</ele>
        <time>2022-06-18T15:06:49Z</time>
      </trkpt>
      <trkpt lat="42.4903860" lon="-8.6494680">
        <ele>83.4</ele>
        <time>2022-06-18T15:06:50Z</time>
      </trkpt>
      <trkpt lat="42.4904150" lon="-8.6494580">
        <ele>83.4</ele>
        <time>2022-06-18T15:06:51Z</time>
      </trkpt>
      <trkpt lat="42.4904450" lon="-8.6494410">
        <ele>83.4</ele>
        <time>2022-06-18T15:06:52Z</time>
      </trkpt>
      <trkpt lat="42.4904760" lon="-8.6494360">
        <ele>83.4</ele>
        <time>2022-06-18T15:06:53Z</time>
      </trkpt>
      <trkpt lat="42.4905080" lon="-8.6494360">
        <ele>84.2</ele>
        <time>2022-06-18T15:06:54Z</time>
      </trkpt>
      <trkpt lat="42.4905460" lon="-8.6494300">
        <ele>84.0</ele>
        <time>2022-06-18T15:06:55Z</time>
      </trkpt>
      <trkpt lat="42.4905800" lon="-8.6494250">
        <ele>84.0</ele>
        <time>2022-06-18T15:06:56Z</time>
      </trkpt>
      <trkpt lat="42.4906110" lon="-8.6494250">
        <ele>84.0</ele>
        <time>2022-06-18T15:06:57Z</time>
      </trkpt>
      <trkpt lat="42.4906430" lon="-8.6494200">
        <ele>83.8</ele>
        <time>2022-06-18T15:06:58Z</time>
      </trkpt>
      <trkpt lat="42.4906780" lon="-8.6494060">
        <ele>84.0</ele>
        <time>2022-06-18T15:06:59Z</time>
      </trkpt>
      <trkpt lat="42.4907160" lon="-8.6493850">
        <ele>84.0</ele>
        <time>2022-06-18T15:07:00Z</time>
      </trkpt>
      <trkpt lat="42.4907530" lon="-8.6493650">
        <ele>84.0</ele>
        <time>2022-06-18T15:07:01Z</time>
      </trkpt>
      <trkpt lat="42.4907830" lon="-8.6493480">
        <ele>84.0</ele>
        <time>2022-06-18T15:07:02Z</time>
      </trkpt>
      <trkpt lat="42.4908080" lon="-8.6493400">
        <ele>84.0</ele>
        <time>2022-06-18T15:07:03Z</time>
      </trkpt>
      <trkpt lat="42.4908310" lon="-8.6493330">
        <ele>84.0</ele>
        <time>2022-06-18T15:07:04Z</time>
      </trkpt>
      <trkpt lat="42.4908660" lon="-8.6493160">
        <ele>84.0</ele>
        <time>2022-06-18T15:07:05Z</time>
      </trkpt>
      <trkpt lat="42.4908930" lon="-8.6492910">
        <ele>84.0</ele>
        <time>2022-06-18T15:07:06Z</time>
      </trkpt>
      <trkpt lat="42.4909330" lon="-8.6492650">
        <ele>84.6</ele>
        <time>2022-06-18T15:07:07Z</time>
      </trkpt>
      <trkpt lat="42.4909650" lon="-8.6492430">
        <ele>84.6</ele>
        <time>2022-06-18T15:07:08Z</time>
      </trkpt>
      <trkpt lat="42.4909900" lon="-8.6492250">
        <ele>84.6</ele>
        <time>2022-06-18T15:07:09Z</time>
      </trkpt>
      <trkpt lat="42.4910200" lon="-8.6492060">
        <ele>85.4</ele>
        <time>2022-06-18T15:07:10Z</time>
      </trkpt>
      <trkpt lat="42.4910450" lon="-8.6491880">
        <ele>85.8</ele>
        <time>2022-06-18T15:07:11Z</time>
      </trkpt>
      <trkpt lat="42.4910660" lon="-8.6491730">
        <ele>85.8</ele>
        <time>2022-06-18T15:07:12Z</time>
      </trkpt>
      <trkpt lat="42.4910930" lon="-8.6491550">
        <ele>85.8</ele>
        <time>2022-06-18T15:07:13Z</time>
      </trkpt>
      <trkpt lat="42.4911160" lon="-8.6491400">
        <ele>86.4</ele>
        <time>2022-06-18T15:07:14Z</time>
      </trkpt>
      <trkpt lat="42.4911430" lon="-8.6491130">
        <ele>86.8</ele>
        <time>2022-06-18T15:07:15Z</time>
      </trkpt>
      <trkpt lat="42.4911650" lon="-8.6490980">
        <ele>86.8</ele>
        <time>2022-06-18T15:07:16Z</time>
      </trkpt>
      <trkpt lat="42.4911900" lon="-8.6490850">
        <ele>86.8</ele>
        <time>2022-06-18T15:07:17Z</time>
      </trkpt>
      <trkpt lat="42.4912160" lon="-8.6490660">
        <ele>86.8</ele>
        <time>2022-06-18T15:07:18Z</time>
      </trkpt>
      <trkpt lat="42.4912380" lon="-8.6490550">
        <ele>87.2</ele>
        <time>2022-06-18T15:07:19Z</time>
      </trkpt>
      <trkpt lat="42.4912610" lon="-8.6490480">
        <ele>87.2</ele>
        <time>2022-06-18T15:07:20Z</time>
      </trkpt>
      <trkpt lat="42.4912930" lon="-8.6490400">
        <ele>87.2</ele>
        <time>2022-06-18T15:07:21Z</time>
      </trkpt>
      <trkpt lat="42.4913210" lon="-8.6490380">
        <ele>87.8</ele>
        <time>2022-06-18T15:07:22Z</time>
      </trkpt>
      <trkpt lat="42.4913410" lon="-8.6490210">
        <ele>88.2</ele>
        <time>2022-06-18T15:07:23Z</time>
      </trkpt>
      <trkpt lat="42.4913680" lon="-8.6490200">
        <ele>88.2</ele>
        <time>2022-06-18T15:07:24Z</time>
      </trkpt>
      <trkpt lat="42.4913900" lon="-8.6490100">
        <ele>88.2</ele>
        <time>2022-06-18T15:07:25Z</time>
      </trkpt>
      <trkpt lat="42.4914110" lon="-8.6489980">
        <ele>88.6</ele>
        <time>2022-06-18T15:07:26Z</time>
      </trkpt>
      <trkpt lat="42.4914360" lon="-8.6489910">
        <ele>87.8</ele>
        <time>2022-06-18T15:07:27Z</time>
      </trkpt>
      <trkpt lat="42.4914550" lon="-8.6489800">
        <ele>87.8</ele>
        <time>2022-06-18T15:07:28Z</time>
      </trkpt>
      <trkpt lat="42.4914750" lon="-8.6489660">
        <ele>87.8</ele>
        <time>2022-06-18T15:07:29Z</time>
      </trkpt>
      <trkpt lat="42.4914950" lon="-8.6489630">
        <ele>88.8</ele>
        <time>2022-06-18T15:07:30Z</time>
      </trkpt>
      <trkpt lat="42.4915160" lon="-8.6489530">
        <ele>89.0</ele>
        <time>2022-06-18T15:07:31Z</time>
      </trkpt>
      <trkpt lat="42.4915410" lon="-8.6489480">
        <ele>89.0</ele>
        <time>2022-06-18T15:07:32Z</time>
      </trkpt>
      <trkpt lat="42.4915600" lon="-8.6489330">
        <ele>89.0</ele>
        <time>2022-06-18T15:07:33Z</time>
      </trkpt>
      <trkpt lat="42.4915800" lon="-8.6489250">
        <ele>89.4</ele>
        <time>2022-06-18T15:07:34Z</time>
      </trkpt>
      <trkpt lat="42.4915950" lon="-8.6489160">
        <ele>89.8</ele>
        <time>2022-06-18T15:07:35Z</time>
      </trkpt>
      <trkpt lat="42.4916130" lon="-8.6489080">
        <ele>89.8</ele>
        <time>2022-06-18T15:07:36Z</time>
      </trkpt>
      <trkpt lat="42.4916360" lon="-8.6489010">
        <ele>89.8</ele>
        <time>2022-06-18T15:07:37Z</time>
      </trkpt>
      <trkpt lat="42.4916580" lon="-8.6488860">
        <ele>89.8</ele>
        <time>2022-06-18T15:07:38Z</time>
      </trkpt>
      <trkpt lat="42.4916780" lon="-8.6488730">
        <ele>90.6</ele>
        <time>2022-06-18T15:07:39Z</time>
      </trkpt>
      <trkpt lat="42.4916980" lon="-8.6488600">
        <ele>90.6</ele>
        <time>2022-06-18T15:07:40Z</time>
      </trkpt>
      <trkpt lat="42.4917200" lon="-8.6488500">
        <ele>90.6</ele>
        <time>2022-06-18T15:07:41Z</time>
      </trkpt>
      <trkpt lat="42.4917380" lon="-8.6488450">
        <ele>90.6</ele>
        <time>2022-06-18T15:07:42Z</time>
      </trkpt>
      <trkpt lat="42.4917550" lon="-8.6488450">
        <ele>91.2</ele>
        <time>2022-06-18T15:07:43Z</time>
      </trkpt>
      <trkpt lat="42.4917660" lon="-8.6488400">
        <ele>91.2</ele>
        <time>2022-06-18T15:07:44Z</time>
      </trkpt>
      <trkpt lat="42.4917780" lon="-8.6488360">
        <ele>91.2</ele>
        <time>2022-06-18T15:07:45Z</time>
      </trkpt>
      <trkpt lat="42.4917910" lon="-8.6488280">
        <ele>91.2</ele>
        <time>2022-06-18T15:07:46Z</time>
      </trkpt>
      <trkpt lat="42.4918080" lon="-8.6488180">
        <ele>91.4</ele>
        <time>2022-06-18T15:07:47Z</time>
      </trkpt>
      <trkpt lat="42.4918200" lon="-8.6488260">
        <ele>91.4</ele>
        <time>2022-06-18T15:07:48Z</time>
      </trkpt>
      <trkpt lat="42.4918330" lon="-8.6488310">
        <ele>91.4</ele>
        <time>2022-06-18T15:07:49Z</time>
      </trkpt>
      <trkpt lat="42.4918460" lon="-8.6488250">
        <ele>92.4</ele>
        <time>2022-06-18T15:07:50Z</time>
      </trkpt>
      <trkpt lat="42.4918600" lon="-8.6488210">
        <ele>92.8</ele>
        <time>2022-06-18T15:07:51Z</time>
      </trkpt>
      <trkpt lat="42.4918680" lon="-8.6488130">
        <ele>92.8</ele>
        <time>2022-06-18T15:07:52Z</time>
      </trkpt>
      <trkpt lat="42.4918800" lon="-8.6488080">
        <ele>92.8</ele>
        <time>2022-06-18T15:07:53Z</time>
      </trkpt>
      <trkpt lat="42.4918930" lon="-8.6488050">
        <ele>93.2</ele>
        <time>2022-06-18T15:07:54Z</time>
      </trkpt>
      <trkpt lat="42.4919130" lon="-8.6488010">
        <ele>93.4</ele>
        <time>2022-06-18T15:07:55Z</time>
      </trkpt>
      <trkpt lat="42.4919310" lon="-8.6488030">
        <ele>93.4</ele>
        <time>2022-06-18T15:07:56Z</time>
      </trkpt>
      <trkpt lat="42.4919460" lon="-8.6488000">
        <ele>93.4</ele>
        <time>2022-06-18T15:07:57Z</time>
      </trkpt>
      <trkpt lat="42.4919630" lon="-8.6487930">
        <ele>94.4</ele>
        <time>2022-06-18T15:07:58Z</time>
      </trkpt>
      <trkpt lat="42.4919800" lon="-8.6487860">
        <ele>94.4</ele>
        <time>2022-06-18T15:07:59Z</time>
      </trkpt>
      <trkpt lat="42.4919950" lon="-8.6487860">
        <ele>94.4</ele>
        <time>2022-06-18T15:08:00Z</time>
      </trkpt>
      <trkpt lat="42.4920110" lon="-8.6487810">
        <ele>94.4</ele>
        <time>2022-06-18T15:08:01Z</time>
      </trkpt>
      <trkpt lat="42.4920280" lon="-8.6487750">
        <ele>95.4</ele>
        <time>2022-06-18T15:08:02Z</time>
      </trkpt>
      <trkpt lat="42.4920460" lon="-8.6487710">
        <ele>95.2</ele>
        <time>2022-06-18T15:08:03Z</time>
      </trkpt>
      <trkpt lat="42.4920630" lon="-8.6487630">
        <ele>95.2</ele>
        <time>2022-06-18T15:08:04Z</time>
      </trkpt>
      <trkpt lat="42.4920850" lon="-8.6487550">
        <ele>95.2</ele>
        <time>2022-06-18T15:08:05Z</time>
      </trkpt>
      <trkpt lat="42.4921030" lon="-8.6487400">
        <ele>96.2</ele>
        <time>2022-06-18T15:08:06Z</time>
      </trkpt>
      <trkpt lat="42.4921250" lon="-8.6487280">
        <ele>95.6</ele>
        <time>2022-06-18T15:08:07Z</time>
      </trkpt>
      <trkpt lat="42.4921430" lon="-8.6487210">
        <ele>95.6</ele>
        <time>2022-06-18T15:08:08Z</time>
      </trkpt>
      <trkpt lat="42.4921600" lon="-8.6487080">
        <ele>95.6</ele>
        <time>2022-06-18T15:08:09Z</time>
      </trkpt>
      <trkpt lat="42.4921810" lon="-8.6486980">
        <ele>95.8</ele>
        <time>2022-06-18T15:08:10Z</time>
      </trkpt>
      <trkpt lat="42.4922080" lon="-8.6486900">
        <ele>95.8</ele>
        <time>2022-06-18T15:08:11Z</time>
      </trkpt>
      <trkpt lat="42.4922310" lon="-8.6486800">
        <ele>95.8</ele>
        <time>2022-06-18T15:08:12Z</time>
      </trkpt>
      <trkpt lat="42.4922580" lon="-8.6486600">
        <ele>95.8</ele>
        <time>2022-06-18T15:08:13Z</time>
      </trkpt>
      <trkpt lat="42.4922850" lon="-8.6486430">
        <ele>96.8</ele>
        <time>2022-06-18T15:08:14Z</time>
      </trkpt>
      <trkpt lat="42.4923110" lon="-8.6486360">
        <ele>96.8</ele>
        <time>2022-06-18T15:08:15Z</time>
      </trkpt>
      <trkpt lat="42.4923360" lon="-8.6486310">
        <ele>96.8</ele>
        <time>2022-06-18T15:08:16Z</time>
      </trkpt>
      <trkpt lat="42.4923580" lon="-8.6486250">
        <ele>96.8</ele>
        <time>2022-06-18T15:08:17Z</time>
      </trkpt>
      <trkpt lat="42.4923880" lon="-8.6486150">
        <ele>96.8</ele>
        <time>2022-06-18T15:08:18Z</time>
      </trkpt>
      <trkpt lat="42.4924100" lon="-8.6486110">
        <ele>96.4</ele>
        <time>2022-06-18T15:08:19Z</time>
      </trkpt>
      <trkpt lat="42.4924350" lon="-8.6486010">
        <ele>96.4</ele>
        <time>2022-06-18T15:08:20Z</time>
      </trkpt>
      <trkpt lat="42.4924580" lon="-8.6485900">
        <ele>96.4</ele>
        <time>2022-06-18T15:08:21Z</time>
      </trkpt>
      <trkpt lat="42.4924810" lon="-8.6485830">
        <ele>97.0</ele>
        <time>2022-06-18T15:08:22Z</time>
      </trkpt>
      <trkpt lat="42.4925080" lon="-8.6485800">
        <ele>97.2</ele>
        <time>2022-06-18T15:08:23Z</time>
      </trkpt>
      <trkpt lat="42.4925330" lon="-8.6485680">
        <ele>97.2</ele>
        <time>2022-06-18T15:08:24Z</time>
      </trkpt>
      <trkpt lat="42.4925580" lon="-8.6485650">
        <ele>97.2</ele>
        <time>2022-06-18T15:08:25Z</time>
      </trkpt>
      <trkpt lat="42.4925900" lon="-8.6485650">
        <ele>96.8</ele>
        <time>2022-06-18T15:08:26Z</time>
      </trkpt>
      <trkpt lat="42.4926150" lon="-8.6485660">
        <ele>97.0</ele>
        <time>2022-06-18T15:08:27Z</time>
      </trkpt>
      <trkpt lat="42.4926380" lon="-8.6485680">
        <ele>97.0</ele>
        <time>2022-06-18T15:08:28Z</time>
      </trkpt>
      <trkpt lat="42.4926610" lon="-8.6485650">
        <ele>97.0</ele>
        <time>2022-06-18T15:08:29Z</time>
      </trkpt>
      <trkpt lat="42.4926850" lon="-8.6485630">
        <ele>97.0</ele>
        <time>2022-06-18T15:08:30Z</time>
      </trkpt>
      <trkpt lat="42.4927100" lon="-8.6485610">
        <ele>97.0</ele>
        <time>2022-06-18T15:08:31Z</time>
      </trkpt>
      <trkpt lat="42.4927280" lon="-8.6485650">
        <ele>97.0</ele>
        <time>2022-06-18T15:08:32Z</time>
      </trkpt>
      <trkpt lat="42.4927530" lon="-8.6485660">
        <ele>97.0</ele>
        <time>2022-06-18T15:08:33Z</time>
      </trkpt>
      <trkpt lat="42.4927780" lon="-8.6485630">
        <ele>97.8</ele>
        <time>2022-06-18T15:08:34Z</time>
      </trkpt>
      <trkpt lat="42.4928000" lon="-8.6485700">
        <ele>97.6</ele>
        <time>2022-06-18T15:08:35Z</time>
      </trkpt>
      <trkpt lat="42.4928250" lon="-8.6485750">
        <ele>97.6</ele>
        <time>2022-06-18T15:08:36Z</time>
      </trkpt>
      <trkpt lat="42.4928500" lon="-8.6485830">
        <ele>97.6</ele>
        <time>2022-06-18T15:08:37Z</time>
      </trkpt>
      <trkpt lat="42.4928710" lon="-8.6485850">
        <ele>97.6</ele>
        <time>2022-06-18T15:08:38Z</time>
      </trkpt>
      <trkpt lat="42.4928950" lon="-8.6485810">
        <ele>98.0</ele>
        <time>2022-06-18T15:08:39Z</time>
      </trkpt>
      <trkpt lat="42.4929160" lon="-8.6485780">
        <ele>98.0</ele>
        <time>2022-06-18T15:08:40Z</time>
      </trkpt>
      <trkpt lat="42.4929450" lon="-8.6485860">
        <ele>98.0</ele>
        <time>2022-06-18T15:08:41Z</time>
      </trkpt>
      <trkpt lat="42.4929710" lon="-8.6485860">
        <ele>98.0</ele>
        <time>2022-06-18T15:08:42Z</time>
      </trkpt>
      <trkpt lat="42.4929950" lon="-8.6485800">
        <ele>98.4</ele>
        <time>2022-06-18T15:08:43Z</time>
      </trkpt>
      <trkpt lat="42.4930150" lon="-8.6485760">
        <ele>98.4</ele>
        <time>2022-06-18T15:08:44Z</time>
      </trkpt>
      <trkpt lat="42.4930450" lon="-8.6485730">
        <ele>98.4</ele>
        <time>2022-06-18T15:08:45Z</time>
      </trkpt>
      <trkpt lat="42.4930750" lon="-8.6485750">
        <ele>99.0</ele>
        <time>2022-06-18T15:08:46Z</time>
      </trkpt>
      <trkpt lat="42.4931030" lon="-8.6485750">
        <ele>98.4</ele>
        <time>2022-06-18T15:08:47Z</time>
      </trkpt>
      <trkpt lat="42.4931360" lon="-8.6485710">
        <ele>98.4</ele>
        <time>2022-06-18T15:08:48Z</time>
      </trkpt>
      <trkpt lat="42.4931660" lon="-8.6485730">
        <ele>98.4</ele>
        <time>2022-06-18T15:08:49Z</time>
      </trkpt>
      <trkpt lat="42.4932060" lon="-8.6485780">
        <ele>98.6</ele>
        <time>2022-06-18T15:08:50Z</time>
      </trkpt>
      <trkpt lat="42.4932400" lon="-8.6485780">
        <ele>99.2</ele>
        <time>2022-06-18T15:08:51Z</time>
      </trkpt>
      <trkpt lat="42.4932800" lon="-8.6485730">
        <ele>99.2</ele>
        <time>2022-06-18T15:08:52Z</time>
      </trkpt>
      <trkpt lat="42.4933160" lon="-8.6485680">
        <ele>99.2</ele>
        <time>2022-06-18T15:08:53Z</time>
      </trkpt>
      <trkpt lat="42.4933510" lon="-8.6485600">
        <ele>99.0</ele>
        <time>2022-06-18T15:08:54Z</time>
      </trkpt>
      <trkpt lat="42.4933760" lon="-8.6485560">
        <ele>99.0</ele>
        <time>2022-06-18T15:08:55Z</time>
      </trkpt>
      <trkpt lat="42.4933930" lon="-8.6485480">
        <ele>99.0</ele>
        <time>2022-06-18T15:08:56Z</time>
      </trkpt>
      <trkpt lat="42.4934280" lon="-8.6485380">
        <ele>99.0</ele>
        <time>2022-06-18T15:08:57Z</time>
      </trkpt>
      <trkpt lat="42.4934700" lon="-8.6485330">
        <ele>99.0</ele>
        <time>2022-06-18T15:08:58Z</time>
      </trkpt>
      <trkpt lat="42.4935060" lon="-8.6485280">
        <ele>99.4</ele>
        <time>2022-06-18T15:08:59Z</time>
      </trkpt>
      <trkpt lat="42.4935360" lon="-8.6485230">
        <ele>99.4</ele>
        <time>2022-06-18T15:09:00Z</time>
      </trkpt>
      <trkpt lat="42.4935760" lon="-8.6485250">
        <ele>99.4</ele>
        <time>2022-06-18T15:09:01Z</time>
      </trkpt>
      <trkpt lat="42.4936110" lon="-8.6485200">
        <ele>98.4</ele>
        <time>2022-06-18T15:09:02Z</time>
      </trkpt>
      <trkpt lat="42.4936460" lon="-8.6485230">
        <ele>97.6</ele>
        <time>2022-06-18T15:09:03Z</time>
      </trkpt>
      <trkpt lat="42.4936900" lon="-8.6485210">
        <ele>97.6</ele>
        <time>2022-06-18T15:09:04Z</time>
      </trkpt>
      <trkpt lat="42.4937330" lon="-8.6485200">
        <ele>97.6</ele>
        <time>2022-06-18T15:09:05Z</time>
      </trkpt>
      <trkpt lat="42.4937730" lon="-8.6485210">
        <ele>97.6</ele>
        <time>2022-06-18T15:09:06Z</time>
      </trkpt>
      <trkpt lat="42.4938180" lon="-8.6485150">
        <ele>97.6</ele>
        <time>2022-06-18T15:09:07Z</time>
      </trkpt>
      <trkpt lat="42.4938680" lon="-8.6485030">
        <ele>97.6</ele>
        <time>2022-06-18T15:09:08Z</time>
      </trkpt>
      <trkpt lat="42.4939130" lon="-8.6484860">
        <ele>97.6</ele>
        <time>2022-06-18T15:09:09Z</time>
      </trkpt>
      <trkpt lat="42.4939660" lon="-8.6484860">
        <ele>96.6</ele>
        <time>2022-06-18T15:09:10Z</time>
      </trkpt>
      <trkpt lat="42.4940110" lon="-8.6484850">
        <ele>96.2</ele>
        <time>2022-06-18T15:09:11Z</time>
      </trkpt>
      <trkpt lat="42.4940650" lon="-8.6484880">
        <ele>96.2</ele>
        <time>2022-06-18T15:09:12Z</time>
      </trkpt>
      <trkpt lat="42.4941280" lon="-8.6484880">
        <ele>96.2</ele>
        <time>2022-06-18T15:09:13Z</time>
      </trkpt>
      <trkpt lat="42.4941810" lon="-8.6485000">
        <ele>95.6</ele>
        <time>2022-06-18T15:09:14Z</time>
      </trkpt>
      <trkpt lat="42.4942410" lon="-8.6485060">
        <ele>94.4</ele>
        <time>2022-06-18T15:09:15Z</time>
      </trkpt>
      <trkpt lat="42.4943050" lon="-8.6485180">
        <ele>94.4</ele>
        <time>2022-06-18T15:09:16Z</time>
      </trkpt>
      <trkpt lat="42.4943650" lon="-8.6485380">
        <ele>94.4</ele>
        <time>2022-06-18T15:09:17Z</time>
      </trkpt>
      <trkpt lat="42.4944310" lon="-8.6485450">
        <ele>93.8</ele>
        <time>2022-06-18T15:09:18Z</time>
      </trkpt>
      <trkpt lat="42.4944950" lon="-8.6485550">
        <ele>94.0</ele>
        <time>2022-06-18T15:09:19Z</time>
      </trkpt>
      <trkpt lat="42.4945550" lon="-8.6485830">
        <ele>94.0</ele>
        <time>2022-06-18T15:09:20Z</time>
      </trkpt>
      <trkpt lat="42.4946060" lon="-8.6486130">
        <ele>94.0</ele>
        <time>2022-06-18T15:09:21Z</time>
      </trkpt>
      <trkpt lat="42.4946530" lon="-8.6486380">
        <ele>93.0</ele>
        <time>2022-06-18T15:09:22Z</time>
      </trkpt>
      <trkpt lat="42.4947050" lon="-8.6486610">
        <ele>92.6</ele>
        <time>2022-06-18T15:09:23Z</time>
      </trkpt>
      <trkpt lat="42.4947610" lon="-8.6486730">
        <ele>92.6</ele>
        <time>2022-06-18T15:09:24Z</time>
      </trkpt>
      <trkpt lat="42.4948110" lon="-8.6486730">
        <ele>92.6</ele>
        <time>2022-06-18T15:09:25Z</time>
      </trkpt>
      <trkpt lat="42.4948710" lon="-8.6486780">
        <ele>92.6</ele>
        <time>2022-06-18T15:09:26Z</time>
      </trkpt>
      <trkpt lat="42.4949430" lon="-8.6486830">
        <ele>92.2</ele>
        <time>2022-06-18T15:09:27Z</time>
      </trkpt>
      <trkpt lat="42.4950080" lon="-8.6486830">
        <ele>92.2</ele>
        <time>2022-06-18T15:09:28Z</time>
      </trkpt>
      <trkpt lat="42.4950610" lon="-8.6486980">
        <ele>92.2</ele>
        <time>2022-06-18T15:09:29Z</time>
      </trkpt>
      <trkpt lat="42.4950980" lon="-8.6487150">
        <ele>92.2</ele>
        <time>2022-06-18T15:09:30Z</time>
      </trkpt>
      <trkpt lat="42.4951480" lon="-8.6487210">
        <ele>92.2</ele>
        <time>2022-06-18T15:09:31Z</time>
      </trkpt>
      <trkpt lat="42.4952080" lon="-8.6487300">
        <ele>92.2</ele>
        <time>2022-06-18T15:09:32Z</time>
      </trkpt>
      <trkpt lat="42.4952700" lon="-8.6487450">
        <ele>92.2</ele>
        <time>2022-06-18T15:09:33Z</time>
      </trkpt>
      <trkpt lat="42.4953210" lon="-8.6487610">
        <ele>92.2</ele>
        <time>2022-06-18T15:09:34Z</time>
      </trkpt>
      <trkpt lat="42.4953730" lon="-8.6487810">
        <ele>92.0</ele>
        <time>2022-06-18T15:09:35Z</time>
      </trkpt>
      <trkpt lat="42.4954130" lon="-8.6488060">
        <ele>92.0</ele>
        <time>2022-06-18T15:09:36Z</time>
      </trkpt>
      <trkpt lat="42.4954580" lon="-8.6488250">
        <ele>92.0</ele>
        <time>2022-06-18T15:09:37Z</time>
      </trkpt>
      <trkpt lat="42.4955080" lon="-8.6488280">
        <ele>92.0</ele>
        <time>2022-06-18T15:09:38Z</time>
      </trkpt>
      <trkpt lat="42.4955700" lon="-8.6488300">
        <ele>92.8</ele>
        <time>2022-06-18T15:09:39Z</time>
      </trkpt>
      <trkpt lat="42.4956000" lon="-8.6488410">
        <ele>92.8</ele>
        <time>2022-06-18T15:09:40Z</time>
      </trkpt>
      <trkpt lat="42.4956180" lon="-8.6488460">
        <ele>92.8</ele>
        <time>2022-06-18T15:09:41Z</time>
      </trkpt>
      <trkpt lat="42.4956410" lon="-8.6488580">
        <ele>92.8</ele>
        <time>2022-06-18T15:09:42Z</time>
      </trkpt>
      <trkpt lat="42.4956710" lon="-8.6488680">
        <ele>92.6</ele>
        <time>2022-06-18T15:09:43Z</time>
      </trkpt>
      <trkpt lat="42.4957000" lon="-8.6488810">
        <ele>92.6</ele>
        <time>2022-06-18T15:09:44Z</time>
      </trkpt>
      <trkpt lat="42.4957200" lon="-8.6488930">
        <ele>92.6</ele>
        <time>2022-06-18T15:09:45Z</time>
      </trkpt>
      <trkpt lat="42.4957510" lon="-8.6489030">
        <ele>92.6</ele>
        <time>2022-06-18T15:09:46Z</time>
      </trkpt>
      <trkpt lat="42.4957760" lon="-8.6489110">
        <ele>92.4</ele>
        <time>2022-06-18T15:09:47Z</time>
      </trkpt>
      <trkpt lat="42.4957950" lon="-8.6489200">
        <ele>92.4</ele>
        <time>2022-06-18T15:09:48Z</time>
      </trkpt>
      <trkpt lat="42.4958130" lon="-8.6489280">
        <ele>92.4</ele>
        <time>2022-06-18T15:09:49Z</time>
      </trkpt>
      <trkpt lat="42.4958410" lon="-8.6489360">
        <ele>92.8</ele>
        <time>2022-06-18T15:09:50Z</time>
      </trkpt>
      <trkpt lat="42.4958600" lon="-8.6489350">
        <ele>92.8</ele>
        <time>2022-06-18T15:09:51Z</time>
      </trkpt>
      <trkpt lat="42.4958800" lon="-8.6489330">
        <ele>92.8</ele>
        <time>2022-06-18T15:09:52Z</time>
      </trkpt>
      <trkpt lat="42.4959030" lon="-8.6489460">
        <ele>92.8</ele>
        <time>2022-06-18T15:09:53Z</time>
      </trkpt>
      <trkpt lat="42.4959250" lon="-8.6489580">
        <ele>93.4</ele>
        <time>2022-06-18T15:09:54Z</time>
      </trkpt>
      <trkpt lat="42.4959450" lon="-8.6489680">
        <ele>93.6</ele>
        <time>2022-06-18T15:09:55Z</time>
      </trkpt>
      <trkpt lat="42.4959600" lon="-8.6489760">
        <ele>93.6</ele>
        <time>2022-06-18T15:09:56Z</time>
      </trkpt>
      <trkpt lat="42.4959800" lon="-8.6489810">
        <ele>93.6</ele>
        <time>2022-06-18T15:09:57Z</time>
      </trkpt>
      <trkpt lat="42.4960110" lon="-8.6489880">
        <ele>93.6</ele>
        <time>2022-06-18T15:09:58Z</time>
      </trkpt>
      <trkpt lat="42.4960380" lon="-8.6490000">
        <ele>94.2</ele>
        <time>2022-06-18T15:09:59Z</time>
      </trkpt>
      <trkpt lat="42.4960680" lon="-8.6490050">
        <ele>94.2</ele>
        <time>2022-06-18T15:10:00Z</time>
      </trkpt>
      <trkpt lat="42.4960980" lon="-8.6490010">
        <ele>94.2</ele>
        <time>2022-06-18T15:10:01Z</time>
      </trkpt>
      <trkpt lat="42.4961210" lon="-8.6490000">
        <ele>94.2</ele>
        <time>2022-06-18T15:10:02Z</time>
      </trkpt>
      <trkpt lat="42.4961550" lon="-8.6490010">
        <ele>94.8</ele>
        <time>2022-06-18T15:10:03Z</time>
      </trkpt>
      <trkpt lat="42.4961780" lon="-8.6490080">
        <ele>94.8</ele>
        <time>2022-06-18T15:10:04Z</time>
      </trkpt>
      <trkpt lat="42.4962100" lon="-8.6490100">
        <ele>94.8</ele>
        <time>2022-06-18T15:10:05Z</time>
      </trkpt>
      <trkpt lat="42.4962410" lon="-8.6490200">
        <ele>94.8</ele>
        <time>2022-06-18T15:10:06Z</time>
      </trkpt>
      <trkpt lat="42.4962700" lon="-8.6490260">
        <ele>95.8</ele>
        <time>2022-06-18T15:10:07Z</time>
      </trkpt>
      <trkpt lat="42.4962880" lon="-8.6490350">
        <ele>95.8</ele>
        <time>2022-06-18T15:10:08Z</time>
      </trkpt>
      <trkpt lat="42.4963080" lon="-8.6490460">
        <ele>95.8</ele>
        <time>2022-06-18T15:10:09Z</time>
      </trkpt>
      <trkpt lat="42.4963250" lon="-8.6490600">
        <ele>95.6</ele>
        <time>2022-06-18T15:10:10Z</time>
      </trkpt>
      <trkpt lat="42.4963410" lon="-8.6490750">
        <ele>95.4</ele>
        <time>2022-06-18T15:10:11Z</time>
      </trkpt>
      <trkpt lat="42.4963650" lon="-8.6490860">
        <ele>95.4</ele>
        <time>2022-06-18T15:10:12Z</time>
      </trkpt>
      <trkpt lat="42.4963800" lon="-8.6490950">
        <ele>95.4</ele>
        <time>2022-06-18T15:10:13Z</time>
      </trkpt>
      <trkpt lat="42.4963960" lon="-8.6491050">
        <ele>96.4</ele>
        <time>2022-06-18T15:10:14Z</time>
      </trkpt>
      <trkpt lat="42.4964130" lon="-8.6491150">
        <ele>96.4</ele>
        <time>2022-06-18T15:10:15Z</time>
      </trkpt>
      <trkpt lat="42.4964250" lon="-8.6491300">
        <ele>96.4</ele>
        <time>2022-06-18T15:10:16Z</time>
      </trkpt>
      <trkpt lat="42.4964430" lon="-8.6491360">
        <ele>96.4</ele>
        <time>2022-06-18T15:10:17Z</time>
      </trkpt>
      <trkpt lat="42.4964550" lon="-8.6491430">
        <ele>97.0</ele>
        <time>2022-06-18T15:10:18Z</time>
      </trkpt>
      <trkpt lat="42.4964700" lon="-8.6491480">
        <ele>97.0</ele>
        <time>2022-06-18T15:10:19Z</time>
      </trkpt>
      <trkpt lat="42.4964850" lon="-8.6491480">
        <ele>97.0</ele>
        <time>2022-06-18T15:10:20Z</time>
      </trkpt>
      <trkpt lat="42.4965080" lon="-8.6491510">
        <ele>97.0</ele>
        <time>2022-06-18T15:10:21Z</time>
      </trkpt>
      <trkpt lat="42.4965330" lon="-8.6491580">
        <ele>97.0</ele>
        <time>2022-06-18T15:10:22Z</time>
      </trkpt>
      <trkpt lat="42.4965650" lon="-8.6491600">
        <ele>98.4</ele>
        <time>2022-06-18T15:10:23Z</time>
      </trkpt>
      <trkpt lat="42.4965860" lon="-8.6491660">
        <ele>98.4</ele>
        <time>2022-06-18T15:10:24Z</time>
      </trkpt>
      <trkpt lat="42.4966130" lon="-8.6491710">
        <ele>98.4</ele>
        <time>2022-06-18T15:10:25Z</time>
      </trkpt>
      <trkpt lat="42.4966350" lon="-8.6491780">
        <ele>98.4</ele>
        <time>2022-06-18T15:10:26Z</time>
      </trkpt>
      <trkpt lat="42.4966560" lon="-8.6491800">
        <ele>99.6</ele>
        <time>2022-06-18T15:10:27Z</time>
      </trkpt>
      <trkpt lat="42.4966710" lon="-8.6491830">
        <ele>99.6</ele>
        <time>2022-06-18T15:10:28Z</time>
      </trkpt>
      <trkpt lat="42.4966860" lon="-8.6491850">
        <ele>99.6</ele>
        <time>2022-06-18T15:10:29Z</time>
      </trkpt>
      <trkpt lat="42.4967030" lon="-8.6491800">
        <ele>99.6</ele>
        <time>2022-06-18T15:10:30Z</time>
      </trkpt>
      <trkpt lat="42.4967210" lon="-8.6491780">
        <ele>99.6</ele>
        <time>2022-06-18T15:10:31Z</time>
      </trkpt>
      <trkpt lat="42.4967430" lon="-8.6491700">
        <ele>99.6</ele>
        <time>2022-06-18T15:10:32Z</time>
      </trkpt>
      <trkpt lat="42.4967610" lon="-8.6491650">
        <ele>99.6</ele>
        <time>2022-06-18T15:10:33Z</time>
      </trkpt>
      <trkpt lat="42.4967780" lon="-8.6491600">
        <ele>100.6</ele>
        <time>2022-06-18T15:10:34Z</time>
      </trkpt>
      <trkpt lat="42.4967930" lon="-8.6491560">
        <ele>100.6</ele>
        <time>2022-06-18T15:10:35Z</time>
      </trkpt>
      <trkpt lat="42.4968100" lon="-8.6491560">
        <ele>100.6</ele>
        <time>2022-06-18T15:10:36Z</time>
      </trkpt>
      <trkpt lat="42.4968300" lon="-8.6491510">
        <ele>100.6</ele>
        <time>2022-06-18T15:10:37Z</time>
      </trkpt>
      <trkpt lat="42.4968400" lon="-8.6491530">
        <ele>100.6</ele>
        <time>2022-06-18T15:10:38Z</time>
      </trkpt>
      <trkpt lat="42.4968510" lon="-8.6491450">
        <ele>101.4</ele>
        <time>2022-06-18T15:10:39Z</time>
      </trkpt>
      <trkpt lat="42.4968610" lon="-8.6491380">
        <ele>101.4</ele>
        <time>2022-06-18T15:10:40Z</time>
      </trkpt>
      <trkpt lat="42.4968760" lon="-8.6491310">
        <ele>101.4</ele>
        <time>2022-06-18T15:10:41Z</time>
      </trkpt>
      <trkpt lat="42.4968910" lon="-8.6491210">
        <ele>101.6</ele>
        <time>2022-06-18T15:10:42Z</time>
      </trkpt>
      <trkpt lat="42.4969060" lon="-8.6491150">
        <ele>102.2</ele>
        <time>2022-06-18T15:10:43Z</time>
      </trkpt>
      <trkpt lat="42.4969280" lon="-8.6491060">
        <ele>102.2</ele>
        <time>2022-06-18T15:10:44Z</time>
      </trkpt>
      <trkpt lat="42.4969480" lon="-8.6490950">
        <ele>102.2</ele>
        <time>2022-06-18T15:10:45Z</time>
      </trkpt>
      <trkpt lat="42.4969680" lon="-8.6490830">
        <ele>102.6</ele>
        <time>2022-06-18T15:10:46Z</time>
      </trkpt>
      <trkpt lat="42.4969860" lon="-8.6490780">
        <ele>102.6</ele>
        <time>2022-06-18T15:10:47Z</time>
      </trkpt>
      <trkpt lat="42.4970010" lon="-8.6490760">
        <ele>102.6</ele>
        <time>2022-06-18T15:10:48Z</time>
      </trkpt>
      <trkpt lat="42.4970160" lon="-8.6490760">
        <ele>102.6</ele>
        <time>2022-06-18T15:10:49Z</time>
      </trkpt>
      <trkpt lat="42.4970310" lon="-8.6490750">
        <ele>103.0</ele>
        <time>2022-06-18T15:10:50Z</time>
      </trkpt>
      <trkpt lat="42.4970500" lon="-8.6490710">
        <ele>102.8</ele>
        <time>2022-06-18T15:10:51Z</time>
      </trkpt>
      <trkpt lat="42.4970650" lon="-8.6490630">
        <ele>102.8</ele>
        <time>2022-06-18T15:10:52Z</time>
      </trkpt>
      <trkpt lat="42.4970750" lon="-8.6490560">
        <ele>102.8</ele>
        <time>2022-06-18T15:10:53Z</time>
      </trkpt>
      <trkpt lat="42.4970880" lon="-8.6490550">
        <ele>103.6</ele>
        <time>2022-06-18T15:10:54Z</time>
      </trkpt>
      <trkpt lat="42.4971030" lon="-8.6490560">
        <ele>103.4</ele>
        <time>2022-06-18T15:10:55Z</time>
      </trkpt>
      <trkpt lat="42.4971200" lon="-8.6490560">
        <ele>103.4</ele>
        <time>2022-06-18T15:10:56Z</time>
      </trkpt>
      <trkpt lat="42.4971380" lon="-8.6490460">
        <ele>103.4</ele>
        <time>2022-06-18T15:10:57Z</time>
      </trkpt>
      <trkpt lat="42.4971500" lon="-8.6490350">
        <ele>103.6</ele>
        <time>2022-06-18T15:10:58Z</time>
      </trkpt>
      <trkpt lat="42.4971660" lon="-8.6490250">
        <ele>104.2</ele>
        <time>2022-06-18T15:10:59Z</time>
      </trkpt>
      <trkpt lat="42.4971800" lon="-8.6490260">
        <ele>104.2</ele>
        <time>2022-06-18T15:11:00Z</time>
      </trkpt>
      <trkpt lat="42.4971910" lon="-8.6490200">
        <ele>104.2</ele>
        <time>2022-06-18T15:11:01Z</time>
      </trkpt>
      <trkpt lat="42.4972130" lon="-8.6490160">
        <ele>104.2</ele>
        <time>2022-06-18T15:11:02Z</time>
      </trkpt>
      <trkpt lat="42.4972300" lon="-8.6490060">
        <ele>104.0</ele>
        <time>2022-06-18T15:11:03Z</time>
      </trkpt>
      <trkpt lat="42.4972500" lon="-8.6489980">
        <ele>104.0</ele>
        <time>2022-06-18T15:11:04Z</time>
      </trkpt>
      <trkpt lat="42.4972710" lon="-8.6489950">
        <ele>104.0</ele>
        <time>2022-06-18T15:11:05Z</time>
      </trkpt>
      <trkpt lat="42.4972950" lon="-8.6489950">
        <ele>104.0</ele>
        <time>2022-06-18T15:11:06Z</time>
      </trkpt>
      <trkpt lat="42.4973160" lon="-8.6489910">
        <ele>104.4</ele>
        <time>2022-06-18T15:11:07Z</time>
      </trkpt>
      <trkpt lat="42.4973430" lon="-8.6489910">
        <ele>104.4</ele>
        <time>2022-06-18T15:11:08Z</time>
      </trkpt>
      <trkpt lat="42.4973660" lon="-8.6489860">
        <ele>104.4</ele>
        <time>2022-06-18T15:11:09Z</time>
      </trkpt>
      <trkpt lat="42.4973900" lon="-8.6489780">
        <ele>104.4</ele>
        <time>2022-06-18T15:11:10Z</time>
      </trkpt>
      <trkpt lat="42.4974100" lon="-8.6489710">
        <ele>104.8</ele>
        <time>2022-06-18T15:11:11Z</time>
      </trkpt>
      <trkpt lat="42.4974310" lon="-8.6489650">
        <ele>104.8</ele>
        <time>2022-06-18T15:11:12Z</time>
      </trkpt>
      <trkpt lat="42.4974510" lon="-8.6489610">
        <ele>104.8</ele>
        <time>2022-06-18T15:11:13Z</time>
      </trkpt>
      <trkpt lat="42.4974680" lon="-8.6489610">
        <ele>105.6</ele>
        <time>2022-06-18T15:11:14Z</time>
      </trkpt>
      <trkpt lat="42.4974860" lon="-8.6489610">
        <ele>105.6</ele>
        <time>2022-06-18T15:11:15Z</time>
      </trkpt>
      <trkpt lat="42.4975010" lon="-8.6489650">
        <ele>105.6</ele>
        <time>2022-06-18T15:11:16Z</time>
      </trkpt>
      <trkpt lat="42.4975180" lon="-8.6489730">
        <ele>105.6</ele>
        <time>2022-06-18T15:11:17Z</time>
      </trkpt>
      <trkpt lat="42.4975330" lon="-8.6489810">
        <ele>105.6</ele>
        <time>2022-06-18T15:11:18Z</time>
      </trkpt>
      <trkpt lat="42.4975460" lon="-8.6489880">
        <ele>106.4</ele>
        <time>2022-06-18T15:11:19Z</time>
      </trkpt>
      <trkpt lat="42.4975580" lon="-8.6489950">
        <ele>106.4</ele>
        <time>2022-06-18T15:11:20Z</time>
      </trkpt>
      <trkpt lat="42.4975710" lon="-8.6490010">
        <ele>106.4</ele>
        <time>2022-06-18T15:11:21Z</time>
      </trkpt>
      <trkpt lat="42.4975810" lon="-8.6490060">
        <ele>106.4</ele>
        <time>2022-06-18T15:11:22Z</time>
      </trkpt>
      <trkpt lat="42.4975900" lon="-8.6490100">
        <ele>107.2</ele>
        <time>2022-06-18T15:11:23Z</time>
      </trkpt>
      <trkpt lat="42.4976000" lon="-8.6490180">
        <ele>107.2</ele>
        <time>2022-06-18T15:11:24Z</time>
      </trkpt>
      <trkpt lat="42.4976150" lon="-8.6490250">
        <ele>107.2</ele>
        <time>2022-06-18T15:11:25Z</time>
      </trkpt>
      <trkpt lat="42.4976250" lon="-8.6490360">
        <ele>107.2</ele>
        <time>2022-06-18T15:11:26Z</time>
      </trkpt>
      <trkpt lat="42.4976350" lon="-8.6490410">
        <ele>108.0</ele>
        <time>2022-06-18T15:11:27Z</time>
      </trkpt>
      <trkpt lat="42.4976450" lon="-8.6490480">
        <ele>108.0</ele>
        <time>2022-06-18T15:11:28Z</time>
      </trkpt>
      <trkpt lat="42.4976560" lon="-8.6490530">
        <ele>108.0</ele>
        <time>2022-06-18T15:11:29Z</time>
      </trkpt>
      <trkpt lat="42.4976700" lon="-8.6490610">
        <ele>108.6</ele>
        <time>2022-06-18T15:11:30Z</time>
      </trkpt>
      <trkpt lat="42.4976800" lon="-8.6490660">
        <ele>109.2</ele>
        <time>2022-06-18T15:11:31Z</time>
      </trkpt>
      <trkpt lat="42.4976900" lon="-8.6490730">
        <ele>109.2</ele>
        <time>2022-06-18T15:11:32Z</time>
      </trkpt>
      <trkpt lat="42.4977010" lon="-8.6490800">
        <ele>109.2</ele>
        <time>2022-06-18T15:11:33Z</time>
      </trkpt>
      <trkpt lat="42.4977110" lon="-8.6490860">
        <ele>109.2</ele>
        <time>2022-06-18T15:11:34Z</time>
      </trkpt>
      <trkpt lat="42.4977210" lon="-8.6490930">
        <ele>109.6</ele>
        <time>2022-06-18T15:11:35Z</time>
      </trkpt>
      <trkpt lat="42.4977300" lon="-8.6491030">
        <ele>109.6</ele>
        <time>2022-06-18T15:11:36Z</time>
      </trkpt>
      <trkpt lat="42.4977400" lon="-8.6491080">
        <ele>109.6</ele>
        <time>2022-06-18T15:11:37Z</time>
      </trkpt>
      <trkpt lat="42.4977460" lon="-8.6491150">
        <ele>110.2</ele>
        <time>2022-06-18T15:11:38Z</time>
      </trkpt>
      <trkpt lat="42.4977560" lon="-8.6491250">
        <ele>110.6</ele>
        <time>2022-06-18T15:11:39Z</time>
      </trkpt>
      <trkpt lat="42.4977660" lon="-8.6491350">
        <ele>110.6</ele>
        <time>2022-06-18T15:11:40Z</time>
      </trkpt>
      <trkpt lat="42.4977860" lon="-8.6491400">
        <ele>110.6</ele>
        <time>2022-06-18T15:11:41Z</time>
      </trkpt>
      <trkpt lat="42.4978030" lon="-8.6491430">
        <ele>110.6</ele>
        <time>2022-06-18T15:11:42Z</time>
      </trkpt>
      <trkpt lat="42.4978230" lon="-8.6491500">
        <ele>111.0</ele>
        <time>2022-06-18T15:11:43Z</time>
      </trkpt>
      <trkpt lat="42.4978350" lon="-8.6491530">
        <ele>111.0</ele>
        <time>2022-06-18T15:11:44Z</time>
      </trkpt>
      <trkpt lat="42.4978460" lon="-8.6491550">
        <ele>111.0</ele>
        <time>2022-06-18T15:11:45Z</time>
      </trkpt>
      <trkpt lat="42.4978600" lon="-8.6491600">
        <ele>111.4</ele>
        <time>2022-06-18T15:11:46Z</time>
      </trkpt>
      <trkpt lat="42.4978710" lon="-8.6491660">
        <ele>111.6</ele>
        <time>2022-06-18T15:11:47Z</time>
      </trkpt>
      <trkpt lat="42.4978860" lon="-8.6491710">
        <ele>111.6</ele>
        <time>2022-06-18T15:11:48Z</time>
      </trkpt>
      <trkpt lat="42.4978980" lon="-8.6491760">
        <ele>111.6</ele>
        <time>2022-06-18T15:11:49Z</time>
      </trkpt>
      <trkpt lat="42.4979050" lon="-8.6491810">
        <ele>111.6</ele>
        <time>2022-06-18T15:11:50Z</time>
      </trkpt>
      <trkpt lat="42.4979110" lon="-8.6491830">
        <ele>111.8</ele>
        <time>2022-06-18T15:11:51Z</time>
      </trkpt>
      <trkpt lat="42.4979260" lon="-8.6491860">
        <ele>111.8</ele>
        <time>2022-06-18T15:11:52Z</time>
      </trkpt>
      <trkpt lat="42.4979350" lon="-8.6491850">
        <ele>111.8</ele>
        <time>2022-06-18T15:11:53Z</time>
      </trkpt>
      <trkpt lat="42.4979460" lon="-8.6491830">
        <ele>112.6</ele>
        <time>2022-06-18T15:11:54Z</time>
      </trkpt>
      <trkpt lat="42.4979580" lon="-8.6491810">
        <ele>112.6</ele>
        <time>2022-06-18T15:11:55Z</time>
      </trkpt>
      <trkpt lat="42.4979660" lon="-8.6491830">
        <ele>112.6</ele>
        <time>2022-06-18T15:11:56Z</time>
      </trkpt>
      <trkpt lat="42.4979800" lon="-8.6491850">
        <ele>112.6</ele>
        <time>2022-06-18T15:11:57Z</time>
      </trkpt>
      <trkpt lat="42.4979980" lon="-8.6491850">
        <ele>112.6</ele>
        <time>2022-06-18T15:11:58Z</time>
      </trkpt>
      <trkpt lat="42.4980150" lon="-8.6491860">
        <ele>113.2</ele>
        <time>2022-06-18T15:11:59Z</time>
      </trkpt>
      <trkpt lat="42.4980300" lon="-8.6491880">
        <ele>113.2</ele>
        <time>2022-06-18T15:12:00Z</time>
      </trkpt>
      <trkpt lat="42.4980400" lon="-8.6491950">
        <ele>113.2</ele>
        <time>2022-06-18T15:12:01Z</time>
      </trkpt>
      <trkpt lat="42.4980500" lon="-8.6492030">
        <ele>113.8</ele>
        <time>2022-06-18T15:12:02Z</time>
      </trkpt>
      <trkpt lat="42.4980660" lon="-8.6492080">
        <ele>113.8</ele>
        <time>2022-06-18T15:12:03Z</time>
      </trkpt>
      <trkpt lat="42.4980800" lon="-8.6492100">
        <ele>113.8</ele>
        <time>2022-06-18T15:12:04Z</time>
      </trkpt>
      <trkpt lat="42.4980930" lon="-8.6492060">
        <ele>113.8</ele>
        <time>2022-06-18T15:12:05Z</time>
      </trkpt>
      <trkpt lat="42.4981050" lon="-8.6492050">
        <ele>114.6</ele>
        <time>2022-06-18T15:12:06Z</time>
      </trkpt>
      <trkpt lat="42.4981200" lon="-8.6492080">
        <ele>114.2</ele>
        <time>2022-06-18T15:12:07Z</time>
      </trkpt>
      <trkpt lat="42.4981360" lon="-8.6492060">
        <ele>114.2</ele>
        <time>2022-06-18T15:12:08Z</time>
      </trkpt>
      <trkpt lat="42.4981600" lon="-8.6492080">
        <ele>114.2</ele>
        <time>2022-06-18T15:12:09Z</time>
      </trkpt>
      <trkpt lat="42.4981730" lon="-8.6492100">
        <ele>115.0</ele>
        <time>2022-06-18T15:12:10Z</time>
      </trkpt>
      <trkpt lat="42.4981900" lon="-8.6492110">
        <ele>115.2</ele>
        <time>2022-06-18T15:12:11Z</time>
      </trkpt>
      <trkpt lat="42.4982050" lon="-8.6492130">
        <ele>115.2</ele>
        <time>2022-06-18T15:12:12Z</time>
      </trkpt>
      <trkpt lat="42.4982250" lon="-8.6492110">
        <ele>115.2</ele>
        <time>2022-06-18T15:12:13Z</time>
      </trkpt>
      <trkpt lat="42.4982410" lon="-8.6492150">
        <ele>115.2</ele>
        <time>2022-06-18T15:12:14Z</time>
      </trkpt>
      <trkpt lat="42.4982580" lon="-8.6492130">
        <ele>115.6</ele>
        <time>2022-06-18T15:12:15Z</time>
      </trkpt>
      <trkpt lat="42.4982760" lon="-8.6492100">
        <ele>115.6</ele>
        <time>2022-06-18T15:12:16Z</time>
      </trkpt>
      <trkpt lat="42.4982900" lon="-8.6492110">
        <ele>115.6</ele>
        <time>2022-06-18T15:12:17Z</time>
      </trkpt>
      <trkpt lat="42.4983030" lon="-8.6492100">
        <ele>116.2</ele>
        <time>2022-06-18T15:12:18Z</time>
      </trkpt>
      <trkpt lat="42.4983180" lon="-8.6492110">
        <ele>116.2</ele>
        <time>2022-06-18T15:12:19Z</time>
      </trkpt>
      <trkpt lat="42.4983280" lon="-8.6492130">
        <ele>116.2</ele>
        <time>2022-06-18T15:12:20Z</time>
      </trkpt>
      <trkpt lat="42.4983400" lon="-8.6492130">
        <ele>116.2</ele>
        <time>2022-06-18T15:12:21Z</time>
      </trkpt>
      <trkpt lat="42.4983550" lon="-8.6492130">
        <ele>116.8</ele>
        <time>2022-06-18T15:12:22Z</time>
      </trkpt>
      <trkpt lat="42.4983700" lon="-8.6492150">
        <ele>117.2</ele>
        <time>2022-06-18T15:12:23Z</time>
      </trkpt>
      <trkpt lat="42.4983810" lon="-8.6492200">
        <ele>117.2</ele>
        <time>2022-06-18T15:12:24Z</time>
      </trkpt>
      <trkpt lat="42.4983910" lon="-8.6492180">
        <ele>117.2</ele>
        <time>2022-06-18T15:12:25Z</time>
      </trkpt>
      <trkpt lat="42.4984030" lon="-8.6492200">
        <ele>117.2</ele>
        <time>2022-06-18T15:12:26Z</time>
      </trkpt>
      <trkpt lat="42.4984200" lon="-8.6492160">
        <ele>117.6</ele>
        <time>2022-06-18T15:12:27Z</time>
      </trkpt>
      <trkpt lat="42.4984330" lon="-8.6492160">
        <ele>117.6</ele>
        <time>2022-06-18T15:12:28Z</time>
      </trkpt>
      <trkpt lat="42.4984480" lon="-8.6492160">
        <ele>117.6</ele>
        <time>2022-06-18T15:12:29Z</time>
      </trkpt>
      <trkpt lat="42.4984650" lon="-8.6492210">
        <ele>117.6</ele>
        <time>2022-06-18T15:12:30Z</time>
      </trkpt>
      <trkpt lat="42.4984810" lon="-8.6492260">
        <ele>118.2</ele>
        <time>2022-06-18T15:12:31Z</time>
      </trkpt>
      <trkpt lat="42.4985000" lon="-8.6492300">
        <ele>118.2</ele>
        <time>2022-06-18T15:12:32Z</time>
      </trkpt>
      <trkpt lat="42.4985230" lon="-8.6492280">
        <ele>118.2</ele>
        <time>2022-06-18T15:12:33Z</time>
      </trkpt>
      <trkpt lat="42.4985430" lon="-8.6492300">
        <ele>118.2</ele>
        <time>2022-06-18T15:12:34Z</time>
      </trkpt>
      <trkpt lat="42.4985610" lon="-8.6492310">
        <ele>118.4</ele>
        <time>2022-06-18T15:12:35Z</time>
      </trkpt>
      <trkpt lat="42.4985800" lon="-8.6492430">
        <ele>118.4</ele>
        <time>2022-06-18T15:12:36Z</time>
      </trkpt>
      <trkpt lat="42.4986060" lon="-8.6492510">
        <ele>118.4</ele>
        <time>2022-06-18T15:12:37Z</time>
      </trkpt>
      <trkpt lat="42.4986410" lon="-8.6492580">
        <ele>117.8</ele>
        <time>2022-06-18T15:12:38Z</time>
      </trkpt>
      <trkpt lat="42.4986730" lon="-8.6492650">
        <ele>117.2</ele>
        <time>2022-06-18T15:12:39Z</time>
      </trkpt>
      <trkpt lat="42.4987000" lon="-8.6492710">
        <ele>117.2</ele>
        <time>2022-06-18T15:12:40Z</time>
      </trkpt>
      <trkpt lat="42.4987230" lon="-8.6492860">
        <ele>117.2</ele>
        <time>2022-06-18T15:12:41Z</time>
      </trkpt>
      <trkpt lat="42.4987480" lon="-8.6492980">
        <ele>117.2</ele>
        <time>2022-06-18T15:12:42Z</time>
      </trkpt>
      <trkpt lat="42.4987780" lon="-8.6493110">
        <ele>117.6</ele>
        <time>2022-06-18T15:12:43Z</time>
      </trkpt>
      <trkpt lat="42.4988080" lon="-8.6493200">
        <ele>117.6</ele>
        <time>2022-06-18T15:12:44Z</time>
      </trkpt>
      <trkpt lat="42.4988360" lon="-8.6493330">
        <ele>117.6</ele>
        <time>2022-06-18T15:12:45Z</time>
      </trkpt>
      <trkpt lat="42.4988630" lon="-8.6493460">
        <ele>117.6</ele>
        <time>2022-06-18T15:12:46Z</time>
      </trkpt>
      <trkpt lat="42.4988860" lon="-8.6493580">
        <ele>117.8</ele>
        <time>2022-06-18T15:12:47Z</time>
      </trkpt>
      <trkpt lat="42.4989060" lon="-8.6493700">
        <ele>117.8</ele>
        <time>2022-06-18T15:12:48Z</time>
      </trkpt>
      <trkpt lat="42.4989260" lon="-8.6493830">
        <ele>117.8</ele>
        <time>2022-06-18T15:12:49Z</time>
      </trkpt>
      <trkpt lat="42.4989460" lon="-8.6493980">
        <ele>118.8</ele>
        <time>2022-06-18T15:12:50Z</time>
      </trkpt>
      <trkpt lat="42.4989680" lon="-8.6494150">
        <ele>118.4</ele>
        <time>2022-06-18T15:12:51Z</time>
      </trkpt>
      <trkpt lat="42.4989930" lon="-8.6494280">
        <ele>118.4</ele>
        <time>2022-06-18T15:12:52Z</time>
      </trkpt>
      <trkpt lat="42.4990200" lon="-8.6494450">
        <ele>118.4</ele>
        <time>2022-06-18T15:12:53Z</time>
      </trkpt>
      <trkpt lat="42.4990510" lon="-8.6494580">
        <ele>118.0</ele>
        <time>2022-06-18T15:12:54Z</time>
      </trkpt>
      <trkpt lat="42.4990830" lon="-8.6494700">
        <ele>119.4</ele>
        <time>2022-06-18T15:12:55Z</time>
      </trkpt>
      <trkpt lat="42.4991060" lon="-8.6494810">
        <ele>119.4</ele>
        <time>2022-06-18T15:12:56Z</time>
      </trkpt>
      <trkpt lat="42.4991310" lon="-8.6494900">
        <ele>119.4</ele>
        <time>2022-06-18T15:12:57Z</time>
      </trkpt>
      <trkpt lat="42.4991600" lon="-8.6495010">
        <ele>119.2</ele>
        <time>2022-06-18T15:12:58Z</time>
      </trkpt>
      <trkpt lat="42.4991860" lon="-8.6495180">
        <ele>118.4</ele>
        <time>2022-06-18T15:12:59Z</time>
      </trkpt>
      <trkpt lat="42.4992150" lon="-8.6495310">
        <ele>118.4</ele>
        <time>2022-06-18T15:13:00Z</time>
      </trkpt>
      <trkpt lat="42.4992410" lon="-8.6495410">
        <ele>118.4</ele>
        <time>2022-06-18T15:13:01Z</time>
      </trkpt>
      <trkpt lat="42.4992700" lon="-8.6495500">
        <ele>119.4</ele>
        <time>2022-06-18T15:13:02Z</time>
      </trkpt>
      <trkpt lat="42.4992980" lon="-8.6495600">
        <ele>119.6</ele>
        <time>2022-06-18T15:13:03Z</time>
      </trkpt>
      <trkpt lat="42.4993180" lon="-8.6495700">
        <ele>119.6</ele>
        <time>2022-06-18T15:13:04Z</time>
      </trkpt>
      <trkpt lat="42.4993480" lon="-8.6495800">
        <ele>119.6</ele>
        <time>2022-06-18T15:13:05Z</time>
      </trkpt>
      <trkpt lat="42.4993750" lon="-8.6495880">
        <ele>119.4</ele>
        <time>2022-06-18T15:13:06Z</time>
      </trkpt>
      <trkpt lat="42.4993950" lon="-8.6496060">
        <ele>119.6</ele>
        <time>2022-06-18T15:13:07Z</time>
      </trkpt>
      <trkpt lat="42.4994210" lon="-8.6496160">
        <ele>119.6</ele>
        <time>2022-06-18T15:13:08Z</time>
      </trkpt>
      <trkpt lat="42.4994430" lon="-8.6496210">
        <ele>119.6</ele>
        <time>2022-06-18T15:13:09Z</time>
      </trkpt>
      <trkpt lat="42.4994580" lon="-8.6496200">
        <ele>119.6</ele>
        <time>2022-06-18T15:13:10Z</time>
      </trkpt>
      <trkpt lat="42.4994730" lon="-8.6496100">
        <ele>119.6</ele>
        <time>2022-06-18T15:13:11Z</time>
      </trkpt>
      <trkpt lat="42.4994900" lon="-8.6495960">
        <ele>119.6</ele>
        <time>2022-06-18T15:13:12Z</time>
      </trkpt>
      <trkpt lat="42.4995050" lon="-8.6495850">
        <ele>119.6</ele>
        <time>2022-06-18T15:13:13Z</time>
      </trkpt>
      <trkpt lat="42.4995080" lon="-8.6495700">
        <ele>120.6</ele>
        <time>2022-06-18T15:13:14Z</time>
      </trkpt>
      <trkpt lat="42.4995180" lon="-8.6495510">
        <ele>120.4</ele>
        <time>2022-06-18T15:13:15Z</time>
      </trkpt>
      <trkpt lat="42.4995250" lon="-8.6495360">
        <ele>120.4</ele>
        <time>2022-06-18T15:13:16Z</time>
      </trkpt>
      <trkpt lat="42.4995310" lon="-8.6495230">
        <ele>120.4</ele>
        <time>2022-06-18T15:13:17Z</time>
      </trkpt>
      <trkpt lat="42.4995360" lon="-8.6495200">
        <ele>120.4</ele>
        <time>2022-06-18T15:13:18Z</time>
      </trkpt>
      <trkpt lat="42.4995360" lon="-8.6495200">
        <ele>120.4</ele>
        <time>2022-06-18T15:13:19Z</time>
      </trkpt>
      <trkpt lat="42.4995810" lon="-8.6495130">
        <ele>120.4</ele>
        <time>2022-06-18T15:13:38Z</time>
      </trkpt>
      <trkpt lat="42.4995960" lon="-8.6495050">
        <ele>120.4</ele>
        <time>2022-06-18T15:13:39Z</time>
      </trkpt>
      <trkpt lat="42.4996110" lon="-8.6494980">
        <ele>120.4</ele>
        <time>2022-06-18T15:13:40Z</time>
      </trkpt>
      <trkpt lat="42.4996310" lon="-8.6494930">
        <ele>120.4</ele>
        <time>2022-06-18T15:13:41Z</time>
      </trkpt>
      <trkpt lat="42.4996460" lon="-8.6494950">
        <ele>120.4</ele>
        <time>2022-06-18T15:13:42Z</time>
      </trkpt>
      <trkpt lat="42.4996660" lon="-8.6495000">
        <ele>120.4</ele>
        <time>2022-06-18T15:13:43Z</time>
      </trkpt>
      <trkpt lat="42.4996850" lon="-8.6495000">
        <ele>120.4</ele>
        <time>2022-06-18T15:13:44Z</time>
      </trkpt>
      <trkpt lat="42.4997050" lon="-8.6495030">
        <ele>120.4</ele>
        <time>2022-06-18T15:13:45Z</time>
      </trkpt>
      <trkpt lat="42.4997230" lon="-8.6495080">
        <ele>120.4</ele>
        <time>2022-06-18T15:13:46Z</time>
      </trkpt>
      <trkpt lat="42.4997400" lon="-8.6495050">
        <ele>120.4</ele>
        <time>2022-06-18T15:13:47Z</time>
      </trkpt>
      <trkpt lat="42.4997550" lon="-8.6495050">
        <ele>120.4</ele>
        <time>2022-06-18T15:13:48Z</time>
      </trkpt>
      <trkpt lat="42.4997660" lon="-8.6495060">
        <ele>120.4</ele>
        <time>2022-06-18T15:13:49Z</time>
      </trkpt>
      <trkpt lat="42.4997830" lon="-8.6495060">
        <ele>120.8</ele>
        <time>2022-06-18T15:13:50Z</time>
      </trkpt>
      <trkpt lat="42.4997980" lon="-8.6495060">
        <ele>121.0</ele>
        <time>2022-06-18T15:13:51Z</time>
      </trkpt>
      <trkpt lat="42.4998150" lon="-8.6495030">
        <ele>121.0</ele>
        <time>2022-06-18T15:13:52Z</time>
      </trkpt>
      <trkpt lat="42.4998330" lon="-8.6494960">
        <ele>121.0</ele>
        <time>2022-06-18T15:13:53Z</time>
      </trkpt>
      <trkpt lat="42.4998500" lon="-8.6494910">
        <ele>121.4</ele>
        <time>2022-06-18T15:13:54Z</time>
      </trkpt>
      <trkpt lat="42.4998650" lon="-8.6494910">
        <ele>121.6</ele>
        <time>2022-06-18T15:13:55Z</time>
      </trkpt>
      <trkpt lat="42.4998830" lon="-8.6494910">
        <ele>121.6</ele>
        <time>2022-06-18T15:13:56Z</time>
      </trkpt>
      <trkpt lat="42.4998960" lon="-8.6494950">
        <ele>121.6</ele>
        <time>2022-06-18T15:13:57Z</time>
      </trkpt>
      <trkpt lat="42.4999150" lon="-8.6494930">
        <ele>122.4</ele>
        <time>2022-06-18T15:13:58Z</time>
      </trkpt>
      <trkpt lat="42.4999260" lon="-8.6494860">
        <ele>122.0</ele>
        <time>2022-06-18T15:13:59Z</time>
      </trkpt>
      <trkpt lat="42.4999380" lon="-8.6494800">
        <ele>122.0</ele>
        <time>2022-06-18T15:14:00Z</time>
      </trkpt>
      <trkpt lat="42.4999530" lon="-8.6494730">
        <ele>122.0</ele>
        <time>2022-06-18T15:14:01Z</time>
      </trkpt>
      <trkpt lat="42.4999710" lon="-8.6494650">
        <ele>123.0</ele>
        <time>2022-06-18T15:14:02Z</time>
      </trkpt>
      <trkpt lat="42.4999950" lon="-8.6494600">
        <ele>124.0</ele>
        <time>2022-06-18T15:14:03Z</time>
      </trkpt>
      <trkpt lat="42.5000160" lon="-8.6494580">
        <ele>124.0</ele>
        <time>2022-06-18T15:14:04Z</time>
      </trkpt>
      <trkpt lat="42.5000260" lon="-8.6494650">
        <ele>124.0</ele>
        <time>2022-06-18T15:14:05Z</time>
      </trkpt>
      <trkpt lat="42.5000400" lon="-8.6494610">
        <ele>124.8</ele>
        <time>2022-06-18T15:14:06Z</time>
      </trkpt>
      <trkpt lat="42.5000510" lon="-8.6494580">
        <ele>125.0</ele>
        <time>2022-06-18T15:14:07Z</time>
      </trkpt>
      <trkpt lat="42.5000660" lon="-8.6494550">
        <ele>125.0</ele>
        <time>2022-06-18T15:14:08Z</time>
      </trkpt>
      <trkpt lat="42.5000810" lon="-8.6494530">
        <ele>125.0</ele>
        <time>2022-06-18T15:14:09Z</time>
      </trkpt>
      <trkpt lat="42.5000950" lon="-8.6494530">
        <ele>125.6</ele>
        <time>2022-06-18T15:14:10Z</time>
      </trkpt>
      <trkpt lat="42.5001030" lon="-8.6494600">
        <ele>126.0</ele>
        <time>2022-06-18T15:14:11Z</time>
      </trkpt>
      <trkpt lat="42.5001080" lon="-8.6494700">
        <ele>126.0</ele>
        <time>2022-06-18T15:14:12Z</time>
      </trkpt>
      <trkpt lat="42.5001280" lon="-8.6494700">
        <ele>126.0</ele>
        <time>2022-06-18T15:14:13Z</time>
      </trkpt>
      <trkpt lat="42.5001400" lon="-8.6494730">
        <ele>126.0</ele>
        <time>2022-06-18T15:14:14Z</time>
      </trkpt>
      <trkpt lat="42.5001550" lon="-8.6494780">
        <ele>127.0</ele>
        <time>2022-06-18T15:14:15Z</time>
      </trkpt>
      <trkpt lat="42.5001700" lon="-8.6494910">
        <ele>127.0</ele>
        <time>2022-06-18T15:14:16Z</time>
      </trkpt>
      <trkpt lat="42.5001850" lon="-8.6495000">
        <ele>127.0</ele>
        <time>2022-06-18T15:14:17Z</time>
      </trkpt>
      <trkpt lat="42.5001960" lon="-8.6495130">
        <ele>127.0</ele>
        <time>2022-06-18T15:14:18Z</time>
      </trkpt>
      <trkpt lat="42.5002100" lon="-8.6495300">
        <ele>127.2</ele>
        <time>2022-06-18T15:14:19Z</time>
      </trkpt>
      <trkpt lat="42.5002210" lon="-8.6495400">
        <ele>127.2</ele>
        <time>2022-06-18T15:14:20Z</time>
      </trkpt>
      <trkpt lat="42.5002350" lon="-8.6495460">
        <ele>127.2</ele>
        <time>2022-06-18T15:14:21Z</time>
      </trkpt>
      <trkpt lat="42.5002450" lon="-8.6495560">
        <ele>127.8</ele>
        <time>2022-06-18T15:14:22Z</time>
      </trkpt>
      <trkpt lat="42.5002610" lon="-8.6495680">
        <ele>127.6</ele>
        <time>2022-06-18T15:14:23Z</time>
      </trkpt>
      <trkpt lat="42.5002760" lon="-8.6495800">
        <ele>127.6</ele>
        <time>2022-06-18T15:14:24Z</time>
      </trkpt>
      <trkpt lat="42.5002880" lon="-8.6495900">
        <ele>127.6</ele>
        <time>2022-06-18T15:14:25Z</time>
      </trkpt>
      <trkpt lat="42.5003050" lon="-8.6496000">
        <ele>127.6</ele>
        <time>2022-06-18T15:14:26Z</time>
      </trkpt>
      <trkpt lat="42.5003150" lon="-8.6496080">
        <ele>127.6</ele>
        <time>2022-06-18T15:14:27Z</time>
      </trkpt>
      <trkpt lat="42.5003310" lon="-8.6496200">
        <ele>127.6</ele>
        <time>2022-06-18T15:14:28Z</time>
      </trkpt>
      <trkpt lat="42.5003450" lon="-8.6496280">
        <ele>127.6</ele>
        <time>2022-06-18T15:14:29Z</time>
      </trkpt>
      <trkpt lat="42.5003610" lon="-8.6496400">
        <ele>128.0</ele>
        <time>2022-06-18T15:14:30Z</time>
      </trkpt>
      <trkpt lat="42.5003750" lon="-8.6496480">
        <ele>128.8</ele>
        <time>2022-06-18T15:14:31Z</time>
      </trkpt>
      <trkpt lat="42.5003880" lon="-8.6496650">
        <ele>128.8</ele>
        <time>2022-06-18T15:14:32Z</time>
      </trkpt>
      <trkpt lat="42.5004060" lon="-8.6496830">
        <ele>128.8</ele>
        <time>2022-06-18T15:14:33Z</time>
      </trkpt>
      <trkpt lat="42.5004180" lon="-8.6496980">
        <ele>128.8</ele>
        <time>2022-06-18T15:14:34Z</time>
      </trkpt>
      <trkpt lat="42.5004210" lon="-8.6497150">
        <ele>128.8</ele>
        <time>2022-06-18T15:14:35Z</time>
      </trkpt>
      <trkpt lat="42.5004360" lon="-8.6497300">
        <ele>128.8</ele>
        <time>2022-06-18T15:14:36Z</time>
      </trkpt>
      <trkpt lat="42.5004630" lon="-8.6497330">
        <ele>128.8</ele>
        <time>2022-06-18T15:14:37Z</time>
      </trkpt>
      <trkpt lat="42.5004850" lon="-8.6497410">
        <ele>129.4</ele>
        <time>2022-06-18T15:14:38Z</time>
      </trkpt>
      <trkpt lat="42.5005100" lon="-8.6497480">
        <ele>129.4</ele>
        <time>2022-06-18T15:14:39Z</time>
      </trkpt>
      <trkpt lat="42.5005360" lon="-8.6497610">
        <ele>129.4</ele>
        <time>2022-06-18T15:14:40Z</time>
      </trkpt>
      <trkpt lat="42.5005510" lon="-8.6497750">
        <ele>129.4</ele>
        <time>2022-06-18T15:14:41Z</time>
      </trkpt>
      <trkpt lat="42.5005750" lon="-8.6497830">
        <ele>130.2</ele>
        <time>2022-06-18T15:14:42Z</time>
      </trkpt>
      <trkpt lat="42.5006100" lon="-8.6497880">
        <ele>130.0</ele>
        <time>2022-06-18T15:14:43Z</time>
      </trkpt>
      <trkpt lat="42.5006330" lon="-8.6497900">
        <ele>130.0</ele>
        <time>2022-06-18T15:14:44Z</time>
      </trkpt>
      <trkpt lat="42.5006530" lon="-8.6497910">
        <ele>130.0</ele>
        <time>2022-06-18T15:14:45Z</time>
      </trkpt>
      <trkpt lat="42.5006780" lon="-8.6497950">
        <ele>131.0</ele>
        <time>2022-06-18T15:14:46Z</time>
      </trkpt>
      <trkpt lat="42.5006960" lon="-8.6498000">
        <ele>131.2</ele>
        <time>2022-06-18T15:14:47Z</time>
      </trkpt>
      <trkpt lat="42.5007060" lon="-8.6498050">
        <ele>131.2</ele>
        <time>2022-06-18T15:14:48Z</time>
      </trkpt>
      <trkpt lat="42.5007130" lon="-8.6498100">
        <ele>131.2</ele>
        <time>2022-06-18T15:14:49Z</time>
      </trkpt>
      <trkpt lat="42.5007230" lon="-8.6498110">
        <ele>131.8</ele>
        <time>2022-06-18T15:14:50Z</time>
      </trkpt>
      <trkpt lat="42.5007380" lon="-8.6498060">
        <ele>132.2</ele>
        <time>2022-06-18T15:14:51Z</time>
      </trkpt>
      <trkpt lat="42.5007550" lon="-8.6498060">
        <ele>132.2</ele>
        <time>2022-06-18T15:14:52Z</time>
      </trkpt>
      <trkpt lat="42.5007710" lon="-8.6498080">
        <ele>132.2</ele>
        <time>2022-06-18T15:14:53Z</time>
      </trkpt>
      <trkpt lat="42.5007900" lon="-8.6498050">
        <ele>132.2</ele>
        <time>2022-06-18T15:14:54Z</time>
      </trkpt>
      <trkpt lat="42.5008100" lon="-8.6498010">
        <ele>132.6</ele>
        <time>2022-06-18T15:14:55Z</time>
      </trkpt>
      <trkpt lat="42.5008300" lon="-8.6498000">
        <ele>132.6</ele>
        <time>2022-06-18T15:14:56Z</time>
      </trkpt>
      <trkpt lat="42.5008480" lon="-8.6498030">
        <ele>132.6</ele>
        <time>2022-06-18T15:14:57Z</time>
      </trkpt>
      <trkpt lat="42.5008660" lon="-8.6498000">
        <ele>132.6</ele>
        <time>2022-06-18T15:14:58Z</time>
      </trkpt>
      <trkpt lat="42.5008850" lon="-8.6497980">
        <ele>132.8</ele>
        <time>2022-06-18T15:14:59Z</time>
      </trkpt>
      <trkpt lat="42.5009060" lon="-8.6498010">
        <ele>132.8</ele>
        <time>2022-06-18T15:15:00Z</time>
      </trkpt>
      <trkpt lat="42.5009230" lon="-8.6498100">
        <ele>132.8</ele>
        <time>2022-06-18T15:15:01Z</time>
      </trkpt>
      <trkpt lat="42.5009430" lon="-8.6498150">
        <ele>132.8</ele>
        <time>2022-06-18T15:15:02Z</time>
      </trkpt>
      <trkpt lat="42.5009700" lon="-8.6498030">
        <ele>133.2</ele>
        <time>2022-06-18T15:15:03Z</time>
      </trkpt>
      <trkpt lat="42.5009930" lon="-8.6497950">
        <ele>133.2</ele>
        <time>2022-06-18T15:15:04Z</time>
      </trkpt>
      <trkpt lat="42.5010130" lon="-8.6497910">
        <ele>133.2</ele>
        <time>2022-06-18T15:15:05Z</time>
      </trkpt>
      <trkpt lat="42.5010310" lon="-8.6497810">
        <ele>133.2</ele>
        <time>2022-06-18T15:15:06Z</time>
      </trkpt>
      <trkpt lat="42.5010510" lon="-8.6497730">
        <ele>133.2</ele>
        <time>2022-06-18T15:15:07Z</time>
      </trkpt>
      <trkpt lat="42.5010730" lon="-8.6497680">
        <ele>133.2</ele>
        <time>2022-06-18T15:15:08Z</time>
      </trkpt>
      <trkpt lat="42.5010830" lon="-8.6497580">
        <ele>133.2</ele>
        <time>2022-06-18T15:15:09Z</time>
      </trkpt>
      <trkpt lat="42.5011100" lon="-8.6497500">
        <ele>133.2</ele>
        <time>2022-06-18T15:15:10Z</time>
      </trkpt>
      <trkpt lat="42.5011330" lon="-8.6497480">
        <ele>133.8</ele>
        <time>2022-06-18T15:15:11Z</time>
      </trkpt>
      <trkpt lat="42.5011550" lon="-8.6497480">
        <ele>133.8</ele>
        <time>2022-06-18T15:15:12Z</time>
      </trkpt>
      <trkpt lat="42.5011780" lon="-8.6497580">
        <ele>133.8</ele>
        <time>2022-06-18T15:15:13Z</time>
      </trkpt>
      <trkpt lat="42.5012060" lon="-8.6497630">
        <ele>133.6</ele>
        <time>2022-06-18T15:15:14Z</time>
      </trkpt>
      <trkpt lat="42.5012330" lon="-8.6497710">
        <ele>134.0</ele>
        <time>2022-06-18T15:15:15Z</time>
      </trkpt>
      <trkpt lat="42.5012580" lon="-8.6497800">
        <ele>134.0</ele>
        <time>2022-06-18T15:15:16Z</time>
      </trkpt>
      <trkpt lat="42.5012760" lon="-8.6497910">
        <ele>134.0</ele>
        <time>2022-06-18T15:15:17Z</time>
      </trkpt>
      <trkpt lat="42.5012950" lon="-8.6498050">
        <ele>134.4</ele>
        <time>2022-06-18T15:15:18Z</time>
      </trkpt>
      <trkpt lat="42.5013200" lon="-8.6498200">
        <ele>134.8</ele>
        <time>2022-06-18T15:15:19Z</time>
      </trkpt>
      <trkpt lat="42.5013380" lon="-8.6498330">
        <ele>134.8</ele>
        <time>2022-06-18T15:15:20Z</time>
      </trkpt>
      <trkpt lat="42.5013550" lon="-8.6498410">
        <ele>134.8</ele>
        <time>2022-06-18T15:15:21Z</time>
      </trkpt>
      <trkpt lat="42.5013710" lon="-8.6498510">
        <ele>134.8</ele>
        <time>2022-06-18T15:15:22Z</time>
      </trkpt>
      <trkpt lat="42.5013930" lon="-8.6498610">
        <ele>135.6</ele>
        <time>2022-06-18T15:15:23Z</time>
      </trkpt>
      <trkpt lat="42.5014100" lon="-8.6498700">
        <ele>135.6</ele>
        <time>2022-06-18T15:15:24Z</time>
      </trkpt>
      <trkpt lat="42.5014200" lon="-8.6498850">
        <ele>135.6</ele>
        <time>2022-06-18T15:15:25Z</time>
      </trkpt>
      <trkpt lat="42.5014330" lon="-8.6499050">
        <ele>135.6</ele>
        <time>2022-06-18T15:15:26Z</time>
      </trkpt>
      <trkpt lat="42.5014430" lon="-8.6499180">
        <ele>136.4</ele>
        <time>2022-06-18T15:15:27Z</time>
      </trkpt>
      <trkpt lat="42.5014600" lon="-8.6499310">
        <ele>136.4</ele>
        <time>2022-06-18T15:15:28Z</time>
      </trkpt>
      <trkpt lat="42.5014760" lon="-8.6499460">
        <ele>136.4</ele>
        <time>2022-06-18T15:15:29Z</time>
      </trkpt>
      <trkpt lat="42.5014930" lon="-8.6499630">
        <ele>136.4</ele>
        <time>2022-06-18T15:15:30Z</time>
      </trkpt>
      <trkpt lat="42.5015110" lon="-8.6499830">
        <ele>136.4</ele>
        <time>2022-06-18T15:15:31Z</time>
      </trkpt>
      <trkpt lat="42.5015230" lon="-8.6500000">
        <ele>136.4</ele>
        <time>2022-06-18T15:15:32Z</time>
      </trkpt>
      <trkpt lat="42.5015380" lon="-8.6500130">
        <ele>136.4</ele>
        <time>2022-06-18T15:15:33Z</time>
      </trkpt>
      <trkpt lat="42.5015530" lon="-8.6500310">
        <ele>137.0</ele>
        <time>2022-06-18T15:15:34Z</time>
      </trkpt>
      <trkpt lat="42.5015700" lon="-8.6500510">
        <ele>137.6</ele>
        <time>2022-06-18T15:15:35Z</time>
      </trkpt>
      <trkpt lat="42.5015880" lon="-8.6500660">
        <ele>137.6</ele>
        <time>2022-06-18T15:15:36Z</time>
      </trkpt>
      <trkpt lat="42.5016050" lon="-8.6500800">
        <ele>137.6</ele>
        <time>2022-06-18T15:15:37Z</time>
      </trkpt>
      <trkpt lat="42.5016230" lon="-8.6500810">
        <ele>138.6</ele>
        <time>2022-06-18T15:15:38Z</time>
      </trkpt>
      <trkpt lat="42.5016410" lon="-8.6500930">
        <ele>138.6</ele>
        <time>2022-06-18T15:15:39Z</time>
      </trkpt>
      <trkpt lat="42.5016560" lon="-8.6501050">
        <ele>138.6</ele>
        <time>2022-06-18T15:15:40Z</time>
      </trkpt>
      <trkpt lat="42.5016760" lon="-8.6501160">
        <ele>138.6</ele>
        <time>2022-06-18T15:15:41Z</time>
      </trkpt>
      <trkpt lat="42.5016930" lon="-8.6501310">
        <ele>138.6</ele>
        <time>2022-06-18T15:15:42Z</time>
      </trkpt>
      <trkpt lat="42.5017100" lon="-8.6501460">
        <ele>139.0</ele>
        <time>2022-06-18T15:15:43Z</time>
      </trkpt>
      <trkpt lat="42.5017280" lon="-8.6501510">
        <ele>139.0</ele>
        <time>2022-06-18T15:15:44Z</time>
      </trkpt>
      <trkpt lat="42.5017460" lon="-8.6501580">
        <ele>139.0</ele>
        <time>2022-06-18T15:15:45Z</time>
      </trkpt>
      <trkpt lat="42.5017610" lon="-8.6501680">
        <ele>139.6</ele>
        <time>2022-06-18T15:15:46Z</time>
      </trkpt>
      <trkpt lat="42.5017730" lon="-8.6501830">
        <ele>140.0</ele>
        <time>2022-06-18T15:15:47Z</time>
      </trkpt>
      <trkpt lat="42.5017900" lon="-8.6502000">
        <ele>140.0</ele>
        <time>2022-06-18T15:15:48Z</time>
      </trkpt>
      <trkpt lat="42.5018050" lon="-8.6502180">
        <ele>140.0</ele>
        <time>2022-06-18T15:15:49Z</time>
      </trkpt>
      <trkpt lat="42.5018160" lon="-8.6502260">
        <ele>140.0</ele>
        <time>2022-06-18T15:15:50Z</time>
      </trkpt>
      <trkpt lat="42.5018280" lon="-8.6502310">
        <ele>140.8</ele>
        <time>2022-06-18T15:15:51Z</time>
      </trkpt>
      <trkpt lat="42.5018450" lon="-8.6502430">
        <ele>140.8</ele>
        <time>2022-06-18T15:15:52Z</time>
      </trkpt>
      <trkpt lat="42.5018560" lon="-8.6502500">
        <ele>140.8</ele>
        <time>2022-06-18T15:15:53Z</time>
      </trkpt>
      <trkpt lat="42.5018710" lon="-8.6502600">
        <ele>140.8</ele>
        <time>2022-06-18T15:15:54Z</time>
      </trkpt>
      <trkpt lat="42.5018900" lon="-8.6502680">
        <ele>141.6</ele>
        <time>2022-06-18T15:15:55Z</time>
      </trkpt>
      <trkpt lat="42.5019010" lon="-8.6502800">
        <ele>141.6</ele>
        <time>2022-06-18T15:15:56Z</time>
      </trkpt>
      <trkpt lat="42.5019160" lon="-8.6502950">
        <ele>141.6</ele>
        <time>2022-06-18T15:15:57Z</time>
      </trkpt>
      <trkpt lat="42.5019360" lon="-8.6503030">
        <ele>141.4</ele>
        <time>2022-06-18T15:15:58Z</time>
      </trkpt>
      <trkpt lat="42.5019510" lon="-8.6503160">
        <ele>141.6</ele>
        <time>2022-06-18T15:15:59Z</time>
      </trkpt>
      <trkpt lat="42.5019680" lon="-8.6503300">
        <ele>141.6</ele>
        <time>2022-06-18T15:16:00Z</time>
      </trkpt>
      <trkpt lat="42.5019810" lon="-8.6503360">
        <ele>141.6</ele>
        <time>2022-06-18T15:16:01Z</time>
      </trkpt>
      <trkpt lat="42.5019910" lon="-8.6503400">
        <ele>141.6</ele>
        <time>2022-06-18T15:16:02Z</time>
      </trkpt>
      <trkpt lat="42.5019910" lon="-8.6503400">
        <ele>141.6</ele>
        <time>2022-06-18T15:16:03Z</time>
      </trkpt>
      <trkpt lat="42.5020300" lon="-8.6503500">
        <ele>140.8</ele>
        <time>2022-06-18T15:16:07Z</time>
      </trkpt>
      <trkpt lat="42.5020450" lon="-8.6503480">
        <ele>140.8</ele>
        <time>2022-06-18T15:16:08Z</time>
      </trkpt>
      <trkpt lat="42.5020600" lon="-8.6503550">
        <ele>140.8</ele>
        <time>2022-06-18T15:16:09Z</time>
      </trkpt>
      <trkpt lat="42.5020810" lon="-8.6503600">
        <ele>141.0</ele>
        <time>2022-06-18T15:16:10Z</time>
      </trkpt>
      <trkpt lat="42.5021050" lon="-8.6503630">
        <ele>140.6</ele>
        <time>2022-06-18T15:16:11Z</time>
      </trkpt>
      <trkpt lat="42.5021280" lon="-8.6503760">
        <ele>140.6</ele>
        <time>2022-06-18T15:16:12Z</time>
      </trkpt>
      <trkpt lat="42.5021460" lon="-8.6503910">
        <ele>140.6</ele>
        <time>2022-06-18T15:16:13Z</time>
      </trkpt>
      <trkpt lat="42.5021700" lon="-8.6504010">
        <ele>140.6</ele>
        <time>2022-06-18T15:16:14Z</time>
      </trkpt>
      <trkpt lat="42.5021930" lon="-8.6504050">
        <ele>140.8</ele>
        <time>2022-06-18T15:16:15Z</time>
      </trkpt>
      <trkpt lat="42.5022230" lon="-8.6504110">
        <ele>140.8</ele>
        <time>2022-06-18T15:16:16Z</time>
      </trkpt>
      <trkpt lat="42.5022480" lon="-8.6504200">
        <ele>140.8</ele>
        <time>2022-06-18T15:16:17Z</time>
      </trkpt>
      <trkpt lat="42.5022730" lon="-8.6504230">
        <ele>140.8</ele>
        <time>2022-06-18T15:16:18Z</time>
      </trkpt>
      <trkpt lat="42.5022980" lon="-8.6504310">
        <ele>141.2</ele>
        <time>2022-06-18T15:16:19Z</time>
      </trkpt>
      <trkpt lat="42.5023230" lon="-8.6504360">
        <ele>141.2</ele>
        <time>2022-06-18T15:16:20Z</time>
      </trkpt>
      <trkpt lat="42.5023500" lon="-8.6504460">
        <ele>141.2</ele>
        <time>2022-06-18T15:16:21Z</time>
      </trkpt>
      <trkpt lat="42.5023750" lon="-8.6504560">
        <ele>141.2</ele>
        <time>2022-06-18T15:16:22Z</time>
      </trkpt>
      <trkpt lat="42.5024050" lon="-8.6504710">
        <ele>140.8</ele>
        <time>2022-06-18T15:16:23Z</time>
      </trkpt>
      <trkpt lat="42.5024330" lon="-8.6504900">
        <ele>140.8</ele>
        <time>2022-06-18T15:16:24Z</time>
      </trkpt>
      <trkpt lat="42.5024550" lon="-8.6505010">
        <ele>140.8</ele>
        <time>2022-06-18T15:16:25Z</time>
      </trkpt>
      <trkpt lat="42.5024800" lon="-8.6505150">
        <ele>140.8</ele>
        <time>2022-06-18T15:16:26Z</time>
      </trkpt>
      <trkpt lat="42.5025060" lon="-8.6505250">
        <ele>141.0</ele>
        <time>2022-06-18T15:16:27Z</time>
      </trkpt>
      <trkpt lat="42.5025310" lon="-8.6505350">
        <ele>141.0</ele>
        <time>2022-06-18T15:16:28Z</time>
      </trkpt>
      <trkpt lat="42.5025480" lon="-8.6505510">
        <ele>141.0</ele>
        <time>2022-06-18T15:16:29Z</time>
      </trkpt>
      <trkpt lat="42.5025680" lon="-8.6505680">
        <ele>141.0</ele>
        <time>2022-06-18T15:16:30Z</time>
      </trkpt>
      <trkpt lat="42.5025930" lon="-8.6505850">
        <ele>141.4</ele>
        <time>2022-06-18T15:16:31Z</time>
      </trkpt>
      <trkpt lat="42.5026160" lon="-8.6506050">
        <ele>141.4</ele>
        <time>2022-06-18T15:16:32Z</time>
      </trkpt>
      <trkpt lat="42.5026350" lon="-8.6506200">
        <ele>141.4</ele>
        <time>2022-06-18T15:16:33Z</time>
      </trkpt>
      <trkpt lat="42.5026560" lon="-8.6506330">
        <ele>141.2</ele>
        <time>2022-06-18T15:16:34Z</time>
      </trkpt>
      <trkpt lat="42.5026730" lon="-8.6506480">
        <ele>142.2</ele>
        <time>2022-06-18T15:16:35Z</time>
      </trkpt>
      <trkpt lat="42.5027000" lon="-8.6506680">
        <ele>142.2</ele>
        <time>2022-06-18T15:16:36Z</time>
      </trkpt>
      <trkpt lat="42.5027210" lon="-8.6506810">
        <ele>142.2</ele>
        <time>2022-06-18T15:16:37Z</time>
      </trkpt>
      <trkpt lat="42.5027400" lon="-8.6507060">
        <ele>141.4</ele>
        <time>2022-06-18T15:16:38Z</time>
      </trkpt>
      <trkpt lat="42.5027630" lon="-8.6507300">
        <ele>141.4</ele>
        <time>2022-06-18T15:16:39Z</time>
      </trkpt>
      <trkpt lat="42.5027900" lon="-8.6507400">
        <ele>141.4</ele>
        <time>2022-06-18T15:16:40Z</time>
      </trkpt>
      <trkpt lat="42.5028200" lon="-8.6507510">
        <ele>141.4</ele>
        <time>2022-06-18T15:16:41Z</time>
      </trkpt>
      <trkpt lat="42.5028480" lon="-8.6507560">
        <ele>140.6</ele>
        <time>2022-06-18T15:16:42Z</time>
      </trkpt>
      <trkpt lat="42.5028630" lon="-8.6507730">
        <ele>140.8</ele>
        <time>2022-06-18T15:16:43Z</time>
      </trkpt>
      <trkpt lat="42.5028810" lon="-8.6507830">
        <ele>140.8</ele>
        <time>2022-06-18T15:16:44Z</time>
      </trkpt>
      <trkpt lat="42.5029080" lon="-8.6507950">
        <ele>140.8</ele>
        <time>2022-06-18T15:16:45Z</time>
      </trkpt>
      <trkpt lat="42.5029360" lon="-8.6508030">
        <ele>140.8</ele>
        <time>2022-06-18T15:16:46Z</time>
      </trkpt>
      <trkpt lat="42.5029700" lon="-8.6508150">
        <ele>140.0</ele>
        <time>2022-06-18T15:16:47Z</time>
      </trkpt>
      <trkpt lat="42.5029980" lon="-8.6508330">
        <ele>140.0</ele>
        <time>2022-06-18T15:16:48Z</time>
      </trkpt>
      <trkpt lat="42.5030300" lon="-8.6508500">
        <ele>140.0</ele>
        <time>2022-06-18T15:16:49Z</time>
      </trkpt>
      <trkpt lat="42.5030650" lon="-8.6508650">
        <ele>140.0</ele>
        <time>2022-06-18T15:16:50Z</time>
      </trkpt>
      <trkpt lat="42.5031010" lon="-8.6508730">
        <ele>140.2</ele>
        <time>2022-06-18T15:16:51Z</time>
      </trkpt>
      <trkpt lat="42.5031330" lon="-8.6508800">
        <ele>140.2</ele>
        <time>2022-06-18T15:16:52Z</time>
      </trkpt>
      <trkpt lat="42.5031610" lon="-8.6508860">
        <ele>140.2</ele>
        <time>2022-06-18T15:16:53Z</time>
      </trkpt>
      <trkpt lat="42.5031880" lon="-8.6509010">
        <ele>141.0</ele>
        <time>2022-06-18T15:16:54Z</time>
      </trkpt>
      <trkpt lat="42.5032180" lon="-8.6509060">
        <ele>140.4</ele>
        <time>2022-06-18T15:16:55Z</time>
      </trkpt>
      <trkpt lat="42.5032450" lon="-8.6509160">
        <ele>140.4</ele>
        <time>2022-06-18T15:16:56Z</time>
      </trkpt>
      <trkpt lat="42.5032780" lon="-8.6509200">
        <ele>140.4</ele>
        <time>2022-06-18T15:16:57Z</time>
      </trkpt>
      <trkpt lat="42.5033110" lon="-8.6509210">
        <ele>140.4</ele>
        <time>2022-06-18T15:16:58Z</time>
      </trkpt>
      <trkpt lat="42.5033430" lon="-8.6509230">
        <ele>141.4</ele>
        <time>2022-06-18T15:16:59Z</time>
      </trkpt>
      <trkpt lat="42.5033680" lon="-8.6509330">
        <ele>141.4</ele>
        <time>2022-06-18T15:17:00Z</time>
      </trkpt>
      <trkpt lat="42.5033950" lon="-8.6509250">
        <ele>141.4</ele>
        <time>2022-06-18T15:17:01Z</time>
      </trkpt>
      <trkpt lat="42.5034210" lon="-8.6509250">
        <ele>142.4</ele>
        <time>2022-06-18T15:17:02Z</time>
      </trkpt>
      <trkpt lat="42.5034460" lon="-8.6509260">
        <ele>143.2</ele>
        <time>2022-06-18T15:17:03Z</time>
      </trkpt>
      <trkpt lat="42.5034710" lon="-8.6509260">
        <ele>143.2</ele>
        <time>2022-06-18T15:17:04Z</time>
      </trkpt>
      <trkpt lat="42.5035030" lon="-8.6509200">
        <ele>143.2</ele>
        <time>2022-06-18T15:17:05Z</time>
      </trkpt>
      <trkpt lat="42.5035330" lon="-8.6509130">
        <ele>143.2</ele>
        <time>2022-06-18T15:17:06Z</time>
      </trkpt>
      <trkpt lat="42.5035600" lon="-8.6509150">
        <ele>143.6</ele>
        <time>2022-06-18T15:17:07Z</time>
      </trkpt>
      <trkpt lat="42.5035830" lon="-8.6509160">
        <ele>143.6</ele>
        <time>2022-06-18T15:17:08Z</time>
      </trkpt>
      <trkpt lat="42.5036100" lon="-8.6509150">
        <ele>143.6</ele>
        <time>2022-06-18T15:17:09Z</time>
      </trkpt>
      <trkpt lat="42.5036400" lon="-8.6509110">
        <ele>143.6</ele>
        <time>2022-06-18T15:17:10Z</time>
      </trkpt>
      <trkpt lat="42.5036660" lon="-8.6509210">
        <ele>144.6</ele>
        <time>2022-06-18T15:17:11Z</time>
      </trkpt>
      <trkpt lat="42.5036950" lon="-8.6509280">
        <ele>144.6</ele>
        <time>2022-06-18T15:17:12Z</time>
      </trkpt>
      <trkpt lat="42.5037210" lon="-8.6509280">
        <ele>144.6</ele>
        <time>2022-06-18T15:17:13Z</time>
      </trkpt>
      <trkpt lat="42.5037530" lon="-8.6509300">
        <ele>144.2</ele>
        <time>2022-06-18T15:17:14Z</time>
      </trkpt>
      <trkpt lat="42.5037780" lon="-8.6509400">
        <ele>144.2</ele>
        <time>2022-06-18T15:17:15Z</time>
      </trkpt>
      <trkpt lat="42.5038060" lon="-8.6509400">
        <ele>144.2</ele>
        <time>2022-06-18T15:17:16Z</time>
      </trkpt>
      <trkpt lat="42.5038360" lon="-8.6509350">
        <ele>144.2</ele>
        <time>2022-06-18T15:17:17Z</time>
      </trkpt>
      <trkpt lat="42.5038630" lon="-8.6509360">
        <ele>145.2</ele>
        <time>2022-06-18T15:17:18Z</time>
      </trkpt>
      <trkpt lat="42.5038910" lon="-8.6509350">
        <ele>145.8</ele>
        <time>2022-06-18T15:17:19Z</time>
      </trkpt>
      <trkpt lat="42.5039180" lon="-8.6509350">
        <ele>145.8</ele>
        <time>2022-06-18T15:17:20Z</time>
      </trkpt>
      <trkpt lat="42.5039450" lon="-8.6509230">
        <ele>145.8</ele>
        <time>2022-06-18T15:17:21Z</time>
      </trkpt>
      <trkpt lat="42.5039730" lon="-8.6509010">
        <ele>145.8</ele>
        <time>2022-06-18T15:17:22Z</time>
      </trkpt>
      <trkpt lat="42.5040030" lon="-8.6508580">
        <ele>146.8</ele>
        <time>2022-06-18T15:17:23Z</time>
      </trkpt>
      <trkpt lat="42.5040280" lon="-8.6508380">
        <ele>146.8</ele>
        <time>2022-06-18T15:17:24Z</time>
      </trkpt>
      <trkpt lat="42.5040530" lon="-8.6508100">
        <ele>146.8</ele>
        <time>2022-06-18T15:17:25Z</time>
      </trkpt>
      <trkpt lat="42.5040760" lon="-8.6507800">
        <ele>146.8</ele>
        <time>2022-06-18T15:17:26Z</time>
      </trkpt>
      <trkpt lat="42.5040980" lon="-8.6507600">
        <ele>146.8</ele>
        <time>2022-06-18T15:17:27Z</time>
      </trkpt>
      <trkpt lat="42.5041160" lon="-8.6507310">
        <ele>146.8</ele>
        <time>2022-06-18T15:17:28Z</time>
      </trkpt>
      <trkpt lat="42.5041350" lon="-8.6507030">
        <ele>146.8</ele>
        <time>2022-06-18T15:17:29Z</time>
      </trkpt>
      <trkpt lat="42.5041560" lon="-8.6506750">
        <ele>146.8</ele>
        <time>2022-06-18T15:17:30Z</time>
      </trkpt>
      <trkpt lat="42.5041780" lon="-8.6506430">
        <ele>147.4</ele>
        <time>2022-06-18T15:17:31Z</time>
      </trkpt>
      <trkpt lat="42.5042030" lon="-8.6506160">
        <ele>147.4</ele>
        <time>2022-06-18T15:17:32Z</time>
      </trkpt>
      <trkpt lat="42.5042300" lon="-8.6505900">
        <ele>147.4</ele>
        <time>2022-06-18T15:17:33Z</time>
      </trkpt>
      <trkpt lat="42.5042510" lon="-8.6505630">
        <ele>147.4</ele>
        <time>2022-06-18T15:17:34Z</time>
      </trkpt>
      <trkpt lat="42.5042710" lon="-8.6505350">
        <ele>147.6</ele>
        <time>2022-06-18T15:17:35Z</time>
      </trkpt>
      <trkpt lat="42.5042880" lon="-8.6505050">
        <ele>147.6</ele>
        <time>2022-06-18T15:17:36Z</time>
      </trkpt>
      <trkpt lat="42.5043050" lon="-8.6504800">
        <ele>147.6</ele>
        <time>2022-06-18T15:17:37Z</time>
      </trkpt>
      <trkpt lat="42.5043230" lon="-8.6504600">
        <ele>148.2</ele>
        <time>2022-06-18T15:17:38Z</time>
      </trkpt>
      <trkpt lat="42.5043400" lon="-8.6504450">
        <ele>148.8</ele>
        <time>2022-06-18T15:17:39Z</time>
      </trkpt>
      <trkpt lat="42.5043510" lon="-8.6504280">
        <ele>148.8</ele>
        <time>2022-06-18T15:17:40Z</time>
      </trkpt>
      <trkpt lat="42.5043610" lon="-8.6504100">
        <ele>148.8</ele>
        <time>2022-06-18T15:17:41Z</time>
      </trkpt>
      <trkpt lat="42.5043710" lon="-8.6503910">
        <ele>148.8</ele>
        <time>2022-06-18T15:17:42Z</time>
      </trkpt>
      <trkpt lat="42.5043810" lon="-8.6503810">
        <ele>149.0</ele>
        <time>2022-06-18T15:17:43Z</time>
      </trkpt>
      <trkpt lat="42.5043850" lon="-8.6503800">
        <ele>149.0</ele>
        <time>2022-06-18T15:17:44Z</time>
      </trkpt>
      <trkpt lat="42.5044710" lon="-8.6503500">
        <ele>149.0</ele>
        <time>2022-06-18T15:18:37Z</time>
      </trkpt>
      <trkpt lat="42.5044900" lon="-8.6503280">
        <ele>149.0</ele>
        <time>2022-06-18T15:18:38Z</time>
      </trkpt>
      <trkpt lat="42.5045050" lon="-8.6503080">
        <ele>148.2</ele>
        <time>2022-06-18T15:18:39Z</time>
      </trkpt>
      <trkpt lat="42.5045210" lon="-8.6502850">
        <ele>148.2</ele>
        <time>2022-06-18T15:18:40Z</time>
      </trkpt>
      <trkpt lat="42.5045410" lon="-8.6502610">
        <ele>148.2</ele>
        <time>2022-06-18T15:18:41Z</time>
      </trkpt>
      <trkpt lat="42.5045600" lon="-8.6502380">
        <ele>148.6</ele>
        <time>2022-06-18T15:18:42Z</time>
      </trkpt>
      <trkpt lat="42.5045800" lon="-8.6502130">
        <ele>149.0</ele>
        <time>2022-06-18T15:18:43Z</time>
      </trkpt>
      <trkpt lat="42.5046010" lon="-8.6501850">
        <ele>149.0</ele>
        <time>2022-06-18T15:18:44Z</time>
      </trkpt>
      <trkpt lat="42.5046260" lon="-8.6501510">
        <ele>149.0</ele>
        <time>2022-06-18T15:18:45Z</time>
      </trkpt>
      <trkpt lat="42.5046480" lon="-8.6501100">
        <ele>149.0</ele>
        <time>2022-06-18T15:18:46Z</time>
      </trkpt>
      <trkpt lat="42.5046700" lon="-8.6500560">
        <ele>145.8</ele>
        <time>2022-06-18T15:18:47Z</time>
      </trkpt>
      <trkpt lat="42.5046880" lon="-8.6500000">
        <ele>145.8</ele>
        <time>2022-06-18T15:18:48Z</time>
      </trkpt>
      <trkpt lat="42.5047050" lon="-8.6499410">
        <ele>145.8</ele>
        <time>2022-06-18T15:18:49Z</time>
      </trkpt>
      <trkpt lat="42.5047260" lon="-8.6498900">
        <ele>145.8</ele>
        <time>2022-06-18T15:18:50Z</time>
      </trkpt>
      <trkpt lat="42.5047500" lon="-8.6498450">
        <ele>145.6</ele>
        <time>2022-06-18T15:18:51Z</time>
      </trkpt>
      <trkpt lat="42.5047710" lon="-8.6498110">
        <ele>145.6</ele>
        <time>2022-06-18T15:18:52Z</time>
      </trkpt>
      <trkpt lat="42.5047950" lon="-8.6497910">
        <ele>145.6</ele>
        <time>2022-06-18T15:18:53Z</time>
      </trkpt>
      <trkpt lat="42.5048250" lon="-8.6497810">
        <ele>145.6</ele>
        <time>2022-06-18T15:18:54Z</time>
      </trkpt>
      <trkpt lat="42.5048550" lon="-8.6497830">
        <ele>144.0</ele>
        <time>2022-06-18T15:18:55Z</time>
      </trkpt>
      <trkpt lat="42.5048850" lon="-8.6497900">
        <ele>144.0</ele>
        <time>2022-06-18T15:18:56Z</time>
      </trkpt>
      <trkpt lat="42.5049210" lon="-8.6497910">
        <ele>144.0</ele>
        <time>2022-06-18T15:18:57Z</time>
      </trkpt>
      <trkpt lat="42.5049700" lon="-8.6497850">
        <ele>143.0</ele>
        <time>2022-06-18T15:18:58Z</time>
      </trkpt>
      <trkpt lat="42.5050210" lon="-8.6497600">
        <ele>141.2</ele>
        <time>2022-06-18T15:18:59Z</time>
      </trkpt>
      <trkpt lat="42.5050780" lon="-8.6497250">
        <ele>141.2</ele>
        <time>2022-06-18T15:19:00Z</time>
      </trkpt>
      <trkpt lat="42.5051400" lon="-8.6496830">
        <ele>141.2</ele>
        <time>2022-06-18T15:19:01Z</time>
      </trkpt>
      <trkpt lat="42.5052100" lon="-8.6496430">
        <ele>140.2</ele>
        <time>2022-06-18T15:19:02Z</time>
      </trkpt>
      <trkpt lat="42.5052850" lon="-8.6496000">
        <ele>135.8</ele>
        <time>2022-06-18T15:19:03Z</time>
      </trkpt>
      <trkpt lat="42.5053610" lon="-8.6495500">
        <ele>135.8</ele>
        <time>2022-06-18T15:19:04Z</time>
      </trkpt>
      <trkpt lat="42.5054400" lon="-8.6494960">
        <ele>135.8</ele>
        <time>2022-06-18T15:19:05Z</time>
      </trkpt>
      <trkpt lat="42.5055180" lon="-8.6494480">
        <ele>134.8</ele>
        <time>2022-06-18T15:19:06Z</time>
      </trkpt>
      <trkpt lat="42.5056000" lon="-8.6494010">
        <ele>134.0</ele>
        <time>2022-06-18T15:19:07Z</time>
      </trkpt>
      <trkpt lat="42.5056830" lon="-8.6493650">
        <ele>134.0</ele>
        <time>2022-06-18T15:19:08Z</time>
      </trkpt>
      <trkpt lat="42.5057710" lon="-8.6493410">
        <ele>134.0</ele>
        <time>2022-06-18T15:19:09Z</time>
      </trkpt>
      <trkpt lat="42.5058630" lon="-8.6493280">
        <ele>134.0</ele>
        <time>2022-06-18T15:19:10Z</time>
      </trkpt>
      <trkpt lat="42.5059550" lon="-8.6493160">
        <ele>132.8</ele>
        <time>2022-06-18T15:19:11Z</time>
      </trkpt>
      <trkpt lat="42.5060380" lon="-8.6493000">
        <ele>132.8</ele>
        <time>2022-06-18T15:19:12Z</time>
      </trkpt>
      <trkpt lat="42.5061000" lon="-8.6492580">
        <ele>132.8</ele>
        <time>2022-06-18T15:19:13Z</time>
      </trkpt>
      <trkpt lat="42.5061460" lon="-8.6491930">
        <ele>132.4</ele>
        <time>2022-06-18T15:19:14Z</time>
      </trkpt>
      <trkpt lat="42.5061750" lon="-8.6491180">
        <ele>133.6</ele>
        <time>2022-06-18T15:19:15Z</time>
      </trkpt>
      <trkpt lat="42.5062000" lon="-8.6490530">
        <ele>133.6</ele>
        <time>2022-06-18T15:19:16Z</time>
      </trkpt>
      <trkpt lat="42.5062300" lon="-8.6490100">
        <ele>133.6</ele>
        <time>2022-06-18T15:19:17Z</time>
      </trkpt>
      <trkpt lat="42.5062700" lon="-8.6489630">
        <ele>134.6</ele>
        <time>2022-06-18T15:19:18Z</time>
      </trkpt>
      <trkpt lat="42.5063010" lon="-8.6489210">
        <ele>134.6</ele>
        <time>2022-06-18T15:19:19Z</time>
      </trkpt>
      <trkpt lat="42.5063330" lon="-8.6488830">
        <ele>134.6</ele>
        <time>2022-06-18T15:19:20Z</time>
      </trkpt>
      <trkpt lat="42.5063680" lon="-8.6488430">
        <ele>134.6</ele>
        <time>2022-06-18T15:19:21Z</time>
      </trkpt>
      <trkpt lat="42.5064110" lon="-8.6488080">
        <ele>134.6</ele>
        <time>2022-06-18T15:19:22Z</time>
      </trkpt>
      <trkpt lat="42.5064550" lon="-8.6487800">
        <ele>132.8</ele>
        <time>2022-06-18T15:19:23Z</time>
      </trkpt>
      <trkpt lat="42.5065050" lon="-8.6487680">
        <ele>132.8</ele>
        <time>2022-06-18T15:19:24Z</time>
      </trkpt>
      <trkpt lat="42.5065580" lon="-8.6487630">
        <ele>132.8</ele>
        <time>2022-06-18T15:19:25Z</time>
      </trkpt>
      <trkpt lat="42.5066050" lon="-8.6487680">
        <ele>132.8</ele>
        <time>2022-06-18T15:19:26Z</time>
      </trkpt>
      <trkpt lat="42.5066550" lon="-8.6487860">
        <ele>131.8</ele>
        <time>2022-06-18T15:19:27Z</time>
      </trkpt>
      <trkpt lat="42.5067060" lon="-8.6488060">
        <ele>131.8</ele>
        <time>2022-06-18T15:19:28Z</time>
      </trkpt>
      <trkpt lat="42.5067660" lon="-8.6488180">
        <ele>131.8</ele>
        <time>2022-06-18T15:19:29Z</time>
      </trkpt>
      <trkpt lat="42.5068200" lon="-8.6488530">
        <ele>131.8</ele>
        <time>2022-06-18T15:19:30Z</time>
      </trkpt>
      <trkpt lat="42.5068750" lon="-8.6488730">
        <ele>130.4</ele>
        <time>2022-06-18T15:19:31Z</time>
      </trkpt>
      <trkpt lat="42.5069300" lon="-8.6488900">
        <ele>130.4</ele>
        <time>2022-06-18T15:19:32Z</time>
      </trkpt>
      <trkpt lat="42.5069880" lon="-8.6488960">
        <ele>130.4</ele>
        <time>2022-06-18T15:19:33Z</time>
      </trkpt>
      <trkpt lat="42.5070560" lon="-8.6489050">
        <ele>130.4</ele>
        <time>2022-06-18T15:19:34Z</time>
      </trkpt>
      <trkpt lat="42.5071260" lon="-8.6489100">
        <ele>127.8</ele>
        <time>2022-06-18T15:19:35Z</time>
      </trkpt>
      <trkpt lat="42.5071980" lon="-8.6489050">
        <ele>127.8</ele>
        <time>2022-06-18T15:19:36Z</time>
      </trkpt>
      <trkpt lat="42.5072710" lon="-8.6488960">
        <ele>127.8</ele>
        <time>2022-06-18T15:19:37Z</time>
      </trkpt>
      <trkpt lat="42.5073430" lon="-8.6488860">
        <ele>126.8</ele>
        <time>2022-06-18T15:19:38Z</time>
      </trkpt>
      <trkpt lat="42.5074080" lon="-8.6488700">
        <ele>126.4</ele>
        <time>2022-06-18T15:19:39Z</time>
      </trkpt>
      <trkpt lat="42.5074760" lon="-8.6488500">
        <ele>126.4</ele>
        <time>2022-06-18T15:19:40Z</time>
      </trkpt>
      <trkpt lat="42.5075410" lon="-8.6488310">
        <ele>126.4</ele>
        <time>2022-06-18T15:19:41Z</time>
      </trkpt>
      <trkpt lat="42.5076030" lon="-8.6488250">
        <ele>125.6</ele>
        <time>2022-06-18T15:19:42Z</time>
      </trkpt>
      <trkpt lat="42.5076550" lon="-8.6488450">
        <ele>124.4</ele>
        <time>2022-06-18T15:19:43Z</time>
      </trkpt>
      <trkpt lat="42.5077010" lon="-8.6488710">
        <ele>124.4</ele>
        <time>2022-06-18T15:19:44Z</time>
      </trkpt>
      <trkpt lat="42.5077450" lon="-8.6489050">
        <ele>124.4</ele>
        <time>2022-06-18T15:19:45Z</time>
      </trkpt>
      <trkpt lat="42.5077880" lon="-8.6489300">
        <ele>124.4</ele>
        <time>2022-06-18T15:19:46Z</time>
      </trkpt>
      <trkpt lat="42.5078330" lon="-8.6489460">
        <ele>124.6</ele>
        <time>2022-06-18T15:19:47Z</time>
      </trkpt>
      <trkpt lat="42.5078800" lon="-8.6489600">
        <ele>124.6</ele>
        <time>2022-06-18T15:19:48Z</time>
      </trkpt>
      <trkpt lat="42.5079150" lon="-8.6489710">
        <ele>124.6</ele>
        <time>2022-06-18T15:19:49Z</time>
      </trkpt>
      <trkpt lat="42.5079450" lon="-8.6489830">
        <ele>125.6</ele>
        <time>2022-06-18T15:19:50Z</time>
      </trkpt>
      <trkpt lat="42.5079660" lon="-8.6490000">
        <ele>127.6</ele>
        <time>2022-06-18T15:19:51Z</time>
      </trkpt>
      <trkpt lat="42.5079860" lon="-8.6490100">
        <ele>127.6</ele>
        <time>2022-06-18T15:19:52Z</time>
      </trkpt>
      <trkpt lat="42.5080030" lon="-8.6490210">
        <ele>127.6</ele>
        <time>2022-06-18T15:19:53Z</time>
      </trkpt>
      <trkpt lat="42.5080230" lon="-8.6490300">
        <ele>128.2</ele>
        <time>2022-06-18T15:19:54Z</time>
      </trkpt>
      <trkpt lat="42.5080410" lon="-8.6490380">
        <ele>128.6</ele>
        <time>2022-06-18T15:19:55Z</time>
      </trkpt>
      <trkpt lat="42.5080550" lon="-8.6490460">
        <ele>128.6</ele>
        <time>2022-06-18T15:19:56Z</time>
      </trkpt>
      <trkpt lat="42.5080730" lon="-8.6490510">
        <ele>128.6</ele>
        <time>2022-06-18T15:19:57Z</time>
      </trkpt>
      <trkpt lat="42.5080900" lon="-8.6490560">
        <ele>129.2</ele>
        <time>2022-06-18T15:19:58Z</time>
      </trkpt>
      <trkpt lat="42.5081060" lon="-8.6490580">
        <ele>129.2</ele>
        <time>2022-06-18T15:19:59Z</time>
      </trkpt>
      <trkpt lat="42.5081200" lon="-8.6490630">
        <ele>129.2</ele>
        <time>2022-06-18T15:20:00Z</time>
      </trkpt>
      <trkpt lat="42.5081350" lon="-8.6490710">
        <ele>129.2</ele>
        <time>2022-06-18T15:20:01Z</time>
      </trkpt>
      <trkpt lat="42.5081530" lon="-8.6490760">
        <ele>129.8</ele>
        <time>2022-06-18T15:20:02Z</time>
      </trkpt>
      <trkpt lat="42.5081700" lon="-8.6490860">
        <ele>130.2</ele>
        <time>2022-06-18T15:20:03Z</time>
      </trkpt>
      <trkpt lat="42.5081850" lon="-8.6490850">
        <ele>130.2</ele>
        <time>2022-06-18T15:20:04Z</time>
      </trkpt>
      <trkpt lat="42.5082030" lon="-8.6490880">
        <ele>130.2</ele>
        <time>2022-06-18T15:20:05Z</time>
      </trkpt>
      <trkpt lat="42.5082230" lon="-8.6491010">
        <ele>130.2</ele>
        <time>2022-06-18T15:20:06Z</time>
      </trkpt>
      <trkpt lat="42.5082430" lon="-8.6491080">
        <ele>130.2</ele>
        <time>2022-06-18T15:20:07Z</time>
      </trkpt>
      <trkpt lat="42.5082560" lon="-8.6491150">
        <ele>130.2</ele>
        <time>2022-06-18T15:20:08Z</time>
      </trkpt>
      <trkpt lat="42.5082660" lon="-8.6491180">
        <ele>130.2</ele>
        <time>2022-06-18T15:20:09Z</time>
      </trkpt>
      <trkpt lat="42.5082780" lon="-8.6491280">
        <ele>130.6</ele>
        <time>2022-06-18T15:20:10Z</time>
      </trkpt>
      <trkpt lat="42.5083010" lon="-8.6491350">
        <ele>131.0</ele>
        <time>2022-06-18T15:20:11Z</time>
      </trkpt>
      <trkpt lat="42.5083210" lon="-8.6491380">
        <ele>131.0</ele>
        <time>2022-06-18T15:20:12Z</time>
      </trkpt>
      <trkpt lat="42.5083380" lon="-8.6491500">
        <ele>131.0</ele>
        <time>2022-06-18T15:20:13Z</time>
      </trkpt>
      <trkpt lat="42.5083580" lon="-8.6491560">
        <ele>131.2</ele>
        <time>2022-06-18T15:20:14Z</time>
      </trkpt>
      <trkpt lat="42.5083710" lon="-8.6491700">
        <ele>131.2</ele>
        <time>2022-06-18T15:20:15Z</time>
      </trkpt>
      <trkpt lat="42.5083960" lon="-8.6491760">
        <ele>131.2</ele>
        <time>2022-06-18T15:20:16Z</time>
      </trkpt>
      <trkpt lat="42.5084230" lon="-8.6491780">
        <ele>131.2</ele>
        <time>2022-06-18T15:20:17Z</time>
      </trkpt>
      <trkpt lat="42.5084530" lon="-8.6491750">
        <ele>131.2</ele>
        <time>2022-06-18T15:20:18Z</time>
      </trkpt>
      <trkpt lat="42.5084750" lon="-8.6491800">
        <ele>131.8</ele>
        <time>2022-06-18T15:20:19Z</time>
      </trkpt>
      <trkpt lat="42.5084910" lon="-8.6491910">
        <ele>131.8</ele>
        <time>2022-06-18T15:20:20Z</time>
      </trkpt>
      <trkpt lat="42.5085060" lon="-8.6492010">
        <ele>131.8</ele>
        <time>2022-06-18T15:20:21Z</time>
      </trkpt>
      <trkpt lat="42.5085210" lon="-8.6492080">
        <ele>132.2</ele>
        <time>2022-06-18T15:20:22Z</time>
      </trkpt>
      <trkpt lat="42.5085450" lon="-8.6492140">
        <ele>132.2</ele>
        <time>2022-06-18T15:20:23Z</time>
      </trkpt>
      <trkpt lat="42.5085510" lon="-8.6492170">
        <ele>132.2</ele>
        <time>2022-06-18T15:20:24Z</time>
      </trkpt>
      <trkpt lat="42.5085560" lon="-8.6492200">
        <ele>132.2</ele>
        <time>2022-06-18T15:20:25Z</time>
      </trkpt>
      <trkpt lat="42.5085960" lon="-8.6492450">
        <ele>132.2</ele>
        <time>2022-06-18T15:20:26Z</time>
      </trkpt>
      <trkpt lat="42.5086210" lon="-8.6492480">
        <ele>132.2</ele>
        <time>2022-06-18T15:20:27Z</time>
      </trkpt>
      <trkpt lat="42.5086460" lon="-8.6492450">
        <ele>132.2</ele>
        <time>2022-06-18T15:20:28Z</time>
      </trkpt>
      <trkpt lat="42.5086710" lon="-8.6492530">
        <ele>132.2</ele>
        <time>2022-06-18T15:20:29Z</time>
      </trkpt>
      <trkpt lat="42.5087000" lon="-8.6492600">
        <ele>132.2</ele>
        <time>2022-06-18T15:20:30Z</time>
      </trkpt>
      <trkpt lat="42.5087210" lon="-8.6492660">
        <ele>132.0</ele>
        <time>2022-06-18T15:20:31Z</time>
      </trkpt>
      <trkpt lat="42.5087350" lon="-8.6492710">
        <ele>132.0</ele>
        <time>2022-06-18T15:20:32Z</time>
      </trkpt>
      <trkpt lat="42.5087500" lon="-8.6492730">
        <ele>132.0</ele>
        <time>2022-06-18T15:20:33Z</time>
      </trkpt>
      <trkpt lat="42.5087730" lon="-8.6492730">
        <ele>132.0</ele>
        <time>2022-06-18T15:20:34Z</time>
      </trkpt>
      <trkpt lat="42.5088030" lon="-8.6492730">
        <ele>131.8</ele>
        <time>2022-06-18T15:20:35Z</time>
      </trkpt>
      <trkpt lat="42.5088350" lon="-8.6492710">
        <ele>131.8</ele>
        <time>2022-06-18T15:20:36Z</time>
      </trkpt>
      <trkpt lat="42.5088680" lon="-8.6492680">
        <ele>131.8</ele>
        <time>2022-06-18T15:20:37Z</time>
      </trkpt>
      <trkpt lat="42.5089050" lon="-8.6492700">
        <ele>131.2</ele>
        <time>2022-06-18T15:20:38Z</time>
      </trkpt>
      <trkpt lat="42.5089450" lon="-8.6492680">
        <ele>131.2</ele>
        <time>2022-06-18T15:20:39Z</time>
      </trkpt>
      <trkpt lat="42.5089930" lon="-8.6492660">
        <ele>131.2</ele>
        <time>2022-06-18T15:20:40Z</time>
      </trkpt>
      <trkpt lat="42.5090430" lon="-8.6492760">
        <ele>131.2</ele>
        <time>2022-06-18T15:20:41Z</time>
      </trkpt>
      <trkpt lat="42.5091060" lon="-8.6492700">
        <ele>130.2</ele>
        <time>2022-06-18T15:20:42Z</time>
      </trkpt>
      <trkpt lat="42.5091700" lon="-8.6492630">
        <ele>126.0</ele>
        <time>2022-06-18T15:20:43Z</time>
      </trkpt>
      <trkpt lat="42.5092410" lon="-8.6492580">
        <ele>126.0</ele>
        <time>2022-06-18T15:20:44Z</time>
      </trkpt>
      <trkpt lat="42.5093230" lon="-8.6492580">
        <ele>126.0</ele>
        <time>2022-06-18T15:20:45Z</time>
      </trkpt>
      <trkpt lat="42.5094110" lon="-8.6492550">
        <ele>125.0</ele>
        <time>2022-06-18T15:20:46Z</time>
      </trkpt>
      <trkpt lat="42.5095060" lon="-8.6492550">
        <ele>117.4</ele>
        <time>2022-06-18T15:20:47Z</time>
      </trkpt>
      <trkpt lat="42.5096110" lon="-8.6492460">
        <ele>117.4</ele>
        <time>2022-06-18T15:20:48Z</time>
      </trkpt>
      <trkpt lat="42.5097250" lon="-8.6492310">
        <ele>117.4</ele>
        <time>2022-06-18T15:20:49Z</time>
      </trkpt>
      <trkpt lat="42.5098400" lon="-8.6492050">
        <ele>116.4</ele>
        <time>2022-06-18T15:20:50Z</time>
      </trkpt>
      <trkpt lat="42.5099560" lon="-8.6491630">
        <ele>112.8</ele>
        <time>2022-06-18T15:20:51Z</time>
      </trkpt>
      <trkpt lat="42.5100610" lon="-8.6491200">
        <ele>112.8</ele>
        <time>2022-06-18T15:20:52Z</time>
      </trkpt>
      <trkpt lat="42.5101650" lon="-8.6490580">
        <ele>112.8</ele>
        <time>2022-06-18T15:20:53Z</time>
      </trkpt>
      <trkpt lat="42.5102580" lon="-8.6489900">
        <ele>113.8</ele>
        <time>2022-06-18T15:20:54Z</time>
      </trkpt>
      <trkpt lat="42.5103360" lon="-8.6489250">
        <ele>118.4</ele>
        <time>2022-06-18T15:20:55Z</time>
      </trkpt>
      <trkpt lat="42.5103960" lon="-8.6488560">
        <ele>118.4</ele>
        <time>2022-06-18T15:20:56Z</time>
      </trkpt>
      <trkpt lat="42.5104450" lon="-8.6487910">
        <ele>118.4</ele>
        <time>2022-06-18T15:20:57Z</time>
      </trkpt>
      <trkpt lat="42.5104810" lon="-8.6487330">
        <ele>119.4</ele>
        <time>2022-06-18T15:20:58Z</time>
      </trkpt>
      <trkpt lat="42.5105150" lon="-8.6486880">
        <ele>123.6</ele>
        <time>2022-06-18T15:20:59Z</time>
      </trkpt>
      <trkpt lat="42.5105150" lon="-8.6486880">
        <ele>123.6</ele>
        <time>2022-06-18T15:21:00Z</time>
      </trkpt>
      <trkpt lat="42.5105580" lon="-8.6486660">
        <ele>123.6</ele>
        <time>2022-06-18T15:21:01Z</time>
      </trkpt>
      <trkpt lat="42.5105710" lon="-8.6486750">
        <ele>124.6</ele>
        <time>2022-06-18T15:21:02Z</time>
      </trkpt>
      <trkpt lat="42.5105880" lon="-8.6486910">
        <ele>123.6</ele>
        <time>2022-06-18T15:21:03Z</time>
      </trkpt>
      <trkpt lat="42.5106030" lon="-8.6487180">
        <ele>123.6</ele>
        <time>2022-06-18T15:21:04Z</time>
      </trkpt>
      <trkpt lat="42.5106260" lon="-8.6487510">
        <ele>123.6</ele>
        <time>2022-06-18T15:21:05Z</time>
      </trkpt>
      <trkpt lat="42.5106580" lon="-8.6487960">
        <ele>122.6</ele>
        <time>2022-06-18T15:21:06Z</time>
      </trkpt>
      <trkpt lat="42.5107070" lon="-8.6488940">
        <ele>118.6</ele>
        <time>2022-06-18T15:21:07Z</time>
      </trkpt>
      <trkpt lat="42.5107240" lon="-8.6489300">
        <ele>118.6</ele>
        <time>2022-06-18T15:21:08Z</time>
      </trkpt>
      <trkpt lat="42.5107580" lon="-8.6490030">
        <ele>118.6</ele>
        <time>2022-06-18T15:21:09Z</time>
      </trkpt>
      <trkpt lat="42.5107880" lon="-8.6490800">
        <ele>117.6</ele>
        <time>2022-06-18T15:21:10Z</time>
      </trkpt>
      <trkpt lat="42.5108180" lon="-8.6491580">
        <ele>113.8</ele>
        <time>2022-06-18T15:21:11Z</time>
      </trkpt>
      <trkpt lat="42.5108460" lon="-8.6492380">
        <ele>113.8</ele>
        <time>2022-06-18T15:21:12Z</time>
      </trkpt>
      <trkpt lat="42.5108730" lon="-8.6493150">
        <ele>113.8</ele>
        <time>2022-06-18T15:21:13Z</time>
      </trkpt>
      <trkpt lat="42.5109130" lon="-8.6494300">
        <ele>113.8</ele>
        <time>2022-06-18T15:21:14Z</time>
      </trkpt>
      <trkpt lat="42.5109260" lon="-8.6494680">
        <ele>110.8</ele>
        <time>2022-06-18T15:21:15Z</time>
      </trkpt>
      <trkpt lat="42.5109510" lon="-8.6495460">
        <ele>110.8</ele>
        <time>2022-06-18T15:21:16Z</time>
      </trkpt>
      <trkpt lat="42.5109930" lon="-8.6496330">
        <ele>110.8</ele>
        <time>2022-06-18T15:21:17Z</time>
      </trkpt>
      <trkpt lat="42.5110110" lon="-8.6496560">
        <ele>109.8</ele>
        <time>2022-06-18T15:21:18Z</time>
      </trkpt>
      <trkpt lat="42.5110280" lon="-8.6496790">
        <ele>108.8</ele>
        <time>2022-06-18T15:21:19Z</time>
      </trkpt>
      <trkpt lat="42.5110800" lon="-8.6497480">
        <ele>108.8</ele>
        <time>2022-06-18T15:21:20Z</time>
      </trkpt>
      <trkpt lat="42.5111180" lon="-8.6497800">
        <ele>108.8</ele>
        <time>2022-06-18T15:21:21Z</time>
      </trkpt>
      <trkpt lat="42.5111530" lon="-8.6498160">
        <ele>108.8</ele>
        <time>2022-06-18T15:21:22Z</time>
      </trkpt>
      <trkpt lat="42.5111880" lon="-8.6498580">
        <ele>106.8</ele>
        <time>2022-06-18T15:21:23Z</time>
      </trkpt>
      <trkpt lat="42.5112200" lon="-8.6499010">
        <ele>106.8</ele>
        <time>2022-06-18T15:21:24Z</time>
      </trkpt>
      <trkpt lat="42.5112500" lon="-8.6499450">
        <ele>106.8</ele>
        <time>2022-06-18T15:21:25Z</time>
      </trkpt>
      <trkpt lat="42.5112500" lon="-8.6499450">
        <ele>105.8</ele>
        <time>2022-06-18T15:21:26Z</time>
      </trkpt>
      <trkpt lat="42.5113100" lon="-8.6500310">
        <ele>101.4</ele>
        <time>2022-06-18T15:21:27Z</time>
      </trkpt>
      <trkpt lat="42.5113410" lon="-8.6500710">
        <ele>101.4</ele>
        <time>2022-06-18T15:21:28Z</time>
      </trkpt>
      <trkpt lat="42.5113850" lon="-8.6501030">
        <ele>101.4</ele>
        <time>2022-06-18T15:21:29Z</time>
      </trkpt>
      <trkpt lat="42.5114360" lon="-8.6501280">
        <ele>101.4</ele>
        <time>2022-06-18T15:21:30Z</time>
      </trkpt>
      <trkpt lat="42.5114930" lon="-8.6501410">
        <ele>99.6</ele>
        <time>2022-06-18T15:21:31Z</time>
      </trkpt>
      <trkpt lat="42.5115600" lon="-8.6501460">
        <ele>99.6</ele>
        <time>2022-06-18T15:21:32Z</time>
      </trkpt>
      <trkpt lat="42.5116300" lon="-8.6501460">
        <ele>99.6</ele>
        <time>2022-06-18T15:21:33Z</time>
      </trkpt>
      <trkpt lat="42.5117060" lon="-8.6501360">
        <ele>98.6</ele>
        <time>2022-06-18T15:21:34Z</time>
      </trkpt>
      <trkpt lat="42.5117830" lon="-8.6501210">
        <ele>96.0</ele>
        <time>2022-06-18T15:21:35Z</time>
      </trkpt>
      <trkpt lat="42.5118630" lon="-8.6501050">
        <ele>96.0</ele>
        <time>2022-06-18T15:21:36Z</time>
      </trkpt>
      <trkpt lat="42.5119510" lon="-8.6500810">
        <ele>96.0</ele>
        <time>2022-06-18T15:21:37Z</time>
      </trkpt>
      <trkpt lat="42.5120410" lon="-8.6500600">
        <ele>95.0</ele>
        <time>2022-06-18T15:21:38Z</time>
      </trkpt>
      <trkpt lat="42.5121310" lon="-8.6500460">
        <ele>90.4</ele>
        <time>2022-06-18T15:21:39Z</time>
      </trkpt>
      <trkpt lat="42.5122180" lon="-8.6500350">
        <ele>90.4</ele>
        <time>2022-06-18T15:21:40Z</time>
      </trkpt>
      <trkpt lat="42.5123030" lon="-8.6500230">
        <ele>90.4</ele>
        <time>2022-06-18T15:21:41Z</time>
      </trkpt>
      <trkpt lat="42.5123880" lon="-8.6500250">
        <ele>91.4</ele>
        <time>2022-06-18T15:21:42Z</time>
      </trkpt>
      <trkpt lat="42.5124680" lon="-8.6500330">
        <ele>91.4</ele>
        <time>2022-06-18T15:21:43Z</time>
      </trkpt>
      <trkpt lat="42.5125480" lon="-8.6500380">
        <ele>91.4</ele>
        <time>2022-06-18T15:21:44Z</time>
      </trkpt>
      <trkpt lat="42.5126330" lon="-8.6500310">
        <ele>91.4</ele>
        <time>2022-06-18T15:21:45Z</time>
      </trkpt>
      <trkpt lat="42.5127150" lon="-8.6500200">
        <ele>91.4</ele>
        <time>2022-06-18T15:21:46Z</time>
      </trkpt>
      <trkpt lat="42.5127980" lon="-8.6499960">
        <ele>90.4</ele>
        <time>2022-06-18T15:21:47Z</time>
      </trkpt>
      <trkpt lat="42.5128800" lon="-8.6499700">
        <ele>90.4</ele>
        <time>2022-06-18T15:21:48Z</time>
      </trkpt>
      <trkpt lat="42.5129600" lon="-8.6499360">
        <ele>90.4</ele>
        <time>2022-06-18T15:21:49Z</time>
      </trkpt>
      <trkpt lat="42.5130330" lon="-8.6499000">
        <ele>90.4</ele>
        <time>2022-06-18T15:21:50Z</time>
      </trkpt>
      <trkpt lat="42.5130980" lon="-8.6498630">
        <ele>93.6</ele>
        <time>2022-06-18T15:21:51Z</time>
      </trkpt>
      <trkpt lat="42.5131450" lon="-8.6498260">
        <ele>93.6</ele>
        <time>2022-06-18T15:21:52Z</time>
      </trkpt>
      <trkpt lat="42.5131780" lon="-8.6497930">
        <ele>93.6</ele>
        <time>2022-06-18T15:21:53Z</time>
      </trkpt>
      <trkpt lat="42.5132000" lon="-8.6497660">
        <ele>93.6</ele>
        <time>2022-06-18T15:21:54Z</time>
      </trkpt>
      <trkpt lat="42.5132110" lon="-8.6497450">
        <ele>96.0</ele>
        <time>2022-06-18T15:21:55Z</time>
      </trkpt>
      <trkpt lat="42.5132230" lon="-8.6497330">
        <ele>96.0</ele>
        <time>2022-06-18T15:21:56Z</time>
      </trkpt>
      <trkpt lat="42.5132400" lon="-8.6497210">
        <ele>96.0</ele>
        <time>2022-06-18T15:21:57Z</time>
      </trkpt>
      <trkpt lat="42.5132560" lon="-8.6497060">
        <ele>96.0</ele>
        <time>2022-06-18T15:21:58Z</time>
      </trkpt>
      <trkpt lat="42.5132710" lon="-8.6496860">
        <ele>96.6</ele>
        <time>2022-06-18T15:21:59Z</time>
      </trkpt>
      <trkpt lat="42.5132830" lon="-8.6496680">
        <ele>96.6</ele>
        <time>2022-06-18T15:22:00Z</time>
      </trkpt>
      <trkpt lat="42.5132910" lon="-8.6496550">
        <ele>96.6</ele>
        <time>2022-06-18T15:22:01Z</time>
      </trkpt>
      <trkpt lat="42.5132950" lon="-8.6496510">
        <ele>96.6</ele>
        <time>2022-06-18T15:22:02Z</time>
      </trkpt>
      <trkpt lat="42.5133410" lon="-8.6496180">
        <ele>97.0</ele>
        <time>2022-06-18T15:25:31Z</time>
      </trkpt>
      <trkpt lat="42.5133530" lon="-8.6496080">
        <ele>97.0</ele>
        <time>2022-06-18T15:25:32Z</time>
      </trkpt>
      <trkpt lat="42.5133660" lon="-8.6495930">
        <ele>97.0</ele>
        <time>2022-06-18T15:25:33Z</time>
      </trkpt>
      <trkpt lat="42.5133810" lon="-8.6495800">
        <ele>96.8</ele>
        <time>2022-06-18T15:25:34Z</time>
      </trkpt>
      <trkpt lat="42.5133960" lon="-8.6495650">
        <ele>96.8</ele>
        <time>2022-06-18T15:25:35Z</time>
      </trkpt>
      <trkpt lat="42.5134130" lon="-8.6495510">
        <ele>96.8</ele>
        <time>2022-06-18T15:25:36Z</time>
      </trkpt>
      <trkpt lat="42.5134300" lon="-8.6495380">
        <ele>96.8</ele>
        <time>2022-06-18T15:25:37Z</time>
      </trkpt>
      <trkpt lat="42.5134460" lon="-8.6495230">
        <ele>96.8</ele>
        <time>2022-06-18T15:25:38Z</time>
      </trkpt>
      <trkpt lat="42.5134630" lon="-8.6495080">
        <ele>97.4</ele>
        <time>2022-06-18T15:25:39Z</time>
      </trkpt>
      <trkpt lat="42.5134800" lon="-8.6494900">
        <ele>97.4</ele>
        <time>2022-06-18T15:25:40Z</time>
      </trkpt>
      <trkpt lat="42.5134930" lon="-8.6494760">
        <ele>97.4</ele>
        <time>2022-06-18T15:25:41Z</time>
      </trkpt>
      <trkpt lat="42.5135030" lon="-8.6494650">
        <ele>97.4</ele>
        <time>2022-06-18T15:25:42Z</time>
      </trkpt>
      <trkpt lat="42.5135160" lon="-8.6494530">
        <ele>98.0</ele>
        <time>2022-06-18T15:25:43Z</time>
      </trkpt>
      <trkpt lat="42.5135310" lon="-8.6494450">
        <ele>98.0</ele>
        <time>2022-06-18T15:25:44Z</time>
      </trkpt>
      <trkpt lat="42.5135460" lon="-8.6494300">
        <ele>98.0</ele>
        <time>2022-06-18T15:25:45Z</time>
      </trkpt>
      <trkpt lat="42.5135610" lon="-8.6494110">
        <ele>97.4</ele>
        <time>2022-06-18T15:25:46Z</time>
      </trkpt>
      <trkpt lat="42.5135780" lon="-8.6493950">
        <ele>97.4</ele>
        <time>2022-06-18T15:25:47Z</time>
      </trkpt>
      <trkpt lat="42.5135960" lon="-8.6493800">
        <ele>97.4</ele>
        <time>2022-06-18T15:25:48Z</time>
      </trkpt>
      <trkpt lat="42.5136150" lon="-8.6493630">
        <ele>97.4</ele>
        <time>2022-06-18T15:25:49Z</time>
      </trkpt>
      <trkpt lat="42.5136330" lon="-8.6493480">
        <ele>98.0</ele>
        <time>2022-06-18T15:25:50Z</time>
      </trkpt>
      <trkpt lat="42.5136510" lon="-8.6493350">
        <ele>98.0</ele>
        <time>2022-06-18T15:25:51Z</time>
      </trkpt>
      <trkpt lat="42.5136710" lon="-8.6493180">
        <ele>98.0</ele>
        <time>2022-06-18T15:25:52Z</time>
      </trkpt>
      <trkpt lat="42.5136930" lon="-8.6493010">
        <ele>98.0</ele>
        <time>2022-06-18T15:25:53Z</time>
      </trkpt>
      <trkpt lat="42.5137150" lon="-8.6492860">
        <ele>97.4</ele>
        <time>2022-06-18T15:25:54Z</time>
      </trkpt>
      <trkpt lat="42.5137350" lon="-8.6492650">
        <ele>97.8</ele>
        <time>2022-06-18T15:25:55Z</time>
      </trkpt>
      <trkpt lat="42.5137560" lon="-8.6492450">
        <ele>97.8</ele>
        <time>2022-06-18T15:25:56Z</time>
      </trkpt>
      <trkpt lat="42.5137800" lon="-8.6492250">
        <ele>97.8</ele>
        <time>2022-06-18T15:25:57Z</time>
      </trkpt>
      <trkpt lat="42.5138060" lon="-8.6492030">
        <ele>97.8</ele>
        <time>2022-06-18T15:25:58Z</time>
      </trkpt>
      <trkpt lat="42.5138310" lon="-8.6491810">
        <ele>98.0</ele>
        <time>2022-06-18T15:25:59Z</time>
      </trkpt>
      <trkpt lat="42.5138610" lon="-8.6491630">
        <ele>98.0</ele>
        <time>2022-06-18T15:26:00Z</time>
      </trkpt>
      <trkpt lat="42.5138900" lon="-8.6491460">
        <ele>98.0</ele>
        <time>2022-06-18T15:26:01Z</time>
      </trkpt>
      <trkpt lat="42.5139180" lon="-8.6491310">
        <ele>98.0</ele>
        <time>2022-06-18T15:26:02Z</time>
      </trkpt>
      <trkpt lat="42.5139460" lon="-8.6491160">
        <ele>98.4</ele>
        <time>2022-06-18T15:26:03Z</time>
      </trkpt>
      <trkpt lat="42.5139460" lon="-8.6491160">
        <ele>98.4</ele>
        <time>2022-06-18T15:26:04Z</time>
      </trkpt>
      <trkpt lat="42.5140050" lon="-8.6490880">
        <ele>98.4</ele>
        <time>2022-06-18T15:26:05Z</time>
      </trkpt>
      <trkpt lat="42.5140360" lon="-8.6490750">
        <ele>98.4</ele>
        <time>2022-06-18T15:26:06Z</time>
      </trkpt>
      <trkpt lat="42.5140360" lon="-8.6490750">
        <ele>98.4</ele>
        <time>2022-06-18T15:26:07Z</time>
      </trkpt>
      <trkpt lat="42.5140960" lon="-8.6490530">
        <ele>98.4</ele>
        <time>2022-06-18T15:26:08Z</time>
      </trkpt>
      <trkpt lat="42.5141250" lon="-8.6490380">
        <ele>98.4</ele>
        <time>2022-06-18T15:26:09Z</time>
      </trkpt>
      <trkpt lat="42.5141510" lon="-8.6490250">
        <ele>98.8</ele>
        <time>2022-06-18T15:26:10Z</time>
      </trkpt>
      <trkpt lat="42.5141810" lon="-8.6490080">
        <ele>98.8</ele>
        <time>2022-06-18T15:26:11Z</time>
      </trkpt>
      <trkpt lat="42.5142130" lon="-8.6489930">
        <ele>98.8</ele>
        <time>2022-06-18T15:26:12Z</time>
      </trkpt>
      <trkpt lat="42.5142480" lon="-8.6489780">
        <ele>98.8</ele>
        <time>2022-06-18T15:26:13Z</time>
      </trkpt>
      <trkpt lat="42.5142810" lon="-8.6489610">
        <ele>98.8</ele>
        <time>2022-06-18T15:26:14Z</time>
      </trkpt>
      <trkpt lat="42.5143130" lon="-8.6489430">
        <ele>98.2</ele>
        <time>2022-06-18T15:26:15Z</time>
      </trkpt>
      <trkpt lat="42.5143450" lon="-8.6489200">
        <ele>98.2</ele>
        <time>2022-06-18T15:26:16Z</time>
      </trkpt>
      <trkpt lat="42.5143450" lon="-8.6489200">
        <ele>98.2</ele>
        <time>2022-06-18T15:26:17Z</time>
      </trkpt>
      <trkpt lat="42.5143450" lon="-8.6489200">
        <ele>98.2</ele>
        <time>2022-06-18T15:26:18Z</time>
      </trkpt>
      <trkpt lat="42.5144310" lon="-8.6488580">
        <ele>98.4</ele>
        <time>2022-06-18T15:26:19Z</time>
      </trkpt>
      <trkpt lat="42.5144650" lon="-8.6488410">
        <ele>98.4</ele>
        <time>2022-06-18T15:26:20Z</time>
      </trkpt>
      <trkpt lat="42.5144650" lon="-8.6488410">
        <ele>98.4</ele>
        <time>2022-06-18T15:26:21Z</time>
      </trkpt>
      <trkpt lat="42.5145260" lon="-8.6488080">
        <ele>98.6</ele>
        <time>2022-06-18T15:26:22Z</time>
      </trkpt>
      <trkpt lat="42.5145560" lon="-8.6487930">
        <ele>98.4</ele>
        <time>2022-06-18T15:26:23Z</time>
      </trkpt>
      <trkpt lat="42.5145560" lon="-8.6487930">
        <ele>98.4</ele>
        <time>2022-06-18T15:26:24Z</time>
      </trkpt>
      <trkpt lat="42.5146180" lon="-8.6487630">
        <ele>98.4</ele>
        <time>2022-06-18T15:26:25Z</time>
      </trkpt>
      <trkpt lat="42.5146460" lon="-8.6487480">
        <ele>99.0</ele>
        <time>2022-06-18T15:26:26Z</time>
      </trkpt>
      <trkpt lat="42.5146780" lon="-8.6487330">
        <ele>99.4</ele>
        <time>2022-06-18T15:26:27Z</time>
      </trkpt>
      <trkpt lat="42.5147100" lon="-8.6487210">
        <ele>99.4</ele>
        <time>2022-06-18T15:26:28Z</time>
      </trkpt>
      <trkpt lat="42.5147100" lon="-8.6487210">
        <ele>99.4</ele>
        <time>2022-06-18T15:26:29Z</time>
      </trkpt>
      <trkpt lat="42.5147660" lon="-8.6486980">
        <ele>99.4</ele>
        <time>2022-06-18T15:26:30Z</time>
      </trkpt>
      <trkpt lat="42.5147930" lon="-8.6486810">
        <ele>100.8</ele>
        <time>2022-06-18T15:26:31Z</time>
      </trkpt>
      <trkpt lat="42.5148200" lon="-8.6486650">
        <ele>100.8</ele>
        <time>2022-06-18T15:26:32Z</time>
      </trkpt>
      <trkpt lat="42.5148450" lon="-8.6486480">
        <ele>100.8</ele>
        <time>2022-06-18T15:26:33Z</time>
      </trkpt>
      <trkpt lat="42.5148450" lon="-8.6486480">
        <ele>100.8</ele>
        <time>2022-06-18T15:26:34Z</time>
      </trkpt>
      <trkpt lat="42.5148450" lon="-8.6486480">
        <ele>101.4</ele>
        <time>2022-06-18T15:26:35Z</time>
      </trkpt>
      <trkpt lat="42.5149300" lon="-8.6486000">
        <ele>101.4</ele>
        <time>2022-06-18T15:26:36Z</time>
      </trkpt>
      <trkpt lat="42.5149630" lon="-8.6485830">
        <ele>101.4</ele>
        <time>2022-06-18T15:26:37Z</time>
      </trkpt>
      <trkpt lat="42.5149950" lon="-8.6485700">
        <ele>101.2</ele>
        <time>2022-06-18T15:26:38Z</time>
      </trkpt>
      <trkpt lat="42.5150260" lon="-8.6485550">
        <ele>100.6</ele>
        <time>2022-06-18T15:26:39Z</time>
      </trkpt>
      <trkpt lat="42.5150600" lon="-8.6485400">
        <ele>100.6</ele>
        <time>2022-06-18T15:26:40Z</time>
      </trkpt>
      <trkpt lat="42.5150910" lon="-8.6485250">
        <ele>100.6</ele>
        <time>2022-06-18T15:26:41Z</time>
      </trkpt>
      <trkpt lat="42.5151250" lon="-8.6485100">
        <ele>100.6</ele>
        <time>2022-06-18T15:26:42Z</time>
      </trkpt>
      <trkpt lat="42.5151560" lon="-8.6484950">
        <ele>100.4</ele>
        <time>2022-06-18T15:26:43Z</time>
      </trkpt>
      <trkpt lat="42.5151900" lon="-8.6484780">
        <ele>100.4</ele>
        <time>2022-06-18T15:26:44Z</time>
      </trkpt>
      <trkpt lat="42.5152230" lon="-8.6484560">
        <ele>100.4</ele>
        <time>2022-06-18T15:26:45Z</time>
      </trkpt>
      <trkpt lat="42.5152580" lon="-8.6484300">
        <ele>99.4</ele>
        <time>2022-06-18T15:26:46Z</time>
      </trkpt>
      <trkpt lat="42.5152900" lon="-8.6483960">
        <ele>99.0</ele>
        <time>2022-06-18T15:26:47Z</time>
      </trkpt>
      <trkpt lat="42.5153230" lon="-8.6483600">
        <ele>99.0</ele>
        <time>2022-06-18T15:26:48Z</time>
      </trkpt>
      <trkpt lat="42.5153230" lon="-8.6483600">
        <ele>99.0</ele>
        <time>2022-06-18T15:26:49Z</time>
      </trkpt>
      <trkpt lat="42.5153980" lon="-8.6482880">
        <ele>98.0</ele>
        <time>2022-06-18T15:26:50Z</time>
      </trkpt>
      <trkpt lat="42.5154380" lon="-8.6482500">
        <ele>96.8</ele>
        <time>2022-06-18T15:26:51Z</time>
      </trkpt>
      <trkpt lat="42.5155020" lon="-8.6481940">
        <ele>96.8</ele>
        <time>2022-06-18T15:26:52Z</time>
      </trkpt>
      <trkpt lat="42.5155240" lon="-8.6481770">
        <ele>96.8</ele>
        <time>2022-06-18T15:26:53Z</time>
      </trkpt>
      <trkpt lat="42.5155680" lon="-8.6481430">
        <ele>96.8</ele>
        <time>2022-06-18T15:26:54Z</time>
      </trkpt>
      <trkpt lat="42.5156110" lon="-8.6481100">
        <ele>96.8</ele>
        <time>2022-06-18T15:26:55Z</time>
      </trkpt>
      <trkpt lat="42.5156580" lon="-8.6480730">
        <ele>96.8</ele>
        <time>2022-06-18T15:26:56Z</time>
      </trkpt>
      <trkpt lat="42.5157060" lon="-8.6480360">
        <ele>96.8</ele>
        <time>2022-06-18T15:26:57Z</time>
      </trkpt>
      <trkpt lat="42.5157790" lon="-8.6479780">
        <ele>97.0</ele>
        <time>2022-06-18T15:26:58Z</time>
      </trkpt>
      <trkpt lat="42.5158040" lon="-8.6479590">
        <ele>96.8</ele>
        <time>2022-06-18T15:26:59Z</time>
      </trkpt>
      <trkpt lat="42.5158530" lon="-8.6479200">
        <ele>96.8</ele>
        <time>2022-06-18T15:27:00Z</time>
      </trkpt>
      <trkpt lat="42.5159010" lon="-8.6478830">
        <ele>96.8</ele>
        <time>2022-06-18T15:27:01Z</time>
      </trkpt>
      <trkpt lat="42.5159480" lon="-8.6478450">
        <ele>96.8</ele>
        <time>2022-06-18T15:27:02Z</time>
      </trkpt>
      <trkpt lat="42.5159950" lon="-8.6478050">
        <ele>96.2</ele>
        <time>2022-06-18T15:27:03Z</time>
      </trkpt>
      <trkpt lat="42.5160400" lon="-8.6477630">
        <ele>96.2</ele>
        <time>2022-06-18T15:27:04Z</time>
      </trkpt>
      <trkpt lat="42.5160860" lon="-8.6477210">
        <ele>96.2</ele>
        <time>2022-06-18T15:27:05Z</time>
      </trkpt>
      <trkpt lat="42.5161570" lon="-8.6476660">
        <ele>95.2</ele>
        <time>2022-06-18T15:27:06Z</time>
      </trkpt>
      <trkpt lat="42.5161800" lon="-8.6476480">
        <ele>95.4</ele>
        <time>2022-06-18T15:27:07Z</time>
      </trkpt>
      <trkpt lat="42.5162280" lon="-8.6476110">
        <ele>95.4</ele>
        <time>2022-06-18T15:27:08Z</time>
      </trkpt>
      <trkpt lat="42.5162760" lon="-8.6475800">
        <ele>95.4</ele>
        <time>2022-06-18T15:27:09Z</time>
      </trkpt>
      <trkpt lat="42.5163260" lon="-8.6475480">
        <ele>96.0</ele>
        <time>2022-06-18T15:27:10Z</time>
      </trkpt>
      <trkpt lat="42.5163780" lon="-8.6475230">
        <ele>96.2</ele>
        <time>2022-06-18T15:27:11Z</time>
      </trkpt>
      <trkpt lat="42.5164300" lon="-8.6475080">
        <ele>96.2</ele>
        <time>2022-06-18T15:27:12Z</time>
      </trkpt>
      <trkpt lat="42.5165100" lon="-8.6474890">
        <ele>96.2</ele>
        <time>2022-06-18T15:27:13Z</time>
      </trkpt>
      <trkpt lat="42.5165370" lon="-8.6474840">
        <ele>96.2</ele>
        <time>2022-06-18T15:27:14Z</time>
      </trkpt>
      <trkpt lat="42.5165910" lon="-8.6474730">
        <ele>96.0</ele>
        <time>2022-06-18T15:27:15Z</time>
      </trkpt>
      <trkpt lat="42.5166450" lon="-8.6474600">
        <ele>96.0</ele>
        <time>2022-06-18T15:27:16Z</time>
      </trkpt>
      <trkpt lat="42.5166960" lon="-8.6474450">
        <ele>96.0</ele>
        <time>2022-06-18T15:27:17Z</time>
      </trkpt>
      <trkpt lat="42.5167480" lon="-8.6474260">
        <ele>96.0</ele>
        <time>2022-06-18T15:27:18Z</time>
      </trkpt>
      <trkpt lat="42.5168000" lon="-8.6474030">
        <ele>96.2</ele>
        <time>2022-06-18T15:27:19Z</time>
      </trkpt>
      <trkpt lat="42.5168480" lon="-8.6473780">
        <ele>96.2</ele>
        <time>2022-06-18T15:27:20Z</time>
      </trkpt>
      <trkpt lat="42.5169200" lon="-8.6473300">
        <ele>96.2</ele>
        <time>2022-06-18T15:27:21Z</time>
      </trkpt>
      <trkpt lat="42.5169440" lon="-8.6473130">
        <ele>96.0</ele>
        <time>2022-06-18T15:27:22Z</time>
      </trkpt>
      <trkpt lat="42.5169680" lon="-8.6472950">
        <ele>96.2</ele>
        <time>2022-06-18T15:27:23Z</time>
      </trkpt>
      <trkpt lat="42.5170410" lon="-8.6472430">
        <ele>96.2</ele>
        <time>2022-06-18T15:27:24Z</time>
      </trkpt>
      <trkpt lat="42.5170900" lon="-8.6472060">
        <ele>96.2</ele>
        <time>2022-06-18T15:27:25Z</time>
      </trkpt>
      <trkpt lat="42.5171400" lon="-8.6471730">
        <ele>95.2</ele>
        <time>2022-06-18T15:27:26Z</time>
      </trkpt>
      <trkpt lat="42.5171880" lon="-8.6471350">
        <ele>94.4</ele>
        <time>2022-06-18T15:27:27Z</time>
      </trkpt>
      <trkpt lat="42.5172380" lon="-8.6470980">
        <ele>94.4</ele>
        <time>2022-06-18T15:27:28Z</time>
      </trkpt>
      <trkpt lat="42.5172910" lon="-8.6470610">
        <ele>94.4</ele>
        <time>2022-06-18T15:27:29Z</time>
      </trkpt>
      <trkpt lat="42.5173430" lon="-8.6470250">
        <ele>95.2</ele>
        <time>2022-06-18T15:27:30Z</time>
      </trkpt>
      <trkpt lat="42.5173910" lon="-8.6469900">
        <ele>95.4</ele>
        <time>2022-06-18T15:27:31Z</time>
      </trkpt>
      <trkpt lat="42.5174710" lon="-8.6469270">
        <ele>95.4</ele>
        <time>2022-06-18T15:27:32Z</time>
      </trkpt>
      <trkpt lat="42.5174960" lon="-8.6469050">
        <ele>95.4</ele>
        <time>2022-06-18T15:27:33Z</time>
      </trkpt>
      <trkpt lat="42.5175480" lon="-8.6468600">
        <ele>94.4</ele>
        <time>2022-06-18T15:27:34Z</time>
      </trkpt>
      <trkpt lat="42.5175980" lon="-8.6468110">
        <ele>94.8</ele>
        <time>2022-06-18T15:27:35Z</time>
      </trkpt>
      <trkpt lat="42.5176480" lon="-8.6467610">
        <ele>94.8</ele>
        <time>2022-06-18T15:27:36Z</time>
      </trkpt>
      <trkpt lat="42.5176980" lon="-8.6467100">
        <ele>94.8</ele>
        <time>2022-06-18T15:27:37Z</time>
      </trkpt>
      <trkpt lat="42.5177450" lon="-8.6466530">
        <ele>94.8</ele>
        <time>2022-06-18T15:27:38Z</time>
      </trkpt>
      <trkpt lat="42.5177880" lon="-8.6465960">
        <ele>93.8</ele>
        <time>2022-06-18T15:27:39Z</time>
      </trkpt>
      <trkpt lat="42.5178330" lon="-8.6465380">
        <ele>93.8</ele>
        <time>2022-06-18T15:27:40Z</time>
      </trkpt>
      <trkpt lat="42.5178780" lon="-8.6464810">
        <ele>93.8</ele>
        <time>2022-06-18T15:27:41Z</time>
      </trkpt>
      <trkpt lat="42.5179250" lon="-8.6464230">
        <ele>93.8</ele>
        <time>2022-06-18T15:27:42Z</time>
      </trkpt>
      <trkpt lat="42.5179920" lon="-8.6463290">
        <ele>92.8</ele>
        <time>2022-06-18T15:27:43Z</time>
      </trkpt>
      <trkpt lat="42.5180140" lon="-8.6462970">
        <ele>92.8</ele>
        <time>2022-06-18T15:27:44Z</time>
      </trkpt>
      <trkpt lat="42.5180580" lon="-8.6462350">
        <ele>92.8</ele>
        <time>2022-06-18T15:27:45Z</time>
      </trkpt>
      <trkpt lat="42.5181010" lon="-8.6461680">
        <ele>92.4</ele>
        <time>2022-06-18T15:27:46Z</time>
      </trkpt>
      <trkpt lat="42.5181380" lon="-8.6461000">
        <ele>92.4</ele>
        <time>2022-06-18T15:27:47Z</time>
      </trkpt>
      <trkpt lat="42.5181750" lon="-8.6460280">
        <ele>92.4</ele>
        <time>2022-06-18T15:27:48Z</time>
      </trkpt>
      <trkpt lat="42.5182270" lon="-8.6459190">
        <ele>92.4</ele>
        <time>2022-06-18T15:27:49Z</time>
      </trkpt>
      <trkpt lat="42.5182450" lon="-8.6458820">
        <ele>92.4</ele>
        <time>2022-06-18T15:27:50Z</time>
      </trkpt>
      <trkpt lat="42.5182800" lon="-8.6458100">
        <ele>91.6</ele>
        <time>2022-06-18T15:27:51Z</time>
      </trkpt>
      <trkpt lat="42.5183110" lon="-8.6457410">
        <ele>91.6</ele>
        <time>2022-06-18T15:27:52Z</time>
      </trkpt>
      <trkpt lat="42.5183410" lon="-8.6456760">
        <ele>91.6</ele>
        <time>2022-06-18T15:27:53Z</time>
      </trkpt>
      <trkpt lat="42.5183660" lon="-8.6456180">
        <ele>91.6</ele>
        <time>2022-06-18T15:27:54Z</time>
      </trkpt>
      <trkpt lat="42.5183660" lon="-8.6456180">
        <ele>92.8</ele>
        <time>2022-06-18T15:27:55Z</time>
      </trkpt>
      <trkpt lat="42.5184050" lon="-8.6455360">
        <ele>92.8</ele>
        <time>2022-06-18T15:27:56Z</time>
      </trkpt>
      <trkpt lat="42.5184150" lon="-8.6455150">
        <ele>92.8</ele>
        <time>2022-06-18T15:27:57Z</time>
      </trkpt>
      <trkpt lat="42.5184210" lon="-8.6455000">
        <ele>93.4</ele>
        <time>2022-06-18T15:27:58Z</time>
      </trkpt>
      <trkpt lat="42.5184280" lon="-8.6454880">
        <ele>93.6</ele>
        <time>2022-06-18T15:27:59Z</time>
      </trkpt>
      <trkpt lat="42.5184310" lon="-8.6454850">
        <ele>93.6</ele>
        <time>2022-06-18T15:28:00Z</time>
      </trkpt>
      <trkpt lat="42.5184530" lon="-8.6454230">
        <ele>93.4</ele>
        <time>2022-06-18T15:28:14Z</time>
      </trkpt>
      <trkpt lat="42.5184610" lon="-8.6453860">
        <ele>93.4</ele>
        <time>2022-06-18T15:28:15Z</time>
      </trkpt>
      <trkpt lat="42.5184750" lon="-8.6453560">
        <ele>93.4</ele>
        <time>2022-06-18T15:28:16Z</time>
      </trkpt>
      <trkpt lat="42.5184880" lon="-8.6453260">
        <ele>93.4</ele>
        <time>2022-06-18T15:28:17Z</time>
      </trkpt>
      <trkpt lat="42.5185000" lon="-8.6452910">
        <ele>93.4</ele>
        <time>2022-06-18T15:28:18Z</time>
      </trkpt>
      <trkpt lat="42.5185130" lon="-8.6452550">
        <ele>93.2</ele>
        <time>2022-06-18T15:28:19Z</time>
      </trkpt>
      <trkpt lat="42.5185300" lon="-8.6452180">
        <ele>93.2</ele>
        <time>2022-06-18T15:28:20Z</time>
      </trkpt>
      <trkpt lat="42.5185460" lon="-8.6451810">
        <ele>93.2</ele>
        <time>2022-06-18T15:28:21Z</time>
      </trkpt>
      <trkpt lat="42.5185630" lon="-8.6451400">
        <ele>93.2</ele>
        <time>2022-06-18T15:28:22Z</time>
      </trkpt>
      <trkpt lat="42.5185800" lon="-8.6451010">
        <ele>93.0</ele>
        <time>2022-06-18T15:28:23Z</time>
      </trkpt>
      <trkpt lat="42.5185930" lon="-8.6450610">
        <ele>93.0</ele>
        <time>2022-06-18T15:28:24Z</time>
      </trkpt>
      <trkpt lat="42.5186110" lon="-8.6450250">
        <ele>93.0</ele>
        <time>2022-06-18T15:28:25Z</time>
      </trkpt>
      <trkpt lat="42.5186350" lon="-8.6449900">
        <ele>93.2</ele>
        <time>2022-06-18T15:28:26Z</time>
      </trkpt>
      <trkpt lat="42.5186610" lon="-8.6449610">
        <ele>93.2</ele>
        <time>2022-06-18T15:28:27Z</time>
      </trkpt>
      <trkpt lat="42.5186860" lon="-8.6449360">
        <ele>93.2</ele>
        <time>2022-06-18T15:28:28Z</time>
      </trkpt>
      <trkpt lat="42.5187060" lon="-8.6449180">
        <ele>93.2</ele>
        <time>2022-06-18T15:28:29Z</time>
      </trkpt>
      <trkpt lat="42.5187300" lon="-8.6449110">
        <ele>93.2</ele>
        <time>2022-06-18T15:28:30Z</time>
      </trkpt>
      <trkpt lat="42.5187560" lon="-8.6449250">
        <ele>93.4</ele>
        <time>2022-06-18T15:28:31Z</time>
      </trkpt>
      <trkpt lat="42.5187800" lon="-8.6449550">
        <ele>93.4</ele>
        <time>2022-06-18T15:28:32Z</time>
      </trkpt>
      <trkpt lat="42.5187930" lon="-8.6450030">
        <ele>93.4</ele>
        <time>2022-06-18T15:28:33Z</time>
      </trkpt>
      <trkpt lat="42.5188000" lon="-8.6450580">
        <ele>92.4</ele>
        <time>2022-06-18T15:28:34Z</time>
      </trkpt>
      <trkpt lat="42.5188000" lon="-8.6451100">
        <ele>90.8</ele>
        <time>2022-06-18T15:28:35Z</time>
      </trkpt>
      <trkpt lat="42.5188010" lon="-8.6451530">
        <ele>90.8</ele>
        <time>2022-06-18T15:28:36Z</time>
      </trkpt>
      <trkpt lat="42.5188030" lon="-8.6451800">
        <ele>90.8</ele>
        <time>2022-06-18T15:28:37Z</time>
      </trkpt>
      <trkpt lat="42.5188050" lon="-8.6451860">
        <ele>91.6</ele>
        <time>2022-06-18T15:28:38Z</time>
      </trkpt>
      <trkpt lat="42.5188050" lon="-8.6451860">
        <ele>91.4</ele>
        <time>2022-06-18T15:28:39Z</time>
      </trkpt>
      <trkpt lat="42.5188150" lon="-8.6452630">
        <ele>90.8</ele>
        <time>2022-06-18T15:29:04Z</time>
      </trkpt>
      <trkpt lat="42.5188200" lon="-8.6453050">
        <ele>90.8</ele>
        <time>2022-06-18T15:29:05Z</time>
      </trkpt>
      <trkpt lat="42.5188400" lon="-8.6453450">
        <ele>90.8</ele>
        <time>2022-06-18T15:29:06Z</time>
      </trkpt>
      <trkpt lat="42.5188710" lon="-8.6453680">
        <ele>90.0</ele>
        <time>2022-06-18T15:29:07Z</time>
      </trkpt>
      <trkpt lat="42.5189050" lon="-8.6453780">
        <ele>90.0</ele>
        <time>2022-06-18T15:29:08Z</time>
      </trkpt>
      <trkpt lat="42.5189330" lon="-8.6453760">
        <ele>90.0</ele>
        <time>2022-06-18T15:29:09Z</time>
      </trkpt>
      <trkpt lat="42.5189630" lon="-8.6453730">
        <ele>90.2</ele>
        <time>2022-06-18T15:29:10Z</time>
      </trkpt>
      <trkpt lat="42.5189960" lon="-8.6453760">
        <ele>89.4</ele>
        <time>2022-06-18T15:29:11Z</time>
      </trkpt>
      <trkpt lat="42.5190330" lon="-8.6453810">
        <ele>89.4</ele>
        <time>2022-06-18T15:29:12Z</time>
      </trkpt>
      <trkpt lat="42.5190760" lon="-8.6453860">
        <ele>89.4</ele>
        <time>2022-06-18T15:29:13Z</time>
      </trkpt>
      <trkpt lat="42.5191230" lon="-8.6453880">
        <ele>89.4</ele>
        <time>2022-06-18T15:29:14Z</time>
      </trkpt>
      <trkpt lat="42.5191730" lon="-8.6453850">
        <ele>88.4</ele>
        <time>2022-06-18T15:29:15Z</time>
      </trkpt>
      <trkpt lat="42.5192230" lon="-8.6453800">
        <ele>88.4</ele>
        <time>2022-06-18T15:29:16Z</time>
      </trkpt>
      <trkpt lat="42.5192730" lon="-8.6453780">
        <ele>88.4</ele>
        <time>2022-06-18T15:29:17Z</time>
      </trkpt>
      <trkpt lat="42.5193260" lon="-8.6453780">
        <ele>87.4</ele>
        <time>2022-06-18T15:29:18Z</time>
      </trkpt>
      <trkpt lat="42.5193800" lon="-8.6453810">
        <ele>87.0</ele>
        <time>2022-06-18T15:29:19Z</time>
      </trkpt>
      <trkpt lat="42.5194360" lon="-8.6453960">
        <ele>87.0</ele>
        <time>2022-06-18T15:29:20Z</time>
      </trkpt>
      <trkpt lat="42.5194930" lon="-8.6454050">
        <ele>87.0</ele>
        <time>2022-06-18T15:29:21Z</time>
      </trkpt>
      <trkpt lat="42.5195530" lon="-8.6454110">
        <ele>87.0</ele>
        <time>2022-06-18T15:29:22Z</time>
      </trkpt>
      <trkpt lat="42.5196180" lon="-8.6454110">
        <ele>85.0</ele>
        <time>2022-06-18T15:29:23Z</time>
      </trkpt>
      <trkpt lat="42.5196810" lon="-8.6454050">
        <ele>85.0</ele>
        <time>2022-06-18T15:29:24Z</time>
      </trkpt>
      <trkpt lat="42.5197460" lon="-8.6453860">
        <ele>85.0</ele>
        <time>2022-06-18T15:29:25Z</time>
      </trkpt>
      <trkpt lat="42.5198130" lon="-8.6453550">
        <ele>86.0</ele>
        <time>2022-06-18T15:29:26Z</time>
      </trkpt>
      <trkpt lat="42.5198750" lon="-8.6453150">
        <ele>85.8</ele>
        <time>2022-06-18T15:29:27Z</time>
      </trkpt>
      <trkpt lat="42.5199350" lon="-8.6452710">
        <ele>85.8</ele>
        <time>2022-06-18T15:29:28Z</time>
      </trkpt>
      <trkpt lat="42.5199900" lon="-8.6452210">
        <ele>85.8</ele>
        <time>2022-06-18T15:29:29Z</time>
      </trkpt>
      <trkpt lat="42.5200410" lon="-8.6451680">
        <ele>85.8</ele>
        <time>2022-06-18T15:29:30Z</time>
      </trkpt>
      <trkpt lat="42.5200910" lon="-8.6451110">
        <ele>85.0</ele>
        <time>2022-06-18T15:29:31Z</time>
      </trkpt>
      <trkpt lat="42.5201380" lon="-8.6450510">
        <ele>85.0</ele>
        <time>2022-06-18T15:29:32Z</time>
      </trkpt>
      <trkpt lat="42.5201850" lon="-8.6449880">
        <ele>85.0</ele>
        <time>2022-06-18T15:29:33Z</time>
      </trkpt>
      <trkpt lat="42.5202310" lon="-8.6449280">
        <ele>84.2</ele>
        <time>2022-06-18T15:29:34Z</time>
      </trkpt>
      <trkpt lat="42.5202760" lon="-8.6448680">
        <ele>84.0</ele>
        <time>2022-06-18T15:29:35Z</time>
      </trkpt>
      <trkpt lat="42.5203260" lon="-8.6448110">
        <ele>84.0</ele>
        <time>2022-06-18T15:29:36Z</time>
      </trkpt>
      <trkpt lat="42.5203780" lon="-8.6447580">
        <ele>84.0</ele>
        <time>2022-06-18T15:29:37Z</time>
      </trkpt>
      <trkpt lat="42.5204350" lon="-8.6447130">
        <ele>83.0</ele>
        <time>2022-06-18T15:29:38Z</time>
      </trkpt>
      <trkpt lat="42.5204950" lon="-8.6446800">
        <ele>82.0</ele>
        <time>2022-06-18T15:29:39Z</time>
      </trkpt>
      <trkpt lat="42.5205580" lon="-8.6446510">
        <ele>82.0</ele>
        <time>2022-06-18T15:29:40Z</time>
      </trkpt>
      <trkpt lat="42.5206230" lon="-8.6446280">
        <ele>82.0</ele>
        <time>2022-06-18T15:29:41Z</time>
      </trkpt>
      <trkpt lat="42.5206860" lon="-8.6446110">
        <ele>82.8</ele>
        <time>2022-06-18T15:29:42Z</time>
      </trkpt>
      <trkpt lat="42.5207480" lon="-8.6445950">
        <ele>82.4</ele>
        <time>2022-06-18T15:29:43Z</time>
      </trkpt>
      <trkpt lat="42.5208130" lon="-8.6445850">
        <ele>82.4</ele>
        <time>2022-06-18T15:29:44Z</time>
      </trkpt>
      <trkpt lat="42.5208750" lon="-8.6445910">
        <ele>82.4</ele>
        <time>2022-06-18T15:29:45Z</time>
      </trkpt>
      <trkpt lat="42.5209330" lon="-8.6446200">
        <ele>83.0</ele>
        <time>2022-06-18T15:29:46Z</time>
      </trkpt>
      <trkpt lat="42.5209850" lon="-8.6446660">
        <ele>80.2</ele>
        <time>2022-06-18T15:29:47Z</time>
      </trkpt>
      <trkpt lat="42.5210330" lon="-8.6447210">
        <ele>80.2</ele>
        <time>2022-06-18T15:29:48Z</time>
      </trkpt>
      <trkpt lat="42.5210800" lon="-8.6447780">
        <ele>80.2</ele>
        <time>2022-06-18T15:29:49Z</time>
      </trkpt>
      <trkpt lat="42.5211260" lon="-8.6448330">
        <ele>81.2</ele>
        <time>2022-06-18T15:29:50Z</time>
      </trkpt>
      <trkpt lat="42.5211760" lon="-8.6448800">
        <ele>83.4</ele>
        <time>2022-06-18T15:29:51Z</time>
      </trkpt>
      <trkpt lat="42.5212260" lon="-8.6449200">
        <ele>83.4</ele>
        <time>2022-06-18T15:29:52Z</time>
      </trkpt>
      <trkpt lat="42.5212750" lon="-8.6449550">
        <ele>83.4</ele>
        <time>2022-06-18T15:29:53Z</time>
      </trkpt>
      <trkpt lat="42.5213180" lon="-8.6449830">
        <ele>83.4</ele>
        <time>2022-06-18T15:29:54Z</time>
      </trkpt>
      <trkpt lat="42.5213610" lon="-8.6450080">
        <ele>83.4</ele>
        <time>2022-06-18T15:29:55Z</time>
      </trkpt>
      <trkpt lat="42.5214030" lon="-8.6450310">
        <ele>83.4</ele>
        <time>2022-06-18T15:29:56Z</time>
      </trkpt>
      <trkpt lat="42.5214410" lon="-8.6450550">
        <ele>83.4</ele>
        <time>2022-06-18T15:29:57Z</time>
      </trkpt>
      <trkpt lat="42.5214860" lon="-8.6450660">
        <ele>83.4</ele>
        <time>2022-06-18T15:29:58Z</time>
      </trkpt>
      <trkpt lat="42.5215350" lon="-8.6450760">
        <ele>83.0</ele>
        <time>2022-06-18T15:29:59Z</time>
      </trkpt>
      <trkpt lat="42.5215780" lon="-8.6450830">
        <ele>83.0</ele>
        <time>2022-06-18T15:30:00Z</time>
      </trkpt>
      <trkpt lat="42.5216230" lon="-8.6450900">
        <ele>83.0</ele>
        <time>2022-06-18T15:30:01Z</time>
      </trkpt>
      <trkpt lat="42.5216710" lon="-8.6450880">
        <ele>83.6</ele>
        <time>2022-06-18T15:30:02Z</time>
      </trkpt>
      <trkpt lat="42.5217180" lon="-8.6450860">
        <ele>83.4</ele>
        <time>2022-06-18T15:30:03Z</time>
      </trkpt>
      <trkpt lat="42.5217650" lon="-8.6450880">
        <ele>83.4</ele>
        <time>2022-06-18T15:30:04Z</time>
      </trkpt>
      <trkpt lat="42.5218100" lon="-8.6450930">
        <ele>83.4</ele>
        <time>2022-06-18T15:30:05Z</time>
      </trkpt>
      <trkpt lat="42.5218500" lon="-8.6451000">
        <ele>84.4</ele>
        <time>2022-06-18T15:30:06Z</time>
      </trkpt>
      <trkpt lat="42.5218900" lon="-8.6451060">
        <ele>85.2</ele>
        <time>2022-06-18T15:30:07Z</time>
      </trkpt>
      <trkpt lat="42.5219280" lon="-8.6451100">
        <ele>85.2</ele>
        <time>2022-06-18T15:30:08Z</time>
      </trkpt>
      <trkpt lat="42.5219660" lon="-8.6451160">
        <ele>85.2</ele>
        <time>2022-06-18T15:30:09Z</time>
      </trkpt>
      <trkpt lat="42.5220030" lon="-8.6451210">
        <ele>85.2</ele>
        <time>2022-06-18T15:30:10Z</time>
      </trkpt>
      <trkpt lat="42.5220400" lon="-8.6451260">
        <ele>85.8</ele>
        <time>2022-06-18T15:30:11Z</time>
      </trkpt>
      <trkpt lat="42.5220710" lon="-8.6451330">
        <ele>85.8</ele>
        <time>2022-06-18T15:30:12Z</time>
      </trkpt>
      <trkpt lat="42.5221030" lon="-8.6451380">
        <ele>85.8</ele>
        <time>2022-06-18T15:30:13Z</time>
      </trkpt>
      <trkpt lat="42.5221350" lon="-8.6451410">
        <ele>85.8</ele>
        <time>2022-06-18T15:30:14Z</time>
      </trkpt>
      <trkpt lat="42.5221610" lon="-8.6451500">
        <ele>86.4</ele>
        <time>2022-06-18T15:30:15Z</time>
      </trkpt>
      <trkpt lat="42.5221860" lon="-8.6451600">
        <ele>86.4</ele>
        <time>2022-06-18T15:30:16Z</time>
      </trkpt>
      <trkpt lat="42.5222080" lon="-8.6451660">
        <ele>86.4</ele>
        <time>2022-06-18T15:30:17Z</time>
      </trkpt>
      <trkpt lat="42.5222250" lon="-8.6451760">
        <ele>86.4</ele>
        <time>2022-06-18T15:30:18Z</time>
      </trkpt>
      <trkpt lat="42.5222380" lon="-8.6451850">
        <ele>87.4</ele>
        <time>2022-06-18T15:30:19Z</time>
      </trkpt>
      <trkpt lat="42.5222600" lon="-8.6451950">
        <ele>87.4</ele>
        <time>2022-06-18T15:30:20Z</time>
      </trkpt>
      <trkpt lat="42.5222880" lon="-8.6452100">
        <ele>87.4</ele>
        <time>2022-06-18T15:30:21Z</time>
      </trkpt>
      <trkpt lat="42.5223150" lon="-8.6452230">
        <ele>88.0</ele>
        <time>2022-06-18T15:30:22Z</time>
      </trkpt>
      <trkpt lat="42.5223380" lon="-8.6452360">
        <ele>88.4</ele>
        <time>2022-06-18T15:30:23Z</time>
      </trkpt>
      <trkpt lat="42.5223630" lon="-8.6452500">
        <ele>88.4</ele>
        <time>2022-06-18T15:30:24Z</time>
      </trkpt>
      <trkpt lat="42.5223880" lon="-8.6452660">
        <ele>88.4</ele>
        <time>2022-06-18T15:30:25Z</time>
      </trkpt>
      <trkpt lat="42.5224110" lon="-8.6452830">
        <ele>89.4</ele>
        <time>2022-06-18T15:30:26Z</time>
      </trkpt>
      <trkpt lat="42.5224350" lon="-8.6453030">
        <ele>89.2</ele>
        <time>2022-06-18T15:30:27Z</time>
      </trkpt>
      <trkpt lat="42.5224610" lon="-8.6453250">
        <ele>89.2</ele>
        <time>2022-06-18T15:30:28Z</time>
      </trkpt>
      <trkpt lat="42.5224880" lon="-8.6453480">
        <ele>89.2</ele>
        <time>2022-06-18T15:30:29Z</time>
      </trkpt>
      <trkpt lat="42.5225130" lon="-8.6453650">
        <ele>90.2</ele>
        <time>2022-06-18T15:30:30Z</time>
      </trkpt>
      <trkpt lat="42.5225360" lon="-8.6453830">
        <ele>90.6</ele>
        <time>2022-06-18T15:30:31Z</time>
      </trkpt>
      <trkpt lat="42.5225600" lon="-8.6453980">
        <ele>90.6</ele>
        <time>2022-06-18T15:30:32Z</time>
      </trkpt>
      <trkpt lat="42.5225830" lon="-8.6454150">
        <ele>90.6</ele>
        <time>2022-06-18T15:30:33Z</time>
      </trkpt>
      <trkpt lat="42.5226050" lon="-8.6454330">
        <ele>90.8</ele>
        <time>2022-06-18T15:30:34Z</time>
      </trkpt>
      <trkpt lat="42.5226260" lon="-8.6454480">
        <ele>91.2</ele>
        <time>2022-06-18T15:30:35Z</time>
      </trkpt>
      <trkpt lat="42.5226450" lon="-8.6454630">
        <ele>91.2</ele>
        <time>2022-06-18T15:30:36Z</time>
      </trkpt>
      <trkpt lat="42.5226680" lon="-8.6454810">
        <ele>91.2</ele>
        <time>2022-06-18T15:30:37Z</time>
      </trkpt>
      <trkpt lat="42.5226930" lon="-8.6455010">
        <ele>91.8</ele>
        <time>2022-06-18T15:30:38Z</time>
      </trkpt>
      <trkpt lat="42.5227160" lon="-8.6455210">
        <ele>92.0</ele>
        <time>2022-06-18T15:30:39Z</time>
      </trkpt>
      <trkpt lat="42.5227400" lon="-8.6455350">
        <ele>92.0</ele>
        <time>2022-06-18T15:30:40Z</time>
      </trkpt>
      <trkpt lat="42.5227580" lon="-8.6455460">
        <ele>92.0</ele>
        <time>2022-06-18T15:30:41Z</time>
      </trkpt>
      <trkpt lat="42.5227810" lon="-8.6455580">
        <ele>92.0</ele>
        <time>2022-06-18T15:30:42Z</time>
      </trkpt>
      <trkpt lat="42.5228050" lon="-8.6455710">
        <ele>92.6</ele>
        <time>2022-06-18T15:30:43Z</time>
      </trkpt>
      <trkpt lat="42.5228280" lon="-8.6455810">
        <ele>92.6</ele>
        <time>2022-06-18T15:30:44Z</time>
      </trkpt>
      <trkpt lat="42.5228510" lon="-8.6455930">
        <ele>92.6</ele>
        <time>2022-06-18T15:30:45Z</time>
      </trkpt>
      <trkpt lat="42.5228780" lon="-8.6456050">
        <ele>93.0</ele>
        <time>2022-06-18T15:30:46Z</time>
      </trkpt>
      <trkpt lat="42.5229080" lon="-8.6456150">
        <ele>93.4</ele>
        <time>2022-06-18T15:30:47Z</time>
      </trkpt>
      <trkpt lat="42.5229350" lon="-8.6456230">
        <ele>93.4</ele>
        <time>2022-06-18T15:30:48Z</time>
      </trkpt>
      <trkpt lat="42.5229650" lon="-8.6456330">
        <ele>93.4</ele>
        <time>2022-06-18T15:30:49Z</time>
      </trkpt>
      <trkpt lat="42.5229960" lon="-8.6456380">
        <ele>93.4</ele>
        <time>2022-06-18T15:30:50Z</time>
      </trkpt>
      <trkpt lat="42.5230280" lon="-8.6456410">
        <ele>94.0</ele>
        <time>2022-06-18T15:30:51Z</time>
      </trkpt>
      <trkpt lat="42.5230580" lon="-8.6456460">
        <ele>94.0</ele>
        <time>2022-06-18T15:30:52Z</time>
      </trkpt>
      <trkpt lat="42.5230850" lon="-8.6456510">
        <ele>94.0</ele>
        <time>2022-06-18T15:30:53Z</time>
      </trkpt>
      <trkpt lat="42.5231060" lon="-8.6456600">
        <ele>95.0</ele>
        <time>2022-06-18T15:30:54Z</time>
      </trkpt>
      <trkpt lat="42.5231300" lon="-8.6456660">
        <ele>95.0</ele>
        <time>2022-06-18T15:30:55Z</time>
      </trkpt>
      <trkpt lat="42.5231510" lon="-8.6456730">
        <ele>95.0</ele>
        <time>2022-06-18T15:30:56Z</time>
      </trkpt>
      <trkpt lat="42.5231710" lon="-8.6456810">
        <ele>95.0</ele>
        <time>2022-06-18T15:30:57Z</time>
      </trkpt>
      <trkpt lat="42.5231910" lon="-8.6456880">
        <ele>96.0</ele>
        <time>2022-06-18T15:30:58Z</time>
      </trkpt>
      <trkpt lat="42.5232160" lon="-8.6457030">
        <ele>95.6</ele>
        <time>2022-06-18T15:30:59Z</time>
      </trkpt>
      <trkpt lat="42.5232400" lon="-8.6457160">
        <ele>95.6</ele>
        <time>2022-06-18T15:31:00Z</time>
      </trkpt>
      <trkpt lat="42.5232610" lon="-8.6457300">
        <ele>95.6</ele>
        <time>2022-06-18T15:31:01Z</time>
      </trkpt>
      <trkpt lat="42.5232800" lon="-8.6457460">
        <ele>96.6</ele>
        <time>2022-06-18T15:31:02Z</time>
      </trkpt>
      <trkpt lat="42.5232980" lon="-8.6457650">
        <ele>97.0</ele>
        <time>2022-06-18T15:31:03Z</time>
      </trkpt>
      <trkpt lat="42.5233150" lon="-8.6457850">
        <ele>97.0</ele>
        <time>2022-06-18T15:31:04Z</time>
      </trkpt>
      <trkpt lat="42.5233300" lon="-8.6458050">
        <ele>97.0</ele>
        <time>2022-06-18T15:31:05Z</time>
      </trkpt>
      <trkpt lat="42.5233450" lon="-8.6458260">
        <ele>98.0</ele>
        <time>2022-06-18T15:31:06Z</time>
      </trkpt>
      <trkpt lat="42.5233580" lon="-8.6458530">
        <ele>98.0</ele>
        <time>2022-06-18T15:31:07Z</time>
      </trkpt>
      <trkpt lat="42.5233710" lon="-8.6458750">
        <ele>98.0</ele>
        <time>2022-06-18T15:31:08Z</time>
      </trkpt>
      <trkpt lat="42.5233830" lon="-8.6458960">
        <ele>98.0</ele>
        <time>2022-06-18T15:31:09Z</time>
      </trkpt>
      <trkpt lat="42.5233930" lon="-8.6459210">
        <ele>98.0</ele>
        <time>2022-06-18T15:31:10Z</time>
      </trkpt>
      <trkpt lat="42.5234030" lon="-8.6459460">
        <ele>98.8</ele>
        <time>2022-06-18T15:31:11Z</time>
      </trkpt>
      <trkpt lat="42.5234110" lon="-8.6459730">
        <ele>98.8</ele>
        <time>2022-06-18T15:31:12Z</time>
      </trkpt>
      <trkpt lat="42.5234180" lon="-8.6459980">
        <ele>98.8</ele>
        <time>2022-06-18T15:31:13Z</time>
      </trkpt>
      <trkpt lat="42.5234280" lon="-8.6460210">
        <ele>98.8</ele>
        <time>2022-06-18T15:31:14Z</time>
      </trkpt>
      <trkpt lat="42.5234360" lon="-8.6460450">
        <ele>99.4</ele>
        <time>2022-06-18T15:31:15Z</time>
      </trkpt>
      <trkpt lat="42.5234380" lon="-8.6460680">
        <ele>99.4</ele>
        <time>2022-06-18T15:31:16Z</time>
      </trkpt>
      <trkpt lat="42.5234410" lon="-8.6460910">
        <ele>99.4</ele>
        <time>2022-06-18T15:31:17Z</time>
      </trkpt>
      <trkpt lat="42.5234460" lon="-8.6461150">
        <ele>100.4</ele>
        <time>2022-06-18T15:31:18Z</time>
      </trkpt>
      <trkpt lat="42.5234480" lon="-8.6461360">
        <ele>99.8</ele>
        <time>2022-06-18T15:31:19Z</time>
      </trkpt>
      <trkpt lat="42.5234500" lon="-8.6461580">
        <ele>99.8</ele>
        <time>2022-06-18T15:31:20Z</time>
      </trkpt>
      <trkpt lat="42.5234480" lon="-8.6461800">
        <ele>99.8</ele>
        <time>2022-06-18T15:31:21Z</time>
      </trkpt>
      <trkpt lat="42.5234450" lon="-8.6462030">
        <ele>100.8</ele>
        <time>2022-06-18T15:31:22Z</time>
      </trkpt>
      <trkpt lat="42.5234430" lon="-8.6462300">
        <ele>101.2</ele>
        <time>2022-06-18T15:31:23Z</time>
      </trkpt>
      <trkpt lat="42.5234430" lon="-8.6462550">
        <ele>101.2</ele>
        <time>2022-06-18T15:31:24Z</time>
      </trkpt>
      <trkpt lat="42.5234380" lon="-8.6462800">
        <ele>101.2</ele>
        <time>2022-06-18T15:31:25Z</time>
      </trkpt>
      <trkpt lat="42.5234310" lon="-8.6463000">
        <ele>101.2</ele>
        <time>2022-06-18T15:31:26Z</time>
      </trkpt>
      <trkpt lat="42.5234260" lon="-8.6463200">
        <ele>101.2</ele>
        <time>2022-06-18T15:31:27Z</time>
      </trkpt>
      <trkpt lat="42.5234180" lon="-8.6463410">
        <ele>101.2</ele>
        <time>2022-06-18T15:31:28Z</time>
      </trkpt>
      <trkpt lat="42.5234110" lon="-8.6463650">
        <ele>101.2</ele>
        <time>2022-06-18T15:31:29Z</time>
      </trkpt>
      <trkpt lat="42.5234050" lon="-8.6463880">
        <ele>101.8</ele>
        <time>2022-06-18T15:31:30Z</time>
      </trkpt>
      <trkpt lat="42.5233950" lon="-8.6464130">
        <ele>102.0</ele>
        <time>2022-06-18T15:31:31Z</time>
      </trkpt>
      <trkpt lat="42.5233880" lon="-8.6464360">
        <ele>102.0</ele>
        <time>2022-06-18T15:31:32Z</time>
      </trkpt>
      <trkpt lat="42.5233850" lon="-8.6464610">
        <ele>102.0</ele>
        <time>2022-06-18T15:31:33Z</time>
      </trkpt>
      <trkpt lat="42.5233800" lon="-8.6464860">
        <ele>102.0</ele>
        <time>2022-06-18T15:31:34Z</time>
      </trkpt>
      <trkpt lat="42.5233760" lon="-8.6465110">
        <ele>101.8</ele>
        <time>2022-06-18T15:31:35Z</time>
      </trkpt>
      <trkpt lat="42.5233760" lon="-8.6465360">
        <ele>101.8</ele>
        <time>2022-06-18T15:31:36Z</time>
      </trkpt>
      <trkpt lat="42.5233800" lon="-8.6465630">
        <ele>101.8</ele>
        <time>2022-06-18T15:31:37Z</time>
      </trkpt>
      <trkpt lat="42.5233830" lon="-8.6465950">
        <ele>101.8</ele>
        <time>2022-06-18T15:31:38Z</time>
      </trkpt>
      <trkpt lat="42.5233900" lon="-8.6466250">
        <ele>102.0</ele>
        <time>2022-06-18T15:31:39Z</time>
      </trkpt>
      <trkpt lat="42.5233980" lon="-8.6466500">
        <ele>102.0</ele>
        <time>2022-06-18T15:31:40Z</time>
      </trkpt>
      <trkpt lat="42.5234130" lon="-8.6466700">
        <ele>102.0</ele>
        <time>2022-06-18T15:31:41Z</time>
      </trkpt>
      <trkpt lat="42.5234330" lon="-8.6466760">
        <ele>102.0</ele>
        <time>2022-06-18T15:31:42Z</time>
      </trkpt>
      <trkpt lat="42.5234560" lon="-8.6466680">
        <ele>102.6</ele>
        <time>2022-06-18T15:31:43Z</time>
      </trkpt>
      <trkpt lat="42.5234780" lon="-8.6466510">
        <ele>102.6</ele>
        <time>2022-06-18T15:31:44Z</time>
      </trkpt>
      <trkpt lat="42.5235000" lon="-8.6466350">
        <ele>102.6</ele>
        <time>2022-06-18T15:31:45Z</time>
      </trkpt>
      <trkpt lat="42.5235210" lon="-8.6466160">
        <ele>101.8</ele>
        <time>2022-06-18T15:31:46Z</time>
      </trkpt>
      <trkpt lat="42.5235450" lon="-8.6465980">
        <ele>102.0</ele>
        <time>2022-06-18T15:31:47Z</time>
      </trkpt>
      <trkpt lat="42.5235680" lon="-8.6465760">
        <ele>102.0</ele>
        <time>2022-06-18T15:31:48Z</time>
      </trkpt>
      <trkpt lat="42.5235910" lon="-8.6465560">
        <ele>102.0</ele>
        <time>2022-06-18T15:31:49Z</time>
      </trkpt>
      <trkpt lat="42.5236180" lon="-8.6465400">
        <ele>101.4</ele>
        <time>2022-06-18T15:31:50Z</time>
      </trkpt>
      <trkpt lat="42.5236460" lon="-8.6465230">
        <ele>101.2</ele>
        <time>2022-06-18T15:31:51Z</time>
      </trkpt>
      <trkpt lat="42.5236760" lon="-8.6465030">
        <ele>101.2</ele>
        <time>2022-06-18T15:31:52Z</time>
      </trkpt>
      <trkpt lat="42.5237080" lon="-8.6464810">
        <ele>101.2</ele>
        <time>2022-06-18T15:31:53Z</time>
      </trkpt>
      <trkpt lat="42.5237410" lon="-8.6464630">
        <ele>100.6</ele>
        <time>2022-06-18T15:31:54Z</time>
      </trkpt>
      <trkpt lat="42.5237750" lon="-8.6464450">
        <ele>101.0</ele>
        <time>2022-06-18T15:31:55Z</time>
      </trkpt>
      <trkpt lat="42.5238110" lon="-8.6464260">
        <ele>101.0</ele>
        <time>2022-06-18T15:31:56Z</time>
      </trkpt>
      <trkpt lat="42.5238500" lon="-8.6464100">
        <ele>101.0</ele>
        <time>2022-06-18T15:31:57Z</time>
      </trkpt>
      <trkpt lat="42.5238930" lon="-8.6463930">
        <ele>100.0</ele>
        <time>2022-06-18T15:31:58Z</time>
      </trkpt>
      <trkpt lat="42.5239360" lon="-8.6463880">
        <ele>97.4</ele>
        <time>2022-06-18T15:31:59Z</time>
      </trkpt>
      <trkpt lat="42.5239810" lon="-8.6463930">
        <ele>97.4</ele>
        <time>2022-06-18T15:32:00Z</time>
      </trkpt>
      <trkpt lat="42.5240250" lon="-8.6464010">
        <ele>97.4</ele>
        <time>2022-06-18T15:32:01Z</time>
      </trkpt>
      <trkpt lat="42.5240680" lon="-8.6464110">
        <ele>97.6</ele>
        <time>2022-06-18T15:32:02Z</time>
      </trkpt>
      <trkpt lat="42.5241100" lon="-8.6464280">
        <ele>98.0</ele>
        <time>2022-06-18T15:32:03Z</time>
      </trkpt>
      <trkpt lat="42.5241500" lon="-8.6464460">
        <ele>98.0</ele>
        <time>2022-06-18T15:32:04Z</time>
      </trkpt>
      <trkpt lat="42.5241900" lon="-8.6464610">
        <ele>98.0</ele>
        <time>2022-06-18T15:32:05Z</time>
      </trkpt>
      <trkpt lat="42.5242280" lon="-8.6464710">
        <ele>97.4</ele>
        <time>2022-06-18T15:32:06Z</time>
      </trkpt>
      <trkpt lat="42.5242610" lon="-8.6464810">
        <ele>97.6</ele>
        <time>2022-06-18T15:32:07Z</time>
      </trkpt>
      <trkpt lat="42.5242930" lon="-8.6464900">
        <ele>97.6</ele>
        <time>2022-06-18T15:32:08Z</time>
      </trkpt>
      <trkpt lat="42.5243180" lon="-8.6464980">
        <ele>97.6</ele>
        <time>2022-06-18T15:32:09Z</time>
      </trkpt>
      <trkpt lat="42.5243400" lon="-8.6465060">
        <ele>97.6</ele>
        <time>2022-06-18T15:32:10Z</time>
      </trkpt>
      <trkpt lat="42.5243600" lon="-8.6465150">
        <ele>97.6</ele>
        <time>2022-06-18T15:32:11Z</time>
      </trkpt>
      <trkpt lat="42.5243810" lon="-8.6465200">
        <ele>97.6</ele>
        <time>2022-06-18T15:32:12Z</time>
      </trkpt>
      <trkpt lat="42.5244030" lon="-8.6465230">
        <ele>97.6</ele>
        <time>2022-06-18T15:32:13Z</time>
      </trkpt>
      <trkpt lat="42.5244210" lon="-8.6465210">
        <ele>96.6</ele>
        <time>2022-06-18T15:32:14Z</time>
      </trkpt>
      <trkpt lat="42.5244360" lon="-8.6465210">
        <ele>97.2</ele>
        <time>2022-06-18T15:32:15Z</time>
      </trkpt>
      <trkpt lat="42.5244510" lon="-8.6465230">
        <ele>97.2</ele>
        <time>2022-06-18T15:32:16Z</time>
      </trkpt>
      <trkpt lat="42.5244650" lon="-8.6465230">
        <ele>97.2</ele>
        <time>2022-06-18T15:32:17Z</time>
      </trkpt>
      <trkpt lat="42.5244750" lon="-8.6465210">
        <ele>96.8</ele>
        <time>2022-06-18T15:32:18Z</time>
      </trkpt>
      <trkpt lat="42.5244830" lon="-8.6465200">
        <ele>96.8</ele>
        <time>2022-06-18T15:32:19Z</time>
      </trkpt>
      <trkpt lat="42.5244900" lon="-8.6465130">
        <ele>96.8</ele>
        <time>2022-06-18T15:32:20Z</time>
      </trkpt>
      <trkpt lat="42.5244950" lon="-8.6465060">
        <ele>96.8</ele>
        <time>2022-06-18T15:32:21Z</time>
      </trkpt>
      <trkpt lat="42.5244950" lon="-8.6465060">
        <ele>96.8</ele>
        <time>2022-06-18T15:32:22Z</time>
      </trkpt>
      <trkpt lat="42.5245030" lon="-8.6464600">
        <ele>96.4</ele>
        <time>2022-06-18T15:32:33Z</time>
      </trkpt>
      <trkpt lat="42.5245060" lon="-8.6464250">
        <ele>96.4</ele>
        <time>2022-06-18T15:32:34Z</time>
      </trkpt>
      <trkpt lat="42.5245100" lon="-8.6463850">
        <ele>95.6</ele>
        <time>2022-06-18T15:32:35Z</time>
      </trkpt>
      <trkpt lat="42.5245150" lon="-8.6463400">
        <ele>95.6</ele>
        <time>2022-06-18T15:32:36Z</time>
      </trkpt>
      <trkpt lat="42.5245200" lon="-8.6462930">
        <ele>95.6</ele>
        <time>2022-06-18T15:32:37Z</time>
      </trkpt>
      <trkpt lat="42.5245260" lon="-8.6462410">
        <ele>94.8</ele>
        <time>2022-06-18T15:32:38Z</time>
      </trkpt>
      <trkpt lat="42.5245360" lon="-8.6461860">
        <ele>94.8</ele>
        <time>2022-06-18T15:32:39Z</time>
      </trkpt>
      <trkpt lat="42.5245480" lon="-8.6461280">
        <ele>94.8</ele>
        <time>2022-06-18T15:32:40Z</time>
      </trkpt>
      <trkpt lat="42.5245880" lon="-8.6460460">
        <ele>94.8</ele>
        <time>2022-06-18T15:32:41Z</time>
      </trkpt>
      <trkpt lat="42.5246050" lon="-8.6460220">
        <ele>94.8</ele>
        <time>2022-06-18T15:32:42Z</time>
      </trkpt>
      <trkpt lat="42.5246410" lon="-8.6459730">
        <ele>93.0</ele>
        <time>2022-06-18T15:32:43Z</time>
      </trkpt>
      <trkpt lat="42.5246850" lon="-8.6459310">
        <ele>93.0</ele>
        <time>2022-06-18T15:32:44Z</time>
      </trkpt>
      <trkpt lat="42.5247570" lon="-8.6458820">
        <ele>93.0</ele>
        <time>2022-06-18T15:32:45Z</time>
      </trkpt>
      <trkpt lat="42.5247830" lon="-8.6458670">
        <ele>93.0</ele>
        <time>2022-06-18T15:32:46Z</time>
      </trkpt>
      <trkpt lat="42.5248350" lon="-8.6458360">
        <ele>92.6</ele>
        <time>2022-06-18T15:32:47Z</time>
      </trkpt>
      <trkpt lat="42.5248880" lon="-8.6458080">
        <ele>92.6</ele>
        <time>2022-06-18T15:32:48Z</time>
      </trkpt>
      <trkpt lat="42.5249430" lon="-8.6457850">
        <ele>92.6</ele>
        <time>2022-06-18T15:32:49Z</time>
      </trkpt>
      <trkpt lat="42.5250000" lon="-8.6457580">
        <ele>92.6</ele>
        <time>2022-06-18T15:32:50Z</time>
      </trkpt>
      <trkpt lat="42.5250510" lon="-8.6457260">
        <ele>91.6</ele>
        <time>2022-06-18T15:32:51Z</time>
      </trkpt>
      <trkpt lat="42.5251030" lon="-8.6456910">
        <ele>91.6</ele>
        <time>2022-06-18T15:32:52Z</time>
      </trkpt>
      <trkpt lat="42.5251530" lon="-8.6456560">
        <ele>91.6</ele>
        <time>2022-06-18T15:32:53Z</time>
      </trkpt>
      <trkpt lat="42.5252030" lon="-8.6456200">
        <ele>92.0</ele>
        <time>2022-06-18T15:32:54Z</time>
      </trkpt>
      <trkpt lat="42.5252510" lon="-8.6455830">
        <ele>92.2</ele>
        <time>2022-06-18T15:32:55Z</time>
      </trkpt>
      <trkpt lat="42.5253240" lon="-8.6455280">
        <ele>92.2</ele>
        <time>2022-06-18T15:32:56Z</time>
      </trkpt>
      <trkpt lat="42.5253480" lon="-8.6455100">
        <ele>92.2</ele>
        <time>2022-06-18T15:32:57Z</time>
      </trkpt>
      <trkpt lat="42.5253960" lon="-8.6454750">
        <ele>92.2</ele>
        <time>2022-06-18T15:32:58Z</time>
      </trkpt>
      <trkpt lat="42.5254670" lon="-8.6454180">
        <ele>92.0</ele>
        <time>2022-06-18T15:32:59Z</time>
      </trkpt>
      <trkpt lat="42.5254900" lon="-8.6453990">
        <ele>92.0</ele>
        <time>2022-06-18T15:33:00Z</time>
      </trkpt>
      <trkpt lat="42.5255350" lon="-8.6453600">
        <ele>92.0</ele>
        <time>2022-06-18T15:33:01Z</time>
      </trkpt>
      <trkpt lat="42.5255760" lon="-8.6453230">
        <ele>91.8</ele>
        <time>2022-06-18T15:33:02Z</time>
      </trkpt>
      <trkpt lat="42.5256180" lon="-8.6452810">
        <ele>91.8</ele>
        <time>2022-06-18T15:33:03Z</time>
      </trkpt>
      <trkpt lat="42.5256580" lon="-8.6452360">
        <ele>91.8</ele>
        <time>2022-06-18T15:33:04Z</time>
      </trkpt>
      <trkpt lat="42.5257200" lon="-8.6451660">
        <ele>91.8</ele>
        <time>2022-06-18T15:33:05Z</time>
      </trkpt>
      <trkpt lat="42.5257400" lon="-8.6451420">
        <ele>92.2</ele>
        <time>2022-06-18T15:33:06Z</time>
      </trkpt>
      <trkpt lat="42.5257810" lon="-8.6450950">
        <ele>91.4</ele>
        <time>2022-06-18T15:33:07Z</time>
      </trkpt>
      <trkpt lat="42.5258210" lon="-8.6450460">
        <ele>91.4</ele>
        <time>2022-06-18T15:33:08Z</time>
      </trkpt>
      <trkpt lat="42.5258630" lon="-8.6449980">
        <ele>91.4</ele>
        <time>2022-06-18T15:33:09Z</time>
      </trkpt>
      <trkpt lat="42.5259060" lon="-8.6449580">
        <ele>92.4</ele>
        <time>2022-06-18T15:33:10Z</time>
      </trkpt>
      <trkpt lat="42.5259500" lon="-8.6449250">
        <ele>93.6</ele>
        <time>2022-06-18T15:33:11Z</time>
      </trkpt>
      <trkpt lat="42.5259900" lon="-8.6448950">
        <ele>93.6</ele>
        <time>2022-06-18T15:33:12Z</time>
      </trkpt>
      <trkpt lat="42.5260210" lon="-8.6448650">
        <ele>93.6</ele>
        <time>2022-06-18T15:33:13Z</time>
      </trkpt>
      <trkpt lat="42.5260510" lon="-8.6448400">
        <ele>94.6</ele>
        <time>2022-06-18T15:33:14Z</time>
      </trkpt>
      <trkpt lat="42.5260750" lon="-8.6448210">
        <ele>95.2</ele>
        <time>2022-06-18T15:33:15Z</time>
      </trkpt>
      <trkpt lat="42.5261010" lon="-8.6448060">
        <ele>95.2</ele>
        <time>2022-06-18T15:33:16Z</time>
      </trkpt>
      <trkpt lat="42.5261310" lon="-8.6447930">
        <ele>95.2</ele>
        <time>2022-06-18T15:33:17Z</time>
      </trkpt>
      <trkpt lat="42.5261600" lon="-8.6447830">
        <ele>95.2</ele>
        <time>2022-06-18T15:33:18Z</time>
      </trkpt>
      <trkpt lat="42.5261880" lon="-8.6447730">
        <ele>95.2</ele>
        <time>2022-06-18T15:33:19Z</time>
      </trkpt>
      <trkpt lat="42.5262180" lon="-8.6447650">
        <ele>95.2</ele>
        <time>2022-06-18T15:33:20Z</time>
      </trkpt>
      <trkpt lat="42.5262510" lon="-8.6447550">
        <ele>95.2</ele>
        <time>2022-06-18T15:33:21Z</time>
      </trkpt>
      <trkpt lat="42.5262850" lon="-8.6447430">
        <ele>95.2</ele>
        <time>2022-06-18T15:33:22Z</time>
      </trkpt>
      <trkpt lat="42.5263150" lon="-8.6447310">
        <ele>95.2</ele>
        <time>2022-06-18T15:33:23Z</time>
      </trkpt>
      <trkpt lat="42.5263150" lon="-8.6447310">
        <ele>95.2</ele>
        <time>2022-06-18T15:33:24Z</time>
      </trkpt>
      <trkpt lat="42.5263150" lon="-8.6447310">
        <ele>95.2</ele>
        <time>2022-06-18T15:33:25Z</time>
      </trkpt>
      <trkpt lat="42.5263930" lon="-8.6446980">
        <ele>95.2</ele>
        <time>2022-06-18T15:33:26Z</time>
      </trkpt>
      <trkpt lat="42.5264180" lon="-8.6446910">
        <ele>95.4</ele>
        <time>2022-06-18T15:33:27Z</time>
      </trkpt>
      <trkpt lat="42.5264450" lon="-8.6446910">
        <ele>95.4</ele>
        <time>2022-06-18T15:33:28Z</time>
      </trkpt>
      <trkpt lat="42.5264700" lon="-8.6447060">
        <ele>95.4</ele>
        <time>2022-06-18T15:33:29Z</time>
      </trkpt>
      <trkpt lat="42.5264910" lon="-8.6447350">
        <ele>95.4</ele>
        <time>2022-06-18T15:33:30Z</time>
      </trkpt>
      <trkpt lat="42.5265080" lon="-8.6447710">
        <ele>93.4</ele>
        <time>2022-06-18T15:33:31Z</time>
      </trkpt>
      <trkpt lat="42.5265430" lon="-8.6448520">
        <ele>93.4</ele>
        <time>2022-06-18T15:33:32Z</time>
      </trkpt>
      <trkpt lat="42.5265620" lon="-8.6448810">
        <ele>93.4</ele>
        <time>2022-06-18T15:33:33Z</time>
      </trkpt>
      <trkpt lat="42.5265800" lon="-8.6449100">
        <ele>92.4</ele>
        <time>2022-06-18T15:33:34Z</time>
      </trkpt>
      <trkpt lat="42.5266350" lon="-8.6449980">
        <ele>88.8</ele>
        <time>2022-06-18T15:33:35Z</time>
      </trkpt>
      <trkpt lat="42.5267080" lon="-8.6450100">
        <ele>88.8</ele>
        <time>2022-06-18T15:33:36Z</time>
      </trkpt>
      <trkpt lat="42.5267830" lon="-8.6450000">
        <ele>88.8</ele>
        <time>2022-06-18T15:33:37Z</time>
      </trkpt>
      <trkpt lat="42.5268950" lon="-8.6449880">
        <ele>88.8</ele>
        <time>2022-06-18T15:33:38Z</time>
      </trkpt>
      <trkpt lat="42.5269350" lon="-8.6449890">
        <ele>87.8</ele>
        <time>2022-06-18T15:33:39Z</time>
      </trkpt>
      <trkpt lat="42.5269740" lon="-8.6449890">
        <ele>87.8</ele>
        <time>2022-06-18T15:33:40Z</time>
      </trkpt>
      <trkpt lat="42.5270930" lon="-8.6449910">
        <ele>87.8</ele>
        <time>2022-06-18T15:33:41Z</time>
      </trkpt>
      <trkpt lat="42.5271800" lon="-8.6450010">
        <ele>86.8</ele>
        <time>2022-06-18T15:33:42Z</time>
      </trkpt>
      <trkpt lat="42.5272700" lon="-8.6450130">
        <ele>82.4</ele>
        <time>2022-06-18T15:33:43Z</time>
      </trkpt>
      <trkpt lat="42.5273600" lon="-8.6450280">
        <ele>82.4</ele>
        <time>2022-06-18T15:33:44Z</time>
      </trkpt>
      <trkpt lat="42.5274500" lon="-8.6450510">
        <ele>82.4</ele>
        <time>2022-06-18T15:33:45Z</time>
      </trkpt>
      <trkpt lat="42.5275410" lon="-8.6450750">
        <ele>81.4</ele>
        <time>2022-06-18T15:33:46Z</time>
      </trkpt>
      <trkpt lat="42.5276330" lon="-8.6451010">
        <ele>81.4</ele>
        <time>2022-06-18T15:33:47Z</time>
      </trkpt>
      <trkpt lat="42.5277260" lon="-8.6451310">
        <ele>81.4</ele>
        <time>2022-06-18T15:33:48Z</time>
      </trkpt>
      <trkpt lat="42.5278200" lon="-8.6451580">
        <ele>81.4</ele>
        <time>2022-06-18T15:33:49Z</time>
      </trkpt>
      <trkpt lat="42.5279130" lon="-8.6451760">
        <ele>80.4</ele>
        <time>2022-06-18T15:33:50Z</time>
      </trkpt>
      <trkpt lat="42.5280080" lon="-8.6451880">
        <ele>78.6</ele>
        <time>2022-06-18T15:33:51Z</time>
      </trkpt>
      <trkpt lat="42.5281000" lon="-8.6452060">
        <ele>78.6</ele>
        <time>2022-06-18T15:33:52Z</time>
      </trkpt>
      <trkpt lat="42.5281860" lon="-8.6452480">
        <ele>78.6</ele>
        <time>2022-06-18T15:33:53Z</time>
      </trkpt>
      <trkpt lat="42.5282650" lon="-8.6453150">
        <ele>77.6</ele>
        <time>2022-06-18T15:33:54Z</time>
      </trkpt>
      <trkpt lat="42.5283350" lon="-8.6453950">
        <ele>74.6</ele>
        <time>2022-06-18T15:33:55Z</time>
      </trkpt>
      <trkpt lat="42.5284010" lon="-8.6455450">
        <ele>74.6</ele>
        <time>2022-06-18T15:33:56Z</time>
      </trkpt>
      <trkpt lat="42.5284150" lon="-8.6455970">
        <ele>74.6</ele>
        <time>2022-06-18T15:33:57Z</time>
      </trkpt>
      <trkpt lat="42.5284450" lon="-8.6457010">
        <ele>75.6</ele>
        <time>2022-06-18T15:33:58Z</time>
      </trkpt>
      <trkpt lat="42.5284610" lon="-8.6458050">
        <ele>78.2</ele>
        <time>2022-06-18T15:33:59Z</time>
      </trkpt>
      <trkpt lat="42.5284770" lon="-8.6459620">
        <ele>78.2</ele>
        <time>2022-06-18T15:34:00Z</time>
      </trkpt>
      <trkpt lat="42.5284830" lon="-8.6460130">
        <ele>78.2</ele>
        <time>2022-06-18T15:34:01Z</time>
      </trkpt>
      <trkpt lat="42.5284960" lon="-8.6461150">
        <ele>78.2</ele>
        <time>2022-06-18T15:34:02Z</time>
      </trkpt>
      <trkpt lat="42.5285330" lon="-8.6462010">
        <ele>76.8</ele>
        <time>2022-06-18T15:34:03Z</time>
      </trkpt>
      <trkpt lat="42.5285860" lon="-8.6462660">
        <ele>76.8</ele>
        <time>2022-06-18T15:34:04Z</time>
      </trkpt>
      <trkpt lat="42.5286480" lon="-8.6463080">
        <ele>76.8</ele>
        <time>2022-06-18T15:34:05Z</time>
      </trkpt>
      <trkpt lat="42.5287080" lon="-8.6463450">
        <ele>77.8</ele>
        <time>2022-06-18T15:34:06Z</time>
      </trkpt>
      <trkpt lat="42.5287730" lon="-8.6463730">
        <ele>78.6</ele>
        <time>2022-06-18T15:34:07Z</time>
      </trkpt>
      <trkpt lat="42.5288380" lon="-8.6463900">
        <ele>78.6</ele>
        <time>2022-06-18T15:34:08Z</time>
      </trkpt>
      <trkpt lat="42.5289010" lon="-8.6464010">
        <ele>78.6</ele>
        <time>2022-06-18T15:34:09Z</time>
      </trkpt>
      <trkpt lat="42.5289600" lon="-8.6464200">
        <ele>78.0</ele>
        <time>2022-06-18T15:34:10Z</time>
      </trkpt>
      <trkpt lat="42.5290200" lon="-8.6464380">
        <ele>78.2</ele>
        <time>2022-06-18T15:34:11Z</time>
      </trkpt>
      <trkpt lat="42.5290780" lon="-8.6464560">
        <ele>78.2</ele>
        <time>2022-06-18T15:34:12Z</time>
      </trkpt>
      <trkpt lat="42.5291380" lon="-8.6464780">
        <ele>78.2</ele>
        <time>2022-06-18T15:34:13Z</time>
      </trkpt>
      <trkpt lat="42.5292000" lon="-8.6465010">
        <ele>77.6</ele>
        <time>2022-06-18T15:34:14Z</time>
      </trkpt>
      <trkpt lat="42.5292610" lon="-8.6465200">
        <ele>78.4</ele>
        <time>2022-06-18T15:34:15Z</time>
      </trkpt>
      <trkpt lat="42.5293210" lon="-8.6465330">
        <ele>78.4</ele>
        <time>2022-06-18T15:34:16Z</time>
      </trkpt>
      <trkpt lat="42.5293830" lon="-8.6465460">
        <ele>78.4</ele>
        <time>2022-06-18T15:34:17Z</time>
      </trkpt>
      <trkpt lat="42.5294450" lon="-8.6465580">
        <ele>78.2</ele>
        <time>2022-06-18T15:34:18Z</time>
      </trkpt>
      <trkpt lat="42.5295030" lon="-8.6465550">
        <ele>75.6</ele>
        <time>2022-06-18T15:34:19Z</time>
      </trkpt>
      <trkpt lat="42.5295610" lon="-8.6465560">
        <ele>75.6</ele>
        <time>2022-06-18T15:34:20Z</time>
      </trkpt>
      <trkpt lat="42.5296210" lon="-8.6465550">
        <ele>75.6</ele>
        <time>2022-06-18T15:34:21Z</time>
      </trkpt>
      <trkpt lat="42.5296800" lon="-8.6465530">
        <ele>76.6</ele>
        <time>2022-06-18T15:34:22Z</time>
      </trkpt>
      <trkpt lat="42.5297380" lon="-8.6465560">
        <ele>76.4</ele>
        <time>2022-06-18T15:34:23Z</time>
      </trkpt>
      <trkpt lat="42.5297950" lon="-8.6465550">
        <ele>76.4</ele>
        <time>2022-06-18T15:34:24Z</time>
      </trkpt>
      <trkpt lat="42.5298510" lon="-8.6465580">
        <ele>76.4</ele>
        <time>2022-06-18T15:34:25Z</time>
      </trkpt>
      <trkpt lat="42.5299080" lon="-8.6465600">
        <ele>76.4</ele>
        <time>2022-06-18T15:34:26Z</time>
      </trkpt>
      <trkpt lat="42.5299630" lon="-8.6465660">
        <ele>74.6</ele>
        <time>2022-06-18T15:34:27Z</time>
      </trkpt>
      <trkpt lat="42.5300180" lon="-8.6465780">
        <ele>74.6</ele>
        <time>2022-06-18T15:34:28Z</time>
      </trkpt>
      <trkpt lat="42.5300710" lon="-8.6465910">
        <ele>74.6</ele>
        <time>2022-06-18T15:34:29Z</time>
      </trkpt>
      <trkpt lat="42.5301250" lon="-8.6466030">
        <ele>75.6</ele>
        <time>2022-06-18T15:34:30Z</time>
      </trkpt>
      <trkpt lat="42.5301730" lon="-8.6466150">
        <ele>76.0</ele>
        <time>2022-06-18T15:34:31Z</time>
      </trkpt>
      <trkpt lat="42.5302230" lon="-8.6466260">
        <ele>76.0</ele>
        <time>2022-06-18T15:34:32Z</time>
      </trkpt>
      <trkpt lat="42.5303010" lon="-8.6466380">
        <ele>76.0</ele>
        <time>2022-06-18T15:34:33Z</time>
      </trkpt>
      <trkpt lat="42.5303280" lon="-8.6466410">
        <ele>76.0</ele>
        <time>2022-06-18T15:34:34Z</time>
      </trkpt>
      <trkpt lat="42.5303810" lon="-8.6466460">
        <ele>76.6</ele>
        <time>2022-06-18T15:34:35Z</time>
      </trkpt>
      <trkpt lat="42.5304350" lon="-8.6466450">
        <ele>76.6</ele>
        <time>2022-06-18T15:34:36Z</time>
      </trkpt>
      <trkpt lat="42.5305170" lon="-8.6466360">
        <ele>76.6</ele>
        <time>2022-06-18T15:34:37Z</time>
      </trkpt>
      <trkpt lat="42.5305450" lon="-8.6466320">
        <ele>75.8</ele>
        <time>2022-06-18T15:34:38Z</time>
      </trkpt>
      <trkpt lat="42.5306000" lon="-8.6466230">
        <ele>76.0</ele>
        <time>2022-06-18T15:34:39Z</time>
      </trkpt>
      <trkpt lat="42.5306550" lon="-8.6466060">
        <ele>76.0</ele>
        <time>2022-06-18T15:34:40Z</time>
      </trkpt>
      <trkpt lat="42.5307100" lon="-8.6465860">
        <ele>76.0</ele>
        <time>2022-06-18T15:34:41Z</time>
      </trkpt>
      <trkpt lat="42.5307630" lon="-8.6465680">
        <ele>76.0</ele>
        <time>2022-06-18T15:34:42Z</time>
      </trkpt>
      <trkpt lat="42.5308150" lon="-8.6465450">
        <ele>75.2</ele>
        <time>2022-06-18T15:34:43Z</time>
      </trkpt>
      <trkpt lat="42.5308660" lon="-8.6465230">
        <ele>75.2</ele>
        <time>2022-06-18T15:34:44Z</time>
      </trkpt>
      <trkpt lat="42.5309210" lon="-8.6465010">
        <ele>75.2</ele>
        <time>2022-06-18T15:34:45Z</time>
      </trkpt>
      <trkpt lat="42.5309780" lon="-8.6464810">
        <ele>74.2</ele>
        <time>2022-06-18T15:34:46Z</time>
      </trkpt>
      <trkpt lat="42.5310360" lon="-8.6464630">
        <ele>74.0</ele>
        <time>2022-06-18T15:34:47Z</time>
      </trkpt>
      <trkpt lat="42.5310950" lon="-8.6464400">
        <ele>74.0</ele>
        <time>2022-06-18T15:34:48Z</time>
      </trkpt>
      <trkpt lat="42.5311560" lon="-8.6464160">
        <ele>74.0</ele>
        <time>2022-06-18T15:34:49Z</time>
      </trkpt>
      <trkpt lat="42.5312200" lon="-8.6463910">
        <ele>73.0</ele>
        <time>2022-06-18T15:34:50Z</time>
      </trkpt>
      <trkpt lat="42.5312850" lon="-8.6463680">
        <ele>72.6</ele>
        <time>2022-06-18T15:34:51Z</time>
      </trkpt>
      <trkpt lat="42.5313510" lon="-8.6463460">
        <ele>72.6</ele>
        <time>2022-06-18T15:34:52Z</time>
      </trkpt>
      <trkpt lat="42.5314160" lon="-8.6463280">
        <ele>72.6</ele>
        <time>2022-06-18T15:34:53Z</time>
      </trkpt>
      <trkpt lat="42.5314830" lon="-8.6463060">
        <ele>72.6</ele>
        <time>2022-06-18T15:34:54Z</time>
      </trkpt>
      <trkpt lat="42.5315480" lon="-8.6462880">
        <ele>71.4</ele>
        <time>2022-06-18T15:34:55Z</time>
      </trkpt>
      <trkpt lat="42.5316130" lon="-8.6462660">
        <ele>71.4</ele>
        <time>2022-06-18T15:34:56Z</time>
      </trkpt>
      <trkpt lat="42.5316760" lon="-8.6462500">
        <ele>71.4</ele>
        <time>2022-06-18T15:34:57Z</time>
      </trkpt>
      <trkpt lat="42.5317380" lon="-8.6462310">
        <ele>71.4</ele>
        <time>2022-06-18T15:34:58Z</time>
      </trkpt>
      <trkpt lat="42.5318000" lon="-8.6462210">
        <ele>72.2</ele>
        <time>2022-06-18T15:34:59Z</time>
      </trkpt>
      <trkpt lat="42.5318630" lon="-8.6462160">
        <ele>72.2</ele>
        <time>2022-06-18T15:35:00Z</time>
      </trkpt>
      <trkpt lat="42.5319300" lon="-8.6462130">
        <ele>72.2</ele>
        <time>2022-06-18T15:35:01Z</time>
      </trkpt>
      <trkpt lat="42.5319950" lon="-8.6462110">
        <ele>71.2</ele>
        <time>2022-06-18T15:35:02Z</time>
      </trkpt>
      <trkpt lat="42.5320600" lon="-8.6462130">
        <ele>71.2</ele>
        <time>2022-06-18T15:35:03Z</time>
      </trkpt>
      <trkpt lat="42.5321260" lon="-8.6462160">
        <ele>71.2</ele>
        <time>2022-06-18T15:35:04Z</time>
      </trkpt>
      <trkpt lat="42.5321910" lon="-8.6462150">
        <ele>71.2</ele>
        <time>2022-06-18T15:35:05Z</time>
      </trkpt>
      <trkpt lat="42.5322550" lon="-8.6462100">
        <ele>71.2</ele>
        <time>2022-06-18T15:35:06Z</time>
      </trkpt>
      <trkpt lat="42.5323180" lon="-8.6462000">
        <ele>71.0</ele>
        <time>2022-06-18T15:35:07Z</time>
      </trkpt>
      <trkpt lat="42.5323800" lon="-8.6461950">
        <ele>71.0</ele>
        <time>2022-06-18T15:35:08Z</time>
      </trkpt>
      <trkpt lat="42.5324430" lon="-8.6461880">
        <ele>71.0</ele>
        <time>2022-06-18T15:35:09Z</time>
      </trkpt>
      <trkpt lat="42.5325080" lon="-8.6461730">
        <ele>71.0</ele>
        <time>2022-06-18T15:35:10Z</time>
      </trkpt>
      <trkpt lat="42.5325730" lon="-8.6461550">
        <ele>71.0</ele>
        <time>2022-06-18T15:35:11Z</time>
      </trkpt>
      <trkpt lat="42.5326380" lon="-8.6461330">
        <ele>71.0</ele>
        <time>2022-06-18T15:35:12Z</time>
      </trkpt>
      <trkpt lat="42.5327000" lon="-8.6461050">
        <ele>71.0</ele>
        <time>2022-06-18T15:35:13Z</time>
      </trkpt>
      <trkpt lat="42.5327610" lon="-8.6460700">
        <ele>70.4</ele>
        <time>2022-06-18T15:35:14Z</time>
      </trkpt>
      <trkpt lat="42.5328230" lon="-8.6460250">
        <ele>70.2</ele>
        <time>2022-06-18T15:35:15Z</time>
      </trkpt>
      <trkpt lat="42.5328830" lon="-8.6459830">
        <ele>70.2</ele>
        <time>2022-06-18T15:35:16Z</time>
      </trkpt>
      <trkpt lat="42.5329450" lon="-8.6459400">
        <ele>70.2</ele>
        <time>2022-06-18T15:35:17Z</time>
      </trkpt>
      <trkpt lat="42.5330050" lon="-8.6458930">
        <ele>70.2</ele>
        <time>2022-06-18T15:35:18Z</time>
      </trkpt>
      <trkpt lat="42.5330660" lon="-8.6458480">
        <ele>69.8</ele>
        <time>2022-06-18T15:35:19Z</time>
      </trkpt>
      <trkpt lat="42.5331280" lon="-8.6458030">
        <ele>69.8</ele>
        <time>2022-06-18T15:35:20Z</time>
      </trkpt>
      <trkpt lat="42.5331910" lon="-8.6457550">
        <ele>69.8</ele>
        <time>2022-06-18T15:35:21Z</time>
      </trkpt>
      <trkpt lat="42.5332530" lon="-8.6457110">
        <ele>70.6</ele>
        <time>2022-06-18T15:35:22Z</time>
      </trkpt>
      <trkpt lat="42.5333180" lon="-8.6456750">
        <ele>70.2</ele>
        <time>2022-06-18T15:35:23Z</time>
      </trkpt>
      <trkpt lat="42.5333850" lon="-8.6456450">
        <ele>70.2</ele>
        <time>2022-06-18T15:35:24Z</time>
      </trkpt>
      <trkpt lat="42.5334550" lon="-8.6456180">
        <ele>70.2</ele>
        <time>2022-06-18T15:35:25Z</time>
      </trkpt>
      <trkpt lat="42.5335230" lon="-8.6455910">
        <ele>69.2</ele>
        <time>2022-06-18T15:35:26Z</time>
      </trkpt>
      <trkpt lat="42.5335930" lon="-8.6455710">
        <ele>69.6</ele>
        <time>2022-06-18T15:35:27Z</time>
      </trkpt>
      <trkpt lat="42.5336630" lon="-8.6455530">
        <ele>69.6</ele>
        <time>2022-06-18T15:35:28Z</time>
      </trkpt>
      <trkpt lat="42.5337330" lon="-8.6455330">
        <ele>69.6</ele>
        <time>2022-06-18T15:35:29Z</time>
      </trkpt>
      <trkpt lat="42.5338060" lon="-8.6455150">
        <ele>68.8</ele>
        <time>2022-06-18T15:35:30Z</time>
      </trkpt>
      <trkpt lat="42.5338780" lon="-8.6454960">
        <ele>67.8</ele>
        <time>2022-06-18T15:35:31Z</time>
      </trkpt>
      <trkpt lat="42.5339510" lon="-8.6454800">
        <ele>67.8</ele>
        <time>2022-06-18T15:35:32Z</time>
      </trkpt>
      <trkpt lat="42.5340250" lon="-8.6454630">
        <ele>67.8</ele>
        <time>2022-06-18T15:35:33Z</time>
      </trkpt>
      <trkpt lat="42.5340960" lon="-8.6454510">
        <ele>67.8</ele>
        <time>2022-06-18T15:35:34Z</time>
      </trkpt>
      <trkpt lat="42.5341700" lon="-8.6454430">
        <ele>67.2</ele>
        <time>2022-06-18T15:35:35Z</time>
      </trkpt>
      <trkpt lat="42.5342400" lon="-8.6454400">
        <ele>67.2</ele>
        <time>2022-06-18T15:35:36Z</time>
      </trkpt>
      <trkpt lat="42.5343080" lon="-8.6454350">
        <ele>67.2</ele>
        <time>2022-06-18T15:35:37Z</time>
      </trkpt>
      <trkpt lat="42.5343780" lon="-8.6454300">
        <ele>67.2</ele>
        <time>2022-06-18T15:35:38Z</time>
      </trkpt>
      <trkpt lat="42.5344460" lon="-8.6454260">
        <ele>67.0</ele>
        <time>2022-06-18T15:35:39Z</time>
      </trkpt>
      <trkpt lat="42.5345150" lon="-8.6454210">
        <ele>67.0</ele>
        <time>2022-06-18T15:35:40Z</time>
      </trkpt>
      <trkpt lat="42.5345800" lon="-8.6454230">
        <ele>67.0</ele>
        <time>2022-06-18T15:35:41Z</time>
      </trkpt>
      <trkpt lat="42.5346450" lon="-8.6454230">
        <ele>67.6</ele>
        <time>2022-06-18T15:35:42Z</time>
      </trkpt>
      <trkpt lat="42.5347100" lon="-8.6454300">
        <ele>67.2</ele>
        <time>2022-06-18T15:35:43Z</time>
      </trkpt>
      <trkpt lat="42.5347730" lon="-8.6454360">
        <ele>67.2</ele>
        <time>2022-06-18T15:35:44Z</time>
      </trkpt>
      <trkpt lat="42.5348350" lon="-8.6454460">
        <ele>67.2</ele>
        <time>2022-06-18T15:35:45Z</time>
      </trkpt>
      <trkpt lat="42.5348950" lon="-8.6454550">
        <ele>67.8</ele>
        <time>2022-06-18T15:35:46Z</time>
      </trkpt>
      <trkpt lat="42.5349580" lon="-8.6454600">
        <ele>68.2</ele>
        <time>2022-06-18T15:35:47Z</time>
      </trkpt>
      <trkpt lat="42.5350200" lon="-8.6454650">
        <ele>68.2</ele>
        <time>2022-06-18T15:35:48Z</time>
      </trkpt>
      <trkpt lat="42.5350750" lon="-8.6454850">
        <ele>68.2</ele>
        <time>2022-06-18T15:35:49Z</time>
      </trkpt>
      <trkpt lat="42.5351230" lon="-8.6455210">
        <ele>68.2</ele>
        <time>2022-06-18T15:35:50Z</time>
      </trkpt>
      <trkpt lat="42.5351700" lon="-8.6455550">
        <ele>68.0</ele>
        <time>2022-06-18T15:35:51Z</time>
      </trkpt>
      <trkpt lat="42.5352210" lon="-8.6455700">
        <ele>68.0</ele>
        <time>2022-06-18T15:35:52Z</time>
      </trkpt>
      <trkpt lat="42.5352730" lon="-8.6455680">
        <ele>68.0</ele>
        <time>2022-06-18T15:35:53Z</time>
      </trkpt>
      <trkpt lat="42.5353250" lon="-8.6455630">
        <ele>68.0</ele>
        <time>2022-06-18T15:35:54Z</time>
      </trkpt>
      <trkpt lat="42.5353750" lon="-8.6455610">
        <ele>67.6</ele>
        <time>2022-06-18T15:35:55Z</time>
      </trkpt>
      <trkpt lat="42.5354260" lon="-8.6455600">
        <ele>67.6</ele>
        <time>2022-06-18T15:35:56Z</time>
      </trkpt>
      <trkpt lat="42.5354800" lon="-8.6455530">
        <ele>67.6</ele>
        <time>2022-06-18T15:35:57Z</time>
      </trkpt>
      <trkpt lat="42.5355360" lon="-8.6455480">
        <ele>67.6</ele>
        <time>2022-06-18T15:35:58Z</time>
      </trkpt>
      <trkpt lat="42.5355950" lon="-8.6455350">
        <ele>66.8</ele>
        <time>2022-06-18T15:35:59Z</time>
      </trkpt>
      <trkpt lat="42.5356550" lon="-8.6455230">
        <ele>66.8</ele>
        <time>2022-06-18T15:36:00Z</time>
      </trkpt>
      <trkpt lat="42.5357130" lon="-8.6455130">
        <ele>66.8</ele>
        <time>2022-06-18T15:36:01Z</time>
      </trkpt>
      <trkpt lat="42.5357750" lon="-8.6455030">
        <ele>67.8</ele>
        <time>2022-06-18T15:36:02Z</time>
      </trkpt>
      <trkpt lat="42.5358360" lon="-8.6454950">
        <ele>67.6</ele>
        <time>2022-06-18T15:36:03Z</time>
      </trkpt>
      <trkpt lat="42.5358960" lon="-8.6454880">
        <ele>67.6</ele>
        <time>2022-06-18T15:36:04Z</time>
      </trkpt>
      <trkpt lat="42.5359560" lon="-8.6454800">
        <ele>67.6</ele>
        <time>2022-06-18T15:36:05Z</time>
      </trkpt>
      <trkpt lat="42.5360180" lon="-8.6454630">
        <ele>67.6</ele>
        <time>2022-06-18T15:36:06Z</time>
      </trkpt>
      <trkpt lat="42.5360800" lon="-8.6454350">
        <ele>67.2</ele>
        <time>2022-06-18T15:36:07Z</time>
      </trkpt>
      <trkpt lat="42.5361400" lon="-8.6454010">
        <ele>67.2</ele>
        <time>2022-06-18T15:36:08Z</time>
      </trkpt>
      <trkpt lat="42.5362000" lon="-8.6453660">
        <ele>67.2</ele>
        <time>2022-06-18T15:36:09Z</time>
      </trkpt>
      <trkpt lat="42.5362600" lon="-8.6453350">
        <ele>67.2</ele>
        <time>2022-06-18T15:36:10Z</time>
      </trkpt>
      <trkpt lat="42.5363200" lon="-8.6453050">
        <ele>66.8</ele>
        <time>2022-06-18T15:36:11Z</time>
      </trkpt>
      <trkpt lat="42.5363780" lon="-8.6452750">
        <ele>66.8</ele>
        <time>2022-06-18T15:36:12Z</time>
      </trkpt>
      <trkpt lat="42.5364360" lon="-8.6452500">
        <ele>66.8</ele>
        <time>2022-06-18T15:36:13Z</time>
      </trkpt>
      <trkpt lat="42.5364900" lon="-8.6452300">
        <ele>67.8</ele>
        <time>2022-06-18T15:36:14Z</time>
      </trkpt>
      <trkpt lat="42.5365450" lon="-8.6452110">
        <ele>68.2</ele>
        <time>2022-06-18T15:36:15Z</time>
      </trkpt>
      <trkpt lat="42.5366000" lon="-8.6452000">
        <ele>68.2</ele>
        <time>2022-06-18T15:36:16Z</time>
      </trkpt>
      <trkpt lat="42.5366550" lon="-8.6452010">
        <ele>68.2</ele>
        <time>2022-06-18T15:36:17Z</time>
      </trkpt>
      <trkpt lat="42.5367100" lon="-8.6452100">
        <ele>67.2</ele>
        <time>2022-06-18T15:36:18Z</time>
      </trkpt>
      <trkpt lat="42.5367630" lon="-8.6452280">
        <ele>65.4</ele>
        <time>2022-06-18T15:36:19Z</time>
      </trkpt>
      <trkpt lat="42.5368230" lon="-8.6452480">
        <ele>65.4</ele>
        <time>2022-06-18T15:36:20Z</time>
      </trkpt>
      <trkpt lat="42.5368810" lon="-8.6452800">
        <ele>65.4</ele>
        <time>2022-06-18T15:36:21Z</time>
      </trkpt>
      <trkpt lat="42.5369360" lon="-8.6453230">
        <ele>65.0</ele>
        <time>2022-06-18T15:36:22Z</time>
      </trkpt>
      <trkpt lat="42.5369910" lon="-8.6453730">
        <ele>64.8</ele>
        <time>2022-06-18T15:36:23Z</time>
      </trkpt>
      <trkpt lat="42.5370480" lon="-8.6454210">
        <ele>64.8</ele>
        <time>2022-06-18T15:36:24Z</time>
      </trkpt>
      <trkpt lat="42.5371060" lon="-8.6454580">
        <ele>64.8</ele>
        <time>2022-06-18T15:36:25Z</time>
      </trkpt>
      <trkpt lat="42.5371730" lon="-8.6454810">
        <ele>64.8</ele>
        <time>2022-06-18T15:36:26Z</time>
      </trkpt>
      <trkpt lat="42.5372430" lon="-8.6454860">
        <ele>64.8</ele>
        <time>2022-06-18T15:36:27Z</time>
      </trkpt>
      <trkpt lat="42.5373080" lon="-8.6454850">
        <ele>64.8</ele>
        <time>2022-06-18T15:36:28Z</time>
      </trkpt>
      <trkpt lat="42.5373800" lon="-8.6454750">
        <ele>64.8</ele>
        <time>2022-06-18T15:36:29Z</time>
      </trkpt>
      <trkpt lat="42.5374510" lon="-8.6454630">
        <ele>64.8</ele>
        <time>2022-06-18T15:36:30Z</time>
      </trkpt>
      <trkpt lat="42.5375230" lon="-8.6454510">
        <ele>63.4</ele>
        <time>2022-06-18T15:36:31Z</time>
      </trkpt>
      <trkpt lat="42.5375900" lon="-8.6454330">
        <ele>63.4</ele>
        <time>2022-06-18T15:36:32Z</time>
      </trkpt>
      <trkpt lat="42.5376600" lon="-8.6454160">
        <ele>63.4</ele>
        <time>2022-06-18T15:36:33Z</time>
      </trkpt>
      <trkpt lat="42.5377250" lon="-8.6453960">
        <ele>63.4</ele>
        <time>2022-06-18T15:36:34Z</time>
      </trkpt>
      <trkpt lat="42.5377910" lon="-8.6453710">
        <ele>61.8</ele>
        <time>2022-06-18T15:36:35Z</time>
      </trkpt>
      <trkpt lat="42.5378560" lon="-8.6453380">
        <ele>61.8</ele>
        <time>2022-06-18T15:36:36Z</time>
      </trkpt>
      <trkpt lat="42.5379230" lon="-8.6452930">
        <ele>61.8</ele>
        <time>2022-06-18T15:36:37Z</time>
      </trkpt>
      <trkpt lat="42.5379930" lon="-8.6452500">
        <ele>62.6</ele>
        <time>2022-06-18T15:36:38Z</time>
      </trkpt>
      <trkpt lat="42.5380600" lon="-8.6452080">
        <ele>63.0</ele>
        <time>2022-06-18T15:36:39Z</time>
      </trkpt>
      <trkpt lat="42.5381280" lon="-8.6451680">
        <ele>63.0</ele>
        <time>2022-06-18T15:36:40Z</time>
      </trkpt>
      <trkpt lat="42.5381960" lon="-8.6451230">
        <ele>63.0</ele>
        <time>2022-06-18T15:36:41Z</time>
      </trkpt>
      <trkpt lat="42.5382610" lon="-8.6450800">
        <ele>62.0</ele>
        <time>2022-06-18T15:36:42Z</time>
      </trkpt>
      <trkpt lat="42.5383260" lon="-8.6450410">
        <ele>63.4</ele>
        <time>2022-06-18T15:36:43Z</time>
      </trkpt>
      <trkpt lat="42.5383930" lon="-8.6450060">
        <ele>63.4</ele>
        <time>2022-06-18T15:36:44Z</time>
      </trkpt>
      <trkpt lat="42.5384580" lon="-8.6449660">
        <ele>63.4</ele>
        <time>2022-06-18T15:36:45Z</time>
      </trkpt>
      <trkpt lat="42.5385250" lon="-8.6449210">
        <ele>62.4</ele>
        <time>2022-06-18T15:36:46Z</time>
      </trkpt>
      <trkpt lat="42.5385910" lon="-8.6448760">
        <ele>63.6</ele>
        <time>2022-06-18T15:36:47Z</time>
      </trkpt>
      <trkpt lat="42.5386600" lon="-8.6448300">
        <ele>63.6</ele>
        <time>2022-06-18T15:36:48Z</time>
      </trkpt>
      <trkpt lat="42.5387260" lon="-8.6447760">
        <ele>63.6</ele>
        <time>2022-06-18T15:36:49Z</time>
      </trkpt>
      <trkpt lat="42.5387800" lon="-8.6447100">
        <ele>62.8</ele>
        <time>2022-06-18T15:36:50Z</time>
      </trkpt>
      <trkpt lat="42.5388230" lon="-8.6446400">
        <ele>63.4</ele>
        <time>2022-06-18T15:36:51Z</time>
      </trkpt>
      <trkpt lat="42.5388410" lon="-8.6445650">
        <ele>63.4</ele>
        <time>2022-06-18T15:36:52Z</time>
      </trkpt>
      <trkpt lat="42.5388660" lon="-8.6444910">
        <ele>63.4</ele>
        <time>2022-06-18T15:36:53Z</time>
      </trkpt>
      <trkpt lat="42.5388980" lon="-8.6444400">
        <ele>62.4</ele>
        <time>2022-06-18T15:36:54Z</time>
      </trkpt>
      <trkpt lat="42.5389350" lon="-8.6444000">
        <ele>63.0</ele>
        <time>2022-06-18T15:36:55Z</time>
      </trkpt>
      <trkpt lat="42.5389730" lon="-8.6443600">
        <ele>63.0</ele>
        <time>2022-06-18T15:36:56Z</time>
      </trkpt>
      <trkpt lat="42.5390080" lon="-8.6443150">
        <ele>63.0</ele>
        <time>2022-06-18T15:36:57Z</time>
      </trkpt>
      <trkpt lat="42.5390450" lon="-8.6442610">
        <ele>63.2</ele>
        <time>2022-06-18T15:36:58Z</time>
      </trkpt>
      <trkpt lat="42.5390830" lon="-8.6442050">
        <ele>63.4</ele>
        <time>2022-06-18T15:36:59Z</time>
      </trkpt>
      <trkpt lat="42.5391260" lon="-8.6441550">
        <ele>63.4</ele>
        <time>2022-06-18T15:37:00Z</time>
      </trkpt>
      <trkpt lat="42.5391730" lon="-8.6441160">
        <ele>63.4</ele>
        <time>2022-06-18T15:37:01Z</time>
      </trkpt>
      <trkpt lat="42.5392210" lon="-8.6440780">
        <ele>63.4</ele>
        <time>2022-06-18T15:37:02Z</time>
      </trkpt>
      <trkpt lat="42.5392760" lon="-8.6440430">
        <ele>62.4</ele>
        <time>2022-06-18T15:37:03Z</time>
      </trkpt>
      <trkpt lat="42.5393300" lon="-8.6440130">
        <ele>62.4</ele>
        <time>2022-06-18T15:37:04Z</time>
      </trkpt>
      <trkpt lat="42.5393810" lon="-8.6439900">
        <ele>62.4</ele>
        <time>2022-06-18T15:37:05Z</time>
      </trkpt>
      <trkpt lat="42.5394310" lon="-8.6439660">
        <ele>63.2</ele>
        <time>2022-06-18T15:37:06Z</time>
      </trkpt>
      <trkpt lat="42.5394810" lon="-8.6439430">
        <ele>63.4</ele>
        <time>2022-06-18T15:37:07Z</time>
      </trkpt>
      <trkpt lat="42.5395280" lon="-8.6439210">
        <ele>63.4</ele>
        <time>2022-06-18T15:37:08Z</time>
      </trkpt>
      <trkpt lat="42.5395760" lon="-8.6439030">
        <ele>63.4</ele>
        <time>2022-06-18T15:37:09Z</time>
      </trkpt>
      <trkpt lat="42.5396250" lon="-8.6438860">
        <ele>63.4</ele>
        <time>2022-06-18T15:37:10Z</time>
      </trkpt>
      <trkpt lat="42.5396710" lon="-8.6438700">
        <ele>62.8</ele>
        <time>2022-06-18T15:37:11Z</time>
      </trkpt>
      <trkpt lat="42.5397200" lon="-8.6438550">
        <ele>62.8</ele>
        <time>2022-06-18T15:37:12Z</time>
      </trkpt>
      <trkpt lat="42.5397680" lon="-8.6438380">
        <ele>62.8</ele>
        <time>2022-06-18T15:37:13Z</time>
      </trkpt>
      <trkpt lat="42.5398160" lon="-8.6438180">
        <ele>63.8</ele>
        <time>2022-06-18T15:37:14Z</time>
      </trkpt>
      <trkpt lat="42.5398650" lon="-8.6437980">
        <ele>63.2</ele>
        <time>2022-06-18T15:37:15Z</time>
      </trkpt>
      <trkpt lat="42.5399160" lon="-8.6437780">
        <ele>63.2</ele>
        <time>2022-06-18T15:37:16Z</time>
      </trkpt>
      <trkpt lat="42.5399660" lon="-8.6437600">
        <ele>63.2</ele>
        <time>2022-06-18T15:37:17Z</time>
      </trkpt>
      <trkpt lat="42.5400200" lon="-8.6437400">
        <ele>63.2</ele>
        <time>2022-06-18T15:37:18Z</time>
      </trkpt>
      <trkpt lat="42.5400750" lon="-8.6437200">
        <ele>63.2</ele>
        <time>2022-06-18T15:37:19Z</time>
      </trkpt>
      <trkpt lat="42.5401310" lon="-8.6436980">
        <ele>63.2</ele>
        <time>2022-06-18T15:37:20Z</time>
      </trkpt>
      <trkpt lat="42.5401880" lon="-8.6436750">
        <ele>63.2</ele>
        <time>2022-06-18T15:37:21Z</time>
      </trkpt>
      <trkpt lat="42.5402480" lon="-8.6436510">
        <ele>63.2</ele>
        <time>2022-06-18T15:37:22Z</time>
      </trkpt>
      <trkpt lat="42.5403060" lon="-8.6436280">
        <ele>63.0</ele>
        <time>2022-06-18T15:37:23Z</time>
      </trkpt>
      <trkpt lat="42.5403680" lon="-8.6436060">
        <ele>63.0</ele>
        <time>2022-06-18T15:37:24Z</time>
      </trkpt>
      <trkpt lat="42.5404300" lon="-8.6435930">
        <ele>63.0</ele>
        <time>2022-06-18T15:37:25Z</time>
      </trkpt>
      <trkpt lat="42.5404900" lon="-8.6435780">
        <ele>63.0</ele>
        <time>2022-06-18T15:37:26Z</time>
      </trkpt>
      <trkpt lat="42.5405430" lon="-8.6435600">
        <ele>65.6</ele>
        <time>2022-06-18T15:37:27Z</time>
      </trkpt>
      <trkpt lat="42.5405830" lon="-8.6435380">
        <ele>65.6</ele>
        <time>2022-06-18T15:37:28Z</time>
      </trkpt>
      <trkpt lat="42.5406080" lon="-8.6435150">
        <ele>65.6</ele>
        <time>2022-06-18T15:37:29Z</time>
      </trkpt>
      <trkpt lat="42.5406250" lon="-8.6434960">
        <ele>66.6</ele>
        <time>2022-06-18T15:37:30Z</time>
      </trkpt>
      <trkpt lat="42.5406380" lon="-8.6434800">
        <ele>66.8</ele>
        <time>2022-06-18T15:37:31Z</time>
      </trkpt>
      <trkpt lat="42.5406580" lon="-8.6434610">
        <ele>66.8</ele>
        <time>2022-06-18T15:37:32Z</time>
      </trkpt>
      <trkpt lat="42.5406780" lon="-8.6434480">
        <ele>66.8</ele>
        <time>2022-06-18T15:37:33Z</time>
      </trkpt>
      <trkpt lat="42.5407030" lon="-8.6434380">
        <ele>66.8</ele>
        <time>2022-06-18T15:37:34Z</time>
      </trkpt>
      <trkpt lat="42.5407350" lon="-8.6434330">
        <ele>65.6</ele>
        <time>2022-06-18T15:37:35Z</time>
      </trkpt>
      <trkpt lat="42.5407700" lon="-8.6434280">
        <ele>65.6</ele>
        <time>2022-06-18T15:37:36Z</time>
      </trkpt>
      <trkpt lat="42.5408080" lon="-8.6434160">
        <ele>65.6</ele>
        <time>2022-06-18T15:37:37Z</time>
      </trkpt>
      <trkpt lat="42.5408500" lon="-8.6434030">
        <ele>64.8</ele>
        <time>2022-06-18T15:37:38Z</time>
      </trkpt>
      <trkpt lat="42.5408910" lon="-8.6433880">
        <ele>64.6</ele>
        <time>2022-06-18T15:37:39Z</time>
      </trkpt>
      <trkpt lat="42.5409350" lon="-8.6433780">
        <ele>64.6</ele>
        <time>2022-06-18T15:37:40Z</time>
      </trkpt>
      <trkpt lat="42.5409780" lon="-8.6433660">
        <ele>64.6</ele>
        <time>2022-06-18T15:37:41Z</time>
      </trkpt>
      <trkpt lat="42.5410180" lon="-8.6433550">
        <ele>64.6</ele>
        <time>2022-06-18T15:37:42Z</time>
      </trkpt>
      <trkpt lat="42.5410560" lon="-8.6433400">
        <ele>64.6</ele>
        <time>2022-06-18T15:37:43Z</time>
      </trkpt>
      <trkpt lat="42.5410910" lon="-8.6433280">
        <ele>64.6</ele>
        <time>2022-06-18T15:37:44Z</time>
      </trkpt>
      <trkpt lat="42.5411260" lon="-8.6433200">
        <ele>64.6</ele>
        <time>2022-06-18T15:37:45Z</time>
      </trkpt>
      <trkpt lat="42.5411580" lon="-8.6433100">
        <ele>64.6</ele>
        <time>2022-06-18T15:37:46Z</time>
      </trkpt>
      <trkpt lat="42.5411910" lon="-8.6432960">
        <ele>65.0</ele>
        <time>2022-06-18T15:37:47Z</time>
      </trkpt>
      <trkpt lat="42.5412210" lon="-8.6432850">
        <ele>65.0</ele>
        <time>2022-06-18T15:37:48Z</time>
      </trkpt>
      <trkpt lat="42.5412550" lon="-8.6432680">
        <ele>65.0</ele>
        <time>2022-06-18T15:37:49Z</time>
      </trkpt>
      <trkpt lat="42.5412880" lon="-8.6432530">
        <ele>65.4</ele>
        <time>2022-06-18T15:37:50Z</time>
      </trkpt>
      <trkpt lat="42.5413210" lon="-8.6432450">
        <ele>65.8</ele>
        <time>2022-06-18T15:37:51Z</time>
      </trkpt>
      <trkpt lat="42.5413610" lon="-8.6432300">
        <ele>65.8</ele>
        <time>2022-06-18T15:37:52Z</time>
      </trkpt>
      <trkpt lat="42.5414050" lon="-8.6432060">
        <ele>65.8</ele>
        <time>2022-06-18T15:37:53Z</time>
      </trkpt>
      <trkpt lat="42.5414460" lon="-8.6431750">
        <ele>65.6</ele>
        <time>2022-06-18T15:37:54Z</time>
      </trkpt>
      <trkpt lat="42.5414860" lon="-8.6431360">
        <ele>66.0</ele>
        <time>2022-06-18T15:37:55Z</time>
      </trkpt>
      <trkpt lat="42.5415250" lon="-8.6430930">
        <ele>66.0</ele>
        <time>2022-06-18T15:37:56Z</time>
      </trkpt>
      <trkpt lat="42.5415610" lon="-8.6430480">
        <ele>66.0</ele>
        <time>2022-06-18T15:37:57Z</time>
      </trkpt>
      <trkpt lat="42.5415950" lon="-8.6430050">
        <ele>66.0</ele>
        <time>2022-06-18T15:37:58Z</time>
      </trkpt>
      <trkpt lat="42.5416330" lon="-8.6429650">
        <ele>66.2</ele>
        <time>2022-06-18T15:37:59Z</time>
      </trkpt>
      <trkpt lat="42.5416760" lon="-8.6429310">
        <ele>66.2</ele>
        <time>2022-06-18T15:38:00Z</time>
      </trkpt>
      <trkpt lat="42.5417200" lon="-8.6429110">
        <ele>66.2</ele>
        <time>2022-06-18T15:38:01Z</time>
      </trkpt>
      <trkpt lat="42.5417630" lon="-8.6429000">
        <ele>67.2</ele>
        <time>2022-06-18T15:38:02Z</time>
      </trkpt>
      <trkpt lat="42.5418060" lon="-8.6428910">
        <ele>67.2</ele>
        <time>2022-06-18T15:38:03Z</time>
      </trkpt>
      <trkpt lat="42.5418460" lon="-8.6428860">
        <ele>67.2</ele>
        <time>2022-06-18T15:38:04Z</time>
      </trkpt>
      <trkpt lat="42.5418860" lon="-8.6428830">
        <ele>67.2</ele>
        <time>2022-06-18T15:38:05Z</time>
      </trkpt>
      <trkpt lat="42.5419160" lon="-8.6428780">
        <ele>67.2</ele>
        <time>2022-06-18T15:38:06Z</time>
      </trkpt>
      <trkpt lat="42.5419510" lon="-8.6428750">
        <ele>66.2</ele>
        <time>2022-06-18T15:38:07Z</time>
      </trkpt>
      <trkpt lat="42.5419950" lon="-8.6428530">
        <ele>66.2</ele>
        <time>2022-06-18T15:38:08Z</time>
      </trkpt>
      <trkpt lat="42.5420400" lon="-8.6428360">
        <ele>66.2</ele>
        <time>2022-06-18T15:38:09Z</time>
      </trkpt>
      <trkpt lat="42.5420860" lon="-8.6428110">
        <ele>66.6</ele>
        <time>2022-06-18T15:38:10Z</time>
      </trkpt>
      <trkpt lat="42.5421350" lon="-8.6427860">
        <ele>65.6</ele>
        <time>2022-06-18T15:38:11Z</time>
      </trkpt>
      <trkpt lat="42.5421860" lon="-8.6427660">
        <ele>65.6</ele>
        <time>2022-06-18T15:38:12Z</time>
      </trkpt>
      <trkpt lat="42.5422380" lon="-8.6427460">
        <ele>65.6</ele>
        <time>2022-06-18T15:38:13Z</time>
      </trkpt>
      <trkpt lat="42.5422900" lon="-8.6427280">
        <ele>64.6</ele>
        <time>2022-06-18T15:38:14Z</time>
      </trkpt>
      <trkpt lat="42.5423460" lon="-8.6427060">
        <ele>64.4</ele>
        <time>2022-06-18T15:38:15Z</time>
      </trkpt>
      <trkpt lat="42.5424010" lon="-8.6426880">
        <ele>64.4</ele>
        <time>2022-06-18T15:38:16Z</time>
      </trkpt>
      <trkpt lat="42.5424530" lon="-8.6426800">
        <ele>64.4</ele>
        <time>2022-06-18T15:38:17Z</time>
      </trkpt>
      <trkpt lat="42.5425130" lon="-8.6426760">
        <ele>63.4</ele>
        <time>2022-06-18T15:38:18Z</time>
      </trkpt>
      <trkpt lat="42.5425730" lon="-8.6426700">
        <ele>62.0</ele>
        <time>2022-06-18T15:38:19Z</time>
      </trkpt>
      <trkpt lat="42.5426350" lon="-8.6426600">
        <ele>62.0</ele>
        <time>2022-06-18T15:38:20Z</time>
      </trkpt>
      <trkpt lat="42.5426930" lon="-8.6426560">
        <ele>62.0</ele>
        <time>2022-06-18T15:38:21Z</time>
      </trkpt>
      <trkpt lat="42.5427460" lon="-8.6426660">
        <ele>63.0</ele>
        <time>2022-06-18T15:38:22Z</time>
      </trkpt>
      <trkpt lat="42.5428030" lon="-8.6426750">
        <ele>64.4</ele>
        <time>2022-06-18T15:38:23Z</time>
      </trkpt>
      <trkpt lat="42.5428550" lon="-8.6426950">
        <ele>64.4</ele>
        <time>2022-06-18T15:38:24Z</time>
      </trkpt>
      <trkpt lat="42.5428910" lon="-8.6427130">
        <ele>64.4</ele>
        <time>2022-06-18T15:38:25Z</time>
      </trkpt>
      <trkpt lat="42.5429280" lon="-8.6427350">
        <ele>65.4</ele>
        <time>2022-06-18T15:38:26Z</time>
      </trkpt>
      <trkpt lat="42.5429610" lon="-8.6427480">
        <ele>66.2</ele>
        <time>2022-06-18T15:38:27Z</time>
      </trkpt>
      <trkpt lat="42.5429900" lon="-8.6427650">
        <ele>66.2</ele>
        <time>2022-06-18T15:38:28Z</time>
      </trkpt>
      <trkpt lat="42.5430100" lon="-8.6427810">
        <ele>66.2</ele>
        <time>2022-06-18T15:38:29Z</time>
      </trkpt>
      <trkpt lat="42.5430360" lon="-8.6428000">
        <ele>67.2</ele>
        <time>2022-06-18T15:38:30Z</time>
      </trkpt>
      <trkpt lat="42.5430660" lon="-8.6428230">
        <ele>68.2</ele>
        <time>2022-06-18T15:38:31Z</time>
      </trkpt>
      <trkpt lat="42.5431000" lon="-8.6428500">
        <ele>68.2</ele>
        <time>2022-06-18T15:38:32Z</time>
      </trkpt>
      <trkpt lat="42.5431350" lon="-8.6428660">
        <ele>68.2</ele>
        <time>2022-06-18T15:38:33Z</time>
      </trkpt>
      <trkpt lat="42.5431650" lon="-8.6428810">
        <ele>69.2</ele>
        <time>2022-06-18T15:38:34Z</time>
      </trkpt>
      <trkpt lat="42.5431910" lon="-8.6428910">
        <ele>69.8</ele>
        <time>2022-06-18T15:38:35Z</time>
      </trkpt>
      <trkpt lat="42.5432130" lon="-8.6429080">
        <ele>69.8</ele>
        <time>2022-06-18T15:38:36Z</time>
      </trkpt>
      <trkpt lat="42.5432330" lon="-8.6429180">
        <ele>69.8</ele>
        <time>2022-06-18T15:38:37Z</time>
      </trkpt>
      <trkpt lat="42.5432510" lon="-8.6429300">
        <ele>69.8</ele>
        <time>2022-06-18T15:38:38Z</time>
      </trkpt>
      <trkpt lat="42.5432760" lon="-8.6429360">
        <ele>69.8</ele>
        <time>2022-06-18T15:38:39Z</time>
      </trkpt>
      <trkpt lat="42.5432950" lon="-8.6429500">
        <ele>69.8</ele>
        <time>2022-06-18T15:38:40Z</time>
      </trkpt>
      <trkpt lat="42.5433150" lon="-8.6429580">
        <ele>69.8</ele>
        <time>2022-06-18T15:38:41Z</time>
      </trkpt>
      <trkpt lat="42.5433380" lon="-8.6429660">
        <ele>69.8</ele>
        <time>2022-06-18T15:38:42Z</time>
      </trkpt>
      <trkpt lat="42.5433660" lon="-8.6429750">
        <ele>71.0</ele>
        <time>2022-06-18T15:38:43Z</time>
      </trkpt>
      <trkpt lat="42.5433900" lon="-8.6429950">
        <ele>71.0</ele>
        <time>2022-06-18T15:38:44Z</time>
      </trkpt>
      <trkpt lat="42.5434130" lon="-8.6430080">
        <ele>71.0</ele>
        <time>2022-06-18T15:38:45Z</time>
      </trkpt>
      <trkpt lat="42.5434430" lon="-8.6430110">
        <ele>71.0</ele>
        <time>2022-06-18T15:38:46Z</time>
      </trkpt>
      <trkpt lat="42.5434760" lon="-8.6430230">
        <ele>70.6</ele>
        <time>2022-06-18T15:38:47Z</time>
      </trkpt>
      <trkpt lat="42.5435050" lon="-8.6430310">
        <ele>70.6</ele>
        <time>2022-06-18T15:38:48Z</time>
      </trkpt>
      <trkpt lat="42.5435410" lon="-8.6430410">
        <ele>70.6</ele>
        <time>2022-06-18T15:38:49Z</time>
      </trkpt>
      <trkpt lat="42.5435800" lon="-8.6430550">
        <ele>69.6</ele>
        <time>2022-06-18T15:38:50Z</time>
      </trkpt>
      <trkpt lat="42.5436160" lon="-8.6430630">
        <ele>65.8</ele>
        <time>2022-06-18T15:38:51Z</time>
      </trkpt>
      <trkpt lat="42.5436610" lon="-8.6430660">
        <ele>65.8</ele>
        <time>2022-06-18T15:38:52Z</time>
      </trkpt>
      <trkpt lat="42.5437130" lon="-8.6430530">
        <ele>65.8</ele>
        <time>2022-06-18T15:38:53Z</time>
      </trkpt>
      <trkpt lat="42.5437700" lon="-8.6430300">
        <ele>65.8</ele>
        <time>2022-06-18T15:38:54Z</time>
      </trkpt>
      <trkpt lat="42.5438400" lon="-8.6429950">
        <ele>63.8</ele>
        <time>2022-06-18T15:38:55Z</time>
      </trkpt>
      <trkpt lat="42.5438830" lon="-8.6429550">
        <ele>63.8</ele>
        <time>2022-06-18T15:38:56Z</time>
      </trkpt>
      <trkpt lat="42.5439300" lon="-8.6429010">
        <ele>63.8</ele>
        <time>2022-06-18T15:38:57Z</time>
      </trkpt>
      <trkpt lat="42.5439900" lon="-8.6428410">
        <ele>64.6</ele>
        <time>2022-06-18T15:38:58Z</time>
      </trkpt>
      <trkpt lat="42.5440480" lon="-8.6427910">
        <ele>64.0</ele>
        <time>2022-06-18T15:38:59Z</time>
      </trkpt>
      <trkpt lat="42.5441060" lon="-8.6427400">
        <ele>64.0</ele>
        <time>2022-06-18T15:39:00Z</time>
      </trkpt>
      <trkpt lat="42.5441780" lon="-8.6426860">
        <ele>64.0</ele>
        <time>2022-06-18T15:39:01Z</time>
      </trkpt>
      <trkpt lat="42.5442410" lon="-8.6426380">
        <ele>64.4</ele>
        <time>2022-06-18T15:39:02Z</time>
      </trkpt>
      <trkpt lat="42.5443050" lon="-8.6426030">
        <ele>65.2</ele>
        <time>2022-06-18T15:39:03Z</time>
      </trkpt>
      <trkpt lat="42.5443660" lon="-8.6425730">
        <ele>65.2</ele>
        <time>2022-06-18T15:39:04Z</time>
      </trkpt>
      <trkpt lat="42.5444210" lon="-8.6425410">
        <ele>65.2</ele>
        <time>2022-06-18T15:39:05Z</time>
      </trkpt>
      <trkpt lat="42.5444750" lon="-8.6425130">
        <ele>66.2</ele>
        <time>2022-06-18T15:39:06Z</time>
      </trkpt>
      <trkpt lat="42.5445210" lon="-8.6424830">
        <ele>66.4</ele>
        <time>2022-06-18T15:39:07Z</time>
      </trkpt>
      <trkpt lat="42.5445630" lon="-8.6424650">
        <ele>66.4</ele>
        <time>2022-06-18T15:39:08Z</time>
      </trkpt>
      <trkpt lat="42.5446030" lon="-8.6424460">
        <ele>66.4</ele>
        <time>2022-06-18T15:39:09Z</time>
      </trkpt>
      <trkpt lat="42.5446410" lon="-8.6424310">
        <ele>66.4</ele>
        <time>2022-06-18T15:39:10Z</time>
      </trkpt>
      <trkpt lat="42.5446760" lon="-8.6424180">
        <ele>67.4</ele>
        <time>2022-06-18T15:39:11Z</time>
      </trkpt>
      <trkpt lat="42.5447130" lon="-8.6424130">
        <ele>67.4</ele>
        <time>2022-06-18T15:39:12Z</time>
      </trkpt>
      <trkpt lat="42.5447480" lon="-8.6424030">
        <ele>67.4</ele>
        <time>2022-06-18T15:39:13Z</time>
      </trkpt>
      <trkpt lat="42.5447800" lon="-8.6423880">
        <ele>68.4</ele>
        <time>2022-06-18T15:39:14Z</time>
      </trkpt>
      <trkpt lat="42.5448110" lon="-8.6423760">
        <ele>68.0</ele>
        <time>2022-06-18T15:39:15Z</time>
      </trkpt>
      <trkpt lat="42.5448430" lon="-8.6423700">
        <ele>68.0</ele>
        <time>2022-06-18T15:39:16Z</time>
      </trkpt>
      <trkpt lat="42.5448730" lon="-8.6423660">
        <ele>68.0</ele>
        <time>2022-06-18T15:39:17Z</time>
      </trkpt>
      <trkpt lat="42.5449030" lon="-8.6423650">
        <ele>68.0</ele>
        <time>2022-06-18T15:39:18Z</time>
      </trkpt>
      <trkpt lat="42.5449300" lon="-8.6423730">
        <ele>68.8</ele>
        <time>2022-06-18T15:39:19Z</time>
      </trkpt>
      <trkpt lat="42.5449560" lon="-8.6423780">
        <ele>68.8</ele>
        <time>2022-06-18T15:39:20Z</time>
      </trkpt>
      <trkpt lat="42.5449850" lon="-8.6423730">
        <ele>68.8</ele>
        <time>2022-06-18T15:39:21Z</time>
      </trkpt>
      <trkpt lat="42.5450260" lon="-8.6423730">
        <ele>67.8</ele>
        <time>2022-06-18T15:39:22Z</time>
      </trkpt>
      <trkpt lat="42.5450750" lon="-8.6423700">
        <ele>65.8</ele>
        <time>2022-06-18T15:39:23Z</time>
      </trkpt>
      <trkpt lat="42.5451280" lon="-8.6423700">
        <ele>65.8</ele>
        <time>2022-06-18T15:39:24Z</time>
      </trkpt>
      <trkpt lat="42.5451880" lon="-8.6423810">
        <ele>65.8</ele>
        <time>2022-06-18T15:39:25Z</time>
      </trkpt>
      <trkpt lat="42.5452460" lon="-8.6424000">
        <ele>64.8</ele>
        <time>2022-06-18T15:39:26Z</time>
      </trkpt>
      <trkpt lat="42.5453060" lon="-8.6424250">
        <ele>63.8</ele>
        <time>2022-06-18T15:39:27Z</time>
      </trkpt>
      <trkpt lat="42.5453960" lon="-8.6424780">
        <ele>63.8</ele>
        <time>2022-06-18T15:39:28Z</time>
      </trkpt>
      <trkpt lat="42.5454250" lon="-8.6424980">
        <ele>63.8</ele>
        <time>2022-06-18T15:39:29Z</time>
      </trkpt>
      <trkpt lat="42.5454850" lon="-8.6425380">
        <ele>62.8</ele>
        <time>2022-06-18T15:39:30Z</time>
      </trkpt>
      <trkpt lat="42.5455410" lon="-8.6425750">
        <ele>61.4</ele>
        <time>2022-06-18T15:39:31Z</time>
      </trkpt>
      <trkpt lat="42.5456060" lon="-8.6426060">
        <ele>61.4</ele>
        <time>2022-06-18T15:39:32Z</time>
      </trkpt>
      <trkpt lat="42.5456700" lon="-8.6426360">
        <ele>61.4</ele>
        <time>2022-06-18T15:39:33Z</time>
      </trkpt>
      <trkpt lat="42.5457360" lon="-8.6426650">
        <ele>61.6</ele>
        <time>2022-06-18T15:39:34Z</time>
      </trkpt>
      <trkpt lat="42.5458030" lon="-8.6426850">
        <ele>62.2</ele>
        <time>2022-06-18T15:39:35Z</time>
      </trkpt>
      <trkpt lat="42.5458700" lon="-8.6427030">
        <ele>62.2</ele>
        <time>2022-06-18T15:39:36Z</time>
      </trkpt>
      <trkpt lat="42.5459360" lon="-8.6427080">
        <ele>62.2</ele>
        <time>2022-06-18T15:39:37Z</time>
      </trkpt>
      <trkpt lat="42.5460050" lon="-8.6427000">
        <ele>62.2</ele>
        <time>2022-06-18T15:39:38Z</time>
      </trkpt>
      <trkpt lat="42.5460730" lon="-8.6426880">
        <ele>61.8</ele>
        <time>2022-06-18T15:39:39Z</time>
      </trkpt>
      <trkpt lat="42.5461720" lon="-8.6426680">
        <ele>61.8</ele>
        <time>2022-06-18T15:39:40Z</time>
      </trkpt>
      <trkpt lat="42.5462050" lon="-8.6426600">
        <ele>61.8</ele>
        <time>2022-06-18T15:39:41Z</time>
      </trkpt>
      <trkpt lat="42.5462390" lon="-8.6426520">
        <ele>61.8</ele>
        <time>2022-06-18T15:39:42Z</time>
      </trkpt>
      <trkpt lat="42.5463760" lon="-8.6426160">
        <ele>61.2</ele>
        <time>2022-06-18T15:39:43Z</time>
      </trkpt>
      <trkpt lat="42.5464110" lon="-8.6426040">
        <ele>61.2</ele>
        <time>2022-06-18T15:39:44Z</time>
      </trkpt>
      <trkpt lat="42.5464830" lon="-8.6425800">
        <ele>61.2</ele>
        <time>2022-06-18T15:39:45Z</time>
      </trkpt>
      <trkpt lat="42.5465530" lon="-8.6425650">
        <ele>61.2</ele>
        <time>2022-06-18T15:39:46Z</time>
      </trkpt>
      <trkpt lat="42.5466250" lon="-8.6425500">
        <ele>61.6</ele>
        <time>2022-06-18T15:39:47Z</time>
      </trkpt>
      <trkpt lat="42.5466950" lon="-8.6425400">
        <ele>61.6</ele>
        <time>2022-06-18T15:39:48Z</time>
      </trkpt>
      <trkpt lat="42.5467630" lon="-8.6425310">
        <ele>61.6</ele>
        <time>2022-06-18T15:39:49Z</time>
      </trkpt>
      <trkpt lat="42.5468310" lon="-8.6425260">
        <ele>61.6</ele>
        <time>2022-06-18T15:39:50Z</time>
      </trkpt>
      <trkpt lat="42.5469260" lon="-8.6425160">
        <ele>62.4</ele>
        <time>2022-06-18T15:39:51Z</time>
      </trkpt>
      <trkpt lat="42.5469570" lon="-8.6425130">
        <ele>62.4</ele>
        <time>2022-06-18T15:39:52Z</time>
      </trkpt>
      <trkpt lat="42.5470200" lon="-8.6425060">
        <ele>62.4</ele>
        <time>2022-06-18T15:39:53Z</time>
      </trkpt>
      <trkpt lat="42.5470780" lon="-8.6425030">
        <ele>62.4</ele>
        <time>2022-06-18T15:39:54Z</time>
      </trkpt>
      <trkpt lat="42.5471350" lon="-8.6424950">
        <ele>62.6</ele>
        <time>2022-06-18T15:39:55Z</time>
      </trkpt>
      <trkpt lat="42.5471860" lon="-8.6424900">
        <ele>62.6</ele>
        <time>2022-06-18T15:39:56Z</time>
      </trkpt>
      <trkpt lat="42.5472360" lon="-8.6424830">
        <ele>62.6</ele>
        <time>2022-06-18T15:39:57Z</time>
      </trkpt>
      <trkpt lat="42.5472850" lon="-8.6424700">
        <ele>62.6</ele>
        <time>2022-06-18T15:39:58Z</time>
      </trkpt>
      <trkpt lat="42.5473360" lon="-8.6424600">
        <ele>61.4</ele>
        <time>2022-06-18T15:39:59Z</time>
      </trkpt>
      <trkpt lat="42.5473950" lon="-8.6424480">
        <ele>61.4</ele>
        <time>2022-06-18T15:40:00Z</time>
      </trkpt>
      <trkpt lat="42.5474560" lon="-8.6424400">
        <ele>61.4</ele>
        <time>2022-06-18T15:40:01Z</time>
      </trkpt>
      <trkpt lat="42.5475560" lon="-8.6424510">
        <ele>60.4</ele>
        <time>2022-06-18T15:40:02Z</time>
      </trkpt>
      <trkpt lat="42.5475920" lon="-8.6424590">
        <ele>59.6</ele>
        <time>2022-06-18T15:40:03Z</time>
      </trkpt>
      <trkpt lat="42.5476630" lon="-8.6424760">
        <ele>59.6</ele>
        <time>2022-06-18T15:40:04Z</time>
      </trkpt>
      <trkpt lat="42.5477720" lon="-8.6424880">
        <ele>59.6</ele>
        <time>2022-06-18T15:40:05Z</time>
      </trkpt>
      <trkpt lat="42.5478060" lon="-8.6424860">
        <ele>59.6</ele>
        <time>2022-06-18T15:40:06Z</time>
      </trkpt>
      <trkpt lat="42.5478390" lon="-8.6424840">
        <ele>60.4</ele>
        <time>2022-06-18T15:40:07Z</time>
      </trkpt>
      <trkpt lat="42.5479410" lon="-8.6424780">
        <ele>60.4</ele>
        <time>2022-06-18T15:40:08Z</time>
      </trkpt>
      <trkpt lat="42.5479760" lon="-8.6424710">
        <ele>60.4</ele>
        <time>2022-06-18T15:40:09Z</time>
      </trkpt>
      <trkpt lat="42.5479760" lon="-8.6424710">
        <ele>61.2</ele>
        <time>2022-06-18T15:40:10Z</time>
      </trkpt>
      <trkpt lat="42.5480180" lon="-8.6424630">
        <ele>61.6</ele>
        <time>2022-06-18T15:40:11Z</time>
      </trkpt>
      <trkpt lat="42.5480300" lon="-8.6424680">
        <ele>61.6</ele>
        <time>2022-06-18T15:40:12Z</time>
      </trkpt>
      <trkpt lat="42.5480330" lon="-8.6424800">
        <ele>61.6</ele>
        <time>2022-06-18T15:40:13Z</time>
      </trkpt>
      <trkpt lat="42.5480310" lon="-8.6424900">
        <ele>61.0</ele>
        <time>2022-06-18T15:40:14Z</time>
      </trkpt>
      <trkpt lat="42.5480310" lon="-8.6424900">
        <ele>61.0</ele>
        <time>2022-06-18T15:40:15Z</time>
      </trkpt>
      <trkpt lat="42.5480100" lon="-8.6424930">
        <ele>61.0</ele>
        <time>2022-06-18T15:40:16Z</time>
      </trkpt>
      <trkpt lat="42.5479950" lon="-8.6424880">
        <ele>61.0</ele>
        <time>2022-06-18T15:40:17Z</time>
      </trkpt>
      <trkpt lat="42.5479760" lon="-8.6424810">
        <ele>61.0</ele>
        <time>2022-06-18T15:40:18Z</time>
      </trkpt>
      <trkpt lat="42.5479760" lon="-8.6424810">
        <ele>60.6</ele>
        <time>2022-06-18T15:40:19Z</time>
      </trkpt>
      <trkpt lat="42.5479250" lon="-8.6424910">
        <ele>60.6</ele>
        <time>2022-06-18T15:40:20Z</time>
      </trkpt>
      <trkpt lat="42.5479000" lon="-8.6424930">
        <ele>60.6</ele>
        <time>2022-06-18T15:40:21Z</time>
      </trkpt>
      <trkpt lat="42.5478780" lon="-8.6424800">
        <ele>61.4</ele>
        <time>2022-06-18T15:40:22Z</time>
      </trkpt>
      <trkpt lat="42.5478650" lon="-8.6424510">
        <ele>61.8</ele>
        <time>2022-06-18T15:40:23Z</time>
      </trkpt>
      <trkpt lat="42.5478650" lon="-8.6424510">
        <ele>61.8</ele>
        <time>2022-06-18T15:40:24Z</time>
      </trkpt>
      <trkpt lat="42.5478780" lon="-8.6423800">
        <ele>61.8</ele>
        <time>2022-06-18T15:40:25Z</time>
      </trkpt>
      <trkpt lat="42.5478980" lon="-8.6423450">
        <ele>61.8</ele>
        <time>2022-06-18T15:40:26Z</time>
      </trkpt>
      <trkpt lat="42.5479230" lon="-8.6423110">
        <ele>62.4</ele>
        <time>2022-06-18T15:40:27Z</time>
      </trkpt>
      <trkpt lat="42.5479630" lon="-8.6422530">
        <ele>62.4</ele>
        <time>2022-06-18T15:40:28Z</time>
      </trkpt>
      <trkpt lat="42.5479770" lon="-8.6422340">
        <ele>62.4</ele>
        <time>2022-06-18T15:40:29Z</time>
      </trkpt>
      <trkpt lat="42.5479900" lon="-8.6422160">
        <ele>61.4</ele>
        <time>2022-06-18T15:40:30Z</time>
      </trkpt>
      <trkpt lat="42.5480300" lon="-8.6421610">
        <ele>62.8</ele>
        <time>2022-06-18T15:40:31Z</time>
      </trkpt>
      <trkpt lat="42.5480580" lon="-8.6421330">
        <ele>62.8</ele>
        <time>2022-06-18T15:40:32Z</time>
      </trkpt>
      <trkpt lat="42.5480830" lon="-8.6421050">
        <ele>62.8</ele>
        <time>2022-06-18T15:40:33Z</time>
      </trkpt>
      <trkpt lat="42.5480830" lon="-8.6421050">
        <ele>62.8</ele>
        <time>2022-06-18T15:40:34Z</time>
      </trkpt>
      <trkpt lat="42.5481310" lon="-8.6420230">
        <ele>63.0</ele>
        <time>2022-06-18T15:40:35Z</time>
      </trkpt>
      <trkpt lat="42.5481610" lon="-8.6419730">
        <ele>63.0</ele>
        <time>2022-06-18T15:40:36Z</time>
      </trkpt>
      <trkpt lat="42.5481960" lon="-8.6419230">
        <ele>63.0</ele>
        <time>2022-06-18T15:40:37Z</time>
      </trkpt>
      <trkpt lat="42.5482570" lon="-8.6418430">
        <ele>62.0</ele>
        <time>2022-06-18T15:40:38Z</time>
      </trkpt>
      <trkpt lat="42.5482780" lon="-8.6418150">
        <ele>61.8</ele>
        <time>2022-06-18T15:40:39Z</time>
      </trkpt>
      <trkpt lat="42.5483200" lon="-8.6417600">
        <ele>61.8</ele>
        <time>2022-06-18T15:40:40Z</time>
      </trkpt>
      <trkpt lat="42.5483840" lon="-8.6416650">
        <ele>61.8</ele>
        <time>2022-06-18T15:40:41Z</time>
      </trkpt>
      <trkpt lat="42.5484050" lon="-8.6416320">
        <ele>62.6</ele>
        <time>2022-06-18T15:40:42Z</time>
      </trkpt>
      <trkpt lat="42.5484480" lon="-8.6415660">
        <ele>62.2</ele>
        <time>2022-06-18T15:40:43Z</time>
      </trkpt>
      <trkpt lat="42.5485150" lon="-8.6414670">
        <ele>62.2</ele>
        <time>2022-06-18T15:40:44Z</time>
      </trkpt>
      <trkpt lat="42.5485370" lon="-8.6414340">
        <ele>62.2</ele>
        <time>2022-06-18T15:40:45Z</time>
      </trkpt>
      <trkpt lat="42.5485810" lon="-8.6413680">
        <ele>62.2</ele>
        <time>2022-06-18T15:40:46Z</time>
      </trkpt>
      <trkpt lat="42.5486560" lon="-8.6412690">
        <ele>62.0</ele>
        <time>2022-06-18T15:40:47Z</time>
      </trkpt>
      <trkpt lat="42.5486810" lon="-8.6412380">
        <ele>62.0</ele>
        <time>2022-06-18T15:40:48Z</time>
      </trkpt>
      <trkpt lat="42.5487330" lon="-8.6411750">
        <ele>62.0</ele>
        <time>2022-06-18T15:40:49Z</time>
      </trkpt>
      <trkpt lat="42.5487850" lon="-8.6411130">
        <ele>62.0</ele>
        <time>2022-06-18T15:40:50Z</time>
      </trkpt>
      <trkpt lat="42.5488630" lon="-8.6410220">
        <ele>62.8</ele>
        <time>2022-06-18T15:40:51Z</time>
      </trkpt>
      <trkpt lat="42.5488910" lon="-8.6409920">
        <ele>62.8</ele>
        <time>2022-06-18T15:40:52Z</time>
      </trkpt>
      <trkpt lat="42.5489460" lon="-8.6409310">
        <ele>62.8</ele>
        <time>2022-06-18T15:40:53Z</time>
      </trkpt>
      <trkpt lat="42.5490030" lon="-8.6408710">
        <ele>62.0</ele>
        <time>2022-06-18T15:40:54Z</time>
      </trkpt>
      <trkpt lat="42.5490610" lon="-8.6408110">
        <ele>63.2</ele>
        <time>2022-06-18T15:40:55Z</time>
      </trkpt>
      <trkpt lat="42.5491460" lon="-8.6407250">
        <ele>63.2</ele>
        <time>2022-06-18T15:40:56Z</time>
      </trkpt>
      <trkpt lat="42.5491720" lon="-8.6406970">
        <ele>63.2</ele>
        <time>2022-06-18T15:40:57Z</time>
      </trkpt>
      <trkpt lat="42.5491970" lon="-8.6406690">
        <ele>63.2</ele>
        <time>2022-06-18T15:40:58Z</time>
      </trkpt>
      <trkpt lat="42.5492750" lon="-8.6405850">
        <ele>63.6</ele>
        <time>2022-06-18T15:40:59Z</time>
      </trkpt>
      <trkpt lat="42.5493410" lon="-8.6405030">
        <ele>63.6</ele>
        <time>2022-06-18T15:41:00Z</time>
      </trkpt>
      <trkpt lat="42.5493610" lon="-8.6404760">
        <ele>63.6</ele>
        <time>2022-06-18T15:41:01Z</time>
      </trkpt>
      <trkpt lat="42.5494010" lon="-8.6404210">
        <ele>63.8</ele>
        <time>2022-06-18T15:41:02Z</time>
      </trkpt>
      <trkpt lat="42.5494350" lon="-8.6403650">
        <ele>63.8</ele>
        <time>2022-06-18T15:41:03Z</time>
      </trkpt>
      <trkpt lat="42.5494580" lon="-8.6403010">
        <ele>63.8</ele>
        <time>2022-06-18T15:41:04Z</time>
      </trkpt>
      <trkpt lat="42.5494760" lon="-8.6402360">
        <ele>63.8</ele>
        <time>2022-06-18T15:41:05Z</time>
      </trkpt>
      <trkpt lat="42.5494830" lon="-8.6401280">
        <ele>63.8</ele>
        <time>2022-06-18T15:41:06Z</time>
      </trkpt>
      <trkpt lat="42.5494810" lon="-8.6400910">
        <ele>63.2</ele>
        <time>2022-06-18T15:41:07Z</time>
      </trkpt>
      <trkpt lat="42.5494780" lon="-8.6400180">
        <ele>63.2</ele>
        <time>2022-06-18T15:41:08Z</time>
      </trkpt>
      <trkpt lat="42.5494680" lon="-8.6399450">
        <ele>63.2</ele>
        <time>2022-06-18T15:41:09Z</time>
      </trkpt>
      <trkpt lat="42.5494610" lon="-8.6398710">
        <ele>63.2</ele>
        <time>2022-06-18T15:41:10Z</time>
      </trkpt>
      <trkpt lat="42.5494510" lon="-8.6398030">
        <ele>63.2</ele>
        <time>2022-06-18T15:41:11Z</time>
      </trkpt>
      <trkpt lat="42.5494400" lon="-8.6397360">
        <ele>63.2</ele>
        <time>2022-06-18T15:41:12Z</time>
      </trkpt>
      <trkpt lat="42.5494310" lon="-8.6396710">
        <ele>63.2</ele>
        <time>2022-06-18T15:41:13Z</time>
      </trkpt>
      <trkpt lat="42.5494310" lon="-8.6396710">
        <ele>63.8</ele>
        <time>2022-06-18T15:41:14Z</time>
      </trkpt>
      <trkpt lat="42.5494550" lon="-8.6395560">
        <ele>64.4</ele>
        <time>2022-06-18T15:41:15Z</time>
      </trkpt>
      <trkpt lat="42.5494880" lon="-8.6395180">
        <ele>64.4</ele>
        <time>2022-06-18T15:41:16Z</time>
      </trkpt>
      <trkpt lat="42.5495300" lon="-8.6394950">
        <ele>64.4</ele>
        <time>2022-06-18T15:41:17Z</time>
      </trkpt>
      <trkpt lat="42.5495750" lon="-8.6394780">
        <ele>64.0</ele>
        <time>2022-06-18T15:41:18Z</time>
      </trkpt>
      <trkpt lat="42.5496200" lon="-8.6394560">
        <ele>63.6</ele>
        <time>2022-06-18T15:41:19Z</time>
      </trkpt>
      <trkpt lat="42.5496630" lon="-8.6394310">
        <ele>63.6</ele>
        <time>2022-06-18T15:41:20Z</time>
      </trkpt>
      <trkpt lat="42.5497060" lon="-8.6394100">
        <ele>63.6</ele>
        <time>2022-06-18T15:41:21Z</time>
      </trkpt>
      <trkpt lat="42.5497060" lon="-8.6394100">
        <ele>63.6</ele>
        <time>2022-06-18T15:41:22Z</time>
      </trkpt>
      <trkpt lat="42.5497980" lon="-8.6393760">
        <ele>63.2</ele>
        <time>2022-06-18T15:41:23Z</time>
      </trkpt>
      <trkpt lat="42.5498430" lon="-8.6393610">
        <ele>63.2</ele>
        <time>2022-06-18T15:41:24Z</time>
      </trkpt>
      <trkpt lat="42.5498900" lon="-8.6393460">
        <ele>63.2</ele>
        <time>2022-06-18T15:41:25Z</time>
      </trkpt>
      <trkpt lat="42.5499360" lon="-8.6393310">
        <ele>63.2</ele>
        <time>2022-06-18T15:41:26Z</time>
      </trkpt>
      <trkpt lat="42.5499830" lon="-8.6393160">
        <ele>62.4</ele>
        <time>2022-06-18T15:41:27Z</time>
      </trkpt>
      <trkpt lat="42.5500310" lon="-8.6393050">
        <ele>62.4</ele>
        <time>2022-06-18T15:41:28Z</time>
      </trkpt>
      <trkpt lat="42.5500810" lon="-8.6392950">
        <ele>62.4</ele>
        <time>2022-06-18T15:41:29Z</time>
      </trkpt>
      <trkpt lat="42.5501330" lon="-8.6392850">
        <ele>63.0</ele>
        <time>2022-06-18T15:41:30Z</time>
      </trkpt>
      <trkpt lat="42.5501830" lon="-8.6392700">
        <ele>63.0</ele>
        <time>2022-06-18T15:41:31Z</time>
      </trkpt>
      <trkpt lat="42.5502350" lon="-8.6392550">
        <ele>63.0</ele>
        <time>2022-06-18T15:41:32Z</time>
      </trkpt>
      <trkpt lat="42.5502880" lon="-8.6392360">
        <ele>63.0</ele>
        <time>2022-06-18T15:41:33Z</time>
      </trkpt>
      <trkpt lat="42.5503400" lon="-8.6392200">
        <ele>63.0</ele>
        <time>2022-06-18T15:41:34Z</time>
      </trkpt>
      <trkpt lat="42.5503900" lon="-8.6392010">
        <ele>63.8</ele>
        <time>2022-06-18T15:41:35Z</time>
      </trkpt>
      <trkpt lat="42.5504430" lon="-8.6391830">
        <ele>63.8</ele>
        <time>2022-06-18T15:41:36Z</time>
      </trkpt>
      <trkpt lat="42.5504930" lon="-8.6391660">
        <ele>63.8</ele>
        <time>2022-06-18T15:41:37Z</time>
      </trkpt>
      <trkpt lat="42.5505450" lon="-8.6391550">
        <ele>63.6</ele>
        <time>2022-06-18T15:41:38Z</time>
      </trkpt>
      <trkpt lat="42.5505960" lon="-8.6391430">
        <ele>63.2</ele>
        <time>2022-06-18T15:41:39Z</time>
      </trkpt>
      <trkpt lat="42.5506480" lon="-8.6391310">
        <ele>63.2</ele>
        <time>2022-06-18T15:41:40Z</time>
      </trkpt>
      <trkpt lat="42.5507010" lon="-8.6391180">
        <ele>63.2</ele>
        <time>2022-06-18T15:41:41Z</time>
      </trkpt>
      <trkpt lat="42.5507530" lon="-8.6391050">
        <ele>62.4</ele>
        <time>2022-06-18T15:41:42Z</time>
      </trkpt>
      <trkpt lat="42.5508060" lon="-8.6390880">
        <ele>61.8</ele>
        <time>2022-06-18T15:41:43Z</time>
      </trkpt>
      <trkpt lat="42.5508580" lon="-8.6390710">
        <ele>61.8</ele>
        <time>2022-06-18T15:41:44Z</time>
      </trkpt>
      <trkpt lat="42.5509080" lon="-8.6390530">
        <ele>61.8</ele>
        <time>2022-06-18T15:41:45Z</time>
      </trkpt>
      <trkpt lat="42.5509560" lon="-8.6390280">
        <ele>61.8</ele>
        <time>2022-06-18T15:41:46Z</time>
      </trkpt>
      <trkpt lat="42.5510050" lon="-8.6390030">
        <ele>62.2</ele>
        <time>2022-06-18T15:41:47Z</time>
      </trkpt>
      <trkpt lat="42.5510510" lon="-8.6389810">
        <ele>62.2</ele>
        <time>2022-06-18T15:41:48Z</time>
      </trkpt>
      <trkpt lat="42.5511010" lon="-8.6389680">
        <ele>62.2</ele>
        <time>2022-06-18T15:41:49Z</time>
      </trkpt>
      <trkpt lat="42.5511480" lon="-8.6389580">
        <ele>62.2</ele>
        <time>2022-06-18T15:41:50Z</time>
      </trkpt>
      <trkpt lat="42.5511960" lon="-8.6389510">
        <ele>61.6</ele>
        <time>2022-06-18T15:41:51Z</time>
      </trkpt>
      <trkpt lat="42.5512430" lon="-8.6389410">
        <ele>61.6</ele>
        <time>2022-06-18T15:41:52Z</time>
      </trkpt>
      <trkpt lat="42.5512880" lon="-8.6389250">
        <ele>61.6</ele>
        <time>2022-06-18T15:41:53Z</time>
      </trkpt>
      <trkpt lat="42.5513330" lon="-8.6389060">
        <ele>60.8</ele>
        <time>2022-06-18T15:41:54Z</time>
      </trkpt>
      <trkpt lat="42.5513760" lon="-8.6388950">
        <ele>60.4</ele>
        <time>2022-06-18T15:41:55Z</time>
      </trkpt>
      <trkpt lat="42.5514210" lon="-8.6388860">
        <ele>60.4</ele>
        <time>2022-06-18T15:41:56Z</time>
      </trkpt>
      <trkpt lat="42.5514680" lon="-8.6388760">
        <ele>60.4</ele>
        <time>2022-06-18T15:41:57Z</time>
      </trkpt>
      <trkpt lat="42.5515150" lon="-8.6388650">
        <ele>60.6</ele>
        <time>2022-06-18T15:41:58Z</time>
      </trkpt>
      <trkpt lat="42.5515610" lon="-8.6388530">
        <ele>61.4</ele>
        <time>2022-06-18T15:41:59Z</time>
      </trkpt>
      <trkpt lat="42.5516080" lon="-8.6388430">
        <ele>61.4</ele>
        <time>2022-06-18T15:42:00Z</time>
      </trkpt>
      <trkpt lat="42.5516560" lon="-8.6388310">
        <ele>61.4</ele>
        <time>2022-06-18T15:42:01Z</time>
      </trkpt>
      <trkpt lat="42.5517050" lon="-8.6388210">
        <ele>61.4</ele>
        <time>2022-06-18T15:42:02Z</time>
      </trkpt>
      <trkpt lat="42.5517550" lon="-8.6388150">
        <ele>61.0</ele>
        <time>2022-06-18T15:42:03Z</time>
      </trkpt>
      <trkpt lat="42.5518030" lon="-8.6388050">
        <ele>61.0</ele>
        <time>2022-06-18T15:42:04Z</time>
      </trkpt>
      <trkpt lat="42.5518550" lon="-8.6387950">
        <ele>61.0</ele>
        <time>2022-06-18T15:42:05Z</time>
      </trkpt>
      <trkpt lat="42.5519050" lon="-8.6387860">
        <ele>61.0</ele>
        <time>2022-06-18T15:42:06Z</time>
      </trkpt>
      <trkpt lat="42.5519550" lon="-8.6387800">
        <ele>60.4</ele>
        <time>2022-06-18T15:42:07Z</time>
      </trkpt>
      <trkpt lat="42.5520060" lon="-8.6387700">
        <ele>60.4</ele>
        <time>2022-06-18T15:42:08Z</time>
      </trkpt>
      <trkpt lat="42.5520550" lon="-8.6387630">
        <ele>60.4</ele>
        <time>2022-06-18T15:42:09Z</time>
      </trkpt>
      <trkpt lat="42.5521060" lon="-8.6387580">
        <ele>60.4</ele>
        <time>2022-06-18T15:42:10Z</time>
      </trkpt>
      <trkpt lat="42.5521600" lon="-8.6387510">
        <ele>60.4</ele>
        <time>2022-06-18T15:42:11Z</time>
      </trkpt>
      <trkpt lat="42.5522130" lon="-8.6387450">
        <ele>60.4</ele>
        <time>2022-06-18T15:42:12Z</time>
      </trkpt>
      <trkpt lat="42.5522660" lon="-8.6387380">
        <ele>60.4</ele>
        <time>2022-06-18T15:42:13Z</time>
      </trkpt>
      <trkpt lat="42.5523160" lon="-8.6387330">
        <ele>61.4</ele>
        <time>2022-06-18T15:42:14Z</time>
      </trkpt>
      <trkpt lat="42.5523700" lon="-8.6387230">
        <ele>60.8</ele>
        <time>2022-06-18T15:42:15Z</time>
      </trkpt>
      <trkpt lat="42.5524210" lon="-8.6387180">
        <ele>60.8</ele>
        <time>2022-06-18T15:42:16Z</time>
      </trkpt>
      <trkpt lat="42.5524730" lon="-8.6387130">
        <ele>60.8</ele>
        <time>2022-06-18T15:42:17Z</time>
      </trkpt>
      <trkpt lat="42.5525230" lon="-8.6387080">
        <ele>61.2</ele>
        <time>2022-06-18T15:42:18Z</time>
      </trkpt>
      <trkpt lat="42.5525750" lon="-8.6387010">
        <ele>61.2</ele>
        <time>2022-06-18T15:42:19Z</time>
      </trkpt>
      <trkpt lat="42.5526260" lon="-8.6386950">
        <ele>61.2</ele>
        <time>2022-06-18T15:42:20Z</time>
      </trkpt>
      <trkpt lat="42.5526780" lon="-8.6386900">
        <ele>61.2</ele>
        <time>2022-06-18T15:42:21Z</time>
      </trkpt>
      <trkpt lat="42.5527280" lon="-8.6386830">
        <ele>61.2</ele>
        <time>2022-06-18T15:42:22Z</time>
      </trkpt>
      <trkpt lat="42.5527760" lon="-8.6386710">
        <ele>61.2</ele>
        <time>2022-06-18T15:42:23Z</time>
      </trkpt>
      <trkpt lat="42.5528230" lon="-8.6386580">
        <ele>61.2</ele>
        <time>2022-06-18T15:42:24Z</time>
      </trkpt>
      <trkpt lat="42.5528660" lon="-8.6386430">
        <ele>61.2</ele>
        <time>2022-06-18T15:42:25Z</time>
      </trkpt>
      <trkpt lat="42.5529100" lon="-8.6386300">
        <ele>61.2</ele>
        <time>2022-06-18T15:42:26Z</time>
      </trkpt>
      <trkpt lat="42.5529530" lon="-8.6386210">
        <ele>61.8</ele>
        <time>2022-06-18T15:42:27Z</time>
      </trkpt>
      <trkpt lat="42.5529980" lon="-8.6386110">
        <ele>61.8</ele>
        <time>2022-06-18T15:42:28Z</time>
      </trkpt>
      <trkpt lat="42.5530450" lon="-8.6386030">
        <ele>61.8</ele>
        <time>2022-06-18T15:42:29Z</time>
      </trkpt>
      <trkpt lat="42.5530930" lon="-8.6385930">
        <ele>60.8</ele>
        <time>2022-06-18T15:42:30Z</time>
      </trkpt>
      <trkpt lat="42.5531460" lon="-8.6385810">
        <ele>59.8</ele>
        <time>2022-06-18T15:42:31Z</time>
      </trkpt>
      <trkpt lat="42.5532010" lon="-8.6385760">
        <ele>59.8</ele>
        <time>2022-06-18T15:42:32Z</time>
      </trkpt>
      <trkpt lat="42.5532580" lon="-8.6385700">
        <ele>59.8</ele>
        <time>2022-06-18T15:42:33Z</time>
      </trkpt>
      <trkpt lat="42.5533130" lon="-8.6385610">
        <ele>59.0</ele>
        <time>2022-06-18T15:42:34Z</time>
      </trkpt>
      <trkpt lat="42.5533710" lon="-8.6385530">
        <ele>57.0</ele>
        <time>2022-06-18T15:42:35Z</time>
      </trkpt>
      <trkpt lat="42.5534300" lon="-8.6385430">
        <ele>57.0</ele>
        <time>2022-06-18T15:42:36Z</time>
      </trkpt>
      <trkpt lat="42.5534910" lon="-8.6385310">
        <ele>57.0</ele>
        <time>2022-06-18T15:42:37Z</time>
      </trkpt>
      <trkpt lat="42.5535550" lon="-8.6385200">
        <ele>57.2</ele>
        <time>2022-06-18T15:42:38Z</time>
      </trkpt>
      <trkpt lat="42.5536160" lon="-8.6385060">
        <ele>57.8</ele>
        <time>2022-06-18T15:42:39Z</time>
      </trkpt>
      <trkpt lat="42.5536800" lon="-8.6384910">
        <ele>57.8</ele>
        <time>2022-06-18T15:42:40Z</time>
      </trkpt>
      <trkpt lat="42.5537430" lon="-8.6384780">
        <ele>57.8</ele>
        <time>2022-06-18T15:42:41Z</time>
      </trkpt>
      <trkpt lat="42.5538050" lon="-8.6384660">
        <ele>57.8</ele>
        <time>2022-06-18T15:42:42Z</time>
      </trkpt>
      <trkpt lat="42.5538660" lon="-8.6384530">
        <ele>56.4</ele>
        <time>2022-06-18T15:42:43Z</time>
      </trkpt>
      <trkpt lat="42.5539230" lon="-8.6384330">
        <ele>56.4</ele>
        <time>2022-06-18T15:42:44Z</time>
      </trkpt>
      <trkpt lat="42.5539800" lon="-8.6384050">
        <ele>56.4</ele>
        <time>2022-06-18T15:42:45Z</time>
      </trkpt>
      <trkpt lat="42.5540330" lon="-8.6383750">
        <ele>57.4</ele>
        <time>2022-06-18T15:42:46Z</time>
      </trkpt>
      <trkpt lat="42.5540850" lon="-8.6383500">
        <ele>58.4</ele>
        <time>2022-06-18T15:42:47Z</time>
      </trkpt>
      <trkpt lat="42.5541360" lon="-8.6383300">
        <ele>58.4</ele>
        <time>2022-06-18T15:42:48Z</time>
      </trkpt>
      <trkpt lat="42.5541880" lon="-8.6383100">
        <ele>58.4</ele>
        <time>2022-06-18T15:42:49Z</time>
      </trkpt>
      <trkpt lat="42.5542360" lon="-8.6382880">
        <ele>57.6</ele>
        <time>2022-06-18T15:42:50Z</time>
      </trkpt>
      <trkpt lat="42.5542850" lon="-8.6382660">
        <ele>55.8</ele>
        <time>2022-06-18T15:42:51Z</time>
      </trkpt>
      <trkpt lat="42.5543300" lon="-8.6382460">
        <ele>55.8</ele>
        <time>2022-06-18T15:42:52Z</time>
      </trkpt>
      <trkpt lat="42.5543750" lon="-8.6382210">
        <ele>55.8</ele>
        <time>2022-06-18T15:42:53Z</time>
      </trkpt>
      <trkpt lat="42.5544200" lon="-8.6382000">
        <ele>56.6</ele>
        <time>2022-06-18T15:42:54Z</time>
      </trkpt>
      <trkpt lat="42.5544650" lon="-8.6381780">
        <ele>57.0</ele>
        <time>2022-06-18T15:42:55Z</time>
      </trkpt>
      <trkpt lat="42.5545100" lon="-8.6381560">
        <ele>57.0</ele>
        <time>2022-06-18T15:42:56Z</time>
      </trkpt>
      <trkpt lat="42.5545560" lon="-8.6381360">
        <ele>57.0</ele>
        <time>2022-06-18T15:42:57Z</time>
      </trkpt>
      <trkpt lat="42.5546010" lon="-8.6381160">
        <ele>57.0</ele>
        <time>2022-06-18T15:42:58Z</time>
      </trkpt>
      <trkpt lat="42.5546460" lon="-8.6380910">
        <ele>57.4</ele>
        <time>2022-06-18T15:42:59Z</time>
      </trkpt>
      <trkpt lat="42.5546930" lon="-8.6380650">
        <ele>57.4</ele>
        <time>2022-06-18T15:43:00Z</time>
      </trkpt>
      <trkpt lat="42.5547360" lon="-8.6380380">
        <ele>57.4</ele>
        <time>2022-06-18T15:43:01Z</time>
      </trkpt>
      <trkpt lat="42.5547810" lon="-8.6380110">
        <ele>57.4</ele>
        <time>2022-06-18T15:43:02Z</time>
      </trkpt>
      <trkpt lat="42.5548230" lon="-8.6379900">
        <ele>58.0</ele>
        <time>2022-06-18T15:43:03Z</time>
      </trkpt>
      <trkpt lat="42.5548650" lon="-8.6379660">
        <ele>58.0</ele>
        <time>2022-06-18T15:43:04Z</time>
      </trkpt>
      <trkpt lat="42.5549050" lon="-8.6379410">
        <ele>58.0</ele>
        <time>2022-06-18T15:43:05Z</time>
      </trkpt>
      <trkpt lat="42.5549460" lon="-8.6379130">
        <ele>58.0</ele>
        <time>2022-06-18T15:43:06Z</time>
      </trkpt>
      <trkpt lat="42.5549830" lon="-8.6378900">
        <ele>58.4</ele>
        <time>2022-06-18T15:43:07Z</time>
      </trkpt>
      <trkpt lat="42.5550180" lon="-8.6378700">
        <ele>58.4</ele>
        <time>2022-06-18T15:43:08Z</time>
      </trkpt>
      <trkpt lat="42.5550530" lon="-8.6378530">
        <ele>58.4</ele>
        <time>2022-06-18T15:43:09Z</time>
      </trkpt>
      <trkpt lat="42.5550880" lon="-8.6378400">
        <ele>58.4</ele>
        <time>2022-06-18T15:43:10Z</time>
      </trkpt>
      <trkpt lat="42.5551160" lon="-8.6378280">
        <ele>58.6</ele>
        <time>2022-06-18T15:43:11Z</time>
      </trkpt>
      <trkpt lat="42.5551350" lon="-8.6378110">
        <ele>58.6</ele>
        <time>2022-06-18T15:43:12Z</time>
      </trkpt>
      <trkpt lat="42.5551530" lon="-8.6377960">
        <ele>58.6</ele>
        <time>2022-06-18T15:43:13Z</time>
      </trkpt>
      <trkpt lat="42.5551750" lon="-8.6377850">
        <ele>58.2</ele>
        <time>2022-06-18T15:43:14Z</time>
      </trkpt>
      <trkpt lat="42.5552010" lon="-8.6377800">
        <ele>57.4</ele>
        <time>2022-06-18T15:43:15Z</time>
      </trkpt>
      <trkpt lat="42.5552360" lon="-8.6377760">
        <ele>57.4</ele>
        <time>2022-06-18T15:43:16Z</time>
      </trkpt>
      <trkpt lat="42.5552750" lon="-8.6377750">
        <ele>57.4</ele>
        <time>2022-06-18T15:43:17Z</time>
      </trkpt>
      <trkpt lat="42.5553160" lon="-8.6377700">
        <ele>57.4</ele>
        <time>2022-06-18T15:43:18Z</time>
      </trkpt>
      <trkpt lat="42.5553600" lon="-8.6377650">
        <ele>57.4</ele>
        <time>2022-06-18T15:43:19Z</time>
      </trkpt>
      <trkpt lat="42.5554010" lon="-8.6377610">
        <ele>57.4</ele>
        <time>2022-06-18T15:43:20Z</time>
      </trkpt>
      <trkpt lat="42.5554430" lon="-8.6377560">
        <ele>57.4</ele>
        <time>2022-06-18T15:43:21Z</time>
      </trkpt>
      <trkpt lat="42.5554860" lon="-8.6377530">
        <ele>57.8</ele>
        <time>2022-06-18T15:43:22Z</time>
      </trkpt>
      <trkpt lat="42.5555310" lon="-8.6377500">
        <ele>57.0</ele>
        <time>2022-06-18T15:43:23Z</time>
      </trkpt>
      <trkpt lat="42.5555780" lon="-8.6377460">
        <ele>57.0</ele>
        <time>2022-06-18T15:43:24Z</time>
      </trkpt>
      <trkpt lat="42.5556230" lon="-8.6377430">
        <ele>57.0</ele>
        <time>2022-06-18T15:43:25Z</time>
      </trkpt>
      <trkpt lat="42.5556630" lon="-8.6377410">
        <ele>57.2</ele>
        <time>2022-06-18T15:43:26Z</time>
      </trkpt>
      <trkpt lat="42.5557000" lon="-8.6377410">
        <ele>57.4</ele>
        <time>2022-06-18T15:43:27Z</time>
      </trkpt>
      <trkpt lat="42.5557310" lon="-8.6377400">
        <ele>57.4</ele>
        <time>2022-06-18T15:43:28Z</time>
      </trkpt>
      <trkpt lat="42.5557600" lon="-8.6377310">
        <ele>57.4</ele>
        <time>2022-06-18T15:43:29Z</time>
      </trkpt>
      <trkpt lat="42.5557880" lon="-8.6377230">
        <ele>57.8</ele>
        <time>2022-06-18T15:43:30Z</time>
      </trkpt>
      <trkpt lat="42.5558150" lon="-8.6377150">
        <ele>57.8</ele>
        <time>2022-06-18T15:43:31Z</time>
      </trkpt>
      <trkpt lat="42.5558450" lon="-8.6377060">
        <ele>57.8</ele>
        <time>2022-06-18T15:43:32Z</time>
      </trkpt>
      <trkpt lat="42.5558750" lon="-8.6377050">
        <ele>57.8</ele>
        <time>2022-06-18T15:43:33Z</time>
      </trkpt>
      <trkpt lat="42.5559080" lon="-8.6377050">
        <ele>56.8</ele>
        <time>2022-06-18T15:43:34Z</time>
      </trkpt>
      <trkpt lat="42.5559460" lon="-8.6377010">
        <ele>56.8</ele>
        <time>2022-06-18T15:43:35Z</time>
      </trkpt>
      <trkpt lat="42.5559860" lon="-8.6377000">
        <ele>56.8</ele>
        <time>2022-06-18T15:43:36Z</time>
      </trkpt>
      <trkpt lat="42.5560280" lon="-8.6376980">
        <ele>56.8</ele>
        <time>2022-06-18T15:43:37Z</time>
      </trkpt>
      <trkpt lat="42.5560700" lon="-8.6376950">
        <ele>56.8</ele>
        <time>2022-06-18T15:43:38Z</time>
      </trkpt>
      <trkpt lat="42.5561130" lon="-8.6376910">
        <ele>56.2</ele>
        <time>2022-06-18T15:43:39Z</time>
      </trkpt>
      <trkpt lat="42.5561580" lon="-8.6376880">
        <ele>56.2</ele>
        <time>2022-06-18T15:43:40Z</time>
      </trkpt>
      <trkpt lat="42.5562030" lon="-8.6376850">
        <ele>56.2</ele>
        <time>2022-06-18T15:43:41Z</time>
      </trkpt>
      <trkpt lat="42.5562480" lon="-8.6376830">
        <ele>56.2</ele>
        <time>2022-06-18T15:43:42Z</time>
      </trkpt>
      <trkpt lat="42.5562930" lon="-8.6376800">
        <ele>56.2</ele>
        <time>2022-06-18T15:43:43Z</time>
      </trkpt>
      <trkpt lat="42.5563380" lon="-8.6376760">
        <ele>56.2</ele>
        <time>2022-06-18T15:43:44Z</time>
      </trkpt>
      <trkpt lat="42.5563850" lon="-8.6376710">
        <ele>56.2</ele>
        <time>2022-06-18T15:43:45Z</time>
      </trkpt>
      <trkpt lat="42.5564300" lon="-8.6376700">
        <ele>56.2</ele>
        <time>2022-06-18T15:43:46Z</time>
      </trkpt>
      <trkpt lat="42.5564750" lon="-8.6376650">
        <ele>56.4</ele>
        <time>2022-06-18T15:43:47Z</time>
      </trkpt>
      <trkpt lat="42.5565200" lon="-8.6376580">
        <ele>56.4</ele>
        <time>2022-06-18T15:43:48Z</time>
      </trkpt>
      <trkpt lat="42.5565650" lon="-8.6376530">
        <ele>56.4</ele>
        <time>2022-06-18T15:43:49Z</time>
      </trkpt>
      <trkpt lat="42.5566080" lon="-8.6376500">
        <ele>56.4</ele>
        <time>2022-06-18T15:43:50Z</time>
      </trkpt>
      <trkpt lat="42.5566510" lon="-8.6376510">
        <ele>56.8</ele>
        <time>2022-06-18T15:43:51Z</time>
      </trkpt>
      <trkpt lat="42.5566950" lon="-8.6376580">
        <ele>56.8</ele>
        <time>2022-06-18T15:43:52Z</time>
      </trkpt>
      <trkpt lat="42.5567360" lon="-8.6376610">
        <ele>56.8</ele>
        <time>2022-06-18T15:43:53Z</time>
      </trkpt>
      <trkpt lat="42.5567750" lon="-8.6376600">
        <ele>56.8</ele>
        <time>2022-06-18T15:43:54Z</time>
      </trkpt>
      <trkpt lat="42.5568060" lon="-8.6376600">
        <ele>58.8</ele>
        <time>2022-06-18T15:43:55Z</time>
      </trkpt>
      <trkpt lat="42.5568310" lon="-8.6376560">
        <ele>58.8</ele>
        <time>2022-06-18T15:43:56Z</time>
      </trkpt>
      <trkpt lat="42.5568430" lon="-8.6376580">
        <ele>58.8</ele>
        <time>2022-06-18T15:43:57Z</time>
      </trkpt>
      <trkpt lat="42.5568450" lon="-8.6376580">
        <ele>58.8</ele>
        <time>2022-06-18T15:43:58Z</time>
      </trkpt>
      <trkpt lat="42.5568450" lon="-8.6376580">
        <ele>58.8</ele>
        <time>2022-06-18T15:43:59Z</time>
      </trkpt>
      <trkpt lat="42.5568260" lon="-8.6376610">
        <ele>58.6</ele>
        <time>2022-06-18T15:44:03Z</time>
      </trkpt>
      <trkpt lat="42.5568160" lon="-8.6376600">
        <ele>58.6</ele>
        <time>2022-06-18T15:44:04Z</time>
      </trkpt>
      <trkpt lat="42.5568060" lon="-8.6376560">
        <ele>58.6</ele>
        <time>2022-06-18T15:44:05Z</time>
      </trkpt>
      <trkpt lat="42.5567960" lon="-8.6376560">
        <ele>58.6</ele>
        <time>2022-06-18T15:44:06Z</time>
      </trkpt>
      <trkpt lat="42.5567850" lon="-8.6376550">
        <ele>59.0</ele>
        <time>2022-06-18T15:44:07Z</time>
      </trkpt>
      <trkpt lat="42.5567830" lon="-8.6376430">
        <ele>59.0</ele>
        <time>2022-06-18T15:44:08Z</time>
      </trkpt>
      <trkpt lat="42.5567930" lon="-8.6376350">
        <ele>59.0</ele>
        <time>2022-06-18T15:44:09Z</time>
      </trkpt>
      <trkpt lat="42.5568050" lon="-8.6376310">
        <ele>59.0</ele>
        <time>2022-06-18T15:44:10Z</time>
      </trkpt>
      <trkpt lat="42.5568150" lon="-8.6376310">
        <ele>59.2</ele>
        <time>2022-06-18T15:44:11Z</time>
      </trkpt>
      <trkpt lat="42.5568250" lon="-8.6376300">
        <ele>59.2</ele>
        <time>2022-06-18T15:44:12Z</time>
      </trkpt>
      <trkpt lat="42.5568360" lon="-8.6376280">
        <ele>59.2</ele>
        <time>2022-06-18T15:44:13Z</time>
      </trkpt>
      <trkpt lat="42.5568460" lon="-8.6376260">
        <ele>59.2</ele>
        <time>2022-06-18T15:44:14Z</time>
      </trkpt>
      <trkpt lat="42.5568580" lon="-8.6376250">
        <ele>58.8</ele>
        <time>2022-06-18T15:44:15Z</time>
      </trkpt>
      <trkpt lat="42.5568650" lon="-8.6376260">
        <ele>58.8</ele>
        <time>2022-06-18T15:44:16Z</time>
      </trkpt>
      <trkpt lat="42.5568710" lon="-8.6376250">
        <ele>58.8</ele>
        <time>2022-06-18T15:44:17Z</time>
      </trkpt>
      <trkpt lat="42.5568780" lon="-8.6376180">
        <ele>59.2</ele>
        <time>2022-06-18T15:44:18Z</time>
      </trkpt>
      <trkpt lat="42.5568830" lon="-8.6376180">
        <ele>59.0</ele>
        <time>2022-06-18T15:44:19Z</time>
      </trkpt>
      <trkpt lat="42.5568830" lon="-8.6376180">
        <ele>59.0</ele>
        <time>2022-06-18T15:44:20Z</time>
      </trkpt>
      <trkpt lat="42.5569230" lon="-8.6376230">
        <ele>59.2</ele>
        <time>2022-06-18T15:44:28Z</time>
      </trkpt>
      <trkpt lat="42.5569380" lon="-8.6376200">
        <ele>59.2</ele>
        <time>2022-06-18T15:44:29Z</time>
      </trkpt>
      <trkpt lat="42.5569580" lon="-8.6376150">
        <ele>59.2</ele>
        <time>2022-06-18T15:44:30Z</time>
      </trkpt>
      <trkpt lat="42.5569810" lon="-8.6376110">
        <ele>59.0</ele>
        <time>2022-06-18T15:44:31Z</time>
      </trkpt>
      <trkpt lat="42.5570050" lon="-8.6376050">
        <ele>59.0</ele>
        <time>2022-06-18T15:44:32Z</time>
      </trkpt>
      <trkpt lat="42.5570300" lon="-8.6376050">
        <ele>59.0</ele>
        <time>2022-06-18T15:44:33Z</time>
      </trkpt>
      <trkpt lat="42.5570560" lon="-8.6376010">
        <ele>59.4</ele>
        <time>2022-06-18T15:44:34Z</time>
      </trkpt>
      <trkpt lat="42.5570810" lon="-8.6376010">
        <ele>59.4</ele>
        <time>2022-06-18T15:44:35Z</time>
      </trkpt>
      <trkpt lat="42.5571060" lon="-8.6375980">
        <ele>59.4</ele>
        <time>2022-06-18T15:44:36Z</time>
      </trkpt>
      <trkpt lat="42.5571310" lon="-8.6375960">
        <ele>59.4</ele>
        <time>2022-06-18T15:44:37Z</time>
      </trkpt>
      <trkpt lat="42.5571610" lon="-8.6375900">
        <ele>59.4</ele>
        <time>2022-06-18T15:44:38Z</time>
      </trkpt>
      <trkpt lat="42.5571900" lon="-8.6375850">
        <ele>59.4</ele>
        <time>2022-06-18T15:44:39Z</time>
      </trkpt>
      <trkpt lat="42.5572230" lon="-8.6375780">
        <ele>59.4</ele>
        <time>2022-06-18T15:44:40Z</time>
      </trkpt>
      <trkpt lat="42.5572650" lon="-8.6375730">
        <ele>59.4</ele>
        <time>2022-06-18T15:44:41Z</time>
      </trkpt>
      <trkpt lat="42.5573130" lon="-8.6375680">
        <ele>59.2</ele>
        <time>2022-06-18T15:44:42Z</time>
      </trkpt>
      <trkpt lat="42.5573650" lon="-8.6375610">
        <ele>59.2</ele>
        <time>2022-06-18T15:44:43Z</time>
      </trkpt>
      <trkpt lat="42.5574150" lon="-8.6375510">
        <ele>59.2</ele>
        <time>2022-06-18T15:44:44Z</time>
      </trkpt>
      <trkpt lat="42.5574700" lon="-8.6375410">
        <ele>59.2</ele>
        <time>2022-06-18T15:44:45Z</time>
      </trkpt>
      <trkpt lat="42.5575210" lon="-8.6375400">
        <ele>59.2</ele>
        <time>2022-06-18T15:44:46Z</time>
      </trkpt>
      <trkpt lat="42.5575730" lon="-8.6375430">
        <ele>59.6</ele>
        <time>2022-06-18T15:44:47Z</time>
      </trkpt>
      <trkpt lat="42.5576250" lon="-8.6375410">
        <ele>59.6</ele>
        <time>2022-06-18T15:44:48Z</time>
      </trkpt>
      <trkpt lat="42.5576760" lon="-8.6375400">
        <ele>59.6</ele>
        <time>2022-06-18T15:44:49Z</time>
      </trkpt>
      <trkpt lat="42.5577310" lon="-8.6375360">
        <ele>60.6</ele>
        <time>2022-06-18T15:44:50Z</time>
      </trkpt>
      <trkpt lat="42.5577850" lon="-8.6375360">
        <ele>60.4</ele>
        <time>2022-06-18T15:44:51Z</time>
      </trkpt>
      <trkpt lat="42.5578360" lon="-8.6375360">
        <ele>60.4</ele>
        <time>2022-06-18T15:44:52Z</time>
      </trkpt>
      <trkpt lat="42.5578850" lon="-8.6375360">
        <ele>60.4</ele>
        <time>2022-06-18T15:44:53Z</time>
      </trkpt>
      <trkpt lat="42.5579330" lon="-8.6375350">
        <ele>61.4</ele>
        <time>2022-06-18T15:44:54Z</time>
      </trkpt>
      <trkpt lat="42.5579800" lon="-8.6375310">
        <ele>62.4</ele>
        <time>2022-06-18T15:44:55Z</time>
      </trkpt>
      <trkpt lat="42.5580230" lon="-8.6375330">
        <ele>62.4</ele>
        <time>2022-06-18T15:44:56Z</time>
      </trkpt>
      <trkpt lat="42.5580610" lon="-8.6375310">
        <ele>62.4</ele>
        <time>2022-06-18T15:44:57Z</time>
      </trkpt>
      <trkpt lat="42.5580960" lon="-8.6375280">
        <ele>63.2</ele>
        <time>2022-06-18T15:44:58Z</time>
      </trkpt>
      <trkpt lat="42.5581280" lon="-8.6375230">
        <ele>62.2</ele>
        <time>2022-06-18T15:44:59Z</time>
      </trkpt>
      <trkpt lat="42.5581550" lon="-8.6375200">
        <ele>62.2</ele>
        <time>2022-06-18T15:45:00Z</time>
      </trkpt>
      <trkpt lat="42.5581780" lon="-8.6375210">
        <ele>62.2</ele>
        <time>2022-06-18T15:45:01Z</time>
      </trkpt>
      <trkpt lat="42.5581980" lon="-8.6375210">
        <ele>63.2</ele>
        <time>2022-06-18T15:45:02Z</time>
      </trkpt>
      <trkpt lat="42.5582130" lon="-8.6375230">
        <ele>64.4</ele>
        <time>2022-06-18T15:45:03Z</time>
      </trkpt>
      <trkpt lat="42.5582250" lon="-8.6375250">
        <ele>64.4</ele>
        <time>2022-06-18T15:45:04Z</time>
      </trkpt>
      <trkpt lat="42.5582400" lon="-8.6375230">
        <ele>64.4</ele>
        <time>2022-06-18T15:45:05Z</time>
      </trkpt>
      <trkpt lat="42.5582610" lon="-8.6375180">
        <ele>64.4</ele>
        <time>2022-06-18T15:45:06Z</time>
      </trkpt>
      <trkpt lat="42.5582850" lon="-8.6375110">
        <ele>63.8</ele>
        <time>2022-06-18T15:45:07Z</time>
      </trkpt>
      <trkpt lat="42.5583130" lon="-8.6375060">
        <ele>63.8</ele>
        <time>2022-06-18T15:45:08Z</time>
      </trkpt>
      <trkpt lat="42.5583430" lon="-8.6375010">
        <ele>63.8</ele>
        <time>2022-06-18T15:45:09Z</time>
      </trkpt>
      <trkpt lat="42.5583710" lon="-8.6375030">
        <ele>63.8</ele>
        <time>2022-06-18T15:45:10Z</time>
      </trkpt>
      <trkpt lat="42.5584010" lon="-8.6375100">
        <ele>63.8</ele>
        <time>2022-06-18T15:45:11Z</time>
      </trkpt>
      <trkpt lat="42.5584330" lon="-8.6375200">
        <ele>63.8</ele>
        <time>2022-06-18T15:45:12Z</time>
      </trkpt>
      <trkpt lat="42.5584710" lon="-8.6375250">
        <ele>63.8</ele>
        <time>2022-06-18T15:45:13Z</time>
      </trkpt>
      <trkpt lat="42.5585130" lon="-8.6375250">
        <ele>63.8</ele>
        <time>2022-06-18T15:45:14Z</time>
      </trkpt>
      <trkpt lat="42.5585510" lon="-8.6375250">
        <ele>64.0</ele>
        <time>2022-06-18T15:45:15Z</time>
      </trkpt>
      <trkpt lat="42.5585900" lon="-8.6375250">
        <ele>64.0</ele>
        <time>2022-06-18T15:45:16Z</time>
      </trkpt>
      <trkpt lat="42.5586300" lon="-8.6375250">
        <ele>64.0</ele>
        <time>2022-06-18T15:45:17Z</time>
      </trkpt>
      <trkpt lat="42.5586660" lon="-8.6375260">
        <ele>64.0</ele>
        <time>2022-06-18T15:45:18Z</time>
      </trkpt>
      <trkpt lat="42.5587030" lon="-8.6375280">
        <ele>64.6</ele>
        <time>2022-06-18T15:45:19Z</time>
      </trkpt>
      <trkpt lat="42.5587410" lon="-8.6375260">
        <ele>64.6</ele>
        <time>2022-06-18T15:45:20Z</time>
      </trkpt>
      <trkpt lat="42.5587780" lon="-8.6375280">
        <ele>64.6</ele>
        <time>2022-06-18T15:45:21Z</time>
      </trkpt>
      <trkpt lat="42.5588130" lon="-8.6375280">
        <ele>65.0</ele>
        <time>2022-06-18T15:45:22Z</time>
      </trkpt>
      <trkpt lat="42.5588510" lon="-8.6375310">
        <ele>65.0</ele>
        <time>2022-06-18T15:45:23Z</time>
      </trkpt>
      <trkpt lat="42.5588880" lon="-8.6375360">
        <ele>65.0</ele>
        <time>2022-06-18T15:45:24Z</time>
      </trkpt>
      <trkpt lat="42.5589210" lon="-8.6375450">
        <ele>65.0</ele>
        <time>2022-06-18T15:45:25Z</time>
      </trkpt>
      <trkpt lat="42.5589560" lon="-8.6375530">
        <ele>66.0</ele>
        <time>2022-06-18T15:45:26Z</time>
      </trkpt>
      <trkpt lat="42.5589900" lon="-8.6375630">
        <ele>66.2</ele>
        <time>2022-06-18T15:45:27Z</time>
      </trkpt>
      <trkpt lat="42.5590260" lon="-8.6375700">
        <ele>66.2</ele>
        <time>2022-06-18T15:45:28Z</time>
      </trkpt>
      <trkpt lat="42.5590630" lon="-8.6375800">
        <ele>66.2</ele>
        <time>2022-06-18T15:45:29Z</time>
      </trkpt>
      <trkpt lat="42.5591010" lon="-8.6375880">
        <ele>66.2</ele>
        <time>2022-06-18T15:45:30Z</time>
      </trkpt>
      <trkpt lat="42.5591400" lon="-8.6376000">
        <ele>66.2</ele>
        <time>2022-06-18T15:45:31Z</time>
      </trkpt>
      <trkpt lat="42.5591800" lon="-8.6376110">
        <ele>66.2</ele>
        <time>2022-06-18T15:45:32Z</time>
      </trkpt>
      <trkpt lat="42.5592210" lon="-8.6376200">
        <ele>66.2</ele>
        <time>2022-06-18T15:45:33Z</time>
      </trkpt>
      <trkpt lat="42.5592630" lon="-8.6376300">
        <ele>66.2</ele>
        <time>2022-06-18T15:45:34Z</time>
      </trkpt>
      <trkpt lat="42.5593030" lon="-8.6376460">
        <ele>67.6</ele>
        <time>2022-06-18T15:45:35Z</time>
      </trkpt>
      <trkpt lat="42.5593410" lon="-8.6376650">
        <ele>67.6</ele>
        <time>2022-06-18T15:45:36Z</time>
      </trkpt>
      <trkpt lat="42.5593800" lon="-8.6376850">
        <ele>67.6</ele>
        <time>2022-06-18T15:45:37Z</time>
      </trkpt>
      <trkpt lat="42.5594200" lon="-8.6377000">
        <ele>67.6</ele>
        <time>2022-06-18T15:45:38Z</time>
      </trkpt>
      <trkpt lat="42.5594610" lon="-8.6377150">
        <ele>68.0</ele>
        <time>2022-06-18T15:45:39Z</time>
      </trkpt>
      <trkpt lat="42.5595010" lon="-8.6377330">
        <ele>68.0</ele>
        <time>2022-06-18T15:45:40Z</time>
      </trkpt>
      <trkpt lat="42.5595410" lon="-8.6377510">
        <ele>68.0</ele>
        <time>2022-06-18T15:45:41Z</time>
      </trkpt>
      <trkpt lat="42.5595800" lon="-8.6377710">
        <ele>68.8</ele>
        <time>2022-06-18T15:45:42Z</time>
      </trkpt>
      <trkpt lat="42.5596200" lon="-8.6377900">
        <ele>69.2</ele>
        <time>2022-06-18T15:45:43Z</time>
      </trkpt>
      <trkpt lat="42.5596580" lon="-8.6378130">
        <ele>69.2</ele>
        <time>2022-06-18T15:45:44Z</time>
      </trkpt>
      <trkpt lat="42.5596960" lon="-8.6378360">
        <ele>69.2</ele>
        <time>2022-06-18T15:45:45Z</time>
      </trkpt>
      <trkpt lat="42.5597350" lon="-8.6378580">
        <ele>68.2</ele>
        <time>2022-06-18T15:45:46Z</time>
      </trkpt>
      <trkpt lat="42.5597710" lon="-8.6378780">
        <ele>68.6</ele>
        <time>2022-06-18T15:45:47Z</time>
      </trkpt>
      <trkpt lat="42.5598080" lon="-8.6379000">
        <ele>68.6</ele>
        <time>2022-06-18T15:45:48Z</time>
      </trkpt>
      <trkpt lat="42.5598430" lon="-8.6379250">
        <ele>68.6</ele>
        <time>2022-06-18T15:45:49Z</time>
      </trkpt>
      <trkpt lat="42.5598780" lon="-8.6379510">
        <ele>68.6</ele>
        <time>2022-06-18T15:45:50Z</time>
      </trkpt>
      <trkpt lat="42.5599150" lon="-8.6379800">
        <ele>68.6</ele>
        <time>2022-06-18T15:45:51Z</time>
      </trkpt>
      <trkpt lat="42.5599510" lon="-8.6380030">
        <ele>68.6</ele>
        <time>2022-06-18T15:45:52Z</time>
      </trkpt>
      <trkpt lat="42.5599850" lon="-8.6380250">
        <ele>68.6</ele>
        <time>2022-06-18T15:45:53Z</time>
      </trkpt>
      <trkpt lat="42.5600180" lon="-8.6380450">
        <ele>69.2</ele>
        <time>2022-06-18T15:45:54Z</time>
      </trkpt>
      <trkpt lat="42.5600500" lon="-8.6380630">
        <ele>69.6</ele>
        <time>2022-06-18T15:45:55Z</time>
      </trkpt>
      <trkpt lat="42.5600860" lon="-8.6380760">
        <ele>69.6</ele>
        <time>2022-06-18T15:45:56Z</time>
      </trkpt>
      <trkpt lat="42.5601250" lon="-8.6380800">
        <ele>69.6</ele>
        <time>2022-06-18T15:45:57Z</time>
      </trkpt>
      <trkpt lat="42.5601660" lon="-8.6380780">
        <ele>68.6</ele>
        <time>2022-06-18T15:45:58Z</time>
      </trkpt>
      <trkpt lat="42.5602100" lon="-8.6380810">
        <ele>67.4</ele>
        <time>2022-06-18T15:45:59Z</time>
      </trkpt>
      <trkpt lat="42.5602550" lon="-8.6380950">
        <ele>67.4</ele>
        <time>2022-06-18T15:46:00Z</time>
      </trkpt>
      <trkpt lat="42.5603010" lon="-8.6381160">
        <ele>67.4</ele>
        <time>2022-06-18T15:46:01Z</time>
      </trkpt>
      <trkpt lat="42.5603450" lon="-8.6381460">
        <ele>66.4</ele>
        <time>2022-06-18T15:46:02Z</time>
      </trkpt>
      <trkpt lat="42.5603900" lon="-8.6381810">
        <ele>66.2</ele>
        <time>2022-06-18T15:46:03Z</time>
      </trkpt>
      <trkpt lat="42.5604330" lon="-8.6382130">
        <ele>66.2</ele>
        <time>2022-06-18T15:46:04Z</time>
      </trkpt>
      <trkpt lat="42.5604800" lon="-8.6382460">
        <ele>66.2</ele>
        <time>2022-06-18T15:46:05Z</time>
      </trkpt>
      <trkpt lat="42.5605260" lon="-8.6382810">
        <ele>66.2</ele>
        <time>2022-06-18T15:46:06Z</time>
      </trkpt>
      <trkpt lat="42.5605730" lon="-8.6383160">
        <ele>64.8</ele>
        <time>2022-06-18T15:46:07Z</time>
      </trkpt>
      <trkpt lat="42.5606230" lon="-8.6383510">
        <ele>64.8</ele>
        <time>2022-06-18T15:46:08Z</time>
      </trkpt>
      <trkpt lat="42.5606730" lon="-8.6383860">
        <ele>64.8</ele>
        <time>2022-06-18T15:46:09Z</time>
      </trkpt>
      <trkpt lat="42.5607250" lon="-8.6384250">
        <ele>64.0</ele>
        <time>2022-06-18T15:46:10Z</time>
      </trkpt>
      <trkpt lat="42.5607750" lon="-8.6384630">
        <ele>63.8</ele>
        <time>2022-06-18T15:46:11Z</time>
      </trkpt>
      <trkpt lat="42.5608260" lon="-8.6385030">
        <ele>63.8</ele>
        <time>2022-06-18T15:46:12Z</time>
      </trkpt>
      <trkpt lat="42.5608780" lon="-8.6385410">
        <ele>63.8</ele>
        <time>2022-06-18T15:46:13Z</time>
      </trkpt>
      <trkpt lat="42.5609310" lon="-8.6385780">
        <ele>62.8</ele>
        <time>2022-06-18T15:46:14Z</time>
      </trkpt>
      <trkpt lat="42.5609850" lon="-8.6386160">
        <ele>63.0</ele>
        <time>2022-06-18T15:46:15Z</time>
      </trkpt>
      <trkpt lat="42.5610360" lon="-8.6386560">
        <ele>63.0</ele>
        <time>2022-06-18T15:46:16Z</time>
      </trkpt>
      <trkpt lat="42.5610910" lon="-8.6386930">
        <ele>63.0</ele>
        <time>2022-06-18T15:46:17Z</time>
      </trkpt>
      <trkpt lat="42.5611450" lon="-8.6387310">
        <ele>63.0</ele>
        <time>2022-06-18T15:46:18Z</time>
      </trkpt>
      <trkpt lat="42.5612000" lon="-8.6387700">
        <ele>62.6</ele>
        <time>2022-06-18T15:46:19Z</time>
      </trkpt>
      <trkpt lat="42.5612820" lon="-8.6388270">
        <ele>62.6</ele>
        <time>2022-06-18T15:46:20Z</time>
      </trkpt>
      <trkpt lat="42.5613090" lon="-8.6388470">
        <ele>62.6</ele>
        <time>2022-06-18T15:46:21Z</time>
      </trkpt>
      <trkpt lat="42.5613630" lon="-8.6388860">
        <ele>61.6</ele>
        <time>2022-06-18T15:46:22Z</time>
      </trkpt>
      <trkpt lat="42.5614180" lon="-8.6389260">
        <ele>62.0</ele>
        <time>2022-06-18T15:46:23Z</time>
      </trkpt>
      <trkpt lat="42.5614730" lon="-8.6389660">
        <ele>62.0</ele>
        <time>2022-06-18T15:46:24Z</time>
      </trkpt>
      <trkpt lat="42.5615280" lon="-8.6390060">
        <ele>62.0</ele>
        <time>2022-06-18T15:46:25Z</time>
      </trkpt>
      <trkpt lat="42.5615830" lon="-8.6390450">
        <ele>61.4</ele>
        <time>2022-06-18T15:46:26Z</time>
      </trkpt>
      <trkpt lat="42.5616360" lon="-8.6390850">
        <ele>61.6</ele>
        <time>2022-06-18T15:46:27Z</time>
      </trkpt>
      <trkpt lat="42.5616900" lon="-8.6391210">
        <ele>61.6</ele>
        <time>2022-06-18T15:46:28Z</time>
      </trkpt>
      <trkpt lat="42.5617430" lon="-8.6391560">
        <ele>61.6</ele>
        <time>2022-06-18T15:46:29Z</time>
      </trkpt>
      <trkpt lat="42.5617910" lon="-8.6391950">
        <ele>61.6</ele>
        <time>2022-06-18T15:46:30Z</time>
      </trkpt>
      <trkpt lat="42.5618400" lon="-8.6392330">
        <ele>61.6</ele>
        <time>2022-06-18T15:46:31Z</time>
      </trkpt>
      <trkpt lat="42.5618880" lon="-8.6392710">
        <ele>61.6</ele>
        <time>2022-06-18T15:46:32Z</time>
      </trkpt>
      <trkpt lat="42.5619360" lon="-8.6393050">
        <ele>61.6</ele>
        <time>2022-06-18T15:46:33Z</time>
      </trkpt>
      <trkpt lat="42.5619810" lon="-8.6393350">
        <ele>61.4</ele>
        <time>2022-06-18T15:46:34Z</time>
      </trkpt>
      <trkpt lat="42.5620260" lon="-8.6393630">
        <ele>61.4</ele>
        <time>2022-06-18T15:46:35Z</time>
      </trkpt>
      <trkpt lat="42.5620700" lon="-8.6393900">
        <ele>61.4</ele>
        <time>2022-06-18T15:46:36Z</time>
      </trkpt>
      <trkpt lat="42.5621100" lon="-8.6394180">
        <ele>61.4</ele>
        <time>2022-06-18T15:46:37Z</time>
      </trkpt>
      <trkpt lat="42.5621480" lon="-8.6394450">
        <ele>62.4</ele>
        <time>2022-06-18T15:46:38Z</time>
      </trkpt>
      <trkpt lat="42.5621860" lon="-8.6394730">
        <ele>62.0</ele>
        <time>2022-06-18T15:46:39Z</time>
      </trkpt>
      <trkpt lat="42.5621860" lon="-8.6394730">
        <ele>62.0</ele>
        <time>2022-06-18T15:46:40Z</time>
      </trkpt>
      <trkpt lat="42.5622680" lon="-8.6395310">
        <ele>62.0</ele>
        <time>2022-06-18T15:46:41Z</time>
      </trkpt>
      <trkpt lat="42.5623330" lon="-8.6395790">
        <ele>62.0</ele>
        <time>2022-06-18T15:46:42Z</time>
      </trkpt>
      <trkpt lat="42.5623550" lon="-8.6395940">
        <ele>62.4</ele>
        <time>2022-06-18T15:46:43Z</time>
      </trkpt>
      <trkpt lat="42.5624000" lon="-8.6396260">
        <ele>62.4</ele>
        <time>2022-06-18T15:46:44Z</time>
      </trkpt>
      <trkpt lat="42.5624430" lon="-8.6396560">
        <ele>62.4</ele>
        <time>2022-06-18T15:46:45Z</time>
      </trkpt>
      <trkpt lat="42.5624860" lon="-8.6396860">
        <ele>62.4</ele>
        <time>2022-06-18T15:46:46Z</time>
      </trkpt>
      <trkpt lat="42.5625260" lon="-8.6397180">
        <ele>63.2</ele>
        <time>2022-06-18T15:46:47Z</time>
      </trkpt>
      <trkpt lat="42.5625680" lon="-8.6397500">
        <ele>63.2</ele>
        <time>2022-06-18T15:46:48Z</time>
      </trkpt>
      <trkpt lat="42.5626080" lon="-8.6397800">
        <ele>63.2</ele>
        <time>2022-06-18T15:46:49Z</time>
      </trkpt>
      <trkpt lat="42.5626480" lon="-8.6398100">
        <ele>63.2</ele>
        <time>2022-06-18T15:46:50Z</time>
      </trkpt>
      <trkpt lat="42.5626880" lon="-8.6398380">
        <ele>64.4</ele>
        <time>2022-06-18T15:46:51Z</time>
      </trkpt>
      <trkpt lat="42.5627300" lon="-8.6398650">
        <ele>64.4</ele>
        <time>2022-06-18T15:46:52Z</time>
      </trkpt>
      <trkpt lat="42.5627710" lon="-8.6398950">
        <ele>64.4</ele>
        <time>2022-06-18T15:46:53Z</time>
      </trkpt>
      <trkpt lat="42.5628110" lon="-8.6399260">
        <ele>64.4</ele>
        <time>2022-06-18T15:46:54Z</time>
      </trkpt>
      <trkpt lat="42.5628510" lon="-8.6399580">
        <ele>64.4</ele>
        <time>2022-06-18T15:46:55Z</time>
      </trkpt>
      <trkpt lat="42.5628910" lon="-8.6399880">
        <ele>64.4</ele>
        <time>2022-06-18T15:46:56Z</time>
      </trkpt>
      <trkpt lat="42.5629330" lon="-8.6400180">
        <ele>64.4</ele>
        <time>2022-06-18T15:46:57Z</time>
      </trkpt>
      <trkpt lat="42.5629330" lon="-8.6400180">
        <ele>64.4</ele>
        <time>2022-06-18T15:46:58Z</time>
      </trkpt>
      <trkpt lat="42.5630160" lon="-8.6400800">
        <ele>63.8</ele>
        <time>2022-06-18T15:46:59Z</time>
      </trkpt>
      <trkpt lat="42.5630560" lon="-8.6401130">
        <ele>63.8</ele>
        <time>2022-06-18T15:47:00Z</time>
      </trkpt>
      <trkpt lat="42.5630980" lon="-8.6401450">
        <ele>63.8</ele>
        <time>2022-06-18T15:47:01Z</time>
      </trkpt>
      <trkpt lat="42.5630980" lon="-8.6401450">
        <ele>63.8</ele>
        <time>2022-06-18T15:47:02Z</time>
      </trkpt>
      <trkpt lat="42.5631850" lon="-8.6402030">
        <ele>64.4</ele>
        <time>2022-06-18T15:47:03Z</time>
      </trkpt>
      <trkpt lat="42.5632280" lon="-8.6402330">
        <ele>64.4</ele>
        <time>2022-06-18T15:47:04Z</time>
      </trkpt>
      <trkpt lat="42.5632710" lon="-8.6402630">
        <ele>64.4</ele>
        <time>2022-06-18T15:47:05Z</time>
      </trkpt>
      <trkpt lat="42.5633150" lon="-8.6402950">
        <ele>64.4</ele>
        <time>2022-06-18T15:47:06Z</time>
      </trkpt>
      <trkpt lat="42.5633600" lon="-8.6403280">
        <ele>65.0</ele>
        <time>2022-06-18T15:47:07Z</time>
      </trkpt>
      <trkpt lat="42.5634030" lon="-8.6403580">
        <ele>65.0</ele>
        <time>2022-06-18T15:47:08Z</time>
      </trkpt>
      <trkpt lat="42.5634450" lon="-8.6403930">
        <ele>65.0</ele>
        <time>2022-06-18T15:47:09Z</time>
      </trkpt>
      <trkpt lat="42.5634860" lon="-8.6404300">
        <ele>65.4</ele>
        <time>2022-06-18T15:47:10Z</time>
      </trkpt>
      <trkpt lat="42.5635280" lon="-8.6404650">
        <ele>65.6</ele>
        <time>2022-06-18T15:47:11Z</time>
      </trkpt>
      <trkpt lat="42.5635710" lon="-8.6404980">
        <ele>65.6</ele>
        <time>2022-06-18T15:47:12Z</time>
      </trkpt>
      <trkpt lat="42.5636400" lon="-8.6405480">
        <ele>65.6</ele>
        <time>2022-06-18T15:47:13Z</time>
      </trkpt>
      <trkpt lat="42.5636630" lon="-8.6405650">
        <ele>65.6</ele>
        <time>2022-06-18T15:47:14Z</time>
      </trkpt>
      <trkpt lat="42.5637080" lon="-8.6406000">
        <ele>65.6</ele>
        <time>2022-06-18T15:47:15Z</time>
      </trkpt>
      <trkpt lat="42.5637750" lon="-8.6406510">
        <ele>65.6</ele>
        <time>2022-06-18T15:47:16Z</time>
      </trkpt>
      <trkpt lat="42.5637980" lon="-8.6406680">
        <ele>65.6</ele>
        <time>2022-06-18T15:47:17Z</time>
      </trkpt>
      <trkpt lat="42.5638430" lon="-8.6407010">
        <ele>65.6</ele>
        <time>2022-06-18T15:47:18Z</time>
      </trkpt>
      <trkpt lat="42.5638900" lon="-8.6407330">
        <ele>65.0</ele>
        <time>2022-06-18T15:47:19Z</time>
      </trkpt>
      <trkpt lat="42.5639360" lon="-8.6407650">
        <ele>65.0</ele>
        <time>2022-06-18T15:47:20Z</time>
      </trkpt>
      <trkpt lat="42.5639850" lon="-8.6407960">
        <ele>65.0</ele>
        <time>2022-06-18T15:47:21Z</time>
      </trkpt>
      <trkpt lat="42.5640330" lon="-8.6408280">
        <ele>64.0</ele>
        <time>2022-06-18T15:47:22Z</time>
      </trkpt>
      <trkpt lat="42.5641060" lon="-8.6408680">
        <ele>63.8</ele>
        <time>2022-06-18T15:47:23Z</time>
      </trkpt>
      <trkpt lat="42.5641320" lon="-8.6408810">
        <ele>63.8</ele>
        <time>2022-06-18T15:47:24Z</time>
      </trkpt>
      <trkpt lat="42.5641830" lon="-8.6409060">
        <ele>63.8</ele>
        <time>2022-06-18T15:47:25Z</time>
      </trkpt>
      <trkpt lat="42.5642610" lon="-8.6409380">
        <ele>63.4</ele>
        <time>2022-06-18T15:47:26Z</time>
      </trkpt>
      <trkpt lat="42.5642870" lon="-8.6409490">
        <ele>63.8</ele>
        <time>2022-06-18T15:47:27Z</time>
      </trkpt>
      <trkpt lat="42.5643400" lon="-8.6409700">
        <ele>63.8</ele>
        <time>2022-06-18T15:47:28Z</time>
      </trkpt>
      <trkpt lat="42.5643960" lon="-8.6409860">
        <ele>63.8</ele>
        <time>2022-06-18T15:47:29Z</time>
      </trkpt>
      <trkpt lat="42.5644510" lon="-8.6409960">
        <ele>63.8</ele>
        <time>2022-06-18T15:47:30Z</time>
      </trkpt>
      <trkpt lat="42.5645030" lon="-8.6410060">
        <ele>63.2</ele>
        <time>2022-06-18T15:47:31Z</time>
      </trkpt>
      <trkpt lat="42.5645560" lon="-8.6410180">
        <ele>63.2</ele>
        <time>2022-06-18T15:47:32Z</time>
      </trkpt>
      <trkpt lat="42.5646100" lon="-8.6410280">
        <ele>63.2</ele>
        <time>2022-06-18T15:47:33Z</time>
      </trkpt>
      <trkpt lat="42.5646600" lon="-8.6410330">
        <ele>63.2</ele>
        <time>2022-06-18T15:47:34Z</time>
      </trkpt>
      <trkpt lat="42.5647110" lon="-8.6410400">
        <ele>63.0</ele>
        <time>2022-06-18T15:47:35Z</time>
      </trkpt>
      <trkpt lat="42.5647660" lon="-8.6410460">
        <ele>63.0</ele>
        <time>2022-06-18T15:47:36Z</time>
      </trkpt>
      <trkpt lat="42.5648210" lon="-8.6410510">
        <ele>63.0</ele>
        <time>2022-06-18T15:47:37Z</time>
      </trkpt>
      <trkpt lat="42.5648750" lon="-8.6410550">
        <ele>62.6</ele>
        <time>2022-06-18T15:47:38Z</time>
      </trkpt>
      <trkpt lat="42.5649260" lon="-8.6410600">
        <ele>62.6</ele>
        <time>2022-06-18T15:47:39Z</time>
      </trkpt>
      <trkpt lat="42.5650060" lon="-8.6410680">
        <ele>62.6</ele>
        <time>2022-06-18T15:47:40Z</time>
      </trkpt>
      <trkpt lat="42.5650320" lon="-8.6410710">
        <ele>62.6</ele>
        <time>2022-06-18T15:47:41Z</time>
      </trkpt>
      <trkpt lat="42.5650850" lon="-8.6410760">
        <ele>62.6</ele>
        <time>2022-06-18T15:47:42Z</time>
      </trkpt>
      <trkpt lat="42.5651380" lon="-8.6410800">
        <ele>61.6</ele>
        <time>2022-06-18T15:47:43Z</time>
      </trkpt>
      <trkpt lat="42.5651930" lon="-8.6410850">
        <ele>61.6</ele>
        <time>2022-06-18T15:47:44Z</time>
      </trkpt>
      <trkpt lat="42.5652480" lon="-8.6410910">
        <ele>61.6</ele>
        <time>2022-06-18T15:47:45Z</time>
      </trkpt>
      <trkpt lat="42.5653050" lon="-8.6410980">
        <ele>61.8</ele>
        <time>2022-06-18T15:47:46Z</time>
      </trkpt>
      <trkpt lat="42.5653610" lon="-8.6411050">
        <ele>61.4</ele>
        <time>2022-06-18T15:47:47Z</time>
      </trkpt>
      <trkpt lat="42.5654180" lon="-8.6411100">
        <ele>61.4</ele>
        <time>2022-06-18T15:47:48Z</time>
      </trkpt>
      <trkpt lat="42.5654760" lon="-8.6411150">
        <ele>61.4</ele>
        <time>2022-06-18T15:47:49Z</time>
      </trkpt>
      <trkpt lat="42.5655330" lon="-8.6411200">
        <ele>61.4</ele>
        <time>2022-06-18T15:47:50Z</time>
      </trkpt>
      <trkpt lat="42.5655930" lon="-8.6411250">
        <ele>59.6</ele>
        <time>2022-06-18T15:47:51Z</time>
      </trkpt>
      <trkpt lat="42.5656530" lon="-8.6411280">
        <ele>59.6</ele>
        <time>2022-06-18T15:47:52Z</time>
      </trkpt>
      <trkpt lat="42.5657400" lon="-8.6411240">
        <ele>59.6</ele>
        <time>2022-06-18T15:47:53Z</time>
      </trkpt>
      <trkpt lat="42.5657680" lon="-8.6411180">
        <ele>60.6</ele>
        <time>2022-06-18T15:47:54Z</time>
      </trkpt>
      <trkpt lat="42.5658260" lon="-8.6411060">
        <ele>60.8</ele>
        <time>2022-06-18T15:47:55Z</time>
      </trkpt>
      <trkpt lat="42.5658760" lon="-8.6410830">
        <ele>60.8</ele>
        <time>2022-06-18T15:47:56Z</time>
      </trkpt>
      <trkpt lat="42.5659250" lon="-8.6410510">
        <ele>60.8</ele>
        <time>2022-06-18T15:47:57Z</time>
      </trkpt>
      <trkpt lat="42.5659750" lon="-8.6410210">
        <ele>59.8</ele>
        <time>2022-06-18T15:47:58Z</time>
      </trkpt>
      <trkpt lat="42.5660230" lon="-8.6409950">
        <ele>59.4</ele>
        <time>2022-06-18T15:47:59Z</time>
      </trkpt>
      <trkpt lat="42.5660730" lon="-8.6409800">
        <ele>59.4</ele>
        <time>2022-06-18T15:48:00Z</time>
      </trkpt>
      <trkpt lat="42.5661230" lon="-8.6409830">
        <ele>59.4</ele>
        <time>2022-06-18T15:48:01Z</time>
      </trkpt>
      <trkpt lat="42.5661680" lon="-8.6410010">
        <ele>60.0</ele>
        <time>2022-06-18T15:48:02Z</time>
      </trkpt>
      <trkpt lat="42.5662110" lon="-8.6410260">
        <ele>60.4</ele>
        <time>2022-06-18T15:48:03Z</time>
      </trkpt>
      <trkpt lat="42.5662110" lon="-8.6410260">
        <ele>60.4</ele>
        <time>2022-06-18T15:48:04Z</time>
      </trkpt>
      <trkpt lat="42.5662950" lon="-8.6410930">
        <ele>60.4</ele>
        <time>2022-06-18T15:48:05Z</time>
      </trkpt>
      <trkpt lat="42.5663650" lon="-8.6411270">
        <ele>59.8</ele>
        <time>2022-06-18T15:48:06Z</time>
      </trkpt>
      <trkpt lat="42.5663900" lon="-8.6411350">
        <ele>59.8</ele>
        <time>2022-06-18T15:48:07Z</time>
      </trkpt>
      <trkpt lat="42.5664400" lon="-8.6411500">
        <ele>59.8</ele>
        <time>2022-06-18T15:48:08Z</time>
      </trkpt>
      <trkpt lat="42.5664950" lon="-8.6411560">
        <ele>59.8</ele>
        <time>2022-06-18T15:48:09Z</time>
      </trkpt>
      <trkpt lat="42.5665500" lon="-8.6411650">
        <ele>59.8</ele>
        <time>2022-06-18T15:48:10Z</time>
      </trkpt>
      <trkpt lat="42.5666060" lon="-8.6411700">
        <ele>59.2</ele>
        <time>2022-06-18T15:48:11Z</time>
      </trkpt>
      <trkpt lat="42.5666940" lon="-8.6411740">
        <ele>59.2</ele>
        <time>2022-06-18T15:48:12Z</time>
      </trkpt>
      <trkpt lat="42.5667230" lon="-8.6411740">
        <ele>59.2</ele>
        <time>2022-06-18T15:48:13Z</time>
      </trkpt>
      <trkpt lat="42.5667810" lon="-8.6411760">
        <ele>59.2</ele>
        <time>2022-06-18T15:48:14Z</time>
      </trkpt>
      <trkpt lat="42.5668400" lon="-8.6411800">
        <ele>59.8</ele>
        <time>2022-06-18T15:48:15Z</time>
      </trkpt>
      <trkpt lat="42.5669000" lon="-8.6411880">
        <ele>59.8</ele>
        <time>2022-06-18T15:48:16Z</time>
      </trkpt>
      <trkpt lat="42.5669560" lon="-8.6411980">
        <ele>59.8</ele>
        <time>2022-06-18T15:48:17Z</time>
      </trkpt>
      <trkpt lat="42.5670150" lon="-8.6412080">
        <ele>59.8</ele>
        <time>2022-06-18T15:48:18Z</time>
      </trkpt>
      <trkpt lat="42.5670710" lon="-8.6412150">
        <ele>59.6</ele>
        <time>2022-06-18T15:48:19Z</time>
      </trkpt>
      <trkpt lat="42.5671560" lon="-8.6412210">
        <ele>59.6</ele>
        <time>2022-06-18T15:48:20Z</time>
      </trkpt>
      <trkpt lat="42.5671840" lon="-8.6412230">
        <ele>59.6</ele>
        <time>2022-06-18T15:48:21Z</time>
      </trkpt>
      <trkpt lat="42.5672400" lon="-8.6412260">
        <ele>60.4</ele>
        <time>2022-06-18T15:48:22Z</time>
      </trkpt>
      <trkpt lat="42.5672930" lon="-8.6412300">
        <ele>61.0</ele>
        <time>2022-06-18T15:48:23Z</time>
      </trkpt>
      <trkpt lat="42.5673450" lon="-8.6412310">
        <ele>61.0</ele>
        <time>2022-06-18T15:48:24Z</time>
      </trkpt>
      <trkpt lat="42.5673950" lon="-8.6412350">
        <ele>61.0</ele>
        <time>2022-06-18T15:48:25Z</time>
      </trkpt>
      <trkpt lat="42.5674450" lon="-8.6412410">
        <ele>61.0</ele>
        <time>2022-06-18T15:48:26Z</time>
      </trkpt>
      <trkpt lat="42.5674960" lon="-8.6412480">
        <ele>61.0</ele>
        <time>2022-06-18T15:48:27Z</time>
      </trkpt>
      <trkpt lat="42.5675500" lon="-8.6412510">
        <ele>61.0</ele>
        <time>2022-06-18T15:48:28Z</time>
      </trkpt>
      <trkpt lat="42.5676250" lon="-8.6412590">
        <ele>61.0</ele>
        <time>2022-06-18T15:48:29Z</time>
      </trkpt>
      <trkpt lat="42.5676500" lon="-8.6412620">
        <ele>61.0</ele>
        <time>2022-06-18T15:48:30Z</time>
      </trkpt>
      <trkpt lat="42.5677000" lon="-8.6412680">
        <ele>61.6</ele>
        <time>2022-06-18T15:48:31Z</time>
      </trkpt>
      <trkpt lat="42.5677500" lon="-8.6412700">
        <ele>61.6</ele>
        <time>2022-06-18T15:48:32Z</time>
      </trkpt>
      <trkpt lat="42.5678000" lon="-8.6412730">
        <ele>61.6</ele>
        <time>2022-06-18T15:48:33Z</time>
      </trkpt>
      <trkpt lat="42.5678460" lon="-8.6412760">
        <ele>61.6</ele>
        <time>2022-06-18T15:48:34Z</time>
      </trkpt>
      <trkpt lat="42.5678930" lon="-8.6412800">
        <ele>61.8</ele>
        <time>2022-06-18T15:48:35Z</time>
      </trkpt>
      <trkpt lat="42.5679410" lon="-8.6412830">
        <ele>61.8</ele>
        <time>2022-06-18T15:48:36Z</time>
      </trkpt>
      <trkpt lat="42.5679860" lon="-8.6412830">
        <ele>61.8</ele>
        <time>2022-06-18T15:48:37Z</time>
      </trkpt>
      <trkpt lat="42.5680310" lon="-8.6412830">
        <ele>61.8</ele>
        <time>2022-06-18T15:48:38Z</time>
      </trkpt>
      <trkpt lat="42.5680800" lon="-8.6412850">
        <ele>62.2</ele>
        <time>2022-06-18T15:48:39Z</time>
      </trkpt>
      <trkpt lat="42.5681280" lon="-8.6412930">
        <ele>62.2</ele>
        <time>2022-06-18T15:48:40Z</time>
      </trkpt>
      <trkpt lat="42.5681760" lon="-8.6413060">
        <ele>62.2</ele>
        <time>2022-06-18T15:48:41Z</time>
      </trkpt>
      <trkpt lat="42.5682260" lon="-8.6413110">
        <ele>63.2</ele>
        <time>2022-06-18T15:48:42Z</time>
      </trkpt>
      <trkpt lat="42.5682760" lon="-8.6413100">
        <ele>64.0</ele>
        <time>2022-06-18T15:48:43Z</time>
      </trkpt>
      <trkpt lat="42.5683260" lon="-8.6413130">
        <ele>64.0</ele>
        <time>2022-06-18T15:48:44Z</time>
      </trkpt>
      <trkpt lat="42.5683760" lon="-8.6413160">
        <ele>64.0</ele>
        <time>2022-06-18T15:48:45Z</time>
      </trkpt>
      <trkpt lat="42.5684260" lon="-8.6413200">
        <ele>64.0</ele>
        <time>2022-06-18T15:48:46Z</time>
      </trkpt>
      <trkpt lat="42.5684760" lon="-8.6413210">
        <ele>64.6</ele>
        <time>2022-06-18T15:48:47Z</time>
      </trkpt>
      <trkpt lat="42.5685260" lon="-8.6413260">
        <ele>64.6</ele>
        <time>2022-06-18T15:48:48Z</time>
      </trkpt>
      <trkpt lat="42.5685760" lon="-8.6413330">
        <ele>64.6</ele>
        <time>2022-06-18T15:48:49Z</time>
      </trkpt>
      <trkpt lat="42.5686250" lon="-8.6413400">
        <ele>65.6</ele>
        <time>2022-06-18T15:48:50Z</time>
      </trkpt>
      <trkpt lat="42.5686710" lon="-8.6413460">
        <ele>67.0</ele>
        <time>2022-06-18T15:48:51Z</time>
      </trkpt>
      <trkpt lat="42.5687150" lon="-8.6413550">
        <ele>67.0</ele>
        <time>2022-06-18T15:48:52Z</time>
      </trkpt>
      <trkpt lat="42.5687600" lon="-8.6413600">
        <ele>67.0</ele>
        <time>2022-06-18T15:48:53Z</time>
      </trkpt>
      <trkpt lat="42.5688030" lon="-8.6413650">
        <ele>67.0</ele>
        <time>2022-06-18T15:48:54Z</time>
      </trkpt>
      <trkpt lat="42.5688460" lon="-8.6413700">
        <ele>67.2</ele>
        <time>2022-06-18T15:48:55Z</time>
      </trkpt>
      <trkpt lat="42.5688900" lon="-8.6413730">
        <ele>67.2</ele>
        <time>2022-06-18T15:48:56Z</time>
      </trkpt>
      <trkpt lat="42.5689330" lon="-8.6413750">
        <ele>67.2</ele>
        <time>2022-06-18T15:48:57Z</time>
      </trkpt>
      <trkpt lat="42.5689760" lon="-8.6413780">
        <ele>67.0</ele>
        <time>2022-06-18T15:48:58Z</time>
      </trkpt>
      <trkpt lat="42.5690210" lon="-8.6413830">
        <ele>67.2</ele>
        <time>2022-06-18T15:48:59Z</time>
      </trkpt>
      <trkpt lat="42.5690660" lon="-8.6413880">
        <ele>67.2</ele>
        <time>2022-06-18T15:49:00Z</time>
      </trkpt>
      <trkpt lat="42.5691110" lon="-8.6413930">
        <ele>67.2</ele>
        <time>2022-06-18T15:49:01Z</time>
      </trkpt>
      <trkpt lat="42.5691560" lon="-8.6413980">
        <ele>67.2</ele>
        <time>2022-06-18T15:49:02Z</time>
      </trkpt>
      <trkpt lat="42.5692030" lon="-8.6414030">
        <ele>66.6</ele>
        <time>2022-06-18T15:49:03Z</time>
      </trkpt>
      <trkpt lat="42.5692480" lon="-8.6414050">
        <ele>66.6</ele>
        <time>2022-06-18T15:49:04Z</time>
      </trkpt>
      <trkpt lat="42.5692930" lon="-8.6414060">
        <ele>66.6</ele>
        <time>2022-06-18T15:49:05Z</time>
      </trkpt>
      <trkpt lat="42.5693400" lon="-8.6414100">
        <ele>66.6</ele>
        <time>2022-06-18T15:49:06Z</time>
      </trkpt>
      <trkpt lat="42.5693850" lon="-8.6414160">
        <ele>66.8</ele>
        <time>2022-06-18T15:49:07Z</time>
      </trkpt>
      <trkpt lat="42.5694300" lon="-8.6414230">
        <ele>66.8</ele>
        <time>2022-06-18T15:49:08Z</time>
      </trkpt>
      <trkpt lat="42.5694750" lon="-8.6414300">
        <ele>66.8</ele>
        <time>2022-06-18T15:49:09Z</time>
      </trkpt>
      <trkpt lat="42.5695210" lon="-8.6414380">
        <ele>66.8</ele>
        <time>2022-06-18T15:49:10Z</time>
      </trkpt>
      <trkpt lat="42.5695700" lon="-8.6414430">
        <ele>67.2</ele>
        <time>2022-06-18T15:49:11Z</time>
      </trkpt>
      <trkpt lat="42.5696180" lon="-8.6414550">
        <ele>67.2</ele>
        <time>2022-06-18T15:49:12Z</time>
      </trkpt>
      <trkpt lat="42.5696680" lon="-8.6414660">
        <ele>67.2</ele>
        <time>2022-06-18T15:49:13Z</time>
      </trkpt>
      <trkpt lat="42.5697160" lon="-8.6414680">
        <ele>67.2</ele>
        <time>2022-06-18T15:49:14Z</time>
      </trkpt>
      <trkpt lat="42.5697680" lon="-8.6414610">
        <ele>65.8</ele>
        <time>2022-06-18T15:49:15Z</time>
      </trkpt>
      <trkpt lat="42.5698200" lon="-8.6414600">
        <ele>65.8</ele>
        <time>2022-06-18T15:49:16Z</time>
      </trkpt>
      <trkpt lat="42.5698700" lon="-8.6414650">
        <ele>65.8</ele>
        <time>2022-06-18T15:49:17Z</time>
      </trkpt>
      <trkpt lat="42.5699210" lon="-8.6414730">
        <ele>66.8</ele>
        <time>2022-06-18T15:49:18Z</time>
      </trkpt>
      <trkpt lat="42.5699710" lon="-8.6414810">
        <ele>67.6</ele>
        <time>2022-06-18T15:49:19Z</time>
      </trkpt>
      <trkpt lat="42.5700210" lon="-8.6414830">
        <ele>67.6</ele>
        <time>2022-06-18T15:49:20Z</time>
      </trkpt>
      <trkpt lat="42.5700710" lon="-8.6414860">
        <ele>67.6</ele>
        <time>2022-06-18T15:49:21Z</time>
      </trkpt>
      <trkpt lat="42.5701250" lon="-8.6414880">
        <ele>66.6</ele>
        <time>2022-06-18T15:49:22Z</time>
      </trkpt>
      <trkpt lat="42.5701750" lon="-8.6414950">
        <ele>66.8</ele>
        <time>2022-06-18T15:49:23Z</time>
      </trkpt>
      <trkpt lat="42.5702260" lon="-8.6414980">
        <ele>66.8</ele>
        <time>2022-06-18T15:49:24Z</time>
      </trkpt>
      <trkpt lat="42.5702780" lon="-8.6415000">
        <ele>66.8</ele>
        <time>2022-06-18T15:49:25Z</time>
      </trkpt>
      <trkpt lat="42.5703330" lon="-8.6415000">
        <ele>65.8</ele>
        <time>2022-06-18T15:49:26Z</time>
      </trkpt>
      <trkpt lat="42.5703860" lon="-8.6415030">
        <ele>65.6</ele>
        <time>2022-06-18T15:49:27Z</time>
      </trkpt>
      <trkpt lat="42.5704400" lon="-8.6415080">
        <ele>65.6</ele>
        <time>2022-06-18T15:49:28Z</time>
      </trkpt>
      <trkpt lat="42.5704930" lon="-8.6415110">
        <ele>65.6</ele>
        <time>2022-06-18T15:49:29Z</time>
      </trkpt>
      <trkpt lat="42.5705460" lon="-8.6415160">
        <ele>65.2</ele>
        <time>2022-06-18T15:49:30Z</time>
      </trkpt>
      <trkpt lat="42.5706000" lon="-8.6415250">
        <ele>64.6</ele>
        <time>2022-06-18T15:49:31Z</time>
      </trkpt>
      <trkpt lat="42.5706530" lon="-8.6415310">
        <ele>64.6</ele>
        <time>2022-06-18T15:49:32Z</time>
      </trkpt>
      <trkpt lat="42.5707110" lon="-8.6415350">
        <ele>64.6</ele>
        <time>2022-06-18T15:49:33Z</time>
      </trkpt>
      <trkpt lat="42.5707710" lon="-8.6415350">
        <ele>64.6</ele>
        <time>2022-06-18T15:49:34Z</time>
      </trkpt>
      <trkpt lat="42.5708330" lon="-8.6415380">
        <ele>63.8</ele>
        <time>2022-06-18T15:49:35Z</time>
      </trkpt>
      <trkpt lat="42.5708980" lon="-8.6415400">
        <ele>63.8</ele>
        <time>2022-06-18T15:49:36Z</time>
      </trkpt>
      <trkpt lat="42.5709650" lon="-8.6415460">
        <ele>63.8</ele>
        <time>2022-06-18T15:49:37Z</time>
      </trkpt>
      <trkpt lat="42.5710300" lon="-8.6415530">
        <ele>62.8</ele>
        <time>2022-06-18T15:49:38Z</time>
      </trkpt>
      <trkpt lat="42.5710960" lon="-8.6415560">
        <ele>62.8</ele>
        <time>2022-06-18T15:49:39Z</time>
      </trkpt>
      <trkpt lat="42.5711650" lon="-8.6415630">
        <ele>62.8</ele>
        <time>2022-06-18T15:49:40Z</time>
      </trkpt>
      <trkpt lat="42.5712350" lon="-8.6415680">
        <ele>62.8</ele>
        <time>2022-06-18T15:49:41Z</time>
      </trkpt>
      <trkpt lat="42.5713080" lon="-8.6415710">
        <ele>62.8</ele>
        <time>2022-06-18T15:49:42Z</time>
      </trkpt>
      <trkpt lat="42.5713830" lon="-8.6415760">
        <ele>60.0</ele>
        <time>2022-06-18T15:49:43Z</time>
      </trkpt>
      <trkpt lat="42.5714580" lon="-8.6415810">
        <ele>60.0</ele>
        <time>2022-06-18T15:49:44Z</time>
      </trkpt>
      <trkpt lat="42.5715350" lon="-8.6415850">
        <ele>60.0</ele>
        <time>2022-06-18T15:49:45Z</time>
      </trkpt>
      <trkpt lat="42.5716110" lon="-8.6415900">
        <ele>60.0</ele>
        <time>2022-06-18T15:49:46Z</time>
      </trkpt>
      <trkpt lat="42.5716880" lon="-8.6415950">
        <ele>59.8</ele>
        <time>2022-06-18T15:49:47Z</time>
      </trkpt>
      <trkpt lat="42.5717650" lon="-8.6416000">
        <ele>59.8</ele>
        <time>2022-06-18T15:49:48Z</time>
      </trkpt>
      <trkpt lat="42.5718400" lon="-8.6416060">
        <ele>59.8</ele>
        <time>2022-06-18T15:49:49Z</time>
      </trkpt>
      <trkpt lat="42.5719160" lon="-8.6416110">
        <ele>59.8</ele>
        <time>2022-06-18T15:49:50Z</time>
      </trkpt>
      <trkpt lat="42.5719930" lon="-8.6416150">
        <ele>57.2</ele>
        <time>2022-06-18T15:49:51Z</time>
      </trkpt>
      <trkpt lat="42.5720700" lon="-8.6416180">
        <ele>57.2</ele>
        <time>2022-06-18T15:49:52Z</time>
      </trkpt>
      <trkpt lat="42.5721450" lon="-8.6416200">
        <ele>57.2</ele>
        <time>2022-06-18T15:49:53Z</time>
      </trkpt>
      <trkpt lat="42.5722210" lon="-8.6416230">
        <ele>57.2</ele>
        <time>2022-06-18T15:49:54Z</time>
      </trkpt>
      <trkpt lat="42.5722980" lon="-8.6416280">
        <ele>55.6</ele>
        <time>2022-06-18T15:49:55Z</time>
      </trkpt>
      <trkpt lat="42.5723750" lon="-8.6416300">
        <ele>55.6</ele>
        <time>2022-06-18T15:49:56Z</time>
      </trkpt>
      <trkpt lat="42.5724510" lon="-8.6416350">
        <ele>55.6</ele>
        <time>2022-06-18T15:49:57Z</time>
      </trkpt>
      <trkpt lat="42.5725280" lon="-8.6416400">
        <ele>56.2</ele>
        <time>2022-06-18T15:49:58Z</time>
      </trkpt>
      <trkpt lat="42.5726030" lon="-8.6416460">
        <ele>56.4</ele>
        <time>2022-06-18T15:49:59Z</time>
      </trkpt>
      <trkpt lat="42.5726800" lon="-8.6416510">
        <ele>56.4</ele>
        <time>2022-06-18T15:50:00Z</time>
      </trkpt>
      <trkpt lat="42.5727560" lon="-8.6416580">
        <ele>56.4</ele>
        <time>2022-06-18T15:50:01Z</time>
      </trkpt>
      <trkpt lat="42.5728310" lon="-8.6416650">
        <ele>55.4</ele>
        <time>2022-06-18T15:50:02Z</time>
      </trkpt>
      <trkpt lat="42.5729050" lon="-8.6416700">
        <ele>55.6</ele>
        <time>2022-06-18T15:50:03Z</time>
      </trkpt>
      <trkpt lat="42.5729800" lon="-8.6416780">
        <ele>55.6</ele>
        <time>2022-06-18T15:50:04Z</time>
      </trkpt>
      <trkpt lat="42.5730550" lon="-8.6416810">
        <ele>55.6</ele>
        <time>2022-06-18T15:50:05Z</time>
      </trkpt>
      <trkpt lat="42.5731310" lon="-8.6416860">
        <ele>54.8</ele>
        <time>2022-06-18T15:50:06Z</time>
      </trkpt>
      <trkpt lat="42.5732100" lon="-8.6416910">
        <ele>55.6</ele>
        <time>2022-06-18T15:50:07Z</time>
      </trkpt>
      <trkpt lat="42.5732880" lon="-8.6416960">
        <ele>55.6</ele>
        <time>2022-06-18T15:50:08Z</time>
      </trkpt>
      <trkpt lat="42.5733660" lon="-8.6417030">
        <ele>55.6</ele>
        <time>2022-06-18T15:50:09Z</time>
      </trkpt>
      <trkpt lat="42.5734460" lon="-8.6417100">
        <ele>55.4</ele>
        <time>2022-06-18T15:50:10Z</time>
      </trkpt>
      <trkpt lat="42.5735250" lon="-8.6417160">
        <ele>54.4</ele>
        <time>2022-06-18T15:50:11Z</time>
      </trkpt>
      <trkpt lat="42.5736030" lon="-8.6417230">
        <ele>54.4</ele>
        <time>2022-06-18T15:50:12Z</time>
      </trkpt>
      <trkpt lat="42.5736810" lon="-8.6417280">
        <ele>54.4</ele>
        <time>2022-06-18T15:50:13Z</time>
      </trkpt>
      <trkpt lat="42.5737600" lon="-8.6417350">
        <ele>54.4</ele>
        <time>2022-06-18T15:50:14Z</time>
      </trkpt>
      <trkpt lat="42.5738380" lon="-8.6417400">
        <ele>55.4</ele>
        <time>2022-06-18T15:50:15Z</time>
      </trkpt>
      <trkpt lat="42.5739160" lon="-8.6417430">
        <ele>55.4</ele>
        <time>2022-06-18T15:50:16Z</time>
      </trkpt>
      <trkpt lat="42.5739910" lon="-8.6417450">
        <ele>55.4</ele>
        <time>2022-06-18T15:50:17Z</time>
      </trkpt>
      <trkpt lat="42.5740680" lon="-8.6417480">
        <ele>55.4</ele>
        <time>2022-06-18T15:50:18Z</time>
      </trkpt>
      <trkpt lat="42.5741450" lon="-8.6417510">
        <ele>55.4</ele>
        <time>2022-06-18T15:50:19Z</time>
      </trkpt>
      <trkpt lat="42.5742210" lon="-8.6417560">
        <ele>55.4</ele>
        <time>2022-06-18T15:50:20Z</time>
      </trkpt>
      <trkpt lat="42.5742960" lon="-8.6417610">
        <ele>55.4</ele>
        <time>2022-06-18T15:50:21Z</time>
      </trkpt>
      <trkpt lat="42.5743710" lon="-8.6417660">
        <ele>55.4</ele>
        <time>2022-06-18T15:50:22Z</time>
      </trkpt>
      <trkpt lat="42.5744430" lon="-8.6417700">
        <ele>55.4</ele>
        <time>2022-06-18T15:50:23Z</time>
      </trkpt>
      <trkpt lat="42.5745150" lon="-8.6417750">
        <ele>55.4</ele>
        <time>2022-06-18T15:50:24Z</time>
      </trkpt>
      <trkpt lat="42.5745860" lon="-8.6417810">
        <ele>55.4</ele>
        <time>2022-06-18T15:50:25Z</time>
      </trkpt>
      <trkpt lat="42.5746580" lon="-8.6417880">
        <ele>55.4</ele>
        <time>2022-06-18T15:50:26Z</time>
      </trkpt>
      <trkpt lat="42.5747300" lon="-8.6417910">
        <ele>55.8</ele>
        <time>2022-06-18T15:50:27Z</time>
      </trkpt>
      <trkpt lat="42.5748010" lon="-8.6417960">
        <ele>55.8</ele>
        <time>2022-06-18T15:50:28Z</time>
      </trkpt>
      <trkpt lat="42.5748730" lon="-8.6418010">
        <ele>55.8</ele>
        <time>2022-06-18T15:50:29Z</time>
      </trkpt>
      <trkpt lat="42.5749430" lon="-8.6418030">
        <ele>55.8</ele>
        <time>2022-06-18T15:50:30Z</time>
      </trkpt>
      <trkpt lat="42.5750150" lon="-8.6418060">
        <ele>55.6</ele>
        <time>2022-06-18T15:50:31Z</time>
      </trkpt>
      <trkpt lat="42.5750830" lon="-8.6418130">
        <ele>55.6</ele>
        <time>2022-06-18T15:50:32Z</time>
      </trkpt>
      <trkpt lat="42.5751530" lon="-8.6418200">
        <ele>55.6</ele>
        <time>2022-06-18T15:50:33Z</time>
      </trkpt>
      <trkpt lat="42.5752230" lon="-8.6418260">
        <ele>55.6</ele>
        <time>2022-06-18T15:50:34Z</time>
      </trkpt>
      <trkpt lat="42.5752930" lon="-8.6418300">
        <ele>56.4</ele>
        <time>2022-06-18T15:50:35Z</time>
      </trkpt>
      <trkpt lat="42.5753610" lon="-8.6418350">
        <ele>56.4</ele>
        <time>2022-06-18T15:50:36Z</time>
      </trkpt>
      <trkpt lat="42.5754310" lon="-8.6418410">
        <ele>56.4</ele>
        <time>2022-06-18T15:50:37Z</time>
      </trkpt>
      <trkpt lat="42.5755010" lon="-8.6418460">
        <ele>56.4</ele>
        <time>2022-06-18T15:50:38Z</time>
      </trkpt>
      <trkpt lat="42.5755700" lon="-8.6418530">
        <ele>55.4</ele>
        <time>2022-06-18T15:50:39Z</time>
      </trkpt>
      <trkpt lat="42.5756380" lon="-8.6418600">
        <ele>55.4</ele>
        <time>2022-06-18T15:50:40Z</time>
      </trkpt>
      <trkpt lat="42.5757050" lon="-8.6418660">
        <ele>55.4</ele>
        <time>2022-06-18T15:50:41Z</time>
      </trkpt>
      <trkpt lat="42.5757730" lon="-8.6418780">
        <ele>55.4</ele>
        <time>2022-06-18T15:50:42Z</time>
      </trkpt>
      <trkpt lat="42.5758400" lon="-8.6418850">
        <ele>55.4</ele>
        <time>2022-06-18T15:50:43Z</time>
      </trkpt>
      <trkpt lat="42.5759080" lon="-8.6418900">
        <ele>55.4</ele>
        <time>2022-06-18T15:50:44Z</time>
      </trkpt>
      <trkpt lat="42.5759750" lon="-8.6418960">
        <ele>55.4</ele>
        <time>2022-06-18T15:50:45Z</time>
      </trkpt>
      <trkpt lat="42.5760430" lon="-8.6419050">
        <ele>56.4</ele>
        <time>2022-06-18T15:50:46Z</time>
      </trkpt>
      <trkpt lat="42.5761150" lon="-8.6419100">
        <ele>56.4</ele>
        <time>2022-06-18T15:50:47Z</time>
      </trkpt>
      <trkpt lat="42.5761860" lon="-8.6419130">
        <ele>56.4</ele>
        <time>2022-06-18T15:50:48Z</time>
      </trkpt>
      <trkpt lat="42.5762600" lon="-8.6419210">
        <ele>56.4</ele>
        <time>2022-06-18T15:50:49Z</time>
      </trkpt>
      <trkpt lat="42.5763310" lon="-8.6419300">
        <ele>56.4</ele>
        <time>2022-06-18T15:50:50Z</time>
      </trkpt>
      <trkpt lat="42.5764050" lon="-8.6419360">
        <ele>56.4</ele>
        <time>2022-06-18T15:50:51Z</time>
      </trkpt>
      <trkpt lat="42.5764760" lon="-8.6419400">
        <ele>56.4</ele>
        <time>2022-06-18T15:50:52Z</time>
      </trkpt>
      <trkpt lat="42.5765480" lon="-8.6419430">
        <ele>56.4</ele>
        <time>2022-06-18T15:50:53Z</time>
      </trkpt>
      <trkpt lat="42.5766180" lon="-8.6419480">
        <ele>56.4</ele>
        <time>2022-06-18T15:50:54Z</time>
      </trkpt>
      <trkpt lat="42.5766900" lon="-8.6419530">
        <ele>57.6</ele>
        <time>2022-06-18T15:50:55Z</time>
      </trkpt>
      <trkpt lat="42.5767610" lon="-8.6419580">
        <ele>57.6</ele>
        <time>2022-06-18T15:50:56Z</time>
      </trkpt>
      <trkpt lat="42.5768310" lon="-8.6419650">
        <ele>57.6</ele>
        <time>2022-06-18T15:50:57Z</time>
      </trkpt>
      <trkpt lat="42.5769010" lon="-8.6419700">
        <ele>56.8</ele>
        <time>2022-06-18T15:50:58Z</time>
      </trkpt>
      <trkpt lat="42.5769730" lon="-8.6419710">
        <ele>57.4</ele>
        <time>2022-06-18T15:50:59Z</time>
      </trkpt>
      <trkpt lat="42.5770430" lon="-8.6419750">
        <ele>57.4</ele>
        <time>2022-06-18T15:51:00Z</time>
      </trkpt>
      <trkpt lat="42.5771130" lon="-8.6419800">
        <ele>57.4</ele>
        <time>2022-06-18T15:51:01Z</time>
      </trkpt>
      <trkpt lat="42.5771850" lon="-8.6419830">
        <ele>57.4</ele>
        <time>2022-06-18T15:51:02Z</time>
      </trkpt>
      <trkpt lat="42.5772530" lon="-8.6419850">
        <ele>57.4</ele>
        <time>2022-06-18T15:51:03Z</time>
      </trkpt>
      <trkpt lat="42.5773210" lon="-8.6419880">
        <ele>57.4</ele>
        <time>2022-06-18T15:51:04Z</time>
      </trkpt>
      <trkpt lat="42.5773880" lon="-8.6419930">
        <ele>57.4</ele>
        <time>2022-06-18T15:51:05Z</time>
      </trkpt>
      <trkpt lat="42.5774550" lon="-8.6419960">
        <ele>57.4</ele>
        <time>2022-06-18T15:51:06Z</time>
      </trkpt>
      <trkpt lat="42.5775210" lon="-8.6420000">
        <ele>56.6</ele>
        <time>2022-06-18T15:51:07Z</time>
      </trkpt>
      <trkpt lat="42.5775860" lon="-8.6420030">
        <ele>56.6</ele>
        <time>2022-06-18T15:51:08Z</time>
      </trkpt>
      <trkpt lat="42.5776510" lon="-8.6420060">
        <ele>56.6</ele>
        <time>2022-06-18T15:51:09Z</time>
      </trkpt>
      <trkpt lat="42.5777160" lon="-8.6420110">
        <ele>57.6</ele>
        <time>2022-06-18T15:51:10Z</time>
      </trkpt>
      <trkpt lat="42.5777810" lon="-8.6420160">
        <ele>57.4</ele>
        <time>2022-06-18T15:51:11Z</time>
      </trkpt>
      <trkpt lat="42.5778460" lon="-8.6420210">
        <ele>57.4</ele>
        <time>2022-06-18T15:51:12Z</time>
      </trkpt>
      <trkpt lat="42.5779130" lon="-8.6420260">
        <ele>57.4</ele>
        <time>2022-06-18T15:51:13Z</time>
      </trkpt>
      <trkpt lat="42.5779780" lon="-8.6420310">
        <ele>57.4</ele>
        <time>2022-06-18T15:51:14Z</time>
      </trkpt>
      <trkpt lat="42.5780450" lon="-8.6420360">
        <ele>57.8</ele>
        <time>2022-06-18T15:51:15Z</time>
      </trkpt>
      <trkpt lat="42.5781110" lon="-8.6420410">
        <ele>57.8</ele>
        <time>2022-06-18T15:51:16Z</time>
      </trkpt>
      <trkpt lat="42.5781800" lon="-8.6420460">
        <ele>57.8</ele>
        <time>2022-06-18T15:51:17Z</time>
      </trkpt>
      <trkpt lat="42.5782480" lon="-8.6420530">
        <ele>57.8</ele>
        <time>2022-06-18T15:51:18Z</time>
      </trkpt>
      <trkpt lat="42.5783180" lon="-8.6420580">
        <ele>58.0</ele>
        <time>2022-06-18T15:51:19Z</time>
      </trkpt>
      <trkpt lat="42.5783880" lon="-8.6420630">
        <ele>58.0</ele>
        <time>2022-06-18T15:51:20Z</time>
      </trkpt>
      <trkpt lat="42.5784600" lon="-8.6420680">
        <ele>58.0</ele>
        <time>2022-06-18T15:51:21Z</time>
      </trkpt>
      <trkpt lat="42.5785310" lon="-8.6420730">
        <ele>58.0</ele>
        <time>2022-06-18T15:51:22Z</time>
      </trkpt>
      <trkpt lat="42.5786010" lon="-8.6420760">
        <ele>56.6</ele>
        <time>2022-06-18T15:51:23Z</time>
      </trkpt>
      <trkpt lat="42.5786710" lon="-8.6420780">
        <ele>56.6</ele>
        <time>2022-06-18T15:51:24Z</time>
      </trkpt>
      <trkpt lat="42.5787400" lon="-8.6420800">
        <ele>56.6</ele>
        <time>2022-06-18T15:51:25Z</time>
      </trkpt>
      <trkpt lat="42.5788080" lon="-8.6420850">
        <ele>56.6</ele>
        <time>2022-06-18T15:51:26Z</time>
      </trkpt>
      <trkpt lat="42.5788760" lon="-8.6420880">
        <ele>56.2</ele>
        <time>2022-06-18T15:51:27Z</time>
      </trkpt>
      <trkpt lat="42.5789410" lon="-8.6420910">
        <ele>56.2</ele>
        <time>2022-06-18T15:51:28Z</time>
      </trkpt>
      <trkpt lat="42.5790080" lon="-8.6420960">
        <ele>56.2</ele>
        <time>2022-06-18T15:51:29Z</time>
      </trkpt>
      <trkpt lat="42.5790750" lon="-8.6421000">
        <ele>56.2</ele>
        <time>2022-06-18T15:51:30Z</time>
      </trkpt>
      <trkpt lat="42.5791400" lon="-8.6421050">
        <ele>55.0</ele>
        <time>2022-06-18T15:51:31Z</time>
      </trkpt>
      <trkpt lat="42.5792010" lon="-8.6421080">
        <ele>55.0</ele>
        <time>2022-06-18T15:51:32Z</time>
      </trkpt>
      <trkpt lat="42.5792650" lon="-8.6421100">
        <ele>55.0</ele>
        <time>2022-06-18T15:51:33Z</time>
      </trkpt>
      <trkpt lat="42.5793260" lon="-8.6421130">
        <ele>56.0</ele>
        <time>2022-06-18T15:51:34Z</time>
      </trkpt>
      <trkpt lat="42.5793860" lon="-8.6421180">
        <ele>57.2</ele>
        <time>2022-06-18T15:51:35Z</time>
      </trkpt>
      <trkpt lat="42.5794460" lon="-8.6421210">
        <ele>57.2</ele>
        <time>2022-06-18T15:51:36Z</time>
      </trkpt>
      <trkpt lat="42.5795050" lon="-8.6421250">
        <ele>57.2</ele>
        <time>2022-06-18T15:51:37Z</time>
      </trkpt>
      <trkpt lat="42.5795630" lon="-8.6421280">
        <ele>56.4</ele>
        <time>2022-06-18T15:51:38Z</time>
      </trkpt>
      <trkpt lat="42.5796210" lon="-8.6421330">
        <ele>56.8</ele>
        <time>2022-06-18T15:51:39Z</time>
      </trkpt>
      <trkpt lat="42.5796800" lon="-8.6421350">
        <ele>56.8</ele>
        <time>2022-06-18T15:51:40Z</time>
      </trkpt>
      <trkpt lat="42.5797400" lon="-8.6421350">
        <ele>56.8</ele>
        <time>2022-06-18T15:51:41Z</time>
      </trkpt>
      <trkpt lat="42.5797960" lon="-8.6421360">
        <ele>56.8</ele>
        <time>2022-06-18T15:51:42Z</time>
      </trkpt>
      <trkpt lat="42.5798530" lon="-8.6421410">
        <ele>56.8</ele>
        <time>2022-06-18T15:51:43Z</time>
      </trkpt>
      <trkpt lat="42.5799100" lon="-8.6421430">
        <ele>56.8</ele>
        <time>2022-06-18T15:51:44Z</time>
      </trkpt>
      <trkpt lat="42.5799660" lon="-8.6421430">
        <ele>56.8</ele>
        <time>2022-06-18T15:51:45Z</time>
      </trkpt>
      <trkpt lat="42.5800230" lon="-8.6421410">
        <ele>56.8</ele>
        <time>2022-06-18T15:51:46Z</time>
      </trkpt>
      <trkpt lat="42.5800800" lon="-8.6421400">
        <ele>58.2</ele>
        <time>2022-06-18T15:51:47Z</time>
      </trkpt>
      <trkpt lat="42.5801350" lon="-8.6421400">
        <ele>58.2</ele>
        <time>2022-06-18T15:51:48Z</time>
      </trkpt>
      <trkpt lat="42.5801860" lon="-8.6421410">
        <ele>58.2</ele>
        <time>2022-06-18T15:51:49Z</time>
      </trkpt>
      <trkpt lat="42.5802400" lon="-8.6421430">
        <ele>58.2</ele>
        <time>2022-06-18T15:51:50Z</time>
      </trkpt>
      <trkpt lat="42.5802930" lon="-8.6421450">
        <ele>58.0</ele>
        <time>2022-06-18T15:51:51Z</time>
      </trkpt>
      <trkpt lat="42.5803460" lon="-8.6421480">
        <ele>58.0</ele>
        <time>2022-06-18T15:51:52Z</time>
      </trkpt>
      <trkpt lat="42.5803980" lon="-8.6421550">
        <ele>58.0</ele>
        <time>2022-06-18T15:51:53Z</time>
      </trkpt>
      <trkpt lat="42.5804480" lon="-8.6421630">
        <ele>58.8</ele>
        <time>2022-06-18T15:51:54Z</time>
      </trkpt>
      <trkpt lat="42.5804960" lon="-8.6421710">
        <ele>58.8</ele>
        <time>2022-06-18T15:51:55Z</time>
      </trkpt>
      <trkpt lat="42.5805460" lon="-8.6421800">
        <ele>58.8</ele>
        <time>2022-06-18T15:51:56Z</time>
      </trkpt>
      <trkpt lat="42.5805960" lon="-8.6421850">
        <ele>58.8</ele>
        <time>2022-06-18T15:51:57Z</time>
      </trkpt>
      <trkpt lat="42.5806500" lon="-8.6421910">
        <ele>58.8</ele>
        <time>2022-06-18T15:51:58Z</time>
      </trkpt>
      <trkpt lat="42.5807050" lon="-8.6421950">
        <ele>58.8</ele>
        <time>2022-06-18T15:51:59Z</time>
      </trkpt>
      <trkpt lat="42.5807610" lon="-8.6422000">
        <ele>58.8</ele>
        <time>2022-06-18T15:52:00Z</time>
      </trkpt>
      <trkpt lat="42.5808200" lon="-8.6422010">
        <ele>58.8</ele>
        <time>2022-06-18T15:52:01Z</time>
      </trkpt>
      <trkpt lat="42.5808800" lon="-8.6422010">
        <ele>58.8</ele>
        <time>2022-06-18T15:52:02Z</time>
      </trkpt>
      <trkpt lat="42.5809400" lon="-8.6422060">
        <ele>58.6</ele>
        <time>2022-06-18T15:52:03Z</time>
      </trkpt>
      <trkpt lat="42.5810010" lon="-8.6422150">
        <ele>58.6</ele>
        <time>2022-06-18T15:52:04Z</time>
      </trkpt>
      <trkpt lat="42.5810630" lon="-8.6422230">
        <ele>58.6</ele>
        <time>2022-06-18T15:52:05Z</time>
      </trkpt>
      <trkpt lat="42.5811260" lon="-8.6422280">
        <ele>58.6</ele>
        <time>2022-06-18T15:52:06Z</time>
      </trkpt>
      <trkpt lat="42.5811900" lon="-8.6422330">
        <ele>57.6</ele>
        <time>2022-06-18T15:52:07Z</time>
      </trkpt>
      <trkpt lat="42.5812550" lon="-8.6422400">
        <ele>57.6</ele>
        <time>2022-06-18T15:52:08Z</time>
      </trkpt>
      <trkpt lat="42.5813180" lon="-8.6422430">
        <ele>57.6</ele>
        <time>2022-06-18T15:52:09Z</time>
      </trkpt>
      <trkpt lat="42.5813830" lon="-8.6422460">
        <ele>57.6</ele>
        <time>2022-06-18T15:52:10Z</time>
      </trkpt>
      <trkpt lat="42.5814450" lon="-8.6422510">
        <ele>56.8</ele>
        <time>2022-06-18T15:52:11Z</time>
      </trkpt>
      <trkpt lat="42.5815080" lon="-8.6422550">
        <ele>56.8</ele>
        <time>2022-06-18T15:52:12Z</time>
      </trkpt>
      <trkpt lat="42.5815680" lon="-8.6422580">
        <ele>56.8</ele>
        <time>2022-06-18T15:52:13Z</time>
      </trkpt>
      <trkpt lat="42.5816300" lon="-8.6422610">
        <ele>57.4</ele>
        <time>2022-06-18T15:52:14Z</time>
      </trkpt>
      <trkpt lat="42.5816900" lon="-8.6422660">
        <ele>57.2</ele>
        <time>2022-06-18T15:52:15Z</time>
      </trkpt>
      <trkpt lat="42.5817510" lon="-8.6422730">
        <ele>57.2</ele>
        <time>2022-06-18T15:52:16Z</time>
      </trkpt>
      <trkpt lat="42.5818110" lon="-8.6422800">
        <ele>57.2</ele>
        <time>2022-06-18T15:52:17Z</time>
      </trkpt>
      <trkpt lat="42.5818710" lon="-8.6422850">
        <ele>57.2</ele>
        <time>2022-06-18T15:52:18Z</time>
      </trkpt>
      <trkpt lat="42.5819330" lon="-8.6422900">
        <ele>57.0</ele>
        <time>2022-06-18T15:52:19Z</time>
      </trkpt>
      <trkpt lat="42.5819910" lon="-8.6422930">
        <ele>57.0</ele>
        <time>2022-06-18T15:52:20Z</time>
      </trkpt>
      <trkpt lat="42.5820510" lon="-8.6422980">
        <ele>57.0</ele>
        <time>2022-06-18T15:52:21Z</time>
      </trkpt>
      <trkpt lat="42.5821110" lon="-8.6423000">
        <ele>56.6</ele>
        <time>2022-06-18T15:52:22Z</time>
      </trkpt>
      <trkpt lat="42.5821700" lon="-8.6423030">
        <ele>56.4</ele>
        <time>2022-06-18T15:52:23Z</time>
      </trkpt>
      <trkpt lat="42.5822300" lon="-8.6423060">
        <ele>56.4</ele>
        <time>2022-06-18T15:52:24Z</time>
      </trkpt>
      <trkpt lat="42.5822900" lon="-8.6423110">
        <ele>56.4</ele>
        <time>2022-06-18T15:52:25Z</time>
      </trkpt>
      <trkpt lat="42.5823500" lon="-8.6423160">
        <ele>56.4</ele>
        <time>2022-06-18T15:52:26Z</time>
      </trkpt>
      <trkpt lat="42.5824100" lon="-8.6423200">
        <ele>56.2</ele>
        <time>2022-06-18T15:52:27Z</time>
      </trkpt>
      <trkpt lat="42.5824700" lon="-8.6423210">
        <ele>56.2</ele>
        <time>2022-06-18T15:52:28Z</time>
      </trkpt>
      <trkpt lat="42.5825280" lon="-8.6423250">
        <ele>56.2</ele>
        <time>2022-06-18T15:52:29Z</time>
      </trkpt>
      <trkpt lat="42.5825880" lon="-8.6423280">
        <ele>56.2</ele>
        <time>2022-06-18T15:52:30Z</time>
      </trkpt>
      <trkpt lat="42.5826460" lon="-8.6423350">
        <ele>55.8</ele>
        <time>2022-06-18T15:52:31Z</time>
      </trkpt>
      <trkpt lat="42.5827030" lon="-8.6423400">
        <ele>55.8</ele>
        <time>2022-06-18T15:52:32Z</time>
      </trkpt>
      <trkpt lat="42.5827560" lon="-8.6423430">
        <ele>55.8</ele>
        <time>2022-06-18T15:52:33Z</time>
      </trkpt>
      <trkpt lat="42.5828110" lon="-8.6423500">
        <ele>55.8</ele>
        <time>2022-06-18T15:52:34Z</time>
      </trkpt>
      <trkpt lat="42.5828660" lon="-8.6423550">
        <ele>55.8</ele>
        <time>2022-06-18T15:52:35Z</time>
      </trkpt>
      <trkpt lat="42.5829230" lon="-8.6423560">
        <ele>55.8</ele>
        <time>2022-06-18T15:52:36Z</time>
      </trkpt>
      <trkpt lat="42.5829780" lon="-8.6423610">
        <ele>55.8</ele>
        <time>2022-06-18T15:52:37Z</time>
      </trkpt>
      <trkpt lat="42.5830310" lon="-8.6423660">
        <ele>54.8</ele>
        <time>2022-06-18T15:52:38Z</time>
      </trkpt>
      <trkpt lat="42.5830810" lon="-8.6423730">
        <ele>55.2</ele>
        <time>2022-06-18T15:52:39Z</time>
      </trkpt>
      <trkpt lat="42.5831310" lon="-8.6423800">
        <ele>55.2</ele>
        <time>2022-06-18T15:52:40Z</time>
      </trkpt>
      <trkpt lat="42.5831810" lon="-8.6423900">
        <ele>55.2</ele>
        <time>2022-06-18T15:52:41Z</time>
      </trkpt>
      <trkpt lat="42.5832260" lon="-8.6424050">
        <ele>55.2</ele>
        <time>2022-06-18T15:52:42Z</time>
      </trkpt>
      <trkpt lat="42.5832730" lon="-8.6424230">
        <ele>55.6</ele>
        <time>2022-06-18T15:52:43Z</time>
      </trkpt>
      <trkpt lat="42.5833150" lon="-8.6424480">
        <ele>55.6</ele>
        <time>2022-06-18T15:52:44Z</time>
      </trkpt>
      <trkpt lat="42.5833580" lon="-8.6424750">
        <ele>55.6</ele>
        <time>2022-06-18T15:52:45Z</time>
      </trkpt>
      <trkpt lat="42.5834030" lon="-8.6424960">
        <ele>55.6</ele>
        <time>2022-06-18T15:52:46Z</time>
      </trkpt>
      <trkpt lat="42.5834500" lon="-8.6425130">
        <ele>55.6</ele>
        <time>2022-06-18T15:52:47Z</time>
      </trkpt>
      <trkpt lat="42.5834930" lon="-8.6425300">
        <ele>55.6</ele>
        <time>2022-06-18T15:52:48Z</time>
      </trkpt>
      <trkpt lat="42.5835360" lon="-8.6425430">
        <ele>55.6</ele>
        <time>2022-06-18T15:52:49Z</time>
      </trkpt>
      <trkpt lat="42.5835800" lon="-8.6425580">
        <ele>56.6</ele>
        <time>2022-06-18T15:52:50Z</time>
      </trkpt>
      <trkpt lat="42.5836230" lon="-8.6425660">
        <ele>56.6</ele>
        <time>2022-06-18T15:52:51Z</time>
      </trkpt>
      <trkpt lat="42.5836630" lon="-8.6425710">
        <ele>56.6</ele>
        <time>2022-06-18T15:52:52Z</time>
      </trkpt>
      <trkpt lat="42.5837000" lon="-8.6425710">
        <ele>56.6</ele>
        <time>2022-06-18T15:52:53Z</time>
      </trkpt>
      <trkpt lat="42.5837360" lon="-8.6425730">
        <ele>57.2</ele>
        <time>2022-06-18T15:52:54Z</time>
      </trkpt>
      <trkpt lat="42.5837700" lon="-8.6425730">
        <ele>57.4</ele>
        <time>2022-06-18T15:52:55Z</time>
      </trkpt>
      <trkpt lat="42.5838000" lon="-8.6425730">
        <ele>57.4</ele>
        <time>2022-06-18T15:52:56Z</time>
      </trkpt>
      <trkpt lat="42.5838260" lon="-8.6425730">
        <ele>57.4</ele>
        <time>2022-06-18T15:52:57Z</time>
      </trkpt>
      <trkpt lat="42.5838510" lon="-8.6425710">
        <ele>57.8</ele>
        <time>2022-06-18T15:52:58Z</time>
      </trkpt>
      <trkpt lat="42.5838730" lon="-8.6425680">
        <ele>58.0</ele>
        <time>2022-06-18T15:52:59Z</time>
      </trkpt>
      <trkpt lat="42.5838900" lon="-8.6425680">
        <ele>58.0</ele>
        <time>2022-06-18T15:53:00Z</time>
      </trkpt>
      <trkpt lat="42.5839050" lon="-8.6425730">
        <ele>58.0</ele>
        <time>2022-06-18T15:53:01Z</time>
      </trkpt>
      <trkpt lat="42.5839200" lon="-8.6425730">
        <ele>58.4</ele>
        <time>2022-06-18T15:53:02Z</time>
      </trkpt>
      <trkpt lat="42.5839300" lon="-8.6425650">
        <ele>57.8</ele>
        <time>2022-06-18T15:53:03Z</time>
      </trkpt>
      <trkpt lat="42.5839330" lon="-8.6425480">
        <ele>57.8</ele>
        <time>2022-06-18T15:53:04Z</time>
      </trkpt>
      <trkpt lat="42.5839200" lon="-8.6425330">
        <ele>57.8</ele>
        <time>2022-06-18T15:53:05Z</time>
      </trkpt>
      <trkpt lat="42.5838960" lon="-8.6425250">
        <ele>57.2</ele>
        <time>2022-06-18T15:53:06Z</time>
      </trkpt>
      <trkpt lat="42.5838680" lon="-8.6425280">
        <ele>57.8</ele>
        <time>2022-06-18T15:53:07Z</time>
      </trkpt>
      <trkpt lat="42.5838510" lon="-8.6425460">
        <ele>57.8</ele>
        <time>2022-06-18T15:53:08Z</time>
      </trkpt>
      <trkpt lat="42.5838460" lon="-8.6425680">
        <ele>57.8</ele>
        <time>2022-06-18T15:53:09Z</time>
      </trkpt>
      <trkpt lat="42.5838560" lon="-8.6425850">
        <ele>57.8</ele>
        <time>2022-06-18T15:53:10Z</time>
      </trkpt>
      <trkpt lat="42.5838700" lon="-8.6425930">
        <ele>58.0</ele>
        <time>2022-06-18T15:53:11Z</time>
      </trkpt>
      <trkpt lat="42.5838830" lon="-8.6425930">
        <ele>58.0</ele>
        <time>2022-06-18T15:53:12Z</time>
      </trkpt>
      <trkpt lat="42.5839010" lon="-8.6425950">
        <ele>58.0</ele>
        <time>2022-06-18T15:53:13Z</time>
      </trkpt>
      <trkpt lat="42.5839210" lon="-8.6425880">
        <ele>57.8</ele>
        <time>2022-06-18T15:53:14Z</time>
      </trkpt>
      <trkpt lat="42.5839450" lon="-8.6425860">
        <ele>58.0</ele>
        <time>2022-06-18T15:53:15Z</time>
      </trkpt>
      <trkpt lat="42.5839680" lon="-8.6425850">
        <ele>58.0</ele>
        <time>2022-06-18T15:53:16Z</time>
      </trkpt>
      <trkpt lat="42.5839980" lon="-8.6425900">
        <ele>58.0</ele>
        <time>2022-06-18T15:53:17Z</time>
      </trkpt>
      <trkpt lat="42.5840330" lon="-8.6425950">
        <ele>57.0</ele>
        <time>2022-06-18T15:53:18Z</time>
      </trkpt>
      <trkpt lat="42.5840750" lon="-8.6426000">
        <ele>59.6</ele>
        <time>2022-06-18T15:53:19Z</time>
      </trkpt>
      <trkpt lat="42.5841130" lon="-8.6426000">
        <ele>59.6</ele>
        <time>2022-06-18T15:53:20Z</time>
      </trkpt>
      <trkpt lat="42.5841450" lon="-8.6426010">
        <ele>59.6</ele>
        <time>2022-06-18T15:53:21Z</time>
      </trkpt>
      <trkpt lat="42.5841780" lon="-8.6426060">
        <ele>58.6</ele>
        <time>2022-06-18T15:53:22Z</time>
      </trkpt>
      <trkpt lat="42.5842160" lon="-8.6426130">
        <ele>56.8</ele>
        <time>2022-06-18T15:53:23Z</time>
      </trkpt>
      <trkpt lat="42.5842600" lon="-8.6426160">
        <ele>56.8</ele>
        <time>2022-06-18T15:53:24Z</time>
      </trkpt>
      <trkpt lat="42.5843030" lon="-8.6426200">
        <ele>56.8</ele>
        <time>2022-06-18T15:53:25Z</time>
      </trkpt>
      <trkpt lat="42.5843480" lon="-8.6426260">
        <ele>56.8</ele>
        <time>2022-06-18T15:53:26Z</time>
      </trkpt>
      <trkpt lat="42.5843950" lon="-8.6426330">
        <ele>57.8</ele>
        <time>2022-06-18T15:53:27Z</time>
      </trkpt>
      <trkpt lat="42.5844430" lon="-8.6426360">
        <ele>57.8</ele>
        <time>2022-06-18T15:53:28Z</time>
      </trkpt>
      <trkpt lat="42.5844910" lon="-8.6426400">
        <ele>57.8</ele>
        <time>2022-06-18T15:53:29Z</time>
      </trkpt>
      <trkpt lat="42.5845700" lon="-8.6426400">
        <ele>57.8</ele>
        <time>2022-06-18T15:53:30Z</time>
      </trkpt>
      <trkpt lat="42.5845980" lon="-8.6426400">
        <ele>57.8</ele>
        <time>2022-06-18T15:53:31Z</time>
      </trkpt>
      <trkpt lat="42.5846530" lon="-8.6426410">
        <ele>57.8</ele>
        <time>2022-06-18T15:53:32Z</time>
      </trkpt>
      <trkpt lat="42.5847100" lon="-8.6426410">
        <ele>57.8</ele>
        <time>2022-06-18T15:53:33Z</time>
      </trkpt>
      <trkpt lat="42.5847660" lon="-8.6426430">
        <ele>58.0</ele>
        <time>2022-06-18T15:53:34Z</time>
      </trkpt>
      <trkpt lat="42.5848230" lon="-8.6426430">
        <ele>57.8</ele>
        <time>2022-06-18T15:53:35Z</time>
      </trkpt>
      <trkpt lat="42.5849090" lon="-8.6426440">
        <ele>57.8</ele>
        <time>2022-06-18T15:53:36Z</time>
      </trkpt>
      <trkpt lat="42.5849390" lon="-8.6426450">
        <ele>57.8</ele>
        <time>2022-06-18T15:53:37Z</time>
      </trkpt>
      <trkpt lat="42.5849680" lon="-8.6426460">
        <ele>57.6</ele>
        <time>2022-06-18T15:53:38Z</time>
      </trkpt>
      <trkpt lat="42.5850560" lon="-8.6426500">
        <ele>57.4</ele>
        <time>2022-06-18T15:53:39Z</time>
      </trkpt>
      <trkpt lat="42.5851150" lon="-8.6426550">
        <ele>57.4</ele>
        <time>2022-06-18T15:53:40Z</time>
      </trkpt>
      <trkpt lat="42.5851730" lon="-8.6426600">
        <ele>57.4</ele>
        <time>2022-06-18T15:53:41Z</time>
      </trkpt>
      <trkpt lat="42.5852300" lon="-8.6426630">
        <ele>57.4</ele>
        <time>2022-06-18T15:53:42Z</time>
      </trkpt>
      <trkpt lat="42.5852860" lon="-8.6426700">
        <ele>56.8</ele>
        <time>2022-06-18T15:53:43Z</time>
      </trkpt>
      <trkpt lat="42.5853430" lon="-8.6426750">
        <ele>56.8</ele>
        <time>2022-06-18T15:53:44Z</time>
      </trkpt>
      <trkpt lat="42.5853980" lon="-8.6426780">
        <ele>56.8</ele>
        <time>2022-06-18T15:53:45Z</time>
      </trkpt>
      <trkpt lat="42.5854530" lon="-8.6426830">
        <ele>57.8</ele>
        <time>2022-06-18T15:53:46Z</time>
      </trkpt>
      <trkpt lat="42.5855060" lon="-8.6426860">
        <ele>57.6</ele>
        <time>2022-06-18T15:53:47Z</time>
      </trkpt>
      <trkpt lat="42.5855600" lon="-8.6426880">
        <ele>57.6</ele>
        <time>2022-06-18T15:53:48Z</time>
      </trkpt>
      <trkpt lat="42.5856110" lon="-8.6426930">
        <ele>57.6</ele>
        <time>2022-06-18T15:53:49Z</time>
      </trkpt>
      <trkpt lat="42.5856610" lon="-8.6427000">
        <ele>57.6</ele>
        <time>2022-06-18T15:53:50Z</time>
      </trkpt>
      <trkpt lat="42.5857110" lon="-8.6427060">
        <ele>58.0</ele>
        <time>2022-06-18T15:53:51Z</time>
      </trkpt>
      <trkpt lat="42.5857610" lon="-8.6427180">
        <ele>58.0</ele>
        <time>2022-06-18T15:53:52Z</time>
      </trkpt>
      <trkpt lat="42.5858110" lon="-8.6427280">
        <ele>58.0</ele>
        <time>2022-06-18T15:53:53Z</time>
      </trkpt>
      <trkpt lat="42.5858650" lon="-8.6427360">
        <ele>58.4</ele>
        <time>2022-06-18T15:53:54Z</time>
      </trkpt>
      <trkpt lat="42.5859130" lon="-8.6427450">
        <ele>58.4</ele>
        <time>2022-06-18T15:53:55Z</time>
      </trkpt>
      <trkpt lat="42.5859610" lon="-8.6427510">
        <ele>58.4</ele>
        <time>2022-06-18T15:53:56Z</time>
      </trkpt>
      <trkpt lat="42.5860100" lon="-8.6427610">
        <ele>58.4</ele>
        <time>2022-06-18T15:53:57Z</time>
      </trkpt>
      <trkpt lat="42.5860100" lon="-8.6427610">
        <ele>57.4</ele>
        <time>2022-06-18T15:53:58Z</time>
      </trkpt>
      <trkpt lat="42.5860980" lon="-8.6428030">
        <ele>57.4</ele>
        <time>2022-06-18T15:53:59Z</time>
      </trkpt>
      <trkpt lat="42.5861670" lon="-8.6428390">
        <ele>57.4</ele>
        <time>2022-06-18T15:54:00Z</time>
      </trkpt>
      <trkpt lat="42.5861920" lon="-8.6428480">
        <ele>57.4</ele>
        <time>2022-06-18T15:54:01Z</time>
      </trkpt>
      <trkpt lat="42.5862410" lon="-8.6428650">
        <ele>57.6</ele>
        <time>2022-06-18T15:54:02Z</time>
      </trkpt>
      <trkpt lat="42.5863190" lon="-8.6428740">
        <ele>58.0</ele>
        <time>2022-06-18T15:54:03Z</time>
      </trkpt>
      <trkpt lat="42.5863450" lon="-8.6428750">
        <ele>58.0</ele>
        <time>2022-06-18T15:54:04Z</time>
      </trkpt>
      <trkpt lat="42.5863980" lon="-8.6428780">
        <ele>58.0</ele>
        <time>2022-06-18T15:54:05Z</time>
      </trkpt>
      <trkpt lat="42.5864550" lon="-8.6428750">
        <ele>58.0</ele>
        <time>2022-06-18T15:54:06Z</time>
      </trkpt>
      <trkpt lat="42.5865100" lon="-8.6428760">
        <ele>57.2</ele>
        <time>2022-06-18T15:54:07Z</time>
      </trkpt>
      <trkpt lat="42.5865630" lon="-8.6428800">
        <ele>57.2</ele>
        <time>2022-06-18T15:54:08Z</time>
      </trkpt>
      <trkpt lat="42.5866210" lon="-8.6428800">
        <ele>57.2</ele>
        <time>2022-06-18T15:54:09Z</time>
      </trkpt>
      <trkpt lat="42.5866780" lon="-8.6428810">
        <ele>56.6</ele>
        <time>2022-06-18T15:54:10Z</time>
      </trkpt>
      <trkpt lat="42.5867400" lon="-8.6428800">
        <ele>57.0</ele>
        <time>2022-06-18T15:54:11Z</time>
      </trkpt>
      <trkpt lat="42.5868010" lon="-8.6428750">
        <ele>57.0</ele>
        <time>2022-06-18T15:54:12Z</time>
      </trkpt>
      <trkpt lat="42.5868970" lon="-8.6428690">
        <ele>57.0</ele>
        <time>2022-06-18T15:54:13Z</time>
      </trkpt>
      <trkpt lat="42.5869290" lon="-8.6428680">
        <ele>57.0</ele>
        <time>2022-06-18T15:54:14Z</time>
      </trkpt>
      <trkpt lat="42.5870250" lon="-8.6428640">
        <ele>57.6</ele>
        <time>2022-06-18T15:54:15Z</time>
      </trkpt>
      <trkpt lat="42.5870580" lon="-8.6428620">
        <ele>57.6</ele>
        <time>2022-06-18T15:54:16Z</time>
      </trkpt>
      <trkpt lat="42.5871230" lon="-8.6428580">
        <ele>57.6</ele>
        <time>2022-06-18T15:54:17Z</time>
      </trkpt>
      <trkpt lat="42.5871860" lon="-8.6428560">
        <ele>57.6</ele>
        <time>2022-06-18T15:54:18Z</time>
      </trkpt>
      <trkpt lat="42.5872460" lon="-8.6428530">
        <ele>58.8</ele>
        <time>2022-06-18T15:54:19Z</time>
      </trkpt>
      <trkpt lat="42.5873080" lon="-8.6428510">
        <ele>58.8</ele>
        <time>2022-06-18T15:54:20Z</time>
      </trkpt>
      <trkpt lat="42.5873680" lon="-8.6428510">
        <ele>58.8</ele>
        <time>2022-06-18T15:54:21Z</time>
      </trkpt>
      <trkpt lat="42.5874310" lon="-8.6428500">
        <ele>58.8</ele>
        <time>2022-06-18T15:54:22Z</time>
      </trkpt>
      <trkpt lat="42.5874960" lon="-8.6428460">
        <ele>58.0</ele>
        <time>2022-06-18T15:54:23Z</time>
      </trkpt>
      <trkpt lat="42.5875600" lon="-8.6428480">
        <ele>58.0</ele>
        <time>2022-06-18T15:54:24Z</time>
      </trkpt>
      <trkpt lat="42.5876230" lon="-8.6428460">
        <ele>58.0</ele>
        <time>2022-06-18T15:54:25Z</time>
      </trkpt>
      <trkpt lat="42.5876850" lon="-8.6428500">
        <ele>58.8</ele>
        <time>2022-06-18T15:54:26Z</time>
      </trkpt>
      <trkpt lat="42.5877450" lon="-8.6428530">
        <ele>58.8</ele>
        <time>2022-06-18T15:54:27Z</time>
      </trkpt>
      <trkpt lat="42.5878060" lon="-8.6428580">
        <ele>58.8</ele>
        <time>2022-06-18T15:54:28Z</time>
      </trkpt>
      <trkpt lat="42.5878660" lon="-8.6428610">
        <ele>58.8</ele>
        <time>2022-06-18T15:54:29Z</time>
      </trkpt>
      <trkpt lat="42.5879480" lon="-8.6428670">
        <ele>58.8</ele>
        <time>2022-06-18T15:54:30Z</time>
      </trkpt>
      <trkpt lat="42.5879740" lon="-8.6428690">
        <ele>59.4</ele>
        <time>2022-06-18T15:54:31Z</time>
      </trkpt>
      <trkpt lat="42.5880280" lon="-8.6428730">
        <ele>59.4</ele>
        <time>2022-06-18T15:54:32Z</time>
      </trkpt>
      <trkpt lat="42.5880810" lon="-8.6428760">
        <ele>59.4</ele>
        <time>2022-06-18T15:54:33Z</time>
      </trkpt>
      <trkpt lat="42.5881330" lon="-8.6428810">
        <ele>59.4</ele>
        <time>2022-06-18T15:54:34Z</time>
      </trkpt>
      <trkpt lat="42.5881850" lon="-8.6428830">
        <ele>60.0</ele>
        <time>2022-06-18T15:54:35Z</time>
      </trkpt>
      <trkpt lat="42.5882350" lon="-8.6428850">
        <ele>60.0</ele>
        <time>2022-06-18T15:54:36Z</time>
      </trkpt>
      <trkpt lat="42.5882880" lon="-8.6428860">
        <ele>60.0</ele>
        <time>2022-06-18T15:54:37Z</time>
      </trkpt>
      <trkpt lat="42.5883400" lon="-8.6428900">
        <ele>60.0</ele>
        <time>2022-06-18T15:54:38Z</time>
      </trkpt>
      <trkpt lat="42.5883930" lon="-8.6428930">
        <ele>59.6</ele>
        <time>2022-06-18T15:54:39Z</time>
      </trkpt>
      <trkpt lat="42.5884430" lon="-8.6428980">
        <ele>59.6</ele>
        <time>2022-06-18T15:54:40Z</time>
      </trkpt>
      <trkpt lat="42.5884910" lon="-8.6429010">
        <ele>59.6</ele>
        <time>2022-06-18T15:54:41Z</time>
      </trkpt>
      <trkpt lat="42.5885400" lon="-8.6429050">
        <ele>59.6</ele>
        <time>2022-06-18T15:54:42Z</time>
      </trkpt>
      <trkpt lat="42.5885880" lon="-8.6429060">
        <ele>60.2</ele>
        <time>2022-06-18T15:54:43Z</time>
      </trkpt>
      <trkpt lat="42.5886360" lon="-8.6429100">
        <ele>60.2</ele>
        <time>2022-06-18T15:54:44Z</time>
      </trkpt>
      <trkpt lat="42.5886850" lon="-8.6429150">
        <ele>60.2</ele>
        <time>2022-06-18T15:54:45Z</time>
      </trkpt>
      <trkpt lat="42.5887330" lon="-8.6429230">
        <ele>61.0</ele>
        <time>2022-06-18T15:54:46Z</time>
      </trkpt>
      <trkpt lat="42.5887330" lon="-8.6429230">
        <ele>60.4</ele>
        <time>2022-06-18T15:54:47Z</time>
      </trkpt>
      <trkpt lat="42.5888280" lon="-8.6429360">
        <ele>60.4</ele>
        <time>2022-06-18T15:54:48Z</time>
      </trkpt>
      <trkpt lat="42.5888680" lon="-8.6429480">
        <ele>60.4</ele>
        <time>2022-06-18T15:54:49Z</time>
      </trkpt>
      <trkpt lat="42.5889060" lon="-8.6429660">
        <ele>60.4</ele>
        <time>2022-06-18T15:54:50Z</time>
      </trkpt>
      <trkpt lat="42.5889450" lon="-8.6429830">
        <ele>60.4</ele>
        <time>2022-06-18T15:54:51Z</time>
      </trkpt>
      <trkpt lat="42.5889780" lon="-8.6430050">
        <ele>60.4</ele>
        <time>2022-06-18T15:54:52Z</time>
      </trkpt>
      <trkpt lat="42.5890080" lon="-8.6430300">
        <ele>60.4</ele>
        <time>2022-06-18T15:54:53Z</time>
      </trkpt>
      <trkpt lat="42.5890330" lon="-8.6430580">
        <ele>61.4</ele>
        <time>2022-06-18T15:54:54Z</time>
      </trkpt>
      <trkpt lat="42.5890330" lon="-8.6430580">
        <ele>61.2</ele>
        <time>2022-06-18T15:54:55Z</time>
      </trkpt>
      <trkpt lat="42.5890900" lon="-8.6431030">
        <ele>61.2</ele>
        <time>2022-06-18T15:54:56Z</time>
      </trkpt>
      <trkpt lat="42.5891200" lon="-8.6431130">
        <ele>61.2</ele>
        <time>2022-06-18T15:54:57Z</time>
      </trkpt>
      <trkpt lat="42.5891460" lon="-8.6431060">
        <ele>61.8</ele>
        <time>2022-06-18T15:54:58Z</time>
      </trkpt>
      <trkpt lat="42.5891710" lon="-8.6430900">
        <ele>62.0</ele>
        <time>2022-06-18T15:54:59Z</time>
      </trkpt>
      <trkpt lat="42.5891710" lon="-8.6430900">
        <ele>62.0</ele>
        <time>2022-06-18T15:55:00Z</time>
      </trkpt>
      <trkpt lat="42.5892080" lon="-8.6430550">
        <ele>62.0</ele>
        <time>2022-06-18T15:55:01Z</time>
      </trkpt>
      <trkpt lat="42.5892200" lon="-8.6430430">
        <ele>62.0</ele>
        <time>2022-06-18T15:55:02Z</time>
      </trkpt>
      <trkpt lat="42.5892350" lon="-8.6430330">
        <ele>61.8</ele>
        <time>2022-06-18T15:55:03Z</time>
      </trkpt>
      <trkpt lat="42.5892550" lon="-8.6430300">
        <ele>61.8</ele>
        <time>2022-06-18T15:55:04Z</time>
      </trkpt>
      <trkpt lat="42.5892550" lon="-8.6430300">
        <ele>61.8</ele>
        <time>2022-06-18T15:55:05Z</time>
      </trkpt>
      <trkpt lat="42.5892980" lon="-8.6430410">
        <ele>61.8</ele>
        <time>2022-06-18T15:55:06Z</time>
      </trkpt>
      <trkpt lat="42.5893260" lon="-8.6430400">
        <ele>62.2</ele>
        <time>2022-06-18T15:55:07Z</time>
      </trkpt>
      <trkpt lat="42.5893560" lon="-8.6430300">
        <ele>62.2</ele>
        <time>2022-06-18T15:55:08Z</time>
      </trkpt>
      <trkpt lat="42.5893860" lon="-8.6430150">
        <ele>62.2</ele>
        <time>2022-06-18T15:55:09Z</time>
      </trkpt>
      <trkpt lat="42.5893860" lon="-8.6430150">
        <ele>62.2</ele>
        <time>2022-06-18T15:55:10Z</time>
      </trkpt>
      <trkpt lat="42.5894500" lon="-8.6429750">
        <ele>62.6</ele>
        <time>2022-06-18T15:55:11Z</time>
      </trkpt>
      <trkpt lat="42.5894810" lon="-8.6429550">
        <ele>62.6</ele>
        <time>2022-06-18T15:55:12Z</time>
      </trkpt>
      <trkpt lat="42.5895270" lon="-8.6429280">
        <ele>62.6</ele>
        <time>2022-06-18T15:55:13Z</time>
      </trkpt>
      <trkpt lat="42.5895430" lon="-8.6429240">
        <ele>62.6</ele>
        <time>2022-06-18T15:55:14Z</time>
      </trkpt>
      <trkpt lat="42.5895600" lon="-8.6429210">
        <ele>61.6</ele>
        <time>2022-06-18T15:55:15Z</time>
      </trkpt>
      <trkpt lat="42.5896100" lon="-8.6429110">
        <ele>61.6</ele>
        <time>2022-06-18T15:55:16Z</time>
      </trkpt>
      <trkpt lat="42.5896400" lon="-8.6429010">
        <ele>61.6</ele>
        <time>2022-06-18T15:55:17Z</time>
      </trkpt>
      <trkpt lat="42.5896750" lon="-8.6428830">
        <ele>61.6</ele>
        <time>2022-06-18T15:55:18Z</time>
      </trkpt>
      <trkpt lat="42.5897060" lon="-8.6428580">
        <ele>62.2</ele>
        <time>2022-06-18T15:55:19Z</time>
      </trkpt>
      <trkpt lat="42.5897430" lon="-8.6428360">
        <ele>62.2</ele>
        <time>2022-06-18T15:55:20Z</time>
      </trkpt>
      <trkpt lat="42.5897860" lon="-8.6428250">
        <ele>62.2</ele>
        <time>2022-06-18T15:55:21Z</time>
      </trkpt>
      <trkpt lat="42.5898310" lon="-8.6428180">
        <ele>62.2</ele>
        <time>2022-06-18T15:55:22Z</time>
      </trkpt>
      <trkpt lat="42.5898800" lon="-8.6428150">
        <ele>61.6</ele>
        <time>2022-06-18T15:55:23Z</time>
      </trkpt>
      <trkpt lat="42.5899300" lon="-8.6428130">
        <ele>61.6</ele>
        <time>2022-06-18T15:55:24Z</time>
      </trkpt>
      <trkpt lat="42.5899800" lon="-8.6428130">
        <ele>61.6</ele>
        <time>2022-06-18T15:55:25Z</time>
      </trkpt>
      <trkpt lat="42.5900310" lon="-8.6428160">
        <ele>60.6</ele>
        <time>2022-06-18T15:55:26Z</time>
      </trkpt>
      <trkpt lat="42.5900850" lon="-8.6428230">
        <ele>60.0</ele>
        <time>2022-06-18T15:55:27Z</time>
      </trkpt>
      <trkpt lat="42.5901360" lon="-8.6428300">
        <ele>60.0</ele>
        <time>2022-06-18T15:55:28Z</time>
      </trkpt>
      <trkpt lat="42.5901900" lon="-8.6428380">
        <ele>60.0</ele>
        <time>2022-06-18T15:55:29Z</time>
      </trkpt>
      <trkpt lat="42.5902410" lon="-8.6428450">
        <ele>60.2</ele>
        <time>2022-06-18T15:55:30Z</time>
      </trkpt>
      <trkpt lat="42.5902930" lon="-8.6428510">
        <ele>59.2</ele>
        <time>2022-06-18T15:55:31Z</time>
      </trkpt>
      <trkpt lat="42.5903430" lon="-8.6428550">
        <ele>59.2</ele>
        <time>2022-06-18T15:55:32Z</time>
      </trkpt>
      <trkpt lat="42.5903960" lon="-8.6428600">
        <ele>59.2</ele>
        <time>2022-06-18T15:55:33Z</time>
      </trkpt>
      <trkpt lat="42.5904480" lon="-8.6428630">
        <ele>60.2</ele>
        <time>2022-06-18T15:55:34Z</time>
      </trkpt>
      <trkpt lat="42.5905030" lon="-8.6428660">
        <ele>59.4</ele>
        <time>2022-06-18T15:55:35Z</time>
      </trkpt>
      <trkpt lat="42.5905560" lon="-8.6428700">
        <ele>59.4</ele>
        <time>2022-06-18T15:55:36Z</time>
      </trkpt>
      <trkpt lat="42.5906100" lon="-8.6428710">
        <ele>59.4</ele>
        <time>2022-06-18T15:55:37Z</time>
      </trkpt>
      <trkpt lat="42.5906650" lon="-8.6428760">
        <ele>59.8</ele>
        <time>2022-06-18T15:55:38Z</time>
      </trkpt>
      <trkpt lat="42.5907200" lon="-8.6428780">
        <ele>60.2</ele>
        <time>2022-06-18T15:55:39Z</time>
      </trkpt>
      <trkpt lat="42.5907730" lon="-8.6428800">
        <ele>60.2</ele>
        <time>2022-06-18T15:55:40Z</time>
      </trkpt>
      <trkpt lat="42.5908280" lon="-8.6428880">
        <ele>60.2</ele>
        <time>2022-06-18T15:55:41Z</time>
      </trkpt>
      <trkpt lat="42.5908810" lon="-8.6428930">
        <ele>60.2</ele>
        <time>2022-06-18T15:55:42Z</time>
      </trkpt>
      <trkpt lat="42.5909380" lon="-8.6428980">
        <ele>61.4</ele>
        <time>2022-06-18T15:55:43Z</time>
      </trkpt>
      <trkpt lat="42.5909950" lon="-8.6428980">
        <ele>61.4</ele>
        <time>2022-06-18T15:55:44Z</time>
      </trkpt>
      <trkpt lat="42.5910510" lon="-8.6428980">
        <ele>61.4</ele>
        <time>2022-06-18T15:55:45Z</time>
      </trkpt>
      <trkpt lat="42.5911100" lon="-8.6428980">
        <ele>61.8</ele>
        <time>2022-06-18T15:55:46Z</time>
      </trkpt>
      <trkpt lat="42.5911650" lon="-8.6429010">
        <ele>61.8</ele>
        <time>2022-06-18T15:55:47Z</time>
      </trkpt>
      <trkpt lat="42.5912210" lon="-8.6429050">
        <ele>61.8</ele>
        <time>2022-06-18T15:55:48Z</time>
      </trkpt>
      <trkpt lat="42.5912780" lon="-8.6429060">
        <ele>61.8</ele>
        <time>2022-06-18T15:55:49Z</time>
      </trkpt>
      <trkpt lat="42.5913350" lon="-8.6429100">
        <ele>61.8</ele>
        <time>2022-06-18T15:55:50Z</time>
      </trkpt>
      <trkpt lat="42.5913910" lon="-8.6429150">
        <ele>61.4</ele>
        <time>2022-06-18T15:55:51Z</time>
      </trkpt>
      <trkpt lat="42.5914460" lon="-8.6429210">
        <ele>61.4</ele>
        <time>2022-06-18T15:55:52Z</time>
      </trkpt>
      <trkpt lat="42.5915010" lon="-8.6429260">
        <ele>61.4</ele>
        <time>2022-06-18T15:55:53Z</time>
      </trkpt>
      <trkpt lat="42.5915550" lon="-8.6429280">
        <ele>62.4</ele>
        <time>2022-06-18T15:55:54Z</time>
      </trkpt>
      <trkpt lat="42.5916080" lon="-8.6429330">
        <ele>63.6</ele>
        <time>2022-06-18T15:55:55Z</time>
      </trkpt>
      <trkpt lat="42.5916610" lon="-8.6429380">
        <ele>63.6</ele>
        <time>2022-06-18T15:55:56Z</time>
      </trkpt>
      <trkpt lat="42.5917160" lon="-8.6429410">
        <ele>63.6</ele>
        <time>2022-06-18T15:55:57Z</time>
      </trkpt>
      <trkpt lat="42.5917700" lon="-8.6429450">
        <ele>63.6</ele>
        <time>2022-06-18T15:55:58Z</time>
      </trkpt>
      <trkpt lat="42.5918210" lon="-8.6429480">
        <ele>63.4</ele>
        <time>2022-06-18T15:55:59Z</time>
      </trkpt>
      <trkpt lat="42.5918750" lon="-8.6429510">
        <ele>63.4</ele>
        <time>2022-06-18T15:56:00Z</time>
      </trkpt>
      <trkpt lat="42.5919280" lon="-8.6429550">
        <ele>63.4</ele>
        <time>2022-06-18T15:56:01Z</time>
      </trkpt>
      <trkpt lat="42.5919780" lon="-8.6429600">
        <ele>63.4</ele>
        <time>2022-06-18T15:56:02Z</time>
      </trkpt>
      <trkpt lat="42.5920210" lon="-8.6429610">
        <ele>64.0</ele>
        <time>2022-06-18T15:56:03Z</time>
      </trkpt>
      <trkpt lat="42.5920650" lon="-8.6429600">
        <ele>64.0</ele>
        <time>2022-06-18T15:56:04Z</time>
      </trkpt>
      <trkpt lat="42.5921060" lon="-8.6429610">
        <ele>64.0</ele>
        <time>2022-06-18T15:56:05Z</time>
      </trkpt>
      <trkpt lat="42.5921460" lon="-8.6429680">
        <ele>64.6</ele>
        <time>2022-06-18T15:56:06Z</time>
      </trkpt>
      <trkpt lat="42.5921880" lon="-8.6429700">
        <ele>64.8</ele>
        <time>2022-06-18T15:56:07Z</time>
      </trkpt>
      <trkpt lat="42.5922260" lon="-8.6429710">
        <ele>64.8</ele>
        <time>2022-06-18T15:56:08Z</time>
      </trkpt>
      <trkpt lat="42.5922660" lon="-8.6429710">
        <ele>64.8</ele>
        <time>2022-06-18T15:56:09Z</time>
      </trkpt>
      <trkpt lat="42.5923050" lon="-8.6429750">
        <ele>64.8</ele>
        <time>2022-06-18T15:56:10Z</time>
      </trkpt>
      <trkpt lat="42.5923430" lon="-8.6429760">
        <ele>65.0</ele>
        <time>2022-06-18T15:56:11Z</time>
      </trkpt>
      <trkpt lat="42.5923810" lon="-8.6429800">
        <ele>65.0</ele>
        <time>2022-06-18T15:56:12Z</time>
      </trkpt>
      <trkpt lat="42.5924200" lon="-8.6429830">
        <ele>65.0</ele>
        <time>2022-06-18T15:56:13Z</time>
      </trkpt>
      <trkpt lat="42.5924600" lon="-8.6429850">
        <ele>65.0</ele>
        <time>2022-06-18T15:56:14Z</time>
      </trkpt>
      <trkpt lat="42.5925000" lon="-8.6429880">
        <ele>65.2</ele>
        <time>2022-06-18T15:56:15Z</time>
      </trkpt>
      <trkpt lat="42.5925360" lon="-8.6429910">
        <ele>65.2</ele>
        <time>2022-06-18T15:56:16Z</time>
      </trkpt>
      <trkpt lat="42.5925750" lon="-8.6429950">
        <ele>65.2</ele>
        <time>2022-06-18T15:56:17Z</time>
      </trkpt>
      <trkpt lat="42.5926130" lon="-8.6430000">
        <ele>65.0</ele>
        <time>2022-06-18T15:56:18Z</time>
      </trkpt>
      <trkpt lat="42.5926510" lon="-8.6430010">
        <ele>65.4</ele>
        <time>2022-06-18T15:56:19Z</time>
      </trkpt>
      <trkpt lat="42.5926900" lon="-8.6430010">
        <ele>65.4</ele>
        <time>2022-06-18T15:56:20Z</time>
      </trkpt>
      <trkpt lat="42.5927280" lon="-8.6430050">
        <ele>65.4</ele>
        <time>2022-06-18T15:56:21Z</time>
      </trkpt>
      <trkpt lat="42.5927660" lon="-8.6430080">
        <ele>66.0</ele>
        <time>2022-06-18T15:56:22Z</time>
      </trkpt>
      <trkpt lat="42.5928050" lon="-8.6430110">
        <ele>66.4</ele>
        <time>2022-06-18T15:56:23Z</time>
      </trkpt>
      <trkpt lat="42.5928410" lon="-8.6430150">
        <ele>66.4</ele>
        <time>2022-06-18T15:56:24Z</time>
      </trkpt>
      <trkpt lat="42.5928830" lon="-8.6430160">
        <ele>66.4</ele>
        <time>2022-06-18T15:56:25Z</time>
      </trkpt>
      <trkpt lat="42.5929210" lon="-8.6430160">
        <ele>66.4</ele>
        <time>2022-06-18T15:56:26Z</time>
      </trkpt>
      <trkpt lat="42.5929600" lon="-8.6430180">
        <ele>66.4</ele>
        <time>2022-06-18T15:56:27Z</time>
      </trkpt>
      <trkpt lat="42.5929980" lon="-8.6430230">
        <ele>66.4</ele>
        <time>2022-06-18T15:56:28Z</time>
      </trkpt>
      <trkpt lat="42.5930360" lon="-8.6430260">
        <ele>66.4</ele>
        <time>2022-06-18T15:56:29Z</time>
      </trkpt>
      <trkpt lat="42.5930750" lon="-8.6430300">
        <ele>67.0</ele>
        <time>2022-06-18T15:56:30Z</time>
      </trkpt>
      <trkpt lat="42.5931110" lon="-8.6430310">
        <ele>66.8</ele>
        <time>2022-06-18T15:56:31Z</time>
      </trkpt>
      <trkpt lat="42.5931480" lon="-8.6430350">
        <ele>66.8</ele>
        <time>2022-06-18T15:56:32Z</time>
      </trkpt>
      <trkpt lat="42.5931850" lon="-8.6430380">
        <ele>66.8</ele>
        <time>2022-06-18T15:56:33Z</time>
      </trkpt>
      <trkpt lat="42.5932210" lon="-8.6430400">
        <ele>67.4</ele>
        <time>2022-06-18T15:56:34Z</time>
      </trkpt>
      <trkpt lat="42.5932580" lon="-8.6430410">
        <ele>67.6</ele>
        <time>2022-06-18T15:56:35Z</time>
      </trkpt>
      <trkpt lat="42.5932960" lon="-8.6430410">
        <ele>67.6</ele>
        <time>2022-06-18T15:56:36Z</time>
      </trkpt>
      <trkpt lat="42.5933350" lon="-8.6430430">
        <ele>67.6</ele>
        <time>2022-06-18T15:56:37Z</time>
      </trkpt>
      <trkpt lat="42.5933710" lon="-8.6430460">
        <ele>67.6</ele>
        <time>2022-06-18T15:56:38Z</time>
      </trkpt>
      <trkpt lat="42.5934060" lon="-8.6430500">
        <ele>67.8</ele>
        <time>2022-06-18T15:56:39Z</time>
      </trkpt>
      <trkpt lat="42.5934430" lon="-8.6430550">
        <ele>67.8</ele>
        <time>2022-06-18T15:56:40Z</time>
      </trkpt>
      <trkpt lat="42.5934780" lon="-8.6430560">
        <ele>67.8</ele>
        <time>2022-06-18T15:56:41Z</time>
      </trkpt>
      <trkpt lat="42.5935150" lon="-8.6430600">
        <ele>67.8</ele>
        <time>2022-06-18T15:56:42Z</time>
      </trkpt>
      <trkpt lat="42.5935500" lon="-8.6430630">
        <ele>68.2</ele>
        <time>2022-06-18T15:56:43Z</time>
      </trkpt>
      <trkpt lat="42.5935850" lon="-8.6430650">
        <ele>68.2</ele>
        <time>2022-06-18T15:56:44Z</time>
      </trkpt>
      <trkpt lat="42.5936200" lon="-8.6430680">
        <ele>68.2</ele>
        <time>2022-06-18T15:56:45Z</time>
      </trkpt>
      <trkpt lat="42.5936560" lon="-8.6430710">
        <ele>69.2</ele>
        <time>2022-06-18T15:56:46Z</time>
      </trkpt>
      <trkpt lat="42.5936910" lon="-8.6430750">
        <ele>69.2</ele>
        <time>2022-06-18T15:56:47Z</time>
      </trkpt>
      <trkpt lat="42.5937280" lon="-8.6430760">
        <ele>69.2</ele>
        <time>2022-06-18T15:56:48Z</time>
      </trkpt>
      <trkpt lat="42.5937630" lon="-8.6430810">
        <ele>69.2</ele>
        <time>2022-06-18T15:56:49Z</time>
      </trkpt>
      <trkpt lat="42.5938000" lon="-8.6430850">
        <ele>69.2</ele>
        <time>2022-06-18T15:56:50Z</time>
      </trkpt>
      <trkpt lat="42.5938350" lon="-8.6430860">
        <ele>69.8</ele>
        <time>2022-06-18T15:56:51Z</time>
      </trkpt>
      <trkpt lat="42.5938350" lon="-8.6430860">
        <ele>69.8</ele>
        <time>2022-06-18T15:56:52Z</time>
      </trkpt>
      <trkpt lat="42.5939080" lon="-8.6430930">
        <ele>69.8</ele>
        <time>2022-06-18T15:56:53Z</time>
      </trkpt>
      <trkpt lat="42.5939460" lon="-8.6430950">
        <ele>69.8</ele>
        <time>2022-06-18T15:56:54Z</time>
      </trkpt>
      <trkpt lat="42.5939830" lon="-8.6430950">
        <ele>70.2</ele>
        <time>2022-06-18T15:56:55Z</time>
      </trkpt>
      <trkpt lat="42.5940200" lon="-8.6430980">
        <ele>70.2</ele>
        <time>2022-06-18T15:56:56Z</time>
      </trkpt>
      <trkpt lat="42.5940580" lon="-8.6431000">
        <ele>70.2</ele>
        <time>2022-06-18T15:56:57Z</time>
      </trkpt>
      <trkpt lat="42.5940950" lon="-8.6431010">
        <ele>70.8</ele>
        <time>2022-06-18T15:56:58Z</time>
      </trkpt>
      <trkpt lat="42.5941310" lon="-8.6431030">
        <ele>70.6</ele>
        <time>2022-06-18T15:56:59Z</time>
      </trkpt>
      <trkpt lat="42.5941680" lon="-8.6431060">
        <ele>70.6</ele>
        <time>2022-06-18T15:57:00Z</time>
      </trkpt>
      <trkpt lat="42.5942050" lon="-8.6431100">
        <ele>70.6</ele>
        <time>2022-06-18T15:57:01Z</time>
      </trkpt>
      <trkpt lat="42.5942410" lon="-8.6431130">
        <ele>71.6</ele>
        <time>2022-06-18T15:57:02Z</time>
      </trkpt>
      <trkpt lat="42.5942800" lon="-8.6431200">
        <ele>71.8</ele>
        <time>2022-06-18T15:57:03Z</time>
      </trkpt>
      <trkpt lat="42.5943160" lon="-8.6431230">
        <ele>71.8</ele>
        <time>2022-06-18T15:57:04Z</time>
      </trkpt>
      <trkpt lat="42.5943510" lon="-8.6431280">
        <ele>71.8</ele>
        <time>2022-06-18T15:57:05Z</time>
      </trkpt>
      <trkpt lat="42.5943850" lon="-8.6431360">
        <ele>72.2</ele>
        <time>2022-06-18T15:57:06Z</time>
      </trkpt>
      <trkpt lat="42.5944200" lon="-8.6431410">
        <ele>72.8</ele>
        <time>2022-06-18T15:57:07Z</time>
      </trkpt>
      <trkpt lat="42.5944560" lon="-8.6431460">
        <ele>72.8</ele>
        <time>2022-06-18T15:57:08Z</time>
      </trkpt>
      <trkpt lat="42.5944930" lon="-8.6431500">
        <ele>72.8</ele>
        <time>2022-06-18T15:57:09Z</time>
      </trkpt>
      <trkpt lat="42.5945280" lon="-8.6431480">
        <ele>72.8</ele>
        <time>2022-06-18T15:57:10Z</time>
      </trkpt>
      <trkpt lat="42.5945650" lon="-8.6431450">
        <ele>73.2</ele>
        <time>2022-06-18T15:57:11Z</time>
      </trkpt>
      <trkpt lat="42.5946010" lon="-8.6431400">
        <ele>73.2</ele>
        <time>2022-06-18T15:57:12Z</time>
      </trkpt>
      <trkpt lat="42.5946400" lon="-8.6431380">
        <ele>73.2</ele>
        <time>2022-06-18T15:57:13Z</time>
      </trkpt>
      <trkpt lat="42.5946780" lon="-8.6431380">
        <ele>73.2</ele>
        <time>2022-06-18T15:57:14Z</time>
      </trkpt>
      <trkpt lat="42.5947150" lon="-8.6431400">
        <ele>73.4</ele>
        <time>2022-06-18T15:57:15Z</time>
      </trkpt>
      <trkpt lat="42.5947510" lon="-8.6431410">
        <ele>73.4</ele>
        <time>2022-06-18T15:57:16Z</time>
      </trkpt>
      <trkpt lat="42.5947900" lon="-8.6431450">
        <ele>73.4</ele>
        <time>2022-06-18T15:57:17Z</time>
      </trkpt>
      <trkpt lat="42.5948280" lon="-8.6431480">
        <ele>73.6</ele>
        <time>2022-06-18T15:57:18Z</time>
      </trkpt>
      <trkpt lat="42.5948660" lon="-8.6431500">
        <ele>73.6</ele>
        <time>2022-06-18T15:57:19Z</time>
      </trkpt>
      <trkpt lat="42.5949050" lon="-8.6431500">
        <ele>73.6</ele>
        <time>2022-06-18T15:57:20Z</time>
      </trkpt>
      <trkpt lat="42.5949400" lon="-8.6431530">
        <ele>73.6</ele>
        <time>2022-06-18T15:57:21Z</time>
      </trkpt>
      <trkpt lat="42.5949750" lon="-8.6431550">
        <ele>73.8</ele>
        <time>2022-06-18T15:57:22Z</time>
      </trkpt>
      <trkpt lat="42.5950130" lon="-8.6431560">
        <ele>74.2</ele>
        <time>2022-06-18T15:57:23Z</time>
      </trkpt>
      <trkpt lat="42.5950500" lon="-8.6431600">
        <ele>74.2</ele>
        <time>2022-06-18T15:57:24Z</time>
      </trkpt>
      <trkpt lat="42.5950860" lon="-8.6431610">
        <ele>74.2</ele>
        <time>2022-06-18T15:57:25Z</time>
      </trkpt>
      <trkpt lat="42.5951230" lon="-8.6431660">
        <ele>74.4</ele>
        <time>2022-06-18T15:57:26Z</time>
      </trkpt>
      <trkpt lat="42.5951610" lon="-8.6431710">
        <ele>74.4</ele>
        <time>2022-06-18T15:57:27Z</time>
      </trkpt>
      <trkpt lat="42.5951980" lon="-8.6431760">
        <ele>74.4</ele>
        <time>2022-06-18T15:57:28Z</time>
      </trkpt>
      <trkpt lat="42.5952360" lon="-8.6431800">
        <ele>74.4</ele>
        <time>2022-06-18T15:57:29Z</time>
      </trkpt>
      <trkpt lat="42.5952750" lon="-8.6431780">
        <ele>74.8</ele>
        <time>2022-06-18T15:57:30Z</time>
      </trkpt>
      <trkpt lat="42.5953130" lon="-8.6431760">
        <ele>74.8</ele>
        <time>2022-06-18T15:57:31Z</time>
      </trkpt>
      <trkpt lat="42.5953510" lon="-8.6431800">
        <ele>74.8</ele>
        <time>2022-06-18T15:57:32Z</time>
      </trkpt>
      <trkpt lat="42.5953930" lon="-8.6431780">
        <ele>74.8</ele>
        <time>2022-06-18T15:57:33Z</time>
      </trkpt>
      <trkpt lat="42.5954310" lon="-8.6431800">
        <ele>74.8</ele>
        <time>2022-06-18T15:57:34Z</time>
      </trkpt>
      <trkpt lat="42.5954700" lon="-8.6431830">
        <ele>75.2</ele>
        <time>2022-06-18T15:57:35Z</time>
      </trkpt>
      <trkpt lat="42.5955100" lon="-8.6431850">
        <ele>75.2</ele>
        <time>2022-06-18T15:57:36Z</time>
      </trkpt>
      <trkpt lat="42.5955480" lon="-8.6431880">
        <ele>75.2</ele>
        <time>2022-06-18T15:57:37Z</time>
      </trkpt>
      <trkpt lat="42.5955860" lon="-8.6431960">
        <ele>75.0</ele>
        <time>2022-06-18T15:57:38Z</time>
      </trkpt>
      <trkpt lat="42.5956250" lon="-8.6432050">
        <ele>75.0</ele>
        <time>2022-06-18T15:57:39Z</time>
      </trkpt>
      <trkpt lat="42.5956660" lon="-8.6432130">
        <ele>75.0</ele>
        <time>2022-06-18T15:57:40Z</time>
      </trkpt>
      <trkpt lat="42.5957080" lon="-8.6432180">
        <ele>75.0</ele>
        <time>2022-06-18T15:57:41Z</time>
      </trkpt>
      <trkpt lat="42.5957530" lon="-8.6432160">
        <ele>75.0</ele>
        <time>2022-06-18T15:57:42Z</time>
      </trkpt>
      <trkpt lat="42.5957960" lon="-8.6432150">
        <ele>74.6</ele>
        <time>2022-06-18T15:57:43Z</time>
      </trkpt>
      <trkpt lat="42.5958410" lon="-8.6432160">
        <ele>74.6</ele>
        <time>2022-06-18T15:57:44Z</time>
      </trkpt>
      <trkpt lat="42.5958850" lon="-8.6432200">
        <ele>74.6</ele>
        <time>2022-06-18T15:57:45Z</time>
      </trkpt>
      <trkpt lat="42.5959310" lon="-8.6432200">
        <ele>74.6</ele>
        <time>2022-06-18T15:57:46Z</time>
      </trkpt>
      <trkpt lat="42.5959780" lon="-8.6432230">
        <ele>75.0</ele>
        <time>2022-06-18T15:57:47Z</time>
      </trkpt>
      <trkpt lat="42.5960250" lon="-8.6432230">
        <ele>75.0</ele>
        <time>2022-06-18T15:57:48Z</time>
      </trkpt>
      <trkpt lat="42.5960710" lon="-8.6432250">
        <ele>75.0</ele>
        <time>2022-06-18T15:57:49Z</time>
      </trkpt>
      <trkpt lat="42.5961200" lon="-8.6432250">
        <ele>74.4</ele>
        <time>2022-06-18T15:57:50Z</time>
      </trkpt>
      <trkpt lat="42.5961680" lon="-8.6432250">
        <ele>73.6</ele>
        <time>2022-06-18T15:57:51Z</time>
      </trkpt>
      <trkpt lat="42.5962230" lon="-8.6432230">
        <ele>73.6</ele>
        <time>2022-06-18T15:57:52Z</time>
      </trkpt>
      <trkpt lat="42.5962780" lon="-8.6432260">
        <ele>73.6</ele>
        <time>2022-06-18T15:57:53Z</time>
      </trkpt>
      <trkpt lat="42.5963380" lon="-8.6432300">
        <ele>72.6</ele>
        <time>2022-06-18T15:57:54Z</time>
      </trkpt>
      <trkpt lat="42.5964010" lon="-8.6432250">
        <ele>70.8</ele>
        <time>2022-06-18T15:57:55Z</time>
      </trkpt>
      <trkpt lat="42.5964630" lon="-8.6432200">
        <ele>70.8</ele>
        <time>2022-06-18T15:57:56Z</time>
      </trkpt>
      <trkpt lat="42.5965280" lon="-8.6432130">
        <ele>70.8</ele>
        <time>2022-06-18T15:57:57Z</time>
      </trkpt>
      <trkpt lat="42.5965950" lon="-8.6432110">
        <ele>70.2</ele>
        <time>2022-06-18T15:57:58Z</time>
      </trkpt>
      <trkpt lat="42.5966650" lon="-8.6432080">
        <ele>69.8</ele>
        <time>2022-06-18T15:57:59Z</time>
      </trkpt>
      <trkpt lat="42.5967350" lon="-8.6432030">
        <ele>69.8</ele>
        <time>2022-06-18T15:58:00Z</time>
      </trkpt>
      <trkpt lat="42.5968100" lon="-8.6431960">
        <ele>69.8</ele>
        <time>2022-06-18T15:58:01Z</time>
      </trkpt>
      <trkpt lat="42.5968880" lon="-8.6431860">
        <ele>68.8</ele>
        <time>2022-06-18T15:58:02Z</time>
      </trkpt>
      <trkpt lat="42.5969660" lon="-8.6431760">
        <ele>69.4</ele>
        <time>2022-06-18T15:58:03Z</time>
      </trkpt>
      <trkpt lat="42.5970480" lon="-8.6431630">
        <ele>69.4</ele>
        <time>2022-06-18T15:58:04Z</time>
      </trkpt>
      <trkpt lat="42.5971310" lon="-8.6431550">
        <ele>69.4</ele>
        <time>2022-06-18T15:58:05Z</time>
      </trkpt>
      <trkpt lat="42.5972160" lon="-8.6431480">
        <ele>68.4</ele>
        <time>2022-06-18T15:58:06Z</time>
      </trkpt>
      <trkpt lat="42.5973030" lon="-8.6431380">
        <ele>67.2</ele>
        <time>2022-06-18T15:58:07Z</time>
      </trkpt>
      <trkpt lat="42.5973900" lon="-8.6431250">
        <ele>67.2</ele>
        <time>2022-06-18T15:58:08Z</time>
      </trkpt>
      <trkpt lat="42.5974800" lon="-8.6431200">
        <ele>67.2</ele>
        <time>2022-06-18T15:58:09Z</time>
      </trkpt>
      <trkpt lat="42.5975710" lon="-8.6431160">
        <ele>66.2</ele>
        <time>2022-06-18T15:58:10Z</time>
      </trkpt>
      <trkpt lat="42.5976630" lon="-8.6431080">
        <ele>64.6</ele>
        <time>2022-06-18T15:58:11Z</time>
      </trkpt>
      <trkpt lat="42.5977550" lon="-8.6431010">
        <ele>64.6</ele>
        <time>2022-06-18T15:58:12Z</time>
      </trkpt>
      <trkpt lat="42.5978500" lon="-8.6430900">
        <ele>64.6</ele>
        <time>2022-06-18T15:58:13Z</time>
      </trkpt>
      <trkpt lat="42.5979450" lon="-8.6430780">
        <ele>63.6</ele>
        <time>2022-06-18T15:58:14Z</time>
      </trkpt>
      <trkpt lat="42.5980430" lon="-8.6430630">
        <ele>61.4</ele>
        <time>2022-06-18T15:58:15Z</time>
      </trkpt>
      <trkpt lat="42.5981400" lon="-8.6430510">
        <ele>61.4</ele>
        <time>2022-06-18T15:58:16Z</time>
      </trkpt>
      <trkpt lat="42.5982360" lon="-8.6430400">
        <ele>61.4</ele>
        <time>2022-06-18T15:58:17Z</time>
      </trkpt>
      <trkpt lat="42.5983330" lon="-8.6430280">
        <ele>61.4</ele>
        <time>2022-06-18T15:58:18Z</time>
      </trkpt>
      <trkpt lat="42.5984280" lon="-8.6430150">
        <ele>60.6</ele>
        <time>2022-06-18T15:58:19Z</time>
      </trkpt>
      <trkpt lat="42.5985180" lon="-8.6430030">
        <ele>60.6</ele>
        <time>2022-06-18T15:58:20Z</time>
      </trkpt>
      <trkpt lat="42.5986030" lon="-8.6429910">
        <ele>60.6</ele>
        <time>2022-06-18T15:58:21Z</time>
      </trkpt>
      <trkpt lat="42.5986830" lon="-8.6429810">
        <ele>61.6</ele>
        <time>2022-06-18T15:58:22Z</time>
      </trkpt>
      <trkpt lat="42.5987610" lon="-8.6429760">
        <ele>62.0</ele>
        <time>2022-06-18T15:58:23Z</time>
      </trkpt>
      <trkpt lat="42.5988380" lon="-8.6429750">
        <ele>62.0</ele>
        <time>2022-06-18T15:58:24Z</time>
      </trkpt>
      <trkpt lat="42.5989180" lon="-8.6429730">
        <ele>62.0</ele>
        <time>2022-06-18T15:58:25Z</time>
      </trkpt>
      <trkpt lat="42.5989980" lon="-8.6429630">
        <ele>61.0</ele>
        <time>2022-06-18T15:58:26Z</time>
      </trkpt>
      <trkpt lat="42.5990760" lon="-8.6429480">
        <ele>60.4</ele>
        <time>2022-06-18T15:58:27Z</time>
      </trkpt>
      <trkpt lat="42.5991560" lon="-8.6429360">
        <ele>60.4</ele>
        <time>2022-06-18T15:58:28Z</time>
      </trkpt>
      <trkpt lat="42.5992350" lon="-8.6429260">
        <ele>60.4</ele>
        <time>2022-06-18T15:58:29Z</time>
      </trkpt>
      <trkpt lat="42.5993130" lon="-8.6429160">
        <ele>60.4</ele>
        <time>2022-06-18T15:58:30Z</time>
      </trkpt>
      <trkpt lat="42.5993930" lon="-8.6429060">
        <ele>60.8</ele>
        <time>2022-06-18T15:58:31Z</time>
      </trkpt>
      <trkpt lat="42.5994730" lon="-8.6428980">
        <ele>60.8</ele>
        <time>2022-06-18T15:58:32Z</time>
      </trkpt>
      <trkpt lat="42.5995530" lon="-8.6428900">
        <ele>60.8</ele>
        <time>2022-06-18T15:58:33Z</time>
      </trkpt>
      <trkpt lat="42.5996310" lon="-8.6428800">
        <ele>59.8</ele>
        <time>2022-06-18T15:58:34Z</time>
      </trkpt>
      <trkpt lat="42.5997100" lon="-8.6428700">
        <ele>59.6</ele>
        <time>2022-06-18T15:58:35Z</time>
      </trkpt>
      <trkpt lat="42.5997880" lon="-8.6428600">
        <ele>59.6</ele>
        <time>2022-06-18T15:58:36Z</time>
      </trkpt>
      <trkpt lat="42.5998660" lon="-8.6428450">
        <ele>59.6</ele>
        <time>2022-06-18T15:58:37Z</time>
      </trkpt>
      <trkpt lat="42.5999460" lon="-8.6428330">
        <ele>58.6</ele>
        <time>2022-06-18T15:58:38Z</time>
      </trkpt>
      <trkpt lat="42.6000260" lon="-8.6428230">
        <ele>58.6</ele>
        <time>2022-06-18T15:58:39Z</time>
      </trkpt>
      <trkpt lat="42.6001080" lon="-8.6428130">
        <ele>58.6</ele>
        <time>2022-06-18T15:58:40Z</time>
      </trkpt>
      <trkpt lat="42.6001880" lon="-8.6428010">
        <ele>58.6</ele>
        <time>2022-06-18T15:58:41Z</time>
      </trkpt>
      <trkpt lat="42.6002700" lon="-8.6427900">
        <ele>57.6</ele>
        <time>2022-06-18T15:58:42Z</time>
      </trkpt>
      <trkpt lat="42.6003510" lon="-8.6427780">
        <ele>56.4</ele>
        <time>2022-06-18T15:58:43Z</time>
      </trkpt>
      <trkpt lat="42.6004310" lon="-8.6427660">
        <ele>56.4</ele>
        <time>2022-06-18T15:58:44Z</time>
      </trkpt>
      <trkpt lat="42.6005110" lon="-8.6427550">
        <ele>56.4</ele>
        <time>2022-06-18T15:58:45Z</time>
      </trkpt>
      <trkpt lat="42.6005910" lon="-8.6427430">
        <ele>55.4</ele>
        <time>2022-06-18T15:58:46Z</time>
      </trkpt>
      <trkpt lat="42.6006650" lon="-8.6427460">
        <ele>54.8</ele>
        <time>2022-06-18T15:58:47Z</time>
      </trkpt>
      <trkpt lat="42.6007460" lon="-8.6427410">
        <ele>54.8</ele>
        <time>2022-06-18T15:58:48Z</time>
      </trkpt>
      <trkpt lat="42.6008260" lon="-8.6427350">
        <ele>54.8</ele>
        <time>2022-06-18T15:58:49Z</time>
      </trkpt>
      <trkpt lat="42.6009080" lon="-8.6427280">
        <ele>53.8</ele>
        <time>2022-06-18T15:58:50Z</time>
      </trkpt>
      <trkpt lat="42.6009930" lon="-8.6427150">
        <ele>52.6</ele>
        <time>2022-06-18T15:58:51Z</time>
      </trkpt>
      <trkpt lat="42.6010800" lon="-8.6427010">
        <ele>52.6</ele>
        <time>2022-06-18T15:58:52Z</time>
      </trkpt>
      <trkpt lat="42.6011680" lon="-8.6426880">
        <ele>52.6</ele>
        <time>2022-06-18T15:58:53Z</time>
      </trkpt>
      <trkpt lat="42.6012510" lon="-8.6426810">
        <ele>51.6</ele>
        <time>2022-06-18T15:58:54Z</time>
      </trkpt>
      <trkpt lat="42.6013360" lon="-8.6426700">
        <ele>49.8</ele>
        <time>2022-06-18T15:58:55Z</time>
      </trkpt>
      <trkpt lat="42.6014200" lon="-8.6426580">
        <ele>49.8</ele>
        <time>2022-06-18T15:58:56Z</time>
      </trkpt>
      <trkpt lat="42.6015030" lon="-8.6426600">
        <ele>49.8</ele>
        <time>2022-06-18T15:58:57Z</time>
      </trkpt>
      <trkpt lat="42.6015880" lon="-8.6426530">
        <ele>50.8</ele>
        <time>2022-06-18T15:58:58Z</time>
      </trkpt>
      <trkpt lat="42.6016780" lon="-8.6426260">
        <ele>51.6</ele>
        <time>2022-06-18T15:58:59Z</time>
      </trkpt>
      <trkpt lat="42.6017650" lon="-8.6426000">
        <ele>51.6</ele>
        <time>2022-06-18T15:59:00Z</time>
      </trkpt>
      <trkpt lat="42.6018580" lon="-8.6425700">
        <ele>51.6</ele>
        <time>2022-06-18T15:59:01Z</time>
      </trkpt>
      <trkpt lat="42.6019400" lon="-8.6425610">
        <ele>51.6</ele>
        <time>2022-06-18T15:59:02Z</time>
      </trkpt>
      <trkpt lat="42.6020200" lon="-8.6425560">
        <ele>49.2</ele>
        <time>2022-06-18T15:59:03Z</time>
      </trkpt>
      <trkpt lat="42.6021010" lon="-8.6425350">
        <ele>49.2</ele>
        <time>2022-06-18T15:59:04Z</time>
      </trkpt>
      <trkpt lat="42.6021810" lon="-8.6425080">
        <ele>49.2</ele>
        <time>2022-06-18T15:59:05Z</time>
      </trkpt>
      <trkpt lat="42.6022600" lon="-8.6424750">
        <ele>49.2</ele>
        <time>2022-06-18T15:59:06Z</time>
      </trkpt>
      <trkpt lat="42.6023310" lon="-8.6424580">
        <ele>49.8</ele>
        <time>2022-06-18T15:59:07Z</time>
      </trkpt>
      <trkpt lat="42.6023930" lon="-8.6424500">
        <ele>49.8</ele>
        <time>2022-06-18T15:59:08Z</time>
      </trkpt>
      <trkpt lat="42.6024550" lon="-8.6424450">
        <ele>49.8</ele>
        <time>2022-06-18T15:59:09Z</time>
      </trkpt>
      <trkpt lat="42.6025160" lon="-8.6424460">
        <ele>50.8</ele>
        <time>2022-06-18T15:59:10Z</time>
      </trkpt>
      <trkpt lat="42.6025680" lon="-8.6424460">
        <ele>53.6</ele>
        <time>2022-06-18T15:59:11Z</time>
      </trkpt>
      <trkpt lat="42.6026050" lon="-8.6424510">
        <ele>53.6</ele>
        <time>2022-06-18T15:59:12Z</time>
      </trkpt>
      <trkpt lat="42.6026250" lon="-8.6424550">
        <ele>53.6</ele>
        <time>2022-06-18T15:59:13Z</time>
      </trkpt>
      <trkpt lat="42.6026350" lon="-8.6424550">
        <ele>53.6</ele>
        <time>2022-06-18T15:59:14Z</time>
      </trkpt>
      <trkpt lat="42.6026350" lon="-8.6424550">
        <ele>54.2</ele>
        <time>2022-06-18T15:59:15Z</time>
      </trkpt>
      <trkpt lat="42.6028300" lon="-8.6424450">
        <ele>54.4</ele>
        <time>2022-06-18T16:00:05Z</time>
      </trkpt>
      <trkpt lat="42.6028600" lon="-8.6424410">
        <ele>54.4</ele>
        <time>2022-06-18T16:00:06Z</time>
      </trkpt>
      <trkpt lat="42.6028900" lon="-8.6424350">
        <ele>53.6</ele>
        <time>2022-06-18T16:00:07Z</time>
      </trkpt>
      <trkpt lat="42.6029160" lon="-8.6424310">
        <ele>53.8</ele>
        <time>2022-06-18T16:00:08Z</time>
      </trkpt>
      <trkpt lat="42.6029450" lon="-8.6424250">
        <ele>53.8</ele>
        <time>2022-06-18T16:00:09Z</time>
      </trkpt>
      <trkpt lat="42.6029760" lon="-8.6424180">
        <ele>53.8</ele>
        <time>2022-06-18T16:00:10Z</time>
      </trkpt>
      <trkpt lat="42.6030080" lon="-8.6424130">
        <ele>54.2</ele>
        <time>2022-06-18T16:00:11Z</time>
      </trkpt>
      <trkpt lat="42.6030380" lon="-8.6424130">
        <ele>53.8</ele>
        <time>2022-06-18T16:00:12Z</time>
      </trkpt>
      <trkpt lat="42.6030680" lon="-8.6424130">
        <ele>53.8</ele>
        <time>2022-06-18T16:00:13Z</time>
      </trkpt>
      <trkpt lat="42.6030980" lon="-8.6424080">
        <ele>53.8</ele>
        <time>2022-06-18T16:00:14Z</time>
      </trkpt>
      <trkpt lat="42.6031250" lon="-8.6424010">
        <ele>54.0</ele>
        <time>2022-06-18T16:00:15Z</time>
      </trkpt>
      <trkpt lat="42.6031510" lon="-8.6423960">
        <ele>54.0</ele>
        <time>2022-06-18T16:00:16Z</time>
      </trkpt>
      <trkpt lat="42.6031830" lon="-8.6423910">
        <ele>54.0</ele>
        <time>2022-06-18T16:00:17Z</time>
      </trkpt>
      <trkpt lat="42.6032180" lon="-8.6423880">
        <ele>54.0</ele>
        <time>2022-06-18T16:00:18Z</time>
      </trkpt>
      <trkpt lat="42.6032560" lon="-8.6423810">
        <ele>53.0</ele>
        <time>2022-06-18T16:00:19Z</time>
      </trkpt>
      <trkpt lat="42.6032950" lon="-8.6423700">
        <ele>53.2</ele>
        <time>2022-06-18T16:00:20Z</time>
      </trkpt>
      <trkpt lat="42.6033300" lon="-8.6423580">
        <ele>53.2</ele>
        <time>2022-06-18T16:00:21Z</time>
      </trkpt>
      <trkpt lat="42.6033700" lon="-8.6423480">
        <ele>53.2</ele>
        <time>2022-06-18T16:00:22Z</time>
      </trkpt>
      <trkpt lat="42.6034060" lon="-8.6423400">
        <ele>52.8</ele>
        <time>2022-06-18T16:00:23Z</time>
      </trkpt>
      <trkpt lat="42.6034400" lon="-8.6423280">
        <ele>53.0</ele>
        <time>2022-06-18T16:00:24Z</time>
      </trkpt>
      <trkpt lat="42.6034660" lon="-8.6423130">
        <ele>53.0</ele>
        <time>2022-06-18T16:00:25Z</time>
      </trkpt>
      <trkpt lat="42.6034950" lon="-8.6422950">
        <ele>53.0</ele>
        <time>2022-06-18T16:00:26Z</time>
      </trkpt>
      <trkpt lat="42.6035210" lon="-8.6422800">
        <ele>52.6</ele>
        <time>2022-06-18T16:00:27Z</time>
      </trkpt>
      <trkpt lat="42.6035210" lon="-8.6422800">
        <ele>53.0</ele>
        <time>2022-06-18T16:00:28Z</time>
      </trkpt>
      <trkpt lat="42.6035710" lon="-8.6422560">
        <ele>53.0</ele>
        <time>2022-06-18T16:00:29Z</time>
      </trkpt>
      <trkpt lat="42.6035810" lon="-8.6422540">
        <ele>53.0</ele>
        <time>2022-06-18T16:00:30Z</time>
      </trkpt>
      <trkpt lat="42.6035910" lon="-8.6422520">
        <ele>53.0</ele>
        <time>2022-06-18T16:00:31Z</time>
      </trkpt>
      <trkpt lat="42.6036010" lon="-8.6422500">
        <ele>52.4</ele>
        <time>2022-06-18T16:00:32Z</time>
      </trkpt>
      <trkpt lat="42.6036100" lon="-8.6422480">
        <ele>53.2</ele>
        <time>2022-06-18T16:00:48Z</time>
      </trkpt>
      <trkpt lat="42.6036200" lon="-8.6422460">
        <ele>53.2</ele>
        <time>2022-06-18T16:00:49Z</time>
      </trkpt>
      <trkpt lat="42.6036300" lon="-8.6422440">
        <ele>53.2</ele>
        <time>2022-06-18T16:00:50Z</time>
      </trkpt>
      <trkpt lat="42.6036400" lon="-8.6422420">
        <ele>53.6</ele>
        <time>2022-06-18T16:00:51Z</time>
      </trkpt>
      <trkpt lat="42.6036500" lon="-8.6422400">
        <ele>53.8</ele>
        <time>2022-06-18T16:00:52Z</time>
      </trkpt>
      <trkpt lat="42.6036810" lon="-8.6422110">
        <ele>53.8</ele>
        <time>2022-06-18T16:00:53Z</time>
      </trkpt>
      <trkpt lat="42.6036930" lon="-8.6421980">
        <ele>53.8</ele>
        <time>2022-06-18T16:00:54Z</time>
      </trkpt>
      <trkpt lat="42.6036910" lon="-8.6421700">
        <ele>53.8</ele>
        <time>2022-06-18T16:00:55Z</time>
      </trkpt>
      <trkpt lat="42.6037110" lon="-8.6421580">
        <ele>54.2</ele>
        <time>2022-06-18T16:00:56Z</time>
      </trkpt>
      <trkpt lat="42.6037310" lon="-8.6421460">
        <ele>54.2</ele>
        <time>2022-06-18T16:00:57Z</time>
      </trkpt>
      <trkpt lat="42.6037450" lon="-8.6421350">
        <ele>54.2</ele>
        <time>2022-06-18T16:00:58Z</time>
      </trkpt>
      <trkpt lat="42.6037600" lon="-8.6421230">
        <ele>53.8</ele>
        <time>2022-06-18T16:00:59Z</time>
      </trkpt>
      <trkpt lat="42.6037700" lon="-8.6421100">
        <ele>54.4</ele>
        <time>2022-06-18T16:01:00Z</time>
      </trkpt>
      <trkpt lat="42.6037700" lon="-8.6421100">
        <ele>54.4</ele>
        <time>2022-06-18T16:01:01Z</time>
      </trkpt>
      <trkpt lat="42.6037700" lon="-8.6421100">
        <ele>54.4</ele>
        <time>2022-06-18T16:01:02Z</time>
      </trkpt>
      <trkpt lat="42.6037830" lon="-8.6420630">
        <ele>54.4</ele>
        <time>2022-06-18T16:01:03Z</time>
      </trkpt>
      <trkpt lat="42.6037830" lon="-8.6420630">
        <ele>54.4</ele>
        <time>2022-06-18T16:01:04Z</time>
      </trkpt>
      <trkpt lat="42.6037880" lon="-8.6420360">
        <ele>54.4</ele>
        <time>2022-06-18T16:01:05Z</time>
      </trkpt>
      <trkpt lat="42.6037930" lon="-8.6420260">
        <ele>54.4</ele>
        <time>2022-06-18T16:01:06Z</time>
      </trkpt>
      <trkpt lat="42.6037930" lon="-8.6420180">
        <ele>54.4</ele>
        <time>2022-06-18T16:01:07Z</time>
      </trkpt>
      <trkpt lat="42.6037960" lon="-8.6420150">
        <ele>54.6</ele>
        <time>2022-06-18T16:01:08Z</time>
      </trkpt>
      <trkpt lat="42.6037980" lon="-8.6420060">
        <ele>54.6</ele>
        <time>2022-06-18T16:01:09Z</time>
      </trkpt>
      <trkpt lat="42.6037980" lon="-8.6420010">
        <ele>54.6</ele>
        <time>2022-06-18T16:01:10Z</time>
      </trkpt>
      <trkpt lat="42.6037980" lon="-8.6420010">
        <ele>54.6</ele>
        <time>2022-06-18T16:01:11Z</time>
      </trkpt>
      <trkpt lat="42.6038030" lon="-8.6419000">
        <ele>54.4</ele>
        <time>2022-06-18T16:04:46Z</time>
      </trkpt>
      <trkpt lat="42.6038160" lon="-8.6419060">
        <ele>54.4</ele>
        <time>2022-06-18T16:04:47Z</time>
      </trkpt>
      <trkpt lat="42.6038310" lon="-8.6419130">
        <ele>55.0</ele>
        <time>2022-06-18T16:04:48Z</time>
      </trkpt>
      <trkpt lat="42.6038360" lon="-8.6419200">
        <ele>55.0</ele>
        <time>2022-06-18T16:04:49Z</time>
      </trkpt>
      <trkpt lat="42.6038460" lon="-8.6419230">
        <ele>55.0</ele>
        <time>2022-06-18T16:04:50Z</time>
      </trkpt>
      <trkpt lat="42.6038610" lon="-8.6419210">
        <ele>55.0</ele>
        <time>2022-06-18T16:04:51Z</time>
      </trkpt>
      <trkpt lat="42.6038730" lon="-8.6419230">
        <ele>55.2</ele>
        <time>2022-06-18T16:04:52Z</time>
      </trkpt>
      <trkpt lat="42.6038830" lon="-8.6419310">
        <ele>55.2</ele>
        <time>2022-06-18T16:04:53Z</time>
      </trkpt>
      <trkpt lat="42.6038950" lon="-8.6419400">
        <ele>55.2</ele>
        <time>2022-06-18T16:04:54Z</time>
      </trkpt>
      <trkpt lat="42.6039200" lon="-8.6419760">
        <ele>55.2</ele>
        <time>2022-06-18T16:04:55Z</time>
      </trkpt>
      <trkpt lat="42.6039400" lon="-8.6419910">
        <ele>55.4</ele>
        <time>2022-06-18T16:04:56Z</time>
      </trkpt>
      <trkpt lat="42.6039560" lon="-8.6419860">
        <ele>55.4</ele>
        <time>2022-06-18T16:04:57Z</time>
      </trkpt>
      <trkpt lat="42.6039700" lon="-8.6419810">
        <ele>55.4</ele>
        <time>2022-06-18T16:04:58Z</time>
      </trkpt>
      <trkpt lat="42.6039880" lon="-8.6419810">
        <ele>55.0</ele>
        <time>2022-06-18T16:04:59Z</time>
      </trkpt>
      <trkpt lat="42.6040030" lon="-8.6419860">
        <ele>55.4</ele>
        <time>2022-06-18T16:05:00Z</time>
      </trkpt>
      <trkpt lat="42.6040180" lon="-8.6419850">
        <ele>55.4</ele>
        <time>2022-06-18T16:05:01Z</time>
      </trkpt>
      <trkpt lat="42.6040330" lon="-8.6419860">
        <ele>55.4</ele>
        <time>2022-06-18T16:05:02Z</time>
      </trkpt>
      <trkpt lat="42.6040450" lon="-8.6419900">
        <ele>55.4</ele>
        <time>2022-06-18T16:05:03Z</time>
      </trkpt>
      <trkpt lat="42.6040610" lon="-8.6420010">
        <ele>55.4</ele>
        <time>2022-06-18T16:05:04Z</time>
      </trkpt>
      <trkpt lat="42.6040730" lon="-8.6420010">
        <ele>55.4</ele>
        <time>2022-06-18T16:05:05Z</time>
      </trkpt>
      <trkpt lat="42.6040850" lon="-8.6420010">
        <ele>55.4</ele>
        <time>2022-06-18T16:05:06Z</time>
      </trkpt>
      <trkpt lat="42.6040930" lon="-8.6420010">
        <ele>55.4</ele>
        <time>2022-06-18T16:05:07Z</time>
      </trkpt>
      <trkpt lat="42.6041000" lon="-8.6420110">
        <ele>55.6</ele>
        <time>2022-06-18T16:05:08Z</time>
      </trkpt>
      <trkpt lat="42.6041050" lon="-8.6420210">
        <ele>55.6</ele>
        <time>2022-06-18T16:05:09Z</time>
      </trkpt>
      <trkpt lat="42.6041100" lon="-8.6420310">
        <ele>55.6</ele>
        <time>2022-06-18T16:05:10Z</time>
      </trkpt>
      <trkpt lat="42.6041100" lon="-8.6420310">
        <ele>55.6</ele>
        <time>2022-06-18T16:05:11Z</time>
      </trkpt>
      <trkpt lat="42.6041100" lon="-8.6420310">
        <ele>55.4</ele>
        <time>2022-06-18T16:05:12Z</time>
      </trkpt>
      <trkpt lat="42.6041530" lon="-8.6420830">
        <ele>55.0</ele>
        <time>2022-06-18T16:05:17Z</time>
      </trkpt>
      <trkpt lat="42.6041630" lon="-8.6420850">
        <ele>55.0</ele>
        <time>2022-06-18T16:05:18Z</time>
      </trkpt>
      <trkpt lat="42.6041860" lon="-8.6420880">
        <ele>55.0</ele>
        <time>2022-06-18T16:05:19Z</time>
      </trkpt>
      <trkpt lat="42.6042160" lon="-8.6420930">
        <ele>54.8</ele>
        <time>2022-06-18T16:05:20Z</time>
      </trkpt>
      <trkpt lat="42.6042500" lon="-8.6421000">
        <ele>54.8</ele>
        <time>2022-06-18T16:05:21Z</time>
      </trkpt>
      <trkpt lat="42.6042830" lon="-8.6421250">
        <ele>54.8</ele>
        <time>2022-06-18T16:05:22Z</time>
      </trkpt>
      <trkpt lat="42.6043200" lon="-8.6421510">
        <ele>54.4</ele>
        <time>2022-06-18T16:05:23Z</time>
      </trkpt>
      <trkpt lat="42.6043560" lon="-8.6421780">
        <ele>54.4</ele>
        <time>2022-06-18T16:05:24Z</time>
      </trkpt>
      <trkpt lat="42.6043950" lon="-8.6421950">
        <ele>54.4</ele>
        <time>2022-06-18T16:05:25Z</time>
      </trkpt>
      <trkpt lat="42.6044280" lon="-8.6422050">
        <ele>54.4</ele>
        <time>2022-06-18T16:05:26Z</time>
      </trkpt>
      <trkpt lat="42.6044550" lon="-8.6422160">
        <ele>54.8</ele>
        <time>2022-06-18T16:05:27Z</time>
      </trkpt>
      <trkpt lat="42.6044860" lon="-8.6422230">
        <ele>54.6</ele>
        <time>2022-06-18T16:05:28Z</time>
      </trkpt>
      <trkpt lat="42.6045150" lon="-8.6422350">
        <ele>54.6</ele>
        <time>2022-06-18T16:05:29Z</time>
      </trkpt>
      <trkpt lat="42.6045360" lon="-8.6422530">
        <ele>54.6</ele>
        <time>2022-06-18T16:05:30Z</time>
      </trkpt>
      <trkpt lat="42.6045600" lon="-8.6422760">
        <ele>54.6</ele>
        <time>2022-06-18T16:05:31Z</time>
      </trkpt>
      <trkpt lat="42.6045810" lon="-8.6423000">
        <ele>54.6</ele>
        <time>2022-06-18T16:05:32Z</time>
      </trkpt>
      <trkpt lat="42.6046030" lon="-8.6423210">
        <ele>54.6</ele>
        <time>2022-06-18T16:05:33Z</time>
      </trkpt>
      <trkpt lat="42.6046160" lon="-8.6423610">
        <ele>54.6</ele>
        <time>2022-06-18T16:05:34Z</time>
      </trkpt>
      <trkpt lat="42.6046330" lon="-8.6423960">
        <ele>54.6</ele>
        <time>2022-06-18T16:05:35Z</time>
      </trkpt>
      <trkpt lat="42.6046510" lon="-8.6424300">
        <ele>54.2</ele>
        <time>2022-06-18T16:05:36Z</time>
      </trkpt>
      <trkpt lat="42.6046660" lon="-8.6424730">
        <ele>54.2</ele>
        <time>2022-06-18T16:05:37Z</time>
      </trkpt>
      <trkpt lat="42.6046880" lon="-8.6425110">
        <ele>54.2</ele>
        <time>2022-06-18T16:05:38Z</time>
      </trkpt>
      <trkpt lat="42.6047100" lon="-8.6425430">
        <ele>54.2</ele>
        <time>2022-06-18T16:05:39Z</time>
      </trkpt>
      <trkpt lat="42.6047260" lon="-8.6425750">
        <ele>53.4</ele>
        <time>2022-06-18T16:05:40Z</time>
      </trkpt>
      <trkpt lat="42.6047380" lon="-8.6426100">
        <ele>53.4</ele>
        <time>2022-06-18T16:05:41Z</time>
      </trkpt>
      <trkpt lat="42.6047560" lon="-8.6426430">
        <ele>53.4</ele>
        <time>2022-06-18T16:05:42Z</time>
      </trkpt>
      <trkpt lat="42.6047850" lon="-8.6426760">
        <ele>53.4</ele>
        <time>2022-06-18T16:05:43Z</time>
      </trkpt>
      <trkpt lat="42.6048180" lon="-8.6427080">
        <ele>53.8</ele>
        <time>2022-06-18T16:05:44Z</time>
      </trkpt>
      <trkpt lat="42.6048500" lon="-8.6427450">
        <ele>53.8</ele>
        <time>2022-06-18T16:05:45Z</time>
      </trkpt>
      <trkpt lat="42.6048780" lon="-8.6427830">
        <ele>53.8</ele>
        <time>2022-06-18T16:05:46Z</time>
      </trkpt>
      <trkpt lat="42.6049130" lon="-8.6428160">
        <ele>54.0</ele>
        <time>2022-06-18T16:05:47Z</time>
      </trkpt>
      <trkpt lat="42.6049460" lon="-8.6428530">
        <ele>54.0</ele>
        <time>2022-06-18T16:05:48Z</time>
      </trkpt>
      <trkpt lat="42.6049780" lon="-8.6428850">
        <ele>54.0</ele>
        <time>2022-06-18T16:05:49Z</time>
      </trkpt>
      <trkpt lat="42.6050060" lon="-8.6429200">
        <ele>54.0</ele>
        <time>2022-06-18T16:05:50Z</time>
      </trkpt>
      <trkpt lat="42.6050360" lon="-8.6429580">
        <ele>54.0</ele>
        <time>2022-06-18T16:05:51Z</time>
      </trkpt>
      <trkpt lat="42.6050660" lon="-8.6429880">
        <ele>53.8</ele>
        <time>2022-06-18T16:05:52Z</time>
      </trkpt>
      <trkpt lat="42.6050960" lon="-8.6430210">
        <ele>53.8</ele>
        <time>2022-06-18T16:05:53Z</time>
      </trkpt>
      <trkpt lat="42.6051260" lon="-8.6430530">
        <ele>53.8</ele>
        <time>2022-06-18T16:05:54Z</time>
      </trkpt>
      <trkpt lat="42.6051560" lon="-8.6430830">
        <ele>53.8</ele>
        <time>2022-06-18T16:05:55Z</time>
      </trkpt>
      <trkpt lat="42.6051800" lon="-8.6431060">
        <ele>54.2</ele>
        <time>2022-06-18T16:05:56Z</time>
      </trkpt>
      <trkpt lat="42.6052080" lon="-8.6431300">
        <ele>54.2</ele>
        <time>2022-06-18T16:05:57Z</time>
      </trkpt>
      <trkpt lat="42.6052480" lon="-8.6431450">
        <ele>54.2</ele>
        <time>2022-06-18T16:05:58Z</time>
      </trkpt>
      <trkpt lat="42.6052960" lon="-8.6431700">
        <ele>54.2</ele>
        <time>2022-06-18T16:05:59Z</time>
      </trkpt>
      <trkpt lat="42.6053260" lon="-8.6431950">
        <ele>54.6</ele>
        <time>2022-06-18T16:06:00Z</time>
      </trkpt>
      <trkpt lat="42.6053560" lon="-8.6432200">
        <ele>54.6</ele>
        <time>2022-06-18T16:06:01Z</time>
      </trkpt>
      <trkpt lat="42.6053810" lon="-8.6432510">
        <ele>54.6</ele>
        <time>2022-06-18T16:06:02Z</time>
      </trkpt>
      <trkpt lat="42.6053810" lon="-8.6433060">
        <ele>54.6</ele>
        <time>2022-06-18T16:06:03Z</time>
      </trkpt>
      <trkpt lat="42.6053700" lon="-8.6433630">
        <ele>53.2</ele>
        <time>2022-06-18T16:06:04Z</time>
      </trkpt>
      <trkpt lat="42.6053530" lon="-8.6434080">
        <ele>53.2</ele>
        <time>2022-06-18T16:06:05Z</time>
      </trkpt>
      <trkpt lat="42.6053350" lon="-8.6434500">
        <ele>53.2</ele>
        <time>2022-06-18T16:06:06Z</time>
      </trkpt>
      <trkpt lat="42.6053110" lon="-8.6435000">
        <ele>53.0</ele>
        <time>2022-06-18T16:06:07Z</time>
      </trkpt>
      <trkpt lat="42.6052860" lon="-8.6435460">
        <ele>52.4</ele>
        <time>2022-06-18T16:06:08Z</time>
      </trkpt>
      <trkpt lat="42.6052650" lon="-8.6435910">
        <ele>52.4</ele>
        <time>2022-06-18T16:06:09Z</time>
      </trkpt>
      <trkpt lat="42.6052430" lon="-8.6436350">
        <ele>52.4</ele>
        <time>2022-06-18T16:06:10Z</time>
      </trkpt>
      <trkpt lat="42.6052230" lon="-8.6436750">
        <ele>52.0</ele>
        <time>2022-06-18T16:06:11Z</time>
      </trkpt>
      <trkpt lat="42.6051980" lon="-8.6437100">
        <ele>51.8</ele>
        <time>2022-06-18T16:06:12Z</time>
      </trkpt>
      <trkpt lat="42.6051760" lon="-8.6437500">
        <ele>51.8</ele>
        <time>2022-06-18T16:06:13Z</time>
      </trkpt>
      <trkpt lat="42.6051510" lon="-8.6438050">
        <ele>51.8</ele>
        <time>2022-06-18T16:06:14Z</time>
      </trkpt>
      <trkpt lat="42.6051330" lon="-8.6438550">
        <ele>52.4</ele>
        <time>2022-06-18T16:06:15Z</time>
      </trkpt>
      <trkpt lat="42.6051130" lon="-8.6438980">
        <ele>52.4</ele>
        <time>2022-06-18T16:06:16Z</time>
      </trkpt>
      <trkpt lat="42.6050950" lon="-8.6439410">
        <ele>52.4</ele>
        <time>2022-06-18T16:06:17Z</time>
      </trkpt>
      <trkpt lat="42.6050810" lon="-8.6439800">
        <ele>52.4</ele>
        <time>2022-06-18T16:06:18Z</time>
      </trkpt>
      <trkpt lat="42.6050750" lon="-8.6440100">
        <ele>52.4</ele>
        <time>2022-06-18T16:06:19Z</time>
      </trkpt>
      <trkpt lat="42.6050630" lon="-8.6440380">
        <ele>52.4</ele>
        <time>2022-06-18T16:06:20Z</time>
      </trkpt>
      <trkpt lat="42.6050510" lon="-8.6440580">
        <ele>52.4</ele>
        <time>2022-06-18T16:06:21Z</time>
      </trkpt>
      <trkpt lat="42.6050460" lon="-8.6440730">
        <ele>52.4</ele>
        <time>2022-06-18T16:06:22Z</time>
      </trkpt>
      <trkpt lat="42.6050480" lon="-8.6440880">
        <ele>52.4</ele>
        <time>2022-06-18T16:06:23Z</time>
      </trkpt>
      <trkpt lat="42.6050630" lon="-8.6441250">
        <ele>52.4</ele>
        <time>2022-06-18T16:06:24Z</time>
      </trkpt>
      <trkpt lat="42.6050710" lon="-8.6441510">
        <ele>52.4</ele>
        <time>2022-06-18T16:06:25Z</time>
      </trkpt>
      <trkpt lat="42.6050810" lon="-8.6441730">
        <ele>52.4</ele>
        <time>2022-06-18T16:06:26Z</time>
      </trkpt>
      <trkpt lat="42.6050860" lon="-8.6441850">
        <ele>52.4</ele>
        <time>2022-06-18T16:06:27Z</time>
      </trkpt>
      <trkpt lat="42.6050880" lon="-8.6441910">
        <ele>52.2</ele>
        <time>2022-06-18T16:06:28Z</time>
      </trkpt>
      <trkpt lat="42.6050880" lon="-8.6441910">
        <ele>52.2</ele>
        <time>2022-06-18T16:06:29Z</time>
      </trkpt>
      <trkpt lat="42.6050710" lon="-8.6442680">
        <ele>52.4</ele>
        <time>2022-06-18T16:07:04Z</time>
      </trkpt>
      <trkpt lat="42.6050850" lon="-8.6442810">
        <ele>52.4</ele>
        <time>2022-06-18T16:07:05Z</time>
      </trkpt>
      <trkpt lat="42.6050900" lon="-8.6443100">
        <ele>52.4</ele>
        <time>2022-06-18T16:07:06Z</time>
      </trkpt>
      <trkpt lat="42.6050930" lon="-8.6443360">
        <ele>52.0</ele>
        <time>2022-06-18T16:07:07Z</time>
      </trkpt>
      <trkpt lat="42.6051030" lon="-8.6443630">
        <ele>52.2</ele>
        <time>2022-06-18T16:07:08Z</time>
      </trkpt>
      <trkpt lat="42.6051030" lon="-8.6443630">
        <ele>52.2</ele>
        <time>2022-06-18T16:07:09Z</time>
      </trkpt>
      <trkpt lat="42.6051300" lon="-8.6443950">
        <ele>52.2</ele>
        <time>2022-06-18T16:07:10Z</time>
      </trkpt>
      <trkpt lat="42.6051410" lon="-8.6444080">
        <ele>52.2</ele>
        <time>2022-06-18T16:07:11Z</time>
      </trkpt>
      <trkpt lat="42.6051580" lon="-8.6444180">
        <ele>52.2</ele>
        <time>2022-06-18T16:07:12Z</time>
      </trkpt>
      <trkpt lat="42.6051710" lon="-8.6444230">
        <ele>52.2</ele>
        <time>2022-06-18T16:07:13Z</time>
      </trkpt>
      <trkpt lat="42.6051800" lon="-8.6444260">
        <ele>52.2</ele>
        <time>2022-06-18T16:07:14Z</time>
      </trkpt>
      <trkpt lat="42.6051800" lon="-8.6444260">
        <ele>52.2</ele>
        <time>2022-06-18T16:07:15Z</time>
      </trkpt>
      <trkpt lat="42.6051980" lon="-8.6444360">
        <ele>52.2</ele>
        <time>2022-06-18T16:07:16Z</time>
      </trkpt>
      <trkpt lat="42.6052150" lon="-8.6444450">
        <ele>52.2</ele>
        <time>2022-06-18T16:07:17Z</time>
      </trkpt>
      <trkpt lat="42.6052280" lon="-8.6444600">
        <ele>52.2</ele>
        <time>2022-06-18T16:07:18Z</time>
      </trkpt>
      <trkpt lat="42.6052400" lon="-8.6444830">
        <ele>52.2</ele>
        <time>2022-06-18T16:07:19Z</time>
      </trkpt>
      <trkpt lat="42.6052550" lon="-8.6444980">
        <ele>52.4</ele>
        <time>2022-06-18T16:07:20Z</time>
      </trkpt>
      <trkpt lat="42.6052700" lon="-8.6445150">
        <ele>52.4</ele>
        <time>2022-06-18T16:07:21Z</time>
      </trkpt>
      <trkpt lat="42.6052850" lon="-8.6445230">
        <ele>52.4</ele>
        <time>2022-06-18T16:07:22Z</time>
      </trkpt>
      <trkpt lat="42.6052850" lon="-8.6445230">
        <ele>53.0</ele>
        <time>2022-06-18T16:07:23Z</time>
      </trkpt>
      <trkpt lat="42.6053130" lon="-8.6445410">
        <ele>53.0</ele>
        <time>2022-06-18T16:07:24Z</time>
      </trkpt>
      <trkpt lat="42.6053130" lon="-8.6445480">
        <ele>53.0</ele>
        <time>2022-06-18T16:07:25Z</time>
      </trkpt>
      <trkpt lat="42.6053130" lon="-8.6445480">
        <ele>53.0</ele>
        <time>2022-06-18T16:07:26Z</time>
      </trkpt>
      <trkpt lat="42.6059700" lon="-8.6451200">
        <ele>25.0</ele>
        <time>2022-06-19T06:17:52Z</time>
      </trkpt>
      <trkpt lat="42.6059700" lon="-8.6451200">
        <ele>25.0</ele>
        <time>2022-06-19T06:17:53Z</time>
      </trkpt>
      <trkpt lat="42.6059700" lon="-8.6451200">
        <ele>25.6</ele>
        <time>2022-06-19T06:17:54Z</time>
      </trkpt>
      <trkpt lat="42.6060200" lon="-8.6451780">
        <ele>25.6</ele>
        <time>2022-06-19T06:18:00Z</time>
      </trkpt>
      <trkpt lat="42.6060380" lon="-8.6452130">
        <ele>25.6</ele>
        <time>2022-06-19T06:18:01Z</time>
      </trkpt>
      <trkpt lat="42.6060560" lon="-8.6452280">
        <ele>24.2</ele>
        <time>2022-06-19T06:18:02Z</time>
      </trkpt>
      <trkpt lat="42.6060710" lon="-8.6452410">
        <ele>24.2</ele>
        <time>2022-06-19T06:18:03Z</time>
      </trkpt>
      <trkpt lat="42.6060850" lon="-8.6452610">
        <ele>24.2</ele>
        <time>2022-06-19T06:18:04Z</time>
      </trkpt>
      <trkpt lat="42.6061060" lon="-8.6452860">
        <ele>24.2</ele>
        <time>2022-06-19T06:18:05Z</time>
      </trkpt>
      <trkpt lat="42.6061280" lon="-8.6453010">
        <ele>24.0</ele>
        <time>2022-06-19T06:18:06Z</time>
      </trkpt>
      <trkpt lat="42.6061510" lon="-8.6453180">
        <ele>24.0</ele>
        <time>2022-06-19T06:18:07Z</time>
      </trkpt>
      <trkpt lat="42.6061710" lon="-8.6453350">
        <ele>24.0</ele>
        <time>2022-06-19T06:18:08Z</time>
      </trkpt>
      <trkpt lat="42.6061910" lon="-8.6453510">
        <ele>25.0</ele>
        <time>2022-06-19T06:18:09Z</time>
      </trkpt>
      <trkpt lat="42.6062200" lon="-8.6453650">
        <ele>24.2</ele>
        <time>2022-06-19T06:18:10Z</time>
      </trkpt>
      <trkpt lat="42.6062410" lon="-8.6453780">
        <ele>24.2</ele>
        <time>2022-06-19T06:18:11Z</time>
      </trkpt>
      <trkpt lat="42.6062710" lon="-8.6453850">
        <ele>24.2</ele>
        <time>2022-06-19T06:18:12Z</time>
      </trkpt>
      <trkpt lat="42.6063010" lon="-8.6453860">
        <ele>25.2</ele>
        <time>2022-06-19T06:18:13Z</time>
      </trkpt>
      <trkpt lat="42.6063280" lon="-8.6454000">
        <ele>24.8</ele>
        <time>2022-06-19T06:18:14Z</time>
      </trkpt>
      <trkpt lat="42.6063580" lon="-8.6454250">
        <ele>24.8</ele>
        <time>2022-06-19T06:18:15Z</time>
      </trkpt>
      <trkpt lat="42.6063810" lon="-8.6454350">
        <ele>24.8</ele>
        <time>2022-06-19T06:18:16Z</time>
      </trkpt>
      <trkpt lat="42.6064030" lon="-8.6454630">
        <ele>25.0</ele>
        <time>2022-06-19T06:18:17Z</time>
      </trkpt>
      <trkpt lat="42.6064210" lon="-8.6454830">
        <ele>25.8</ele>
        <time>2022-06-19T06:18:18Z</time>
      </trkpt>
      <trkpt lat="42.6064430" lon="-8.6455080">
        <ele>25.8</ele>
        <time>2022-06-19T06:18:19Z</time>
      </trkpt>
      <trkpt lat="42.6064650" lon="-8.6455110">
        <ele>25.8</ele>
        <time>2022-06-19T06:18:20Z</time>
      </trkpt>
      <trkpt lat="42.6064910" lon="-8.6455210">
        <ele>25.2</ele>
        <time>2022-06-19T06:18:21Z</time>
      </trkpt>
      <trkpt lat="42.6065250" lon="-8.6455230">
        <ele>24.8</ele>
        <time>2022-06-19T06:18:22Z</time>
      </trkpt>
      <trkpt lat="42.6065410" lon="-8.6455000">
        <ele>24.8</ele>
        <time>2022-06-19T06:18:23Z</time>
      </trkpt>
      <trkpt lat="42.6065580" lon="-8.6454830">
        <ele>24.8</ele>
        <time>2022-06-19T06:18:24Z</time>
      </trkpt>
      <trkpt lat="42.6065710" lon="-8.6454480">
        <ele>24.8</ele>
        <time>2022-06-19T06:18:25Z</time>
      </trkpt>
      <trkpt lat="42.6066010" lon="-8.6454510">
        <ele>25.6</ele>
        <time>2022-06-19T06:18:26Z</time>
      </trkpt>
      <trkpt lat="42.6066230" lon="-8.6454480">
        <ele>25.6</ele>
        <time>2022-06-19T06:18:27Z</time>
      </trkpt>
      <trkpt lat="42.6066580" lon="-8.6454350">
        <ele>25.6</ele>
        <time>2022-06-19T06:18:28Z</time>
      </trkpt>
      <trkpt lat="42.6066910" lon="-8.6454350">
        <ele>25.6</ele>
        <time>2022-06-19T06:18:29Z</time>
      </trkpt>
      <trkpt lat="42.6067130" lon="-8.6454300">
        <ele>25.6</ele>
        <time>2022-06-19T06:18:30Z</time>
      </trkpt>
      <trkpt lat="42.6067410" lon="-8.6454310">
        <ele>25.6</ele>
        <time>2022-06-19T06:18:31Z</time>
      </trkpt>
      <trkpt lat="42.6067710" lon="-8.6454200">
        <ele>25.6</ele>
        <time>2022-06-19T06:18:32Z</time>
      </trkpt>
      <trkpt lat="42.6068260" lon="-8.6454350">
        <ele>25.6</ele>
        <time>2022-06-19T06:18:33Z</time>
      </trkpt>
      <trkpt lat="42.6068730" lon="-8.6454280">
        <ele>26.0</ele>
        <time>2022-06-19T06:18:34Z</time>
      </trkpt>
      <trkpt lat="42.6069050" lon="-8.6454300">
        <ele>26.0</ele>
        <time>2022-06-19T06:18:35Z</time>
      </trkpt>
      <trkpt lat="42.6069330" lon="-8.6454260">
        <ele>26.0</ele>
        <time>2022-06-19T06:18:36Z</time>
      </trkpt>
      <trkpt lat="42.6069600" lon="-8.6454230">
        <ele>26.0</ele>
        <time>2022-06-19T06:18:37Z</time>
      </trkpt>
      <trkpt lat="42.6069850" lon="-8.6454260">
        <ele>25.6</ele>
        <time>2022-06-19T06:18:38Z</time>
      </trkpt>
      <trkpt lat="42.6070110" lon="-8.6454230">
        <ele>25.6</ele>
        <time>2022-06-19T06:18:39Z</time>
      </trkpt>
      <trkpt lat="42.6070330" lon="-8.6454130">
        <ele>25.6</ele>
        <time>2022-06-19T06:18:40Z</time>
      </trkpt>
      <trkpt lat="42.6070610" lon="-8.6454110">
        <ele>25.6</ele>
        <time>2022-06-19T06:18:41Z</time>
      </trkpt>
      <trkpt lat="42.6070830" lon="-8.6454030">
        <ele>26.8</ele>
        <time>2022-06-19T06:18:42Z</time>
      </trkpt>
      <trkpt lat="42.6071030" lon="-8.6453950">
        <ele>26.8</ele>
        <time>2022-06-19T06:18:43Z</time>
      </trkpt>
      <trkpt lat="42.6071250" lon="-8.6453950">
        <ele>26.8</ele>
        <time>2022-06-19T06:18:44Z</time>
      </trkpt>
      <trkpt lat="42.6071510" lon="-8.6453980">
        <ele>26.8</ele>
        <time>2022-06-19T06:18:45Z</time>
      </trkpt>
      <trkpt lat="42.6071780" lon="-8.6454030">
        <ele>26.4</ele>
        <time>2022-06-19T06:18:46Z</time>
      </trkpt>
      <trkpt lat="42.6072010" lon="-8.6454000">
        <ele>26.4</ele>
        <time>2022-06-19T06:18:47Z</time>
      </trkpt>
      <trkpt lat="42.6072230" lon="-8.6453930">
        <ele>26.4</ele>
        <time>2022-06-19T06:18:48Z</time>
      </trkpt>
      <trkpt lat="42.6072510" lon="-8.6454010">
        <ele>26.4</ele>
        <time>2022-06-19T06:18:49Z</time>
      </trkpt>
      <trkpt lat="42.6072780" lon="-8.6454030">
        <ele>26.6</ele>
        <time>2022-06-19T06:18:50Z</time>
      </trkpt>
      <trkpt lat="42.6073060" lon="-8.6454080">
        <ele>26.6</ele>
        <time>2022-06-19T06:18:51Z</time>
      </trkpt>
      <trkpt lat="42.6073210" lon="-8.6454130">
        <ele>26.6</ele>
        <time>2022-06-19T06:18:52Z</time>
      </trkpt>
      <trkpt lat="42.6073480" lon="-8.6454180">
        <ele>26.6</ele>
        <time>2022-06-19T06:18:53Z</time>
      </trkpt>
      <trkpt lat="42.6073730" lon="-8.6454210">
        <ele>27.2</ele>
        <time>2022-06-19T06:18:54Z</time>
      </trkpt>
      <trkpt lat="42.6074030" lon="-8.6454150">
        <ele>27.2</ele>
        <time>2022-06-19T06:18:55Z</time>
      </trkpt>
      <trkpt lat="42.6074300" lon="-8.6454080">
        <ele>27.2</ele>
        <time>2022-06-19T06:18:56Z</time>
      </trkpt>
      <trkpt lat="42.6074580" lon="-8.6454210">
        <ele>27.4</ele>
        <time>2022-06-19T06:18:57Z</time>
      </trkpt>
      <trkpt lat="42.6074860" lon="-8.6454200">
        <ele>27.2</ele>
        <time>2022-06-19T06:18:58Z</time>
      </trkpt>
      <trkpt lat="42.6075060" lon="-8.6454180">
        <ele>27.2</ele>
        <time>2022-06-19T06:18:59Z</time>
      </trkpt>
      <trkpt lat="42.6075300" lon="-8.6454230">
        <ele>27.2</ele>
        <time>2022-06-19T06:19:00Z</time>
      </trkpt>
      <trkpt lat="42.6075510" lon="-8.6454330">
        <ele>27.2</ele>
        <time>2022-06-19T06:19:01Z</time>
      </trkpt>
      <trkpt lat="42.6075760" lon="-8.6454500">
        <ele>26.6</ele>
        <time>2022-06-19T06:19:02Z</time>
      </trkpt>
      <trkpt lat="42.6076030" lon="-8.6454650">
        <ele>26.6</ele>
        <time>2022-06-19T06:19:03Z</time>
      </trkpt>
      <trkpt lat="42.6076260" lon="-8.6454810">
        <ele>26.6</ele>
        <time>2022-06-19T06:19:04Z</time>
      </trkpt>
      <trkpt lat="42.6076460" lon="-8.6454960">
        <ele>26.8</ele>
        <time>2022-06-19T06:19:05Z</time>
      </trkpt>
      <trkpt lat="42.6076660" lon="-8.6455050">
        <ele>27.4</ele>
        <time>2022-06-19T06:19:06Z</time>
      </trkpt>
      <trkpt lat="42.6076860" lon="-8.6455150">
        <ele>27.4</ele>
        <time>2022-06-19T06:19:07Z</time>
      </trkpt>
      <trkpt lat="42.6076860" lon="-8.6455000">
        <ele>27.4</ele>
        <time>2022-06-19T06:19:08Z</time>
      </trkpt>
      <trkpt lat="42.6077080" lon="-8.6455060">
        <ele>27.4</ele>
        <time>2022-06-19T06:19:09Z</time>
      </trkpt>
      <trkpt lat="42.6077650" lon="-8.6455130">
        <ele>28.0</ele>
        <time>2022-06-19T06:19:10Z</time>
      </trkpt>
      <trkpt lat="42.6078100" lon="-8.6455160">
        <ele>28.0</ele>
        <time>2022-06-19T06:19:11Z</time>
      </trkpt>
      <trkpt lat="42.6078460" lon="-8.6455210">
        <ele>28.0</ele>
        <time>2022-06-19T06:19:12Z</time>
      </trkpt>
      <trkpt lat="42.6078880" lon="-8.6455310">
        <ele>28.6</ele>
        <time>2022-06-19T06:19:13Z</time>
      </trkpt>
      <trkpt lat="42.6079200" lon="-8.6455430">
        <ele>28.6</ele>
        <time>2022-06-19T06:19:14Z</time>
      </trkpt>
      <trkpt lat="42.6079510" lon="-8.6455460">
        <ele>28.6</ele>
        <time>2022-06-19T06:19:15Z</time>
      </trkpt>
      <trkpt lat="42.6079800" lon="-8.6455360">
        <ele>28.6</ele>
        <time>2022-06-19T06:19:16Z</time>
      </trkpt>
      <trkpt lat="42.6080030" lon="-8.6455310">
        <ele>28.2</ele>
        <time>2022-06-19T06:19:17Z</time>
      </trkpt>
      <trkpt lat="42.6080230" lon="-8.6455230">
        <ele>28.8</ele>
        <time>2022-06-19T06:19:18Z</time>
      </trkpt>
      <trkpt lat="42.6080410" lon="-8.6455160">
        <ele>28.8</ele>
        <time>2022-06-19T06:19:19Z</time>
      </trkpt>
      <trkpt lat="42.6080680" lon="-8.6454980">
        <ele>28.8</ele>
        <time>2022-06-19T06:19:20Z</time>
      </trkpt>
      <trkpt lat="42.6080880" lon="-8.6454880">
        <ele>28.8</ele>
        <time>2022-06-19T06:19:21Z</time>
      </trkpt>
      <trkpt lat="42.6081130" lon="-8.6454810">
        <ele>28.8</ele>
        <time>2022-06-19T06:19:22Z</time>
      </trkpt>
      <trkpt lat="42.6081330" lon="-8.6454750">
        <ele>28.8</ele>
        <time>2022-06-19T06:19:23Z</time>
      </trkpt>
      <trkpt lat="42.6081460" lon="-8.6454650">
        <ele>28.8</ele>
        <time>2022-06-19T06:19:24Z</time>
      </trkpt>
      <trkpt lat="42.6081530" lon="-8.6454510">
        <ele>29.2</ele>
        <time>2022-06-19T06:19:25Z</time>
      </trkpt>
      <trkpt lat="42.6081700" lon="-8.6454260">
        <ele>29.2</ele>
        <time>2022-06-19T06:19:26Z</time>
      </trkpt>
      <trkpt lat="42.6081710" lon="-8.6454010">
        <ele>29.2</ele>
        <time>2022-06-19T06:19:27Z</time>
      </trkpt>
      <trkpt lat="42.6081810" lon="-8.6453760">
        <ele>29.2</ele>
        <time>2022-06-19T06:19:28Z</time>
      </trkpt>
      <trkpt lat="42.6081830" lon="-8.6453560">
        <ele>29.2</ele>
        <time>2022-06-19T06:19:29Z</time>
      </trkpt>
      <trkpt lat="42.6081810" lon="-8.6453330">
        <ele>29.2</ele>
        <time>2022-06-19T06:19:30Z</time>
      </trkpt>
      <trkpt lat="42.6081710" lon="-8.6453110">
        <ele>29.2</ele>
        <time>2022-06-19T06:19:31Z</time>
      </trkpt>
      <trkpt lat="42.6081700" lon="-8.6452880">
        <ele>29.2</ele>
        <time>2022-06-19T06:19:32Z</time>
      </trkpt>
      <trkpt lat="42.6081680" lon="-8.6452680">
        <ele>29.2</ele>
        <time>2022-06-19T06:19:33Z</time>
      </trkpt>
      <trkpt lat="42.6081650" lon="-8.6452460">
        <ele>29.2</ele>
        <time>2022-06-19T06:19:34Z</time>
      </trkpt>
      <trkpt lat="42.6081730" lon="-8.6452350">
        <ele>29.2</ele>
        <time>2022-06-19T06:19:35Z</time>
      </trkpt>
      <trkpt lat="42.6081760" lon="-8.6452210">
        <ele>29.2</ele>
        <time>2022-06-19T06:19:36Z</time>
      </trkpt>
      <trkpt lat="42.6081780" lon="-8.6452050">
        <ele>29.2</ele>
        <time>2022-06-19T06:19:37Z</time>
      </trkpt>
      <trkpt lat="42.6081900" lon="-8.6451900">
        <ele>29.2</ele>
        <time>2022-06-19T06:19:38Z</time>
      </trkpt>
      <trkpt lat="42.6081980" lon="-8.6451710">
        <ele>29.2</ele>
        <time>2022-06-19T06:19:39Z</time>
      </trkpt>
      <trkpt lat="42.6082080" lon="-8.6451630">
        <ele>29.2</ele>
        <time>2022-06-19T06:19:40Z</time>
      </trkpt>
      <trkpt lat="42.6082250" lon="-8.6451600">
        <ele>29.2</ele>
        <time>2022-06-19T06:19:41Z</time>
      </trkpt>
      <trkpt lat="42.6082450" lon="-8.6451530">
        <ele>29.4</ele>
        <time>2022-06-19T06:19:42Z</time>
      </trkpt>
      <trkpt lat="42.6082630" lon="-8.6451480">
        <ele>29.4</ele>
        <time>2022-06-19T06:19:43Z</time>
      </trkpt>
      <trkpt lat="42.6082800" lon="-8.6451460">
        <ele>29.4</ele>
        <time>2022-06-19T06:19:44Z</time>
      </trkpt>
      <trkpt lat="42.6083010" lon="-8.6451450">
        <ele>29.2</ele>
        <time>2022-06-19T06:19:45Z</time>
      </trkpt>
      <trkpt lat="42.6083180" lon="-8.6451380">
        <ele>29.6</ele>
        <time>2022-06-19T06:19:46Z</time>
      </trkpt>
      <trkpt lat="42.6083350" lon="-8.6451380">
        <ele>29.6</ele>
        <time>2022-06-19T06:19:47Z</time>
      </trkpt>
      <trkpt lat="42.6083450" lon="-8.6451280">
        <ele>29.6</ele>
        <time>2022-06-19T06:19:48Z</time>
      </trkpt>
      <trkpt lat="42.6083550" lon="-8.6451180">
        <ele>29.6</ele>
        <time>2022-06-19T06:19:49Z</time>
      </trkpt>
      <trkpt lat="42.6083850" lon="-8.6451210">
        <ele>29.8</ele>
        <time>2022-06-19T06:19:50Z</time>
      </trkpt>
      <trkpt lat="42.6084080" lon="-8.6451200">
        <ele>29.8</ele>
        <time>2022-06-19T06:19:51Z</time>
      </trkpt>
      <trkpt lat="42.6084250" lon="-8.6451160">
        <ele>29.8</ele>
        <time>2022-06-19T06:19:52Z</time>
      </trkpt>
      <trkpt lat="42.6084460" lon="-8.6451180">
        <ele>29.8</ele>
        <time>2022-06-19T06:19:53Z</time>
      </trkpt>
      <trkpt lat="42.6084710" lon="-8.6451180">
        <ele>30.2</ele>
        <time>2022-06-19T06:19:54Z</time>
      </trkpt>
      <trkpt lat="42.6084910" lon="-8.6451130">
        <ele>30.2</ele>
        <time>2022-06-19T06:19:55Z</time>
      </trkpt>
      <trkpt lat="42.6085130" lon="-8.6451100">
        <ele>30.2</ele>
        <time>2022-06-19T06:19:56Z</time>
      </trkpt>
      <trkpt lat="42.6085330" lon="-8.6451080">
        <ele>30.2</ele>
        <time>2022-06-19T06:19:57Z</time>
      </trkpt>
      <trkpt lat="42.6085550" lon="-8.6451080">
        <ele>30.8</ele>
        <time>2022-06-19T06:19:58Z</time>
      </trkpt>
      <trkpt lat="42.6085760" lon="-8.6451030">
        <ele>30.8</ele>
        <time>2022-06-19T06:19:59Z</time>
      </trkpt>
      <trkpt lat="42.6085900" lon="-8.6450910">
        <ele>30.8</ele>
        <time>2022-06-19T06:20:00Z</time>
      </trkpt>
      <trkpt lat="42.6086150" lon="-8.6450860">
        <ele>30.8</ele>
        <time>2022-06-19T06:20:01Z</time>
      </trkpt>
      <trkpt lat="42.6086310" lon="-8.6450800">
        <ele>30.6</ele>
        <time>2022-06-19T06:20:02Z</time>
      </trkpt>
      <trkpt lat="42.6086480" lon="-8.6450750">
        <ele>30.6</ele>
        <time>2022-06-19T06:20:03Z</time>
      </trkpt>
      <trkpt lat="42.6086660" lon="-8.6450710">
        <ele>30.6</ele>
        <time>2022-06-19T06:20:04Z</time>
      </trkpt>
      <trkpt lat="42.6086930" lon="-8.6450760">
        <ele>31.4</ele>
        <time>2022-06-19T06:20:05Z</time>
      </trkpt>
      <trkpt lat="42.6087110" lon="-8.6450750">
        <ele>31.6</ele>
        <time>2022-06-19T06:20:06Z</time>
      </trkpt>
      <trkpt lat="42.6087310" lon="-8.6450650">
        <ele>31.6</ele>
        <time>2022-06-19T06:20:07Z</time>
      </trkpt>
      <trkpt lat="42.6087510" lon="-8.6450550">
        <ele>31.6</ele>
        <time>2022-06-19T06:20:08Z</time>
      </trkpt>
      <trkpt lat="42.6087680" lon="-8.6450500">
        <ele>31.8</ele>
        <time>2022-06-19T06:20:09Z</time>
      </trkpt>
      <trkpt lat="42.6087860" lon="-8.6450410">
        <ele>32.0</ele>
        <time>2022-06-19T06:20:10Z</time>
      </trkpt>
      <trkpt lat="42.6088110" lon="-8.6450410">
        <ele>32.0</ele>
        <time>2022-06-19T06:20:11Z</time>
      </trkpt>
      <trkpt lat="42.6088300" lon="-8.6450350">
        <ele>32.0</ele>
        <time>2022-06-19T06:20:12Z</time>
      </trkpt>
      <trkpt lat="42.6088530" lon="-8.6450330">
        <ele>32.4</ele>
        <time>2022-06-19T06:20:13Z</time>
      </trkpt>
      <trkpt lat="42.6088750" lon="-8.6450300">
        <ele>32.4</ele>
        <time>2022-06-19T06:20:14Z</time>
      </trkpt>
      <trkpt lat="42.6088950" lon="-8.6450210">
        <ele>32.4</ele>
        <time>2022-06-19T06:20:15Z</time>
      </trkpt>
      <trkpt lat="42.6089130" lon="-8.6450160">
        <ele>32.4</ele>
        <time>2022-06-19T06:20:16Z</time>
      </trkpt>
      <trkpt lat="42.6089330" lon="-8.6450150">
        <ele>32.4</ele>
        <time>2022-06-19T06:20:17Z</time>
      </trkpt>
      <trkpt lat="42.6089550" lon="-8.6450100">
        <ele>32.8</ele>
        <time>2022-06-19T06:20:18Z</time>
      </trkpt>
      <trkpt lat="42.6089730" lon="-8.6450030">
        <ele>32.8</ele>
        <time>2022-06-19T06:20:19Z</time>
      </trkpt>
      <trkpt lat="42.6090000" lon="-8.6450000">
        <ele>32.8</ele>
        <time>2022-06-19T06:20:20Z</time>
      </trkpt>
      <trkpt lat="42.6090230" lon="-8.6449910">
        <ele>33.0</ele>
        <time>2022-06-19T06:20:21Z</time>
      </trkpt>
      <trkpt lat="42.6090480" lon="-8.6449910">
        <ele>33.8</ele>
        <time>2022-06-19T06:20:22Z</time>
      </trkpt>
      <trkpt lat="42.6090680" lon="-8.6449830">
        <ele>33.8</ele>
        <time>2022-06-19T06:20:23Z</time>
      </trkpt>
      <trkpt lat="42.6090800" lon="-8.6449730">
        <ele>33.8</ele>
        <time>2022-06-19T06:20:24Z</time>
      </trkpt>
      <trkpt lat="42.6090980" lon="-8.6449630">
        <ele>33.6</ele>
        <time>2022-06-19T06:20:25Z</time>
      </trkpt>
      <trkpt lat="42.6091160" lon="-8.6449560">
        <ele>33.8</ele>
        <time>2022-06-19T06:20:26Z</time>
      </trkpt>
      <trkpt lat="42.6091380" lon="-8.6449460">
        <ele>33.8</ele>
        <time>2022-06-19T06:20:27Z</time>
      </trkpt>
      <trkpt lat="42.6091610" lon="-8.6449410">
        <ele>33.8</ele>
        <time>2022-06-19T06:20:28Z</time>
      </trkpt>
      <trkpt lat="42.6091880" lon="-8.6449360">
        <ele>33.8</ele>
        <time>2022-06-19T06:20:29Z</time>
      </trkpt>
      <trkpt lat="42.6092130" lon="-8.6449310">
        <ele>34.2</ele>
        <time>2022-06-19T06:20:30Z</time>
      </trkpt>
      <trkpt lat="42.6092330" lon="-8.6449250">
        <ele>34.2</ele>
        <time>2022-06-19T06:20:31Z</time>
      </trkpt>
      <trkpt lat="42.6092530" lon="-8.6449230">
        <ele>34.2</ele>
        <time>2022-06-19T06:20:32Z</time>
      </trkpt>
      <trkpt lat="42.6092750" lon="-8.6449230">
        <ele>34.2</ele>
        <time>2022-06-19T06:20:33Z</time>
      </trkpt>
      <trkpt lat="42.6092880" lon="-8.6449160">
        <ele>35.0</ele>
        <time>2022-06-19T06:20:34Z</time>
      </trkpt>
      <trkpt lat="42.6093160" lon="-8.6449200">
        <ele>35.0</ele>
        <time>2022-06-19T06:20:35Z</time>
      </trkpt>
      <trkpt lat="42.6093380" lon="-8.6449100">
        <ele>35.0</ele>
        <time>2022-06-19T06:20:36Z</time>
      </trkpt>
      <trkpt lat="42.6093610" lon="-8.6449030">
        <ele>35.0</ele>
        <time>2022-06-19T06:20:37Z</time>
      </trkpt>
      <trkpt lat="42.6093800" lon="-8.6449030">
        <ele>35.6</ele>
        <time>2022-06-19T06:20:38Z</time>
      </trkpt>
      <trkpt lat="42.6094000" lon="-8.6448960">
        <ele>35.6</ele>
        <time>2022-06-19T06:20:39Z</time>
      </trkpt>
      <trkpt lat="42.6094200" lon="-8.6448900">
        <ele>35.6</ele>
        <time>2022-06-19T06:20:40Z</time>
      </trkpt>
      <trkpt lat="42.6094410" lon="-8.6448810">
        <ele>35.6</ele>
        <time>2022-06-19T06:20:41Z</time>
      </trkpt>
      <trkpt lat="42.6094580" lon="-8.6448760">
        <ele>36.4</ele>
        <time>2022-06-19T06:20:42Z</time>
      </trkpt>
      <trkpt lat="42.6094800" lon="-8.6448730">
        <ele>36.4</ele>
        <time>2022-06-19T06:20:43Z</time>
      </trkpt>
      <trkpt lat="42.6094950" lon="-8.6448680">
        <ele>36.4</ele>
        <time>2022-06-19T06:20:44Z</time>
      </trkpt>
      <trkpt lat="42.6095300" lon="-8.6448480">
        <ele>36.4</ele>
        <time>2022-06-19T06:20:45Z</time>
      </trkpt>
      <trkpt lat="42.6095480" lon="-8.6448360">
        <ele>36.8</ele>
        <time>2022-06-19T06:20:46Z</time>
      </trkpt>
      <trkpt lat="42.6095650" lon="-8.6448230">
        <ele>36.8</ele>
        <time>2022-06-19T06:20:47Z</time>
      </trkpt>
      <trkpt lat="42.6095820" lon="-8.6448100">
        <ele>36.8</ele>
        <time>2022-06-19T06:20:48Z</time>
      </trkpt>
      <trkpt lat="42.6095990" lon="-8.6447970">
        <ele>36.6</ele>
        <time>2022-06-19T06:20:49Z</time>
      </trkpt>
      <trkpt lat="42.6096170" lon="-8.6447850">
        <ele>37.0</ele>
        <time>2022-06-19T06:20:50Z</time>
      </trkpt>
      <trkpt lat="42.6096340" lon="-8.6447720">
        <ele>37.0</ele>
        <time>2022-06-19T06:20:51Z</time>
      </trkpt>
      <trkpt lat="42.6096510" lon="-8.6447590">
        <ele>37.0</ele>
        <time>2022-06-19T06:20:52Z</time>
      </trkpt>
      <trkpt lat="42.6096680" lon="-8.6447460">
        <ele>37.0</ele>
        <time>2022-06-19T06:20:53Z</time>
      </trkpt>
      <trkpt lat="42.6096860" lon="-8.6447340">
        <ele>35.2</ele>
        <time>2022-06-19T06:21:10Z</time>
      </trkpt>
      <trkpt lat="42.6097030" lon="-8.6447210">
        <ele>35.2</ele>
        <time>2022-06-19T06:21:11Z</time>
      </trkpt>
      <trkpt lat="42.6097360" lon="-8.6446980">
        <ele>35.2</ele>
        <time>2022-06-19T06:21:12Z</time>
      </trkpt>
      <trkpt lat="42.6097700" lon="-8.6446760">
        <ele>34.6</ele>
        <time>2022-06-19T06:21:13Z</time>
      </trkpt>
      <trkpt lat="42.6098030" lon="-8.6446530">
        <ele>34.4</ele>
        <time>2022-06-19T06:21:14Z</time>
      </trkpt>
      <trkpt lat="42.6098300" lon="-8.6446230">
        <ele>34.4</ele>
        <time>2022-06-19T06:21:15Z</time>
      </trkpt>
      <trkpt lat="42.6098680" lon="-8.6445930">
        <ele>34.4</ele>
        <time>2022-06-19T06:21:16Z</time>
      </trkpt>
      <trkpt lat="42.6099080" lon="-8.6445630">
        <ele>34.4</ele>
        <time>2022-06-19T06:21:17Z</time>
      </trkpt>
      <trkpt lat="42.6099460" lon="-8.6445310">
        <ele>33.8</ele>
        <time>2022-06-19T06:21:18Z</time>
      </trkpt>
      <trkpt lat="42.6099850" lon="-8.6444960">
        <ele>33.8</ele>
        <time>2022-06-19T06:21:19Z</time>
      </trkpt>
      <trkpt lat="42.6100250" lon="-8.6444610">
        <ele>33.8</ele>
        <time>2022-06-19T06:21:20Z</time>
      </trkpt>
      <trkpt lat="42.6100660" lon="-8.6444260">
        <ele>33.8</ele>
        <time>2022-06-19T06:21:21Z</time>
      </trkpt>
      <trkpt lat="42.6101150" lon="-8.6444000">
        <ele>33.8</ele>
        <time>2022-06-19T06:21:22Z</time>
      </trkpt>
      <trkpt lat="42.6101680" lon="-8.6443800">
        <ele>33.8</ele>
        <time>2022-06-19T06:21:23Z</time>
      </trkpt>
      <trkpt lat="42.6102160" lon="-8.6443710">
        <ele>33.8</ele>
        <time>2022-06-19T06:21:24Z</time>
      </trkpt>
      <trkpt lat="42.6102630" lon="-8.6443710">
        <ele>32.8</ele>
        <time>2022-06-19T06:21:25Z</time>
      </trkpt>
      <trkpt lat="42.6103100" lon="-8.6443760">
        <ele>31.6</ele>
        <time>2022-06-19T06:21:26Z</time>
      </trkpt>
      <trkpt lat="42.6103510" lon="-8.6443900">
        <ele>31.6</ele>
        <time>2022-06-19T06:21:27Z</time>
      </trkpt>
      <trkpt lat="42.6103980" lon="-8.6444030">
        <ele>31.6</ele>
        <time>2022-06-19T06:21:28Z</time>
      </trkpt>
      <trkpt lat="42.6104500" lon="-8.6444180">
        <ele>31.4</ele>
        <time>2022-06-19T06:21:29Z</time>
      </trkpt>
      <trkpt lat="42.6104960" lon="-8.6444260">
        <ele>32.0</ele>
        <time>2022-06-19T06:21:30Z</time>
      </trkpt>
      <trkpt lat="42.6105480" lon="-8.6444310">
        <ele>32.0</ele>
        <time>2022-06-19T06:21:31Z</time>
      </trkpt>
      <trkpt lat="42.6105910" lon="-8.6444360">
        <ele>32.0</ele>
        <time>2022-06-19T06:21:32Z</time>
      </trkpt>
      <trkpt lat="42.6106350" lon="-8.6444450">
        <ele>31.4</ele>
        <time>2022-06-19T06:21:33Z</time>
      </trkpt>
      <trkpt lat="42.6106780" lon="-8.6444530">
        <ele>31.6</ele>
        <time>2022-06-19T06:21:34Z</time>
      </trkpt>
      <trkpt lat="42.6107230" lon="-8.6444610">
        <ele>31.6</ele>
        <time>2022-06-19T06:21:35Z</time>
      </trkpt>
      <trkpt lat="42.6107660" lon="-8.6444700">
        <ele>31.6</ele>
        <time>2022-06-19T06:21:36Z</time>
      </trkpt>
      <trkpt lat="42.6108100" lon="-8.6444750">
        <ele>31.6</ele>
        <time>2022-06-19T06:21:37Z</time>
      </trkpt>
      <trkpt lat="42.6108510" lon="-8.6444760">
        <ele>31.8</ele>
        <time>2022-06-19T06:21:38Z</time>
      </trkpt>
      <trkpt lat="42.6108900" lon="-8.6444750">
        <ele>31.8</ele>
        <time>2022-06-19T06:21:39Z</time>
      </trkpt>
      <trkpt lat="42.6109260" lon="-8.6444660">
        <ele>31.8</ele>
        <time>2022-06-19T06:21:40Z</time>
      </trkpt>
      <trkpt lat="42.6109650" lon="-8.6444580">
        <ele>31.8</ele>
        <time>2022-06-19T06:21:41Z</time>
      </trkpt>
      <trkpt lat="42.6109960" lon="-8.6444500">
        <ele>31.6</ele>
        <time>2022-06-19T06:21:42Z</time>
      </trkpt>
      <trkpt lat="42.6110230" lon="-8.6444410">
        <ele>31.6</ele>
        <time>2022-06-19T06:21:43Z</time>
      </trkpt>
      <trkpt lat="42.6110450" lon="-8.6444300">
        <ele>31.6</ele>
        <time>2022-06-19T06:21:44Z</time>
      </trkpt>
      <trkpt lat="42.6110680" lon="-8.6444110">
        <ele>31.8</ele>
        <time>2022-06-19T06:21:45Z</time>
      </trkpt>
      <trkpt lat="42.6110960" lon="-8.6443930">
        <ele>31.2</ele>
        <time>2022-06-19T06:21:46Z</time>
      </trkpt>
      <trkpt lat="42.6111280" lon="-8.6443860">
        <ele>31.2</ele>
        <time>2022-06-19T06:21:47Z</time>
      </trkpt>
      <trkpt lat="42.6111600" lon="-8.6443760">
        <ele>31.2</ele>
        <time>2022-06-19T06:21:48Z</time>
      </trkpt>
      <trkpt lat="42.6111910" lon="-8.6443560">
        <ele>31.2</ele>
        <time>2022-06-19T06:21:49Z</time>
      </trkpt>
      <trkpt lat="42.6112230" lon="-8.6443350">
        <ele>31.4</ele>
        <time>2022-06-19T06:21:50Z</time>
      </trkpt>
      <trkpt lat="42.6112600" lon="-8.6443100">
        <ele>31.4</ele>
        <time>2022-06-19T06:21:51Z</time>
      </trkpt>
      <trkpt lat="42.6112960" lon="-8.6442910">
        <ele>31.4</ele>
        <time>2022-06-19T06:21:52Z</time>
      </trkpt>
      <trkpt lat="42.6113300" lon="-8.6442710">
        <ele>31.4</ele>
        <time>2022-06-19T06:21:53Z</time>
      </trkpt>
      <trkpt lat="42.6113580" lon="-8.6442510">
        <ele>31.4</ele>
        <time>2022-06-19T06:21:54Z</time>
      </trkpt>
      <trkpt lat="42.6113900" lon="-8.6442380">
        <ele>31.4</ele>
        <time>2022-06-19T06:21:55Z</time>
      </trkpt>
      <trkpt lat="42.6114250" lon="-8.6442200">
        <ele>31.4</ele>
        <time>2022-06-19T06:21:56Z</time>
      </trkpt>
      <trkpt lat="42.6114580" lon="-8.6442010">
        <ele>31.4</ele>
        <time>2022-06-19T06:21:57Z</time>
      </trkpt>
      <trkpt lat="42.6114900" lon="-8.6441830">
        <ele>31.8</ele>
        <time>2022-06-19T06:21:58Z</time>
      </trkpt>
      <trkpt lat="42.6115210" lon="-8.6441630">
        <ele>31.8</ele>
        <time>2022-06-19T06:21:59Z</time>
      </trkpt>
      <trkpt lat="42.6115500" lon="-8.6441510">
        <ele>31.8</ele>
        <time>2022-06-19T06:22:00Z</time>
      </trkpt>
      <trkpt lat="42.6115800" lon="-8.6441400">
        <ele>32.2</ele>
        <time>2022-06-19T06:22:01Z</time>
      </trkpt>
      <trkpt lat="42.6116150" lon="-8.6441360">
        <ele>31.2</ele>
        <time>2022-06-19T06:22:02Z</time>
      </trkpt>
      <trkpt lat="42.6116460" lon="-8.6441330">
        <ele>31.2</ele>
        <time>2022-06-19T06:22:03Z</time>
      </trkpt>
      <trkpt lat="42.6116800" lon="-8.6441280">
        <ele>31.2</ele>
        <time>2022-06-19T06:22:04Z</time>
      </trkpt>
      <trkpt lat="42.6117110" lon="-8.6441250">
        <ele>31.8</ele>
        <time>2022-06-19T06:22:05Z</time>
      </trkpt>
      <trkpt lat="42.6117500" lon="-8.6441260">
        <ele>32.0</ele>
        <time>2022-06-19T06:22:06Z</time>
      </trkpt>
      <trkpt lat="42.6117860" lon="-8.6441210">
        <ele>32.0</ele>
        <time>2022-06-19T06:22:07Z</time>
      </trkpt>
      <trkpt lat="42.6118260" lon="-8.6441210">
        <ele>32.0</ele>
        <time>2022-06-19T06:22:08Z</time>
      </trkpt>
      <trkpt lat="42.6118650" lon="-8.6441160">
        <ele>31.6</ele>
        <time>2022-06-19T06:22:09Z</time>
      </trkpt>
      <trkpt lat="42.6118980" lon="-8.6441160">
        <ele>31.8</ele>
        <time>2022-06-19T06:22:10Z</time>
      </trkpt>
      <trkpt lat="42.6119300" lon="-8.6441160">
        <ele>31.8</ele>
        <time>2022-06-19T06:22:11Z</time>
      </trkpt>
      <trkpt lat="42.6119630" lon="-8.6441180">
        <ele>31.8</ele>
        <time>2022-06-19T06:22:12Z</time>
      </trkpt>
      <trkpt lat="42.6119960" lon="-8.6441210">
        <ele>31.8</ele>
        <time>2022-06-19T06:22:13Z</time>
      </trkpt>
      <trkpt lat="42.6120280" lon="-8.6441210">
        <ele>31.8</ele>
        <time>2022-06-19T06:22:14Z</time>
      </trkpt>
      <trkpt lat="42.6120630" lon="-8.6441230">
        <ele>31.8</ele>
        <time>2022-06-19T06:22:15Z</time>
      </trkpt>
      <trkpt lat="42.6120960" lon="-8.6441310">
        <ele>31.8</ele>
        <time>2022-06-19T06:22:16Z</time>
      </trkpt>
      <trkpt lat="42.6121280" lon="-8.6441430">
        <ele>31.8</ele>
        <time>2022-06-19T06:22:17Z</time>
      </trkpt>
      <trkpt lat="42.6121600" lon="-8.6441500">
        <ele>32.2</ele>
        <time>2022-06-19T06:22:18Z</time>
      </trkpt>
      <trkpt lat="42.6121880" lon="-8.6441610">
        <ele>32.2</ele>
        <time>2022-06-19T06:22:19Z</time>
      </trkpt>
      <trkpt lat="42.6122180" lon="-8.6441730">
        <ele>32.2</ele>
        <time>2022-06-19T06:22:20Z</time>
      </trkpt>
      <trkpt lat="42.6122460" lon="-8.6441910">
        <ele>32.2</ele>
        <time>2022-06-19T06:22:21Z</time>
      </trkpt>
      <trkpt lat="42.6122750" lon="-8.6442050">
        <ele>32.4</ele>
        <time>2022-06-19T06:22:22Z</time>
      </trkpt>
      <trkpt lat="42.6123030" lon="-8.6442180">
        <ele>32.4</ele>
        <time>2022-06-19T06:22:23Z</time>
      </trkpt>
      <trkpt lat="42.6123310" lon="-8.6442350">
        <ele>32.4</ele>
        <time>2022-06-19T06:22:24Z</time>
      </trkpt>
      <trkpt lat="42.6123610" lon="-8.6442510">
        <ele>32.4</ele>
        <time>2022-06-19T06:22:25Z</time>
      </trkpt>
      <trkpt lat="42.6123900" lon="-8.6442650">
        <ele>33.2</ele>
        <time>2022-06-19T06:22:26Z</time>
      </trkpt>
      <trkpt lat="42.6124180" lon="-8.6442780">
        <ele>33.2</ele>
        <time>2022-06-19T06:22:27Z</time>
      </trkpt>
      <trkpt lat="42.6124450" lon="-8.6442910">
        <ele>33.2</ele>
        <time>2022-06-19T06:22:28Z</time>
      </trkpt>
      <trkpt lat="42.6124730" lon="-8.6443050">
        <ele>33.2</ele>
        <time>2022-06-19T06:22:29Z</time>
      </trkpt>
      <trkpt lat="42.6125000" lon="-8.6443210">
        <ele>33.0</ele>
        <time>2022-06-19T06:22:30Z</time>
      </trkpt>
      <trkpt lat="42.6125280" lon="-8.6443330">
        <ele>33.0</ele>
        <time>2022-06-19T06:22:31Z</time>
      </trkpt>
      <trkpt lat="42.6125560" lon="-8.6443460">
        <ele>33.0</ele>
        <time>2022-06-19T06:22:32Z</time>
      </trkpt>
      <trkpt lat="42.6125850" lon="-8.6443600">
        <ele>33.0</ele>
        <time>2022-06-19T06:22:33Z</time>
      </trkpt>
      <trkpt lat="42.6126110" lon="-8.6443710">
        <ele>33.6</ele>
        <time>2022-06-19T06:22:34Z</time>
      </trkpt>
      <trkpt lat="42.6126380" lon="-8.6443830">
        <ele>33.6</ele>
        <time>2022-06-19T06:22:35Z</time>
      </trkpt>
      <trkpt lat="42.6126660" lon="-8.6443950">
        <ele>33.6</ele>
        <time>2022-06-19T06:22:36Z</time>
      </trkpt>
      <trkpt lat="42.6126960" lon="-8.6444060">
        <ele>33.6</ele>
        <time>2022-06-19T06:22:37Z</time>
      </trkpt>
      <trkpt lat="42.6127260" lon="-8.6444160">
        <ele>33.8</ele>
        <time>2022-06-19T06:22:38Z</time>
      </trkpt>
      <trkpt lat="42.6127530" lon="-8.6444280">
        <ele>33.8</ele>
        <time>2022-06-19T06:22:39Z</time>
      </trkpt>
      <trkpt lat="42.6127810" lon="-8.6444400">
        <ele>33.8</ele>
        <time>2022-06-19T06:22:40Z</time>
      </trkpt>
      <trkpt lat="42.6128110" lon="-8.6444480">
        <ele>33.8</ele>
        <time>2022-06-19T06:22:41Z</time>
      </trkpt>
      <trkpt lat="42.6128410" lon="-8.6444530">
        <ele>33.8</ele>
        <time>2022-06-19T06:22:42Z</time>
      </trkpt>
      <trkpt lat="42.6128700" lon="-8.6444610">
        <ele>33.8</ele>
        <time>2022-06-19T06:22:43Z</time>
      </trkpt>
      <trkpt lat="42.6128980" lon="-8.6444710">
        <ele>33.8</ele>
        <time>2022-06-19T06:22:44Z</time>
      </trkpt>
      <trkpt lat="42.6129230" lon="-8.6444850">
        <ele>33.8</ele>
        <time>2022-06-19T06:22:45Z</time>
      </trkpt>
      <trkpt lat="42.6129480" lon="-8.6444950">
        <ele>34.2</ele>
        <time>2022-06-19T06:22:46Z</time>
      </trkpt>
      <trkpt lat="42.6129750" lon="-8.6445030">
        <ele>34.2</ele>
        <time>2022-06-19T06:22:47Z</time>
      </trkpt>
      <trkpt lat="42.6130010" lon="-8.6445100">
        <ele>34.2</ele>
        <time>2022-06-19T06:22:48Z</time>
      </trkpt>
      <trkpt lat="42.6130300" lon="-8.6445160">
        <ele>34.2</ele>
        <time>2022-06-19T06:22:49Z</time>
      </trkpt>
      <trkpt lat="42.6130600" lon="-8.6445260">
        <ele>34.2</ele>
        <time>2022-06-19T06:22:50Z</time>
      </trkpt>
      <trkpt lat="42.6130860" lon="-8.6445380">
        <ele>34.2</ele>
        <time>2022-06-19T06:22:51Z</time>
      </trkpt>
      <trkpt lat="42.6131150" lon="-8.6445500">
        <ele>34.2</ele>
        <time>2022-06-19T06:22:52Z</time>
      </trkpt>
      <trkpt lat="42.6131350" lon="-8.6445550">
        <ele>34.2</ele>
        <time>2022-06-19T06:22:53Z</time>
      </trkpt>
      <trkpt lat="42.6131610" lon="-8.6445580">
        <ele>34.4</ele>
        <time>2022-06-19T06:22:54Z</time>
      </trkpt>
      <trkpt lat="42.6131880" lon="-8.6445630">
        <ele>34.4</ele>
        <time>2022-06-19T06:22:55Z</time>
      </trkpt>
      <trkpt lat="42.6132080" lon="-8.6445760">
        <ele>34.4</ele>
        <time>2022-06-19T06:22:56Z</time>
      </trkpt>
      <trkpt lat="42.6132250" lon="-8.6445880">
        <ele>35.2</ele>
        <time>2022-06-19T06:22:57Z</time>
      </trkpt>
      <trkpt lat="42.6132400" lon="-8.6446050">
        <ele>35.4</ele>
        <time>2022-06-19T06:22:58Z</time>
      </trkpt>
      <trkpt lat="42.6132550" lon="-8.6446180">
        <ele>35.4</ele>
        <time>2022-06-19T06:22:59Z</time>
      </trkpt>
      <trkpt lat="42.6132710" lon="-8.6446330">
        <ele>35.4</ele>
        <time>2022-06-19T06:23:00Z</time>
      </trkpt>
      <trkpt lat="42.6132910" lon="-8.6446460">
        <ele>35.6</ele>
        <time>2022-06-19T06:23:01Z</time>
      </trkpt>
      <trkpt lat="42.6133110" lon="-8.6446610">
        <ele>36.0</ele>
        <time>2022-06-19T06:23:02Z</time>
      </trkpt>
      <trkpt lat="42.6133200" lon="-8.6446780">
        <ele>36.0</ele>
        <time>2022-06-19T06:23:03Z</time>
      </trkpt>
      <trkpt lat="42.6133250" lon="-8.6446910">
        <ele>36.0</ele>
        <time>2022-06-19T06:23:04Z</time>
      </trkpt>
      <trkpt lat="42.6133410" lon="-8.6447010">
        <ele>36.0</ele>
        <time>2022-06-19T06:23:05Z</time>
      </trkpt>
      <trkpt lat="42.6133650" lon="-8.6447110">
        <ele>36.8</ele>
        <time>2022-06-19T06:23:06Z</time>
      </trkpt>
      <trkpt lat="42.6133830" lon="-8.6447210">
        <ele>36.8</ele>
        <time>2022-06-19T06:23:07Z</time>
      </trkpt>
      <trkpt lat="42.6134050" lon="-8.6447330">
        <ele>36.8</ele>
        <time>2022-06-19T06:23:08Z</time>
      </trkpt>
      <trkpt lat="42.6134230" lon="-8.6447460">
        <ele>37.0</ele>
        <time>2022-06-19T06:23:09Z</time>
      </trkpt>
      <trkpt lat="42.6134430" lon="-8.6447550">
        <ele>36.2</ele>
        <time>2022-06-19T06:23:10Z</time>
      </trkpt>
      <trkpt lat="42.6134650" lon="-8.6447650">
        <ele>36.2</ele>
        <time>2022-06-19T06:23:11Z</time>
      </trkpt>
      <trkpt lat="42.6134850" lon="-8.6447780">
        <ele>36.2</ele>
        <time>2022-06-19T06:23:12Z</time>
      </trkpt>
      <trkpt lat="42.6135010" lon="-8.6447880">
        <ele>37.2</ele>
        <time>2022-06-19T06:23:13Z</time>
      </trkpt>
      <trkpt lat="42.6135210" lon="-8.6447950">
        <ele>37.8</ele>
        <time>2022-06-19T06:23:14Z</time>
      </trkpt>
      <trkpt lat="42.6135460" lon="-8.6447980">
        <ele>37.8</ele>
        <time>2022-06-19T06:23:15Z</time>
      </trkpt>
      <trkpt lat="42.6135660" lon="-8.6448060">
        <ele>37.8</ele>
        <time>2022-06-19T06:23:16Z</time>
      </trkpt>
      <trkpt lat="42.6135860" lon="-8.6448110">
        <ele>38.4</ele>
        <time>2022-06-19T06:23:17Z</time>
      </trkpt>
      <trkpt lat="42.6136050" lon="-8.6448160">
        <ele>38.2</ele>
        <time>2022-06-19T06:23:18Z</time>
      </trkpt>
      <trkpt lat="42.6136250" lon="-8.6448200">
        <ele>38.2</ele>
        <time>2022-06-19T06:23:19Z</time>
      </trkpt>
      <trkpt lat="42.6136460" lon="-8.6448210">
        <ele>38.2</ele>
        <time>2022-06-19T06:23:20Z</time>
      </trkpt>
      <trkpt lat="42.6136610" lon="-8.6448330">
        <ele>38.6</ele>
        <time>2022-06-19T06:23:21Z</time>
      </trkpt>
      <trkpt lat="42.6136750" lon="-8.6448400">
        <ele>39.0</ele>
        <time>2022-06-19T06:23:22Z</time>
      </trkpt>
      <trkpt lat="42.6136960" lon="-8.6448350">
        <ele>39.0</ele>
        <time>2022-06-19T06:23:23Z</time>
      </trkpt>
      <trkpt lat="42.6137230" lon="-8.6448410">
        <ele>39.0</ele>
        <time>2022-06-19T06:23:24Z</time>
      </trkpt>
      <trkpt lat="42.6137610" lon="-8.6448550">
        <ele>40.0</ele>
        <time>2022-06-19T06:23:25Z</time>
      </trkpt>
      <trkpt lat="42.6137960" lon="-8.6448600">
        <ele>40.8</ele>
        <time>2022-06-19T06:23:26Z</time>
      </trkpt>
      <trkpt lat="42.6138250" lon="-8.6448530">
        <ele>40.8</ele>
        <time>2022-06-19T06:23:27Z</time>
      </trkpt>
      <trkpt lat="42.6138500" lon="-8.6448500">
        <ele>40.8</ele>
        <time>2022-06-19T06:23:28Z</time>
      </trkpt>
      <trkpt lat="42.6138780" lon="-8.6448410">
        <ele>41.4</ele>
        <time>2022-06-19T06:23:29Z</time>
      </trkpt>
      <trkpt lat="42.6139010" lon="-8.6448350">
        <ele>42.8</ele>
        <time>2022-06-19T06:23:30Z</time>
      </trkpt>
      <trkpt lat="42.6139260" lon="-8.6448250">
        <ele>42.8</ele>
        <time>2022-06-19T06:23:31Z</time>
      </trkpt>
      <trkpt lat="42.6139460" lon="-8.6448210">
        <ele>42.8</ele>
        <time>2022-06-19T06:23:32Z</time>
      </trkpt>
      <trkpt lat="42.6139610" lon="-8.6448160">
        <ele>42.8</ele>
        <time>2022-06-19T06:23:33Z</time>
      </trkpt>
      <trkpt lat="42.6139750" lon="-8.6448110">
        <ele>42.8</ele>
        <time>2022-06-19T06:23:34Z</time>
      </trkpt>
      <trkpt lat="42.6139960" lon="-8.6448060">
        <ele>42.8</ele>
        <time>2022-06-19T06:23:35Z</time>
      </trkpt>
      <trkpt lat="42.6140210" lon="-8.6448030">
        <ele>42.8</ele>
        <time>2022-06-19T06:23:36Z</time>
      </trkpt>
      <trkpt lat="42.6140500" lon="-8.6447960">
        <ele>42.8</ele>
        <time>2022-06-19T06:23:37Z</time>
      </trkpt>
      <trkpt lat="42.6140760" lon="-8.6447880">
        <ele>42.8</ele>
        <time>2022-06-19T06:23:38Z</time>
      </trkpt>
      <trkpt lat="42.6141000" lon="-8.6447780">
        <ele>42.8</ele>
        <time>2022-06-19T06:23:39Z</time>
      </trkpt>
      <trkpt lat="42.6141260" lon="-8.6447680">
        <ele>42.8</ele>
        <time>2022-06-19T06:23:40Z</time>
      </trkpt>
      <trkpt lat="42.6141530" lon="-8.6447600">
        <ele>42.4</ele>
        <time>2022-06-19T06:23:41Z</time>
      </trkpt>
      <trkpt lat="42.6141810" lon="-8.6447500">
        <ele>41.4</ele>
        <time>2022-06-19T06:23:42Z</time>
      </trkpt>
      <trkpt lat="42.6142110" lon="-8.6447380">
        <ele>41.4</ele>
        <time>2022-06-19T06:23:43Z</time>
      </trkpt>
      <trkpt lat="42.6142400" lon="-8.6447300">
        <ele>41.4</ele>
        <time>2022-06-19T06:23:44Z</time>
      </trkpt>
      <trkpt lat="42.6142660" lon="-8.6447200">
        <ele>42.0</ele>
        <time>2022-06-19T06:23:45Z</time>
      </trkpt>
      <trkpt lat="42.6142910" lon="-8.6447130">
        <ele>42.6</ele>
        <time>2022-06-19T06:23:46Z</time>
      </trkpt>
      <trkpt lat="42.6143180" lon="-8.6447080">
        <ele>42.6</ele>
        <time>2022-06-19T06:23:47Z</time>
      </trkpt>
      <trkpt lat="42.6143430" lon="-8.6447060">
        <ele>42.6</ele>
        <time>2022-06-19T06:23:48Z</time>
      </trkpt>
      <trkpt lat="42.6143700" lon="-8.6447050">
        <ele>42.0</ele>
        <time>2022-06-19T06:23:49Z</time>
      </trkpt>
      <trkpt lat="42.6143980" lon="-8.6446980">
        <ele>41.6</ele>
        <time>2022-06-19T06:23:50Z</time>
      </trkpt>
      <trkpt lat="42.6144260" lon="-8.6446910">
        <ele>41.6</ele>
        <time>2022-06-19T06:23:51Z</time>
      </trkpt>
      <trkpt lat="42.6144530" lon="-8.6446850">
        <ele>41.6</ele>
        <time>2022-06-19T06:23:52Z</time>
      </trkpt>
      <trkpt lat="42.6144780" lon="-8.6446810">
        <ele>42.6</ele>
        <time>2022-06-19T06:23:53Z</time>
      </trkpt>
      <trkpt lat="42.6145030" lon="-8.6446800">
        <ele>42.6</ele>
        <time>2022-06-19T06:23:54Z</time>
      </trkpt>
      <trkpt lat="42.6145300" lon="-8.6446750">
        <ele>42.6</ele>
        <time>2022-06-19T06:23:55Z</time>
      </trkpt>
      <trkpt lat="42.6145560" lon="-8.6446710">
        <ele>42.6</ele>
        <time>2022-06-19T06:23:56Z</time>
      </trkpt>
      <trkpt lat="42.6145830" lon="-8.6446700">
        <ele>42.6</ele>
        <time>2022-06-19T06:23:57Z</time>
      </trkpt>
      <trkpt lat="42.6146110" lon="-8.6446680">
        <ele>42.8</ele>
        <time>2022-06-19T06:23:58Z</time>
      </trkpt>
      <trkpt lat="42.6146380" lon="-8.6446650">
        <ele>42.8</ele>
        <time>2022-06-19T06:23:59Z</time>
      </trkpt>
      <trkpt lat="42.6146660" lon="-8.6446600">
        <ele>42.8</ele>
        <time>2022-06-19T06:24:00Z</time>
      </trkpt>
      <trkpt lat="42.6146930" lon="-8.6446550">
        <ele>42.8</ele>
        <time>2022-06-19T06:24:01Z</time>
      </trkpt>
      <trkpt lat="42.6147230" lon="-8.6446500">
        <ele>42.2</ele>
        <time>2022-06-19T06:24:02Z</time>
      </trkpt>
      <trkpt lat="42.6147550" lon="-8.6446480">
        <ele>42.2</ele>
        <time>2022-06-19T06:24:03Z</time>
      </trkpt>
      <trkpt lat="42.6147880" lon="-8.6446430">
        <ele>42.2</ele>
        <time>2022-06-19T06:24:04Z</time>
      </trkpt>
      <trkpt lat="42.6148210" lon="-8.6446360">
        <ele>41.6</ele>
        <time>2022-06-19T06:24:05Z</time>
      </trkpt>
      <trkpt lat="42.6148580" lon="-8.6446300">
        <ele>41.4</ele>
        <time>2022-06-19T06:24:06Z</time>
      </trkpt>
      <trkpt lat="42.6148960" lon="-8.6446250">
        <ele>41.4</ele>
        <time>2022-06-19T06:24:07Z</time>
      </trkpt>
      <trkpt lat="42.6149360" lon="-8.6446200">
        <ele>41.4</ele>
        <time>2022-06-19T06:24:08Z</time>
      </trkpt>
      <trkpt lat="42.6149780" lon="-8.6446150">
        <ele>41.4</ele>
        <time>2022-06-19T06:24:09Z</time>
      </trkpt>
      <trkpt lat="42.6150200" lon="-8.6446100">
        <ele>40.6</ele>
        <time>2022-06-19T06:24:10Z</time>
      </trkpt>
      <trkpt lat="42.6150650" lon="-8.6446080">
        <ele>40.6</ele>
        <time>2022-06-19T06:24:11Z</time>
      </trkpt>
      <trkpt lat="42.6151100" lon="-8.6446030">
        <ele>40.6</ele>
        <time>2022-06-19T06:24:12Z</time>
      </trkpt>
      <trkpt lat="42.6151550" lon="-8.6445960">
        <ele>40.0</ele>
        <time>2022-06-19T06:24:13Z</time>
      </trkpt>
      <trkpt lat="42.6152010" lon="-8.6445880">
        <ele>39.8</ele>
        <time>2022-06-19T06:24:14Z</time>
      </trkpt>
      <trkpt lat="42.6152480" lon="-8.6445800">
        <ele>39.8</ele>
        <time>2022-06-19T06:24:15Z</time>
      </trkpt>
      <trkpt lat="42.6152930" lon="-8.6445710">
        <ele>39.8</ele>
        <time>2022-06-19T06:24:16Z</time>
      </trkpt>
      <trkpt lat="42.6153380" lon="-8.6445610">
        <ele>39.8</ele>
        <time>2022-06-19T06:24:17Z</time>
      </trkpt>
      <trkpt lat="42.6153810" lon="-8.6445500">
        <ele>40.2</ele>
        <time>2022-06-19T06:24:18Z</time>
      </trkpt>
      <trkpt lat="42.6154210" lon="-8.6445400">
        <ele>40.2</ele>
        <time>2022-06-19T06:24:19Z</time>
      </trkpt>
      <trkpt lat="42.6154600" lon="-8.6445380">
        <ele>40.2</ele>
        <time>2022-06-19T06:24:20Z</time>
      </trkpt>
      <trkpt lat="42.6154930" lon="-8.6445350">
        <ele>40.2</ele>
        <time>2022-06-19T06:24:21Z</time>
      </trkpt>
      <trkpt lat="42.6155280" lon="-8.6445250">
        <ele>39.8</ele>
        <time>2022-06-19T06:24:22Z</time>
      </trkpt>
      <trkpt lat="42.6155600" lon="-8.6445150">
        <ele>39.8</ele>
        <time>2022-06-19T06:24:23Z</time>
      </trkpt>
      <trkpt lat="42.6155950" lon="-8.6445050">
        <ele>39.8</ele>
        <time>2022-06-19T06:24:24Z</time>
      </trkpt>
      <trkpt lat="42.6156330" lon="-8.6444950">
        <ele>40.2</ele>
        <time>2022-06-19T06:24:25Z</time>
      </trkpt>
      <trkpt lat="42.6156750" lon="-8.6444880">
        <ele>40.2</ele>
        <time>2022-06-19T06:24:26Z</time>
      </trkpt>
      <trkpt lat="42.6157130" lon="-8.6444850">
        <ele>40.2</ele>
        <time>2022-06-19T06:24:27Z</time>
      </trkpt>
      <trkpt lat="42.6157510" lon="-8.6444810">
        <ele>40.2</ele>
        <time>2022-06-19T06:24:28Z</time>
      </trkpt>
      <trkpt lat="42.6157860" lon="-8.6444800">
        <ele>40.6</ele>
        <time>2022-06-19T06:24:29Z</time>
      </trkpt>
      <trkpt lat="42.6158210" lon="-8.6444800">
        <ele>40.8</ele>
        <time>2022-06-19T06:24:30Z</time>
      </trkpt>
      <trkpt lat="42.6158560" lon="-8.6444810">
        <ele>40.8</ele>
        <time>2022-06-19T06:24:31Z</time>
      </trkpt>
      <trkpt lat="42.6158910" lon="-8.6444830">
        <ele>40.8</ele>
        <time>2022-06-19T06:24:32Z</time>
      </trkpt>
      <trkpt lat="42.6159250" lon="-8.6444850">
        <ele>40.8</ele>
        <time>2022-06-19T06:24:33Z</time>
      </trkpt>
      <trkpt lat="42.6159600" lon="-8.6444900">
        <ele>40.8</ele>
        <time>2022-06-19T06:24:34Z</time>
      </trkpt>
      <trkpt lat="42.6159930" lon="-8.6444950">
        <ele>40.8</ele>
        <time>2022-06-19T06:24:35Z</time>
      </trkpt>
      <trkpt lat="42.6160260" lon="-8.6444980">
        <ele>40.8</ele>
        <time>2022-06-19T06:24:36Z</time>
      </trkpt>
      <trkpt lat="42.6160610" lon="-8.6445010">
        <ele>40.8</ele>
        <time>2022-06-19T06:24:37Z</time>
      </trkpt>
      <trkpt lat="42.6160960" lon="-8.6445100">
        <ele>41.4</ele>
        <time>2022-06-19T06:24:38Z</time>
      </trkpt>
      <trkpt lat="42.6161260" lon="-8.6445280">
        <ele>41.4</ele>
        <time>2022-06-19T06:24:39Z</time>
      </trkpt>
      <trkpt lat="42.6161550" lon="-8.6445500">
        <ele>41.4</ele>
        <time>2022-06-19T06:24:40Z</time>
      </trkpt>
      <trkpt lat="42.6161780" lon="-8.6445630">
        <ele>42.4</ele>
        <time>2022-06-19T06:24:41Z</time>
      </trkpt>
      <trkpt lat="42.6162000" lon="-8.6445730">
        <ele>42.0</ele>
        <time>2022-06-19T06:24:42Z</time>
      </trkpt>
      <trkpt lat="42.6162250" lon="-8.6445800">
        <ele>42.0</ele>
        <time>2022-06-19T06:24:43Z</time>
      </trkpt>
      <trkpt lat="42.6162460" lon="-8.6445850">
        <ele>42.0</ele>
        <time>2022-06-19T06:24:44Z</time>
      </trkpt>
      <trkpt lat="42.6162750" lon="-8.6445900">
        <ele>42.0</ele>
        <time>2022-06-19T06:24:45Z</time>
      </trkpt>
      <trkpt lat="42.6163060" lon="-8.6445960">
        <ele>42.0</ele>
        <time>2022-06-19T06:24:46Z</time>
      </trkpt>
      <trkpt lat="42.6163410" lon="-8.6446050">
        <ele>42.0</ele>
        <time>2022-06-19T06:24:47Z</time>
      </trkpt>
      <trkpt lat="42.6163730" lon="-8.6446100">
        <ele>42.0</ele>
        <time>2022-06-19T06:24:48Z</time>
      </trkpt>
      <trkpt lat="42.6164010" lon="-8.6446130">
        <ele>42.0</ele>
        <time>2022-06-19T06:24:49Z</time>
      </trkpt>
      <trkpt lat="42.6164310" lon="-8.6446160">
        <ele>41.6</ele>
        <time>2022-06-19T06:24:50Z</time>
      </trkpt>
      <trkpt lat="42.6164600" lon="-8.6446180">
        <ele>41.6</ele>
        <time>2022-06-19T06:24:51Z</time>
      </trkpt>
      <trkpt lat="42.6164930" lon="-8.6446260">
        <ele>41.6</ele>
        <time>2022-06-19T06:24:52Z</time>
      </trkpt>
      <trkpt lat="42.6165280" lon="-8.6446330">
        <ele>41.8</ele>
        <time>2022-06-19T06:24:53Z</time>
      </trkpt>
      <trkpt lat="42.6165630" lon="-8.6446410">
        <ele>41.4</ele>
        <time>2022-06-19T06:24:54Z</time>
      </trkpt>
      <trkpt lat="42.6165960" lon="-8.6446500">
        <ele>41.4</ele>
        <time>2022-06-19T06:24:55Z</time>
      </trkpt>
      <trkpt lat="42.6166250" lon="-8.6446610">
        <ele>41.4</ele>
        <time>2022-06-19T06:24:56Z</time>
      </trkpt>
      <trkpt lat="42.6166510" lon="-8.6446730">
        <ele>41.8</ele>
        <time>2022-06-19T06:24:57Z</time>
      </trkpt>
      <trkpt lat="42.6166760" lon="-8.6446860">
        <ele>42.0</ele>
        <time>2022-06-19T06:24:58Z</time>
      </trkpt>
      <trkpt lat="42.6167030" lon="-8.6447010">
        <ele>42.0</ele>
        <time>2022-06-19T06:24:59Z</time>
      </trkpt>
      <trkpt lat="42.6167330" lon="-8.6447110">
        <ele>42.0</ele>
        <time>2022-06-19T06:25:00Z</time>
      </trkpt>
      <trkpt lat="42.6167610" lon="-8.6447280">
        <ele>42.0</ele>
        <time>2022-06-19T06:25:01Z</time>
      </trkpt>
      <trkpt lat="42.6167910" lon="-8.6447380">
        <ele>42.4</ele>
        <time>2022-06-19T06:25:02Z</time>
      </trkpt>
      <trkpt lat="42.6168230" lon="-8.6447530">
        <ele>42.4</ele>
        <time>2022-06-19T06:25:03Z</time>
      </trkpt>
      <trkpt lat="42.6168550" lon="-8.6447630">
        <ele>42.4</ele>
        <time>2022-06-19T06:25:04Z</time>
      </trkpt>
      <trkpt lat="42.6168910" lon="-8.6447760">
        <ele>42.2</ele>
        <time>2022-06-19T06:25:05Z</time>
      </trkpt>
      <trkpt lat="42.6169200" lon="-8.6447880">
        <ele>42.0</ele>
        <time>2022-06-19T06:25:06Z</time>
      </trkpt>
      <trkpt lat="42.6169500" lon="-8.6447880">
        <ele>42.0</ele>
        <time>2022-06-19T06:25:07Z</time>
      </trkpt>
      <trkpt lat="42.6169800" lon="-8.6447910">
        <ele>42.0</ele>
        <time>2022-06-19T06:25:08Z</time>
      </trkpt>
      <trkpt lat="42.6170060" lon="-8.6447910">
        <ele>42.4</ele>
        <time>2022-06-19T06:25:09Z</time>
      </trkpt>
      <trkpt lat="42.6170310" lon="-8.6447910">
        <ele>42.2</ele>
        <time>2022-06-19T06:25:10Z</time>
      </trkpt>
      <trkpt lat="42.6170580" lon="-8.6447930">
        <ele>42.2</ele>
        <time>2022-06-19T06:25:11Z</time>
      </trkpt>
      <trkpt lat="42.6170860" lon="-8.6447950">
        <ele>42.2</ele>
        <time>2022-06-19T06:25:12Z</time>
      </trkpt>
      <trkpt lat="42.6171130" lon="-8.6447960">
        <ele>42.2</ele>
        <time>2022-06-19T06:25:13Z</time>
      </trkpt>
      <trkpt lat="42.6171400" lon="-8.6448010">
        <ele>42.4</ele>
        <time>2022-06-19T06:25:14Z</time>
      </trkpt>
      <trkpt lat="42.6171680" lon="-8.6447980">
        <ele>42.4</ele>
        <time>2022-06-19T06:25:15Z</time>
      </trkpt>
      <trkpt lat="42.6171960" lon="-8.6447900">
        <ele>42.4</ele>
        <time>2022-06-19T06:25:16Z</time>
      </trkpt>
      <trkpt lat="42.6172310" lon="-8.6447750">
        <ele>41.6</ele>
        <time>2022-06-19T06:25:17Z</time>
      </trkpt>
      <trkpt lat="42.6172710" lon="-8.6447560">
        <ele>42.0</ele>
        <time>2022-06-19T06:25:18Z</time>
      </trkpt>
      <trkpt lat="42.6173080" lon="-8.6447450">
        <ele>42.0</ele>
        <time>2022-06-19T06:25:19Z</time>
      </trkpt>
      <trkpt lat="42.6173480" lon="-8.6447330">
        <ele>42.0</ele>
        <time>2022-06-19T06:25:20Z</time>
      </trkpt>
      <trkpt lat="42.6173850" lon="-8.6447260">
        <ele>42.0</ele>
        <time>2022-06-19T06:25:21Z</time>
      </trkpt>
      <trkpt lat="42.6174210" lon="-8.6447180">
        <ele>42.0</ele>
        <time>2022-06-19T06:25:22Z</time>
      </trkpt>
      <trkpt lat="42.6174550" lon="-8.6447100">
        <ele>42.0</ele>
        <time>2022-06-19T06:25:23Z</time>
      </trkpt>
      <trkpt lat="42.6174860" lon="-8.6447000">
        <ele>42.0</ele>
        <time>2022-06-19T06:25:24Z</time>
      </trkpt>
      <trkpt lat="42.6175180" lon="-8.6446900">
        <ele>42.0</ele>
        <time>2022-06-19T06:25:25Z</time>
      </trkpt>
      <trkpt lat="42.6175480" lon="-8.6446810">
        <ele>42.8</ele>
        <time>2022-06-19T06:25:26Z</time>
      </trkpt>
      <trkpt lat="42.6175780" lon="-8.6446730">
        <ele>42.8</ele>
        <time>2022-06-19T06:25:27Z</time>
      </trkpt>
      <trkpt lat="42.6176060" lon="-8.6446660">
        <ele>42.8</ele>
        <time>2022-06-19T06:25:28Z</time>
      </trkpt>
      <trkpt lat="42.6176380" lon="-8.6446560">
        <ele>42.8</ele>
        <time>2022-06-19T06:25:29Z</time>
      </trkpt>
      <trkpt lat="42.6176700" lon="-8.6446480">
        <ele>42.2</ele>
        <time>2022-06-19T06:25:30Z</time>
      </trkpt>
      <trkpt lat="42.6177000" lon="-8.6446410">
        <ele>42.2</ele>
        <time>2022-06-19T06:25:31Z</time>
      </trkpt>
      <trkpt lat="42.6177280" lon="-8.6446310">
        <ele>42.2</ele>
        <time>2022-06-19T06:25:32Z</time>
      </trkpt>
      <trkpt lat="42.6177580" lon="-8.6446200">
        <ele>42.6</ele>
        <time>2022-06-19T06:25:33Z</time>
      </trkpt>
      <trkpt lat="42.6177900" lon="-8.6446130">
        <ele>42.6</ele>
        <time>2022-06-19T06:25:34Z</time>
      </trkpt>
      <trkpt lat="42.6178180" lon="-8.6446130">
        <ele>42.6</ele>
        <time>2022-06-19T06:25:35Z</time>
      </trkpt>
      <trkpt lat="42.6178480" lon="-8.6446110">
        <ele>42.6</ele>
        <time>2022-06-19T06:25:36Z</time>
      </trkpt>
      <trkpt lat="42.6178760" lon="-8.6446060">
        <ele>42.6</ele>
        <time>2022-06-19T06:25:37Z</time>
      </trkpt>
      <trkpt lat="42.6179080" lon="-8.6446000">
        <ele>42.8</ele>
        <time>2022-06-19T06:25:38Z</time>
      </trkpt>
      <trkpt lat="42.6179360" lon="-8.6445950">
        <ele>42.8</ele>
        <time>2022-06-19T06:25:39Z</time>
      </trkpt>
      <trkpt lat="42.6179660" lon="-8.6445880">
        <ele>42.8</ele>
        <time>2022-06-19T06:25:40Z</time>
      </trkpt>
      <trkpt lat="42.6179980" lon="-8.6445830">
        <ele>42.8</ele>
        <time>2022-06-19T06:25:41Z</time>
      </trkpt>
      <trkpt lat="42.6180360" lon="-8.6445730">
        <ele>43.2</ele>
        <time>2022-06-19T06:25:42Z</time>
      </trkpt>
      <trkpt lat="42.6180650" lon="-8.6445700">
        <ele>43.2</ele>
        <time>2022-06-19T06:25:43Z</time>
      </trkpt>
      <trkpt lat="42.6180910" lon="-8.6445700">
        <ele>43.2</ele>
        <time>2022-06-19T06:25:44Z</time>
      </trkpt>
      <trkpt lat="42.6181200" lon="-8.6445700">
        <ele>43.4</ele>
        <time>2022-06-19T06:25:45Z</time>
      </trkpt>
      <trkpt lat="42.6181480" lon="-8.6445680">
        <ele>43.4</ele>
        <time>2022-06-19T06:25:46Z</time>
      </trkpt>
      <trkpt lat="42.6181730" lon="-8.6445660">
        <ele>43.4</ele>
        <time>2022-06-19T06:25:47Z</time>
      </trkpt>
      <trkpt lat="42.6182000" lon="-8.6445650">
        <ele>43.4</ele>
        <time>2022-06-19T06:25:48Z</time>
      </trkpt>
      <trkpt lat="42.6182330" lon="-8.6445650">
        <ele>43.8</ele>
        <time>2022-06-19T06:25:49Z</time>
      </trkpt>
      <trkpt lat="42.6182630" lon="-8.6445650">
        <ele>44.0</ele>
        <time>2022-06-19T06:25:50Z</time>
      </trkpt>
      <trkpt lat="42.6182860" lon="-8.6445700">
        <ele>44.0</ele>
        <time>2022-06-19T06:25:51Z</time>
      </trkpt>
      <trkpt lat="42.6183150" lon="-8.6445750">
        <ele>44.0</ele>
        <time>2022-06-19T06:25:52Z</time>
      </trkpt>
      <trkpt lat="42.6183430" lon="-8.6445830">
        <ele>44.4</ele>
        <time>2022-06-19T06:25:53Z</time>
      </trkpt>
      <trkpt lat="42.6183650" lon="-8.6445900">
        <ele>44.6</ele>
        <time>2022-06-19T06:25:54Z</time>
      </trkpt>
      <trkpt lat="42.6183880" lon="-8.6445960">
        <ele>44.6</ele>
        <time>2022-06-19T06:25:55Z</time>
      </trkpt>
      <trkpt lat="42.6184130" lon="-8.6446030">
        <ele>44.6</ele>
        <time>2022-06-19T06:25:56Z</time>
      </trkpt>
      <trkpt lat="42.6184430" lon="-8.6446050">
        <ele>44.6</ele>
        <time>2022-06-19T06:25:57Z</time>
      </trkpt>
      <trkpt lat="42.6184700" lon="-8.6446030">
        <ele>45.2</ele>
        <time>2022-06-19T06:25:58Z</time>
      </trkpt>
      <trkpt lat="42.6184950" lon="-8.6446030">
        <ele>45.2</ele>
        <time>2022-06-19T06:25:59Z</time>
      </trkpt>
      <trkpt lat="42.6185230" lon="-8.6446000">
        <ele>45.2</ele>
        <time>2022-06-19T06:26:00Z</time>
      </trkpt>
      <trkpt lat="42.6185480" lon="-8.6445930">
        <ele>45.2</ele>
        <time>2022-06-19T06:26:01Z</time>
      </trkpt>
      <trkpt lat="42.6185750" lon="-8.6445900">
        <ele>45.8</ele>
        <time>2022-06-19T06:26:02Z</time>
      </trkpt>
      <trkpt lat="42.6186030" lon="-8.6445910">
        <ele>45.8</ele>
        <time>2022-06-19T06:26:03Z</time>
      </trkpt>
      <trkpt lat="42.6186350" lon="-8.6445900">
        <ele>45.8</ele>
        <time>2022-06-19T06:26:04Z</time>
      </trkpt>
      <trkpt lat="42.6186600" lon="-8.6445830">
        <ele>45.8</ele>
        <time>2022-06-19T06:26:05Z</time>
      </trkpt>
      <trkpt lat="42.6186830" lon="-8.6445730">
        <ele>45.6</ele>
        <time>2022-06-19T06:26:06Z</time>
      </trkpt>
      <trkpt lat="42.6187050" lon="-8.6445610">
        <ele>45.6</ele>
        <time>2022-06-19T06:26:07Z</time>
      </trkpt>
      <trkpt lat="42.6187260" lon="-8.6445530">
        <ele>45.6</ele>
        <time>2022-06-19T06:26:08Z</time>
      </trkpt>
      <trkpt lat="42.6187530" lon="-8.6445500">
        <ele>46.6</ele>
        <time>2022-06-19T06:26:09Z</time>
      </trkpt>
      <trkpt lat="42.6187750" lon="-8.6445460">
        <ele>46.2</ele>
        <time>2022-06-19T06:26:10Z</time>
      </trkpt>
      <trkpt lat="42.6187960" lon="-8.6445480">
        <ele>46.2</ele>
        <time>2022-06-19T06:26:11Z</time>
      </trkpt>
      <trkpt lat="42.6188200" lon="-8.6445550">
        <ele>46.2</ele>
        <time>2022-06-19T06:26:12Z</time>
      </trkpt>
      <trkpt lat="42.6188460" lon="-8.6445600">
        <ele>46.2</ele>
        <time>2022-06-19T06:26:13Z</time>
      </trkpt>
      <trkpt lat="42.6188930" lon="-8.6445780">
        <ele>46.2</ele>
        <time>2022-06-19T06:26:14Z</time>
      </trkpt>
      <trkpt lat="42.6189330" lon="-8.6446000">
        <ele>46.2</ele>
        <time>2022-06-19T06:26:15Z</time>
      </trkpt>
      <trkpt lat="42.6189660" lon="-8.6446300">
        <ele>46.2</ele>
        <time>2022-06-19T06:26:16Z</time>
      </trkpt>
      <trkpt lat="42.6189880" lon="-8.6446500">
        <ele>46.2</ele>
        <time>2022-06-19T06:26:17Z</time>
      </trkpt>
      <trkpt lat="42.6190100" lon="-8.6446600">
        <ele>46.6</ele>
        <time>2022-06-19T06:26:18Z</time>
      </trkpt>
      <trkpt lat="42.6190360" lon="-8.6446680">
        <ele>46.6</ele>
        <time>2022-06-19T06:26:19Z</time>
      </trkpt>
      <trkpt lat="42.6190650" lon="-8.6446780">
        <ele>46.6</ele>
        <time>2022-06-19T06:26:20Z</time>
      </trkpt>
      <trkpt lat="42.6190860" lon="-8.6446910">
        <ele>46.6</ele>
        <time>2022-06-19T06:26:21Z</time>
      </trkpt>
      <trkpt lat="42.6191080" lon="-8.6447100">
        <ele>46.6</ele>
        <time>2022-06-19T06:26:22Z</time>
      </trkpt>
      <trkpt lat="42.6191310" lon="-8.6447250">
        <ele>46.6</ele>
        <time>2022-06-19T06:26:23Z</time>
      </trkpt>
      <trkpt lat="42.6191550" lon="-8.6447350">
        <ele>46.6</ele>
        <time>2022-06-19T06:26:24Z</time>
      </trkpt>
      <trkpt lat="42.6191760" lon="-8.6447450">
        <ele>46.0</ele>
        <time>2022-06-19T06:26:25Z</time>
      </trkpt>
      <trkpt lat="42.6191980" lon="-8.6447510">
        <ele>47.2</ele>
        <time>2022-06-19T06:26:26Z</time>
      </trkpt>
      <trkpt lat="42.6192350" lon="-8.6447580">
        <ele>47.2</ele>
        <time>2022-06-19T06:26:27Z</time>
      </trkpt>
      <trkpt lat="42.6192610" lon="-8.6447600">
        <ele>47.2</ele>
        <time>2022-06-19T06:26:28Z</time>
      </trkpt>
      <trkpt lat="42.6192950" lon="-8.6447580">
        <ele>46.8</ele>
        <time>2022-06-19T06:26:29Z</time>
      </trkpt>
      <trkpt lat="42.6193360" lon="-8.6447400">
        <ele>46.6</ele>
        <time>2022-06-19T06:26:30Z</time>
      </trkpt>
      <trkpt lat="42.6193730" lon="-8.6447300">
        <ele>46.6</ele>
        <time>2022-06-19T06:26:31Z</time>
      </trkpt>
      <trkpt lat="42.6194110" lon="-8.6447130">
        <ele>46.6</ele>
        <time>2022-06-19T06:26:32Z</time>
      </trkpt>
      <trkpt lat="42.6194460" lon="-8.6446960">
        <ele>46.6</ele>
        <time>2022-06-19T06:26:33Z</time>
      </trkpt>
      <trkpt lat="42.6194800" lon="-8.6446830">
        <ele>46.4</ele>
        <time>2022-06-19T06:26:34Z</time>
      </trkpt>
      <trkpt lat="42.6195080" lon="-8.6446660">
        <ele>46.4</ele>
        <time>2022-06-19T06:26:35Z</time>
      </trkpt>
      <trkpt lat="42.6195410" lon="-8.6446580">
        <ele>46.4</ele>
        <time>2022-06-19T06:26:36Z</time>
      </trkpt>
      <trkpt lat="42.6195680" lon="-8.6446450">
        <ele>47.0</ele>
        <time>2022-06-19T06:26:37Z</time>
      </trkpt>
      <trkpt lat="42.6195980" lon="-8.6446280">
        <ele>47.0</ele>
        <time>2022-06-19T06:26:38Z</time>
      </trkpt>
      <trkpt lat="42.6196200" lon="-8.6446110">
        <ele>47.0</ele>
        <time>2022-06-19T06:26:39Z</time>
      </trkpt>
      <trkpt lat="42.6196430" lon="-8.6446130">
        <ele>47.0</ele>
        <time>2022-06-19T06:26:40Z</time>
      </trkpt>
      <trkpt lat="42.6196600" lon="-8.6446200">
        <ele>47.0</ele>
        <time>2022-06-19T06:26:41Z</time>
      </trkpt>
      <trkpt lat="42.6196760" lon="-8.6446160">
        <ele>47.0</ele>
        <time>2022-06-19T06:26:42Z</time>
      </trkpt>
      <trkpt lat="42.6196850" lon="-8.6446100">
        <ele>47.0</ele>
        <time>2022-06-19T06:26:43Z</time>
      </trkpt>
      <trkpt lat="42.6197000" lon="-8.6446010">
        <ele>47.0</ele>
        <time>2022-06-19T06:26:44Z</time>
      </trkpt>
      <trkpt lat="42.6197310" lon="-8.6445850">
        <ele>47.4</ele>
        <time>2022-06-19T06:26:45Z</time>
      </trkpt>
      <trkpt lat="42.6197560" lon="-8.6445630">
        <ele>47.0</ele>
        <time>2022-06-19T06:26:46Z</time>
      </trkpt>
      <trkpt lat="42.6197850" lon="-8.6445430">
        <ele>47.0</ele>
        <time>2022-06-19T06:26:47Z</time>
      </trkpt>
      <trkpt lat="42.6198160" lon="-8.6445250">
        <ele>47.0</ele>
        <time>2022-06-19T06:26:48Z</time>
      </trkpt>
      <trkpt lat="42.6198460" lon="-8.6445080">
        <ele>47.0</ele>
        <time>2022-06-19T06:26:49Z</time>
      </trkpt>
      <trkpt lat="42.6198780" lon="-8.6444930">
        <ele>47.0</ele>
        <time>2022-06-19T06:26:50Z</time>
      </trkpt>
      <trkpt lat="42.6199110" lon="-8.6444800">
        <ele>47.0</ele>
        <time>2022-06-19T06:26:51Z</time>
      </trkpt>
      <trkpt lat="42.6199380" lon="-8.6444630">
        <ele>47.0</ele>
        <time>2022-06-19T06:26:52Z</time>
      </trkpt>
      <trkpt lat="42.6199650" lon="-8.6444510">
        <ele>47.6</ele>
        <time>2022-06-19T06:26:53Z</time>
      </trkpt>
      <trkpt lat="42.6199950" lon="-8.6444600">
        <ele>48.0</ele>
        <time>2022-06-19T06:26:54Z</time>
      </trkpt>
      <trkpt lat="42.6200280" lon="-8.6444560">
        <ele>48.0</ele>
        <time>2022-06-19T06:26:55Z</time>
      </trkpt>
      <trkpt lat="42.6200600" lon="-8.6444500">
        <ele>48.0</ele>
        <time>2022-06-19T06:26:56Z</time>
      </trkpt>
      <trkpt lat="42.6200910" lon="-8.6444380">
        <ele>47.4</ele>
        <time>2022-06-19T06:26:57Z</time>
      </trkpt>
      <trkpt lat="42.6201210" lon="-8.6444350">
        <ele>47.0</ele>
        <time>2022-06-19T06:26:58Z</time>
      </trkpt>
      <trkpt lat="42.6201510" lon="-8.6444380">
        <ele>47.0</ele>
        <time>2022-06-19T06:26:59Z</time>
      </trkpt>
      <trkpt lat="42.6201850" lon="-8.6444350">
        <ele>47.0</ele>
        <time>2022-06-19T06:27:00Z</time>
      </trkpt>
      <trkpt lat="42.6202080" lon="-8.6444330">
        <ele>47.0</ele>
        <time>2022-06-19T06:27:01Z</time>
      </trkpt>
      <trkpt lat="42.6202360" lon="-8.6444300">
        <ele>47.4</ele>
        <time>2022-06-19T06:27:02Z</time>
      </trkpt>
      <trkpt lat="42.6202680" lon="-8.6444230">
        <ele>47.4</ele>
        <time>2022-06-19T06:27:03Z</time>
      </trkpt>
      <trkpt lat="42.6202960" lon="-8.6444130">
        <ele>47.4</ele>
        <time>2022-06-19T06:27:04Z</time>
      </trkpt>
      <trkpt lat="42.6203230" lon="-8.6444030">
        <ele>47.2</ele>
        <time>2022-06-19T06:27:05Z</time>
      </trkpt>
      <trkpt lat="42.6203560" lon="-8.6443850">
        <ele>46.8</ele>
        <time>2022-06-19T06:27:06Z</time>
      </trkpt>
      <trkpt lat="42.6203850" lon="-8.6443800">
        <ele>46.8</ele>
        <time>2022-06-19T06:27:07Z</time>
      </trkpt>
      <trkpt lat="42.6204180" lon="-8.6443750">
        <ele>46.8</ele>
        <time>2022-06-19T06:27:08Z</time>
      </trkpt>
      <trkpt lat="42.6204530" lon="-8.6443580">
        <ele>46.8</ele>
        <time>2022-06-19T06:27:09Z</time>
      </trkpt>
      <trkpt lat="42.6204930" lon="-8.6443300">
        <ele>46.8</ele>
        <time>2022-06-19T06:27:10Z</time>
      </trkpt>
      <trkpt lat="42.6205180" lon="-8.6443130">
        <ele>46.8</ele>
        <time>2022-06-19T06:27:11Z</time>
      </trkpt>
      <trkpt lat="42.6205400" lon="-8.6443010">
        <ele>46.8</ele>
        <time>2022-06-19T06:27:12Z</time>
      </trkpt>
      <trkpt lat="42.6205700" lon="-8.6442910">
        <ele>46.8</ele>
        <time>2022-06-19T06:27:13Z</time>
      </trkpt>
      <trkpt lat="42.6206000" lon="-8.6442800">
        <ele>47.2</ele>
        <time>2022-06-19T06:27:14Z</time>
      </trkpt>
      <trkpt lat="42.6206280" lon="-8.6442780">
        <ele>47.2</ele>
        <time>2022-06-19T06:27:15Z</time>
      </trkpt>
      <trkpt lat="42.6206600" lon="-8.6442600">
        <ele>47.2</ele>
        <time>2022-06-19T06:27:16Z</time>
      </trkpt>
      <trkpt lat="42.6206880" lon="-8.6442460">
        <ele>47.4</ele>
        <time>2022-06-19T06:27:17Z</time>
      </trkpt>
      <trkpt lat="42.6207230" lon="-8.6442430">
        <ele>47.4</ele>
        <time>2022-06-19T06:27:18Z</time>
      </trkpt>
      <trkpt lat="42.6207460" lon="-8.6442430">
        <ele>47.4</ele>
        <time>2022-06-19T06:27:19Z</time>
      </trkpt>
      <trkpt lat="42.6207780" lon="-8.6442430">
        <ele>47.4</ele>
        <time>2022-06-19T06:27:20Z</time>
      </trkpt>
      <trkpt lat="42.6207930" lon="-8.6442380">
        <ele>47.4</ele>
        <time>2022-06-19T06:27:21Z</time>
      </trkpt>
      <trkpt lat="42.6208050" lon="-8.6442330">
        <ele>47.4</ele>
        <time>2022-06-19T06:27:22Z</time>
      </trkpt>
      <trkpt lat="42.6208400" lon="-8.6442160">
        <ele>47.4</ele>
        <time>2022-06-19T06:27:23Z</time>
      </trkpt>
      <trkpt lat="42.6208700" lon="-8.6441950">
        <ele>47.4</ele>
        <time>2022-06-19T06:27:24Z</time>
      </trkpt>
      <trkpt lat="42.6208950" lon="-8.6441760">
        <ele>48.0</ele>
        <time>2022-06-19T06:27:25Z</time>
      </trkpt>
      <trkpt lat="42.6209250" lon="-8.6441610">
        <ele>48.0</ele>
        <time>2022-06-19T06:27:26Z</time>
      </trkpt>
      <trkpt lat="42.6209580" lon="-8.6441450">
        <ele>48.0</ele>
        <time>2022-06-19T06:27:27Z</time>
      </trkpt>
      <trkpt lat="42.6209850" lon="-8.6441330">
        <ele>48.0</ele>
        <time>2022-06-19T06:27:28Z</time>
      </trkpt>
      <trkpt lat="42.6210160" lon="-8.6441280">
        <ele>48.2</ele>
        <time>2022-06-19T06:27:29Z</time>
      </trkpt>
      <trkpt lat="42.6210430" lon="-8.6441180">
        <ele>48.4</ele>
        <time>2022-06-19T06:27:30Z</time>
      </trkpt>
      <trkpt lat="42.6210630" lon="-8.6441060">
        <ele>48.4</ele>
        <time>2022-06-19T06:27:31Z</time>
      </trkpt>
      <trkpt lat="42.6210750" lon="-8.6440980">
        <ele>48.4</ele>
        <time>2022-06-19T06:27:32Z</time>
      </trkpt>
      <trkpt lat="42.6210960" lon="-8.6440900">
        <ele>48.4</ele>
        <time>2022-06-19T06:27:33Z</time>
      </trkpt>
      <trkpt lat="42.6211280" lon="-8.6440700">
        <ele>48.4</ele>
        <time>2022-06-19T06:27:34Z</time>
      </trkpt>
      <trkpt lat="42.6211560" lon="-8.6440480">
        <ele>48.4</ele>
        <time>2022-06-19T06:27:35Z</time>
      </trkpt>
      <trkpt lat="42.6211860" lon="-8.6440300">
        <ele>48.4</ele>
        <time>2022-06-19T06:27:36Z</time>
      </trkpt>
      <trkpt lat="42.6212260" lon="-8.6440110">
        <ele>48.4</ele>
        <time>2022-06-19T06:27:37Z</time>
      </trkpt>
      <trkpt lat="42.6212610" lon="-8.6439950">
        <ele>48.4</ele>
        <time>2022-06-19T06:27:38Z</time>
      </trkpt>
      <trkpt lat="42.6212910" lon="-8.6439810">
        <ele>48.4</ele>
        <time>2022-06-19T06:27:39Z</time>
      </trkpt>
      <trkpt lat="42.6213200" lon="-8.6439660">
        <ele>48.4</ele>
        <time>2022-06-19T06:27:40Z</time>
      </trkpt>
      <trkpt lat="42.6213550" lon="-8.6439450">
        <ele>48.4</ele>
        <time>2022-06-19T06:27:41Z</time>
      </trkpt>
      <trkpt lat="42.6213950" lon="-8.6439110">
        <ele>48.4</ele>
        <time>2022-06-19T06:27:42Z</time>
      </trkpt>
      <trkpt lat="42.6214360" lon="-8.6438900">
        <ele>48.4</ele>
        <time>2022-06-19T06:27:43Z</time>
      </trkpt>
      <trkpt lat="42.6214750" lon="-8.6438650">
        <ele>48.4</ele>
        <time>2022-06-19T06:27:44Z</time>
      </trkpt>
      <trkpt lat="42.6215150" lon="-8.6438430">
        <ele>48.4</ele>
        <time>2022-06-19T06:27:45Z</time>
      </trkpt>
      <trkpt lat="42.6215600" lon="-8.6438150">
        <ele>48.6</ele>
        <time>2022-06-19T06:27:46Z</time>
      </trkpt>
      <trkpt lat="42.6216030" lon="-8.6437930">
        <ele>48.6</ele>
        <time>2022-06-19T06:27:47Z</time>
      </trkpt>
      <trkpt lat="42.6216360" lon="-8.6437750">
        <ele>48.6</ele>
        <time>2022-06-19T06:27:48Z</time>
      </trkpt>
      <trkpt lat="42.6216700" lon="-8.6437630">
        <ele>48.6</ele>
        <time>2022-06-19T06:27:49Z</time>
      </trkpt>
      <trkpt lat="42.6217030" lon="-8.6437500">
        <ele>48.4</ele>
        <time>2022-06-19T06:27:50Z</time>
      </trkpt>
      <trkpt lat="42.6217480" lon="-8.6437250">
        <ele>48.4</ele>
        <time>2022-06-19T06:27:51Z</time>
      </trkpt>
      <trkpt lat="42.6217850" lon="-8.6437060">
        <ele>48.4</ele>
        <time>2022-06-19T06:27:52Z</time>
      </trkpt>
      <trkpt lat="42.6218150" lon="-8.6436860">
        <ele>48.4</ele>
        <time>2022-06-19T06:27:53Z</time>
      </trkpt>
      <trkpt lat="42.6218430" lon="-8.6436710">
        <ele>49.4</ele>
        <time>2022-06-19T06:27:54Z</time>
      </trkpt>
      <trkpt lat="42.6218730" lon="-8.6436550">
        <ele>49.4</ele>
        <time>2022-06-19T06:27:55Z</time>
      </trkpt>
      <trkpt lat="42.6219050" lon="-8.6436360">
        <ele>49.4</ele>
        <time>2022-06-19T06:27:56Z</time>
      </trkpt>
      <trkpt lat="42.6219350" lon="-8.6436110">
        <ele>49.4</ele>
        <time>2022-06-19T06:27:57Z</time>
      </trkpt>
      <trkpt lat="42.6219660" lon="-8.6435880">
        <ele>49.6</ele>
        <time>2022-06-19T06:27:58Z</time>
      </trkpt>
      <trkpt lat="42.6219910" lon="-8.6435700">
        <ele>49.6</ele>
        <time>2022-06-19T06:27:59Z</time>
      </trkpt>
      <trkpt lat="42.6220160" lon="-8.6435510">
        <ele>49.6</ele>
        <time>2022-06-19T06:28:00Z</time>
      </trkpt>
      <trkpt lat="42.6220500" lon="-8.6435360">
        <ele>49.6</ele>
        <time>2022-06-19T06:28:01Z</time>
      </trkpt>
      <trkpt lat="42.6220730" lon="-8.6435300">
        <ele>49.8</ele>
        <time>2022-06-19T06:28:02Z</time>
      </trkpt>
      <trkpt lat="42.6220910" lon="-8.6435160">
        <ele>49.8</ele>
        <time>2022-06-19T06:28:03Z</time>
      </trkpt>
      <trkpt lat="42.6221050" lon="-8.6435160">
        <ele>49.8</ele>
        <time>2022-06-19T06:28:04Z</time>
      </trkpt>
      <trkpt lat="42.6221310" lon="-8.6435080">
        <ele>50.2</ele>
        <time>2022-06-19T06:28:05Z</time>
      </trkpt>
      <trkpt lat="42.6221700" lon="-8.6434900">
        <ele>50.4</ele>
        <time>2022-06-19T06:28:06Z</time>
      </trkpt>
      <trkpt lat="42.6222060" lon="-8.6434830">
        <ele>50.4</ele>
        <time>2022-06-19T06:28:07Z</time>
      </trkpt>
      <trkpt lat="42.6222310" lon="-8.6434780">
        <ele>50.4</ele>
        <time>2022-06-19T06:28:08Z</time>
      </trkpt>
      <trkpt lat="42.6222610" lon="-8.6434710">
        <ele>50.0</ele>
        <time>2022-06-19T06:28:09Z</time>
      </trkpt>
      <trkpt lat="42.6222910" lon="-8.6434700">
        <ele>50.0</ele>
        <time>2022-06-19T06:28:10Z</time>
      </trkpt>
      <trkpt lat="42.6223230" lon="-8.6434680">
        <ele>50.0</ele>
        <time>2022-06-19T06:28:11Z</time>
      </trkpt>
      <trkpt lat="42.6223430" lon="-8.6434630">
        <ele>50.0</ele>
        <time>2022-06-19T06:28:12Z</time>
      </trkpt>
      <trkpt lat="42.6223600" lon="-8.6434560">
        <ele>50.0</ele>
        <time>2022-06-19T06:28:13Z</time>
      </trkpt>
      <trkpt lat="42.6223860" lon="-8.6434450">
        <ele>50.0</ele>
        <time>2022-06-19T06:28:14Z</time>
      </trkpt>
      <trkpt lat="42.6224180" lon="-8.6434450">
        <ele>50.0</ele>
        <time>2022-06-19T06:28:15Z</time>
      </trkpt>
      <trkpt lat="42.6224460" lon="-8.6434430">
        <ele>50.0</ele>
        <time>2022-06-19T06:28:16Z</time>
      </trkpt>
      <trkpt lat="42.6224860" lon="-8.6434350">
        <ele>50.0</ele>
        <time>2022-06-19T06:28:17Z</time>
      </trkpt>
      <trkpt lat="42.6225260" lon="-8.6434310">
        <ele>49.6</ele>
        <time>2022-06-19T06:28:18Z</time>
      </trkpt>
      <trkpt lat="42.6225460" lon="-8.6434450">
        <ele>49.6</ele>
        <time>2022-06-19T06:28:19Z</time>
      </trkpt>
      <trkpt lat="42.6225810" lon="-8.6434430">
        <ele>49.6</ele>
        <time>2022-06-19T06:28:20Z</time>
      </trkpt>
      <trkpt lat="42.6226150" lon="-8.6434400">
        <ele>49.2</ele>
        <time>2022-06-19T06:28:21Z</time>
      </trkpt>
      <trkpt lat="42.6226530" lon="-8.6434350">
        <ele>50.4</ele>
        <time>2022-06-19T06:28:22Z</time>
      </trkpt>
      <trkpt lat="42.6226780" lon="-8.6434310">
        <ele>50.4</ele>
        <time>2022-06-19T06:28:23Z</time>
      </trkpt>
      <trkpt lat="42.6227150" lon="-8.6434230">
        <ele>50.4</ele>
        <time>2022-06-19T06:28:24Z</time>
      </trkpt>
      <trkpt lat="42.6227450" lon="-8.6434150">
        <ele>49.4</ele>
        <time>2022-06-19T06:28:25Z</time>
      </trkpt>
      <trkpt lat="42.6227810" lon="-8.6434060">
        <ele>49.2</ele>
        <time>2022-06-19T06:28:26Z</time>
      </trkpt>
      <trkpt lat="42.6228160" lon="-8.6434100">
        <ele>49.2</ele>
        <time>2022-06-19T06:28:27Z</time>
      </trkpt>
      <trkpt lat="42.6228560" lon="-8.6434180">
        <ele>49.2</ele>
        <time>2022-06-19T06:28:28Z</time>
      </trkpt>
      <trkpt lat="42.6228950" lon="-8.6434260">
        <ele>49.2</ele>
        <time>2022-06-19T06:28:29Z</time>
      </trkpt>
      <trkpt lat="42.6229180" lon="-8.6434330">
        <ele>49.6</ele>
        <time>2022-06-19T06:28:30Z</time>
      </trkpt>
      <trkpt lat="42.6229430" lon="-8.6434450">
        <ele>49.6</ele>
        <time>2022-06-19T06:28:31Z</time>
      </trkpt>
      <trkpt lat="42.6229760" lon="-8.6434510">
        <ele>49.6</ele>
        <time>2022-06-19T06:28:32Z</time>
      </trkpt>
      <trkpt lat="42.6230130" lon="-8.6434560">
        <ele>49.6</ele>
        <time>2022-06-19T06:28:33Z</time>
      </trkpt>
      <trkpt lat="42.6230360" lon="-8.6434680">
        <ele>49.8</ele>
        <time>2022-06-19T06:28:34Z</time>
      </trkpt>
      <trkpt lat="42.6230610" lon="-8.6434760">
        <ele>49.8</ele>
        <time>2022-06-19T06:28:35Z</time>
      </trkpt>
      <trkpt lat="42.6230860" lon="-8.6434830">
        <ele>49.8</ele>
        <time>2022-06-19T06:28:36Z</time>
      </trkpt>
      <trkpt lat="42.6231200" lon="-8.6434880">
        <ele>49.8</ele>
        <time>2022-06-19T06:28:37Z</time>
      </trkpt>
      <trkpt lat="42.6231450" lon="-8.6434980">
        <ele>50.4</ele>
        <time>2022-06-19T06:28:38Z</time>
      </trkpt>
      <trkpt lat="42.6231710" lon="-8.6435180">
        <ele>50.4</ele>
        <time>2022-06-19T06:28:39Z</time>
      </trkpt>
      <trkpt lat="42.6232000" lon="-8.6435360">
        <ele>50.4</ele>
        <time>2022-06-19T06:28:40Z</time>
      </trkpt>
      <trkpt lat="42.6232400" lon="-8.6435450">
        <ele>50.4</ele>
        <time>2022-06-19T06:28:41Z</time>
      </trkpt>
      <trkpt lat="42.6232900" lon="-8.6435710">
        <ele>50.8</ele>
        <time>2022-06-19T06:28:42Z</time>
      </trkpt>
      <trkpt lat="42.6233330" lon="-8.6435980">
        <ele>50.8</ele>
        <time>2022-06-19T06:28:43Z</time>
      </trkpt>
      <trkpt lat="42.6233610" lon="-8.6436210">
        <ele>50.8</ele>
        <time>2022-06-19T06:28:44Z</time>
      </trkpt>
      <trkpt lat="42.6233900" lon="-8.6436460">
        <ele>51.2</ele>
        <time>2022-06-19T06:28:45Z</time>
      </trkpt>
      <trkpt lat="42.6234160" lon="-8.6436750">
        <ele>51.6</ele>
        <time>2022-06-19T06:28:46Z</time>
      </trkpt>
      <trkpt lat="42.6234530" lon="-8.6436860">
        <ele>51.6</ele>
        <time>2022-06-19T06:28:47Z</time>
      </trkpt>
      <trkpt lat="42.6234880" lon="-8.6437080">
        <ele>51.6</ele>
        <time>2022-06-19T06:28:48Z</time>
      </trkpt>
      <trkpt lat="42.6235280" lon="-8.6437200">
        <ele>51.0</ele>
        <time>2022-06-19T06:28:49Z</time>
      </trkpt>
      <trkpt lat="42.6235700" lon="-8.6437310">
        <ele>50.0</ele>
        <time>2022-06-19T06:28:50Z</time>
      </trkpt>
      <trkpt lat="42.6236110" lon="-8.6437260">
        <ele>50.0</ele>
        <time>2022-06-19T06:28:51Z</time>
      </trkpt>
      <trkpt lat="42.6236600" lon="-8.6437380">
        <ele>50.0</ele>
        <time>2022-06-19T06:28:52Z</time>
      </trkpt>
      <trkpt lat="42.6236980" lon="-8.6437460">
        <ele>50.4</ele>
        <time>2022-06-19T06:28:53Z</time>
      </trkpt>
      <trkpt lat="42.6237210" lon="-8.6437600">
        <ele>50.4</ele>
        <time>2022-06-19T06:28:54Z</time>
      </trkpt>
      <trkpt lat="42.6237580" lon="-8.6437580">
        <ele>50.4</ele>
        <time>2022-06-19T06:28:55Z</time>
      </trkpt>
      <trkpt lat="42.6237910" lon="-8.6437660">
        <ele>50.4</ele>
        <time>2022-06-19T06:28:56Z</time>
      </trkpt>
      <trkpt lat="42.6238210" lon="-8.6437880">
        <ele>50.4</ele>
        <time>2022-06-19T06:28:57Z</time>
      </trkpt>
      <trkpt lat="42.6238550" lon="-8.6438050">
        <ele>50.8</ele>
        <time>2022-06-19T06:28:58Z</time>
      </trkpt>
      <trkpt lat="42.6238910" lon="-8.6438060">
        <ele>50.8</ele>
        <time>2022-06-19T06:28:59Z</time>
      </trkpt>
      <trkpt lat="42.6239300" lon="-8.6438080">
        <ele>50.8</ele>
        <time>2022-06-19T06:29:00Z</time>
      </trkpt>
      <trkpt lat="42.6239660" lon="-8.6438050">
        <ele>50.8</ele>
        <time>2022-06-19T06:29:01Z</time>
      </trkpt>
      <trkpt lat="42.6239960" lon="-8.6438080">
        <ele>51.4</ele>
        <time>2022-06-19T06:29:02Z</time>
      </trkpt>
      <trkpt lat="42.6240280" lon="-8.6438110">
        <ele>51.4</ele>
        <time>2022-06-19T06:29:03Z</time>
      </trkpt>
      <trkpt lat="42.6240610" lon="-8.6438130">
        <ele>51.4</ele>
        <time>2022-06-19T06:29:04Z</time>
      </trkpt>
      <trkpt lat="42.6241000" lon="-8.6438110">
        <ele>51.0</ele>
        <time>2022-06-19T06:29:05Z</time>
      </trkpt>
      <trkpt lat="42.6241360" lon="-8.6438150">
        <ele>51.4</ele>
        <time>2022-06-19T06:29:06Z</time>
      </trkpt>
      <trkpt lat="42.6241750" lon="-8.6438100">
        <ele>51.4</ele>
        <time>2022-06-19T06:29:07Z</time>
      </trkpt>
      <trkpt lat="42.6242130" lon="-8.6438080">
        <ele>51.4</ele>
        <time>2022-06-19T06:29:08Z</time>
      </trkpt>
      <trkpt lat="42.6242480" lon="-8.6438100">
        <ele>51.4</ele>
        <time>2022-06-19T06:29:09Z</time>
      </trkpt>
      <trkpt lat="42.6242900" lon="-8.6438030">
        <ele>51.2</ele>
        <time>2022-06-19T06:29:10Z</time>
      </trkpt>
      <trkpt lat="42.6243250" lon="-8.6438050">
        <ele>51.2</ele>
        <time>2022-06-19T06:29:11Z</time>
      </trkpt>
      <trkpt lat="42.6243610" lon="-8.6438080">
        <ele>51.2</ele>
        <time>2022-06-19T06:29:12Z</time>
      </trkpt>
      <trkpt lat="42.6243950" lon="-8.6438130">
        <ele>51.4</ele>
        <time>2022-06-19T06:29:13Z</time>
      </trkpt>
      <trkpt lat="42.6244280" lon="-8.6438210">
        <ele>52.2</ele>
        <time>2022-06-19T06:29:14Z</time>
      </trkpt>
      <trkpt lat="42.6244630" lon="-8.6438260">
        <ele>52.2</ele>
        <time>2022-06-19T06:29:15Z</time>
      </trkpt>
      <trkpt lat="42.6244980" lon="-8.6438280">
        <ele>52.2</ele>
        <time>2022-06-19T06:29:16Z</time>
      </trkpt>
      <trkpt lat="42.6245360" lon="-8.6438310">
        <ele>52.2</ele>
        <time>2022-06-19T06:29:17Z</time>
      </trkpt>
      <trkpt lat="42.6245700" lon="-8.6438360">
        <ele>51.8</ele>
        <time>2022-06-19T06:29:18Z</time>
      </trkpt>
      <trkpt lat="42.6246060" lon="-8.6438380">
        <ele>51.8</ele>
        <time>2022-06-19T06:29:19Z</time>
      </trkpt>
      <trkpt lat="42.6246400" lon="-8.6438450">
        <ele>51.8</ele>
        <time>2022-06-19T06:29:20Z</time>
      </trkpt>
      <trkpt lat="42.6246730" lon="-8.6438530">
        <ele>52.2</ele>
        <time>2022-06-19T06:29:21Z</time>
      </trkpt>
      <trkpt lat="42.6247100" lon="-8.6438610">
        <ele>52.4</ele>
        <time>2022-06-19T06:29:22Z</time>
      </trkpt>
      <trkpt lat="42.6247460" lon="-8.6438710">
        <ele>52.4</ele>
        <time>2022-06-19T06:29:23Z</time>
      </trkpt>
      <trkpt lat="42.6247800" lon="-8.6438810">
        <ele>52.4</ele>
        <time>2022-06-19T06:29:24Z</time>
      </trkpt>
      <trkpt lat="42.6248150" lon="-8.6438880">
        <ele>52.8</ele>
        <time>2022-06-19T06:29:25Z</time>
      </trkpt>
      <trkpt lat="42.6248500" lon="-8.6438950">
        <ele>52.4</ele>
        <time>2022-06-19T06:29:26Z</time>
      </trkpt>
      <trkpt lat="42.6248860" lon="-8.6439000">
        <ele>52.4</ele>
        <time>2022-06-19T06:29:27Z</time>
      </trkpt>
      <trkpt lat="42.6249210" lon="-8.6439050">
        <ele>52.4</ele>
        <time>2022-06-19T06:29:28Z</time>
      </trkpt>
      <trkpt lat="42.6249580" lon="-8.6439100">
        <ele>52.4</ele>
        <time>2022-06-19T06:29:29Z</time>
      </trkpt>
      <trkpt lat="42.6249960" lon="-8.6439100">
        <ele>52.8</ele>
        <time>2022-06-19T06:29:30Z</time>
      </trkpt>
      <trkpt lat="42.6250310" lon="-8.6439080">
        <ele>52.8</ele>
        <time>2022-06-19T06:29:31Z</time>
      </trkpt>
      <trkpt lat="42.6250680" lon="-8.6439060">
        <ele>52.8</ele>
        <time>2022-06-19T06:29:32Z</time>
      </trkpt>
      <trkpt lat="42.6251030" lon="-8.6439060">
        <ele>52.8</ele>
        <time>2022-06-19T06:29:33Z</time>
      </trkpt>
      <trkpt lat="42.6251450" lon="-8.6439080">
        <ele>52.8</ele>
        <time>2022-06-19T06:29:34Z</time>
      </trkpt>
      <trkpt lat="42.6251800" lon="-8.6439060">
        <ele>52.8</ele>
        <time>2022-06-19T06:29:35Z</time>
      </trkpt>
      <trkpt lat="42.6252180" lon="-8.6439050">
        <ele>52.8</ele>
        <time>2022-06-19T06:29:36Z</time>
      </trkpt>
      <trkpt lat="42.6252550" lon="-8.6439050">
        <ele>52.8</ele>
        <time>2022-06-19T06:29:37Z</time>
      </trkpt>
      <trkpt lat="42.6252880" lon="-8.6439050">
        <ele>53.0</ele>
        <time>2022-06-19T06:29:38Z</time>
      </trkpt>
      <trkpt lat="42.6253250" lon="-8.6439000">
        <ele>53.0</ele>
        <time>2022-06-19T06:29:39Z</time>
      </trkpt>
      <trkpt lat="42.6253550" lon="-8.6438910">
        <ele>53.0</ele>
        <time>2022-06-19T06:29:40Z</time>
      </trkpt>
      <trkpt lat="42.6253930" lon="-8.6438830">
        <ele>53.0</ele>
        <time>2022-06-19T06:29:41Z</time>
      </trkpt>
      <trkpt lat="42.6254250" lon="-8.6438810">
        <ele>53.4</ele>
        <time>2022-06-19T06:29:42Z</time>
      </trkpt>
      <trkpt lat="42.6254560" lon="-8.6438760">
        <ele>53.4</ele>
        <time>2022-06-19T06:29:43Z</time>
      </trkpt>
      <trkpt lat="42.6254830" lon="-8.6438730">
        <ele>53.4</ele>
        <time>2022-06-19T06:29:44Z</time>
      </trkpt>
      <trkpt lat="42.6255110" lon="-8.6438730">
        <ele>54.0</ele>
        <time>2022-06-19T06:29:45Z</time>
      </trkpt>
      <trkpt lat="42.6255350" lon="-8.6438700">
        <ele>54.4</ele>
        <time>2022-06-19T06:29:46Z</time>
      </trkpt>
      <trkpt lat="42.6255560" lon="-8.6438700">
        <ele>54.4</ele>
        <time>2022-06-19T06:29:47Z</time>
      </trkpt>
      <trkpt lat="42.6255780" lon="-8.6438700">
        <ele>54.4</ele>
        <time>2022-06-19T06:29:48Z</time>
      </trkpt>
      <trkpt lat="42.6256030" lon="-8.6438680">
        <ele>54.4</ele>
        <time>2022-06-19T06:29:49Z</time>
      </trkpt>
      <trkpt lat="42.6256250" lon="-8.6438750">
        <ele>55.0</ele>
        <time>2022-06-19T06:29:50Z</time>
      </trkpt>
      <trkpt lat="42.6256460" lon="-8.6438810">
        <ele>55.0</ele>
        <time>2022-06-19T06:29:51Z</time>
      </trkpt>
      <trkpt lat="42.6256730" lon="-8.6438900">
        <ele>55.0</ele>
        <time>2022-06-19T06:29:52Z</time>
      </trkpt>
      <trkpt lat="42.6256960" lon="-8.6438980">
        <ele>55.6</ele>
        <time>2022-06-19T06:29:53Z</time>
      </trkpt>
      <trkpt lat="42.6257180" lon="-8.6439110">
        <ele>55.6</ele>
        <time>2022-06-19T06:29:54Z</time>
      </trkpt>
      <trkpt lat="42.6257380" lon="-8.6439250">
        <ele>55.6</ele>
        <time>2022-06-19T06:29:55Z</time>
      </trkpt>
      <trkpt lat="42.6257600" lon="-8.6439400">
        <ele>55.6</ele>
        <time>2022-06-19T06:29:56Z</time>
      </trkpt>
      <trkpt lat="42.6257800" lon="-8.6439560">
        <ele>55.6</ele>
        <time>2022-06-19T06:29:57Z</time>
      </trkpt>
      <trkpt lat="42.6257960" lon="-8.6439810">
        <ele>56.4</ele>
        <time>2022-06-19T06:29:58Z</time>
      </trkpt>
      <trkpt lat="42.6258080" lon="-8.6440100">
        <ele>56.4</ele>
        <time>2022-06-19T06:29:59Z</time>
      </trkpt>
      <trkpt lat="42.6258230" lon="-8.6440360">
        <ele>56.4</ele>
        <time>2022-06-19T06:30:00Z</time>
      </trkpt>
      <trkpt lat="42.6258400" lon="-8.6440560">
        <ele>56.4</ele>
        <time>2022-06-19T06:30:01Z</time>
      </trkpt>
      <trkpt lat="42.6258580" lon="-8.6440800">
        <ele>57.4</ele>
        <time>2022-06-19T06:30:02Z</time>
      </trkpt>
      <trkpt lat="42.6258750" lon="-8.6440960">
        <ele>57.4</ele>
        <time>2022-06-19T06:30:03Z</time>
      </trkpt>
      <trkpt lat="42.6258880" lon="-8.6441110">
        <ele>57.4</ele>
        <time>2022-06-19T06:30:04Z</time>
      </trkpt>
      <trkpt lat="42.6259030" lon="-8.6441250">
        <ele>58.4</ele>
        <time>2022-06-19T06:30:05Z</time>
      </trkpt>
      <trkpt lat="42.6259160" lon="-8.6441400">
        <ele>58.6</ele>
        <time>2022-06-19T06:30:06Z</time>
      </trkpt>
      <trkpt lat="42.6259280" lon="-8.6441500">
        <ele>58.6</ele>
        <time>2022-06-19T06:30:07Z</time>
      </trkpt>
      <trkpt lat="42.6259380" lon="-8.6441610">
        <ele>58.6</ele>
        <time>2022-06-19T06:30:08Z</time>
      </trkpt>
      <trkpt lat="42.6259550" lon="-8.6441780">
        <ele>58.6</ele>
        <time>2022-06-19T06:30:09Z</time>
      </trkpt>
      <trkpt lat="42.6259730" lon="-8.6441980">
        <ele>58.4</ele>
        <time>2022-06-19T06:30:10Z</time>
      </trkpt>
      <trkpt lat="42.6259980" lon="-8.6442200">
        <ele>58.4</ele>
        <time>2022-06-19T06:30:11Z</time>
      </trkpt>
      <trkpt lat="42.6260200" lon="-8.6442460">
        <ele>58.4</ele>
        <time>2022-06-19T06:30:12Z</time>
      </trkpt>
      <trkpt lat="42.6260460" lon="-8.6442750">
        <ele>58.2</ele>
        <time>2022-06-19T06:30:13Z</time>
      </trkpt>
      <trkpt lat="42.6260730" lon="-8.6443080">
        <ele>57.6</ele>
        <time>2022-06-19T06:30:14Z</time>
      </trkpt>
      <trkpt lat="42.6261010" lon="-8.6443400">
        <ele>57.6</ele>
        <time>2022-06-19T06:30:15Z</time>
      </trkpt>
      <trkpt lat="42.6261210" lon="-8.6443680">
        <ele>57.6</ele>
        <time>2022-06-19T06:30:16Z</time>
      </trkpt>
      <trkpt lat="42.6261510" lon="-8.6443950">
        <ele>56.6</ele>
        <time>2022-06-19T06:30:17Z</time>
      </trkpt>
      <trkpt lat="42.6261810" lon="-8.6444250">
        <ele>57.0</ele>
        <time>2022-06-19T06:30:18Z</time>
      </trkpt>
      <trkpt lat="42.6262180" lon="-8.6444660">
        <ele>57.0</ele>
        <time>2022-06-19T06:30:19Z</time>
      </trkpt>
      <trkpt lat="42.6262560" lon="-8.6444980">
        <ele>57.0</ele>
        <time>2022-06-19T06:30:20Z</time>
      </trkpt>
      <trkpt lat="42.6262860" lon="-8.6445310">
        <ele>56.6</ele>
        <time>2022-06-19T06:30:21Z</time>
      </trkpt>
      <trkpt lat="42.6263280" lon="-8.6445660">
        <ele>56.6</ele>
        <time>2022-06-19T06:30:22Z</time>
      </trkpt>
      <trkpt lat="42.6263630" lon="-8.6446000">
        <ele>56.6</ele>
        <time>2022-06-19T06:30:23Z</time>
      </trkpt>
      <trkpt lat="42.6264030" lon="-8.6446310">
        <ele>56.6</ele>
        <time>2022-06-19T06:30:24Z</time>
      </trkpt>
      <trkpt lat="42.6264410" lon="-8.6446580">
        <ele>56.6</ele>
        <time>2022-06-19T06:30:25Z</time>
      </trkpt>
      <trkpt lat="42.6264710" lon="-8.6446850">
        <ele>56.6</ele>
        <time>2022-06-19T06:30:26Z</time>
      </trkpt>
      <trkpt lat="42.6265060" lon="-8.6447000">
        <ele>56.6</ele>
        <time>2022-06-19T06:30:27Z</time>
      </trkpt>
      <trkpt lat="42.6265350" lon="-8.6447210">
        <ele>56.6</ele>
        <time>2022-06-19T06:30:28Z</time>
      </trkpt>
      <trkpt lat="42.6265650" lon="-8.6447380">
        <ele>57.0</ele>
        <time>2022-06-19T06:30:29Z</time>
      </trkpt>
      <trkpt lat="42.6265860" lon="-8.6447530">
        <ele>57.0</ele>
        <time>2022-06-19T06:30:30Z</time>
      </trkpt>
      <trkpt lat="42.6266150" lon="-8.6447730">
        <ele>57.0</ele>
        <time>2022-06-19T06:30:31Z</time>
      </trkpt>
      <trkpt lat="42.6266450" lon="-8.6447780">
        <ele>57.0</ele>
        <time>2022-06-19T06:30:32Z</time>
      </trkpt>
      <trkpt lat="42.6266710" lon="-8.6447830">
        <ele>57.0</ele>
        <time>2022-06-19T06:30:33Z</time>
      </trkpt>
      <trkpt lat="42.6266960" lon="-8.6447950">
        <ele>57.0</ele>
        <time>2022-06-19T06:30:34Z</time>
      </trkpt>
      <trkpt lat="42.6267160" lon="-8.6447960">
        <ele>57.0</ele>
        <time>2022-06-19T06:30:35Z</time>
      </trkpt>
      <trkpt lat="42.6267410" lon="-8.6448060">
        <ele>57.0</ele>
        <time>2022-06-19T06:30:36Z</time>
      </trkpt>
      <trkpt lat="42.6267710" lon="-8.6448110">
        <ele>57.0</ele>
        <time>2022-06-19T06:30:37Z</time>
      </trkpt>
      <trkpt lat="42.6268050" lon="-8.6448130">
        <ele>57.0</ele>
        <time>2022-06-19T06:30:38Z</time>
      </trkpt>
      <trkpt lat="42.6268230" lon="-8.6448130">
        <ele>57.0</ele>
        <time>2022-06-19T06:30:39Z</time>
      </trkpt>
      <trkpt lat="42.6268400" lon="-8.6448110">
        <ele>57.0</ele>
        <time>2022-06-19T06:30:40Z</time>
      </trkpt>
      <trkpt lat="42.6268800" lon="-8.6448180">
        <ele>57.4</ele>
        <time>2022-06-19T06:30:41Z</time>
      </trkpt>
      <trkpt lat="42.6269060" lon="-8.6448250">
        <ele>57.6</ele>
        <time>2022-06-19T06:30:42Z</time>
      </trkpt>
      <trkpt lat="42.6269460" lon="-8.6448330">
        <ele>57.6</ele>
        <time>2022-06-19T06:30:43Z</time>
      </trkpt>
      <trkpt lat="42.6269760" lon="-8.6448500">
        <ele>57.6</ele>
        <time>2022-06-19T06:30:44Z</time>
      </trkpt>
      <trkpt lat="42.6270150" lon="-8.6448600">
        <ele>57.6</ele>
        <time>2022-06-19T06:30:45Z</time>
      </trkpt>
      <trkpt lat="42.6270600" lon="-8.6448730">
        <ele>57.6</ele>
        <time>2022-06-19T06:30:46Z</time>
      </trkpt>
      <trkpt lat="42.6271110" lon="-8.6448830">
        <ele>57.6</ele>
        <time>2022-06-19T06:30:47Z</time>
      </trkpt>
      <trkpt lat="42.6271510" lon="-8.6448960">
        <ele>57.6</ele>
        <time>2022-06-19T06:30:48Z</time>
      </trkpt>
      <trkpt lat="42.6271830" lon="-8.6448880">
        <ele>57.8</ele>
        <time>2022-06-19T06:30:49Z</time>
      </trkpt>
      <trkpt lat="42.6272130" lon="-8.6448930">
        <ele>57.8</ele>
        <time>2022-06-19T06:30:50Z</time>
      </trkpt>
      <trkpt lat="42.6272480" lon="-8.6449110">
        <ele>57.8</ele>
        <time>2022-06-19T06:30:51Z</time>
      </trkpt>
      <trkpt lat="42.6272860" lon="-8.6449300">
        <ele>57.8</ele>
        <time>2022-06-19T06:30:52Z</time>
      </trkpt>
      <trkpt lat="42.6273250" lon="-8.6449460">
        <ele>58.6</ele>
        <time>2022-06-19T06:30:53Z</time>
      </trkpt>
      <trkpt lat="42.6273680" lon="-8.6449650">
        <ele>58.6</ele>
        <time>2022-06-19T06:30:54Z</time>
      </trkpt>
      <trkpt lat="42.6274100" lon="-8.6449880">
        <ele>58.6</ele>
        <time>2022-06-19T06:30:55Z</time>
      </trkpt>
      <trkpt lat="42.6274500" lon="-8.6450030">
        <ele>58.6</ele>
        <time>2022-06-19T06:30:56Z</time>
      </trkpt>
      <trkpt lat="42.6274950" lon="-8.6450260">
        <ele>59.0</ele>
        <time>2022-06-19T06:30:57Z</time>
      </trkpt>
      <trkpt lat="42.6275380" lon="-8.6450510">
        <ele>59.2</ele>
        <time>2022-06-19T06:30:58Z</time>
      </trkpt>
      <trkpt lat="42.6275750" lon="-8.6450780">
        <ele>59.2</ele>
        <time>2022-06-19T06:30:59Z</time>
      </trkpt>
      <trkpt lat="42.6276050" lon="-8.6450910">
        <ele>59.2</ele>
        <time>2022-06-19T06:31:00Z</time>
      </trkpt>
      <trkpt lat="42.6276410" lon="-8.6451030">
        <ele>59.2</ele>
        <time>2022-06-19T06:31:01Z</time>
      </trkpt>
      <trkpt lat="42.6276750" lon="-8.6451050">
        <ele>59.2</ele>
        <time>2022-06-19T06:31:02Z</time>
      </trkpt>
      <trkpt lat="42.6277100" lon="-8.6451030">
        <ele>59.2</ele>
        <time>2022-06-19T06:31:03Z</time>
      </trkpt>
      <trkpt lat="42.6277480" lon="-8.6451030">
        <ele>59.2</ele>
        <time>2022-06-19T06:31:04Z</time>
      </trkpt>
      <trkpt lat="42.6277800" lon="-8.6451050">
        <ele>59.6</ele>
        <time>2022-06-19T06:31:05Z</time>
      </trkpt>
      <trkpt lat="42.6278100" lon="-8.6451050">
        <ele>59.8</ele>
        <time>2022-06-19T06:31:06Z</time>
      </trkpt>
      <trkpt lat="42.6278450" lon="-8.6451010">
        <ele>59.8</ele>
        <time>2022-06-19T06:31:07Z</time>
      </trkpt>
      <trkpt lat="42.6278800" lon="-8.6451010">
        <ele>59.8</ele>
        <time>2022-06-19T06:31:08Z</time>
      </trkpt>
      <trkpt lat="42.6279150" lon="-8.6451000">
        <ele>59.8</ele>
        <time>2022-06-19T06:31:09Z</time>
      </trkpt>
      <trkpt lat="42.6279410" lon="-8.6451010">
        <ele>60.2</ele>
        <time>2022-06-19T06:31:10Z</time>
      </trkpt>
      <trkpt lat="42.6279710" lon="-8.6451010">
        <ele>60.2</ele>
        <time>2022-06-19T06:31:11Z</time>
      </trkpt>
      <trkpt lat="42.6280000" lon="-8.6451000">
        <ele>60.2</ele>
        <time>2022-06-19T06:31:12Z</time>
      </trkpt>
      <trkpt lat="42.6280380" lon="-8.6450980">
        <ele>60.2</ele>
        <time>2022-06-19T06:31:13Z</time>
      </trkpt>
      <trkpt lat="42.6280710" lon="-8.6450930">
        <ele>60.2</ele>
        <time>2022-06-19T06:31:14Z</time>
      </trkpt>
      <trkpt lat="42.6281050" lon="-8.6450930">
        <ele>60.2</ele>
        <time>2022-06-19T06:31:15Z</time>
      </trkpt>
      <trkpt lat="42.6281330" lon="-8.6451030">
        <ele>60.2</ele>
        <time>2022-06-19T06:31:16Z</time>
      </trkpt>
      <trkpt lat="42.6281660" lon="-8.6451030">
        <ele>60.2</ele>
        <time>2022-06-19T06:31:17Z</time>
      </trkpt>
      <trkpt lat="42.6282050" lon="-8.6450960">
        <ele>60.6</ele>
        <time>2022-06-19T06:31:18Z</time>
      </trkpt>
      <trkpt lat="42.6282360" lon="-8.6450960">
        <ele>60.6</ele>
        <time>2022-06-19T06:31:19Z</time>
      </trkpt>
      <trkpt lat="42.6282680" lon="-8.6450930">
        <ele>60.6</ele>
        <time>2022-06-19T06:31:20Z</time>
      </trkpt>
      <trkpt lat="42.6283050" lon="-8.6450880">
        <ele>60.6</ele>
        <time>2022-06-19T06:31:21Z</time>
      </trkpt>
      <trkpt lat="42.6283400" lon="-8.6450910">
        <ele>60.8</ele>
        <time>2022-06-19T06:31:22Z</time>
      </trkpt>
      <trkpt lat="42.6283760" lon="-8.6450900">
        <ele>60.8</ele>
        <time>2022-06-19T06:31:23Z</time>
      </trkpt>
      <trkpt lat="42.6284080" lon="-8.6450860">
        <ele>60.8</ele>
        <time>2022-06-19T06:31:24Z</time>
      </trkpt>
      <trkpt lat="42.6284280" lon="-8.6450900">
        <ele>60.6</ele>
        <time>2022-06-19T06:31:25Z</time>
      </trkpt>
      <trkpt lat="42.6284560" lon="-8.6450830">
        <ele>61.0</ele>
        <time>2022-06-19T06:31:26Z</time>
      </trkpt>
      <trkpt lat="42.6284880" lon="-8.6450730">
        <ele>61.0</ele>
        <time>2022-06-19T06:31:27Z</time>
      </trkpt>
      <trkpt lat="42.6285210" lon="-8.6450660">
        <ele>61.0</ele>
        <time>2022-06-19T06:31:28Z</time>
      </trkpt>
      <trkpt lat="42.6285530" lon="-8.6450650">
        <ele>61.0</ele>
        <time>2022-06-19T06:31:29Z</time>
      </trkpt>
      <trkpt lat="42.6285810" lon="-8.6450610">
        <ele>61.2</ele>
        <time>2022-06-19T06:31:30Z</time>
      </trkpt>
      <trkpt lat="42.6286050" lon="-8.6450550">
        <ele>61.2</ele>
        <time>2022-06-19T06:31:31Z</time>
      </trkpt>
      <trkpt lat="42.6286310" lon="-8.6450450">
        <ele>61.2</ele>
        <time>2022-06-19T06:31:32Z</time>
      </trkpt>
      <trkpt lat="42.6286680" lon="-8.6450330">
        <ele>61.2</ele>
        <time>2022-06-19T06:31:33Z</time>
      </trkpt>
      <trkpt lat="42.6287030" lon="-8.6450310">
        <ele>61.4</ele>
        <time>2022-06-19T06:31:34Z</time>
      </trkpt>
      <trkpt lat="42.6287460" lon="-8.6450260">
        <ele>61.4</ele>
        <time>2022-06-19T06:31:35Z</time>
      </trkpt>
      <trkpt lat="42.6287860" lon="-8.6450180">
        <ele>61.4</ele>
        <time>2022-06-19T06:31:36Z</time>
      </trkpt>
      <trkpt lat="42.6288110" lon="-8.6449980">
        <ele>61.4</ele>
        <time>2022-06-19T06:31:37Z</time>
      </trkpt>
      <trkpt lat="42.6288550" lon="-8.6449930">
        <ele>61.6</ele>
        <time>2022-06-19T06:31:38Z</time>
      </trkpt>
      <trkpt lat="42.6288880" lon="-8.6449930">
        <ele>61.6</ele>
        <time>2022-06-19T06:31:39Z</time>
      </trkpt>
      <trkpt lat="42.6289400" lon="-8.6450130">
        <ele>61.6</ele>
        <time>2022-06-19T06:31:40Z</time>
      </trkpt>
      <trkpt lat="42.6289760" lon="-8.6450310">
        <ele>61.8</ele>
        <time>2022-06-19T06:31:41Z</time>
      </trkpt>
      <trkpt lat="42.6290130" lon="-8.6450310">
        <ele>62.0</ele>
        <time>2022-06-19T06:31:42Z</time>
      </trkpt>
      <trkpt lat="42.6290310" lon="-8.6450360">
        <ele>62.0</ele>
        <time>2022-06-19T06:31:43Z</time>
      </trkpt>
      <trkpt lat="42.6290600" lon="-8.6450380">
        <ele>62.0</ele>
        <time>2022-06-19T06:31:44Z</time>
      </trkpt>
      <trkpt lat="42.6290880" lon="-8.6450400">
        <ele>62.2</ele>
        <time>2022-06-19T06:31:45Z</time>
      </trkpt>
      <trkpt lat="42.6291130" lon="-8.6450460">
        <ele>62.4</ele>
        <time>2022-06-19T06:31:46Z</time>
      </trkpt>
      <trkpt lat="42.6291530" lon="-8.6450450">
        <ele>62.4</ele>
        <time>2022-06-19T06:31:47Z</time>
      </trkpt>
      <trkpt lat="42.6291750" lon="-8.6450500">
        <ele>62.4</ele>
        <time>2022-06-19T06:31:48Z</time>
      </trkpt>
      <trkpt lat="42.6291930" lon="-8.6450500">
        <ele>62.6</ele>
        <time>2022-06-19T06:31:49Z</time>
      </trkpt>
      <trkpt lat="42.6292050" lon="-8.6450530">
        <ele>62.8</ele>
        <time>2022-06-19T06:31:50Z</time>
      </trkpt>
      <trkpt lat="42.6292150" lon="-8.6450560">
        <ele>62.8</ele>
        <time>2022-06-19T06:31:51Z</time>
      </trkpt>
      <trkpt lat="42.6292250" lon="-8.6450550">
        <ele>62.8</ele>
        <time>2022-06-19T06:31:52Z</time>
      </trkpt>
      <trkpt lat="42.6292360" lon="-8.6450500">
        <ele>62.8</ele>
        <time>2022-06-19T06:31:53Z</time>
      </trkpt>
      <trkpt lat="42.6292360" lon="-8.6450500">
        <ele>63.0</ele>
        <time>2022-06-19T06:31:54Z</time>
      </trkpt>
      <trkpt lat="42.6296130" lon="-8.6450380">
        <ele>62.4</ele>
        <time>2022-06-19T06:35:18Z</time>
      </trkpt>
      <trkpt lat="42.6296410" lon="-8.6450310">
        <ele>62.4</ele>
        <time>2022-06-19T06:35:19Z</time>
      </trkpt>
      <trkpt lat="42.6296650" lon="-8.6450300">
        <ele>62.4</ele>
        <time>2022-06-19T06:35:20Z</time>
      </trkpt>
      <trkpt lat="42.6296910" lon="-8.6450250">
        <ele>62.4</ele>
        <time>2022-06-19T06:35:21Z</time>
      </trkpt>
      <trkpt lat="42.6297150" lon="-8.6450160">
        <ele>62.2</ele>
        <time>2022-06-19T06:35:22Z</time>
      </trkpt>
      <trkpt lat="42.6297500" lon="-8.6450080">
        <ele>62.2</ele>
        <time>2022-06-19T06:35:23Z</time>
      </trkpt>
      <trkpt lat="42.6297760" lon="-8.6450010">
        <ele>62.2</ele>
        <time>2022-06-19T06:35:24Z</time>
      </trkpt>
      <trkpt lat="42.6298030" lon="-8.6449830">
        <ele>62.2</ele>
        <time>2022-06-19T06:35:25Z</time>
      </trkpt>
      <trkpt lat="42.6298260" lon="-8.6449650">
        <ele>62.2</ele>
        <time>2022-06-19T06:35:26Z</time>
      </trkpt>
      <trkpt lat="42.6298500" lon="-8.6449480">
        <ele>62.2</ele>
        <time>2022-06-19T06:35:27Z</time>
      </trkpt>
      <trkpt lat="42.6298830" lon="-8.6449430">
        <ele>62.2</ele>
        <time>2022-06-19T06:35:28Z</time>
      </trkpt>
      <trkpt lat="42.6299150" lon="-8.6449360">
        <ele>61.6</ele>
        <time>2022-06-19T06:35:29Z</time>
      </trkpt>
      <trkpt lat="42.6299450" lon="-8.6449310">
        <ele>61.6</ele>
        <time>2022-06-19T06:35:30Z</time>
      </trkpt>
      <trkpt lat="42.6299810" lon="-8.6449210">
        <ele>61.6</ele>
        <time>2022-06-19T06:35:31Z</time>
      </trkpt>
      <trkpt lat="42.6300100" lon="-8.6449180">
        <ele>61.6</ele>
        <time>2022-06-19T06:35:32Z</time>
      </trkpt>
      <trkpt lat="42.6300460" lon="-8.6449100">
        <ele>61.2</ele>
        <time>2022-06-19T06:35:33Z</time>
      </trkpt>
      <trkpt lat="42.6300880" lon="-8.6449000">
        <ele>61.0</ele>
        <time>2022-06-19T06:35:34Z</time>
      </trkpt>
      <trkpt lat="42.6301450" lon="-8.6448830">
        <ele>61.0</ele>
        <time>2022-06-19T06:35:35Z</time>
      </trkpt>
      <trkpt lat="42.6301860" lon="-8.6448650">
        <ele>61.0</ele>
        <time>2022-06-19T06:35:36Z</time>
      </trkpt>
      <trkpt lat="42.6302300" lon="-8.6448510">
        <ele>60.6</ele>
        <time>2022-06-19T06:35:37Z</time>
      </trkpt>
      <trkpt lat="42.6302730" lon="-8.6448500">
        <ele>60.8</ele>
        <time>2022-06-19T06:35:38Z</time>
      </trkpt>
      <trkpt lat="42.6303060" lon="-8.6448510">
        <ele>60.8</ele>
        <time>2022-06-19T06:35:39Z</time>
      </trkpt>
      <trkpt lat="42.6303460" lon="-8.6448510">
        <ele>60.8</ele>
        <time>2022-06-19T06:35:40Z</time>
      </trkpt>
      <trkpt lat="42.6303860" lon="-8.6448380">
        <ele>60.8</ele>
        <time>2022-06-19T06:35:41Z</time>
      </trkpt>
      <trkpt lat="42.6304160" lon="-8.6448200">
        <ele>61.6</ele>
        <time>2022-06-19T06:35:42Z</time>
      </trkpt>
      <trkpt lat="42.6304550" lon="-8.6448000">
        <ele>61.6</ele>
        <time>2022-06-19T06:35:43Z</time>
      </trkpt>
      <trkpt lat="42.6304950" lon="-8.6447760">
        <ele>61.6</ele>
        <time>2022-06-19T06:35:44Z</time>
      </trkpt>
      <trkpt lat="42.6305350" lon="-8.6447600">
        <ele>61.6</ele>
        <time>2022-06-19T06:35:45Z</time>
      </trkpt>
      <trkpt lat="42.6305710" lon="-8.6447380">
        <ele>61.8</ele>
        <time>2022-06-19T06:35:46Z</time>
      </trkpt>
      <trkpt lat="42.6306080" lon="-8.6447230">
        <ele>61.8</ele>
        <time>2022-06-19T06:35:47Z</time>
      </trkpt>
      <trkpt lat="42.6306450" lon="-8.6447210">
        <ele>61.8</ele>
        <time>2022-06-19T06:35:48Z</time>
      </trkpt>
      <trkpt lat="42.6306800" lon="-8.6447080">
        <ele>61.8</ele>
        <time>2022-06-19T06:35:49Z</time>
      </trkpt>
      <trkpt lat="42.6307150" lon="-8.6446950">
        <ele>62.0</ele>
        <time>2022-06-19T06:35:50Z</time>
      </trkpt>
      <trkpt lat="42.6307510" lon="-8.6446760">
        <ele>62.0</ele>
        <time>2022-06-19T06:35:51Z</time>
      </trkpt>
      <trkpt lat="42.6307880" lon="-8.6446530">
        <ele>62.0</ele>
        <time>2022-06-19T06:35:52Z</time>
      </trkpt>
      <trkpt lat="42.6308210" lon="-8.6446410">
        <ele>62.0</ele>
        <time>2022-06-19T06:35:53Z</time>
      </trkpt>
      <trkpt lat="42.6308530" lon="-8.6446200">
        <ele>61.8</ele>
        <time>2022-06-19T06:35:54Z</time>
      </trkpt>
      <trkpt lat="42.6308880" lon="-8.6446110">
        <ele>61.8</ele>
        <time>2022-06-19T06:35:55Z</time>
      </trkpt>
      <trkpt lat="42.6309210" lon="-8.6446010">
        <ele>61.8</ele>
        <time>2022-06-19T06:35:56Z</time>
      </trkpt>
      <trkpt lat="42.6309560" lon="-8.6445910">
        <ele>61.8</ele>
        <time>2022-06-19T06:35:57Z</time>
      </trkpt>
      <trkpt lat="42.6309930" lon="-8.6445860">
        <ele>62.0</ele>
        <time>2022-06-19T06:35:58Z</time>
      </trkpt>
      <trkpt lat="42.6310310" lon="-8.6445860">
        <ele>62.0</ele>
        <time>2022-06-19T06:35:59Z</time>
      </trkpt>
      <trkpt lat="42.6310680" lon="-8.6445850">
        <ele>62.0</ele>
        <time>2022-06-19T06:36:00Z</time>
      </trkpt>
      <trkpt lat="42.6311000" lon="-8.6445860">
        <ele>62.0</ele>
        <time>2022-06-19T06:36:01Z</time>
      </trkpt>
      <trkpt lat="42.6311280" lon="-8.6445860">
        <ele>62.2</ele>
        <time>2022-06-19T06:36:02Z</time>
      </trkpt>
      <trkpt lat="42.6311600" lon="-8.6445860">
        <ele>62.2</ele>
        <time>2022-06-19T06:36:03Z</time>
      </trkpt>
      <trkpt lat="42.6311810" lon="-8.6445750">
        <ele>62.2</ele>
        <time>2022-06-19T06:36:04Z</time>
      </trkpt>
      <trkpt lat="42.6312000" lon="-8.6445660">
        <ele>62.2</ele>
        <time>2022-06-19T06:36:05Z</time>
      </trkpt>
      <trkpt lat="42.6312360" lon="-8.6445560">
        <ele>61.6</ele>
        <time>2022-06-19T06:36:06Z</time>
      </trkpt>
      <trkpt lat="42.6312680" lon="-8.6445580">
        <ele>61.6</ele>
        <time>2022-06-19T06:36:07Z</time>
      </trkpt>
      <trkpt lat="42.6312910" lon="-8.6445700">
        <ele>61.6</ele>
        <time>2022-06-19T06:36:08Z</time>
      </trkpt>
      <trkpt lat="42.6313230" lon="-8.6445780">
        <ele>62.2</ele>
        <time>2022-06-19T06:36:09Z</time>
      </trkpt>
      <trkpt lat="42.6313580" lon="-8.6445750">
        <ele>62.6</ele>
        <time>2022-06-19T06:36:10Z</time>
      </trkpt>
      <trkpt lat="42.6313850" lon="-8.6445730">
        <ele>62.6</ele>
        <time>2022-06-19T06:36:11Z</time>
      </trkpt>
      <trkpt lat="42.6314210" lon="-8.6445660">
        <ele>62.6</ele>
        <time>2022-06-19T06:36:12Z</time>
      </trkpt>
      <trkpt lat="42.6314510" lon="-8.6445580">
        <ele>62.8</ele>
        <time>2022-06-19T06:36:13Z</time>
      </trkpt>
      <trkpt lat="42.6314810" lon="-8.6445510">
        <ele>63.2</ele>
        <time>2022-06-19T06:36:14Z</time>
      </trkpt>
      <trkpt lat="42.6315060" lon="-8.6445530">
        <ele>63.2</ele>
        <time>2022-06-19T06:36:15Z</time>
      </trkpt>
      <trkpt lat="42.6315380" lon="-8.6445560">
        <ele>63.2</ele>
        <time>2022-06-19T06:36:16Z</time>
      </trkpt>
      <trkpt lat="42.6315600" lon="-8.6445550">
        <ele>63.2</ele>
        <time>2022-06-19T06:36:17Z</time>
      </trkpt>
      <trkpt lat="42.6315880" lon="-8.6445500">
        <ele>63.2</ele>
        <time>2022-06-19T06:36:18Z</time>
      </trkpt>
      <trkpt lat="42.6316180" lon="-8.6445410">
        <ele>63.2</ele>
        <time>2022-06-19T06:36:19Z</time>
      </trkpt>
      <trkpt lat="42.6316550" lon="-8.6445300">
        <ele>63.2</ele>
        <time>2022-06-19T06:36:20Z</time>
      </trkpt>
      <trkpt lat="42.6316850" lon="-8.6445230">
        <ele>63.8</ele>
        <time>2022-06-19T06:36:21Z</time>
      </trkpt>
      <trkpt lat="42.6317180" lon="-8.6445200">
        <ele>63.8</ele>
        <time>2022-06-19T06:36:22Z</time>
      </trkpt>
      <trkpt lat="42.6317480" lon="-8.6445200">
        <ele>63.8</ele>
        <time>2022-06-19T06:36:23Z</time>
      </trkpt>
      <trkpt lat="42.6317810" lon="-8.6445330">
        <ele>63.8</ele>
        <time>2022-06-19T06:36:24Z</time>
      </trkpt>
      <trkpt lat="42.6318260" lon="-8.6445310">
        <ele>63.8</ele>
        <time>2022-06-19T06:36:25Z</time>
      </trkpt>
      <trkpt lat="42.6318610" lon="-8.6445460">
        <ele>64.6</ele>
        <time>2022-06-19T06:36:26Z</time>
      </trkpt>
      <trkpt lat="42.6318860" lon="-8.6445680">
        <ele>64.6</ele>
        <time>2022-06-19T06:36:27Z</time>
      </trkpt>
      <trkpt lat="42.6319030" lon="-8.6445910">
        <ele>64.6</ele>
        <time>2022-06-19T06:36:28Z</time>
      </trkpt>
      <trkpt lat="42.6319250" lon="-8.6446150">
        <ele>64.6</ele>
        <time>2022-06-19T06:36:29Z</time>
      </trkpt>
      <trkpt lat="42.6319500" lon="-8.6446400">
        <ele>64.6</ele>
        <time>2022-06-19T06:36:30Z</time>
      </trkpt>
      <trkpt lat="42.6319700" lon="-8.6446630">
        <ele>64.6</ele>
        <time>2022-06-19T06:36:31Z</time>
      </trkpt>
      <trkpt lat="42.6319910" lon="-8.6446810">
        <ele>64.6</ele>
        <time>2022-06-19T06:36:32Z</time>
      </trkpt>
      <trkpt lat="42.6320110" lon="-8.6447030">
        <ele>65.0</ele>
        <time>2022-06-19T06:36:33Z</time>
      </trkpt>
      <trkpt lat="42.6320310" lon="-8.6447260">
        <ele>65.8</ele>
        <time>2022-06-19T06:36:34Z</time>
      </trkpt>
      <trkpt lat="42.6320550" lon="-8.6447430">
        <ele>65.8</ele>
        <time>2022-06-19T06:36:35Z</time>
      </trkpt>
      <trkpt lat="42.6320760" lon="-8.6447650">
        <ele>65.8</ele>
        <time>2022-06-19T06:36:36Z</time>
      </trkpt>
      <trkpt lat="42.6320960" lon="-8.6447910">
        <ele>65.8</ele>
        <time>2022-06-19T06:36:37Z</time>
      </trkpt>
      <trkpt lat="42.6321080" lon="-8.6448080">
        <ele>66.2</ele>
        <time>2022-06-19T06:36:38Z</time>
      </trkpt>
      <trkpt lat="42.6321200" lon="-8.6448210">
        <ele>66.2</ele>
        <time>2022-06-19T06:36:39Z</time>
      </trkpt>
      <trkpt lat="42.6321360" lon="-8.6448430">
        <ele>66.2</ele>
        <time>2022-06-19T06:36:40Z</time>
      </trkpt>
      <trkpt lat="42.6321500" lon="-8.6448680">
        <ele>66.2</ele>
        <time>2022-06-19T06:36:41Z</time>
      </trkpt>
      <trkpt lat="42.6321600" lon="-8.6448900">
        <ele>66.2</ele>
        <time>2022-06-19T06:36:42Z</time>
      </trkpt>
      <trkpt lat="42.6321660" lon="-8.6449030">
        <ele>66.2</ele>
        <time>2022-06-19T06:36:43Z</time>
      </trkpt>
      <trkpt lat="42.6321780" lon="-8.6449210">
        <ele>66.2</ele>
        <time>2022-06-19T06:36:44Z</time>
      </trkpt>
      <trkpt lat="42.6321850" lon="-8.6449360">
        <ele>67.2</ele>
        <time>2022-06-19T06:36:45Z</time>
      </trkpt>
      <trkpt lat="42.6321900" lon="-8.6449400">
        <ele>66.8</ele>
        <time>2022-06-19T06:36:46Z</time>
      </trkpt>
      <trkpt lat="42.6322010" lon="-8.6449710">
        <ele>66.8</ele>
        <time>2022-06-19T06:36:47Z</time>
      </trkpt>
      <trkpt lat="42.6322150" lon="-8.6449930">
        <ele>66.8</ele>
        <time>2022-06-19T06:36:48Z</time>
      </trkpt>
      <trkpt lat="42.6322330" lon="-8.6450280">
        <ele>67.6</ele>
        <time>2022-06-19T06:36:49Z</time>
      </trkpt>
      <trkpt lat="42.6322450" lon="-8.6450530">
        <ele>66.6</ele>
        <time>2022-06-19T06:36:50Z</time>
      </trkpt>
      <trkpt lat="42.6322550" lon="-8.6450750">
        <ele>66.6</ele>
        <time>2022-06-19T06:36:51Z</time>
      </trkpt>
      <trkpt lat="42.6322650" lon="-8.6450850">
        <ele>66.6</ele>
        <time>2022-06-19T06:36:52Z</time>
      </trkpt>
      <trkpt lat="42.6322700" lon="-8.6451060">
        <ele>67.6</ele>
        <time>2022-06-19T06:36:53Z</time>
      </trkpt>
      <trkpt lat="42.6322780" lon="-8.6451260">
        <ele>68.2</ele>
        <time>2022-06-19T06:36:54Z</time>
      </trkpt>
      <trkpt lat="42.6322880" lon="-8.6451410">
        <ele>68.2</ele>
        <time>2022-06-19T06:36:55Z</time>
      </trkpt>
      <trkpt lat="42.6323080" lon="-8.6451580">
        <ele>68.2</ele>
        <time>2022-06-19T06:36:56Z</time>
      </trkpt>
      <trkpt lat="42.6323280" lon="-8.6451680">
        <ele>68.6</ele>
        <time>2022-06-19T06:36:57Z</time>
      </trkpt>
      <trkpt lat="42.6323460" lon="-8.6451780">
        <ele>69.4</ele>
        <time>2022-06-19T06:36:58Z</time>
      </trkpt>
      <trkpt lat="42.6323700" lon="-8.6451900">
        <ele>69.4</ele>
        <time>2022-06-19T06:36:59Z</time>
      </trkpt>
      <trkpt lat="42.6323830" lon="-8.6451930">
        <ele>69.4</ele>
        <time>2022-06-19T06:37:00Z</time>
      </trkpt>
      <trkpt lat="42.6323960" lon="-8.6451980">
        <ele>69.4</ele>
        <time>2022-06-19T06:37:01Z</time>
      </trkpt>
      <trkpt lat="42.6324100" lon="-8.6452010">
        <ele>70.0</ele>
        <time>2022-06-19T06:37:02Z</time>
      </trkpt>
      <trkpt lat="42.6324300" lon="-8.6452110">
        <ele>70.0</ele>
        <time>2022-06-19T06:37:03Z</time>
      </trkpt>
      <trkpt lat="42.6324430" lon="-8.6452210">
        <ele>70.0</ele>
        <time>2022-06-19T06:37:04Z</time>
      </trkpt>
      <trkpt lat="42.6324630" lon="-8.6452330">
        <ele>70.2</ele>
        <time>2022-06-19T06:37:05Z</time>
      </trkpt>
      <trkpt lat="42.6324850" lon="-8.6452460">
        <ele>70.4</ele>
        <time>2022-06-19T06:37:06Z</time>
      </trkpt>
      <trkpt lat="42.6324980" lon="-8.6452500">
        <ele>70.4</ele>
        <time>2022-06-19T06:37:07Z</time>
      </trkpt>
      <trkpt lat="42.6325150" lon="-8.6452480">
        <ele>70.4</ele>
        <time>2022-06-19T06:37:08Z</time>
      </trkpt>
      <trkpt lat="42.6325300" lon="-8.6452500">
        <ele>70.4</ele>
        <time>2022-06-19T06:37:09Z</time>
      </trkpt>
      <trkpt lat="42.6325430" lon="-8.6452580">
        <ele>70.8</ele>
        <time>2022-06-19T06:37:10Z</time>
      </trkpt>
      <trkpt lat="42.6325650" lon="-8.6452680">
        <ele>70.8</ele>
        <time>2022-06-19T06:37:11Z</time>
      </trkpt>
      <trkpt lat="42.6325960" lon="-8.6452780">
        <ele>70.8</ele>
        <time>2022-06-19T06:37:12Z</time>
      </trkpt>
      <trkpt lat="42.6326300" lon="-8.6452800">
        <ele>70.8</ele>
        <time>2022-06-19T06:37:13Z</time>
      </trkpt>
      <trkpt lat="42.6326550" lon="-8.6452780">
        <ele>70.6</ele>
        <time>2022-06-19T06:37:14Z</time>
      </trkpt>
      <trkpt lat="42.6326910" lon="-8.6452750">
        <ele>70.6</ele>
        <time>2022-06-19T06:37:15Z</time>
      </trkpt>
      <trkpt lat="42.6327160" lon="-8.6452780">
        <ele>70.6</ele>
        <time>2022-06-19T06:37:16Z</time>
      </trkpt>
      <trkpt lat="42.6327510" lon="-8.6452910">
        <ele>71.0</ele>
        <time>2022-06-19T06:37:17Z</time>
      </trkpt>
      <trkpt lat="42.6327750" lon="-8.6452910">
        <ele>71.2</ele>
        <time>2022-06-19T06:37:18Z</time>
      </trkpt>
      <trkpt lat="42.6328080" lon="-8.6452950">
        <ele>71.2</ele>
        <time>2022-06-19T06:37:19Z</time>
      </trkpt>
      <trkpt lat="42.6328430" lon="-8.6452910">
        <ele>71.2</ele>
        <time>2022-06-19T06:37:20Z</time>
      </trkpt>
      <trkpt lat="42.6328750" lon="-8.6452960">
        <ele>71.2</ele>
        <time>2022-06-19T06:37:21Z</time>
      </trkpt>
      <trkpt lat="42.6329110" lon="-8.6453010">
        <ele>71.4</ele>
        <time>2022-06-19T06:37:22Z</time>
      </trkpt>
      <trkpt lat="42.6329400" lon="-8.6453010">
        <ele>71.4</ele>
        <time>2022-06-19T06:37:23Z</time>
      </trkpt>
      <trkpt lat="42.6329680" lon="-8.6452930">
        <ele>71.4</ele>
        <time>2022-06-19T06:37:24Z</time>
      </trkpt>
      <trkpt lat="42.6329880" lon="-8.6452830">
        <ele>71.4</ele>
        <time>2022-06-19T06:37:25Z</time>
      </trkpt>
      <trkpt lat="42.6330150" lon="-8.6452760">
        <ele>72.4</ele>
        <time>2022-06-19T06:37:26Z</time>
      </trkpt>
      <trkpt lat="42.6330400" lon="-8.6452660">
        <ele>72.4</ele>
        <time>2022-06-19T06:37:27Z</time>
      </trkpt>
      <trkpt lat="42.6330660" lon="-8.6452630">
        <ele>72.4</ele>
        <time>2022-06-19T06:37:28Z</time>
      </trkpt>
      <trkpt lat="42.6330950" lon="-8.6452600">
        <ele>72.4</ele>
        <time>2022-06-19T06:37:29Z</time>
      </trkpt>
      <trkpt lat="42.6331260" lon="-8.6452550">
        <ele>72.4</ele>
        <time>2022-06-19T06:37:30Z</time>
      </trkpt>
      <trkpt lat="42.6331500" lon="-8.6452380">
        <ele>72.4</ele>
        <time>2022-06-19T06:37:31Z</time>
      </trkpt>
      <trkpt lat="42.6331660" lon="-8.6452310">
        <ele>72.4</ele>
        <time>2022-06-19T06:37:32Z</time>
      </trkpt>
      <trkpt lat="42.6331910" lon="-8.6452260">
        <ele>72.8</ele>
        <time>2022-06-19T06:37:33Z</time>
      </trkpt>
      <trkpt lat="42.6332160" lon="-8.6452000">
        <ele>73.0</ele>
        <time>2022-06-19T06:37:34Z</time>
      </trkpt>
      <trkpt lat="42.6332460" lon="-8.6451900">
        <ele>73.0</ele>
        <time>2022-06-19T06:37:35Z</time>
      </trkpt>
      <trkpt lat="42.6332750" lon="-8.6451850">
        <ele>73.0</ele>
        <time>2022-06-19T06:37:36Z</time>
      </trkpt>
      <trkpt lat="42.6333000" lon="-8.6451780">
        <ele>73.0</ele>
        <time>2022-06-19T06:37:37Z</time>
      </trkpt>
      <trkpt lat="42.6333210" lon="-8.6451750">
        <ele>73.0</ele>
        <time>2022-06-19T06:37:38Z</time>
      </trkpt>
      <trkpt lat="42.6333530" lon="-8.6451600">
        <ele>73.0</ele>
        <time>2022-06-19T06:37:39Z</time>
      </trkpt>
      <trkpt lat="42.6333900" lon="-8.6451430">
        <ele>73.0</ele>
        <time>2022-06-19T06:37:40Z</time>
      </trkpt>
      <trkpt lat="42.6334280" lon="-8.6451410">
        <ele>73.0</ele>
        <time>2022-06-19T06:37:41Z</time>
      </trkpt>
      <trkpt lat="42.6334550" lon="-8.6451280">
        <ele>73.0</ele>
        <time>2022-06-19T06:37:42Z</time>
      </trkpt>
      <trkpt lat="42.6334760" lon="-8.6451210">
        <ele>73.0</ele>
        <time>2022-06-19T06:37:43Z</time>
      </trkpt>
      <trkpt lat="42.6335080" lon="-8.6451130">
        <ele>73.0</ele>
        <time>2022-06-19T06:37:44Z</time>
      </trkpt>
      <trkpt lat="42.6335350" lon="-8.6451060">
        <ele>73.0</ele>
        <time>2022-06-19T06:37:45Z</time>
      </trkpt>
      <trkpt lat="42.6335680" lon="-8.6451150">
        <ele>73.0</ele>
        <time>2022-06-19T06:37:46Z</time>
      </trkpt>
      <trkpt lat="42.6335960" lon="-8.6451200">
        <ele>73.0</ele>
        <time>2022-06-19T06:37:47Z</time>
      </trkpt>
      <trkpt lat="42.6336260" lon="-8.6451250">
        <ele>73.0</ele>
        <time>2022-06-19T06:37:48Z</time>
      </trkpt>
      <trkpt lat="42.6336550" lon="-8.6451280">
        <ele>73.4</ele>
        <time>2022-06-19T06:37:49Z</time>
      </trkpt>
      <trkpt lat="42.6336730" lon="-8.6451250">
        <ele>73.6</ele>
        <time>2022-06-19T06:37:50Z</time>
      </trkpt>
      <trkpt lat="42.6337080" lon="-8.6451250">
        <ele>73.6</ele>
        <time>2022-06-19T06:37:51Z</time>
      </trkpt>
      <trkpt lat="42.6337380" lon="-8.6451300">
        <ele>73.6</ele>
        <time>2022-06-19T06:37:52Z</time>
      </trkpt>
      <trkpt lat="42.6337610" lon="-8.6451280">
        <ele>73.6</ele>
        <time>2022-06-19T06:37:53Z</time>
      </trkpt>
      <trkpt lat="42.6337830" lon="-8.6451260">
        <ele>73.0</ele>
        <time>2022-06-19T06:37:54Z</time>
      </trkpt>
      <trkpt lat="42.6338050" lon="-8.6451250">
        <ele>73.0</ele>
        <time>2022-06-19T06:37:55Z</time>
      </trkpt>
      <trkpt lat="42.6338260" lon="-8.6451350">
        <ele>73.0</ele>
        <time>2022-06-19T06:37:56Z</time>
      </trkpt>
      <trkpt lat="42.6338510" lon="-8.6451450">
        <ele>73.4</ele>
        <time>2022-06-19T06:37:57Z</time>
      </trkpt>
      <trkpt lat="42.6338910" lon="-8.6451380">
        <ele>73.6</ele>
        <time>2022-06-19T06:37:58Z</time>
      </trkpt>
      <trkpt lat="42.6339310" lon="-8.6451360">
        <ele>73.6</ele>
        <time>2022-06-19T06:37:59Z</time>
      </trkpt>
      <trkpt lat="42.6339610" lon="-8.6451250">
        <ele>73.6</ele>
        <time>2022-06-19T06:38:00Z</time>
      </trkpt>
      <trkpt lat="42.6339980" lon="-8.6451160">
        <ele>73.6</ele>
        <time>2022-06-19T06:38:01Z</time>
      </trkpt>
      <trkpt lat="42.6340230" lon="-8.6451100">
        <ele>73.2</ele>
        <time>2022-06-19T06:38:02Z</time>
      </trkpt>
      <trkpt lat="42.6340500" lon="-8.6451080">
        <ele>73.2</ele>
        <time>2022-06-19T06:38:03Z</time>
      </trkpt>
      <trkpt lat="42.6340750" lon="-8.6450980">
        <ele>73.2</ele>
        <time>2022-06-19T06:38:04Z</time>
      </trkpt>
      <trkpt lat="42.6341030" lon="-8.6450860">
        <ele>73.2</ele>
        <time>2022-06-19T06:38:05Z</time>
      </trkpt>
      <trkpt lat="42.6341250" lon="-8.6450750">
        <ele>73.0</ele>
        <time>2022-06-19T06:38:06Z</time>
      </trkpt>
      <trkpt lat="42.6341530" lon="-8.6450660">
        <ele>73.0</ele>
        <time>2022-06-19T06:38:07Z</time>
      </trkpt>
      <trkpt lat="42.6341810" lon="-8.6450500">
        <ele>73.0</ele>
        <time>2022-06-19T06:38:08Z</time>
      </trkpt>
      <trkpt lat="42.6342110" lon="-8.6450350">
        <ele>73.2</ele>
        <time>2022-06-19T06:38:09Z</time>
      </trkpt>
      <trkpt lat="42.6342430" lon="-8.6450250">
        <ele>73.6</ele>
        <time>2022-06-19T06:38:10Z</time>
      </trkpt>
      <trkpt lat="42.6342700" lon="-8.6450110">
        <ele>73.6</ele>
        <time>2022-06-19T06:38:11Z</time>
      </trkpt>
      <trkpt lat="42.6342830" lon="-8.6449950">
        <ele>73.6</ele>
        <time>2022-06-19T06:38:12Z</time>
      </trkpt>
      <trkpt lat="42.6343010" lon="-8.6449810">
        <ele>73.6</ele>
        <time>2022-06-19T06:38:13Z</time>
      </trkpt>
      <trkpt lat="42.6343130" lon="-8.6449660">
        <ele>74.0</ele>
        <time>2022-06-19T06:38:14Z</time>
      </trkpt>
      <trkpt lat="42.6343410" lon="-8.6449650">
        <ele>74.0</ele>
        <time>2022-06-19T06:38:15Z</time>
      </trkpt>
      <trkpt lat="42.6343810" lon="-8.6449800">
        <ele>74.0</ele>
        <time>2022-06-19T06:38:16Z</time>
      </trkpt>
      <trkpt lat="42.6344110" lon="-8.6449630">
        <ele>73.4</ele>
        <time>2022-06-19T06:38:17Z</time>
      </trkpt>
      <trkpt lat="42.6344350" lon="-8.6449530">
        <ele>73.0</ele>
        <time>2022-06-19T06:38:18Z</time>
      </trkpt>
      <trkpt lat="42.6344660" lon="-8.6449500">
        <ele>73.0</ele>
        <time>2022-06-19T06:38:19Z</time>
      </trkpt>
      <trkpt lat="42.6344960" lon="-8.6449430">
        <ele>73.0</ele>
        <time>2022-06-19T06:38:20Z</time>
      </trkpt>
      <trkpt lat="42.6345300" lon="-8.6449450">
        <ele>73.0</ele>
        <time>2022-06-19T06:38:21Z</time>
      </trkpt>
      <trkpt lat="42.6345610" lon="-8.6449330">
        <ele>73.0</ele>
        <time>2022-06-19T06:38:22Z</time>
      </trkpt>
      <trkpt lat="42.6346000" lon="-8.6449250">
        <ele>73.0</ele>
        <time>2022-06-19T06:38:23Z</time>
      </trkpt>
      <trkpt lat="42.6346400" lon="-8.6449060">
        <ele>73.0</ele>
        <time>2022-06-19T06:38:24Z</time>
      </trkpt>
      <trkpt lat="42.6346730" lon="-8.6448910">
        <ele>73.0</ele>
        <time>2022-06-19T06:38:25Z</time>
      </trkpt>
      <trkpt lat="42.6347100" lon="-8.6449000">
        <ele>73.0</ele>
        <time>2022-06-19T06:38:26Z</time>
      </trkpt>
      <trkpt lat="42.6347560" lon="-8.6449030">
        <ele>73.0</ele>
        <time>2022-06-19T06:38:27Z</time>
      </trkpt>
      <trkpt lat="42.6348060" lon="-8.6448930">
        <ele>73.0</ele>
        <time>2022-06-19T06:38:28Z</time>
      </trkpt>
      <trkpt lat="42.6348530" lon="-8.6448910">
        <ele>73.0</ele>
        <time>2022-06-19T06:38:29Z</time>
      </trkpt>
      <trkpt lat="42.6348960" lon="-8.6448830">
        <ele>73.0</ele>
        <time>2022-06-19T06:38:30Z</time>
      </trkpt>
      <trkpt lat="42.6349260" lon="-8.6448780">
        <ele>73.0</ele>
        <time>2022-06-19T06:38:31Z</time>
      </trkpt>
      <trkpt lat="42.6349750" lon="-8.6448780">
        <ele>73.0</ele>
        <time>2022-06-19T06:38:32Z</time>
      </trkpt>
      <trkpt lat="42.6350080" lon="-8.6448760">
        <ele>72.4</ele>
        <time>2022-06-19T06:38:33Z</time>
      </trkpt>
      <trkpt lat="42.6350500" lon="-8.6448780">
        <ele>72.2</ele>
        <time>2022-06-19T06:38:34Z</time>
      </trkpt>
      <trkpt lat="42.6351010" lon="-8.6448730">
        <ele>72.2</ele>
        <time>2022-06-19T06:38:35Z</time>
      </trkpt>
      <trkpt lat="42.6351480" lon="-8.6448780">
        <ele>72.2</ele>
        <time>2022-06-19T06:38:36Z</time>
      </trkpt>
      <trkpt lat="42.6352060" lon="-8.6448900">
        <ele>72.8</ele>
        <time>2022-06-19T06:38:37Z</time>
      </trkpt>
      <trkpt lat="42.6352550" lon="-8.6448960">
        <ele>73.0</ele>
        <time>2022-06-19T06:38:38Z</time>
      </trkpt>
      <trkpt lat="42.6353080" lon="-8.6449050">
        <ele>73.0</ele>
        <time>2022-06-19T06:38:39Z</time>
      </trkpt>
      <trkpt lat="42.6353560" lon="-8.6449080">
        <ele>73.0</ele>
        <time>2022-06-19T06:38:40Z</time>
      </trkpt>
      <trkpt lat="42.6354030" lon="-8.6449050">
        <ele>73.0</ele>
        <time>2022-06-19T06:38:41Z</time>
      </trkpt>
      <trkpt lat="42.6354480" lon="-8.6449060">
        <ele>73.6</ele>
        <time>2022-06-19T06:38:42Z</time>
      </trkpt>
      <trkpt lat="42.6354930" lon="-8.6449100">
        <ele>73.6</ele>
        <time>2022-06-19T06:38:43Z</time>
      </trkpt>
      <trkpt lat="42.6355330" lon="-8.6449160">
        <ele>73.6</ele>
        <time>2022-06-19T06:38:44Z</time>
      </trkpt>
      <trkpt lat="42.6355950" lon="-8.6449060">
        <ele>73.6</ele>
        <time>2022-06-19T06:38:45Z</time>
      </trkpt>
      <trkpt lat="42.6356410" lon="-8.6449030">
        <ele>73.4</ele>
        <time>2022-06-19T06:38:46Z</time>
      </trkpt>
      <trkpt lat="42.6356900" lon="-8.6449030">
        <ele>73.4</ele>
        <time>2022-06-19T06:38:47Z</time>
      </trkpt>
      <trkpt lat="42.6357360" lon="-8.6449030">
        <ele>73.4</ele>
        <time>2022-06-19T06:38:48Z</time>
      </trkpt>
      <trkpt lat="42.6357700" lon="-8.6449130">
        <ele>73.4</ele>
        <time>2022-06-19T06:38:49Z</time>
      </trkpt>
      <trkpt lat="42.6358150" lon="-8.6449080">
        <ele>74.6</ele>
        <time>2022-06-19T06:38:50Z</time>
      </trkpt>
      <trkpt lat="42.6358560" lon="-8.6449060">
        <ele>74.6</ele>
        <time>2022-06-19T06:38:51Z</time>
      </trkpt>
      <trkpt lat="42.6359030" lon="-8.6448900">
        <ele>74.6</ele>
        <time>2022-06-19T06:38:52Z</time>
      </trkpt>
      <trkpt lat="42.6359460" lon="-8.6448960">
        <ele>73.6</ele>
        <time>2022-06-19T06:38:53Z</time>
      </trkpt>
      <trkpt lat="42.6359810" lon="-8.6448980">
        <ele>73.6</ele>
        <time>2022-06-19T06:38:54Z</time>
      </trkpt>
      <trkpt lat="42.6360230" lon="-8.6448960">
        <ele>73.6</ele>
        <time>2022-06-19T06:38:55Z</time>
      </trkpt>
      <trkpt lat="42.6360680" lon="-8.6448850">
        <ele>73.6</ele>
        <time>2022-06-19T06:38:56Z</time>
      </trkpt>
      <trkpt lat="42.6361110" lon="-8.6448750">
        <ele>73.6</ele>
        <time>2022-06-19T06:38:57Z</time>
      </trkpt>
      <trkpt lat="42.6361580" lon="-8.6448750">
        <ele>73.0</ele>
        <time>2022-06-19T06:38:58Z</time>
      </trkpt>
      <trkpt lat="42.6362050" lon="-8.6448750">
        <ele>73.0</ele>
        <time>2022-06-19T06:38:59Z</time>
      </trkpt>
      <trkpt lat="42.6362510" lon="-8.6448760">
        <ele>73.0</ele>
        <time>2022-06-19T06:39:00Z</time>
      </trkpt>
      <trkpt lat="42.6363010" lon="-8.6448730">
        <ele>73.0</ele>
        <time>2022-06-19T06:39:01Z</time>
      </trkpt>
      <trkpt lat="42.6363460" lon="-8.6448760">
        <ele>73.0</ele>
        <time>2022-06-19T06:39:02Z</time>
      </trkpt>
      <trkpt lat="42.6363950" lon="-8.6448800">
        <ele>73.0</ele>
        <time>2022-06-19T06:39:03Z</time>
      </trkpt>
      <trkpt lat="42.6364360" lon="-8.6448780">
        <ele>73.0</ele>
        <time>2022-06-19T06:39:04Z</time>
      </trkpt>
      <trkpt lat="42.6364780" lon="-8.6448800">
        <ele>73.0</ele>
        <time>2022-06-19T06:39:05Z</time>
      </trkpt>
      <trkpt lat="42.6365150" lon="-8.6448780">
        <ele>72.8</ele>
        <time>2022-06-19T06:39:06Z</time>
      </trkpt>
      <trkpt lat="42.6365550" lon="-8.6448800">
        <ele>72.8</ele>
        <time>2022-06-19T06:39:07Z</time>
      </trkpt>
      <trkpt lat="42.6365980" lon="-8.6448830">
        <ele>72.8</ele>
        <time>2022-06-19T06:39:08Z</time>
      </trkpt>
      <trkpt lat="42.6366380" lon="-8.6448800">
        <ele>72.8</ele>
        <time>2022-06-19T06:39:09Z</time>
      </trkpt>
      <trkpt lat="42.6366800" lon="-8.6448810">
        <ele>72.4</ele>
        <time>2022-06-19T06:39:10Z</time>
      </trkpt>
      <trkpt lat="42.6367200" lon="-8.6448780">
        <ele>72.4</ele>
        <time>2022-06-19T06:39:11Z</time>
      </trkpt>
      <trkpt lat="42.6367460" lon="-8.6448680">
        <ele>72.4</ele>
        <time>2022-06-19T06:39:12Z</time>
      </trkpt>
      <trkpt lat="42.6367800" lon="-8.6448680">
        <ele>73.4</ele>
        <time>2022-06-19T06:39:13Z</time>
      </trkpt>
      <trkpt lat="42.6368060" lon="-8.6448680">
        <ele>73.8</ele>
        <time>2022-06-19T06:39:14Z</time>
      </trkpt>
      <trkpt lat="42.6368310" lon="-8.6448700">
        <ele>73.8</ele>
        <time>2022-06-19T06:39:15Z</time>
      </trkpt>
      <trkpt lat="42.6368480" lon="-8.6448700">
        <ele>73.8</ele>
        <time>2022-06-19T06:39:16Z</time>
      </trkpt>
      <trkpt lat="42.6368660" lon="-8.6448700">
        <ele>73.8</ele>
        <time>2022-06-19T06:39:17Z</time>
      </trkpt>
      <trkpt lat="42.6368830" lon="-8.6448700">
        <ele>73.2</ele>
        <time>2022-06-19T06:39:18Z</time>
      </trkpt>
      <trkpt lat="42.6369000" lon="-8.6448680">
        <ele>73.2</ele>
        <time>2022-06-19T06:39:19Z</time>
      </trkpt>
      <trkpt lat="42.6369230" lon="-8.6448600">
        <ele>73.2</ele>
        <time>2022-06-19T06:39:20Z</time>
      </trkpt>
      <trkpt lat="42.6369450" lon="-8.6448460">
        <ele>73.2</ele>
        <time>2022-06-19T06:39:21Z</time>
      </trkpt>
      <trkpt lat="42.6369700" lon="-8.6448280">
        <ele>73.0</ele>
        <time>2022-06-19T06:39:22Z</time>
      </trkpt>
      <trkpt lat="42.6369980" lon="-8.6448080">
        <ele>73.0</ele>
        <time>2022-06-19T06:39:23Z</time>
      </trkpt>
      <trkpt lat="42.6370350" lon="-8.6447860">
        <ele>73.0</ele>
        <time>2022-06-19T06:39:24Z</time>
      </trkpt>
      <trkpt lat="42.6370710" lon="-8.6447580">
        <ele>73.8</ele>
        <time>2022-06-19T06:39:25Z</time>
      </trkpt>
      <trkpt lat="42.6371100" lon="-8.6447310">
        <ele>73.8</ele>
        <time>2022-06-19T06:39:26Z</time>
      </trkpt>
      <trkpt lat="42.6371510" lon="-8.6447060">
        <ele>73.8</ele>
        <time>2022-06-19T06:39:27Z</time>
      </trkpt>
      <trkpt lat="42.6371910" lon="-8.6446850">
        <ele>73.8</ele>
        <time>2022-06-19T06:39:28Z</time>
      </trkpt>
      <trkpt lat="42.6372330" lon="-8.6446680">
        <ele>73.8</ele>
        <time>2022-06-19T06:39:29Z</time>
      </trkpt>
      <trkpt lat="42.6372750" lon="-8.6446550">
        <ele>73.2</ele>
        <time>2022-06-19T06:39:30Z</time>
      </trkpt>
      <trkpt lat="42.6373150" lon="-8.6446450">
        <ele>73.2</ele>
        <time>2022-06-19T06:39:31Z</time>
      </trkpt>
      <trkpt lat="42.6373510" lon="-8.6446360">
        <ele>73.2</ele>
        <time>2022-06-19T06:39:32Z</time>
      </trkpt>
      <trkpt lat="42.6373910" lon="-8.6446300">
        <ele>74.2</ele>
        <time>2022-06-19T06:39:33Z</time>
      </trkpt>
      <trkpt lat="42.6374310" lon="-8.6446200">
        <ele>74.4</ele>
        <time>2022-06-19T06:39:34Z</time>
      </trkpt>
      <trkpt lat="42.6374700" lon="-8.6446200">
        <ele>74.4</ele>
        <time>2022-06-19T06:39:35Z</time>
      </trkpt>
      <trkpt lat="42.6375050" lon="-8.6446230">
        <ele>74.4</ele>
        <time>2022-06-19T06:39:36Z</time>
      </trkpt>
      <trkpt lat="42.6375300" lon="-8.6446330">
        <ele>75.2</ele>
        <time>2022-06-19T06:39:37Z</time>
      </trkpt>
      <trkpt lat="42.6375580" lon="-8.6446430">
        <ele>75.0</ele>
        <time>2022-06-19T06:39:38Z</time>
      </trkpt>
      <trkpt lat="42.6375860" lon="-8.6446510">
        <ele>75.0</ele>
        <time>2022-06-19T06:39:39Z</time>
      </trkpt>
      <trkpt lat="42.6376110" lon="-8.6446580">
        <ele>75.0</ele>
        <time>2022-06-19T06:39:40Z</time>
      </trkpt>
      <trkpt lat="42.6376400" lon="-8.6446650">
        <ele>75.0</ele>
        <time>2022-06-19T06:39:41Z</time>
      </trkpt>
      <trkpt lat="42.6376650" lon="-8.6446760">
        <ele>75.6</ele>
        <time>2022-06-19T06:39:42Z</time>
      </trkpt>
      <trkpt lat="42.6376860" lon="-8.6446800">
        <ele>75.6</ele>
        <time>2022-06-19T06:39:43Z</time>
      </trkpt>
      <trkpt lat="42.6377110" lon="-8.6446800">
        <ele>75.6</ele>
        <time>2022-06-19T06:39:44Z</time>
      </trkpt>
      <trkpt lat="42.6377360" lon="-8.6446800">
        <ele>75.6</ele>
        <time>2022-06-19T06:39:45Z</time>
      </trkpt>
      <trkpt lat="42.6377580" lon="-8.6446830">
        <ele>76.0</ele>
        <time>2022-06-19T06:39:46Z</time>
      </trkpt>
      <trkpt lat="42.6377830" lon="-8.6446860">
        <ele>76.0</ele>
        <time>2022-06-19T06:39:47Z</time>
      </trkpt>
      <trkpt lat="42.6378000" lon="-8.6446850">
        <ele>76.0</ele>
        <time>2022-06-19T06:39:48Z</time>
      </trkpt>
      <trkpt lat="42.6378110" lon="-8.6446750">
        <ele>76.4</ele>
        <time>2022-06-19T06:39:49Z</time>
      </trkpt>
      <trkpt lat="42.6378280" lon="-8.6446710">
        <ele>76.2</ele>
        <time>2022-06-19T06:39:50Z</time>
      </trkpt>
      <trkpt lat="42.6378450" lon="-8.6446800">
        <ele>76.2</ele>
        <time>2022-06-19T06:39:51Z</time>
      </trkpt>
      <trkpt lat="42.6378680" lon="-8.6446780">
        <ele>76.2</ele>
        <time>2022-06-19T06:39:52Z</time>
      </trkpt>
      <trkpt lat="42.6378910" lon="-8.6446710">
        <ele>76.2</ele>
        <time>2022-06-19T06:39:53Z</time>
      </trkpt>
      <trkpt lat="42.6379080" lon="-8.6446560">
        <ele>76.6</ele>
        <time>2022-06-19T06:39:54Z</time>
      </trkpt>
      <trkpt lat="42.6379230" lon="-8.6446480">
        <ele>76.6</ele>
        <time>2022-06-19T06:39:55Z</time>
      </trkpt>
      <trkpt lat="42.6379500" lon="-8.6446510">
        <ele>76.6</ele>
        <time>2022-06-19T06:39:56Z</time>
      </trkpt>
      <trkpt lat="42.6379750" lon="-8.6446500">
        <ele>76.6</ele>
        <time>2022-06-19T06:39:57Z</time>
      </trkpt>
      <trkpt lat="42.6379960" lon="-8.6446460">
        <ele>77.0</ele>
        <time>2022-06-19T06:39:58Z</time>
      </trkpt>
      <trkpt lat="42.6380130" lon="-8.6446400">
        <ele>77.0</ele>
        <time>2022-06-19T06:39:59Z</time>
      </trkpt>
      <trkpt lat="42.6380430" lon="-8.6446410">
        <ele>77.0</ele>
        <time>2022-06-19T06:40:00Z</time>
      </trkpt>
      <trkpt lat="42.6380730" lon="-8.6446500">
        <ele>78.0</ele>
        <time>2022-06-19T06:40:01Z</time>
      </trkpt>
      <trkpt lat="42.6380950" lon="-8.6446450">
        <ele>77.2</ele>
        <time>2022-06-19T06:40:02Z</time>
      </trkpt>
      <trkpt lat="42.6381130" lon="-8.6446450">
        <ele>77.2</ele>
        <time>2022-06-19T06:40:03Z</time>
      </trkpt>
      <trkpt lat="42.6381410" lon="-8.6446380">
        <ele>77.2</ele>
        <time>2022-06-19T06:40:04Z</time>
      </trkpt>
      <trkpt lat="42.6381530" lon="-8.6446300">
        <ele>77.2</ele>
        <time>2022-06-19T06:40:05Z</time>
      </trkpt>
      <trkpt lat="42.6381710" lon="-8.6446230">
        <ele>77.4</ele>
        <time>2022-06-19T06:40:06Z</time>
      </trkpt>
      <trkpt lat="42.6381960" lon="-8.6446200">
        <ele>77.4</ele>
        <time>2022-06-19T06:40:07Z</time>
      </trkpt>
      <trkpt lat="42.6382230" lon="-8.6446150">
        <ele>77.4</ele>
        <time>2022-06-19T06:40:08Z</time>
      </trkpt>
      <trkpt lat="42.6382500" lon="-8.6446100">
        <ele>77.4</ele>
        <time>2022-06-19T06:40:09Z</time>
      </trkpt>
      <trkpt lat="42.6382760" lon="-8.6446160">
        <ele>79.0</ele>
        <time>2022-06-19T06:40:10Z</time>
      </trkpt>
      <trkpt lat="42.6383150" lon="-8.6446210">
        <ele>79.0</ele>
        <time>2022-06-19T06:40:11Z</time>
      </trkpt>
      <trkpt lat="42.6383460" lon="-8.6446180">
        <ele>79.0</ele>
        <time>2022-06-19T06:40:12Z</time>
      </trkpt>
      <trkpt lat="42.6383860" lon="-8.6446160">
        <ele>78.6</ele>
        <time>2022-06-19T06:40:13Z</time>
      </trkpt>
      <trkpt lat="42.6384230" lon="-8.6446060">
        <ele>78.0</ele>
        <time>2022-06-19T06:40:14Z</time>
      </trkpt>
      <trkpt lat="42.6384560" lon="-8.6445980">
        <ele>78.0</ele>
        <time>2022-06-19T06:40:15Z</time>
      </trkpt>
      <trkpt lat="42.6384960" lon="-8.6445850">
        <ele>78.0</ele>
        <time>2022-06-19T06:40:16Z</time>
      </trkpt>
      <trkpt lat="42.6385310" lon="-8.6445700">
        <ele>79.0</ele>
        <time>2022-06-19T06:40:17Z</time>
      </trkpt>
      <trkpt lat="42.6385650" lon="-8.6445530">
        <ele>79.2</ele>
        <time>2022-06-19T06:40:18Z</time>
      </trkpt>
      <trkpt lat="42.6385950" lon="-8.6445400">
        <ele>79.2</ele>
        <time>2022-06-19T06:40:19Z</time>
      </trkpt>
      <trkpt lat="42.6386100" lon="-8.6445360">
        <ele>79.2</ele>
        <time>2022-06-19T06:40:20Z</time>
      </trkpt>
      <trkpt lat="42.6386260" lon="-8.6445300">
        <ele>79.2</ele>
        <time>2022-06-19T06:40:21Z</time>
      </trkpt>
      <trkpt lat="42.6386530" lon="-8.6445260">
        <ele>79.6</ele>
        <time>2022-06-19T06:40:22Z</time>
      </trkpt>
      <trkpt lat="42.6386760" lon="-8.6445360">
        <ele>79.6</ele>
        <time>2022-06-19T06:40:23Z</time>
      </trkpt>
      <trkpt lat="42.6386980" lon="-8.6445380">
        <ele>79.6</ele>
        <time>2022-06-19T06:40:24Z</time>
      </trkpt>
      <trkpt lat="42.6387250" lon="-8.6445400">
        <ele>79.6</ele>
        <time>2022-06-19T06:40:25Z</time>
      </trkpt>
      <trkpt lat="42.6387480" lon="-8.6445330">
        <ele>80.2</ele>
        <time>2022-06-19T06:40:26Z</time>
      </trkpt>
      <trkpt lat="42.6387860" lon="-8.6445350">
        <ele>80.2</ele>
        <time>2022-06-19T06:40:27Z</time>
      </trkpt>
      <trkpt lat="42.6388200" lon="-8.6445350">
        <ele>80.2</ele>
        <time>2022-06-19T06:40:28Z</time>
      </trkpt>
      <trkpt lat="42.6388480" lon="-8.6445360">
        <ele>81.2</ele>
        <time>2022-06-19T06:40:29Z</time>
      </trkpt>
      <trkpt lat="42.6388600" lon="-8.6445260">
        <ele>81.0</ele>
        <time>2022-06-19T06:40:30Z</time>
      </trkpt>
      <trkpt lat="42.6388950" lon="-8.6445180">
        <ele>81.0</ele>
        <time>2022-06-19T06:40:31Z</time>
      </trkpt>
      <trkpt lat="42.6389200" lon="-8.6445110">
        <ele>81.0</ele>
        <time>2022-06-19T06:40:32Z</time>
      </trkpt>
      <trkpt lat="42.6389530" lon="-8.6444930">
        <ele>81.0</ele>
        <time>2022-06-19T06:40:33Z</time>
      </trkpt>
      <trkpt lat="42.6390030" lon="-8.6444630">
        <ele>81.6</ele>
        <time>2022-06-19T06:40:34Z</time>
      </trkpt>
      <trkpt lat="42.6390300" lon="-8.6444360">
        <ele>81.6</ele>
        <time>2022-06-19T06:40:35Z</time>
      </trkpt>
      <trkpt lat="42.6390550" lon="-8.6444110">
        <ele>81.6</ele>
        <time>2022-06-19T06:40:36Z</time>
      </trkpt>
      <trkpt lat="42.6390850" lon="-8.6443960">
        <ele>81.6</ele>
        <time>2022-06-19T06:40:37Z</time>
      </trkpt>
      <trkpt lat="42.6391310" lon="-8.6443760">
        <ele>81.8</ele>
        <time>2022-06-19T06:40:38Z</time>
      </trkpt>
      <trkpt lat="42.6391680" lon="-8.6443600">
        <ele>81.8</ele>
        <time>2022-06-19T06:40:39Z</time>
      </trkpt>
      <trkpt lat="42.6391960" lon="-8.6443530">
        <ele>81.8</ele>
        <time>2022-06-19T06:40:40Z</time>
      </trkpt>
      <trkpt lat="42.6392210" lon="-8.6443380">
        <ele>81.8</ele>
        <time>2022-06-19T06:40:41Z</time>
      </trkpt>
      <trkpt lat="42.6392530" lon="-8.6443160">
        <ele>82.0</ele>
        <time>2022-06-19T06:40:42Z</time>
      </trkpt>
      <trkpt lat="42.6392980" lon="-8.6442960">
        <ele>82.0</ele>
        <time>2022-06-19T06:40:43Z</time>
      </trkpt>
      <trkpt lat="42.6393330" lon="-8.6442730">
        <ele>82.0</ele>
        <time>2022-06-19T06:40:44Z</time>
      </trkpt>
      <trkpt lat="42.6393850" lon="-8.6442500">
        <ele>82.0</ele>
        <time>2022-06-19T06:40:45Z</time>
      </trkpt>
      <trkpt lat="42.6394210" lon="-8.6442360">
        <ele>83.2</ele>
        <time>2022-06-19T06:40:46Z</time>
      </trkpt>
      <trkpt lat="42.6394500" lon="-8.6442100">
        <ele>83.2</ele>
        <time>2022-06-19T06:40:47Z</time>
      </trkpt>
      <trkpt lat="42.6394810" lon="-8.6441800">
        <ele>83.2</ele>
        <time>2022-06-19T06:40:48Z</time>
      </trkpt>
      <trkpt lat="42.6395150" lon="-8.6441560">
        <ele>83.2</ele>
        <time>2022-06-19T06:40:49Z</time>
      </trkpt>
      <trkpt lat="42.6395480" lon="-8.6441330">
        <ele>83.8</ele>
        <time>2022-06-19T06:40:50Z</time>
      </trkpt>
      <trkpt lat="42.6395750" lon="-8.6441050">
        <ele>83.8</ele>
        <time>2022-06-19T06:40:51Z</time>
      </trkpt>
      <trkpt lat="42.6396000" lon="-8.6440750">
        <ele>83.8</ele>
        <time>2022-06-19T06:40:52Z</time>
      </trkpt>
      <trkpt lat="42.6396250" lon="-8.6440480">
        <ele>83.6</ele>
        <time>2022-06-19T06:40:53Z</time>
      </trkpt>
      <trkpt lat="42.6396510" lon="-8.6440230">
        <ele>82.8</ele>
        <time>2022-06-19T06:40:54Z</time>
      </trkpt>
      <trkpt lat="42.6396830" lon="-8.6439950">
        <ele>82.8</ele>
        <time>2022-06-19T06:40:55Z</time>
      </trkpt>
      <trkpt lat="42.6397110" lon="-8.6439610">
        <ele>82.8</ele>
        <time>2022-06-19T06:40:56Z</time>
      </trkpt>
      <trkpt lat="42.6397400" lon="-8.6439200">
        <ele>81.8</ele>
        <time>2022-06-19T06:40:57Z</time>
      </trkpt>
      <trkpt lat="42.6397660" lon="-8.6438680">
        <ele>81.2</ele>
        <time>2022-06-19T06:40:58Z</time>
      </trkpt>
      <trkpt lat="42.6397980" lon="-8.6438160">
        <ele>81.2</ele>
        <time>2022-06-19T06:40:59Z</time>
      </trkpt>
      <trkpt lat="42.6398350" lon="-8.6437700">
        <ele>81.2</ele>
        <time>2022-06-19T06:41:00Z</time>
      </trkpt>
      <trkpt lat="42.6398750" lon="-8.6437260">
        <ele>81.4</ele>
        <time>2022-06-19T06:41:01Z</time>
      </trkpt>
      <trkpt lat="42.6399210" lon="-8.6437050">
        <ele>81.4</ele>
        <time>2022-06-19T06:41:02Z</time>
      </trkpt>
      <trkpt lat="42.6399660" lon="-8.6436750">
        <ele>81.4</ele>
        <time>2022-06-19T06:41:03Z</time>
      </trkpt>
      <trkpt lat="42.6400050" lon="-8.6436430">
        <ele>81.4</ele>
        <time>2022-06-19T06:41:04Z</time>
      </trkpt>
      <trkpt lat="42.6400410" lon="-8.6436130">
        <ele>81.4</ele>
        <time>2022-06-19T06:41:05Z</time>
      </trkpt>
      <trkpt lat="42.6400760" lon="-8.6435830">
        <ele>81.6</ele>
        <time>2022-06-19T06:41:06Z</time>
      </trkpt>
      <trkpt lat="42.6401060" lon="-8.6435550">
        <ele>81.6</ele>
        <time>2022-06-19T06:41:07Z</time>
      </trkpt>
      <trkpt lat="42.6401350" lon="-8.6435350">
        <ele>81.6</ele>
        <time>2022-06-19T06:41:08Z</time>
      </trkpt>
      <trkpt lat="42.6401610" lon="-8.6435210">
        <ele>81.6</ele>
        <time>2022-06-19T06:41:09Z</time>
      </trkpt>
      <trkpt lat="42.6401930" lon="-8.6435080">
        <ele>82.0</ele>
        <time>2022-06-19T06:41:10Z</time>
      </trkpt>
      <trkpt lat="42.6402250" lon="-8.6434900">
        <ele>82.0</ele>
        <time>2022-06-19T06:41:11Z</time>
      </trkpt>
      <trkpt lat="42.6402580" lon="-8.6434710">
        <ele>82.0</ele>
        <time>2022-06-19T06:41:12Z</time>
      </trkpt>
      <trkpt lat="42.6402950" lon="-8.6434560">
        <ele>82.0</ele>
        <time>2022-06-19T06:41:13Z</time>
      </trkpt>
      <trkpt lat="42.6403280" lon="-8.6434350">
        <ele>82.4</ele>
        <time>2022-06-19T06:41:14Z</time>
      </trkpt>
      <trkpt lat="42.6403580" lon="-8.6434200">
        <ele>82.4</ele>
        <time>2022-06-19T06:41:15Z</time>
      </trkpt>
      <trkpt lat="42.6403930" lon="-8.6433980">
        <ele>82.4</ele>
        <time>2022-06-19T06:41:16Z</time>
      </trkpt>
      <trkpt lat="42.6404250" lon="-8.6433810">
        <ele>82.4</ele>
        <time>2022-06-19T06:41:17Z</time>
      </trkpt>
      <trkpt lat="42.6404580" lon="-8.6433650">
        <ele>82.8</ele>
        <time>2022-06-19T06:41:18Z</time>
      </trkpt>
      <trkpt lat="42.6404910" lon="-8.6433500">
        <ele>82.8</ele>
        <time>2022-06-19T06:41:19Z</time>
      </trkpt>
      <trkpt lat="42.6405250" lon="-8.6433360">
        <ele>82.8</ele>
        <time>2022-06-19T06:41:20Z</time>
      </trkpt>
      <trkpt lat="42.6405550" lon="-8.6433250">
        <ele>82.8</ele>
        <time>2022-06-19T06:41:21Z</time>
      </trkpt>
      <trkpt lat="42.6405830" lon="-8.6433180">
        <ele>83.4</ele>
        <time>2022-06-19T06:41:22Z</time>
      </trkpt>
      <trkpt lat="42.6406110" lon="-8.6433110">
        <ele>83.4</ele>
        <time>2022-06-19T06:41:23Z</time>
      </trkpt>
      <trkpt lat="42.6406360" lon="-8.6433010">
        <ele>83.4</ele>
        <time>2022-06-19T06:41:24Z</time>
      </trkpt>
      <trkpt lat="42.6406610" lon="-8.6432880">
        <ele>83.4</ele>
        <time>2022-06-19T06:41:25Z</time>
      </trkpt>
      <trkpt lat="42.6406860" lon="-8.6432760">
        <ele>83.8</ele>
        <time>2022-06-19T06:41:26Z</time>
      </trkpt>
      <trkpt lat="42.6407110" lon="-8.6432660">
        <ele>83.8</ele>
        <time>2022-06-19T06:41:27Z</time>
      </trkpt>
      <trkpt lat="42.6407350" lon="-8.6432600">
        <ele>83.8</ele>
        <time>2022-06-19T06:41:28Z</time>
      </trkpt>
      <trkpt lat="42.6407580" lon="-8.6432530">
        <ele>83.8</ele>
        <time>2022-06-19T06:41:29Z</time>
      </trkpt>
      <trkpt lat="42.6407810" lon="-8.6432460">
        <ele>84.2</ele>
        <time>2022-06-19T06:41:30Z</time>
      </trkpt>
      <trkpt lat="42.6408060" lon="-8.6432350">
        <ele>84.2</ele>
        <time>2022-06-19T06:41:31Z</time>
      </trkpt>
      <trkpt lat="42.6408300" lon="-8.6432230">
        <ele>84.2</ele>
        <time>2022-06-19T06:41:32Z</time>
      </trkpt>
      <trkpt lat="42.6408550" lon="-8.6432130">
        <ele>84.2</ele>
        <time>2022-06-19T06:41:33Z</time>
      </trkpt>
      <trkpt lat="42.6408760" lon="-8.6432010">
        <ele>84.8</ele>
        <time>2022-06-19T06:41:34Z</time>
      </trkpt>
      <trkpt lat="42.6409010" lon="-8.6431880">
        <ele>84.8</ele>
        <time>2022-06-19T06:41:35Z</time>
      </trkpt>
      <trkpt lat="42.6409250" lon="-8.6431810">
        <ele>84.8</ele>
        <time>2022-06-19T06:41:36Z</time>
      </trkpt>
      <trkpt lat="42.6409450" lon="-8.6431800">
        <ele>84.8</ele>
        <time>2022-06-19T06:41:37Z</time>
      </trkpt>
      <trkpt lat="42.6409600" lon="-8.6431680">
        <ele>85.4</ele>
        <time>2022-06-19T06:41:38Z</time>
      </trkpt>
      <trkpt lat="42.6409760" lon="-8.6431580">
        <ele>85.4</ele>
        <time>2022-06-19T06:41:39Z</time>
      </trkpt>
      <trkpt lat="42.6409950" lon="-8.6431480">
        <ele>85.4</ele>
        <time>2022-06-19T06:41:40Z</time>
      </trkpt>
      <trkpt lat="42.6410130" lon="-8.6431410">
        <ele>85.4</ele>
        <time>2022-06-19T06:41:41Z</time>
      </trkpt>
      <trkpt lat="42.6410280" lon="-8.6431380">
        <ele>86.4</ele>
        <time>2022-06-19T06:41:42Z</time>
      </trkpt>
      <trkpt lat="42.6410450" lon="-8.6431330">
        <ele>86.4</ele>
        <time>2022-06-19T06:41:43Z</time>
      </trkpt>
      <trkpt lat="42.6410610" lon="-8.6431300">
        <ele>86.4</ele>
        <time>2022-06-19T06:41:44Z</time>
      </trkpt>
      <trkpt lat="42.6410760" lon="-8.6431260">
        <ele>86.4</ele>
        <time>2022-06-19T06:41:45Z</time>
      </trkpt>
      <trkpt lat="42.6410950" lon="-8.6431250">
        <ele>86.8</ele>
        <time>2022-06-19T06:41:46Z</time>
      </trkpt>
      <trkpt lat="42.6411110" lon="-8.6431210">
        <ele>86.8</ele>
        <time>2022-06-19T06:41:47Z</time>
      </trkpt>
      <trkpt lat="42.6411250" lon="-8.6431260">
        <ele>86.8</ele>
        <time>2022-06-19T06:41:48Z</time>
      </trkpt>
      <trkpt lat="42.6411380" lon="-8.6431280">
        <ele>87.0</ele>
        <time>2022-06-19T06:41:49Z</time>
      </trkpt>
      <trkpt lat="42.6411530" lon="-8.6431280">
        <ele>87.0</ele>
        <time>2022-06-19T06:41:50Z</time>
      </trkpt>
      <trkpt lat="42.6411730" lon="-8.6431310">
        <ele>87.0</ele>
        <time>2022-06-19T06:41:51Z</time>
      </trkpt>
      <trkpt lat="42.6411930" lon="-8.6431350">
        <ele>87.0</ele>
        <time>2022-06-19T06:41:52Z</time>
      </trkpt>
      <trkpt lat="42.6412110" lon="-8.6431350">
        <ele>87.0</ele>
        <time>2022-06-19T06:41:53Z</time>
      </trkpt>
      <trkpt lat="42.6412310" lon="-8.6431260">
        <ele>88.0</ele>
        <time>2022-06-19T06:41:54Z</time>
      </trkpt>
      <trkpt lat="42.6412500" lon="-8.6431200">
        <ele>88.0</ele>
        <time>2022-06-19T06:41:55Z</time>
      </trkpt>
      <trkpt lat="42.6412650" lon="-8.6431150">
        <ele>88.0</ele>
        <time>2022-06-19T06:41:56Z</time>
      </trkpt>
      <trkpt lat="42.6412780" lon="-8.6431130">
        <ele>88.0</ele>
        <time>2022-06-19T06:41:57Z</time>
      </trkpt>
      <trkpt lat="42.6412900" lon="-8.6431100">
        <ele>89.0</ele>
        <time>2022-06-19T06:41:58Z</time>
      </trkpt>
      <trkpt lat="42.6413030" lon="-8.6431060">
        <ele>89.0</ele>
        <time>2022-06-19T06:41:59Z</time>
      </trkpt>
      <trkpt lat="42.6413230" lon="-8.6430980">
        <ele>89.0</ele>
        <time>2022-06-19T06:42:00Z</time>
      </trkpt>
      <trkpt lat="42.6413380" lon="-8.6430930">
        <ele>89.0</ele>
        <time>2022-06-19T06:42:01Z</time>
      </trkpt>
      <trkpt lat="42.6413630" lon="-8.6430900">
        <ele>89.2</ele>
        <time>2022-06-19T06:42:02Z</time>
      </trkpt>
      <trkpt lat="42.6413850" lon="-8.6430730">
        <ele>89.2</ele>
        <time>2022-06-19T06:42:03Z</time>
      </trkpt>
      <trkpt lat="42.6414080" lon="-8.6430600">
        <ele>89.2</ele>
        <time>2022-06-19T06:42:04Z</time>
      </trkpt>
      <trkpt lat="42.6414260" lon="-8.6430530">
        <ele>90.2</ele>
        <time>2022-06-19T06:42:05Z</time>
      </trkpt>
      <trkpt lat="42.6414430" lon="-8.6430500">
        <ele>90.2</ele>
        <time>2022-06-19T06:42:06Z</time>
      </trkpt>
      <trkpt lat="42.6414580" lon="-8.6430480">
        <ele>90.2</ele>
        <time>2022-06-19T06:42:07Z</time>
      </trkpt>
      <trkpt lat="42.6414760" lon="-8.6430410">
        <ele>90.2</ele>
        <time>2022-06-19T06:42:08Z</time>
      </trkpt>
      <trkpt lat="42.6414930" lon="-8.6430350">
        <ele>90.2</ele>
        <time>2022-06-19T06:42:09Z</time>
      </trkpt>
      <trkpt lat="42.6415080" lon="-8.6430330">
        <ele>91.0</ele>
        <time>2022-06-19T06:42:10Z</time>
      </trkpt>
      <trkpt lat="42.6415260" lon="-8.6430280">
        <ele>91.0</ele>
        <time>2022-06-19T06:42:11Z</time>
      </trkpt>
      <trkpt lat="42.6415430" lon="-8.6430200">
        <ele>91.0</ele>
        <time>2022-06-19T06:42:12Z</time>
      </trkpt>
      <trkpt lat="42.6415580" lon="-8.6430110">
        <ele>91.4</ele>
        <time>2022-06-19T06:42:13Z</time>
      </trkpt>
      <trkpt lat="42.6415760" lon="-8.6430060">
        <ele>91.6</ele>
        <time>2022-06-19T06:42:14Z</time>
      </trkpt>
      <trkpt lat="42.6415950" lon="-8.6429980">
        <ele>91.6</ele>
        <time>2022-06-19T06:42:15Z</time>
      </trkpt>
      <trkpt lat="42.6416100" lon="-8.6429960">
        <ele>91.6</ele>
        <time>2022-06-19T06:42:16Z</time>
      </trkpt>
      <trkpt lat="42.6416250" lon="-8.6429950">
        <ele>92.2</ele>
        <time>2022-06-19T06:42:17Z</time>
      </trkpt>
      <trkpt lat="42.6416410" lon="-8.6429910">
        <ele>92.8</ele>
        <time>2022-06-19T06:42:18Z</time>
      </trkpt>
      <trkpt lat="42.6416550" lon="-8.6429910">
        <ele>92.8</ele>
        <time>2022-06-19T06:42:19Z</time>
      </trkpt>
      <trkpt lat="42.6416680" lon="-8.6429930">
        <ele>92.8</ele>
        <time>2022-06-19T06:42:20Z</time>
      </trkpt>
      <trkpt lat="42.6416830" lon="-8.6429900">
        <ele>92.8</ele>
        <time>2022-06-19T06:42:21Z</time>
      </trkpt>
      <trkpt lat="42.6416950" lon="-8.6429910">
        <ele>93.2</ele>
        <time>2022-06-19T06:42:22Z</time>
      </trkpt>
      <trkpt lat="42.6417060" lon="-8.6429910">
        <ele>93.2</ele>
        <time>2022-06-19T06:42:23Z</time>
      </trkpt>
      <trkpt lat="42.6417200" lon="-8.6429900">
        <ele>93.2</ele>
        <time>2022-06-19T06:42:24Z</time>
      </trkpt>
      <trkpt lat="42.6417350" lon="-8.6429880">
        <ele>94.2</ele>
        <time>2022-06-19T06:42:25Z</time>
      </trkpt>
      <trkpt lat="42.6417500" lon="-8.6429880">
        <ele>94.6</ele>
        <time>2022-06-19T06:42:26Z</time>
      </trkpt>
      <trkpt lat="42.6417610" lon="-8.6429880">
        <ele>94.6</ele>
        <time>2022-06-19T06:42:27Z</time>
      </trkpt>
      <trkpt lat="42.6417730" lon="-8.6429880">
        <ele>94.6</ele>
        <time>2022-06-19T06:42:28Z</time>
      </trkpt>
      <trkpt lat="42.6417900" lon="-8.6429880">
        <ele>94.6</ele>
        <time>2022-06-19T06:42:29Z</time>
      </trkpt>
      <trkpt lat="42.6418010" lon="-8.6429880">
        <ele>95.0</ele>
        <time>2022-06-19T06:42:30Z</time>
      </trkpt>
      <trkpt lat="42.6418110" lon="-8.6429900">
        <ele>95.0</ele>
        <time>2022-06-19T06:42:31Z</time>
      </trkpt>
      <trkpt lat="42.6418250" lon="-8.6429930">
        <ele>95.0</ele>
        <time>2022-06-19T06:42:32Z</time>
      </trkpt>
      <trkpt lat="42.6418400" lon="-8.6429950">
        <ele>95.0</ele>
        <time>2022-06-19T06:42:33Z</time>
      </trkpt>
      <trkpt lat="42.6418550" lon="-8.6429950">
        <ele>96.0</ele>
        <time>2022-06-19T06:42:34Z</time>
      </trkpt>
      <trkpt lat="42.6418700" lon="-8.6429960">
        <ele>96.0</ele>
        <time>2022-06-19T06:42:35Z</time>
      </trkpt>
      <trkpt lat="42.6418810" lon="-8.6429960">
        <ele>96.0</ele>
        <time>2022-06-19T06:42:36Z</time>
      </trkpt>
      <trkpt lat="42.6418950" lon="-8.6429980">
        <ele>97.0</ele>
        <time>2022-06-19T06:42:37Z</time>
      </trkpt>
      <trkpt lat="42.6419050" lon="-8.6430010">
        <ele>97.0</ele>
        <time>2022-06-19T06:42:38Z</time>
      </trkpt>
      <trkpt lat="42.6419180" lon="-8.6430030">
        <ele>97.0</ele>
        <time>2022-06-19T06:42:39Z</time>
      </trkpt>
      <trkpt lat="42.6419310" lon="-8.6430050">
        <ele>97.0</ele>
        <time>2022-06-19T06:42:40Z</time>
      </trkpt>
      <trkpt lat="42.6419450" lon="-8.6430080">
        <ele>97.6</ele>
        <time>2022-06-19T06:42:41Z</time>
      </trkpt>
      <trkpt lat="42.6419580" lon="-8.6430150">
        <ele>97.6</ele>
        <time>2022-06-19T06:42:42Z</time>
      </trkpt>
      <trkpt lat="42.6419700" lon="-8.6430200">
        <ele>97.6</ele>
        <time>2022-06-19T06:42:43Z</time>
      </trkpt>
      <trkpt lat="42.6419860" lon="-8.6430250">
        <ele>97.6</ele>
        <time>2022-06-19T06:42:44Z</time>
      </trkpt>
      <trkpt lat="42.6420000" lon="-8.6430280">
        <ele>98.6</ele>
        <time>2022-06-19T06:42:45Z</time>
      </trkpt>
      <trkpt lat="42.6420130" lon="-8.6430310">
        <ele>99.6</ele>
        <time>2022-06-19T06:42:46Z</time>
      </trkpt>
      <trkpt lat="42.6420250" lon="-8.6430350">
        <ele>99.6</ele>
        <time>2022-06-19T06:42:47Z</time>
      </trkpt>
      <trkpt lat="42.6420350" lon="-8.6430380">
        <ele>99.6</ele>
        <time>2022-06-19T06:42:48Z</time>
      </trkpt>
      <trkpt lat="42.6420460" lon="-8.6430410">
        <ele>100.2</ele>
        <time>2022-06-19T06:42:49Z</time>
      </trkpt>
      <trkpt lat="42.6420600" lon="-8.6430410">
        <ele>100.2</ele>
        <time>2022-06-19T06:42:50Z</time>
      </trkpt>
      <trkpt lat="42.6420730" lon="-8.6430430">
        <ele>100.2</ele>
        <time>2022-06-19T06:42:51Z</time>
      </trkpt>
      <trkpt lat="42.6420880" lon="-8.6430450">
        <ele>100.2</ele>
        <time>2022-06-19T06:42:52Z</time>
      </trkpt>
      <trkpt lat="42.6421010" lon="-8.6430480">
        <ele>101.2</ele>
        <time>2022-06-19T06:42:53Z</time>
      </trkpt>
      <trkpt lat="42.6421150" lon="-8.6430460">
        <ele>101.6</ele>
        <time>2022-06-19T06:42:54Z</time>
      </trkpt>
      <trkpt lat="42.6421300" lon="-8.6430450">
        <ele>101.6</ele>
        <time>2022-06-19T06:42:55Z</time>
      </trkpt>
      <trkpt lat="42.6421430" lon="-8.6430400">
        <ele>101.6</ele>
        <time>2022-06-19T06:42:56Z</time>
      </trkpt>
      <trkpt lat="42.6421580" lon="-8.6430310">
        <ele>101.6</ele>
        <time>2022-06-19T06:42:57Z</time>
      </trkpt>
      <trkpt lat="42.6421710" lon="-8.6430280">
        <ele>102.6</ele>
        <time>2022-06-19T06:42:58Z</time>
      </trkpt>
      <trkpt lat="42.6421830" lon="-8.6430250">
        <ele>102.6</ele>
        <time>2022-06-19T06:42:59Z</time>
      </trkpt>
      <trkpt lat="42.6421950" lon="-8.6430210">
        <ele>102.6</ele>
        <time>2022-06-19T06:43:00Z</time>
      </trkpt>
      <trkpt lat="42.6422080" lon="-8.6430130">
        <ele>102.4</ele>
        <time>2022-06-19T06:43:01Z</time>
      </trkpt>
      <trkpt lat="42.6422180" lon="-8.6430100">
        <ele>102.6</ele>
        <time>2022-06-19T06:43:02Z</time>
      </trkpt>
      <trkpt lat="42.6422260" lon="-8.6430080">
        <ele>102.6</ele>
        <time>2022-06-19T06:43:03Z</time>
      </trkpt>
      <trkpt lat="42.6422400" lon="-8.6430100">
        <ele>102.6</ele>
        <time>2022-06-19T06:43:04Z</time>
      </trkpt>
      <trkpt lat="42.6422500" lon="-8.6430150">
        <ele>102.6</ele>
        <time>2022-06-19T06:43:05Z</time>
      </trkpt>
      <trkpt lat="42.6422630" lon="-8.6430150">
        <ele>103.0</ele>
        <time>2022-06-19T06:43:06Z</time>
      </trkpt>
      <trkpt lat="42.6422760" lon="-8.6430180">
        <ele>103.0</ele>
        <time>2022-06-19T06:43:07Z</time>
      </trkpt>
      <trkpt lat="42.6422860" lon="-8.6430230">
        <ele>103.0</ele>
        <time>2022-06-19T06:43:08Z</time>
      </trkpt>
      <trkpt lat="42.6423110" lon="-8.6430210">
        <ele>103.0</ele>
        <time>2022-06-19T06:43:09Z</time>
      </trkpt>
      <trkpt lat="42.6423310" lon="-8.6430200">
        <ele>103.4</ele>
        <time>2022-06-19T06:43:10Z</time>
      </trkpt>
      <trkpt lat="42.6423500" lon="-8.6430180">
        <ele>103.4</ele>
        <time>2022-06-19T06:43:11Z</time>
      </trkpt>
      <trkpt lat="42.6423660" lon="-8.6430160">
        <ele>103.4</ele>
        <time>2022-06-19T06:43:12Z</time>
      </trkpt>
      <trkpt lat="42.6423800" lon="-8.6430160">
        <ele>103.8</ele>
        <time>2022-06-19T06:43:13Z</time>
      </trkpt>
      <trkpt lat="42.6423950" lon="-8.6430150">
        <ele>104.2</ele>
        <time>2022-06-19T06:43:14Z</time>
      </trkpt>
      <trkpt lat="42.6424110" lon="-8.6430060">
        <ele>104.2</ele>
        <time>2022-06-19T06:43:15Z</time>
      </trkpt>
      <trkpt lat="42.6424260" lon="-8.6430030">
        <ele>104.2</ele>
        <time>2022-06-19T06:43:16Z</time>
      </trkpt>
      <trkpt lat="42.6424410" lon="-8.6430010">
        <ele>104.2</ele>
        <time>2022-06-19T06:43:17Z</time>
      </trkpt>
      <trkpt lat="42.6424600" lon="-8.6429980">
        <ele>105.0</ele>
        <time>2022-06-19T06:43:18Z</time>
      </trkpt>
      <trkpt lat="42.6424710" lon="-8.6429950">
        <ele>105.0</ele>
        <time>2022-06-19T06:43:19Z</time>
      </trkpt>
      <trkpt lat="42.6424800" lon="-8.6429980">
        <ele>105.0</ele>
        <time>2022-06-19T06:43:20Z</time>
      </trkpt>
      <trkpt lat="42.6424910" lon="-8.6430010">
        <ele>104.6</ele>
        <time>2022-06-19T06:43:21Z</time>
      </trkpt>
      <trkpt lat="42.6425080" lon="-8.6429980">
        <ele>104.8</ele>
        <time>2022-06-19T06:43:22Z</time>
      </trkpt>
      <trkpt lat="42.6425250" lon="-8.6430000">
        <ele>104.8</ele>
        <time>2022-06-19T06:43:23Z</time>
      </trkpt>
      <trkpt lat="42.6425400" lon="-8.6430050">
        <ele>104.8</ele>
        <time>2022-06-19T06:43:24Z</time>
      </trkpt>
      <trkpt lat="42.6425580" lon="-8.6430110">
        <ele>104.8</ele>
        <time>2022-06-19T06:43:25Z</time>
      </trkpt>
      <trkpt lat="42.6425730" lon="-8.6430250">
        <ele>105.0</ele>
        <time>2022-06-19T06:43:26Z</time>
      </trkpt>
      <trkpt lat="42.6425950" lon="-8.6430400">
        <ele>105.0</ele>
        <time>2022-06-19T06:43:27Z</time>
      </trkpt>
      <trkpt lat="42.6426080" lon="-8.6430550">
        <ele>105.0</ele>
        <time>2022-06-19T06:43:28Z</time>
      </trkpt>
      <trkpt lat="42.6426210" lon="-8.6430680">
        <ele>105.0</ele>
        <time>2022-06-19T06:43:29Z</time>
      </trkpt>
      <trkpt lat="42.6426310" lon="-8.6430860">
        <ele>105.4</ele>
        <time>2022-06-19T06:43:30Z</time>
      </trkpt>
      <trkpt lat="42.6426460" lon="-8.6431030">
        <ele>105.4</ele>
        <time>2022-06-19T06:43:31Z</time>
      </trkpt>
      <trkpt lat="42.6426680" lon="-8.6431230">
        <ele>105.4</ele>
        <time>2022-06-19T06:43:32Z</time>
      </trkpt>
      <trkpt lat="42.6426860" lon="-8.6431460">
        <ele>105.4</ele>
        <time>2022-06-19T06:43:33Z</time>
      </trkpt>
      <trkpt lat="42.6427060" lon="-8.6431700">
        <ele>106.4</ele>
        <time>2022-06-19T06:43:34Z</time>
      </trkpt>
      <trkpt lat="42.6427260" lon="-8.6431880">
        <ele>106.4</ele>
        <time>2022-06-19T06:43:35Z</time>
      </trkpt>
      <trkpt lat="42.6427460" lon="-8.6432180">
        <ele>106.4</ele>
        <time>2022-06-19T06:43:36Z</time>
      </trkpt>
      <trkpt lat="42.6427700" lon="-8.6432480">
        <ele>106.0</ele>
        <time>2022-06-19T06:43:37Z</time>
      </trkpt>
      <trkpt lat="42.6427930" lon="-8.6432650">
        <ele>106.4</ele>
        <time>2022-06-19T06:43:38Z</time>
      </trkpt>
      <trkpt lat="42.6428230" lon="-8.6432850">
        <ele>106.4</ele>
        <time>2022-06-19T06:43:39Z</time>
      </trkpt>
      <trkpt lat="42.6428510" lon="-8.6432960">
        <ele>106.4</ele>
        <time>2022-06-19T06:43:40Z</time>
      </trkpt>
      <trkpt lat="42.6428760" lon="-8.6433050">
        <ele>106.4</ele>
        <time>2022-06-19T06:43:41Z</time>
      </trkpt>
      <trkpt lat="42.6428930" lon="-8.6433080">
        <ele>107.0</ele>
        <time>2022-06-19T06:43:42Z</time>
      </trkpt>
      <trkpt lat="42.6429100" lon="-8.6433130">
        <ele>107.0</ele>
        <time>2022-06-19T06:43:43Z</time>
      </trkpt>
      <trkpt lat="42.6429280" lon="-8.6433160">
        <ele>107.0</ele>
        <time>2022-06-19T06:43:44Z</time>
      </trkpt>
      <trkpt lat="42.6429430" lon="-8.6433180">
        <ele>107.0</ele>
        <time>2022-06-19T06:43:45Z</time>
      </trkpt>
      <trkpt lat="42.6429560" lon="-8.6433230">
        <ele>107.4</ele>
        <time>2022-06-19T06:43:46Z</time>
      </trkpt>
      <trkpt lat="42.6429830" lon="-8.6433250">
        <ele>107.4</ele>
        <time>2022-06-19T06:43:47Z</time>
      </trkpt>
      <trkpt lat="42.6430050" lon="-8.6433250">
        <ele>107.4</ele>
        <time>2022-06-19T06:43:48Z</time>
      </trkpt>
      <trkpt lat="42.6430200" lon="-8.6433280">
        <ele>107.4</ele>
        <time>2022-06-19T06:43:49Z</time>
      </trkpt>
      <trkpt lat="42.6430380" lon="-8.6433300">
        <ele>108.4</ele>
        <time>2022-06-19T06:43:50Z</time>
      </trkpt>
      <trkpt lat="42.6430560" lon="-8.6433300">
        <ele>108.4</ele>
        <time>2022-06-19T06:43:51Z</time>
      </trkpt>
      <trkpt lat="42.6430710" lon="-8.6433330">
        <ele>108.4</ele>
        <time>2022-06-19T06:43:52Z</time>
      </trkpt>
      <trkpt lat="42.6430860" lon="-8.6433360">
        <ele>109.0</ele>
        <time>2022-06-19T06:43:53Z</time>
      </trkpt>
      <trkpt lat="42.6431060" lon="-8.6433350">
        <ele>109.4</ele>
        <time>2022-06-19T06:43:54Z</time>
      </trkpt>
      <trkpt lat="42.6431250" lon="-8.6433350">
        <ele>109.4</ele>
        <time>2022-06-19T06:43:55Z</time>
      </trkpt>
      <trkpt lat="42.6431460" lon="-8.6433330">
        <ele>109.4</ele>
        <time>2022-06-19T06:43:56Z</time>
      </trkpt>
      <trkpt lat="42.6431650" lon="-8.6433280">
        <ele>109.4</ele>
        <time>2022-06-19T06:43:57Z</time>
      </trkpt>
      <trkpt lat="42.6431850" lon="-8.6433310">
        <ele>110.2</ele>
        <time>2022-06-19T06:43:58Z</time>
      </trkpt>
      <trkpt lat="42.6432050" lon="-8.6433380">
        <ele>110.2</ele>
        <time>2022-06-19T06:43:59Z</time>
      </trkpt>
      <trkpt lat="42.6432250" lon="-8.6433400">
        <ele>110.2</ele>
        <time>2022-06-19T06:44:00Z</time>
      </trkpt>
      <trkpt lat="42.6432430" lon="-8.6433400">
        <ele>110.2</ele>
        <time>2022-06-19T06:44:01Z</time>
      </trkpt>
      <trkpt lat="42.6432610" lon="-8.6433450">
        <ele>110.8</ele>
        <time>2022-06-19T06:44:02Z</time>
      </trkpt>
      <trkpt lat="42.6432760" lon="-8.6433530">
        <ele>110.8</ele>
        <time>2022-06-19T06:44:03Z</time>
      </trkpt>
      <trkpt lat="42.6432880" lon="-8.6433600">
        <ele>110.8</ele>
        <time>2022-06-19T06:44:04Z</time>
      </trkpt>
      <trkpt lat="42.6433030" lon="-8.6433660">
        <ele>111.8</ele>
        <time>2022-06-19T06:44:05Z</time>
      </trkpt>
      <trkpt lat="42.6433130" lon="-8.6433760">
        <ele>111.6</ele>
        <time>2022-06-19T06:44:06Z</time>
      </trkpt>
      <trkpt lat="42.6433250" lon="-8.6433810">
        <ele>111.6</ele>
        <time>2022-06-19T06:44:07Z</time>
      </trkpt>
      <trkpt lat="42.6433380" lon="-8.6433860">
        <ele>111.6</ele>
        <time>2022-06-19T06:44:08Z</time>
      </trkpt>
      <trkpt lat="42.6433510" lon="-8.6433910">
        <ele>112.2</ele>
        <time>2022-06-19T06:44:09Z</time>
      </trkpt>
      <trkpt lat="42.6433660" lon="-8.6433950">
        <ele>112.8</ele>
        <time>2022-06-19T06:44:10Z</time>
      </trkpt>
      <trkpt lat="42.6433780" lon="-8.6433900">
        <ele>112.8</ele>
        <time>2022-06-19T06:44:11Z</time>
      </trkpt>
      <trkpt lat="42.6433950" lon="-8.6433910">
        <ele>112.8</ele>
        <time>2022-06-19T06:44:12Z</time>
      </trkpt>
      <trkpt lat="42.6434080" lon="-8.6433950">
        <ele>112.8</ele>
        <time>2022-06-19T06:44:13Z</time>
      </trkpt>
      <trkpt lat="42.6434250" lon="-8.6433980">
        <ele>113.2</ele>
        <time>2022-06-19T06:44:14Z</time>
      </trkpt>
      <trkpt lat="42.6434380" lon="-8.6434000">
        <ele>113.2</ele>
        <time>2022-06-19T06:44:15Z</time>
      </trkpt>
      <trkpt lat="42.6434530" lon="-8.6434000">
        <ele>113.2</ele>
        <time>2022-06-19T06:44:16Z</time>
      </trkpt>
      <trkpt lat="42.6434630" lon="-8.6434000">
        <ele>113.8</ele>
        <time>2022-06-19T06:44:17Z</time>
      </trkpt>
      <trkpt lat="42.6434750" lon="-8.6434000">
        <ele>113.8</ele>
        <time>2022-06-19T06:44:18Z</time>
      </trkpt>
      <trkpt lat="42.6434900" lon="-8.6433980">
        <ele>113.8</ele>
        <time>2022-06-19T06:44:19Z</time>
      </trkpt>
      <trkpt lat="42.6435050" lon="-8.6433980">
        <ele>113.8</ele>
        <time>2022-06-19T06:44:20Z</time>
      </trkpt>
      <trkpt lat="42.6435180" lon="-8.6433980">
        <ele>114.2</ele>
        <time>2022-06-19T06:44:21Z</time>
      </trkpt>
      <trkpt lat="42.6435310" lon="-8.6433960">
        <ele>114.4</ele>
        <time>2022-06-19T06:44:22Z</time>
      </trkpt>
      <trkpt lat="42.6435460" lon="-8.6433950">
        <ele>114.4</ele>
        <time>2022-06-19T06:44:23Z</time>
      </trkpt>
      <trkpt lat="42.6435650" lon="-8.6433930">
        <ele>114.4</ele>
        <time>2022-06-19T06:44:24Z</time>
      </trkpt>
      <trkpt lat="42.6435850" lon="-8.6433960">
        <ele>114.4</ele>
        <time>2022-06-19T06:44:25Z</time>
      </trkpt>
      <trkpt lat="42.6436080" lon="-8.6433980">
        <ele>115.0</ele>
        <time>2022-06-19T06:44:26Z</time>
      </trkpt>
      <trkpt lat="42.6436300" lon="-8.6434000">
        <ele>115.0</ele>
        <time>2022-06-19T06:44:27Z</time>
      </trkpt>
      <trkpt lat="42.6436480" lon="-8.6433980">
        <ele>115.0</ele>
        <time>2022-06-19T06:44:28Z</time>
      </trkpt>
      <trkpt lat="42.6436610" lon="-8.6433980">
        <ele>115.0</ele>
        <time>2022-06-19T06:44:29Z</time>
      </trkpt>
      <trkpt lat="42.6436760" lon="-8.6433960">
        <ele>115.0</ele>
        <time>2022-06-19T06:44:30Z</time>
      </trkpt>
      <trkpt lat="42.6436900" lon="-8.6433930">
        <ele>115.0</ele>
        <time>2022-06-19T06:44:31Z</time>
      </trkpt>
      <trkpt lat="42.6437060" lon="-8.6433880">
        <ele>115.0</ele>
        <time>2022-06-19T06:44:32Z</time>
      </trkpt>
      <trkpt lat="42.6437260" lon="-8.6433830">
        <ele>115.0</ele>
        <time>2022-06-19T06:44:33Z</time>
      </trkpt>
      <trkpt lat="42.6437450" lon="-8.6433810">
        <ele>115.4</ele>
        <time>2022-06-19T06:44:34Z</time>
      </trkpt>
      <trkpt lat="42.6437850" lon="-8.6433710">
        <ele>115.4</ele>
        <time>2022-06-19T06:44:35Z</time>
      </trkpt>
      <trkpt lat="42.6438110" lon="-8.6433650">
        <ele>115.4</ele>
        <time>2022-06-19T06:44:36Z</time>
      </trkpt>
      <trkpt lat="42.6438400" lon="-8.6433510">
        <ele>115.4</ele>
        <time>2022-06-19T06:44:37Z</time>
      </trkpt>
      <trkpt lat="42.6438610" lon="-8.6433410">
        <ele>115.8</ele>
        <time>2022-06-19T06:44:38Z</time>
      </trkpt>
      <trkpt lat="42.6438850" lon="-8.6433300">
        <ele>115.8</ele>
        <time>2022-06-19T06:44:39Z</time>
      </trkpt>
      <trkpt lat="42.6439080" lon="-8.6433210">
        <ele>115.8</ele>
        <time>2022-06-19T06:44:40Z</time>
      </trkpt>
      <trkpt lat="42.6439280" lon="-8.6433150">
        <ele>115.8</ele>
        <time>2022-06-19T06:44:41Z</time>
      </trkpt>
      <trkpt lat="42.6439480" lon="-8.6433100">
        <ele>115.8</ele>
        <time>2022-06-19T06:44:42Z</time>
      </trkpt>
      <trkpt lat="42.6439700" lon="-8.6433010">
        <ele>115.8</ele>
        <time>2022-06-19T06:44:43Z</time>
      </trkpt>
      <trkpt lat="42.6439950" lon="-8.6432910">
        <ele>115.8</ele>
        <time>2022-06-19T06:44:44Z</time>
      </trkpt>
      <trkpt lat="42.6440150" lon="-8.6432830">
        <ele>116.6</ele>
        <time>2022-06-19T06:44:45Z</time>
      </trkpt>
      <trkpt lat="42.6440360" lon="-8.6432760">
        <ele>116.4</ele>
        <time>2022-06-19T06:44:46Z</time>
      </trkpt>
      <trkpt lat="42.6440560" lon="-8.6432700">
        <ele>116.4</ele>
        <time>2022-06-19T06:44:47Z</time>
      </trkpt>
      <trkpt lat="42.6440810" lon="-8.6432650">
        <ele>116.4</ele>
        <time>2022-06-19T06:44:48Z</time>
      </trkpt>
      <trkpt lat="42.6441050" lon="-8.6432600">
        <ele>116.8</ele>
        <time>2022-06-19T06:44:49Z</time>
      </trkpt>
      <trkpt lat="42.6441300" lon="-8.6432530">
        <ele>117.0</ele>
        <time>2022-06-19T06:44:50Z</time>
      </trkpt>
      <trkpt lat="42.6441480" lon="-8.6432460">
        <ele>117.0</ele>
        <time>2022-06-19T06:44:51Z</time>
      </trkpt>
      <trkpt lat="42.6441660" lon="-8.6432410">
        <ele>117.0</ele>
        <time>2022-06-19T06:44:52Z</time>
      </trkpt>
      <trkpt lat="42.6441860" lon="-8.6432380">
        <ele>117.0</ele>
        <time>2022-06-19T06:44:53Z</time>
      </trkpt>
      <trkpt lat="42.6442080" lon="-8.6432310">
        <ele>117.2</ele>
        <time>2022-06-19T06:44:54Z</time>
      </trkpt>
      <trkpt lat="42.6442330" lon="-8.6432260">
        <ele>117.2</ele>
        <time>2022-06-19T06:44:55Z</time>
      </trkpt>
      <trkpt lat="42.6442550" lon="-8.6432180">
        <ele>117.2</ele>
        <time>2022-06-19T06:44:56Z</time>
      </trkpt>
      <trkpt lat="42.6442830" lon="-8.6432030">
        <ele>117.2</ele>
        <time>2022-06-19T06:44:57Z</time>
      </trkpt>
      <trkpt lat="42.6443030" lon="-8.6431960">
        <ele>117.6</ele>
        <time>2022-06-19T06:44:58Z</time>
      </trkpt>
      <trkpt lat="42.6443200" lon="-8.6431910">
        <ele>117.6</ele>
        <time>2022-06-19T06:44:59Z</time>
      </trkpt>
      <trkpt lat="42.6443300" lon="-8.6431950">
        <ele>117.6</ele>
        <time>2022-06-19T06:45:00Z</time>
      </trkpt>
      <trkpt lat="42.6443510" lon="-8.6431860">
        <ele>117.6</ele>
        <time>2022-06-19T06:45:01Z</time>
      </trkpt>
      <trkpt lat="42.6443730" lon="-8.6431830">
        <ele>118.0</ele>
        <time>2022-06-19T06:45:02Z</time>
      </trkpt>
      <trkpt lat="42.6443810" lon="-8.6431850">
        <ele>118.0</ele>
        <time>2022-06-19T06:45:03Z</time>
      </trkpt>
      <trkpt lat="42.6443880" lon="-8.6431860">
        <ele>118.0</ele>
        <time>2022-06-19T06:45:04Z</time>
      </trkpt>
      <trkpt lat="42.6444030" lon="-8.6431880">
        <ele>118.2</ele>
        <time>2022-06-19T06:45:05Z</time>
      </trkpt>
      <trkpt lat="42.6444210" lon="-8.6431850">
        <ele>118.4</ele>
        <time>2022-06-19T06:45:06Z</time>
      </trkpt>
      <trkpt lat="42.6444430" lon="-8.6431800">
        <ele>118.4</ele>
        <time>2022-06-19T06:45:07Z</time>
      </trkpt>
      <trkpt lat="42.6444610" lon="-8.6431800">
        <ele>118.4</ele>
        <time>2022-06-19T06:45:08Z</time>
      </trkpt>
      <trkpt lat="42.6444780" lon="-8.6431750">
        <ele>118.8</ele>
        <time>2022-06-19T06:45:09Z</time>
      </trkpt>
      <trkpt lat="42.6444910" lon="-8.6431660">
        <ele>118.8</ele>
        <time>2022-06-19T06:45:10Z</time>
      </trkpt>
      <trkpt lat="42.6445110" lon="-8.6431580">
        <ele>118.8</ele>
        <time>2022-06-19T06:45:11Z</time>
      </trkpt>
      <trkpt lat="42.6445280" lon="-8.6431550">
        <ele>118.8</ele>
        <time>2022-06-19T06:45:12Z</time>
      </trkpt>
      <trkpt lat="42.6445480" lon="-8.6431500">
        <ele>119.6</ele>
        <time>2022-06-19T06:45:13Z</time>
      </trkpt>
      <trkpt lat="42.6445700" lon="-8.6431510">
        <ele>119.6</ele>
        <time>2022-06-19T06:45:14Z</time>
      </trkpt>
      <trkpt lat="42.6445910" lon="-8.6431510">
        <ele>119.6</ele>
        <time>2022-06-19T06:45:15Z</time>
      </trkpt>
      <trkpt lat="42.6446080" lon="-8.6431550">
        <ele>119.6</ele>
        <time>2022-06-19T06:45:16Z</time>
      </trkpt>
      <trkpt lat="42.6446250" lon="-8.6431580">
        <ele>119.6</ele>
        <time>2022-06-19T06:45:17Z</time>
      </trkpt>
      <trkpt lat="42.6446450" lon="-8.6431700">
        <ele>120.6</ele>
        <time>2022-06-19T06:45:18Z</time>
      </trkpt>
      <trkpt lat="42.6446650" lon="-8.6431710">
        <ele>120.6</ele>
        <time>2022-06-19T06:45:19Z</time>
      </trkpt>
      <trkpt lat="42.6446880" lon="-8.6431780">
        <ele>120.6</ele>
        <time>2022-06-19T06:45:20Z</time>
      </trkpt>
      <trkpt lat="42.6447100" lon="-8.6431850">
        <ele>120.6</ele>
        <time>2022-06-19T06:45:21Z</time>
      </trkpt>
      <trkpt lat="42.6447310" lon="-8.6431950">
        <ele>121.0</ele>
        <time>2022-06-19T06:45:22Z</time>
      </trkpt>
      <trkpt lat="42.6447510" lon="-8.6432030">
        <ele>121.0</ele>
        <time>2022-06-19T06:45:23Z</time>
      </trkpt>
      <trkpt lat="42.6447680" lon="-8.6432100">
        <ele>121.0</ele>
        <time>2022-06-19T06:45:24Z</time>
      </trkpt>
      <trkpt lat="42.6447760" lon="-8.6432230">
        <ele>121.0</ele>
        <time>2022-06-19T06:45:25Z</time>
      </trkpt>
      <trkpt lat="42.6447910" lon="-8.6432250">
        <ele>121.8</ele>
        <time>2022-06-19T06:45:26Z</time>
      </trkpt>
      <trkpt lat="42.6448060" lon="-8.6432300">
        <ele>121.8</ele>
        <time>2022-06-19T06:45:27Z</time>
      </trkpt>
      <trkpt lat="42.6448180" lon="-8.6432410">
        <ele>121.8</ele>
        <time>2022-06-19T06:45:28Z</time>
      </trkpt>
      <trkpt lat="42.6448350" lon="-8.6432460">
        <ele>121.8</ele>
        <time>2022-06-19T06:45:29Z</time>
      </trkpt>
      <trkpt lat="42.6448510" lon="-8.6432630">
        <ele>122.8</ele>
        <time>2022-06-19T06:45:30Z</time>
      </trkpt>
      <trkpt lat="42.6448730" lon="-8.6432800">
        <ele>122.8</ele>
        <time>2022-06-19T06:45:31Z</time>
      </trkpt>
      <trkpt lat="42.6448800" lon="-8.6432980">
        <ele>122.8</ele>
        <time>2022-06-19T06:45:32Z</time>
      </trkpt>
      <trkpt lat="42.6448960" lon="-8.6433130">
        <ele>122.8</ele>
        <time>2022-06-19T06:45:33Z</time>
      </trkpt>
      <trkpt lat="42.6449080" lon="-8.6433200">
        <ele>123.2</ele>
        <time>2022-06-19T06:45:34Z</time>
      </trkpt>
      <trkpt lat="42.6449150" lon="-8.6433350">
        <ele>123.2</ele>
        <time>2022-06-19T06:45:35Z</time>
      </trkpt>
      <trkpt lat="42.6449250" lon="-8.6433510">
        <ele>123.2</ele>
        <time>2022-06-19T06:45:36Z</time>
      </trkpt>
      <trkpt lat="42.6449400" lon="-8.6433600">
        <ele>124.2</ele>
        <time>2022-06-19T06:45:37Z</time>
      </trkpt>
      <trkpt lat="42.6449530" lon="-8.6433730">
        <ele>124.4</ele>
        <time>2022-06-19T06:45:38Z</time>
      </trkpt>
      <trkpt lat="42.6449700" lon="-8.6433850">
        <ele>124.4</ele>
        <time>2022-06-19T06:45:39Z</time>
      </trkpt>
      <trkpt lat="42.6449800" lon="-8.6433900">
        <ele>124.4</ele>
        <time>2022-06-19T06:45:40Z</time>
      </trkpt>
      <trkpt lat="42.6449860" lon="-8.6433930">
        <ele>124.8</ele>
        <time>2022-06-19T06:45:41Z</time>
      </trkpt>
      <trkpt lat="42.6449960" lon="-8.6433980">
        <ele>125.2</ele>
        <time>2022-06-19T06:45:42Z</time>
      </trkpt>
      <trkpt lat="42.6450110" lon="-8.6433960">
        <ele>125.2</ele>
        <time>2022-06-19T06:45:43Z</time>
      </trkpt>
      <trkpt lat="42.6450200" lon="-8.6434030">
        <ele>125.2</ele>
        <time>2022-06-19T06:45:44Z</time>
      </trkpt>
      <trkpt lat="42.6450350" lon="-8.6434100">
        <ele>125.8</ele>
        <time>2022-06-19T06:45:45Z</time>
      </trkpt>
      <trkpt lat="42.6450450" lon="-8.6434150">
        <ele>125.6</ele>
        <time>2022-06-19T06:45:46Z</time>
      </trkpt>
      <trkpt lat="42.6450560" lon="-8.6434200">
        <ele>125.6</ele>
        <time>2022-06-19T06:45:47Z</time>
      </trkpt>
      <trkpt lat="42.6450700" lon="-8.6434210">
        <ele>125.6</ele>
        <time>2022-06-19T06:45:48Z</time>
      </trkpt>
      <trkpt lat="42.6450810" lon="-8.6434210">
        <ele>126.0</ele>
        <time>2022-06-19T06:45:49Z</time>
      </trkpt>
      <trkpt lat="42.6450930" lon="-8.6434200">
        <ele>126.6</ele>
        <time>2022-06-19T06:45:50Z</time>
      </trkpt>
      <trkpt lat="42.6451060" lon="-8.6434160">
        <ele>126.6</ele>
        <time>2022-06-19T06:45:51Z</time>
      </trkpt>
      <trkpt lat="42.6451180" lon="-8.6434130">
        <ele>126.6</ele>
        <time>2022-06-19T06:45:52Z</time>
      </trkpt>
      <trkpt lat="42.6451350" lon="-8.6434150">
        <ele>126.6</ele>
        <time>2022-06-19T06:45:53Z</time>
      </trkpt>
      <trkpt lat="42.6451460" lon="-8.6434180">
        <ele>127.4</ele>
        <time>2022-06-19T06:45:54Z</time>
      </trkpt>
      <trkpt lat="42.6451650" lon="-8.6434130">
        <ele>127.4</ele>
        <time>2022-06-19T06:45:55Z</time>
      </trkpt>
      <trkpt lat="42.6451800" lon="-8.6434130">
        <ele>127.4</ele>
        <time>2022-06-19T06:45:56Z</time>
      </trkpt>
      <trkpt lat="42.6451910" lon="-8.6434110">
        <ele>128.0</ele>
        <time>2022-06-19T06:45:57Z</time>
      </trkpt>
      <trkpt lat="42.6452060" lon="-8.6434080">
        <ele>128.2</ele>
        <time>2022-06-19T06:45:58Z</time>
      </trkpt>
      <trkpt lat="42.6452180" lon="-8.6434030">
        <ele>128.2</ele>
        <time>2022-06-19T06:45:59Z</time>
      </trkpt>
      <trkpt lat="42.6452310" lon="-8.6434010">
        <ele>128.2</ele>
        <time>2022-06-19T06:46:00Z</time>
      </trkpt>
      <trkpt lat="42.6452460" lon="-8.6434010">
        <ele>128.2</ele>
        <time>2022-06-19T06:46:01Z</time>
      </trkpt>
      <trkpt lat="42.6452610" lon="-8.6434030">
        <ele>128.4</ele>
        <time>2022-06-19T06:46:02Z</time>
      </trkpt>
      <trkpt lat="42.6452780" lon="-8.6434030">
        <ele>128.4</ele>
        <time>2022-06-19T06:46:03Z</time>
      </trkpt>
      <trkpt lat="42.6452950" lon="-8.6434030">
        <ele>128.4</ele>
        <time>2022-06-19T06:46:04Z</time>
      </trkpt>
      <trkpt lat="42.6453130" lon="-8.6434060">
        <ele>128.4</ele>
        <time>2022-06-19T06:46:05Z</time>
      </trkpt>
      <trkpt lat="42.6453360" lon="-8.6434100">
        <ele>128.6</ele>
        <time>2022-06-19T06:46:06Z</time>
      </trkpt>
      <trkpt lat="42.6453600" lon="-8.6434100">
        <ele>128.6</ele>
        <time>2022-06-19T06:46:07Z</time>
      </trkpt>
      <trkpt lat="42.6453830" lon="-8.6434100">
        <ele>128.6</ele>
        <time>2022-06-19T06:46:08Z</time>
      </trkpt>
      <trkpt lat="42.6453980" lon="-8.6434160">
        <ele>128.6</ele>
        <time>2022-06-19T06:46:09Z</time>
      </trkpt>
      <trkpt lat="42.6454160" lon="-8.6434200">
        <ele>129.6</ele>
        <time>2022-06-19T06:46:10Z</time>
      </trkpt>
      <trkpt lat="42.6454380" lon="-8.6434280">
        <ele>129.6</ele>
        <time>2022-06-19T06:46:11Z</time>
      </trkpt>
      <trkpt lat="42.6454580" lon="-8.6434380">
        <ele>129.6</ele>
        <time>2022-06-19T06:46:12Z</time>
      </trkpt>
      <trkpt lat="42.6454780" lon="-8.6434500">
        <ele>129.0</ele>
        <time>2022-06-19T06:46:13Z</time>
      </trkpt>
      <trkpt lat="42.6455000" lon="-8.6434650">
        <ele>129.0</ele>
        <time>2022-06-19T06:46:14Z</time>
      </trkpt>
      <trkpt lat="42.6455150" lon="-8.6434810">
        <ele>129.0</ele>
        <time>2022-06-19T06:46:15Z</time>
      </trkpt>
      <trkpt lat="42.6455400" lon="-8.6434930">
        <ele>129.0</ele>
        <time>2022-06-19T06:46:16Z</time>
      </trkpt>
      <trkpt lat="42.6455630" lon="-8.6435030">
        <ele>129.6</ele>
        <time>2022-06-19T06:46:17Z</time>
      </trkpt>
      <trkpt lat="42.6455860" lon="-8.6435150">
        <ele>129.4</ele>
        <time>2022-06-19T06:46:18Z</time>
      </trkpt>
      <trkpt lat="42.6456150" lon="-8.6435260">
        <ele>129.4</ele>
        <time>2022-06-19T06:46:19Z</time>
      </trkpt>
      <trkpt lat="42.6456480" lon="-8.6435380">
        <ele>129.4</ele>
        <time>2022-06-19T06:46:20Z</time>
      </trkpt>
      <trkpt lat="42.6456730" lon="-8.6435560">
        <ele>129.0</ele>
        <time>2022-06-19T06:46:21Z</time>
      </trkpt>
      <trkpt lat="42.6457030" lon="-8.6435660">
        <ele>128.6</ele>
        <time>2022-06-19T06:46:22Z</time>
      </trkpt>
      <trkpt lat="42.6457280" lon="-8.6435800">
        <ele>128.6</ele>
        <time>2022-06-19T06:46:23Z</time>
      </trkpt>
      <trkpt lat="42.6457580" lon="-8.6435900">
        <ele>128.6</ele>
        <time>2022-06-19T06:46:24Z</time>
      </trkpt>
      <trkpt lat="42.6457930" lon="-8.6435930">
        <ele>128.6</ele>
        <time>2022-06-19T06:46:25Z</time>
      </trkpt>
      <trkpt lat="42.6458480" lon="-8.6435910">
        <ele>129.2</ele>
        <time>2022-06-19T06:46:26Z</time>
      </trkpt>
      <trkpt lat="42.6458930" lon="-8.6435910">
        <ele>129.2</ele>
        <time>2022-06-19T06:46:27Z</time>
      </trkpt>
      <trkpt lat="42.6459400" lon="-8.6435900">
        <ele>129.2</ele>
        <time>2022-06-19T06:46:28Z</time>
      </trkpt>
      <trkpt lat="42.6459810" lon="-8.6435860">
        <ele>128.4</ele>
        <time>2022-06-19T06:46:29Z</time>
      </trkpt>
      <trkpt lat="42.6460260" lon="-8.6435750">
        <ele>128.6</ele>
        <time>2022-06-19T06:46:30Z</time>
      </trkpt>
      <trkpt lat="42.6460650" lon="-8.6435660">
        <ele>128.6</ele>
        <time>2022-06-19T06:46:31Z</time>
      </trkpt>
      <trkpt lat="42.6461050" lon="-8.6435630">
        <ele>128.6</ele>
        <time>2022-06-19T06:46:32Z</time>
      </trkpt>
      <trkpt lat="42.6461450" lon="-8.6435580">
        <ele>128.8</ele>
        <time>2022-06-19T06:46:33Z</time>
      </trkpt>
      <trkpt lat="42.6461850" lon="-8.6435550">
        <ele>128.8</ele>
        <time>2022-06-19T06:46:34Z</time>
      </trkpt>
      <trkpt lat="42.6462210" lon="-8.6435510">
        <ele>128.8</ele>
        <time>2022-06-19T06:46:35Z</time>
      </trkpt>
      <trkpt lat="42.6462580" lon="-8.6435510">
        <ele>128.8</ele>
        <time>2022-06-19T06:46:36Z</time>
      </trkpt>
      <trkpt lat="42.6462950" lon="-8.6435550">
        <ele>128.8</ele>
        <time>2022-06-19T06:46:37Z</time>
      </trkpt>
      <trkpt lat="42.6463300" lon="-8.6435600">
        <ele>128.6</ele>
        <time>2022-06-19T06:46:38Z</time>
      </trkpt>
      <trkpt lat="42.6463660" lon="-8.6435650">
        <ele>128.6</ele>
        <time>2022-06-19T06:46:39Z</time>
      </trkpt>
      <trkpt lat="42.6464030" lon="-8.6435700">
        <ele>128.6</ele>
        <time>2022-06-19T06:46:40Z</time>
      </trkpt>
      <trkpt lat="42.6464400" lon="-8.6435760">
        <ele>128.6</ele>
        <time>2022-06-19T06:46:41Z</time>
      </trkpt>
      <trkpt lat="42.6464750" lon="-8.6435810">
        <ele>128.8</ele>
        <time>2022-06-19T06:46:42Z</time>
      </trkpt>
      <trkpt lat="42.6465100" lon="-8.6435900">
        <ele>128.8</ele>
        <time>2022-06-19T06:46:43Z</time>
      </trkpt>
      <trkpt lat="42.6465450" lon="-8.6435980">
        <ele>128.8</ele>
        <time>2022-06-19T06:46:44Z</time>
      </trkpt>
      <trkpt lat="42.6465800" lon="-8.6436060">
        <ele>128.8</ele>
        <time>2022-06-19T06:46:45Z</time>
      </trkpt>
      <trkpt lat="42.6466150" lon="-8.6436160">
        <ele>129.0</ele>
        <time>2022-06-19T06:46:46Z</time>
      </trkpt>
      <trkpt lat="42.6466510" lon="-8.6436250">
        <ele>129.0</ele>
        <time>2022-06-19T06:46:47Z</time>
      </trkpt>
      <trkpt lat="42.6466860" lon="-8.6436360">
        <ele>129.0</ele>
        <time>2022-06-19T06:46:48Z</time>
      </trkpt>
      <trkpt lat="42.6467210" lon="-8.6436450">
        <ele>129.0</ele>
        <time>2022-06-19T06:46:49Z</time>
      </trkpt>
      <trkpt lat="42.6467560" lon="-8.6436500">
        <ele>129.4</ele>
        <time>2022-06-19T06:46:50Z</time>
      </trkpt>
      <trkpt lat="42.6467910" lon="-8.6436550">
        <ele>129.4</ele>
        <time>2022-06-19T06:46:51Z</time>
      </trkpt>
      <trkpt lat="42.6468260" lon="-8.6436630">
        <ele>129.4</ele>
        <time>2022-06-19T06:46:52Z</time>
      </trkpt>
      <trkpt lat="42.6468610" lon="-8.6436680">
        <ele>129.4</ele>
        <time>2022-06-19T06:46:53Z</time>
      </trkpt>
      <trkpt lat="42.6468930" lon="-8.6436750">
        <ele>128.8</ele>
        <time>2022-06-19T06:46:54Z</time>
      </trkpt>
      <trkpt lat="42.6469260" lon="-8.6436860">
        <ele>128.8</ele>
        <time>2022-06-19T06:46:55Z</time>
      </trkpt>
      <trkpt lat="42.6469580" lon="-8.6437000">
        <ele>128.8</ele>
        <time>2022-06-19T06:46:56Z</time>
      </trkpt>
      <trkpt lat="42.6469900" lon="-8.6437160">
        <ele>128.8</ele>
        <time>2022-06-19T06:46:57Z</time>
      </trkpt>
      <trkpt lat="42.6470200" lon="-8.6437380">
        <ele>129.4</ele>
        <time>2022-06-19T06:46:58Z</time>
      </trkpt>
      <trkpt lat="42.6470460" lon="-8.6437650">
        <ele>129.4</ele>
        <time>2022-06-19T06:46:59Z</time>
      </trkpt>
      <trkpt lat="42.6470760" lon="-8.6437900">
        <ele>129.4</ele>
        <time>2022-06-19T06:47:00Z</time>
      </trkpt>
      <trkpt lat="42.6471030" lon="-8.6438150">
        <ele>129.4</ele>
        <time>2022-06-19T06:47:01Z</time>
      </trkpt>
      <trkpt lat="42.6471310" lon="-8.6438380">
        <ele>129.8</ele>
        <time>2022-06-19T06:47:02Z</time>
      </trkpt>
      <trkpt lat="42.6471610" lon="-8.6438610">
        <ele>129.8</ele>
        <time>2022-06-19T06:47:03Z</time>
      </trkpt>
      <trkpt lat="42.6471860" lon="-8.6438910">
        <ele>129.8</ele>
        <time>2022-06-19T06:47:04Z</time>
      </trkpt>
      <trkpt lat="42.6472060" lon="-8.6439280">
        <ele>129.8</ele>
        <time>2022-06-19T06:47:05Z</time>
      </trkpt>
      <trkpt lat="42.6472260" lon="-8.6439700">
        <ele>130.2</ele>
        <time>2022-06-19T06:47:06Z</time>
      </trkpt>
      <trkpt lat="42.6472500" lon="-8.6440080">
        <ele>130.2</ele>
        <time>2022-06-19T06:47:07Z</time>
      </trkpt>
      <trkpt lat="42.6472750" lon="-8.6440430">
        <ele>130.2</ele>
        <time>2022-06-19T06:47:08Z</time>
      </trkpt>
      <trkpt lat="42.6473010" lon="-8.6440810">
        <ele>130.4</ele>
        <time>2022-06-19T06:47:09Z</time>
      </trkpt>
      <trkpt lat="42.6473250" lon="-8.6441200">
        <ele>130.6</ele>
        <time>2022-06-19T06:47:10Z</time>
      </trkpt>
      <trkpt lat="42.6473500" lon="-8.6441600">
        <ele>130.6</ele>
        <time>2022-06-19T06:47:11Z</time>
      </trkpt>
      <trkpt lat="42.6473750" lon="-8.6441960">
        <ele>130.6</ele>
        <time>2022-06-19T06:47:12Z</time>
      </trkpt>
      <trkpt lat="42.6473980" lon="-8.6442330">
        <ele>130.6</ele>
        <time>2022-06-19T06:47:13Z</time>
      </trkpt>
      <trkpt lat="42.6474250" lon="-8.6442660">
        <ele>130.6</ele>
        <time>2022-06-19T06:47:14Z</time>
      </trkpt>
      <trkpt lat="42.6474530" lon="-8.6442980">
        <ele>130.6</ele>
        <time>2022-06-19T06:47:15Z</time>
      </trkpt>
      <trkpt lat="42.6474800" lon="-8.6443300">
        <ele>130.6</ele>
        <time>2022-06-19T06:47:16Z</time>
      </trkpt>
      <trkpt lat="42.6475100" lon="-8.6443580">
        <ele>130.6</ele>
        <time>2022-06-19T06:47:17Z</time>
      </trkpt>
      <trkpt lat="42.6475400" lon="-8.6443830">
        <ele>132.0</ele>
        <time>2022-06-19T06:47:18Z</time>
      </trkpt>
      <trkpt lat="42.6475710" lon="-8.6444050">
        <ele>132.0</ele>
        <time>2022-06-19T06:47:19Z</time>
      </trkpt>
      <trkpt lat="42.6476010" lon="-8.6444300">
        <ele>132.0</ele>
        <time>2022-06-19T06:47:20Z</time>
      </trkpt>
      <trkpt lat="42.6476350" lon="-8.6444530">
        <ele>132.0</ele>
        <time>2022-06-19T06:47:21Z</time>
      </trkpt>
      <trkpt lat="42.6476660" lon="-8.6444750">
        <ele>132.4</ele>
        <time>2022-06-19T06:47:22Z</time>
      </trkpt>
      <trkpt lat="42.6476980" lon="-8.6444950">
        <ele>132.4</ele>
        <time>2022-06-19T06:47:23Z</time>
      </trkpt>
      <trkpt lat="42.6477300" lon="-8.6445200">
        <ele>132.4</ele>
        <time>2022-06-19T06:47:24Z</time>
      </trkpt>
      <trkpt lat="42.6477610" lon="-8.6445380">
        <ele>132.4</ele>
        <time>2022-06-19T06:47:25Z</time>
      </trkpt>
      <trkpt lat="42.6477930" lon="-8.6445550">
        <ele>132.4</ele>
        <time>2022-06-19T06:47:26Z</time>
      </trkpt>
      <trkpt lat="42.6478230" lon="-8.6445730">
        <ele>132.4</ele>
        <time>2022-06-19T06:47:27Z</time>
      </trkpt>
      <trkpt lat="42.6478530" lon="-8.6445950">
        <ele>132.4</ele>
        <time>2022-06-19T06:47:28Z</time>
      </trkpt>
      <trkpt lat="42.6478850" lon="-8.6446150">
        <ele>132.4</ele>
        <time>2022-06-19T06:47:29Z</time>
      </trkpt>
      <trkpt lat="42.6479200" lon="-8.6446300">
        <ele>133.0</ele>
        <time>2022-06-19T06:47:30Z</time>
      </trkpt>
      <trkpt lat="42.6479510" lon="-8.6446430">
        <ele>133.0</ele>
        <time>2022-06-19T06:47:31Z</time>
      </trkpt>
      <trkpt lat="42.6479860" lon="-8.6446530">
        <ele>133.0</ele>
        <time>2022-06-19T06:47:32Z</time>
      </trkpt>
      <trkpt lat="42.6480210" lon="-8.6446610">
        <ele>133.0</ele>
        <time>2022-06-19T06:47:33Z</time>
      </trkpt>
      <trkpt lat="42.6480560" lon="-8.6446680">
        <ele>134.0</ele>
        <time>2022-06-19T06:47:34Z</time>
      </trkpt>
      <trkpt lat="42.6480900" lon="-8.6446760">
        <ele>134.0</ele>
        <time>2022-06-19T06:47:35Z</time>
      </trkpt>
      <trkpt lat="42.6481200" lon="-8.6446810">
        <ele>134.0</ele>
        <time>2022-06-19T06:47:36Z</time>
      </trkpt>
      <trkpt lat="42.6481510" lon="-8.6446860">
        <ele>134.0</ele>
        <time>2022-06-19T06:47:37Z</time>
      </trkpt>
      <trkpt lat="42.6481810" lon="-8.6446910">
        <ele>134.0</ele>
        <time>2022-06-19T06:47:38Z</time>
      </trkpt>
      <trkpt lat="42.6482150" lon="-8.6446980">
        <ele>134.0</ele>
        <time>2022-06-19T06:47:39Z</time>
      </trkpt>
      <trkpt lat="42.6482460" lon="-8.6447050">
        <ele>134.0</ele>
        <time>2022-06-19T06:47:40Z</time>
      </trkpt>
      <trkpt lat="42.6482760" lon="-8.6447100">
        <ele>134.0</ele>
        <time>2022-06-19T06:47:41Z</time>
      </trkpt>
      <trkpt lat="42.6483060" lon="-8.6447160">
        <ele>134.8</ele>
        <time>2022-06-19T06:47:42Z</time>
      </trkpt>
      <trkpt lat="42.6483360" lon="-8.6447260">
        <ele>134.8</ele>
        <time>2022-06-19T06:47:43Z</time>
      </trkpt>
      <trkpt lat="42.6483650" lon="-8.6447360">
        <ele>134.8</ele>
        <time>2022-06-19T06:47:44Z</time>
      </trkpt>
      <trkpt lat="42.6483910" lon="-8.6447450">
        <ele>134.8</ele>
        <time>2022-06-19T06:47:45Z</time>
      </trkpt>
      <trkpt lat="42.6484200" lon="-8.6447550">
        <ele>134.2</ele>
        <time>2022-06-19T06:47:46Z</time>
      </trkpt>
      <trkpt lat="42.6484480" lon="-8.6447660">
        <ele>134.2</ele>
        <time>2022-06-19T06:47:47Z</time>
      </trkpt>
      <trkpt lat="42.6484760" lon="-8.6447810">
        <ele>134.2</ele>
        <time>2022-06-19T06:47:48Z</time>
      </trkpt>
      <trkpt lat="42.6485050" lon="-8.6447950">
        <ele>134.2</ele>
        <time>2022-06-19T06:47:49Z</time>
      </trkpt>
      <trkpt lat="42.6485310" lon="-8.6448060">
        <ele>134.4</ele>
        <time>2022-06-19T06:47:50Z</time>
      </trkpt>
      <trkpt lat="42.6485580" lon="-8.6448180">
        <ele>134.4</ele>
        <time>2022-06-19T06:47:51Z</time>
      </trkpt>
      <trkpt lat="42.6485830" lon="-8.6448310">
        <ele>134.4</ele>
        <time>2022-06-19T06:47:52Z</time>
      </trkpt>
      <trkpt lat="42.6486100" lon="-8.6448460">
        <ele>135.0</ele>
        <time>2022-06-19T06:47:53Z</time>
      </trkpt>
      <trkpt lat="42.6486350" lon="-8.6448580">
        <ele>134.4</ele>
        <time>2022-06-19T06:47:54Z</time>
      </trkpt>
      <trkpt lat="42.6486610" lon="-8.6448700">
        <ele>134.4</ele>
        <time>2022-06-19T06:47:55Z</time>
      </trkpt>
      <trkpt lat="42.6486850" lon="-8.6448830">
        <ele>134.4</ele>
        <time>2022-06-19T06:47:56Z</time>
      </trkpt>
      <trkpt lat="42.6487110" lon="-8.6448930">
        <ele>135.4</ele>
        <time>2022-06-19T06:47:57Z</time>
      </trkpt>
      <trkpt lat="42.6487380" lon="-8.6449000">
        <ele>136.2</ele>
        <time>2022-06-19T06:47:58Z</time>
      </trkpt>
      <trkpt lat="42.6487660" lon="-8.6449060">
        <ele>136.2</ele>
        <time>2022-06-19T06:47:59Z</time>
      </trkpt>
      <trkpt lat="42.6487930" lon="-8.6449160">
        <ele>136.2</ele>
        <time>2022-06-19T06:48:00Z</time>
      </trkpt>
      <trkpt lat="42.6488210" lon="-8.6449210">
        <ele>136.2</ele>
        <time>2022-06-19T06:48:01Z</time>
      </trkpt>
      <trkpt lat="42.6488510" lon="-8.6449260">
        <ele>134.8</ele>
        <time>2022-06-19T06:48:02Z</time>
      </trkpt>
      <trkpt lat="42.6488830" lon="-8.6449280">
        <ele>134.8</ele>
        <time>2022-06-19T06:48:03Z</time>
      </trkpt>
      <trkpt lat="42.6489130" lon="-8.6449280">
        <ele>134.8</ele>
        <time>2022-06-19T06:48:04Z</time>
      </trkpt>
      <trkpt lat="42.6489430" lon="-8.6449310">
        <ele>135.8</ele>
        <time>2022-06-19T06:48:05Z</time>
      </trkpt>
      <trkpt lat="42.6489710" lon="-8.6449360">
        <ele>137.2</ele>
        <time>2022-06-19T06:48:06Z</time>
      </trkpt>
      <trkpt lat="42.6489960" lon="-8.6449410">
        <ele>137.2</ele>
        <time>2022-06-19T06:48:07Z</time>
      </trkpt>
      <trkpt lat="42.6490200" lon="-8.6449480">
        <ele>137.2</ele>
        <time>2022-06-19T06:48:08Z</time>
      </trkpt>
      <trkpt lat="42.6490410" lon="-8.6449560">
        <ele>137.6</ele>
        <time>2022-06-19T06:48:09Z</time>
      </trkpt>
      <trkpt lat="42.6490660" lon="-8.6449650">
        <ele>137.8</ele>
        <time>2022-06-19T06:48:10Z</time>
      </trkpt>
      <trkpt lat="42.6490930" lon="-8.6449760">
        <ele>137.8</ele>
        <time>2022-06-19T06:48:11Z</time>
      </trkpt>
      <trkpt lat="42.6491200" lon="-8.6449850">
        <ele>137.8</ele>
        <time>2022-06-19T06:48:12Z</time>
      </trkpt>
      <trkpt lat="42.6491450" lon="-8.6449950">
        <ele>138.8</ele>
        <time>2022-06-19T06:48:13Z</time>
      </trkpt>
      <trkpt lat="42.6491700" lon="-8.6450030">
        <ele>138.8</ele>
        <time>2022-06-19T06:48:14Z</time>
      </trkpt>
      <trkpt lat="42.6491930" lon="-8.6450100">
        <ele>138.8</ele>
        <time>2022-06-19T06:48:15Z</time>
      </trkpt>
      <trkpt lat="42.6492160" lon="-8.6450180">
        <ele>138.8</ele>
        <time>2022-06-19T06:48:16Z</time>
      </trkpt>
      <trkpt lat="42.6492380" lon="-8.6450280">
        <ele>138.8</ele>
        <time>2022-06-19T06:48:17Z</time>
      </trkpt>
      <trkpt lat="42.6492580" lon="-8.6450360">
        <ele>138.8</ele>
        <time>2022-06-19T06:48:18Z</time>
      </trkpt>
      <trkpt lat="42.6492760" lon="-8.6450410">
        <ele>138.8</ele>
        <time>2022-06-19T06:48:19Z</time>
      </trkpt>
      <trkpt lat="42.6492900" lon="-8.6450500">
        <ele>138.8</ele>
        <time>2022-06-19T06:48:20Z</time>
      </trkpt>
      <trkpt lat="42.6493030" lon="-8.6450610">
        <ele>139.6</ele>
        <time>2022-06-19T06:48:21Z</time>
      </trkpt>
      <trkpt lat="42.6493180" lon="-8.6450750">
        <ele>139.4</ele>
        <time>2022-06-19T06:48:22Z</time>
      </trkpt>
      <trkpt lat="42.6493330" lon="-8.6450860">
        <ele>139.4</ele>
        <time>2022-06-19T06:48:23Z</time>
      </trkpt>
      <trkpt lat="42.6493460" lon="-8.6451010">
        <ele>139.4</ele>
        <time>2022-06-19T06:48:24Z</time>
      </trkpt>
      <trkpt lat="42.6493560" lon="-8.6451180">
        <ele>139.6</ele>
        <time>2022-06-19T06:48:25Z</time>
      </trkpt>
      <trkpt lat="42.6493680" lon="-8.6451310">
        <ele>140.0</ele>
        <time>2022-06-19T06:48:26Z</time>
      </trkpt>
      <trkpt lat="42.6493780" lon="-8.6451450">
        <ele>140.0</ele>
        <time>2022-06-19T06:48:27Z</time>
      </trkpt>
      <trkpt lat="42.6493830" lon="-8.6451580">
        <ele>140.0</ele>
        <time>2022-06-19T06:48:28Z</time>
      </trkpt>
      <trkpt lat="42.6493900" lon="-8.6451700">
        <ele>139.6</ele>
        <time>2022-06-19T06:48:29Z</time>
      </trkpt>
      <trkpt lat="42.6493960" lon="-8.6451800">
        <ele>139.4</ele>
        <time>2022-06-19T06:48:30Z</time>
      </trkpt>
      <trkpt lat="42.6494080" lon="-8.6451930">
        <ele>139.4</ele>
        <time>2022-06-19T06:48:31Z</time>
      </trkpt>
      <trkpt lat="42.6494180" lon="-8.6452150">
        <ele>139.4</ele>
        <time>2022-06-19T06:48:32Z</time>
      </trkpt>
      <trkpt lat="42.6494250" lon="-8.6452360">
        <ele>139.2</ele>
        <time>2022-06-19T06:48:33Z</time>
      </trkpt>
      <trkpt lat="42.6494230" lon="-8.6452600">
        <ele>139.0</ele>
        <time>2022-06-19T06:48:34Z</time>
      </trkpt>
      <trkpt lat="42.6494130" lon="-8.6452810">
        <ele>139.0</ele>
        <time>2022-06-19T06:48:35Z</time>
      </trkpt>
      <trkpt lat="42.6494000" lon="-8.6453000">
        <ele>139.0</ele>
        <time>2022-06-19T06:48:36Z</time>
      </trkpt>
      <trkpt lat="42.6493810" lon="-8.6453150">
        <ele>139.0</ele>
        <time>2022-06-19T06:48:37Z</time>
      </trkpt>
      <trkpt lat="42.6493630" lon="-8.6453300">
        <ele>138.8</ele>
        <time>2022-06-19T06:48:38Z</time>
      </trkpt>
      <trkpt lat="42.6493460" lon="-8.6453430">
        <ele>138.8</ele>
        <time>2022-06-19T06:48:39Z</time>
      </trkpt>
      <trkpt lat="42.6493330" lon="-8.6453580">
        <ele>138.8</ele>
        <time>2022-06-19T06:48:40Z</time>
      </trkpt>
      <trkpt lat="42.6493260" lon="-8.6453780">
        <ele>139.6</ele>
        <time>2022-06-19T06:48:41Z</time>
      </trkpt>
      <trkpt lat="42.6493230" lon="-8.6454080">
        <ele>140.4</ele>
        <time>2022-06-19T06:48:42Z</time>
      </trkpt>
      <trkpt lat="42.6493230" lon="-8.6454350">
        <ele>140.4</ele>
        <time>2022-06-19T06:48:43Z</time>
      </trkpt>
      <trkpt lat="42.6493250" lon="-8.6454580">
        <ele>140.4</ele>
        <time>2022-06-19T06:48:44Z</time>
      </trkpt>
      <trkpt lat="42.6493300" lon="-8.6454850">
        <ele>140.4</ele>
        <time>2022-06-19T06:48:45Z</time>
      </trkpt>
      <trkpt lat="42.6493280" lon="-8.6455100">
        <ele>140.4</ele>
        <time>2022-06-19T06:48:46Z</time>
      </trkpt>
      <trkpt lat="42.6493300" lon="-8.6455350">
        <ele>140.4</ele>
        <time>2022-06-19T06:48:47Z</time>
      </trkpt>
      <trkpt lat="42.6493360" lon="-8.6455580">
        <ele>140.4</ele>
        <time>2022-06-19T06:48:48Z</time>
      </trkpt>
      <trkpt lat="42.6493450" lon="-8.6455830">
        <ele>140.8</ele>
        <time>2022-06-19T06:48:49Z</time>
      </trkpt>
      <trkpt lat="42.6493560" lon="-8.6456030">
        <ele>141.2</ele>
        <time>2022-06-19T06:48:50Z</time>
      </trkpt>
      <trkpt lat="42.6493680" lon="-8.6456250">
        <ele>141.2</ele>
        <time>2022-06-19T06:48:51Z</time>
      </trkpt>
      <trkpt lat="42.6493800" lon="-8.6456410">
        <ele>141.2</ele>
        <time>2022-06-19T06:48:52Z</time>
      </trkpt>
      <trkpt lat="42.6493960" lon="-8.6456580">
        <ele>141.2</ele>
        <time>2022-06-19T06:48:53Z</time>
      </trkpt>
      <trkpt lat="42.6494130" lon="-8.6456760">
        <ele>141.8</ele>
        <time>2022-06-19T06:48:54Z</time>
      </trkpt>
      <trkpt lat="42.6494250" lon="-8.6456980">
        <ele>141.8</ele>
        <time>2022-06-19T06:48:55Z</time>
      </trkpt>
      <trkpt lat="42.6494380" lon="-8.6457160">
        <ele>141.8</ele>
        <time>2022-06-19T06:48:56Z</time>
      </trkpt>
      <trkpt lat="42.6494530" lon="-8.6457360">
        <ele>141.8</ele>
        <time>2022-06-19T06:48:57Z</time>
      </trkpt>
      <trkpt lat="42.6494700" lon="-8.6457600">
        <ele>142.2</ele>
        <time>2022-06-19T06:48:58Z</time>
      </trkpt>
      <trkpt lat="42.6494860" lon="-8.6457800">
        <ele>142.2</ele>
        <time>2022-06-19T06:48:59Z</time>
      </trkpt>
      <trkpt lat="42.6494960" lon="-8.6457980">
        <ele>142.2</ele>
        <time>2022-06-19T06:49:00Z</time>
      </trkpt>
      <trkpt lat="42.6495060" lon="-8.6458180">
        <ele>142.6</ele>
        <time>2022-06-19T06:49:01Z</time>
      </trkpt>
      <trkpt lat="42.6495160" lon="-8.6458410">
        <ele>142.4</ele>
        <time>2022-06-19T06:49:02Z</time>
      </trkpt>
      <trkpt lat="42.6495280" lon="-8.6458700">
        <ele>142.4</ele>
        <time>2022-06-19T06:49:03Z</time>
      </trkpt>
      <trkpt lat="42.6495400" lon="-8.6459010">
        <ele>142.4</ele>
        <time>2022-06-19T06:49:04Z</time>
      </trkpt>
      <trkpt lat="42.6495460" lon="-8.6459330">
        <ele>142.4</ele>
        <time>2022-06-19T06:49:05Z</time>
      </trkpt>
      <trkpt lat="42.6495550" lon="-8.6459630">
        <ele>142.4</ele>
        <time>2022-06-19T06:49:06Z</time>
      </trkpt>
      <trkpt lat="42.6495680" lon="-8.6459860">
        <ele>142.4</ele>
        <time>2022-06-19T06:49:07Z</time>
      </trkpt>
      <trkpt lat="42.6495830" lon="-8.6460050">
        <ele>142.4</ele>
        <time>2022-06-19T06:49:08Z</time>
      </trkpt>
      <trkpt lat="42.6496050" lon="-8.6460200">
        <ele>142.4</ele>
        <time>2022-06-19T06:49:09Z</time>
      </trkpt>
      <trkpt lat="42.6496280" lon="-8.6460230">
        <ele>142.4</ele>
        <time>2022-06-19T06:49:10Z</time>
      </trkpt>
      <trkpt lat="42.6496430" lon="-8.6460330">
        <ele>142.4</ele>
        <time>2022-06-19T06:49:11Z</time>
      </trkpt>
      <trkpt lat="42.6496630" lon="-8.6460530">
        <ele>142.4</ele>
        <time>2022-06-19T06:49:12Z</time>
      </trkpt>
      <trkpt lat="42.6496850" lon="-8.6460700">
        <ele>143.2</ele>
        <time>2022-06-19T06:49:13Z</time>
      </trkpt>
      <trkpt lat="42.6497080" lon="-8.6460910">
        <ele>143.2</ele>
        <time>2022-06-19T06:49:14Z</time>
      </trkpt>
      <trkpt lat="42.6497330" lon="-8.6461130">
        <ele>143.2</ele>
        <time>2022-06-19T06:49:15Z</time>
      </trkpt>
      <trkpt lat="42.6497550" lon="-8.6461380">
        <ele>143.2</ele>
        <time>2022-06-19T06:49:16Z</time>
      </trkpt>
      <trkpt lat="42.6497800" lon="-8.6461630">
        <ele>143.2</ele>
        <time>2022-06-19T06:49:17Z</time>
      </trkpt>
      <trkpt lat="42.6497980" lon="-8.6461910">
        <ele>143.0</ele>
        <time>2022-06-19T06:49:18Z</time>
      </trkpt>
      <trkpt lat="42.6498160" lon="-8.6462160">
        <ele>143.0</ele>
        <time>2022-06-19T06:49:19Z</time>
      </trkpt>
      <trkpt lat="42.6498360" lon="-8.6462430">
        <ele>143.0</ele>
        <time>2022-06-19T06:49:20Z</time>
      </trkpt>
      <trkpt lat="42.6498610" lon="-8.6462650">
        <ele>143.0</ele>
        <time>2022-06-19T06:49:21Z</time>
      </trkpt>
      <trkpt lat="42.6498860" lon="-8.6462850">
        <ele>143.0</ele>
        <time>2022-06-19T06:49:22Z</time>
      </trkpt>
      <trkpt lat="42.6499110" lon="-8.6463050">
        <ele>143.0</ele>
        <time>2022-06-19T06:49:23Z</time>
      </trkpt>
      <trkpt lat="42.6499360" lon="-8.6463260">
        <ele>143.0</ele>
        <time>2022-06-19T06:49:24Z</time>
      </trkpt>
      <trkpt lat="42.6499600" lon="-8.6463500">
        <ele>143.0</ele>
        <time>2022-06-19T06:49:25Z</time>
      </trkpt>
      <trkpt lat="42.6499830" lon="-8.6463710">
        <ele>143.0</ele>
        <time>2022-06-19T06:49:26Z</time>
      </trkpt>
      <trkpt lat="42.6500100" lon="-8.6463960">
        <ele>143.0</ele>
        <time>2022-06-19T06:49:27Z</time>
      </trkpt>
      <trkpt lat="42.6500330" lon="-8.6464210">
        <ele>143.0</ele>
        <time>2022-06-19T06:49:28Z</time>
      </trkpt>
      <trkpt lat="42.6500560" lon="-8.6464480">
        <ele>143.0</ele>
        <time>2022-06-19T06:49:29Z</time>
      </trkpt>
      <trkpt lat="42.6500800" lon="-8.6464760">
        <ele>143.4</ele>
        <time>2022-06-19T06:49:30Z</time>
      </trkpt>
      <trkpt lat="42.6501010" lon="-8.6465050">
        <ele>143.4</ele>
        <time>2022-06-19T06:49:31Z</time>
      </trkpt>
      <trkpt lat="42.6501250" lon="-8.6465350">
        <ele>143.4</ele>
        <time>2022-06-19T06:49:32Z</time>
      </trkpt>
      <trkpt lat="42.6501480" lon="-8.6465660">
        <ele>144.2</ele>
        <time>2022-06-19T06:49:33Z</time>
      </trkpt>
      <trkpt lat="42.6501700" lon="-8.6466000">
        <ele>143.8</ele>
        <time>2022-06-19T06:49:34Z</time>
      </trkpt>
      <trkpt lat="42.6501900" lon="-8.6466300">
        <ele>143.8</ele>
        <time>2022-06-19T06:49:35Z</time>
      </trkpt>
      <trkpt lat="42.6502100" lon="-8.6466600">
        <ele>143.8</ele>
        <time>2022-06-19T06:49:36Z</time>
      </trkpt>
      <trkpt lat="42.6502300" lon="-8.6466880">
        <ele>143.8</ele>
        <time>2022-06-19T06:49:37Z</time>
      </trkpt>
      <trkpt lat="42.6502530" lon="-8.6467150">
        <ele>143.8</ele>
        <time>2022-06-19T06:49:38Z</time>
      </trkpt>
      <trkpt lat="42.6502760" lon="-8.6467380">
        <ele>143.8</ele>
        <time>2022-06-19T06:49:39Z</time>
      </trkpt>
      <trkpt lat="42.6502960" lon="-8.6467610">
        <ele>143.8</ele>
        <time>2022-06-19T06:49:40Z</time>
      </trkpt>
      <trkpt lat="42.6503160" lon="-8.6467780">
        <ele>144.8</ele>
        <time>2022-06-19T06:49:41Z</time>
      </trkpt>
      <trkpt lat="42.6503380" lon="-8.6467910">
        <ele>144.4</ele>
        <time>2022-06-19T06:49:42Z</time>
      </trkpt>
      <trkpt lat="42.6503650" lon="-8.6467960">
        <ele>144.4</ele>
        <time>2022-06-19T06:49:43Z</time>
      </trkpt>
      <trkpt lat="42.6503910" lon="-8.6467900">
        <ele>144.4</ele>
        <time>2022-06-19T06:49:44Z</time>
      </trkpt>
      <trkpt lat="42.6504210" lon="-8.6467880">
        <ele>144.4</ele>
        <time>2022-06-19T06:49:45Z</time>
      </trkpt>
      <trkpt lat="42.6504480" lon="-8.6467880">
        <ele>144.4</ele>
        <time>2022-06-19T06:49:46Z</time>
      </trkpt>
      <trkpt lat="42.6504730" lon="-8.6467880">
        <ele>144.4</ele>
        <time>2022-06-19T06:49:47Z</time>
      </trkpt>
      <trkpt lat="42.6505030" lon="-8.6467880">
        <ele>144.4</ele>
        <time>2022-06-19T06:49:48Z</time>
      </trkpt>
      <trkpt lat="42.6505310" lon="-8.6467910">
        <ele>144.4</ele>
        <time>2022-06-19T06:49:49Z</time>
      </trkpt>
      <trkpt lat="42.6505560" lon="-8.6468060">
        <ele>144.8</ele>
        <time>2022-06-19T06:49:50Z</time>
      </trkpt>
      <trkpt lat="42.6505780" lon="-8.6468280">
        <ele>144.8</ele>
        <time>2022-06-19T06:49:51Z</time>
      </trkpt>
      <trkpt lat="42.6505950" lon="-8.6468560">
        <ele>144.8</ele>
        <time>2022-06-19T06:49:52Z</time>
      </trkpt>
      <trkpt lat="42.6506150" lon="-8.6468850">
        <ele>144.8</ele>
        <time>2022-06-19T06:49:53Z</time>
      </trkpt>
      <trkpt lat="42.6506360" lon="-8.6469050">
        <ele>144.8</ele>
        <time>2022-06-19T06:49:54Z</time>
      </trkpt>
      <trkpt lat="42.6506610" lon="-8.6469130">
        <ele>144.8</ele>
        <time>2022-06-19T06:49:55Z</time>
      </trkpt>
      <trkpt lat="42.6506910" lon="-8.6469150">
        <ele>144.8</ele>
        <time>2022-06-19T06:49:56Z</time>
      </trkpt>
      <trkpt lat="42.6507200" lon="-8.6469050">
        <ele>144.8</ele>
        <time>2022-06-19T06:49:57Z</time>
      </trkpt>
      <trkpt lat="42.6507430" lon="-8.6468900">
        <ele>144.8</ele>
        <time>2022-06-19T06:49:58Z</time>
      </trkpt>
      <trkpt lat="42.6507600" lon="-8.6468660">
        <ele>144.8</ele>
        <time>2022-06-19T06:49:59Z</time>
      </trkpt>
      <trkpt lat="42.6507730" lon="-8.6468350">
        <ele>144.8</ele>
        <time>2022-06-19T06:50:00Z</time>
      </trkpt>
      <trkpt lat="42.6507860" lon="-8.6468050">
        <ele>144.8</ele>
        <time>2022-06-19T06:50:01Z</time>
      </trkpt>
      <trkpt lat="42.6507950" lon="-8.6467710">
        <ele>144.8</ele>
        <time>2022-06-19T06:50:02Z</time>
      </trkpt>
      <trkpt lat="42.6508050" lon="-8.6467380">
        <ele>144.8</ele>
        <time>2022-06-19T06:50:03Z</time>
      </trkpt>
      <trkpt lat="42.6508150" lon="-8.6467050">
        <ele>144.8</ele>
        <time>2022-06-19T06:50:04Z</time>
      </trkpt>
      <trkpt lat="42.6508260" lon="-8.6466730">
        <ele>145.4</ele>
        <time>2022-06-19T06:50:05Z</time>
      </trkpt>
      <trkpt lat="42.6508400" lon="-8.6466400">
        <ele>145.2</ele>
        <time>2022-06-19T06:50:06Z</time>
      </trkpt>
      <trkpt lat="42.6508500" lon="-8.6466030">
        <ele>145.2</ele>
        <time>2022-06-19T06:50:07Z</time>
      </trkpt>
      <trkpt lat="42.6508600" lon="-8.6465650">
        <ele>145.2</ele>
        <time>2022-06-19T06:50:08Z</time>
      </trkpt>
      <trkpt lat="42.6508700" lon="-8.6465280">
        <ele>145.2</ele>
        <time>2022-06-19T06:50:09Z</time>
      </trkpt>
      <trkpt lat="42.6508800" lon="-8.6464910">
        <ele>145.8</ele>
        <time>2022-06-19T06:50:10Z</time>
      </trkpt>
      <trkpt lat="42.6508910" lon="-8.6464510">
        <ele>145.8</ele>
        <time>2022-06-19T06:50:11Z</time>
      </trkpt>
      <trkpt lat="42.6509030" lon="-8.6464160">
        <ele>145.8</ele>
        <time>2022-06-19T06:50:12Z</time>
      </trkpt>
      <trkpt lat="42.6509160" lon="-8.6463900">
        <ele>145.8</ele>
        <time>2022-06-19T06:50:13Z</time>
      </trkpt>
      <trkpt lat="42.6509350" lon="-8.6463780">
        <ele>145.8</ele>
        <time>2022-06-19T06:50:14Z</time>
      </trkpt>
      <trkpt lat="42.6509580" lon="-8.6463730">
        <ele>145.8</ele>
        <time>2022-06-19T06:50:15Z</time>
      </trkpt>
      <trkpt lat="42.6509900" lon="-8.6463710">
        <ele>145.8</ele>
        <time>2022-06-19T06:50:16Z</time>
      </trkpt>
      <trkpt lat="42.6510200" lon="-8.6463680">
        <ele>145.6</ele>
        <time>2022-06-19T06:50:17Z</time>
      </trkpt>
      <trkpt lat="42.6510500" lon="-8.6463700">
        <ele>145.6</ele>
        <time>2022-06-19T06:50:18Z</time>
      </trkpt>
      <trkpt lat="42.6510800" lon="-8.6463710">
        <ele>145.6</ele>
        <time>2022-06-19T06:50:19Z</time>
      </trkpt>
      <trkpt lat="42.6511100" lon="-8.6463750">
        <ele>145.6</ele>
        <time>2022-06-19T06:50:20Z</time>
      </trkpt>
      <trkpt lat="42.6511380" lon="-8.6463750">
        <ele>146.2</ele>
        <time>2022-06-19T06:50:21Z</time>
      </trkpt>
      <trkpt lat="42.6511680" lon="-8.6463780">
        <ele>146.4</ele>
        <time>2022-06-19T06:50:22Z</time>
      </trkpt>
      <trkpt lat="42.6511950" lon="-8.6463780">
        <ele>146.4</ele>
        <time>2022-06-19T06:50:23Z</time>
      </trkpt>
      <trkpt lat="42.6512180" lon="-8.6463810">
        <ele>146.4</ele>
        <time>2022-06-19T06:50:24Z</time>
      </trkpt>
      <trkpt lat="42.6512410" lon="-8.6463850">
        <ele>146.4</ele>
        <time>2022-06-19T06:50:25Z</time>
      </trkpt>
      <trkpt lat="42.6512650" lon="-8.6463860">
        <ele>146.4</ele>
        <time>2022-06-19T06:50:26Z</time>
      </trkpt>
      <trkpt lat="42.6512900" lon="-8.6463910">
        <ele>146.4</ele>
        <time>2022-06-19T06:50:27Z</time>
      </trkpt>
      <trkpt lat="42.6513160" lon="-8.6464030">
        <ele>146.4</ele>
        <time>2022-06-19T06:50:28Z</time>
      </trkpt>
      <trkpt lat="42.6513410" lon="-8.6464180">
        <ele>147.0</ele>
        <time>2022-06-19T06:50:29Z</time>
      </trkpt>
      <trkpt lat="42.6513660" lon="-8.6464330">
        <ele>147.0</ele>
        <time>2022-06-19T06:50:30Z</time>
      </trkpt>
      <trkpt lat="42.6513910" lon="-8.6464450">
        <ele>147.0</ele>
        <time>2022-06-19T06:50:31Z</time>
      </trkpt>
      <trkpt lat="42.6514130" lon="-8.6464550">
        <ele>147.0</ele>
        <time>2022-06-19T06:50:32Z</time>
      </trkpt>
      <trkpt lat="42.6514280" lon="-8.6464660">
        <ele>147.0</ele>
        <time>2022-06-19T06:50:33Z</time>
      </trkpt>
      <trkpt lat="42.6514550" lon="-8.6464730">
        <ele>146.6</ele>
        <time>2022-06-19T06:50:34Z</time>
      </trkpt>
      <trkpt lat="42.6514880" lon="-8.6464660">
        <ele>146.6</ele>
        <time>2022-06-19T06:50:35Z</time>
      </trkpt>
      <trkpt lat="42.6515150" lon="-8.6464510">
        <ele>146.6</ele>
        <time>2022-06-19T06:50:36Z</time>
      </trkpt>
      <trkpt lat="42.6515410" lon="-8.6464300">
        <ele>146.6</ele>
        <time>2022-06-19T06:50:37Z</time>
      </trkpt>
      <trkpt lat="42.6515700" lon="-8.6464080">
        <ele>146.4</ele>
        <time>2022-06-19T06:50:38Z</time>
      </trkpt>
      <trkpt lat="42.6516010" lon="-8.6463900">
        <ele>146.4</ele>
        <time>2022-06-19T06:50:39Z</time>
      </trkpt>
      <trkpt lat="42.6516310" lon="-8.6463680">
        <ele>146.4</ele>
        <time>2022-06-19T06:50:40Z</time>
      </trkpt>
      <trkpt lat="42.6516650" lon="-8.6463460">
        <ele>146.4</ele>
        <time>2022-06-19T06:50:41Z</time>
      </trkpt>
      <trkpt lat="42.6517000" lon="-8.6463230">
        <ele>146.2</ele>
        <time>2022-06-19T06:50:42Z</time>
      </trkpt>
      <trkpt lat="42.6517280" lon="-8.6462980">
        <ele>146.2</ele>
        <time>2022-06-19T06:50:43Z</time>
      </trkpt>
      <trkpt lat="42.6517480" lon="-8.6462650">
        <ele>146.2</ele>
        <time>2022-06-19T06:50:44Z</time>
      </trkpt>
      <trkpt lat="42.6517630" lon="-8.6462280">
        <ele>146.0</ele>
        <time>2022-06-19T06:50:45Z</time>
      </trkpt>
      <trkpt lat="42.6517780" lon="-8.6461880">
        <ele>146.0</ele>
        <time>2022-06-19T06:50:46Z</time>
      </trkpt>
      <trkpt lat="42.6517910" lon="-8.6461510">
        <ele>146.0</ele>
        <time>2022-06-19T06:50:47Z</time>
      </trkpt>
      <trkpt lat="42.6518060" lon="-8.6461200">
        <ele>146.0</ele>
        <time>2022-06-19T06:50:48Z</time>
      </trkpt>
      <trkpt lat="42.6518230" lon="-8.6460930">
        <ele>146.0</ele>
        <time>2022-06-19T06:50:49Z</time>
      </trkpt>
      <trkpt lat="42.6518350" lon="-8.6460680">
        <ele>146.4</ele>
        <time>2022-06-19T06:50:50Z</time>
      </trkpt>
      <trkpt lat="42.6518480" lon="-8.6460450">
        <ele>146.4</ele>
        <time>2022-06-19T06:50:51Z</time>
      </trkpt>
      <trkpt lat="42.6518600" lon="-8.6460250">
        <ele>146.4</ele>
        <time>2022-06-19T06:50:52Z</time>
      </trkpt>
      <trkpt lat="42.6518730" lon="-8.6460080">
        <ele>146.4</ele>
        <time>2022-06-19T06:50:53Z</time>
      </trkpt>
      <trkpt lat="42.6518860" lon="-8.6459930">
        <ele>146.6</ele>
        <time>2022-06-19T06:50:54Z</time>
      </trkpt>
      <trkpt lat="42.6519050" lon="-8.6459810">
        <ele>146.6</ele>
        <time>2022-06-19T06:50:55Z</time>
      </trkpt>
      <trkpt lat="42.6519210" lon="-8.6459550">
        <ele>146.6</ele>
        <time>2022-06-19T06:50:56Z</time>
      </trkpt>
      <trkpt lat="42.6519280" lon="-8.6459310">
        <ele>147.6</ele>
        <time>2022-06-19T06:50:57Z</time>
      </trkpt>
      <trkpt lat="42.6519400" lon="-8.6459030">
        <ele>147.4</ele>
        <time>2022-06-19T06:50:58Z</time>
      </trkpt>
      <trkpt lat="42.6519510" lon="-8.6458760">
        <ele>147.4</ele>
        <time>2022-06-19T06:50:59Z</time>
      </trkpt>
      <trkpt lat="42.6519650" lon="-8.6458500">
        <ele>147.4</ele>
        <time>2022-06-19T06:51:00Z</time>
      </trkpt>
      <trkpt lat="42.6519780" lon="-8.6458250">
        <ele>147.4</ele>
        <time>2022-06-19T06:51:01Z</time>
      </trkpt>
      <trkpt lat="42.6519930" lon="-8.6457930">
        <ele>148.4</ele>
        <time>2022-06-19T06:51:02Z</time>
      </trkpt>
      <trkpt lat="42.6520060" lon="-8.6457610">
        <ele>148.4</ele>
        <time>2022-06-19T06:51:03Z</time>
      </trkpt>
      <trkpt lat="42.6520160" lon="-8.6457330">
        <ele>148.4</ele>
        <time>2022-06-19T06:51:04Z</time>
      </trkpt>
      <trkpt lat="42.6520250" lon="-8.6457100">
        <ele>148.6</ele>
        <time>2022-06-19T06:51:05Z</time>
      </trkpt>
      <trkpt lat="42.6520350" lon="-8.6456900">
        <ele>148.4</ele>
        <time>2022-06-19T06:51:06Z</time>
      </trkpt>
      <trkpt lat="42.6520600" lon="-8.6456680">
        <ele>148.4</ele>
        <time>2022-06-19T06:51:07Z</time>
      </trkpt>
      <trkpt lat="42.6520830" lon="-8.6456450">
        <ele>148.4</ele>
        <time>2022-06-19T06:51:08Z</time>
      </trkpt>
      <trkpt lat="42.6521060" lon="-8.6456230">
        <ele>148.8</ele>
        <time>2022-06-19T06:51:09Z</time>
      </trkpt>
      <trkpt lat="42.6521300" lon="-8.6456050">
        <ele>149.2</ele>
        <time>2022-06-19T06:51:10Z</time>
      </trkpt>
      <trkpt lat="42.6521530" lon="-8.6455950">
        <ele>149.2</ele>
        <time>2022-06-19T06:51:11Z</time>
      </trkpt>
      <trkpt lat="42.6521780" lon="-8.6455850">
        <ele>149.2</ele>
        <time>2022-06-19T06:51:12Z</time>
      </trkpt>
      <trkpt lat="42.6521980" lon="-8.6455680">
        <ele>149.2</ele>
        <time>2022-06-19T06:51:13Z</time>
      </trkpt>
      <trkpt lat="42.6522180" lon="-8.6455510">
        <ele>150.2</ele>
        <time>2022-06-19T06:51:14Z</time>
      </trkpt>
      <trkpt lat="42.6522380" lon="-8.6455380">
        <ele>150.2</ele>
        <time>2022-06-19T06:51:15Z</time>
      </trkpt>
      <trkpt lat="42.6522580" lon="-8.6455250">
        <ele>150.2</ele>
        <time>2022-06-19T06:51:16Z</time>
      </trkpt>
      <trkpt lat="42.6522800" lon="-8.6455150">
        <ele>150.2</ele>
        <time>2022-06-19T06:51:17Z</time>
      </trkpt>
      <trkpt lat="42.6522960" lon="-8.6455080">
        <ele>150.4</ele>
        <time>2022-06-19T06:51:18Z</time>
      </trkpt>
      <trkpt lat="42.6523130" lon="-8.6455050">
        <ele>150.4</ele>
        <time>2022-06-19T06:51:19Z</time>
      </trkpt>
      <trkpt lat="42.6523260" lon="-8.6455000">
        <ele>150.4</ele>
        <time>2022-06-19T06:51:20Z</time>
      </trkpt>
      <trkpt lat="42.6523430" lon="-8.6454960">
        <ele>151.2</ele>
        <time>2022-06-19T06:51:21Z</time>
      </trkpt>
      <trkpt lat="42.6523600" lon="-8.6454950">
        <ele>151.4</ele>
        <time>2022-06-19T06:51:22Z</time>
      </trkpt>
      <trkpt lat="42.6523780" lon="-8.6454950">
        <ele>151.4</ele>
        <time>2022-06-19T06:51:23Z</time>
      </trkpt>
      <trkpt lat="42.6523980" lon="-8.6454910">
        <ele>151.4</ele>
        <time>2022-06-19T06:51:24Z</time>
      </trkpt>
      <trkpt lat="42.6524160" lon="-8.6454800">
        <ele>151.4</ele>
        <time>2022-06-19T06:51:25Z</time>
      </trkpt>
      <trkpt lat="42.6524330" lon="-8.6454700">
        <ele>152.0</ele>
        <time>2022-06-19T06:51:26Z</time>
      </trkpt>
      <trkpt lat="42.6524510" lon="-8.6454580">
        <ele>152.0</ele>
        <time>2022-06-19T06:51:27Z</time>
      </trkpt>
      <trkpt lat="42.6524710" lon="-8.6454480">
        <ele>152.0</ele>
        <time>2022-06-19T06:51:28Z</time>
      </trkpt>
      <trkpt lat="42.6524880" lon="-8.6454430">
        <ele>152.8</ele>
        <time>2022-06-19T06:51:29Z</time>
      </trkpt>
      <trkpt lat="42.6525060" lon="-8.6454350">
        <ele>153.0</ele>
        <time>2022-06-19T06:51:30Z</time>
      </trkpt>
      <trkpt lat="42.6525250" lon="-8.6454230">
        <ele>153.0</ele>
        <time>2022-06-19T06:51:31Z</time>
      </trkpt>
      <trkpt lat="42.6525380" lon="-8.6454110">
        <ele>153.0</ele>
        <time>2022-06-19T06:51:32Z</time>
      </trkpt>
      <trkpt lat="42.6525530" lon="-8.6453960">
        <ele>153.8</ele>
        <time>2022-06-19T06:51:33Z</time>
      </trkpt>
      <trkpt lat="42.6525700" lon="-8.6453800">
        <ele>154.0</ele>
        <time>2022-06-19T06:51:34Z</time>
      </trkpt>
      <trkpt lat="42.6525850" lon="-8.6453660">
        <ele>154.0</ele>
        <time>2022-06-19T06:51:35Z</time>
      </trkpt>
      <trkpt lat="42.6526000" lon="-8.6453550">
        <ele>154.0</ele>
        <time>2022-06-19T06:51:36Z</time>
      </trkpt>
      <trkpt lat="42.6526160" lon="-8.6453430">
        <ele>154.4</ele>
        <time>2022-06-19T06:51:37Z</time>
      </trkpt>
      <trkpt lat="42.6526350" lon="-8.6453260">
        <ele>154.6</ele>
        <time>2022-06-19T06:51:38Z</time>
      </trkpt>
      <trkpt lat="42.6526500" lon="-8.6453130">
        <ele>154.6</ele>
        <time>2022-06-19T06:51:39Z</time>
      </trkpt>
      <trkpt lat="42.6526650" lon="-8.6452980">
        <ele>154.6</ele>
        <time>2022-06-19T06:51:40Z</time>
      </trkpt>
      <trkpt lat="42.6526810" lon="-8.6452810">
        <ele>155.2</ele>
        <time>2022-06-19T06:51:41Z</time>
      </trkpt>
      <trkpt lat="42.6527000" lon="-8.6452660">
        <ele>155.6</ele>
        <time>2022-06-19T06:51:42Z</time>
      </trkpt>
      <trkpt lat="42.6527160" lon="-8.6452500">
        <ele>155.6</ele>
        <time>2022-06-19T06:51:43Z</time>
      </trkpt>
      <trkpt lat="42.6527350" lon="-8.6452350">
        <ele>155.6</ele>
        <time>2022-06-19T06:51:44Z</time>
      </trkpt>
      <trkpt lat="42.6527530" lon="-8.6452180">
        <ele>155.6</ele>
        <time>2022-06-19T06:51:45Z</time>
      </trkpt>
      <trkpt lat="42.6527710" lon="-8.6452030">
        <ele>156.0</ele>
        <time>2022-06-19T06:51:46Z</time>
      </trkpt>
      <trkpt lat="42.6527880" lon="-8.6451880">
        <ele>156.0</ele>
        <time>2022-06-19T06:51:47Z</time>
      </trkpt>
      <trkpt lat="42.6528060" lon="-8.6451710">
        <ele>156.0</ele>
        <time>2022-06-19T06:51:48Z</time>
      </trkpt>
      <trkpt lat="42.6528260" lon="-8.6451580">
        <ele>156.0</ele>
        <time>2022-06-19T06:51:49Z</time>
      </trkpt>
      <trkpt lat="42.6528450" lon="-8.6451450">
        <ele>156.6</ele>
        <time>2022-06-19T06:51:50Z</time>
      </trkpt>
      <trkpt lat="42.6528610" lon="-8.6451300">
        <ele>156.6</ele>
        <time>2022-06-19T06:51:51Z</time>
      </trkpt>
      <trkpt lat="42.6528780" lon="-8.6451110">
        <ele>156.6</ele>
        <time>2022-06-19T06:51:52Z</time>
      </trkpt>
      <trkpt lat="42.6528950" lon="-8.6450950">
        <ele>156.8</ele>
        <time>2022-06-19T06:51:53Z</time>
      </trkpt>
      <trkpt lat="42.6529110" lon="-8.6450760">
        <ele>156.8</ele>
        <time>2022-06-19T06:51:54Z</time>
      </trkpt>
      <trkpt lat="42.6529300" lon="-8.6450560">
        <ele>156.8</ele>
        <time>2022-06-19T06:51:55Z</time>
      </trkpt>
      <trkpt lat="42.6529460" lon="-8.6450330">
        <ele>156.8</ele>
        <time>2022-06-19T06:51:56Z</time>
      </trkpt>
      <trkpt lat="42.6529650" lon="-8.6450100">
        <ele>157.6</ele>
        <time>2022-06-19T06:51:57Z</time>
      </trkpt>
      <trkpt lat="42.6529810" lon="-8.6449900">
        <ele>157.8</ele>
        <time>2022-06-19T06:51:58Z</time>
      </trkpt>
      <trkpt lat="42.6529960" lon="-8.6449680">
        <ele>157.8</ele>
        <time>2022-06-19T06:51:59Z</time>
      </trkpt>
      <trkpt lat="42.6530130" lon="-8.6449500">
        <ele>157.8</ele>
        <time>2022-06-19T06:52:00Z</time>
      </trkpt>
      <trkpt lat="42.6530300" lon="-8.6449280">
        <ele>158.6</ele>
        <time>2022-06-19T06:52:01Z</time>
      </trkpt>
      <trkpt lat="42.6530460" lon="-8.6449050">
        <ele>158.6</ele>
        <time>2022-06-19T06:52:02Z</time>
      </trkpt>
      <trkpt lat="42.6530630" lon="-8.6448810">
        <ele>158.6</ele>
        <time>2022-06-19T06:52:03Z</time>
      </trkpt>
      <trkpt lat="42.6530780" lon="-8.6448610">
        <ele>158.6</ele>
        <time>2022-06-19T06:52:04Z</time>
      </trkpt>
      <trkpt lat="42.6530950" lon="-8.6448410">
        <ele>159.4</ele>
        <time>2022-06-19T06:52:05Z</time>
      </trkpt>
      <trkpt lat="42.6531100" lon="-8.6448250">
        <ele>159.8</ele>
        <time>2022-06-19T06:52:06Z</time>
      </trkpt>
      <trkpt lat="42.6531250" lon="-8.6448110">
        <ele>159.8</ele>
        <time>2022-06-19T06:52:07Z</time>
      </trkpt>
      <trkpt lat="42.6531400" lon="-8.6447980">
        <ele>159.8</ele>
        <time>2022-06-19T06:52:08Z</time>
      </trkpt>
      <trkpt lat="42.6531580" lon="-8.6447880">
        <ele>160.0</ele>
        <time>2022-06-19T06:52:09Z</time>
      </trkpt>
      <trkpt lat="42.6531760" lon="-8.6447780">
        <ele>160.0</ele>
        <time>2022-06-19T06:52:10Z</time>
      </trkpt>
      <trkpt lat="42.6531980" lon="-8.6447700">
        <ele>160.0</ele>
        <time>2022-06-19T06:52:11Z</time>
      </trkpt>
      <trkpt lat="42.6532210" lon="-8.6447580">
        <ele>160.0</ele>
        <time>2022-06-19T06:52:12Z</time>
      </trkpt>
      <trkpt lat="42.6532410" lon="-8.6447450">
        <ele>160.6</ele>
        <time>2022-06-19T06:52:13Z</time>
      </trkpt>
      <trkpt lat="42.6532610" lon="-8.6447300">
        <ele>160.4</ele>
        <time>2022-06-19T06:52:14Z</time>
      </trkpt>
      <trkpt lat="42.6532810" lon="-8.6447150">
        <ele>160.4</ele>
        <time>2022-06-19T06:52:15Z</time>
      </trkpt>
      <trkpt lat="42.6533030" lon="-8.6447000">
        <ele>160.4</ele>
        <time>2022-06-19T06:52:16Z</time>
      </trkpt>
      <trkpt lat="42.6533230" lon="-8.6446850">
        <ele>160.6</ele>
        <time>2022-06-19T06:52:17Z</time>
      </trkpt>
      <trkpt lat="42.6533430" lon="-8.6446710">
        <ele>160.6</ele>
        <time>2022-06-19T06:52:18Z</time>
      </trkpt>
      <trkpt lat="42.6533650" lon="-8.6446580">
        <ele>160.6</ele>
        <time>2022-06-19T06:52:19Z</time>
      </trkpt>
      <trkpt lat="42.6533850" lon="-8.6446430">
        <ele>160.6</ele>
        <time>2022-06-19T06:52:20Z</time>
      </trkpt>
      <trkpt lat="42.6534030" lon="-8.6446280">
        <ele>160.6</ele>
        <time>2022-06-19T06:52:21Z</time>
      </trkpt>
      <trkpt lat="42.6534230" lon="-8.6446130">
        <ele>161.0</ele>
        <time>2022-06-19T06:52:22Z</time>
      </trkpt>
      <trkpt lat="42.6534430" lon="-8.6445960">
        <ele>160.6</ele>
        <time>2022-06-19T06:52:23Z</time>
      </trkpt>
      <trkpt lat="42.6534610" lon="-8.6445760">
        <ele>160.6</ele>
        <time>2022-06-19T06:52:24Z</time>
      </trkpt>
      <trkpt lat="42.6534810" lon="-8.6445560">
        <ele>160.6</ele>
        <time>2022-06-19T06:52:25Z</time>
      </trkpt>
      <trkpt lat="42.6535010" lon="-8.6445360">
        <ele>161.2</ele>
        <time>2022-06-19T06:52:26Z</time>
      </trkpt>
      <trkpt lat="42.6535210" lon="-8.6445130">
        <ele>161.4</ele>
        <time>2022-06-19T06:52:27Z</time>
      </trkpt>
      <trkpt lat="42.6535380" lon="-8.6444900">
        <ele>161.4</ele>
        <time>2022-06-19T06:52:28Z</time>
      </trkpt>
      <trkpt lat="42.6535510" lon="-8.6444700">
        <ele>161.4</ele>
        <time>2022-06-19T06:52:29Z</time>
      </trkpt>
      <trkpt lat="42.6535650" lon="-8.6444460">
        <ele>161.4</ele>
        <time>2022-06-19T06:52:30Z</time>
      </trkpt>
      <trkpt lat="42.6535810" lon="-8.6444200">
        <ele>161.6</ele>
        <time>2022-06-19T06:52:31Z</time>
      </trkpt>
      <trkpt lat="42.6535980" lon="-8.6443950">
        <ele>161.6</ele>
        <time>2022-06-19T06:52:32Z</time>
      </trkpt>
      <trkpt lat="42.6536110" lon="-8.6443660">
        <ele>161.6</ele>
        <time>2022-06-19T06:52:33Z</time>
      </trkpt>
      <trkpt lat="42.6536250" lon="-8.6443400">
        <ele>162.2</ele>
        <time>2022-06-19T06:52:34Z</time>
      </trkpt>
      <trkpt lat="42.6536430" lon="-8.6443150">
        <ele>162.0</ele>
        <time>2022-06-19T06:52:35Z</time>
      </trkpt>
      <trkpt lat="42.6536610" lon="-8.6442910">
        <ele>162.0</ele>
        <time>2022-06-19T06:52:36Z</time>
      </trkpt>
      <trkpt lat="42.6536800" lon="-8.6442680">
        <ele>162.0</ele>
        <time>2022-06-19T06:52:37Z</time>
      </trkpt>
      <trkpt lat="42.6536960" lon="-8.6442430">
        <ele>162.0</ele>
        <time>2022-06-19T06:52:38Z</time>
      </trkpt>
      <trkpt lat="42.6537150" lon="-8.6442180">
        <ele>162.8</ele>
        <time>2022-06-19T06:52:39Z</time>
      </trkpt>
      <trkpt lat="42.6537350" lon="-8.6442030">
        <ele>162.8</ele>
        <time>2022-06-19T06:52:40Z</time>
      </trkpt>
      <trkpt lat="42.6537560" lon="-8.6441930">
        <ele>162.8</ele>
        <time>2022-06-19T06:52:41Z</time>
      </trkpt>
      <trkpt lat="42.6537760" lon="-8.6441900">
        <ele>162.8</ele>
        <time>2022-06-19T06:52:42Z</time>
      </trkpt>
      <trkpt lat="42.6537980" lon="-8.6441880">
        <ele>163.4</ele>
        <time>2022-06-19T06:52:43Z</time>
      </trkpt>
      <trkpt lat="42.6538200" lon="-8.6441880">
        <ele>163.4</ele>
        <time>2022-06-19T06:52:44Z</time>
      </trkpt>
      <trkpt lat="42.6538410" lon="-8.6441930">
        <ele>163.4</ele>
        <time>2022-06-19T06:52:45Z</time>
      </trkpt>
      <trkpt lat="42.6538650" lon="-8.6441960">
        <ele>164.0</ele>
        <time>2022-06-19T06:52:46Z</time>
      </trkpt>
      <trkpt lat="42.6538900" lon="-8.6442010">
        <ele>164.0</ele>
        <time>2022-06-19T06:52:47Z</time>
      </trkpt>
      <trkpt lat="42.6539100" lon="-8.6442080">
        <ele>164.0</ele>
        <time>2022-06-19T06:52:48Z</time>
      </trkpt>
      <trkpt lat="42.6539310" lon="-8.6442150">
        <ele>164.0</ele>
        <time>2022-06-19T06:52:49Z</time>
      </trkpt>
      <trkpt lat="42.6539550" lon="-8.6442210">
        <ele>164.8</ele>
        <time>2022-06-19T06:52:50Z</time>
      </trkpt>
      <trkpt lat="42.6539780" lon="-8.6442260">
        <ele>164.4</ele>
        <time>2022-06-19T06:52:51Z</time>
      </trkpt>
      <trkpt lat="42.6540030" lon="-8.6442310">
        <ele>164.4</ele>
        <time>2022-06-19T06:52:52Z</time>
      </trkpt>
      <trkpt lat="42.6540250" lon="-8.6442380">
        <ele>164.4</ele>
        <time>2022-06-19T06:52:53Z</time>
      </trkpt>
      <trkpt lat="42.6540480" lon="-8.6442460">
        <ele>164.8</ele>
        <time>2022-06-19T06:52:54Z</time>
      </trkpt>
      <trkpt lat="42.6540710" lon="-8.6442560">
        <ele>165.0</ele>
        <time>2022-06-19T06:52:55Z</time>
      </trkpt>
      <trkpt lat="42.6540980" lon="-8.6442660">
        <ele>165.0</ele>
        <time>2022-06-19T06:52:56Z</time>
      </trkpt>
      <trkpt lat="42.6541260" lon="-8.6442660">
        <ele>165.0</ele>
        <time>2022-06-19T06:52:57Z</time>
      </trkpt>
      <trkpt lat="42.6541550" lon="-8.6442610">
        <ele>164.8</ele>
        <time>2022-06-19T06:52:58Z</time>
      </trkpt>
      <trkpt lat="42.6541850" lon="-8.6442550">
        <ele>165.0</ele>
        <time>2022-06-19T06:52:59Z</time>
      </trkpt>
      <trkpt lat="42.6542130" lon="-8.6442450">
        <ele>165.0</ele>
        <time>2022-06-19T06:53:00Z</time>
      </trkpt>
      <trkpt lat="42.6542400" lon="-8.6442310">
        <ele>165.0</ele>
        <time>2022-06-19T06:53:01Z</time>
      </trkpt>
      <trkpt lat="42.6542680" lon="-8.6442150">
        <ele>165.0</ele>
        <time>2022-06-19T06:53:02Z</time>
      </trkpt>
      <trkpt lat="42.6542960" lon="-8.6441980">
        <ele>165.2</ele>
        <time>2022-06-19T06:53:03Z</time>
      </trkpt>
      <trkpt lat="42.6543260" lon="-8.6441760">
        <ele>165.2</ele>
        <time>2022-06-19T06:53:04Z</time>
      </trkpt>
      <trkpt lat="42.6543530" lon="-8.6441550">
        <ele>165.2</ele>
        <time>2022-06-19T06:53:05Z</time>
      </trkpt>
      <trkpt lat="42.6543780" lon="-8.6441310">
        <ele>165.6</ele>
        <time>2022-06-19T06:53:06Z</time>
      </trkpt>
      <trkpt lat="42.6544050" lon="-8.6441080">
        <ele>165.2</ele>
        <time>2022-06-19T06:53:07Z</time>
      </trkpt>
      <trkpt lat="42.6544330" lon="-8.6440900">
        <ele>165.2</ele>
        <time>2022-06-19T06:53:08Z</time>
      </trkpt>
      <trkpt lat="42.6544600" lon="-8.6440680">
        <ele>165.2</ele>
        <time>2022-06-19T06:53:09Z</time>
      </trkpt>
      <trkpt lat="42.6544850" lon="-8.6440460">
        <ele>165.2</ele>
        <time>2022-06-19T06:53:10Z</time>
      </trkpt>
      <trkpt lat="42.6545080" lon="-8.6440260">
        <ele>165.4</ele>
        <time>2022-06-19T06:53:11Z</time>
      </trkpt>
      <trkpt lat="42.6545330" lon="-8.6440080">
        <ele>165.4</ele>
        <time>2022-06-19T06:53:12Z</time>
      </trkpt>
      <trkpt lat="42.6545580" lon="-8.6439910">
        <ele>165.4</ele>
        <time>2022-06-19T06:53:13Z</time>
      </trkpt>
      <trkpt lat="42.6545850" lon="-8.6439750">
        <ele>165.4</ele>
        <time>2022-06-19T06:53:14Z</time>
      </trkpt>
      <trkpt lat="42.6546100" lon="-8.6439610">
        <ele>165.4</ele>
        <time>2022-06-19T06:53:15Z</time>
      </trkpt>
      <trkpt lat="42.6546280" lon="-8.6439450">
        <ele>165.4</ele>
        <time>2022-06-19T06:53:16Z</time>
      </trkpt>
      <trkpt lat="42.6546410" lon="-8.6439280">
        <ele>165.4</ele>
        <time>2022-06-19T06:53:17Z</time>
      </trkpt>
      <trkpt lat="42.6546500" lon="-8.6439050">
        <ele>164.8</ele>
        <time>2022-06-19T06:53:18Z</time>
      </trkpt>
      <trkpt lat="42.6546560" lon="-8.6438860">
        <ele>164.8</ele>
        <time>2022-06-19T06:53:19Z</time>
      </trkpt>
      <trkpt lat="42.6546610" lon="-8.6438810">
        <ele>164.8</ele>
        <time>2022-06-19T06:53:20Z</time>
      </trkpt>
      <trkpt lat="42.6546610" lon="-8.6438810">
        <ele>164.8</ele>
        <time>2022-06-19T06:53:21Z</time>
      </trkpt>
      <trkpt lat="42.6546980" lon="-8.6438430">
        <ele>164.6</ele>
        <time>2022-06-19T06:53:33Z</time>
      </trkpt>
      <trkpt lat="42.6547060" lon="-8.6438060">
        <ele>164.6</ele>
        <time>2022-06-19T06:53:34Z</time>
      </trkpt>
      <trkpt lat="42.6547130" lon="-8.6437630">
        <ele>163.8</ele>
        <time>2022-06-19T06:53:35Z</time>
      </trkpt>
      <trkpt lat="42.6547200" lon="-8.6437160">
        <ele>163.8</ele>
        <time>2022-06-19T06:53:36Z</time>
      </trkpt>
      <trkpt lat="42.6547260" lon="-8.6436680">
        <ele>163.8</ele>
        <time>2022-06-19T06:53:37Z</time>
      </trkpt>
      <trkpt lat="42.6547280" lon="-8.6436210">
        <ele>162.8</ele>
        <time>2022-06-19T06:53:38Z</time>
      </trkpt>
      <trkpt lat="42.6547300" lon="-8.6435730">
        <ele>162.8</ele>
        <time>2022-06-19T06:53:39Z</time>
      </trkpt>
      <trkpt lat="42.6547330" lon="-8.6435230">
        <ele>162.8</ele>
        <time>2022-06-19T06:53:40Z</time>
      </trkpt>
      <trkpt lat="42.6547380" lon="-8.6434700">
        <ele>162.8</ele>
        <time>2022-06-19T06:53:41Z</time>
      </trkpt>
      <trkpt lat="42.6547550" lon="-8.6434180">
        <ele>162.6</ele>
        <time>2022-06-19T06:53:42Z</time>
      </trkpt>
      <trkpt lat="42.6547730" lon="-8.6433700">
        <ele>162.8</ele>
        <time>2022-06-19T06:53:43Z</time>
      </trkpt>
      <trkpt lat="42.6547880" lon="-8.6433230">
        <ele>162.8</ele>
        <time>2022-06-19T06:53:44Z</time>
      </trkpt>
      <trkpt lat="42.6548080" lon="-8.6432800">
        <ele>162.8</ele>
        <time>2022-06-19T06:53:45Z</time>
      </trkpt>
      <trkpt lat="42.6548300" lon="-8.6432350">
        <ele>162.8</ele>
        <time>2022-06-19T06:53:46Z</time>
      </trkpt>
      <trkpt lat="42.6548550" lon="-8.6431930">
        <ele>163.6</ele>
        <time>2022-06-19T06:53:47Z</time>
      </trkpt>
      <trkpt lat="42.6548830" lon="-8.6431560">
        <ele>163.6</ele>
        <time>2022-06-19T06:53:48Z</time>
      </trkpt>
      <trkpt lat="42.6549130" lon="-8.6431210">
        <ele>163.6</ele>
        <time>2022-06-19T06:53:49Z</time>
      </trkpt>
      <trkpt lat="42.6549400" lon="-8.6430910">
        <ele>163.6</ele>
        <time>2022-06-19T06:53:50Z</time>
      </trkpt>
      <trkpt lat="42.6549700" lon="-8.6430660">
        <ele>163.4</ele>
        <time>2022-06-19T06:53:51Z</time>
      </trkpt>
      <trkpt lat="42.6549980" lon="-8.6430480">
        <ele>163.4</ele>
        <time>2022-06-19T06:53:52Z</time>
      </trkpt>
      <trkpt lat="42.6550280" lon="-8.6430310">
        <ele>163.4</ele>
        <time>2022-06-19T06:53:53Z</time>
      </trkpt>
      <trkpt lat="42.6550550" lon="-8.6430200">
        <ele>164.0</ele>
        <time>2022-06-19T06:53:54Z</time>
      </trkpt>
      <trkpt lat="42.6550850" lon="-8.6430130">
        <ele>165.0</ele>
        <time>2022-06-19T06:53:55Z</time>
      </trkpt>
      <trkpt lat="42.6551110" lon="-8.6430110">
        <ele>165.0</ele>
        <time>2022-06-19T06:53:56Z</time>
      </trkpt>
      <trkpt lat="42.6551350" lon="-8.6430180">
        <ele>165.0</ele>
        <time>2022-06-19T06:53:57Z</time>
      </trkpt>
      <trkpt lat="42.6551550" lon="-8.6430310">
        <ele>165.4</ele>
        <time>2022-06-19T06:53:58Z</time>
      </trkpt>
      <trkpt lat="42.6551710" lon="-8.6430480">
        <ele>165.6</ele>
        <time>2022-06-19T06:53:59Z</time>
      </trkpt>
      <trkpt lat="42.6551950" lon="-8.6430630">
        <ele>165.6</ele>
        <time>2022-06-19T06:54:00Z</time>
      </trkpt>
      <trkpt lat="42.6552200" lon="-8.6430750">
        <ele>165.6</ele>
        <time>2022-06-19T06:54:01Z</time>
      </trkpt>
      <trkpt lat="42.6552410" lon="-8.6430810">
        <ele>166.4</ele>
        <time>2022-06-19T06:54:02Z</time>
      </trkpt>
      <trkpt lat="42.6552630" lon="-8.6430830">
        <ele>166.0</ele>
        <time>2022-06-19T06:54:03Z</time>
      </trkpt>
      <trkpt lat="42.6552830" lon="-8.6430850">
        <ele>166.0</ele>
        <time>2022-06-19T06:54:04Z</time>
      </trkpt>
      <trkpt lat="42.6553060" lon="-8.6430850">
        <ele>166.0</ele>
        <time>2022-06-19T06:54:05Z</time>
      </trkpt>
      <trkpt lat="42.6553180" lon="-8.6430850">
        <ele>167.0</ele>
        <time>2022-06-19T06:54:06Z</time>
      </trkpt>
      <trkpt lat="42.6553280" lon="-8.6430850">
        <ele>167.0</ele>
        <time>2022-06-19T06:54:07Z</time>
      </trkpt>
      <trkpt lat="42.6553280" lon="-8.6430850">
        <ele>167.0</ele>
        <time>2022-06-19T06:54:08Z</time>
      </trkpt>
      <trkpt lat="42.6554110" lon="-8.6430880">
        <ele>167.8</ele>
        <time>2022-06-19T06:54:59Z</time>
      </trkpt>
      <trkpt lat="42.6554300" lon="-8.6430660">
        <ele>167.8</ele>
        <time>2022-06-19T06:55:00Z</time>
      </trkpt>
      <trkpt lat="42.6554450" lon="-8.6430350">
        <ele>167.8</ele>
        <time>2022-06-19T06:55:01Z</time>
      </trkpt>
      <trkpt lat="42.6554580" lon="-8.6429960">
        <ele>167.8</ele>
        <time>2022-06-19T06:55:02Z</time>
      </trkpt>
      <trkpt lat="42.6554660" lon="-8.6429580">
        <ele>167.6</ele>
        <time>2022-06-19T06:55:03Z</time>
      </trkpt>
      <trkpt lat="42.6554750" lon="-8.6429150">
        <ele>167.6</ele>
        <time>2022-06-19T06:55:04Z</time>
      </trkpt>
      <trkpt lat="42.6554850" lon="-8.6428680">
        <ele>167.6</ele>
        <time>2022-06-19T06:55:05Z</time>
      </trkpt>
      <trkpt lat="42.6554910" lon="-8.6428200">
        <ele>166.6</ele>
        <time>2022-06-19T06:55:06Z</time>
      </trkpt>
      <trkpt lat="42.6554980" lon="-8.6427710">
        <ele>166.4</ele>
        <time>2022-06-19T06:55:07Z</time>
      </trkpt>
      <trkpt lat="42.6555030" lon="-8.6427160">
        <ele>166.4</ele>
        <time>2022-06-19T06:55:08Z</time>
      </trkpt>
      <trkpt lat="42.6555080" lon="-8.6426610">
        <ele>166.4</ele>
        <time>2022-06-19T06:55:09Z</time>
      </trkpt>
      <trkpt lat="42.6555130" lon="-8.6426060">
        <ele>165.4</ele>
        <time>2022-06-19T06:55:10Z</time>
      </trkpt>
      <trkpt lat="42.6555180" lon="-8.6425510">
        <ele>165.4</ele>
        <time>2022-06-19T06:55:11Z</time>
      </trkpt>
      <trkpt lat="42.6555130" lon="-8.6425000">
        <ele>165.4</ele>
        <time>2022-06-19T06:55:12Z</time>
      </trkpt>
      <trkpt lat="42.6555110" lon="-8.6424450">
        <ele>165.4</ele>
        <time>2022-06-19T06:55:13Z</time>
      </trkpt>
      <trkpt lat="42.6555250" lon="-8.6423950">
        <ele>164.6</ele>
        <time>2022-06-19T06:55:14Z</time>
      </trkpt>
      <trkpt lat="42.6555500" lon="-8.6423480">
        <ele>164.8</ele>
        <time>2022-06-19T06:55:15Z</time>
      </trkpt>
      <trkpt lat="42.6555800" lon="-8.6423030">
        <ele>164.8</ele>
        <time>2022-06-19T06:55:16Z</time>
      </trkpt>
      <trkpt lat="42.6556160" lon="-8.6422660">
        <ele>164.8</ele>
        <time>2022-06-19T06:55:17Z</time>
      </trkpt>
      <trkpt lat="42.6556560" lon="-8.6422330">
        <ele>164.8</ele>
        <time>2022-06-19T06:55:18Z</time>
      </trkpt>
      <trkpt lat="42.6556930" lon="-8.6421950">
        <ele>165.0</ele>
        <time>2022-06-19T06:55:19Z</time>
      </trkpt>
      <trkpt lat="42.6557300" lon="-8.6421580">
        <ele>165.0</ele>
        <time>2022-06-19T06:55:20Z</time>
      </trkpt>
      <trkpt lat="42.6557630" lon="-8.6421260">
        <ele>165.0</ele>
        <time>2022-06-19T06:55:21Z</time>
      </trkpt>
      <trkpt lat="42.6557980" lon="-8.6421050">
        <ele>165.0</ele>
        <time>2022-06-19T06:55:22Z</time>
      </trkpt>
      <trkpt lat="42.6558300" lon="-8.6421050">
        <ele>165.2</ele>
        <time>2022-06-19T06:55:23Z</time>
      </trkpt>
      <trkpt lat="42.6558600" lon="-8.6421180">
        <ele>165.2</ele>
        <time>2022-06-19T06:55:24Z</time>
      </trkpt>
      <trkpt lat="42.6558910" lon="-8.6421410">
        <ele>165.2</ele>
        <time>2022-06-19T06:55:25Z</time>
      </trkpt>
      <trkpt lat="42.6559230" lon="-8.6421710">
        <ele>165.2</ele>
        <time>2022-06-19T06:55:26Z</time>
      </trkpt>
      <trkpt lat="42.6559560" lon="-8.6422010">
        <ele>164.6</ele>
        <time>2022-06-19T06:55:27Z</time>
      </trkpt>
      <trkpt lat="42.6559950" lon="-8.6422280">
        <ele>164.6</ele>
        <time>2022-06-19T06:55:28Z</time>
      </trkpt>
      <trkpt lat="42.6560310" lon="-8.6422550">
        <ele>164.6</ele>
        <time>2022-06-19T06:55:29Z</time>
      </trkpt>
      <trkpt lat="42.6560710" lon="-8.6422780">
        <ele>164.2</ele>
        <time>2022-06-19T06:55:30Z</time>
      </trkpt>
      <trkpt lat="42.6561130" lon="-8.6423000">
        <ele>164.2</ele>
        <time>2022-06-19T06:55:31Z</time>
      </trkpt>
      <trkpt lat="42.6561560" lon="-8.6423200">
        <ele>164.2</ele>
        <time>2022-06-19T06:55:32Z</time>
      </trkpt>
      <trkpt lat="42.6561560" lon="-8.6423200">
        <ele>164.2</ele>
        <time>2022-06-19T06:55:33Z</time>
      </trkpt>
      <trkpt lat="42.6562410" lon="-8.6423550">
        <ele>164.8</ele>
        <time>2022-06-19T06:55:34Z</time>
      </trkpt>
      <trkpt lat="42.6562830" lon="-8.6423650">
        <ele>164.6</ele>
        <time>2022-06-19T06:55:35Z</time>
      </trkpt>
      <trkpt lat="42.6563250" lon="-8.6423730">
        <ele>164.6</ele>
        <time>2022-06-19T06:55:36Z</time>
      </trkpt>
      <trkpt lat="42.6563660" lon="-8.6423810">
        <ele>164.6</ele>
        <time>2022-06-19T06:55:37Z</time>
      </trkpt>
      <trkpt lat="42.6564060" lon="-8.6423910">
        <ele>164.0</ele>
        <time>2022-06-19T06:55:38Z</time>
      </trkpt>
      <trkpt lat="42.6564480" lon="-8.6424030">
        <ele>164.2</ele>
        <time>2022-06-19T06:55:39Z</time>
      </trkpt>
      <trkpt lat="42.6564910" lon="-8.6424210">
        <ele>164.2</ele>
        <time>2022-06-19T06:55:40Z</time>
      </trkpt>
      <trkpt lat="42.6565350" lon="-8.6424430">
        <ele>164.2</ele>
        <time>2022-06-19T06:55:41Z</time>
      </trkpt>
      <trkpt lat="42.6565800" lon="-8.6424650">
        <ele>164.2</ele>
        <time>2022-06-19T06:55:42Z</time>
      </trkpt>
      <trkpt lat="42.6566250" lon="-8.6424880">
        <ele>164.2</ele>
        <time>2022-06-19T06:55:43Z</time>
      </trkpt>
      <trkpt lat="42.6566680" lon="-8.6425080">
        <ele>164.2</ele>
        <time>2022-06-19T06:55:44Z</time>
      </trkpt>
      <trkpt lat="42.6567150" lon="-8.6425300">
        <ele>164.2</ele>
        <time>2022-06-19T06:55:45Z</time>
      </trkpt>
      <trkpt lat="42.6567630" lon="-8.6425510">
        <ele>164.2</ele>
        <time>2022-06-19T06:55:46Z</time>
      </trkpt>
      <trkpt lat="42.6568100" lon="-8.6425710">
        <ele>164.6</ele>
        <time>2022-06-19T06:55:47Z</time>
      </trkpt>
      <trkpt lat="42.6568580" lon="-8.6425880">
        <ele>164.6</ele>
        <time>2022-06-19T06:55:48Z</time>
      </trkpt>
      <trkpt lat="42.6569050" lon="-8.6426060">
        <ele>164.6</ele>
        <time>2022-06-19T06:55:49Z</time>
      </trkpt>
      <trkpt lat="42.6569510" lon="-8.6426260">
        <ele>164.0</ele>
        <time>2022-06-19T06:55:50Z</time>
      </trkpt>
      <trkpt lat="42.6569980" lon="-8.6426500">
        <ele>164.2</ele>
        <time>2022-06-19T06:55:51Z</time>
      </trkpt>
      <trkpt lat="42.6570410" lon="-8.6426800">
        <ele>164.2</ele>
        <time>2022-06-19T06:55:52Z</time>
      </trkpt>
      <trkpt lat="42.6570850" lon="-8.6427130">
        <ele>164.2</ele>
        <time>2022-06-19T06:55:53Z</time>
      </trkpt>
      <trkpt lat="42.6571250" lon="-8.6427450">
        <ele>164.2</ele>
        <time>2022-06-19T06:55:54Z</time>
      </trkpt>
      <trkpt lat="42.6571630" lon="-8.6427760">
        <ele>164.8</ele>
        <time>2022-06-19T06:55:55Z</time>
      </trkpt>
      <trkpt lat="42.6572010" lon="-8.6428030">
        <ele>164.8</ele>
        <time>2022-06-19T06:55:56Z</time>
      </trkpt>
      <trkpt lat="42.6572350" lon="-8.6428210">
        <ele>164.8</ele>
        <time>2022-06-19T06:55:57Z</time>
      </trkpt>
      <trkpt lat="42.6572650" lon="-8.6428310">
        <ele>164.8</ele>
        <time>2022-06-19T06:55:58Z</time>
      </trkpt>
      <trkpt lat="42.6572950" lon="-8.6428230">
        <ele>165.0</ele>
        <time>2022-06-19T06:55:59Z</time>
      </trkpt>
      <trkpt lat="42.6573210" lon="-8.6427980">
        <ele>165.0</ele>
        <time>2022-06-19T06:56:00Z</time>
      </trkpt>
      <trkpt lat="42.6573500" lon="-8.6427580">
        <ele>165.0</ele>
        <time>2022-06-19T06:56:01Z</time>
      </trkpt>
      <trkpt lat="42.6573760" lon="-8.6427110">
        <ele>164.0</ele>
        <time>2022-06-19T06:56:02Z</time>
      </trkpt>
      <trkpt lat="42.6574010" lon="-8.6426610">
        <ele>164.2</ele>
        <time>2022-06-19T06:56:03Z</time>
      </trkpt>
      <trkpt lat="42.6574280" lon="-8.6426100">
        <ele>164.2</ele>
        <time>2022-06-19T06:56:04Z</time>
      </trkpt>
      <trkpt lat="42.6574550" lon="-8.6425560">
        <ele>164.2</ele>
        <time>2022-06-19T06:56:05Z</time>
      </trkpt>
      <trkpt lat="42.6574830" lon="-8.6425050">
        <ele>163.8</ele>
        <time>2022-06-19T06:56:06Z</time>
      </trkpt>
      <trkpt lat="42.6575100" lon="-8.6424530">
        <ele>163.6</ele>
        <time>2022-06-19T06:56:07Z</time>
      </trkpt>
      <trkpt lat="42.6575380" lon="-8.6424000">
        <ele>163.6</ele>
        <time>2022-06-19T06:56:08Z</time>
      </trkpt>
      <trkpt lat="42.6575630" lon="-8.6423410">
        <ele>163.6</ele>
        <time>2022-06-19T06:56:09Z</time>
      </trkpt>
      <trkpt lat="42.6575810" lon="-8.6422800">
        <ele>163.6</ele>
        <time>2022-06-19T06:56:10Z</time>
      </trkpt>
      <trkpt lat="42.6575960" lon="-8.6422180">
        <ele>163.8</ele>
        <time>2022-06-19T06:56:11Z</time>
      </trkpt>
      <trkpt lat="42.6576130" lon="-8.6421610">
        <ele>163.8</ele>
        <time>2022-06-19T06:56:12Z</time>
      </trkpt>
      <trkpt lat="42.6576380" lon="-8.6421110">
        <ele>163.8</ele>
        <time>2022-06-19T06:56:13Z</time>
      </trkpt>
      <trkpt lat="42.6576650" lon="-8.6420650">
        <ele>164.8</ele>
        <time>2022-06-19T06:56:14Z</time>
      </trkpt>
      <trkpt lat="42.6576930" lon="-8.6420180">
        <ele>164.6</ele>
        <time>2022-06-19T06:56:15Z</time>
      </trkpt>
      <trkpt lat="42.6577200" lon="-8.6419700">
        <ele>164.6</ele>
        <time>2022-06-19T06:56:16Z</time>
      </trkpt>
      <trkpt lat="42.6577450" lon="-8.6419130">
        <ele>164.6</ele>
        <time>2022-06-19T06:56:17Z</time>
      </trkpt>
      <trkpt lat="42.6577710" lon="-8.6418530">
        <ele>163.6</ele>
        <time>2022-06-19T06:56:18Z</time>
      </trkpt>
      <trkpt lat="42.6577980" lon="-8.6417910">
        <ele>162.6</ele>
        <time>2022-06-19T06:56:19Z</time>
      </trkpt>
      <trkpt lat="42.6578260" lon="-8.6417300">
        <ele>162.6</ele>
        <time>2022-06-19T06:56:20Z</time>
      </trkpt>
      <trkpt lat="42.6578580" lon="-8.6416700">
        <ele>162.6</ele>
        <time>2022-06-19T06:56:21Z</time>
      </trkpt>
      <trkpt lat="42.6578860" lon="-8.6416050">
        <ele>162.6</ele>
        <time>2022-06-19T06:56:22Z</time>
      </trkpt>
      <trkpt lat="42.6579130" lon="-8.6415410">
        <ele>162.8</ele>
        <time>2022-06-19T06:56:23Z</time>
      </trkpt>
      <trkpt lat="42.6579350" lon="-8.6414750">
        <ele>162.8</ele>
        <time>2022-06-19T06:56:24Z</time>
      </trkpt>
      <trkpt lat="42.6579530" lon="-8.6414060">
        <ele>162.8</ele>
        <time>2022-06-19T06:56:25Z</time>
      </trkpt>
      <trkpt lat="42.6579660" lon="-8.6413410">
        <ele>162.2</ele>
        <time>2022-06-19T06:56:26Z</time>
      </trkpt>
      <trkpt lat="42.6579780" lon="-8.6412760">
        <ele>162.0</ele>
        <time>2022-06-19T06:56:27Z</time>
      </trkpt>
      <trkpt lat="42.6579850" lon="-8.6412110">
        <ele>162.0</ele>
        <time>2022-06-19T06:56:28Z</time>
      </trkpt>
      <trkpt lat="42.6579910" lon="-8.6411500">
        <ele>162.0</ele>
        <time>2022-06-19T06:56:29Z</time>
      </trkpt>
      <trkpt lat="42.6580000" lon="-8.6410860">
        <ele>162.0</ele>
        <time>2022-06-19T06:56:30Z</time>
      </trkpt>
      <trkpt lat="42.6580080" lon="-8.6410310">
        <ele>162.6</ele>
        <time>2022-06-19T06:56:31Z</time>
      </trkpt>
      <trkpt lat="42.6580130" lon="-8.6409780">
        <ele>162.6</ele>
        <time>2022-06-19T06:56:32Z</time>
      </trkpt>
      <trkpt lat="42.6580160" lon="-8.6409210">
        <ele>162.6</ele>
        <time>2022-06-19T06:56:33Z</time>
      </trkpt>
      <trkpt lat="42.6580200" lon="-8.6408610">
        <ele>162.0</ele>
        <time>2022-06-19T06:56:34Z</time>
      </trkpt>
      <trkpt lat="42.6580210" lon="-8.6408030">
        <ele>162.0</ele>
        <time>2022-06-19T06:56:35Z</time>
      </trkpt>
      <trkpt lat="42.6580210" lon="-8.6407400">
        <ele>162.0</ele>
        <time>2022-06-19T06:56:36Z</time>
      </trkpt>
      <trkpt lat="42.6580230" lon="-8.6406750">
        <ele>162.0</ele>
        <time>2022-06-19T06:56:37Z</time>
      </trkpt>
      <trkpt lat="42.6580300" lon="-8.6406110">
        <ele>162.0</ele>
        <time>2022-06-19T06:56:38Z</time>
      </trkpt>
      <trkpt lat="42.6580360" lon="-8.6405500">
        <ele>161.4</ele>
        <time>2022-06-19T06:56:39Z</time>
      </trkpt>
      <trkpt lat="42.6580460" lon="-8.6404850">
        <ele>161.4</ele>
        <time>2022-06-19T06:56:40Z</time>
      </trkpt>
      <trkpt lat="42.6580530" lon="-8.6404210">
        <ele>161.4</ele>
        <time>2022-06-19T06:56:41Z</time>
      </trkpt>
      <trkpt lat="42.6580630" lon="-8.6403650">
        <ele>160.6</ele>
        <time>2022-06-19T06:56:42Z</time>
      </trkpt>
      <trkpt lat="42.6580780" lon="-8.6403030">
        <ele>160.0</ele>
        <time>2022-06-19T06:56:43Z</time>
      </trkpt>
      <trkpt lat="42.6580960" lon="-8.6402460">
        <ele>160.0</ele>
        <time>2022-06-19T06:56:44Z</time>
      </trkpt>
      <trkpt lat="42.6581300" lon="-8.6401930">
        <ele>160.0</ele>
        <time>2022-06-19T06:56:45Z</time>
      </trkpt>
      <trkpt lat="42.6581660" lon="-8.6401460">
        <ele>160.2</ele>
        <time>2022-06-19T06:56:46Z</time>
      </trkpt>
      <trkpt lat="42.6582080" lon="-8.6401060">
        <ele>159.2</ele>
        <time>2022-06-19T06:56:47Z</time>
      </trkpt>
      <trkpt lat="42.6582630" lon="-8.6400700">
        <ele>159.2</ele>
        <time>2022-06-19T06:56:48Z</time>
      </trkpt>
      <trkpt lat="42.6583200" lon="-8.6400500">
        <ele>159.2</ele>
        <time>2022-06-19T06:56:49Z</time>
      </trkpt>
      <trkpt lat="42.6583780" lon="-8.6400260">
        <ele>159.2</ele>
        <time>2022-06-19T06:56:50Z</time>
      </trkpt>
      <trkpt lat="42.6584360" lon="-8.6400010">
        <ele>158.8</ele>
        <time>2022-06-19T06:56:51Z</time>
      </trkpt>
      <trkpt lat="42.6584900" lon="-8.6399680">
        <ele>158.8</ele>
        <time>2022-06-19T06:56:52Z</time>
      </trkpt>
      <trkpt lat="42.6585300" lon="-8.6399210">
        <ele>158.8</ele>
        <time>2022-06-19T06:56:53Z</time>
      </trkpt>
      <trkpt lat="42.6585630" lon="-8.6398560">
        <ele>157.8</ele>
        <time>2022-06-19T06:56:54Z</time>
      </trkpt>
      <trkpt lat="42.6585900" lon="-8.6397760">
        <ele>154.2</ele>
        <time>2022-06-19T06:56:55Z</time>
      </trkpt>
      <trkpt lat="42.6586060" lon="-8.6396830">
        <ele>154.2</ele>
        <time>2022-06-19T06:56:56Z</time>
      </trkpt>
      <trkpt lat="42.6586150" lon="-8.6396060">
        <ele>154.2</ele>
        <time>2022-06-19T06:56:57Z</time>
      </trkpt>
      <trkpt lat="42.6586210" lon="-8.6395400">
        <ele>153.2</ele>
        <time>2022-06-19T06:56:58Z</time>
      </trkpt>
      <trkpt lat="42.6586230" lon="-8.6394750">
        <ele>153.4</ele>
        <time>2022-06-19T06:56:59Z</time>
      </trkpt>
      <trkpt lat="42.6586080" lon="-8.6394130">
        <ele>153.4</ele>
        <time>2022-06-19T06:57:00Z</time>
      </trkpt>
      <trkpt lat="42.6585780" lon="-8.6393580">
        <ele>153.4</ele>
        <time>2022-06-19T06:57:01Z</time>
      </trkpt>
      <trkpt lat="42.6585450" lon="-8.6392980">
        <ele>152.4</ele>
        <time>2022-06-19T06:57:02Z</time>
      </trkpt>
      <trkpt lat="42.6585080" lon="-8.6392410">
        <ele>152.4</ele>
        <time>2022-06-19T06:57:03Z</time>
      </trkpt>
      <trkpt lat="42.6584660" lon="-8.6391950">
        <ele>152.4</ele>
        <time>2022-06-19T06:57:04Z</time>
      </trkpt>
      <trkpt lat="42.6584260" lon="-8.6391500">
        <ele>152.4</ele>
        <time>2022-06-19T06:57:05Z</time>
      </trkpt>
      <trkpt lat="42.6583850" lon="-8.6391060">
        <ele>151.8</ele>
        <time>2022-06-19T06:57:06Z</time>
      </trkpt>
      <trkpt lat="42.6583460" lon="-8.6390610">
        <ele>151.8</ele>
        <time>2022-06-19T06:57:07Z</time>
      </trkpt>
      <trkpt lat="42.6583150" lon="-8.6390160">
        <ele>151.8</ele>
        <time>2022-06-19T06:57:08Z</time>
      </trkpt>
      <trkpt lat="42.6582880" lon="-8.6389610">
        <ele>151.8</ele>
        <time>2022-06-19T06:57:09Z</time>
      </trkpt>
      <trkpt lat="42.6582580" lon="-8.6389060">
        <ele>151.8</ele>
        <time>2022-06-19T06:57:10Z</time>
      </trkpt>
      <trkpt lat="42.6582300" lon="-8.6388500">
        <ele>151.6</ele>
        <time>2022-06-19T06:57:11Z</time>
      </trkpt>
      <trkpt lat="42.6582030" lon="-8.6387860">
        <ele>151.6</ele>
        <time>2022-06-19T06:57:12Z</time>
      </trkpt>
      <trkpt lat="42.6581800" lon="-8.6387160">
        <ele>151.6</ele>
        <time>2022-06-19T06:57:13Z</time>
      </trkpt>
      <trkpt lat="42.6581630" lon="-8.6386450">
        <ele>151.0</ele>
        <time>2022-06-19T06:57:14Z</time>
      </trkpt>
      <trkpt lat="42.6581480" lon="-8.6385760">
        <ele>150.6</ele>
        <time>2022-06-19T06:57:15Z</time>
      </trkpt>
      <trkpt lat="42.6581350" lon="-8.6385100">
        <ele>150.6</ele>
        <time>2022-06-19T06:57:16Z</time>
      </trkpt>
      <trkpt lat="42.6581200" lon="-8.6384460">
        <ele>150.6</ele>
        <time>2022-06-19T06:57:17Z</time>
      </trkpt>
      <trkpt lat="42.6581030" lon="-8.6383900">
        <ele>150.6</ele>
        <time>2022-06-19T06:57:18Z</time>
      </trkpt>
      <trkpt lat="42.6580880" lon="-8.6383330">
        <ele>150.4</ele>
        <time>2022-06-19T06:57:19Z</time>
      </trkpt>
      <trkpt lat="42.6580710" lon="-8.6382780">
        <ele>150.4</ele>
        <time>2022-06-19T06:57:20Z</time>
      </trkpt>
      <trkpt lat="42.6580610" lon="-8.6382230">
        <ele>150.4</ele>
        <time>2022-06-19T06:57:21Z</time>
      </trkpt>
      <trkpt lat="42.6580630" lon="-8.6381700">
        <ele>150.4</ele>
        <time>2022-06-19T06:57:22Z</time>
      </trkpt>
      <trkpt lat="42.6580710" lon="-8.6381180">
        <ele>150.8</ele>
        <time>2022-06-19T06:57:23Z</time>
      </trkpt>
      <trkpt lat="42.6580860" lon="-8.6380710">
        <ele>150.8</ele>
        <time>2022-06-19T06:57:24Z</time>
      </trkpt>
      <trkpt lat="42.6581030" lon="-8.6380230">
        <ele>150.8</ele>
        <time>2022-06-19T06:57:25Z</time>
      </trkpt>
      <trkpt lat="42.6581210" lon="-8.6379710">
        <ele>151.0</ele>
        <time>2022-06-19T06:57:26Z</time>
      </trkpt>
      <trkpt lat="42.6581460" lon="-8.6379230">
        <ele>151.4</ele>
        <time>2022-06-19T06:57:27Z</time>
      </trkpt>
      <trkpt lat="42.6581800" lon="-8.6378810">
        <ele>151.4</ele>
        <time>2022-06-19T06:57:28Z</time>
      </trkpt>
      <trkpt lat="42.6582200" lon="-8.6378480">
        <ele>151.4</ele>
        <time>2022-06-19T06:57:29Z</time>
      </trkpt>
      <trkpt lat="42.6582600" lon="-8.6378230">
        <ele>151.4</ele>
        <time>2022-06-19T06:57:30Z</time>
      </trkpt>
      <trkpt lat="42.6583010" lon="-8.6378010">
        <ele>151.4</ele>
        <time>2022-06-19T06:57:31Z</time>
      </trkpt>
      <trkpt lat="42.6583360" lon="-8.6377680">
        <ele>151.4</ele>
        <time>2022-06-19T06:57:32Z</time>
      </trkpt>
      <trkpt lat="42.6583630" lon="-8.6377210">
        <ele>151.4</ele>
        <time>2022-06-19T06:57:33Z</time>
      </trkpt>
      <trkpt lat="42.6583810" lon="-8.6376660">
        <ele>151.0</ele>
        <time>2022-06-19T06:57:34Z</time>
      </trkpt>
      <trkpt lat="42.6583960" lon="-8.6376100">
        <ele>151.2</ele>
        <time>2022-06-19T06:57:35Z</time>
      </trkpt>
      <trkpt lat="42.6584100" lon="-8.6375510">
        <ele>151.2</ele>
        <time>2022-06-19T06:57:36Z</time>
      </trkpt>
      <trkpt lat="42.6584210" lon="-8.6374900">
        <ele>151.2</ele>
        <time>2022-06-19T06:57:37Z</time>
      </trkpt>
      <trkpt lat="42.6584330" lon="-8.6374280">
        <ele>151.2</ele>
        <time>2022-06-19T06:57:38Z</time>
      </trkpt>
      <trkpt lat="42.6584410" lon="-8.6373680">
        <ele>150.8</ele>
        <time>2022-06-19T06:57:39Z</time>
      </trkpt>
      <trkpt lat="42.6584500" lon="-8.6373080">
        <ele>150.8</ele>
        <time>2022-06-19T06:57:40Z</time>
      </trkpt>
      <trkpt lat="42.6584550" lon="-8.6372480">
        <ele>150.8</ele>
        <time>2022-06-19T06:57:41Z</time>
      </trkpt>
      <trkpt lat="42.6584600" lon="-8.6371900">
        <ele>150.8</ele>
        <time>2022-06-19T06:57:42Z</time>
      </trkpt>
      <trkpt lat="42.6584610" lon="-8.6371310">
        <ele>150.6</ele>
        <time>2022-06-19T06:57:43Z</time>
      </trkpt>
      <trkpt lat="42.6584650" lon="-8.6370750">
        <ele>150.6</ele>
        <time>2022-06-19T06:57:44Z</time>
      </trkpt>
      <trkpt lat="42.6584700" lon="-8.6370210">
        <ele>150.6</ele>
        <time>2022-06-19T06:57:45Z</time>
      </trkpt>
      <trkpt lat="42.6584810" lon="-8.6369700">
        <ele>150.6</ele>
        <time>2022-06-19T06:57:46Z</time>
      </trkpt>
      <trkpt lat="42.6585000" lon="-8.6369210">
        <ele>150.6</ele>
        <time>2022-06-19T06:57:47Z</time>
      </trkpt>
      <trkpt lat="42.6585210" lon="-8.6368780">
        <ele>150.6</ele>
        <time>2022-06-19T06:57:48Z</time>
      </trkpt>
      <trkpt lat="42.6585500" lon="-8.6368400">
        <ele>150.6</ele>
        <time>2022-06-19T06:57:49Z</time>
      </trkpt>
      <trkpt lat="42.6585800" lon="-8.6368060">
        <ele>151.6</ele>
        <time>2022-06-19T06:57:50Z</time>
      </trkpt>
      <trkpt lat="42.6586100" lon="-8.6367750">
        <ele>152.4</ele>
        <time>2022-06-19T06:57:51Z</time>
      </trkpt>
      <trkpt lat="42.6586410" lon="-8.6367460">
        <ele>152.4</ele>
        <time>2022-06-19T06:57:52Z</time>
      </trkpt>
      <trkpt lat="42.6586710" lon="-8.6367130">
        <ele>152.4</ele>
        <time>2022-06-19T06:57:53Z</time>
      </trkpt>
      <trkpt lat="42.6587000" lon="-8.6366800">
        <ele>152.4</ele>
        <time>2022-06-19T06:57:54Z</time>
      </trkpt>
      <trkpt lat="42.6587210" lon="-8.6366360">
        <ele>152.4</ele>
        <time>2022-06-19T06:57:55Z</time>
      </trkpt>
      <trkpt lat="42.6587450" lon="-8.6365880">
        <ele>152.4</ele>
        <time>2022-06-19T06:57:56Z</time>
      </trkpt>
      <trkpt lat="42.6587660" lon="-8.6365400">
        <ele>152.4</ele>
        <time>2022-06-19T06:57:57Z</time>
      </trkpt>
      <trkpt lat="42.6587830" lon="-8.6364850">
        <ele>152.4</ele>
        <time>2022-06-19T06:57:58Z</time>
      </trkpt>
      <trkpt lat="42.6587960" lon="-8.6364300">
        <ele>151.6</ele>
        <time>2022-06-19T06:57:59Z</time>
      </trkpt>
      <trkpt lat="42.6588050" lon="-8.6363750">
        <ele>151.6</ele>
        <time>2022-06-19T06:58:00Z</time>
      </trkpt>
      <trkpt lat="42.6588150" lon="-8.6363180">
        <ele>151.6</ele>
        <time>2022-06-19T06:58:01Z</time>
      </trkpt>
      <trkpt lat="42.6588250" lon="-8.6362630">
        <ele>151.6</ele>
        <time>2022-06-19T06:58:02Z</time>
      </trkpt>
      <trkpt lat="42.6588350" lon="-8.6362080">
        <ele>152.0</ele>
        <time>2022-06-19T06:58:03Z</time>
      </trkpt>
      <trkpt lat="42.6588450" lon="-8.6361530">
        <ele>152.0</ele>
        <time>2022-06-19T06:58:04Z</time>
      </trkpt>
      <trkpt lat="42.6588550" lon="-8.6360980">
        <ele>152.0</ele>
        <time>2022-06-19T06:58:05Z</time>
      </trkpt>
      <trkpt lat="42.6588660" lon="-8.6360430">
        <ele>151.8</ele>
        <time>2022-06-19T06:58:06Z</time>
      </trkpt>
      <trkpt lat="42.6588760" lon="-8.6359900">
        <ele>151.4</ele>
        <time>2022-06-19T06:58:07Z</time>
      </trkpt>
      <trkpt lat="42.6588830" lon="-8.6359360">
        <ele>151.4</ele>
        <time>2022-06-19T06:58:08Z</time>
      </trkpt>
      <trkpt lat="42.6588930" lon="-8.6358830">
        <ele>151.4</ele>
        <time>2022-06-19T06:58:09Z</time>
      </trkpt>
      <trkpt lat="42.6588980" lon="-8.6358280">
        <ele>151.6</ele>
        <time>2022-06-19T06:58:10Z</time>
      </trkpt>
      <trkpt lat="42.6589030" lon="-8.6357730">
        <ele>151.8</ele>
        <time>2022-06-19T06:58:11Z</time>
      </trkpt>
      <trkpt lat="42.6589100" lon="-8.6357200">
        <ele>151.8</ele>
        <time>2022-06-19T06:58:12Z</time>
      </trkpt>
      <trkpt lat="42.6589180" lon="-8.6356660">
        <ele>151.8</ele>
        <time>2022-06-19T06:58:13Z</time>
      </trkpt>
      <trkpt lat="42.6589260" lon="-8.6356130">
        <ele>151.8</ele>
        <time>2022-06-19T06:58:14Z</time>
      </trkpt>
      <trkpt lat="42.6589350" lon="-8.6355580">
        <ele>152.6</ele>
        <time>2022-06-19T06:58:15Z</time>
      </trkpt>
      <trkpt lat="42.6589430" lon="-8.6355100">
        <ele>152.6</ele>
        <time>2022-06-19T06:58:16Z</time>
      </trkpt>
      <trkpt lat="42.6589480" lon="-8.6354630">
        <ele>152.6</ele>
        <time>2022-06-19T06:58:17Z</time>
      </trkpt>
      <trkpt lat="42.6589580" lon="-8.6354200">
        <ele>153.2</ele>
        <time>2022-06-19T06:58:18Z</time>
      </trkpt>
      <trkpt lat="42.6589730" lon="-8.6353880">
        <ele>152.6</ele>
        <time>2022-06-19T06:58:19Z</time>
      </trkpt>
      <trkpt lat="42.6590000" lon="-8.6353700">
        <ele>152.6</ele>
        <time>2022-06-19T06:58:20Z</time>
      </trkpt>
      <trkpt lat="42.6590310" lon="-8.6353610">
        <ele>152.6</ele>
        <time>2022-06-19T06:58:21Z</time>
      </trkpt>
      <trkpt lat="42.6590650" lon="-8.6353630">
        <ele>153.6</ele>
        <time>2022-06-19T06:58:22Z</time>
      </trkpt>
      <trkpt lat="42.6591000" lon="-8.6353660">
        <ele>153.4</ele>
        <time>2022-06-19T06:58:23Z</time>
      </trkpt>
      <trkpt lat="42.6591350" lon="-8.6353680">
        <ele>153.4</ele>
        <time>2022-06-19T06:58:24Z</time>
      </trkpt>
      <trkpt lat="42.6591730" lon="-8.6353660">
        <ele>153.4</ele>
        <time>2022-06-19T06:58:25Z</time>
      </trkpt>
      <trkpt lat="42.6592060" lon="-8.6353560">
        <ele>154.4</ele>
        <time>2022-06-19T06:58:26Z</time>
      </trkpt>
      <trkpt lat="42.6592430" lon="-8.6353450">
        <ele>154.8</ele>
        <time>2022-06-19T06:58:27Z</time>
      </trkpt>
      <trkpt lat="42.6592780" lon="-8.6353280">
        <ele>154.8</ele>
        <time>2022-06-19T06:58:28Z</time>
      </trkpt>
      <trkpt lat="42.6593110" lon="-8.6353060">
        <ele>154.8</ele>
        <time>2022-06-19T06:58:29Z</time>
      </trkpt>
      <trkpt lat="42.6593450" lon="-8.6352880">
        <ele>154.8</ele>
        <time>2022-06-19T06:58:30Z</time>
      </trkpt>
      <trkpt lat="42.6593810" lon="-8.6352750">
        <ele>155.0</ele>
        <time>2022-06-19T06:58:31Z</time>
      </trkpt>
      <trkpt lat="42.6594180" lon="-8.6352600">
        <ele>155.0</ele>
        <time>2022-06-19T06:58:32Z</time>
      </trkpt>
      <trkpt lat="42.6594580" lon="-8.6352450">
        <ele>155.0</ele>
        <time>2022-06-19T06:58:33Z</time>
      </trkpt>
      <trkpt lat="42.6594980" lon="-8.6352360">
        <ele>154.8</ele>
        <time>2022-06-19T06:58:34Z</time>
      </trkpt>
      <trkpt lat="42.6595380" lon="-8.6352400">
        <ele>154.8</ele>
        <time>2022-06-19T06:58:35Z</time>
      </trkpt>
      <trkpt lat="42.6595780" lon="-8.6352550">
        <ele>154.8</ele>
        <time>2022-06-19T06:58:36Z</time>
      </trkpt>
      <trkpt lat="42.6596160" lon="-8.6352760">
        <ele>154.8</ele>
        <time>2022-06-19T06:58:37Z</time>
      </trkpt>
      <trkpt lat="42.6596530" lon="-8.6353010">
        <ele>154.8</ele>
        <time>2022-06-19T06:58:38Z</time>
      </trkpt>
      <trkpt lat="42.6596910" lon="-8.6353250">
        <ele>154.0</ele>
        <time>2022-06-19T06:58:39Z</time>
      </trkpt>
      <trkpt lat="42.6597300" lon="-8.6353510">
        <ele>154.0</ele>
        <time>2022-06-19T06:58:40Z</time>
      </trkpt>
      <trkpt lat="42.6597680" lon="-8.6353780">
        <ele>154.0</ele>
        <time>2022-06-19T06:58:41Z</time>
      </trkpt>
      <trkpt lat="42.6598050" lon="-8.6354060">
        <ele>154.6</ele>
        <time>2022-06-19T06:58:42Z</time>
      </trkpt>
      <trkpt lat="42.6598410" lon="-8.6354300">
        <ele>154.6</ele>
        <time>2022-06-19T06:58:43Z</time>
      </trkpt>
      <trkpt lat="42.6598780" lon="-8.6354560">
        <ele>154.6</ele>
        <time>2022-06-19T06:58:44Z</time>
      </trkpt>
      <trkpt lat="42.6599160" lon="-8.6354830">
        <ele>154.6</ele>
        <time>2022-06-19T06:58:45Z</time>
      </trkpt>
      <trkpt lat="42.6599530" lon="-8.6355100">
        <ele>155.0</ele>
        <time>2022-06-19T06:58:46Z</time>
      </trkpt>
      <trkpt lat="42.6599900" lon="-8.6355360">
        <ele>155.2</ele>
        <time>2022-06-19T06:58:47Z</time>
      </trkpt>
      <trkpt lat="42.6600280" lon="-8.6355630">
        <ele>155.2</ele>
        <time>2022-06-19T06:58:48Z</time>
      </trkpt>
      <trkpt lat="42.6600630" lon="-8.6355880">
        <ele>155.2</ele>
        <time>2022-06-19T06:58:49Z</time>
      </trkpt>
      <trkpt lat="42.6600980" lon="-8.6356130">
        <ele>155.2</ele>
        <time>2022-06-19T06:58:50Z</time>
      </trkpt>
      <trkpt lat="42.6601310" lon="-8.6356400">
        <ele>154.6</ele>
        <time>2022-06-19T06:58:51Z</time>
      </trkpt>
      <trkpt lat="42.6601660" lon="-8.6356630">
        <ele>154.6</ele>
        <time>2022-06-19T06:58:52Z</time>
      </trkpt>
      <trkpt lat="42.6602000" lon="-8.6356880">
        <ele>154.6</ele>
        <time>2022-06-19T06:58:53Z</time>
      </trkpt>
      <trkpt lat="42.6602350" lon="-8.6357110">
        <ele>154.6</ele>
        <time>2022-06-19T06:58:54Z</time>
      </trkpt>
      <trkpt lat="42.6602680" lon="-8.6357430">
        <ele>155.4</ele>
        <time>2022-06-19T06:58:55Z</time>
      </trkpt>
      <trkpt lat="42.6603000" lon="-8.6357730">
        <ele>155.4</ele>
        <time>2022-06-19T06:58:56Z</time>
      </trkpt>
      <trkpt lat="42.6603310" lon="-8.6358030">
        <ele>155.4</ele>
        <time>2022-06-19T06:58:57Z</time>
      </trkpt>
      <trkpt lat="42.6603650" lon="-8.6358330">
        <ele>155.2</ele>
        <time>2022-06-19T06:58:58Z</time>
      </trkpt>
      <trkpt lat="42.6603960" lon="-8.6358650">
        <ele>155.4</ele>
        <time>2022-06-19T06:58:59Z</time>
      </trkpt>
      <trkpt lat="42.6604260" lon="-8.6358930">
        <ele>155.4</ele>
        <time>2022-06-19T06:59:00Z</time>
      </trkpt>
      <trkpt lat="42.6604510" lon="-8.6359180">
        <ele>155.4</ele>
        <time>2022-06-19T06:59:01Z</time>
      </trkpt>
      <trkpt lat="42.6604750" lon="-8.6359410">
        <ele>156.2</ele>
        <time>2022-06-19T06:59:02Z</time>
      </trkpt>
      <trkpt lat="42.6604950" lon="-8.6359630">
        <ele>155.8</ele>
        <time>2022-06-19T06:59:03Z</time>
      </trkpt>
      <trkpt lat="42.6605180" lon="-8.6359830">
        <ele>155.8</ele>
        <time>2022-06-19T06:59:04Z</time>
      </trkpt>
      <trkpt lat="42.6605410" lon="-8.6360000">
        <ele>155.8</ele>
        <time>2022-06-19T06:59:05Z</time>
      </trkpt>
      <trkpt lat="42.6605650" lon="-8.6360180">
        <ele>156.8</ele>
        <time>2022-06-19T06:59:06Z</time>
      </trkpt>
      <trkpt lat="42.6605900" lon="-8.6360350">
        <ele>156.8</ele>
        <time>2022-06-19T06:59:07Z</time>
      </trkpt>
      <trkpt lat="42.6606180" lon="-8.6360500">
        <ele>156.8</ele>
        <time>2022-06-19T06:59:08Z</time>
      </trkpt>
      <trkpt lat="42.6606500" lon="-8.6360680">
        <ele>156.8</ele>
        <time>2022-06-19T06:59:09Z</time>
      </trkpt>
      <trkpt lat="42.6606860" lon="-8.6360910">
        <ele>157.4</ele>
        <time>2022-06-19T06:59:10Z</time>
      </trkpt>
      <trkpt lat="42.6607200" lon="-8.6361160">
        <ele>156.8</ele>
        <time>2022-06-19T06:59:11Z</time>
      </trkpt>
      <trkpt lat="42.6607550" lon="-8.6361360">
        <ele>156.8</ele>
        <time>2022-06-19T06:59:12Z</time>
      </trkpt>
      <trkpt lat="42.6607800" lon="-8.6361660">
        <ele>156.8</ele>
        <time>2022-06-19T06:59:13Z</time>
      </trkpt>
      <trkpt lat="42.6608100" lon="-8.6361980">
        <ele>156.8</ele>
        <time>2022-06-19T06:59:14Z</time>
      </trkpt>
      <trkpt lat="42.6608430" lon="-8.6362310">
        <ele>156.6</ele>
        <time>2022-06-19T06:59:15Z</time>
      </trkpt>
      <trkpt lat="42.6608730" lon="-8.6362680">
        <ele>156.6</ele>
        <time>2022-06-19T06:59:16Z</time>
      </trkpt>
      <trkpt lat="42.6609110" lon="-8.6362910">
        <ele>156.6</ele>
        <time>2022-06-19T06:59:17Z</time>
      </trkpt>
      <trkpt lat="42.6609480" lon="-8.6363130">
        <ele>156.6</ele>
        <time>2022-06-19T06:59:18Z</time>
      </trkpt>
      <trkpt lat="42.6609850" lon="-8.6363300">
        <ele>157.4</ele>
        <time>2022-06-19T06:59:19Z</time>
      </trkpt>
      <trkpt lat="42.6610180" lon="-8.6363400">
        <ele>157.4</ele>
        <time>2022-06-19T06:59:20Z</time>
      </trkpt>
      <trkpt lat="42.6610550" lon="-8.6363460">
        <ele>157.4</ele>
        <time>2022-06-19T06:59:21Z</time>
      </trkpt>
      <trkpt lat="42.6610900" lon="-8.6363580">
        <ele>156.6</ele>
        <time>2022-06-19T06:59:22Z</time>
      </trkpt>
      <trkpt lat="42.6611260" lon="-8.6363650">
        <ele>156.6</ele>
        <time>2022-06-19T06:59:23Z</time>
      </trkpt>
      <trkpt lat="42.6611660" lon="-8.6363760">
        <ele>156.6</ele>
        <time>2022-06-19T06:59:24Z</time>
      </trkpt>
      <trkpt lat="42.6612030" lon="-8.6363850">
        <ele>156.6</ele>
        <time>2022-06-19T06:59:25Z</time>
      </trkpt>
      <trkpt lat="42.6612430" lon="-8.6363830">
        <ele>156.6</ele>
        <time>2022-06-19T06:59:26Z</time>
      </trkpt>
      <trkpt lat="42.6612860" lon="-8.6363830">
        <ele>155.8</ele>
        <time>2022-06-19T06:59:27Z</time>
      </trkpt>
      <trkpt lat="42.6613300" lon="-8.6363850">
        <ele>155.8</ele>
        <time>2022-06-19T06:59:28Z</time>
      </trkpt>
      <trkpt lat="42.6613730" lon="-8.6363800">
        <ele>155.8</ele>
        <time>2022-06-19T06:59:29Z</time>
      </trkpt>
      <trkpt lat="42.6614150" lon="-8.6363710">
        <ele>155.8</ele>
        <time>2022-06-19T06:59:30Z</time>
      </trkpt>
      <trkpt lat="42.6614510" lon="-8.6363510">
        <ele>156.0</ele>
        <time>2022-06-19T06:59:31Z</time>
      </trkpt>
      <trkpt lat="42.6614910" lon="-8.6363260">
        <ele>156.0</ele>
        <time>2022-06-19T06:59:32Z</time>
      </trkpt>
      <trkpt lat="42.6615330" lon="-8.6362950">
        <ele>156.0</ele>
        <time>2022-06-19T06:59:33Z</time>
      </trkpt>
      <trkpt lat="42.6615700" lon="-8.6362630">
        <ele>155.8</ele>
        <time>2022-06-19T06:59:34Z</time>
      </trkpt>
      <trkpt lat="42.6616030" lon="-8.6362280">
        <ele>156.0</ele>
        <time>2022-06-19T06:59:35Z</time>
      </trkpt>
      <trkpt lat="42.6616310" lon="-8.6361880">
        <ele>156.0</ele>
        <time>2022-06-19T06:59:36Z</time>
      </trkpt>
      <trkpt lat="42.6616580" lon="-8.6361510">
        <ele>156.0</ele>
        <time>2022-06-19T06:59:37Z</time>
      </trkpt>
      <trkpt lat="42.6616860" lon="-8.6361100">
        <ele>156.0</ele>
        <time>2022-06-19T06:59:38Z</time>
      </trkpt>
      <trkpt lat="42.6617150" lon="-8.6360680">
        <ele>155.4</ele>
        <time>2022-06-19T06:59:39Z</time>
      </trkpt>
      <trkpt lat="42.6617430" lon="-8.6360280">
        <ele>155.4</ele>
        <time>2022-06-19T06:59:40Z</time>
      </trkpt>
      <trkpt lat="42.6617710" lon="-8.6359880">
        <ele>155.4</ele>
        <time>2022-06-19T06:59:41Z</time>
      </trkpt>
      <trkpt lat="42.6618010" lon="-8.6359450">
        <ele>155.4</ele>
        <time>2022-06-19T06:59:42Z</time>
      </trkpt>
      <trkpt lat="42.6618330" lon="-8.6358950">
        <ele>154.4</ele>
        <time>2022-06-19T06:59:43Z</time>
      </trkpt>
      <trkpt lat="42.6618680" lon="-8.6358380">
        <ele>154.4</ele>
        <time>2022-06-19T06:59:44Z</time>
      </trkpt>
      <trkpt lat="42.6619060" lon="-8.6357850">
        <ele>154.4</ele>
        <time>2022-06-19T06:59:45Z</time>
      </trkpt>
      <trkpt lat="42.6619450" lon="-8.6357330">
        <ele>153.4</ele>
        <time>2022-06-19T06:59:46Z</time>
      </trkpt>
      <trkpt lat="42.6619830" lon="-8.6356780">
        <ele>152.0</ele>
        <time>2022-06-19T06:59:47Z</time>
      </trkpt>
      <trkpt lat="42.6620250" lon="-8.6356200">
        <ele>152.0</ele>
        <time>2022-06-19T06:59:48Z</time>
      </trkpt>
      <trkpt lat="42.6620760" lon="-8.6355630">
        <ele>152.0</ele>
        <time>2022-06-19T06:59:49Z</time>
      </trkpt>
      <trkpt lat="42.6621350" lon="-8.6355110">
        <ele>151.0</ele>
        <time>2022-06-19T06:59:50Z</time>
      </trkpt>
      <trkpt lat="42.6621980" lon="-8.6354710">
        <ele>147.4</ele>
        <time>2022-06-19T06:59:51Z</time>
      </trkpt>
      <trkpt lat="42.6622560" lon="-8.6354250">
        <ele>147.4</ele>
        <time>2022-06-19T06:59:52Z</time>
      </trkpt>
      <trkpt lat="42.6623100" lon="-8.6353750">
        <ele>147.4</ele>
        <time>2022-06-19T06:59:53Z</time>
      </trkpt>
      <trkpt lat="42.6623650" lon="-8.6353280">
        <ele>146.4</ele>
        <time>2022-06-19T06:59:54Z</time>
      </trkpt>
      <trkpt lat="42.6624180" lon="-8.6352860">
        <ele>143.6</ele>
        <time>2022-06-19T06:59:55Z</time>
      </trkpt>
      <trkpt lat="42.6624730" lon="-8.6352480">
        <ele>143.6</ele>
        <time>2022-06-19T06:59:56Z</time>
      </trkpt>
      <trkpt lat="42.6625280" lon="-8.6352080">
        <ele>143.6</ele>
        <time>2022-06-19T06:59:57Z</time>
      </trkpt>
      <trkpt lat="42.6625800" lon="-8.6351550">
        <ele>142.6</ele>
        <time>2022-06-19T06:59:58Z</time>
      </trkpt>
      <trkpt lat="42.6626280" lon="-8.6350810">
        <ele>138.8</ele>
        <time>2022-06-19T06:59:59Z</time>
      </trkpt>
      <trkpt lat="42.6626830" lon="-8.6350030">
        <ele>138.8</ele>
        <time>2022-06-19T07:00:00Z</time>
      </trkpt>
      <trkpt lat="42.6627480" lon="-8.6349250">
        <ele>138.8</ele>
        <time>2022-06-19T07:00:01Z</time>
      </trkpt>
      <trkpt lat="42.6628160" lon="-8.6348410">
        <ele>138.8</ele>
        <time>2022-06-19T07:00:02Z</time>
      </trkpt>
      <trkpt lat="42.6628850" lon="-8.6347530">
        <ele>134.6</ele>
        <time>2022-06-19T07:00:03Z</time>
      </trkpt>
      <trkpt lat="42.6629510" lon="-8.6346650">
        <ele>134.6</ele>
        <time>2022-06-19T07:00:04Z</time>
      </trkpt>
      <trkpt lat="42.6630260" lon="-8.6345900">
        <ele>134.6</ele>
        <time>2022-06-19T07:00:05Z</time>
      </trkpt>
      <trkpt lat="42.6630930" lon="-8.6345450">
        <ele>134.6</ele>
        <time>2022-06-19T07:00:06Z</time>
      </trkpt>
      <trkpt lat="42.6631510" lon="-8.6345080">
        <ele>134.8</ele>
        <time>2022-06-19T07:00:07Z</time>
      </trkpt>
      <trkpt lat="42.6632030" lon="-8.6344730">
        <ele>134.8</ele>
        <time>2022-06-19T07:00:08Z</time>
      </trkpt>
      <trkpt lat="42.6632480" lon="-8.6344300">
        <ele>134.8</ele>
        <time>2022-06-19T07:00:09Z</time>
      </trkpt>
      <trkpt lat="42.6632880" lon="-8.6343850">
        <ele>135.8</ele>
        <time>2022-06-19T07:00:10Z</time>
      </trkpt>
      <trkpt lat="42.6633310" lon="-8.6343450">
        <ele>136.4</ele>
        <time>2022-06-19T07:00:11Z</time>
      </trkpt>
      <trkpt lat="42.6633730" lon="-8.6343050">
        <ele>136.4</ele>
        <time>2022-06-19T07:00:12Z</time>
      </trkpt>
      <trkpt lat="42.6634130" lon="-8.6342700">
        <ele>136.4</ele>
        <time>2022-06-19T07:00:13Z</time>
      </trkpt>
      <trkpt lat="42.6634510" lon="-8.6342330">
        <ele>136.4</ele>
        <time>2022-06-19T07:00:14Z</time>
      </trkpt>
      <trkpt lat="42.6634880" lon="-8.6342000">
        <ele>135.6</ele>
        <time>2022-06-19T07:00:15Z</time>
      </trkpt>
      <trkpt lat="42.6635280" lon="-8.6341730">
        <ele>135.6</ele>
        <time>2022-06-19T07:00:16Z</time>
      </trkpt>
      <trkpt lat="42.6635660" lon="-8.6341480">
        <ele>135.6</ele>
        <time>2022-06-19T07:00:17Z</time>
      </trkpt>
      <trkpt lat="42.6636000" lon="-8.6341230">
        <ele>136.6</ele>
        <time>2022-06-19T07:00:18Z</time>
      </trkpt>
      <trkpt lat="42.6636330" lon="-8.6341010">
        <ele>137.6</ele>
        <time>2022-06-19T07:00:19Z</time>
      </trkpt>
      <trkpt lat="42.6636630" lon="-8.6340800">
        <ele>137.6</ele>
        <time>2022-06-19T07:00:20Z</time>
      </trkpt>
      <trkpt lat="42.6636910" lon="-8.6340600">
        <ele>137.6</ele>
        <time>2022-06-19T07:00:21Z</time>
      </trkpt>
      <trkpt lat="42.6637180" lon="-8.6340410">
        <ele>137.6</ele>
        <time>2022-06-19T07:00:22Z</time>
      </trkpt>
      <trkpt lat="42.6637460" lon="-8.6340210">
        <ele>137.4</ele>
        <time>2022-06-19T07:00:23Z</time>
      </trkpt>
      <trkpt lat="42.6637710" lon="-8.6340030">
        <ele>137.4</ele>
        <time>2022-06-19T07:00:24Z</time>
      </trkpt>
      <trkpt lat="42.6637950" lon="-8.6339850">
        <ele>137.4</ele>
        <time>2022-06-19T07:00:25Z</time>
      </trkpt>
      <trkpt lat="42.6638210" lon="-8.6339650">
        <ele>138.4</ele>
        <time>2022-06-19T07:00:26Z</time>
      </trkpt>
      <trkpt lat="42.6638510" lon="-8.6339460">
        <ele>138.8</ele>
        <time>2022-06-19T07:00:27Z</time>
      </trkpt>
      <trkpt lat="42.6638760" lon="-8.6339280">
        <ele>138.8</ele>
        <time>2022-06-19T07:00:28Z</time>
      </trkpt>
      <trkpt lat="42.6639030" lon="-8.6339150">
        <ele>138.8</ele>
        <time>2022-06-19T07:00:29Z</time>
      </trkpt>
      <trkpt lat="42.6639330" lon="-8.6339000">
        <ele>138.8</ele>
        <time>2022-06-19T07:00:30Z</time>
      </trkpt>
      <trkpt lat="42.6639600" lon="-8.6338850">
        <ele>140.0</ele>
        <time>2022-06-19T07:00:31Z</time>
      </trkpt>
      <trkpt lat="42.6639850" lon="-8.6338700">
        <ele>140.0</ele>
        <time>2022-06-19T07:00:32Z</time>
      </trkpt>
      <trkpt lat="42.6640030" lon="-8.6338550">
        <ele>140.0</ele>
        <time>2022-06-19T07:00:33Z</time>
      </trkpt>
      <trkpt lat="42.6640280" lon="-8.6338410">
        <ele>140.0</ele>
        <time>2022-06-19T07:00:34Z</time>
      </trkpt>
      <trkpt lat="42.6640560" lon="-8.6338250">
        <ele>140.0</ele>
        <time>2022-06-19T07:00:35Z</time>
      </trkpt>
      <trkpt lat="42.6640850" lon="-8.6338110">
        <ele>139.8</ele>
        <time>2022-06-19T07:00:36Z</time>
      </trkpt>
      <trkpt lat="42.6641110" lon="-8.6338000">
        <ele>139.8</ele>
        <time>2022-06-19T07:00:37Z</time>
      </trkpt>
      <trkpt lat="42.6641430" lon="-8.6337860">
        <ele>139.8</ele>
        <time>2022-06-19T07:00:38Z</time>
      </trkpt>
      <trkpt lat="42.6641700" lon="-8.6337760">
        <ele>140.0</ele>
        <time>2022-06-19T07:00:39Z</time>
      </trkpt>
      <trkpt lat="42.6641980" lon="-8.6337660">
        <ele>139.8</ele>
        <time>2022-06-19T07:00:40Z</time>
      </trkpt>
      <trkpt lat="42.6642260" lon="-8.6337550">
        <ele>139.8</ele>
        <time>2022-06-19T07:00:41Z</time>
      </trkpt>
      <trkpt lat="42.6642530" lon="-8.6337410">
        <ele>139.8</ele>
        <time>2022-06-19T07:00:42Z</time>
      </trkpt>
      <trkpt lat="42.6642810" lon="-8.6337260">
        <ele>139.8</ele>
        <time>2022-06-19T07:00:43Z</time>
      </trkpt>
      <trkpt lat="42.6643100" lon="-8.6337100">
        <ele>140.8</ele>
        <time>2022-06-19T07:00:44Z</time>
      </trkpt>
      <trkpt lat="42.6643380" lon="-8.6336930">
        <ele>140.8</ele>
        <time>2022-06-19T07:00:45Z</time>
      </trkpt>
      <trkpt lat="42.6643660" lon="-8.6336780">
        <ele>140.8</ele>
        <time>2022-06-19T07:00:46Z</time>
      </trkpt>
      <trkpt lat="42.6643960" lon="-8.6336610">
        <ele>140.6</ele>
        <time>2022-06-19T07:00:47Z</time>
      </trkpt>
      <trkpt lat="42.6644250" lon="-8.6336450">
        <ele>140.2</ele>
        <time>2022-06-19T07:00:48Z</time>
      </trkpt>
      <trkpt lat="42.6644550" lon="-8.6336310">
        <ele>140.2</ele>
        <time>2022-06-19T07:00:49Z</time>
      </trkpt>
      <trkpt lat="42.6644850" lon="-8.6336230">
        <ele>140.2</ele>
        <time>2022-06-19T07:00:50Z</time>
      </trkpt>
      <trkpt lat="42.6645150" lon="-8.6336150">
        <ele>140.2</ele>
        <time>2022-06-19T07:00:51Z</time>
      </trkpt>
      <trkpt lat="42.6645410" lon="-8.6336030">
        <ele>140.4</ele>
        <time>2022-06-19T07:00:52Z</time>
      </trkpt>
      <trkpt lat="42.6645680" lon="-8.6335910">
        <ele>140.4</ele>
        <time>2022-06-19T07:00:53Z</time>
      </trkpt>
      <trkpt lat="42.6645910" lon="-8.6335780">
        <ele>140.4</ele>
        <time>2022-06-19T07:00:54Z</time>
      </trkpt>
      <trkpt lat="42.6646150" lon="-8.6335660">
        <ele>140.4</ele>
        <time>2022-06-19T07:00:55Z</time>
      </trkpt>
      <trkpt lat="42.6646410" lon="-8.6335560">
        <ele>141.0</ele>
        <time>2022-06-19T07:00:56Z</time>
      </trkpt>
      <trkpt lat="42.6646660" lon="-8.6335460">
        <ele>141.0</ele>
        <time>2022-06-19T07:00:57Z</time>
      </trkpt>
      <trkpt lat="42.6646930" lon="-8.6335310">
        <ele>141.0</ele>
        <time>2022-06-19T07:00:58Z</time>
      </trkpt>
      <trkpt lat="42.6647200" lon="-8.6335160">
        <ele>141.0</ele>
        <time>2022-06-19T07:00:59Z</time>
      </trkpt>
      <trkpt lat="42.6647480" lon="-8.6335030">
        <ele>141.2</ele>
        <time>2022-06-19T07:01:00Z</time>
      </trkpt>
      <trkpt lat="42.6647750" lon="-8.6334930">
        <ele>141.2</ele>
        <time>2022-06-19T07:01:01Z</time>
      </trkpt>
      <trkpt lat="42.6648000" lon="-8.6334830">
        <ele>141.2</ele>
        <time>2022-06-19T07:01:02Z</time>
      </trkpt>
      <trkpt lat="42.6648280" lon="-8.6334730">
        <ele>141.2</ele>
        <time>2022-06-19T07:01:03Z</time>
      </trkpt>
      <trkpt lat="42.6648580" lon="-8.6334600">
        <ele>140.6</ele>
        <time>2022-06-19T07:01:04Z</time>
      </trkpt>
      <trkpt lat="42.6648910" lon="-8.6334510">
        <ele>140.6</ele>
        <time>2022-06-19T07:01:05Z</time>
      </trkpt>
      <trkpt lat="42.6649230" lon="-8.6334450">
        <ele>140.6</ele>
        <time>2022-06-19T07:01:06Z</time>
      </trkpt>
      <trkpt lat="42.6649600" lon="-8.6334360">
        <ele>140.6</ele>
        <time>2022-06-19T07:01:07Z</time>
      </trkpt>
      <trkpt lat="42.6649950" lon="-8.6334250">
        <ele>141.0</ele>
        <time>2022-06-19T07:01:08Z</time>
      </trkpt>
      <trkpt lat="42.6650310" lon="-8.6334110">
        <ele>141.0</ele>
        <time>2022-06-19T07:01:09Z</time>
      </trkpt>
      <trkpt lat="42.6650680" lon="-8.6333960">
        <ele>141.0</ele>
        <time>2022-06-19T07:01:10Z</time>
      </trkpt>
      <trkpt lat="42.6651050" lon="-8.6333850">
        <ele>140.0</ele>
        <time>2022-06-19T07:01:11Z</time>
      </trkpt>
      <trkpt lat="42.6651430" lon="-8.6333730">
        <ele>140.6</ele>
        <time>2022-06-19T07:01:12Z</time>
      </trkpt>
      <trkpt lat="42.6651810" lon="-8.6333600">
        <ele>140.6</ele>
        <time>2022-06-19T07:01:13Z</time>
      </trkpt>
      <trkpt lat="42.6652180" lon="-8.6333500">
        <ele>140.6</ele>
        <time>2022-06-19T07:01:14Z</time>
      </trkpt>
      <trkpt lat="42.6652580" lon="-8.6333380">
        <ele>139.8</ele>
        <time>2022-06-19T07:01:15Z</time>
      </trkpt>
      <trkpt lat="42.6652980" lon="-8.6333250">
        <ele>139.2</ele>
        <time>2022-06-19T07:01:16Z</time>
      </trkpt>
      <trkpt lat="42.6653410" lon="-8.6333110">
        <ele>139.2</ele>
        <time>2022-06-19T07:01:17Z</time>
      </trkpt>
      <trkpt lat="42.6653860" lon="-8.6333000">
        <ele>139.2</ele>
        <time>2022-06-19T07:01:18Z</time>
      </trkpt>
      <trkpt lat="42.6654350" lon="-8.6332880">
        <ele>139.2</ele>
        <time>2022-06-19T07:01:19Z</time>
      </trkpt>
      <trkpt lat="42.6654830" lon="-8.6332800">
        <ele>138.2</ele>
        <time>2022-06-19T07:01:20Z</time>
      </trkpt>
      <trkpt lat="42.6655330" lon="-8.6332680">
        <ele>138.2</ele>
        <time>2022-06-19T07:01:21Z</time>
      </trkpt>
      <trkpt lat="42.6655850" lon="-8.6332560">
        <ele>138.2</ele>
        <time>2022-06-19T07:01:22Z</time>
      </trkpt>
      <trkpt lat="42.6656400" lon="-8.6332460">
        <ele>138.2</ele>
        <time>2022-06-19T07:01:23Z</time>
      </trkpt>
      <trkpt lat="42.6656930" lon="-8.6332350">
        <ele>136.6</ele>
        <time>2022-06-19T07:01:24Z</time>
      </trkpt>
      <trkpt lat="42.6657460" lon="-8.6332260">
        <ele>136.6</ele>
        <time>2022-06-19T07:01:25Z</time>
      </trkpt>
      <trkpt lat="42.6658000" lon="-8.6332200">
        <ele>136.6</ele>
        <time>2022-06-19T07:01:26Z</time>
      </trkpt>
      <trkpt lat="42.6658510" lon="-8.6332150">
        <ele>137.0</ele>
        <time>2022-06-19T07:01:27Z</time>
      </trkpt>
      <trkpt lat="42.6659000" lon="-8.6332110">
        <ele>137.2</ele>
        <time>2022-06-19T07:01:28Z</time>
      </trkpt>
      <trkpt lat="42.6659500" lon="-8.6332060">
        <ele>137.2</ele>
        <time>2022-06-19T07:01:29Z</time>
      </trkpt>
      <trkpt lat="42.6660000" lon="-8.6331950">
        <ele>137.2</ele>
        <time>2022-06-19T07:01:30Z</time>
      </trkpt>
      <trkpt lat="42.6660460" lon="-8.6331860">
        <ele>137.2</ele>
        <time>2022-06-19T07:01:31Z</time>
      </trkpt>
      <trkpt lat="42.6660950" lon="-8.6331800">
        <ele>137.6</ele>
        <time>2022-06-19T07:01:32Z</time>
      </trkpt>
      <trkpt lat="42.6661430" lon="-8.6331730">
        <ele>137.6</ele>
        <time>2022-06-19T07:01:33Z</time>
      </trkpt>
      <trkpt lat="42.6661900" lon="-8.6331660">
        <ele>137.6</ele>
        <time>2022-06-19T07:01:34Z</time>
      </trkpt>
      <trkpt lat="42.6662360" lon="-8.6331580">
        <ele>137.2</ele>
        <time>2022-06-19T07:01:35Z</time>
      </trkpt>
      <trkpt lat="42.6662850" lon="-8.6331500">
        <ele>137.6</ele>
        <time>2022-06-19T07:01:36Z</time>
      </trkpt>
      <trkpt lat="42.6663310" lon="-8.6331450">
        <ele>137.6</ele>
        <time>2022-06-19T07:01:37Z</time>
      </trkpt>
      <trkpt lat="42.6663780" lon="-8.6331400">
        <ele>137.6</ele>
        <time>2022-06-19T07:01:38Z</time>
      </trkpt>
      <trkpt lat="42.6664250" lon="-8.6331350">
        <ele>138.2</ele>
        <time>2022-06-19T07:01:39Z</time>
      </trkpt>
      <trkpt lat="42.6664710" lon="-8.6331300">
        <ele>138.4</ele>
        <time>2022-06-19T07:01:40Z</time>
      </trkpt>
      <trkpt lat="42.6665160" lon="-8.6331280">
        <ele>138.4</ele>
        <time>2022-06-19T07:01:41Z</time>
      </trkpt>
      <trkpt lat="42.6665600" lon="-8.6331280">
        <ele>138.4</ele>
        <time>2022-06-19T07:01:42Z</time>
      </trkpt>
      <trkpt lat="42.6666010" lon="-8.6331250">
        <ele>138.4</ele>
        <time>2022-06-19T07:01:43Z</time>
      </trkpt>
      <trkpt lat="42.6666400" lon="-8.6331250">
        <ele>140.0</ele>
        <time>2022-06-19T07:01:44Z</time>
      </trkpt>
      <trkpt lat="42.6666800" lon="-8.6331250">
        <ele>140.0</ele>
        <time>2022-06-19T07:01:45Z</time>
      </trkpt>
      <trkpt lat="42.6667160" lon="-8.6331250">
        <ele>140.0</ele>
        <time>2022-06-19T07:01:46Z</time>
      </trkpt>
      <trkpt lat="42.6667510" lon="-8.6331210">
        <ele>140.0</ele>
        <time>2022-06-19T07:01:47Z</time>
      </trkpt>
      <trkpt lat="42.6667880" lon="-8.6331200">
        <ele>140.6</ele>
        <time>2022-06-19T07:01:48Z</time>
      </trkpt>
      <trkpt lat="42.6668200" lon="-8.6331180">
        <ele>140.6</ele>
        <time>2022-06-19T07:01:49Z</time>
      </trkpt>
      <trkpt lat="42.6668500" lon="-8.6331200">
        <ele>140.6</ele>
        <time>2022-06-19T07:01:50Z</time>
      </trkpt>
      <trkpt lat="42.6668760" lon="-8.6331210">
        <ele>140.6</ele>
        <time>2022-06-19T07:01:51Z</time>
      </trkpt>
      <trkpt lat="42.6669030" lon="-8.6331230">
        <ele>141.0</ele>
        <time>2022-06-19T07:01:52Z</time>
      </trkpt>
      <trkpt lat="42.6669330" lon="-8.6331250">
        <ele>141.0</ele>
        <time>2022-06-19T07:01:53Z</time>
      </trkpt>
      <trkpt lat="42.6669630" lon="-8.6331280">
        <ele>141.0</ele>
        <time>2022-06-19T07:01:54Z</time>
      </trkpt>
      <trkpt lat="42.6669930" lon="-8.6331310">
        <ele>141.6</ele>
        <time>2022-06-19T07:01:55Z</time>
      </trkpt>
      <trkpt lat="42.6670200" lon="-8.6331350">
        <ele>141.6</ele>
        <time>2022-06-19T07:01:56Z</time>
      </trkpt>
      <trkpt lat="42.6670480" lon="-8.6331380">
        <ele>141.6</ele>
        <time>2022-06-19T07:01:57Z</time>
      </trkpt>
      <trkpt lat="42.6670760" lon="-8.6331400">
        <ele>141.6</ele>
        <time>2022-06-19T07:01:58Z</time>
      </trkpt>
      <trkpt lat="42.6671010" lon="-8.6331360">
        <ele>141.6</ele>
        <time>2022-06-19T07:01:59Z</time>
      </trkpt>
      <trkpt lat="42.6671250" lon="-8.6331300">
        <ele>141.8</ele>
        <time>2022-06-19T07:02:00Z</time>
      </trkpt>
      <trkpt lat="42.6671480" lon="-8.6331210">
        <ele>141.8</ele>
        <time>2022-06-19T07:02:01Z</time>
      </trkpt>
      <trkpt lat="42.6671660" lon="-8.6331130">
        <ele>141.8</ele>
        <time>2022-06-19T07:02:02Z</time>
      </trkpt>
      <trkpt lat="42.6671830" lon="-8.6331060">
        <ele>142.0</ele>
        <time>2022-06-19T07:02:03Z</time>
      </trkpt>
      <trkpt lat="42.6671960" lon="-8.6331060">
        <ele>142.0</ele>
        <time>2022-06-19T07:02:04Z</time>
      </trkpt>
      <trkpt lat="42.6672110" lon="-8.6331030">
        <ele>142.0</ele>
        <time>2022-06-19T07:02:05Z</time>
      </trkpt>
      <trkpt lat="42.6672300" lon="-8.6331060">
        <ele>142.0</ele>
        <time>2022-06-19T07:02:06Z</time>
      </trkpt>
      <trkpt lat="42.6672500" lon="-8.6331280">
        <ele>142.0</ele>
        <time>2022-06-19T07:02:07Z</time>
      </trkpt>
      <trkpt lat="42.6672530" lon="-8.6331630">
        <ele>142.0</ele>
        <time>2022-06-19T07:02:08Z</time>
      </trkpt>
      <trkpt lat="42.6672480" lon="-8.6332050">
        <ele>142.0</ele>
        <time>2022-06-19T07:02:09Z</time>
      </trkpt>
      <trkpt lat="42.6672430" lon="-8.6332530">
        <ele>142.0</ele>
        <time>2022-06-19T07:02:10Z</time>
      </trkpt>
      <trkpt lat="42.6672360" lon="-8.6333030">
        <ele>141.6</ele>
        <time>2022-06-19T07:02:11Z</time>
      </trkpt>
      <trkpt lat="42.6672310" lon="-8.6333510">
        <ele>141.2</ele>
        <time>2022-06-19T07:02:12Z</time>
      </trkpt>
      <trkpt lat="42.6672280" lon="-8.6334000">
        <ele>141.2</ele>
        <time>2022-06-19T07:02:13Z</time>
      </trkpt>
      <trkpt lat="42.6672230" lon="-8.6334510">
        <ele>141.2</ele>
        <time>2022-06-19T07:02:14Z</time>
      </trkpt>
      <trkpt lat="42.6672150" lon="-8.6335030">
        <ele>140.6</ele>
        <time>2022-06-19T07:02:15Z</time>
      </trkpt>
      <trkpt lat="42.6672080" lon="-8.6335550">
        <ele>140.4</ele>
        <time>2022-06-19T07:02:16Z</time>
      </trkpt>
      <trkpt lat="42.6672000" lon="-8.6336030">
        <ele>140.4</ele>
        <time>2022-06-19T07:02:17Z</time>
      </trkpt>
      <trkpt lat="42.6671930" lon="-8.6336510">
        <ele>140.4</ele>
        <time>2022-06-19T07:02:18Z</time>
      </trkpt>
      <trkpt lat="42.6671860" lon="-8.6336980">
        <ele>141.2</ele>
        <time>2022-06-19T07:02:19Z</time>
      </trkpt>
      <trkpt lat="42.6671810" lon="-8.6337450">
        <ele>141.0</ele>
        <time>2022-06-19T07:02:20Z</time>
      </trkpt>
      <trkpt lat="42.6671880" lon="-8.6337800">
        <ele>141.0</ele>
        <time>2022-06-19T07:02:21Z</time>
      </trkpt>
      <trkpt lat="42.6672060" lon="-8.6338010">
        <ele>141.0</ele>
        <time>2022-06-19T07:02:22Z</time>
      </trkpt>
      <trkpt lat="42.6672280" lon="-8.6338130">
        <ele>141.8</ele>
        <time>2022-06-19T07:02:23Z</time>
      </trkpt>
      <trkpt lat="42.6672580" lon="-8.6338130">
        <ele>141.6</ele>
        <time>2022-06-19T07:02:24Z</time>
      </trkpt>
      <trkpt lat="42.6672930" lon="-8.6338060">
        <ele>141.6</ele>
        <time>2022-06-19T07:02:25Z</time>
      </trkpt>
      <trkpt lat="42.6673310" lon="-8.6338010">
        <ele>141.6</ele>
        <time>2022-06-19T07:02:26Z</time>
      </trkpt>
      <trkpt lat="42.6673730" lon="-8.6337930">
        <ele>140.6</ele>
        <time>2022-06-19T07:02:27Z</time>
      </trkpt>
      <trkpt lat="42.6674160" lon="-8.6337900">
        <ele>140.4</ele>
        <time>2022-06-19T07:02:28Z</time>
      </trkpt>
      <trkpt lat="42.6674610" lon="-8.6337900">
        <ele>140.4</ele>
        <time>2022-06-19T07:02:29Z</time>
      </trkpt>
      <trkpt lat="42.6675100" lon="-8.6337930">
        <ele>140.4</ele>
        <time>2022-06-19T07:02:30Z</time>
      </trkpt>
      <trkpt lat="42.6675660" lon="-8.6337980">
        <ele>139.4</ele>
        <time>2022-06-19T07:02:31Z</time>
      </trkpt>
      <trkpt lat="42.6676280" lon="-8.6338080">
        <ele>137.8</ele>
        <time>2022-06-19T07:02:32Z</time>
      </trkpt>
      <trkpt lat="42.6676960" lon="-8.6338180">
        <ele>137.8</ele>
        <time>2022-06-19T07:02:33Z</time>
      </trkpt>
      <trkpt lat="42.6677700" lon="-8.6338250">
        <ele>137.8</ele>
        <time>2022-06-19T07:02:34Z</time>
      </trkpt>
      <trkpt lat="42.6678460" lon="-8.6338280">
        <ele>136.8</ele>
        <time>2022-06-19T07:02:35Z</time>
      </trkpt>
      <trkpt lat="42.6679300" lon="-8.6338310">
        <ele>134.4</ele>
        <time>2022-06-19T07:02:36Z</time>
      </trkpt>
      <trkpt lat="42.6680150" lon="-8.6338380">
        <ele>134.4</ele>
        <time>2022-06-19T07:02:37Z</time>
      </trkpt>
      <trkpt lat="42.6681010" lon="-8.6338460">
        <ele>134.4</ele>
        <time>2022-06-19T07:02:38Z</time>
      </trkpt>
      <trkpt lat="42.6681910" lon="-8.6338550">
        <ele>133.4</ele>
        <time>2022-06-19T07:02:39Z</time>
      </trkpt>
      <trkpt lat="42.6682810" lon="-8.6338630">
        <ele>131.2</ele>
        <time>2022-06-19T07:02:40Z</time>
      </trkpt>
      <trkpt lat="42.6683710" lon="-8.6338680">
        <ele>131.2</ele>
        <time>2022-06-19T07:02:41Z</time>
      </trkpt>
      <trkpt lat="42.6684630" lon="-8.6338700">
        <ele>131.2</ele>
        <time>2022-06-19T07:02:42Z</time>
      </trkpt>
      <trkpt lat="42.6685560" lon="-8.6338710">
        <ele>130.2</ele>
        <time>2022-06-19T07:02:43Z</time>
      </trkpt>
      <trkpt lat="42.6686500" lon="-8.6338730">
        <ele>128.8</ele>
        <time>2022-06-19T07:02:44Z</time>
      </trkpt>
      <trkpt lat="42.6687450" lon="-8.6338710">
        <ele>128.8</ele>
        <time>2022-06-19T07:02:45Z</time>
      </trkpt>
      <trkpt lat="42.6688430" lon="-8.6338700">
        <ele>128.8</ele>
        <time>2022-06-19T07:02:46Z</time>
      </trkpt>
      <trkpt lat="42.6689450" lon="-8.6338680">
        <ele>127.8</ele>
        <time>2022-06-19T07:02:47Z</time>
      </trkpt>
      <trkpt lat="42.6690460" lon="-8.6338680">
        <ele>124.4</ele>
        <time>2022-06-19T07:02:48Z</time>
      </trkpt>
      <trkpt lat="42.6691510" lon="-8.6338660">
        <ele>124.4</ele>
        <time>2022-06-19T07:02:49Z</time>
      </trkpt>
      <trkpt lat="42.6692550" lon="-8.6338600">
        <ele>124.4</ele>
        <time>2022-06-19T07:02:50Z</time>
      </trkpt>
      <trkpt lat="42.6693610" lon="-8.6338500">
        <ele>123.4</ele>
        <time>2022-06-19T07:02:51Z</time>
      </trkpt>
      <trkpt lat="42.6694680" lon="-8.6338410">
        <ele>122.8</ele>
        <time>2022-06-19T07:02:52Z</time>
      </trkpt>
      <trkpt lat="42.6695760" lon="-8.6338280">
        <ele>122.8</ele>
        <time>2022-06-19T07:02:53Z</time>
      </trkpt>
      <trkpt lat="42.6696830" lon="-8.6338150">
        <ele>122.8</ele>
        <time>2022-06-19T07:02:54Z</time>
      </trkpt>
      <trkpt lat="42.6697860" lon="-8.6338000">
        <ele>121.8</ele>
        <time>2022-06-19T07:02:55Z</time>
      </trkpt>
      <trkpt lat="42.6698910" lon="-8.6337830">
        <ele>120.6</ele>
        <time>2022-06-19T07:02:56Z</time>
      </trkpt>
      <trkpt lat="42.6699930" lon="-8.6337650">
        <ele>120.6</ele>
        <time>2022-06-19T07:02:57Z</time>
      </trkpt>
      <trkpt lat="42.6700930" lon="-8.6337450">
        <ele>120.6</ele>
        <time>2022-06-19T07:02:58Z</time>
      </trkpt>
      <trkpt lat="42.6701900" lon="-8.6337180">
        <ele>120.6</ele>
        <time>2022-06-19T07:02:59Z</time>
      </trkpt>
      <trkpt lat="42.6702810" lon="-8.6336860">
        <ele>119.0</ele>
        <time>2022-06-19T07:03:00Z</time>
      </trkpt>
      <trkpt lat="42.6703730" lon="-8.6336550">
        <ele>119.0</ele>
        <time>2022-06-19T07:03:01Z</time>
      </trkpt>
      <trkpt lat="42.6704660" lon="-8.6336230">
        <ele>119.0</ele>
        <time>2022-06-19T07:03:02Z</time>
      </trkpt>
      <trkpt lat="42.6705550" lon="-8.6335910">
        <ele>119.0</ele>
        <time>2022-06-19T07:03:03Z</time>
      </trkpt>
      <trkpt lat="42.6706400" lon="-8.6335610">
        <ele>119.2</ele>
        <time>2022-06-19T07:03:04Z</time>
      </trkpt>
      <trkpt lat="42.6707210" lon="-8.6335300">
        <ele>119.2</ele>
        <time>2022-06-19T07:03:05Z</time>
      </trkpt>
      <trkpt lat="42.6708030" lon="-8.6335010">
        <ele>119.2</ele>
        <time>2022-06-19T07:03:06Z</time>
      </trkpt>
      <trkpt lat="42.6708860" lon="-8.6334780">
        <ele>119.0</ele>
        <time>2022-06-19T07:03:07Z</time>
      </trkpt>
      <trkpt lat="42.6709750" lon="-8.6334650">
        <ele>117.6</ele>
        <time>2022-06-19T07:03:08Z</time>
      </trkpt>
      <trkpt lat="42.6710700" lon="-8.6334550">
        <ele>117.6</ele>
        <time>2022-06-19T07:03:09Z</time>
      </trkpt>
      <trkpt lat="42.6711680" lon="-8.6334360">
        <ele>117.6</ele>
        <time>2022-06-19T07:03:10Z</time>
      </trkpt>
      <trkpt lat="42.6712680" lon="-8.6334130">
        <ele>116.6</ele>
        <time>2022-06-19T07:03:11Z</time>
      </trkpt>
      <trkpt lat="42.6713660" lon="-8.6333850">
        <ele>111.6</ele>
        <time>2022-06-19T07:03:12Z</time>
      </trkpt>
      <trkpt lat="42.6714630" lon="-8.6333530">
        <ele>111.6</ele>
        <time>2022-06-19T07:03:13Z</time>
      </trkpt>
      <trkpt lat="42.6715610" lon="-8.6333180">
        <ele>111.6</ele>
        <time>2022-06-19T07:03:14Z</time>
      </trkpt>
      <trkpt lat="42.6716560" lon="-8.6332830">
        <ele>111.0</ele>
        <time>2022-06-19T07:03:15Z</time>
      </trkpt>
      <trkpt lat="42.6717460" lon="-8.6332500">
        <ele>110.2</ele>
        <time>2022-06-19T07:03:16Z</time>
      </trkpt>
      <trkpt lat="42.6718350" lon="-8.6332230">
        <ele>110.2</ele>
        <time>2022-06-19T07:03:17Z</time>
      </trkpt>
      <trkpt lat="42.6719200" lon="-8.6332000">
        <ele>110.2</ele>
        <time>2022-06-19T07:03:18Z</time>
      </trkpt>
      <trkpt lat="42.6720000" lon="-8.6331780">
        <ele>109.6</ele>
        <time>2022-06-19T07:03:19Z</time>
      </trkpt>
      <trkpt lat="42.6720750" lon="-8.6331610">
        <ele>110.8</ele>
        <time>2022-06-19T07:03:20Z</time>
      </trkpt>
      <trkpt lat="42.6721430" lon="-8.6331400">
        <ele>110.8</ele>
        <time>2022-06-19T07:03:21Z</time>
      </trkpt>
      <trkpt lat="42.6722030" lon="-8.6331150">
        <ele>110.8</ele>
        <time>2022-06-19T07:03:22Z</time>
      </trkpt>
      <trkpt lat="42.6722560" lon="-8.6330930">
        <ele>111.8</ele>
        <time>2022-06-19T07:03:23Z</time>
      </trkpt>
      <trkpt lat="42.6723010" lon="-8.6330760">
        <ele>114.2</ele>
        <time>2022-06-19T07:03:24Z</time>
      </trkpt>
      <trkpt lat="42.6723380" lon="-8.6330610">
        <ele>114.2</ele>
        <time>2022-06-19T07:03:25Z</time>
      </trkpt>
      <trkpt lat="42.6723680" lon="-8.6330450">
        <ele>114.2</ele>
        <time>2022-06-19T07:03:26Z</time>
      </trkpt>
      <trkpt lat="42.6724000" lon="-8.6330330">
        <ele>115.2</ele>
        <time>2022-06-19T07:03:27Z</time>
      </trkpt>
      <trkpt lat="42.6724310" lon="-8.6330230">
        <ele>117.8</ele>
        <time>2022-06-19T07:03:28Z</time>
      </trkpt>
      <trkpt lat="42.6724610" lon="-8.6330160">
        <ele>117.8</ele>
        <time>2022-06-19T07:03:29Z</time>
      </trkpt>
      <trkpt lat="42.6724880" lon="-8.6330110">
        <ele>117.8</ele>
        <time>2022-06-19T07:03:30Z</time>
      </trkpt>
      <trkpt lat="42.6725130" lon="-8.6330110">
        <ele>117.8</ele>
        <time>2022-06-19T07:03:31Z</time>
      </trkpt>
      <trkpt lat="42.6725360" lon="-8.6330150">
        <ele>119.2</ele>
        <time>2022-06-19T07:03:32Z</time>
      </trkpt>
      <trkpt lat="42.6725610" lon="-8.6330180">
        <ele>119.2</ele>
        <time>2022-06-19T07:03:33Z</time>
      </trkpt>
      <trkpt lat="42.6725830" lon="-8.6330230">
        <ele>119.2</ele>
        <time>2022-06-19T07:03:34Z</time>
      </trkpt>
      <trkpt lat="42.6726030" lon="-8.6330210">
        <ele>119.2</ele>
        <time>2022-06-19T07:03:35Z</time>
      </trkpt>
      <trkpt lat="42.6726210" lon="-8.6330180">
        <ele>120.4</ele>
        <time>2022-06-19T07:03:36Z</time>
      </trkpt>
      <trkpt lat="42.6726430" lon="-8.6330160">
        <ele>120.4</ele>
        <time>2022-06-19T07:03:37Z</time>
      </trkpt>
      <trkpt lat="42.6726650" lon="-8.6330180">
        <ele>120.4</ele>
        <time>2022-06-19T07:03:38Z</time>
      </trkpt>
      <trkpt lat="42.6726860" lon="-8.6330200">
        <ele>121.4</ele>
        <time>2022-06-19T07:03:39Z</time>
      </trkpt>
      <trkpt lat="42.6727110" lon="-8.6330180">
        <ele>121.2</ele>
        <time>2022-06-19T07:03:40Z</time>
      </trkpt>
      <trkpt lat="42.6727330" lon="-8.6330200">
        <ele>121.2</ele>
        <time>2022-06-19T07:03:41Z</time>
      </trkpt>
      <trkpt lat="42.6727510" lon="-8.6330230">
        <ele>121.2</ele>
        <time>2022-06-19T07:03:42Z</time>
      </trkpt>
      <trkpt lat="42.6727730" lon="-8.6330210">
        <ele>121.8</ele>
        <time>2022-06-19T07:03:43Z</time>
      </trkpt>
      <trkpt lat="42.6727950" lon="-8.6330200">
        <ele>121.8</ele>
        <time>2022-06-19T07:03:44Z</time>
      </trkpt>
      <trkpt lat="42.6728180" lon="-8.6330200">
        <ele>121.8</ele>
        <time>2022-06-19T07:03:45Z</time>
      </trkpt>
      <trkpt lat="42.6728400" lon="-8.6330210">
        <ele>121.8</ele>
        <time>2022-06-19T07:03:46Z</time>
      </trkpt>
      <trkpt lat="42.6728610" lon="-8.6330210">
        <ele>121.8</ele>
        <time>2022-06-19T07:03:47Z</time>
      </trkpt>
      <trkpt lat="42.6728830" lon="-8.6330210">
        <ele>121.8</ele>
        <time>2022-06-19T07:03:48Z</time>
      </trkpt>
      <trkpt lat="42.6729050" lon="-8.6330250">
        <ele>121.8</ele>
        <time>2022-06-19T07:03:49Z</time>
      </trkpt>
      <trkpt lat="42.6729250" lon="-8.6330280">
        <ele>121.8</ele>
        <time>2022-06-19T07:03:50Z</time>
      </trkpt>
      <trkpt lat="42.6729460" lon="-8.6330280">
        <ele>121.8</ele>
        <time>2022-06-19T07:03:51Z</time>
      </trkpt>
      <trkpt lat="42.6729700" lon="-8.6330310">
        <ele>121.8</ele>
        <time>2022-06-19T07:03:52Z</time>
      </trkpt>
      <trkpt lat="42.6729950" lon="-8.6330330">
        <ele>121.8</ele>
        <time>2022-06-19T07:03:53Z</time>
      </trkpt>
      <trkpt lat="42.6730210" lon="-8.6330310">
        <ele>121.8</ele>
        <time>2022-06-19T07:03:54Z</time>
      </trkpt>
      <trkpt lat="42.6730430" lon="-8.6330350">
        <ele>121.8</ele>
        <time>2022-06-19T07:03:55Z</time>
      </trkpt>
      <trkpt lat="42.6730660" lon="-8.6330500">
        <ele>121.4</ele>
        <time>2022-06-19T07:03:56Z</time>
      </trkpt>
      <trkpt lat="42.6730880" lon="-8.6330700">
        <ele>121.4</ele>
        <time>2022-06-19T07:03:57Z</time>
      </trkpt>
      <trkpt lat="42.6731130" lon="-8.6330900">
        <ele>121.4</ele>
        <time>2022-06-19T07:03:58Z</time>
      </trkpt>
      <trkpt lat="42.6731360" lon="-8.6331080">
        <ele>122.0</ele>
        <time>2022-06-19T07:03:59Z</time>
      </trkpt>
      <trkpt lat="42.6731600" lon="-8.6331230">
        <ele>122.2</ele>
        <time>2022-06-19T07:04:00Z</time>
      </trkpt>
      <trkpt lat="42.6731850" lon="-8.6331380">
        <ele>122.2</ele>
        <time>2022-06-19T07:04:01Z</time>
      </trkpt>
      <trkpt lat="42.6732060" lon="-8.6331480">
        <ele>122.2</ele>
        <time>2022-06-19T07:04:02Z</time>
      </trkpt>
      <trkpt lat="42.6732310" lon="-8.6331580">
        <ele>122.2</ele>
        <time>2022-06-19T07:04:03Z</time>
      </trkpt>
      <trkpt lat="42.6732580" lon="-8.6331630">
        <ele>122.0</ele>
        <time>2022-06-19T07:04:04Z</time>
      </trkpt>
      <trkpt lat="42.6732810" lon="-8.6331710">
        <ele>122.0</ele>
        <time>2022-06-19T07:04:05Z</time>
      </trkpt>
      <trkpt lat="42.6733080" lon="-8.6331760">
        <ele>122.0</ele>
        <time>2022-06-19T07:04:06Z</time>
      </trkpt>
      <trkpt lat="42.6733300" lon="-8.6331810">
        <ele>122.2</ele>
        <time>2022-06-19T07:04:07Z</time>
      </trkpt>
      <trkpt lat="42.6733530" lon="-8.6331880">
        <ele>122.2</ele>
        <time>2022-06-19T07:04:08Z</time>
      </trkpt>
      <trkpt lat="42.6733780" lon="-8.6331930">
        <ele>122.2</ele>
        <time>2022-06-19T07:04:09Z</time>
      </trkpt>
      <trkpt lat="42.6734050" lon="-8.6331960">
        <ele>122.2</ele>
        <time>2022-06-19T07:04:10Z</time>
      </trkpt>
      <trkpt lat="42.6734280" lon="-8.6332000">
        <ele>122.2</ele>
        <time>2022-06-19T07:04:11Z</time>
      </trkpt>
      <trkpt lat="42.6734530" lon="-8.6332010">
        <ele>122.2</ele>
        <time>2022-06-19T07:04:12Z</time>
      </trkpt>
      <trkpt lat="42.6734750" lon="-8.6332100">
        <ele>122.2</ele>
        <time>2022-06-19T07:04:13Z</time>
      </trkpt>
      <trkpt lat="42.6734960" lon="-8.6332150">
        <ele>122.2</ele>
        <time>2022-06-19T07:04:14Z</time>
      </trkpt>
      <trkpt lat="42.6735210" lon="-8.6332150">
        <ele>122.2</ele>
        <time>2022-06-19T07:04:15Z</time>
      </trkpt>
      <trkpt lat="42.6735410" lon="-8.6332130">
        <ele>122.8</ele>
        <time>2022-06-19T07:04:16Z</time>
      </trkpt>
      <trkpt lat="42.6735630" lon="-8.6332100">
        <ele>122.8</ele>
        <time>2022-06-19T07:04:17Z</time>
      </trkpt>
      <trkpt lat="42.6735850" lon="-8.6332130">
        <ele>122.8</ele>
        <time>2022-06-19T07:04:18Z</time>
      </trkpt>
      <trkpt lat="42.6736050" lon="-8.6332150">
        <ele>122.8</ele>
        <time>2022-06-19T07:04:19Z</time>
      </trkpt>
      <trkpt lat="42.6736210" lon="-8.6332150">
        <ele>123.0</ele>
        <time>2022-06-19T07:04:20Z</time>
      </trkpt>
      <trkpt lat="42.6736380" lon="-8.6332180">
        <ele>123.0</ele>
        <time>2022-06-19T07:04:21Z</time>
      </trkpt>
      <trkpt lat="42.6736600" lon="-8.6332180">
        <ele>123.0</ele>
        <time>2022-06-19T07:04:22Z</time>
      </trkpt>
      <trkpt lat="42.6736800" lon="-8.6332200">
        <ele>123.0</ele>
        <time>2022-06-19T07:04:23Z</time>
      </trkpt>
      <trkpt lat="42.6736910" lon="-8.6332210">
        <ele>123.4</ele>
        <time>2022-06-19T07:04:24Z</time>
      </trkpt>
      <trkpt lat="42.6737080" lon="-8.6332250">
        <ele>123.4</ele>
        <time>2022-06-19T07:04:25Z</time>
      </trkpt>
      <trkpt lat="42.6737180" lon="-8.6332300">
        <ele>123.4</ele>
        <time>2022-06-19T07:04:26Z</time>
      </trkpt>
      <trkpt lat="42.6737400" lon="-8.6332310">
        <ele>123.4</ele>
        <time>2022-06-19T07:04:27Z</time>
      </trkpt>
      <trkpt lat="42.6737660" lon="-8.6332330">
        <ele>123.4</ele>
        <time>2022-06-19T07:04:28Z</time>
      </trkpt>
      <trkpt lat="42.6737930" lon="-8.6332330">
        <ele>123.4</ele>
        <time>2022-06-19T07:04:29Z</time>
      </trkpt>
      <trkpt lat="42.6738230" lon="-8.6332300">
        <ele>123.4</ele>
        <time>2022-06-19T07:04:30Z</time>
      </trkpt>
      <trkpt lat="42.6738510" lon="-8.6332280">
        <ele>123.4</ele>
        <time>2022-06-19T07:04:31Z</time>
      </trkpt>
      <trkpt lat="42.6738850" lon="-8.6332310">
        <ele>123.2</ele>
        <time>2022-06-19T07:04:32Z</time>
      </trkpt>
      <trkpt lat="42.6739100" lon="-8.6332330">
        <ele>123.2</ele>
        <time>2022-06-19T07:04:33Z</time>
      </trkpt>
      <trkpt lat="42.6739380" lon="-8.6332410">
        <ele>123.2</ele>
        <time>2022-06-19T07:04:34Z</time>
      </trkpt>
      <trkpt lat="42.6739680" lon="-8.6332480">
        <ele>123.4</ele>
        <time>2022-06-19T07:04:35Z</time>
      </trkpt>
      <trkpt lat="42.6740050" lon="-8.6332580">
        <ele>123.4</ele>
        <time>2022-06-19T07:04:36Z</time>
      </trkpt>
      <trkpt lat="42.6740400" lon="-8.6332660">
        <ele>123.4</ele>
        <time>2022-06-19T07:04:37Z</time>
      </trkpt>
      <trkpt lat="42.6740730" lon="-8.6332730">
        <ele>123.4</ele>
        <time>2022-06-19T07:04:38Z</time>
      </trkpt>
      <trkpt lat="42.6741150" lon="-8.6332760">
        <ele>123.4</ele>
        <time>2022-06-19T07:04:39Z</time>
      </trkpt>
      <trkpt lat="42.6741510" lon="-8.6332810">
        <ele>123.8</ele>
        <time>2022-06-19T07:04:40Z</time>
      </trkpt>
      <trkpt lat="42.6741780" lon="-8.6332880">
        <ele>123.8</ele>
        <time>2022-06-19T07:04:41Z</time>
      </trkpt>
      <trkpt lat="42.6742060" lon="-8.6332930">
        <ele>123.8</ele>
        <time>2022-06-19T07:04:42Z</time>
      </trkpt>
      <trkpt lat="42.6742310" lon="-8.6333000">
        <ele>124.4</ele>
        <time>2022-06-19T07:04:43Z</time>
      </trkpt>
      <trkpt lat="42.6742580" lon="-8.6333000">
        <ele>124.4</ele>
        <time>2022-06-19T07:04:44Z</time>
      </trkpt>
      <trkpt lat="42.6742830" lon="-8.6333050">
        <ele>124.4</ele>
        <time>2022-06-19T07:04:45Z</time>
      </trkpt>
      <trkpt lat="42.6743050" lon="-8.6333100">
        <ele>124.4</ele>
        <time>2022-06-19T07:04:46Z</time>
      </trkpt>
      <trkpt lat="42.6743250" lon="-8.6333150">
        <ele>125.2</ele>
        <time>2022-06-19T07:04:47Z</time>
      </trkpt>
      <trkpt lat="42.6743480" lon="-8.6333230">
        <ele>125.4</ele>
        <time>2022-06-19T07:04:48Z</time>
      </trkpt>
      <trkpt lat="42.6743850" lon="-8.6333260">
        <ele>125.4</ele>
        <time>2022-06-19T07:04:49Z</time>
      </trkpt>
      <trkpt lat="42.6744130" lon="-8.6333400">
        <ele>125.4</ele>
        <time>2022-06-19T07:04:50Z</time>
      </trkpt>
      <trkpt lat="42.6744430" lon="-8.6333530">
        <ele>125.4</ele>
        <time>2022-06-19T07:04:51Z</time>
      </trkpt>
      <trkpt lat="42.6744710" lon="-8.6333680">
        <ele>125.8</ele>
        <time>2022-06-19T07:04:52Z</time>
      </trkpt>
      <trkpt lat="42.6744980" lon="-8.6333900">
        <ele>125.8</ele>
        <time>2022-06-19T07:04:53Z</time>
      </trkpt>
      <trkpt lat="42.6745280" lon="-8.6334130">
        <ele>125.8</ele>
        <time>2022-06-19T07:04:54Z</time>
      </trkpt>
      <trkpt lat="42.6745660" lon="-8.6334330">
        <ele>126.6</ele>
        <time>2022-06-19T07:04:55Z</time>
      </trkpt>
      <trkpt lat="42.6745950" lon="-8.6334550">
        <ele>127.0</ele>
        <time>2022-06-19T07:04:56Z</time>
      </trkpt>
      <trkpt lat="42.6746250" lon="-8.6334710">
        <ele>127.0</ele>
        <time>2022-06-19T07:04:57Z</time>
      </trkpt>
      <trkpt lat="42.6746480" lon="-8.6334950">
        <ele>127.0</ele>
        <time>2022-06-19T07:04:58Z</time>
      </trkpt>
      <trkpt lat="42.6746680" lon="-8.6335160">
        <ele>127.0</ele>
        <time>2022-06-19T07:04:59Z</time>
      </trkpt>
      <trkpt lat="42.6746860" lon="-8.6335410">
        <ele>127.6</ele>
        <time>2022-06-19T07:05:00Z</time>
      </trkpt>
      <trkpt lat="42.6747050" lon="-8.6335630">
        <ele>127.6</ele>
        <time>2022-06-19T07:05:01Z</time>
      </trkpt>
      <trkpt lat="42.6747210" lon="-8.6335850">
        <ele>127.6</ele>
        <time>2022-06-19T07:05:02Z</time>
      </trkpt>
      <trkpt lat="42.6747350" lon="-8.6336080">
        <ele>127.6</ele>
        <time>2022-06-19T07:05:03Z</time>
      </trkpt>
      <trkpt lat="42.6747500" lon="-8.6336310">
        <ele>128.0</ele>
        <time>2022-06-19T07:05:04Z</time>
      </trkpt>
      <trkpt lat="42.6747630" lon="-8.6336650">
        <ele>128.0</ele>
        <time>2022-06-19T07:05:05Z</time>
      </trkpt>
      <trkpt lat="42.6747750" lon="-8.6336930">
        <ele>128.0</ele>
        <time>2022-06-19T07:05:06Z</time>
      </trkpt>
      <trkpt lat="42.6747830" lon="-8.6337160">
        <ele>128.0</ele>
        <time>2022-06-19T07:05:07Z</time>
      </trkpt>
      <trkpt lat="42.6747850" lon="-8.6337400">
        <ele>128.2</ele>
        <time>2022-06-19T07:05:08Z</time>
      </trkpt>
      <trkpt lat="42.6747900" lon="-8.6337630">
        <ele>128.2</ele>
        <time>2022-06-19T07:05:09Z</time>
      </trkpt>
      <trkpt lat="42.6747960" lon="-8.6337900">
        <ele>128.2</ele>
        <time>2022-06-19T07:05:10Z</time>
      </trkpt>
      <trkpt lat="42.6748010" lon="-8.6338210">
        <ele>128.4</ele>
        <time>2022-06-19T07:05:11Z</time>
      </trkpt>
      <trkpt lat="42.6748050" lon="-8.6338580">
        <ele>128.6</ele>
        <time>2022-06-19T07:05:12Z</time>
      </trkpt>
      <trkpt lat="42.6748060" lon="-8.6338910">
        <ele>128.6</ele>
        <time>2022-06-19T07:05:13Z</time>
      </trkpt>
      <trkpt lat="42.6748110" lon="-8.6339280">
        <ele>128.6</ele>
        <time>2022-06-19T07:05:14Z</time>
      </trkpt>
      <trkpt lat="42.6748150" lon="-8.6339610">
        <ele>128.6</ele>
        <time>2022-06-19T07:05:15Z</time>
      </trkpt>
      <trkpt lat="42.6748200" lon="-8.6339950">
        <ele>128.8</ele>
        <time>2022-06-19T07:05:16Z</time>
      </trkpt>
      <trkpt lat="42.6748250" lon="-8.6340230">
        <ele>128.8</ele>
        <time>2022-06-19T07:05:17Z</time>
      </trkpt>
      <trkpt lat="42.6748250" lon="-8.6340600">
        <ele>128.8</ele>
        <time>2022-06-19T07:05:18Z</time>
      </trkpt>
      <trkpt lat="42.6748250" lon="-8.6340880">
        <ele>128.8</ele>
        <time>2022-06-19T07:05:19Z</time>
      </trkpt>
      <trkpt lat="42.6748200" lon="-8.6341130">
        <ele>129.2</ele>
        <time>2022-06-19T07:05:20Z</time>
      </trkpt>
      <trkpt lat="42.6748130" lon="-8.6341430">
        <ele>129.2</ele>
        <time>2022-06-19T07:05:21Z</time>
      </trkpt>
      <trkpt lat="42.6748150" lon="-8.6341880">
        <ele>129.2</ele>
        <time>2022-06-19T07:05:22Z</time>
      </trkpt>
      <trkpt lat="42.6748260" lon="-8.6342150">
        <ele>129.2</ele>
        <time>2022-06-19T07:05:23Z</time>
      </trkpt>
      <trkpt lat="42.6748360" lon="-8.6342410">
        <ele>130.0</ele>
        <time>2022-06-19T07:05:24Z</time>
      </trkpt>
      <trkpt lat="42.6748410" lon="-8.6342680">
        <ele>130.0</ele>
        <time>2022-06-19T07:05:25Z</time>
      </trkpt>
      <trkpt lat="42.6748400" lon="-8.6342930">
        <ele>130.0</ele>
        <time>2022-06-19T07:05:26Z</time>
      </trkpt>
      <trkpt lat="42.6748400" lon="-8.6343300">
        <ele>129.8</ele>
        <time>2022-06-19T07:05:27Z</time>
      </trkpt>
      <trkpt lat="42.6748430" lon="-8.6343550">
        <ele>130.0</ele>
        <time>2022-06-19T07:05:28Z</time>
      </trkpt>
      <trkpt lat="42.6748460" lon="-8.6343850">
        <ele>130.0</ele>
        <time>2022-06-19T07:05:29Z</time>
      </trkpt>
      <trkpt lat="42.6748530" lon="-8.6344150">
        <ele>130.0</ele>
        <time>2022-06-19T07:05:30Z</time>
      </trkpt>
      <trkpt lat="42.6748510" lon="-8.6344460">
        <ele>130.0</ele>
        <time>2022-06-19T07:05:31Z</time>
      </trkpt>
      <trkpt lat="42.6748510" lon="-8.6344780">
        <ele>131.0</ele>
        <time>2022-06-19T07:05:32Z</time>
      </trkpt>
      <trkpt lat="42.6748550" lon="-8.6345080">
        <ele>131.0</ele>
        <time>2022-06-19T07:05:33Z</time>
      </trkpt>
      <trkpt lat="42.6748560" lon="-8.6345360">
        <ele>131.0</ele>
        <time>2022-06-19T07:05:34Z</time>
      </trkpt>
      <trkpt lat="42.6748630" lon="-8.6345630">
        <ele>131.0</ele>
        <time>2022-06-19T07:05:35Z</time>
      </trkpt>
      <trkpt lat="42.6748710" lon="-8.6346010">
        <ele>131.2</ele>
        <time>2022-06-19T07:05:36Z</time>
      </trkpt>
      <trkpt lat="42.6748730" lon="-8.6346350">
        <ele>131.2</ele>
        <time>2022-06-19T07:05:37Z</time>
      </trkpt>
      <trkpt lat="42.6748760" lon="-8.6346730">
        <ele>131.2</ele>
        <time>2022-06-19T07:05:38Z</time>
      </trkpt>
      <trkpt lat="42.6748830" lon="-8.6347110">
        <ele>131.6</ele>
        <time>2022-06-19T07:05:39Z</time>
      </trkpt>
      <trkpt lat="42.6748900" lon="-8.6347430">
        <ele>131.6</ele>
        <time>2022-06-19T07:05:40Z</time>
      </trkpt>
      <trkpt lat="42.6748960" lon="-8.6347780">
        <ele>131.6</ele>
        <time>2022-06-19T07:05:41Z</time>
      </trkpt>
      <trkpt lat="42.6749050" lon="-8.6348160">
        <ele>131.6</ele>
        <time>2022-06-19T07:05:42Z</time>
      </trkpt>
      <trkpt lat="42.6749110" lon="-8.6348550">
        <ele>132.2</ele>
        <time>2022-06-19T07:05:43Z</time>
      </trkpt>
      <trkpt lat="42.6749160" lon="-8.6348950">
        <ele>132.4</ele>
        <time>2022-06-19T07:05:44Z</time>
      </trkpt>
      <trkpt lat="42.6749250" lon="-8.6349300">
        <ele>132.4</ele>
        <time>2022-06-19T07:05:45Z</time>
      </trkpt>
      <trkpt lat="42.6749310" lon="-8.6349730">
        <ele>132.4</ele>
        <time>2022-06-19T07:05:46Z</time>
      </trkpt>
      <trkpt lat="42.6749400" lon="-8.6350110">
        <ele>132.8</ele>
        <time>2022-06-19T07:05:47Z</time>
      </trkpt>
      <trkpt lat="42.6749480" lon="-8.6350450">
        <ele>133.0</ele>
        <time>2022-06-19T07:05:48Z</time>
      </trkpt>
      <trkpt lat="42.6749550" lon="-8.6350830">
        <ele>133.0</ele>
        <time>2022-06-19T07:05:49Z</time>
      </trkpt>
      <trkpt lat="42.6749560" lon="-8.6351110">
        <ele>133.0</ele>
        <time>2022-06-19T07:05:50Z</time>
      </trkpt>
      <trkpt lat="42.6749610" lon="-8.6351380">
        <ele>133.0</ele>
        <time>2022-06-19T07:05:51Z</time>
      </trkpt>
      <trkpt lat="42.6749710" lon="-8.6351630">
        <ele>133.0</ele>
        <time>2022-06-19T07:05:52Z</time>
      </trkpt>
      <trkpt lat="42.6749780" lon="-8.6351900">
        <ele>133.0</ele>
        <time>2022-06-19T07:05:53Z</time>
      </trkpt>
      <trkpt lat="42.6749850" lon="-8.6352180">
        <ele>133.0</ele>
        <time>2022-06-19T07:05:54Z</time>
      </trkpt>
      <trkpt lat="42.6749900" lon="-8.6352530">
        <ele>132.6</ele>
        <time>2022-06-19T07:05:55Z</time>
      </trkpt>
      <trkpt lat="42.6749910" lon="-8.6352880">
        <ele>131.8</ele>
        <time>2022-06-19T07:05:56Z</time>
      </trkpt>
      <trkpt lat="42.6749880" lon="-8.6353210">
        <ele>131.8</ele>
        <time>2022-06-19T07:05:57Z</time>
      </trkpt>
      <trkpt lat="42.6749780" lon="-8.6353610">
        <ele>131.8</ele>
        <time>2022-06-19T07:05:58Z</time>
      </trkpt>
      <trkpt lat="42.6749750" lon="-8.6353980">
        <ele>131.8</ele>
        <time>2022-06-19T07:05:59Z</time>
      </trkpt>
      <trkpt lat="42.6749710" lon="-8.6354360">
        <ele>132.4</ele>
        <time>2022-06-19T07:06:00Z</time>
      </trkpt>
      <trkpt lat="42.6749780" lon="-8.6354680">
        <ele>132.4</ele>
        <time>2022-06-19T07:06:01Z</time>
      </trkpt>
      <trkpt lat="42.6749880" lon="-8.6354980">
        <ele>132.4</ele>
        <time>2022-06-19T07:06:02Z</time>
      </trkpt>
      <trkpt lat="42.6750010" lon="-8.6355330">
        <ele>132.0</ele>
        <time>2022-06-19T07:06:03Z</time>
      </trkpt>
      <trkpt lat="42.6750130" lon="-8.6355730">
        <ele>132.6</ele>
        <time>2022-06-19T07:06:04Z</time>
      </trkpt>
      <trkpt lat="42.6750230" lon="-8.6356150">
        <ele>132.6</ele>
        <time>2022-06-19T07:06:05Z</time>
      </trkpt>
      <trkpt lat="42.6750330" lon="-8.6356530">
        <ele>132.6</ele>
        <time>2022-06-19T07:06:06Z</time>
      </trkpt>
      <trkpt lat="42.6750400" lon="-8.6357000">
        <ele>132.6</ele>
        <time>2022-06-19T07:06:07Z</time>
      </trkpt>
      <trkpt lat="42.6750500" lon="-8.6357410">
        <ele>132.4</ele>
        <time>2022-06-19T07:06:08Z</time>
      </trkpt>
      <trkpt lat="42.6750630" lon="-8.6357710">
        <ele>132.4</ele>
        <time>2022-06-19T07:06:09Z</time>
      </trkpt>
      <trkpt lat="42.6750760" lon="-8.6358010">
        <ele>132.4</ele>
        <time>2022-06-19T07:06:10Z</time>
      </trkpt>
      <trkpt lat="42.6750800" lon="-8.6358330">
        <ele>132.8</ele>
        <time>2022-06-19T07:06:11Z</time>
      </trkpt>
      <trkpt lat="42.6750900" lon="-8.6358760">
        <ele>133.0</ele>
        <time>2022-06-19T07:06:12Z</time>
      </trkpt>
      <trkpt lat="42.6750960" lon="-8.6359130">
        <ele>133.0</ele>
        <time>2022-06-19T07:06:13Z</time>
      </trkpt>
      <trkpt lat="42.6751060" lon="-8.6359480">
        <ele>133.0</ele>
        <time>2022-06-19T07:06:14Z</time>
      </trkpt>
      <trkpt lat="42.6751160" lon="-8.6359810">
        <ele>133.0</ele>
        <time>2022-06-19T07:06:15Z</time>
      </trkpt>
      <trkpt lat="42.6751400" lon="-8.6360160">
        <ele>133.0</ele>
        <time>2022-06-19T07:06:16Z</time>
      </trkpt>
      <trkpt lat="42.6751510" lon="-8.6360510">
        <ele>133.0</ele>
        <time>2022-06-19T07:06:17Z</time>
      </trkpt>
      <trkpt lat="42.6751650" lon="-8.6360930">
        <ele>133.0</ele>
        <time>2022-06-19T07:06:18Z</time>
      </trkpt>
      <trkpt lat="42.6751780" lon="-8.6361350">
        <ele>133.0</ele>
        <time>2022-06-19T07:06:19Z</time>
      </trkpt>
      <trkpt lat="42.6751910" lon="-8.6361760">
        <ele>133.4</ele>
        <time>2022-06-19T07:06:20Z</time>
      </trkpt>
      <trkpt lat="42.6752050" lon="-8.6362230">
        <ele>133.4</ele>
        <time>2022-06-19T07:06:21Z</time>
      </trkpt>
      <trkpt lat="42.6752110" lon="-8.6362650">
        <ele>133.4</ele>
        <time>2022-06-19T07:06:22Z</time>
      </trkpt>
      <trkpt lat="42.6752130" lon="-8.6363060">
        <ele>133.4</ele>
        <time>2022-06-19T07:06:23Z</time>
      </trkpt>
      <trkpt lat="42.6752130" lon="-8.6363400">
        <ele>133.4</ele>
        <time>2022-06-19T07:06:24Z</time>
      </trkpt>
      <trkpt lat="42.6752180" lon="-8.6363760">
        <ele>133.4</ele>
        <time>2022-06-19T07:06:25Z</time>
      </trkpt>
      <trkpt lat="42.6752280" lon="-8.6364100">
        <ele>133.4</ele>
        <time>2022-06-19T07:06:26Z</time>
      </trkpt>
      <trkpt lat="42.6752430" lon="-8.6364410">
        <ele>133.4</ele>
        <time>2022-06-19T07:06:27Z</time>
      </trkpt>
      <trkpt lat="42.6752550" lon="-8.6364730">
        <ele>133.2</ele>
        <time>2022-06-19T07:06:28Z</time>
      </trkpt>
      <trkpt lat="42.6752650" lon="-8.6365060">
        <ele>133.2</ele>
        <time>2022-06-19T07:06:29Z</time>
      </trkpt>
      <trkpt lat="42.6752800" lon="-8.6365400">
        <ele>133.2</ele>
        <time>2022-06-19T07:06:30Z</time>
      </trkpt>
      <trkpt lat="42.6752980" lon="-8.6365730">
        <ele>133.8</ele>
        <time>2022-06-19T07:06:31Z</time>
      </trkpt>
      <trkpt lat="42.6753210" lon="-8.6366060">
        <ele>133.8</ele>
        <time>2022-06-19T07:06:32Z</time>
      </trkpt>
      <trkpt lat="42.6753400" lon="-8.6366310">
        <ele>133.8</ele>
        <time>2022-06-19T07:06:33Z</time>
      </trkpt>
      <trkpt lat="42.6753610" lon="-8.6366580">
        <ele>133.8</ele>
        <time>2022-06-19T07:06:34Z</time>
      </trkpt>
      <trkpt lat="42.6753780" lon="-8.6366910">
        <ele>133.8</ele>
        <time>2022-06-19T07:06:35Z</time>
      </trkpt>
      <trkpt lat="42.6753910" lon="-8.6367200">
        <ele>134.0</ele>
        <time>2022-06-19T07:06:36Z</time>
      </trkpt>
      <trkpt lat="42.6754050" lon="-8.6367480">
        <ele>134.0</ele>
        <time>2022-06-19T07:06:37Z</time>
      </trkpt>
      <trkpt lat="42.6754150" lon="-8.6367810">
        <ele>134.0</ele>
        <time>2022-06-19T07:06:38Z</time>
      </trkpt>
      <trkpt lat="42.6754230" lon="-8.6368160">
        <ele>134.4</ele>
        <time>2022-06-19T07:06:39Z</time>
      </trkpt>
      <trkpt lat="42.6754310" lon="-8.6368450">
        <ele>134.0</ele>
        <time>2022-06-19T07:06:40Z</time>
      </trkpt>
      <trkpt lat="42.6754430" lon="-8.6368710">
        <ele>134.0</ele>
        <time>2022-06-19T07:06:41Z</time>
      </trkpt>
      <trkpt lat="42.6754500" lon="-8.6369080">
        <ele>134.0</ele>
        <time>2022-06-19T07:06:42Z</time>
      </trkpt>
      <trkpt lat="42.6754560" lon="-8.6369460">
        <ele>134.6</ele>
        <time>2022-06-19T07:06:43Z</time>
      </trkpt>
      <trkpt lat="42.6754680" lon="-8.6369910">
        <ele>134.8</ele>
        <time>2022-06-19T07:06:44Z</time>
      </trkpt>
      <trkpt lat="42.6754800" lon="-8.6370310">
        <ele>134.8</ele>
        <time>2022-06-19T07:06:45Z</time>
      </trkpt>
      <trkpt lat="42.6754980" lon="-8.6370800">
        <ele>134.8</ele>
        <time>2022-06-19T07:06:46Z</time>
      </trkpt>
      <trkpt lat="42.6755200" lon="-8.6371230">
        <ele>134.6</ele>
        <time>2022-06-19T07:06:47Z</time>
      </trkpt>
      <trkpt lat="42.6755410" lon="-8.6371630">
        <ele>134.8</ele>
        <time>2022-06-19T07:06:48Z</time>
      </trkpt>
      <trkpt lat="42.6755680" lon="-8.6372060">
        <ele>134.8</ele>
        <time>2022-06-19T07:06:49Z</time>
      </trkpt>
      <trkpt lat="42.6755980" lon="-8.6372560">
        <ele>134.8</ele>
        <time>2022-06-19T07:06:50Z</time>
      </trkpt>
      <trkpt lat="42.6756260" lon="-8.6373050">
        <ele>134.8</ele>
        <time>2022-06-19T07:06:51Z</time>
      </trkpt>
      <trkpt lat="42.6756550" lon="-8.6373460">
        <ele>134.6</ele>
        <time>2022-06-19T07:06:52Z</time>
      </trkpt>
      <trkpt lat="42.6756800" lon="-8.6373980">
        <ele>134.6</ele>
        <time>2022-06-19T07:06:53Z</time>
      </trkpt>
      <trkpt lat="42.6757000" lon="-8.6374400">
        <ele>134.6</ele>
        <time>2022-06-19T07:06:54Z</time>
      </trkpt>
      <trkpt lat="42.6757160" lon="-8.6374880">
        <ele>135.2</ele>
        <time>2022-06-19T07:06:55Z</time>
      </trkpt>
      <trkpt lat="42.6757380" lon="-8.6375250">
        <ele>135.2</ele>
        <time>2022-06-19T07:06:56Z</time>
      </trkpt>
      <trkpt lat="42.6757650" lon="-8.6375630">
        <ele>135.2</ele>
        <time>2022-06-19T07:06:57Z</time>
      </trkpt>
      <trkpt lat="42.6758000" lon="-8.6376030">
        <ele>135.2</ele>
        <time>2022-06-19T07:06:58Z</time>
      </trkpt>
      <trkpt lat="42.6758250" lon="-8.6376430">
        <ele>135.2</ele>
        <time>2022-06-19T07:06:59Z</time>
      </trkpt>
      <trkpt lat="42.6758460" lon="-8.6376830">
        <ele>134.8</ele>
        <time>2022-06-19T07:07:00Z</time>
      </trkpt>
      <trkpt lat="42.6758700" lon="-8.6377210">
        <ele>134.8</ele>
        <time>2022-06-19T07:07:01Z</time>
      </trkpt>
      <trkpt lat="42.6758950" lon="-8.6377580">
        <ele>134.8</ele>
        <time>2022-06-19T07:07:02Z</time>
      </trkpt>
      <trkpt lat="42.6759210" lon="-8.6377960">
        <ele>134.8</ele>
        <time>2022-06-19T07:07:03Z</time>
      </trkpt>
      <trkpt lat="42.6759450" lon="-8.6378360">
        <ele>134.6</ele>
        <time>2022-06-19T07:07:04Z</time>
      </trkpt>
      <trkpt lat="42.6759700" lon="-8.6378780">
        <ele>134.6</ele>
        <time>2022-06-19T07:07:05Z</time>
      </trkpt>
      <trkpt lat="42.6759960" lon="-8.6379180">
        <ele>134.6</ele>
        <time>2022-06-19T07:07:06Z</time>
      </trkpt>
      <trkpt lat="42.6760260" lon="-8.6379610">
        <ele>134.6</ele>
        <time>2022-06-19T07:07:07Z</time>
      </trkpt>
      <trkpt lat="42.6760550" lon="-8.6380000">
        <ele>135.0</ele>
        <time>2022-06-19T07:07:08Z</time>
      </trkpt>
      <trkpt lat="42.6760850" lon="-8.6380400">
        <ele>135.0</ele>
        <time>2022-06-19T07:07:09Z</time>
      </trkpt>
      <trkpt lat="42.6761180" lon="-8.6380850">
        <ele>135.0</ele>
        <time>2022-06-19T07:07:10Z</time>
      </trkpt>
      <trkpt lat="42.6761460" lon="-8.6381350">
        <ele>135.0</ele>
        <time>2022-06-19T07:07:11Z</time>
      </trkpt>
      <trkpt lat="42.6761700" lon="-8.6381830">
        <ele>135.2</ele>
        <time>2022-06-19T07:07:12Z</time>
      </trkpt>
      <trkpt lat="42.6761950" lon="-8.6382310">
        <ele>135.2</ele>
        <time>2022-06-19T07:07:13Z</time>
      </trkpt>
      <trkpt lat="42.6762180" lon="-8.6382730">
        <ele>135.2</ele>
        <time>2022-06-19T07:07:14Z</time>
      </trkpt>
      <trkpt lat="42.6762380" lon="-8.6383130">
        <ele>134.8</ele>
        <time>2022-06-19T07:07:15Z</time>
      </trkpt>
      <trkpt lat="42.6762560" lon="-8.6383510">
        <ele>134.6</ele>
        <time>2022-06-19T07:07:16Z</time>
      </trkpt>
      <trkpt lat="42.6762710" lon="-8.6383860">
        <ele>134.6</ele>
        <time>2022-06-19T07:07:17Z</time>
      </trkpt>
      <trkpt lat="42.6762880" lon="-8.6384200">
        <ele>134.6</ele>
        <time>2022-06-19T07:07:18Z</time>
      </trkpt>
      <trkpt lat="42.6763060" lon="-8.6384530">
        <ele>134.8</ele>
        <time>2022-06-19T07:07:19Z</time>
      </trkpt>
      <trkpt lat="42.6763210" lon="-8.6384880">
        <ele>135.0</ele>
        <time>2022-06-19T07:07:20Z</time>
      </trkpt>
      <trkpt lat="42.6763410" lon="-8.6385250">
        <ele>135.0</ele>
        <time>2022-06-19T07:07:21Z</time>
      </trkpt>
      <trkpt lat="42.6763680" lon="-8.6385510">
        <ele>135.0</ele>
        <time>2022-06-19T07:07:22Z</time>
      </trkpt>
      <trkpt lat="42.6764000" lon="-8.6385700">
        <ele>135.0</ele>
        <time>2022-06-19T07:07:23Z</time>
      </trkpt>
      <trkpt lat="42.6764330" lon="-8.6385860">
        <ele>135.6</ele>
        <time>2022-06-19T07:07:24Z</time>
      </trkpt>
      <trkpt lat="42.6764700" lon="-8.6385950">
        <ele>135.6</ele>
        <time>2022-06-19T07:07:25Z</time>
      </trkpt>
      <trkpt lat="42.6765130" lon="-8.6385950">
        <ele>135.6</ele>
        <time>2022-06-19T07:07:26Z</time>
      </trkpt>
      <trkpt lat="42.6765580" lon="-8.6385850">
        <ele>135.2</ele>
        <time>2022-06-19T07:07:27Z</time>
      </trkpt>
      <trkpt lat="42.6766030" lon="-8.6385660">
        <ele>134.2</ele>
        <time>2022-06-19T07:07:28Z</time>
      </trkpt>
      <trkpt lat="42.6766480" lon="-8.6385410">
        <ele>134.2</ele>
        <time>2022-06-19T07:07:29Z</time>
      </trkpt>
      <trkpt lat="42.6766880" lon="-8.6385080">
        <ele>134.2</ele>
        <time>2022-06-19T07:07:30Z</time>
      </trkpt>
      <trkpt lat="42.6767210" lon="-8.6384700">
        <ele>133.2</ele>
        <time>2022-06-19T07:07:31Z</time>
      </trkpt>
      <trkpt lat="42.6767550" lon="-8.6384250">
        <ele>132.8</ele>
        <time>2022-06-19T07:07:32Z</time>
      </trkpt>
      <trkpt lat="42.6767930" lon="-8.6383810">
        <ele>132.8</ele>
        <time>2022-06-19T07:07:33Z</time>
      </trkpt>
      <trkpt lat="42.6768310" lon="-8.6383350">
        <ele>132.8</ele>
        <time>2022-06-19T07:07:34Z</time>
      </trkpt>
      <trkpt lat="42.6768680" lon="-8.6382880">
        <ele>132.8</ele>
        <time>2022-06-19T07:07:35Z</time>
      </trkpt>
      <trkpt lat="42.6769010" lon="-8.6382400">
        <ele>132.8</ele>
        <time>2022-06-19T07:07:36Z</time>
      </trkpt>
      <trkpt lat="42.6769230" lon="-8.6381810">
        <ele>132.8</ele>
        <time>2022-06-19T07:07:37Z</time>
      </trkpt>
      <trkpt lat="42.6769400" lon="-8.6381200">
        <ele>132.8</ele>
        <time>2022-06-19T07:07:38Z</time>
      </trkpt>
      <trkpt lat="42.6769600" lon="-8.6380550">
        <ele>131.8</ele>
        <time>2022-06-19T07:07:39Z</time>
      </trkpt>
      <trkpt lat="42.6769810" lon="-8.6379850">
        <ele>131.0</ele>
        <time>2022-06-19T07:07:40Z</time>
      </trkpt>
      <trkpt lat="42.6769960" lon="-8.6379100">
        <ele>131.0</ele>
        <time>2022-06-19T07:07:41Z</time>
      </trkpt>
      <trkpt lat="42.6770100" lon="-8.6378380">
        <ele>131.0</ele>
        <time>2022-06-19T07:07:42Z</time>
      </trkpt>
      <trkpt lat="42.6770310" lon="-8.6377680">
        <ele>130.0</ele>
        <time>2022-06-19T07:07:43Z</time>
      </trkpt>
      <trkpt lat="42.6770550" lon="-8.6376910">
        <ele>128.4</ele>
        <time>2022-06-19T07:07:44Z</time>
      </trkpt>
      <trkpt lat="42.6770830" lon="-8.6376150">
        <ele>128.4</ele>
        <time>2022-06-19T07:07:45Z</time>
      </trkpt>
      <trkpt lat="42.6771080" lon="-8.6375380">
        <ele>128.4</ele>
        <time>2022-06-19T07:07:46Z</time>
      </trkpt>
      <trkpt lat="42.6771380" lon="-8.6374650">
        <ele>127.4</ele>
        <time>2022-06-19T07:07:47Z</time>
      </trkpt>
      <trkpt lat="42.6771710" lon="-8.6373960">
        <ele>125.8</ele>
        <time>2022-06-19T07:07:48Z</time>
      </trkpt>
      <trkpt lat="42.6772100" lon="-8.6373300">
        <ele>125.8</ele>
        <time>2022-06-19T07:07:49Z</time>
      </trkpt>
      <trkpt lat="42.6772580" lon="-8.6372650">
        <ele>125.8</ele>
        <time>2022-06-19T07:07:50Z</time>
      </trkpt>
      <trkpt lat="42.6773210" lon="-8.6372080">
        <ele>124.8</ele>
        <time>2022-06-19T07:07:51Z</time>
      </trkpt>
      <trkpt lat="42.6773900" lon="-8.6371700">
        <ele>120.6</ele>
        <time>2022-06-19T07:07:52Z</time>
      </trkpt>
      <trkpt lat="42.6774580" lon="-8.6371480">
        <ele>120.6</ele>
        <time>2022-06-19T07:07:53Z</time>
      </trkpt>
      <trkpt lat="42.6775160" lon="-8.6371380">
        <ele>120.6</ele>
        <time>2022-06-19T07:07:54Z</time>
      </trkpt>
      <trkpt lat="42.6775780" lon="-8.6371280">
        <ele>120.0</ele>
        <time>2022-06-19T07:07:55Z</time>
      </trkpt>
      <trkpt lat="42.6776410" lon="-8.6371280">
        <ele>117.4</ele>
        <time>2022-06-19T07:07:56Z</time>
      </trkpt>
      <trkpt lat="42.6777050" lon="-8.6371350">
        <ele>117.4</ele>
        <time>2022-06-19T07:07:57Z</time>
      </trkpt>
      <trkpt lat="42.6777780" lon="-8.6371330">
        <ele>117.4</ele>
        <time>2022-06-19T07:07:58Z</time>
      </trkpt>
      <trkpt lat="42.6778510" lon="-8.6371230">
        <ele>116.4</ele>
        <time>2022-06-19T07:07:59Z</time>
      </trkpt>
      <trkpt lat="42.6779130" lon="-8.6371080">
        <ele>111.8</ele>
        <time>2022-06-19T07:08:00Z</time>
      </trkpt>
      <trkpt lat="42.6779880" lon="-8.6370800">
        <ele>111.8</ele>
        <time>2022-06-19T07:08:01Z</time>
      </trkpt>
      <trkpt lat="42.6780600" lon="-8.6370600">
        <ele>111.8</ele>
        <time>2022-06-19T07:08:02Z</time>
      </trkpt>
      <trkpt lat="42.6781330" lon="-8.6370410">
        <ele>110.8</ele>
        <time>2022-06-19T07:08:03Z</time>
      </trkpt>
      <trkpt lat="42.6782130" lon="-8.6370200">
        <ele>106.0</ele>
        <time>2022-06-19T07:08:04Z</time>
      </trkpt>
      <trkpt lat="42.6782960" lon="-8.6370050">
        <ele>106.0</ele>
        <time>2022-06-19T07:08:05Z</time>
      </trkpt>
      <trkpt lat="42.6783910" lon="-8.6370110">
        <ele>106.0</ele>
        <time>2022-06-19T07:08:06Z</time>
      </trkpt>
      <trkpt lat="42.6784780" lon="-8.6370400">
        <ele>105.0</ele>
        <time>2022-06-19T07:08:07Z</time>
      </trkpt>
      <trkpt lat="42.6785580" lon="-8.6370880">
        <ele>101.6</ele>
        <time>2022-06-19T07:08:08Z</time>
      </trkpt>
      <trkpt lat="42.6786350" lon="-8.6371500">
        <ele>101.6</ele>
        <time>2022-06-19T07:08:09Z</time>
      </trkpt>
      <trkpt lat="42.6786900" lon="-8.6372230">
        <ele>101.6</ele>
        <time>2022-06-19T07:08:10Z</time>
      </trkpt>
      <trkpt lat="42.6787380" lon="-8.6373010">
        <ele>101.6</ele>
        <time>2022-06-19T07:08:11Z</time>
      </trkpt>
      <trkpt lat="42.6787830" lon="-8.6373630">
        <ele>98.4</ele>
        <time>2022-06-19T07:08:12Z</time>
      </trkpt>
      <trkpt lat="42.6788250" lon="-8.6374010">
        <ele>98.4</ele>
        <time>2022-06-19T07:08:13Z</time>
      </trkpt>
      <trkpt lat="42.6788610" lon="-8.6374150">
        <ele>98.4</ele>
        <time>2022-06-19T07:08:14Z</time>
      </trkpt>
      <trkpt lat="42.6789030" lon="-8.6374080">
        <ele>98.4</ele>
        <time>2022-06-19T07:08:15Z</time>
      </trkpt>
      <trkpt lat="42.6789250" lon="-8.6373650">
        <ele>97.8</ele>
        <time>2022-06-19T07:08:16Z</time>
      </trkpt>
      <trkpt lat="42.6789430" lon="-8.6373130">
        <ele>97.8</ele>
        <time>2022-06-19T07:08:17Z</time>
      </trkpt>
      <trkpt lat="42.6789550" lon="-8.6372630">
        <ele>97.8</ele>
        <time>2022-06-19T07:08:18Z</time>
      </trkpt>
      <trkpt lat="42.6789750" lon="-8.6372200">
        <ele>96.8</ele>
        <time>2022-06-19T07:08:19Z</time>
      </trkpt>
      <trkpt lat="42.6789930" lon="-8.6371900">
        <ele>96.0</ele>
        <time>2022-06-19T07:08:20Z</time>
      </trkpt>
      <trkpt lat="42.6790230" lon="-8.6371780">
        <ele>96.0</ele>
        <time>2022-06-19T07:08:21Z</time>
      </trkpt>
      <trkpt lat="42.6790480" lon="-8.6371760">
        <ele>96.0</ele>
        <time>2022-06-19T07:08:22Z</time>
      </trkpt>
      <trkpt lat="42.6790680" lon="-8.6371950">
        <ele>95.0</ele>
        <time>2022-06-19T07:08:23Z</time>
      </trkpt>
      <trkpt lat="42.6790880" lon="-8.6372230">
        <ele>94.2</ele>
        <time>2022-06-19T07:08:24Z</time>
      </trkpt>
      <trkpt lat="42.6791080" lon="-8.6372610">
        <ele>94.2</ele>
        <time>2022-06-19T07:08:25Z</time>
      </trkpt>
      <trkpt lat="42.6791230" lon="-8.6373010">
        <ele>94.2</ele>
        <time>2022-06-19T07:08:26Z</time>
      </trkpt>
      <trkpt lat="42.6791410" lon="-8.6373330">
        <ele>93.2</ele>
        <time>2022-06-19T07:08:27Z</time>
      </trkpt>
      <trkpt lat="42.6791680" lon="-8.6373460">
        <ele>92.2</ele>
        <time>2022-06-19T07:08:28Z</time>
      </trkpt>
      <trkpt lat="42.6792030" lon="-8.6373410">
        <ele>92.2</ele>
        <time>2022-06-19T07:08:29Z</time>
      </trkpt>
      <trkpt lat="42.6792380" lon="-8.6373260">
        <ele>92.2</ele>
        <time>2022-06-19T07:08:30Z</time>
      </trkpt>
      <trkpt lat="42.6792660" lon="-8.6372930">
        <ele>91.2</ele>
        <time>2022-06-19T07:08:31Z</time>
      </trkpt>
      <trkpt lat="42.6792910" lon="-8.6372580">
        <ele>90.0</ele>
        <time>2022-06-19T07:08:32Z</time>
      </trkpt>
      <trkpt lat="42.6793200" lon="-8.6372180">
        <ele>90.0</ele>
        <time>2022-06-19T07:08:33Z</time>
      </trkpt>
      <trkpt lat="42.6793510" lon="-8.6371750">
        <ele>90.0</ele>
        <time>2022-06-19T07:08:34Z</time>
      </trkpt>
      <trkpt lat="42.6793830" lon="-8.6371350">
        <ele>89.0</ele>
        <time>2022-06-19T07:08:35Z</time>
      </trkpt>
      <trkpt lat="42.6794160" lon="-8.6370930">
        <ele>85.8</ele>
        <time>2022-06-19T07:08:36Z</time>
      </trkpt>
      <trkpt lat="42.6794560" lon="-8.6370480">
        <ele>85.8</ele>
        <time>2022-06-19T07:08:37Z</time>
      </trkpt>
      <trkpt lat="42.6795150" lon="-8.6370210">
        <ele>85.8</ele>
        <time>2022-06-19T07:08:38Z</time>
      </trkpt>
      <trkpt lat="42.6795780" lon="-8.6369950">
        <ele>84.8</ele>
        <time>2022-06-19T07:08:39Z</time>
      </trkpt>
      <trkpt lat="42.6796380" lon="-8.6369650">
        <ele>79.0</ele>
        <time>2022-06-19T07:08:40Z</time>
      </trkpt>
      <trkpt lat="42.6797030" lon="-8.6369380">
        <ele>79.0</ele>
        <time>2022-06-19T07:08:41Z</time>
      </trkpt>
      <trkpt lat="42.6797680" lon="-8.6369000">
        <ele>79.0</ele>
        <time>2022-06-19T07:08:42Z</time>
      </trkpt>
      <trkpt lat="42.6798330" lon="-8.6368630">
        <ele>79.0</ele>
        <time>2022-06-19T07:08:43Z</time>
      </trkpt>
      <trkpt lat="42.6798900" lon="-8.6368200">
        <ele>77.6</ele>
        <time>2022-06-19T07:08:44Z</time>
      </trkpt>
      <trkpt lat="42.6799450" lon="-8.6367850">
        <ele>77.6</ele>
        <time>2022-06-19T07:08:45Z</time>
      </trkpt>
      <trkpt lat="42.6799880" lon="-8.6367280">
        <ele>77.6</ele>
        <time>2022-06-19T07:08:46Z</time>
      </trkpt>
      <trkpt lat="42.6800180" lon="-8.6366680">
        <ele>77.8</ele>
        <time>2022-06-19T07:08:47Z</time>
      </trkpt>
      <trkpt lat="42.6800410" lon="-8.6366180">
        <ele>77.8</ele>
        <time>2022-06-19T07:08:48Z</time>
      </trkpt>
      <trkpt lat="42.6800680" lon="-8.6365660">
        <ele>77.8</ele>
        <time>2022-06-19T07:08:49Z</time>
      </trkpt>
      <trkpt lat="42.6800960" lon="-8.6365030">
        <ele>77.8</ele>
        <time>2022-06-19T07:08:50Z</time>
      </trkpt>
      <trkpt lat="42.6801360" lon="-8.6364580">
        <ele>77.8</ele>
        <time>2022-06-19T07:08:51Z</time>
      </trkpt>
      <trkpt lat="42.6801700" lon="-8.6364150">
        <ele>77.2</ele>
        <time>2022-06-19T07:08:52Z</time>
      </trkpt>
      <trkpt lat="42.6802160" lon="-8.6363680">
        <ele>77.2</ele>
        <time>2022-06-19T07:08:53Z</time>
      </trkpt>
      <trkpt lat="42.6802530" lon="-8.6363200">
        <ele>77.2</ele>
        <time>2022-06-19T07:08:54Z</time>
      </trkpt>
      <trkpt lat="42.6802960" lon="-8.6362800">
        <ele>77.2</ele>
        <time>2022-06-19T07:08:55Z</time>
      </trkpt>
      <trkpt lat="42.6803380" lon="-8.6362450">
        <ele>75.0</ele>
        <time>2022-06-19T07:08:56Z</time>
      </trkpt>
      <trkpt lat="42.6803810" lon="-8.6361980">
        <ele>75.0</ele>
        <time>2022-06-19T07:08:57Z</time>
      </trkpt>
      <trkpt lat="42.6804310" lon="-8.6361650">
        <ele>75.0</ele>
        <time>2022-06-19T07:08:58Z</time>
      </trkpt>
      <trkpt lat="42.6804760" lon="-8.6361310">
        <ele>75.0</ele>
        <time>2022-06-19T07:08:59Z</time>
      </trkpt>
      <trkpt lat="42.6805060" lon="-8.6360950">
        <ele>72.6</ele>
        <time>2022-06-19T07:09:00Z</time>
      </trkpt>
      <trkpt lat="42.6805550" lon="-8.6360710">
        <ele>72.6</ele>
        <time>2022-06-19T07:09:01Z</time>
      </trkpt>
      <trkpt lat="42.6806110" lon="-8.6360630">
        <ele>72.6</ele>
        <time>2022-06-19T07:09:02Z</time>
      </trkpt>
      <trkpt lat="42.6806710" lon="-8.6360700">
        <ele>71.6</ele>
        <time>2022-06-19T07:09:03Z</time>
      </trkpt>
      <trkpt lat="42.6807360" lon="-8.6360850">
        <ele>69.2</ele>
        <time>2022-06-19T07:09:04Z</time>
      </trkpt>
      <trkpt lat="42.6807910" lon="-8.6361080">
        <ele>69.2</ele>
        <time>2022-06-19T07:09:05Z</time>
      </trkpt>
      <trkpt lat="42.6808330" lon="-8.6361260">
        <ele>69.2</ele>
        <time>2022-06-19T07:09:06Z</time>
      </trkpt>
      <trkpt lat="42.6808750" lon="-8.6361410">
        <ele>69.2</ele>
        <time>2022-06-19T07:09:07Z</time>
      </trkpt>
      <trkpt lat="42.6809150" lon="-8.6361600">
        <ele>70.0</ele>
        <time>2022-06-19T07:09:08Z</time>
      </trkpt>
      <trkpt lat="42.6809460" lon="-8.6361730">
        <ele>70.0</ele>
        <time>2022-06-19T07:09:09Z</time>
      </trkpt>
      <trkpt lat="42.6809800" lon="-8.6361850">
        <ele>70.0</ele>
        <time>2022-06-19T07:09:10Z</time>
      </trkpt>
      <trkpt lat="42.6810010" lon="-8.6362080">
        <ele>71.0</ele>
        <time>2022-06-19T07:09:11Z</time>
      </trkpt>
      <trkpt lat="42.6810180" lon="-8.6362310">
        <ele>72.8</ele>
        <time>2022-06-19T07:09:12Z</time>
      </trkpt>
      <trkpt lat="42.6810380" lon="-8.6362510">
        <ele>72.8</ele>
        <time>2022-06-19T07:09:13Z</time>
      </trkpt>
      <trkpt lat="42.6810550" lon="-8.6362750">
        <ele>72.8</ele>
        <time>2022-06-19T07:09:14Z</time>
      </trkpt>
      <trkpt lat="42.6810700" lon="-8.6362930">
        <ele>73.2</ele>
        <time>2022-06-19T07:09:15Z</time>
      </trkpt>
      <trkpt lat="42.6810860" lon="-8.6363080">
        <ele>74.2</ele>
        <time>2022-06-19T07:09:16Z</time>
      </trkpt>
      <trkpt lat="42.6811110" lon="-8.6363160">
        <ele>74.2</ele>
        <time>2022-06-19T07:09:17Z</time>
      </trkpt>
      <trkpt lat="42.6811280" lon="-8.6363330">
        <ele>74.2</ele>
        <time>2022-06-19T07:09:18Z</time>
      </trkpt>
      <trkpt lat="42.6811550" lon="-8.6363460">
        <ele>73.8</ele>
        <time>2022-06-19T07:09:19Z</time>
      </trkpt>
      <trkpt lat="42.6811830" lon="-8.6363580">
        <ele>74.0</ele>
        <time>2022-06-19T07:09:20Z</time>
      </trkpt>
      <trkpt lat="42.6812080" lon="-8.6363750">
        <ele>74.0</ele>
        <time>2022-06-19T07:09:21Z</time>
      </trkpt>
      <trkpt lat="42.6812360" lon="-8.6363980">
        <ele>74.0</ele>
        <time>2022-06-19T07:09:22Z</time>
      </trkpt>
      <trkpt lat="42.6812650" lon="-8.6364110">
        <ele>74.0</ele>
        <time>2022-06-19T07:09:23Z</time>
      </trkpt>
      <trkpt lat="42.6812950" lon="-8.6364210">
        <ele>74.0</ele>
        <time>2022-06-19T07:09:24Z</time>
      </trkpt>
      <trkpt lat="42.6813200" lon="-8.6364310">
        <ele>74.0</ele>
        <time>2022-06-19T07:09:25Z</time>
      </trkpt>
      <trkpt lat="42.6813380" lon="-8.6364530">
        <ele>74.0</ele>
        <time>2022-06-19T07:09:26Z</time>
      </trkpt>
      <trkpt lat="42.6813610" lon="-8.6364810">
        <ele>75.0</ele>
        <time>2022-06-19T07:09:27Z</time>
      </trkpt>
      <trkpt lat="42.6813810" lon="-8.6365000">
        <ele>75.8</ele>
        <time>2022-06-19T07:09:28Z</time>
      </trkpt>
      <trkpt lat="42.6814010" lon="-8.6365180">
        <ele>75.8</ele>
        <time>2022-06-19T07:09:29Z</time>
      </trkpt>
      <trkpt lat="42.6814250" lon="-8.6365330">
        <ele>75.8</ele>
        <time>2022-06-19T07:09:30Z</time>
      </trkpt>
      <trkpt lat="42.6814410" lon="-8.6365460">
        <ele>76.6</ele>
        <time>2022-06-19T07:09:31Z</time>
      </trkpt>
      <trkpt lat="42.6814630" lon="-8.6365610">
        <ele>77.0</ele>
        <time>2022-06-19T07:09:32Z</time>
      </trkpt>
      <trkpt lat="42.6814810" lon="-8.6365810">
        <ele>77.0</ele>
        <time>2022-06-19T07:09:33Z</time>
      </trkpt>
      <trkpt lat="42.6815030" lon="-8.6365880">
        <ele>77.0</ele>
        <time>2022-06-19T07:09:34Z</time>
      </trkpt>
      <trkpt lat="42.6815280" lon="-8.6366000">
        <ele>77.6</ele>
        <time>2022-06-19T07:09:35Z</time>
      </trkpt>
      <trkpt lat="42.6815530" lon="-8.6366060">
        <ele>77.8</ele>
        <time>2022-06-19T07:09:36Z</time>
      </trkpt>
      <trkpt lat="42.6815800" lon="-8.6366060">
        <ele>77.8</ele>
        <time>2022-06-19T07:09:37Z</time>
      </trkpt>
      <trkpt lat="42.6816100" lon="-8.6366160">
        <ele>77.8</ele>
        <time>2022-06-19T07:09:38Z</time>
      </trkpt>
      <trkpt lat="42.6816400" lon="-8.6366280">
        <ele>77.4</ele>
        <time>2022-06-19T07:09:39Z</time>
      </trkpt>
      <trkpt lat="42.6816800" lon="-8.6366380">
        <ele>76.8</ele>
        <time>2022-06-19T07:09:40Z</time>
      </trkpt>
      <trkpt lat="42.6817210" lon="-8.6366500">
        <ele>76.8</ele>
        <time>2022-06-19T07:09:41Z</time>
      </trkpt>
      <trkpt lat="42.6817600" lon="-8.6366630">
        <ele>76.8</ele>
        <time>2022-06-19T07:09:42Z</time>
      </trkpt>
      <trkpt lat="42.6817910" lon="-8.6366730">
        <ele>76.8</ele>
        <time>2022-06-19T07:09:43Z</time>
      </trkpt>
      <trkpt lat="42.6818230" lon="-8.6366910">
        <ele>76.6</ele>
        <time>2022-06-19T07:09:44Z</time>
      </trkpt>
      <trkpt lat="42.6818510" lon="-8.6367010">
        <ele>76.6</ele>
        <time>2022-06-19T07:09:45Z</time>
      </trkpt>
      <trkpt lat="42.6818810" lon="-8.6367130">
        <ele>76.6</ele>
        <time>2022-06-19T07:09:46Z</time>
      </trkpt>
      <trkpt lat="42.6819100" lon="-8.6367230">
        <ele>76.6</ele>
        <time>2022-06-19T07:09:47Z</time>
      </trkpt>
      <trkpt lat="42.6819350" lon="-8.6367360">
        <ele>77.2</ele>
        <time>2022-06-19T07:09:48Z</time>
      </trkpt>
      <trkpt lat="42.6819560" lon="-8.6367530">
        <ele>77.2</ele>
        <time>2022-06-19T07:09:49Z</time>
      </trkpt>
      <trkpt lat="42.6819800" lon="-8.6367700">
        <ele>77.2</ele>
        <time>2022-06-19T07:09:50Z</time>
      </trkpt>
      <trkpt lat="42.6819960" lon="-8.6367800">
        <ele>78.2</ele>
        <time>2022-06-19T07:09:51Z</time>
      </trkpt>
      <trkpt lat="42.6820210" lon="-8.6367880">
        <ele>78.0</ele>
        <time>2022-06-19T07:09:52Z</time>
      </trkpt>
      <trkpt lat="42.6820410" lon="-8.6367930">
        <ele>78.0</ele>
        <time>2022-06-19T07:09:53Z</time>
      </trkpt>
      <trkpt lat="42.6820560" lon="-8.6367980">
        <ele>78.0</ele>
        <time>2022-06-19T07:09:54Z</time>
      </trkpt>
      <trkpt lat="42.6820700" lon="-8.6368100">
        <ele>78.8</ele>
        <time>2022-06-19T07:09:55Z</time>
      </trkpt>
      <trkpt lat="42.6820830" lon="-8.6368280">
        <ele>79.4</ele>
        <time>2022-06-19T07:09:56Z</time>
      </trkpt>
      <trkpt lat="42.6820960" lon="-8.6368430">
        <ele>79.4</ele>
        <time>2022-06-19T07:09:57Z</time>
      </trkpt>
      <trkpt lat="42.6821100" lon="-8.6368560">
        <ele>79.4</ele>
        <time>2022-06-19T07:09:58Z</time>
      </trkpt>
      <trkpt lat="42.6821180" lon="-8.6368660">
        <ele>79.4</ele>
        <time>2022-06-19T07:09:59Z</time>
      </trkpt>
      <trkpt lat="42.6821300" lon="-8.6368700">
        <ele>80.0</ele>
        <time>2022-06-19T07:10:00Z</time>
      </trkpt>
      <trkpt lat="42.6821400" lon="-8.6368760">
        <ele>80.0</ele>
        <time>2022-06-19T07:10:01Z</time>
      </trkpt>
      <trkpt lat="42.6821530" lon="-8.6368810">
        <ele>80.0</ele>
        <time>2022-06-19T07:10:02Z</time>
      </trkpt>
      <trkpt lat="42.6821650" lon="-8.6368850">
        <ele>80.6</ele>
        <time>2022-06-19T07:10:03Z</time>
      </trkpt>
      <trkpt lat="42.6821780" lon="-8.6368880">
        <ele>81.2</ele>
        <time>2022-06-19T07:10:04Z</time>
      </trkpt>
      <trkpt lat="42.6821830" lon="-8.6368910">
        <ele>81.2</ele>
        <time>2022-06-19T07:10:05Z</time>
      </trkpt>
      <trkpt lat="42.6821930" lon="-8.6368960">
        <ele>81.2</ele>
        <time>2022-06-19T07:10:06Z</time>
      </trkpt>
      <trkpt lat="42.6822150" lon="-8.6369030">
        <ele>81.2</ele>
        <time>2022-06-19T07:10:07Z</time>
      </trkpt>
      <trkpt lat="42.6822300" lon="-8.6369060">
        <ele>82.6</ele>
        <time>2022-06-19T07:10:08Z</time>
      </trkpt>
      <trkpt lat="42.6822410" lon="-8.6369150">
        <ele>82.6</ele>
        <time>2022-06-19T07:10:09Z</time>
      </trkpt>
      <trkpt lat="42.6822550" lon="-8.6369210">
        <ele>82.6</ele>
        <time>2022-06-19T07:10:10Z</time>
      </trkpt>
      <trkpt lat="42.6822660" lon="-8.6369280">
        <ele>82.6</ele>
        <time>2022-06-19T07:10:11Z</time>
      </trkpt>
      <trkpt lat="42.6822800" lon="-8.6369300">
        <ele>83.0</ele>
        <time>2022-06-19T07:10:12Z</time>
      </trkpt>
      <trkpt lat="42.6822900" lon="-8.6369260">
        <ele>83.0</ele>
        <time>2022-06-19T07:10:13Z</time>
      </trkpt>
      <trkpt lat="42.6822980" lon="-8.6369350">
        <ele>83.0</ele>
        <time>2022-06-19T07:10:14Z</time>
      </trkpt>
      <trkpt lat="42.6823080" lon="-8.6369410">
        <ele>83.6</ele>
        <time>2022-06-19T07:10:15Z</time>
      </trkpt>
      <trkpt lat="42.6823210" lon="-8.6369580">
        <ele>84.2</ele>
        <time>2022-06-19T07:10:16Z</time>
      </trkpt>
      <trkpt lat="42.6823310" lon="-8.6369610">
        <ele>84.2</ele>
        <time>2022-06-19T07:10:17Z</time>
      </trkpt>
      <trkpt lat="42.6823530" lon="-8.6369710">
        <ele>84.2</ele>
        <time>2022-06-19T07:10:18Z</time>
      </trkpt>
      <trkpt lat="42.6823830" lon="-8.6369850">
        <ele>84.4</ele>
        <time>2022-06-19T07:10:19Z</time>
      </trkpt>
      <trkpt lat="42.6824030" lon="-8.6369900">
        <ele>84.8</ele>
        <time>2022-06-19T07:10:20Z</time>
      </trkpt>
      <trkpt lat="42.6824210" lon="-8.6369910">
        <ele>84.8</ele>
        <time>2022-06-19T07:10:21Z</time>
      </trkpt>
      <trkpt lat="42.6824460" lon="-8.6369910">
        <ele>84.8</ele>
        <time>2022-06-19T07:10:22Z</time>
      </trkpt>
      <trkpt lat="42.6824700" lon="-8.6370030">
        <ele>83.8</ele>
        <time>2022-06-19T07:10:23Z</time>
      </trkpt>
      <trkpt lat="42.6825030" lon="-8.6370100">
        <ele>82.8</ele>
        <time>2022-06-19T07:10:24Z</time>
      </trkpt>
      <trkpt lat="42.6825560" lon="-8.6370180">
        <ele>82.8</ele>
        <time>2022-06-19T07:10:25Z</time>
      </trkpt>
      <trkpt lat="42.6826080" lon="-8.6370310">
        <ele>82.8</ele>
        <time>2022-06-19T07:10:26Z</time>
      </trkpt>
      <trkpt lat="42.6826580" lon="-8.6370400">
        <ele>81.8</ele>
        <time>2022-06-19T07:10:27Z</time>
      </trkpt>
      <trkpt lat="42.6827100" lon="-8.6370560">
        <ele>78.6</ele>
        <time>2022-06-19T07:10:28Z</time>
      </trkpt>
      <trkpt lat="42.6827580" lon="-8.6370750">
        <ele>78.6</ele>
        <time>2022-06-19T07:10:29Z</time>
      </trkpt>
      <trkpt lat="42.6828200" lon="-8.6370800">
        <ele>78.6</ele>
        <time>2022-06-19T07:10:30Z</time>
      </trkpt>
      <trkpt lat="42.6828780" lon="-8.6370710">
        <ele>77.6</ele>
        <time>2022-06-19T07:10:31Z</time>
      </trkpt>
      <trkpt lat="42.6829260" lon="-8.6370580">
        <ele>75.4</ele>
        <time>2022-06-19T07:10:32Z</time>
      </trkpt>
      <trkpt lat="42.6829730" lon="-8.6370260">
        <ele>75.4</ele>
        <time>2022-06-19T07:10:33Z</time>
      </trkpt>
      <trkpt lat="42.6830210" lon="-8.6369780">
        <ele>75.4</ele>
        <time>2022-06-19T07:10:34Z</time>
      </trkpt>
      <trkpt lat="42.6830660" lon="-8.6369350">
        <ele>74.4</ele>
        <time>2022-06-19T07:10:35Z</time>
      </trkpt>
      <trkpt lat="42.6831010" lon="-8.6369010">
        <ele>73.0</ele>
        <time>2022-06-19T07:10:36Z</time>
      </trkpt>
      <trkpt lat="42.6831400" lon="-8.6368800">
        <ele>73.0</ele>
        <time>2022-06-19T07:10:37Z</time>
      </trkpt>
      <trkpt lat="42.6831780" lon="-8.6368510">
        <ele>73.0</ele>
        <time>2022-06-19T07:10:38Z</time>
      </trkpt>
      <trkpt lat="42.6832400" lon="-8.6368150">
        <ele>72.0</ele>
        <time>2022-06-19T07:10:39Z</time>
      </trkpt>
      <trkpt lat="42.6832830" lon="-8.6367900">
        <ele>72.0</ele>
        <time>2022-06-19T07:10:40Z</time>
      </trkpt>
      <trkpt lat="42.6833550" lon="-8.6367710">
        <ele>72.0</ele>
        <time>2022-06-19T07:10:41Z</time>
      </trkpt>
      <trkpt lat="42.6834110" lon="-8.6367550">
        <ele>72.0</ele>
        <time>2022-06-19T07:10:42Z</time>
      </trkpt>
      <trkpt lat="42.6834660" lon="-8.6367510">
        <ele>71.0</ele>
        <time>2022-06-19T07:10:43Z</time>
      </trkpt>
      <trkpt lat="42.6835260" lon="-8.6367380">
        <ele>68.8</ele>
        <time>2022-06-19T07:10:44Z</time>
      </trkpt>
      <trkpt lat="42.6835880" lon="-8.6367130">
        <ele>68.8</ele>
        <time>2022-06-19T07:10:45Z</time>
      </trkpt>
      <trkpt lat="42.6836430" lon="-8.6366880">
        <ele>68.8</ele>
        <time>2022-06-19T07:10:46Z</time>
      </trkpt>
      <trkpt lat="42.6837080" lon="-8.6366750">
        <ele>67.8</ele>
        <time>2022-06-19T07:10:47Z</time>
      </trkpt>
      <trkpt lat="42.6837750" lon="-8.6366610">
        <ele>66.2</ele>
        <time>2022-06-19T07:10:48Z</time>
      </trkpt>
      <trkpt lat="42.6838360" lon="-8.6366600">
        <ele>66.2</ele>
        <time>2022-06-19T07:10:49Z</time>
      </trkpt>
      <trkpt lat="42.6838850" lon="-8.6366550">
        <ele>66.2</ele>
        <time>2022-06-19T07:10:50Z</time>
      </trkpt>
      <trkpt lat="42.6839330" lon="-8.6366510">
        <ele>65.2</ele>
        <time>2022-06-19T07:10:51Z</time>
      </trkpt>
      <trkpt lat="42.6839860" lon="-8.6366430">
        <ele>62.6</ele>
        <time>2022-06-19T07:10:52Z</time>
      </trkpt>
      <trkpt lat="42.6840380" lon="-8.6366380">
        <ele>62.6</ele>
        <time>2022-06-19T07:10:53Z</time>
      </trkpt>
      <trkpt lat="42.6840900" lon="-8.6366300">
        <ele>62.6</ele>
        <time>2022-06-19T07:10:54Z</time>
      </trkpt>
      <trkpt lat="42.6841400" lon="-8.6366300">
        <ele>61.6</ele>
        <time>2022-06-19T07:10:55Z</time>
      </trkpt>
      <trkpt lat="42.6841760" lon="-8.6366410">
        <ele>59.2</ele>
        <time>2022-06-19T07:10:56Z</time>
      </trkpt>
      <trkpt lat="42.6842050" lon="-8.6366480">
        <ele>59.2</ele>
        <time>2022-06-19T07:10:57Z</time>
      </trkpt>
      <trkpt lat="42.6842360" lon="-8.6366510">
        <ele>59.2</ele>
        <time>2022-06-19T07:10:58Z</time>
      </trkpt>
      <trkpt lat="42.6842610" lon="-8.6366460">
        <ele>60.2</ele>
        <time>2022-06-19T07:10:59Z</time>
      </trkpt>
      <trkpt lat="42.6842830" lon="-8.6366450">
        <ele>62.6</ele>
        <time>2022-06-19T07:11:00Z</time>
      </trkpt>
      <trkpt lat="42.6843000" lon="-8.6366360">
        <ele>62.6</ele>
        <time>2022-06-19T07:11:01Z</time>
      </trkpt>
      <trkpt lat="42.6843160" lon="-8.6366380">
        <ele>62.6</ele>
        <time>2022-06-19T07:11:02Z</time>
      </trkpt>
      <trkpt lat="42.6843280" lon="-8.6366460">
        <ele>63.6</ele>
        <time>2022-06-19T07:11:03Z</time>
      </trkpt>
      <trkpt lat="42.6843480" lon="-8.6366450">
        <ele>63.8</ele>
        <time>2022-06-19T07:11:04Z</time>
      </trkpt>
      <trkpt lat="42.6843610" lon="-8.6366410">
        <ele>63.8</ele>
        <time>2022-06-19T07:11:05Z</time>
      </trkpt>
      <trkpt lat="42.6843780" lon="-8.6366460">
        <ele>63.8</ele>
        <time>2022-06-19T07:11:06Z</time>
      </trkpt>
      <trkpt lat="42.6843960" lon="-8.6366430">
        <ele>63.8</ele>
        <time>2022-06-19T07:11:07Z</time>
      </trkpt>
      <trkpt lat="42.6844130" lon="-8.6366480">
        <ele>64.8</ele>
        <time>2022-06-19T07:11:08Z</time>
      </trkpt>
      <trkpt lat="42.6844450" lon="-8.6366500">
        <ele>64.8</ele>
        <time>2022-06-19T07:11:09Z</time>
      </trkpt>
      <trkpt lat="42.6844650" lon="-8.6366630">
        <ele>64.8</ele>
        <time>2022-06-19T07:11:10Z</time>
      </trkpt>
      <trkpt lat="42.6844850" lon="-8.6366750">
        <ele>64.8</ele>
        <time>2022-06-19T07:11:11Z</time>
      </trkpt>
      <trkpt lat="42.6845060" lon="-8.6366900">
        <ele>65.2</ele>
        <time>2022-06-19T07:11:12Z</time>
      </trkpt>
      <trkpt lat="42.6845230" lon="-8.6367000">
        <ele>65.2</ele>
        <time>2022-06-19T07:11:13Z</time>
      </trkpt>
      <trkpt lat="42.6845400" lon="-8.6367080">
        <ele>65.2</ele>
        <time>2022-06-19T07:11:14Z</time>
      </trkpt>
      <trkpt lat="42.6845550" lon="-8.6367180">
        <ele>66.0</ele>
        <time>2022-06-19T07:11:15Z</time>
      </trkpt>
      <trkpt lat="42.6845680" lon="-8.6367230">
        <ele>66.6</ele>
        <time>2022-06-19T07:11:16Z</time>
      </trkpt>
      <trkpt lat="42.6845860" lon="-8.6367280">
        <ele>66.6</ele>
        <time>2022-06-19T07:11:17Z</time>
      </trkpt>
      <trkpt lat="42.6846010" lon="-8.6367360">
        <ele>66.6</ele>
        <time>2022-06-19T07:11:18Z</time>
      </trkpt>
      <trkpt lat="42.6846150" lon="-8.6367380">
        <ele>67.4</ele>
        <time>2022-06-19T07:11:19Z</time>
      </trkpt>
      <trkpt lat="42.6846250" lon="-8.6367380">
        <ele>67.8</ele>
        <time>2022-06-19T07:11:20Z</time>
      </trkpt>
      <trkpt lat="42.6846310" lon="-8.6367450">
        <ele>67.8</ele>
        <time>2022-06-19T07:11:21Z</time>
      </trkpt>
      <trkpt lat="42.6846410" lon="-8.6367550">
        <ele>67.8</ele>
        <time>2022-06-19T07:11:22Z</time>
      </trkpt>
      <trkpt lat="42.6846510" lon="-8.6367600">
        <ele>67.8</ele>
        <time>2022-06-19T07:11:23Z</time>
      </trkpt>
      <trkpt lat="42.6846600" lon="-8.6367630">
        <ele>67.8</ele>
        <time>2022-06-19T07:11:24Z</time>
      </trkpt>
      <trkpt lat="42.6846700" lon="-8.6367650">
        <ele>67.8</ele>
        <time>2022-06-19T07:11:25Z</time>
      </trkpt>
      <trkpt lat="42.6846800" lon="-8.6367730">
        <ele>67.8</ele>
        <time>2022-06-19T07:11:26Z</time>
      </trkpt>
      <trkpt lat="42.6846900" lon="-8.6367830">
        <ele>67.8</ele>
        <time>2022-06-19T07:11:27Z</time>
      </trkpt>
      <trkpt lat="42.6847000" lon="-8.6367900">
        <ele>68.4</ele>
        <time>2022-06-19T07:11:28Z</time>
      </trkpt>
      <trkpt lat="42.6847160" lon="-8.6367930">
        <ele>68.4</ele>
        <time>2022-06-19T07:11:29Z</time>
      </trkpt>
      <trkpt lat="42.6847350" lon="-8.6367980">
        <ele>68.4</ele>
        <time>2022-06-19T07:11:30Z</time>
      </trkpt>
      <trkpt lat="42.6847560" lon="-8.6368010">
        <ele>68.4</ele>
        <time>2022-06-19T07:11:31Z</time>
      </trkpt>
      <trkpt lat="42.6847660" lon="-8.6368080">
        <ele>68.4</ele>
        <time>2022-06-19T07:11:32Z</time>
      </trkpt>
      <trkpt lat="42.6847810" lon="-8.6368050">
        <ele>68.4</ele>
        <time>2022-06-19T07:11:33Z</time>
      </trkpt>
      <trkpt lat="42.6847980" lon="-8.6368000">
        <ele>68.4</ele>
        <time>2022-06-19T07:11:34Z</time>
      </trkpt>
      <trkpt lat="42.6848080" lon="-8.6367980">
        <ele>69.4</ele>
        <time>2022-06-19T07:11:35Z</time>
      </trkpt>
      <trkpt lat="42.6848210" lon="-8.6367960">
        <ele>69.0</ele>
        <time>2022-06-19T07:11:36Z</time>
      </trkpt>
      <trkpt lat="42.6848350" lon="-8.6368010">
        <ele>69.0</ele>
        <time>2022-06-19T07:11:37Z</time>
      </trkpt>
      <trkpt lat="42.6848530" lon="-8.6368030">
        <ele>69.0</ele>
        <time>2022-06-19T07:11:38Z</time>
      </trkpt>
      <trkpt lat="42.6848730" lon="-8.6368000">
        <ele>69.4</ele>
        <time>2022-06-19T07:11:39Z</time>
      </trkpt>
      <trkpt lat="42.6848910" lon="-8.6368050">
        <ele>70.0</ele>
        <time>2022-06-19T07:11:40Z</time>
      </trkpt>
      <trkpt lat="42.6849030" lon="-8.6368080">
        <ele>70.0</ele>
        <time>2022-06-19T07:11:41Z</time>
      </trkpt>
      <trkpt lat="42.6849160" lon="-8.6368210">
        <ele>70.0</ele>
        <time>2022-06-19T07:11:42Z</time>
      </trkpt>
      <trkpt lat="42.6849310" lon="-8.6368300">
        <ele>70.0</ele>
        <time>2022-06-19T07:11:43Z</time>
      </trkpt>
      <trkpt lat="42.6849480" lon="-8.6368400">
        <ele>70.2</ele>
        <time>2022-06-19T07:11:44Z</time>
      </trkpt>
      <trkpt lat="42.6849750" lon="-8.6368530">
        <ele>70.2</ele>
        <time>2022-06-19T07:11:45Z</time>
      </trkpt>
      <trkpt lat="42.6850150" lon="-8.6368580">
        <ele>70.2</ele>
        <time>2022-06-19T07:11:46Z</time>
      </trkpt>
      <trkpt lat="42.6850580" lon="-8.6368560">
        <ele>69.2</ele>
        <time>2022-06-19T07:11:47Z</time>
      </trkpt>
      <trkpt lat="42.6851010" lon="-8.6368680">
        <ele>67.4</ele>
        <time>2022-06-19T07:11:48Z</time>
      </trkpt>
      <trkpt lat="42.6851360" lon="-8.6368980">
        <ele>67.4</ele>
        <time>2022-06-19T07:11:49Z</time>
      </trkpt>
      <trkpt lat="42.6851650" lon="-8.6369360">
        <ele>67.4</ele>
        <time>2022-06-19T07:11:50Z</time>
      </trkpt>
      <trkpt lat="42.6851980" lon="-8.6369650">
        <ele>67.4</ele>
        <time>2022-06-19T07:11:51Z</time>
      </trkpt>
      <trkpt lat="42.6852200" lon="-8.6369880">
        <ele>68.2</ele>
        <time>2022-06-19T07:11:52Z</time>
      </trkpt>
      <trkpt lat="42.6852380" lon="-8.6370110">
        <ele>68.2</ele>
        <time>2022-06-19T07:11:53Z</time>
      </trkpt>
      <trkpt lat="42.6852580" lon="-8.6370330">
        <ele>68.2</ele>
        <time>2022-06-19T07:11:54Z</time>
      </trkpt>
      <trkpt lat="42.6852780" lon="-8.6370600">
        <ele>68.6</ele>
        <time>2022-06-19T07:11:55Z</time>
      </trkpt>
      <trkpt lat="42.6852960" lon="-8.6370710">
        <ele>68.4</ele>
        <time>2022-06-19T07:11:56Z</time>
      </trkpt>
      <trkpt lat="42.6853230" lon="-8.6370830">
        <ele>68.4</ele>
        <time>2022-06-19T07:11:57Z</time>
      </trkpt>
      <trkpt lat="42.6853510" lon="-8.6370860">
        <ele>68.4</ele>
        <time>2022-06-19T07:11:58Z</time>
      </trkpt>
      <trkpt lat="42.6853800" lon="-8.6370850">
        <ele>68.4</ele>
        <time>2022-06-19T07:11:59Z</time>
      </trkpt>
      <trkpt lat="42.6854010" lon="-8.6370730">
        <ele>68.8</ele>
        <time>2022-06-19T07:12:00Z</time>
      </trkpt>
      <trkpt lat="42.6854210" lon="-8.6370700">
        <ele>68.8</ele>
        <time>2022-06-19T07:12:01Z</time>
      </trkpt>
      <trkpt lat="42.6854430" lon="-8.6370600">
        <ele>68.8</ele>
        <time>2022-06-19T07:12:02Z</time>
      </trkpt>
      <trkpt lat="42.6854750" lon="-8.6370580">
        <ele>68.8</ele>
        <time>2022-06-19T07:12:03Z</time>
      </trkpt>
      <trkpt lat="42.6855030" lon="-8.6370600">
        <ele>69.2</ele>
        <time>2022-06-19T07:12:04Z</time>
      </trkpt>
      <trkpt lat="42.6855280" lon="-8.6370610">
        <ele>69.2</ele>
        <time>2022-06-19T07:12:05Z</time>
      </trkpt>
      <trkpt lat="42.6855580" lon="-8.6370680">
        <ele>69.2</ele>
        <time>2022-06-19T07:12:06Z</time>
      </trkpt>
      <trkpt lat="42.6855860" lon="-8.6370760">
        <ele>69.4</ele>
        <time>2022-06-19T07:12:07Z</time>
      </trkpt>
      <trkpt lat="42.6856100" lon="-8.6370900">
        <ele>69.4</ele>
        <time>2022-06-19T07:12:08Z</time>
      </trkpt>
      <trkpt lat="42.6856330" lon="-8.6370980">
        <ele>69.4</ele>
        <time>2022-06-19T07:12:09Z</time>
      </trkpt>
      <trkpt lat="42.6856530" lon="-8.6371080">
        <ele>69.4</ele>
        <time>2022-06-19T07:12:10Z</time>
      </trkpt>
      <trkpt lat="42.6856710" lon="-8.6371210">
        <ele>70.0</ele>
        <time>2022-06-19T07:12:11Z</time>
      </trkpt>
      <trkpt lat="42.6856910" lon="-8.6371230">
        <ele>70.6</ele>
        <time>2022-06-19T07:12:12Z</time>
      </trkpt>
      <trkpt lat="42.6857060" lon="-8.6371350">
        <ele>70.6</ele>
        <time>2022-06-19T07:12:13Z</time>
      </trkpt>
      <trkpt lat="42.6857200" lon="-8.6371400">
        <ele>70.6</ele>
        <time>2022-06-19T07:12:14Z</time>
      </trkpt>
      <trkpt lat="42.6857310" lon="-8.6371460">
        <ele>70.6</ele>
        <time>2022-06-19T07:12:15Z</time>
      </trkpt>
      <trkpt lat="42.6857560" lon="-8.6371410">
        <ele>71.0</ele>
        <time>2022-06-19T07:12:16Z</time>
      </trkpt>
      <trkpt lat="42.6857800" lon="-8.6371430">
        <ele>71.0</ele>
        <time>2022-06-19T07:12:17Z</time>
      </trkpt>
      <trkpt lat="42.6858010" lon="-8.6371480">
        <ele>71.0</ele>
        <time>2022-06-19T07:12:18Z</time>
      </trkpt>
      <trkpt lat="42.6858200" lon="-8.6371550">
        <ele>71.0</ele>
        <time>2022-06-19T07:12:19Z</time>
      </trkpt>
      <trkpt lat="42.6858410" lon="-8.6371630">
        <ele>72.0</ele>
        <time>2022-06-19T07:12:20Z</time>
      </trkpt>
      <trkpt lat="42.6858560" lon="-8.6371780">
        <ele>72.0</ele>
        <time>2022-06-19T07:12:21Z</time>
      </trkpt>
      <trkpt lat="42.6858800" lon="-8.6371950">
        <ele>72.0</ele>
        <time>2022-06-19T07:12:22Z</time>
      </trkpt>
      <trkpt lat="42.6858860" lon="-8.6372100">
        <ele>72.6</ele>
        <time>2022-06-19T07:12:23Z</time>
      </trkpt>
      <trkpt lat="42.6858910" lon="-8.6372180">
        <ele>73.0</ele>
        <time>2022-06-19T07:12:24Z</time>
      </trkpt>
      <trkpt lat="42.6859000" lon="-8.6372350">
        <ele>73.0</ele>
        <time>2022-06-19T07:12:25Z</time>
      </trkpt>
      <trkpt lat="42.6859130" lon="-8.6372360">
        <ele>73.0</ele>
        <time>2022-06-19T07:12:26Z</time>
      </trkpt>
      <trkpt lat="42.6859280" lon="-8.6372430">
        <ele>73.0</ele>
        <time>2022-06-19T07:12:27Z</time>
      </trkpt>
      <trkpt lat="42.6859510" lon="-8.6372550">
        <ele>73.4</ele>
        <time>2022-06-19T07:12:28Z</time>
      </trkpt>
      <trkpt lat="42.6859710" lon="-8.6372630">
        <ele>73.4</ele>
        <time>2022-06-19T07:12:29Z</time>
      </trkpt>
      <trkpt lat="42.6860010" lon="-8.6372710">
        <ele>73.4</ele>
        <time>2022-06-19T07:12:30Z</time>
      </trkpt>
      <trkpt lat="42.6860180" lon="-8.6372830">
        <ele>73.8</ele>
        <time>2022-06-19T07:12:31Z</time>
      </trkpt>
      <trkpt lat="42.6860400" lon="-8.6372900">
        <ele>74.0</ele>
        <time>2022-06-19T07:12:32Z</time>
      </trkpt>
      <trkpt lat="42.6860560" lon="-8.6373000">
        <ele>74.0</ele>
        <time>2022-06-19T07:12:33Z</time>
      </trkpt>
      <trkpt lat="42.6860680" lon="-8.6373160">
        <ele>74.0</ele>
        <time>2022-06-19T07:12:34Z</time>
      </trkpt>
      <trkpt lat="42.6860850" lon="-8.6373260">
        <ele>74.2</ele>
        <time>2022-06-19T07:12:35Z</time>
      </trkpt>
      <trkpt lat="42.6860980" lon="-8.6373350">
        <ele>74.4</ele>
        <time>2022-06-19T07:12:36Z</time>
      </trkpt>
      <trkpt lat="42.6861130" lon="-8.6373430">
        <ele>74.4</ele>
        <time>2022-06-19T07:12:37Z</time>
      </trkpt>
      <trkpt lat="42.6861260" lon="-8.6373560">
        <ele>74.4</ele>
        <time>2022-06-19T07:12:38Z</time>
      </trkpt>
      <trkpt lat="42.6861500" lon="-8.6373650">
        <ele>74.4</ele>
        <time>2022-06-19T07:12:39Z</time>
      </trkpt>
      <trkpt lat="42.6861680" lon="-8.6373800">
        <ele>74.8</ele>
        <time>2022-06-19T07:12:40Z</time>
      </trkpt>
      <trkpt lat="42.6861810" lon="-8.6373900">
        <ele>74.8</ele>
        <time>2022-06-19T07:12:41Z</time>
      </trkpt>
      <trkpt lat="42.6861900" lon="-8.6374030">
        <ele>74.8</ele>
        <time>2022-06-19T07:12:42Z</time>
      </trkpt>
      <trkpt lat="42.6862080" lon="-8.6374130">
        <ele>74.8</ele>
        <time>2022-06-19T07:12:43Z</time>
      </trkpt>
      <trkpt lat="42.6862250" lon="-8.6374200">
        <ele>75.0</ele>
        <time>2022-06-19T07:12:44Z</time>
      </trkpt>
      <trkpt lat="42.6862380" lon="-8.6374280">
        <ele>75.0</ele>
        <time>2022-06-19T07:12:45Z</time>
      </trkpt>
      <trkpt lat="42.6862500" lon="-8.6374350">
        <ele>75.0</ele>
        <time>2022-06-19T07:12:46Z</time>
      </trkpt>
      <trkpt lat="42.6862600" lon="-8.6374380">
        <ele>75.8</ele>
        <time>2022-06-19T07:12:47Z</time>
      </trkpt>
      <trkpt lat="42.6862680" lon="-8.6374500">
        <ele>76.2</ele>
        <time>2022-06-19T07:12:48Z</time>
      </trkpt>
      <trkpt lat="42.6862760" lon="-8.6374630">
        <ele>76.2</ele>
        <time>2022-06-19T07:12:49Z</time>
      </trkpt>
      <trkpt lat="42.6862900" lon="-8.6374730">
        <ele>76.2</ele>
        <time>2022-06-19T07:12:50Z</time>
      </trkpt>
      <trkpt lat="42.6863000" lon="-8.6374780">
        <ele>76.8</ele>
        <time>2022-06-19T07:12:51Z</time>
      </trkpt>
      <trkpt lat="42.6863000" lon="-8.6374780">
        <ele>77.0</ele>
        <time>2022-06-19T07:12:52Z</time>
      </trkpt>
      <trkpt lat="42.6865580" lon="-8.6376580">
        <ele>75.0</ele>
        <time>2022-06-19T07:13:17Z</time>
      </trkpt>
      <trkpt lat="42.6865700" lon="-8.6376850">
        <ele>75.0</ele>
        <time>2022-06-19T07:13:18Z</time>
      </trkpt>
      <trkpt lat="42.6865830" lon="-8.6377250">
        <ele>75.0</ele>
        <time>2022-06-19T07:13:19Z</time>
      </trkpt>
      <trkpt lat="42.6866060" lon="-8.6377580">
        <ele>74.0</ele>
        <time>2022-06-19T07:13:20Z</time>
      </trkpt>
      <trkpt lat="42.6866400" lon="-8.6377880">
        <ele>74.0</ele>
        <time>2022-06-19T07:13:21Z</time>
      </trkpt>
      <trkpt lat="42.6866700" lon="-8.6378050">
        <ele>74.0</ele>
        <time>2022-06-19T07:13:22Z</time>
      </trkpt>
      <trkpt lat="42.6866910" lon="-8.6378200">
        <ele>73.0</ele>
        <time>2022-06-19T07:13:23Z</time>
      </trkpt>
      <trkpt lat="42.6867080" lon="-8.6378260">
        <ele>73.8</ele>
        <time>2022-06-19T07:13:24Z</time>
      </trkpt>
      <trkpt lat="42.6867200" lon="-8.6378210">
        <ele>73.8</ele>
        <time>2022-06-19T07:13:25Z</time>
      </trkpt>
      <trkpt lat="42.6867400" lon="-8.6378230">
        <ele>73.8</ele>
        <time>2022-06-19T07:13:26Z</time>
      </trkpt>
      <trkpt lat="42.6867680" lon="-8.6378230">
        <ele>73.8</ele>
        <time>2022-06-19T07:13:27Z</time>
      </trkpt>
      <trkpt lat="42.6867850" lon="-8.6378050">
        <ele>73.2</ele>
        <time>2022-06-19T07:13:28Z</time>
      </trkpt>
      <trkpt lat="42.6867980" lon="-8.6377850">
        <ele>73.2</ele>
        <time>2022-06-19T07:13:29Z</time>
      </trkpt>
      <trkpt lat="42.6868100" lon="-8.6377630">
        <ele>73.2</ele>
        <time>2022-06-19T07:13:30Z</time>
      </trkpt>
      <trkpt lat="42.6868180" lon="-8.6377430">
        <ele>72.2</ele>
        <time>2022-06-19T07:13:31Z</time>
      </trkpt>
      <trkpt lat="42.6868410" lon="-8.6377260">
        <ele>70.8</ele>
        <time>2022-06-19T07:13:32Z</time>
      </trkpt>
      <trkpt lat="42.6868650" lon="-8.6377110">
        <ele>70.8</ele>
        <time>2022-06-19T07:13:33Z</time>
      </trkpt>
      <trkpt lat="42.6868910" lon="-8.6377010">
        <ele>70.8</ele>
        <time>2022-06-19T07:13:34Z</time>
      </trkpt>
      <trkpt lat="42.6869110" lon="-8.6377000">
        <ele>70.2</ele>
        <time>2022-06-19T07:13:35Z</time>
      </trkpt>
      <trkpt lat="42.6869350" lon="-8.6377000">
        <ele>69.6</ele>
        <time>2022-06-19T07:13:36Z</time>
      </trkpt>
      <trkpt lat="42.6869660" lon="-8.6377010">
        <ele>69.6</ele>
        <time>2022-06-19T07:13:37Z</time>
      </trkpt>
      <trkpt lat="42.6869950" lon="-8.6377080">
        <ele>69.6</ele>
        <time>2022-06-19T07:13:38Z</time>
      </trkpt>
      <trkpt lat="42.6870150" lon="-8.6377150">
        <ele>69.6</ele>
        <time>2022-06-19T07:13:39Z</time>
      </trkpt>
      <trkpt lat="42.6870380" lon="-8.6377210">
        <ele>68.8</ele>
        <time>2022-06-19T07:13:40Z</time>
      </trkpt>
      <trkpt lat="42.6870530" lon="-8.6377380">
        <ele>68.8</ele>
        <time>2022-06-19T07:13:41Z</time>
      </trkpt>
      <trkpt lat="42.6870710" lon="-8.6377510">
        <ele>68.8</ele>
        <time>2022-06-19T07:13:42Z</time>
      </trkpt>
      <trkpt lat="42.6870900" lon="-8.6377600">
        <ele>68.8</ele>
        <time>2022-06-19T07:13:43Z</time>
      </trkpt>
      <trkpt lat="42.6871060" lon="-8.6377610">
        <ele>67.6</ele>
        <time>2022-06-19T07:13:44Z</time>
      </trkpt>
      <trkpt lat="42.6871180" lon="-8.6377660">
        <ele>67.6</ele>
        <time>2022-06-19T07:13:45Z</time>
      </trkpt>
      <trkpt lat="42.6871250" lon="-8.6377800">
        <ele>67.6</ele>
        <time>2022-06-19T07:13:46Z</time>
      </trkpt>
      <trkpt lat="42.6871380" lon="-8.6377810">
        <ele>67.6</ele>
        <time>2022-06-19T07:13:47Z</time>
      </trkpt>
      <trkpt lat="42.6871480" lon="-8.6377850">
        <ele>66.8</ele>
        <time>2022-06-19T07:13:48Z</time>
      </trkpt>
      <trkpt lat="42.6871700" lon="-8.6377900">
        <ele>66.8</ele>
        <time>2022-06-19T07:13:49Z</time>
      </trkpt>
      <trkpt lat="42.6872010" lon="-8.6377880">
        <ele>66.8</ele>
        <time>2022-06-19T07:13:50Z</time>
      </trkpt>
      <trkpt lat="42.6872360" lon="-8.6377810">
        <ele>66.0</ele>
        <time>2022-06-19T07:13:51Z</time>
      </trkpt>
      <trkpt lat="42.6872780" lon="-8.6377630">
        <ele>66.0</ele>
        <time>2022-06-19T07:13:52Z</time>
      </trkpt>
      <trkpt lat="42.6873180" lon="-8.6377510">
        <ele>66.0</ele>
        <time>2022-06-19T07:13:53Z</time>
      </trkpt>
      <trkpt lat="42.6873530" lon="-8.6377450">
        <ele>66.0</ele>
        <time>2022-06-19T07:13:54Z</time>
      </trkpt>
      <trkpt lat="42.6873830" lon="-8.6377450">
        <ele>66.0</ele>
        <time>2022-06-19T07:13:55Z</time>
      </trkpt>
      <trkpt lat="42.6874100" lon="-8.6377430">
        <ele>66.4</ele>
        <time>2022-06-19T07:13:56Z</time>
      </trkpt>
      <trkpt lat="42.6874410" lon="-8.6377500">
        <ele>66.4</ele>
        <time>2022-06-19T07:13:57Z</time>
      </trkpt>
      <trkpt lat="42.6874680" lon="-8.6377530">
        <ele>66.4</ele>
        <time>2022-06-19T07:13:58Z</time>
      </trkpt>
      <trkpt lat="42.6874900" lon="-8.6377550">
        <ele>65.8</ele>
        <time>2022-06-19T07:13:59Z</time>
      </trkpt>
      <trkpt lat="42.6875230" lon="-8.6377560">
        <ele>65.8</ele>
        <time>2022-06-19T07:14:00Z</time>
      </trkpt>
      <trkpt lat="42.6875460" lon="-8.6377700">
        <ele>65.8</ele>
        <time>2022-06-19T07:14:01Z</time>
      </trkpt>
      <trkpt lat="42.6875650" lon="-8.6377730">
        <ele>65.8</ele>
        <time>2022-06-19T07:14:02Z</time>
      </trkpt>
      <trkpt lat="42.6875860" lon="-8.6377810">
        <ele>65.8</ele>
        <time>2022-06-19T07:14:03Z</time>
      </trkpt>
      <trkpt lat="42.6876060" lon="-8.6377950">
        <ele>65.6</ele>
        <time>2022-06-19T07:14:04Z</time>
      </trkpt>
      <trkpt lat="42.6876230" lon="-8.6378060">
        <ele>65.6</ele>
        <time>2022-06-19T07:14:05Z</time>
      </trkpt>
      <trkpt lat="42.6876410" lon="-8.6378080">
        <ele>65.6</ele>
        <time>2022-06-19T07:14:06Z</time>
      </trkpt>
      <trkpt lat="42.6876650" lon="-8.6378060">
        <ele>65.4</ele>
        <time>2022-06-19T07:14:07Z</time>
      </trkpt>
      <trkpt lat="42.6876780" lon="-8.6378050">
        <ele>65.0</ele>
        <time>2022-06-19T07:14:08Z</time>
      </trkpt>
      <trkpt lat="42.6876980" lon="-8.6378050">
        <ele>65.0</ele>
        <time>2022-06-19T07:14:09Z</time>
      </trkpt>
      <trkpt lat="42.6877110" lon="-8.6378050">
        <ele>65.0</ele>
        <time>2022-06-19T07:14:10Z</time>
      </trkpt>
      <trkpt lat="42.6877300" lon="-8.6378060">
        <ele>65.0</ele>
        <time>2022-06-19T07:14:11Z</time>
      </trkpt>
      <trkpt lat="42.6877480" lon="-8.6378160">
        <ele>65.0</ele>
        <time>2022-06-19T07:14:12Z</time>
      </trkpt>
      <trkpt lat="42.6877650" lon="-8.6378250">
        <ele>65.0</ele>
        <time>2022-06-19T07:14:13Z</time>
      </trkpt>
      <trkpt lat="42.6877760" lon="-8.6378310">
        <ele>65.0</ele>
        <time>2022-06-19T07:14:14Z</time>
      </trkpt>
      <trkpt lat="42.6877850" lon="-8.6378350">
        <ele>65.2</ele>
        <time>2022-06-19T07:14:15Z</time>
      </trkpt>
      <trkpt lat="42.6877860" lon="-8.6378410">
        <ele>65.0</ele>
        <time>2022-06-19T07:14:16Z</time>
      </trkpt>
      <trkpt lat="42.6877960" lon="-8.6378460">
        <ele>65.0</ele>
        <time>2022-06-19T07:14:17Z</time>
      </trkpt>
      <trkpt lat="42.6880630" lon="-8.6379300">
        <ele>64.4</ele>
        <time>2022-06-19T07:19:57Z</time>
      </trkpt>
      <trkpt lat="42.6880710" lon="-8.6379480">
        <ele>64.4</ele>
        <time>2022-06-19T07:19:58Z</time>
      </trkpt>
      <trkpt lat="42.6880810" lon="-8.6379660">
        <ele>64.4</ele>
        <time>2022-06-19T07:19:59Z</time>
      </trkpt>
      <trkpt lat="42.6880900" lon="-8.6379880">
        <ele>64.2</ele>
        <time>2022-06-19T07:20:00Z</time>
      </trkpt>
      <trkpt lat="42.6881010" lon="-8.6380080">
        <ele>64.2</ele>
        <time>2022-06-19T07:20:01Z</time>
      </trkpt>
      <trkpt lat="42.6881150" lon="-8.6380210">
        <ele>64.2</ele>
        <time>2022-06-19T07:20:02Z</time>
      </trkpt>
      <trkpt lat="42.6881260" lon="-8.6380310">
        <ele>64.2</ele>
        <time>2022-06-19T07:20:03Z</time>
      </trkpt>
      <trkpt lat="42.6881360" lon="-8.6380510">
        <ele>65.0</ele>
        <time>2022-06-19T07:20:04Z</time>
      </trkpt>
      <trkpt lat="42.6881460" lon="-8.6380660">
        <ele>65.0</ele>
        <time>2022-06-19T07:20:05Z</time>
      </trkpt>
      <trkpt lat="42.6881610" lon="-8.6380960">
        <ele>65.0</ele>
        <time>2022-06-19T07:20:06Z</time>
      </trkpt>
      <trkpt lat="42.6881710" lon="-8.6381310">
        <ele>64.0</ele>
        <time>2022-06-19T07:20:07Z</time>
      </trkpt>
      <trkpt lat="42.6881900" lon="-8.6381630">
        <ele>64.6</ele>
        <time>2022-06-19T07:20:08Z</time>
      </trkpt>
      <trkpt lat="42.6882030" lon="-8.6381950">
        <ele>64.6</ele>
        <time>2022-06-19T07:20:09Z</time>
      </trkpt>
      <trkpt lat="42.6882110" lon="-8.6382300">
        <ele>64.6</ele>
        <time>2022-06-19T07:20:10Z</time>
      </trkpt>
      <trkpt lat="42.6882230" lon="-8.6382830">
        <ele>63.8</ele>
        <time>2022-06-19T07:20:11Z</time>
      </trkpt>
      <trkpt lat="42.6882450" lon="-8.6383310">
        <ele>63.6</ele>
        <time>2022-06-19T07:20:12Z</time>
      </trkpt>
      <trkpt lat="42.6882660" lon="-8.6383880">
        <ele>63.6</ele>
        <time>2022-06-19T07:20:13Z</time>
      </trkpt>
      <trkpt lat="42.6882850" lon="-8.6384300">
        <ele>63.6</ele>
        <time>2022-06-19T07:20:14Z</time>
      </trkpt>
      <trkpt lat="42.6883060" lon="-8.6384560">
        <ele>62.6</ele>
        <time>2022-06-19T07:20:15Z</time>
      </trkpt>
      <trkpt lat="42.6883230" lon="-8.6384500">
        <ele>60.8</ele>
        <time>2022-06-19T07:20:16Z</time>
      </trkpt>
      <trkpt lat="42.6883360" lon="-8.6384300">
        <ele>60.8</ele>
        <time>2022-06-19T07:20:17Z</time>
      </trkpt>
      <trkpt lat="42.6883600" lon="-8.6383960">
        <ele>60.8</ele>
        <time>2022-06-19T07:20:18Z</time>
      </trkpt>
      <trkpt lat="42.6883900" lon="-8.6383610">
        <ele>60.6</ele>
        <time>2022-06-19T07:20:19Z</time>
      </trkpt>
      <trkpt lat="42.6884130" lon="-8.6383360">
        <ele>61.2</ele>
        <time>2022-06-19T07:20:20Z</time>
      </trkpt>
      <trkpt lat="42.6884350" lon="-8.6383210">
        <ele>61.2</ele>
        <time>2022-06-19T07:20:21Z</time>
      </trkpt>
      <trkpt lat="42.6884650" lon="-8.6383110">
        <ele>61.2</ele>
        <time>2022-06-19T07:20:22Z</time>
      </trkpt>
      <trkpt lat="42.6884930" lon="-8.6383000">
        <ele>61.2</ele>
        <time>2022-06-19T07:20:23Z</time>
      </trkpt>
      <trkpt lat="42.6885330" lon="-8.6382910">
        <ele>61.0</ele>
        <time>2022-06-19T07:20:24Z</time>
      </trkpt>
      <trkpt lat="42.6885700" lon="-8.6382880">
        <ele>61.0</ele>
        <time>2022-06-19T07:20:25Z</time>
      </trkpt>
      <trkpt lat="42.6886030" lon="-8.6382830">
        <ele>61.0</ele>
        <time>2022-06-19T07:20:26Z</time>
      </trkpt>
      <trkpt lat="42.6886380" lon="-8.6382750">
        <ele>61.4</ele>
        <time>2022-06-19T07:20:27Z</time>
      </trkpt>
      <trkpt lat="42.6886730" lon="-8.6382760">
        <ele>61.8</ele>
        <time>2022-06-19T07:20:28Z</time>
      </trkpt>
      <trkpt lat="42.6887030" lon="-8.6382700">
        <ele>61.8</ele>
        <time>2022-06-19T07:20:29Z</time>
      </trkpt>
      <trkpt lat="42.6887300" lon="-8.6382460">
        <ele>61.8</ele>
        <time>2022-06-19T07:20:30Z</time>
      </trkpt>
      <trkpt lat="42.6887650" lon="-8.6382180">
        <ele>60.8</ele>
        <time>2022-06-19T07:20:31Z</time>
      </trkpt>
      <trkpt lat="42.6888080" lon="-8.6381950">
        <ele>57.8</ele>
        <time>2022-06-19T07:20:32Z</time>
      </trkpt>
      <trkpt lat="42.6888560" lon="-8.6381700">
        <ele>57.8</ele>
        <time>2022-06-19T07:20:33Z</time>
      </trkpt>
      <trkpt lat="42.6888760" lon="-8.6381580">
        <ele>57.8</ele>
        <time>2022-06-19T07:20:34Z</time>
      </trkpt>
      <trkpt lat="42.6889250" lon="-8.6381380">
        <ele>56.8</ele>
        <time>2022-06-19T07:20:35Z</time>
      </trkpt>
      <trkpt lat="42.6889680" lon="-8.6381350">
        <ele>55.2</ele>
        <time>2022-06-19T07:20:36Z</time>
      </trkpt>
      <trkpt lat="42.6890160" lon="-8.6381260">
        <ele>55.2</ele>
        <time>2022-06-19T07:20:37Z</time>
      </trkpt>
      <trkpt lat="42.6890650" lon="-8.6381180">
        <ele>55.2</ele>
        <time>2022-06-19T07:20:38Z</time>
      </trkpt>
      <trkpt lat="42.6891110" lon="-8.6381210">
        <ele>54.2</ele>
        <time>2022-06-19T07:20:39Z</time>
      </trkpt>
      <trkpt lat="42.6891550" lon="-8.6381350">
        <ele>52.0</ele>
        <time>2022-06-19T07:20:40Z</time>
      </trkpt>
      <trkpt lat="42.6891960" lon="-8.6381580">
        <ele>52.0</ele>
        <time>2022-06-19T07:20:41Z</time>
      </trkpt>
      <trkpt lat="42.6892400" lon="-8.6381780">
        <ele>52.0</ele>
        <time>2022-06-19T07:20:42Z</time>
      </trkpt>
      <trkpt lat="42.6892780" lon="-8.6382000">
        <ele>52.0</ele>
        <time>2022-06-19T07:20:43Z</time>
      </trkpt>
      <trkpt lat="42.6893200" lon="-8.6382260">
        <ele>51.0</ele>
        <time>2022-06-19T07:20:44Z</time>
      </trkpt>
      <trkpt lat="42.6893550" lon="-8.6382530">
        <ele>51.0</ele>
        <time>2022-06-19T07:20:45Z</time>
      </trkpt>
      <trkpt lat="42.6893830" lon="-8.6382780">
        <ele>51.0</ele>
        <time>2022-06-19T07:20:46Z</time>
      </trkpt>
      <trkpt lat="42.6894180" lon="-8.6383080">
        <ele>52.0</ele>
        <time>2022-06-19T07:20:47Z</time>
      </trkpt>
      <trkpt lat="42.6894460" lon="-8.6383210">
        <ele>53.0</ele>
        <time>2022-06-19T07:20:48Z</time>
      </trkpt>
      <trkpt lat="42.6894630" lon="-8.6383450">
        <ele>53.0</ele>
        <time>2022-06-19T07:20:49Z</time>
      </trkpt>
      <trkpt lat="42.6895060" lon="-8.6383610">
        <ele>53.0</ele>
        <time>2022-06-19T07:20:50Z</time>
      </trkpt>
      <trkpt lat="42.6895680" lon="-8.6383680">
        <ele>53.0</ele>
        <time>2022-06-19T07:20:51Z</time>
      </trkpt>
      <trkpt lat="42.6896310" lon="-8.6383730">
        <ele>49.4</ele>
        <time>2022-06-19T07:20:52Z</time>
      </trkpt>
      <trkpt lat="42.6896960" lon="-8.6383850">
        <ele>49.4</ele>
        <time>2022-06-19T07:20:53Z</time>
      </trkpt>
      <trkpt lat="42.6897480" lon="-8.6384030">
        <ele>49.4</ele>
        <time>2022-06-19T07:20:54Z</time>
      </trkpt>
      <trkpt lat="42.6898150" lon="-8.6384200">
        <ele>48.4</ele>
        <time>2022-06-19T07:20:55Z</time>
      </trkpt>
      <trkpt lat="42.6898660" lon="-8.6384380">
        <ele>47.8</ele>
        <time>2022-06-19T07:20:56Z</time>
      </trkpt>
      <trkpt lat="42.6899100" lon="-8.6384400">
        <ele>47.8</ele>
        <time>2022-06-19T07:20:57Z</time>
      </trkpt>
      <trkpt lat="42.6899600" lon="-8.6384450">
        <ele>47.8</ele>
        <time>2022-06-19T07:20:58Z</time>
      </trkpt>
      <trkpt lat="42.6900000" lon="-8.6384550">
        <ele>46.8</ele>
        <time>2022-06-19T07:20:59Z</time>
      </trkpt>
      <trkpt lat="42.6900400" lon="-8.6384680">
        <ele>46.6</ele>
        <time>2022-06-19T07:21:00Z</time>
      </trkpt>
      <trkpt lat="42.6900730" lon="-8.6385030">
        <ele>46.6</ele>
        <time>2022-06-19T07:21:01Z</time>
      </trkpt>
      <trkpt lat="42.6901030" lon="-8.6385250">
        <ele>46.6</ele>
        <time>2022-06-19T07:21:02Z</time>
      </trkpt>
      <trkpt lat="42.6901400" lon="-8.6385610">
        <ele>46.6</ele>
        <time>2022-06-19T07:21:03Z</time>
      </trkpt>
      <trkpt lat="42.6901710" lon="-8.6386050">
        <ele>46.0</ele>
        <time>2022-06-19T07:21:04Z</time>
      </trkpt>
      <trkpt lat="42.6901980" lon="-8.6386330">
        <ele>46.0</ele>
        <time>2022-06-19T07:21:05Z</time>
      </trkpt>
      <trkpt lat="42.6902260" lon="-8.6386630">
        <ele>46.0</ele>
        <time>2022-06-19T07:21:06Z</time>
      </trkpt>
      <trkpt lat="42.6902450" lon="-8.6386850">
        <ele>47.0</ele>
        <time>2022-06-19T07:21:07Z</time>
      </trkpt>
      <trkpt lat="42.6902830" lon="-8.6386850">
        <ele>47.6</ele>
        <time>2022-06-19T07:21:08Z</time>
      </trkpt>
      <trkpt lat="42.6903200" lon="-8.6386810">
        <ele>47.6</ele>
        <time>2022-06-19T07:21:09Z</time>
      </trkpt>
      <trkpt lat="42.6903400" lon="-8.6386750">
        <ele>47.6</ele>
        <time>2022-06-19T07:21:10Z</time>
      </trkpt>
      <trkpt lat="42.6903580" lon="-8.6386510">
        <ele>47.6</ele>
        <time>2022-06-19T07:21:11Z</time>
      </trkpt>
      <trkpt lat="42.6903750" lon="-8.6386250">
        <ele>47.4</ele>
        <time>2022-06-19T07:21:12Z</time>
      </trkpt>
      <trkpt lat="42.6904010" lon="-8.6386030">
        <ele>47.4</ele>
        <time>2022-06-19T07:21:13Z</time>
      </trkpt>
      <trkpt lat="42.6904380" lon="-8.6385830">
        <ele>47.4</ele>
        <time>2022-06-19T07:21:14Z</time>
      </trkpt>
      <trkpt lat="42.6904750" lon="-8.6385680">
        <ele>47.4</ele>
        <time>2022-06-19T07:21:15Z</time>
      </trkpt>
      <trkpt lat="42.6904930" lon="-8.6385380">
        <ele>47.2</ele>
        <time>2022-06-19T07:21:16Z</time>
      </trkpt>
      <trkpt lat="42.6905110" lon="-8.6385000">
        <ele>47.2</ele>
        <time>2022-06-19T07:21:17Z</time>
      </trkpt>
      <trkpt lat="42.6905260" lon="-8.6384610">
        <ele>47.2</ele>
        <time>2022-06-19T07:21:18Z</time>
      </trkpt>
      <trkpt lat="42.6905430" lon="-8.6384200">
        <ele>46.4</ele>
        <time>2022-06-19T07:21:19Z</time>
      </trkpt>
      <trkpt lat="42.6905630" lon="-8.6383710">
        <ele>46.6</ele>
        <time>2022-06-19T07:21:20Z</time>
      </trkpt>
      <trkpt lat="42.6905860" lon="-8.6383210">
        <ele>46.6</ele>
        <time>2022-06-19T07:21:21Z</time>
      </trkpt>
      <trkpt lat="42.6906080" lon="-8.6382760">
        <ele>46.6</ele>
        <time>2022-06-19T07:21:22Z</time>
      </trkpt>
      <trkpt lat="42.6906250" lon="-8.6382350">
        <ele>45.8</ele>
        <time>2022-06-19T07:21:23Z</time>
      </trkpt>
      <trkpt lat="42.6906450" lon="-8.6381980">
        <ele>46.4</ele>
        <time>2022-06-19T07:21:24Z</time>
      </trkpt>
      <trkpt lat="42.6906580" lon="-8.6381610">
        <ele>46.4</ele>
        <time>2022-06-19T07:21:25Z</time>
      </trkpt>
      <trkpt lat="42.6906650" lon="-8.6381300">
        <ele>46.4</ele>
        <time>2022-06-19T07:21:26Z</time>
      </trkpt>
      <trkpt lat="42.6906850" lon="-8.6380900">
        <ele>46.4</ele>
        <time>2022-06-19T07:21:27Z</time>
      </trkpt>
      <trkpt lat="42.6907010" lon="-8.6380510">
        <ele>46.4</ele>
        <time>2022-06-19T07:21:28Z</time>
      </trkpt>
      <trkpt lat="42.6907260" lon="-8.6380150">
        <ele>46.4</ele>
        <time>2022-06-19T07:21:29Z</time>
      </trkpt>
      <trkpt lat="42.6907460" lon="-8.6379780">
        <ele>46.4</ele>
        <time>2022-06-19T07:21:30Z</time>
      </trkpt>
      <trkpt lat="42.6907650" lon="-8.6379410">
        <ele>46.4</ele>
        <time>2022-06-19T07:21:31Z</time>
      </trkpt>
      <trkpt lat="42.6907850" lon="-8.6379030">
        <ele>46.6</ele>
        <time>2022-06-19T07:21:32Z</time>
      </trkpt>
      <trkpt lat="42.6908010" lon="-8.6378650">
        <ele>46.6</ele>
        <time>2022-06-19T07:21:33Z</time>
      </trkpt>
      <trkpt lat="42.6908200" lon="-8.6378250">
        <ele>46.6</ele>
        <time>2022-06-19T07:21:34Z</time>
      </trkpt>
      <trkpt lat="42.6908400" lon="-8.6377880">
        <ele>46.8</ele>
        <time>2022-06-19T07:21:35Z</time>
      </trkpt>
      <trkpt lat="42.6908600" lon="-8.6377530">
        <ele>46.8</ele>
        <time>2022-06-19T07:21:36Z</time>
      </trkpt>
      <trkpt lat="42.6908810" lon="-8.6377200">
        <ele>46.8</ele>
        <time>2022-06-19T07:21:37Z</time>
      </trkpt>
      <trkpt lat="42.6909050" lon="-8.6376850">
        <ele>46.8</ele>
        <time>2022-06-19T07:21:38Z</time>
      </trkpt>
      <trkpt lat="42.6909180" lon="-8.6376530">
        <ele>47.4</ele>
        <time>2022-06-19T07:21:39Z</time>
      </trkpt>
      <trkpt lat="42.6909360" lon="-8.6376250">
        <ele>48.0</ele>
        <time>2022-06-19T07:21:40Z</time>
      </trkpt>
      <trkpt lat="42.6909550" lon="-8.6375980">
        <ele>48.0</ele>
        <time>2022-06-19T07:21:41Z</time>
      </trkpt>
      <trkpt lat="42.6909780" lon="-8.6375750">
        <ele>48.0</ele>
        <time>2022-06-19T07:21:42Z</time>
      </trkpt>
      <trkpt lat="42.6910050" lon="-8.6375580">
        <ele>48.0</ele>
        <time>2022-06-19T07:21:43Z</time>
      </trkpt>
      <trkpt lat="42.6910330" lon="-8.6375510">
        <ele>48.4</ele>
        <time>2022-06-19T07:21:44Z</time>
      </trkpt>
      <trkpt lat="42.6910580" lon="-8.6375530">
        <ele>48.4</ele>
        <time>2022-06-19T07:21:45Z</time>
      </trkpt>
      <trkpt lat="42.6910830" lon="-8.6375550">
        <ele>48.4</ele>
        <time>2022-06-19T07:21:46Z</time>
      </trkpt>
      <trkpt lat="42.6911100" lon="-8.6375600">
        <ele>48.6</ele>
        <time>2022-06-19T07:21:47Z</time>
      </trkpt>
      <trkpt lat="42.6911400" lon="-8.6375630">
        <ele>49.0</ele>
        <time>2022-06-19T07:21:48Z</time>
      </trkpt>
      <trkpt lat="42.6911650" lon="-8.6375680">
        <ele>49.0</ele>
        <time>2022-06-19T07:21:49Z</time>
      </trkpt>
      <trkpt lat="42.6911910" lon="-8.6375710">
        <ele>49.0</ele>
        <time>2022-06-19T07:21:50Z</time>
      </trkpt>
      <trkpt lat="42.6912160" lon="-8.6375710">
        <ele>49.0</ele>
        <time>2022-06-19T07:21:51Z</time>
      </trkpt>
      <trkpt lat="42.6912380" lon="-8.6375750">
        <ele>49.4</ele>
        <time>2022-06-19T07:21:52Z</time>
      </trkpt>
      <trkpt lat="42.6912610" lon="-8.6375730">
        <ele>49.4</ele>
        <time>2022-06-19T07:21:53Z</time>
      </trkpt>
      <trkpt lat="42.6912850" lon="-8.6375710">
        <ele>49.4</ele>
        <time>2022-06-19T07:21:54Z</time>
      </trkpt>
      <trkpt lat="42.6913060" lon="-8.6375700">
        <ele>49.6</ele>
        <time>2022-06-19T07:21:55Z</time>
      </trkpt>
      <trkpt lat="42.6913300" lon="-8.6375610">
        <ele>50.0</ele>
        <time>2022-06-19T07:21:56Z</time>
      </trkpt>
      <trkpt lat="42.6913510" lon="-8.6375600">
        <ele>50.0</ele>
        <time>2022-06-19T07:21:57Z</time>
      </trkpt>
      <trkpt lat="42.6913730" lon="-8.6375600">
        <ele>50.0</ele>
        <time>2022-06-19T07:21:58Z</time>
      </trkpt>
      <trkpt lat="42.6913980" lon="-8.6375580">
        <ele>50.0</ele>
        <time>2022-06-19T07:21:59Z</time>
      </trkpt>
      <trkpt lat="42.6914200" lon="-8.6375580">
        <ele>50.4</ele>
        <time>2022-06-19T07:22:00Z</time>
      </trkpt>
      <trkpt lat="42.6914410" lon="-8.6375600">
        <ele>50.4</ele>
        <time>2022-06-19T07:22:01Z</time>
      </trkpt>
      <trkpt lat="42.6914650" lon="-8.6375560">
        <ele>50.4</ele>
        <time>2022-06-19T07:22:02Z</time>
      </trkpt>
      <trkpt lat="42.6914880" lon="-8.6375550">
        <ele>51.0</ele>
        <time>2022-06-19T07:22:03Z</time>
      </trkpt>
      <trkpt lat="42.6915130" lon="-8.6375500">
        <ele>51.2</ele>
        <time>2022-06-19T07:22:04Z</time>
      </trkpt>
      <trkpt lat="42.6915350" lon="-8.6375430">
        <ele>51.2</ele>
        <time>2022-06-19T07:22:05Z</time>
      </trkpt>
      <trkpt lat="42.6915580" lon="-8.6375400">
        <ele>51.2</ele>
        <time>2022-06-19T07:22:06Z</time>
      </trkpt>
      <trkpt lat="42.6915810" lon="-8.6375360">
        <ele>51.8</ele>
        <time>2022-06-19T07:22:07Z</time>
      </trkpt>
      <trkpt lat="42.6916050" lon="-8.6375330">
        <ele>51.8</ele>
        <time>2022-06-19T07:22:08Z</time>
      </trkpt>
      <trkpt lat="42.6916280" lon="-8.6375280">
        <ele>51.8</ele>
        <time>2022-06-19T07:22:09Z</time>
      </trkpt>
      <trkpt lat="42.6916530" lon="-8.6375230">
        <ele>51.8</ele>
        <time>2022-06-19T07:22:10Z</time>
      </trkpt>
      <trkpt lat="42.6916760" lon="-8.6375180">
        <ele>51.8</ele>
        <time>2022-06-19T07:22:11Z</time>
      </trkpt>
      <trkpt lat="42.6916980" lon="-8.6375110">
        <ele>52.0</ele>
        <time>2022-06-19T07:22:12Z</time>
      </trkpt>
      <trkpt lat="42.6917200" lon="-8.6375060">
        <ele>52.0</ele>
        <time>2022-06-19T07:22:13Z</time>
      </trkpt>
      <trkpt lat="42.6917410" lon="-8.6375000">
        <ele>52.0</ele>
        <time>2022-06-19T07:22:14Z</time>
      </trkpt>
      <trkpt lat="42.6917630" lon="-8.6374910">
        <ele>52.0</ele>
        <time>2022-06-19T07:22:15Z</time>
      </trkpt>
      <trkpt lat="42.6917830" lon="-8.6374850">
        <ele>52.4</ele>
        <time>2022-06-19T07:22:16Z</time>
      </trkpt>
      <trkpt lat="42.6918050" lon="-8.6374760">
        <ele>52.4</ele>
        <time>2022-06-19T07:22:17Z</time>
      </trkpt>
      <trkpt lat="42.6918260" lon="-8.6374700">
        <ele>52.4</ele>
        <time>2022-06-19T07:22:18Z</time>
      </trkpt>
      <trkpt lat="42.6918450" lon="-8.6374680">
        <ele>52.8</ele>
        <time>2022-06-19T07:22:19Z</time>
      </trkpt>
      <trkpt lat="42.6918610" lon="-8.6374650">
        <ele>53.2</ele>
        <time>2022-06-19T07:22:20Z</time>
      </trkpt>
      <trkpt lat="42.6918830" lon="-8.6374600">
        <ele>53.2</ele>
        <time>2022-06-19T07:22:21Z</time>
      </trkpt>
      <trkpt lat="42.6919030" lon="-8.6374510">
        <ele>53.2</ele>
        <time>2022-06-19T07:22:22Z</time>
      </trkpt>
      <trkpt lat="42.6919230" lon="-8.6374450">
        <ele>53.2</ele>
        <time>2022-06-19T07:22:23Z</time>
      </trkpt>
      <trkpt lat="42.6919460" lon="-8.6374330">
        <ele>53.2</ele>
        <time>2022-06-19T07:22:24Z</time>
      </trkpt>
      <trkpt lat="42.6919680" lon="-8.6374210">
        <ele>53.2</ele>
        <time>2022-06-19T07:22:25Z</time>
      </trkpt>
      <trkpt lat="42.6919850" lon="-8.6374110">
        <ele>53.2</ele>
        <time>2022-06-19T07:22:26Z</time>
      </trkpt>
      <trkpt lat="42.6920030" lon="-8.6374010">
        <ele>54.0</ele>
        <time>2022-06-19T07:22:27Z</time>
      </trkpt>
      <trkpt lat="42.6920210" lon="-8.6373930">
        <ele>54.4</ele>
        <time>2022-06-19T07:22:28Z</time>
      </trkpt>
      <trkpt lat="42.6920450" lon="-8.6373880">
        <ele>54.4</ele>
        <time>2022-06-19T07:22:29Z</time>
      </trkpt>
      <trkpt lat="42.6920680" lon="-8.6373860">
        <ele>54.4</ele>
        <time>2022-06-19T07:22:30Z</time>
      </trkpt>
      <trkpt lat="42.6920900" lon="-8.6373900">
        <ele>55.0</ele>
        <time>2022-06-19T07:22:31Z</time>
      </trkpt>
      <trkpt lat="42.6921130" lon="-8.6373960">
        <ele>54.8</ele>
        <time>2022-06-19T07:22:32Z</time>
      </trkpt>
      <trkpt lat="42.6921350" lon="-8.6374010">
        <ele>54.8</ele>
        <time>2022-06-19T07:22:33Z</time>
      </trkpt>
      <trkpt lat="42.6921560" lon="-8.6374060">
        <ele>54.8</ele>
        <time>2022-06-19T07:22:34Z</time>
      </trkpt>
      <trkpt lat="42.6921800" lon="-8.6374150">
        <ele>54.8</ele>
        <time>2022-06-19T07:22:35Z</time>
      </trkpt>
      <trkpt lat="42.6922050" lon="-8.6374210">
        <ele>54.6</ele>
        <time>2022-06-19T07:22:36Z</time>
      </trkpt>
      <trkpt lat="42.6922280" lon="-8.6374330">
        <ele>54.6</ele>
        <time>2022-06-19T07:22:37Z</time>
      </trkpt>
      <trkpt lat="42.6922510" lon="-8.6374360">
        <ele>54.6</ele>
        <time>2022-06-19T07:22:38Z</time>
      </trkpt>
      <trkpt lat="42.6922750" lon="-8.6374400">
        <ele>54.2</ele>
        <time>2022-06-19T07:22:39Z</time>
      </trkpt>
      <trkpt lat="42.6922980" lon="-8.6374430">
        <ele>54.4</ele>
        <time>2022-06-19T07:22:40Z</time>
      </trkpt>
      <trkpt lat="42.6923250" lon="-8.6374480">
        <ele>54.4</ele>
        <time>2022-06-19T07:22:41Z</time>
      </trkpt>
      <trkpt lat="42.6923510" lon="-8.6374550">
        <ele>54.4</ele>
        <time>2022-06-19T07:22:42Z</time>
      </trkpt>
      <trkpt lat="42.6923780" lon="-8.6374580">
        <ele>53.6</ele>
        <time>2022-06-19T07:22:43Z</time>
      </trkpt>
      <trkpt lat="42.6924080" lon="-8.6374610">
        <ele>53.6</ele>
        <time>2022-06-19T07:22:44Z</time>
      </trkpt>
      <trkpt lat="42.6924400" lon="-8.6374610">
        <ele>53.6</ele>
        <time>2022-06-19T07:22:45Z</time>
      </trkpt>
      <trkpt lat="42.6924730" lon="-8.6374580">
        <ele>53.6</ele>
        <time>2022-06-19T07:22:46Z</time>
      </trkpt>
      <trkpt lat="42.6925060" lon="-8.6374530">
        <ele>53.2</ele>
        <time>2022-06-19T07:22:47Z</time>
      </trkpt>
      <trkpt lat="42.6925400" lon="-8.6374460">
        <ele>53.0</ele>
        <time>2022-06-19T07:22:48Z</time>
      </trkpt>
      <trkpt lat="42.6925750" lon="-8.6374400">
        <ele>53.0</ele>
        <time>2022-06-19T07:22:49Z</time>
      </trkpt>
      <trkpt lat="42.6926100" lon="-8.6374350">
        <ele>53.0</ele>
        <time>2022-06-19T07:22:50Z</time>
      </trkpt>
      <trkpt lat="42.6926450" lon="-8.6374310">
        <ele>52.8</ele>
        <time>2022-06-19T07:22:51Z</time>
      </trkpt>
      <trkpt lat="42.6926780" lon="-8.6374350">
        <ele>52.6</ele>
        <time>2022-06-19T07:22:52Z</time>
      </trkpt>
      <trkpt lat="42.6927100" lon="-8.6374460">
        <ele>52.6</ele>
        <time>2022-06-19T07:22:53Z</time>
      </trkpt>
      <trkpt lat="42.6927350" lon="-8.6374660">
        <ele>52.6</ele>
        <time>2022-06-19T07:22:54Z</time>
      </trkpt>
      <trkpt lat="42.6927550" lon="-8.6374930">
        <ele>52.6</ele>
        <time>2022-06-19T07:22:55Z</time>
      </trkpt>
      <trkpt lat="42.6927750" lon="-8.6375200">
        <ele>53.4</ele>
        <time>2022-06-19T07:22:56Z</time>
      </trkpt>
      <trkpt lat="42.6927950" lon="-8.6375450">
        <ele>53.4</ele>
        <time>2022-06-19T07:22:57Z</time>
      </trkpt>
      <trkpt lat="42.6928150" lon="-8.6375700">
        <ele>53.4</ele>
        <time>2022-06-19T07:22:58Z</time>
      </trkpt>
      <trkpt lat="42.6928330" lon="-8.6375960">
        <ele>53.4</ele>
        <time>2022-06-19T07:22:59Z</time>
      </trkpt>
      <trkpt lat="42.6928550" lon="-8.6376210">
        <ele>53.0</ele>
        <time>2022-06-19T07:23:00Z</time>
      </trkpt>
      <trkpt lat="42.6928760" lon="-8.6376410">
        <ele>53.0</ele>
        <time>2022-06-19T07:23:01Z</time>
      </trkpt>
      <trkpt lat="42.6929000" lon="-8.6376560">
        <ele>53.0</ele>
        <time>2022-06-19T07:23:02Z</time>
      </trkpt>
      <trkpt lat="42.6929250" lon="-8.6376660">
        <ele>54.0</ele>
        <time>2022-06-19T07:23:03Z</time>
      </trkpt>
      <trkpt lat="42.6929510" lon="-8.6376750">
        <ele>53.8</ele>
        <time>2022-06-19T07:23:04Z</time>
      </trkpt>
      <trkpt lat="42.6929800" lon="-8.6376850">
        <ele>53.8</ele>
        <time>2022-06-19T07:23:05Z</time>
      </trkpt>
      <trkpt lat="42.6930060" lon="-8.6376930">
        <ele>53.8</ele>
        <time>2022-06-19T07:23:06Z</time>
      </trkpt>
      <trkpt lat="42.6930330" lon="-8.6377050">
        <ele>54.0</ele>
        <time>2022-06-19T07:23:07Z</time>
      </trkpt>
      <trkpt lat="42.6930580" lon="-8.6377080">
        <ele>54.4</ele>
        <time>2022-06-19T07:23:08Z</time>
      </trkpt>
      <trkpt lat="42.6930830" lon="-8.6377160">
        <ele>54.4</ele>
        <time>2022-06-19T07:23:09Z</time>
      </trkpt>
      <trkpt lat="42.6931060" lon="-8.6377300">
        <ele>54.4</ele>
        <time>2022-06-19T07:23:10Z</time>
      </trkpt>
      <trkpt lat="42.6931280" lon="-8.6377400">
        <ele>54.4</ele>
        <time>2022-06-19T07:23:11Z</time>
      </trkpt>
      <trkpt lat="42.6931510" lon="-8.6377480">
        <ele>55.0</ele>
        <time>2022-06-19T07:23:12Z</time>
      </trkpt>
      <trkpt lat="42.6931730" lon="-8.6377580">
        <ele>55.0</ele>
        <time>2022-06-19T07:23:13Z</time>
      </trkpt>
      <trkpt lat="42.6931930" lon="-8.6377710">
        <ele>55.0</ele>
        <time>2022-06-19T07:23:14Z</time>
      </trkpt>
      <trkpt lat="42.6932110" lon="-8.6377830">
        <ele>55.0</ele>
        <time>2022-06-19T07:23:15Z</time>
      </trkpt>
      <trkpt lat="42.6932280" lon="-8.6377930">
        <ele>55.0</ele>
        <time>2022-06-19T07:23:16Z</time>
      </trkpt>
      <trkpt lat="42.6932460" lon="-8.6378000">
        <ele>55.0</ele>
        <time>2022-06-19T07:23:17Z</time>
      </trkpt>
      <trkpt lat="42.6932650" lon="-8.6378100">
        <ele>55.0</ele>
        <time>2022-06-19T07:23:18Z</time>
      </trkpt>
      <trkpt lat="42.6932810" lon="-8.6378150">
        <ele>55.6</ele>
        <time>2022-06-19T07:23:19Z</time>
      </trkpt>
      <trkpt lat="42.6932950" lon="-8.6378250">
        <ele>56.0</ele>
        <time>2022-06-19T07:23:20Z</time>
      </trkpt>
      <trkpt lat="42.6933050" lon="-8.6378350">
        <ele>56.0</ele>
        <time>2022-06-19T07:23:21Z</time>
      </trkpt>
      <trkpt lat="42.6933180" lon="-8.6378500">
        <ele>56.0</ele>
        <time>2022-06-19T07:23:22Z</time>
      </trkpt>
      <trkpt lat="42.6933350" lon="-8.6378550">
        <ele>56.0</ele>
        <time>2022-06-19T07:23:23Z</time>
      </trkpt>
      <trkpt lat="42.6933480" lon="-8.6378630">
        <ele>56.6</ele>
        <time>2022-06-19T07:23:24Z</time>
      </trkpt>
      <trkpt lat="42.6933600" lon="-8.6378680">
        <ele>56.6</ele>
        <time>2022-06-19T07:23:25Z</time>
      </trkpt>
      <trkpt lat="42.6933750" lon="-8.6378730">
        <ele>56.6</ele>
        <time>2022-06-19T07:23:26Z</time>
      </trkpt>
      <trkpt lat="42.6933860" lon="-8.6378800">
        <ele>57.6</ele>
        <time>2022-06-19T07:23:27Z</time>
      </trkpt>
      <trkpt lat="42.6933980" lon="-8.6378860">
        <ele>57.8</ele>
        <time>2022-06-19T07:23:28Z</time>
      </trkpt>
      <trkpt lat="42.6934080" lon="-8.6378900">
        <ele>57.8</ele>
        <time>2022-06-19T07:23:29Z</time>
      </trkpt>
      <trkpt lat="42.6934180" lon="-8.6378960">
        <ele>57.8</ele>
        <time>2022-06-19T07:23:30Z</time>
      </trkpt>
      <trkpt lat="42.6934300" lon="-8.6379010">
        <ele>58.6</ele>
        <time>2022-06-19T07:23:31Z</time>
      </trkpt>
      <trkpt lat="42.6934460" lon="-8.6379010">
        <ele>58.8</ele>
        <time>2022-06-19T07:23:32Z</time>
      </trkpt>
      <trkpt lat="42.6934700" lon="-8.6379000">
        <ele>58.8</ele>
        <time>2022-06-19T07:23:33Z</time>
      </trkpt>
      <trkpt lat="42.6934980" lon="-8.6379050">
        <ele>58.8</ele>
        <time>2022-06-19T07:23:34Z</time>
      </trkpt>
      <trkpt lat="42.6935250" lon="-8.6379200">
        <ele>58.8</ele>
        <time>2022-06-19T07:23:35Z</time>
      </trkpt>
      <trkpt lat="42.6935550" lon="-8.6379350">
        <ele>58.2</ele>
        <time>2022-06-19T07:23:36Z</time>
      </trkpt>
      <trkpt lat="42.6935850" lon="-8.6379500">
        <ele>58.2</ele>
        <time>2022-06-19T07:23:37Z</time>
      </trkpt>
      <trkpt lat="42.6936150" lon="-8.6379650">
        <ele>58.2</ele>
        <time>2022-06-19T07:23:38Z</time>
      </trkpt>
      <trkpt lat="42.6936460" lon="-8.6379780">
        <ele>58.2</ele>
        <time>2022-06-19T07:23:39Z</time>
      </trkpt>
      <trkpt lat="42.6936760" lon="-8.6379930">
        <ele>58.2</ele>
        <time>2022-06-19T07:23:40Z</time>
      </trkpt>
      <trkpt lat="42.6937030" lon="-8.6380080">
        <ele>58.2</ele>
        <time>2022-06-19T07:23:41Z</time>
      </trkpt>
      <trkpt lat="42.6937330" lon="-8.6380210">
        <ele>58.2</ele>
        <time>2022-06-19T07:23:42Z</time>
      </trkpt>
      <trkpt lat="42.6937610" lon="-8.6380360">
        <ele>58.2</ele>
        <time>2022-06-19T07:23:43Z</time>
      </trkpt>
      <trkpt lat="42.6937900" lon="-8.6380480">
        <ele>58.4</ele>
        <time>2022-06-19T07:23:44Z</time>
      </trkpt>
      <trkpt lat="42.6938180" lon="-8.6380600">
        <ele>58.4</ele>
        <time>2022-06-19T07:23:45Z</time>
      </trkpt>
      <trkpt lat="42.6938460" lon="-8.6380700">
        <ele>58.4</ele>
        <time>2022-06-19T07:23:46Z</time>
      </trkpt>
      <trkpt lat="42.6938750" lon="-8.6380810">
        <ele>58.4</ele>
        <time>2022-06-19T07:23:47Z</time>
      </trkpt>
      <trkpt lat="42.6939010" lon="-8.6380950">
        <ele>58.8</ele>
        <time>2022-06-19T07:23:48Z</time>
      </trkpt>
      <trkpt lat="42.6939280" lon="-8.6381060">
        <ele>58.8</ele>
        <time>2022-06-19T07:23:49Z</time>
      </trkpt>
      <trkpt lat="42.6939510" lon="-8.6381200">
        <ele>58.8</ele>
        <time>2022-06-19T07:23:50Z</time>
      </trkpt>
      <trkpt lat="42.6939710" lon="-8.6381310">
        <ele>58.8</ele>
        <time>2022-06-19T07:23:51Z</time>
      </trkpt>
      <trkpt lat="42.6939930" lon="-8.6381380">
        <ele>59.2</ele>
        <time>2022-06-19T07:23:52Z</time>
      </trkpt>
      <trkpt lat="42.6940230" lon="-8.6381410">
        <ele>59.2</ele>
        <time>2022-06-19T07:23:53Z</time>
      </trkpt>
      <trkpt lat="42.6940510" lon="-8.6381480">
        <ele>59.2</ele>
        <time>2022-06-19T07:23:54Z</time>
      </trkpt>
      <trkpt lat="42.6940830" lon="-8.6381560">
        <ele>59.6</ele>
        <time>2022-06-19T07:23:55Z</time>
      </trkpt>
      <trkpt lat="42.6941150" lon="-8.6381560">
        <ele>59.4</ele>
        <time>2022-06-19T07:23:56Z</time>
      </trkpt>
      <trkpt lat="42.6941510" lon="-8.6381550">
        <ele>59.4</ele>
        <time>2022-06-19T07:23:57Z</time>
      </trkpt>
      <trkpt lat="42.6941860" lon="-8.6381600">
        <ele>59.4</ele>
        <time>2022-06-19T07:23:58Z</time>
      </trkpt>
      <trkpt lat="42.6942250" lon="-8.6381680">
        <ele>59.0</ele>
        <time>2022-06-19T07:23:59Z</time>
      </trkpt>
      <trkpt lat="42.6942600" lon="-8.6381800">
        <ele>58.8</ele>
        <time>2022-06-19T07:24:00Z</time>
      </trkpt>
      <trkpt lat="42.6942980" lon="-8.6381910">
        <ele>58.8</ele>
        <time>2022-06-19T07:24:01Z</time>
      </trkpt>
      <trkpt lat="42.6943380" lon="-8.6382030">
        <ele>58.8</ele>
        <time>2022-06-19T07:24:02Z</time>
      </trkpt>
      <trkpt lat="42.6943780" lon="-8.6382100">
        <ele>58.0</ele>
        <time>2022-06-19T07:24:03Z</time>
      </trkpt>
      <trkpt lat="42.6944200" lon="-8.6382210">
        <ele>58.2</ele>
        <time>2022-06-19T07:24:04Z</time>
      </trkpt>
      <trkpt lat="42.6944560" lon="-8.6382330">
        <ele>58.2</ele>
        <time>2022-06-19T07:24:05Z</time>
      </trkpt>
      <trkpt lat="42.6944960" lon="-8.6382360">
        <ele>58.2</ele>
        <time>2022-06-19T07:24:06Z</time>
      </trkpt>
      <trkpt lat="42.6945360" lon="-8.6382350">
        <ele>58.2</ele>
        <time>2022-06-19T07:24:07Z</time>
      </trkpt>
      <trkpt lat="42.6945700" lon="-8.6382360">
        <ele>58.2</ele>
        <time>2022-06-19T07:24:08Z</time>
      </trkpt>
      <trkpt lat="42.6946030" lon="-8.6382330">
        <ele>58.2</ele>
        <time>2022-06-19T07:24:09Z</time>
      </trkpt>
      <trkpt lat="42.6946380" lon="-8.6382250">
        <ele>58.2</ele>
        <time>2022-06-19T07:24:10Z</time>
      </trkpt>
      <trkpt lat="42.6946710" lon="-8.6382160">
        <ele>58.8</ele>
        <time>2022-06-19T07:24:11Z</time>
      </trkpt>
      <trkpt lat="42.6947010" lon="-8.6382110">
        <ele>59.4</ele>
        <time>2022-06-19T07:24:12Z</time>
      </trkpt>
      <trkpt lat="42.6947300" lon="-8.6382100">
        <ele>59.4</ele>
        <time>2022-06-19T07:24:13Z</time>
      </trkpt>
      <trkpt lat="42.6947560" lon="-8.6382100">
        <ele>59.4</ele>
        <time>2022-06-19T07:24:14Z</time>
      </trkpt>
      <trkpt lat="42.6947810" lon="-8.6382130">
        <ele>59.4</ele>
        <time>2022-06-19T07:24:15Z</time>
      </trkpt>
      <trkpt lat="42.6948080" lon="-8.6382130">
        <ele>60.2</ele>
        <time>2022-06-19T07:24:16Z</time>
      </trkpt>
      <trkpt lat="42.6948330" lon="-8.6382150">
        <ele>60.2</ele>
        <time>2022-06-19T07:24:17Z</time>
      </trkpt>
      <trkpt lat="42.6948550" lon="-8.6382130">
        <ele>60.2</ele>
        <time>2022-06-19T07:24:18Z</time>
      </trkpt>
      <trkpt lat="42.6948800" lon="-8.6382130">
        <ele>60.4</ele>
        <time>2022-06-19T07:24:19Z</time>
      </trkpt>
      <trkpt lat="42.6949030" lon="-8.6382130">
        <ele>60.2</ele>
        <time>2022-06-19T07:24:20Z</time>
      </trkpt>
      <trkpt lat="42.6949280" lon="-8.6382130">
        <ele>60.2</ele>
        <time>2022-06-19T07:24:21Z</time>
      </trkpt>
      <trkpt lat="42.6949560" lon="-8.6382150">
        <ele>60.2</ele>
        <time>2022-06-19T07:24:22Z</time>
      </trkpt>
      <trkpt lat="42.6949850" lon="-8.6382180">
        <ele>60.2</ele>
        <time>2022-06-19T07:24:23Z</time>
      </trkpt>
      <trkpt lat="42.6950130" lon="-8.6382230">
        <ele>59.8</ele>
        <time>2022-06-19T07:24:24Z</time>
      </trkpt>
      <trkpt lat="42.6950450" lon="-8.6382250">
        <ele>59.8</ele>
        <time>2022-06-19T07:24:25Z</time>
      </trkpt>
      <trkpt lat="42.6950750" lon="-8.6382300">
        <ele>59.8</ele>
        <time>2022-06-19T07:24:26Z</time>
      </trkpt>
      <trkpt lat="42.6951030" lon="-8.6382360">
        <ele>59.8</ele>
        <time>2022-06-19T07:24:27Z</time>
      </trkpt>
      <trkpt lat="42.6951330" lon="-8.6382400">
        <ele>59.8</ele>
        <time>2022-06-19T07:24:28Z</time>
      </trkpt>
      <trkpt lat="42.6951660" lon="-8.6382430">
        <ele>59.8</ele>
        <time>2022-06-19T07:24:29Z</time>
      </trkpt>
      <trkpt lat="42.6952010" lon="-8.6382450">
        <ele>59.8</ele>
        <time>2022-06-19T07:24:30Z</time>
      </trkpt>
      <trkpt lat="42.6952360" lon="-8.6382460">
        <ele>59.8</ele>
        <time>2022-06-19T07:24:31Z</time>
      </trkpt>
      <trkpt lat="42.6952710" lon="-8.6382460">
        <ele>59.8</ele>
        <time>2022-06-19T07:24:32Z</time>
      </trkpt>
      <trkpt lat="42.6953050" lon="-8.6382500">
        <ele>59.8</ele>
        <time>2022-06-19T07:24:33Z</time>
      </trkpt>
      <trkpt lat="42.6953380" lon="-8.6382530">
        <ele>59.8</ele>
        <time>2022-06-19T07:24:34Z</time>
      </trkpt>
      <trkpt lat="42.6953680" lon="-8.6382560">
        <ele>59.4</ele>
        <time>2022-06-19T07:24:35Z</time>
      </trkpt>
      <trkpt lat="42.6953960" lon="-8.6382650">
        <ele>59.8</ele>
        <time>2022-06-19T07:24:36Z</time>
      </trkpt>
      <trkpt lat="42.6954260" lon="-8.6382680">
        <ele>59.8</ele>
        <time>2022-06-19T07:24:37Z</time>
      </trkpt>
      <trkpt lat="42.6954560" lon="-8.6382710">
        <ele>59.8</ele>
        <time>2022-06-19T07:24:38Z</time>
      </trkpt>
      <trkpt lat="42.6954880" lon="-8.6382750">
        <ele>59.4</ele>
        <time>2022-06-19T07:24:39Z</time>
      </trkpt>
      <trkpt lat="42.6955160" lon="-8.6382780">
        <ele>59.2</ele>
        <time>2022-06-19T07:24:40Z</time>
      </trkpt>
      <trkpt lat="42.6955430" lon="-8.6382830">
        <ele>59.2</ele>
        <time>2022-06-19T07:24:41Z</time>
      </trkpt>
      <trkpt lat="42.6955730" lon="-8.6382860">
        <ele>59.2</ele>
        <time>2022-06-19T07:24:42Z</time>
      </trkpt>
      <trkpt lat="42.6956000" lon="-8.6382910">
        <ele>59.2</ele>
        <time>2022-06-19T07:24:43Z</time>
      </trkpt>
      <trkpt lat="42.6956260" lon="-8.6383000">
        <ele>59.4</ele>
        <time>2022-06-19T07:24:44Z</time>
      </trkpt>
      <trkpt lat="42.6956530" lon="-8.6383110">
        <ele>59.4</ele>
        <time>2022-06-19T07:24:45Z</time>
      </trkpt>
      <trkpt lat="42.6956810" lon="-8.6383210">
        <ele>59.4</ele>
        <time>2022-06-19T07:24:46Z</time>
      </trkpt>
      <trkpt lat="42.6957050" lon="-8.6383330">
        <ele>59.4</ele>
        <time>2022-06-19T07:24:47Z</time>
      </trkpt>
      <trkpt lat="42.6957250" lon="-8.6383460">
        <ele>59.6</ele>
        <time>2022-06-19T07:24:48Z</time>
      </trkpt>
      <trkpt lat="42.6957450" lon="-8.6383700">
        <ele>59.6</ele>
        <time>2022-06-19T07:24:49Z</time>
      </trkpt>
      <trkpt lat="42.6957680" lon="-8.6383950">
        <ele>59.6</ele>
        <time>2022-06-19T07:24:50Z</time>
      </trkpt>
      <trkpt lat="42.6957930" lon="-8.6384130">
        <ele>60.2</ele>
        <time>2022-06-19T07:24:51Z</time>
      </trkpt>
      <trkpt lat="42.6958180" lon="-8.6384260">
        <ele>60.0</ele>
        <time>2022-06-19T07:24:52Z</time>
      </trkpt>
      <trkpt lat="42.6958400" lon="-8.6384430">
        <ele>60.0</ele>
        <time>2022-06-19T07:24:53Z</time>
      </trkpt>
      <trkpt lat="42.6958610" lon="-8.6384630">
        <ele>60.0</ele>
        <time>2022-06-19T07:24:54Z</time>
      </trkpt>
      <trkpt lat="42.6958800" lon="-8.6384900">
        <ele>60.0</ele>
        <time>2022-06-19T07:24:55Z</time>
      </trkpt>
      <trkpt lat="42.6958960" lon="-8.6385180">
        <ele>60.6</ele>
        <time>2022-06-19T07:24:56Z</time>
      </trkpt>
      <trkpt lat="42.6959100" lon="-8.6385450">
        <ele>60.6</ele>
        <time>2022-06-19T07:24:57Z</time>
      </trkpt>
      <trkpt lat="42.6959280" lon="-8.6385650">
        <ele>60.6</ele>
        <time>2022-06-19T07:24:58Z</time>
      </trkpt>
      <trkpt lat="42.6959410" lon="-8.6385860">
        <ele>60.6</ele>
        <time>2022-06-19T07:24:59Z</time>
      </trkpt>
      <trkpt lat="42.6959530" lon="-8.6386080">
        <ele>60.8</ele>
        <time>2022-06-19T07:25:00Z</time>
      </trkpt>
      <trkpt lat="42.6959660" lon="-8.6386300">
        <ele>60.8</ele>
        <time>2022-06-19T07:25:01Z</time>
      </trkpt>
      <trkpt lat="42.6959780" lon="-8.6386560">
        <ele>60.8</ele>
        <time>2022-06-19T07:25:02Z</time>
      </trkpt>
      <trkpt lat="42.6959900" lon="-8.6386800">
        <ele>60.8</ele>
        <time>2022-06-19T07:25:03Z</time>
      </trkpt>
      <trkpt lat="42.6960010" lon="-8.6387030">
        <ele>60.8</ele>
        <time>2022-06-19T07:25:04Z</time>
      </trkpt>
      <trkpt lat="42.6960150" lon="-8.6387210">
        <ele>60.8</ele>
        <time>2022-06-19T07:25:05Z</time>
      </trkpt>
      <trkpt lat="42.6960280" lon="-8.6387430">
        <ele>60.8</ele>
        <time>2022-06-19T07:25:06Z</time>
      </trkpt>
      <trkpt lat="42.6960400" lon="-8.6387680">
        <ele>60.8</ele>
        <time>2022-06-19T07:25:07Z</time>
      </trkpt>
      <trkpt lat="42.6960550" lon="-8.6387900">
        <ele>61.0</ele>
        <time>2022-06-19T07:25:08Z</time>
      </trkpt>
      <trkpt lat="42.6960680" lon="-8.6388100">
        <ele>61.0</ele>
        <time>2022-06-19T07:25:09Z</time>
      </trkpt>
      <trkpt lat="42.6960830" lon="-8.6388330">
        <ele>61.0</ele>
        <time>2022-06-19T07:25:10Z</time>
      </trkpt>
      <trkpt lat="42.6960980" lon="-8.6388550">
        <ele>61.0</ele>
        <time>2022-06-19T07:25:11Z</time>
      </trkpt>
      <trkpt lat="42.6961150" lon="-8.6388730">
        <ele>61.2</ele>
        <time>2022-06-19T07:25:12Z</time>
      </trkpt>
      <trkpt lat="42.6961330" lon="-8.6388910">
        <ele>61.2</ele>
        <time>2022-06-19T07:25:13Z</time>
      </trkpt>
      <trkpt lat="42.6961480" lon="-8.6389110">
        <ele>61.2</ele>
        <time>2022-06-19T07:25:14Z</time>
      </trkpt>
      <trkpt lat="42.6961610" lon="-8.6389280">
        <ele>61.2</ele>
        <time>2022-06-19T07:25:15Z</time>
      </trkpt>
      <trkpt lat="42.6961730" lon="-8.6389500">
        <ele>62.2</ele>
        <time>2022-06-19T07:25:16Z</time>
      </trkpt>
      <trkpt lat="42.6961880" lon="-8.6389700">
        <ele>62.2</ele>
        <time>2022-06-19T07:25:17Z</time>
      </trkpt>
      <trkpt lat="42.6962030" lon="-8.6389850">
        <ele>62.2</ele>
        <time>2022-06-19T07:25:18Z</time>
      </trkpt>
      <trkpt lat="42.6962180" lon="-8.6390030">
        <ele>62.2</ele>
        <time>2022-06-19T07:25:19Z</time>
      </trkpt>
      <trkpt lat="42.6962350" lon="-8.6390230">
        <ele>62.2</ele>
        <time>2022-06-19T07:25:20Z</time>
      </trkpt>
      <trkpt lat="42.6962500" lon="-8.6390410">
        <ele>62.2</ele>
        <time>2022-06-19T07:25:21Z</time>
      </trkpt>
      <trkpt lat="42.6962680" lon="-8.6390560">
        <ele>62.2</ele>
        <time>2022-06-19T07:25:22Z</time>
      </trkpt>
      <trkpt lat="42.6962880" lon="-8.6390710">
        <ele>63.0</ele>
        <time>2022-06-19T07:25:23Z</time>
      </trkpt>
      <trkpt lat="42.6963080" lon="-8.6390830">
        <ele>62.6</ele>
        <time>2022-06-19T07:25:24Z</time>
      </trkpt>
      <trkpt lat="42.6963260" lon="-8.6391000">
        <ele>62.6</ele>
        <time>2022-06-19T07:25:25Z</time>
      </trkpt>
      <trkpt lat="42.6963400" lon="-8.6391150">
        <ele>62.6</ele>
        <time>2022-06-19T07:25:26Z</time>
      </trkpt>
      <trkpt lat="42.6963550" lon="-8.6391300">
        <ele>63.2</ele>
        <time>2022-06-19T07:25:27Z</time>
      </trkpt>
      <trkpt lat="42.6963710" lon="-8.6391430">
        <ele>63.4</ele>
        <time>2022-06-19T07:25:28Z</time>
      </trkpt>
      <trkpt lat="42.6963850" lon="-8.6391650">
        <ele>63.4</ele>
        <time>2022-06-19T07:25:29Z</time>
      </trkpt>
      <trkpt lat="42.6963950" lon="-8.6391810">
        <ele>63.4</ele>
        <time>2022-06-19T07:25:30Z</time>
      </trkpt>
      <trkpt lat="42.6964060" lon="-8.6391950">
        <ele>63.8</ele>
        <time>2022-06-19T07:25:31Z</time>
      </trkpt>
      <trkpt lat="42.6964200" lon="-8.6392060">
        <ele>64.2</ele>
        <time>2022-06-19T07:25:32Z</time>
      </trkpt>
      <trkpt lat="42.6964360" lon="-8.6392160">
        <ele>64.2</ele>
        <time>2022-06-19T07:25:33Z</time>
      </trkpt>
      <trkpt lat="42.6964510" lon="-8.6392280">
        <ele>64.2</ele>
        <time>2022-06-19T07:25:34Z</time>
      </trkpt>
      <trkpt lat="42.6964650" lon="-8.6392450">
        <ele>64.2</ele>
        <time>2022-06-19T07:25:35Z</time>
      </trkpt>
      <trkpt lat="42.6964800" lon="-8.6392600">
        <ele>64.6</ele>
        <time>2022-06-19T07:25:36Z</time>
      </trkpt>
      <trkpt lat="42.6964930" lon="-8.6392650">
        <ele>64.6</ele>
        <time>2022-06-19T07:25:37Z</time>
      </trkpt>
      <trkpt lat="42.6965060" lon="-8.6392730">
        <ele>64.6</ele>
        <time>2022-06-19T07:25:38Z</time>
      </trkpt>
      <trkpt lat="42.6965230" lon="-8.6392850">
        <ele>64.6</ele>
        <time>2022-06-19T07:25:39Z</time>
      </trkpt>
      <trkpt lat="42.6965350" lon="-8.6392930">
        <ele>65.0</ele>
        <time>2022-06-19T07:25:40Z</time>
      </trkpt>
      <trkpt lat="42.6965450" lon="-8.6393030">
        <ele>65.0</ele>
        <time>2022-06-19T07:25:41Z</time>
      </trkpt>
      <trkpt lat="42.6965530" lon="-8.6393130">
        <ele>65.0</ele>
        <time>2022-06-19T07:25:42Z</time>
      </trkpt>
      <trkpt lat="42.6965660" lon="-8.6393250">
        <ele>65.6</ele>
        <time>2022-06-19T07:25:43Z</time>
      </trkpt>
      <trkpt lat="42.6965760" lon="-8.6393410">
        <ele>65.6</ele>
        <time>2022-06-19T07:25:44Z</time>
      </trkpt>
      <trkpt lat="42.6965880" lon="-8.6393580">
        <ele>65.6</ele>
        <time>2022-06-19T07:25:45Z</time>
      </trkpt>
      <trkpt lat="42.6965960" lon="-8.6393780">
        <ele>65.6</ele>
        <time>2022-06-19T07:25:46Z</time>
      </trkpt>
      <trkpt lat="42.6966030" lon="-8.6393980">
        <ele>66.0</ele>
        <time>2022-06-19T07:25:47Z</time>
      </trkpt>
      <trkpt lat="42.6966080" lon="-8.6394260">
        <ele>66.2</ele>
        <time>2022-06-19T07:25:48Z</time>
      </trkpt>
      <trkpt lat="42.6966130" lon="-8.6394650">
        <ele>66.2</ele>
        <time>2022-06-19T07:25:49Z</time>
      </trkpt>
      <trkpt lat="42.6966080" lon="-8.6395150">
        <ele>66.2</ele>
        <time>2022-06-19T07:25:50Z</time>
      </trkpt>
      <trkpt lat="42.6965930" lon="-8.6395650">
        <ele>65.2</ele>
        <time>2022-06-19T07:25:51Z</time>
      </trkpt>
      <trkpt lat="42.6965800" lon="-8.6396080">
        <ele>63.6</ele>
        <time>2022-06-19T07:25:52Z</time>
      </trkpt>
      <trkpt lat="42.6965650" lon="-8.6396560">
        <ele>63.6</ele>
        <time>2022-06-19T07:25:53Z</time>
      </trkpt>
      <trkpt lat="42.6965500" lon="-8.6397130">
        <ele>63.6</ele>
        <time>2022-06-19T07:25:54Z</time>
      </trkpt>
      <trkpt lat="42.6965360" lon="-8.6397660">
        <ele>64.0</ele>
        <time>2022-06-19T07:25:55Z</time>
      </trkpt>
      <trkpt lat="42.6965230" lon="-8.6398160">
        <ele>63.4</ele>
        <time>2022-06-19T07:25:56Z</time>
      </trkpt>
      <trkpt lat="42.6965200" lon="-8.6398630">
        <ele>63.4</ele>
        <time>2022-06-19T07:25:57Z</time>
      </trkpt>
      <trkpt lat="42.6965250" lon="-8.6399110">
        <ele>63.4</ele>
        <time>2022-06-19T07:25:58Z</time>
      </trkpt>
      <trkpt lat="42.6965410" lon="-8.6399630">
        <ele>63.4</ele>
        <time>2022-06-19T07:25:59Z</time>
      </trkpt>
      <trkpt lat="42.6965580" lon="-8.6400280">
        <ele>61.4</ele>
        <time>2022-06-19T07:26:00Z</time>
      </trkpt>
      <trkpt lat="42.6965780" lon="-8.6401060">
        <ele>61.4</ele>
        <time>2022-06-19T07:26:01Z</time>
      </trkpt>
      <trkpt lat="42.6966080" lon="-8.6401900">
        <ele>61.4</ele>
        <time>2022-06-19T07:26:02Z</time>
      </trkpt>
      <trkpt lat="42.6966450" lon="-8.6402700">
        <ele>60.4</ele>
        <time>2022-06-19T07:26:03Z</time>
      </trkpt>
      <trkpt lat="42.6966900" lon="-8.6403530">
        <ele>59.2</ele>
        <time>2022-06-19T07:26:04Z</time>
      </trkpt>
      <trkpt lat="42.6967380" lon="-8.6404310">
        <ele>59.2</ele>
        <time>2022-06-19T07:26:05Z</time>
      </trkpt>
      <trkpt lat="42.6967980" lon="-8.6405050">
        <ele>59.2</ele>
        <time>2022-06-19T07:26:06Z</time>
      </trkpt>
      <trkpt lat="42.6968630" lon="-8.6405610">
        <ele>58.2</ele>
        <time>2022-06-19T07:26:07Z</time>
      </trkpt>
      <trkpt lat="42.6969310" lon="-8.6406080">
        <ele>57.0</ele>
        <time>2022-06-19T07:26:08Z</time>
      </trkpt>
      <trkpt lat="42.6969960" lon="-8.6406560">
        <ele>57.0</ele>
        <time>2022-06-19T07:26:09Z</time>
      </trkpt>
      <trkpt lat="42.6970600" lon="-8.6407010">
        <ele>57.0</ele>
        <time>2022-06-19T07:26:10Z</time>
      </trkpt>
      <trkpt lat="42.6971230" lon="-8.6407430">
        <ele>56.6</ele>
        <time>2022-06-19T07:26:11Z</time>
      </trkpt>
      <trkpt lat="42.6971800" lon="-8.6407760">
        <ele>56.0</ele>
        <time>2022-06-19T07:26:12Z</time>
      </trkpt>
      <trkpt lat="42.6972330" lon="-8.6408000">
        <ele>56.0</ele>
        <time>2022-06-19T07:26:13Z</time>
      </trkpt>
      <trkpt lat="42.6972800" lon="-8.6408200">
        <ele>56.0</ele>
        <time>2022-06-19T07:26:14Z</time>
      </trkpt>
      <trkpt lat="42.6973200" lon="-8.6408350">
        <ele>57.0</ele>
        <time>2022-06-19T07:26:15Z</time>
      </trkpt>
      <trkpt lat="42.6973550" lon="-8.6408480">
        <ele>58.8</ele>
        <time>2022-06-19T07:26:16Z</time>
      </trkpt>
      <trkpt lat="42.6973850" lon="-8.6408610">
        <ele>58.8</ele>
        <time>2022-06-19T07:26:17Z</time>
      </trkpt>
      <trkpt lat="42.6974100" lon="-8.6408750">
        <ele>58.8</ele>
        <time>2022-06-19T07:26:18Z</time>
      </trkpt>
      <trkpt lat="42.6974380" lon="-8.6408810">
        <ele>59.8</ele>
        <time>2022-06-19T07:26:19Z</time>
      </trkpt>
      <trkpt lat="42.6974650" lon="-8.6408900">
        <ele>60.2</ele>
        <time>2022-06-19T07:26:20Z</time>
      </trkpt>
      <trkpt lat="42.6974910" lon="-8.6409030">
        <ele>60.2</ele>
        <time>2022-06-19T07:26:21Z</time>
      </trkpt>
      <trkpt lat="42.6975200" lon="-8.6409130">
        <ele>60.2</ele>
        <time>2022-06-19T07:26:22Z</time>
      </trkpt>
      <trkpt lat="42.6975410" lon="-8.6409200">
        <ele>61.2</ele>
        <time>2022-06-19T07:26:23Z</time>
      </trkpt>
      <trkpt lat="42.6975610" lon="-8.6409250">
        <ele>62.0</ele>
        <time>2022-06-19T07:26:24Z</time>
      </trkpt>
      <trkpt lat="42.6975800" lon="-8.6409330">
        <ele>62.0</ele>
        <time>2022-06-19T07:26:25Z</time>
      </trkpt>
      <trkpt lat="42.6976030" lon="-8.6409330">
        <ele>62.0</ele>
        <time>2022-06-19T07:26:26Z</time>
      </trkpt>
      <trkpt lat="42.6976280" lon="-8.6409300">
        <ele>62.8</ele>
        <time>2022-06-19T07:26:27Z</time>
      </trkpt>
      <trkpt lat="42.6976500" lon="-8.6409300">
        <ele>63.0</ele>
        <time>2022-06-19T07:26:28Z</time>
      </trkpt>
      <trkpt lat="42.6976710" lon="-8.6409330">
        <ele>63.0</ele>
        <time>2022-06-19T07:26:29Z</time>
      </trkpt>
      <trkpt lat="42.6976910" lon="-8.6409360">
        <ele>63.0</ele>
        <time>2022-06-19T07:26:30Z</time>
      </trkpt>
      <trkpt lat="42.6977130" lon="-8.6409380">
        <ele>63.2</ele>
        <time>2022-06-19T07:26:31Z</time>
      </trkpt>
      <trkpt lat="42.6977330" lon="-8.6409380">
        <ele>63.6</ele>
        <time>2022-06-19T07:26:32Z</time>
      </trkpt>
      <trkpt lat="42.6977500" lon="-8.6409410">
        <ele>63.6</ele>
        <time>2022-06-19T07:26:33Z</time>
      </trkpt>
      <trkpt lat="42.6977680" lon="-8.6409380">
        <ele>63.6</ele>
        <time>2022-06-19T07:26:34Z</time>
      </trkpt>
      <trkpt lat="42.6977860" lon="-8.6409410">
        <ele>63.6</ele>
        <time>2022-06-19T07:26:35Z</time>
      </trkpt>
      <trkpt lat="42.6978030" lon="-8.6409430">
        <ele>64.2</ele>
        <time>2022-06-19T07:26:36Z</time>
      </trkpt>
      <trkpt lat="42.6978200" lon="-8.6409460">
        <ele>64.2</ele>
        <time>2022-06-19T07:26:37Z</time>
      </trkpt>
      <trkpt lat="42.6978410" lon="-8.6409430">
        <ele>64.2</ele>
        <time>2022-06-19T07:26:38Z</time>
      </trkpt>
      <trkpt lat="42.6978630" lon="-8.6409430">
        <ele>64.2</ele>
        <time>2022-06-19T07:26:39Z</time>
      </trkpt>
      <trkpt lat="42.6978850" lon="-8.6409380">
        <ele>64.4</ele>
        <time>2022-06-19T07:26:40Z</time>
      </trkpt>
      <trkpt lat="42.6979060" lon="-8.6409480">
        <ele>64.4</ele>
        <time>2022-06-19T07:26:41Z</time>
      </trkpt>
      <trkpt lat="42.6979160" lon="-8.6409530">
        <ele>64.4</ele>
        <time>2022-06-19T07:26:42Z</time>
      </trkpt>
      <trkpt lat="42.6979330" lon="-8.6409600">
        <ele>64.4</ele>
        <time>2022-06-19T07:26:43Z</time>
      </trkpt>
      <trkpt lat="42.6979530" lon="-8.6409580">
        <ele>64.2</ele>
        <time>2022-06-19T07:26:44Z</time>
      </trkpt>
      <trkpt lat="42.6979760" lon="-8.6409560">
        <ele>64.2</ele>
        <time>2022-06-19T07:26:45Z</time>
      </trkpt>
      <trkpt lat="42.6979960" lon="-8.6409600">
        <ele>64.2</ele>
        <time>2022-06-19T07:26:46Z</time>
      </trkpt>
      <trkpt lat="42.6980230" lon="-8.6409550">
        <ele>64.4</ele>
        <time>2022-06-19T07:26:47Z</time>
      </trkpt>
      <trkpt lat="42.6980430" lon="-8.6409630">
        <ele>64.4</ele>
        <time>2022-06-19T07:26:48Z</time>
      </trkpt>
      <trkpt lat="42.6980630" lon="-8.6409650">
        <ele>64.4</ele>
        <time>2022-06-19T07:26:49Z</time>
      </trkpt>
      <trkpt lat="42.6980880" lon="-8.6409630">
        <ele>64.4</ele>
        <time>2022-06-19T07:26:50Z</time>
      </trkpt>
      <trkpt lat="42.6981110" lon="-8.6409660">
        <ele>64.4</ele>
        <time>2022-06-19T07:26:51Z</time>
      </trkpt>
      <trkpt lat="42.6981310" lon="-8.6409730">
        <ele>65.0</ele>
        <time>2022-06-19T07:26:52Z</time>
      </trkpt>
      <trkpt lat="42.6981550" lon="-8.6409800">
        <ele>65.0</ele>
        <time>2022-06-19T07:26:53Z</time>
      </trkpt>
      <trkpt lat="42.6981750" lon="-8.6409830">
        <ele>65.0</ele>
        <time>2022-06-19T07:26:54Z</time>
      </trkpt>
      <trkpt lat="42.6981960" lon="-8.6409880">
        <ele>65.0</ele>
        <time>2022-06-19T07:26:55Z</time>
      </trkpt>
      <trkpt lat="42.6982230" lon="-8.6409900">
        <ele>64.6</ele>
        <time>2022-06-19T07:26:56Z</time>
      </trkpt>
      <trkpt lat="42.6982460" lon="-8.6409950">
        <ele>64.6</ele>
        <time>2022-06-19T07:26:57Z</time>
      </trkpt>
      <trkpt lat="42.6982650" lon="-8.6409980">
        <ele>64.6</ele>
        <time>2022-06-19T07:26:58Z</time>
      </trkpt>
      <trkpt lat="42.6982860" lon="-8.6409930">
        <ele>65.2</ele>
        <time>2022-06-19T07:26:59Z</time>
      </trkpt>
      <trkpt lat="42.6983080" lon="-8.6409980">
        <ele>65.0</ele>
        <time>2022-06-19T07:27:00Z</time>
      </trkpt>
      <trkpt lat="42.6983330" lon="-8.6410030">
        <ele>65.0</ele>
        <time>2022-06-19T07:27:01Z</time>
      </trkpt>
      <trkpt lat="42.6983550" lon="-8.6409980">
        <ele>65.0</ele>
        <time>2022-06-19T07:27:02Z</time>
      </trkpt>
      <trkpt lat="42.6983780" lon="-8.6409910">
        <ele>65.0</ele>
        <time>2022-06-19T07:27:03Z</time>
      </trkpt>
      <trkpt lat="42.6984030" lon="-8.6409850">
        <ele>65.2</ele>
        <time>2022-06-19T07:27:04Z</time>
      </trkpt>
      <trkpt lat="42.6984300" lon="-8.6409780">
        <ele>65.2</ele>
        <time>2022-06-19T07:27:05Z</time>
      </trkpt>
      <trkpt lat="42.6984580" lon="-8.6409700">
        <ele>65.2</ele>
        <time>2022-06-19T07:27:06Z</time>
      </trkpt>
      <trkpt lat="42.6984860" lon="-8.6409560">
        <ele>65.2</ele>
        <time>2022-06-19T07:27:07Z</time>
      </trkpt>
      <trkpt lat="42.6985110" lon="-8.6409500">
        <ele>65.6</ele>
        <time>2022-06-19T07:27:08Z</time>
      </trkpt>
      <trkpt lat="42.6985360" lon="-8.6409360">
        <ele>65.6</ele>
        <time>2022-06-19T07:27:09Z</time>
      </trkpt>
      <trkpt lat="42.6985580" lon="-8.6409280">
        <ele>65.6</ele>
        <time>2022-06-19T07:27:10Z</time>
      </trkpt>
      <trkpt lat="42.6985810" lon="-8.6409180">
        <ele>65.6</ele>
        <time>2022-06-19T07:27:11Z</time>
      </trkpt>
      <trkpt lat="42.6986010" lon="-8.6409050">
        <ele>65.2</ele>
        <time>2022-06-19T07:27:12Z</time>
      </trkpt>
      <trkpt lat="42.6986210" lon="-8.6408930">
        <ele>65.2</ele>
        <time>2022-06-19T07:27:13Z</time>
      </trkpt>
      <trkpt lat="42.6986430" lon="-8.6408830">
        <ele>65.2</ele>
        <time>2022-06-19T07:27:14Z</time>
      </trkpt>
      <trkpt lat="42.6986610" lon="-8.6408710">
        <ele>66.0</ele>
        <time>2022-06-19T07:27:15Z</time>
      </trkpt>
      <trkpt lat="42.6986780" lon="-8.6408680">
        <ele>66.0</ele>
        <time>2022-06-19T07:27:16Z</time>
      </trkpt>
      <trkpt lat="42.6986960" lon="-8.6408560">
        <ele>66.0</ele>
        <time>2022-06-19T07:27:17Z</time>
      </trkpt>
      <trkpt lat="42.6987180" lon="-8.6408460">
        <ele>66.0</ele>
        <time>2022-06-19T07:27:18Z</time>
      </trkpt>
      <trkpt lat="42.6987360" lon="-8.6408380">
        <ele>66.0</ele>
        <time>2022-06-19T07:27:19Z</time>
      </trkpt>
      <trkpt lat="42.6987580" lon="-8.6408300">
        <ele>66.6</ele>
        <time>2022-06-19T07:27:20Z</time>
      </trkpt>
      <trkpt lat="42.6987800" lon="-8.6408180">
        <ele>66.6</ele>
        <time>2022-06-19T07:27:21Z</time>
      </trkpt>
      <trkpt lat="42.6988050" lon="-8.6408010">
        <ele>66.6</ele>
        <time>2022-06-19T07:27:22Z</time>
      </trkpt>
      <trkpt lat="42.6988210" lon="-8.6407960">
        <ele>66.4</ele>
        <time>2022-06-19T07:27:23Z</time>
      </trkpt>
      <trkpt lat="42.6988360" lon="-8.6407880">
        <ele>66.6</ele>
        <time>2022-06-19T07:27:24Z</time>
      </trkpt>
      <trkpt lat="42.6988500" lon="-8.6407780">
        <ele>66.6</ele>
        <time>2022-06-19T07:27:25Z</time>
      </trkpt>
      <trkpt lat="42.6988710" lon="-8.6407610">
        <ele>66.6</ele>
        <time>2022-06-19T07:27:26Z</time>
      </trkpt>
      <trkpt lat="42.6988950" lon="-8.6407450">
        <ele>66.6</ele>
        <time>2022-06-19T07:27:27Z</time>
      </trkpt>
      <trkpt lat="42.6989180" lon="-8.6407330">
        <ele>66.6</ele>
        <time>2022-06-19T07:27:28Z</time>
      </trkpt>
      <trkpt lat="42.6989400" lon="-8.6407160">
        <ele>66.6</ele>
        <time>2022-06-19T07:27:29Z</time>
      </trkpt>
      <trkpt lat="42.6989600" lon="-8.6406950">
        <ele>66.6</ele>
        <time>2022-06-19T07:27:30Z</time>
      </trkpt>
      <trkpt lat="42.6989780" lon="-8.6406810">
        <ele>66.6</ele>
        <time>2022-06-19T07:27:31Z</time>
      </trkpt>
      <trkpt lat="42.6989980" lon="-8.6406630">
        <ele>66.4</ele>
        <time>2022-06-19T07:27:32Z</time>
      </trkpt>
      <trkpt lat="42.6990210" lon="-8.6406450">
        <ele>66.4</ele>
        <time>2022-06-19T07:27:33Z</time>
      </trkpt>
      <trkpt lat="42.6990460" lon="-8.6406280">
        <ele>66.4</ele>
        <time>2022-06-19T07:27:34Z</time>
      </trkpt>
      <trkpt lat="42.6990750" lon="-8.6406100">
        <ele>67.2</ele>
        <time>2022-06-19T07:27:35Z</time>
      </trkpt>
      <trkpt lat="42.6990960" lon="-8.6405880">
        <ele>66.8</ele>
        <time>2022-06-19T07:27:36Z</time>
      </trkpt>
      <trkpt lat="42.6991150" lon="-8.6405650">
        <ele>66.8</ele>
        <time>2022-06-19T07:27:37Z</time>
      </trkpt>
      <trkpt lat="42.6991380" lon="-8.6405350">
        <ele>66.8</ele>
        <time>2022-06-19T07:27:38Z</time>
      </trkpt>
      <trkpt lat="42.6991580" lon="-8.6405080">
        <ele>66.8</ele>
        <time>2022-06-19T07:27:39Z</time>
      </trkpt>
      <trkpt lat="42.6991760" lon="-8.6404850">
        <ele>66.8</ele>
        <time>2022-06-19T07:27:40Z</time>
      </trkpt>
      <trkpt lat="42.6991980" lon="-8.6404580">
        <ele>66.8</ele>
        <time>2022-06-19T07:27:41Z</time>
      </trkpt>
      <trkpt lat="42.6992180" lon="-8.6404350">
        <ele>66.8</ele>
        <time>2022-06-19T07:27:42Z</time>
      </trkpt>
      <trkpt lat="42.6992380" lon="-8.6404080">
        <ele>67.0</ele>
        <time>2022-06-19T07:27:43Z</time>
      </trkpt>
      <trkpt lat="42.6992600" lon="-8.6403830">
        <ele>67.2</ele>
        <time>2022-06-19T07:27:44Z</time>
      </trkpt>
      <trkpt lat="42.6992780" lon="-8.6403560">
        <ele>67.2</ele>
        <time>2022-06-19T07:27:45Z</time>
      </trkpt>
      <trkpt lat="42.6992950" lon="-8.6403300">
        <ele>67.2</ele>
        <time>2022-06-19T07:27:46Z</time>
      </trkpt>
      <trkpt lat="42.6993110" lon="-8.6402980">
        <ele>67.2</ele>
        <time>2022-06-19T07:27:47Z</time>
      </trkpt>
      <trkpt lat="42.6993250" lon="-8.6402630">
        <ele>67.0</ele>
        <time>2022-06-19T07:27:48Z</time>
      </trkpt>
      <trkpt lat="42.6993380" lon="-8.6402330">
        <ele>67.0</ele>
        <time>2022-06-19T07:27:49Z</time>
      </trkpt>
      <trkpt lat="42.6993510" lon="-8.6402010">
        <ele>67.0</ele>
        <time>2022-06-19T07:27:50Z</time>
      </trkpt>
      <trkpt lat="42.6993630" lon="-8.6401660">
        <ele>67.0</ele>
        <time>2022-06-19T07:27:51Z</time>
      </trkpt>
      <trkpt lat="42.6993780" lon="-8.6401330">
        <ele>66.8</ele>
        <time>2022-06-19T07:27:52Z</time>
      </trkpt>
      <trkpt lat="42.6993980" lon="-8.6401050">
        <ele>66.8</ele>
        <time>2022-06-19T07:27:53Z</time>
      </trkpt>
      <trkpt lat="42.6994230" lon="-8.6400850">
        <ele>66.8</ele>
        <time>2022-06-19T07:27:54Z</time>
      </trkpt>
      <trkpt lat="42.6994510" lon="-8.6400750">
        <ele>67.2</ele>
        <time>2022-06-19T07:27:55Z</time>
      </trkpt>
      <trkpt lat="42.6994800" lon="-8.6400730">
        <ele>67.4</ele>
        <time>2022-06-19T07:27:56Z</time>
      </trkpt>
      <trkpt lat="42.6995060" lon="-8.6400810">
        <ele>67.4</ele>
        <time>2022-06-19T07:27:57Z</time>
      </trkpt>
      <trkpt lat="42.6995350" lon="-8.6400900">
        <ele>67.4</ele>
        <time>2022-06-19T07:27:58Z</time>
      </trkpt>
      <trkpt lat="42.6995630" lon="-8.6400960">
        <ele>67.8</ele>
        <time>2022-06-19T07:27:59Z</time>
      </trkpt>
      <trkpt lat="42.6995910" lon="-8.6401000">
        <ele>68.2</ele>
        <time>2022-06-19T07:28:00Z</time>
      </trkpt>
      <trkpt lat="42.6996180" lon="-8.6401080">
        <ele>68.2</ele>
        <time>2022-06-19T07:28:01Z</time>
      </trkpt>
      <trkpt lat="42.6996450" lon="-8.6401160">
        <ele>68.2</ele>
        <time>2022-06-19T07:28:02Z</time>
      </trkpt>
      <trkpt lat="42.6996760" lon="-8.6401250">
        <ele>68.2</ele>
        <time>2022-06-19T07:28:03Z</time>
      </trkpt>
      <trkpt lat="42.6997060" lon="-8.6401310">
        <ele>68.4</ele>
        <time>2022-06-19T07:28:04Z</time>
      </trkpt>
      <trkpt lat="42.6997350" lon="-8.6401380">
        <ele>68.4</ele>
        <time>2022-06-19T07:28:05Z</time>
      </trkpt>
      <trkpt lat="42.6997630" lon="-8.6401500">
        <ele>68.4</ele>
        <time>2022-06-19T07:28:06Z</time>
      </trkpt>
      <trkpt lat="42.6997930" lon="-8.6401630">
        <ele>68.4</ele>
        <time>2022-06-19T07:28:07Z</time>
      </trkpt>
      <trkpt lat="42.6998230" lon="-8.6401750">
        <ele>68.2</ele>
        <time>2022-06-19T07:28:08Z</time>
      </trkpt>
      <trkpt lat="42.6998560" lon="-8.6401800">
        <ele>68.2</ele>
        <time>2022-06-19T07:28:09Z</time>
      </trkpt>
      <trkpt lat="42.6998910" lon="-8.6401830">
        <ele>68.2</ele>
        <time>2022-06-19T07:28:10Z</time>
      </trkpt>
      <trkpt lat="42.6999230" lon="-8.6401800">
        <ele>68.0</ele>
        <time>2022-06-19T07:28:11Z</time>
      </trkpt>
      <trkpt lat="42.6999550" lon="-8.6401760">
        <ele>67.8</ele>
        <time>2022-06-19T07:28:12Z</time>
      </trkpt>
      <trkpt lat="42.6999860" lon="-8.6401680">
        <ele>67.8</ele>
        <time>2022-06-19T07:28:13Z</time>
      </trkpt>
      <trkpt lat="42.7000160" lon="-8.6401560">
        <ele>67.8</ele>
        <time>2022-06-19T07:28:14Z</time>
      </trkpt>
      <trkpt lat="42.7000450" lon="-8.6401410">
        <ele>68.4</ele>
        <time>2022-06-19T07:28:15Z</time>
      </trkpt>
      <trkpt lat="42.7000700" lon="-8.6401310">
        <ele>68.4</ele>
        <time>2022-06-19T07:28:16Z</time>
      </trkpt>
      <trkpt lat="42.7000950" lon="-8.6401260">
        <ele>68.4</ele>
        <time>2022-06-19T07:28:17Z</time>
      </trkpt>
      <trkpt lat="42.7001200" lon="-8.6401250">
        <ele>68.4</ele>
        <time>2022-06-19T07:28:18Z</time>
      </trkpt>
      <trkpt lat="42.7001460" lon="-8.6401250">
        <ele>69.0</ele>
        <time>2022-06-19T07:28:19Z</time>
      </trkpt>
      <trkpt lat="42.7001750" lon="-8.6401260">
        <ele>69.4</ele>
        <time>2022-06-19T07:28:20Z</time>
      </trkpt>
      <trkpt lat="42.7002010" lon="-8.6401330">
        <ele>69.4</ele>
        <time>2022-06-19T07:28:21Z</time>
      </trkpt>
      <trkpt lat="42.7002260" lon="-8.6401350">
        <ele>69.4</ele>
        <time>2022-06-19T07:28:22Z</time>
      </trkpt>
      <trkpt lat="42.7002550" lon="-8.6401380">
        <ele>69.4</ele>
        <time>2022-06-19T07:28:23Z</time>
      </trkpt>
      <trkpt lat="42.7002810" lon="-8.6401430">
        <ele>69.6</ele>
        <time>2022-06-19T07:28:24Z</time>
      </trkpt>
      <trkpt lat="42.7003080" lon="-8.6401450">
        <ele>69.6</ele>
        <time>2022-06-19T07:28:25Z</time>
      </trkpt>
      <trkpt lat="42.7003350" lon="-8.6401480">
        <ele>69.6</ele>
        <time>2022-06-19T07:28:26Z</time>
      </trkpt>
      <trkpt lat="42.7003610" lon="-8.6401530">
        <ele>70.0</ele>
        <time>2022-06-19T07:28:27Z</time>
      </trkpt>
      <trkpt lat="42.7003850" lon="-8.6401550">
        <ele>69.6</ele>
        <time>2022-06-19T07:28:28Z</time>
      </trkpt>
      <trkpt lat="42.7004110" lon="-8.6401560">
        <ele>69.6</ele>
        <time>2022-06-19T07:28:29Z</time>
      </trkpt>
      <trkpt lat="42.7004360" lon="-8.6401560">
        <ele>69.6</ele>
        <time>2022-06-19T07:28:30Z</time>
      </trkpt>
      <trkpt lat="42.7004680" lon="-8.6401550">
        <ele>70.0</ele>
        <time>2022-06-19T07:28:31Z</time>
      </trkpt>
      <trkpt lat="42.7005010" lon="-8.6401560">
        <ele>70.0</ele>
        <time>2022-06-19T07:28:32Z</time>
      </trkpt>
      <trkpt lat="42.7005360" lon="-8.6401580">
        <ele>70.0</ele>
        <time>2022-06-19T07:28:33Z</time>
      </trkpt>
      <trkpt lat="42.7005710" lon="-8.6401560">
        <ele>70.0</ele>
        <time>2022-06-19T07:28:34Z</time>
      </trkpt>
      <trkpt lat="42.7006080" lon="-8.6401530">
        <ele>69.0</ele>
        <time>2022-06-19T07:28:35Z</time>
      </trkpt>
      <trkpt lat="42.7006450" lon="-8.6401450">
        <ele>69.4</ele>
        <time>2022-06-19T07:28:36Z</time>
      </trkpt>
      <trkpt lat="42.7006810" lon="-8.6401350">
        <ele>69.4</ele>
        <time>2022-06-19T07:28:37Z</time>
      </trkpt>
      <trkpt lat="42.7007180" lon="-8.6401230">
        <ele>69.4</ele>
        <time>2022-06-19T07:28:38Z</time>
      </trkpt>
      <trkpt lat="42.7007560" lon="-8.6401100">
        <ele>68.8</ele>
        <time>2022-06-19T07:28:39Z</time>
      </trkpt>
      <trkpt lat="42.7007960" lon="-8.6400960">
        <ele>68.6</ele>
        <time>2022-06-19T07:28:40Z</time>
      </trkpt>
      <trkpt lat="42.7008360" lon="-8.6400850">
        <ele>68.6</ele>
        <time>2022-06-19T07:28:41Z</time>
      </trkpt>
      <trkpt lat="42.7008800" lon="-8.6400730">
        <ele>68.6</ele>
        <time>2022-06-19T07:28:42Z</time>
      </trkpt>
      <trkpt lat="42.7009250" lon="-8.6400610">
        <ele>68.6</ele>
        <time>2022-06-19T07:28:43Z</time>
      </trkpt>
      <trkpt lat="42.7009730" lon="-8.6400500">
        <ele>66.8</ele>
        <time>2022-06-19T07:28:44Z</time>
      </trkpt>
      <trkpt lat="42.7010260" lon="-8.6400510">
        <ele>66.8</ele>
        <time>2022-06-19T07:28:45Z</time>
      </trkpt>
      <trkpt lat="42.7010810" lon="-8.6400660">
        <ele>66.8</ele>
        <time>2022-06-19T07:28:46Z</time>
      </trkpt>
      <trkpt lat="42.7011400" lon="-8.6400980">
        <ele>66.8</ele>
        <time>2022-06-19T07:28:47Z</time>
      </trkpt>
      <trkpt lat="42.7011980" lon="-8.6401460">
        <ele>64.8</ele>
        <time>2022-06-19T07:28:48Z</time>
      </trkpt>
      <trkpt lat="42.7012580" lon="-8.6402000">
        <ele>64.8</ele>
        <time>2022-06-19T07:28:49Z</time>
      </trkpt>
      <trkpt lat="42.7013110" lon="-8.6402610">
        <ele>64.8</ele>
        <time>2022-06-19T07:28:50Z</time>
      </trkpt>
      <trkpt lat="42.7013500" lon="-8.6403380">
        <ele>63.8</ele>
        <time>2022-06-19T07:28:51Z</time>
      </trkpt>
      <trkpt lat="42.7013700" lon="-8.6404260">
        <ele>63.2</ele>
        <time>2022-06-19T07:28:52Z</time>
      </trkpt>
      <trkpt lat="42.7013760" lon="-8.6405110">
        <ele>63.2</ele>
        <time>2022-06-19T07:28:53Z</time>
      </trkpt>
      <trkpt lat="42.7013810" lon="-8.6405930">
        <ele>63.2</ele>
        <time>2022-06-19T07:28:54Z</time>
      </trkpt>
      <trkpt lat="42.7014000" lon="-8.6406630">
        <ele>63.2</ele>
        <time>2022-06-19T07:28:55Z</time>
      </trkpt>
      <trkpt lat="42.7014280" lon="-8.6407250">
        <ele>64.2</ele>
        <time>2022-06-19T07:28:56Z</time>
      </trkpt>
      <trkpt lat="42.7014610" lon="-8.6407760">
        <ele>64.2</ele>
        <time>2022-06-19T07:28:57Z</time>
      </trkpt>
      <trkpt lat="42.7014980" lon="-8.6408160">
        <ele>64.2</ele>
        <time>2022-06-19T07:28:58Z</time>
      </trkpt>
      <trkpt lat="42.7015330" lon="-8.6408550">
        <ele>64.2</ele>
        <time>2022-06-19T07:28:59Z</time>
      </trkpt>
      <trkpt lat="42.7015650" lon="-8.6408910">
        <ele>65.4</ele>
        <time>2022-06-19T07:29:00Z</time>
      </trkpt>
      <trkpt lat="42.7015830" lon="-8.6409280">
        <ele>65.4</ele>
        <time>2022-06-19T07:29:01Z</time>
      </trkpt>
      <trkpt lat="42.7015980" lon="-8.6409700">
        <ele>65.4</ele>
        <time>2022-06-19T07:29:02Z</time>
      </trkpt>
      <trkpt lat="42.7016160" lon="-8.6410110">
        <ele>65.4</ele>
        <time>2022-06-19T07:29:03Z</time>
      </trkpt>
      <trkpt lat="42.7016230" lon="-8.6410600">
        <ele>66.0</ele>
        <time>2022-06-19T07:29:04Z</time>
      </trkpt>
      <trkpt lat="42.7016310" lon="-8.6411100">
        <ele>66.0</ele>
        <time>2022-06-19T07:29:05Z</time>
      </trkpt>
      <trkpt lat="42.7016330" lon="-8.6411600">
        <ele>66.0</ele>
        <time>2022-06-19T07:29:06Z</time>
      </trkpt>
      <trkpt lat="42.7016310" lon="-8.6412060">
        <ele>66.6</ele>
        <time>2022-06-19T07:29:07Z</time>
      </trkpt>
      <trkpt lat="42.7016260" lon="-8.6412550">
        <ele>66.8</ele>
        <time>2022-06-19T07:29:08Z</time>
      </trkpt>
      <trkpt lat="42.7016210" lon="-8.6413010">
        <ele>66.8</ele>
        <time>2022-06-19T07:29:09Z</time>
      </trkpt>
      <trkpt lat="42.7016180" lon="-8.6413510">
        <ele>66.8</ele>
        <time>2022-06-19T07:29:10Z</time>
      </trkpt>
      <trkpt lat="42.7016150" lon="-8.6413930">
        <ele>67.4</ele>
        <time>2022-06-19T07:29:11Z</time>
      </trkpt>
      <trkpt lat="42.7016110" lon="-8.6414310">
        <ele>67.4</ele>
        <time>2022-06-19T07:29:12Z</time>
      </trkpt>
      <trkpt lat="42.7016050" lon="-8.6414680">
        <ele>67.4</ele>
        <time>2022-06-19T07:29:13Z</time>
      </trkpt>
      <trkpt lat="42.7015980" lon="-8.6415010">
        <ele>67.4</ele>
        <time>2022-06-19T07:29:14Z</time>
      </trkpt>
      <trkpt lat="42.7015910" lon="-8.6415360">
        <ele>67.8</ele>
        <time>2022-06-19T07:29:15Z</time>
      </trkpt>
      <trkpt lat="42.7015800" lon="-8.6415700">
        <ele>68.0</ele>
        <time>2022-06-19T07:29:16Z</time>
      </trkpt>
      <trkpt lat="42.7015710" lon="-8.6416030">
        <ele>68.0</ele>
        <time>2022-06-19T07:29:17Z</time>
      </trkpt>
      <trkpt lat="42.7015600" lon="-8.6416380">
        <ele>68.0</ele>
        <time>2022-06-19T07:29:18Z</time>
      </trkpt>
      <trkpt lat="42.7015510" lon="-8.6416730">
        <ele>68.4</ele>
        <time>2022-06-19T07:29:19Z</time>
      </trkpt>
      <trkpt lat="42.7015410" lon="-8.6417060">
        <ele>68.4</ele>
        <time>2022-06-19T07:29:20Z</time>
      </trkpt>
      <trkpt lat="42.7015300" lon="-8.6417380">
        <ele>68.4</ele>
        <time>2022-06-19T07:29:21Z</time>
      </trkpt>
      <trkpt lat="42.7015200" lon="-8.6417750">
        <ele>68.4</ele>
        <time>2022-06-19T07:29:22Z</time>
      </trkpt>
      <trkpt lat="42.7015100" lon="-8.6418100">
        <ele>69.0</ele>
        <time>2022-06-19T07:29:23Z</time>
      </trkpt>
      <trkpt lat="42.7015000" lon="-8.6418510">
        <ele>68.8</ele>
        <time>2022-06-19T07:29:24Z</time>
      </trkpt>
      <trkpt lat="42.7014980" lon="-8.6418910">
        <ele>68.8</ele>
        <time>2022-06-19T07:29:25Z</time>
      </trkpt>
      <trkpt lat="42.7014980" lon="-8.6419310">
        <ele>68.8</ele>
        <time>2022-06-19T07:29:26Z</time>
      </trkpt>
      <trkpt lat="42.7015050" lon="-8.6419730">
        <ele>68.4</ele>
        <time>2022-06-19T07:29:27Z</time>
      </trkpt>
      <trkpt lat="42.7015130" lon="-8.6420080">
        <ele>68.8</ele>
        <time>2022-06-19T07:29:28Z</time>
      </trkpt>
      <trkpt lat="42.7015280" lon="-8.6420400">
        <ele>68.8</ele>
        <time>2022-06-19T07:29:29Z</time>
      </trkpt>
      <trkpt lat="42.7015480" lon="-8.6420660">
        <ele>68.8</ele>
        <time>2022-06-19T07:29:30Z</time>
      </trkpt>
      <trkpt lat="42.7015700" lon="-8.6420830">
        <ele>69.6</ele>
        <time>2022-06-19T07:29:31Z</time>
      </trkpt>
      <trkpt lat="42.7015930" lon="-8.6420910">
        <ele>70.0</ele>
        <time>2022-06-19T07:29:32Z</time>
      </trkpt>
      <trkpt lat="42.7016180" lon="-8.6420980">
        <ele>70.0</ele>
        <time>2022-06-19T07:29:33Z</time>
      </trkpt>
      <trkpt lat="42.7016410" lon="-8.6421030">
        <ele>70.0</ele>
        <time>2022-06-19T07:29:34Z</time>
      </trkpt>
      <trkpt lat="42.7016650" lon="-8.6421100">
        <ele>70.8</ele>
        <time>2022-06-19T07:29:35Z</time>
      </trkpt>
      <trkpt lat="42.7016880" lon="-8.6421180">
        <ele>71.0</ele>
        <time>2022-06-19T07:29:36Z</time>
      </trkpt>
      <trkpt lat="42.7017100" lon="-8.6421300">
        <ele>71.0</ele>
        <time>2022-06-19T07:29:37Z</time>
      </trkpt>
      <trkpt lat="42.7017330" lon="-8.6421450">
        <ele>71.0</ele>
        <time>2022-06-19T07:29:38Z</time>
      </trkpt>
      <trkpt lat="42.7017560" lon="-8.6421580">
        <ele>71.0</ele>
        <time>2022-06-19T07:29:39Z</time>
      </trkpt>
      <trkpt lat="42.7017780" lon="-8.6421730">
        <ele>71.6</ele>
        <time>2022-06-19T07:29:40Z</time>
      </trkpt>
      <trkpt lat="42.7018010" lon="-8.6421850">
        <ele>71.6</ele>
        <time>2022-06-19T07:29:41Z</time>
      </trkpt>
      <trkpt lat="42.7018230" lon="-8.6421980">
        <ele>71.6</ele>
        <time>2022-06-19T07:29:42Z</time>
      </trkpt>
      <trkpt lat="42.7018460" lon="-8.6422080">
        <ele>71.6</ele>
        <time>2022-06-19T07:29:43Z</time>
      </trkpt>
      <trkpt lat="42.7018680" lon="-8.6422210">
        <ele>72.0</ele>
        <time>2022-06-19T07:29:44Z</time>
      </trkpt>
      <trkpt lat="42.7018910" lon="-8.6422260">
        <ele>72.0</ele>
        <time>2022-06-19T07:29:45Z</time>
      </trkpt>
      <trkpt lat="42.7019110" lon="-8.6422350">
        <ele>72.0</ele>
        <time>2022-06-19T07:29:46Z</time>
      </trkpt>
      <trkpt lat="42.7019330" lon="-8.6422360">
        <ele>72.0</ele>
        <time>2022-06-19T07:29:47Z</time>
      </trkpt>
      <trkpt lat="42.7019560" lon="-8.6422350">
        <ele>72.8</ele>
        <time>2022-06-19T07:29:48Z</time>
      </trkpt>
      <trkpt lat="42.7019800" lon="-8.6422300">
        <ele>72.8</ele>
        <time>2022-06-19T07:29:49Z</time>
      </trkpt>
      <trkpt lat="42.7020000" lon="-8.6422250">
        <ele>72.8</ele>
        <time>2022-06-19T07:29:50Z</time>
      </trkpt>
      <trkpt lat="42.7020210" lon="-8.6422180">
        <ele>72.8</ele>
        <time>2022-06-19T07:29:51Z</time>
      </trkpt>
      <trkpt lat="42.7020450" lon="-8.6422110">
        <ele>72.8</ele>
        <time>2022-06-19T07:29:52Z</time>
      </trkpt>
      <trkpt lat="42.7020680" lon="-8.6422030">
        <ele>72.8</ele>
        <time>2022-06-19T07:29:53Z</time>
      </trkpt>
      <trkpt lat="42.7020900" lon="-8.6421960">
        <ele>72.8</ele>
        <time>2022-06-19T07:29:54Z</time>
      </trkpt>
      <trkpt lat="42.7021100" lon="-8.6421960">
        <ele>73.4</ele>
        <time>2022-06-19T07:29:55Z</time>
      </trkpt>
      <trkpt lat="42.7021300" lon="-8.6421930">
        <ele>74.0</ele>
        <time>2022-06-19T07:29:56Z</time>
      </trkpt>
      <trkpt lat="42.7021480" lon="-8.6421880">
        <ele>74.0</ele>
        <time>2022-06-19T07:29:57Z</time>
      </trkpt>
      <trkpt lat="42.7021710" lon="-8.6421810">
        <ele>74.0</ele>
        <time>2022-06-19T07:29:58Z</time>
      </trkpt>
      <trkpt lat="42.7021910" lon="-8.6421730">
        <ele>74.4</ele>
        <time>2022-06-19T07:29:59Z</time>
      </trkpt>
      <trkpt lat="42.7022160" lon="-8.6421650">
        <ele>74.4</ele>
        <time>2022-06-19T07:30:00Z</time>
      </trkpt>
      <trkpt lat="42.7022410" lon="-8.6421580">
        <ele>74.4</ele>
        <time>2022-06-19T07:30:01Z</time>
      </trkpt>
      <trkpt lat="42.7022650" lon="-8.6421510">
        <ele>74.4</ele>
        <time>2022-06-19T07:30:02Z</time>
      </trkpt>
      <trkpt lat="42.7022900" lon="-8.6421400">
        <ele>74.4</ele>
        <time>2022-06-19T07:30:03Z</time>
      </trkpt>
      <trkpt lat="42.7023130" lon="-8.6421300">
        <ele>74.8</ele>
        <time>2022-06-19T07:30:04Z</time>
      </trkpt>
      <trkpt lat="42.7023360" lon="-8.6421200">
        <ele>74.8</ele>
        <time>2022-06-19T07:30:05Z</time>
      </trkpt>
      <trkpt lat="42.7023530" lon="-8.6421130">
        <ele>74.8</ele>
        <time>2022-06-19T07:30:06Z</time>
      </trkpt>
      <trkpt lat="42.7023710" lon="-8.6421110">
        <ele>74.8</ele>
        <time>2022-06-19T07:30:07Z</time>
      </trkpt>
      <trkpt lat="42.7023910" lon="-8.6421080">
        <ele>75.2</ele>
        <time>2022-06-19T07:30:08Z</time>
      </trkpt>
      <trkpt lat="42.7024160" lon="-8.6420980">
        <ele>75.2</ele>
        <time>2022-06-19T07:30:09Z</time>
      </trkpt>
      <trkpt lat="42.7024480" lon="-8.6420900">
        <ele>75.2</ele>
        <time>2022-06-19T07:30:10Z</time>
      </trkpt>
      <trkpt lat="42.7024780" lon="-8.6420830">
        <ele>75.2</ele>
        <time>2022-06-19T07:30:11Z</time>
      </trkpt>
      <trkpt lat="42.7025100" lon="-8.6420760">
        <ele>75.0</ele>
        <time>2022-06-19T07:30:12Z</time>
      </trkpt>
      <trkpt lat="42.7025400" lon="-8.6420710">
        <ele>75.0</ele>
        <time>2022-06-19T07:30:13Z</time>
      </trkpt>
      <trkpt lat="42.7025650" lon="-8.6420750">
        <ele>75.0</ele>
        <time>2022-06-19T07:30:14Z</time>
      </trkpt>
      <trkpt lat="42.7025910" lon="-8.6420810">
        <ele>75.0</ele>
        <time>2022-06-19T07:30:15Z</time>
      </trkpt>
      <trkpt lat="42.7026210" lon="-8.6420810">
        <ele>74.8</ele>
        <time>2022-06-19T07:30:16Z</time>
      </trkpt>
      <trkpt lat="42.7026500" lon="-8.6420830">
        <ele>74.8</ele>
        <time>2022-06-19T07:30:17Z</time>
      </trkpt>
      <trkpt lat="42.7026780" lon="-8.6420860">
        <ele>74.8</ele>
        <time>2022-06-19T07:30:18Z</time>
      </trkpt>
      <trkpt lat="42.7027080" lon="-8.6420910">
        <ele>74.8</ele>
        <time>2022-06-19T07:30:19Z</time>
      </trkpt>
      <trkpt lat="42.7027360" lon="-8.6420950">
        <ele>74.8</ele>
        <time>2022-06-19T07:30:20Z</time>
      </trkpt>
      <trkpt lat="42.7027630" lon="-8.6420980">
        <ele>74.8</ele>
        <time>2022-06-19T07:30:21Z</time>
      </trkpt>
      <trkpt lat="42.7027930" lon="-8.6420960">
        <ele>74.8</ele>
        <time>2022-06-19T07:30:22Z</time>
      </trkpt>
      <trkpt lat="42.7028250" lon="-8.6421000">
        <ele>74.6</ele>
        <time>2022-06-19T07:30:23Z</time>
      </trkpt>
      <trkpt lat="42.7028560" lon="-8.6421060">
        <ele>74.4</ele>
        <time>2022-06-19T07:30:24Z</time>
      </trkpt>
      <trkpt lat="42.7028910" lon="-8.6421100">
        <ele>74.4</ele>
        <time>2022-06-19T07:30:25Z</time>
      </trkpt>
      <trkpt lat="42.7029250" lon="-8.6421110">
        <ele>74.4</ele>
        <time>2022-06-19T07:30:26Z</time>
      </trkpt>
      <trkpt lat="42.7029610" lon="-8.6421130">
        <ele>74.4</ele>
        <time>2022-06-19T07:30:27Z</time>
      </trkpt>
      <trkpt lat="42.7029960" lon="-8.6421180">
        <ele>74.2</ele>
        <time>2022-06-19T07:30:28Z</time>
      </trkpt>
      <trkpt lat="42.7030350" lon="-8.6421210">
        <ele>74.2</ele>
        <time>2022-06-19T07:30:29Z</time>
      </trkpt>
      <trkpt lat="42.7030660" lon="-8.6421280">
        <ele>74.2</ele>
        <time>2022-06-19T07:30:30Z</time>
      </trkpt>
      <trkpt lat="42.7030980" lon="-8.6421360">
        <ele>74.0</ele>
        <time>2022-06-19T07:30:31Z</time>
      </trkpt>
      <trkpt lat="42.7031300" lon="-8.6421410">
        <ele>74.0</ele>
        <time>2022-06-19T07:30:32Z</time>
      </trkpt>
      <trkpt lat="42.7031630" lon="-8.6421450">
        <ele>74.0</ele>
        <time>2022-06-19T07:30:33Z</time>
      </trkpt>
      <trkpt lat="42.7032000" lon="-8.6421480">
        <ele>74.0</ele>
        <time>2022-06-19T07:30:34Z</time>
      </trkpt>
      <trkpt lat="42.7032360" lon="-8.6421510">
        <ele>74.0</ele>
        <time>2022-06-19T07:30:35Z</time>
      </trkpt>
      <trkpt lat="42.7032730" lon="-8.6421560">
        <ele>73.8</ele>
        <time>2022-06-19T07:30:36Z</time>
      </trkpt>
      <trkpt lat="42.7033100" lon="-8.6421610">
        <ele>73.8</ele>
        <time>2022-06-19T07:30:37Z</time>
      </trkpt>
      <trkpt lat="42.7033460" lon="-8.6421660">
        <ele>73.8</ele>
        <time>2022-06-19T07:30:38Z</time>
      </trkpt>
      <trkpt lat="42.7033830" lon="-8.6421700">
        <ele>73.8</ele>
        <time>2022-06-19T07:30:39Z</time>
      </trkpt>
      <trkpt lat="42.7034180" lon="-8.6421760">
        <ele>74.0</ele>
        <time>2022-06-19T07:30:40Z</time>
      </trkpt>
      <trkpt lat="42.7034530" lon="-8.6421800">
        <ele>74.0</ele>
        <time>2022-06-19T07:30:41Z</time>
      </trkpt>
      <trkpt lat="42.7034880" lon="-8.6421860">
        <ele>74.0</ele>
        <time>2022-06-19T07:30:42Z</time>
      </trkpt>
      <trkpt lat="42.7035210" lon="-8.6421880">
        <ele>74.0</ele>
        <time>2022-06-19T07:30:43Z</time>
      </trkpt>
      <trkpt lat="42.7035560" lon="-8.6421900">
        <ele>74.4</ele>
        <time>2022-06-19T07:30:44Z</time>
      </trkpt>
      <trkpt lat="42.7035900" lon="-8.6421950">
        <ele>74.4</ele>
        <time>2022-06-19T07:30:45Z</time>
      </trkpt>
      <trkpt lat="42.7036210" lon="-8.6422010">
        <ele>74.4</ele>
        <time>2022-06-19T07:30:46Z</time>
      </trkpt>
      <trkpt lat="42.7036550" lon="-8.6422050">
        <ele>74.2</ele>
        <time>2022-06-19T07:30:47Z</time>
      </trkpt>
      <trkpt lat="42.7036860" lon="-8.6422060">
        <ele>74.2</ele>
        <time>2022-06-19T07:30:48Z</time>
      </trkpt>
      <trkpt lat="42.7037200" lon="-8.6422100">
        <ele>74.2</ele>
        <time>2022-06-19T07:30:49Z</time>
      </trkpt>
      <trkpt lat="42.7037510" lon="-8.6422150">
        <ele>74.2</ele>
        <time>2022-06-19T07:30:50Z</time>
      </trkpt>
      <trkpt lat="42.7037810" lon="-8.6422200">
        <ele>74.2</ele>
        <time>2022-06-19T07:30:51Z</time>
      </trkpt>
      <trkpt lat="42.7038150" lon="-8.6422260">
        <ele>73.8</ele>
        <time>2022-06-19T07:30:52Z</time>
      </trkpt>
      <trkpt lat="42.7038510" lon="-8.6422400">
        <ele>73.8</ele>
        <time>2022-06-19T07:30:53Z</time>
      </trkpt>
      <trkpt lat="42.7038830" lon="-8.6422550">
        <ele>73.8</ele>
        <time>2022-06-19T07:30:54Z</time>
      </trkpt>
      <trkpt lat="42.7039110" lon="-8.6422650">
        <ele>73.8</ele>
        <time>2022-06-19T07:30:55Z</time>
      </trkpt>
      <trkpt lat="42.7039380" lon="-8.6422760">
        <ele>73.6</ele>
        <time>2022-06-19T07:30:56Z</time>
      </trkpt>
      <trkpt lat="42.7039660" lon="-8.6422830">
        <ele>73.6</ele>
        <time>2022-06-19T07:30:57Z</time>
      </trkpt>
      <trkpt lat="42.7039980" lon="-8.6422860">
        <ele>73.6</ele>
        <time>2022-06-19T07:30:58Z</time>
      </trkpt>
      <trkpt lat="42.7040230" lon="-8.6422950">
        <ele>74.6</ele>
        <time>2022-06-19T07:30:59Z</time>
      </trkpt>
      <trkpt lat="42.7040530" lon="-8.6422950">
        <ele>73.8</ele>
        <time>2022-06-19T07:31:00Z</time>
      </trkpt>
      <trkpt lat="42.7040900" lon="-8.6422910">
        <ele>73.8</ele>
        <time>2022-06-19T07:31:01Z</time>
      </trkpt>
      <trkpt lat="42.7041200" lon="-8.6423010">
        <ele>73.8</ele>
        <time>2022-06-19T07:31:02Z</time>
      </trkpt>
      <trkpt lat="42.7041500" lon="-8.6423100">
        <ele>73.2</ele>
        <time>2022-06-19T07:31:03Z</time>
      </trkpt>
      <trkpt lat="42.7041800" lon="-8.6423160">
        <ele>73.2</ele>
        <time>2022-06-19T07:31:04Z</time>
      </trkpt>
      <trkpt lat="42.7042080" lon="-8.6423230">
        <ele>73.2</ele>
        <time>2022-06-19T07:31:05Z</time>
      </trkpt>
      <trkpt lat="42.7042410" lon="-8.6423210">
        <ele>73.2</ele>
        <time>2022-06-19T07:31:06Z</time>
      </trkpt>
      <trkpt lat="42.7042730" lon="-8.6423250">
        <ele>73.2</ele>
        <time>2022-06-19T07:31:07Z</time>
      </trkpt>
      <trkpt lat="42.7043100" lon="-8.6423210">
        <ele>71.8</ele>
        <time>2022-06-19T07:31:08Z</time>
      </trkpt>
      <trkpt lat="42.7043400" lon="-8.6423160">
        <ele>71.8</ele>
        <time>2022-06-19T07:31:09Z</time>
      </trkpt>
      <trkpt lat="42.7043810" lon="-8.6423210">
        <ele>71.8</ele>
        <time>2022-06-19T07:31:10Z</time>
      </trkpt>
      <trkpt lat="42.7044230" lon="-8.6423310">
        <ele>71.8</ele>
        <time>2022-06-19T07:31:11Z</time>
      </trkpt>
      <trkpt lat="42.7044600" lon="-8.6423580">
        <ele>71.0</ele>
        <time>2022-06-19T07:31:12Z</time>
      </trkpt>
      <trkpt lat="42.7045050" lon="-8.6423760">
        <ele>71.0</ele>
        <time>2022-06-19T07:31:13Z</time>
      </trkpt>
      <trkpt lat="42.7045430" lon="-8.6423910">
        <ele>71.0</ele>
        <time>2022-06-19T07:31:14Z</time>
      </trkpt>
      <trkpt lat="42.7045830" lon="-8.6423880">
        <ele>70.0</ele>
        <time>2022-06-19T07:31:15Z</time>
      </trkpt>
      <trkpt lat="42.7046280" lon="-8.6424010">
        <ele>67.6</ele>
        <time>2022-06-19T07:31:16Z</time>
      </trkpt>
      <trkpt lat="42.7046730" lon="-8.6424110">
        <ele>67.6</ele>
        <time>2022-06-19T07:31:17Z</time>
      </trkpt>
      <trkpt lat="42.7047360" lon="-8.6424130">
        <ele>67.6</ele>
        <time>2022-06-19T07:31:18Z</time>
      </trkpt>
      <trkpt lat="42.7048100" lon="-8.6424100">
        <ele>67.6</ele>
        <time>2022-06-19T07:31:19Z</time>
      </trkpt>
      <trkpt lat="42.7048830" lon="-8.6424080">
        <ele>65.8</ele>
        <time>2022-06-19T07:31:20Z</time>
      </trkpt>
      <trkpt lat="42.7049530" lon="-8.6423930">
        <ele>65.8</ele>
        <time>2022-06-19T07:31:21Z</time>
      </trkpt>
      <trkpt lat="42.7050250" lon="-8.6423880">
        <ele>65.8</ele>
        <time>2022-06-19T07:31:22Z</time>
      </trkpt>
      <trkpt lat="42.7050880" lon="-8.6424050">
        <ele>64.8</ele>
        <time>2022-06-19T07:31:23Z</time>
      </trkpt>
      <trkpt lat="42.7051560" lon="-8.6424100">
        <ele>63.4</ele>
        <time>2022-06-19T07:31:24Z</time>
      </trkpt>
      <trkpt lat="42.7052180" lon="-8.6424250">
        <ele>63.4</ele>
        <time>2022-06-19T07:31:25Z</time>
      </trkpt>
      <trkpt lat="42.7052780" lon="-8.6424250">
        <ele>63.4</ele>
        <time>2022-06-19T07:31:26Z</time>
      </trkpt>
      <trkpt lat="42.7053350" lon="-8.6424280">
        <ele>63.0</ele>
        <time>2022-06-19T07:31:27Z</time>
      </trkpt>
      <trkpt lat="42.7053860" lon="-8.6424410">
        <ele>63.2</ele>
        <time>2022-06-19T07:31:28Z</time>
      </trkpt>
      <trkpt lat="42.7054300" lon="-8.6424700">
        <ele>63.2</ele>
        <time>2022-06-19T07:31:29Z</time>
      </trkpt>
      <trkpt lat="42.7054550" lon="-8.6425010">
        <ele>63.2</ele>
        <time>2022-06-19T07:31:30Z</time>
      </trkpt>
      <trkpt lat="42.7054650" lon="-8.6425510">
        <ele>63.2</ele>
        <time>2022-06-19T07:31:31Z</time>
      </trkpt>
      <trkpt lat="42.7054910" lon="-8.6426150">
        <ele>61.2</ele>
        <time>2022-06-19T07:31:32Z</time>
      </trkpt>
      <trkpt lat="42.7055450" lon="-8.6426630">
        <ele>61.2</ele>
        <time>2022-06-19T07:31:33Z</time>
      </trkpt>
      <trkpt lat="42.7055830" lon="-8.6427030">
        <ele>61.2</ele>
        <time>2022-06-19T07:31:34Z</time>
      </trkpt>
      <trkpt lat="42.7056180" lon="-8.6427330">
        <ele>62.0</ele>
        <time>2022-06-19T07:31:35Z</time>
      </trkpt>
      <trkpt lat="42.7056460" lon="-8.6427700">
        <ele>61.2</ele>
        <time>2022-06-19T07:31:36Z</time>
      </trkpt>
      <trkpt lat="42.7056660" lon="-8.6428030">
        <ele>61.2</ele>
        <time>2022-06-19T07:31:37Z</time>
      </trkpt>
      <trkpt lat="42.7056980" lon="-8.6428350">
        <ele>61.2</ele>
        <time>2022-06-19T07:31:38Z</time>
      </trkpt>
      <trkpt lat="42.7057280" lon="-8.6428810">
        <ele>61.6</ele>
        <time>2022-06-19T07:31:39Z</time>
      </trkpt>
      <trkpt lat="42.7057460" lon="-8.6429300">
        <ele>61.0</ele>
        <time>2022-06-19T07:31:40Z</time>
      </trkpt>
      <trkpt lat="42.7057560" lon="-8.6429830">
        <ele>61.0</ele>
        <time>2022-06-19T07:31:41Z</time>
      </trkpt>
      <trkpt lat="42.7057710" lon="-8.6430480">
        <ele>61.0</ele>
        <time>2022-06-19T07:31:42Z</time>
      </trkpt>
      <trkpt lat="42.7057850" lon="-8.6431180">
        <ele>60.0</ele>
        <time>2022-06-19T07:31:43Z</time>
      </trkpt>
      <trkpt lat="42.7057930" lon="-8.6431980">
        <ele>59.8</ele>
        <time>2022-06-19T07:31:44Z</time>
      </trkpt>
      <trkpt lat="42.7057960" lon="-8.6432750">
        <ele>59.8</ele>
        <time>2022-06-19T07:31:45Z</time>
      </trkpt>
      <trkpt lat="42.7057930" lon="-8.6433550">
        <ele>59.8</ele>
        <time>2022-06-19T07:31:46Z</time>
      </trkpt>
      <trkpt lat="42.7057980" lon="-8.6434330">
        <ele>58.8</ele>
        <time>2022-06-19T07:31:47Z</time>
      </trkpt>
      <trkpt lat="42.7057980" lon="-8.6435250">
        <ele>55.4</ele>
        <time>2022-06-19T07:31:48Z</time>
      </trkpt>
      <trkpt lat="42.7058030" lon="-8.6436150">
        <ele>55.4</ele>
        <time>2022-06-19T07:31:49Z</time>
      </trkpt>
      <trkpt lat="42.7058160" lon="-8.6437060">
        <ele>55.4</ele>
        <time>2022-06-19T07:31:50Z</time>
      </trkpt>
      <trkpt lat="42.7058350" lon="-8.6438010">
        <ele>55.4</ele>
        <time>2022-06-19T07:31:51Z</time>
      </trkpt>
      <trkpt lat="42.7058500" lon="-8.6438650">
        <ele>54.6</ele>
        <time>2022-06-19T07:31:52Z</time>
      </trkpt>
      <trkpt lat="42.7058830" lon="-8.6439250">
        <ele>54.6</ele>
        <time>2022-06-19T07:31:53Z</time>
      </trkpt>
      <trkpt lat="42.7059150" lon="-8.6439950">
        <ele>54.6</ele>
        <time>2022-06-19T07:31:54Z</time>
      </trkpt>
      <trkpt lat="42.7059600" lon="-8.6440750">
        <ele>54.6</ele>
        <time>2022-06-19T07:31:55Z</time>
      </trkpt>
      <trkpt lat="42.7060130" lon="-8.6441300">
        <ele>52.8</ele>
        <time>2022-06-19T07:31:56Z</time>
      </trkpt>
      <trkpt lat="42.7060760" lon="-8.6441750">
        <ele>52.8</ele>
        <time>2022-06-19T07:31:57Z</time>
      </trkpt>
      <trkpt lat="42.7061300" lon="-8.6442310">
        <ele>52.8</ele>
        <time>2022-06-19T07:31:58Z</time>
      </trkpt>
      <trkpt lat="42.7061760" lon="-8.6442750">
        <ele>53.4</ele>
        <time>2022-06-19T07:31:59Z</time>
      </trkpt>
      <trkpt lat="42.7062310" lon="-8.6443010">
        <ele>53.6</ele>
        <time>2022-06-19T07:32:00Z</time>
      </trkpt>
      <trkpt lat="42.7062830" lon="-8.6443350">
        <ele>53.6</ele>
        <time>2022-06-19T07:32:01Z</time>
      </trkpt>
      <trkpt lat="42.7063480" lon="-8.6444030">
        <ele>53.6</ele>
        <time>2022-06-19T07:32:02Z</time>
      </trkpt>
      <trkpt lat="42.7063780" lon="-8.6444660">
        <ele>52.6</ele>
        <time>2022-06-19T07:32:03Z</time>
      </trkpt>
      <trkpt lat="42.7064000" lon="-8.6445350">
        <ele>51.0</ele>
        <time>2022-06-19T07:32:04Z</time>
      </trkpt>
      <trkpt lat="42.7064200" lon="-8.6445960">
        <ele>51.0</ele>
        <time>2022-06-19T07:32:05Z</time>
      </trkpt>
      <trkpt lat="42.7064310" lon="-8.6446750">
        <ele>51.0</ele>
        <time>2022-06-19T07:32:06Z</time>
      </trkpt>
      <trkpt lat="42.7064230" lon="-8.6447450">
        <ele>51.0</ele>
        <time>2022-06-19T07:32:07Z</time>
      </trkpt>
      <trkpt lat="42.7064050" lon="-8.6448130">
        <ele>48.4</ele>
        <time>2022-06-19T07:32:08Z</time>
      </trkpt>
      <trkpt lat="42.7063880" lon="-8.6448800">
        <ele>48.4</ele>
        <time>2022-06-19T07:32:09Z</time>
      </trkpt>
      <trkpt lat="42.7063850" lon="-8.6449430">
        <ele>48.4</ele>
        <time>2022-06-19T07:32:10Z</time>
      </trkpt>
      <trkpt lat="42.7063800" lon="-8.6449930">
        <ele>47.4</ele>
        <time>2022-06-19T07:32:11Z</time>
      </trkpt>
      <trkpt lat="42.7063800" lon="-8.6450360">
        <ele>46.4</ele>
        <time>2022-06-19T07:32:12Z</time>
      </trkpt>
      <trkpt lat="42.7063860" lon="-8.6450780">
        <ele>46.4</ele>
        <time>2022-06-19T07:32:13Z</time>
      </trkpt>
      <trkpt lat="42.7063980" lon="-8.6451150">
        <ele>46.4</ele>
        <time>2022-06-19T07:32:14Z</time>
      </trkpt>
      <trkpt lat="42.7064080" lon="-8.6451480">
        <ele>46.4</ele>
        <time>2022-06-19T07:32:15Z</time>
      </trkpt>
      <trkpt lat="42.7064300" lon="-8.6451910">
        <ele>44.4</ele>
        <time>2022-06-19T07:32:16Z</time>
      </trkpt>
      <trkpt lat="42.7064460" lon="-8.6452360">
        <ele>44.4</ele>
        <time>2022-06-19T07:32:17Z</time>
      </trkpt>
      <trkpt lat="42.7064700" lon="-8.6452830">
        <ele>44.4</ele>
        <time>2022-06-19T07:32:18Z</time>
      </trkpt>
      <trkpt lat="42.7064860" lon="-8.6453410">
        <ele>44.4</ele>
        <time>2022-06-19T07:32:19Z</time>
      </trkpt>
      <trkpt lat="42.7065050" lon="-8.6453930">
        <ele>42.8</ele>
        <time>2022-06-19T07:32:20Z</time>
      </trkpt>
      <trkpt lat="42.7065350" lon="-8.6454450">
        <ele>42.8</ele>
        <time>2022-06-19T07:32:21Z</time>
      </trkpt>
      <trkpt lat="42.7065580" lon="-8.6455060">
        <ele>42.8</ele>
        <time>2022-06-19T07:32:22Z</time>
      </trkpt>
      <trkpt lat="42.7065830" lon="-8.6455610">
        <ele>41.8</ele>
        <time>2022-06-19T07:32:23Z</time>
      </trkpt>
      <trkpt lat="42.7066030" lon="-8.6456230">
        <ele>40.2</ele>
        <time>2022-06-19T07:32:24Z</time>
      </trkpt>
      <trkpt lat="42.7066400" lon="-8.6456900">
        <ele>40.2</ele>
        <time>2022-06-19T07:32:25Z</time>
      </trkpt>
      <trkpt lat="42.7066600" lon="-8.6457580">
        <ele>40.2</ele>
        <time>2022-06-19T07:32:26Z</time>
      </trkpt>
      <trkpt lat="42.7066800" lon="-8.6458210">
        <ele>39.2</ele>
        <time>2022-06-19T07:32:27Z</time>
      </trkpt>
      <trkpt lat="42.7066900" lon="-8.6458930">
        <ele>36.2</ele>
        <time>2022-06-19T07:32:28Z</time>
      </trkpt>
      <trkpt lat="42.7066960" lon="-8.6459580">
        <ele>36.2</ele>
        <time>2022-06-19T07:32:29Z</time>
      </trkpt>
      <trkpt lat="42.7066980" lon="-8.6460350">
        <ele>36.2</ele>
        <time>2022-06-19T07:32:30Z</time>
      </trkpt>
      <trkpt lat="42.7067030" lon="-8.6461650">
        <ele>36.2</ele>
        <time>2022-06-19T07:32:31Z</time>
      </trkpt>
      <trkpt lat="42.7067180" lon="-8.6462610">
        <ele>36.6</ele>
        <time>2022-06-19T07:32:32Z</time>
      </trkpt>
      <trkpt lat="42.7067300" lon="-8.6463930">
        <ele>36.6</ele>
        <time>2022-06-19T07:32:33Z</time>
      </trkpt>
      <trkpt lat="42.7067500" lon="-8.6464810">
        <ele>36.6</ele>
        <time>2022-06-19T07:32:34Z</time>
      </trkpt>
      <trkpt lat="42.7067610" lon="-8.6465860">
        <ele>35.6</ele>
        <time>2022-06-19T07:32:35Z</time>
      </trkpt>
      <trkpt lat="42.7067750" lon="-8.6466850">
        <ele>32.4</ele>
        <time>2022-06-19T07:32:36Z</time>
      </trkpt>
      <trkpt lat="42.7067880" lon="-8.6467800">
        <ele>32.4</ele>
        <time>2022-06-19T07:32:37Z</time>
      </trkpt>
      <trkpt lat="42.7067930" lon="-8.6468830">
        <ele>32.4</ele>
        <time>2022-06-19T07:32:38Z</time>
      </trkpt>
      <trkpt lat="42.7067910" lon="-8.6469800">
        <ele>32.4</ele>
        <time>2022-06-19T07:32:39Z</time>
      </trkpt>
      <trkpt lat="42.7067860" lon="-8.6470810">
        <ele>31.2</ele>
        <time>2022-06-19T07:32:40Z</time>
      </trkpt>
      <trkpt lat="42.7067850" lon="-8.6471700">
        <ele>31.2</ele>
        <time>2022-06-19T07:32:41Z</time>
      </trkpt>
      <trkpt lat="42.7067810" lon="-8.6472480">
        <ele>31.2</ele>
        <time>2022-06-19T07:32:42Z</time>
      </trkpt>
      <trkpt lat="42.7067800" lon="-8.6473080">
        <ele>31.6</ele>
        <time>2022-06-19T07:32:43Z</time>
      </trkpt>
      <trkpt lat="42.7067850" lon="-8.6473580">
        <ele>34.2</ele>
        <time>2022-06-19T07:32:44Z</time>
      </trkpt>
      <trkpt lat="42.7067950" lon="-8.6474030">
        <ele>34.2</ele>
        <time>2022-06-19T07:32:45Z</time>
      </trkpt>
      <trkpt lat="42.7068180" lon="-8.6474250">
        <ele>34.2</ele>
        <time>2022-06-19T07:32:46Z</time>
      </trkpt>
      <trkpt lat="42.7068480" lon="-8.6474350">
        <ele>33.8</ele>
        <time>2022-06-19T07:32:47Z</time>
      </trkpt>
      <trkpt lat="42.7068780" lon="-8.6474410">
        <ele>33.8</ele>
        <time>2022-06-19T07:32:48Z</time>
      </trkpt>
      <trkpt lat="42.7069150" lon="-8.6474410">
        <ele>33.8</ele>
        <time>2022-06-19T07:32:49Z</time>
      </trkpt>
      <trkpt lat="42.7069530" lon="-8.6474380">
        <ele>33.8</ele>
        <time>2022-06-19T07:32:50Z</time>
      </trkpt>
      <trkpt lat="42.7069900" lon="-8.6474410">
        <ele>33.8</ele>
        <time>2022-06-19T07:32:51Z</time>
      </trkpt>
      <trkpt lat="42.7070330" lon="-8.6474460">
        <ele>33.4</ele>
        <time>2022-06-19T07:32:52Z</time>
      </trkpt>
      <trkpt lat="42.7070750" lon="-8.6474500">
        <ele>33.4</ele>
        <time>2022-06-19T07:32:53Z</time>
      </trkpt>
      <trkpt lat="42.7071200" lon="-8.6474460">
        <ele>33.4</ele>
        <time>2022-06-19T07:32:54Z</time>
      </trkpt>
      <trkpt lat="42.7071650" lon="-8.6474400">
        <ele>33.4</ele>
        <time>2022-06-19T07:32:55Z</time>
      </trkpt>
      <trkpt lat="42.7072150" lon="-8.6474410">
        <ele>33.2</ele>
        <time>2022-06-19T07:32:56Z</time>
      </trkpt>
      <trkpt lat="42.7072610" lon="-8.6474500">
        <ele>33.2</ele>
        <time>2022-06-19T07:32:57Z</time>
      </trkpt>
      <trkpt lat="42.7072980" lon="-8.6474600">
        <ele>33.2</ele>
        <time>2022-06-19T07:32:58Z</time>
      </trkpt>
      <trkpt lat="42.7073310" lon="-8.6474910">
        <ele>33.2</ele>
        <time>2022-06-19T07:32:59Z</time>
      </trkpt>
      <trkpt lat="42.7073610" lon="-8.6475260">
        <ele>32.2</ele>
        <time>2022-06-19T07:33:00Z</time>
      </trkpt>
      <trkpt lat="42.7074030" lon="-8.6475480">
        <ele>32.2</ele>
        <time>2022-06-19T07:33:01Z</time>
      </trkpt>
      <trkpt lat="42.7074450" lon="-8.6475550">
        <ele>32.2</ele>
        <time>2022-06-19T07:33:02Z</time>
      </trkpt>
      <trkpt lat="42.7074900" lon="-8.6475430">
        <ele>31.2</ele>
        <time>2022-06-19T07:33:03Z</time>
      </trkpt>
      <trkpt lat="42.7075360" lon="-8.6475280">
        <ele>31.2</ele>
        <time>2022-06-19T07:33:04Z</time>
      </trkpt>
      <trkpt lat="42.7075850" lon="-8.6475130">
        <ele>31.2</ele>
        <time>2022-06-19T07:33:05Z</time>
      </trkpt>
      <trkpt lat="42.7076310" lon="-8.6475000">
        <ele>31.2</ele>
        <time>2022-06-19T07:33:06Z</time>
      </trkpt>
      <trkpt lat="42.7076800" lon="-8.6474880">
        <ele>31.2</ele>
        <time>2022-06-19T07:33:07Z</time>
      </trkpt>
      <trkpt lat="42.7077260" lon="-8.6474760">
        <ele>31.8</ele>
        <time>2022-06-19T07:33:08Z</time>
      </trkpt>
      <trkpt lat="42.7077750" lon="-8.6474680">
        <ele>31.8</ele>
        <time>2022-06-19T07:33:09Z</time>
      </trkpt>
      <trkpt lat="42.7078230" lon="-8.6474580">
        <ele>31.8</ele>
        <time>2022-06-19T07:33:10Z</time>
      </trkpt>
      <trkpt lat="42.7078710" lon="-8.6474450">
        <ele>31.8</ele>
        <time>2022-06-19T07:33:11Z</time>
      </trkpt>
      <trkpt lat="42.7079180" lon="-8.6474310">
        <ele>32.0</ele>
        <time>2022-06-19T07:33:12Z</time>
      </trkpt>
      <trkpt lat="42.7079680" lon="-8.6474160">
        <ele>32.0</ele>
        <time>2022-06-19T07:33:13Z</time>
      </trkpt>
      <trkpt lat="42.7080180" lon="-8.6474050">
        <ele>32.0</ele>
        <time>2022-06-19T07:33:14Z</time>
      </trkpt>
      <trkpt lat="42.7080700" lon="-8.6473950">
        <ele>31.2</ele>
        <time>2022-06-19T07:33:15Z</time>
      </trkpt>
      <trkpt lat="42.7081210" lon="-8.6473830">
        <ele>29.4</ele>
        <time>2022-06-19T07:33:16Z</time>
      </trkpt>
      <trkpt lat="42.7081710" lon="-8.6473680">
        <ele>29.4</ele>
        <time>2022-06-19T07:33:17Z</time>
      </trkpt>
      <trkpt lat="42.7082230" lon="-8.6473560">
        <ele>29.4</ele>
        <time>2022-06-19T07:33:18Z</time>
      </trkpt>
      <trkpt lat="42.7082760" lon="-8.6473450">
        <ele>30.4</ele>
        <time>2022-06-19T07:33:19Z</time>
      </trkpt>
      <trkpt lat="42.7083300" lon="-8.6473280">
        <ele>31.2</ele>
        <time>2022-06-19T07:33:20Z</time>
      </trkpt>
      <trkpt lat="42.7083810" lon="-8.6473110">
        <ele>31.2</ele>
        <time>2022-06-19T07:33:21Z</time>
      </trkpt>
      <trkpt lat="42.7084360" lon="-8.6472950">
        <ele>31.2</ele>
        <time>2022-06-19T07:33:22Z</time>
      </trkpt>
      <trkpt lat="42.7084900" lon="-8.6472810">
        <ele>31.2</ele>
        <time>2022-06-19T07:33:23Z</time>
      </trkpt>
      <trkpt lat="42.7085430" lon="-8.6472680">
        <ele>30.4</ele>
        <time>2022-06-19T07:33:24Z</time>
      </trkpt>
      <trkpt lat="42.7085960" lon="-8.6472530">
        <ele>30.4</ele>
        <time>2022-06-19T07:33:25Z</time>
      </trkpt>
      <trkpt lat="42.7086480" lon="-8.6472380">
        <ele>30.4</ele>
        <time>2022-06-19T07:33:26Z</time>
      </trkpt>
      <trkpt lat="42.7086960" lon="-8.6472230">
        <ele>30.8</ele>
        <time>2022-06-19T07:33:27Z</time>
      </trkpt>
      <trkpt lat="42.7087430" lon="-8.6472110">
        <ele>30.8</ele>
        <time>2022-06-19T07:33:28Z</time>
      </trkpt>
      <trkpt lat="42.7087860" lon="-8.6472000">
        <ele>30.8</ele>
        <time>2022-06-19T07:33:29Z</time>
      </trkpt>
      <trkpt lat="42.7088300" lon="-8.6471910">
        <ele>30.8</ele>
        <time>2022-06-19T07:33:30Z</time>
      </trkpt>
      <trkpt lat="42.7088710" lon="-8.6471810">
        <ele>31.6</ele>
        <time>2022-06-19T07:33:31Z</time>
      </trkpt>
      <trkpt lat="42.7089130" lon="-8.6471710">
        <ele>32.2</ele>
        <time>2022-06-19T07:33:32Z</time>
      </trkpt>
      <trkpt lat="42.7089550" lon="-8.6471580">
        <ele>32.2</ele>
        <time>2022-06-19T07:33:33Z</time>
      </trkpt>
      <trkpt lat="42.7089910" lon="-8.6471530">
        <ele>32.2</ele>
        <time>2022-06-19T07:33:34Z</time>
      </trkpt>
      <trkpt lat="42.7090300" lon="-8.6471510">
        <ele>32.2</ele>
        <time>2022-06-19T07:33:35Z</time>
      </trkpt>
      <trkpt lat="42.7090630" lon="-8.6471430">
        <ele>32.2</ele>
        <time>2022-06-19T07:33:36Z</time>
      </trkpt>
      <trkpt lat="42.7090980" lon="-8.6471300">
        <ele>32.2</ele>
        <time>2022-06-19T07:33:37Z</time>
      </trkpt>
      <trkpt lat="42.7091350" lon="-8.6471200">
        <ele>32.2</ele>
        <time>2022-06-19T07:33:38Z</time>
      </trkpt>
      <trkpt lat="42.7091680" lon="-8.6471180">
        <ele>32.2</ele>
        <time>2022-06-19T07:33:39Z</time>
      </trkpt>
      <trkpt lat="42.7091960" lon="-8.6471250">
        <ele>33.0</ele>
        <time>2022-06-19T07:33:40Z</time>
      </trkpt>
      <trkpt lat="42.7092260" lon="-8.6471300">
        <ele>33.0</ele>
        <time>2022-06-19T07:33:41Z</time>
      </trkpt>
      <trkpt lat="42.7092600" lon="-8.6471400">
        <ele>33.0</ele>
        <time>2022-06-19T07:33:42Z</time>
      </trkpt>
      <trkpt lat="42.7092950" lon="-8.6471460">
        <ele>33.0</ele>
        <time>2022-06-19T07:33:43Z</time>
      </trkpt>
      <trkpt lat="42.7093280" lon="-8.6471560">
        <ele>32.8</ele>
        <time>2022-06-19T07:33:44Z</time>
      </trkpt>
      <trkpt lat="42.7093580" lon="-8.6471680">
        <ele>32.8</ele>
        <time>2022-06-19T07:33:45Z</time>
      </trkpt>
      <trkpt lat="42.7093860" lon="-8.6471830">
        <ele>32.8</ele>
        <time>2022-06-19T07:33:46Z</time>
      </trkpt>
      <trkpt lat="42.7094180" lon="-8.6471960">
        <ele>32.8</ele>
        <time>2022-06-19T07:33:47Z</time>
      </trkpt>
      <trkpt lat="42.7094460" lon="-8.6472080">
        <ele>32.8</ele>
        <time>2022-06-19T07:33:48Z</time>
      </trkpt>
      <trkpt lat="42.7094750" lon="-8.6472200">
        <ele>32.8</ele>
        <time>2022-06-19T07:33:49Z</time>
      </trkpt>
      <trkpt lat="42.7095060" lon="-8.6472310">
        <ele>32.8</ele>
        <time>2022-06-19T07:33:50Z</time>
      </trkpt>
      <trkpt lat="42.7095360" lon="-8.6472430">
        <ele>32.8</ele>
        <time>2022-06-19T07:33:51Z</time>
      </trkpt>
      <trkpt lat="42.7095700" lon="-8.6472530">
        <ele>32.6</ele>
        <time>2022-06-19T07:33:52Z</time>
      </trkpt>
      <trkpt lat="42.7096050" lon="-8.6472600">
        <ele>32.6</ele>
        <time>2022-06-19T07:33:53Z</time>
      </trkpt>
      <trkpt lat="42.7096410" lon="-8.6472660">
        <ele>32.6</ele>
        <time>2022-06-19T07:33:54Z</time>
      </trkpt>
      <trkpt lat="42.7096760" lon="-8.6472700">
        <ele>32.6</ele>
        <time>2022-06-19T07:33:55Z</time>
      </trkpt>
      <trkpt lat="42.7097130" lon="-8.6472700">
        <ele>32.8</ele>
        <time>2022-06-19T07:33:56Z</time>
      </trkpt>
      <trkpt lat="42.7097500" lon="-8.6472710">
        <ele>32.8</ele>
        <time>2022-06-19T07:33:57Z</time>
      </trkpt>
      <trkpt lat="42.7097830" lon="-8.6472710">
        <ele>32.8</ele>
        <time>2022-06-19T07:33:58Z</time>
      </trkpt>
      <trkpt lat="42.7098210" lon="-8.6472710">
        <ele>32.2</ele>
        <time>2022-06-19T07:33:59Z</time>
      </trkpt>
      <trkpt lat="42.7098610" lon="-8.6472730">
        <ele>32.4</ele>
        <time>2022-06-19T07:34:00Z</time>
      </trkpt>
      <trkpt lat="42.7099010" lon="-8.6472710">
        <ele>32.4</ele>
        <time>2022-06-19T07:34:01Z</time>
      </trkpt>
      <trkpt lat="42.7099450" lon="-8.6472700">
        <ele>32.4</ele>
        <time>2022-06-19T07:34:02Z</time>
      </trkpt>
      <trkpt lat="42.7099850" lon="-8.6472750">
        <ele>32.2</ele>
        <time>2022-06-19T07:34:03Z</time>
      </trkpt>
      <trkpt lat="42.7100250" lon="-8.6472780">
        <ele>32.0</ele>
        <time>2022-06-19T07:34:04Z</time>
      </trkpt>
      <trkpt lat="42.7100610" lon="-8.6472800">
        <ele>32.0</ele>
        <time>2022-06-19T07:34:05Z</time>
      </trkpt>
      <trkpt lat="42.7101000" lon="-8.6472810">
        <ele>32.0</ele>
        <time>2022-06-19T07:34:06Z</time>
      </trkpt>
      <trkpt lat="42.7101380" lon="-8.6472850">
        <ele>32.0</ele>
        <time>2022-06-19T07:34:07Z</time>
      </trkpt>
      <trkpt lat="42.7101750" lon="-8.6472810">
        <ele>32.2</ele>
        <time>2022-06-19T07:34:08Z</time>
      </trkpt>
      <trkpt lat="42.7102110" lon="-8.6472800">
        <ele>32.2</ele>
        <time>2022-06-19T07:34:09Z</time>
      </trkpt>
      <trkpt lat="42.7102500" lon="-8.6472760">
        <ele>32.2</ele>
        <time>2022-06-19T07:34:10Z</time>
      </trkpt>
      <trkpt lat="42.7102850" lon="-8.6472710">
        <ele>32.2</ele>
        <time>2022-06-19T07:34:11Z</time>
      </trkpt>
      <trkpt lat="42.7103200" lon="-8.6472660">
        <ele>31.8</ele>
        <time>2022-06-19T07:34:12Z</time>
      </trkpt>
      <trkpt lat="42.7103550" lon="-8.6472580">
        <ele>31.8</ele>
        <time>2022-06-19T07:34:13Z</time>
      </trkpt>
      <trkpt lat="42.7103880" lon="-8.6472550">
        <ele>31.8</ele>
        <time>2022-06-19T07:34:14Z</time>
      </trkpt>
      <trkpt lat="42.7104230" lon="-8.6472500">
        <ele>31.8</ele>
        <time>2022-06-19T07:34:15Z</time>
      </trkpt>
      <trkpt lat="42.7104580" lon="-8.6472430">
        <ele>32.2</ele>
        <time>2022-06-19T07:34:16Z</time>
      </trkpt>
      <trkpt lat="42.7104930" lon="-8.6472360">
        <ele>32.2</ele>
        <time>2022-06-19T07:34:17Z</time>
      </trkpt>
      <trkpt lat="42.7105300" lon="-8.6472300">
        <ele>32.2</ele>
        <time>2022-06-19T07:34:18Z</time>
      </trkpt>
      <trkpt lat="42.7105680" lon="-8.6472210">
        <ele>32.2</ele>
        <time>2022-06-19T07:34:19Z</time>
      </trkpt>
      <trkpt lat="42.7106050" lon="-8.6472150">
        <ele>31.8</ele>
        <time>2022-06-19T07:34:20Z</time>
      </trkpt>
      <trkpt lat="42.7106400" lon="-8.6472100">
        <ele>31.8</ele>
        <time>2022-06-19T07:34:21Z</time>
      </trkpt>
      <trkpt lat="42.7106750" lon="-8.6472030">
        <ele>31.8</ele>
        <time>2022-06-19T07:34:22Z</time>
      </trkpt>
      <trkpt lat="42.7107110" lon="-8.6471980">
        <ele>31.8</ele>
        <time>2022-06-19T07:34:23Z</time>
      </trkpt>
      <trkpt lat="42.7107460" lon="-8.6471930">
        <ele>32.0</ele>
        <time>2022-06-19T07:34:24Z</time>
      </trkpt>
      <trkpt lat="42.7107830" lon="-8.6471860">
        <ele>32.0</ele>
        <time>2022-06-19T07:34:25Z</time>
      </trkpt>
      <trkpt lat="42.7108210" lon="-8.6471830">
        <ele>32.0</ele>
        <time>2022-06-19T07:34:26Z</time>
      </trkpt>
      <trkpt lat="42.7108610" lon="-8.6471800">
        <ele>32.0</ele>
        <time>2022-06-19T07:34:27Z</time>
      </trkpt>
      <trkpt lat="42.7108980" lon="-8.6471730">
        <ele>32.4</ele>
        <time>2022-06-19T07:34:28Z</time>
      </trkpt>
      <trkpt lat="42.7109330" lon="-8.6471650">
        <ele>32.4</ele>
        <time>2022-06-19T07:34:29Z</time>
      </trkpt>
      <trkpt lat="42.7109660" lon="-8.6471580">
        <ele>32.4</ele>
        <time>2022-06-19T07:34:30Z</time>
      </trkpt>
      <trkpt lat="42.7110010" lon="-8.6471500">
        <ele>32.4</ele>
        <time>2022-06-19T07:34:31Z</time>
      </trkpt>
      <trkpt lat="42.7110350" lon="-8.6471410">
        <ele>32.4</ele>
        <time>2022-06-19T07:34:32Z</time>
      </trkpt>
      <trkpt lat="42.7110680" lon="-8.6471360">
        <ele>32.4</ele>
        <time>2022-06-19T07:34:33Z</time>
      </trkpt>
      <trkpt lat="42.7111010" lon="-8.6471310">
        <ele>32.4</ele>
        <time>2022-06-19T07:34:34Z</time>
      </trkpt>
      <trkpt lat="42.7111360" lon="-8.6471250">
        <ele>32.8</ele>
        <time>2022-06-19T07:34:35Z</time>
      </trkpt>
      <trkpt lat="42.7111660" lon="-8.6471180">
        <ele>32.8</ele>
        <time>2022-06-19T07:34:36Z</time>
      </trkpt>
      <trkpt lat="42.7111960" lon="-8.6471130">
        <ele>32.8</ele>
        <time>2022-06-19T07:34:37Z</time>
      </trkpt>
      <trkpt lat="42.7112230" lon="-8.6471110">
        <ele>32.8</ele>
        <time>2022-06-19T07:34:38Z</time>
      </trkpt>
      <trkpt lat="42.7112510" lon="-8.6471100">
        <ele>32.8</ele>
        <time>2022-06-19T07:34:39Z</time>
      </trkpt>
      <trkpt lat="42.7112760" lon="-8.6471050">
        <ele>33.0</ele>
        <time>2022-06-19T07:34:40Z</time>
      </trkpt>
      <trkpt lat="42.7113010" lon="-8.6471000">
        <ele>33.0</ele>
        <time>2022-06-19T07:34:41Z</time>
      </trkpt>
      <trkpt lat="42.7113230" lon="-8.6470910">
        <ele>33.0</ele>
        <time>2022-06-19T07:34:42Z</time>
      </trkpt>
      <trkpt lat="42.7113430" lon="-8.6470800">
        <ele>33.6</ele>
        <time>2022-06-19T07:34:43Z</time>
      </trkpt>
      <trkpt lat="42.7113610" lon="-8.6470700">
        <ele>33.8</ele>
        <time>2022-06-19T07:34:44Z</time>
      </trkpt>
      <trkpt lat="42.7113850" lon="-8.6470610">
        <ele>33.8</ele>
        <time>2022-06-19T07:34:45Z</time>
      </trkpt>
      <trkpt lat="42.7114110" lon="-8.6470580">
        <ele>33.8</ele>
        <time>2022-06-19T07:34:46Z</time>
      </trkpt>
      <trkpt lat="42.7114330" lon="-8.6470580">
        <ele>33.8</ele>
        <time>2022-06-19T07:34:47Z</time>
      </trkpt>
      <trkpt lat="42.7114550" lon="-8.6470600">
        <ele>34.2</ele>
        <time>2022-06-19T07:34:48Z</time>
      </trkpt>
      <trkpt lat="42.7114750" lon="-8.6470650">
        <ele>34.2</ele>
        <time>2022-06-19T07:34:49Z</time>
      </trkpt>
      <trkpt lat="42.7114900" lon="-8.6470710">
        <ele>34.2</ele>
        <time>2022-06-19T07:34:50Z</time>
      </trkpt>
      <trkpt lat="42.7115100" lon="-8.6470700">
        <ele>34.2</ele>
        <time>2022-06-19T07:34:51Z</time>
      </trkpt>
      <trkpt lat="42.7115310" lon="-8.6470650">
        <ele>34.8</ele>
        <time>2022-06-19T07:34:52Z</time>
      </trkpt>
      <trkpt lat="42.7115530" lon="-8.6470650">
        <ele>34.8</ele>
        <time>2022-06-19T07:34:53Z</time>
      </trkpt>
      <trkpt lat="42.7115760" lon="-8.6470630">
        <ele>34.8</ele>
        <time>2022-06-19T07:34:54Z</time>
      </trkpt>
      <trkpt lat="42.7115980" lon="-8.6470610">
        <ele>34.8</ele>
        <time>2022-06-19T07:34:55Z</time>
      </trkpt>
      <trkpt lat="42.7116210" lon="-8.6470610">
        <ele>34.8</ele>
        <time>2022-06-19T07:34:56Z</time>
      </trkpt>
      <trkpt lat="42.7116410" lon="-8.6470610">
        <ele>34.8</ele>
        <time>2022-06-19T07:34:57Z</time>
      </trkpt>
      <trkpt lat="42.7116610" lon="-8.6470610">
        <ele>34.8</ele>
        <time>2022-06-19T07:34:58Z</time>
      </trkpt>
      <trkpt lat="42.7116800" lon="-8.6470660">
        <ele>35.0</ele>
        <time>2022-06-19T07:34:59Z</time>
      </trkpt>
      <trkpt lat="42.7116960" lon="-8.6470730">
        <ele>35.0</ele>
        <time>2022-06-19T07:35:00Z</time>
      </trkpt>
      <trkpt lat="42.7117160" lon="-8.6470710">
        <ele>35.0</ele>
        <time>2022-06-19T07:35:01Z</time>
      </trkpt>
      <trkpt lat="42.7117360" lon="-8.6470730">
        <ele>35.0</ele>
        <time>2022-06-19T07:35:02Z</time>
      </trkpt>
      <trkpt lat="42.7117560" lon="-8.6470730">
        <ele>35.0</ele>
        <time>2022-06-19T07:35:03Z</time>
      </trkpt>
      <trkpt lat="42.7117800" lon="-8.6470730">
        <ele>34.6</ele>
        <time>2022-06-19T07:35:04Z</time>
      </trkpt>
      <trkpt lat="42.7118050" lon="-8.6470730">
        <ele>34.6</ele>
        <time>2022-06-19T07:35:05Z</time>
      </trkpt>
      <trkpt lat="42.7118300" lon="-8.6470700">
        <ele>34.6</ele>
        <time>2022-06-19T07:35:06Z</time>
      </trkpt>
      <trkpt lat="42.7118500" lon="-8.6470710">
        <ele>34.6</ele>
        <time>2022-06-19T07:35:07Z</time>
      </trkpt>
      <trkpt lat="42.7118700" lon="-8.6470710">
        <ele>34.6</ele>
        <time>2022-06-19T07:35:08Z</time>
      </trkpt>
      <trkpt lat="42.7118860" lon="-8.6470710">
        <ele>34.6</ele>
        <time>2022-06-19T07:35:09Z</time>
      </trkpt>
      <trkpt lat="42.7119000" lon="-8.6470660">
        <ele>34.6</ele>
        <time>2022-06-19T07:35:10Z</time>
      </trkpt>
      <trkpt lat="42.7119110" lon="-8.6470630">
        <ele>34.6</ele>
        <time>2022-06-19T07:35:11Z</time>
      </trkpt>
      <trkpt lat="42.7119150" lon="-8.6470630">
        <ele>34.0</ele>
        <time>2022-06-19T07:35:12Z</time>
      </trkpt>
      <trkpt lat="42.7119360" lon="-8.6470710">
        <ele>33.8</ele>
        <time>2022-06-19T07:35:31Z</time>
      </trkpt>
      <trkpt lat="42.7119560" lon="-8.6470810">
        <ele>33.6</ele>
        <time>2022-06-19T07:35:32Z</time>
      </trkpt>
      <trkpt lat="42.7119800" lon="-8.6470910">
        <ele>33.6</ele>
        <time>2022-06-19T07:35:33Z</time>
      </trkpt>
      <trkpt lat="42.7120050" lon="-8.6471060">
        <ele>33.6</ele>
        <time>2022-06-19T07:35:34Z</time>
      </trkpt>
      <trkpt lat="42.7120350" lon="-8.6471180">
        <ele>33.6</ele>
        <time>2022-06-19T07:35:35Z</time>
      </trkpt>
      <trkpt lat="42.7120660" lon="-8.6471180">
        <ele>32.8</ele>
        <time>2022-06-19T07:35:36Z</time>
      </trkpt>
      <trkpt lat="42.7120980" lon="-8.6471150">
        <ele>32.8</ele>
        <time>2022-06-19T07:35:37Z</time>
      </trkpt>
      <trkpt lat="42.7121360" lon="-8.6471160">
        <ele>32.8</ele>
        <time>2022-06-19T07:35:38Z</time>
      </trkpt>
      <trkpt lat="42.7121750" lon="-8.6471210">
        <ele>32.2</ele>
        <time>2022-06-19T07:35:39Z</time>
      </trkpt>
      <trkpt lat="42.7122100" lon="-8.6471280">
        <ele>32.2</ele>
        <time>2022-06-19T07:35:40Z</time>
      </trkpt>
      <trkpt lat="42.7122460" lon="-8.6471350">
        <ele>32.2</ele>
        <time>2022-06-19T07:35:41Z</time>
      </trkpt>
      <trkpt lat="42.7122830" lon="-8.6471430">
        <ele>32.2</ele>
        <time>2022-06-19T07:35:42Z</time>
      </trkpt>
      <trkpt lat="42.7123200" lon="-8.6471500">
        <ele>32.6</ele>
        <time>2022-06-19T07:35:43Z</time>
      </trkpt>
      <trkpt lat="42.7123530" lon="-8.6471550">
        <ele>32.2</ele>
        <time>2022-06-19T07:35:44Z</time>
      </trkpt>
      <trkpt lat="42.7123880" lon="-8.6471560">
        <ele>32.2</ele>
        <time>2022-06-19T07:35:45Z</time>
      </trkpt>
      <trkpt lat="42.7124200" lon="-8.6471630">
        <ele>32.2</ele>
        <time>2022-06-19T07:35:46Z</time>
      </trkpt>
      <trkpt lat="42.7124500" lon="-8.6471710">
        <ele>32.8</ele>
        <time>2022-06-19T07:35:47Z</time>
      </trkpt>
      <trkpt lat="42.7124800" lon="-8.6471750">
        <ele>32.8</ele>
        <time>2022-06-19T07:35:48Z</time>
      </trkpt>
      <trkpt lat="42.7125080" lon="-8.6471780">
        <ele>32.8</ele>
        <time>2022-06-19T07:35:49Z</time>
      </trkpt>
      <trkpt lat="42.7125360" lon="-8.6471800">
        <ele>32.8</ele>
        <time>2022-06-19T07:35:50Z</time>
      </trkpt>
      <trkpt lat="42.7125630" lon="-8.6471880">
        <ele>32.8</ele>
        <time>2022-06-19T07:35:51Z</time>
      </trkpt>
      <trkpt lat="42.7125910" lon="-8.6471950">
        <ele>34.6</ele>
        <time>2022-06-19T07:35:52Z</time>
      </trkpt>
      <trkpt lat="42.7126200" lon="-8.6472010">
        <ele>34.6</ele>
        <time>2022-06-19T07:35:53Z</time>
      </trkpt>
      <trkpt lat="42.7126480" lon="-8.6472010">
        <ele>34.6</ele>
        <time>2022-06-19T07:35:54Z</time>
      </trkpt>
      <trkpt lat="42.7126750" lon="-8.6472050">
        <ele>33.6</ele>
        <time>2022-06-19T07:35:55Z</time>
      </trkpt>
      <trkpt lat="42.7127010" lon="-8.6472110">
        <ele>39.6</ele>
        <time>2022-06-19T07:35:56Z</time>
      </trkpt>
      <trkpt lat="42.7127280" lon="-8.6472160">
        <ele>39.6</ele>
        <time>2022-06-19T07:35:57Z</time>
      </trkpt>
      <trkpt lat="42.7127550" lon="-8.6472150">
        <ele>39.6</ele>
        <time>2022-06-19T07:35:58Z</time>
      </trkpt>
      <trkpt lat="42.7127830" lon="-8.6472150">
        <ele>38.6</ele>
        <time>2022-06-19T07:35:59Z</time>
      </trkpt>
      <trkpt lat="42.7128100" lon="-8.6472180">
        <ele>32.8</ele>
        <time>2022-06-19T07:36:00Z</time>
      </trkpt>
      <trkpt lat="42.7128350" lon="-8.6472260">
        <ele>32.8</ele>
        <time>2022-06-19T07:36:01Z</time>
      </trkpt>
      <trkpt lat="42.7128610" lon="-8.6472300">
        <ele>32.8</ele>
        <time>2022-06-19T07:36:02Z</time>
      </trkpt>
      <trkpt lat="42.7128900" lon="-8.6472400">
        <ele>32.8</ele>
        <time>2022-06-19T07:36:03Z</time>
      </trkpt>
      <trkpt lat="42.7129180" lon="-8.6472510">
        <ele>33.6</ele>
        <time>2022-06-19T07:36:04Z</time>
      </trkpt>
      <trkpt lat="42.7129480" lon="-8.6472560">
        <ele>33.6</ele>
        <time>2022-06-19T07:36:05Z</time>
      </trkpt>
      <trkpt lat="42.7129750" lon="-8.6472650">
        <ele>33.6</ele>
        <time>2022-06-19T07:36:06Z</time>
      </trkpt>
      <trkpt lat="42.7130010" lon="-8.6472730">
        <ele>32.6</ele>
        <time>2022-06-19T07:36:07Z</time>
      </trkpt>
      <trkpt lat="42.7130300" lon="-8.6472830">
        <ele>32.4</ele>
        <time>2022-06-19T07:36:08Z</time>
      </trkpt>
      <trkpt lat="42.7130550" lon="-8.6472910">
        <ele>32.4</ele>
        <time>2022-06-19T07:36:09Z</time>
      </trkpt>
      <trkpt lat="42.7130850" lon="-8.6472960">
        <ele>32.4</ele>
        <time>2022-06-19T07:36:10Z</time>
      </trkpt>
      <trkpt lat="42.7131130" lon="-8.6473080">
        <ele>32.4</ele>
        <time>2022-06-19T07:36:11Z</time>
      </trkpt>
      <trkpt lat="42.7131410" lon="-8.6473160">
        <ele>32.6</ele>
        <time>2022-06-19T07:36:12Z</time>
      </trkpt>
      <trkpt lat="42.7131660" lon="-8.6473310">
        <ele>32.6</ele>
        <time>2022-06-19T07:36:13Z</time>
      </trkpt>
      <trkpt lat="42.7131910" lon="-8.6473410">
        <ele>32.6</ele>
        <time>2022-06-19T07:36:14Z</time>
      </trkpt>
      <trkpt lat="42.7132180" lon="-8.6473500">
        <ele>32.6</ele>
        <time>2022-06-19T07:36:15Z</time>
      </trkpt>
      <trkpt lat="42.7132430" lon="-8.6473600">
        <ele>32.8</ele>
        <time>2022-06-19T07:36:16Z</time>
      </trkpt>
      <trkpt lat="42.7132680" lon="-8.6473700">
        <ele>32.8</ele>
        <time>2022-06-19T07:36:17Z</time>
      </trkpt>
      <trkpt lat="42.7132930" lon="-8.6473780">
        <ele>32.8</ele>
        <time>2022-06-19T07:36:18Z</time>
      </trkpt>
      <trkpt lat="42.7133160" lon="-8.6473880">
        <ele>32.8</ele>
        <time>2022-06-19T07:36:19Z</time>
      </trkpt>
      <trkpt lat="42.7133360" lon="-8.6473960">
        <ele>31.8</ele>
        <time>2022-06-19T07:36:20Z</time>
      </trkpt>
      <trkpt lat="42.7133610" lon="-8.6474060">
        <ele>31.8</ele>
        <time>2022-06-19T07:36:21Z</time>
      </trkpt>
      <trkpt lat="42.7133860" lon="-8.6474200">
        <ele>31.8</ele>
        <time>2022-06-19T07:36:22Z</time>
      </trkpt>
      <trkpt lat="42.7134130" lon="-8.6474310">
        <ele>32.2</ele>
        <time>2022-06-19T07:36:23Z</time>
      </trkpt>
      <trkpt lat="42.7134380" lon="-8.6474430">
        <ele>31.8</ele>
        <time>2022-06-19T07:36:24Z</time>
      </trkpt>
      <trkpt lat="42.7134630" lon="-8.6474610">
        <ele>31.8</ele>
        <time>2022-06-19T07:36:25Z</time>
      </trkpt>
      <trkpt lat="42.7134880" lon="-8.6474760">
        <ele>31.8</ele>
        <time>2022-06-19T07:36:26Z</time>
      </trkpt>
      <trkpt lat="42.7135180" lon="-8.6474910">
        <ele>32.2</ele>
        <time>2022-06-19T07:36:27Z</time>
      </trkpt>
      <trkpt lat="42.7135430" lon="-8.6475100">
        <ele>32.2</ele>
        <time>2022-06-19T07:36:28Z</time>
      </trkpt>
      <trkpt lat="42.7135700" lon="-8.6475250">
        <ele>32.2</ele>
        <time>2022-06-19T07:36:29Z</time>
      </trkpt>
      <trkpt lat="42.7135980" lon="-8.6475380">
        <ele>32.2</ele>
        <time>2022-06-19T07:36:30Z</time>
      </trkpt>
      <trkpt lat="42.7136230" lon="-8.6475500">
        <ele>32.2</ele>
        <time>2022-06-19T07:36:31Z</time>
      </trkpt>
      <trkpt lat="42.7136480" lon="-8.6475630">
        <ele>32.0</ele>
        <time>2022-06-19T07:36:32Z</time>
      </trkpt>
      <trkpt lat="42.7136730" lon="-8.6475750">
        <ele>32.0</ele>
        <time>2022-06-19T07:36:33Z</time>
      </trkpt>
      <trkpt lat="42.7136960" lon="-8.6475860">
        <ele>32.0</ele>
        <time>2022-06-19T07:36:34Z</time>
      </trkpt>
      <trkpt lat="42.7137160" lon="-8.6476010">
        <ele>32.0</ele>
        <time>2022-06-19T07:36:35Z</time>
      </trkpt>
      <trkpt lat="42.7137350" lon="-8.6476150">
        <ele>32.0</ele>
        <time>2022-06-19T07:36:36Z</time>
      </trkpt>
      <trkpt lat="42.7137560" lon="-8.6476250">
        <ele>32.0</ele>
        <time>2022-06-19T07:36:37Z</time>
      </trkpt>
      <trkpt lat="42.7137780" lon="-8.6476350">
        <ele>32.0</ele>
        <time>2022-06-19T07:36:38Z</time>
      </trkpt>
      <trkpt lat="42.7141930" lon="-8.6478480">
        <ele>31.8</ele>
        <time>2022-06-19T07:36:54Z</time>
      </trkpt>
      <trkpt lat="42.7142180" lon="-8.6478660">
        <ele>31.8</ele>
        <time>2022-06-19T07:36:55Z</time>
      </trkpt>
      <trkpt lat="42.7142450" lon="-8.6478860">
        <ele>31.6</ele>
        <time>2022-06-19T07:36:56Z</time>
      </trkpt>
      <trkpt lat="42.7142680" lon="-8.6479030">
        <ele>31.6</ele>
        <time>2022-06-19T07:36:57Z</time>
      </trkpt>
      <trkpt lat="42.7142930" lon="-8.6479200">
        <ele>31.6</ele>
        <time>2022-06-19T07:36:58Z</time>
      </trkpt>
      <trkpt lat="42.7143200" lon="-8.6479330">
        <ele>31.6</ele>
        <time>2022-06-19T07:36:59Z</time>
      </trkpt>
      <trkpt lat="42.7143500" lon="-8.6479500">
        <ele>31.6</ele>
        <time>2022-06-19T07:37:00Z</time>
      </trkpt>
      <trkpt lat="42.7143800" lon="-8.6479650">
        <ele>31.6</ele>
        <time>2022-06-19T07:37:01Z</time>
      </trkpt>
      <trkpt lat="42.7144110" lon="-8.6479830">
        <ele>31.6</ele>
        <time>2022-06-19T07:37:02Z</time>
      </trkpt>
      <trkpt lat="42.7144410" lon="-8.6480010">
        <ele>31.6</ele>
        <time>2022-06-19T07:37:03Z</time>
      </trkpt>
      <trkpt lat="42.7144700" lon="-8.6480150">
        <ele>31.8</ele>
        <time>2022-06-19T07:37:04Z</time>
      </trkpt>
      <trkpt lat="42.7144950" lon="-8.6480260">
        <ele>31.8</ele>
        <time>2022-06-19T07:37:05Z</time>
      </trkpt>
      <trkpt lat="42.7145180" lon="-8.6480310">
        <ele>31.8</ele>
        <time>2022-06-19T07:37:06Z</time>
      </trkpt>
      <trkpt lat="42.7145330" lon="-8.6480300">
        <ele>32.2</ele>
        <time>2022-06-19T07:37:07Z</time>
      </trkpt>
      <trkpt lat="42.7145430" lon="-8.6480300">
        <ele>32.4</ele>
        <time>2022-06-19T07:37:08Z</time>
      </trkpt>
      <trkpt lat="42.7145530" lon="-8.6480300">
        <ele>32.4</ele>
        <time>2022-06-19T07:37:09Z</time>
      </trkpt>
      <trkpt lat="42.7145660" lon="-8.6480330">
        <ele>32.4</ele>
        <time>2022-06-19T07:37:10Z</time>
      </trkpt>
      <trkpt lat="42.7145810" lon="-8.6480380">
        <ele>32.4</ele>
        <time>2022-06-19T07:37:11Z</time>
      </trkpt>
      <trkpt lat="42.7145950" lon="-8.6480430">
        <ele>32.4</ele>
        <time>2022-06-19T07:37:12Z</time>
      </trkpt>
      <trkpt lat="42.7146030" lon="-8.6480480">
        <ele>32.4</ele>
        <time>2022-06-19T07:37:13Z</time>
      </trkpt>
      <trkpt lat="42.7146110" lon="-8.6480510">
        <ele>32.4</ele>
        <time>2022-06-19T07:37:14Z</time>
      </trkpt>
      <trkpt lat="42.7146180" lon="-8.6480550">
        <ele>32.6</ele>
        <time>2022-06-19T07:37:15Z</time>
      </trkpt>
      <trkpt lat="42.7146200" lon="-8.6480560">
        <ele>32.8</ele>
        <time>2022-06-19T07:37:16Z</time>
      </trkpt>
      <trkpt lat="42.7146200" lon="-8.6480560">
        <ele>32.8</ele>
        <time>2022-06-19T07:37:17Z</time>
      </trkpt>
      <trkpt lat="42.7146100" lon="-8.6480810">
        <ele>32.2</ele>
        <time>2022-06-19T07:37:39Z</time>
      </trkpt>
      <trkpt lat="42.7145950" lon="-8.6480810">
        <ele>32.4</ele>
        <time>2022-06-19T07:37:40Z</time>
      </trkpt>
      <trkpt lat="42.7145730" lon="-8.6480680">
        <ele>32.4</ele>
        <time>2022-06-19T07:37:41Z</time>
      </trkpt>
      <trkpt lat="42.7145480" lon="-8.6480580">
        <ele>32.4</ele>
        <time>2022-06-19T07:37:42Z</time>
      </trkpt>
      <trkpt lat="42.7145200" lon="-8.6480460">
        <ele>31.4</ele>
        <time>2022-06-19T07:37:43Z</time>
      </trkpt>
      <trkpt lat="42.7144910" lon="-8.6480360">
        <ele>30.8</ele>
        <time>2022-06-19T07:37:44Z</time>
      </trkpt>
      <trkpt lat="42.7144650" lon="-8.6480210">
        <ele>30.8</ele>
        <time>2022-06-19T07:37:45Z</time>
      </trkpt>
      <trkpt lat="42.7144410" lon="-8.6480060">
        <ele>30.8</ele>
        <time>2022-06-19T07:37:46Z</time>
      </trkpt>
      <trkpt lat="42.7144160" lon="-8.6479980">
        <ele>30.8</ele>
        <time>2022-06-19T07:37:47Z</time>
      </trkpt>
      <trkpt lat="42.7143900" lon="-8.6479930">
        <ele>31.0</ele>
        <time>2022-06-19T07:37:48Z</time>
      </trkpt>
      <trkpt lat="42.7143630" lon="-8.6479810">
        <ele>31.0</ele>
        <time>2022-06-19T07:37:49Z</time>
      </trkpt>
      <trkpt lat="42.7143410" lon="-8.6479700">
        <ele>31.0</ele>
        <time>2022-06-19T07:37:50Z</time>
      </trkpt>
      <trkpt lat="42.7143180" lon="-8.6479580">
        <ele>31.6</ele>
        <time>2022-06-19T07:37:51Z</time>
      </trkpt>
      <trkpt lat="42.7142960" lon="-8.6479450">
        <ele>31.2</ele>
        <time>2022-06-19T07:37:52Z</time>
      </trkpt>
      <trkpt lat="42.7142750" lon="-8.6479400">
        <ele>31.2</ele>
        <time>2022-06-19T07:37:53Z</time>
      </trkpt>
      <trkpt lat="42.7142510" lon="-8.6479430">
        <ele>31.2</ele>
        <time>2022-06-19T07:37:54Z</time>
      </trkpt>
      <trkpt lat="42.7142300" lon="-8.6479380">
        <ele>32.2</ele>
        <time>2022-06-19T07:37:55Z</time>
      </trkpt>
      <trkpt lat="42.7142200" lon="-8.6479200">
        <ele>32.2</ele>
        <time>2022-06-19T07:37:56Z</time>
      </trkpt>
      <trkpt lat="42.7142260" lon="-8.6478980">
        <ele>32.2</ele>
        <time>2022-06-19T07:37:57Z</time>
      </trkpt>
      <trkpt lat="42.7142480" lon="-8.6478930">
        <ele>32.2</ele>
        <time>2022-06-19T07:37:58Z</time>
      </trkpt>
      <trkpt lat="42.7142710" lon="-8.6479030">
        <ele>32.2</ele>
        <time>2022-06-19T07:37:59Z</time>
      </trkpt>
      <trkpt lat="42.7142980" lon="-8.6479160">
        <ele>32.4</ele>
        <time>2022-06-19T07:38:00Z</time>
      </trkpt>
      <trkpt lat="42.7143210" lon="-8.6479280">
        <ele>32.4</ele>
        <time>2022-06-19T07:38:01Z</time>
      </trkpt>
      <trkpt lat="42.7143430" lon="-8.6479360">
        <ele>32.4</ele>
        <time>2022-06-19T07:38:02Z</time>
      </trkpt>
      <trkpt lat="42.7143600" lon="-8.6479430">
        <ele>32.4</ele>
        <time>2022-06-19T07:38:03Z</time>
      </trkpt>
      <trkpt lat="42.7143750" lon="-8.6479480">
        <ele>32.6</ele>
        <time>2022-06-19T07:38:04Z</time>
      </trkpt>
      <trkpt lat="42.7143880" lon="-8.6479550">
        <ele>32.6</ele>
        <time>2022-06-19T07:38:05Z</time>
      </trkpt>
      <trkpt lat="42.7143980" lon="-8.6479650">
        <ele>32.6</ele>
        <time>2022-06-19T07:38:06Z</time>
      </trkpt>
      <trkpt lat="42.7143930" lon="-8.6479800">
        <ele>32.6</ele>
        <time>2022-06-19T07:38:07Z</time>
      </trkpt>
      <trkpt lat="42.7143810" lon="-8.6479830">
        <ele>32.2</ele>
        <time>2022-06-19T07:38:08Z</time>
      </trkpt>
      <trkpt lat="42.7143660" lon="-8.6479750">
        <ele>32.2</ele>
        <time>2022-06-19T07:38:09Z</time>
      </trkpt>
      <trkpt lat="42.7143510" lon="-8.6479630">
        <ele>32.2</ele>
        <time>2022-06-19T07:38:10Z</time>
      </trkpt>
      <trkpt lat="42.7143310" lon="-8.6479530">
        <ele>32.2</ele>
        <time>2022-06-19T07:38:11Z</time>
      </trkpt>
      <trkpt lat="42.7143080" lon="-8.6479430">
        <ele>30.8</ele>
        <time>2022-06-19T07:38:12Z</time>
      </trkpt>
      <trkpt lat="42.7142880" lon="-8.6479350">
        <ele>30.8</ele>
        <time>2022-06-19T07:38:13Z</time>
      </trkpt>
      <trkpt lat="42.7142660" lon="-8.6479310">
        <ele>30.8</ele>
        <time>2022-06-19T07:38:14Z</time>
      </trkpt>
      <trkpt lat="42.7142410" lon="-8.6479310">
        <ele>30.8</ele>
        <time>2022-06-19T07:38:15Z</time>
      </trkpt>
      <trkpt lat="42.7142160" lon="-8.6479250">
        <ele>31.8</ele>
        <time>2022-06-19T07:38:16Z</time>
      </trkpt>
      <trkpt lat="42.7141960" lon="-8.6479130">
        <ele>31.8</ele>
        <time>2022-06-19T07:38:17Z</time>
      </trkpt>
      <trkpt lat="42.7141800" lon="-8.6479000">
        <ele>31.8</ele>
        <time>2022-06-19T07:38:18Z</time>
      </trkpt>
      <trkpt lat="42.7141730" lon="-8.6478810">
        <ele>32.8</ele>
        <time>2022-06-19T07:38:19Z</time>
      </trkpt>
      <trkpt lat="42.7141830" lon="-8.6478630">
        <ele>32.8</ele>
        <time>2022-06-19T07:38:20Z</time>
      </trkpt>
      <trkpt lat="42.7141960" lon="-8.6478580">
        <ele>32.8</ele>
        <time>2022-06-19T07:38:21Z</time>
      </trkpt>
      <trkpt lat="42.7142130" lon="-8.6478660">
        <ele>32.8</ele>
        <time>2022-06-19T07:38:22Z</time>
      </trkpt>
      <trkpt lat="42.7142310" lon="-8.6478780">
        <ele>32.4</ele>
        <time>2022-06-19T07:38:23Z</time>
      </trkpt>
      <trkpt lat="42.7142510" lon="-8.6478900">
        <ele>31.8</ele>
        <time>2022-06-19T07:38:24Z</time>
      </trkpt>
      <trkpt lat="42.7142730" lon="-8.6479030">
        <ele>31.8</ele>
        <time>2022-06-19T07:38:25Z</time>
      </trkpt>
      <trkpt lat="42.7142980" lon="-8.6479150">
        <ele>31.8</ele>
        <time>2022-06-19T07:38:26Z</time>
      </trkpt>
      <trkpt lat="42.7143230" lon="-8.6479260">
        <ele>32.4</ele>
        <time>2022-06-19T07:38:27Z</time>
      </trkpt>
      <trkpt lat="42.7143400" lon="-8.6479400">
        <ele>32.4</ele>
        <time>2022-06-19T07:38:28Z</time>
      </trkpt>
      <trkpt lat="42.7143560" lon="-8.6479480">
        <ele>32.4</ele>
        <time>2022-06-19T07:38:29Z</time>
      </trkpt>
      <trkpt lat="42.7143710" lon="-8.6479550">
        <ele>32.4</ele>
        <time>2022-06-19T07:38:30Z</time>
      </trkpt>
      <trkpt lat="42.7143880" lon="-8.6479610">
        <ele>32.4</ele>
        <time>2022-06-19T07:38:31Z</time>
      </trkpt>
      <trkpt lat="42.7144080" lon="-8.6479680">
        <ele>32.8</ele>
        <time>2022-06-19T07:38:32Z</time>
      </trkpt>
      <trkpt lat="42.7144310" lon="-8.6479780">
        <ele>32.8</ele>
        <time>2022-06-19T07:38:33Z</time>
      </trkpt>
      <trkpt lat="42.7144530" lon="-8.6479880">
        <ele>32.8</ele>
        <time>2022-06-19T07:38:34Z</time>
      </trkpt>
      <trkpt lat="42.7144780" lon="-8.6479960">
        <ele>32.2</ele>
        <time>2022-06-19T07:38:35Z</time>
      </trkpt>
      <trkpt lat="42.7145050" lon="-8.6480080">
        <ele>32.8</ele>
        <time>2022-06-19T07:38:36Z</time>
      </trkpt>
      <trkpt lat="42.7145300" lon="-8.6480160">
        <ele>32.8</ele>
        <time>2022-06-19T07:38:37Z</time>
      </trkpt>
      <trkpt lat="42.7145560" lon="-8.6480230">
        <ele>32.8</ele>
        <time>2022-06-19T07:38:38Z</time>
      </trkpt>
      <trkpt lat="42.7145850" lon="-8.6480330">
        <ele>32.6</ele>
        <time>2022-06-19T07:38:39Z</time>
      </trkpt>
      <trkpt lat="42.7146100" lon="-8.6480450">
        <ele>32.8</ele>
        <time>2022-06-19T07:38:40Z</time>
      </trkpt>
      <trkpt lat="42.7146350" lon="-8.6480550">
        <ele>32.8</ele>
        <time>2022-06-19T07:38:41Z</time>
      </trkpt>
      <trkpt lat="42.7146580" lon="-8.6480630">
        <ele>32.8</ele>
        <time>2022-06-19T07:38:42Z</time>
      </trkpt>
      <trkpt lat="42.7146830" lon="-8.6480730">
        <ele>32.8</ele>
        <time>2022-06-19T07:38:43Z</time>
      </trkpt>
      <trkpt lat="42.7147110" lon="-8.6480810">
        <ele>32.6</ele>
        <time>2022-06-19T07:38:44Z</time>
      </trkpt>
      <trkpt lat="42.7147410" lon="-8.6480910">
        <ele>32.6</ele>
        <time>2022-06-19T07:38:45Z</time>
      </trkpt>
      <trkpt lat="42.7147730" lon="-8.6481050">
        <ele>32.6</ele>
        <time>2022-06-19T07:38:46Z</time>
      </trkpt>
      <trkpt lat="42.7148010" lon="-8.6481180">
        <ele>32.6</ele>
        <time>2022-06-19T07:38:47Z</time>
      </trkpt>
      <trkpt lat="42.7148330" lon="-8.6481260">
        <ele>32.6</ele>
        <time>2022-06-19T07:38:48Z</time>
      </trkpt>
      <trkpt lat="42.7148630" lon="-8.6481380">
        <ele>32.6</ele>
        <time>2022-06-19T07:38:49Z</time>
      </trkpt>
      <trkpt lat="42.7148950" lon="-8.6481460">
        <ele>32.6</ele>
        <time>2022-06-19T07:38:50Z</time>
      </trkpt>
      <trkpt lat="42.7149260" lon="-8.6481550">
        <ele>32.6</ele>
        <time>2022-06-19T07:38:51Z</time>
      </trkpt>
      <trkpt lat="42.7149580" lon="-8.6481630">
        <ele>32.6</ele>
        <time>2022-06-19T07:38:52Z</time>
      </trkpt>
      <trkpt lat="42.7149880" lon="-8.6481710">
        <ele>32.6</ele>
        <time>2022-06-19T07:38:53Z</time>
      </trkpt>
      <trkpt lat="42.7150180" lon="-8.6481760">
        <ele>32.6</ele>
        <time>2022-06-19T07:38:54Z</time>
      </trkpt>
      <trkpt lat="42.7150460" lon="-8.6481810">
        <ele>32.6</ele>
        <time>2022-06-19T07:38:55Z</time>
      </trkpt>
      <trkpt lat="42.7150730" lon="-8.6481850">
        <ele>32.8</ele>
        <time>2022-06-19T07:38:56Z</time>
      </trkpt>
      <trkpt lat="42.7150930" lon="-8.6481860">
        <ele>32.8</ele>
        <time>2022-06-19T07:38:57Z</time>
      </trkpt>
      <trkpt lat="42.7151050" lon="-8.6481860">
        <ele>32.8</ele>
        <time>2022-06-19T07:38:58Z</time>
      </trkpt>
      <trkpt lat="42.7151050" lon="-8.6481860">
        <ele>33.6</ele>
        <time>2022-06-19T07:38:59Z</time>
      </trkpt>
      <trkpt lat="42.7151430" lon="-8.6482030">
        <ele>32.8</ele>
        <time>2022-06-19T07:39:12Z</time>
      </trkpt>
      <trkpt lat="42.7151610" lon="-8.6482200">
        <ele>32.8</ele>
        <time>2022-06-19T07:39:13Z</time>
      </trkpt>
      <trkpt lat="42.7151810" lon="-8.6482350">
        <ele>32.8</ele>
        <time>2022-06-19T07:39:14Z</time>
      </trkpt>
      <trkpt lat="42.7151980" lon="-8.6482510">
        <ele>32.8</ele>
        <time>2022-06-19T07:39:15Z</time>
      </trkpt>
      <trkpt lat="42.7152160" lon="-8.6482610">
        <ele>32.6</ele>
        <time>2022-06-19T07:39:16Z</time>
      </trkpt>
      <trkpt lat="42.7152350" lon="-8.6482660">
        <ele>32.6</ele>
        <time>2022-06-19T07:39:17Z</time>
      </trkpt>
      <trkpt lat="42.7152580" lon="-8.6482680">
        <ele>32.6</ele>
        <time>2022-06-19T07:39:18Z</time>
      </trkpt>
      <trkpt lat="42.7152810" lon="-8.6482650">
        <ele>32.6</ele>
        <time>2022-06-19T07:39:19Z</time>
      </trkpt>
      <trkpt lat="42.7153060" lon="-8.6482630">
        <ele>32.6</ele>
        <time>2022-06-19T07:39:20Z</time>
      </trkpt>
      <trkpt lat="42.7153310" lon="-8.6482630">
        <ele>32.6</ele>
        <time>2022-06-19T07:39:21Z</time>
      </trkpt>
      <trkpt lat="42.7153550" lon="-8.6482650">
        <ele>32.6</ele>
        <time>2022-06-19T07:39:22Z</time>
      </trkpt>
      <trkpt lat="42.7153760" lon="-8.6482700">
        <ele>32.6</ele>
        <time>2022-06-19T07:39:23Z</time>
      </trkpt>
      <trkpt lat="42.7154010" lon="-8.6482750">
        <ele>32.8</ele>
        <time>2022-06-19T07:39:24Z</time>
      </trkpt>
      <trkpt lat="42.7154250" lon="-8.6482810">
        <ele>32.8</ele>
        <time>2022-06-19T07:39:25Z</time>
      </trkpt>
      <trkpt lat="42.7154500" lon="-8.6482880">
        <ele>32.8</ele>
        <time>2022-06-19T07:39:26Z</time>
      </trkpt>
      <trkpt lat="42.7154730" lon="-8.6482950">
        <ele>32.6</ele>
        <time>2022-06-19T07:39:27Z</time>
      </trkpt>
      <trkpt lat="42.7154960" lon="-8.6483010">
        <ele>32.8</ele>
        <time>2022-06-19T07:39:28Z</time>
      </trkpt>
      <trkpt lat="42.7155200" lon="-8.6483080">
        <ele>32.8</ele>
        <time>2022-06-19T07:39:29Z</time>
      </trkpt>
      <trkpt lat="42.7155410" lon="-8.6483150">
        <ele>32.8</ele>
        <time>2022-06-19T07:39:30Z</time>
      </trkpt>
      <trkpt lat="42.7155610" lon="-8.6483160">
        <ele>32.8</ele>
        <time>2022-06-19T07:39:31Z</time>
      </trkpt>
      <trkpt lat="42.7155830" lon="-8.6483180">
        <ele>32.4</ele>
        <time>2022-06-19T07:39:32Z</time>
      </trkpt>
      <trkpt lat="42.7156100" lon="-8.6483230">
        <ele>32.4</ele>
        <time>2022-06-19T07:39:33Z</time>
      </trkpt>
      <trkpt lat="42.7156350" lon="-8.6483310">
        <ele>32.4</ele>
        <time>2022-06-19T07:39:34Z</time>
      </trkpt>
      <trkpt lat="42.7156630" lon="-8.6483410">
        <ele>32.4</ele>
        <time>2022-06-19T07:39:35Z</time>
      </trkpt>
      <trkpt lat="42.7156910" lon="-8.6483500">
        <ele>32.6</ele>
        <time>2022-06-19T07:39:36Z</time>
      </trkpt>
      <trkpt lat="42.7157200" lon="-8.6483580">
        <ele>32.6</ele>
        <time>2022-06-19T07:39:37Z</time>
      </trkpt>
      <trkpt lat="42.7157500" lon="-8.6483650">
        <ele>32.6</ele>
        <time>2022-06-19T07:39:38Z</time>
      </trkpt>
      <trkpt lat="42.7157780" lon="-8.6483710">
        <ele>32.6</ele>
        <time>2022-06-19T07:39:39Z</time>
      </trkpt>
      <trkpt lat="42.7158060" lon="-8.6483810">
        <ele>32.8</ele>
        <time>2022-06-19T07:39:40Z</time>
      </trkpt>
      <trkpt lat="42.7158350" lon="-8.6483880">
        <ele>32.8</ele>
        <time>2022-06-19T07:39:41Z</time>
      </trkpt>
      <trkpt lat="42.7158610" lon="-8.6483930">
        <ele>32.8</ele>
        <time>2022-06-19T07:39:42Z</time>
      </trkpt>
      <trkpt lat="42.7158910" lon="-8.6484000">
        <ele>32.8</ele>
        <time>2022-06-19T07:39:43Z</time>
      </trkpt>
      <trkpt lat="42.7159230" lon="-8.6484050">
        <ele>33.0</ele>
        <time>2022-06-19T07:39:44Z</time>
      </trkpt>
      <trkpt lat="42.7159530" lon="-8.6484110">
        <ele>33.0</ele>
        <time>2022-06-19T07:39:45Z</time>
      </trkpt>
      <trkpt lat="42.7159860" lon="-8.6484160">
        <ele>33.0</ele>
        <time>2022-06-19T07:39:46Z</time>
      </trkpt>
      <trkpt lat="42.7160180" lon="-8.6484230">
        <ele>32.8</ele>
        <time>2022-06-19T07:39:47Z</time>
      </trkpt>
      <trkpt lat="42.7160510" lon="-8.6484300">
        <ele>32.8</ele>
        <time>2022-06-19T07:39:48Z</time>
      </trkpt>
      <trkpt lat="42.7160860" lon="-8.6484350">
        <ele>32.8</ele>
        <time>2022-06-19T07:39:49Z</time>
      </trkpt>
      <trkpt lat="42.7161200" lon="-8.6484450">
        <ele>32.8</ele>
        <time>2022-06-19T07:39:50Z</time>
      </trkpt>
      <trkpt lat="42.7161530" lon="-8.6484550">
        <ele>32.4</ele>
        <time>2022-06-19T07:39:51Z</time>
      </trkpt>
      <trkpt lat="42.7161850" lon="-8.6484630">
        <ele>32.2</ele>
        <time>2022-06-19T07:39:52Z</time>
      </trkpt>
      <trkpt lat="42.7162180" lon="-8.6484700">
        <ele>32.2</ele>
        <time>2022-06-19T07:39:53Z</time>
      </trkpt>
      <trkpt lat="42.7162530" lon="-8.6484730">
        <ele>32.2</ele>
        <time>2022-06-19T07:39:54Z</time>
      </trkpt>
      <trkpt lat="42.7162880" lon="-8.6484780">
        <ele>32.8</ele>
        <time>2022-06-19T07:39:55Z</time>
      </trkpt>
      <trkpt lat="42.7163230" lon="-8.6484830">
        <ele>32.8</ele>
        <time>2022-06-19T07:39:56Z</time>
      </trkpt>
      <trkpt lat="42.7163580" lon="-8.6484900">
        <ele>32.8</ele>
        <time>2022-06-19T07:39:57Z</time>
      </trkpt>
      <trkpt lat="42.7163900" lon="-8.6484960">
        <ele>32.8</ele>
        <time>2022-06-19T07:39:58Z</time>
      </trkpt>
      <trkpt lat="42.7164210" lon="-8.6485030">
        <ele>33.2</ele>
        <time>2022-06-19T07:39:59Z</time>
      </trkpt>
      <trkpt lat="42.7164530" lon="-8.6485100">
        <ele>32.8</ele>
        <time>2022-06-19T07:40:00Z</time>
      </trkpt>
      <trkpt lat="42.7164880" lon="-8.6485180">
        <ele>32.8</ele>
        <time>2022-06-19T07:40:01Z</time>
      </trkpt>
      <trkpt lat="42.7165230" lon="-8.6485260">
        <ele>32.8</ele>
        <time>2022-06-19T07:40:02Z</time>
      </trkpt>
      <trkpt lat="42.7165560" lon="-8.6485360">
        <ele>32.8</ele>
        <time>2022-06-19T07:40:03Z</time>
      </trkpt>
      <trkpt lat="42.7165910" lon="-8.6485480">
        <ele>32.8</ele>
        <time>2022-06-19T07:40:04Z</time>
      </trkpt>
      <trkpt lat="42.7166280" lon="-8.6485610">
        <ele>32.8</ele>
        <time>2022-06-19T07:40:05Z</time>
      </trkpt>
      <trkpt lat="42.7166630" lon="-8.6485730">
        <ele>32.8</ele>
        <time>2022-06-19T07:40:06Z</time>
      </trkpt>
      <trkpt lat="42.7167000" lon="-8.6485850">
        <ele>32.8</ele>
        <time>2022-06-19T07:40:07Z</time>
      </trkpt>
      <trkpt lat="42.7167400" lon="-8.6485980">
        <ele>32.6</ele>
        <time>2022-06-19T07:40:08Z</time>
      </trkpt>
      <trkpt lat="42.7167810" lon="-8.6486100">
        <ele>32.6</ele>
        <time>2022-06-19T07:40:09Z</time>
      </trkpt>
      <trkpt lat="42.7168230" lon="-8.6486200">
        <ele>32.6</ele>
        <time>2022-06-19T07:40:10Z</time>
      </trkpt>
      <trkpt lat="42.7168630" lon="-8.6486300">
        <ele>32.6</ele>
        <time>2022-06-19T07:40:11Z</time>
      </trkpt>
      <trkpt lat="42.7169050" lon="-8.6486400">
        <ele>33.2</ele>
        <time>2022-06-19T07:40:12Z</time>
      </trkpt>
      <trkpt lat="42.7169450" lon="-8.6486460">
        <ele>33.2</ele>
        <time>2022-06-19T07:40:13Z</time>
      </trkpt>
      <trkpt lat="42.7169860" lon="-8.6486510">
        <ele>33.2</ele>
        <time>2022-06-19T07:40:14Z</time>
      </trkpt>
      <trkpt lat="42.7170260" lon="-8.6486500">
        <ele>32.8</ele>
        <time>2022-06-19T07:40:15Z</time>
      </trkpt>
      <trkpt lat="42.7170680" lon="-8.6486480">
        <ele>33.0</ele>
        <time>2022-06-19T07:40:16Z</time>
      </trkpt>
      <trkpt lat="42.7171080" lon="-8.6486450">
        <ele>33.0</ele>
        <time>2022-06-19T07:40:17Z</time>
      </trkpt>
      <trkpt lat="42.7171460" lon="-8.6486400">
        <ele>33.0</ele>
        <time>2022-06-19T07:40:18Z</time>
      </trkpt>
      <trkpt lat="42.7171860" lon="-8.6486310">
        <ele>32.6</ele>
        <time>2022-06-19T07:40:19Z</time>
      </trkpt>
      <trkpt lat="42.7172210" lon="-8.6486250">
        <ele>32.6</ele>
        <time>2022-06-19T07:40:20Z</time>
      </trkpt>
      <trkpt lat="42.7172560" lon="-8.6486200">
        <ele>32.6</ele>
        <time>2022-06-19T07:40:21Z</time>
      </trkpt>
      <trkpt lat="42.7172930" lon="-8.6486150">
        <ele>32.6</ele>
        <time>2022-06-19T07:40:22Z</time>
      </trkpt>
      <trkpt lat="42.7173260" lon="-8.6486110">
        <ele>32.6</ele>
        <time>2022-06-19T07:40:23Z</time>
      </trkpt>
      <trkpt lat="42.7173580" lon="-8.6486080">
        <ele>32.8</ele>
        <time>2022-06-19T07:40:24Z</time>
      </trkpt>
      <trkpt lat="42.7173900" lon="-8.6486030">
        <ele>32.8</ele>
        <time>2022-06-19T07:40:25Z</time>
      </trkpt>
      <trkpt lat="42.7174200" lon="-8.6485980">
        <ele>32.8</ele>
        <time>2022-06-19T07:40:26Z</time>
      </trkpt>
      <trkpt lat="42.7174510" lon="-8.6485950">
        <ele>32.6</ele>
        <time>2022-06-19T07:40:27Z</time>
      </trkpt>
      <trkpt lat="42.7174810" lon="-8.6485860">
        <ele>32.8</ele>
        <time>2022-06-19T07:40:28Z</time>
      </trkpt>
      <trkpt lat="42.7175110" lon="-8.6485800">
        <ele>32.8</ele>
        <time>2022-06-19T07:40:29Z</time>
      </trkpt>
      <trkpt lat="42.7175410" lon="-8.6485750">
        <ele>32.8</ele>
        <time>2022-06-19T07:40:30Z</time>
      </trkpt>
      <trkpt lat="42.7175710" lon="-8.6485700">
        <ele>32.8</ele>
        <time>2022-06-19T07:40:31Z</time>
      </trkpt>
      <trkpt lat="42.7176030" lon="-8.6485630">
        <ele>32.2</ele>
        <time>2022-06-19T07:40:32Z</time>
      </trkpt>
      <trkpt lat="42.7176350" lon="-8.6485560">
        <ele>32.2</ele>
        <time>2022-06-19T07:40:33Z</time>
      </trkpt>
      <trkpt lat="42.7176660" lon="-8.6485460">
        <ele>32.2</ele>
        <time>2022-06-19T07:40:34Z</time>
      </trkpt>
      <trkpt lat="42.7177030" lon="-8.6485380">
        <ele>32.2</ele>
        <time>2022-06-19T07:40:35Z</time>
      </trkpt>
      <trkpt lat="42.7177450" lon="-8.6485300">
        <ele>32.6</ele>
        <time>2022-06-19T07:40:36Z</time>
      </trkpt>
      <trkpt lat="42.7177830" lon="-8.6485310">
        <ele>32.6</ele>
        <time>2022-06-19T07:40:37Z</time>
      </trkpt>
      <trkpt lat="42.7178200" lon="-8.6485400">
        <ele>32.6</ele>
        <time>2022-06-19T07:40:38Z</time>
      </trkpt>
      <trkpt lat="42.7178550" lon="-8.6485560">
        <ele>32.6</ele>
        <time>2022-06-19T07:40:39Z</time>
      </trkpt>
      <trkpt lat="42.7178880" lon="-8.6485730">
        <ele>32.2</ele>
        <time>2022-06-19T07:40:40Z</time>
      </trkpt>
      <trkpt lat="42.7179200" lon="-8.6485910">
        <ele>32.2</ele>
        <time>2022-06-19T07:40:41Z</time>
      </trkpt>
      <trkpt lat="42.7179510" lon="-8.6486130">
        <ele>32.2</ele>
        <time>2022-06-19T07:40:42Z</time>
      </trkpt>
      <trkpt lat="42.7179810" lon="-8.6486350">
        <ele>32.2</ele>
        <time>2022-06-19T07:40:43Z</time>
      </trkpt>
      <trkpt lat="42.7180130" lon="-8.6486560">
        <ele>32.6</ele>
        <time>2022-06-19T07:40:44Z</time>
      </trkpt>
      <trkpt lat="42.7180460" lon="-8.6486800">
        <ele>32.6</ele>
        <time>2022-06-19T07:40:45Z</time>
      </trkpt>
      <trkpt lat="42.7180810" lon="-8.6487030">
        <ele>32.6</ele>
        <time>2022-06-19T07:40:46Z</time>
      </trkpt>
      <trkpt lat="42.7181160" lon="-8.6487250">
        <ele>32.6</ele>
        <time>2022-06-19T07:40:47Z</time>
      </trkpt>
      <trkpt lat="42.7181530" lon="-8.6487400">
        <ele>32.0</ele>
        <time>2022-06-19T07:40:48Z</time>
      </trkpt>
      <trkpt lat="42.7181900" lon="-8.6487500">
        <ele>32.0</ele>
        <time>2022-06-19T07:40:49Z</time>
      </trkpt>
      <trkpt lat="42.7182230" lon="-8.6487580">
        <ele>32.0</ele>
        <time>2022-06-19T07:40:50Z</time>
      </trkpt>
      <trkpt lat="42.7182550" lon="-8.6487680">
        <ele>32.8</ele>
        <time>2022-06-19T07:40:51Z</time>
      </trkpt>
      <trkpt lat="42.7182810" lon="-8.6487810">
        <ele>33.2</ele>
        <time>2022-06-19T07:40:52Z</time>
      </trkpt>
      <trkpt lat="42.7183050" lon="-8.6487950">
        <ele>33.2</ele>
        <time>2022-06-19T07:40:53Z</time>
      </trkpt>
      <trkpt lat="42.7183280" lon="-8.6488100">
        <ele>33.2</ele>
        <time>2022-06-19T07:40:54Z</time>
      </trkpt>
      <trkpt lat="42.7183510" lon="-8.6488300">
        <ele>33.4</ele>
        <time>2022-06-19T07:40:55Z</time>
      </trkpt>
      <trkpt lat="42.7183800" lon="-8.6488600">
        <ele>32.8</ele>
        <time>2022-06-19T07:40:56Z</time>
      </trkpt>
      <trkpt lat="42.7184080" lon="-8.6489080">
        <ele>32.8</ele>
        <time>2022-06-19T07:40:57Z</time>
      </trkpt>
      <trkpt lat="42.7184380" lon="-8.6489660">
        <ele>32.8</ele>
        <time>2022-06-19T07:40:58Z</time>
      </trkpt>
      <trkpt lat="42.7184700" lon="-8.6490230">
        <ele>31.8</ele>
        <time>2022-06-19T07:40:59Z</time>
      </trkpt>
      <trkpt lat="42.7185080" lon="-8.6490750">
        <ele>29.6</ele>
        <time>2022-06-19T07:41:00Z</time>
      </trkpt>
      <trkpt lat="42.7185530" lon="-8.6491150">
        <ele>29.6</ele>
        <time>2022-06-19T07:41:01Z</time>
      </trkpt>
      <trkpt lat="42.7186060" lon="-8.6491380">
        <ele>29.6</ele>
        <time>2022-06-19T07:41:02Z</time>
      </trkpt>
      <trkpt lat="42.7186630" lon="-8.6491400">
        <ele>28.6</ele>
        <time>2022-06-19T07:41:03Z</time>
      </trkpt>
      <trkpt lat="42.7187200" lon="-8.6491360">
        <ele>25.2</ele>
        <time>2022-06-19T07:41:04Z</time>
      </trkpt>
      <trkpt lat="42.7187800" lon="-8.6491410">
        <ele>25.2</ele>
        <time>2022-06-19T07:41:05Z</time>
      </trkpt>
      <trkpt lat="42.7188360" lon="-8.6491600">
        <ele>25.2</ele>
        <time>2022-06-19T07:41:06Z</time>
      </trkpt>
      <trkpt lat="42.7188880" lon="-8.6491730">
        <ele>24.2</ele>
        <time>2022-06-19T07:41:07Z</time>
      </trkpt>
      <trkpt lat="42.7189330" lon="-8.6491700">
        <ele>24.0</ele>
        <time>2022-06-19T07:41:08Z</time>
      </trkpt>
      <trkpt lat="42.7189710" lon="-8.6491580">
        <ele>24.0</ele>
        <time>2022-06-19T07:41:09Z</time>
      </trkpt>
      <trkpt lat="42.7190050" lon="-8.6491460">
        <ele>24.0</ele>
        <time>2022-06-19T07:41:10Z</time>
      </trkpt>
      <trkpt lat="42.7190350" lon="-8.6491380">
        <ele>25.0</ele>
        <time>2022-06-19T07:41:11Z</time>
      </trkpt>
      <trkpt lat="42.7190610" lon="-8.6491260">
        <ele>26.4</ele>
        <time>2022-06-19T07:41:12Z</time>
      </trkpt>
      <trkpt lat="42.7190850" lon="-8.6491100">
        <ele>26.4</ele>
        <time>2022-06-19T07:41:13Z</time>
      </trkpt>
      <trkpt lat="42.7191080" lon="-8.6491010">
        <ele>26.4</ele>
        <time>2022-06-19T07:41:14Z</time>
      </trkpt>
      <trkpt lat="42.7191380" lon="-8.6490950">
        <ele>26.8</ele>
        <time>2022-06-19T07:41:15Z</time>
      </trkpt>
      <trkpt lat="42.7191680" lon="-8.6490910">
        <ele>27.0</ele>
        <time>2022-06-19T07:41:16Z</time>
      </trkpt>
      <trkpt lat="42.7191980" lon="-8.6490850">
        <ele>27.0</ele>
        <time>2022-06-19T07:41:17Z</time>
      </trkpt>
      <trkpt lat="42.7192310" lon="-8.6490710">
        <ele>27.0</ele>
        <time>2022-06-19T07:41:18Z</time>
      </trkpt>
      <trkpt lat="42.7192630" lon="-8.6490610">
        <ele>27.0</ele>
        <time>2022-06-19T07:41:19Z</time>
      </trkpt>
      <trkpt lat="42.7192950" lon="-8.6490530">
        <ele>27.6</ele>
        <time>2022-06-19T07:41:20Z</time>
      </trkpt>
      <trkpt lat="42.7193250" lon="-8.6490460">
        <ele>27.6</ele>
        <time>2022-06-19T07:41:21Z</time>
      </trkpt>
      <trkpt lat="42.7193550" lon="-8.6490350">
        <ele>27.6</ele>
        <time>2022-06-19T07:41:22Z</time>
      </trkpt>
      <trkpt lat="42.7193830" lon="-8.6490280">
        <ele>28.0</ele>
        <time>2022-06-19T07:41:23Z</time>
      </trkpt>
      <trkpt lat="42.7194110" lon="-8.6490160">
        <ele>28.2</ele>
        <time>2022-06-19T07:41:24Z</time>
      </trkpt>
      <trkpt lat="42.7194380" lon="-8.6490080">
        <ele>28.2</ele>
        <time>2022-06-19T07:41:25Z</time>
      </trkpt>
      <trkpt lat="42.7194680" lon="-8.6489950">
        <ele>28.2</ele>
        <time>2022-06-19T07:41:26Z</time>
      </trkpt>
      <trkpt lat="42.7194950" lon="-8.6489880">
        <ele>28.2</ele>
        <time>2022-06-19T07:41:27Z</time>
      </trkpt>
      <trkpt lat="42.7195200" lon="-8.6489710">
        <ele>28.6</ele>
        <time>2022-06-19T07:41:28Z</time>
      </trkpt>
      <trkpt lat="42.7195410" lon="-8.6489600">
        <ele>28.6</ele>
        <time>2022-06-19T07:41:29Z</time>
      </trkpt>
      <trkpt lat="42.7195630" lon="-8.6489560">
        <ele>28.6</ele>
        <time>2022-06-19T07:41:30Z</time>
      </trkpt>
      <trkpt lat="42.7195850" lon="-8.6489580">
        <ele>29.0</ele>
        <time>2022-06-19T07:41:31Z</time>
      </trkpt>
      <trkpt lat="42.7196080" lon="-8.6489530">
        <ele>29.4</ele>
        <time>2022-06-19T07:41:32Z</time>
      </trkpt>
      <trkpt lat="42.7196310" lon="-8.6489530">
        <ele>29.4</ele>
        <time>2022-06-19T07:41:33Z</time>
      </trkpt>
      <trkpt lat="42.7196530" lon="-8.6489580">
        <ele>29.4</ele>
        <time>2022-06-19T07:41:34Z</time>
      </trkpt>
      <trkpt lat="42.7196730" lon="-8.6489680">
        <ele>29.2</ele>
        <time>2022-06-19T07:41:35Z</time>
      </trkpt>
      <trkpt lat="42.7196880" lon="-8.6489830">
        <ele>29.2</ele>
        <time>2022-06-19T07:41:36Z</time>
      </trkpt>
      <trkpt lat="42.7197000" lon="-8.6490030">
        <ele>29.2</ele>
        <time>2022-06-19T07:41:37Z</time>
      </trkpt>
      <trkpt lat="42.7197110" lon="-8.6490300">
        <ele>29.2</ele>
        <time>2022-06-19T07:41:38Z</time>
      </trkpt>
      <trkpt lat="42.7197210" lon="-8.6490660">
        <ele>28.2</ele>
        <time>2022-06-19T07:41:39Z</time>
      </trkpt>
      <trkpt lat="42.7197360" lon="-8.6491110">
        <ele>27.8</ele>
        <time>2022-06-19T07:41:40Z</time>
      </trkpt>
      <trkpt lat="42.7197530" lon="-8.6491550">
        <ele>27.8</ele>
        <time>2022-06-19T07:41:41Z</time>
      </trkpt>
      <trkpt lat="42.7197650" lon="-8.6491910">
        <ele>27.8</ele>
        <time>2022-06-19T07:41:42Z</time>
      </trkpt>
      <trkpt lat="42.7197750" lon="-8.6492260">
        <ele>27.8</ele>
        <time>2022-06-19T07:41:43Z</time>
      </trkpt>
      <trkpt lat="42.7197830" lon="-8.6492560">
        <ele>29.2</ele>
        <time>2022-06-19T07:41:44Z</time>
      </trkpt>
      <trkpt lat="42.7197860" lon="-8.6492880">
        <ele>29.2</ele>
        <time>2022-06-19T07:41:45Z</time>
      </trkpt>
      <trkpt lat="42.7197930" lon="-8.6493180">
        <ele>29.2</ele>
        <time>2022-06-19T07:41:46Z</time>
      </trkpt>
      <trkpt lat="42.7198000" lon="-8.6493480">
        <ele>30.2</ele>
        <time>2022-06-19T07:41:47Z</time>
      </trkpt>
      <trkpt lat="42.7198060" lon="-8.6493800">
        <ele>30.4</ele>
        <time>2022-06-19T07:41:48Z</time>
      </trkpt>
      <trkpt lat="42.7198150" lon="-8.6494060">
        <ele>30.4</ele>
        <time>2022-06-19T07:41:49Z</time>
      </trkpt>
      <trkpt lat="42.7198280" lon="-8.6494280">
        <ele>30.4</ele>
        <time>2022-06-19T07:41:50Z</time>
      </trkpt>
      <trkpt lat="42.7198410" lon="-8.6494460">
        <ele>30.8</ele>
        <time>2022-06-19T07:41:51Z</time>
      </trkpt>
      <trkpt lat="42.7198550" lon="-8.6494680">
        <ele>31.0</ele>
        <time>2022-06-19T07:41:52Z</time>
      </trkpt>
      <trkpt lat="42.7198710" lon="-8.6494880">
        <ele>31.0</ele>
        <time>2022-06-19T07:41:53Z</time>
      </trkpt>
      <trkpt lat="42.7198930" lon="-8.6495060">
        <ele>31.0</ele>
        <time>2022-06-19T07:41:54Z</time>
      </trkpt>
      <trkpt lat="42.7199110" lon="-8.6495250">
        <ele>31.2</ele>
        <time>2022-06-19T07:41:55Z</time>
      </trkpt>
      <trkpt lat="42.7199280" lon="-8.6495360">
        <ele>31.6</ele>
        <time>2022-06-19T07:41:56Z</time>
      </trkpt>
      <trkpt lat="42.7199430" lon="-8.6495450">
        <ele>31.6</ele>
        <time>2022-06-19T07:41:57Z</time>
      </trkpt>
      <trkpt lat="42.7199600" lon="-8.6495510">
        <ele>31.6</ele>
        <time>2022-06-19T07:41:58Z</time>
      </trkpt>
      <trkpt lat="42.7199760" lon="-8.6495560">
        <ele>32.6</ele>
        <time>2022-06-19T07:41:59Z</time>
      </trkpt>
      <trkpt lat="42.7199930" lon="-8.6495630">
        <ele>32.4</ele>
        <time>2022-06-19T07:42:00Z</time>
      </trkpt>
      <trkpt lat="42.7200130" lon="-8.6495680">
        <ele>32.4</ele>
        <time>2022-06-19T07:42:01Z</time>
      </trkpt>
      <trkpt lat="42.7200300" lon="-8.6495710">
        <ele>32.4</ele>
        <time>2022-06-19T07:42:02Z</time>
      </trkpt>
      <trkpt lat="42.7200480" lon="-8.6495660">
        <ele>33.0</ele>
        <time>2022-06-19T07:42:03Z</time>
      </trkpt>
      <trkpt lat="42.7200660" lon="-8.6495600">
        <ele>33.2</ele>
        <time>2022-06-19T07:42:04Z</time>
      </trkpt>
      <trkpt lat="42.7200880" lon="-8.6495460">
        <ele>33.2</ele>
        <time>2022-06-19T07:42:05Z</time>
      </trkpt>
      <trkpt lat="42.7201060" lon="-8.6495360">
        <ele>33.2</ele>
        <time>2022-06-19T07:42:06Z</time>
      </trkpt>
      <trkpt lat="42.7201250" lon="-8.6495260">
        <ele>33.2</ele>
        <time>2022-06-19T07:42:07Z</time>
      </trkpt>
      <trkpt lat="42.7201400" lon="-8.6495150">
        <ele>33.6</ele>
        <time>2022-06-19T07:42:08Z</time>
      </trkpt>
      <trkpt lat="42.7201530" lon="-8.6495060">
        <ele>33.6</ele>
        <time>2022-06-19T07:42:09Z</time>
      </trkpt>
      <trkpt lat="42.7201660" lon="-8.6495030">
        <ele>33.6</ele>
        <time>2022-06-19T07:42:10Z</time>
      </trkpt>
      <trkpt lat="42.7201800" lon="-8.6495060">
        <ele>34.4</ele>
        <time>2022-06-19T07:42:11Z</time>
      </trkpt>
      <trkpt lat="42.7201980" lon="-8.6495100">
        <ele>34.8</ele>
        <time>2022-06-19T07:42:12Z</time>
      </trkpt>
      <trkpt lat="42.7202130" lon="-8.6495250">
        <ele>34.8</ele>
        <time>2022-06-19T07:42:13Z</time>
      </trkpt>
      <trkpt lat="42.7202280" lon="-8.6495430">
        <ele>34.8</ele>
        <time>2022-06-19T07:42:14Z</time>
      </trkpt>
      <trkpt lat="42.7202380" lon="-8.6495650">
        <ele>35.0</ele>
        <time>2022-06-19T07:42:15Z</time>
      </trkpt>
      <trkpt lat="42.7202500" lon="-8.6495880">
        <ele>35.4</ele>
        <time>2022-06-19T07:42:16Z</time>
      </trkpt>
      <trkpt lat="42.7202610" lon="-8.6496060">
        <ele>35.4</ele>
        <time>2022-06-19T07:42:17Z</time>
      </trkpt>
      <trkpt lat="42.7202760" lon="-8.6496230">
        <ele>35.4</ele>
        <time>2022-06-19T07:42:18Z</time>
      </trkpt>
      <trkpt lat="42.7202950" lon="-8.6496350">
        <ele>35.8</ele>
        <time>2022-06-19T07:42:19Z</time>
      </trkpt>
      <trkpt lat="42.7203130" lon="-8.6496480">
        <ele>36.0</ele>
        <time>2022-06-19T07:42:20Z</time>
      </trkpt>
      <trkpt lat="42.7203310" lon="-8.6496610">
        <ele>36.0</ele>
        <time>2022-06-19T07:42:21Z</time>
      </trkpt>
      <trkpt lat="42.7203500" lon="-8.6496780">
        <ele>36.0</ele>
        <time>2022-06-19T07:42:22Z</time>
      </trkpt>
      <trkpt lat="42.7203660" lon="-8.6496930">
        <ele>36.2</ele>
        <time>2022-06-19T07:42:23Z</time>
      </trkpt>
      <trkpt lat="42.7203800" lon="-8.6497130">
        <ele>36.8</ele>
        <time>2022-06-19T07:42:24Z</time>
      </trkpt>
      <trkpt lat="42.7203950" lon="-8.6497310">
        <ele>36.8</ele>
        <time>2022-06-19T07:42:25Z</time>
      </trkpt>
      <trkpt lat="42.7204100" lon="-8.6497450">
        <ele>36.8</ele>
        <time>2022-06-19T07:42:26Z</time>
      </trkpt>
      <trkpt lat="42.7204260" lon="-8.6497600">
        <ele>37.4</ele>
        <time>2022-06-19T07:42:27Z</time>
      </trkpt>
      <trkpt lat="42.7204410" lon="-8.6497800">
        <ele>37.4</ele>
        <time>2022-06-19T07:42:28Z</time>
      </trkpt>
      <trkpt lat="42.7204600" lon="-8.6497950">
        <ele>37.4</ele>
        <time>2022-06-19T07:42:29Z</time>
      </trkpt>
      <trkpt lat="42.7204750" lon="-8.6498150">
        <ele>37.4</ele>
        <time>2022-06-19T07:42:30Z</time>
      </trkpt>
      <trkpt lat="42.7204880" lon="-8.6498330">
        <ele>37.8</ele>
        <time>2022-06-19T07:42:31Z</time>
      </trkpt>
      <trkpt lat="42.7205050" lon="-8.6498500">
        <ele>37.8</ele>
        <time>2022-06-19T07:42:32Z</time>
      </trkpt>
      <trkpt lat="42.7205230" lon="-8.6498680">
        <ele>37.8</ele>
        <time>2022-06-19T07:42:33Z</time>
      </trkpt>
      <trkpt lat="42.7205430" lon="-8.6498860">
        <ele>37.8</ele>
        <time>2022-06-19T07:42:34Z</time>
      </trkpt>
      <trkpt lat="42.7205580" lon="-8.6499060">
        <ele>37.8</ele>
        <time>2022-06-19T07:42:35Z</time>
      </trkpt>
      <trkpt lat="42.7205750" lon="-8.6499260">
        <ele>37.4</ele>
        <time>2022-06-19T07:42:36Z</time>
      </trkpt>
      <trkpt lat="42.7205950" lon="-8.6499500">
        <ele>37.4</ele>
        <time>2022-06-19T07:42:37Z</time>
      </trkpt>
      <trkpt lat="42.7206160" lon="-8.6499750">
        <ele>37.4</ele>
        <time>2022-06-19T07:42:38Z</time>
      </trkpt>
      <trkpt lat="42.7206400" lon="-8.6499980">
        <ele>36.6</ele>
        <time>2022-06-19T07:42:39Z</time>
      </trkpt>
      <trkpt lat="42.7206660" lon="-8.6500230">
        <ele>37.0</ele>
        <time>2022-06-19T07:42:40Z</time>
      </trkpt>
      <trkpt lat="42.7206910" lon="-8.6500450">
        <ele>37.0</ele>
        <time>2022-06-19T07:42:41Z</time>
      </trkpt>
      <trkpt lat="42.7207160" lon="-8.6500730">
        <ele>37.0</ele>
        <time>2022-06-19T07:42:42Z</time>
      </trkpt>
      <trkpt lat="42.7207380" lon="-8.6501010">
        <ele>37.0</ele>
        <time>2022-06-19T07:42:43Z</time>
      </trkpt>
      <trkpt lat="42.7207630" lon="-8.6501280">
        <ele>36.8</ele>
        <time>2022-06-19T07:42:44Z</time>
      </trkpt>
      <trkpt lat="42.7207910" lon="-8.6501510">
        <ele>36.8</ele>
        <time>2022-06-19T07:42:45Z</time>
      </trkpt>
      <trkpt lat="42.7208230" lon="-8.6501700">
        <ele>36.8</ele>
        <time>2022-06-19T07:42:46Z</time>
      </trkpt>
      <trkpt lat="42.7208600" lon="-8.6501900">
        <ele>36.6</ele>
        <time>2022-06-19T07:42:47Z</time>
      </trkpt>
      <trkpt lat="42.7209030" lon="-8.6502010">
        <ele>36.6</ele>
        <time>2022-06-19T07:42:48Z</time>
      </trkpt>
      <trkpt lat="42.7209500" lon="-8.6502010">
        <ele>36.6</ele>
        <time>2022-06-19T07:42:49Z</time>
      </trkpt>
      <trkpt lat="42.7209950" lon="-8.6502000">
        <ele>36.6</ele>
        <time>2022-06-19T07:42:50Z</time>
      </trkpt>
      <trkpt lat="42.7210400" lon="-8.6501950">
        <ele>36.0</ele>
        <time>2022-06-19T07:42:51Z</time>
      </trkpt>
      <trkpt lat="42.7210850" lon="-8.6501860">
        <ele>36.0</ele>
        <time>2022-06-19T07:42:52Z</time>
      </trkpt>
      <trkpt lat="42.7211280" lon="-8.6501750">
        <ele>36.0</ele>
        <time>2022-06-19T07:42:53Z</time>
      </trkpt>
      <trkpt lat="42.7211680" lon="-8.6501600">
        <ele>36.0</ele>
        <time>2022-06-19T07:42:54Z</time>
      </trkpt>
      <trkpt lat="42.7212080" lon="-8.6501400">
        <ele>36.4</ele>
        <time>2022-06-19T07:42:55Z</time>
      </trkpt>
      <trkpt lat="42.7212430" lon="-8.6501230">
        <ele>36.6</ele>
        <time>2022-06-19T07:42:56Z</time>
      </trkpt>
      <trkpt lat="42.7212750" lon="-8.6501030">
        <ele>36.6</ele>
        <time>2022-06-19T07:42:57Z</time>
      </trkpt>
      <trkpt lat="42.7213050" lon="-8.6500810">
        <ele>36.6</ele>
        <time>2022-06-19T07:42:58Z</time>
      </trkpt>
      <trkpt lat="42.7213360" lon="-8.6500610">
        <ele>37.0</ele>
        <time>2022-06-19T07:42:59Z</time>
      </trkpt>
      <trkpt lat="42.7213660" lon="-8.6500430">
        <ele>37.0</ele>
        <time>2022-06-19T07:43:00Z</time>
      </trkpt>
      <trkpt lat="42.7213960" lon="-8.6500250">
        <ele>37.0</ele>
        <time>2022-06-19T07:43:01Z</time>
      </trkpt>
      <trkpt lat="42.7214260" lon="-8.6500080">
        <ele>37.0</ele>
        <time>2022-06-19T07:43:02Z</time>
      </trkpt>
      <trkpt lat="42.7214560" lon="-8.6499960">
        <ele>37.0</ele>
        <time>2022-06-19T07:43:03Z</time>
      </trkpt>
      <trkpt lat="42.7214860" lon="-8.6499850">
        <ele>37.8</ele>
        <time>2022-06-19T07:43:04Z</time>
      </trkpt>
      <trkpt lat="42.7215150" lon="-8.6499760">
        <ele>37.8</ele>
        <time>2022-06-19T07:43:05Z</time>
      </trkpt>
      <trkpt lat="42.7215430" lon="-8.6499650">
        <ele>37.8</ele>
        <time>2022-06-19T07:43:06Z</time>
      </trkpt>
      <trkpt lat="42.7215730" lon="-8.6499550">
        <ele>38.8</ele>
        <time>2022-06-19T07:43:07Z</time>
      </trkpt>
      <trkpt lat="42.7216050" lon="-8.6499430">
        <ele>38.6</ele>
        <time>2022-06-19T07:43:08Z</time>
      </trkpt>
      <trkpt lat="42.7216330" lon="-8.6499310">
        <ele>38.6</ele>
        <time>2022-06-19T07:43:09Z</time>
      </trkpt>
      <trkpt lat="42.7216630" lon="-8.6499250">
        <ele>38.6</ele>
        <time>2022-06-19T07:43:10Z</time>
      </trkpt>
      <trkpt lat="42.7216910" lon="-8.6499150">
        <ele>38.6</ele>
        <time>2022-06-19T07:43:11Z</time>
      </trkpt>
      <trkpt lat="42.7217180" lon="-8.6499030">
        <ele>38.8</ele>
        <time>2022-06-19T07:43:12Z</time>
      </trkpt>
      <trkpt lat="42.7217450" lon="-8.6498910">
        <ele>38.8</ele>
        <time>2022-06-19T07:43:13Z</time>
      </trkpt>
      <trkpt lat="42.7217660" lon="-8.6498760">
        <ele>38.8</ele>
        <time>2022-06-19T07:43:14Z</time>
      </trkpt>
      <trkpt lat="42.7217900" lon="-8.6498630">
        <ele>39.4</ele>
        <time>2022-06-19T07:43:15Z</time>
      </trkpt>
      <trkpt lat="42.7218130" lon="-8.6498550">
        <ele>39.2</ele>
        <time>2022-06-19T07:43:16Z</time>
      </trkpt>
      <trkpt lat="42.7218400" lon="-8.6498430">
        <ele>39.2</ele>
        <time>2022-06-19T07:43:17Z</time>
      </trkpt>
      <trkpt lat="42.7218650" lon="-8.6498300">
        <ele>39.2</ele>
        <time>2022-06-19T07:43:18Z</time>
      </trkpt>
      <trkpt lat="42.7218910" lon="-8.6498150">
        <ele>39.0</ele>
        <time>2022-06-19T07:43:19Z</time>
      </trkpt>
      <trkpt lat="42.7219180" lon="-8.6498010">
        <ele>39.0</ele>
        <time>2022-06-19T07:43:20Z</time>
      </trkpt>
      <trkpt lat="42.7219460" lon="-8.6497900">
        <ele>39.0</ele>
        <time>2022-06-19T07:43:21Z</time>
      </trkpt>
      <trkpt lat="42.7219760" lon="-8.6497800">
        <ele>39.0</ele>
        <time>2022-06-19T07:43:22Z</time>
      </trkpt>
      <trkpt lat="42.7220060" lon="-8.6497760">
        <ele>39.0</ele>
        <time>2022-06-19T07:43:23Z</time>
      </trkpt>
      <trkpt lat="42.7220360" lon="-8.6497750">
        <ele>39.0</ele>
        <time>2022-06-19T07:43:24Z</time>
      </trkpt>
      <trkpt lat="42.7220650" lon="-8.6497710">
        <ele>39.0</ele>
        <time>2022-06-19T07:43:25Z</time>
      </trkpt>
      <trkpt lat="42.7220960" lon="-8.6497730">
        <ele>39.0</ele>
        <time>2022-06-19T07:43:26Z</time>
      </trkpt>
      <trkpt lat="42.7221280" lon="-8.6497760">
        <ele>39.0</ele>
        <time>2022-06-19T07:43:27Z</time>
      </trkpt>
      <trkpt lat="42.7221580" lon="-8.6497880">
        <ele>38.6</ele>
        <time>2022-06-19T07:43:28Z</time>
      </trkpt>
      <trkpt lat="42.7221850" lon="-8.6498050">
        <ele>38.6</ele>
        <time>2022-06-19T07:43:29Z</time>
      </trkpt>
      <trkpt lat="42.7222080" lon="-8.6498230">
        <ele>38.6</ele>
        <time>2022-06-19T07:43:30Z</time>
      </trkpt>
      <trkpt lat="42.7222310" lon="-8.6498400">
        <ele>38.2</ele>
        <time>2022-06-19T07:43:31Z</time>
      </trkpt>
      <trkpt lat="42.7222580" lon="-8.6498600">
        <ele>38.6</ele>
        <time>2022-06-19T07:43:32Z</time>
      </trkpt>
      <trkpt lat="42.7222830" lon="-8.6498780">
        <ele>38.6</ele>
        <time>2022-06-19T07:43:33Z</time>
      </trkpt>
      <trkpt lat="42.7223030" lon="-8.6499000">
        <ele>38.6</ele>
        <time>2022-06-19T07:43:34Z</time>
      </trkpt>
      <trkpt lat="42.7223230" lon="-8.6499210">
        <ele>39.4</ele>
        <time>2022-06-19T07:43:35Z</time>
      </trkpt>
      <trkpt lat="42.7223430" lon="-8.6499400">
        <ele>39.2</ele>
        <time>2022-06-19T07:43:36Z</time>
      </trkpt>
      <trkpt lat="42.7223650" lon="-8.6499530">
        <ele>39.2</ele>
        <time>2022-06-19T07:43:37Z</time>
      </trkpt>
      <trkpt lat="42.7223830" lon="-8.6499710">
        <ele>39.2</ele>
        <time>2022-06-19T07:43:38Z</time>
      </trkpt>
      <trkpt lat="42.7224010" lon="-8.6499860">
        <ele>39.2</ele>
        <time>2022-06-19T07:43:39Z</time>
      </trkpt>
      <trkpt lat="42.7224230" lon="-8.6499960">
        <ele>39.4</ele>
        <time>2022-06-19T07:43:40Z</time>
      </trkpt>
      <trkpt lat="42.7224460" lon="-8.6500110">
        <ele>39.4</ele>
        <time>2022-06-19T07:43:41Z</time>
      </trkpt>
      <trkpt lat="42.7224710" lon="-8.6500210">
        <ele>39.4</ele>
        <time>2022-06-19T07:43:42Z</time>
      </trkpt>
      <trkpt lat="42.7224930" lon="-8.6500330">
        <ele>39.4</ele>
        <time>2022-06-19T07:43:43Z</time>
      </trkpt>
      <trkpt lat="42.7225180" lon="-8.6500430">
        <ele>39.4</ele>
        <time>2022-06-19T07:43:44Z</time>
      </trkpt>
      <trkpt lat="42.7225380" lon="-8.6500560">
        <ele>39.4</ele>
        <time>2022-06-19T07:43:45Z</time>
      </trkpt>
      <trkpt lat="42.7225550" lon="-8.6500680">
        <ele>39.4</ele>
        <time>2022-06-19T07:43:46Z</time>
      </trkpt>
      <trkpt lat="42.7225710" lon="-8.6500810">
        <ele>39.4</ele>
        <time>2022-06-19T07:43:47Z</time>
      </trkpt>
      <trkpt lat="42.7225850" lon="-8.6500930">
        <ele>39.8</ele>
        <time>2022-06-19T07:43:48Z</time>
      </trkpt>
      <trkpt lat="42.7225930" lon="-8.6501010">
        <ele>39.8</ele>
        <time>2022-06-19T07:43:49Z</time>
      </trkpt>
      <trkpt lat="42.7226450" lon="-8.6501410">
        <ele>39.2</ele>
        <time>2022-06-19T07:44:03Z</time>
      </trkpt>
      <trkpt lat="42.7226560" lon="-8.6501530">
        <ele>39.2</ele>
        <time>2022-06-19T07:44:04Z</time>
      </trkpt>
      <trkpt lat="42.7226680" lon="-8.6501630">
        <ele>39.2</ele>
        <time>2022-06-19T07:44:05Z</time>
      </trkpt>
      <trkpt lat="42.7226730" lon="-8.6501660">
        <ele>39.2</ele>
        <time>2022-06-19T07:44:06Z</time>
      </trkpt>
      <trkpt lat="42.7226910" lon="-8.6501780">
        <ele>39.2</ele>
        <time>2022-06-19T07:44:14Z</time>
      </trkpt>
      <trkpt lat="42.7227110" lon="-8.6501900">
        <ele>38.4</ele>
        <time>2022-06-19T07:44:15Z</time>
      </trkpt>
      <trkpt lat="42.7227360" lon="-8.6502000">
        <ele>38.6</ele>
        <time>2022-06-19T07:44:16Z</time>
      </trkpt>
      <trkpt lat="42.7227650" lon="-8.6502060">
        <ele>38.6</ele>
        <time>2022-06-19T07:44:17Z</time>
      </trkpt>
      <trkpt lat="42.7227950" lon="-8.6502060">
        <ele>38.6</ele>
        <time>2022-06-19T07:44:18Z</time>
      </trkpt>
      <trkpt lat="42.7228260" lon="-8.6502030">
        <ele>37.8</ele>
        <time>2022-06-19T07:44:19Z</time>
      </trkpt>
      <trkpt lat="42.7228560" lon="-8.6502000">
        <ele>36.6</ele>
        <time>2022-06-19T07:44:20Z</time>
      </trkpt>
      <trkpt lat="42.7228810" lon="-8.6501980">
        <ele>36.6</ele>
        <time>2022-06-19T07:44:21Z</time>
      </trkpt>
      <trkpt lat="42.7229000" lon="-8.6501980">
        <ele>36.6</ele>
        <time>2022-06-19T07:44:22Z</time>
      </trkpt>
      <trkpt lat="42.7229150" lon="-8.6501960">
        <ele>35.8</ele>
        <time>2022-06-19T07:44:23Z</time>
      </trkpt>
      <trkpt lat="42.7229230" lon="-8.6501980">
        <ele>35.6</ele>
        <time>2022-06-19T07:44:24Z</time>
      </trkpt>
      <trkpt lat="42.7229330" lon="-8.6502050">
        <ele>35.6</ele>
        <time>2022-06-19T07:44:25Z</time>
      </trkpt>
      <trkpt lat="42.7229510" lon="-8.6502060">
        <ele>35.6</ele>
        <time>2022-06-19T07:44:26Z</time>
      </trkpt>
      <trkpt lat="42.7229730" lon="-8.6502100">
        <ele>35.6</ele>
        <time>2022-06-19T07:44:27Z</time>
      </trkpt>
      <trkpt lat="42.7230000" lon="-8.6502160">
        <ele>34.2</ele>
        <time>2022-06-19T07:44:28Z</time>
      </trkpt>
      <trkpt lat="42.7230310" lon="-8.6502300">
        <ele>34.2</ele>
        <time>2022-06-19T07:44:29Z</time>
      </trkpt>
      <trkpt lat="42.7230660" lon="-8.6502480">
        <ele>34.2</ele>
        <time>2022-06-19T07:44:30Z</time>
      </trkpt>
      <trkpt lat="42.7231000" lon="-8.6502700">
        <ele>33.2</ele>
        <time>2022-06-19T07:44:31Z</time>
      </trkpt>
      <trkpt lat="42.7231360" lon="-8.6502910">
        <ele>33.0</ele>
        <time>2022-06-19T07:44:32Z</time>
      </trkpt>
      <trkpt lat="42.7231660" lon="-8.6503200">
        <ele>33.0</ele>
        <time>2022-06-19T07:44:33Z</time>
      </trkpt>
      <trkpt lat="42.7231980" lon="-8.6503400">
        <ele>33.0</ele>
        <time>2022-06-19T07:44:34Z</time>
      </trkpt>
      <trkpt lat="42.7232280" lon="-8.6503680">
        <ele>32.0</ele>
        <time>2022-06-19T07:44:35Z</time>
      </trkpt>
      <trkpt lat="42.7232530" lon="-8.6504030">
        <ele>30.8</ele>
        <time>2022-06-19T07:44:36Z</time>
      </trkpt>
      <trkpt lat="42.7232830" lon="-8.6504330">
        <ele>30.8</ele>
        <time>2022-06-19T07:44:37Z</time>
      </trkpt>
      <trkpt lat="42.7233150" lon="-8.6504580">
        <ele>30.8</ele>
        <time>2022-06-19T07:44:38Z</time>
      </trkpt>
      <trkpt lat="42.7233500" lon="-8.6504760">
        <ele>29.8</ele>
        <time>2022-06-19T07:44:39Z</time>
      </trkpt>
      <trkpt lat="42.7233850" lon="-8.6504900">
        <ele>29.2</ele>
        <time>2022-06-19T07:44:40Z</time>
      </trkpt>
      <trkpt lat="42.7234160" lon="-8.6505000">
        <ele>29.2</ele>
        <time>2022-06-19T07:44:41Z</time>
      </trkpt>
      <trkpt lat="42.7234450" lon="-8.6505050">
        <ele>29.2</ele>
        <time>2022-06-19T07:44:42Z</time>
      </trkpt>
      <trkpt lat="42.7234710" lon="-8.6505110">
        <ele>29.2</ele>
        <time>2022-06-19T07:44:43Z</time>
      </trkpt>
      <trkpt lat="42.7234950" lon="-8.6505160">
        <ele>29.0</ele>
        <time>2022-06-19T07:44:44Z</time>
      </trkpt>
      <trkpt lat="42.7235160" lon="-8.6505210">
        <ele>29.0</ele>
        <time>2022-06-19T07:44:45Z</time>
      </trkpt>
      <trkpt lat="42.7235400" lon="-8.6505230">
        <ele>29.0</ele>
        <time>2022-06-19T07:44:46Z</time>
      </trkpt>
      <trkpt lat="42.7235610" lon="-8.6505280">
        <ele>28.6</ele>
        <time>2022-06-19T07:44:47Z</time>
      </trkpt>
      <trkpt lat="42.7235860" lon="-8.6505310">
        <ele>27.8</ele>
        <time>2022-06-19T07:44:48Z</time>
      </trkpt>
      <trkpt lat="42.7236180" lon="-8.6505380">
        <ele>27.8</ele>
        <time>2022-06-19T07:44:49Z</time>
      </trkpt>
      <trkpt lat="42.7236560" lon="-8.6505450">
        <ele>27.8</ele>
        <time>2022-06-19T07:44:50Z</time>
      </trkpt>
      <trkpt lat="42.7236960" lon="-8.6505460">
        <ele>27.8</ele>
        <time>2022-06-19T07:44:51Z</time>
      </trkpt>
      <trkpt lat="42.7237350" lon="-8.6505430">
        <ele>27.0</ele>
        <time>2022-06-19T07:44:52Z</time>
      </trkpt>
      <trkpt lat="42.7237710" lon="-8.6505350">
        <ele>27.0</ele>
        <time>2022-06-19T07:44:53Z</time>
      </trkpt>
      <trkpt lat="42.7238080" lon="-8.6505280">
        <ele>27.0</ele>
        <time>2022-06-19T07:44:54Z</time>
      </trkpt>
      <trkpt lat="42.7238480" lon="-8.6505110">
        <ele>27.0</ele>
        <time>2022-06-19T07:44:55Z</time>
      </trkpt>
      <trkpt lat="42.7238930" lon="-8.6504910">
        <ele>24.6</ele>
        <time>2022-06-19T07:44:56Z</time>
      </trkpt>
      <trkpt lat="42.7239410" lon="-8.6504800">
        <ele>24.6</ele>
        <time>2022-06-19T07:44:57Z</time>
      </trkpt>
      <trkpt lat="42.7239960" lon="-8.6504950">
        <ele>24.6</ele>
        <time>2022-06-19T07:44:58Z</time>
      </trkpt>
      <trkpt lat="42.7240510" lon="-8.6505180">
        <ele>23.6</ele>
        <time>2022-06-19T07:44:59Z</time>
      </trkpt>
      <trkpt lat="42.7241080" lon="-8.6505310">
        <ele>21.6</ele>
        <time>2022-06-19T07:45:00Z</time>
      </trkpt>
      <trkpt lat="42.7241650" lon="-8.6505260">
        <ele>21.6</ele>
        <time>2022-06-19T07:45:01Z</time>
      </trkpt>
      <trkpt lat="42.7242110" lon="-8.6505210">
        <ele>21.6</ele>
        <time>2022-06-19T07:45:02Z</time>
      </trkpt>
      <trkpt lat="42.7242480" lon="-8.6505150">
        <ele>21.6</ele>
        <time>2022-06-19T07:45:03Z</time>
      </trkpt>
      <trkpt lat="42.7242760" lon="-8.6505050">
        <ele>23.6</ele>
        <time>2022-06-19T07:45:04Z</time>
      </trkpt>
      <trkpt lat="42.7243010" lon="-8.6505060">
        <ele>23.6</ele>
        <time>2022-06-19T07:45:05Z</time>
      </trkpt>
      <trkpt lat="42.7243300" lon="-8.6505060">
        <ele>23.6</ele>
        <time>2022-06-19T07:45:06Z</time>
      </trkpt>
      <trkpt lat="42.7243610" lon="-8.6505050">
        <ele>23.6</ele>
        <time>2022-06-19T07:45:07Z</time>
      </trkpt>
      <trkpt lat="42.7243900" lon="-8.6505010">
        <ele>23.4</ele>
        <time>2022-06-19T07:45:08Z</time>
      </trkpt>
      <trkpt lat="42.7244200" lon="-8.6505000">
        <ele>23.4</ele>
        <time>2022-06-19T07:45:09Z</time>
      </trkpt>
      <trkpt lat="42.7244450" lon="-8.6504950">
        <ele>23.4</ele>
        <time>2022-06-19T07:45:10Z</time>
      </trkpt>
      <trkpt lat="42.7244750" lon="-8.6504850">
        <ele>23.4</ele>
        <time>2022-06-19T07:45:11Z</time>
      </trkpt>
      <trkpt lat="42.7245110" lon="-8.6504760">
        <ele>23.0</ele>
        <time>2022-06-19T07:45:12Z</time>
      </trkpt>
      <trkpt lat="42.7245480" lon="-8.6504810">
        <ele>23.0</ele>
        <time>2022-06-19T07:45:13Z</time>
      </trkpt>
      <trkpt lat="42.7245900" lon="-8.6504800">
        <ele>23.0</ele>
        <time>2022-06-19T07:45:14Z</time>
      </trkpt>
      <trkpt lat="42.7246330" lon="-8.6504760">
        <ele>23.0</ele>
        <time>2022-06-19T07:45:15Z</time>
      </trkpt>
      <trkpt lat="42.7246760" lon="-8.6504650">
        <ele>21.6</ele>
        <time>2022-06-19T07:45:16Z</time>
      </trkpt>
      <trkpt lat="42.7247260" lon="-8.6504480">
        <ele>21.6</ele>
        <time>2022-06-19T07:45:17Z</time>
      </trkpt>
      <trkpt lat="42.7247780" lon="-8.6504310">
        <ele>21.6</ele>
        <time>2022-06-19T07:45:18Z</time>
      </trkpt>
      <trkpt lat="42.7248300" lon="-8.6504160">
        <ele>20.6</ele>
        <time>2022-06-19T07:45:19Z</time>
      </trkpt>
      <trkpt lat="42.7248810" lon="-8.6504110">
        <ele>19.6</ele>
        <time>2022-06-19T07:45:20Z</time>
      </trkpt>
      <trkpt lat="42.7249300" lon="-8.6504150">
        <ele>19.6</ele>
        <time>2022-06-19T07:45:21Z</time>
      </trkpt>
      <trkpt lat="42.7249780" lon="-8.6504280">
        <ele>19.6</ele>
        <time>2022-06-19T07:45:22Z</time>
      </trkpt>
      <trkpt lat="42.7250250" lon="-8.6504430">
        <ele>18.6</ele>
        <time>2022-06-19T07:45:23Z</time>
      </trkpt>
      <trkpt lat="42.7250700" lon="-8.6504560">
        <ele>18.4</ele>
        <time>2022-06-19T07:45:24Z</time>
      </trkpt>
      <trkpt lat="42.7251200" lon="-8.6504500">
        <ele>18.4</ele>
        <time>2022-06-19T07:45:25Z</time>
      </trkpt>
      <trkpt lat="42.7251650" lon="-8.6504380">
        <ele>18.4</ele>
        <time>2022-06-19T07:45:26Z</time>
      </trkpt>
      <trkpt lat="42.7252080" lon="-8.6504280">
        <ele>17.4</ele>
        <time>2022-06-19T07:45:27Z</time>
      </trkpt>
      <trkpt lat="42.7252500" lon="-8.6504230">
        <ele>17.0</ele>
        <time>2022-06-19T07:45:28Z</time>
      </trkpt>
      <trkpt lat="42.7252860" lon="-8.6504260">
        <ele>17.0</ele>
        <time>2022-06-19T07:45:29Z</time>
      </trkpt>
      <trkpt lat="42.7253200" lon="-8.6504550">
        <ele>17.0</ele>
        <time>2022-06-19T07:45:30Z</time>
      </trkpt>
      <trkpt lat="42.7253550" lon="-8.6504860">
        <ele>16.2</ele>
        <time>2022-06-19T07:45:31Z</time>
      </trkpt>
      <trkpt lat="42.7253960" lon="-8.6505110">
        <ele>15.8</ele>
        <time>2022-06-19T07:45:32Z</time>
      </trkpt>
      <trkpt lat="42.7254430" lon="-8.6505230">
        <ele>15.8</ele>
        <time>2022-06-19T07:45:33Z</time>
      </trkpt>
      <trkpt lat="42.7254930" lon="-8.6505260">
        <ele>15.8</ele>
        <time>2022-06-19T07:45:34Z</time>
      </trkpt>
      <trkpt lat="42.7255460" lon="-8.6505230">
        <ele>14.8</ele>
        <time>2022-06-19T07:45:35Z</time>
      </trkpt>
      <trkpt lat="42.7256000" lon="-8.6505250">
        <ele>13.6</ele>
        <time>2022-06-19T07:45:36Z</time>
      </trkpt>
      <trkpt lat="42.7256510" lon="-8.6505210">
        <ele>13.6</ele>
        <time>2022-06-19T07:45:37Z</time>
      </trkpt>
      <trkpt lat="42.7256980" lon="-8.6505410">
        <ele>13.6</ele>
        <time>2022-06-19T07:45:38Z</time>
      </trkpt>
      <trkpt lat="42.7257400" lon="-8.6505810">
        <ele>12.6</ele>
        <time>2022-06-19T07:45:39Z</time>
      </trkpt>
      <trkpt lat="42.7257810" lon="-8.6506330">
        <ele>11.8</ele>
        <time>2022-06-19T07:45:40Z</time>
      </trkpt>
      <trkpt lat="42.7258310" lon="-8.6506750">
        <ele>11.8</ele>
        <time>2022-06-19T07:45:41Z</time>
      </trkpt>
      <trkpt lat="42.7258830" lon="-8.6507110">
        <ele>11.8</ele>
        <time>2022-06-19T07:45:42Z</time>
      </trkpt>
      <trkpt lat="42.7259380" lon="-8.6507450">
        <ele>11.8</ele>
        <time>2022-06-19T07:45:43Z</time>
      </trkpt>
      <trkpt lat="42.7259860" lon="-8.6507730">
        <ele>10.4</ele>
        <time>2022-06-19T07:45:44Z</time>
      </trkpt>
      <trkpt lat="42.7260330" lon="-8.6508060">
        <ele>10.4</ele>
        <time>2022-06-19T07:45:45Z</time>
      </trkpt>
      <trkpt lat="42.7260680" lon="-8.6508350">
        <ele>10.4</ele>
        <time>2022-06-19T07:45:46Z</time>
      </trkpt>
      <trkpt lat="42.7261000" lon="-8.6508580">
        <ele>11.4</ele>
        <time>2022-06-19T07:45:47Z</time>
      </trkpt>
      <trkpt lat="42.7261100" lon="-8.6508850">
        <ele>11.4</ele>
        <time>2022-06-19T07:45:48Z</time>
      </trkpt>
      <trkpt lat="42.7261080" lon="-8.6509180">
        <ele>11.4</ele>
        <time>2022-06-19T07:45:49Z</time>
      </trkpt>
      <trkpt lat="42.7261010" lon="-8.6509550">
        <ele>11.4</ele>
        <time>2022-06-19T07:45:50Z</time>
      </trkpt>
      <trkpt lat="42.7260860" lon="-8.6509880">
        <ele>11.4</ele>
        <time>2022-06-19T07:45:51Z</time>
      </trkpt>
      <trkpt lat="42.7260710" lon="-8.6510280">
        <ele>11.2</ele>
        <time>2022-06-19T07:45:52Z</time>
      </trkpt>
      <trkpt lat="42.7260560" lon="-8.6510700">
        <ele>11.2</ele>
        <time>2022-06-19T07:45:53Z</time>
      </trkpt>
      <trkpt lat="42.7260400" lon="-8.6511110">
        <ele>11.2</ele>
        <time>2022-06-19T07:45:54Z</time>
      </trkpt>
      <trkpt lat="42.7260260" lon="-8.6511530">
        <ele>10.6</ele>
        <time>2022-06-19T07:45:55Z</time>
      </trkpt>
      <trkpt lat="42.7260160" lon="-8.6511930">
        <ele>10.6</ele>
        <time>2022-06-19T07:45:56Z</time>
      </trkpt>
      <trkpt lat="42.7260030" lon="-8.6512400">
        <ele>10.6</ele>
        <time>2022-06-19T07:45:57Z</time>
      </trkpt>
      <trkpt lat="42.7259910" lon="-8.6512860">
        <ele>10.6</ele>
        <time>2022-06-19T07:45:58Z</time>
      </trkpt>
      <trkpt lat="42.7259800" lon="-8.6513260">
        <ele>10.4</ele>
        <time>2022-06-19T07:45:59Z</time>
      </trkpt>
      <trkpt lat="42.7259700" lon="-8.6513560">
        <ele>11.2</ele>
        <time>2022-06-19T07:46:00Z</time>
      </trkpt>
      <trkpt lat="42.7259610" lon="-8.6513800">
        <ele>11.2</ele>
        <time>2022-06-19T07:46:01Z</time>
      </trkpt>
      <trkpt lat="42.7259550" lon="-8.6514010">
        <ele>11.2</ele>
        <time>2022-06-19T07:46:02Z</time>
      </trkpt>
      <trkpt lat="42.7259500" lon="-8.6514200">
        <ele>12.0</ele>
        <time>2022-06-19T07:46:03Z</time>
      </trkpt>
      <trkpt lat="42.7259460" lon="-8.6514430">
        <ele>12.2</ele>
        <time>2022-06-19T07:46:04Z</time>
      </trkpt>
      <trkpt lat="42.7259360" lon="-8.6514660">
        <ele>12.2</ele>
        <time>2022-06-19T07:46:05Z</time>
      </trkpt>
      <trkpt lat="42.7259180" lon="-8.6514980">
        <ele>12.2</ele>
        <time>2022-06-19T07:46:06Z</time>
      </trkpt>
      <trkpt lat="42.7259030" lon="-8.6515380">
        <ele>11.2</ele>
        <time>2022-06-19T07:46:07Z</time>
      </trkpt>
      <trkpt lat="42.7258880" lon="-8.6515930">
        <ele>9.2</ele>
        <time>2022-06-19T07:46:08Z</time>
      </trkpt>
      <trkpt lat="42.7258760" lon="-8.6516510">
        <ele>9.2</ele>
        <time>2022-06-19T07:46:09Z</time>
      </trkpt>
      <trkpt lat="42.7258660" lon="-8.6517180">
        <ele>9.2</ele>
        <time>2022-06-19T07:46:10Z</time>
      </trkpt>
      <trkpt lat="42.7258610" lon="-8.6517860">
        <ele>8.4</ele>
        <time>2022-06-19T07:46:11Z</time>
      </trkpt>
      <trkpt lat="42.7258580" lon="-8.6518510">
        <ele>8.2</ele>
        <time>2022-06-19T07:46:12Z</time>
      </trkpt>
      <trkpt lat="42.7258530" lon="-8.6519110">
        <ele>8.2</ele>
        <time>2022-06-19T07:46:13Z</time>
      </trkpt>
      <trkpt lat="42.7258460" lon="-8.6519700">
        <ele>8.2</ele>
        <time>2022-06-19T07:46:14Z</time>
      </trkpt>
      <trkpt lat="42.7258380" lon="-8.6520260">
        <ele>8.6</ele>
        <time>2022-06-19T07:46:15Z</time>
      </trkpt>
      <trkpt lat="42.7258230" lon="-8.6520830">
        <ele>8.6</ele>
        <time>2022-06-19T07:46:16Z</time>
      </trkpt>
      <trkpt lat="42.7258110" lon="-8.6521360">
        <ele>8.6</ele>
        <time>2022-06-19T07:46:17Z</time>
      </trkpt>
      <trkpt lat="42.7257980" lon="-8.6521860">
        <ele>8.6</ele>
        <time>2022-06-19T07:46:18Z</time>
      </trkpt>
      <trkpt lat="42.7257830" lon="-8.6522360">
        <ele>8.6</ele>
        <time>2022-06-19T07:46:19Z</time>
      </trkpt>
      <trkpt lat="42.7257700" lon="-8.6522850">
        <ele>10.0</ele>
        <time>2022-06-19T07:46:20Z</time>
      </trkpt>
      <trkpt lat="42.7257580" lon="-8.6523330">
        <ele>10.0</ele>
        <time>2022-06-19T07:46:21Z</time>
      </trkpt>
      <trkpt lat="42.7257460" lon="-8.6523730">
        <ele>10.0</ele>
        <time>2022-06-19T07:46:22Z</time>
      </trkpt>
      <trkpt lat="42.7257380" lon="-8.6524110">
        <ele>9.6</ele>
        <time>2022-06-19T07:46:23Z</time>
      </trkpt>
      <trkpt lat="42.7257260" lon="-8.6524380">
        <ele>10.4</ele>
        <time>2022-06-19T07:46:24Z</time>
      </trkpt>
      <trkpt lat="42.7257160" lon="-8.6524410">
        <ele>10.4</ele>
        <time>2022-06-19T07:46:25Z</time>
      </trkpt>
      <trkpt lat="42.7257160" lon="-8.6524280">
        <ele>10.4</ele>
        <time>2022-06-19T07:46:26Z</time>
      </trkpt>
      <trkpt lat="42.7257210" lon="-8.6524110">
        <ele>11.4</ele>
        <time>2022-06-19T07:46:27Z</time>
      </trkpt>
      <trkpt lat="42.7257230" lon="-8.6523900">
        <ele>11.0</ele>
        <time>2022-06-19T07:46:28Z</time>
      </trkpt>
      <trkpt lat="42.7257160" lon="-8.6523660">
        <ele>11.0</ele>
        <time>2022-06-19T07:46:29Z</time>
      </trkpt>
      <trkpt lat="42.7256950" lon="-8.6523580">
        <ele>11.0</ele>
        <time>2022-06-19T07:46:30Z</time>
      </trkpt>
      <trkpt lat="42.7256630" lon="-8.6523650">
        <ele>11.0</ele>
        <time>2022-06-19T07:46:31Z</time>
      </trkpt>
      <trkpt lat="42.7256350" lon="-8.6523780">
        <ele>5.6</ele>
        <time>2022-06-19T07:46:32Z</time>
      </trkpt>
      <trkpt lat="42.7256130" lon="-8.6523800">
        <ele>5.6</ele>
        <time>2022-06-19T07:46:33Z</time>
      </trkpt>
      <trkpt lat="42.7255660" lon="-8.6523680">
        <ele>5.6</ele>
        <time>2022-06-19T07:46:34Z</time>
      </trkpt>
      <trkpt lat="42.7255330" lon="-8.6523530">
        <ele>5.6</ele>
        <time>2022-06-19T07:46:35Z</time>
      </trkpt>
      <trkpt lat="42.7254930" lon="-8.6523530">
        <ele>6.8</ele>
        <time>2022-06-19T07:46:36Z</time>
      </trkpt>
      <trkpt lat="42.7254660" lon="-8.6523880">
        <ele>6.8</ele>
        <time>2022-06-19T07:46:37Z</time>
      </trkpt>
      <trkpt lat="42.7254560" lon="-8.6524260">
        <ele>6.8</ele>
        <time>2022-06-19T07:46:38Z</time>
      </trkpt>
      <trkpt lat="42.7254550" lon="-8.6524680">
        <ele>7.2</ele>
        <time>2022-06-19T07:46:39Z</time>
      </trkpt>
      <trkpt lat="42.7254600" lon="-8.6525180">
        <ele>7.8</ele>
        <time>2022-06-19T07:46:40Z</time>
      </trkpt>
      <trkpt lat="42.7254660" lon="-8.6525760">
        <ele>7.8</ele>
        <time>2022-06-19T07:46:41Z</time>
      </trkpt>
      <trkpt lat="42.7254760" lon="-8.6526380">
        <ele>7.8</ele>
        <time>2022-06-19T07:46:42Z</time>
      </trkpt>
      <trkpt lat="42.7254860" lon="-8.6527010">
        <ele>7.8</ele>
        <time>2022-06-19T07:46:43Z</time>
      </trkpt>
      <trkpt lat="42.7254960" lon="-8.6527680">
        <ele>8.0</ele>
        <time>2022-06-19T07:46:44Z</time>
      </trkpt>
      <trkpt lat="42.7255100" lon="-8.6528300">
        <ele>8.0</ele>
        <time>2022-06-19T07:46:45Z</time>
      </trkpt>
      <trkpt lat="42.7255260" lon="-8.6528860">
        <ele>8.0</ele>
        <time>2022-06-19T07:46:46Z</time>
      </trkpt>
      <trkpt lat="42.7255380" lon="-8.6529310">
        <ele>9.0</ele>
        <time>2022-06-19T07:46:47Z</time>
      </trkpt>
      <trkpt lat="42.7255450" lon="-8.6529680">
        <ele>11.2</ele>
        <time>2022-06-19T07:46:48Z</time>
      </trkpt>
      <trkpt lat="42.7255480" lon="-8.6530000">
        <ele>11.2</ele>
        <time>2022-06-19T07:46:49Z</time>
      </trkpt>
      <trkpt lat="42.7255480" lon="-8.6530230">
        <ele>11.2</ele>
        <time>2022-06-19T07:46:50Z</time>
      </trkpt>
      <trkpt lat="42.7255600" lon="-8.6530400">
        <ele>11.6</ele>
        <time>2022-06-19T07:46:51Z</time>
      </trkpt>
      <trkpt lat="42.7255660" lon="-8.6530580">
        <ele>11.6</ele>
        <time>2022-06-19T07:46:52Z</time>
      </trkpt>
      <trkpt lat="42.7255680" lon="-8.6530810">
        <ele>11.6</ele>
        <time>2022-06-19T07:46:53Z</time>
      </trkpt>
      <trkpt lat="42.7255680" lon="-8.6531130">
        <ele>11.6</ele>
        <time>2022-06-19T07:46:54Z</time>
      </trkpt>
      <trkpt lat="42.7255680" lon="-8.6531450">
        <ele>11.6</ele>
        <time>2022-06-19T07:46:55Z</time>
      </trkpt>
      <trkpt lat="42.7255700" lon="-8.6531800">
        <ele>11.2</ele>
        <time>2022-06-19T07:46:56Z</time>
      </trkpt>
      <trkpt lat="42.7255710" lon="-8.6532150">
        <ele>11.2</ele>
        <time>2022-06-19T07:46:57Z</time>
      </trkpt>
      <trkpt lat="42.7255710" lon="-8.6532530">
        <ele>11.2</ele>
        <time>2022-06-19T07:46:58Z</time>
      </trkpt>
      <trkpt lat="42.7255730" lon="-8.6532910">
        <ele>11.2</ele>
        <time>2022-06-19T07:46:59Z</time>
      </trkpt>
      <trkpt lat="42.7255760" lon="-8.6533280">
        <ele>11.0</ele>
        <time>2022-06-19T07:47:00Z</time>
      </trkpt>
      <trkpt lat="42.7255750" lon="-8.6533660">
        <ele>11.0</ele>
        <time>2022-06-19T07:47:01Z</time>
      </trkpt>
      <trkpt lat="42.7255760" lon="-8.6534050">
        <ele>11.0</ele>
        <time>2022-06-19T07:47:02Z</time>
      </trkpt>
      <trkpt lat="42.7255730" lon="-8.6534430">
        <ele>11.0</ele>
        <time>2022-06-19T07:47:03Z</time>
      </trkpt>
      <trkpt lat="42.7255700" lon="-8.6534800">
        <ele>10.8</ele>
        <time>2022-06-19T07:47:04Z</time>
      </trkpt>
      <trkpt lat="42.7255630" lon="-8.6535180">
        <ele>10.8</ele>
        <time>2022-06-19T07:47:05Z</time>
      </trkpt>
      <trkpt lat="42.7255610" lon="-8.6535500">
        <ele>10.8</ele>
        <time>2022-06-19T07:47:06Z</time>
      </trkpt>
      <trkpt lat="42.7255580" lon="-8.6535830">
        <ele>10.8</ele>
        <time>2022-06-19T07:47:07Z</time>
      </trkpt>
      <trkpt lat="42.7255510" lon="-8.6536250">
        <ele>10.6</ele>
        <time>2022-06-19T07:47:08Z</time>
      </trkpt>
      <trkpt lat="42.7255510" lon="-8.6536630">
        <ele>10.6</ele>
        <time>2022-06-19T07:47:09Z</time>
      </trkpt>
      <trkpt lat="42.7255480" lon="-8.6537000">
        <ele>10.6</ele>
        <time>2022-06-19T07:47:10Z</time>
      </trkpt>
      <trkpt lat="42.7255430" lon="-8.6537330">
        <ele>10.6</ele>
        <time>2022-06-19T07:47:11Z</time>
      </trkpt>
      <trkpt lat="42.7255350" lon="-8.6537610">
        <ele>11.0</ele>
        <time>2022-06-19T07:47:12Z</time>
      </trkpt>
      <trkpt lat="42.7255260" lon="-8.6537830">
        <ele>11.0</ele>
        <time>2022-06-19T07:47:13Z</time>
      </trkpt>
      <trkpt lat="42.7255180" lon="-8.6537950">
        <ele>11.0</ele>
        <time>2022-06-19T07:47:14Z</time>
      </trkpt>
      <trkpt lat="42.7255060" lon="-8.6538060">
        <ele>10.2</ele>
        <time>2022-06-19T07:47:15Z</time>
      </trkpt>
      <trkpt lat="42.7254900" lon="-8.6538080">
        <ele>9.6</ele>
        <time>2022-06-19T07:47:16Z</time>
      </trkpt>
      <trkpt lat="42.7254730" lon="-8.6538110">
        <ele>9.6</ele>
        <time>2022-06-19T07:47:17Z</time>
      </trkpt>
      <trkpt lat="42.7254560" lon="-8.6538210">
        <ele>9.6</ele>
        <time>2022-06-19T07:47:18Z</time>
      </trkpt>
      <trkpt lat="42.7254450" lon="-8.6538400">
        <ele>9.6</ele>
        <time>2022-06-19T07:47:19Z</time>
      </trkpt>
      <trkpt lat="42.7254480" lon="-8.6538610">
        <ele>10.6</ele>
        <time>2022-06-19T07:47:20Z</time>
      </trkpt>
      <trkpt lat="42.7254650" lon="-8.6538760">
        <ele>10.6</ele>
        <time>2022-06-19T07:47:21Z</time>
      </trkpt>
      <trkpt lat="42.7254830" lon="-8.6538860">
        <ele>10.6</ele>
        <time>2022-06-19T07:47:22Z</time>
      </trkpt>
      <trkpt lat="42.7255030" lon="-8.6538860">
        <ele>11.4</ele>
        <time>2022-06-19T07:47:23Z</time>
      </trkpt>
      <trkpt lat="42.7255200" lon="-8.6538880">
        <ele>11.6</ele>
        <time>2022-06-19T07:47:24Z</time>
      </trkpt>
      <trkpt lat="42.7255330" lon="-8.6538960">
        <ele>11.6</ele>
        <time>2022-06-19T07:47:25Z</time>
      </trkpt>
      <trkpt lat="42.7255480" lon="-8.6539100">
        <ele>11.6</ele>
        <time>2022-06-19T07:47:26Z</time>
      </trkpt>
      <trkpt lat="42.7255610" lon="-8.6539300">
        <ele>11.6</ele>
        <time>2022-06-19T07:47:27Z</time>
      </trkpt>
      <trkpt lat="42.7255700" lon="-8.6539600">
        <ele>11.0</ele>
        <time>2022-06-19T07:47:28Z</time>
      </trkpt>
      <trkpt lat="42.7255730" lon="-8.6539860">
        <ele>11.0</ele>
        <time>2022-06-19T07:47:29Z</time>
      </trkpt>
      <trkpt lat="42.7255710" lon="-8.6540160">
        <ele>11.0</ele>
        <time>2022-06-19T07:47:30Z</time>
      </trkpt>
      <trkpt lat="42.7255700" lon="-8.6540430">
        <ele>11.0</ele>
        <time>2022-06-19T07:47:31Z</time>
      </trkpt>
      <trkpt lat="42.7255680" lon="-8.6540730">
        <ele>11.0</ele>
        <time>2022-06-19T07:47:32Z</time>
      </trkpt>
      <trkpt lat="42.7255660" lon="-8.6541050">
        <ele>11.0</ele>
        <time>2022-06-19T07:47:33Z</time>
      </trkpt>
      <trkpt lat="42.7255650" lon="-8.6541360">
        <ele>11.0</ele>
        <time>2022-06-19T07:47:34Z</time>
      </trkpt>
      <trkpt lat="42.7255630" lon="-8.6541700">
        <ele>11.0</ele>
        <time>2022-06-19T07:47:35Z</time>
      </trkpt>
      <trkpt lat="42.7255600" lon="-8.6542030">
        <ele>11.0</ele>
        <time>2022-06-19T07:47:36Z</time>
      </trkpt>
      <trkpt lat="42.7255580" lon="-8.6542350">
        <ele>11.0</ele>
        <time>2022-06-19T07:47:37Z</time>
      </trkpt>
      <trkpt lat="42.7255550" lon="-8.6542610">
        <ele>11.0</ele>
        <time>2022-06-19T07:47:38Z</time>
      </trkpt>
      <trkpt lat="42.7255510" lon="-8.6542880">
        <ele>10.6</ele>
        <time>2022-06-19T07:47:39Z</time>
      </trkpt>
      <trkpt lat="42.7255480" lon="-8.6543150">
        <ele>10.8</ele>
        <time>2022-06-19T07:47:40Z</time>
      </trkpt>
      <trkpt lat="42.7255450" lon="-8.6543480">
        <ele>10.8</ele>
        <time>2022-06-19T07:47:41Z</time>
      </trkpt>
      <trkpt lat="42.7255400" lon="-8.6543780">
        <ele>10.8</ele>
        <time>2022-06-19T07:47:42Z</time>
      </trkpt>
      <trkpt lat="42.7255360" lon="-8.6544100">
        <ele>10.8</ele>
        <time>2022-06-19T07:47:43Z</time>
      </trkpt>
      <trkpt lat="42.7255330" lon="-8.6544350">
        <ele>11.0</ele>
        <time>2022-06-19T07:47:44Z</time>
      </trkpt>
      <trkpt lat="42.7255330" lon="-8.6544510">
        <ele>11.0</ele>
        <time>2022-06-19T07:47:45Z</time>
      </trkpt>
      <trkpt lat="42.7255360" lon="-8.6544600">
        <ele>11.0</ele>
        <time>2022-06-19T07:47:46Z</time>
      </trkpt>
      <trkpt lat="42.7255280" lon="-8.6545200">
        <ele>11.6</ele>
        <time>2022-06-19T07:48:22Z</time>
      </trkpt>
      <trkpt lat="42.7255250" lon="-8.6545510">
        <ele>11.6</ele>
        <time>2022-06-19T07:48:23Z</time>
      </trkpt>
      <trkpt lat="42.7255230" lon="-8.6545810">
        <ele>11.4</ele>
        <time>2022-06-19T07:48:24Z</time>
      </trkpt>
      <trkpt lat="42.7255210" lon="-8.6546160">
        <ele>11.4</ele>
        <time>2022-06-19T07:48:25Z</time>
      </trkpt>
      <trkpt lat="42.7255180" lon="-8.6546510">
        <ele>11.4</ele>
        <time>2022-06-19T07:48:26Z</time>
      </trkpt>
      <trkpt lat="42.7255150" lon="-8.6546880">
        <ele>11.4</ele>
        <time>2022-06-19T07:48:27Z</time>
      </trkpt>
      <trkpt lat="42.7255110" lon="-8.6547210">
        <ele>11.6</ele>
        <time>2022-06-19T07:48:28Z</time>
      </trkpt>
      <trkpt lat="42.7255100" lon="-8.6547510">
        <ele>11.6</ele>
        <time>2022-06-19T07:48:29Z</time>
      </trkpt>
      <trkpt lat="42.7255080" lon="-8.6547780">
        <ele>11.6</ele>
        <time>2022-06-19T07:48:30Z</time>
      </trkpt>
      <trkpt lat="42.7255060" lon="-8.6548080">
        <ele>11.6</ele>
        <time>2022-06-19T07:48:31Z</time>
      </trkpt>
      <trkpt lat="42.7255030" lon="-8.6548380">
        <ele>12.0</ele>
        <time>2022-06-19T07:48:32Z</time>
      </trkpt>
      <trkpt lat="42.7255010" lon="-8.6548710">
        <ele>12.0</ele>
        <time>2022-06-19T07:48:33Z</time>
      </trkpt>
      <trkpt lat="42.7254960" lon="-8.6549050">
        <ele>12.0</ele>
        <time>2022-06-19T07:48:34Z</time>
      </trkpt>
      <trkpt lat="42.7254930" lon="-8.6549380">
        <ele>12.0</ele>
        <time>2022-06-19T07:48:35Z</time>
      </trkpt>
      <trkpt lat="42.7254900" lon="-8.6549730">
        <ele>11.2</ele>
        <time>2022-06-19T07:48:36Z</time>
      </trkpt>
      <trkpt lat="42.7254860" lon="-8.6550060">
        <ele>11.2</ele>
        <time>2022-06-19T07:48:37Z</time>
      </trkpt>
      <trkpt lat="42.7254830" lon="-8.6550380">
        <ele>11.2</ele>
        <time>2022-06-19T07:48:38Z</time>
      </trkpt>
      <trkpt lat="42.7254810" lon="-8.6550700">
        <ele>11.0</ele>
        <time>2022-06-19T07:48:39Z</time>
      </trkpt>
      <trkpt lat="42.7254780" lon="-8.6551010">
        <ele>12.4</ele>
        <time>2022-06-19T07:48:40Z</time>
      </trkpt>
      <trkpt lat="42.7254760" lon="-8.6551380">
        <ele>12.4</ele>
        <time>2022-06-19T07:48:41Z</time>
      </trkpt>
      <trkpt lat="42.7254750" lon="-8.6551730">
        <ele>12.4</ele>
        <time>2022-06-19T07:48:42Z</time>
      </trkpt>
      <trkpt lat="42.7254710" lon="-8.6552060">
        <ele>11.4</ele>
        <time>2022-06-19T07:48:43Z</time>
      </trkpt>
      <trkpt lat="42.7254680" lon="-8.6552380">
        <ele>11.2</ele>
        <time>2022-06-19T07:48:44Z</time>
      </trkpt>
      <trkpt lat="42.7254660" lon="-8.6552700">
        <ele>11.2</ele>
        <time>2022-06-19T07:48:45Z</time>
      </trkpt>
      <trkpt lat="42.7254630" lon="-8.6553000">
        <ele>11.2</ele>
        <time>2022-06-19T07:48:46Z</time>
      </trkpt>
      <trkpt lat="42.7254600" lon="-8.6553280">
        <ele>11.8</ele>
        <time>2022-06-19T07:48:47Z</time>
      </trkpt>
      <trkpt lat="42.7254560" lon="-8.6553560">
        <ele>11.4</ele>
        <time>2022-06-19T07:48:48Z</time>
      </trkpt>
      <trkpt lat="42.7254530" lon="-8.6553850">
        <ele>11.4</ele>
        <time>2022-06-19T07:48:49Z</time>
      </trkpt>
      <trkpt lat="42.7254530" lon="-8.6554080">
        <ele>11.4</ele>
        <time>2022-06-19T07:48:50Z</time>
      </trkpt>
      <trkpt lat="42.7254510" lon="-8.6554330">
        <ele>12.0</ele>
        <time>2022-06-19T07:48:51Z</time>
      </trkpt>
      <trkpt lat="42.7254460" lon="-8.6554530">
        <ele>12.2</ele>
        <time>2022-06-19T07:48:52Z</time>
      </trkpt>
      <trkpt lat="42.7254410" lon="-8.6554680">
        <ele>12.2</ele>
        <time>2022-06-19T07:48:53Z</time>
      </trkpt>
      <trkpt lat="42.7254330" lon="-8.6554750">
        <ele>12.2</ele>
        <time>2022-06-19T07:48:54Z</time>
      </trkpt>
      <trkpt lat="42.7254150" lon="-8.6554750">
        <ele>11.6</ele>
        <time>2022-06-19T07:48:55Z</time>
      </trkpt>
      <trkpt lat="42.7253880" lon="-8.6554710">
        <ele>10.6</ele>
        <time>2022-06-19T07:48:56Z</time>
      </trkpt>
      <trkpt lat="42.7253560" lon="-8.6554680">
        <ele>10.6</ele>
        <time>2022-06-19T07:48:57Z</time>
      </trkpt>
      <trkpt lat="42.7253250" lon="-8.6554630">
        <ele>10.6</ele>
        <time>2022-06-19T07:48:58Z</time>
      </trkpt>
      <trkpt lat="42.7252950" lon="-8.6554580">
        <ele>10.4</ele>
        <time>2022-06-19T07:48:59Z</time>
      </trkpt>
      <trkpt lat="42.7252700" lon="-8.6554530">
        <ele>9.8</ele>
        <time>2022-06-19T07:49:00Z</time>
      </trkpt>
      <trkpt lat="42.7252480" lon="-8.6554550">
        <ele>9.8</ele>
        <time>2022-06-19T07:49:01Z</time>
      </trkpt>
      <trkpt lat="42.7252310" lon="-8.6554680">
        <ele>9.8</ele>
        <time>2022-06-19T07:49:02Z</time>
      </trkpt>
      <trkpt lat="42.7252260" lon="-8.6554860">
        <ele>9.8</ele>
        <time>2022-06-19T07:49:03Z</time>
      </trkpt>
      <trkpt lat="42.7252260" lon="-8.6555110">
        <ele>10.2</ele>
        <time>2022-06-19T07:49:04Z</time>
      </trkpt>
      <trkpt lat="42.7252300" lon="-8.6555360">
        <ele>10.2</ele>
        <time>2022-06-19T07:49:05Z</time>
      </trkpt>
      <trkpt lat="42.7252350" lon="-8.6555630">
        <ele>10.2</ele>
        <time>2022-06-19T07:49:06Z</time>
      </trkpt>
      <trkpt lat="42.7252450" lon="-8.6555900">
        <ele>9.8</ele>
        <time>2022-06-19T07:49:07Z</time>
      </trkpt>
      <trkpt lat="42.7252680" lon="-8.6556060">
        <ele>9.6</ele>
        <time>2022-06-19T07:49:08Z</time>
      </trkpt>
      <trkpt lat="42.7252930" lon="-8.6556110">
        <ele>9.6</ele>
        <time>2022-06-19T07:49:09Z</time>
      </trkpt>
      <trkpt lat="42.7253150" lon="-8.6556150">
        <ele>9.6</ele>
        <time>2022-06-19T07:49:10Z</time>
      </trkpt>
      <trkpt lat="42.7253350" lon="-8.6556180">
        <ele>9.8</ele>
        <time>2022-06-19T07:49:11Z</time>
      </trkpt>
      <trkpt lat="42.7253550" lon="-8.6556200">
        <ele>10.4</ele>
        <time>2022-06-19T07:49:12Z</time>
      </trkpt>
      <trkpt lat="42.7253750" lon="-8.6556280">
        <ele>10.4</ele>
        <time>2022-06-19T07:49:13Z</time>
      </trkpt>
      <trkpt lat="42.7253950" lon="-8.6556380">
        <ele>10.4</ele>
        <time>2022-06-19T07:49:14Z</time>
      </trkpt>
      <trkpt lat="42.7254150" lon="-8.6556550">
        <ele>10.4</ele>
        <time>2022-06-19T07:49:15Z</time>
      </trkpt>
      <trkpt lat="42.7254300" lon="-8.6556760">
        <ele>11.0</ele>
        <time>2022-06-19T07:49:16Z</time>
      </trkpt>
      <trkpt lat="42.7254410" lon="-8.6556980">
        <ele>11.0</ele>
        <time>2022-06-19T07:49:17Z</time>
      </trkpt>
      <trkpt lat="42.7254510" lon="-8.6557210">
        <ele>11.0</ele>
        <time>2022-06-19T07:49:18Z</time>
      </trkpt>
      <trkpt lat="42.7254600" lon="-8.6557480">
        <ele>11.0</ele>
        <time>2022-06-19T07:49:19Z</time>
      </trkpt>
      <trkpt lat="42.7254700" lon="-8.6557800">
        <ele>11.4</ele>
        <time>2022-06-19T07:49:20Z</time>
      </trkpt>
      <trkpt lat="42.7254780" lon="-8.6558060">
        <ele>11.4</ele>
        <time>2022-06-19T07:49:21Z</time>
      </trkpt>
      <trkpt lat="42.7254850" lon="-8.6558300">
        <ele>11.4</ele>
        <time>2022-06-19T07:49:22Z</time>
      </trkpt>
      <trkpt lat="42.7254860" lon="-8.6558560">
        <ele>10.8</ele>
        <time>2022-06-19T07:49:23Z</time>
      </trkpt>
      <trkpt lat="42.7254810" lon="-8.6558900">
        <ele>10.2</ele>
        <time>2022-06-19T07:49:24Z</time>
      </trkpt>
      <trkpt lat="42.7254730" lon="-8.6559280">
        <ele>10.2</ele>
        <time>2022-06-19T07:49:25Z</time>
      </trkpt>
      <trkpt lat="42.7254650" lon="-8.6559610">
        <ele>10.2</ele>
        <time>2022-06-19T07:49:26Z</time>
      </trkpt>
      <trkpt lat="42.7254510" lon="-8.6559860">
        <ele>9.2</ele>
        <time>2022-06-19T07:49:27Z</time>
      </trkpt>
      <trkpt lat="42.7254350" lon="-8.6560060">
        <ele>8.4</ele>
        <time>2022-06-19T07:49:28Z</time>
      </trkpt>
      <trkpt lat="42.7254210" lon="-8.6560250">
        <ele>8.4</ele>
        <time>2022-06-19T07:49:29Z</time>
      </trkpt>
      <trkpt lat="42.7254180" lon="-8.6560330">
        <ele>8.4</ele>
        <time>2022-06-19T07:49:30Z</time>
      </trkpt>
      <trkpt lat="42.7254350" lon="-8.6560860">
        <ele>8.6</ele>
        <time>2022-06-19T07:49:39Z</time>
      </trkpt>
      <trkpt lat="42.7254530" lon="-8.6561130">
        <ele>9.0</ele>
        <time>2022-06-19T07:49:40Z</time>
      </trkpt>
      <trkpt lat="42.7254800" lon="-8.6561210">
        <ele>9.0</ele>
        <time>2022-06-19T07:49:41Z</time>
      </trkpt>
      <trkpt lat="42.7255080" lon="-8.6561180">
        <ele>9.0</ele>
        <time>2022-06-19T07:49:42Z</time>
      </trkpt>
      <trkpt lat="42.7255330" lon="-8.6561080">
        <ele>9.2</ele>
        <time>2022-06-19T07:49:43Z</time>
      </trkpt>
      <trkpt lat="42.7255550" lon="-8.6561000">
        <ele>9.4</ele>
        <time>2022-06-19T07:49:44Z</time>
      </trkpt>
      <trkpt lat="42.7255750" lon="-8.6560930">
        <ele>9.4</ele>
        <time>2022-06-19T07:49:45Z</time>
      </trkpt>
      <trkpt lat="42.7255950" lon="-8.6560850">
        <ele>9.4</ele>
        <time>2022-06-19T07:49:46Z</time>
      </trkpt>
      <trkpt lat="42.7256160" lon="-8.6560780">
        <ele>9.4</ele>
        <time>2022-06-19T07:49:47Z</time>
      </trkpt>
      <trkpt lat="42.7256430" lon="-8.6560700">
        <ele>9.0</ele>
        <time>2022-06-19T07:49:48Z</time>
      </trkpt>
      <trkpt lat="42.7256680" lon="-8.6560680">
        <ele>9.0</ele>
        <time>2022-06-19T07:49:49Z</time>
      </trkpt>
      <trkpt lat="42.7256850" lon="-8.6560710">
        <ele>9.0</ele>
        <time>2022-06-19T07:49:50Z</time>
      </trkpt>
      <trkpt lat="42.7256980" lon="-8.6560760">
        <ele>9.0</ele>
        <time>2022-06-19T07:49:51Z</time>
      </trkpt>
      <trkpt lat="42.7257110" lon="-8.6560810">
        <ele>8.6</ele>
        <time>2022-06-19T07:49:52Z</time>
      </trkpt>
      <trkpt lat="42.7257260" lon="-8.6560830">
        <ele>8.6</ele>
        <time>2022-06-19T07:49:53Z</time>
      </trkpt>
      <trkpt lat="42.7257410" lon="-8.6560830">
        <ele>8.6</ele>
        <time>2022-06-19T07:49:54Z</time>
      </trkpt>
      <trkpt lat="42.7257550" lon="-8.6560810">
        <ele>9.0</ele>
        <time>2022-06-19T07:49:55Z</time>
      </trkpt>
      <trkpt lat="42.7257710" lon="-8.6560830">
        <ele>9.2</ele>
        <time>2022-06-19T07:49:56Z</time>
      </trkpt>
      <trkpt lat="42.7257910" lon="-8.6560900">
        <ele>9.2</ele>
        <time>2022-06-19T07:49:57Z</time>
      </trkpt>
      <trkpt lat="42.7258130" lon="-8.6560980">
        <ele>9.2</ele>
        <time>2022-06-19T07:49:58Z</time>
      </trkpt>
      <trkpt lat="42.7258360" lon="-8.6560980">
        <ele>8.2</ele>
        <time>2022-06-19T07:49:59Z</time>
      </trkpt>
      <trkpt lat="42.7258580" lon="-8.6560900">
        <ele>8.4</ele>
        <time>2022-06-19T07:50:00Z</time>
      </trkpt>
      <trkpt lat="42.7258800" lon="-8.6560850">
        <ele>8.4</ele>
        <time>2022-06-19T07:50:01Z</time>
      </trkpt>
      <trkpt lat="42.7259030" lon="-8.6560910">
        <ele>8.4</ele>
        <time>2022-06-19T07:50:02Z</time>
      </trkpt>
      <trkpt lat="42.7259230" lon="-8.6561010">
        <ele>8.4</ele>
        <time>2022-06-19T07:50:03Z</time>
      </trkpt>
      <trkpt lat="42.7259430" lon="-8.6561110">
        <ele>8.2</ele>
        <time>2022-06-19T07:50:04Z</time>
      </trkpt>
      <trkpt lat="42.7259630" lon="-8.6561210">
        <ele>8.2</ele>
        <time>2022-06-19T07:50:05Z</time>
      </trkpt>
      <trkpt lat="42.7259810" lon="-8.6561250">
        <ele>8.2</ele>
        <time>2022-06-19T07:50:06Z</time>
      </trkpt>
      <trkpt lat="42.7259980" lon="-8.6561230">
        <ele>8.2</ele>
        <time>2022-06-19T07:50:07Z</time>
      </trkpt>
      <trkpt lat="42.7260130" lon="-8.6561210">
        <ele>8.4</ele>
        <time>2022-06-19T07:50:08Z</time>
      </trkpt>
      <trkpt lat="42.7260260" lon="-8.6561210">
        <ele>8.4</ele>
        <time>2022-06-19T07:50:09Z</time>
      </trkpt>
      <trkpt lat="42.7260380" lon="-8.6561210">
        <ele>8.4</ele>
        <time>2022-06-19T07:50:10Z</time>
      </trkpt>
      <trkpt lat="42.7260500" lon="-8.6561260">
        <ele>8.0</ele>
        <time>2022-06-19T07:50:11Z</time>
      </trkpt>
      <trkpt lat="42.7260580" lon="-8.6561400">
        <ele>8.0</ele>
        <time>2022-06-19T07:50:12Z</time>
      </trkpt>
      <trkpt lat="42.7260580" lon="-8.6561610">
        <ele>8.0</ele>
        <time>2022-06-19T07:50:13Z</time>
      </trkpt>
      <trkpt lat="42.7260530" lon="-8.6561780">
        <ele>8.0</ele>
        <time>2022-06-19T07:50:14Z</time>
      </trkpt>
      <trkpt lat="42.7260410" lon="-8.6561830">
        <ele>7.8</ele>
        <time>2022-06-19T07:50:15Z</time>
      </trkpt>
      <trkpt lat="42.7260310" lon="-8.6561750">
        <ele>8.0</ele>
        <time>2022-06-19T07:50:16Z</time>
      </trkpt>
      <trkpt lat="42.7260180" lon="-8.6561700">
        <ele>8.0</ele>
        <time>2022-06-19T07:50:17Z</time>
      </trkpt>
      <trkpt lat="42.7260060" lon="-8.6561680">
        <ele>8.0</ele>
        <time>2022-06-19T07:50:18Z</time>
      </trkpt>
      <trkpt lat="42.7259930" lon="-8.6561750">
        <ele>7.8</ele>
        <time>2022-06-19T07:50:19Z</time>
      </trkpt>
      <trkpt lat="42.7259810" lon="-8.6561850">
        <ele>7.6</ele>
        <time>2022-06-19T07:50:20Z</time>
      </trkpt>
      <trkpt lat="42.7259680" lon="-8.6562010">
        <ele>7.6</ele>
        <time>2022-06-19T07:50:21Z</time>
      </trkpt>
      <trkpt lat="42.7259600" lon="-8.6562130">
        <ele>7.6</ele>
        <time>2022-06-19T07:50:22Z</time>
      </trkpt>
      <trkpt lat="42.7259530" lon="-8.6562210">
        <ele>7.6</ele>
        <time>2022-06-19T07:50:23Z</time>
      </trkpt>
      <trkpt lat="42.7259460" lon="-8.6562230">
        <ele>8.4</ele>
        <time>2022-06-19T07:50:24Z</time>
      </trkpt>
      <trkpt lat="42.7259360" lon="-8.6562230">
        <ele>8.4</ele>
        <time>2022-06-19T07:50:25Z</time>
      </trkpt>
      <trkpt lat="42.7259280" lon="-8.6562250">
        <ele>8.4</ele>
        <time>2022-06-19T07:50:26Z</time>
      </trkpt>
      <trkpt lat="42.7259180" lon="-8.6562210">
        <ele>8.4</ele>
        <time>2022-06-19T07:50:27Z</time>
      </trkpt>
      <trkpt lat="42.7259050" lon="-8.6562210">
        <ele>7.8</ele>
        <time>2022-06-19T07:50:28Z</time>
      </trkpt>
      <trkpt lat="42.7258910" lon="-8.6562200">
        <ele>7.8</ele>
        <time>2022-06-19T07:50:29Z</time>
      </trkpt>
      <trkpt lat="42.7258760" lon="-8.6562150">
        <ele>7.8</ele>
        <time>2022-06-19T07:50:30Z</time>
      </trkpt>
      <trkpt lat="42.7258630" lon="-8.6562080">
        <ele>8.0</ele>
        <time>2022-06-19T07:50:31Z</time>
      </trkpt>
      <trkpt lat="42.7258480" lon="-8.6562000">
        <ele>8.0</ele>
        <time>2022-06-19T07:50:32Z</time>
      </trkpt>
      <trkpt lat="42.7258380" lon="-8.6561880">
        <ele>8.0</ele>
        <time>2022-06-19T07:50:33Z</time>
      </trkpt>
      <trkpt lat="42.7258230" lon="-8.6561800">
        <ele>8.0</ele>
        <time>2022-06-19T07:50:34Z</time>
      </trkpt>
      <trkpt lat="42.7258100" lon="-8.6561730">
        <ele>8.0</ele>
        <time>2022-06-19T07:50:35Z</time>
      </trkpt>
      <trkpt lat="42.7257980" lon="-8.6561680">
        <ele>7.8</ele>
        <time>2022-06-19T07:50:36Z</time>
      </trkpt>
      <trkpt lat="42.7257850" lon="-8.6561650">
        <ele>7.8</ele>
        <time>2022-06-19T07:50:37Z</time>
      </trkpt>
      <trkpt lat="42.7257700" lon="-8.6561600">
        <ele>7.8</ele>
        <time>2022-06-19T07:50:38Z</time>
      </trkpt>
      <trkpt lat="42.7257550" lon="-8.6561580">
        <ele>7.8</ele>
        <time>2022-06-19T07:50:39Z</time>
      </trkpt>
      <trkpt lat="42.7257410" lon="-8.6561610">
        <ele>7.8</ele>
        <time>2022-06-19T07:50:40Z</time>
      </trkpt>
      <trkpt lat="42.7257280" lon="-8.6561630">
        <ele>7.8</ele>
        <time>2022-06-19T07:50:41Z</time>
      </trkpt>
      <trkpt lat="42.7257150" lon="-8.6561660">
        <ele>7.8</ele>
        <time>2022-06-19T07:50:42Z</time>
      </trkpt>
      <trkpt lat="42.7257030" lon="-8.6561730">
        <ele>8.4</ele>
        <time>2022-06-19T07:50:43Z</time>
      </trkpt>
      <trkpt lat="42.7256950" lon="-8.6561860">
        <ele>8.4</ele>
        <time>2022-06-19T07:50:44Z</time>
      </trkpt>
      <trkpt lat="42.7256910" lon="-8.6562010">
        <ele>8.4</ele>
        <time>2022-06-19T07:50:45Z</time>
      </trkpt>
      <trkpt lat="42.7256910" lon="-8.6562060">
        <ele>8.4</ele>
        <time>2022-06-19T07:50:46Z</time>
      </trkpt>
      <trkpt lat="42.7256910" lon="-8.6562060">
        <ele>9.0</ele>
        <time>2022-06-19T07:50:47Z</time>
      </trkpt>
      <trkpt lat="42.7257530" lon="-8.6562560">
        <ele>8.4</ele>
        <time>2022-06-19T07:51:28Z</time>
      </trkpt>
      <trkpt lat="42.7257650" lon="-8.6562480">
        <ele>8.4</ele>
        <time>2022-06-19T07:51:29Z</time>
      </trkpt>
      <trkpt lat="42.7257760" lon="-8.6562460">
        <ele>8.4</ele>
        <time>2022-06-19T07:51:30Z</time>
      </trkpt>
      <trkpt lat="42.7257930" lon="-8.6562550">
        <ele>8.4</ele>
        <time>2022-06-19T07:51:31Z</time>
      </trkpt>
      <trkpt lat="42.7258060" lon="-8.6562710">
        <ele>7.2</ele>
        <time>2022-06-19T07:51:32Z</time>
      </trkpt>
      <trkpt lat="42.7258110" lon="-8.6562930">
        <ele>7.2</ele>
        <time>2022-06-19T07:51:33Z</time>
      </trkpt>
      <trkpt lat="42.7258030" lon="-8.6563100">
        <ele>7.2</ele>
        <time>2022-06-19T07:51:34Z</time>
      </trkpt>
      <trkpt lat="42.7257950" lon="-8.6563200">
        <ele>7.8</ele>
        <time>2022-06-19T07:51:35Z</time>
      </trkpt>
      <trkpt lat="42.7257810" lon="-8.6563180">
        <ele>8.6</ele>
        <time>2022-06-19T07:51:36Z</time>
      </trkpt>
      <trkpt lat="42.7257710" lon="-8.6563060">
        <ele>8.6</ele>
        <time>2022-06-19T07:51:37Z</time>
      </trkpt>
      <trkpt lat="42.7257580" lon="-8.6562860">
        <ele>8.6</ele>
        <time>2022-06-19T07:51:38Z</time>
      </trkpt>
      <trkpt lat="42.7257450" lon="-8.6562630">
        <ele>8.4</ele>
        <time>2022-06-19T07:51:39Z</time>
      </trkpt>
      <trkpt lat="42.7257280" lon="-8.6562400">
        <ele>7.8</ele>
        <time>2022-06-19T07:51:40Z</time>
      </trkpt>
      <trkpt lat="42.7257100" lon="-8.6562200">
        <ele>7.8</ele>
        <time>2022-06-19T07:51:41Z</time>
      </trkpt>
      <trkpt lat="42.7256900" lon="-8.6561980">
        <ele>7.8</ele>
        <time>2022-06-19T07:51:42Z</time>
      </trkpt>
      <trkpt lat="42.7256700" lon="-8.6561760">
        <ele>7.8</ele>
        <time>2022-06-19T07:51:43Z</time>
      </trkpt>
      <trkpt lat="42.7256480" lon="-8.6561580">
        <ele>7.4</ele>
        <time>2022-06-19T07:51:44Z</time>
      </trkpt>
      <trkpt lat="42.7256250" lon="-8.6561450">
        <ele>7.4</ele>
        <time>2022-06-19T07:51:45Z</time>
      </trkpt>
      <trkpt lat="42.7256010" lon="-8.6561460">
        <ele>7.4</ele>
        <time>2022-06-19T07:51:46Z</time>
      </trkpt>
      <trkpt lat="42.7255760" lon="-8.6561580">
        <ele>7.4</ele>
        <time>2022-06-19T07:51:47Z</time>
      </trkpt>
      <trkpt lat="42.7255510" lon="-8.6561700">
        <ele>8.0</ele>
        <time>2022-06-19T07:51:48Z</time>
      </trkpt>
      <trkpt lat="42.7255230" lon="-8.6561780">
        <ele>8.0</ele>
        <time>2022-06-19T07:51:49Z</time>
      </trkpt>
      <trkpt lat="42.7254960" lon="-8.6561830">
        <ele>8.0</ele>
        <time>2022-06-19T07:51:50Z</time>
      </trkpt>
      <trkpt lat="42.7254760" lon="-8.6561900">
        <ele>8.0</ele>
        <time>2022-06-19T07:51:51Z</time>
      </trkpt>
      <trkpt lat="42.7254610" lon="-8.6561950">
        <ele>8.2</ele>
        <time>2022-06-19T07:51:52Z</time>
      </trkpt>
      <trkpt lat="42.7254510" lon="-8.6562000">
        <ele>8.2</ele>
        <time>2022-06-19T07:51:53Z</time>
      </trkpt>
      <trkpt lat="42.7254400" lon="-8.6561980">
        <ele>8.2</ele>
        <time>2022-06-19T07:51:54Z</time>
      </trkpt>
      <trkpt lat="42.7254300" lon="-8.6561950">
        <ele>8.2</ele>
        <time>2022-06-19T07:51:55Z</time>
      </trkpt>
      <trkpt lat="42.7254230" lon="-8.6561910">
        <ele>8.6</ele>
        <time>2022-06-19T07:51:56Z</time>
      </trkpt>
      <trkpt lat="42.7254210" lon="-8.6561800">
        <ele>8.6</ele>
        <time>2022-06-19T07:51:57Z</time>
      </trkpt>
      <trkpt lat="42.7254260" lon="-8.6561660">
        <ele>8.6</ele>
        <time>2022-06-19T07:51:58Z</time>
      </trkpt>
      <trkpt lat="42.7254380" lon="-8.6561530">
        <ele>8.4</ele>
        <time>2022-06-19T07:51:59Z</time>
      </trkpt>
      <trkpt lat="42.7254500" lon="-8.6561310">
        <ele>8.2</ele>
        <time>2022-06-19T07:52:00Z</time>
      </trkpt>
      <trkpt lat="42.7254580" lon="-8.6561050">
        <ele>8.2</ele>
        <time>2022-06-19T07:52:01Z</time>
      </trkpt>
      <trkpt lat="42.7254680" lon="-8.6560750">
        <ele>8.2</ele>
        <time>2022-06-19T07:52:02Z</time>
      </trkpt>
      <trkpt lat="42.7254810" lon="-8.6560480">
        <ele>9.0</ele>
        <time>2022-06-19T07:52:03Z</time>
      </trkpt>
      <trkpt lat="42.7254950" lon="-8.6560160">
        <ele>9.4</ele>
        <time>2022-06-19T07:52:04Z</time>
      </trkpt>
      <trkpt lat="42.7255050" lon="-8.6559880">
        <ele>9.4</ele>
        <time>2022-06-19T07:52:05Z</time>
      </trkpt>
      <trkpt lat="42.7255130" lon="-8.6559560">
        <ele>9.4</ele>
        <time>2022-06-19T07:52:06Z</time>
      </trkpt>
      <trkpt lat="42.7255160" lon="-8.6559280">
        <ele>10.4</ele>
        <time>2022-06-19T07:52:07Z</time>
      </trkpt>
      <trkpt lat="42.7255160" lon="-8.6559080">
        <ele>10.8</ele>
        <time>2022-06-19T07:52:08Z</time>
      </trkpt>
      <trkpt lat="42.7255150" lon="-8.6558950">
        <ele>10.8</ele>
        <time>2022-06-19T07:52:09Z</time>
      </trkpt>
      <trkpt lat="42.7255160" lon="-8.6558830">
        <ele>10.8</ele>
        <time>2022-06-19T07:52:10Z</time>
      </trkpt>
      <trkpt lat="42.7255260" lon="-8.6558780">
        <ele>10.8</ele>
        <time>2022-06-19T07:52:11Z</time>
      </trkpt>
      <trkpt lat="42.7255360" lon="-8.6558830">
        <ele>10.8</ele>
        <time>2022-06-19T07:52:12Z</time>
      </trkpt>
      <trkpt lat="42.7255400" lon="-8.6559030">
        <ele>10.8</ele>
        <time>2022-06-19T07:52:13Z</time>
      </trkpt>
      <trkpt lat="42.7255360" lon="-8.6559280">
        <ele>10.8</ele>
        <time>2022-06-19T07:52:14Z</time>
      </trkpt>
      <trkpt lat="42.7255250" lon="-8.6559560">
        <ele>9.8</ele>
        <time>2022-06-19T07:52:15Z</time>
      </trkpt>
      <trkpt lat="42.7255110" lon="-8.6559910">
        <ele>8.4</ele>
        <time>2022-06-19T07:52:16Z</time>
      </trkpt>
      <trkpt lat="42.7254960" lon="-8.6560350">
        <ele>8.4</ele>
        <time>2022-06-19T07:52:17Z</time>
      </trkpt>
      <trkpt lat="42.7254800" lon="-8.6560730">
        <ele>8.4</ele>
        <time>2022-06-19T07:52:18Z</time>
      </trkpt>
      <trkpt lat="42.7254700" lon="-8.6561030">
        <ele>8.4</ele>
        <time>2022-06-19T07:52:19Z</time>
      </trkpt>
      <trkpt lat="42.7254700" lon="-8.6561350">
        <ele>8.6</ele>
        <time>2022-06-19T07:52:20Z</time>
      </trkpt>
      <trkpt lat="42.7254900" lon="-8.6561580">
        <ele>8.6</ele>
        <time>2022-06-19T07:52:21Z</time>
      </trkpt>
      <trkpt lat="42.7255160" lon="-8.6561610">
        <ele>8.6</ele>
        <time>2022-06-19T07:52:22Z</time>
      </trkpt>
      <trkpt lat="42.7255430" lon="-8.6561500">
        <ele>8.6</ele>
        <time>2022-06-19T07:52:23Z</time>
      </trkpt>
      <trkpt lat="42.7255700" lon="-8.6561330">
        <ele>8.6</ele>
        <time>2022-06-19T07:52:24Z</time>
      </trkpt>
      <trkpt lat="42.7255980" lon="-8.6561300">
        <ele>8.6</ele>
        <time>2022-06-19T07:52:25Z</time>
      </trkpt>
      <trkpt lat="42.7256230" lon="-8.6561450">
        <ele>8.6</ele>
        <time>2022-06-19T07:52:26Z</time>
      </trkpt>
      <trkpt lat="42.7256450" lon="-8.6561700">
        <ele>8.6</ele>
        <time>2022-06-19T07:52:27Z</time>
      </trkpt>
      <trkpt lat="42.7256600" lon="-8.6562000">
        <ele>8.0</ele>
        <time>2022-06-19T07:52:28Z</time>
      </trkpt>
      <trkpt lat="42.7256700" lon="-8.6562310">
        <ele>8.0</ele>
        <time>2022-06-19T07:52:29Z</time>
      </trkpt>
      <trkpt lat="42.7256750" lon="-8.6562550">
        <ele>8.0</ele>
        <time>2022-06-19T07:52:30Z</time>
      </trkpt>
      <trkpt lat="42.7256780" lon="-8.6562760">
        <ele>7.8</ele>
        <time>2022-06-19T07:52:31Z</time>
      </trkpt>
      <trkpt lat="42.7256800" lon="-8.6562900">
        <ele>7.8</ele>
        <time>2022-06-19T07:52:32Z</time>
      </trkpt>
      <trkpt lat="42.7256800" lon="-8.6562930">
        <ele>7.8</ele>
        <time>2022-06-19T07:52:33Z</time>
      </trkpt>
      <trkpt lat="42.7257030" lon="-8.6563280">
        <ele>8.2</ele>
        <time>2022-06-19T07:54:02Z</time>
      </trkpt>
      <trkpt lat="42.7257000" lon="-8.6563500">
        <ele>8.2</ele>
        <time>2022-06-19T07:54:03Z</time>
      </trkpt>
      <trkpt lat="42.7257050" lon="-8.6563710">
        <ele>7.8</ele>
        <time>2022-06-19T07:54:04Z</time>
      </trkpt>
      <trkpt lat="42.7257050" lon="-8.6563960">
        <ele>7.8</ele>
        <time>2022-06-19T07:54:05Z</time>
      </trkpt>
      <trkpt lat="42.7257110" lon="-8.6564180">
        <ele>7.8</ele>
        <time>2022-06-19T07:54:06Z</time>
      </trkpt>
      <trkpt lat="42.7257230" lon="-8.6564360">
        <ele>7.4</ele>
        <time>2022-06-19T07:54:07Z</time>
      </trkpt>
      <trkpt lat="42.7257350" lon="-8.6564550">
        <ele>7.2</ele>
        <time>2022-06-19T07:54:08Z</time>
      </trkpt>
      <trkpt lat="42.7257430" lon="-8.6564750">
        <ele>7.2</ele>
        <time>2022-06-19T07:54:09Z</time>
      </trkpt>
      <trkpt lat="42.7257510" lon="-8.6565000">
        <ele>7.2</ele>
        <time>2022-06-19T07:54:10Z</time>
      </trkpt>
      <trkpt lat="42.7257600" lon="-8.6565280">
        <ele>7.2</ele>
        <time>2022-06-19T07:54:11Z</time>
      </trkpt>
      <trkpt lat="42.7257650" lon="-8.6565560">
        <ele>7.2</ele>
        <time>2022-06-19T07:54:12Z</time>
      </trkpt>
      <trkpt lat="42.7257700" lon="-8.6565860">
        <ele>7.2</ele>
        <time>2022-06-19T07:54:13Z</time>
      </trkpt>
      <trkpt lat="42.7257780" lon="-8.6566180">
        <ele>7.2</ele>
        <time>2022-06-19T07:54:14Z</time>
      </trkpt>
      <trkpt lat="42.7257860" lon="-8.6566480">
        <ele>7.2</ele>
        <time>2022-06-19T07:54:15Z</time>
      </trkpt>
      <trkpt lat="42.7257960" lon="-8.6566780">
        <ele>6.8</ele>
        <time>2022-06-19T07:54:16Z</time>
      </trkpt>
      <trkpt lat="42.7258100" lon="-8.6567100">
        <ele>6.8</ele>
        <time>2022-06-19T07:54:17Z</time>
      </trkpt>
      <trkpt lat="42.7258180" lon="-8.6567360">
        <ele>6.8</ele>
        <time>2022-06-19T07:54:18Z</time>
      </trkpt>
      <trkpt lat="42.7258260" lon="-8.6567660">
        <ele>6.8</ele>
        <time>2022-06-19T07:54:19Z</time>
      </trkpt>
      <trkpt lat="42.7258300" lon="-8.6567900">
        <ele>6.2</ele>
        <time>2022-06-19T07:54:20Z</time>
      </trkpt>
      <trkpt lat="42.7258380" lon="-8.6568180">
        <ele>6.2</ele>
        <time>2022-06-19T07:54:21Z</time>
      </trkpt>
      <trkpt lat="42.7258450" lon="-8.6568480">
        <ele>6.2</ele>
        <time>2022-06-19T07:54:22Z</time>
      </trkpt>
      <trkpt lat="42.7258530" lon="-8.6568800">
        <ele>7.0</ele>
        <time>2022-06-19T07:54:23Z</time>
      </trkpt>
      <trkpt lat="42.7258630" lon="-8.6569050">
        <ele>7.4</ele>
        <time>2022-06-19T07:54:24Z</time>
      </trkpt>
      <trkpt lat="42.7258730" lon="-8.6569360">
        <ele>7.4</ele>
        <time>2022-06-19T07:54:25Z</time>
      </trkpt>
      <trkpt lat="42.7258830" lon="-8.6569580">
        <ele>7.4</ele>
        <time>2022-06-19T07:54:26Z</time>
      </trkpt>
      <trkpt lat="42.7258860" lon="-8.6569900">
        <ele>7.4</ele>
        <time>2022-06-19T07:54:27Z</time>
      </trkpt>
      <trkpt lat="42.7258960" lon="-8.6570200">
        <ele>7.2</ele>
        <time>2022-06-19T07:54:28Z</time>
      </trkpt>
      <trkpt lat="42.7259100" lon="-8.6570510">
        <ele>7.2</ele>
        <time>2022-06-19T07:54:29Z</time>
      </trkpt>
      <trkpt lat="42.7259200" lon="-8.6570780">
        <ele>7.2</ele>
        <time>2022-06-19T07:54:30Z</time>
      </trkpt>
      <trkpt lat="42.7259280" lon="-8.6571110">
        <ele>7.2</ele>
        <time>2022-06-19T07:54:31Z</time>
      </trkpt>
      <trkpt lat="42.7259350" lon="-8.6571450">
        <ele>7.2</ele>
        <time>2022-06-19T07:54:32Z</time>
      </trkpt>
      <trkpt lat="42.7259400" lon="-8.6571780">
        <ele>7.2</ele>
        <time>2022-06-19T07:54:33Z</time>
      </trkpt>
      <trkpt lat="42.7259450" lon="-8.6572080">
        <ele>7.2</ele>
        <time>2022-06-19T07:54:34Z</time>
      </trkpt>
      <trkpt lat="42.7259530" lon="-8.6572450">
        <ele>6.6</ele>
        <time>2022-06-19T07:54:35Z</time>
      </trkpt>
      <trkpt lat="42.7259610" lon="-8.6572760">
        <ele>6.6</ele>
        <time>2022-06-19T07:54:36Z</time>
      </trkpt>
      <trkpt lat="42.7259700" lon="-8.6572930">
        <ele>6.6</ele>
        <time>2022-06-19T07:54:37Z</time>
      </trkpt>
      <trkpt lat="42.7259750" lon="-8.6573210">
        <ele>6.6</ele>
        <time>2022-06-19T07:54:38Z</time>
      </trkpt>
      <trkpt lat="42.7259780" lon="-8.6573530">
        <ele>7.2</ele>
        <time>2022-06-19T07:54:39Z</time>
      </trkpt>
      <trkpt lat="42.7259910" lon="-8.6573910">
        <ele>7.8</ele>
        <time>2022-06-19T07:54:40Z</time>
      </trkpt>
      <trkpt lat="42.7260050" lon="-8.6574260">
        <ele>7.8</ele>
        <time>2022-06-19T07:54:41Z</time>
      </trkpt>
      <trkpt lat="42.7260150" lon="-8.6574630">
        <ele>7.8</ele>
        <time>2022-06-19T07:54:42Z</time>
      </trkpt>
      <trkpt lat="42.7260230" lon="-8.6575030">
        <ele>7.4</ele>
        <time>2022-06-19T07:54:43Z</time>
      </trkpt>
      <trkpt lat="42.7260280" lon="-8.6575480">
        <ele>7.0</ele>
        <time>2022-06-19T07:54:44Z</time>
      </trkpt>
      <trkpt lat="42.7260330" lon="-8.6575830">
        <ele>7.0</ele>
        <time>2022-06-19T07:54:45Z</time>
      </trkpt>
      <trkpt lat="42.7260510" lon="-8.6576260">
        <ele>7.0</ele>
        <time>2022-06-19T07:54:46Z</time>
      </trkpt>
      <trkpt lat="42.7260680" lon="-8.6576750">
        <ele>7.0</ele>
        <time>2022-06-19T07:54:47Z</time>
      </trkpt>
      <trkpt lat="42.7260850" lon="-8.6577200">
        <ele>7.6</ele>
        <time>2022-06-19T07:54:48Z</time>
      </trkpt>
      <trkpt lat="42.7261030" lon="-8.6577610">
        <ele>7.6</ele>
        <time>2022-06-19T07:54:49Z</time>
      </trkpt>
      <trkpt lat="42.7261210" lon="-8.6578060">
        <ele>7.6</ele>
        <time>2022-06-19T07:54:50Z</time>
      </trkpt>
      <trkpt lat="42.7261450" lon="-8.6578450">
        <ele>7.4</ele>
        <time>2022-06-19T07:54:51Z</time>
      </trkpt>
      <trkpt lat="42.7261660" lon="-8.6578810">
        <ele>7.4</ele>
        <time>2022-06-19T07:54:52Z</time>
      </trkpt>
      <trkpt lat="42.7261850" lon="-8.6579180">
        <ele>7.4</ele>
        <time>2022-06-19T07:54:53Z</time>
      </trkpt>
      <trkpt lat="42.7262010" lon="-8.6579550">
        <ele>7.4</ele>
        <time>2022-06-19T07:54:54Z</time>
      </trkpt>
      <trkpt lat="42.7262180" lon="-8.6579950">
        <ele>7.4</ele>
        <time>2022-06-19T07:54:55Z</time>
      </trkpt>
      <trkpt lat="42.7262360" lon="-8.6580310">
        <ele>7.6</ele>
        <time>2022-06-19T07:54:56Z</time>
      </trkpt>
      <trkpt lat="42.7262510" lon="-8.6580660">
        <ele>7.6</ele>
        <time>2022-06-19T07:54:57Z</time>
      </trkpt>
      <trkpt lat="42.7262680" lon="-8.6581010">
        <ele>7.6</ele>
        <time>2022-06-19T07:54:58Z</time>
      </trkpt>
      <trkpt lat="42.7262810" lon="-8.6581360">
        <ele>7.6</ele>
        <time>2022-06-19T07:54:59Z</time>
      </trkpt>
      <trkpt lat="42.7262950" lon="-8.6581730">
        <ele>7.8</ele>
        <time>2022-06-19T07:55:00Z</time>
      </trkpt>
      <trkpt lat="42.7263060" lon="-8.6582100">
        <ele>7.8</ele>
        <time>2022-06-19T07:55:01Z</time>
      </trkpt>
      <trkpt lat="42.7263200" lon="-8.6582430">
        <ele>7.8</ele>
        <time>2022-06-19T07:55:02Z</time>
      </trkpt>
      <trkpt lat="42.7263330" lon="-8.6582760">
        <ele>7.8</ele>
        <time>2022-06-19T07:55:03Z</time>
      </trkpt>
      <trkpt lat="42.7263450" lon="-8.6583100">
        <ele>7.8</ele>
        <time>2022-06-19T07:55:04Z</time>
      </trkpt>
      <trkpt lat="42.7263580" lon="-8.6583380">
        <ele>7.8</ele>
        <time>2022-06-19T07:55:05Z</time>
      </trkpt>
      <trkpt lat="42.7263710" lon="-8.6583660">
        <ele>7.8</ele>
        <time>2022-06-19T07:55:06Z</time>
      </trkpt>
      <trkpt lat="42.7263860" lon="-8.6583880">
        <ele>7.8</ele>
        <time>2022-06-19T07:55:07Z</time>
      </trkpt>
      <trkpt lat="42.7264000" lon="-8.6584030">
        <ele>8.4</ele>
        <time>2022-06-19T07:55:08Z</time>
      </trkpt>
      <trkpt lat="42.7264160" lon="-8.6584130">
        <ele>8.4</ele>
        <time>2022-06-19T07:55:09Z</time>
      </trkpt>
      <trkpt lat="42.7264330" lon="-8.6584200">
        <ele>8.4</ele>
        <time>2022-06-19T07:55:10Z</time>
      </trkpt>
      <trkpt lat="42.7264480" lon="-8.6584230">
        <ele>8.4</ele>
        <time>2022-06-19T07:55:11Z</time>
      </trkpt>
      <trkpt lat="42.7264650" lon="-8.6584230">
        <ele>8.0</ele>
        <time>2022-06-19T07:55:12Z</time>
      </trkpt>
      <trkpt lat="42.7264850" lon="-8.6584230">
        <ele>8.0</ele>
        <time>2022-06-19T07:55:13Z</time>
      </trkpt>
      <trkpt lat="42.7265030" lon="-8.6584230">
        <ele>8.0</ele>
        <time>2022-06-19T07:55:14Z</time>
      </trkpt>
      <trkpt lat="42.7265200" lon="-8.6584200">
        <ele>8.0</ele>
        <time>2022-06-19T07:55:15Z</time>
      </trkpt>
      <trkpt lat="42.7265360" lon="-8.6584200">
        <ele>8.4</ele>
        <time>2022-06-19T07:55:16Z</time>
      </trkpt>
      <trkpt lat="42.7265530" lon="-8.6584180">
        <ele>8.4</ele>
        <time>2022-06-19T07:55:17Z</time>
      </trkpt>
      <trkpt lat="42.7265700" lon="-8.6584200">
        <ele>8.4</ele>
        <time>2022-06-19T07:55:18Z</time>
      </trkpt>
      <trkpt lat="42.7265830" lon="-8.6584200">
        <ele>8.2</ele>
        <time>2022-06-19T07:55:19Z</time>
      </trkpt>
      <trkpt lat="42.7266000" lon="-8.6584210">
        <ele>8.2</ele>
        <time>2022-06-19T07:55:20Z</time>
      </trkpt>
      <trkpt lat="42.7266180" lon="-8.6584210">
        <ele>8.2</ele>
        <time>2022-06-19T07:55:21Z</time>
      </trkpt>
      <trkpt lat="42.7266380" lon="-8.6584160">
        <ele>8.2</ele>
        <time>2022-06-19T07:55:22Z</time>
      </trkpt>
      <trkpt lat="42.7266600" lon="-8.6584160">
        <ele>8.0</ele>
        <time>2022-06-19T07:55:23Z</time>
      </trkpt>
      <trkpt lat="42.7266810" lon="-8.6584180">
        <ele>8.0</ele>
        <time>2022-06-19T07:55:24Z</time>
      </trkpt>
      <trkpt lat="42.7267050" lon="-8.6584230">
        <ele>8.0</ele>
        <time>2022-06-19T07:55:25Z</time>
      </trkpt>
      <trkpt lat="42.7267260" lon="-8.6584300">
        <ele>8.0</ele>
        <time>2022-06-19T07:55:26Z</time>
      </trkpt>
      <trkpt lat="42.7267460" lon="-8.6584450">
        <ele>8.0</ele>
        <time>2022-06-19T07:55:27Z</time>
      </trkpt>
      <trkpt lat="42.7267580" lon="-8.6584710">
        <ele>7.6</ele>
        <time>2022-06-19T07:55:28Z</time>
      </trkpt>
      <trkpt lat="42.7267680" lon="-8.6585000">
        <ele>7.6</ele>
        <time>2022-06-19T07:55:29Z</time>
      </trkpt>
      <trkpt lat="42.7267750" lon="-8.6585330">
        <ele>7.6</ele>
        <time>2022-06-19T07:55:30Z</time>
      </trkpt>
      <trkpt lat="42.7267810" lon="-8.6585660">
        <ele>8.4</ele>
        <time>2022-06-19T07:55:31Z</time>
      </trkpt>
      <trkpt lat="42.7267880" lon="-8.6586010">
        <ele>7.6</ele>
        <time>2022-06-19T07:55:32Z</time>
      </trkpt>
      <trkpt lat="42.7267930" lon="-8.6586360">
        <ele>7.6</ele>
        <time>2022-06-19T07:55:33Z</time>
      </trkpt>
      <trkpt lat="42.7267960" lon="-8.6586700">
        <ele>7.6</ele>
        <time>2022-06-19T07:55:34Z</time>
      </trkpt>
      <trkpt lat="42.7268030" lon="-8.6587050">
        <ele>7.6</ele>
        <time>2022-06-19T07:55:35Z</time>
      </trkpt>
      <trkpt lat="42.7268110" lon="-8.6587380">
        <ele>7.8</ele>
        <time>2022-06-19T07:55:36Z</time>
      </trkpt>
      <trkpt lat="42.7268180" lon="-8.6587710">
        <ele>7.8</ele>
        <time>2022-06-19T07:55:37Z</time>
      </trkpt>
      <trkpt lat="42.7268230" lon="-8.6588060">
        <ele>7.8</ele>
        <time>2022-06-19T07:55:38Z</time>
      </trkpt>
      <trkpt lat="42.7268300" lon="-8.6588430">
        <ele>7.8</ele>
        <time>2022-06-19T07:55:39Z</time>
      </trkpt>
      <trkpt lat="42.7268360" lon="-8.6588780">
        <ele>7.8</ele>
        <time>2022-06-19T07:55:40Z</time>
      </trkpt>
      <trkpt lat="42.7268430" lon="-8.6589150">
        <ele>7.8</ele>
        <time>2022-06-19T07:55:41Z</time>
      </trkpt>
      <trkpt lat="42.7268480" lon="-8.6589500">
        <ele>7.8</ele>
        <time>2022-06-19T07:55:42Z</time>
      </trkpt>
      <trkpt lat="42.7268550" lon="-8.6589830">
        <ele>7.8</ele>
        <time>2022-06-19T07:55:43Z</time>
      </trkpt>
      <trkpt lat="42.7268610" lon="-8.6590150">
        <ele>8.4</ele>
        <time>2022-06-19T07:55:44Z</time>
      </trkpt>
      <trkpt lat="42.7268680" lon="-8.6590500">
        <ele>8.4</ele>
        <time>2022-06-19T07:55:45Z</time>
      </trkpt>
      <trkpt lat="42.7268750" lon="-8.6590860">
        <ele>8.4</ele>
        <time>2022-06-19T07:55:46Z</time>
      </trkpt>
      <trkpt lat="42.7268810" lon="-8.6591260">
        <ele>8.4</ele>
        <time>2022-06-19T07:55:47Z</time>
      </trkpt>
      <trkpt lat="42.7268900" lon="-8.6591650">
        <ele>8.0</ele>
        <time>2022-06-19T07:55:48Z</time>
      </trkpt>
      <trkpt lat="42.7268960" lon="-8.6592000">
        <ele>8.0</ele>
        <time>2022-06-19T07:55:49Z</time>
      </trkpt>
      <trkpt lat="42.7269030" lon="-8.6592360">
        <ele>8.0</ele>
        <time>2022-06-19T07:55:50Z</time>
      </trkpt>
      <trkpt lat="42.7269080" lon="-8.6592730">
        <ele>8.0</ele>
        <time>2022-06-19T07:55:51Z</time>
      </trkpt>
      <trkpt lat="42.7269130" lon="-8.6593100">
        <ele>7.8</ele>
        <time>2022-06-19T07:55:52Z</time>
      </trkpt>
      <trkpt lat="42.7269160" lon="-8.6593460">
        <ele>7.8</ele>
        <time>2022-06-19T07:55:53Z</time>
      </trkpt>
      <trkpt lat="42.7269210" lon="-8.6593810">
        <ele>7.8</ele>
        <time>2022-06-19T07:55:54Z</time>
      </trkpt>
      <trkpt lat="42.7269230" lon="-8.6594160">
        <ele>7.8</ele>
        <time>2022-06-19T07:55:55Z</time>
      </trkpt>
      <trkpt lat="42.7269230" lon="-8.6594510">
        <ele>7.4</ele>
        <time>2022-06-19T07:55:56Z</time>
      </trkpt>
      <trkpt lat="42.7269250" lon="-8.6594860">
        <ele>7.4</ele>
        <time>2022-06-19T07:55:57Z</time>
      </trkpt>
      <trkpt lat="42.7269260" lon="-8.6595210">
        <ele>7.4</ele>
        <time>2022-06-19T07:55:58Z</time>
      </trkpt>
      <trkpt lat="42.7269260" lon="-8.6595500">
        <ele>7.8</ele>
        <time>2022-06-19T07:55:59Z</time>
      </trkpt>
      <trkpt lat="42.7269300" lon="-8.6595830">
        <ele>7.4</ele>
        <time>2022-06-19T07:56:00Z</time>
      </trkpt>
      <trkpt lat="42.7269330" lon="-8.6596130">
        <ele>7.4</ele>
        <time>2022-06-19T07:56:01Z</time>
      </trkpt>
      <trkpt lat="42.7269360" lon="-8.6596410">
        <ele>7.4</ele>
        <time>2022-06-19T07:56:02Z</time>
      </trkpt>
      <trkpt lat="42.7269400" lon="-8.6596680">
        <ele>7.6</ele>
        <time>2022-06-19T07:56:03Z</time>
      </trkpt>
      <trkpt lat="42.7269460" lon="-8.6596960">
        <ele>8.0</ele>
        <time>2022-06-19T07:56:04Z</time>
      </trkpt>
      <trkpt lat="42.7269580" lon="-8.6597210">
        <ele>8.0</ele>
        <time>2022-06-19T07:56:05Z</time>
      </trkpt>
      <trkpt lat="42.7269750" lon="-8.6597410">
        <ele>8.0</ele>
        <time>2022-06-19T07:56:06Z</time>
      </trkpt>
      <trkpt lat="42.7269950" lon="-8.6597580">
        <ele>8.0</ele>
        <time>2022-06-19T07:56:07Z</time>
      </trkpt>
      <trkpt lat="42.7270180" lon="-8.6597660">
        <ele>8.4</ele>
        <time>2022-06-19T07:56:08Z</time>
      </trkpt>
      <trkpt lat="42.7270400" lon="-8.6597760">
        <ele>8.4</ele>
        <time>2022-06-19T07:56:09Z</time>
      </trkpt>
      <trkpt lat="42.7270610" lon="-8.6597860">
        <ele>8.4</ele>
        <time>2022-06-19T07:56:10Z</time>
      </trkpt>
      <trkpt lat="42.7270830" lon="-8.6597960">
        <ele>8.4</ele>
        <time>2022-06-19T07:56:11Z</time>
      </trkpt>
      <trkpt lat="42.7271030" lon="-8.6598060">
        <ele>8.6</ele>
        <time>2022-06-19T07:56:12Z</time>
      </trkpt>
      <trkpt lat="42.7271200" lon="-8.6598200">
        <ele>8.6</ele>
        <time>2022-06-19T07:56:13Z</time>
      </trkpt>
      <trkpt lat="42.7271330" lon="-8.6598400">
        <ele>8.6</ele>
        <time>2022-06-19T07:56:14Z</time>
      </trkpt>
      <trkpt lat="42.7271450" lon="-8.6598580">
        <ele>7.8</ele>
        <time>2022-06-19T07:56:15Z</time>
      </trkpt>
      <trkpt lat="42.7271550" lon="-8.6598800">
        <ele>7.8</ele>
        <time>2022-06-19T07:56:16Z</time>
      </trkpt>
      <trkpt lat="42.7271660" lon="-8.6598980">
        <ele>7.8</ele>
        <time>2022-06-19T07:56:17Z</time>
      </trkpt>
      <trkpt lat="42.7271760" lon="-8.6599160">
        <ele>7.8</ele>
        <time>2022-06-19T07:56:18Z</time>
      </trkpt>
      <trkpt lat="42.7271810" lon="-8.6599300">
        <ele>7.8</ele>
        <time>2022-06-19T07:56:19Z</time>
      </trkpt>
      <trkpt lat="42.7271830" lon="-8.6599350">
        <ele>7.4</ele>
        <time>2022-06-19T07:56:20Z</time>
      </trkpt>
      <trkpt lat="42.7271830" lon="-8.6599350">
        <ele>7.4</ele>
        <time>2022-06-19T07:56:21Z</time>
      </trkpt>
      <trkpt lat="42.7272000" lon="-8.6599850">
        <ele>7.2</ele>
        <time>2022-06-19T07:56:28Z</time>
      </trkpt>
      <trkpt lat="42.7272080" lon="-8.6600100">
        <ele>7.2</ele>
        <time>2022-06-19T07:56:29Z</time>
      </trkpt>
      <trkpt lat="42.7272130" lon="-8.6600400">
        <ele>7.2</ele>
        <time>2022-06-19T07:56:30Z</time>
      </trkpt>
      <trkpt lat="42.7272210" lon="-8.6600680">
        <ele>7.2</ele>
        <time>2022-06-19T07:56:31Z</time>
      </trkpt>
      <trkpt lat="42.7272300" lon="-8.6600980">
        <ele>7.4</ele>
        <time>2022-06-19T07:56:32Z</time>
      </trkpt>
      <trkpt lat="42.7272400" lon="-8.6601310">
        <ele>7.4</ele>
        <time>2022-06-19T07:56:33Z</time>
      </trkpt>
      <trkpt lat="42.7272480" lon="-8.6601660">
        <ele>7.4</ele>
        <time>2022-06-19T07:56:34Z</time>
      </trkpt>
      <trkpt lat="42.7272530" lon="-8.6602030">
        <ele>7.2</ele>
        <time>2022-06-19T07:56:35Z</time>
      </trkpt>
      <trkpt lat="42.7272600" lon="-8.6602360">
        <ele>7.0</ele>
        <time>2022-06-19T07:56:36Z</time>
      </trkpt>
      <trkpt lat="42.7272630" lon="-8.6602710">
        <ele>7.0</ele>
        <time>2022-06-19T07:56:37Z</time>
      </trkpt>
      <trkpt lat="42.7272700" lon="-8.6603060">
        <ele>7.0</ele>
        <time>2022-06-19T07:56:38Z</time>
      </trkpt>
      <trkpt lat="42.7272750" lon="-8.6603450">
        <ele>7.0</ele>
        <time>2022-06-19T07:56:39Z</time>
      </trkpt>
      <trkpt lat="42.7272780" lon="-8.6603850">
        <ele>6.6</ele>
        <time>2022-06-19T07:56:40Z</time>
      </trkpt>
      <trkpt lat="42.7272810" lon="-8.6604250">
        <ele>6.6</ele>
        <time>2022-06-19T07:56:41Z</time>
      </trkpt>
      <trkpt lat="42.7272810" lon="-8.6604630">
        <ele>6.6</ele>
        <time>2022-06-19T07:56:42Z</time>
      </trkpt>
      <trkpt lat="42.7272780" lon="-8.6605030">
        <ele>6.6</ele>
        <time>2022-06-19T07:56:43Z</time>
      </trkpt>
      <trkpt lat="42.7272710" lon="-8.6605450">
        <ele>6.6</ele>
        <time>2022-06-19T07:56:44Z</time>
      </trkpt>
      <trkpt lat="42.7272610" lon="-8.6605800">
        <ele>6.6</ele>
        <time>2022-06-19T07:56:45Z</time>
      </trkpt>
      <trkpt lat="42.7272460" lon="-8.6606150">
        <ele>6.6</ele>
        <time>2022-06-19T07:56:46Z</time>
      </trkpt>
      <trkpt lat="42.7272330" lon="-8.6606500">
        <ele>7.0</ele>
        <time>2022-06-19T07:56:47Z</time>
      </trkpt>
      <trkpt lat="42.7272160" lon="-8.6606830">
        <ele>6.2</ele>
        <time>2022-06-19T07:56:48Z</time>
      </trkpt>
      <trkpt lat="42.7272000" lon="-8.6607130">
        <ele>6.2</ele>
        <time>2022-06-19T07:56:49Z</time>
      </trkpt>
      <trkpt lat="42.7271830" lon="-8.6607430">
        <ele>6.2</ele>
        <time>2022-06-19T07:56:50Z</time>
      </trkpt>
      <trkpt lat="42.7271660" lon="-8.6607730">
        <ele>6.8</ele>
        <time>2022-06-19T07:56:51Z</time>
      </trkpt>
      <trkpt lat="42.7271500" lon="-8.6608000">
        <ele>6.6</ele>
        <time>2022-06-19T07:56:52Z</time>
      </trkpt>
      <trkpt lat="42.7271330" lon="-8.6608280">
        <ele>6.6</ele>
        <time>2022-06-19T07:56:53Z</time>
      </trkpt>
      <trkpt lat="42.7271200" lon="-8.6608600">
        <ele>6.6</ele>
        <time>2022-06-19T07:56:54Z</time>
      </trkpt>
      <trkpt lat="42.7271110" lon="-8.6608910">
        <ele>6.6</ele>
        <time>2022-06-19T07:56:55Z</time>
      </trkpt>
      <trkpt lat="42.7271050" lon="-8.6609250">
        <ele>7.0</ele>
        <time>2022-06-19T07:56:56Z</time>
      </trkpt>
      <trkpt lat="42.7271010" lon="-8.6609600">
        <ele>7.0</ele>
        <time>2022-06-19T07:56:57Z</time>
      </trkpt>
      <trkpt lat="42.7270980" lon="-8.6609960">
        <ele>7.0</ele>
        <time>2022-06-19T07:56:58Z</time>
      </trkpt>
      <trkpt lat="42.7270950" lon="-8.6610350">
        <ele>7.0</ele>
        <time>2022-06-19T07:56:59Z</time>
      </trkpt>
      <trkpt lat="42.7270960" lon="-8.6610700">
        <ele>7.0</ele>
        <time>2022-06-19T07:57:00Z</time>
      </trkpt>
      <trkpt lat="42.7271000" lon="-8.6611060">
        <ele>7.0</ele>
        <time>2022-06-19T07:57:01Z</time>
      </trkpt>
      <trkpt lat="42.7271010" lon="-8.6611410">
        <ele>7.0</ele>
        <time>2022-06-19T07:57:02Z</time>
      </trkpt>
      <trkpt lat="42.7271030" lon="-8.6611730">
        <ele>7.0</ele>
        <time>2022-06-19T07:57:03Z</time>
      </trkpt>
      <trkpt lat="42.7271050" lon="-8.6612010">
        <ele>7.8</ele>
        <time>2022-06-19T07:57:04Z</time>
      </trkpt>
      <trkpt lat="42.7271100" lon="-8.6612300">
        <ele>7.8</ele>
        <time>2022-06-19T07:57:05Z</time>
      </trkpt>
      <trkpt lat="42.7271130" lon="-8.6612530">
        <ele>7.8</ele>
        <time>2022-06-19T07:57:06Z</time>
      </trkpt>
      <trkpt lat="42.7271210" lon="-8.6612730">
        <ele>8.8</ele>
        <time>2022-06-19T07:57:07Z</time>
      </trkpt>
      <trkpt lat="42.7271350" lon="-8.6612910">
        <ele>8.8</ele>
        <time>2022-06-19T07:57:08Z</time>
      </trkpt>
      <trkpt lat="42.7271530" lon="-8.6613000">
        <ele>8.8</ele>
        <time>2022-06-19T07:57:09Z</time>
      </trkpt>
      <trkpt lat="42.7271730" lon="-8.6612980">
        <ele>8.8</ele>
        <time>2022-06-19T07:57:10Z</time>
      </trkpt>
      <trkpt lat="42.7271950" lon="-8.6612960">
        <ele>9.2</ele>
        <time>2022-06-19T07:57:11Z</time>
      </trkpt>
      <trkpt lat="42.7272180" lon="-8.6612910">
        <ele>9.2</ele>
        <time>2022-06-19T07:57:12Z</time>
      </trkpt>
      <trkpt lat="42.7272430" lon="-8.6612830">
        <ele>9.2</ele>
        <time>2022-06-19T07:57:13Z</time>
      </trkpt>
      <trkpt lat="42.7272700" lon="-8.6612760">
        <ele>9.2</ele>
        <time>2022-06-19T07:57:14Z</time>
      </trkpt>
      <trkpt lat="42.7272930" lon="-8.6612680">
        <ele>9.4</ele>
        <time>2022-06-19T07:57:15Z</time>
      </trkpt>
      <trkpt lat="42.7273150" lon="-8.6612610">
        <ele>9.2</ele>
        <time>2022-06-19T07:57:16Z</time>
      </trkpt>
      <trkpt lat="42.7273360" lon="-8.6612560">
        <ele>9.2</ele>
        <time>2022-06-19T07:57:17Z</time>
      </trkpt>
      <trkpt lat="42.7273580" lon="-8.6612500">
        <ele>9.2</ele>
        <time>2022-06-19T07:57:18Z</time>
      </trkpt>
      <trkpt lat="42.7273800" lon="-8.6612430">
        <ele>9.2</ele>
        <time>2022-06-19T07:57:19Z</time>
      </trkpt>
      <trkpt lat="42.7274030" lon="-8.6612350">
        <ele>9.4</ele>
        <time>2022-06-19T07:57:20Z</time>
      </trkpt>
      <trkpt lat="42.7274230" lon="-8.6612250">
        <ele>9.4</ele>
        <time>2022-06-19T07:57:21Z</time>
      </trkpt>
      <trkpt lat="42.7274460" lon="-8.6612160">
        <ele>9.4</ele>
        <time>2022-06-19T07:57:22Z</time>
      </trkpt>
      <trkpt lat="42.7274700" lon="-8.6612080">
        <ele>9.4</ele>
        <time>2022-06-19T07:57:23Z</time>
      </trkpt>
      <trkpt lat="42.7274930" lon="-8.6612000">
        <ele>9.2</ele>
        <time>2022-06-19T07:57:24Z</time>
      </trkpt>
      <trkpt lat="42.7275200" lon="-8.6611950">
        <ele>9.2</ele>
        <time>2022-06-19T07:57:25Z</time>
      </trkpt>
      <trkpt lat="42.7275460" lon="-8.6611900">
        <ele>9.2</ele>
        <time>2022-06-19T07:57:26Z</time>
      </trkpt>
      <trkpt lat="42.7275710" lon="-8.6611830">
        <ele>9.2</ele>
        <time>2022-06-19T07:57:27Z</time>
      </trkpt>
      <trkpt lat="42.7275960" lon="-8.6611730">
        <ele>9.6</ele>
        <time>2022-06-19T07:57:28Z</time>
      </trkpt>
      <trkpt lat="42.7276210" lon="-8.6611650">
        <ele>9.6</ele>
        <time>2022-06-19T07:57:29Z</time>
      </trkpt>
      <trkpt lat="42.7276460" lon="-8.6611600">
        <ele>9.6</ele>
        <time>2022-06-19T07:57:30Z</time>
      </trkpt>
      <trkpt lat="42.7276730" lon="-8.6611510">
        <ele>9.2</ele>
        <time>2022-06-19T07:57:31Z</time>
      </trkpt>
      <trkpt lat="42.7277000" lon="-8.6611480">
        <ele>9.2</ele>
        <time>2022-06-19T07:57:32Z</time>
      </trkpt>
      <trkpt lat="42.7277300" lon="-8.6611410">
        <ele>9.2</ele>
        <time>2022-06-19T07:57:33Z</time>
      </trkpt>
      <trkpt lat="42.7277560" lon="-8.6611360">
        <ele>9.2</ele>
        <time>2022-06-19T07:57:34Z</time>
      </trkpt>
      <trkpt lat="42.7277830" lon="-8.6611330">
        <ele>9.2</ele>
        <time>2022-06-19T07:57:35Z</time>
      </trkpt>
      <trkpt lat="42.7278080" lon="-8.6611280">
        <ele>9.6</ele>
        <time>2022-06-19T07:57:36Z</time>
      </trkpt>
      <trkpt lat="42.7278350" lon="-8.6611250">
        <ele>9.6</ele>
        <time>2022-06-19T07:57:37Z</time>
      </trkpt>
      <trkpt lat="42.7278650" lon="-8.6611180">
        <ele>9.6</ele>
        <time>2022-06-19T07:57:38Z</time>
      </trkpt>
      <trkpt lat="42.7278960" lon="-8.6611130">
        <ele>9.6</ele>
        <time>2022-06-19T07:57:39Z</time>
      </trkpt>
      <trkpt lat="42.7279280" lon="-8.6611050">
        <ele>9.6</ele>
        <time>2022-06-19T07:57:40Z</time>
      </trkpt>
      <trkpt lat="42.7279580" lon="-8.6611050">
        <ele>9.6</ele>
        <time>2022-06-19T07:57:41Z</time>
      </trkpt>
      <trkpt lat="42.7279880" lon="-8.6611000">
        <ele>9.6</ele>
        <time>2022-06-19T07:57:42Z</time>
      </trkpt>
      <trkpt lat="42.7280160" lon="-8.6610950">
        <ele>9.2</ele>
        <time>2022-06-19T07:57:43Z</time>
      </trkpt>
      <trkpt lat="42.7280480" lon="-8.6610930">
        <ele>9.2</ele>
        <time>2022-06-19T07:57:44Z</time>
      </trkpt>
      <trkpt lat="42.7280800" lon="-8.6610850">
        <ele>9.2</ele>
        <time>2022-06-19T07:57:45Z</time>
      </trkpt>
      <trkpt lat="42.7281100" lon="-8.6610810">
        <ele>9.2</ele>
        <time>2022-06-19T07:57:46Z</time>
      </trkpt>
      <trkpt lat="42.7281400" lon="-8.6610760">
        <ele>9.0</ele>
        <time>2022-06-19T07:57:47Z</time>
      </trkpt>
      <trkpt lat="42.7281710" lon="-8.6610710">
        <ele>9.0</ele>
        <time>2022-06-19T07:57:48Z</time>
      </trkpt>
      <trkpt lat="42.7282030" lon="-8.6610680">
        <ele>9.0</ele>
        <time>2022-06-19T07:57:49Z</time>
      </trkpt>
      <trkpt lat="42.7282350" lon="-8.6610610">
        <ele>9.0</ele>
        <time>2022-06-19T07:57:50Z</time>
      </trkpt>
      <trkpt lat="42.7282660" lon="-8.6610580">
        <ele>9.2</ele>
        <time>2022-06-19T07:57:51Z</time>
      </trkpt>
      <trkpt lat="42.7282960" lon="-8.6610530">
        <ele>9.2</ele>
        <time>2022-06-19T07:57:52Z</time>
      </trkpt>
      <trkpt lat="42.7283260" lon="-8.6610450">
        <ele>9.2</ele>
        <time>2022-06-19T07:57:53Z</time>
      </trkpt>
      <trkpt lat="42.7283560" lon="-8.6610380">
        <ele>9.2</ele>
        <time>2022-06-19T07:57:54Z</time>
      </trkpt>
      <trkpt lat="42.7283850" lon="-8.6610330">
        <ele>9.2</ele>
        <time>2022-06-19T07:57:55Z</time>
      </trkpt>
      <trkpt lat="42.7284130" lon="-8.6610300">
        <ele>9.6</ele>
        <time>2022-06-19T07:57:56Z</time>
      </trkpt>
      <trkpt lat="42.7284450" lon="-8.6610160">
        <ele>9.6</ele>
        <time>2022-06-19T07:57:57Z</time>
      </trkpt>
      <trkpt lat="42.7284760" lon="-8.6610150">
        <ele>9.6</ele>
        <time>2022-06-19T07:57:58Z</time>
      </trkpt>
      <trkpt lat="42.7285080" lon="-8.6610100">
        <ele>9.8</ele>
        <time>2022-06-19T07:57:59Z</time>
      </trkpt>
      <trkpt lat="42.7285380" lon="-8.6610050">
        <ele>9.6</ele>
        <time>2022-06-19T07:58:00Z</time>
      </trkpt>
      <trkpt lat="42.7285660" lon="-8.6610030">
        <ele>9.6</ele>
        <time>2022-06-19T07:58:01Z</time>
      </trkpt>
      <trkpt lat="42.7285950" lon="-8.6610010">
        <ele>9.6</ele>
        <time>2022-06-19T07:58:02Z</time>
      </trkpt>
      <trkpt lat="42.7286250" lon="-8.6610030">
        <ele>9.6</ele>
        <time>2022-06-19T07:58:03Z</time>
      </trkpt>
      <trkpt lat="42.7286560" lon="-8.6610000">
        <ele>9.2</ele>
        <time>2022-06-19T07:58:04Z</time>
      </trkpt>
      <trkpt lat="42.7286900" lon="-8.6609950">
        <ele>9.2</ele>
        <time>2022-06-19T07:58:05Z</time>
      </trkpt>
      <trkpt lat="42.7287200" lon="-8.6609900">
        <ele>9.2</ele>
        <time>2022-06-19T07:58:06Z</time>
      </trkpt>
      <trkpt lat="42.7287510" lon="-8.6609910">
        <ele>9.6</ele>
        <time>2022-06-19T07:58:07Z</time>
      </trkpt>
      <trkpt lat="42.7287830" lon="-8.6609910">
        <ele>9.2</ele>
        <time>2022-06-19T07:58:08Z</time>
      </trkpt>
      <trkpt lat="42.7288150" lon="-8.6609910">
        <ele>9.2</ele>
        <time>2022-06-19T07:58:09Z</time>
      </trkpt>
      <trkpt lat="42.7288430" lon="-8.6609910">
        <ele>9.2</ele>
        <time>2022-06-19T07:58:10Z</time>
      </trkpt>
      <trkpt lat="42.7288710" lon="-8.6609910">
        <ele>9.2</ele>
        <time>2022-06-19T07:58:11Z</time>
      </trkpt>
      <trkpt lat="42.7289030" lon="-8.6609900">
        <ele>9.6</ele>
        <time>2022-06-19T07:58:12Z</time>
      </trkpt>
      <trkpt lat="42.7289330" lon="-8.6609860">
        <ele>9.6</ele>
        <time>2022-06-19T07:58:13Z</time>
      </trkpt>
      <trkpt lat="42.7289630" lon="-8.6609830">
        <ele>9.6</ele>
        <time>2022-06-19T07:58:14Z</time>
      </trkpt>
      <trkpt lat="42.7289930" lon="-8.6609780">
        <ele>9.2</ele>
        <time>2022-06-19T07:58:15Z</time>
      </trkpt>
      <trkpt lat="42.7290230" lon="-8.6609730">
        <ele>9.4</ele>
        <time>2022-06-19T07:58:16Z</time>
      </trkpt>
      <trkpt lat="42.7290550" lon="-8.6609730">
        <ele>9.4</ele>
        <time>2022-06-19T07:58:17Z</time>
      </trkpt>
      <trkpt lat="42.7290850" lon="-8.6609730">
        <ele>9.4</ele>
        <time>2022-06-19T07:58:18Z</time>
      </trkpt>
      <trkpt lat="42.7291150" lon="-8.6609700">
        <ele>9.4</ele>
        <time>2022-06-19T07:58:19Z</time>
      </trkpt>
      <trkpt lat="42.7291480" lon="-8.6609630">
        <ele>9.6</ele>
        <time>2022-06-19T07:58:20Z</time>
      </trkpt>
      <trkpt lat="42.7291830" lon="-8.6609560">
        <ele>9.6</ele>
        <time>2022-06-19T07:58:21Z</time>
      </trkpt>
      <trkpt lat="42.7292150" lon="-8.6609510">
        <ele>9.6</ele>
        <time>2022-06-19T07:58:22Z</time>
      </trkpt>
      <trkpt lat="42.7292480" lon="-8.6609500">
        <ele>9.6</ele>
        <time>2022-06-19T07:58:23Z</time>
      </trkpt>
      <trkpt lat="42.7292810" lon="-8.6609480">
        <ele>9.6</ele>
        <time>2022-06-19T07:58:24Z</time>
      </trkpt>
      <trkpt lat="42.7293160" lon="-8.6609460">
        <ele>9.6</ele>
        <time>2022-06-19T07:58:25Z</time>
      </trkpt>
      <trkpt lat="42.7293510" lon="-8.6609430">
        <ele>9.6</ele>
        <time>2022-06-19T07:58:26Z</time>
      </trkpt>
      <trkpt lat="42.7293900" lon="-8.6609400">
        <ele>9.2</ele>
        <time>2022-06-19T07:58:27Z</time>
      </trkpt>
      <trkpt lat="42.7294260" lon="-8.6609360">
        <ele>8.6</ele>
        <time>2022-06-19T07:58:28Z</time>
      </trkpt>
      <trkpt lat="42.7294610" lon="-8.6609360">
        <ele>8.6</ele>
        <time>2022-06-19T07:58:29Z</time>
      </trkpt>
      <trkpt lat="42.7294980" lon="-8.6609330">
        <ele>8.6</ele>
        <time>2022-06-19T07:58:30Z</time>
      </trkpt>
      <trkpt lat="42.7295310" lon="-8.6609300">
        <ele>9.4</ele>
        <time>2022-06-19T07:58:31Z</time>
      </trkpt>
      <trkpt lat="42.7295680" lon="-8.6609300">
        <ele>9.2</ele>
        <time>2022-06-19T07:58:32Z</time>
      </trkpt>
      <trkpt lat="42.7296050" lon="-8.6609260">
        <ele>9.2</ele>
        <time>2022-06-19T07:58:33Z</time>
      </trkpt>
      <trkpt lat="42.7296410" lon="-8.6609230">
        <ele>9.2</ele>
        <time>2022-06-19T07:58:34Z</time>
      </trkpt>
      <trkpt lat="42.7296780" lon="-8.6609200">
        <ele>8.6</ele>
        <time>2022-06-19T07:58:35Z</time>
      </trkpt>
      <trkpt lat="42.7297160" lon="-8.6609150">
        <ele>9.6</ele>
        <time>2022-06-19T07:58:36Z</time>
      </trkpt>
      <trkpt lat="42.7297510" lon="-8.6609050">
        <ele>9.6</ele>
        <time>2022-06-19T07:58:37Z</time>
      </trkpt>
      <trkpt lat="42.7297900" lon="-8.6609010">
        <ele>9.6</ele>
        <time>2022-06-19T07:58:38Z</time>
      </trkpt>
      <trkpt lat="42.7298230" lon="-8.6609000">
        <ele>9.0</ele>
        <time>2022-06-19T07:58:39Z</time>
      </trkpt>
      <trkpt lat="42.7298580" lon="-8.6609010">
        <ele>9.2</ele>
        <time>2022-06-19T07:58:40Z</time>
      </trkpt>
      <trkpt lat="42.7298910" lon="-8.6609000">
        <ele>9.2</ele>
        <time>2022-06-19T07:58:41Z</time>
      </trkpt>
      <trkpt lat="42.7299280" lon="-8.6608960">
        <ele>9.2</ele>
        <time>2022-06-19T07:58:42Z</time>
      </trkpt>
      <trkpt lat="42.7299630" lon="-8.6608960">
        <ele>9.2</ele>
        <time>2022-06-19T07:58:43Z</time>
      </trkpt>
      <trkpt lat="42.7299980" lon="-8.6608960">
        <ele>8.8</ele>
        <time>2022-06-19T07:58:44Z</time>
      </trkpt>
      <trkpt lat="42.7300310" lon="-8.6609000">
        <ele>8.8</ele>
        <time>2022-06-19T07:58:45Z</time>
      </trkpt>
      <trkpt lat="42.7300630" lon="-8.6608980">
        <ele>8.8</ele>
        <time>2022-06-19T07:58:46Z</time>
      </trkpt>
      <trkpt lat="42.7300930" lon="-8.6609000">
        <ele>9.6</ele>
        <time>2022-06-19T07:58:47Z</time>
      </trkpt>
      <trkpt lat="42.7301250" lon="-8.6609060">
        <ele>9.8</ele>
        <time>2022-06-19T07:58:48Z</time>
      </trkpt>
      <trkpt lat="42.7301530" lon="-8.6609100">
        <ele>9.8</ele>
        <time>2022-06-19T07:58:49Z</time>
      </trkpt>
      <trkpt lat="42.7301860" lon="-8.6609100">
        <ele>9.8</ele>
        <time>2022-06-19T07:58:50Z</time>
      </trkpt>
      <trkpt lat="42.7302160" lon="-8.6609080">
        <ele>9.8</ele>
        <time>2022-06-19T07:58:51Z</time>
      </trkpt>
      <trkpt lat="42.7302500" lon="-8.6609100">
        <ele>9.6</ele>
        <time>2022-06-19T07:58:52Z</time>
      </trkpt>
      <trkpt lat="42.7302830" lon="-8.6609110">
        <ele>9.6</ele>
        <time>2022-06-19T07:58:53Z</time>
      </trkpt>
      <trkpt lat="42.7303160" lon="-8.6609130">
        <ele>9.6</ele>
        <time>2022-06-19T07:58:54Z</time>
      </trkpt>
      <trkpt lat="42.7303530" lon="-8.6609160">
        <ele>10.2</ele>
        <time>2022-06-19T07:58:55Z</time>
      </trkpt>
      <trkpt lat="42.7303880" lon="-8.6609200">
        <ele>10.2</ele>
        <time>2022-06-19T07:58:56Z</time>
      </trkpt>
      <trkpt lat="42.7304210" lon="-8.6609230">
        <ele>10.2</ele>
        <time>2022-06-19T07:58:57Z</time>
      </trkpt>
      <trkpt lat="42.7304550" lon="-8.6609260">
        <ele>10.2</ele>
        <time>2022-06-19T07:58:58Z</time>
      </trkpt>
      <trkpt lat="42.7304860" lon="-8.6609250">
        <ele>9.8</ele>
        <time>2022-06-19T07:58:59Z</time>
      </trkpt>
      <trkpt lat="42.7305160" lon="-8.6609280">
        <ele>10.2</ele>
        <time>2022-06-19T07:59:00Z</time>
      </trkpt>
      <trkpt lat="42.7305480" lon="-8.6609300">
        <ele>10.2</ele>
        <time>2022-06-19T07:59:01Z</time>
      </trkpt>
      <trkpt lat="42.7305800" lon="-8.6609350">
        <ele>10.2</ele>
        <time>2022-06-19T07:59:02Z</time>
      </trkpt>
      <trkpt lat="42.7306110" lon="-8.6609380">
        <ele>9.6</ele>
        <time>2022-06-19T07:59:03Z</time>
      </trkpt>
      <trkpt lat="42.7306450" lon="-8.6609400">
        <ele>9.6</ele>
        <time>2022-06-19T07:59:04Z</time>
      </trkpt>
      <trkpt lat="42.7306780" lon="-8.6609400">
        <ele>9.6</ele>
        <time>2022-06-19T07:59:05Z</time>
      </trkpt>
      <trkpt lat="42.7307110" lon="-8.6609400">
        <ele>9.6</ele>
        <time>2022-06-19T07:59:06Z</time>
      </trkpt>
      <trkpt lat="42.7307450" lon="-8.6609430">
        <ele>9.6</ele>
        <time>2022-06-19T07:59:07Z</time>
      </trkpt>
      <trkpt lat="42.7307800" lon="-8.6609450">
        <ele>9.6</ele>
        <time>2022-06-19T07:59:08Z</time>
      </trkpt>
      <trkpt lat="42.7308130" lon="-8.6609450">
        <ele>9.6</ele>
        <time>2022-06-19T07:59:09Z</time>
      </trkpt>
      <trkpt lat="42.7308480" lon="-8.6609480">
        <ele>9.6</ele>
        <time>2022-06-19T07:59:10Z</time>
      </trkpt>
      <trkpt lat="42.7308850" lon="-8.6609500">
        <ele>9.6</ele>
        <time>2022-06-19T07:59:11Z</time>
      </trkpt>
      <trkpt lat="42.7309200" lon="-8.6609530">
        <ele>9.4</ele>
        <time>2022-06-19T07:59:12Z</time>
      </trkpt>
      <trkpt lat="42.7309550" lon="-8.6609580">
        <ele>9.4</ele>
        <time>2022-06-19T07:59:13Z</time>
      </trkpt>
      <trkpt lat="42.7309910" lon="-8.6609630">
        <ele>9.4</ele>
        <time>2022-06-19T07:59:14Z</time>
      </trkpt>
      <trkpt lat="42.7310280" lon="-8.6609680">
        <ele>9.4</ele>
        <time>2022-06-19T07:59:15Z</time>
      </trkpt>
      <trkpt lat="42.7310560" lon="-8.6609860">
        <ele>9.2</ele>
        <time>2022-06-19T07:59:16Z</time>
      </trkpt>
      <trkpt lat="42.7310700" lon="-8.6610130">
        <ele>9.2</ele>
        <time>2022-06-19T07:59:17Z</time>
      </trkpt>
      <trkpt lat="42.7310660" lon="-8.6610500">
        <ele>9.2</ele>
        <time>2022-06-19T07:59:18Z</time>
      </trkpt>
      <trkpt lat="42.7310660" lon="-8.6610600">
        <ele>9.0</ele>
        <time>2022-06-19T07:59:19Z</time>
      </trkpt>
      <trkpt lat="42.7310800" lon="-8.6610750">
        <ele>9.2</ele>
        <time>2022-06-19T07:59:20Z</time>
      </trkpt>
      <trkpt lat="42.7311150" lon="-8.6610850">
        <ele>9.2</ele>
        <time>2022-06-19T07:59:21Z</time>
      </trkpt>
      <trkpt lat="42.7311500" lon="-8.6610860">
        <ele>9.2</ele>
        <time>2022-06-19T07:59:22Z</time>
      </trkpt>
      <trkpt lat="42.7311810" lon="-8.6610950">
        <ele>9.2</ele>
        <time>2022-06-19T07:59:23Z</time>
      </trkpt>
      <trkpt lat="42.7312160" lon="-8.6611050">
        <ele>9.6</ele>
        <time>2022-06-19T07:59:24Z</time>
      </trkpt>
      <trkpt lat="42.7312550" lon="-8.6611130">
        <ele>9.6</ele>
        <time>2022-06-19T07:59:25Z</time>
      </trkpt>
      <trkpt lat="42.7312950" lon="-8.6611210">
        <ele>9.6</ele>
        <time>2022-06-19T07:59:26Z</time>
      </trkpt>
      <trkpt lat="42.7313310" lon="-8.6611400">
        <ele>9.6</ele>
        <time>2022-06-19T07:59:27Z</time>
      </trkpt>
      <trkpt lat="42.7313800" lon="-8.6611410">
        <ele>10.0</ele>
        <time>2022-06-19T07:59:28Z</time>
      </trkpt>
      <trkpt lat="42.7314260" lon="-8.6611480">
        <ele>10.0</ele>
        <time>2022-06-19T07:59:29Z</time>
      </trkpt>
      <trkpt lat="42.7314830" lon="-8.6611480">
        <ele>10.0</ele>
        <time>2022-06-19T07:59:30Z</time>
      </trkpt>
      <trkpt lat="42.7315310" lon="-8.6611510">
        <ele>9.6</ele>
        <time>2022-06-19T07:59:31Z</time>
      </trkpt>
      <trkpt lat="42.7315750" lon="-8.6611550">
        <ele>9.6</ele>
        <time>2022-06-19T07:59:32Z</time>
      </trkpt>
      <trkpt lat="42.7316160" lon="-8.6611580">
        <ele>9.6</ele>
        <time>2022-06-19T07:59:33Z</time>
      </trkpt>
      <trkpt lat="42.7316580" lon="-8.6611630">
        <ele>9.6</ele>
        <time>2022-06-19T07:59:34Z</time>
      </trkpt>
      <trkpt lat="42.7316960" lon="-8.6611700">
        <ele>9.6</ele>
        <time>2022-06-19T07:59:35Z</time>
      </trkpt>
      <trkpt lat="42.7317350" lon="-8.6611760">
        <ele>9.2</ele>
        <time>2022-06-19T07:59:36Z</time>
      </trkpt>
      <trkpt lat="42.7317730" lon="-8.6611830">
        <ele>9.2</ele>
        <time>2022-06-19T07:59:37Z</time>
      </trkpt>
      <trkpt lat="42.7318130" lon="-8.6611930">
        <ele>9.2</ele>
        <time>2022-06-19T07:59:38Z</time>
      </trkpt>
      <trkpt lat="42.7318550" lon="-8.6612010">
        <ele>9.6</ele>
        <time>2022-06-19T07:59:39Z</time>
      </trkpt>
      <trkpt lat="42.7318930" lon="-8.6612060">
        <ele>9.4</ele>
        <time>2022-06-19T07:59:40Z</time>
      </trkpt>
      <trkpt lat="42.7319350" lon="-8.6612130">
        <ele>9.4</ele>
        <time>2022-06-19T07:59:41Z</time>
      </trkpt>
      <trkpt lat="42.7319710" lon="-8.6612300">
        <ele>9.4</ele>
        <time>2022-06-19T07:59:42Z</time>
      </trkpt>
      <trkpt lat="42.7320110" lon="-8.6612430">
        <ele>9.0</ele>
        <time>2022-06-19T07:59:43Z</time>
      </trkpt>
      <trkpt lat="42.7320510" lon="-8.6612560">
        <ele>8.6</ele>
        <time>2022-06-19T07:59:44Z</time>
      </trkpt>
      <trkpt lat="42.7320910" lon="-8.6612660">
        <ele>8.6</ele>
        <time>2022-06-19T07:59:45Z</time>
      </trkpt>
      <trkpt lat="42.7321310" lon="-8.6612660">
        <ele>8.6</ele>
        <time>2022-06-19T07:59:46Z</time>
      </trkpt>
      <trkpt lat="42.7321730" lon="-8.6612710">
        <ele>8.6</ele>
        <time>2022-06-19T07:59:47Z</time>
      </trkpt>
      <trkpt lat="42.7322160" lon="-8.6612800">
        <ele>8.6</ele>
        <time>2022-06-19T07:59:48Z</time>
      </trkpt>
      <trkpt lat="42.7322600" lon="-8.6612910">
        <ele>8.6</ele>
        <time>2022-06-19T07:59:49Z</time>
      </trkpt>
      <trkpt lat="42.7323030" lon="-8.6613030">
        <ele>8.6</ele>
        <time>2022-06-19T07:59:50Z</time>
      </trkpt>
      <trkpt lat="42.7323460" lon="-8.6613130">
        <ele>7.6</ele>
        <time>2022-06-19T07:59:51Z</time>
      </trkpt>
      <trkpt lat="42.7323860" lon="-8.6613230">
        <ele>7.6</ele>
        <time>2022-06-19T07:59:52Z</time>
      </trkpt>
      <trkpt lat="42.7324280" lon="-8.6613260">
        <ele>7.6</ele>
        <time>2022-06-19T07:59:53Z</time>
      </trkpt>
      <trkpt lat="42.7324680" lon="-8.6613350">
        <ele>7.6</ele>
        <time>2022-06-19T07:59:54Z</time>
      </trkpt>
      <trkpt lat="42.7325060" lon="-8.6613450">
        <ele>7.8</ele>
        <time>2022-06-19T07:59:55Z</time>
      </trkpt>
      <trkpt lat="42.7325460" lon="-8.6613500">
        <ele>7.8</ele>
        <time>2022-06-19T07:59:56Z</time>
      </trkpt>
      <trkpt lat="42.7325850" lon="-8.6613550">
        <ele>7.8</ele>
        <time>2022-06-19T07:59:57Z</time>
      </trkpt>
      <trkpt lat="42.7326230" lon="-8.6613580">
        <ele>7.8</ele>
        <time>2022-06-19T07:59:58Z</time>
      </trkpt>
      <trkpt lat="42.7326600" lon="-8.6613680">
        <ele>7.8</ele>
        <time>2022-06-19T07:59:59Z</time>
      </trkpt>
      <trkpt lat="42.7326980" lon="-8.6613780">
        <ele>8.4</ele>
        <time>2022-06-19T08:00:00Z</time>
      </trkpt>
      <trkpt lat="42.7327360" lon="-8.6613850">
        <ele>8.4</ele>
        <time>2022-06-19T08:00:01Z</time>
      </trkpt>
      <trkpt lat="42.7327710" lon="-8.6614000">
        <ele>8.4</ele>
        <time>2022-06-19T08:00:02Z</time>
      </trkpt>
      <trkpt lat="42.7328060" lon="-8.6614160">
        <ele>8.2</ele>
        <time>2022-06-19T08:00:03Z</time>
      </trkpt>
      <trkpt lat="42.7328430" lon="-8.6614260">
        <ele>8.2</ele>
        <time>2022-06-19T08:00:04Z</time>
      </trkpt>
      <trkpt lat="42.7328800" lon="-8.6614350">
        <ele>8.2</ele>
        <time>2022-06-19T08:00:05Z</time>
      </trkpt>
      <trkpt lat="42.7329160" lon="-8.6614480">
        <ele>8.2</ele>
        <time>2022-06-19T08:00:06Z</time>
      </trkpt>
      <trkpt lat="42.7329530" lon="-8.6614600">
        <ele>8.2</ele>
        <time>2022-06-19T08:00:07Z</time>
      </trkpt>
      <trkpt lat="42.7329910" lon="-8.6614700">
        <ele>8.6</ele>
        <time>2022-06-19T08:00:08Z</time>
      </trkpt>
      <trkpt lat="42.7330310" lon="-8.6614730">
        <ele>8.6</ele>
        <time>2022-06-19T08:00:09Z</time>
      </trkpt>
      <trkpt lat="42.7330680" lon="-8.6614850">
        <ele>8.6</ele>
        <time>2022-06-19T08:00:10Z</time>
      </trkpt>
      <trkpt lat="42.7331080" lon="-8.6614910">
        <ele>8.2</ele>
        <time>2022-06-19T08:00:11Z</time>
      </trkpt>
      <trkpt lat="42.7331500" lon="-8.6615010">
        <ele>8.4</ele>
        <time>2022-06-19T08:00:12Z</time>
      </trkpt>
      <trkpt lat="42.7331900" lon="-8.6615060">
        <ele>8.4</ele>
        <time>2022-06-19T08:00:13Z</time>
      </trkpt>
      <trkpt lat="42.7332300" lon="-8.6615130">
        <ele>8.4</ele>
        <time>2022-06-19T08:00:14Z</time>
      </trkpt>
      <trkpt lat="42.7332700" lon="-8.6615160">
        <ele>8.4</ele>
        <time>2022-06-19T08:00:15Z</time>
      </trkpt>
      <trkpt lat="42.7333100" lon="-8.6615210">
        <ele>8.0</ele>
        <time>2022-06-19T08:00:16Z</time>
      </trkpt>
      <trkpt lat="42.7333460" lon="-8.6615310">
        <ele>8.0</ele>
        <time>2022-06-19T08:00:17Z</time>
      </trkpt>
      <trkpt lat="42.7333850" lon="-8.6615410">
        <ele>8.0</ele>
        <time>2022-06-19T08:00:18Z</time>
      </trkpt>
      <trkpt lat="42.7334210" lon="-8.6615500">
        <ele>8.0</ele>
        <time>2022-06-19T08:00:19Z</time>
      </trkpt>
      <trkpt lat="42.7334600" lon="-8.6615560">
        <ele>8.0</ele>
        <time>2022-06-19T08:00:20Z</time>
      </trkpt>
      <trkpt lat="42.7334930" lon="-8.6615600">
        <ele>8.0</ele>
        <time>2022-06-19T08:00:21Z</time>
      </trkpt>
      <trkpt lat="42.7335260" lon="-8.6615630">
        <ele>8.0</ele>
        <time>2022-06-19T08:00:22Z</time>
      </trkpt>
      <trkpt lat="42.7335610" lon="-8.6615630">
        <ele>8.4</ele>
        <time>2022-06-19T08:00:23Z</time>
      </trkpt>
      <trkpt lat="42.7335960" lon="-8.6615710">
        <ele>8.4</ele>
        <time>2022-06-19T08:00:24Z</time>
      </trkpt>
      <trkpt lat="42.7336330" lon="-8.6615780">
        <ele>8.4</ele>
        <time>2022-06-19T08:00:25Z</time>
      </trkpt>
      <trkpt lat="42.7336680" lon="-8.6615850">
        <ele>8.4</ele>
        <time>2022-06-19T08:00:26Z</time>
      </trkpt>
      <trkpt lat="42.7337030" lon="-8.6615910">
        <ele>8.2</ele>
        <time>2022-06-19T08:00:27Z</time>
      </trkpt>
      <trkpt lat="42.7337360" lon="-8.6615910">
        <ele>8.4</ele>
        <time>2022-06-19T08:00:28Z</time>
      </trkpt>
      <trkpt lat="42.7337660" lon="-8.6615950">
        <ele>8.4</ele>
        <time>2022-06-19T08:00:29Z</time>
      </trkpt>
      <trkpt lat="42.7337960" lon="-8.6615960">
        <ele>8.4</ele>
        <time>2022-06-19T08:00:30Z</time>
      </trkpt>
      <trkpt lat="42.7338300" lon="-8.6616010">
        <ele>8.4</ele>
        <time>2022-06-19T08:00:31Z</time>
      </trkpt>
      <trkpt lat="42.7338600" lon="-8.6616060">
        <ele>8.6</ele>
        <time>2022-06-19T08:00:32Z</time>
      </trkpt>
      <trkpt lat="42.7338850" lon="-8.6616160">
        <ele>8.6</ele>
        <time>2022-06-19T08:00:33Z</time>
      </trkpt>
      <trkpt lat="42.7339150" lon="-8.6616260">
        <ele>8.6</ele>
        <time>2022-06-19T08:00:34Z</time>
      </trkpt>
      <trkpt lat="42.7339480" lon="-8.6616210">
        <ele>8.6</ele>
        <time>2022-06-19T08:00:35Z</time>
      </trkpt>
      <trkpt lat="42.7339780" lon="-8.6616200">
        <ele>8.6</ele>
        <time>2022-06-19T08:00:36Z</time>
      </trkpt>
      <trkpt lat="42.7340100" lon="-8.6616180">
        <ele>8.6</ele>
        <time>2022-06-19T08:00:37Z</time>
      </trkpt>
      <trkpt lat="42.7340360" lon="-8.6616200">
        <ele>8.6</ele>
        <time>2022-06-19T08:00:38Z</time>
      </trkpt>
      <trkpt lat="42.7340630" lon="-8.6616180">
        <ele>9.6</ele>
        <time>2022-06-19T08:00:39Z</time>
      </trkpt>
      <trkpt lat="42.7340900" lon="-8.6616150">
        <ele>9.2</ele>
        <time>2022-06-19T08:00:40Z</time>
      </trkpt>
      <trkpt lat="42.7341130" lon="-8.6616200">
        <ele>9.2</ele>
        <time>2022-06-19T08:00:41Z</time>
      </trkpt>
      <trkpt lat="42.7341350" lon="-8.6616250">
        <ele>9.2</ele>
        <time>2022-06-19T08:00:42Z</time>
      </trkpt>
      <trkpt lat="42.7341580" lon="-8.6616310">
        <ele>9.4</ele>
        <time>2022-06-19T08:00:43Z</time>
      </trkpt>
      <trkpt lat="42.7341810" lon="-8.6616400">
        <ele>9.2</ele>
        <time>2022-06-19T08:00:44Z</time>
      </trkpt>
      <trkpt lat="42.7342010" lon="-8.6616460">
        <ele>9.2</ele>
        <time>2022-06-19T08:00:45Z</time>
      </trkpt>
      <trkpt lat="42.7342230" lon="-8.6616510">
        <ele>9.2</ele>
        <time>2022-06-19T08:00:46Z</time>
      </trkpt>
      <trkpt lat="42.7342430" lon="-8.6616550">
        <ele>9.2</ele>
        <time>2022-06-19T08:00:47Z</time>
      </trkpt>
      <trkpt lat="42.7342660" lon="-8.6616580">
        <ele>9.6</ele>
        <time>2022-06-19T08:00:48Z</time>
      </trkpt>
      <trkpt lat="42.7342910" lon="-8.6616600">
        <ele>9.6</ele>
        <time>2022-06-19T08:00:49Z</time>
      </trkpt>
      <trkpt lat="42.7343180" lon="-8.6616630">
        <ele>9.6</ele>
        <time>2022-06-19T08:00:50Z</time>
      </trkpt>
      <trkpt lat="42.7343410" lon="-8.6616630">
        <ele>9.2</ele>
        <time>2022-06-19T08:00:51Z</time>
      </trkpt>
      <trkpt lat="42.7343630" lon="-8.6616680">
        <ele>9.2</ele>
        <time>2022-06-19T08:00:52Z</time>
      </trkpt>
      <trkpt lat="42.7343850" lon="-8.6616750">
        <ele>9.2</ele>
        <time>2022-06-19T08:00:53Z</time>
      </trkpt>
      <trkpt lat="42.7344010" lon="-8.6616810">
        <ele>9.2</ele>
        <time>2022-06-19T08:00:54Z</time>
      </trkpt>
      <trkpt lat="42.7344160" lon="-8.6616830">
        <ele>9.2</ele>
        <time>2022-06-19T08:00:55Z</time>
      </trkpt>
      <trkpt lat="42.7344280" lon="-8.6616830">
        <ele>9.2</ele>
        <time>2022-06-19T08:00:56Z</time>
      </trkpt>
      <trkpt lat="42.7344360" lon="-8.6616800">
        <ele>9.2</ele>
        <time>2022-06-19T08:00:57Z</time>
      </trkpt>
      <trkpt lat="42.7344500" lon="-8.6616830">
        <ele>9.2</ele>
        <time>2022-06-19T08:00:58Z</time>
      </trkpt>
      <trkpt lat="42.7344660" lon="-8.6616850">
        <ele>9.2</ele>
        <time>2022-06-19T08:00:59Z</time>
      </trkpt>
      <trkpt lat="42.7344860" lon="-8.6616850">
        <ele>9.6</ele>
        <time>2022-06-19T08:01:00Z</time>
      </trkpt>
      <trkpt lat="42.7345050" lon="-8.6616860">
        <ele>9.6</ele>
        <time>2022-06-19T08:01:01Z</time>
      </trkpt>
      <trkpt lat="42.7345260" lon="-8.6616880">
        <ele>9.6</ele>
        <time>2022-06-19T08:01:02Z</time>
      </trkpt>
      <trkpt lat="42.7345460" lon="-8.6616850">
        <ele>9.6</ele>
        <time>2022-06-19T08:01:03Z</time>
      </trkpt>
      <trkpt lat="42.7345630" lon="-8.6616800">
        <ele>9.2</ele>
        <time>2022-06-19T08:01:04Z</time>
      </trkpt>
      <trkpt lat="42.7345830" lon="-8.6616810">
        <ele>9.2</ele>
        <time>2022-06-19T08:01:05Z</time>
      </trkpt>
      <trkpt lat="42.7346100" lon="-8.6616850">
        <ele>9.2</ele>
        <time>2022-06-19T08:01:06Z</time>
      </trkpt>
      <trkpt lat="42.7346400" lon="-8.6616810">
        <ele>8.6</ele>
        <time>2022-06-19T08:01:07Z</time>
      </trkpt>
      <trkpt lat="42.7346660" lon="-8.6616750">
        <ele>9.0</ele>
        <time>2022-06-19T08:01:08Z</time>
      </trkpt>
      <trkpt lat="42.7346910" lon="-8.6616710">
        <ele>9.0</ele>
        <time>2022-06-19T08:01:09Z</time>
      </trkpt>
      <trkpt lat="42.7347160" lon="-8.6616730">
        <ele>9.0</ele>
        <time>2022-06-19T08:01:10Z</time>
      </trkpt>
      <trkpt lat="42.7347410" lon="-8.6616760">
        <ele>9.2</ele>
        <time>2022-06-19T08:01:11Z</time>
      </trkpt>
      <trkpt lat="42.7347650" lon="-8.6616830">
        <ele>9.2</ele>
        <time>2022-06-19T08:01:12Z</time>
      </trkpt>
      <trkpt lat="42.7347900" lon="-8.6616850">
        <ele>9.2</ele>
        <time>2022-06-19T08:01:13Z</time>
      </trkpt>
      <trkpt lat="42.7348130" lon="-8.6616830">
        <ele>9.2</ele>
        <time>2022-06-19T08:01:14Z</time>
      </trkpt>
      <trkpt lat="42.7348350" lon="-8.6616760">
        <ele>9.2</ele>
        <time>2022-06-19T08:01:15Z</time>
      </trkpt>
      <trkpt lat="42.7348550" lon="-8.6616700">
        <ele>9.2</ele>
        <time>2022-06-19T08:01:16Z</time>
      </trkpt>
      <trkpt lat="42.7348760" lon="-8.6616630">
        <ele>9.2</ele>
        <time>2022-06-19T08:01:17Z</time>
      </trkpt>
      <trkpt lat="42.7348960" lon="-8.6616610">
        <ele>9.2</ele>
        <time>2022-06-19T08:01:18Z</time>
      </trkpt>
      <trkpt lat="42.7349150" lon="-8.6616650">
        <ele>9.2</ele>
        <time>2022-06-19T08:01:19Z</time>
      </trkpt>
      <trkpt lat="42.7349350" lon="-8.6616710">
        <ele>8.6</ele>
        <time>2022-06-19T08:01:20Z</time>
      </trkpt>
      <trkpt lat="42.7349580" lon="-8.6616730">
        <ele>8.6</ele>
        <time>2022-06-19T08:01:21Z</time>
      </trkpt>
      <trkpt lat="42.7349780" lon="-8.6616700">
        <ele>8.6</ele>
        <time>2022-06-19T08:01:22Z</time>
      </trkpt>
      <trkpt lat="42.7349980" lon="-8.6616680">
        <ele>9.2</ele>
        <time>2022-06-19T08:01:23Z</time>
      </trkpt>
      <trkpt lat="42.7350160" lon="-8.6616580">
        <ele>9.2</ele>
        <time>2022-06-19T08:01:24Z</time>
      </trkpt>
      <trkpt lat="42.7350310" lon="-8.6616500">
        <ele>9.2</ele>
        <time>2022-06-19T08:01:25Z</time>
      </trkpt>
      <trkpt lat="42.7350410" lon="-8.6616360">
        <ele>9.2</ele>
        <time>2022-06-19T08:01:26Z</time>
      </trkpt>
      <trkpt lat="42.7350500" lon="-8.6616260">
        <ele>9.2</ele>
        <time>2022-06-19T08:01:27Z</time>
      </trkpt>
      <trkpt lat="42.7350580" lon="-8.6616200">
        <ele>9.4</ele>
        <time>2022-06-19T08:01:28Z</time>
      </trkpt>
      <trkpt lat="42.7350680" lon="-8.6616130">
        <ele>9.4</ele>
        <time>2022-06-19T08:01:29Z</time>
      </trkpt>
      <trkpt lat="42.7350780" lon="-8.6616110">
        <ele>9.4</ele>
        <time>2022-06-19T08:01:30Z</time>
      </trkpt>
      <trkpt lat="42.7350930" lon="-8.6616110">
        <ele>9.2</ele>
        <time>2022-06-19T08:01:31Z</time>
      </trkpt>
      <trkpt lat="42.7351130" lon="-8.6616110">
        <ele>9.0</ele>
        <time>2022-06-19T08:01:32Z</time>
      </trkpt>
      <trkpt lat="42.7351310" lon="-8.6616100">
        <ele>9.0</ele>
        <time>2022-06-19T08:01:33Z</time>
      </trkpt>
      <trkpt lat="42.7351460" lon="-8.6616030">
        <ele>9.0</ele>
        <time>2022-06-19T08:01:34Z</time>
      </trkpt>
      <trkpt lat="42.7351560" lon="-8.6615860">
        <ele>9.2</ele>
        <time>2022-06-19T08:01:35Z</time>
      </trkpt>
      <trkpt lat="42.7351610" lon="-8.6615660">
        <ele>9.2</ele>
        <time>2022-06-19T08:01:36Z</time>
      </trkpt>
      <trkpt lat="42.7351650" lon="-8.6615500">
        <ele>9.2</ele>
        <time>2022-06-19T08:01:37Z</time>
      </trkpt>
      <trkpt lat="42.7351680" lon="-8.6615360">
        <ele>9.2</ele>
        <time>2022-06-19T08:01:38Z</time>
      </trkpt>
      <trkpt lat="42.7351750" lon="-8.6615300">
        <ele>9.2</ele>
        <time>2022-06-19T08:01:39Z</time>
      </trkpt>
      <trkpt lat="42.7351850" lon="-8.6615260">
        <ele>9.4</ele>
        <time>2022-06-19T08:01:40Z</time>
      </trkpt>
      <trkpt lat="42.7351960" lon="-8.6615250">
        <ele>9.4</ele>
        <time>2022-06-19T08:01:41Z</time>
      </trkpt>
      <trkpt lat="42.7352080" lon="-8.6615260">
        <ele>9.4</ele>
        <time>2022-06-19T08:01:42Z</time>
      </trkpt>
      <trkpt lat="42.7352210" lon="-8.6615300">
        <ele>9.4</ele>
        <time>2022-06-19T08:01:43Z</time>
      </trkpt>
      <trkpt lat="42.7352400" lon="-8.6615200">
        <ele>9.4</ele>
        <time>2022-06-19T08:01:44Z</time>
      </trkpt>
      <trkpt lat="42.7352550" lon="-8.6615060">
        <ele>9.4</ele>
        <time>2022-06-19T08:01:45Z</time>
      </trkpt>
      <trkpt lat="42.7352660" lon="-8.6614910">
        <ele>9.4</ele>
        <time>2022-06-19T08:01:46Z</time>
      </trkpt>
      <trkpt lat="42.7352830" lon="-8.6614800">
        <ele>9.4</ele>
        <time>2022-06-19T08:01:47Z</time>
      </trkpt>
      <trkpt lat="42.7352980" lon="-8.6614700">
        <ele>9.4</ele>
        <time>2022-06-19T08:01:48Z</time>
      </trkpt>
      <trkpt lat="42.7353130" lon="-8.6614650">
        <ele>9.4</ele>
        <time>2022-06-19T08:01:49Z</time>
      </trkpt>
      <trkpt lat="42.7353310" lon="-8.6614560">
        <ele>9.4</ele>
        <time>2022-06-19T08:01:50Z</time>
      </trkpt>
      <trkpt lat="42.7353450" lon="-8.6614480">
        <ele>9.4</ele>
        <time>2022-06-19T08:01:51Z</time>
      </trkpt>
      <trkpt lat="42.7353580" lon="-8.6614380">
        <ele>9.2</ele>
        <time>2022-06-19T08:01:52Z</time>
      </trkpt>
      <trkpt lat="42.7353700" lon="-8.6614350">
        <ele>9.2</ele>
        <time>2022-06-19T08:01:53Z</time>
      </trkpt>
      <trkpt lat="42.7353830" lon="-8.6614280">
        <ele>9.2</ele>
        <time>2022-06-19T08:01:54Z</time>
      </trkpt>
      <trkpt lat="42.7353960" lon="-8.6614230">
        <ele>9.2</ele>
        <time>2022-06-19T08:01:55Z</time>
      </trkpt>
      <trkpt lat="42.7354110" lon="-8.6614150">
        <ele>9.4</ele>
        <time>2022-06-19T08:01:56Z</time>
      </trkpt>
      <trkpt lat="42.7354260" lon="-8.6614050">
        <ele>9.4</ele>
        <time>2022-06-19T08:01:57Z</time>
      </trkpt>
      <trkpt lat="42.7354410" lon="-8.6613880">
        <ele>9.4</ele>
        <time>2022-06-19T08:01:58Z</time>
      </trkpt>
      <trkpt lat="42.7354580" lon="-8.6613750">
        <ele>9.4</ele>
        <time>2022-06-19T08:01:59Z</time>
      </trkpt>
      <trkpt lat="42.7354750" lon="-8.6613680">
        <ele>9.8</ele>
        <time>2022-06-19T08:02:00Z</time>
      </trkpt>
      <trkpt lat="42.7354900" lon="-8.6613580">
        <ele>9.8</ele>
        <time>2022-06-19T08:02:01Z</time>
      </trkpt>
      <trkpt lat="42.7355000" lon="-8.6613560">
        <ele>9.8</ele>
        <time>2022-06-19T08:02:02Z</time>
      </trkpt>
      <trkpt lat="42.7355110" lon="-8.6613550">
        <ele>9.8</ele>
        <time>2022-06-19T08:02:03Z</time>
      </trkpt>
      <trkpt lat="42.7355260" lon="-8.6613550">
        <ele>10.2</ele>
        <time>2022-06-19T08:02:04Z</time>
      </trkpt>
      <trkpt lat="42.7355380" lon="-8.6613560">
        <ele>10.2</ele>
        <time>2022-06-19T08:02:05Z</time>
      </trkpt>
      <trkpt lat="42.7355500" lon="-8.6613660">
        <ele>10.2</ele>
        <time>2022-06-19T08:02:06Z</time>
      </trkpt>
      <trkpt lat="42.7355710" lon="-8.6613630">
        <ele>10.2</ele>
        <time>2022-06-19T08:02:07Z</time>
      </trkpt>
      <trkpt lat="42.7355930" lon="-8.6613630">
        <ele>10.2</ele>
        <time>2022-06-19T08:02:08Z</time>
      </trkpt>
      <trkpt lat="42.7356130" lon="-8.6613630">
        <ele>10.2</ele>
        <time>2022-06-19T08:02:09Z</time>
      </trkpt>
      <trkpt lat="42.7356310" lon="-8.6613650">
        <ele>10.2</ele>
        <time>2022-06-19T08:02:10Z</time>
      </trkpt>
      <trkpt lat="42.7356480" lon="-8.6613680">
        <ele>10.4</ele>
        <time>2022-06-19T08:02:11Z</time>
      </trkpt>
      <trkpt lat="42.7356680" lon="-8.6613660">
        <ele>10.2</ele>
        <time>2022-06-19T08:02:12Z</time>
      </trkpt>
      <trkpt lat="42.7356860" lon="-8.6613630">
        <ele>10.2</ele>
        <time>2022-06-19T08:02:13Z</time>
      </trkpt>
      <trkpt lat="42.7357060" lon="-8.6613560">
        <ele>10.2</ele>
        <time>2022-06-19T08:02:14Z</time>
      </trkpt>
      <trkpt lat="42.7357260" lon="-8.6613530">
        <ele>10.2</ele>
        <time>2022-06-19T08:02:15Z</time>
      </trkpt>
      <trkpt lat="42.7357480" lon="-8.6613550">
        <ele>10.0</ele>
        <time>2022-06-19T08:02:16Z</time>
      </trkpt>
      <trkpt lat="42.7357710" lon="-8.6613550">
        <ele>10.0</ele>
        <time>2022-06-19T08:02:17Z</time>
      </trkpt>
      <trkpt lat="42.7357950" lon="-8.6613530">
        <ele>10.0</ele>
        <time>2022-06-19T08:02:18Z</time>
      </trkpt>
      <trkpt lat="42.7358160" lon="-8.6613510">
        <ele>10.4</ele>
        <time>2022-06-19T08:02:19Z</time>
      </trkpt>
      <trkpt lat="42.7358360" lon="-8.6613510">
        <ele>10.0</ele>
        <time>2022-06-19T08:02:20Z</time>
      </trkpt>
      <trkpt lat="42.7358550" lon="-8.6613530">
        <ele>10.0</ele>
        <time>2022-06-19T08:02:21Z</time>
      </trkpt>
      <trkpt lat="42.7358750" lon="-8.6613560">
        <ele>10.0</ele>
        <time>2022-06-19T08:02:22Z</time>
      </trkpt>
      <trkpt lat="42.7358960" lon="-8.6613600">
        <ele>10.0</ele>
        <time>2022-06-19T08:02:23Z</time>
      </trkpt>
      <trkpt lat="42.7359160" lon="-8.6613610">
        <ele>10.2</ele>
        <time>2022-06-19T08:02:24Z</time>
      </trkpt>
      <trkpt lat="42.7359350" lon="-8.6613580">
        <ele>10.2</ele>
        <time>2022-06-19T08:02:25Z</time>
      </trkpt>
      <trkpt lat="42.7359530" lon="-8.6613550">
        <ele>10.2</ele>
        <time>2022-06-19T08:02:26Z</time>
      </trkpt>
      <trkpt lat="42.7359730" lon="-8.6613530">
        <ele>10.2</ele>
        <time>2022-06-19T08:02:27Z</time>
      </trkpt>
      <trkpt lat="42.7359900" lon="-8.6613480">
        <ele>10.2</ele>
        <time>2022-06-19T08:02:28Z</time>
      </trkpt>
      <trkpt lat="42.7360060" lon="-8.6613500">
        <ele>10.2</ele>
        <time>2022-06-19T08:02:29Z</time>
      </trkpt>
      <trkpt lat="42.7360280" lon="-8.6613510">
        <ele>10.2</ele>
        <time>2022-06-19T08:02:30Z</time>
      </trkpt>
      <trkpt lat="42.7360450" lon="-8.6613510">
        <ele>10.2</ele>
        <time>2022-06-19T08:02:31Z</time>
      </trkpt>
      <trkpt lat="42.7360610" lon="-8.6613560">
        <ele>10.4</ele>
        <time>2022-06-19T08:02:32Z</time>
      </trkpt>
      <trkpt lat="42.7360780" lon="-8.6613610">
        <ele>10.4</ele>
        <time>2022-06-19T08:02:33Z</time>
      </trkpt>
      <trkpt lat="42.7360930" lon="-8.6613610">
        <ele>10.4</ele>
        <time>2022-06-19T08:02:34Z</time>
      </trkpt>
      <trkpt lat="42.7361130" lon="-8.6613550">
        <ele>10.4</ele>
        <time>2022-06-19T08:02:35Z</time>
      </trkpt>
      <trkpt lat="42.7361310" lon="-8.6613500">
        <ele>9.8</ele>
        <time>2022-06-19T08:02:36Z</time>
      </trkpt>
      <trkpt lat="42.7361500" lon="-8.6613450">
        <ele>9.8</ele>
        <time>2022-06-19T08:02:37Z</time>
      </trkpt>
      <trkpt lat="42.7361660" lon="-8.6613380">
        <ele>9.8</ele>
        <time>2022-06-19T08:02:38Z</time>
      </trkpt>
      <trkpt lat="42.7361850" lon="-8.6613380">
        <ele>9.8</ele>
        <time>2022-06-19T08:02:39Z</time>
      </trkpt>
      <trkpt lat="42.7362060" lon="-8.6613360">
        <ele>10.0</ele>
        <time>2022-06-19T08:02:40Z</time>
      </trkpt>
      <trkpt lat="42.7362300" lon="-8.6613350">
        <ele>10.0</ele>
        <time>2022-06-19T08:02:41Z</time>
      </trkpt>
      <trkpt lat="42.7362480" lon="-8.6613410">
        <ele>10.0</ele>
        <time>2022-06-19T08:02:42Z</time>
      </trkpt>
      <trkpt lat="42.7362700" lon="-8.6613480">
        <ele>9.6</ele>
        <time>2022-06-19T08:02:43Z</time>
      </trkpt>
      <trkpt lat="42.7362880" lon="-8.6613560">
        <ele>9.6</ele>
        <time>2022-06-19T08:02:44Z</time>
      </trkpt>
      <trkpt lat="42.7363060" lon="-8.6613600">
        <ele>9.6</ele>
        <time>2022-06-19T08:02:45Z</time>
      </trkpt>
      <trkpt lat="42.7363280" lon="-8.6613600">
        <ele>9.6</ele>
        <time>2022-06-19T08:02:46Z</time>
      </trkpt>
      <trkpt lat="42.7363480" lon="-8.6613630">
        <ele>10.0</ele>
        <time>2022-06-19T08:02:47Z</time>
      </trkpt>
      <trkpt lat="42.7363700" lon="-8.6613710">
        <ele>10.0</ele>
        <time>2022-06-19T08:02:48Z</time>
      </trkpt>
      <trkpt lat="42.7363900" lon="-8.6613780">
        <ele>10.0</ele>
        <time>2022-06-19T08:02:49Z</time>
      </trkpt>
      <trkpt lat="42.7364030" lon="-8.6613780">
        <ele>10.0</ele>
        <time>2022-06-19T08:02:50Z</time>
      </trkpt>
      <trkpt lat="42.7364160" lon="-8.6613850">
        <ele>10.0</ele>
        <time>2022-06-19T08:02:51Z</time>
      </trkpt>
      <trkpt lat="42.7364380" lon="-8.6613800">
        <ele>10.2</ele>
        <time>2022-06-19T08:02:52Z</time>
      </trkpt>
      <trkpt lat="42.7364580" lon="-8.6613830">
        <ele>10.2</ele>
        <time>2022-06-19T08:02:53Z</time>
      </trkpt>
      <trkpt lat="42.7364760" lon="-8.6613860">
        <ele>10.2</ele>
        <time>2022-06-19T08:02:54Z</time>
      </trkpt>
      <trkpt lat="42.7364950" lon="-8.6613860">
        <ele>10.2</ele>
        <time>2022-06-19T08:02:55Z</time>
      </trkpt>
      <trkpt lat="42.7365080" lon="-8.6613860">
        <ele>10.2</ele>
        <time>2022-06-19T08:02:56Z</time>
      </trkpt>
      <trkpt lat="42.7365210" lon="-8.6613900">
        <ele>10.2</ele>
        <time>2022-06-19T08:02:57Z</time>
      </trkpt>
      <trkpt lat="42.7365360" lon="-8.6613860">
        <ele>10.2</ele>
        <time>2022-06-19T08:02:58Z</time>
      </trkpt>
      <trkpt lat="42.7365500" lon="-8.6613980">
        <ele>10.2</ele>
        <time>2022-06-19T08:02:59Z</time>
      </trkpt>
      <trkpt lat="42.7365660" lon="-8.6614050">
        <ele>10.4</ele>
        <time>2022-06-19T08:03:00Z</time>
      </trkpt>
      <trkpt lat="42.7365830" lon="-8.6614030">
        <ele>10.4</ele>
        <time>2022-06-19T08:03:01Z</time>
      </trkpt>
      <trkpt lat="42.7365960" lon="-8.6614010">
        <ele>10.4</ele>
        <time>2022-06-19T08:03:02Z</time>
      </trkpt>
      <trkpt lat="42.7366110" lon="-8.6613980">
        <ele>10.4</ele>
        <time>2022-06-19T08:03:03Z</time>
      </trkpt>
      <trkpt lat="42.7366280" lon="-8.6613950">
        <ele>10.0</ele>
        <time>2022-06-19T08:03:04Z</time>
      </trkpt>
      <trkpt lat="42.7366450" lon="-8.6613900">
        <ele>10.0</ele>
        <time>2022-06-19T08:03:05Z</time>
      </trkpt>
      <trkpt lat="42.7366610" lon="-8.6613830">
        <ele>10.0</ele>
        <time>2022-06-19T08:03:06Z</time>
      </trkpt>
      <trkpt lat="42.7366750" lon="-8.6613780">
        <ele>10.0</ele>
        <time>2022-06-19T08:03:07Z</time>
      </trkpt>
      <trkpt lat="42.7366900" lon="-8.6613730">
        <ele>10.0</ele>
        <time>2022-06-19T08:03:08Z</time>
      </trkpt>
      <trkpt lat="42.7367060" lon="-8.6613700">
        <ele>10.0</ele>
        <time>2022-06-19T08:03:09Z</time>
      </trkpt>
      <trkpt lat="42.7367210" lon="-8.6613700">
        <ele>10.0</ele>
        <time>2022-06-19T08:03:10Z</time>
      </trkpt>
      <trkpt lat="42.7367400" lon="-8.6613660">
        <ele>10.0</ele>
        <time>2022-06-19T08:03:11Z</time>
      </trkpt>
      <trkpt lat="42.7367510" lon="-8.6613680">
        <ele>10.2</ele>
        <time>2022-06-19T08:03:12Z</time>
      </trkpt>
      <trkpt lat="42.7367630" lon="-8.6613700">
        <ele>10.2</ele>
        <time>2022-06-19T08:03:13Z</time>
      </trkpt>
      <trkpt lat="42.7367750" lon="-8.6613730">
        <ele>10.2</ele>
        <time>2022-06-19T08:03:14Z</time>
      </trkpt>
      <trkpt lat="42.7367860" lon="-8.6613750">
        <ele>10.2</ele>
        <time>2022-06-19T08:03:15Z</time>
      </trkpt>
      <trkpt lat="42.7368010" lon="-8.6613760">
        <ele>9.2</ele>
        <time>2022-06-19T08:03:16Z</time>
      </trkpt>
      <trkpt lat="42.7368130" lon="-8.6613850">
        <ele>9.2</ele>
        <time>2022-06-19T08:03:17Z</time>
      </trkpt>
      <trkpt lat="42.7368260" lon="-8.6613960">
        <ele>9.2</ele>
        <time>2022-06-19T08:03:18Z</time>
      </trkpt>
      <trkpt lat="42.7368350" lon="-8.6614080">
        <ele>10.2</ele>
        <time>2022-06-19T08:03:19Z</time>
      </trkpt>
      <trkpt lat="42.7368500" lon="-8.6614130">
        <ele>10.2</ele>
        <time>2022-06-19T08:03:20Z</time>
      </trkpt>
      <trkpt lat="42.7368680" lon="-8.6614160">
        <ele>10.2</ele>
        <time>2022-06-19T08:03:21Z</time>
      </trkpt>
      <trkpt lat="42.7368860" lon="-8.6614230">
        <ele>10.2</ele>
        <time>2022-06-19T08:03:22Z</time>
      </trkpt>
      <trkpt lat="42.7369030" lon="-8.6614360">
        <ele>10.2</ele>
        <time>2022-06-19T08:03:23Z</time>
      </trkpt>
      <trkpt lat="42.7369180" lon="-8.6614580">
        <ele>10.4</ele>
        <time>2022-06-19T08:03:24Z</time>
      </trkpt>
      <trkpt lat="42.7369360" lon="-8.6614680">
        <ele>10.4</ele>
        <time>2022-06-19T08:03:25Z</time>
      </trkpt>
      <trkpt lat="42.7369560" lon="-8.6614750">
        <ele>10.4</ele>
        <time>2022-06-19T08:03:26Z</time>
      </trkpt>
      <trkpt lat="42.7369760" lon="-8.6614810">
        <ele>9.6</ele>
        <time>2022-06-19T08:03:27Z</time>
      </trkpt>
      <trkpt lat="42.7369900" lon="-8.6615010">
        <ele>10.0</ele>
        <time>2022-06-19T08:03:28Z</time>
      </trkpt>
      <trkpt lat="42.7370050" lon="-8.6615100">
        <ele>10.0</ele>
        <time>2022-06-19T08:03:29Z</time>
      </trkpt>
      <trkpt lat="42.7370200" lon="-8.6615130">
        <ele>10.0</ele>
        <time>2022-06-19T08:03:30Z</time>
      </trkpt>
      <trkpt lat="42.7370330" lon="-8.6615180">
        <ele>10.0</ele>
        <time>2022-06-19T08:03:31Z</time>
      </trkpt>
      <trkpt lat="42.7370500" lon="-8.6615130">
        <ele>10.6</ele>
        <time>2022-06-19T08:03:32Z</time>
      </trkpt>
      <trkpt lat="42.7370660" lon="-8.6615200">
        <ele>10.6</ele>
        <time>2022-06-19T08:03:33Z</time>
      </trkpt>
      <trkpt lat="42.7370830" lon="-8.6615180">
        <ele>10.6</ele>
        <time>2022-06-19T08:03:34Z</time>
      </trkpt>
      <trkpt lat="42.7370960" lon="-8.6615150">
        <ele>9.8</ele>
        <time>2022-06-19T08:03:35Z</time>
      </trkpt>
      <trkpt lat="42.7371160" lon="-8.6615180">
        <ele>9.4</ele>
        <time>2022-06-19T08:03:36Z</time>
      </trkpt>
      <trkpt lat="42.7371380" lon="-8.6615210">
        <ele>9.4</ele>
        <time>2022-06-19T08:03:37Z</time>
      </trkpt>
      <trkpt lat="42.7371560" lon="-8.6615310">
        <ele>9.4</ele>
        <time>2022-06-19T08:03:38Z</time>
      </trkpt>
      <trkpt lat="42.7371730" lon="-8.6615450">
        <ele>9.6</ele>
        <time>2022-06-19T08:03:39Z</time>
      </trkpt>
      <trkpt lat="42.7371910" lon="-8.6615480">
        <ele>10.2</ele>
        <time>2022-06-19T08:03:40Z</time>
      </trkpt>
      <trkpt lat="42.7372080" lon="-8.6615550">
        <ele>10.2</ele>
        <time>2022-06-19T08:03:41Z</time>
      </trkpt>
      <trkpt lat="42.7372280" lon="-8.6615560">
        <ele>10.2</ele>
        <time>2022-06-19T08:03:42Z</time>
      </trkpt>
      <trkpt lat="42.7372430" lon="-8.6615680">
        <ele>10.2</ele>
        <time>2022-06-19T08:03:43Z</time>
      </trkpt>
      <trkpt lat="42.7372630" lon="-8.6615760">
        <ele>9.6</ele>
        <time>2022-06-19T08:03:44Z</time>
      </trkpt>
      <trkpt lat="42.7372760" lon="-8.6615900">
        <ele>9.6</ele>
        <time>2022-06-19T08:03:45Z</time>
      </trkpt>
      <trkpt lat="42.7372860" lon="-8.6615910">
        <ele>9.6</ele>
        <time>2022-06-19T08:03:46Z</time>
      </trkpt>
      <trkpt lat="42.7373150" lon="-8.6615960">
        <ele>10.0</ele>
        <time>2022-06-19T08:03:47Z</time>
      </trkpt>
      <trkpt lat="42.7373360" lon="-8.6616060">
        <ele>9.8</ele>
        <time>2022-06-19T08:03:48Z</time>
      </trkpt>
      <trkpt lat="42.7373560" lon="-8.6616230">
        <ele>9.8</ele>
        <time>2022-06-19T08:03:49Z</time>
      </trkpt>
      <trkpt lat="42.7373760" lon="-8.6616310">
        <ele>9.8</ele>
        <time>2022-06-19T08:03:50Z</time>
      </trkpt>
      <trkpt lat="42.7373950" lon="-8.6616410">
        <ele>9.8</ele>
        <time>2022-06-19T08:03:51Z</time>
      </trkpt>
      <trkpt lat="42.7374150" lon="-8.6616410">
        <ele>9.6</ele>
        <time>2022-06-19T08:03:52Z</time>
      </trkpt>
      <trkpt lat="42.7374350" lon="-8.6616410">
        <ele>9.6</ele>
        <time>2022-06-19T08:03:53Z</time>
      </trkpt>
      <trkpt lat="42.7374530" lon="-8.6616480">
        <ele>9.6</ele>
        <time>2022-06-19T08:03:54Z</time>
      </trkpt>
      <trkpt lat="42.7374780" lon="-8.6616480">
        <ele>10.2</ele>
        <time>2022-06-19T08:03:55Z</time>
      </trkpt>
      <trkpt lat="42.7375000" lon="-8.6616500">
        <ele>10.2</ele>
        <time>2022-06-19T08:03:56Z</time>
      </trkpt>
      <trkpt lat="42.7375200" lon="-8.6616430">
        <ele>10.2</ele>
        <time>2022-06-19T08:03:57Z</time>
      </trkpt>
      <trkpt lat="42.7375510" lon="-8.6615900">
        <ele>10.2</ele>
        <time>2022-06-19T08:03:58Z</time>
      </trkpt>
      <trkpt lat="42.7375730" lon="-8.6615850">
        <ele>10.2</ele>
        <time>2022-06-19T08:03:59Z</time>
      </trkpt>
      <trkpt lat="42.7376000" lon="-8.6615810">
        <ele>10.0</ele>
        <time>2022-06-19T08:04:00Z</time>
      </trkpt>
      <trkpt lat="42.7376300" lon="-8.6615800">
        <ele>10.0</ele>
        <time>2022-06-19T08:04:01Z</time>
      </trkpt>
      <trkpt lat="42.7376510" lon="-8.6615710">
        <ele>10.0</ele>
        <time>2022-06-19T08:04:02Z</time>
      </trkpt>
      <trkpt lat="42.7376700" lon="-8.6615710">
        <ele>10.0</ele>
        <time>2022-06-19T08:04:03Z</time>
      </trkpt>
      <trkpt lat="42.7376950" lon="-8.6615700">
        <ele>10.6</ele>
        <time>2022-06-19T08:04:04Z</time>
      </trkpt>
      <trkpt lat="42.7377230" lon="-8.6615750">
        <ele>10.6</ele>
        <time>2022-06-19T08:04:05Z</time>
      </trkpt>
      <trkpt lat="42.7377500" lon="-8.6615830">
        <ele>10.6</ele>
        <time>2022-06-19T08:04:06Z</time>
      </trkpt>
      <trkpt lat="42.7377710" lon="-8.6615850">
        <ele>9.8</ele>
        <time>2022-06-19T08:04:07Z</time>
      </trkpt>
      <trkpt lat="42.7378060" lon="-8.6615900">
        <ele>9.6</ele>
        <time>2022-06-19T08:04:08Z</time>
      </trkpt>
      <trkpt lat="42.7378330" lon="-8.6615900">
        <ele>9.6</ele>
        <time>2022-06-19T08:04:09Z</time>
      </trkpt>
      <trkpt lat="42.7378630" lon="-8.6615880">
        <ele>9.6</ele>
        <time>2022-06-19T08:04:10Z</time>
      </trkpt>
      <trkpt lat="42.7378950" lon="-8.6615850">
        <ele>10.2</ele>
        <time>2022-06-19T08:04:11Z</time>
      </trkpt>
      <trkpt lat="42.7379300" lon="-8.6615910">
        <ele>9.2</ele>
        <time>2022-06-19T08:04:12Z</time>
      </trkpt>
      <trkpt lat="42.7379630" lon="-8.6615810">
        <ele>9.2</ele>
        <time>2022-06-19T08:04:13Z</time>
      </trkpt>
      <trkpt lat="42.7380100" lon="-8.6615210">
        <ele>9.2</ele>
        <time>2022-06-19T08:04:14Z</time>
      </trkpt>
      <trkpt lat="42.7380410" lon="-8.6614860">
        <ele>9.2</ele>
        <time>2022-06-19T08:04:15Z</time>
      </trkpt>
      <trkpt lat="42.7380680" lon="-8.6614610">
        <ele>9.4</ele>
        <time>2022-06-19T08:04:16Z</time>
      </trkpt>
      <trkpt lat="42.7380800" lon="-8.6614200">
        <ele>9.4</ele>
        <time>2022-06-19T08:04:17Z</time>
      </trkpt>
      <trkpt lat="42.7380880" lon="-8.6613860">
        <ele>9.4</ele>
        <time>2022-06-19T08:04:18Z</time>
      </trkpt>
      <trkpt lat="42.7381000" lon="-8.6613530">
        <ele>9.4</ele>
        <time>2022-06-19T08:04:19Z</time>
      </trkpt>
      <trkpt lat="42.7381010" lon="-8.6613200">
        <ele>9.6</ele>
        <time>2022-06-19T08:04:20Z</time>
      </trkpt>
      <trkpt lat="42.7381060" lon="-8.6612880">
        <ele>9.6</ele>
        <time>2022-06-19T08:04:21Z</time>
      </trkpt>
      <trkpt lat="42.7381050" lon="-8.6612610">
        <ele>9.6</ele>
        <time>2022-06-19T08:04:22Z</time>
      </trkpt>
      <trkpt lat="42.7381050" lon="-8.6612360">
        <ele>9.6</ele>
        <time>2022-06-19T08:04:23Z</time>
      </trkpt>
      <trkpt lat="42.7380980" lon="-8.6612180">
        <ele>9.6</ele>
        <time>2022-06-19T08:04:24Z</time>
      </trkpt>
      <trkpt lat="42.7380930" lon="-8.6611950">
        <ele>9.6</ele>
        <time>2022-06-19T08:04:25Z</time>
      </trkpt>
      <trkpt lat="42.7380900" lon="-8.6611700">
        <ele>9.6</ele>
        <time>2022-06-19T08:04:26Z</time>
      </trkpt>
      <trkpt lat="42.7380810" lon="-8.6611580">
        <ele>10.0</ele>
        <time>2022-06-19T08:04:27Z</time>
      </trkpt>
      <trkpt lat="42.7380700" lon="-8.6611530">
        <ele>9.8</ele>
        <time>2022-06-19T08:04:28Z</time>
      </trkpt>
      <trkpt lat="42.7380650" lon="-8.6611530">
        <ele>9.8</ele>
        <time>2022-06-19T08:04:29Z</time>
      </trkpt>
      <trkpt lat="42.7380650" lon="-8.6611530">
        <ele>9.8</ele>
        <time>2022-06-19T08:04:30Z</time>
      </trkpt>
      <trkpt lat="42.7380650" lon="-8.6611530">
        <ele>9.8</ele>
        <time>2022-06-19T08:04:31Z</time>
      </trkpt>
      <trkpt lat="42.7380210" lon="-8.6609600">
        <ele>9.6</ele>
        <time>2022-06-19T08:08:15Z</time>
      </trkpt>
      <trkpt lat="42.7380080" lon="-8.6609600">
        <ele>10.2</ele>
        <time>2022-06-19T08:08:16Z</time>
      </trkpt>
      <trkpt lat="42.7379960" lon="-8.6609610">
        <ele>10.2</ele>
        <time>2022-06-19T08:08:17Z</time>
      </trkpt>
      <trkpt lat="42.7379880" lon="-8.6609600">
        <ele>10.2</ele>
        <time>2022-06-19T08:08:18Z</time>
      </trkpt>
      <trkpt lat="42.7379810" lon="-8.6609550">
        <ele>9.8</ele>
        <time>2022-06-19T08:08:19Z</time>
      </trkpt>
      <trkpt lat="42.7379750" lon="-8.6609500">
        <ele>10.6</ele>
        <time>2022-06-19T08:08:20Z</time>
      </trkpt>
      <trkpt lat="42.7379680" lon="-8.6609400">
        <ele>10.6</ele>
        <time>2022-06-19T08:08:21Z</time>
      </trkpt>
      <trkpt lat="42.7379580" lon="-8.6609450">
        <ele>10.6</ele>
        <time>2022-06-19T08:08:22Z</time>
      </trkpt>
      <trkpt lat="42.7379460" lon="-8.6609410">
        <ele>9.6</ele>
        <time>2022-06-19T08:08:23Z</time>
      </trkpt>
      <trkpt lat="42.7379360" lon="-8.6609450">
        <ele>10.4</ele>
        <time>2022-06-19T08:08:24Z</time>
      </trkpt>
      <trkpt lat="42.7379280" lon="-8.6609400">
        <ele>10.4</ele>
        <time>2022-06-19T08:08:25Z</time>
      </trkpt>
      <trkpt lat="42.7379230" lon="-8.6609300">
        <ele>10.4</ele>
        <time>2022-06-19T08:08:26Z</time>
      </trkpt>
      <trkpt lat="42.7379210" lon="-8.6609160">
        <ele>10.2</ele>
        <time>2022-06-19T08:08:27Z</time>
      </trkpt>
      <trkpt lat="42.7379180" lon="-8.6609110">
        <ele>10.0</ele>
        <time>2022-06-19T08:08:28Z</time>
      </trkpt>
      <trkpt lat="42.7379180" lon="-8.6609110">
        <ele>10.0</ele>
        <time>2022-06-19T08:08:29Z</time>
      </trkpt>
      <trkpt lat="42.7378510" lon="-8.6609280">
        <ele>10.2</ele>
        <time>2022-06-19T08:08:35Z</time>
      </trkpt>
      <trkpt lat="42.7378380" lon="-8.6609280">
        <ele>9.6</ele>
        <time>2022-06-19T08:08:36Z</time>
      </trkpt>
      <trkpt lat="42.7378300" lon="-8.6609300">
        <ele>9.6</ele>
        <time>2022-06-19T08:08:37Z</time>
      </trkpt>
      <trkpt lat="42.7378210" lon="-8.6609210">
        <ele>9.6</ele>
        <time>2022-06-19T08:08:38Z</time>
      </trkpt>
      <trkpt lat="42.7378130" lon="-8.6609160">
        <ele>10.0</ele>
        <time>2022-06-19T08:08:39Z</time>
      </trkpt>
      <trkpt lat="42.7378050" lon="-8.6609080">
        <ele>10.2</ele>
        <time>2022-06-19T08:08:40Z</time>
      </trkpt>
      <trkpt lat="42.7377980" lon="-8.6609060">
        <ele>10.2</ele>
        <time>2022-06-19T08:08:41Z</time>
      </trkpt>
      <trkpt lat="42.7377850" lon="-8.6609050">
        <ele>10.2</ele>
        <time>2022-06-19T08:08:42Z</time>
      </trkpt>
      <trkpt lat="42.7377760" lon="-8.6608950">
        <ele>10.2</ele>
        <time>2022-06-19T08:08:43Z</time>
      </trkpt>
      <trkpt lat="42.7377630" lon="-8.6608910">
        <ele>10.0</ele>
        <time>2022-06-19T08:08:44Z</time>
      </trkpt>
      <trkpt lat="42.7377460" lon="-8.6608900">
        <ele>10.0</ele>
        <time>2022-06-19T08:08:45Z</time>
      </trkpt>
      <trkpt lat="42.7377350" lon="-8.6608880">
        <ele>10.0</ele>
        <time>2022-06-19T08:08:46Z</time>
      </trkpt>
      <trkpt lat="42.7377200" lon="-8.6608930">
        <ele>9.8</ele>
        <time>2022-06-19T08:08:47Z</time>
      </trkpt>
      <trkpt lat="42.7377050" lon="-8.6608960">
        <ele>9.2</ele>
        <time>2022-06-19T08:08:48Z</time>
      </trkpt>
      <trkpt lat="42.7376950" lon="-8.6608930">
        <ele>9.2</ele>
        <time>2022-06-19T08:08:49Z</time>
      </trkpt>
      <trkpt lat="42.7376750" lon="-8.6609030">
        <ele>9.2</ele>
        <time>2022-06-19T08:08:50Z</time>
      </trkpt>
      <trkpt lat="42.7376660" lon="-8.6609030">
        <ele>10.0</ele>
        <time>2022-06-19T08:08:51Z</time>
      </trkpt>
      <trkpt lat="42.7376580" lon="-8.6608950">
        <ele>9.6</ele>
        <time>2022-06-19T08:08:52Z</time>
      </trkpt>
      <trkpt lat="42.7376410" lon="-8.6609000">
        <ele>9.6</ele>
        <time>2022-06-19T08:08:53Z</time>
      </trkpt>
      <trkpt lat="42.7376300" lon="-8.6608930">
        <ele>9.6</ele>
        <time>2022-06-19T08:08:54Z</time>
      </trkpt>
      <trkpt lat="42.7376280" lon="-8.6608650">
        <ele>9.6</ele>
        <time>2022-06-19T08:08:55Z</time>
      </trkpt>
      <trkpt lat="42.7376180" lon="-8.6608630">
        <ele>9.8</ele>
        <time>2022-06-19T08:08:56Z</time>
      </trkpt>
      <trkpt lat="42.7376080" lon="-8.6608600">
        <ele>9.8</ele>
        <time>2022-06-19T08:08:57Z</time>
      </trkpt>
      <trkpt lat="42.7376000" lon="-8.6608550">
        <ele>9.8</ele>
        <time>2022-06-19T08:08:58Z</time>
      </trkpt>
      <trkpt lat="42.7375910" lon="-8.6608500">
        <ele>9.8</ele>
        <time>2022-06-19T08:08:59Z</time>
      </trkpt>
      <trkpt lat="42.7375830" lon="-8.6608480">
        <ele>9.6</ele>
        <time>2022-06-19T08:09:00Z</time>
      </trkpt>
      <trkpt lat="42.7375730" lon="-8.6608450">
        <ele>9.6</ele>
        <time>2022-06-19T08:09:01Z</time>
      </trkpt>
      <trkpt lat="42.7375660" lon="-8.6608450">
        <ele>9.6</ele>
        <time>2022-06-19T08:09:02Z</time>
      </trkpt>
      <trkpt lat="42.7375660" lon="-8.6608450">
        <ele>9.6</ele>
        <time>2022-06-19T08:09:03Z</time>
      </trkpt>
      <trkpt lat="42.7375230" lon="-8.6608430">
        <ele>9.6</ele>
        <time>2022-06-19T08:09:08Z</time>
      </trkpt>
      <trkpt lat="42.7375110" lon="-8.6608400">
        <ele>9.6</ele>
        <time>2022-06-19T08:09:09Z</time>
      </trkpt>
      <trkpt lat="42.7375030" lon="-8.6608400">
        <ele>9.6</ele>
        <time>2022-06-19T08:09:10Z</time>
      </trkpt>
      <trkpt lat="42.7374950" lon="-8.6608400">
        <ele>9.6</ele>
        <time>2022-06-19T08:09:11Z</time>
      </trkpt>
      <trkpt lat="42.7374860" lon="-8.6608400">
        <ele>9.4</ele>
        <time>2022-06-19T08:09:12Z</time>
      </trkpt>
      <trkpt lat="42.7374780" lon="-8.6608380">
        <ele>9.4</ele>
        <time>2022-06-19T08:09:13Z</time>
      </trkpt>
      <trkpt lat="42.7374730" lon="-8.6608400">
        <ele>9.4</ele>
        <time>2022-06-19T08:09:14Z</time>
      </trkpt>
      <trkpt lat="42.7374660" lon="-8.6608350">
        <ele>9.4</ele>
        <time>2022-06-19T08:09:15Z</time>
      </trkpt>
      <trkpt lat="42.7374610" lon="-8.6608300">
        <ele>9.2</ele>
        <time>2022-06-19T08:09:16Z</time>
      </trkpt>
      <trkpt lat="42.7374510" lon="-8.6608280">
        <ele>9.2</ele>
        <time>2022-06-19T08:09:17Z</time>
      </trkpt>
      <trkpt lat="42.7374430" lon="-8.6608260">
        <ele>9.2</ele>
        <time>2022-06-19T08:09:18Z</time>
      </trkpt>
      <trkpt lat="42.7374380" lon="-8.6608260">
        <ele>9.2</ele>
        <time>2022-06-19T08:09:19Z</time>
      </trkpt>
      <trkpt lat="42.7374360" lon="-8.6608260">
        <ele>9.6</ele>
        <time>2022-06-19T08:09:20Z</time>
      </trkpt>
      <trkpt lat="42.7374360" lon="-8.6608260">
        <ele>9.6</ele>
        <time>2022-06-19T08:09:21Z</time>
      </trkpt>
      <trkpt lat="42.7371930" lon="-8.6607500">
        <ele>9.6</ele>
        <time>2022-06-19T08:10:00Z</time>
      </trkpt>
      <trkpt lat="42.7371880" lon="-8.6607460">
        <ele>9.6</ele>
        <time>2022-06-19T08:10:01Z</time>
      </trkpt>
      <trkpt lat="42.7371780" lon="-8.6607430">
        <ele>9.6</ele>
        <time>2022-06-19T08:10:02Z</time>
      </trkpt>
      <trkpt lat="42.7371760" lon="-8.6607280">
        <ele>9.6</ele>
        <time>2022-06-19T08:10:03Z</time>
      </trkpt>
      <trkpt lat="42.7371700" lon="-8.6607230">
        <ele>10.0</ele>
        <time>2022-06-19T08:10:04Z</time>
      </trkpt>
      <trkpt lat="42.7371630" lon="-8.6607260">
        <ele>10.0</ele>
        <time>2022-06-19T08:10:05Z</time>
      </trkpt>
      <trkpt lat="42.7371510" lon="-8.6607300">
        <ele>10.0</ele>
        <time>2022-06-19T08:10:06Z</time>
      </trkpt>
      <trkpt lat="42.7371400" lon="-8.6607280">
        <ele>10.0</ele>
        <time>2022-06-19T08:10:07Z</time>
      </trkpt>
      <trkpt lat="42.7371300" lon="-8.6607260">
        <ele>10.2</ele>
        <time>2022-06-19T08:10:08Z</time>
      </trkpt>
      <trkpt lat="42.7371180" lon="-8.6607230">
        <ele>10.2</ele>
        <time>2022-06-19T08:10:09Z</time>
      </trkpt>
      <trkpt lat="42.7371030" lon="-8.6607180">
        <ele>10.2</ele>
        <time>2022-06-19T08:10:10Z</time>
      </trkpt>
      <trkpt lat="42.7370910" lon="-8.6607200">
        <ele>10.2</ele>
        <time>2022-06-19T08:10:11Z</time>
      </trkpt>
      <trkpt lat="42.7370850" lon="-8.6607150">
        <ele>9.6</ele>
        <time>2022-06-19T08:10:12Z</time>
      </trkpt>
      <trkpt lat="42.7370760" lon="-8.6607180">
        <ele>9.6</ele>
        <time>2022-06-19T08:10:13Z</time>
      </trkpt>
      <trkpt lat="42.7370700" lon="-8.6607150">
        <ele>9.6</ele>
        <time>2022-06-19T08:10:14Z</time>
      </trkpt>
      <trkpt lat="42.7370600" lon="-8.6607110">
        <ele>9.8</ele>
        <time>2022-06-19T08:10:15Z</time>
      </trkpt>
      <trkpt lat="42.7370500" lon="-8.6607060">
        <ele>9.8</ele>
        <time>2022-06-19T08:10:16Z</time>
      </trkpt>
      <trkpt lat="42.7370400" lon="-8.6607080">
        <ele>9.8</ele>
        <time>2022-06-19T08:10:17Z</time>
      </trkpt>
      <trkpt lat="42.7370360" lon="-8.6606950">
        <ele>9.8</ele>
        <time>2022-06-19T08:10:18Z</time>
      </trkpt>
      <trkpt lat="42.7370260" lon="-8.6606930">
        <ele>10.2</ele>
        <time>2022-06-19T08:10:19Z</time>
      </trkpt>
      <trkpt lat="42.7370180" lon="-8.6606950">
        <ele>9.8</ele>
        <time>2022-06-19T08:10:20Z</time>
      </trkpt>
      <trkpt lat="42.7370100" lon="-8.6606950">
        <ele>9.8</ele>
        <time>2022-06-19T08:10:21Z</time>
      </trkpt>
      <trkpt lat="42.7370000" lon="-8.6607060">
        <ele>9.8</ele>
        <time>2022-06-19T08:10:22Z</time>
      </trkpt>
      <trkpt lat="42.7369900" lon="-8.6607060">
        <ele>10.0</ele>
        <time>2022-06-19T08:10:23Z</time>
      </trkpt>
      <trkpt lat="42.7369800" lon="-8.6606930">
        <ele>10.0</ele>
        <time>2022-06-19T08:10:24Z</time>
      </trkpt>
      <trkpt lat="42.7369710" lon="-8.6606950">
        <ele>10.0</ele>
        <time>2022-06-19T08:10:25Z</time>
      </trkpt>
      <trkpt lat="42.7369660" lon="-8.6606850">
        <ele>10.0</ele>
        <time>2022-06-19T08:10:26Z</time>
      </trkpt>
      <trkpt lat="42.7369550" lon="-8.6606800">
        <ele>10.0</ele>
        <time>2022-06-19T08:10:27Z</time>
      </trkpt>
      <trkpt lat="42.7369460" lon="-8.6606730">
        <ele>10.2</ele>
        <time>2022-06-19T08:10:28Z</time>
      </trkpt>
      <trkpt lat="42.7369380" lon="-8.6606680">
        <ele>10.2</ele>
        <time>2022-06-19T08:10:29Z</time>
      </trkpt>
      <trkpt lat="42.7369300" lon="-8.6606600">
        <ele>10.2</ele>
        <time>2022-06-19T08:10:30Z</time>
      </trkpt>
      <trkpt lat="42.7369200" lon="-8.6606550">
        <ele>10.2</ele>
        <time>2022-06-19T08:10:31Z</time>
      </trkpt>
      <trkpt lat="42.7369110" lon="-8.6606510">
        <ele>10.2</ele>
        <time>2022-06-19T08:10:32Z</time>
      </trkpt>
      <trkpt lat="42.7369050" lon="-8.6606480">
        <ele>10.2</ele>
        <time>2022-06-19T08:10:33Z</time>
      </trkpt>
      <trkpt lat="42.7368950" lon="-8.6606480">
        <ele>10.2</ele>
        <time>2022-06-19T08:10:34Z</time>
      </trkpt>
      <trkpt lat="42.7368860" lon="-8.6606410">
        <ele>10.2</ele>
        <time>2022-06-19T08:10:35Z</time>
      </trkpt>
      <trkpt lat="42.7368800" lon="-8.6606350">
        <ele>10.4</ele>
        <time>2022-06-19T08:10:36Z</time>
      </trkpt>
      <trkpt lat="42.7368700" lon="-8.6606280">
        <ele>10.4</ele>
        <time>2022-06-19T08:10:37Z</time>
      </trkpt>
      <trkpt lat="42.7368600" lon="-8.6606250">
        <ele>10.4</ele>
        <time>2022-06-19T08:10:38Z</time>
      </trkpt>
      <trkpt lat="42.7368500" lon="-8.6606230">
        <ele>10.4</ele>
        <time>2022-06-19T08:10:39Z</time>
      </trkpt>
      <trkpt lat="42.7368450" lon="-8.6606160">
        <ele>10.4</ele>
        <time>2022-06-19T08:10:40Z</time>
      </trkpt>
      <trkpt lat="42.7368360" lon="-8.6606100">
        <ele>10.4</ele>
        <time>2022-06-19T08:10:41Z</time>
      </trkpt>
      <trkpt lat="42.7368300" lon="-8.6606060">
        <ele>10.4</ele>
        <time>2022-06-19T08:10:42Z</time>
      </trkpt>
      <trkpt lat="42.7368210" lon="-8.6606010">
        <ele>10.4</ele>
        <time>2022-06-19T08:10:43Z</time>
      </trkpt>
      <trkpt lat="42.7368150" lon="-8.6605980">
        <ele>10.4</ele>
        <time>2022-06-19T08:10:44Z</time>
      </trkpt>
      <trkpt lat="42.7368060" lon="-8.6605910">
        <ele>10.4</ele>
        <time>2022-06-19T08:10:45Z</time>
      </trkpt>
      <trkpt lat="42.7368010" lon="-8.6605910">
        <ele>10.4</ele>
        <time>2022-06-19T08:10:46Z</time>
      </trkpt>
      <trkpt lat="42.7368010" lon="-8.6605910">
        <ele>10.4</ele>
        <time>2022-06-19T08:10:47Z</time>
      </trkpt>
      <trkpt lat="42.7367930" lon="-8.6605980">
        <ele>10.4</ele>
        <time>2022-06-19T08:10:48Z</time>
      </trkpt>
      <trkpt lat="42.7367860" lon="-8.6606100">
        <ele>10.4</ele>
        <time>2022-06-19T08:10:49Z</time>
      </trkpt>
      <trkpt lat="42.7367800" lon="-8.6606210">
        <ele>10.4</ele>
        <time>2022-06-19T08:10:50Z</time>
      </trkpt>
      <trkpt lat="42.7367760" lon="-8.6606310">
        <ele>10.8</ele>
        <time>2022-06-19T08:10:51Z</time>
      </trkpt>
      <trkpt lat="42.7367680" lon="-8.6606430">
        <ele>10.4</ele>
        <time>2022-06-19T08:10:52Z</time>
      </trkpt>
      <trkpt lat="42.7367580" lon="-8.6606550">
        <ele>10.4</ele>
        <time>2022-06-19T08:10:53Z</time>
      </trkpt>
      <trkpt lat="42.7367530" lon="-8.6606630">
        <ele>10.4</ele>
        <time>2022-06-19T08:10:54Z</time>
      </trkpt>
      <trkpt lat="42.7367500" lon="-8.6606730">
        <ele>10.4</ele>
        <time>2022-06-19T08:10:55Z</time>
      </trkpt>
      <trkpt lat="42.7367430" lon="-8.6606810">
        <ele>10.6</ele>
        <time>2022-06-19T08:10:56Z</time>
      </trkpt>
      <trkpt lat="42.7367400" lon="-8.6606910">
        <ele>10.6</ele>
        <time>2022-06-19T08:10:57Z</time>
      </trkpt>
      <trkpt lat="42.7367360" lon="-8.6607030">
        <ele>10.6</ele>
        <time>2022-06-19T08:10:58Z</time>
      </trkpt>
      <trkpt lat="42.7367310" lon="-8.6607150">
        <ele>10.6</ele>
        <time>2022-06-19T08:10:59Z</time>
      </trkpt>
      <trkpt lat="42.7367300" lon="-8.6607250">
        <ele>10.6</ele>
        <time>2022-06-19T08:11:00Z</time>
      </trkpt>
      <trkpt lat="42.7367280" lon="-8.6607400">
        <ele>10.6</ele>
        <time>2022-06-19T08:11:01Z</time>
      </trkpt>
      <trkpt lat="42.7367260" lon="-8.6607510">
        <ele>10.6</ele>
        <time>2022-06-19T08:11:02Z</time>
      </trkpt>
      <trkpt lat="42.7367250" lon="-8.6607630">
        <ele>10.6</ele>
        <time>2022-06-19T08:11:03Z</time>
      </trkpt>
      <trkpt lat="42.7367250" lon="-8.6607710">
        <ele>10.2</ele>
        <time>2022-06-19T08:11:04Z</time>
      </trkpt>
      <trkpt lat="42.7367210" lon="-8.6607850">
        <ele>10.2</ele>
        <time>2022-06-19T08:11:05Z</time>
      </trkpt>
      <trkpt lat="42.7367200" lon="-8.6607950">
        <ele>10.2</ele>
        <time>2022-06-19T08:11:06Z</time>
      </trkpt>
      <trkpt lat="42.7367180" lon="-8.6608080">
        <ele>10.2</ele>
        <time>2022-06-19T08:11:07Z</time>
      </trkpt>
      <trkpt lat="42.7367110" lon="-8.6608180">
        <ele>10.4</ele>
        <time>2022-06-19T08:11:08Z</time>
      </trkpt>
      <trkpt lat="42.7367060" lon="-8.6608310">
        <ele>10.4</ele>
        <time>2022-06-19T08:11:09Z</time>
      </trkpt>
      <trkpt lat="42.7367030" lon="-8.6608380">
        <ele>10.4</ele>
        <time>2022-06-19T08:11:10Z</time>
      </trkpt>
      <trkpt lat="42.7366980" lon="-8.6608460">
        <ele>10.4</ele>
        <time>2022-06-19T08:11:11Z</time>
      </trkpt>
      <trkpt lat="42.7366960" lon="-8.6608560">
        <ele>10.6</ele>
        <time>2022-06-19T08:11:12Z</time>
      </trkpt>
      <trkpt lat="42.7366960" lon="-8.6608680">
        <ele>10.6</ele>
        <time>2022-06-19T08:11:13Z</time>
      </trkpt>
      <trkpt lat="42.7366960" lon="-8.6608800">
        <ele>10.6</ele>
        <time>2022-06-19T08:11:14Z</time>
      </trkpt>
      <trkpt lat="42.7366960" lon="-8.6608910">
        <ele>10.6</ele>
        <time>2022-06-19T08:11:15Z</time>
      </trkpt>
      <trkpt lat="42.7366960" lon="-8.6609030">
        <ele>10.4</ele>
        <time>2022-06-19T08:11:16Z</time>
      </trkpt>
      <trkpt lat="42.7366960" lon="-8.6609160">
        <ele>10.4</ele>
        <time>2022-06-19T08:11:17Z</time>
      </trkpt>
      <trkpt lat="42.7366960" lon="-8.6609300">
        <ele>10.4</ele>
        <time>2022-06-19T08:11:18Z</time>
      </trkpt>
      <trkpt lat="42.7366950" lon="-8.6609400">
        <ele>10.4</ele>
        <time>2022-06-19T08:11:19Z</time>
      </trkpt>
      <trkpt lat="42.7366930" lon="-8.6609500">
        <ele>10.2</ele>
        <time>2022-06-19T08:11:20Z</time>
      </trkpt>
      <trkpt lat="42.7366930" lon="-8.6609610">
        <ele>10.2</ele>
        <time>2022-06-19T08:11:21Z</time>
      </trkpt>
      <trkpt lat="42.7366950" lon="-8.6609730">
        <ele>10.2</ele>
        <time>2022-06-19T08:11:22Z</time>
      </trkpt>
      <trkpt lat="42.7366950" lon="-8.6609830">
        <ele>10.2</ele>
        <time>2022-06-19T08:11:23Z</time>
      </trkpt>
      <trkpt lat="42.7366950" lon="-8.6609830">
        <ele>10.6</ele>
        <time>2022-06-19T08:11:24Z</time>
      </trkpt>
      <trkpt lat="42.7369330" lon="-8.6614830">
        <ele>11.0</ele>
        <time>2022-06-19T08:38:21Z</time>
      </trkpt>
      <trkpt lat="42.7369500" lon="-8.6615000">
        <ele>11.0</ele>
        <time>2022-06-19T08:38:22Z</time>
      </trkpt>
      <trkpt lat="42.7369730" lon="-8.6615050">
        <ele>10.6</ele>
        <time>2022-06-19T08:38:23Z</time>
      </trkpt>
      <trkpt lat="42.7369950" lon="-8.6615100">
        <ele>10.6</ele>
        <time>2022-06-19T08:38:24Z</time>
      </trkpt>
      <trkpt lat="42.7370130" lon="-8.6615130">
        <ele>10.6</ele>
        <time>2022-06-19T08:38:25Z</time>
      </trkpt>
      <trkpt lat="42.7370380" lon="-8.6615100">
        <ele>10.6</ele>
        <time>2022-06-19T08:38:26Z</time>
      </trkpt>
      <trkpt lat="42.7370580" lon="-8.6615130">
        <ele>11.0</ele>
        <time>2022-06-19T08:38:27Z</time>
      </trkpt>
      <trkpt lat="42.7370780" lon="-8.6615110">
        <ele>10.8</ele>
        <time>2022-06-19T08:38:28Z</time>
      </trkpt>
      <trkpt lat="42.7370860" lon="-8.6615180">
        <ele>10.8</ele>
        <time>2022-06-19T08:38:29Z</time>
      </trkpt>
      <trkpt lat="42.7371000" lon="-8.6615260">
        <ele>10.8</ele>
        <time>2022-06-19T08:38:30Z</time>
      </trkpt>
      <trkpt lat="42.7371180" lon="-8.6615410">
        <ele>10.8</ele>
        <time>2022-06-19T08:38:31Z</time>
      </trkpt>
      <trkpt lat="42.7371410" lon="-8.6615530">
        <ele>11.0</ele>
        <time>2022-06-19T08:38:32Z</time>
      </trkpt>
      <trkpt lat="42.7371700" lon="-8.6615510">
        <ele>11.0</ele>
        <time>2022-06-19T08:38:33Z</time>
      </trkpt>
      <trkpt lat="42.7371950" lon="-8.6615600">
        <ele>11.0</ele>
        <time>2022-06-19T08:38:34Z</time>
      </trkpt>
      <trkpt lat="42.7372210" lon="-8.6615600">
        <ele>11.0</ele>
        <time>2022-06-19T08:38:35Z</time>
      </trkpt>
      <trkpt lat="42.7372460" lon="-8.6615580">
        <ele>10.8</ele>
        <time>2022-06-19T08:38:36Z</time>
      </trkpt>
      <trkpt lat="42.7372760" lon="-8.6615600">
        <ele>10.8</ele>
        <time>2022-06-19T08:38:37Z</time>
      </trkpt>
      <trkpt lat="42.7373050" lon="-8.6615630">
        <ele>10.8</ele>
        <time>2022-06-19T08:38:38Z</time>
      </trkpt>
      <trkpt lat="42.7373300" lon="-8.6615680">
        <ele>10.8</ele>
        <time>2022-06-19T08:38:39Z</time>
      </trkpt>
      <trkpt lat="42.7373630" lon="-8.6615710">
        <ele>10.6</ele>
        <time>2022-06-19T08:38:40Z</time>
      </trkpt>
      <trkpt lat="42.7373950" lon="-8.6615650">
        <ele>10.6</ele>
        <time>2022-06-19T08:38:41Z</time>
      </trkpt>
      <trkpt lat="42.7374280" lon="-8.6615580">
        <ele>10.6</ele>
        <time>2022-06-19T08:38:42Z</time>
      </trkpt>
      <trkpt lat="42.7374610" lon="-8.6615500">
        <ele>10.6</ele>
        <time>2022-06-19T08:38:43Z</time>
      </trkpt>
      <trkpt lat="42.7374850" lon="-8.6615530">
        <ele>10.6</ele>
        <time>2022-06-19T08:38:44Z</time>
      </trkpt>
      <trkpt lat="42.7375060" lon="-8.6615600">
        <ele>10.6</ele>
        <time>2022-06-19T08:38:45Z</time>
      </trkpt>
      <trkpt lat="42.7375260" lon="-8.6615660">
        <ele>10.6</ele>
        <time>2022-06-19T08:38:46Z</time>
      </trkpt>
      <trkpt lat="42.7375500" lon="-8.6615730">
        <ele>10.6</ele>
        <time>2022-06-19T08:38:47Z</time>
      </trkpt>
      <trkpt lat="42.7375560" lon="-8.6615800">
        <ele>10.2</ele>
        <time>2022-06-19T08:38:48Z</time>
      </trkpt>
      <trkpt lat="42.7375760" lon="-8.6615900">
        <ele>10.2</ele>
        <time>2022-06-19T08:38:49Z</time>
      </trkpt>
      <trkpt lat="42.7375980" lon="-8.6615950">
        <ele>10.2</ele>
        <time>2022-06-19T08:38:50Z</time>
      </trkpt>
      <trkpt lat="42.7376280" lon="-8.6616060">
        <ele>11.0</ele>
        <time>2022-06-19T08:38:51Z</time>
      </trkpt>
      <trkpt lat="42.7376530" lon="-8.6616260">
        <ele>10.6</ele>
        <time>2022-06-19T08:38:52Z</time>
      </trkpt>
      <trkpt lat="42.7376850" lon="-8.6616400">
        <ele>10.6</ele>
        <time>2022-06-19T08:38:53Z</time>
      </trkpt>
      <trkpt lat="42.7377150" lon="-8.6616500">
        <ele>10.6</ele>
        <time>2022-06-19T08:38:54Z</time>
      </trkpt>
      <trkpt lat="42.7377380" lon="-8.6616600">
        <ele>10.6</ele>
        <time>2022-06-19T08:38:55Z</time>
      </trkpt>
      <trkpt lat="42.7377480" lon="-8.6616730">
        <ele>10.2</ele>
        <time>2022-06-19T08:38:56Z</time>
      </trkpt>
      <trkpt lat="42.7377710" lon="-8.6616800">
        <ele>10.2</ele>
        <time>2022-06-19T08:38:57Z</time>
      </trkpt>
      <trkpt lat="42.7377960" lon="-8.6616930">
        <ele>10.2</ele>
        <time>2022-06-19T08:38:58Z</time>
      </trkpt>
      <trkpt lat="42.7378360" lon="-8.6616810">
        <ele>10.2</ele>
        <time>2022-06-19T08:38:59Z</time>
      </trkpt>
      <trkpt lat="42.7378750" lon="-8.6616200">
        <ele>10.8</ele>
        <time>2022-06-19T08:39:00Z</time>
      </trkpt>
      <trkpt lat="42.7379100" lon="-8.6616080">
        <ele>10.8</ele>
        <time>2022-06-19T08:39:01Z</time>
      </trkpt>
      <trkpt lat="42.7379530" lon="-8.6615750">
        <ele>10.8</ele>
        <time>2022-06-19T08:39:02Z</time>
      </trkpt>
      <trkpt lat="42.7379680" lon="-8.6615850">
        <ele>10.8</ele>
        <time>2022-06-19T08:39:03Z</time>
      </trkpt>
      <trkpt lat="42.7380010" lon="-8.6615800">
        <ele>10.8</ele>
        <time>2022-06-19T08:39:04Z</time>
      </trkpt>
      <trkpt lat="42.7380250" lon="-8.6615880">
        <ele>10.8</ele>
        <time>2022-06-19T08:39:05Z</time>
      </trkpt>
      <trkpt lat="42.7380530" lon="-8.6615900">
        <ele>10.8</ele>
        <time>2022-06-19T08:39:06Z</time>
      </trkpt>
      <trkpt lat="42.7380780" lon="-8.6616000">
        <ele>10.4</ele>
        <time>2022-06-19T08:39:07Z</time>
      </trkpt>
      <trkpt lat="42.7381160" lon="-8.6615980">
        <ele>10.2</ele>
        <time>2022-06-19T08:39:08Z</time>
      </trkpt>
      <trkpt lat="42.7381500" lon="-8.6615980">
        <ele>10.2</ele>
        <time>2022-06-19T08:39:09Z</time>
      </trkpt>
      <trkpt lat="42.7381850" lon="-8.6616050">
        <ele>10.2</ele>
        <time>2022-06-19T08:39:10Z</time>
      </trkpt>
      <trkpt lat="42.7382200" lon="-8.6616030">
        <ele>10.2</ele>
        <time>2022-06-19T08:39:11Z</time>
      </trkpt>
      <trkpt lat="42.7382410" lon="-8.6616100">
        <ele>10.2</ele>
        <time>2022-06-19T08:39:12Z</time>
      </trkpt>
      <trkpt lat="42.7382660" lon="-8.6616080">
        <ele>10.2</ele>
        <time>2022-06-19T08:39:13Z</time>
      </trkpt>
      <trkpt lat="42.7382860" lon="-8.6616060">
        <ele>10.2</ele>
        <time>2022-06-19T08:39:14Z</time>
      </trkpt>
      <trkpt lat="42.7383150" lon="-8.6616160">
        <ele>10.2</ele>
        <time>2022-06-19T08:39:15Z</time>
      </trkpt>
      <trkpt lat="42.7383480" lon="-8.6616280">
        <ele>11.2</ele>
        <time>2022-06-19T08:39:16Z</time>
      </trkpt>
      <trkpt lat="42.7383780" lon="-8.6616400">
        <ele>11.2</ele>
        <time>2022-06-19T08:39:17Z</time>
      </trkpt>
      <trkpt lat="42.7384200" lon="-8.6616430">
        <ele>11.2</ele>
        <time>2022-06-19T08:39:18Z</time>
      </trkpt>
      <trkpt lat="42.7384480" lon="-8.6616500">
        <ele>10.6</ele>
        <time>2022-06-19T08:39:19Z</time>
      </trkpt>
      <trkpt lat="42.7384860" lon="-8.6616450">
        <ele>10.8</ele>
        <time>2022-06-19T08:39:20Z</time>
      </trkpt>
      <trkpt lat="42.7385230" lon="-8.6616450">
        <ele>10.8</ele>
        <time>2022-06-19T08:39:21Z</time>
      </trkpt>
      <trkpt lat="42.7385510" lon="-8.6616410">
        <ele>10.8</ele>
        <time>2022-06-19T08:39:22Z</time>
      </trkpt>
      <trkpt lat="42.7385750" lon="-8.6616430">
        <ele>10.8</ele>
        <time>2022-06-19T08:39:23Z</time>
      </trkpt>
      <trkpt lat="42.7386010" lon="-8.6616450">
        <ele>10.6</ele>
        <time>2022-06-19T08:39:24Z</time>
      </trkpt>
      <trkpt lat="42.7386210" lon="-8.6616510">
        <ele>10.6</ele>
        <time>2022-06-19T08:39:25Z</time>
      </trkpt>
      <trkpt lat="42.7386450" lon="-8.6616580">
        <ele>10.6</ele>
        <time>2022-06-19T08:39:26Z</time>
      </trkpt>
      <trkpt lat="42.7386750" lon="-8.6616850">
        <ele>10.6</ele>
        <time>2022-06-19T08:39:27Z</time>
      </trkpt>
      <trkpt lat="42.7387180" lon="-8.6617000">
        <ele>10.2</ele>
        <time>2022-06-19T08:39:28Z</time>
      </trkpt>
      <trkpt lat="42.7387460" lon="-8.6617110">
        <ele>10.2</ele>
        <time>2022-06-19T08:39:29Z</time>
      </trkpt>
      <trkpt lat="42.7387700" lon="-8.6617180">
        <ele>10.2</ele>
        <time>2022-06-19T08:39:30Z</time>
      </trkpt>
      <trkpt lat="42.7387950" lon="-8.6617110">
        <ele>10.2</ele>
        <time>2022-06-19T08:39:31Z</time>
      </trkpt>
      <trkpt lat="42.7388310" lon="-8.6616910">
        <ele>10.6</ele>
        <time>2022-06-19T08:39:32Z</time>
      </trkpt>
      <trkpt lat="42.7388800" lon="-8.6616560">
        <ele>10.6</ele>
        <time>2022-06-19T08:39:33Z</time>
      </trkpt>
      <trkpt lat="42.7389230" lon="-8.6616250">
        <ele>10.6</ele>
        <time>2022-06-19T08:39:34Z</time>
      </trkpt>
      <trkpt lat="42.7389450" lon="-8.6615760">
        <ele>10.6</ele>
        <time>2022-06-19T08:39:35Z</time>
      </trkpt>
      <trkpt lat="42.7389950" lon="-8.6615230">
        <ele>11.6</ele>
        <time>2022-06-19T08:39:36Z</time>
      </trkpt>
      <trkpt lat="42.7390210" lon="-8.6614950">
        <ele>11.6</ele>
        <time>2022-06-19T08:39:37Z</time>
      </trkpt>
      <trkpt lat="42.7390450" lon="-8.6614780">
        <ele>11.6</ele>
        <time>2022-06-19T08:39:38Z</time>
      </trkpt>
      <trkpt lat="42.7390700" lon="-8.6614710">
        <ele>11.2</ele>
        <time>2022-06-19T08:39:39Z</time>
      </trkpt>
      <trkpt lat="42.7390960" lon="-8.6614630">
        <ele>10.8</ele>
        <time>2022-06-19T08:39:40Z</time>
      </trkpt>
      <trkpt lat="42.7391310" lon="-8.6614500">
        <ele>10.8</ele>
        <time>2022-06-19T08:39:41Z</time>
      </trkpt>
      <trkpt lat="42.7391630" lon="-8.6614410">
        <ele>10.8</ele>
        <time>2022-06-19T08:39:42Z</time>
      </trkpt>
      <trkpt lat="42.7391900" lon="-8.6614300">
        <ele>11.6</ele>
        <time>2022-06-19T08:39:43Z</time>
      </trkpt>
      <trkpt lat="42.7392160" lon="-8.6614180">
        <ele>11.4</ele>
        <time>2022-06-19T08:39:44Z</time>
      </trkpt>
      <trkpt lat="42.7392380" lon="-8.6614110">
        <ele>11.4</ele>
        <time>2022-06-19T08:39:45Z</time>
      </trkpt>
      <trkpt lat="42.7392650" lon="-8.6614110">
        <ele>11.4</ele>
        <time>2022-06-19T08:39:46Z</time>
      </trkpt>
      <trkpt lat="42.7392880" lon="-8.6614100">
        <ele>10.6</ele>
        <time>2022-06-19T08:39:47Z</time>
      </trkpt>
      <trkpt lat="42.7393050" lon="-8.6614110">
        <ele>10.8</ele>
        <time>2022-06-19T08:39:48Z</time>
      </trkpt>
      <trkpt lat="42.7393260" lon="-8.6614150">
        <ele>10.8</ele>
        <time>2022-06-19T08:39:49Z</time>
      </trkpt>
      <trkpt lat="42.7393460" lon="-8.6614180">
        <ele>10.8</ele>
        <time>2022-06-19T08:39:50Z</time>
      </trkpt>
      <trkpt lat="42.7393660" lon="-8.6614160">
        <ele>10.8</ele>
        <time>2022-06-19T08:39:51Z</time>
      </trkpt>
      <trkpt lat="42.7393860" lon="-8.6614130">
        <ele>11.2</ele>
        <time>2022-06-19T08:39:52Z</time>
      </trkpt>
      <trkpt lat="42.7393930" lon="-8.6614100">
        <ele>11.2</ele>
        <time>2022-06-19T08:39:53Z</time>
      </trkpt>
      <trkpt lat="42.7394110" lon="-8.6614200">
        <ele>11.2</ele>
        <time>2022-06-19T08:39:54Z</time>
      </trkpt>
      <trkpt lat="42.7394350" lon="-8.6614260">
        <ele>11.2</ele>
        <time>2022-06-19T08:39:55Z</time>
      </trkpt>
      <trkpt lat="42.7394580" lon="-8.6614210">
        <ele>11.4</ele>
        <time>2022-06-19T08:39:56Z</time>
      </trkpt>
      <trkpt lat="42.7394780" lon="-8.6614200">
        <ele>11.4</ele>
        <time>2022-06-19T08:39:57Z</time>
      </trkpt>
      <trkpt lat="42.7394950" lon="-8.6614250">
        <ele>11.4</ele>
        <time>2022-06-19T08:39:58Z</time>
      </trkpt>
      <trkpt lat="42.7395160" lon="-8.6614200">
        <ele>11.2</ele>
        <time>2022-06-19T08:39:59Z</time>
      </trkpt>
      <trkpt lat="42.7395500" lon="-8.6614100">
        <ele>11.2</ele>
        <time>2022-06-19T08:40:00Z</time>
      </trkpt>
      <trkpt lat="42.7395760" lon="-8.6614130">
        <ele>11.2</ele>
        <time>2022-06-19T08:40:01Z</time>
      </trkpt>
      <trkpt lat="42.7396050" lon="-8.6614110">
        <ele>11.2</ele>
        <time>2022-06-19T08:40:02Z</time>
      </trkpt>
      <trkpt lat="42.7396260" lon="-8.6614060">
        <ele>11.2</ele>
        <time>2022-06-19T08:40:03Z</time>
      </trkpt>
      <trkpt lat="42.7396480" lon="-8.6613930">
        <ele>11.4</ele>
        <time>2022-06-19T08:40:04Z</time>
      </trkpt>
      <trkpt lat="42.7396650" lon="-8.6613710">
        <ele>11.4</ele>
        <time>2022-06-19T08:40:05Z</time>
      </trkpt>
      <trkpt lat="42.7396780" lon="-8.6613300">
        <ele>11.4</ele>
        <time>2022-06-19T08:40:06Z</time>
      </trkpt>
      <trkpt lat="42.7396850" lon="-8.6612910">
        <ele>11.4</ele>
        <time>2022-06-19T08:40:07Z</time>
      </trkpt>
      <trkpt lat="42.7396900" lon="-8.6612550">
        <ele>11.6</ele>
        <time>2022-06-19T08:40:08Z</time>
      </trkpt>
      <trkpt lat="42.7396960" lon="-8.6612160">
        <ele>11.6</ele>
        <time>2022-06-19T08:40:09Z</time>
      </trkpt>
      <trkpt lat="42.7397080" lon="-8.6611810">
        <ele>11.6</ele>
        <time>2022-06-19T08:40:10Z</time>
      </trkpt>
      <trkpt lat="42.7397150" lon="-8.6611580">
        <ele>11.6</ele>
        <time>2022-06-19T08:40:11Z</time>
      </trkpt>
      <trkpt lat="42.7397180" lon="-8.6611380">
        <ele>11.6</ele>
        <time>2022-06-19T08:40:12Z</time>
      </trkpt>
      <trkpt lat="42.7397260" lon="-8.6611280">
        <ele>11.6</ele>
        <time>2022-06-19T08:40:13Z</time>
      </trkpt>
      <trkpt lat="42.7397230" lon="-8.6611160">
        <ele>11.6</ele>
        <time>2022-06-19T08:40:14Z</time>
      </trkpt>
      <trkpt lat="42.7397160" lon="-8.6610860">
        <ele>11.6</ele>
        <time>2022-06-19T08:40:15Z</time>
      </trkpt>
      <trkpt lat="42.7397150" lon="-8.6610580">
        <ele>10.8</ele>
        <time>2022-06-19T08:40:16Z</time>
      </trkpt>
      <trkpt lat="42.7397130" lon="-8.6610280">
        <ele>10.8</ele>
        <time>2022-06-19T08:40:17Z</time>
      </trkpt>
      <trkpt lat="42.7397160" lon="-8.6610010">
        <ele>10.8</ele>
        <time>2022-06-19T08:40:18Z</time>
      </trkpt>
      <trkpt lat="42.7397280" lon="-8.6609550">
        <ele>10.8</ele>
        <time>2022-06-19T08:40:19Z</time>
      </trkpt>
      <trkpt lat="42.7397400" lon="-8.6609150">
        <ele>12.0</ele>
        <time>2022-06-19T08:40:20Z</time>
      </trkpt>
      <trkpt lat="42.7397530" lon="-8.6608660">
        <ele>12.0</ele>
        <time>2022-06-19T08:40:21Z</time>
      </trkpt>
      <trkpt lat="42.7397600" lon="-8.6608350">
        <ele>12.0</ele>
        <time>2022-06-19T08:40:22Z</time>
      </trkpt>
      <trkpt lat="42.7397750" lon="-8.6608010">
        <ele>12.0</ele>
        <time>2022-06-19T08:40:23Z</time>
      </trkpt>
      <trkpt lat="42.7397960" lon="-8.6607650">
        <ele>11.8</ele>
        <time>2022-06-19T08:40:24Z</time>
      </trkpt>
      <trkpt lat="42.7398160" lon="-8.6607400">
        <ele>11.8</ele>
        <time>2022-06-19T08:40:25Z</time>
      </trkpt>
      <trkpt lat="42.7398460" lon="-8.6607080">
        <ele>11.8</ele>
        <time>2022-06-19T08:40:26Z</time>
      </trkpt>
      <trkpt lat="42.7398760" lon="-8.6606780">
        <ele>10.8</ele>
        <time>2022-06-19T08:40:27Z</time>
      </trkpt>
      <trkpt lat="42.7399030" lon="-8.6606550">
        <ele>10.2</ele>
        <time>2022-06-19T08:40:28Z</time>
      </trkpt>
      <trkpt lat="42.7399300" lon="-8.6606280">
        <ele>10.2</ele>
        <time>2022-06-19T08:40:29Z</time>
      </trkpt>
      <trkpt lat="42.7399510" lon="-8.6606030">
        <ele>10.2</ele>
        <time>2022-06-19T08:40:30Z</time>
      </trkpt>
      <trkpt lat="42.7399580" lon="-8.6605760">
        <ele>10.2</ele>
        <time>2022-06-19T08:40:31Z</time>
      </trkpt>
      <trkpt lat="42.7399530" lon="-8.6605580">
        <ele>10.0</ele>
        <time>2022-06-19T08:40:32Z</time>
      </trkpt>
      <trkpt lat="42.7399360" lon="-8.6605350">
        <ele>10.0</ele>
        <time>2022-06-19T08:40:33Z</time>
      </trkpt>
      <trkpt lat="42.7399230" lon="-8.6605110">
        <ele>10.0</ele>
        <time>2022-06-19T08:40:34Z</time>
      </trkpt>
      <trkpt lat="42.7399180" lon="-8.6604760">
        <ele>10.0</ele>
        <time>2022-06-19T08:40:35Z</time>
      </trkpt>
      <trkpt lat="42.7399150" lon="-8.6604410">
        <ele>10.2</ele>
        <time>2022-06-19T08:40:36Z</time>
      </trkpt>
      <trkpt lat="42.7399060" lon="-8.6604160">
        <ele>10.2</ele>
        <time>2022-06-19T08:40:37Z</time>
      </trkpt>
      <trkpt lat="42.7399000" lon="-8.6603930">
        <ele>10.2</ele>
        <time>2022-06-19T08:40:38Z</time>
      </trkpt>
      <trkpt lat="42.7398960" lon="-8.6603680">
        <ele>10.4</ele>
        <time>2022-06-19T08:40:39Z</time>
      </trkpt>
      <trkpt lat="42.7399160" lon="-8.6603310">
        <ele>9.6</ele>
        <time>2022-06-19T08:40:40Z</time>
      </trkpt>
      <trkpt lat="42.7399400" lon="-8.6603060">
        <ele>9.6</ele>
        <time>2022-06-19T08:40:41Z</time>
      </trkpt>
      <trkpt lat="42.7399730" lon="-8.6602950">
        <ele>9.6</ele>
        <time>2022-06-19T08:40:42Z</time>
      </trkpt>
      <trkpt lat="42.7400130" lon="-8.6602800">
        <ele>9.6</ele>
        <time>2022-06-19T08:40:43Z</time>
      </trkpt>
      <trkpt lat="42.7400460" lon="-8.6602660">
        <ele>10.4</ele>
        <time>2022-06-19T08:40:44Z</time>
      </trkpt>
      <trkpt lat="42.7400850" lon="-8.6602480">
        <ele>10.4</ele>
        <time>2022-06-19T08:40:45Z</time>
      </trkpt>
      <trkpt lat="42.7401210" lon="-8.6602310">
        <ele>10.4</ele>
        <time>2022-06-19T08:40:46Z</time>
      </trkpt>
      <trkpt lat="42.7401530" lon="-8.6602150">
        <ele>10.4</ele>
        <time>2022-06-19T08:40:47Z</time>
      </trkpt>
      <trkpt lat="42.7401780" lon="-8.6602000">
        <ele>9.4</ele>
        <time>2022-06-19T08:40:48Z</time>
      </trkpt>
      <trkpt lat="42.7402030" lon="-8.6601900">
        <ele>9.4</ele>
        <time>2022-06-19T08:40:49Z</time>
      </trkpt>
      <trkpt lat="42.7402330" lon="-8.6601830">
        <ele>9.4</ele>
        <time>2022-06-19T08:40:50Z</time>
      </trkpt>
      <trkpt lat="42.7402630" lon="-8.6601700">
        <ele>9.4</ele>
        <time>2022-06-19T08:40:51Z</time>
      </trkpt>
      <trkpt lat="42.7402880" lon="-8.6601550">
        <ele>10.4</ele>
        <time>2022-06-19T08:40:52Z</time>
      </trkpt>
      <trkpt lat="42.7403130" lon="-8.6601330">
        <ele>10.4</ele>
        <time>2022-06-19T08:40:53Z</time>
      </trkpt>
      <trkpt lat="42.7403410" lon="-8.6601060">
        <ele>10.4</ele>
        <time>2022-06-19T08:40:54Z</time>
      </trkpt>
      <trkpt lat="42.7403650" lon="-8.6600750">
        <ele>10.4</ele>
        <time>2022-06-19T08:40:55Z</time>
      </trkpt>
      <trkpt lat="42.7403910" lon="-8.6600460">
        <ele>10.6</ele>
        <time>2022-06-19T08:40:56Z</time>
      </trkpt>
      <trkpt lat="42.7404210" lon="-8.6600200">
        <ele>10.6</ele>
        <time>2022-06-19T08:40:57Z</time>
      </trkpt>
      <trkpt lat="42.7404510" lon="-8.6600010">
        <ele>10.6</ele>
        <time>2022-06-19T08:40:58Z</time>
      </trkpt>
      <trkpt lat="42.7404830" lon="-8.6599850">
        <ele>10.0</ele>
        <time>2022-06-19T08:40:59Z</time>
      </trkpt>
      <trkpt lat="42.7405110" lon="-8.6599560">
        <ele>9.6</ele>
        <time>2022-06-19T08:41:00Z</time>
      </trkpt>
      <trkpt lat="42.7405430" lon="-8.6599350">
        <ele>9.6</ele>
        <time>2022-06-19T08:41:01Z</time>
      </trkpt>
      <trkpt lat="42.7405760" lon="-8.6599130">
        <ele>9.6</ele>
        <time>2022-06-19T08:41:02Z</time>
      </trkpt>
      <trkpt lat="42.7406060" lon="-8.6598880">
        <ele>9.6</ele>
        <time>2022-06-19T08:41:03Z</time>
      </trkpt>
      <trkpt lat="42.7406410" lon="-8.6598680">
        <ele>9.6</ele>
        <time>2022-06-19T08:41:04Z</time>
      </trkpt>
      <trkpt lat="42.7406760" lon="-8.6598430">
        <ele>9.6</ele>
        <time>2022-06-19T08:41:05Z</time>
      </trkpt>
      <trkpt lat="42.7407080" lon="-8.6598160">
        <ele>9.6</ele>
        <time>2022-06-19T08:41:06Z</time>
      </trkpt>
      <trkpt lat="42.7407380" lon="-8.6597900">
        <ele>9.6</ele>
        <time>2022-06-19T08:41:07Z</time>
      </trkpt>
      <trkpt lat="42.7407700" lon="-8.6597650">
        <ele>9.6</ele>
        <time>2022-06-19T08:41:08Z</time>
      </trkpt>
      <trkpt lat="42.7408030" lon="-8.6597400">
        <ele>9.6</ele>
        <time>2022-06-19T08:41:09Z</time>
      </trkpt>
      <trkpt lat="42.7408350" lon="-8.6597160">
        <ele>9.6</ele>
        <time>2022-06-19T08:41:10Z</time>
      </trkpt>
      <trkpt lat="42.7408650" lon="-8.6596930">
        <ele>9.6</ele>
        <time>2022-06-19T08:41:11Z</time>
      </trkpt>
      <trkpt lat="42.7408930" lon="-8.6596680">
        <ele>9.6</ele>
        <time>2022-06-19T08:41:12Z</time>
      </trkpt>
      <trkpt lat="42.7409210" lon="-8.6596450">
        <ele>9.6</ele>
        <time>2022-06-19T08:41:13Z</time>
      </trkpt>
      <trkpt lat="42.7409550" lon="-8.6596210">
        <ele>9.6</ele>
        <time>2022-06-19T08:41:14Z</time>
      </trkpt>
      <trkpt lat="42.7409860" lon="-8.6596000">
        <ele>9.6</ele>
        <time>2022-06-19T08:41:15Z</time>
      </trkpt>
      <trkpt lat="42.7410160" lon="-8.6595810">
        <ele>9.8</ele>
        <time>2022-06-19T08:41:16Z</time>
      </trkpt>
      <trkpt lat="42.7410480" lon="-8.6595680">
        <ele>9.8</ele>
        <time>2022-06-19T08:41:17Z</time>
      </trkpt>
      <trkpt lat="42.7410800" lon="-8.6595550">
        <ele>9.8</ele>
        <time>2022-06-19T08:41:18Z</time>
      </trkpt>
      <trkpt lat="42.7411150" lon="-8.6595360">
        <ele>9.8</ele>
        <time>2022-06-19T08:41:19Z</time>
      </trkpt>
      <trkpt lat="42.7411500" lon="-8.6595150">
        <ele>10.0</ele>
        <time>2022-06-19T08:41:20Z</time>
      </trkpt>
      <trkpt lat="42.7411830" lon="-8.6594950">
        <ele>10.0</ele>
        <time>2022-06-19T08:41:21Z</time>
      </trkpt>
      <trkpt lat="42.7412150" lon="-8.6594760">
        <ele>10.0</ele>
        <time>2022-06-19T08:41:22Z</time>
      </trkpt>
      <trkpt lat="42.7412450" lon="-8.6594630">
        <ele>10.0</ele>
        <time>2022-06-19T08:41:23Z</time>
      </trkpt>
      <trkpt lat="42.7412750" lon="-8.6594510">
        <ele>9.8</ele>
        <time>2022-06-19T08:41:24Z</time>
      </trkpt>
      <trkpt lat="42.7413050" lon="-8.6594410">
        <ele>9.8</ele>
        <time>2022-06-19T08:41:25Z</time>
      </trkpt>
      <trkpt lat="42.7413310" lon="-8.6594330">
        <ele>9.8</ele>
        <time>2022-06-19T08:41:26Z</time>
      </trkpt>
      <trkpt lat="42.7413530" lon="-8.6594250">
        <ele>9.8</ele>
        <time>2022-06-19T08:41:27Z</time>
      </trkpt>
      <trkpt lat="42.7413700" lon="-8.6594210">
        <ele>10.0</ele>
        <time>2022-06-19T08:41:28Z</time>
      </trkpt>
      <trkpt lat="42.7413830" lon="-8.6594160">
        <ele>10.0</ele>
        <time>2022-06-19T08:41:29Z</time>
      </trkpt>
      <trkpt lat="42.7413980" lon="-8.6594110">
        <ele>10.0</ele>
        <time>2022-06-19T08:41:30Z</time>
      </trkpt>
      <trkpt lat="42.7414130" lon="-8.6594050">
        <ele>10.0</ele>
        <time>2022-06-19T08:41:31Z</time>
      </trkpt>
      <trkpt lat="42.7414300" lon="-8.6593960">
        <ele>10.2</ele>
        <time>2022-06-19T08:41:32Z</time>
      </trkpt>
      <trkpt lat="42.7414430" lon="-8.6593930">
        <ele>10.2</ele>
        <time>2022-06-19T08:41:33Z</time>
      </trkpt>
      <trkpt lat="42.7414630" lon="-8.6593910">
        <ele>10.2</ele>
        <time>2022-06-19T08:41:34Z</time>
      </trkpt>
      <trkpt lat="42.7414810" lon="-8.6593880">
        <ele>10.2</ele>
        <time>2022-06-19T08:41:35Z</time>
      </trkpt>
      <trkpt lat="42.7415000" lon="-8.6593860">
        <ele>10.2</ele>
        <time>2022-06-19T08:41:36Z</time>
      </trkpt>
      <trkpt lat="42.7415150" lon="-8.6593810">
        <ele>10.2</ele>
        <time>2022-06-19T08:41:37Z</time>
      </trkpt>
      <trkpt lat="42.7415310" lon="-8.6593730">
        <ele>10.2</ele>
        <time>2022-06-19T08:41:38Z</time>
      </trkpt>
      <trkpt lat="42.7415510" lon="-8.6593610">
        <ele>10.2</ele>
        <time>2022-06-19T08:41:39Z</time>
      </trkpt>
      <trkpt lat="42.7415750" lon="-8.6593480">
        <ele>10.2</ele>
        <time>2022-06-19T08:41:40Z</time>
      </trkpt>
      <trkpt lat="42.7416030" lon="-8.6593330">
        <ele>10.2</ele>
        <time>2022-06-19T08:41:41Z</time>
      </trkpt>
      <trkpt lat="42.7416310" lon="-8.6593160">
        <ele>10.2</ele>
        <time>2022-06-19T08:41:42Z</time>
      </trkpt>
      <trkpt lat="42.7416580" lon="-8.6593030">
        <ele>10.0</ele>
        <time>2022-06-19T08:41:43Z</time>
      </trkpt>
      <trkpt lat="42.7416850" lon="-8.6592930">
        <ele>10.2</ele>
        <time>2022-06-19T08:41:44Z</time>
      </trkpt>
      <trkpt lat="42.7417100" lon="-8.6592810">
        <ele>10.2</ele>
        <time>2022-06-19T08:41:45Z</time>
      </trkpt>
      <trkpt lat="42.7417330" lon="-8.6592730">
        <ele>10.2</ele>
        <time>2022-06-19T08:41:46Z</time>
      </trkpt>
      <trkpt lat="42.7417560" lon="-8.6592610">
        <ele>10.0</ele>
        <time>2022-06-19T08:41:47Z</time>
      </trkpt>
      <trkpt lat="42.7417850" lon="-8.6592430">
        <ele>9.8</ele>
        <time>2022-06-19T08:41:48Z</time>
      </trkpt>
      <trkpt lat="42.7418150" lon="-8.6592180">
        <ele>9.8</ele>
        <time>2022-06-19T08:41:49Z</time>
      </trkpt>
      <trkpt lat="42.7418430" lon="-8.6591860">
        <ele>9.8</ele>
        <time>2022-06-19T08:41:50Z</time>
      </trkpt>
      <trkpt lat="42.7418730" lon="-8.6591560">
        <ele>9.6</ele>
        <time>2022-06-19T08:41:51Z</time>
      </trkpt>
      <trkpt lat="42.7419010" lon="-8.6591260">
        <ele>9.6</ele>
        <time>2022-06-19T08:41:52Z</time>
      </trkpt>
      <trkpt lat="42.7419280" lon="-8.6590950">
        <ele>9.6</ele>
        <time>2022-06-19T08:41:53Z</time>
      </trkpt>
      <trkpt lat="42.7419550" lon="-8.6590610">
        <ele>9.6</ele>
        <time>2022-06-19T08:41:54Z</time>
      </trkpt>
      <trkpt lat="42.7419830" lon="-8.6590260">
        <ele>9.6</ele>
        <time>2022-06-19T08:41:55Z</time>
      </trkpt>
      <trkpt lat="42.7420150" lon="-8.6589930">
        <ele>10.2</ele>
        <time>2022-06-19T08:41:56Z</time>
      </trkpt>
      <trkpt lat="42.7420460" lon="-8.6589630">
        <ele>10.2</ele>
        <time>2022-06-19T08:41:57Z</time>
      </trkpt>
      <trkpt lat="42.7420780" lon="-8.6589360">
        <ele>10.2</ele>
        <time>2022-06-19T08:41:58Z</time>
      </trkpt>
      <trkpt lat="42.7421060" lon="-8.6589100">
        <ele>10.0</ele>
        <time>2022-06-19T08:41:59Z</time>
      </trkpt>
      <trkpt lat="42.7421360" lon="-8.6588800">
        <ele>10.0</ele>
        <time>2022-06-19T08:42:00Z</time>
      </trkpt>
      <trkpt lat="42.7421680" lon="-8.6588500">
        <ele>10.0</ele>
        <time>2022-06-19T08:42:01Z</time>
      </trkpt>
      <trkpt lat="42.7421980" lon="-8.6588180">
        <ele>10.0</ele>
        <time>2022-06-19T08:42:02Z</time>
      </trkpt>
      <trkpt lat="42.7422280" lon="-8.6587900">
        <ele>10.0</ele>
        <time>2022-06-19T08:42:03Z</time>
      </trkpt>
      <trkpt lat="42.7422610" lon="-8.6587580">
        <ele>9.8</ele>
        <time>2022-06-19T08:42:04Z</time>
      </trkpt>
      <trkpt lat="42.7422950" lon="-8.6587280">
        <ele>9.8</ele>
        <time>2022-06-19T08:42:05Z</time>
      </trkpt>
      <trkpt lat="42.7423280" lon="-8.6586980">
        <ele>9.8</ele>
        <time>2022-06-19T08:42:06Z</time>
      </trkpt>
      <trkpt lat="42.7423610" lon="-8.6586680">
        <ele>9.8</ele>
        <time>2022-06-19T08:42:07Z</time>
      </trkpt>
      <trkpt lat="42.7423950" lon="-8.6586400">
        <ele>10.0</ele>
        <time>2022-06-19T08:42:08Z</time>
      </trkpt>
      <trkpt lat="42.7424280" lon="-8.6586100">
        <ele>10.0</ele>
        <time>2022-06-19T08:42:09Z</time>
      </trkpt>
      <trkpt lat="42.7424600" lon="-8.6585760">
        <ele>10.0</ele>
        <time>2022-06-19T08:42:10Z</time>
      </trkpt>
      <trkpt lat="42.7424910" lon="-8.6585500">
        <ele>10.6</ele>
        <time>2022-06-19T08:42:11Z</time>
      </trkpt>
      <trkpt lat="42.7425210" lon="-8.6585300">
        <ele>11.2</ele>
        <time>2022-06-19T08:42:12Z</time>
      </trkpt>
      <trkpt lat="42.7425500" lon="-8.6585080">
        <ele>11.2</ele>
        <time>2022-06-19T08:42:13Z</time>
      </trkpt>
      <trkpt lat="42.7425780" lon="-8.6584860">
        <ele>11.2</ele>
        <time>2022-06-19T08:42:14Z</time>
      </trkpt>
      <trkpt lat="42.7426100" lon="-8.6584650">
        <ele>10.8</ele>
        <time>2022-06-19T08:42:15Z</time>
      </trkpt>
      <trkpt lat="42.7426380" lon="-8.6584430">
        <ele>11.2</ele>
        <time>2022-06-19T08:42:16Z</time>
      </trkpt>
      <trkpt lat="42.7426650" lon="-8.6584230">
        <ele>11.2</ele>
        <time>2022-06-19T08:42:17Z</time>
      </trkpt>
      <trkpt lat="42.7426910" lon="-8.6584030">
        <ele>11.2</ele>
        <time>2022-06-19T08:42:18Z</time>
      </trkpt>
      <trkpt lat="42.7427210" lon="-8.6583830">
        <ele>10.8</ele>
        <time>2022-06-19T08:42:19Z</time>
      </trkpt>
      <trkpt lat="42.7427530" lon="-8.6583560">
        <ele>10.8</ele>
        <time>2022-06-19T08:42:20Z</time>
      </trkpt>
      <trkpt lat="42.7427910" lon="-8.6583360">
        <ele>10.8</ele>
        <time>2022-06-19T08:42:21Z</time>
      </trkpt>
      <trkpt lat="42.7428250" lon="-8.6583080">
        <ele>10.8</ele>
        <time>2022-06-19T08:42:22Z</time>
      </trkpt>
      <trkpt lat="42.7428560" lon="-8.6582730">
        <ele>10.8</ele>
        <time>2022-06-19T08:42:23Z</time>
      </trkpt>
      <trkpt lat="42.7428880" lon="-8.6582310">
        <ele>10.2</ele>
        <time>2022-06-19T08:42:24Z</time>
      </trkpt>
      <trkpt lat="42.7429200" lon="-8.6581980">
        <ele>10.2</ele>
        <time>2022-06-19T08:42:25Z</time>
      </trkpt>
      <trkpt lat="42.7429510" lon="-8.6581580">
        <ele>10.2</ele>
        <time>2022-06-19T08:42:26Z</time>
      </trkpt>
      <trkpt lat="42.7429830" lon="-8.6581210">
        <ele>10.2</ele>
        <time>2022-06-19T08:42:27Z</time>
      </trkpt>
      <trkpt lat="42.7430150" lon="-8.6580830">
        <ele>10.4</ele>
        <time>2022-06-19T08:42:28Z</time>
      </trkpt>
      <trkpt lat="42.7430460" lon="-8.6580450">
        <ele>10.4</ele>
        <time>2022-06-19T08:42:29Z</time>
      </trkpt>
      <trkpt lat="42.7430730" lon="-8.6580050">
        <ele>10.4</ele>
        <time>2022-06-19T08:42:30Z</time>
      </trkpt>
      <trkpt lat="42.7431010" lon="-8.6579660">
        <ele>10.4</ele>
        <time>2022-06-19T08:42:31Z</time>
      </trkpt>
      <trkpt lat="42.7431300" lon="-8.6579310">
        <ele>10.6</ele>
        <time>2022-06-19T08:42:32Z</time>
      </trkpt>
      <trkpt lat="42.7431580" lon="-8.6578930">
        <ele>10.6</ele>
        <time>2022-06-19T08:42:33Z</time>
      </trkpt>
      <trkpt lat="42.7431860" lon="-8.6578510">
        <ele>10.6</ele>
        <time>2022-06-19T08:42:34Z</time>
      </trkpt>
      <trkpt lat="42.7432160" lon="-8.6578080">
        <ele>10.0</ele>
        <time>2022-06-19T08:42:35Z</time>
      </trkpt>
      <trkpt lat="42.7432460" lon="-8.6577660">
        <ele>9.8</ele>
        <time>2022-06-19T08:42:36Z</time>
      </trkpt>
      <trkpt lat="42.7432780" lon="-8.6577280">
        <ele>9.8</ele>
        <time>2022-06-19T08:42:37Z</time>
      </trkpt>
      <trkpt lat="42.7433110" lon="-8.6576860">
        <ele>9.8</ele>
        <time>2022-06-19T08:42:38Z</time>
      </trkpt>
      <trkpt lat="42.7433460" lon="-8.6576430">
        <ele>9.8</ele>
        <time>2022-06-19T08:42:39Z</time>
      </trkpt>
      <trkpt lat="42.7433830" lon="-8.6576010">
        <ele>9.2</ele>
        <time>2022-06-19T08:42:40Z</time>
      </trkpt>
      <trkpt lat="42.7434210" lon="-8.6575650">
        <ele>9.2</ele>
        <time>2022-06-19T08:42:41Z</time>
      </trkpt>
      <trkpt lat="42.7434600" lon="-8.6575330">
        <ele>9.2</ele>
        <time>2022-06-19T08:42:42Z</time>
      </trkpt>
      <trkpt lat="42.7434980" lon="-8.6575080">
        <ele>9.2</ele>
        <time>2022-06-19T08:42:43Z</time>
      </trkpt>
      <trkpt lat="42.7435350" lon="-8.6574850">
        <ele>10.0</ele>
        <time>2022-06-19T08:42:44Z</time>
      </trkpt>
      <trkpt lat="42.7435750" lon="-8.6574660">
        <ele>10.0</ele>
        <time>2022-06-19T08:42:45Z</time>
      </trkpt>
      <trkpt lat="42.7436160" lon="-8.6574460">
        <ele>10.0</ele>
        <time>2022-06-19T08:42:46Z</time>
      </trkpt>
      <trkpt lat="42.7436560" lon="-8.6574260">
        <ele>10.0</ele>
        <time>2022-06-19T08:42:47Z</time>
      </trkpt>
      <trkpt lat="42.7436960" lon="-8.6574030">
        <ele>10.0</ele>
        <time>2022-06-19T08:42:48Z</time>
      </trkpt>
      <trkpt lat="42.7437350" lon="-8.6573780">
        <ele>10.0</ele>
        <time>2022-06-19T08:42:49Z</time>
      </trkpt>
      <trkpt lat="42.7437710" lon="-8.6573580">
        <ele>10.0</ele>
        <time>2022-06-19T08:42:50Z</time>
      </trkpt>
      <trkpt lat="42.7438030" lon="-8.6573430">
        <ele>10.0</ele>
        <time>2022-06-19T08:42:51Z</time>
      </trkpt>
      <trkpt lat="42.7438360" lon="-8.6573310">
        <ele>11.0</ele>
        <time>2022-06-19T08:42:52Z</time>
      </trkpt>
      <trkpt lat="42.7438730" lon="-8.6573210">
        <ele>11.0</ele>
        <time>2022-06-19T08:42:53Z</time>
      </trkpt>
      <trkpt lat="42.7439110" lon="-8.6573210">
        <ele>11.0</ele>
        <time>2022-06-19T08:42:54Z</time>
      </trkpt>
      <trkpt lat="42.7439510" lon="-8.6573060">
        <ele>10.2</ele>
        <time>2022-06-19T08:42:55Z</time>
      </trkpt>
      <trkpt lat="42.7439860" lon="-8.6572930">
        <ele>10.4</ele>
        <time>2022-06-19T08:42:56Z</time>
      </trkpt>
      <trkpt lat="42.7440180" lon="-8.6572800">
        <ele>10.4</ele>
        <time>2022-06-19T08:42:57Z</time>
      </trkpt>
      <trkpt lat="42.7440530" lon="-8.6572600">
        <ele>10.4</ele>
        <time>2022-06-19T08:42:58Z</time>
      </trkpt>
      <trkpt lat="42.7440910" lon="-8.6572400">
        <ele>10.4</ele>
        <time>2022-06-19T08:42:59Z</time>
      </trkpt>
      <trkpt lat="42.7441280" lon="-8.6572180">
        <ele>10.6</ele>
        <time>2022-06-19T08:43:00Z</time>
      </trkpt>
      <trkpt lat="42.7441630" lon="-8.6572050">
        <ele>10.6</ele>
        <time>2022-06-19T08:43:01Z</time>
      </trkpt>
      <trkpt lat="42.7442010" lon="-8.6571880">
        <ele>10.6</ele>
        <time>2022-06-19T08:43:02Z</time>
      </trkpt>
      <trkpt lat="42.7442380" lon="-8.6571710">
        <ele>10.6</ele>
        <time>2022-06-19T08:43:03Z</time>
      </trkpt>
      <trkpt lat="42.7442700" lon="-8.6571630">
        <ele>10.2</ele>
        <time>2022-06-19T08:43:04Z</time>
      </trkpt>
      <trkpt lat="42.7443050" lon="-8.6571410">
        <ele>10.2</ele>
        <time>2022-06-19T08:43:05Z</time>
      </trkpt>
      <trkpt lat="42.7443400" lon="-8.6571080">
        <ele>10.2</ele>
        <time>2022-06-19T08:43:06Z</time>
      </trkpt>
      <trkpt lat="42.7443680" lon="-8.6570680">
        <ele>10.8</ele>
        <time>2022-06-19T08:43:07Z</time>
      </trkpt>
      <trkpt lat="42.7443930" lon="-8.6570230">
        <ele>10.8</ele>
        <time>2022-06-19T08:43:08Z</time>
      </trkpt>
      <trkpt lat="42.7444150" lon="-8.6569760">
        <ele>10.8</ele>
        <time>2022-06-19T08:43:09Z</time>
      </trkpt>
      <trkpt lat="42.7444330" lon="-8.6569280">
        <ele>10.8</ele>
        <time>2022-06-19T08:43:10Z</time>
      </trkpt>
      <trkpt lat="42.7444580" lon="-8.6568780">
        <ele>10.2</ele>
        <time>2022-06-19T08:43:11Z</time>
      </trkpt>
      <trkpt lat="42.7444780" lon="-8.6568260">
        <ele>10.2</ele>
        <time>2022-06-19T08:43:12Z</time>
      </trkpt>
      <trkpt lat="42.7445000" lon="-8.6567780">
        <ele>10.2</ele>
        <time>2022-06-19T08:43:13Z</time>
      </trkpt>
      <trkpt lat="42.7445180" lon="-8.6567260">
        <ele>10.2</ele>
        <time>2022-06-19T08:43:14Z</time>
      </trkpt>
      <trkpt lat="42.7445360" lon="-8.6566760">
        <ele>10.6</ele>
        <time>2022-06-19T08:43:15Z</time>
      </trkpt>
      <trkpt lat="42.7445560" lon="-8.6566360">
        <ele>10.6</ele>
        <time>2022-06-19T08:43:16Z</time>
      </trkpt>
      <trkpt lat="42.7445750" lon="-8.6565950">
        <ele>10.6</ele>
        <time>2022-06-19T08:43:17Z</time>
      </trkpt>
      <trkpt lat="42.7445900" lon="-8.6565600">
        <ele>10.6</ele>
        <time>2022-06-19T08:43:18Z</time>
      </trkpt>
      <trkpt lat="42.7446030" lon="-8.6565300">
        <ele>11.6</ele>
        <time>2022-06-19T08:43:19Z</time>
      </trkpt>
      <trkpt lat="42.7446150" lon="-8.6565100">
        <ele>12.0</ele>
        <time>2022-06-19T08:43:20Z</time>
      </trkpt>
      <trkpt lat="42.7446260" lon="-8.6564880">
        <ele>12.0</ele>
        <time>2022-06-19T08:43:21Z</time>
      </trkpt>
      <trkpt lat="42.7446380" lon="-8.6564730">
        <ele>12.0</ele>
        <time>2022-06-19T08:43:22Z</time>
      </trkpt>
      <trkpt lat="42.7446530" lon="-8.6564600">
        <ele>12.0</ele>
        <time>2022-06-19T08:43:23Z</time>
      </trkpt>
      <trkpt lat="42.7446680" lon="-8.6564460">
        <ele>12.2</ele>
        <time>2022-06-19T08:43:24Z</time>
      </trkpt>
      <trkpt lat="42.7446800" lon="-8.6564330">
        <ele>12.2</ele>
        <time>2022-06-19T08:43:25Z</time>
      </trkpt>
      <trkpt lat="42.7446930" lon="-8.6564230">
        <ele>12.2</ele>
        <time>2022-06-19T08:43:26Z</time>
      </trkpt>
      <trkpt lat="42.7447000" lon="-8.6564210">
        <ele>13.0</ele>
        <time>2022-06-19T08:43:27Z</time>
      </trkpt>
      <trkpt lat="42.7447000" lon="-8.6564210">
        <ele>13.0</ele>
        <time>2022-06-19T08:43:28Z</time>
      </trkpt>
      <trkpt lat="42.7447130" lon="-8.6563660">
        <ele>12.8</ele>
        <time>2022-06-19T08:43:32Z</time>
      </trkpt>
      <trkpt lat="42.7447160" lon="-8.6563430">
        <ele>12.8</ele>
        <time>2022-06-19T08:43:33Z</time>
      </trkpt>
      <trkpt lat="42.7447260" lon="-8.6563200">
        <ele>12.8</ele>
        <time>2022-06-19T08:43:34Z</time>
      </trkpt>
      <trkpt lat="42.7447400" lon="-8.6562960">
        <ele>12.6</ele>
        <time>2022-06-19T08:43:35Z</time>
      </trkpt>
      <trkpt lat="42.7447550" lon="-8.6562710">
        <ele>12.6</ele>
        <time>2022-06-19T08:43:36Z</time>
      </trkpt>
      <trkpt lat="42.7447660" lon="-8.6562450">
        <ele>12.6</ele>
        <time>2022-06-19T08:43:37Z</time>
      </trkpt>
      <trkpt lat="42.7447760" lon="-8.6562110">
        <ele>12.6</ele>
        <time>2022-06-19T08:43:38Z</time>
      </trkpt>
      <trkpt lat="42.7447860" lon="-8.6561760">
        <ele>12.6</ele>
        <time>2022-06-19T08:43:39Z</time>
      </trkpt>
      <trkpt lat="42.7447980" lon="-8.6561410">
        <ele>12.0</ele>
        <time>2022-06-19T08:43:40Z</time>
      </trkpt>
      <trkpt lat="42.7448130" lon="-8.6561100">
        <ele>12.0</ele>
        <time>2022-06-19T08:43:41Z</time>
      </trkpt>
      <trkpt lat="42.7448280" lon="-8.6560760">
        <ele>12.0</ele>
        <time>2022-06-19T08:43:42Z</time>
      </trkpt>
      <trkpt lat="42.7448450" lon="-8.6560400">
        <ele>12.0</ele>
        <time>2022-06-19T08:43:43Z</time>
      </trkpt>
      <trkpt lat="42.7448630" lon="-8.6560030">
        <ele>12.0</ele>
        <time>2022-06-19T08:43:44Z</time>
      </trkpt>
      <trkpt lat="42.7448830" lon="-8.6559680">
        <ele>12.0</ele>
        <time>2022-06-19T08:43:45Z</time>
      </trkpt>
      <trkpt lat="42.7449050" lon="-8.6559330">
        <ele>12.0</ele>
        <time>2022-06-19T08:43:46Z</time>
      </trkpt>
      <trkpt lat="42.7449260" lon="-8.6559000">
        <ele>12.0</ele>
        <time>2022-06-19T08:43:47Z</time>
      </trkpt>
      <trkpt lat="42.7449510" lon="-8.6558660">
        <ele>12.0</ele>
        <time>2022-06-19T08:43:48Z</time>
      </trkpt>
      <trkpt lat="42.7449760" lon="-8.6558310">
        <ele>12.0</ele>
        <time>2022-06-19T08:43:49Z</time>
      </trkpt>
      <trkpt lat="42.7450030" lon="-8.6558010">
        <ele>12.0</ele>
        <time>2022-06-19T08:43:50Z</time>
      </trkpt>
      <trkpt lat="42.7450280" lon="-8.6557710">
        <ele>12.0</ele>
        <time>2022-06-19T08:43:51Z</time>
      </trkpt>
      <trkpt lat="42.7450510" lon="-8.6557410">
        <ele>12.2</ele>
        <time>2022-06-19T08:43:52Z</time>
      </trkpt>
      <trkpt lat="42.7450730" lon="-8.6557080">
        <ele>12.2</ele>
        <time>2022-06-19T08:43:53Z</time>
      </trkpt>
      <trkpt lat="42.7450950" lon="-8.6556730">
        <ele>12.2</ele>
        <time>2022-06-19T08:43:54Z</time>
      </trkpt>
      <trkpt lat="42.7451130" lon="-8.6556380">
        <ele>12.2</ele>
        <time>2022-06-19T08:43:55Z</time>
      </trkpt>
      <trkpt lat="42.7451330" lon="-8.6556050">
        <ele>12.6</ele>
        <time>2022-06-19T08:43:56Z</time>
      </trkpt>
      <trkpt lat="42.7451500" lon="-8.6555710">
        <ele>12.6</ele>
        <time>2022-06-19T08:43:57Z</time>
      </trkpt>
      <trkpt lat="42.7451660" lon="-8.6555350">
        <ele>12.6</ele>
        <time>2022-06-19T08:43:58Z</time>
      </trkpt>
      <trkpt lat="42.7451810" lon="-8.6554980">
        <ele>12.6</ele>
        <time>2022-06-19T08:43:59Z</time>
      </trkpt>
      <trkpt lat="42.7451960" lon="-8.6554630">
        <ele>12.8</ele>
        <time>2022-06-19T08:44:00Z</time>
      </trkpt>
      <trkpt lat="42.7452110" lon="-8.6554310">
        <ele>12.8</ele>
        <time>2022-06-19T08:44:01Z</time>
      </trkpt>
      <trkpt lat="42.7452260" lon="-8.6554030">
        <ele>12.8</ele>
        <time>2022-06-19T08:44:02Z</time>
      </trkpt>
      <trkpt lat="42.7452430" lon="-8.6553750">
        <ele>12.8</ele>
        <time>2022-06-19T08:44:03Z</time>
      </trkpt>
      <trkpt lat="42.7452600" lon="-8.6553480">
        <ele>13.8</ele>
        <time>2022-06-19T08:44:04Z</time>
      </trkpt>
      <trkpt lat="42.7452750" lon="-8.6553210">
        <ele>13.8</ele>
        <time>2022-06-19T08:44:05Z</time>
      </trkpt>
      <trkpt lat="42.7452910" lon="-8.6552950">
        <ele>13.8</ele>
        <time>2022-06-19T08:44:06Z</time>
      </trkpt>
      <trkpt lat="42.7453100" lon="-8.6552700">
        <ele>13.8</ele>
        <time>2022-06-19T08:44:07Z</time>
      </trkpt>
      <trkpt lat="42.7453280" lon="-8.6552410">
        <ele>13.6</ele>
        <time>2022-06-19T08:44:08Z</time>
      </trkpt>
      <trkpt lat="42.7453460" lon="-8.6552130">
        <ele>13.6</ele>
        <time>2022-06-19T08:44:09Z</time>
      </trkpt>
      <trkpt lat="42.7453650" lon="-8.6551860">
        <ele>13.6</ele>
        <time>2022-06-19T08:44:10Z</time>
      </trkpt>
      <trkpt lat="42.7453830" lon="-8.6551630">
        <ele>13.6</ele>
        <time>2022-06-19T08:44:11Z</time>
      </trkpt>
      <trkpt lat="42.7454000" lon="-8.6551380">
        <ele>13.8</ele>
        <time>2022-06-19T08:44:12Z</time>
      </trkpt>
      <trkpt lat="42.7454150" lon="-8.6551110">
        <ele>13.8</ele>
        <time>2022-06-19T08:44:13Z</time>
      </trkpt>
      <trkpt lat="42.7454310" lon="-8.6550800">
        <ele>13.8</ele>
        <time>2022-06-19T08:44:14Z</time>
      </trkpt>
      <trkpt lat="42.7454460" lon="-8.6550510">
        <ele>13.8</ele>
        <time>2022-06-19T08:44:15Z</time>
      </trkpt>
      <trkpt lat="42.7454610" lon="-8.6550210">
        <ele>13.8</ele>
        <time>2022-06-19T08:44:16Z</time>
      </trkpt>
      <trkpt lat="42.7454730" lon="-8.6549860">
        <ele>13.8</ele>
        <time>2022-06-19T08:44:17Z</time>
      </trkpt>
      <trkpt lat="42.7454830" lon="-8.6549500">
        <ele>13.8</ele>
        <time>2022-06-19T08:44:18Z</time>
      </trkpt>
      <trkpt lat="42.7454960" lon="-8.6549110">
        <ele>13.8</ele>
        <time>2022-06-19T08:44:19Z</time>
      </trkpt>
      <trkpt lat="42.7455050" lon="-8.6548750">
        <ele>13.8</ele>
        <time>2022-06-19T08:44:20Z</time>
      </trkpt>
      <trkpt lat="42.7455150" lon="-8.6548380">
        <ele>13.8</ele>
        <time>2022-06-19T08:44:21Z</time>
      </trkpt>
      <trkpt lat="42.7455230" lon="-8.6548030">
        <ele>13.8</ele>
        <time>2022-06-19T08:44:22Z</time>
      </trkpt>
      <trkpt lat="42.7455350" lon="-8.6547700">
        <ele>13.8</ele>
        <time>2022-06-19T08:44:23Z</time>
      </trkpt>
      <trkpt lat="42.7455450" lon="-8.6547330">
        <ele>14.2</ele>
        <time>2022-06-19T08:44:24Z</time>
      </trkpt>
      <trkpt lat="42.7455560" lon="-8.6547010">
        <ele>14.2</ele>
        <time>2022-06-19T08:44:25Z</time>
      </trkpt>
      <trkpt lat="42.7455680" lon="-8.6546730">
        <ele>14.2</ele>
        <time>2022-06-19T08:44:26Z</time>
      </trkpt>
      <trkpt lat="42.7455800" lon="-8.6546450">
        <ele>14.2</ele>
        <time>2022-06-19T08:44:27Z</time>
      </trkpt>
      <trkpt lat="42.7455860" lon="-8.6546130">
        <ele>14.0</ele>
        <time>2022-06-19T08:44:28Z</time>
      </trkpt>
      <trkpt lat="42.7455900" lon="-8.6545760">
        <ele>14.0</ele>
        <time>2022-06-19T08:44:29Z</time>
      </trkpt>
      <trkpt lat="42.7455910" lon="-8.6545400">
        <ele>14.0</ele>
        <time>2022-06-19T08:44:30Z</time>
      </trkpt>
      <trkpt lat="42.7455930" lon="-8.6545010">
        <ele>14.0</ele>
        <time>2022-06-19T08:44:31Z</time>
      </trkpt>
      <trkpt lat="42.7455930" lon="-8.6544580">
        <ele>13.2</ele>
        <time>2022-06-19T08:44:32Z</time>
      </trkpt>
      <trkpt lat="42.7455930" lon="-8.6544110">
        <ele>13.2</ele>
        <time>2022-06-19T08:44:33Z</time>
      </trkpt>
      <trkpt lat="42.7455980" lon="-8.6543560">
        <ele>13.2</ele>
        <time>2022-06-19T08:44:34Z</time>
      </trkpt>
      <trkpt lat="42.7456030" lon="-8.6542930">
        <ele>13.2</ele>
        <time>2022-06-19T08:44:35Z</time>
      </trkpt>
      <trkpt lat="42.7456060" lon="-8.6542210">
        <ele>10.8</ele>
        <time>2022-06-19T08:44:36Z</time>
      </trkpt>
      <trkpt lat="42.7456130" lon="-8.6541400">
        <ele>10.8</ele>
        <time>2022-06-19T08:44:37Z</time>
      </trkpt>
      <trkpt lat="42.7456230" lon="-8.6540530">
        <ele>10.8</ele>
        <time>2022-06-19T08:44:38Z</time>
      </trkpt>
      <trkpt lat="42.7456310" lon="-8.6539630">
        <ele>9.8</ele>
        <time>2022-06-19T08:44:39Z</time>
      </trkpt>
      <trkpt lat="42.7456550" lon="-8.6538780">
        <ele>8.4</ele>
        <time>2022-06-19T08:44:40Z</time>
      </trkpt>
      <trkpt lat="42.7456810" lon="-8.6538100">
        <ele>8.4</ele>
        <time>2022-06-19T08:44:41Z</time>
      </trkpt>
      <trkpt lat="42.7457080" lon="-8.6537550">
        <ele>8.4</ele>
        <time>2022-06-19T08:44:42Z</time>
      </trkpt>
      <trkpt lat="42.7457300" lon="-8.6537130">
        <ele>9.4</ele>
        <time>2022-06-19T08:44:43Z</time>
      </trkpt>
      <trkpt lat="42.7457480" lon="-8.6536750">
        <ele>13.2</ele>
        <time>2022-06-19T08:44:44Z</time>
      </trkpt>
      <trkpt lat="42.7457650" lon="-8.6536460">
        <ele>13.2</ele>
        <time>2022-06-19T08:44:45Z</time>
      </trkpt>
      <trkpt lat="42.7457780" lon="-8.6536230">
        <ele>13.2</ele>
        <time>2022-06-19T08:44:46Z</time>
      </trkpt>
      <trkpt lat="42.7457950" lon="-8.6536050">
        <ele>14.2</ele>
        <time>2022-06-19T08:44:47Z</time>
      </trkpt>
      <trkpt lat="42.7458110" lon="-8.6535830">
        <ele>14.4</ele>
        <time>2022-06-19T08:44:48Z</time>
      </trkpt>
      <trkpt lat="42.7458260" lon="-8.6535610">
        <ele>14.4</ele>
        <time>2022-06-19T08:44:49Z</time>
      </trkpt>
      <trkpt lat="42.7458410" lon="-8.6535410">
        <ele>14.4</ele>
        <time>2022-06-19T08:44:50Z</time>
      </trkpt>
      <trkpt lat="42.7458560" lon="-8.6535150">
        <ele>14.4</ele>
        <time>2022-06-19T08:44:51Z</time>
      </trkpt>
      <trkpt lat="42.7458700" lon="-8.6534910">
        <ele>15.6</ele>
        <time>2022-06-19T08:44:52Z</time>
      </trkpt>
      <trkpt lat="42.7458860" lon="-8.6534710">
        <ele>15.6</ele>
        <time>2022-06-19T08:44:53Z</time>
      </trkpt>
      <trkpt lat="42.7459050" lon="-8.6534530">
        <ele>15.6</ele>
        <time>2022-06-19T08:44:54Z</time>
      </trkpt>
      <trkpt lat="42.7459210" lon="-8.6534350">
        <ele>15.6</ele>
        <time>2022-06-19T08:44:55Z</time>
      </trkpt>
      <trkpt lat="42.7459360" lon="-8.6534130">
        <ele>16.4</ele>
        <time>2022-06-19T08:44:56Z</time>
      </trkpt>
      <trkpt lat="42.7459510" lon="-8.6533930">
        <ele>16.4</ele>
        <time>2022-06-19T08:44:57Z</time>
      </trkpt>
      <trkpt lat="42.7459660" lon="-8.6533780">
        <ele>16.4</ele>
        <time>2022-06-19T08:44:58Z</time>
      </trkpt>
      <trkpt lat="42.7459810" lon="-8.6533580">
        <ele>16.4</ele>
        <time>2022-06-19T08:44:59Z</time>
      </trkpt>
      <trkpt lat="42.7459960" lon="-8.6533410">
        <ele>16.8</ele>
        <time>2022-06-19T08:45:00Z</time>
      </trkpt>
      <trkpt lat="42.7460100" lon="-8.6533250">
        <ele>16.8</ele>
        <time>2022-06-19T08:45:01Z</time>
      </trkpt>
      <trkpt lat="42.7460250" lon="-8.6533100">
        <ele>16.8</ele>
        <time>2022-06-19T08:45:02Z</time>
      </trkpt>
      <trkpt lat="42.7460450" lon="-8.6532960">
        <ele>16.6</ele>
        <time>2022-06-19T08:45:03Z</time>
      </trkpt>
      <trkpt lat="42.7460660" lon="-8.6532850">
        <ele>17.0</ele>
        <time>2022-06-19T08:45:04Z</time>
      </trkpt>
      <trkpt lat="42.7460850" lon="-8.6532700">
        <ele>17.0</ele>
        <time>2022-06-19T08:45:05Z</time>
      </trkpt>
      <trkpt lat="42.7461060" lon="-8.6532510">
        <ele>17.0</ele>
        <time>2022-06-19T08:45:06Z</time>
      </trkpt>
      <trkpt lat="42.7461280" lon="-8.6532310">
        <ele>17.0</ele>
        <time>2022-06-19T08:45:07Z</time>
      </trkpt>
      <trkpt lat="42.7461460" lon="-8.6532130">
        <ele>17.4</ele>
        <time>2022-06-19T08:45:08Z</time>
      </trkpt>
      <trkpt lat="42.7461650" lon="-8.6531960">
        <ele>17.4</ele>
        <time>2022-06-19T08:45:09Z</time>
      </trkpt>
      <trkpt lat="42.7461850" lon="-8.6531800">
        <ele>17.4</ele>
        <time>2022-06-19T08:45:10Z</time>
      </trkpt>
      <trkpt lat="42.7462050" lon="-8.6531650">
        <ele>17.4</ele>
        <time>2022-06-19T08:45:11Z</time>
      </trkpt>
      <trkpt lat="42.7462280" lon="-8.6531500">
        <ele>17.4</ele>
        <time>2022-06-19T08:45:12Z</time>
      </trkpt>
      <trkpt lat="42.7462480" lon="-8.6531380">
        <ele>17.4</ele>
        <time>2022-06-19T08:45:13Z</time>
      </trkpt>
      <trkpt lat="42.7462710" lon="-8.6531280">
        <ele>17.4</ele>
        <time>2022-06-19T08:45:14Z</time>
      </trkpt>
      <trkpt lat="42.7462930" lon="-8.6531160">
        <ele>17.4</ele>
        <time>2022-06-19T08:45:15Z</time>
      </trkpt>
      <trkpt lat="42.7463180" lon="-8.6531030">
        <ele>18.0</ele>
        <time>2022-06-19T08:45:16Z</time>
      </trkpt>
      <trkpt lat="42.7463400" lon="-8.6530900">
        <ele>18.0</ele>
        <time>2022-06-19T08:45:17Z</time>
      </trkpt>
      <trkpt lat="42.7463610" lon="-8.6530780">
        <ele>18.0</ele>
        <time>2022-06-19T08:45:18Z</time>
      </trkpt>
      <trkpt lat="42.7463830" lon="-8.6530630">
        <ele>18.0</ele>
        <time>2022-06-19T08:45:19Z</time>
      </trkpt>
      <trkpt lat="42.7464050" lon="-8.6530500">
        <ele>18.2</ele>
        <time>2022-06-19T08:45:20Z</time>
      </trkpt>
      <trkpt lat="42.7464260" lon="-8.6530360">
        <ele>18.2</ele>
        <time>2022-06-19T08:45:21Z</time>
      </trkpt>
      <trkpt lat="42.7464460" lon="-8.6530210">
        <ele>18.2</ele>
        <time>2022-06-19T08:45:22Z</time>
      </trkpt>
      <trkpt lat="42.7464610" lon="-8.6530030">
        <ele>18.6</ele>
        <time>2022-06-19T08:45:23Z</time>
      </trkpt>
      <trkpt lat="42.7464780" lon="-8.6529850">
        <ele>19.0</ele>
        <time>2022-06-19T08:45:24Z</time>
      </trkpt>
      <trkpt lat="42.7464960" lon="-8.6529680">
        <ele>19.0</ele>
        <time>2022-06-19T08:45:25Z</time>
      </trkpt>
      <trkpt lat="42.7465160" lon="-8.6529530">
        <ele>19.0</ele>
        <time>2022-06-19T08:45:26Z</time>
      </trkpt>
      <trkpt lat="42.7465360" lon="-8.6529400">
        <ele>19.0</ele>
        <time>2022-06-19T08:45:27Z</time>
      </trkpt>
      <trkpt lat="42.7465610" lon="-8.6529260">
        <ele>18.6</ele>
        <time>2022-06-19T08:45:28Z</time>
      </trkpt>
      <trkpt lat="42.7465850" lon="-8.6529150">
        <ele>18.6</ele>
        <time>2022-06-19T08:45:29Z</time>
      </trkpt>
      <trkpt lat="42.7466000" lon="-8.6529080">
        <ele>18.6</ele>
        <time>2022-06-19T08:45:30Z</time>
      </trkpt>
      <trkpt lat="42.7466180" lon="-8.6529010">
        <ele>19.6</ele>
        <time>2022-06-19T08:45:31Z</time>
      </trkpt>
      <trkpt lat="42.7466400" lon="-8.6528960">
        <ele>20.6</ele>
        <time>2022-06-19T08:45:32Z</time>
      </trkpt>
      <trkpt lat="42.7466610" lon="-8.6528900">
        <ele>20.6</ele>
        <time>2022-06-19T08:45:33Z</time>
      </trkpt>
      <trkpt lat="42.7466810" lon="-8.6528800">
        <ele>20.6</ele>
        <time>2022-06-19T08:45:34Z</time>
      </trkpt>
      <trkpt lat="42.7467000" lon="-8.6528680">
        <ele>20.6</ele>
        <time>2022-06-19T08:45:35Z</time>
      </trkpt>
      <trkpt lat="42.7467180" lon="-8.6528510">
        <ele>20.2</ele>
        <time>2022-06-19T08:45:36Z</time>
      </trkpt>
      <trkpt lat="42.7467360" lon="-8.6528330">
        <ele>20.2</ele>
        <time>2022-06-19T08:45:37Z</time>
      </trkpt>
      <trkpt lat="42.7467580" lon="-8.6528150">
        <ele>20.2</ele>
        <time>2022-06-19T08:45:38Z</time>
      </trkpt>
      <trkpt lat="42.7467830" lon="-8.6527980">
        <ele>20.2</ele>
        <time>2022-06-19T08:45:39Z</time>
      </trkpt>
      <trkpt lat="42.7468050" lon="-8.6527830">
        <ele>21.0</ele>
        <time>2022-06-19T08:45:40Z</time>
      </trkpt>
      <trkpt lat="42.7468310" lon="-8.6527730">
        <ele>21.0</ele>
        <time>2022-06-19T08:45:41Z</time>
      </trkpt>
      <trkpt lat="42.7468600" lon="-8.6527680">
        <ele>21.0</ele>
        <time>2022-06-19T08:45:42Z</time>
      </trkpt>
      <trkpt lat="42.7468900" lon="-8.6527650">
        <ele>20.4</ele>
        <time>2022-06-19T08:45:43Z</time>
      </trkpt>
      <trkpt lat="42.7469210" lon="-8.6527630">
        <ele>20.4</ele>
        <time>2022-06-19T08:45:44Z</time>
      </trkpt>
      <trkpt lat="42.7469500" lon="-8.6527600">
        <ele>20.4</ele>
        <time>2022-06-19T08:45:45Z</time>
      </trkpt>
      <trkpt lat="42.7469760" lon="-8.6527510">
        <ele>20.4</ele>
        <time>2022-06-19T08:45:46Z</time>
      </trkpt>
      <trkpt lat="42.7470060" lon="-8.6527430">
        <ele>20.6</ele>
        <time>2022-06-19T08:45:47Z</time>
      </trkpt>
      <trkpt lat="42.7470330" lon="-8.6527400">
        <ele>20.6</ele>
        <time>2022-06-19T08:45:48Z</time>
      </trkpt>
      <trkpt lat="42.7470610" lon="-8.6527380">
        <ele>20.6</ele>
        <time>2022-06-19T08:45:49Z</time>
      </trkpt>
      <trkpt lat="42.7470860" lon="-8.6527360">
        <ele>20.6</ele>
        <time>2022-06-19T08:45:50Z</time>
      </trkpt>
      <trkpt lat="42.7471180" lon="-8.6527400">
        <ele>20.6</ele>
        <time>2022-06-19T08:45:51Z</time>
      </trkpt>
      <trkpt lat="42.7471480" lon="-8.6527530">
        <ele>20.2</ele>
        <time>2022-06-19T08:45:52Z</time>
      </trkpt>
      <trkpt lat="42.7471800" lon="-8.6527630">
        <ele>20.2</ele>
        <time>2022-06-19T08:45:53Z</time>
      </trkpt>
      <trkpt lat="42.7472100" lon="-8.6527680">
        <ele>20.2</ele>
        <time>2022-06-19T08:45:54Z</time>
      </trkpt>
      <trkpt lat="42.7472430" lon="-8.6527780">
        <ele>20.2</ele>
        <time>2022-06-19T08:45:55Z</time>
      </trkpt>
      <trkpt lat="42.7472750" lon="-8.6527860">
        <ele>20.2</ele>
        <time>2022-06-19T08:45:56Z</time>
      </trkpt>
      <trkpt lat="42.7473050" lon="-8.6527950">
        <ele>20.2</ele>
        <time>2022-06-19T08:45:57Z</time>
      </trkpt>
      <trkpt lat="42.7473400" lon="-8.6528030">
        <ele>20.2</ele>
        <time>2022-06-19T08:45:58Z</time>
      </trkpt>
      <trkpt lat="42.7473730" lon="-8.6528010">
        <ele>20.6</ele>
        <time>2022-06-19T08:45:59Z</time>
      </trkpt>
      <trkpt lat="42.7474060" lon="-8.6528000">
        <ele>20.6</ele>
        <time>2022-06-19T08:46:00Z</time>
      </trkpt>
      <trkpt lat="42.7474400" lon="-8.6527960">
        <ele>20.6</ele>
        <time>2022-06-19T08:46:01Z</time>
      </trkpt>
      <trkpt lat="42.7474730" lon="-8.6527880">
        <ele>20.6</ele>
        <time>2022-06-19T08:46:02Z</time>
      </trkpt>
      <trkpt lat="42.7475080" lon="-8.6527710">
        <ele>20.2</ele>
        <time>2022-06-19T08:46:03Z</time>
      </trkpt>
      <trkpt lat="42.7475450" lon="-8.6527460">
        <ele>20.0</ele>
        <time>2022-06-19T08:46:04Z</time>
      </trkpt>
      <trkpt lat="42.7475810" lon="-8.6527160">
        <ele>20.0</ele>
        <time>2022-06-19T08:46:05Z</time>
      </trkpt>
      <trkpt lat="42.7476230" lon="-8.6526900">
        <ele>20.0</ele>
        <time>2022-06-19T08:46:06Z</time>
      </trkpt>
      <trkpt lat="42.7476660" lon="-8.6526660">
        <ele>19.0</ele>
        <time>2022-06-19T08:46:07Z</time>
      </trkpt>
      <trkpt lat="42.7477050" lon="-8.6526480">
        <ele>18.8</ele>
        <time>2022-06-19T08:46:08Z</time>
      </trkpt>
      <trkpt lat="42.7477400" lon="-8.6526260">
        <ele>18.8</ele>
        <time>2022-06-19T08:46:09Z</time>
      </trkpt>
      <trkpt lat="42.7477680" lon="-8.6526100">
        <ele>18.8</ele>
        <time>2022-06-19T08:46:10Z</time>
      </trkpt>
      <trkpt lat="42.7477960" lon="-8.6525910">
        <ele>19.8</ele>
        <time>2022-06-19T08:46:11Z</time>
      </trkpt>
      <trkpt lat="42.7478230" lon="-8.6525780">
        <ele>20.0</ele>
        <time>2022-06-19T08:46:12Z</time>
      </trkpt>
      <trkpt lat="42.7478460" lon="-8.6525650">
        <ele>20.0</ele>
        <time>2022-06-19T08:46:13Z</time>
      </trkpt>
      <trkpt lat="42.7478710" lon="-8.6525480">
        <ele>20.0</ele>
        <time>2022-06-19T08:46:14Z</time>
      </trkpt>
      <trkpt lat="42.7478980" lon="-8.6525350">
        <ele>20.0</ele>
        <time>2022-06-19T08:46:15Z</time>
      </trkpt>
      <trkpt lat="42.7479230" lon="-8.6525250">
        <ele>20.4</ele>
        <time>2022-06-19T08:46:16Z</time>
      </trkpt>
      <trkpt lat="42.7479500" lon="-8.6525130">
        <ele>20.4</ele>
        <time>2022-06-19T08:46:17Z</time>
      </trkpt>
      <trkpt lat="42.7479710" lon="-8.6525030">
        <ele>20.4</ele>
        <time>2022-06-19T08:46:18Z</time>
      </trkpt>
      <trkpt lat="42.7479950" lon="-8.6524930">
        <ele>20.4</ele>
        <time>2022-06-19T08:46:19Z</time>
      </trkpt>
      <trkpt lat="42.7480150" lon="-8.6524760">
        <ele>21.2</ele>
        <time>2022-06-19T08:46:20Z</time>
      </trkpt>
      <trkpt lat="42.7480360" lon="-8.6524650">
        <ele>21.2</ele>
        <time>2022-06-19T08:46:21Z</time>
      </trkpt>
      <trkpt lat="42.7480550" lon="-8.6524560">
        <ele>21.2</ele>
        <time>2022-06-19T08:46:22Z</time>
      </trkpt>
      <trkpt lat="42.7480730" lon="-8.6524500">
        <ele>21.2</ele>
        <time>2022-06-19T08:46:23Z</time>
      </trkpt>
      <trkpt lat="42.7480860" lon="-8.6524410">
        <ele>21.8</ele>
        <time>2022-06-19T08:46:24Z</time>
      </trkpt>
      <trkpt lat="42.7481010" lon="-8.6524330">
        <ele>21.8</ele>
        <time>2022-06-19T08:46:25Z</time>
      </trkpt>
      <trkpt lat="42.7481150" lon="-8.6524250">
        <ele>21.8</ele>
        <time>2022-06-19T08:46:26Z</time>
      </trkpt>
      <trkpt lat="42.7481280" lon="-8.6524180">
        <ele>21.8</ele>
        <time>2022-06-19T08:46:27Z</time>
      </trkpt>
      <trkpt lat="42.7481430" lon="-8.6524100">
        <ele>22.0</ele>
        <time>2022-06-19T08:46:28Z</time>
      </trkpt>
      <trkpt lat="42.7481580" lon="-8.6523980">
        <ele>22.0</ele>
        <time>2022-06-19T08:46:29Z</time>
      </trkpt>
      <trkpt lat="42.7481710" lon="-8.6523850">
        <ele>22.0</ele>
        <time>2022-06-19T08:46:30Z</time>
      </trkpt>
      <trkpt lat="42.7481850" lon="-8.6523700">
        <ele>22.0</ele>
        <time>2022-06-19T08:46:31Z</time>
      </trkpt>
      <trkpt lat="42.7481960" lon="-8.6523550">
        <ele>22.2</ele>
        <time>2022-06-19T08:46:32Z</time>
      </trkpt>
      <trkpt lat="42.7482110" lon="-8.6523430">
        <ele>22.2</ele>
        <time>2022-06-19T08:46:33Z</time>
      </trkpt>
      <trkpt lat="42.7482260" lon="-8.6523330">
        <ele>22.2</ele>
        <time>2022-06-19T08:46:34Z</time>
      </trkpt>
      <trkpt lat="42.7482410" lon="-8.6523230">
        <ele>22.6</ele>
        <time>2022-06-19T08:46:35Z</time>
      </trkpt>
      <trkpt lat="42.7482580" lon="-8.6523130">
        <ele>23.2</ele>
        <time>2022-06-19T08:46:36Z</time>
      </trkpt>
      <trkpt lat="42.7482730" lon="-8.6523030">
        <ele>23.2</ele>
        <time>2022-06-19T08:46:37Z</time>
      </trkpt>
      <trkpt lat="42.7482880" lon="-8.6522930">
        <ele>23.2</ele>
        <time>2022-06-19T08:46:38Z</time>
      </trkpt>
      <trkpt lat="42.7483030" lon="-8.6522860">
        <ele>23.4</ele>
        <time>2022-06-19T08:46:39Z</time>
      </trkpt>
      <trkpt lat="42.7483200" lon="-8.6522780">
        <ele>23.4</ele>
        <time>2022-06-19T08:46:40Z</time>
      </trkpt>
      <trkpt lat="42.7483350" lon="-8.6522710">
        <ele>23.4</ele>
        <time>2022-06-19T08:46:41Z</time>
      </trkpt>
      <trkpt lat="42.7483510" lon="-8.6522650">
        <ele>23.4</ele>
        <time>2022-06-19T08:46:42Z</time>
      </trkpt>
      <trkpt lat="42.7483650" lon="-8.6522580">
        <ele>23.4</ele>
        <time>2022-06-19T08:46:43Z</time>
      </trkpt>
      <trkpt lat="42.7483780" lon="-8.6522510">
        <ele>24.0</ele>
        <time>2022-06-19T08:46:44Z</time>
      </trkpt>
      <trkpt lat="42.7483900" lon="-8.6522550">
        <ele>24.0</ele>
        <time>2022-06-19T08:46:45Z</time>
      </trkpt>
      <trkpt lat="42.7484050" lon="-8.6522580">
        <ele>24.0</ele>
        <time>2022-06-19T08:46:46Z</time>
      </trkpt>
      <trkpt lat="42.7484210" lon="-8.6522600">
        <ele>24.0</ele>
        <time>2022-06-19T08:46:47Z</time>
      </trkpt>
      <trkpt lat="42.7484380" lon="-8.6522650">
        <ele>24.4</ele>
        <time>2022-06-19T08:46:48Z</time>
      </trkpt>
      <trkpt lat="42.7484560" lon="-8.6522680">
        <ele>24.4</ele>
        <time>2022-06-19T08:46:49Z</time>
      </trkpt>
      <trkpt lat="42.7484730" lon="-8.6522700">
        <ele>24.4</ele>
        <time>2022-06-19T08:46:50Z</time>
      </trkpt>
      <trkpt lat="42.7484900" lon="-8.6522730">
        <ele>25.0</ele>
        <time>2022-06-19T08:46:51Z</time>
      </trkpt>
      <trkpt lat="42.7485080" lon="-8.6522780">
        <ele>25.2</ele>
        <time>2022-06-19T08:46:52Z</time>
      </trkpt>
      <trkpt lat="42.7485230" lon="-8.6522760">
        <ele>25.2</ele>
        <time>2022-06-19T08:46:53Z</time>
      </trkpt>
      <trkpt lat="42.7485380" lon="-8.6522800">
        <ele>25.2</ele>
        <time>2022-06-19T08:46:54Z</time>
      </trkpt>
      <trkpt lat="42.7485560" lon="-8.6522810">
        <ele>25.4</ele>
        <time>2022-06-19T08:46:55Z</time>
      </trkpt>
      <trkpt lat="42.7485730" lon="-8.6522810">
        <ele>25.6</ele>
        <time>2022-06-19T08:46:56Z</time>
      </trkpt>
      <trkpt lat="42.7485880" lon="-8.6522850">
        <ele>25.6</ele>
        <time>2022-06-19T08:46:57Z</time>
      </trkpt>
      <trkpt lat="42.7486050" lon="-8.6522900">
        <ele>25.6</ele>
        <time>2022-06-19T08:46:58Z</time>
      </trkpt>
      <trkpt lat="42.7486230" lon="-8.6522880">
        <ele>26.2</ele>
        <time>2022-06-19T08:46:59Z</time>
      </trkpt>
      <trkpt lat="42.7486410" lon="-8.6522900">
        <ele>26.2</ele>
        <time>2022-06-19T08:47:00Z</time>
      </trkpt>
      <trkpt lat="42.7486600" lon="-8.6522950">
        <ele>26.2</ele>
        <time>2022-06-19T08:47:01Z</time>
      </trkpt>
      <trkpt lat="42.7486800" lon="-8.6522930">
        <ele>26.2</ele>
        <time>2022-06-19T08:47:02Z</time>
      </trkpt>
      <trkpt lat="42.7486980" lon="-8.6522930">
        <ele>26.2</ele>
        <time>2022-06-19T08:47:03Z</time>
      </trkpt>
      <trkpt lat="42.7487150" lon="-8.6522960">
        <ele>26.4</ele>
        <time>2022-06-19T08:47:04Z</time>
      </trkpt>
      <trkpt lat="42.7487300" lon="-8.6522980">
        <ele>26.4</ele>
        <time>2022-06-19T08:47:05Z</time>
      </trkpt>
      <trkpt lat="42.7487450" lon="-8.6523000">
        <ele>26.4</ele>
        <time>2022-06-19T08:47:06Z</time>
      </trkpt>
      <trkpt lat="42.7487610" lon="-8.6522980">
        <ele>26.4</ele>
        <time>2022-06-19T08:47:07Z</time>
      </trkpt>
      <trkpt lat="42.7487760" lon="-8.6523000">
        <ele>26.6</ele>
        <time>2022-06-19T08:47:08Z</time>
      </trkpt>
      <trkpt lat="42.7487880" lon="-8.6523030">
        <ele>26.6</ele>
        <time>2022-06-19T08:47:09Z</time>
      </trkpt>
      <trkpt lat="42.7487980" lon="-8.6523080">
        <ele>26.6</ele>
        <time>2022-06-19T08:47:10Z</time>
      </trkpt>
      <trkpt lat="42.7488080" lon="-8.6523080">
        <ele>26.6</ele>
        <time>2022-06-19T08:47:11Z</time>
      </trkpt>
      <trkpt lat="42.7488200" lon="-8.6523100">
        <ele>26.4</ele>
        <time>2022-06-19T08:47:12Z</time>
      </trkpt>
      <trkpt lat="42.7488310" lon="-8.6523160">
        <ele>26.4</ele>
        <time>2022-06-19T08:47:13Z</time>
      </trkpt>
      <trkpt lat="42.7488430" lon="-8.6523280">
        <ele>26.4</ele>
        <time>2022-06-19T08:47:14Z</time>
      </trkpt>
      <trkpt lat="42.7488530" lon="-8.6523430">
        <ele>26.4</ele>
        <time>2022-06-19T08:47:15Z</time>
      </trkpt>
      <trkpt lat="42.7488600" lon="-8.6523610">
        <ele>26.2</ele>
        <time>2022-06-19T08:47:16Z</time>
      </trkpt>
      <trkpt lat="42.7488660" lon="-8.6523850">
        <ele>26.2</ele>
        <time>2022-06-19T08:47:17Z</time>
      </trkpt>
      <trkpt lat="42.7488710" lon="-8.6524060">
        <ele>26.2</ele>
        <time>2022-06-19T08:47:18Z</time>
      </trkpt>
      <trkpt lat="42.7488710" lon="-8.6524300">
        <ele>25.2</ele>
        <time>2022-06-19T08:47:19Z</time>
      </trkpt>
      <trkpt lat="42.7488730" lon="-8.6524550">
        <ele>24.2</ele>
        <time>2022-06-19T08:47:20Z</time>
      </trkpt>
      <trkpt lat="42.7488760" lon="-8.6524850">
        <ele>24.2</ele>
        <time>2022-06-19T08:47:21Z</time>
      </trkpt>
      <trkpt lat="42.7488780" lon="-8.6525150">
        <ele>24.2</ele>
        <time>2022-06-19T08:47:22Z</time>
      </trkpt>
      <trkpt lat="42.7488800" lon="-8.6525480">
        <ele>23.2</ele>
        <time>2022-06-19T08:47:23Z</time>
      </trkpt>
      <trkpt lat="42.7488800" lon="-8.6525830">
        <ele>22.6</ele>
        <time>2022-06-19T08:47:24Z</time>
      </trkpt>
      <trkpt lat="42.7488810" lon="-8.6526200">
        <ele>22.6</ele>
        <time>2022-06-19T08:47:25Z</time>
      </trkpt>
      <trkpt lat="42.7488810" lon="-8.6526510">
        <ele>22.6</ele>
        <time>2022-06-19T08:47:26Z</time>
      </trkpt>
      <trkpt lat="42.7488780" lon="-8.6526880">
        <ele>21.6</ele>
        <time>2022-06-19T08:47:27Z</time>
      </trkpt>
      <trkpt lat="42.7488760" lon="-8.6527300">
        <ele>21.8</ele>
        <time>2022-06-19T08:47:28Z</time>
      </trkpt>
      <trkpt lat="42.7488800" lon="-8.6527710">
        <ele>21.8</ele>
        <time>2022-06-19T08:47:29Z</time>
      </trkpt>
      <trkpt lat="42.7488810" lon="-8.6528100">
        <ele>21.8</ele>
        <time>2022-06-19T08:47:30Z</time>
      </trkpt>
      <trkpt lat="42.7488760" lon="-8.6528510">
        <ele>20.8</ele>
        <time>2022-06-19T08:47:31Z</time>
      </trkpt>
      <trkpt lat="42.7488780" lon="-8.6528880">
        <ele>20.0</ele>
        <time>2022-06-19T08:47:32Z</time>
      </trkpt>
      <trkpt lat="42.7488780" lon="-8.6529280">
        <ele>20.0</ele>
        <time>2022-06-19T08:47:33Z</time>
      </trkpt>
      <trkpt lat="42.7488780" lon="-8.6529710">
        <ele>20.0</ele>
        <time>2022-06-19T08:47:34Z</time>
      </trkpt>
      <trkpt lat="42.7488810" lon="-8.6530110">
        <ele>20.0</ele>
        <time>2022-06-19T08:47:35Z</time>
      </trkpt>
      <trkpt lat="42.7488810" lon="-8.6530550">
        <ele>19.8</ele>
        <time>2022-06-19T08:47:36Z</time>
      </trkpt>
      <trkpt lat="42.7488830" lon="-8.6531000">
        <ele>19.8</ele>
        <time>2022-06-19T08:47:37Z</time>
      </trkpt>
      <trkpt lat="42.7488800" lon="-8.6531450">
        <ele>19.8</ele>
        <time>2022-06-19T08:47:38Z</time>
      </trkpt>
      <trkpt lat="42.7488800" lon="-8.6531850">
        <ele>18.8</ele>
        <time>2022-06-19T08:47:39Z</time>
      </trkpt>
      <trkpt lat="42.7488810" lon="-8.6532300">
        <ele>18.6</ele>
        <time>2022-06-19T08:47:40Z</time>
      </trkpt>
      <trkpt lat="42.7488810" lon="-8.6532730">
        <ele>18.6</ele>
        <time>2022-06-19T08:47:41Z</time>
      </trkpt>
      <trkpt lat="42.7488830" lon="-8.6533150">
        <ele>18.6</ele>
        <time>2022-06-19T08:47:42Z</time>
      </trkpt>
      <trkpt lat="42.7488830" lon="-8.6533550">
        <ele>18.6</ele>
        <time>2022-06-19T08:47:43Z</time>
      </trkpt>
      <trkpt lat="42.7488810" lon="-8.6533960">
        <ele>18.0</ele>
        <time>2022-06-19T08:47:44Z</time>
      </trkpt>
      <trkpt lat="42.7488850" lon="-8.6534360">
        <ele>18.0</ele>
        <time>2022-06-19T08:47:45Z</time>
      </trkpt>
      <trkpt lat="42.7488930" lon="-8.6534750">
        <ele>18.0</ele>
        <time>2022-06-19T08:47:46Z</time>
      </trkpt>
      <trkpt lat="42.7489060" lon="-8.6535100">
        <ele>18.0</ele>
        <time>2022-06-19T08:47:47Z</time>
      </trkpt>
      <trkpt lat="42.7489200" lon="-8.6535480">
        <ele>17.8</ele>
        <time>2022-06-19T08:47:48Z</time>
      </trkpt>
      <trkpt lat="42.7489280" lon="-8.6535830">
        <ele>17.8</ele>
        <time>2022-06-19T08:47:49Z</time>
      </trkpt>
      <trkpt lat="42.7489310" lon="-8.6536230">
        <ele>17.8</ele>
        <time>2022-06-19T08:47:50Z</time>
      </trkpt>
      <trkpt lat="42.7489350" lon="-8.6536700">
        <ele>16.8</ele>
        <time>2022-06-19T08:47:51Z</time>
      </trkpt>
      <trkpt lat="42.7489360" lon="-8.6537180">
        <ele>16.6</ele>
        <time>2022-06-19T08:47:52Z</time>
      </trkpt>
      <trkpt lat="42.7489350" lon="-8.6537650">
        <ele>16.6</ele>
        <time>2022-06-19T08:47:53Z</time>
      </trkpt>
      <trkpt lat="42.7489280" lon="-8.6538010">
        <ele>16.6</ele>
        <time>2022-06-19T08:47:54Z</time>
      </trkpt>
      <trkpt lat="42.7489260" lon="-8.6538400">
        <ele>16.6</ele>
        <time>2022-06-19T08:47:55Z</time>
      </trkpt>
      <trkpt lat="42.7489280" lon="-8.6538850">
        <ele>16.0</ele>
        <time>2022-06-19T08:47:56Z</time>
      </trkpt>
      <trkpt lat="42.7489300" lon="-8.6539310">
        <ele>16.0</ele>
        <time>2022-06-19T08:47:57Z</time>
      </trkpt>
      <trkpt lat="42.7489280" lon="-8.6539760">
        <ele>16.0</ele>
        <time>2022-06-19T08:47:58Z</time>
      </trkpt>
      <trkpt lat="42.7489260" lon="-8.6540200">
        <ele>16.0</ele>
        <time>2022-06-19T08:47:59Z</time>
      </trkpt>
      <trkpt lat="42.7489250" lon="-8.6540600">
        <ele>16.0</ele>
        <time>2022-06-19T08:48:00Z</time>
      </trkpt>
      <trkpt lat="42.7489200" lon="-8.6541030">
        <ele>16.0</ele>
        <time>2022-06-19T08:48:01Z</time>
      </trkpt>
      <trkpt lat="42.7489160" lon="-8.6541500">
        <ele>16.0</ele>
        <time>2022-06-19T08:48:02Z</time>
      </trkpt>
      <trkpt lat="42.7489160" lon="-8.6541960">
        <ele>15.6</ele>
        <time>2022-06-19T08:48:03Z</time>
      </trkpt>
      <trkpt lat="42.7489150" lon="-8.6542450">
        <ele>15.6</ele>
        <time>2022-06-19T08:48:04Z</time>
      </trkpt>
      <trkpt lat="42.7489110" lon="-8.6542930">
        <ele>15.6</ele>
        <time>2022-06-19T08:48:05Z</time>
      </trkpt>
      <trkpt lat="42.7489110" lon="-8.6543450">
        <ele>15.6</ele>
        <time>2022-06-19T08:48:06Z</time>
      </trkpt>
      <trkpt lat="42.7489150" lon="-8.6543900">
        <ele>15.6</ele>
        <time>2022-06-19T08:48:07Z</time>
      </trkpt>
      <trkpt lat="42.7489230" lon="-8.6544250">
        <ele>15.8</ele>
        <time>2022-06-19T08:48:08Z</time>
      </trkpt>
      <trkpt lat="42.7489380" lon="-8.6544460">
        <ele>15.8</ele>
        <time>2022-06-19T08:48:09Z</time>
      </trkpt>
      <trkpt lat="42.7489580" lon="-8.6544580">
        <ele>15.8</ele>
        <time>2022-06-19T08:48:10Z</time>
      </trkpt>
      <trkpt lat="42.7489810" lon="-8.6544610">
        <ele>15.8</ele>
        <time>2022-06-19T08:48:11Z</time>
      </trkpt>
      <trkpt lat="42.7490050" lon="-8.6544580">
        <ele>15.6</ele>
        <time>2022-06-19T08:48:12Z</time>
      </trkpt>
      <trkpt lat="42.7490260" lon="-8.6544530">
        <ele>15.6</ele>
        <time>2022-06-19T08:48:13Z</time>
      </trkpt>
      <trkpt lat="42.7490480" lon="-8.6544500">
        <ele>15.6</ele>
        <time>2022-06-19T08:48:14Z</time>
      </trkpt>
      <trkpt lat="42.7490730" lon="-8.6544480">
        <ele>16.0</ele>
        <time>2022-06-19T08:48:15Z</time>
      </trkpt>
      <trkpt lat="42.7490980" lon="-8.6544460">
        <ele>15.6</ele>
        <time>2022-06-19T08:48:16Z</time>
      </trkpt>
      <trkpt lat="42.7491210" lon="-8.6544430">
        <ele>15.6</ele>
        <time>2022-06-19T08:48:17Z</time>
      </trkpt>
      <trkpt lat="42.7491460" lon="-8.6544400">
        <ele>15.6</ele>
        <time>2022-06-19T08:48:18Z</time>
      </trkpt>
      <trkpt lat="42.7491680" lon="-8.6544310">
        <ele>15.6</ele>
        <time>2022-06-19T08:48:19Z</time>
      </trkpt>
      <trkpt lat="42.7491900" lon="-8.6544200">
        <ele>16.4</ele>
        <time>2022-06-19T08:48:20Z</time>
      </trkpt>
      <trkpt lat="42.7492110" lon="-8.6544100">
        <ele>16.4</ele>
        <time>2022-06-19T08:48:21Z</time>
      </trkpt>
      <trkpt lat="42.7492330" lon="-8.6544010">
        <ele>16.4</ele>
        <time>2022-06-19T08:48:22Z</time>
      </trkpt>
      <trkpt lat="42.7492510" lon="-8.6543880">
        <ele>16.4</ele>
        <time>2022-06-19T08:48:23Z</time>
      </trkpt>
      <trkpt lat="42.7492680" lon="-8.6543760">
        <ele>16.2</ele>
        <time>2022-06-19T08:48:24Z</time>
      </trkpt>
      <trkpt lat="42.7492860" lon="-8.6543680">
        <ele>16.2</ele>
        <time>2022-06-19T08:48:25Z</time>
      </trkpt>
      <trkpt lat="42.7493050" lon="-8.6543660">
        <ele>16.2</ele>
        <time>2022-06-19T08:48:26Z</time>
      </trkpt>
      <trkpt lat="42.7493260" lon="-8.6543660">
        <ele>16.2</ele>
        <time>2022-06-19T08:48:27Z</time>
      </trkpt>
      <trkpt lat="42.7493480" lon="-8.6543630">
        <ele>16.2</ele>
        <time>2022-06-19T08:48:28Z</time>
      </trkpt>
      <trkpt lat="42.7493730" lon="-8.6543560">
        <ele>16.2</ele>
        <time>2022-06-19T08:48:29Z</time>
      </trkpt>
      <trkpt lat="42.7493950" lon="-8.6543500">
        <ele>16.2</ele>
        <time>2022-06-19T08:48:30Z</time>
      </trkpt>
      <trkpt lat="42.7494180" lon="-8.6543450">
        <ele>16.2</ele>
        <time>2022-06-19T08:48:31Z</time>
      </trkpt>
      <trkpt lat="42.7494400" lon="-8.6543380">
        <ele>16.4</ele>
        <time>2022-06-19T08:48:32Z</time>
      </trkpt>
      <trkpt lat="42.7494630" lon="-8.6543280">
        <ele>16.4</ele>
        <time>2022-06-19T08:48:33Z</time>
      </trkpt>
      <trkpt lat="42.7494860" lon="-8.6543160">
        <ele>16.4</ele>
        <time>2022-06-19T08:48:34Z</time>
      </trkpt>
      <trkpt lat="42.7495080" lon="-8.6543060">
        <ele>16.4</ele>
        <time>2022-06-19T08:48:35Z</time>
      </trkpt>
      <trkpt lat="42.7495300" lon="-8.6542960">
        <ele>16.4</ele>
        <time>2022-06-19T08:48:36Z</time>
      </trkpt>
      <trkpt lat="42.7495530" lon="-8.6542860">
        <ele>16.4</ele>
        <time>2022-06-19T08:48:37Z</time>
      </trkpt>
      <trkpt lat="42.7495750" lon="-8.6542780">
        <ele>16.4</ele>
        <time>2022-06-19T08:48:38Z</time>
      </trkpt>
      <trkpt lat="42.7495950" lon="-8.6542710">
        <ele>17.0</ele>
        <time>2022-06-19T08:48:39Z</time>
      </trkpt>
      <trkpt lat="42.7496160" lon="-8.6542650">
        <ele>16.6</ele>
        <time>2022-06-19T08:48:40Z</time>
      </trkpt>
      <trkpt lat="42.7496400" lon="-8.6542560">
        <ele>16.6</ele>
        <time>2022-06-19T08:48:41Z</time>
      </trkpt>
      <trkpt lat="42.7496610" lon="-8.6542480">
        <ele>16.6</ele>
        <time>2022-06-19T08:48:42Z</time>
      </trkpt>
      <trkpt lat="42.7496830" lon="-8.6542410">
        <ele>17.0</ele>
        <time>2022-06-19T08:48:43Z</time>
      </trkpt>
      <trkpt lat="42.7497060" lon="-8.6542360">
        <ele>17.0</ele>
        <time>2022-06-19T08:48:44Z</time>
      </trkpt>
      <trkpt lat="42.7497280" lon="-8.6542360">
        <ele>17.0</ele>
        <time>2022-06-19T08:48:45Z</time>
      </trkpt>
      <trkpt lat="42.7497480" lon="-8.6542350">
        <ele>17.0</ele>
        <time>2022-06-19T08:48:46Z</time>
      </trkpt>
      <trkpt lat="42.7497710" lon="-8.6542260">
        <ele>17.0</ele>
        <time>2022-06-19T08:48:47Z</time>
      </trkpt>
      <trkpt lat="42.7497910" lon="-8.6542180">
        <ele>16.8</ele>
        <time>2022-06-19T08:48:48Z</time>
      </trkpt>
      <trkpt lat="42.7498130" lon="-8.6542050">
        <ele>16.8</ele>
        <time>2022-06-19T08:48:49Z</time>
      </trkpt>
      <trkpt lat="42.7498300" lon="-8.6541950">
        <ele>16.8</ele>
        <time>2022-06-19T08:48:50Z</time>
      </trkpt>
      <trkpt lat="42.7498500" lon="-8.6541830">
        <ele>16.8</ele>
        <time>2022-06-19T08:48:51Z</time>
      </trkpt>
      <trkpt lat="42.7498730" lon="-8.6541730">
        <ele>17.2</ele>
        <time>2022-06-19T08:48:52Z</time>
      </trkpt>
      <trkpt lat="42.7498960" lon="-8.6541610">
        <ele>17.2</ele>
        <time>2022-06-19T08:48:53Z</time>
      </trkpt>
      <trkpt lat="42.7499200" lon="-8.6541530">
        <ele>17.2</ele>
        <time>2022-06-19T08:48:54Z</time>
      </trkpt>
      <trkpt lat="42.7499430" lon="-8.6541450">
        <ele>17.0</ele>
        <time>2022-06-19T08:48:55Z</time>
      </trkpt>
      <trkpt lat="42.7499650" lon="-8.6541350">
        <ele>17.0</ele>
        <time>2022-06-19T08:48:56Z</time>
      </trkpt>
      <trkpt lat="42.7499900" lon="-8.6541280">
        <ele>17.0</ele>
        <time>2022-06-19T08:48:57Z</time>
      </trkpt>
      <trkpt lat="42.7500160" lon="-8.6541200">
        <ele>17.0</ele>
        <time>2022-06-19T08:48:58Z</time>
      </trkpt>
      <trkpt lat="42.7500400" lon="-8.6541110">
        <ele>17.0</ele>
        <time>2022-06-19T08:48:59Z</time>
      </trkpt>
      <trkpt lat="42.7500630" lon="-8.6541030">
        <ele>17.0</ele>
        <time>2022-06-19T08:49:00Z</time>
      </trkpt>
      <trkpt lat="42.7500850" lon="-8.6540950">
        <ele>17.0</ele>
        <time>2022-06-19T08:49:01Z</time>
      </trkpt>
      <trkpt lat="42.7501060" lon="-8.6540880">
        <ele>17.0</ele>
        <time>2022-06-19T08:49:02Z</time>
      </trkpt>
      <trkpt lat="42.7501300" lon="-8.6540850">
        <ele>17.0</ele>
        <time>2022-06-19T08:49:03Z</time>
      </trkpt>
      <trkpt lat="42.7501550" lon="-8.6540750">
        <ele>16.8</ele>
        <time>2022-06-19T08:49:04Z</time>
      </trkpt>
      <trkpt lat="42.7501800" lon="-8.6540630">
        <ele>16.8</ele>
        <time>2022-06-19T08:49:05Z</time>
      </trkpt>
      <trkpt lat="42.7502050" lon="-8.6540510">
        <ele>16.8</ele>
        <time>2022-06-19T08:49:06Z</time>
      </trkpt>
      <trkpt lat="42.7502300" lon="-8.6540450">
        <ele>17.4</ele>
        <time>2022-06-19T08:49:07Z</time>
      </trkpt>
      <trkpt lat="42.7502550" lon="-8.6540380">
        <ele>17.0</ele>
        <time>2022-06-19T08:49:08Z</time>
      </trkpt>
      <trkpt lat="42.7502760" lon="-8.6540310">
        <ele>17.0</ele>
        <time>2022-06-19T08:49:09Z</time>
      </trkpt>
      <trkpt lat="42.7502980" lon="-8.6540250">
        <ele>17.0</ele>
        <time>2022-06-19T08:49:10Z</time>
      </trkpt>
      <trkpt lat="42.7503200" lon="-8.6540160">
        <ele>17.4</ele>
        <time>2022-06-19T08:49:11Z</time>
      </trkpt>
      <trkpt lat="42.7503430" lon="-8.6540060">
        <ele>17.6</ele>
        <time>2022-06-19T08:49:12Z</time>
      </trkpt>
      <trkpt lat="42.7503650" lon="-8.6539930">
        <ele>17.6</ele>
        <time>2022-06-19T08:49:13Z</time>
      </trkpt>
      <trkpt lat="42.7503860" lon="-8.6539780">
        <ele>17.6</ele>
        <time>2022-06-19T08:49:14Z</time>
      </trkpt>
      <trkpt lat="42.7504100" lon="-8.6539630">
        <ele>17.2</ele>
        <time>2022-06-19T08:49:15Z</time>
      </trkpt>
      <trkpt lat="42.7504360" lon="-8.6539500">
        <ele>17.4</ele>
        <time>2022-06-19T08:49:16Z</time>
      </trkpt>
      <trkpt lat="42.7504600" lon="-8.6539430">
        <ele>17.4</ele>
        <time>2022-06-19T08:49:17Z</time>
      </trkpt>
      <trkpt lat="42.7504850" lon="-8.6539360">
        <ele>17.4</ele>
        <time>2022-06-19T08:49:18Z</time>
      </trkpt>
      <trkpt lat="42.7505110" lon="-8.6539260">
        <ele>17.4</ele>
        <time>2022-06-19T08:49:19Z</time>
      </trkpt>
      <trkpt lat="42.7505380" lon="-8.6539200">
        <ele>17.6</ele>
        <time>2022-06-19T08:49:20Z</time>
      </trkpt>
      <trkpt lat="42.7505650" lon="-8.6539110">
        <ele>17.6</ele>
        <time>2022-06-19T08:49:21Z</time>
      </trkpt>
      <trkpt lat="42.7505910" lon="-8.6539030">
        <ele>17.6</ele>
        <time>2022-06-19T08:49:22Z</time>
      </trkpt>
      <trkpt lat="42.7506160" lon="-8.6538910">
        <ele>17.6</ele>
        <time>2022-06-19T08:49:23Z</time>
      </trkpt>
      <trkpt lat="42.7506410" lon="-8.6538810">
        <ele>17.6</ele>
        <time>2022-06-19T08:49:24Z</time>
      </trkpt>
      <trkpt lat="42.7506660" lon="-8.6538700">
        <ele>17.6</ele>
        <time>2022-06-19T08:49:25Z</time>
      </trkpt>
      <trkpt lat="42.7506930" lon="-8.6538600">
        <ele>17.6</ele>
        <time>2022-06-19T08:49:26Z</time>
      </trkpt>
      <trkpt lat="42.7507200" lon="-8.6538480">
        <ele>17.6</ele>
        <time>2022-06-19T08:49:27Z</time>
      </trkpt>
      <trkpt lat="42.7507450" lon="-8.6538400">
        <ele>17.8</ele>
        <time>2022-06-19T08:49:28Z</time>
      </trkpt>
      <trkpt lat="42.7507730" lon="-8.6538300">
        <ele>17.8</ele>
        <time>2022-06-19T08:49:29Z</time>
      </trkpt>
      <trkpt lat="42.7508010" lon="-8.6538200">
        <ele>17.8</ele>
        <time>2022-06-19T08:49:30Z</time>
      </trkpt>
      <trkpt lat="42.7508300" lon="-8.6538110">
        <ele>17.8</ele>
        <time>2022-06-19T08:49:31Z</time>
      </trkpt>
      <trkpt lat="42.7508580" lon="-8.6538050">
        <ele>17.4</ele>
        <time>2022-06-19T08:49:32Z</time>
      </trkpt>
      <trkpt lat="42.7508850" lon="-8.6537960">
        <ele>17.4</ele>
        <time>2022-06-19T08:49:33Z</time>
      </trkpt>
      <trkpt lat="42.7509110" lon="-8.6537880">
        <ele>17.4</ele>
        <time>2022-06-19T08:49:34Z</time>
      </trkpt>
      <trkpt lat="42.7509380" lon="-8.6537810">
        <ele>17.8</ele>
        <time>2022-06-19T08:49:35Z</time>
      </trkpt>
      <trkpt lat="42.7509630" lon="-8.6537710">
        <ele>18.0</ele>
        <time>2022-06-19T08:49:36Z</time>
      </trkpt>
      <trkpt lat="42.7509880" lon="-8.6537600">
        <ele>18.0</ele>
        <time>2022-06-19T08:49:37Z</time>
      </trkpt>
      <trkpt lat="42.7510130" lon="-8.6537460">
        <ele>18.0</ele>
        <time>2022-06-19T08:49:38Z</time>
      </trkpt>
      <trkpt lat="42.7510400" lon="-8.6537350">
        <ele>18.0</ele>
        <time>2022-06-19T08:49:39Z</time>
      </trkpt>
      <trkpt lat="42.7510700" lon="-8.6537230">
        <ele>18.0</ele>
        <time>2022-06-19T08:49:40Z</time>
      </trkpt>
      <trkpt lat="42.7511010" lon="-8.6537060">
        <ele>18.0</ele>
        <time>2022-06-19T08:49:41Z</time>
      </trkpt>
      <trkpt lat="42.7511330" lon="-8.6536930">
        <ele>18.0</ele>
        <time>2022-06-19T08:49:42Z</time>
      </trkpt>
      <trkpt lat="42.7511630" lon="-8.6536810">
        <ele>18.0</ele>
        <time>2022-06-19T08:49:43Z</time>
      </trkpt>
      <trkpt lat="42.7511910" lon="-8.6536730">
        <ele>18.2</ele>
        <time>2022-06-19T08:49:44Z</time>
      </trkpt>
      <trkpt lat="42.7512200" lon="-8.6536660">
        <ele>18.2</ele>
        <time>2022-06-19T08:49:45Z</time>
      </trkpt>
      <trkpt lat="42.7512450" lon="-8.6536530">
        <ele>18.2</ele>
        <time>2022-06-19T08:49:46Z</time>
      </trkpt>
      <trkpt lat="42.7512710" lon="-8.6536380">
        <ele>18.4</ele>
        <time>2022-06-19T08:49:47Z</time>
      </trkpt>
      <trkpt lat="42.7513000" lon="-8.6536260">
        <ele>18.6</ele>
        <time>2022-06-19T08:49:48Z</time>
      </trkpt>
      <trkpt lat="42.7513260" lon="-8.6536200">
        <ele>18.6</ele>
        <time>2022-06-19T08:49:49Z</time>
      </trkpt>
      <trkpt lat="42.7513530" lon="-8.6536130">
        <ele>18.6</ele>
        <time>2022-06-19T08:49:50Z</time>
      </trkpt>
      <trkpt lat="42.7513780" lon="-8.6536080">
        <ele>18.6</ele>
        <time>2022-06-19T08:49:51Z</time>
      </trkpt>
      <trkpt lat="42.7514050" lon="-8.6535980">
        <ele>18.6</ele>
        <time>2022-06-19T08:49:52Z</time>
      </trkpt>
      <trkpt lat="42.7514310" lon="-8.6535850">
        <ele>18.6</ele>
        <time>2022-06-19T08:49:53Z</time>
      </trkpt>
      <trkpt lat="42.7514560" lon="-8.6535660">
        <ele>18.6</ele>
        <time>2022-06-19T08:49:54Z</time>
      </trkpt>
      <trkpt lat="42.7514810" lon="-8.6535530">
        <ele>19.0</ele>
        <time>2022-06-19T08:49:55Z</time>
      </trkpt>
      <trkpt lat="42.7515060" lon="-8.6535430">
        <ele>19.2</ele>
        <time>2022-06-19T08:49:56Z</time>
      </trkpt>
      <trkpt lat="42.7515310" lon="-8.6535350">
        <ele>19.2</ele>
        <time>2022-06-19T08:49:57Z</time>
      </trkpt>
      <trkpt lat="42.7515550" lon="-8.6535260">
        <ele>19.2</ele>
        <time>2022-06-19T08:49:58Z</time>
      </trkpt>
      <trkpt lat="42.7515780" lon="-8.6535160">
        <ele>19.4</ele>
        <time>2022-06-19T08:49:59Z</time>
      </trkpt>
      <trkpt lat="42.7516010" lon="-8.6535100">
        <ele>19.8</ele>
        <time>2022-06-19T08:50:00Z</time>
      </trkpt>
      <trkpt lat="42.7516260" lon="-8.6535030">
        <ele>19.8</ele>
        <time>2022-06-19T08:50:01Z</time>
      </trkpt>
      <trkpt lat="42.7516480" lon="-8.6534960">
        <ele>19.8</ele>
        <time>2022-06-19T08:50:02Z</time>
      </trkpt>
      <trkpt lat="42.7516730" lon="-8.6534950">
        <ele>19.2</ele>
        <time>2022-06-19T08:50:03Z</time>
      </trkpt>
      <trkpt lat="42.7517030" lon="-8.6534860">
        <ele>19.6</ele>
        <time>2022-06-19T08:50:04Z</time>
      </trkpt>
      <trkpt lat="42.7517330" lon="-8.6534810">
        <ele>19.6</ele>
        <time>2022-06-19T08:50:05Z</time>
      </trkpt>
      <trkpt lat="42.7517630" lon="-8.6534750">
        <ele>19.6</ele>
        <time>2022-06-19T08:50:06Z</time>
      </trkpt>
      <trkpt lat="42.7517950" lon="-8.6534680">
        <ele>19.6</ele>
        <time>2022-06-19T08:50:07Z</time>
      </trkpt>
      <trkpt lat="42.7518280" lon="-8.6534560">
        <ele>19.4</ele>
        <time>2022-06-19T08:50:08Z</time>
      </trkpt>
      <trkpt lat="42.7518610" lon="-8.6534410">
        <ele>19.4</ele>
        <time>2022-06-19T08:50:09Z</time>
      </trkpt>
      <trkpt lat="42.7518930" lon="-8.6534230">
        <ele>19.4</ele>
        <time>2022-06-19T08:50:10Z</time>
      </trkpt>
      <trkpt lat="42.7519260" lon="-8.6534060">
        <ele>19.4</ele>
        <time>2022-06-19T08:50:11Z</time>
      </trkpt>
      <trkpt lat="42.7519610" lon="-8.6533880">
        <ele>18.8</ele>
        <time>2022-06-19T08:50:12Z</time>
      </trkpt>
      <trkpt lat="42.7519950" lon="-8.6533680">
        <ele>18.8</ele>
        <time>2022-06-19T08:50:13Z</time>
      </trkpt>
      <trkpt lat="42.7520300" lon="-8.6533480">
        <ele>18.8</ele>
        <time>2022-06-19T08:50:14Z</time>
      </trkpt>
      <trkpt lat="42.7520660" lon="-8.6533300">
        <ele>18.6</ele>
        <time>2022-06-19T08:50:15Z</time>
      </trkpt>
      <trkpt lat="42.7521060" lon="-8.6533150">
        <ele>18.6</ele>
        <time>2022-06-19T08:50:16Z</time>
      </trkpt>
      <trkpt lat="42.7521460" lon="-8.6532960">
        <ele>18.6</ele>
        <time>2022-06-19T08:50:17Z</time>
      </trkpt>
      <trkpt lat="42.7521880" lon="-8.6532800">
        <ele>18.6</ele>
        <time>2022-06-19T08:50:18Z</time>
      </trkpt>
      <trkpt lat="42.7522280" lon="-8.6532580">
        <ele>17.6</ele>
        <time>2022-06-19T08:50:19Z</time>
      </trkpt>
      <trkpt lat="42.7522700" lon="-8.6532350">
        <ele>17.2</ele>
        <time>2022-06-19T08:50:20Z</time>
      </trkpt>
      <trkpt lat="42.7523130" lon="-8.6532130">
        <ele>17.2</ele>
        <time>2022-06-19T08:50:21Z</time>
      </trkpt>
      <trkpt lat="42.7523580" lon="-8.6531930">
        <ele>17.2</ele>
        <time>2022-06-19T08:50:22Z</time>
      </trkpt>
      <trkpt lat="42.7524030" lon="-8.6531730">
        <ele>17.2</ele>
        <time>2022-06-19T08:50:23Z</time>
      </trkpt>
      <trkpt lat="42.7524480" lon="-8.6531500">
        <ele>17.0</ele>
        <time>2022-06-19T08:50:24Z</time>
      </trkpt>
      <trkpt lat="42.7524930" lon="-8.6531280">
        <ele>17.0</ele>
        <time>2022-06-19T08:50:25Z</time>
      </trkpt>
      <trkpt lat="42.7525410" lon="-8.6531050">
        <ele>17.0</ele>
        <time>2022-06-19T08:50:26Z</time>
      </trkpt>
      <trkpt lat="42.7525910" lon="-8.6530830">
        <ele>16.6</ele>
        <time>2022-06-19T08:50:27Z</time>
      </trkpt>
      <trkpt lat="42.7526410" lon="-8.6530610">
        <ele>16.6</ele>
        <time>2022-06-19T08:50:28Z</time>
      </trkpt>
      <trkpt lat="42.7526910" lon="-8.6530380">
        <ele>16.6</ele>
        <time>2022-06-19T08:50:29Z</time>
      </trkpt>
      <trkpt lat="42.7527400" lon="-8.6530180">
        <ele>16.6</ele>
        <time>2022-06-19T08:50:30Z</time>
      </trkpt>
      <trkpt lat="42.7527900" lon="-8.6529980">
        <ele>16.6</ele>
        <time>2022-06-19T08:50:31Z</time>
      </trkpt>
      <trkpt lat="42.7528400" lon="-8.6529750">
        <ele>15.8</ele>
        <time>2022-06-19T08:50:32Z</time>
      </trkpt>
      <trkpt lat="42.7528900" lon="-8.6529550">
        <ele>15.8</ele>
        <time>2022-06-19T08:50:33Z</time>
      </trkpt>
      <trkpt lat="42.7529400" lon="-8.6529330">
        <ele>15.8</ele>
        <time>2022-06-19T08:50:34Z</time>
      </trkpt>
      <trkpt lat="42.7529900" lon="-8.6529150">
        <ele>16.0</ele>
        <time>2022-06-19T08:50:35Z</time>
      </trkpt>
      <trkpt lat="42.7530410" lon="-8.6528980">
        <ele>16.2</ele>
        <time>2022-06-19T08:50:36Z</time>
      </trkpt>
      <trkpt lat="42.7530910" lon="-8.6528800">
        <ele>16.2</ele>
        <time>2022-06-19T08:50:37Z</time>
      </trkpt>
      <trkpt lat="42.7531400" lon="-8.6528610">
        <ele>16.2</ele>
        <time>2022-06-19T08:50:38Z</time>
      </trkpt>
      <trkpt lat="42.7531880" lon="-8.6528450">
        <ele>16.2</ele>
        <time>2022-06-19T08:50:39Z</time>
      </trkpt>
      <trkpt lat="42.7532360" lon="-8.6528250">
        <ele>16.2</ele>
        <time>2022-06-19T08:50:40Z</time>
      </trkpt>
      <trkpt lat="42.7532830" lon="-8.6528060">
        <ele>16.2</ele>
        <time>2022-06-19T08:50:41Z</time>
      </trkpt>
      <trkpt lat="42.7533300" lon="-8.6527860">
        <ele>16.2</ele>
        <time>2022-06-19T08:50:42Z</time>
      </trkpt>
      <trkpt lat="42.7533760" lon="-8.6527680">
        <ele>16.2</ele>
        <time>2022-06-19T08:50:43Z</time>
      </trkpt>
      <trkpt lat="42.7534200" lon="-8.6527510">
        <ele>16.4</ele>
        <time>2022-06-19T08:50:44Z</time>
      </trkpt>
      <trkpt lat="42.7534610" lon="-8.6527350">
        <ele>16.4</ele>
        <time>2022-06-19T08:50:45Z</time>
      </trkpt>
      <trkpt lat="42.7535030" lon="-8.6527180">
        <ele>16.4</ele>
        <time>2022-06-19T08:50:46Z</time>
      </trkpt>
      <trkpt lat="42.7535430" lon="-8.6527060">
        <ele>16.4</ele>
        <time>2022-06-19T08:50:47Z</time>
      </trkpt>
      <trkpt lat="42.7535810" lon="-8.6526930">
        <ele>16.6</ele>
        <time>2022-06-19T08:50:48Z</time>
      </trkpt>
      <trkpt lat="42.7536210" lon="-8.6526800">
        <ele>16.6</ele>
        <time>2022-06-19T08:50:49Z</time>
      </trkpt>
      <trkpt lat="42.7536630" lon="-8.6526650">
        <ele>16.6</ele>
        <time>2022-06-19T08:50:50Z</time>
      </trkpt>
      <trkpt lat="42.7537050" lon="-8.6526480">
        <ele>16.4</ele>
        <time>2022-06-19T08:50:51Z</time>
      </trkpt>
      <trkpt lat="42.7537500" lon="-8.6526310">
        <ele>16.6</ele>
        <time>2022-06-19T08:50:52Z</time>
      </trkpt>
      <trkpt lat="42.7537910" lon="-8.6526150">
        <ele>16.6</ele>
        <time>2022-06-19T08:50:53Z</time>
      </trkpt>
      <trkpt lat="42.7538330" lon="-8.6525980">
        <ele>16.6</ele>
        <time>2022-06-19T08:50:54Z</time>
      </trkpt>
      <trkpt lat="42.7538760" lon="-8.6525810">
        <ele>16.6</ele>
        <time>2022-06-19T08:50:55Z</time>
      </trkpt>
      <trkpt lat="42.7539180" lon="-8.6525650">
        <ele>16.6</ele>
        <time>2022-06-19T08:50:56Z</time>
      </trkpt>
      <trkpt lat="42.7539600" lon="-8.6525480">
        <ele>16.6</ele>
        <time>2022-06-19T08:50:57Z</time>
      </trkpt>
      <trkpt lat="42.7540010" lon="-8.6525300">
        <ele>16.6</ele>
        <time>2022-06-19T08:50:58Z</time>
      </trkpt>
      <trkpt lat="42.7540430" lon="-8.6525130">
        <ele>16.6</ele>
        <time>2022-06-19T08:50:59Z</time>
      </trkpt>
      <trkpt lat="42.7540860" lon="-8.6524960">
        <ele>16.6</ele>
        <time>2022-06-19T08:51:00Z</time>
      </trkpt>
      <trkpt lat="42.7541260" lon="-8.6524800">
        <ele>16.6</ele>
        <time>2022-06-19T08:51:01Z</time>
      </trkpt>
      <trkpt lat="42.7541680" lon="-8.6524650">
        <ele>16.6</ele>
        <time>2022-06-19T08:51:02Z</time>
      </trkpt>
      <trkpt lat="42.7542100" lon="-8.6524500">
        <ele>17.2</ele>
        <time>2022-06-19T08:51:03Z</time>
      </trkpt>
      <trkpt lat="42.7542510" lon="-8.6524330">
        <ele>17.0</ele>
        <time>2022-06-19T08:51:04Z</time>
      </trkpt>
      <trkpt lat="42.7542910" lon="-8.6524180">
        <ele>17.0</ele>
        <time>2022-06-19T08:51:05Z</time>
      </trkpt>
      <trkpt lat="42.7543310" lon="-8.6524030">
        <ele>17.0</ele>
        <time>2022-06-19T08:51:06Z</time>
      </trkpt>
      <trkpt lat="42.7543730" lon="-8.6523860">
        <ele>17.2</ele>
        <time>2022-06-19T08:51:07Z</time>
      </trkpt>
      <trkpt lat="42.7544150" lon="-8.6523700">
        <ele>17.4</ele>
        <time>2022-06-19T08:51:08Z</time>
      </trkpt>
      <trkpt lat="42.7544560" lon="-8.6523550">
        <ele>17.4</ele>
        <time>2022-06-19T08:51:09Z</time>
      </trkpt>
      <trkpt lat="42.7545010" lon="-8.6523400">
        <ele>17.4</ele>
        <time>2022-06-19T08:51:10Z</time>
      </trkpt>
      <trkpt lat="42.7545430" lon="-8.6523250">
        <ele>17.2</ele>
        <time>2022-06-19T08:51:11Z</time>
      </trkpt>
      <trkpt lat="42.7545860" lon="-8.6523110">
        <ele>17.4</ele>
        <time>2022-06-19T08:51:12Z</time>
      </trkpt>
      <trkpt lat="42.7546260" lon="-8.6522980">
        <ele>17.4</ele>
        <time>2022-06-19T08:51:13Z</time>
      </trkpt>
      <trkpt lat="42.7546700" lon="-8.6522830">
        <ele>17.4</ele>
        <time>2022-06-19T08:51:14Z</time>
      </trkpt>
      <trkpt lat="42.7547100" lon="-8.6522680">
        <ele>17.6</ele>
        <time>2022-06-19T08:51:15Z</time>
      </trkpt>
      <trkpt lat="42.7547500" lon="-8.6522530">
        <ele>17.8</ele>
        <time>2022-06-19T08:51:16Z</time>
      </trkpt>
      <trkpt lat="42.7547880" lon="-8.6522400">
        <ele>17.8</ele>
        <time>2022-06-19T08:51:17Z</time>
      </trkpt>
      <trkpt lat="42.7548280" lon="-8.6522250">
        <ele>17.8</ele>
        <time>2022-06-19T08:51:18Z</time>
      </trkpt>
      <trkpt lat="42.7548680" lon="-8.6522100">
        <ele>17.8</ele>
        <time>2022-06-19T08:51:19Z</time>
      </trkpt>
      <trkpt lat="42.7549100" lon="-8.6521960">
        <ele>17.6</ele>
        <time>2022-06-19T08:51:20Z</time>
      </trkpt>
      <trkpt lat="42.7549510" lon="-8.6521830">
        <ele>17.6</ele>
        <time>2022-06-19T08:51:21Z</time>
      </trkpt>
      <trkpt lat="42.7549900" lon="-8.6521680">
        <ele>17.6</ele>
        <time>2022-06-19T08:51:22Z</time>
      </trkpt>
      <trkpt lat="42.7550300" lon="-8.6521560">
        <ele>17.6</ele>
        <time>2022-06-19T08:51:23Z</time>
      </trkpt>
      <trkpt lat="42.7550750" lon="-8.6521430">
        <ele>17.8</ele>
        <time>2022-06-19T08:51:24Z</time>
      </trkpt>
      <trkpt lat="42.7551150" lon="-8.6521310">
        <ele>17.8</ele>
        <time>2022-06-19T08:51:25Z</time>
      </trkpt>
      <trkpt lat="42.7551550" lon="-8.6521210">
        <ele>17.8</ele>
        <time>2022-06-19T08:51:26Z</time>
      </trkpt>
      <trkpt lat="42.7551950" lon="-8.6521080">
        <ele>18.6</ele>
        <time>2022-06-19T08:51:27Z</time>
      </trkpt>
      <trkpt lat="42.7552310" lon="-8.6520950">
        <ele>18.4</ele>
        <time>2022-06-19T08:51:28Z</time>
      </trkpt>
      <trkpt lat="42.7552700" lon="-8.6520810">
        <ele>18.4</ele>
        <time>2022-06-19T08:51:29Z</time>
      </trkpt>
      <trkpt lat="42.7553060" lon="-8.6520660">
        <ele>18.4</ele>
        <time>2022-06-19T08:51:30Z</time>
      </trkpt>
      <trkpt lat="42.7553460" lon="-8.6520510">
        <ele>18.8</ele>
        <time>2022-06-19T08:51:31Z</time>
      </trkpt>
      <trkpt lat="42.7553850" lon="-8.6520380">
        <ele>18.6</ele>
        <time>2022-06-19T08:51:32Z</time>
      </trkpt>
      <trkpt lat="42.7554250" lon="-8.6520230">
        <ele>18.6</ele>
        <time>2022-06-19T08:51:33Z</time>
      </trkpt>
      <trkpt lat="42.7554610" lon="-8.6520080">
        <ele>18.6</ele>
        <time>2022-06-19T08:51:34Z</time>
      </trkpt>
      <trkpt lat="42.7554960" lon="-8.6519910">
        <ele>19.2</ele>
        <time>2022-06-19T08:51:35Z</time>
      </trkpt>
      <trkpt lat="42.7555300" lon="-8.6519760">
        <ele>20.0</ele>
        <time>2022-06-19T08:51:36Z</time>
      </trkpt>
      <trkpt lat="42.7555610" lon="-8.6519610">
        <ele>20.0</ele>
        <time>2022-06-19T08:51:37Z</time>
      </trkpt>
      <trkpt lat="42.7555930" lon="-8.6519460">
        <ele>20.0</ele>
        <time>2022-06-19T08:51:38Z</time>
      </trkpt>
      <trkpt lat="42.7556230" lon="-8.6519310">
        <ele>20.0</ele>
        <time>2022-06-19T08:51:39Z</time>
      </trkpt>
      <trkpt lat="42.7556530" lon="-8.6519130">
        <ele>20.6</ele>
        <time>2022-06-19T08:51:40Z</time>
      </trkpt>
      <trkpt lat="42.7556850" lon="-8.6518910">
        <ele>20.6</ele>
        <time>2022-06-19T08:51:41Z</time>
      </trkpt>
      <trkpt lat="42.7557150" lon="-8.6518710">
        <ele>20.6</ele>
        <time>2022-06-19T08:51:42Z</time>
      </trkpt>
      <trkpt lat="42.7557410" lon="-8.6518480">
        <ele>20.2</ele>
        <time>2022-06-19T08:51:43Z</time>
      </trkpt>
      <trkpt lat="42.7557700" lon="-8.6518230">
        <ele>21.0</ele>
        <time>2022-06-19T08:51:44Z</time>
      </trkpt>
      <trkpt lat="42.7557910" lon="-8.6517980">
        <ele>21.0</ele>
        <time>2022-06-19T08:51:45Z</time>
      </trkpt>
      <trkpt lat="42.7558160" lon="-8.6517700">
        <ele>21.0</ele>
        <time>2022-06-19T08:51:46Z</time>
      </trkpt>
      <trkpt lat="42.7558410" lon="-8.6517400">
        <ele>21.8</ele>
        <time>2022-06-19T08:51:47Z</time>
      </trkpt>
      <trkpt lat="42.7558650" lon="-8.6517130">
        <ele>21.6</ele>
        <time>2022-06-19T08:51:48Z</time>
      </trkpt>
      <trkpt lat="42.7558900" lon="-8.6516860">
        <ele>21.6</ele>
        <time>2022-06-19T08:51:49Z</time>
      </trkpt>
      <trkpt lat="42.7559150" lon="-8.6516600">
        <ele>21.6</ele>
        <time>2022-06-19T08:51:50Z</time>
      </trkpt>
      <trkpt lat="42.7559410" lon="-8.6516360">
        <ele>22.2</ele>
        <time>2022-06-19T08:51:51Z</time>
      </trkpt>
      <trkpt lat="42.7559700" lon="-8.6516150">
        <ele>22.2</ele>
        <time>2022-06-19T08:51:52Z</time>
      </trkpt>
      <trkpt lat="42.7560010" lon="-8.6516000">
        <ele>22.2</ele>
        <time>2022-06-19T08:51:53Z</time>
      </trkpt>
      <trkpt lat="42.7560350" lon="-8.6515900">
        <ele>22.2</ele>
        <time>2022-06-19T08:51:54Z</time>
      </trkpt>
      <trkpt lat="42.7560710" lon="-8.6515850">
        <ele>22.4</ele>
        <time>2022-06-19T08:51:55Z</time>
      </trkpt>
      <trkpt lat="42.7561060" lon="-8.6515860">
        <ele>22.2</ele>
        <time>2022-06-19T08:51:56Z</time>
      </trkpt>
      <trkpt lat="42.7561450" lon="-8.6515910">
        <ele>22.2</ele>
        <time>2022-06-19T08:51:57Z</time>
      </trkpt>
      <trkpt lat="42.7561830" lon="-8.6516000">
        <ele>22.2</ele>
        <time>2022-06-19T08:51:58Z</time>
      </trkpt>
      <trkpt lat="42.7562200" lon="-8.6516080">
        <ele>22.2</ele>
        <time>2022-06-19T08:51:59Z</time>
      </trkpt>
      <trkpt lat="42.7562580" lon="-8.6516160">
        <ele>22.2</ele>
        <time>2022-06-19T08:52:00Z</time>
      </trkpt>
      <trkpt lat="42.7562950" lon="-8.6516230">
        <ele>22.2</ele>
        <time>2022-06-19T08:52:01Z</time>
      </trkpt>
      <trkpt lat="42.7563330" lon="-8.6516280">
        <ele>22.2</ele>
        <time>2022-06-19T08:52:02Z</time>
      </trkpt>
      <trkpt lat="42.7563710" lon="-8.6516260">
        <ele>23.2</ele>
        <time>2022-06-19T08:52:03Z</time>
      </trkpt>
      <trkpt lat="42.7564080" lon="-8.6516230">
        <ele>22.6</ele>
        <time>2022-06-19T08:52:04Z</time>
      </trkpt>
      <trkpt lat="42.7564460" lon="-8.6516160">
        <ele>22.6</ele>
        <time>2022-06-19T08:52:05Z</time>
      </trkpt>
      <trkpt lat="42.7564850" lon="-8.6516080">
        <ele>22.6</ele>
        <time>2022-06-19T08:52:06Z</time>
      </trkpt>
      <trkpt lat="42.7565230" lon="-8.6516030">
        <ele>23.0</ele>
        <time>2022-06-19T08:52:07Z</time>
      </trkpt>
      <trkpt lat="42.7565610" lon="-8.6515960">
        <ele>23.6</ele>
        <time>2022-06-19T08:52:08Z</time>
      </trkpt>
      <trkpt lat="42.7565960" lon="-8.6515860">
        <ele>23.6</ele>
        <time>2022-06-19T08:52:09Z</time>
      </trkpt>
      <trkpt lat="42.7566330" lon="-8.6515730">
        <ele>23.6</ele>
        <time>2022-06-19T08:52:10Z</time>
      </trkpt>
      <trkpt lat="42.7566700" lon="-8.6515580">
        <ele>23.6</ele>
        <time>2022-06-19T08:52:11Z</time>
      </trkpt>
      <trkpt lat="42.7567080" lon="-8.6515450">
        <ele>23.6</ele>
        <time>2022-06-19T08:52:12Z</time>
      </trkpt>
      <trkpt lat="42.7567480" lon="-8.6515300">
        <ele>23.6</ele>
        <time>2022-06-19T08:52:13Z</time>
      </trkpt>
      <trkpt lat="42.7567900" lon="-8.6515150">
        <ele>23.6</ele>
        <time>2022-06-19T08:52:14Z</time>
      </trkpt>
      <trkpt lat="42.7568330" lon="-8.6515000">
        <ele>23.2</ele>
        <time>2022-06-19T08:52:15Z</time>
      </trkpt>
      <trkpt lat="42.7568760" lon="-8.6514850">
        <ele>23.2</ele>
        <time>2022-06-19T08:52:16Z</time>
      </trkpt>
      <trkpt lat="42.7569200" lon="-8.6514710">
        <ele>23.2</ele>
        <time>2022-06-19T08:52:17Z</time>
      </trkpt>
      <trkpt lat="42.7569650" lon="-8.6514600">
        <ele>23.2</ele>
        <time>2022-06-19T08:52:18Z</time>
      </trkpt>
      <trkpt lat="42.7570060" lon="-8.6514480">
        <ele>23.2</ele>
        <time>2022-06-19T08:52:19Z</time>
      </trkpt>
      <trkpt lat="42.7570510" lon="-8.6514350">
        <ele>23.4</ele>
        <time>2022-06-19T08:52:20Z</time>
      </trkpt>
      <trkpt lat="42.7570960" lon="-8.6514230">
        <ele>23.4</ele>
        <time>2022-06-19T08:52:21Z</time>
      </trkpt>
      <trkpt lat="42.7571410" lon="-8.6514110">
        <ele>23.4</ele>
        <time>2022-06-19T08:52:22Z</time>
      </trkpt>
      <trkpt lat="42.7571860" lon="-8.6514000">
        <ele>23.2</ele>
        <time>2022-06-19T08:52:23Z</time>
      </trkpt>
      <trkpt lat="42.7572300" lon="-8.6513900">
        <ele>22.8</ele>
        <time>2022-06-19T08:52:24Z</time>
      </trkpt>
      <trkpt lat="42.7572730" lon="-8.6513810">
        <ele>22.8</ele>
        <time>2022-06-19T08:52:25Z</time>
      </trkpt>
      <trkpt lat="42.7573130" lon="-8.6513700">
        <ele>22.8</ele>
        <time>2022-06-19T08:52:26Z</time>
      </trkpt>
      <trkpt lat="42.7573530" lon="-8.6513580">
        <ele>23.2</ele>
        <time>2022-06-19T08:52:27Z</time>
      </trkpt>
      <trkpt lat="42.7573960" lon="-8.6513460">
        <ele>23.0</ele>
        <time>2022-06-19T08:52:28Z</time>
      </trkpt>
      <trkpt lat="42.7574400" lon="-8.6513350">
        <ele>23.0</ele>
        <time>2022-06-19T08:52:29Z</time>
      </trkpt>
      <trkpt lat="42.7574830" lon="-8.6513230">
        <ele>23.0</ele>
        <time>2022-06-19T08:52:30Z</time>
      </trkpt>
      <trkpt lat="42.7575260" lon="-8.6513110">
        <ele>23.0</ele>
        <time>2022-06-19T08:52:31Z</time>
      </trkpt>
      <trkpt lat="42.7575700" lon="-8.6513010">
        <ele>22.6</ele>
        <time>2022-06-19T08:52:32Z</time>
      </trkpt>
      <trkpt lat="42.7576150" lon="-8.6512910">
        <ele>22.6</ele>
        <time>2022-06-19T08:52:33Z</time>
      </trkpt>
      <trkpt lat="42.7576600" lon="-8.6512830">
        <ele>22.6</ele>
        <time>2022-06-19T08:52:34Z</time>
      </trkpt>
      <trkpt lat="42.7577050" lon="-8.6512750">
        <ele>22.8</ele>
        <time>2022-06-19T08:52:35Z</time>
      </trkpt>
      <trkpt lat="42.7577480" lon="-8.6512680">
        <ele>23.2</ele>
        <time>2022-06-19T08:52:36Z</time>
      </trkpt>
      <trkpt lat="42.7577900" lon="-8.6512580">
        <ele>23.2</ele>
        <time>2022-06-19T08:52:37Z</time>
      </trkpt>
      <trkpt lat="42.7578330" lon="-8.6512500">
        <ele>23.2</ele>
        <time>2022-06-19T08:52:38Z</time>
      </trkpt>
      <trkpt lat="42.7578760" lon="-8.6512410">
        <ele>23.2</ele>
        <time>2022-06-19T08:52:39Z</time>
      </trkpt>
      <trkpt lat="42.7579200" lon="-8.6512310">
        <ele>23.6</ele>
        <time>2022-06-19T08:52:40Z</time>
      </trkpt>
      <trkpt lat="42.7579630" lon="-8.6512230">
        <ele>23.6</ele>
        <time>2022-06-19T08:52:41Z</time>
      </trkpt>
      <trkpt lat="42.7580050" lon="-8.6512150">
        <ele>23.6</ele>
        <time>2022-06-19T08:52:42Z</time>
      </trkpt>
      <trkpt lat="42.7580450" lon="-8.6512110">
        <ele>23.6</ele>
        <time>2022-06-19T08:52:43Z</time>
      </trkpt>
      <trkpt lat="42.7580860" lon="-8.6512050">
        <ele>24.0</ele>
        <time>2022-06-19T08:52:44Z</time>
      </trkpt>
      <trkpt lat="42.7581260" lon="-8.6512000">
        <ele>24.0</ele>
        <time>2022-06-19T08:52:45Z</time>
      </trkpt>
      <trkpt lat="42.7581680" lon="-8.6511910">
        <ele>24.0</ele>
        <time>2022-06-19T08:52:46Z</time>
      </trkpt>
      <trkpt lat="42.7582100" lon="-8.6511850">
        <ele>25.0</ele>
        <time>2022-06-19T08:52:47Z</time>
      </trkpt>
      <trkpt lat="42.7582500" lon="-8.6511810">
        <ele>25.2</ele>
        <time>2022-06-19T08:52:48Z</time>
      </trkpt>
      <trkpt lat="42.7582910" lon="-8.6511760">
        <ele>25.2</ele>
        <time>2022-06-19T08:52:49Z</time>
      </trkpt>
      <trkpt lat="42.7583350" lon="-8.6511700">
        <ele>25.2</ele>
        <time>2022-06-19T08:52:50Z</time>
      </trkpt>
      <trkpt lat="42.7583780" lon="-8.6511630">
        <ele>25.2</ele>
        <time>2022-06-19T08:52:51Z</time>
      </trkpt>
      <trkpt lat="42.7584200" lon="-8.6511560">
        <ele>24.8</ele>
        <time>2022-06-19T08:52:52Z</time>
      </trkpt>
      <trkpt lat="42.7584630" lon="-8.6511500">
        <ele>24.8</ele>
        <time>2022-06-19T08:52:53Z</time>
      </trkpt>
      <trkpt lat="42.7585060" lon="-8.6511460">
        <ele>24.8</ele>
        <time>2022-06-19T08:52:54Z</time>
      </trkpt>
      <trkpt lat="42.7585500" lon="-8.6511410">
        <ele>25.4</ele>
        <time>2022-06-19T08:52:55Z</time>
      </trkpt>
      <trkpt lat="42.7585930" lon="-8.6511380">
        <ele>25.8</ele>
        <time>2022-06-19T08:52:56Z</time>
      </trkpt>
      <trkpt lat="42.7586350" lon="-8.6511330">
        <ele>25.8</ele>
        <time>2022-06-19T08:52:57Z</time>
      </trkpt>
      <trkpt lat="42.7586760" lon="-8.6511260">
        <ele>25.8</ele>
        <time>2022-06-19T08:52:58Z</time>
      </trkpt>
      <trkpt lat="42.7587160" lon="-8.6511210">
        <ele>25.8</ele>
        <time>2022-06-19T08:52:59Z</time>
      </trkpt>
      <trkpt lat="42.7587580" lon="-8.6511200">
        <ele>26.2</ele>
        <time>2022-06-19T08:53:00Z</time>
      </trkpt>
      <trkpt lat="42.7588010" lon="-8.6511160">
        <ele>26.2</ele>
        <time>2022-06-19T08:53:01Z</time>
      </trkpt>
      <trkpt lat="42.7588430" lon="-8.6511130">
        <ele>26.2</ele>
        <time>2022-06-19T08:53:02Z</time>
      </trkpt>
      <trkpt lat="42.7588830" lon="-8.6511100">
        <ele>26.2</ele>
        <time>2022-06-19T08:53:03Z</time>
      </trkpt>
      <trkpt lat="42.7589230" lon="-8.6511050">
        <ele>26.4</ele>
        <time>2022-06-19T08:53:04Z</time>
      </trkpt>
      <trkpt lat="42.7589610" lon="-8.6511010">
        <ele>26.4</ele>
        <time>2022-06-19T08:53:05Z</time>
      </trkpt>
      <trkpt lat="42.7590010" lon="-8.6510980">
        <ele>26.4</ele>
        <time>2022-06-19T08:53:06Z</time>
      </trkpt>
      <trkpt lat="42.7590400" lon="-8.6510950">
        <ele>26.8</ele>
        <time>2022-06-19T08:53:07Z</time>
      </trkpt>
      <trkpt lat="42.7590760" lon="-8.6510930">
        <ele>27.0</ele>
        <time>2022-06-19T08:53:08Z</time>
      </trkpt>
      <trkpt lat="42.7591130" lon="-8.6510880">
        <ele>27.0</ele>
        <time>2022-06-19T08:53:09Z</time>
      </trkpt>
      <trkpt lat="42.7591500" lon="-8.6510860">
        <ele>27.0</ele>
        <time>2022-06-19T08:53:10Z</time>
      </trkpt>
      <trkpt lat="42.7591880" lon="-8.6510850">
        <ele>27.2</ele>
        <time>2022-06-19T08:53:11Z</time>
      </trkpt>
      <trkpt lat="42.7592250" lon="-8.6510830">
        <ele>27.6</ele>
        <time>2022-06-19T08:53:12Z</time>
      </trkpt>
      <trkpt lat="42.7592610" lon="-8.6510810">
        <ele>27.6</ele>
        <time>2022-06-19T08:53:13Z</time>
      </trkpt>
      <trkpt lat="42.7592960" lon="-8.6510760">
        <ele>27.6</ele>
        <time>2022-06-19T08:53:14Z</time>
      </trkpt>
      <trkpt lat="42.7593350" lon="-8.6510750">
        <ele>27.6</ele>
        <time>2022-06-19T08:53:15Z</time>
      </trkpt>
      <trkpt lat="42.7593730" lon="-8.6510750">
        <ele>27.8</ele>
        <time>2022-06-19T08:53:16Z</time>
      </trkpt>
      <trkpt lat="42.7594130" lon="-8.6510730">
        <ele>27.8</ele>
        <time>2022-06-19T08:53:17Z</time>
      </trkpt>
      <trkpt lat="42.7594510" lon="-8.6510730">
        <ele>27.8</ele>
        <time>2022-06-19T08:53:18Z</time>
      </trkpt>
      <trkpt lat="42.7594910" lon="-8.6510730">
        <ele>27.8</ele>
        <time>2022-06-19T08:53:19Z</time>
      </trkpt>
      <trkpt lat="42.7595350" lon="-8.6510750">
        <ele>27.6</ele>
        <time>2022-06-19T08:53:20Z</time>
      </trkpt>
      <trkpt lat="42.7595760" lon="-8.6510750">
        <ele>27.6</ele>
        <time>2022-06-19T08:53:21Z</time>
      </trkpt>
      <trkpt lat="42.7596180" lon="-8.6510730">
        <ele>27.6</ele>
        <time>2022-06-19T08:53:22Z</time>
      </trkpt>
      <trkpt lat="42.7596580" lon="-8.6510710">
        <ele>27.6</ele>
        <time>2022-06-19T08:53:23Z</time>
      </trkpt>
      <trkpt lat="42.7596950" lon="-8.6510730">
        <ele>27.8</ele>
        <time>2022-06-19T08:53:24Z</time>
      </trkpt>
      <trkpt lat="42.7597300" lon="-8.6510780">
        <ele>27.8</ele>
        <time>2022-06-19T08:53:25Z</time>
      </trkpt>
      <trkpt lat="42.7597600" lon="-8.6510800">
        <ele>27.8</ele>
        <time>2022-06-19T08:53:26Z</time>
      </trkpt>
      <trkpt lat="42.7597900" lon="-8.6510880">
        <ele>27.8</ele>
        <time>2022-06-19T08:53:27Z</time>
      </trkpt>
      <trkpt lat="42.7598160" lon="-8.6511010">
        <ele>28.0</ele>
        <time>2022-06-19T08:53:28Z</time>
      </trkpt>
      <trkpt lat="42.7598430" lon="-8.6511110">
        <ele>28.0</ele>
        <time>2022-06-19T08:53:29Z</time>
      </trkpt>
      <trkpt lat="42.7598660" lon="-8.6511180">
        <ele>28.0</ele>
        <time>2022-06-19T08:53:30Z</time>
      </trkpt>
      <trkpt lat="42.7598810" lon="-8.6511230">
        <ele>27.8</ele>
        <time>2022-06-19T08:53:31Z</time>
      </trkpt>
      <trkpt lat="42.7598930" lon="-8.6511280">
        <ele>27.8</ele>
        <time>2022-06-19T08:53:32Z</time>
      </trkpt>
      <trkpt lat="42.7599050" lon="-8.6511310">
        <ele>27.8</ele>
        <time>2022-06-19T08:53:33Z</time>
      </trkpt>
      <trkpt lat="42.7599130" lon="-8.6511350">
        <ele>27.8</ele>
        <time>2022-06-19T08:53:34Z</time>
      </trkpt>
      <trkpt lat="42.7599210" lon="-8.6511360">
        <ele>27.8</ele>
        <time>2022-06-19T08:53:35Z</time>
      </trkpt>
      <trkpt lat="42.7599330" lon="-8.6511450">
        <ele>27.6</ele>
        <time>2022-06-19T08:53:36Z</time>
      </trkpt>
      <trkpt lat="42.7599450" lon="-8.6511650">
        <ele>27.6</ele>
        <time>2022-06-19T08:53:37Z</time>
      </trkpt>
      <trkpt lat="42.7599530" lon="-8.6511960">
        <ele>27.6</ele>
        <time>2022-06-19T08:53:38Z</time>
      </trkpt>
      <trkpt lat="42.7599600" lon="-8.6512310">
        <ele>26.6</ele>
        <time>2022-06-19T08:53:39Z</time>
      </trkpt>
      <trkpt lat="42.7599610" lon="-8.6512710">
        <ele>25.6</ele>
        <time>2022-06-19T08:53:40Z</time>
      </trkpt>
      <trkpt lat="42.7599630" lon="-8.6513260">
        <ele>25.6</ele>
        <time>2022-06-19T08:53:41Z</time>
      </trkpt>
      <trkpt lat="42.7599660" lon="-8.6513860">
        <ele>25.6</ele>
        <time>2022-06-19T08:53:42Z</time>
      </trkpt>
      <trkpt lat="42.7599700" lon="-8.6514510">
        <ele>24.6</ele>
        <time>2022-06-19T08:53:43Z</time>
      </trkpt>
      <trkpt lat="42.7599750" lon="-8.6515210">
        <ele>23.8</ele>
        <time>2022-06-19T08:53:44Z</time>
      </trkpt>
      <trkpt lat="42.7599830" lon="-8.6515930">
        <ele>23.8</ele>
        <time>2022-06-19T08:53:45Z</time>
      </trkpt>
      <trkpt lat="42.7599900" lon="-8.6516630">
        <ele>23.8</ele>
        <time>2022-06-19T08:53:46Z</time>
      </trkpt>
      <trkpt lat="42.7599950" lon="-8.6517400">
        <ele>22.8</ele>
        <time>2022-06-19T08:53:47Z</time>
      </trkpt>
      <trkpt lat="42.7600000" lon="-8.6518200">
        <ele>21.0</ele>
        <time>2022-06-19T08:53:48Z</time>
      </trkpt>
      <trkpt lat="42.7600030" lon="-8.6519030">
        <ele>21.0</ele>
        <time>2022-06-19T08:53:49Z</time>
      </trkpt>
      <trkpt lat="42.7600080" lon="-8.6519860">
        <ele>21.0</ele>
        <time>2022-06-19T08:53:50Z</time>
      </trkpt>
      <trkpt lat="42.7600110" lon="-8.6520680">
        <ele>20.2</ele>
        <time>2022-06-19T08:53:51Z</time>
      </trkpt>
      <trkpt lat="42.7600200" lon="-8.6521500">
        <ele>20.0</ele>
        <time>2022-06-19T08:53:52Z</time>
      </trkpt>
      <trkpt lat="42.7600300" lon="-8.6522350">
        <ele>20.0</ele>
        <time>2022-06-19T08:53:53Z</time>
      </trkpt>
      <trkpt lat="42.7600350" lon="-8.6523210">
        <ele>20.0</ele>
        <time>2022-06-19T08:53:54Z</time>
      </trkpt>
      <trkpt lat="42.7600400" lon="-8.6524100">
        <ele>19.0</ele>
        <time>2022-06-19T08:53:55Z</time>
      </trkpt>
      <trkpt lat="42.7600460" lon="-8.6524960">
        <ele>17.8</ele>
        <time>2022-06-19T08:53:56Z</time>
      </trkpt>
      <trkpt lat="42.7600530" lon="-8.6525800">
        <ele>17.8</ele>
        <time>2022-06-19T08:53:57Z</time>
      </trkpt>
      <trkpt lat="42.7600580" lon="-8.6526600">
        <ele>17.8</ele>
        <time>2022-06-19T08:53:58Z</time>
      </trkpt>
      <trkpt lat="42.7600630" lon="-8.6527410">
        <ele>17.8</ele>
        <time>2022-06-19T08:53:59Z</time>
      </trkpt>
      <trkpt lat="42.7600660" lon="-8.6528230">
        <ele>16.4</ele>
        <time>2022-06-19T08:54:00Z</time>
      </trkpt>
      <trkpt lat="42.7600710" lon="-8.6529030">
        <ele>16.4</ele>
        <time>2022-06-19T08:54:01Z</time>
      </trkpt>
      <trkpt lat="42.7600780" lon="-8.6529810">
        <ele>16.4</ele>
        <time>2022-06-19T08:54:02Z</time>
      </trkpt>
      <trkpt lat="42.7600830" lon="-8.6530550">
        <ele>15.4</ele>
        <time>2022-06-19T08:54:03Z</time>
      </trkpt>
      <trkpt lat="42.7600910" lon="-8.6531280">
        <ele>15.6</ele>
        <time>2022-06-19T08:54:04Z</time>
      </trkpt>
      <trkpt lat="42.7600980" lon="-8.6532000">
        <ele>15.6</ele>
        <time>2022-06-19T08:54:05Z</time>
      </trkpt>
      <trkpt lat="42.7601030" lon="-8.6532580">
        <ele>15.6</ele>
        <time>2022-06-19T08:54:06Z</time>
      </trkpt>
      <trkpt lat="42.7601060" lon="-8.6533110">
        <ele>15.6</ele>
        <time>2022-06-19T08:54:07Z</time>
      </trkpt>
      <trkpt lat="42.7601100" lon="-8.6533560">
        <ele>15.2</ele>
        <time>2022-06-19T08:54:08Z</time>
      </trkpt>
      <trkpt lat="42.7601200" lon="-8.6533950">
        <ele>15.2</ele>
        <time>2022-06-19T08:54:09Z</time>
      </trkpt>
      <trkpt lat="42.7601400" lon="-8.6534210">
        <ele>15.2</ele>
        <time>2022-06-19T08:54:10Z</time>
      </trkpt>
      <trkpt lat="42.7601660" lon="-8.6534350">
        <ele>16.2</ele>
        <time>2022-06-19T08:54:11Z</time>
      </trkpt>
      <trkpt lat="42.7602000" lon="-8.6534410">
        <ele>15.8</ele>
        <time>2022-06-19T08:54:12Z</time>
      </trkpt>
      <trkpt lat="42.7602360" lon="-8.6534460">
        <ele>15.8</ele>
        <time>2022-06-19T08:54:13Z</time>
      </trkpt>
      <trkpt lat="42.7602730" lon="-8.6534550">
        <ele>15.8</ele>
        <time>2022-06-19T08:54:14Z</time>
      </trkpt>
      <trkpt lat="42.7603130" lon="-8.6534630">
        <ele>15.4</ele>
        <time>2022-06-19T08:54:15Z</time>
      </trkpt>
      <trkpt lat="42.7603550" lon="-8.6534660">
        <ele>15.6</ele>
        <time>2022-06-19T08:54:16Z</time>
      </trkpt>
      <trkpt lat="42.7604000" lon="-8.6534700">
        <ele>15.6</ele>
        <time>2022-06-19T08:54:17Z</time>
      </trkpt>
      <trkpt lat="42.7604400" lon="-8.6534750">
        <ele>15.6</ele>
        <time>2022-06-19T08:54:18Z</time>
      </trkpt>
      <trkpt lat="42.7604780" lon="-8.6534780">
        <ele>15.6</ele>
        <time>2022-06-19T08:54:19Z</time>
      </trkpt>
      <trkpt lat="42.7605200" lon="-8.6534880">
        <ele>16.0</ele>
        <time>2022-06-19T08:54:20Z</time>
      </trkpt>
      <trkpt lat="42.7605630" lon="-8.6534930">
        <ele>16.0</ele>
        <time>2022-06-19T08:54:21Z</time>
      </trkpt>
      <trkpt lat="42.7606030" lon="-8.6535030">
        <ele>16.0</ele>
        <time>2022-06-19T08:54:22Z</time>
      </trkpt>
      <trkpt lat="42.7606410" lon="-8.6535130">
        <ele>15.6</ele>
        <time>2022-06-19T08:54:23Z</time>
      </trkpt>
      <trkpt lat="42.7606830" lon="-8.6535210">
        <ele>15.8</ele>
        <time>2022-06-19T08:54:24Z</time>
      </trkpt>
      <trkpt lat="42.7607230" lon="-8.6535310">
        <ele>15.8</ele>
        <time>2022-06-19T08:54:25Z</time>
      </trkpt>
      <trkpt lat="42.7607680" lon="-8.6535360">
        <ele>15.8</ele>
        <time>2022-06-19T08:54:26Z</time>
      </trkpt>
      <trkpt lat="42.7608130" lon="-8.6535430">
        <ele>15.6</ele>
        <time>2022-06-19T08:54:27Z</time>
      </trkpt>
      <trkpt lat="42.7608600" lon="-8.6535530">
        <ele>15.2</ele>
        <time>2022-06-19T08:54:28Z</time>
      </trkpt>
      <trkpt lat="42.7609060" lon="-8.6535560">
        <ele>15.2</ele>
        <time>2022-06-19T08:54:29Z</time>
      </trkpt>
      <trkpt lat="42.7609550" lon="-8.6535610">
        <ele>15.2</ele>
        <time>2022-06-19T08:54:30Z</time>
      </trkpt>
      <trkpt lat="42.7610030" lon="-8.6535660">
        <ele>14.8</ele>
        <time>2022-06-19T08:54:31Z</time>
      </trkpt>
      <trkpt lat="42.7610510" lon="-8.6535760">
        <ele>15.8</ele>
        <time>2022-06-19T08:54:32Z</time>
      </trkpt>
      <trkpt lat="42.7611030" lon="-8.6535850">
        <ele>15.8</ele>
        <time>2022-06-19T08:54:33Z</time>
      </trkpt>
      <trkpt lat="42.7611530" lon="-8.6535930">
        <ele>15.8</ele>
        <time>2022-06-19T08:54:34Z</time>
      </trkpt>
      <trkpt lat="42.7612010" lon="-8.6536010">
        <ele>14.8</ele>
        <time>2022-06-19T08:54:35Z</time>
      </trkpt>
      <trkpt lat="42.7612500" lon="-8.6536060">
        <ele>15.2</ele>
        <time>2022-06-19T08:54:36Z</time>
      </trkpt>
      <trkpt lat="42.7612980" lon="-8.6536130">
        <ele>15.2</ele>
        <time>2022-06-19T08:54:37Z</time>
      </trkpt>
      <trkpt lat="42.7613450" lon="-8.6536160">
        <ele>15.2</ele>
        <time>2022-06-19T08:54:38Z</time>
      </trkpt>
      <trkpt lat="42.7613860" lon="-8.6536250">
        <ele>15.2</ele>
        <time>2022-06-19T08:54:39Z</time>
      </trkpt>
      <trkpt lat="42.7614330" lon="-8.6536360">
        <ele>15.0</ele>
        <time>2022-06-19T08:54:40Z</time>
      </trkpt>
      <trkpt lat="42.7614810" lon="-8.6536460">
        <ele>15.0</ele>
        <time>2022-06-19T08:54:41Z</time>
      </trkpt>
      <trkpt lat="42.7615280" lon="-8.6536580">
        <ele>15.0</ele>
        <time>2022-06-19T08:54:42Z</time>
      </trkpt>
      <trkpt lat="42.7615760" lon="-8.6536700">
        <ele>14.4</ele>
        <time>2022-06-19T08:54:43Z</time>
      </trkpt>
      <trkpt lat="42.7616230" lon="-8.6536830">
        <ele>14.2</ele>
        <time>2022-06-19T08:54:44Z</time>
      </trkpt>
      <trkpt lat="42.7616700" lon="-8.6536950">
        <ele>14.2</ele>
        <time>2022-06-19T08:54:45Z</time>
      </trkpt>
      <trkpt lat="42.7617160" lon="-8.6537030">
        <ele>14.2</ele>
        <time>2022-06-19T08:54:46Z</time>
      </trkpt>
      <trkpt lat="42.7617630" lon="-8.6537160">
        <ele>14.0</ele>
        <time>2022-06-19T08:54:47Z</time>
      </trkpt>
      <trkpt lat="42.7618100" lon="-8.6537250">
        <ele>13.8</ele>
        <time>2022-06-19T08:54:48Z</time>
      </trkpt>
      <trkpt lat="42.7618550" lon="-8.6537360">
        <ele>13.8</ele>
        <time>2022-06-19T08:54:49Z</time>
      </trkpt>
      <trkpt lat="42.7619000" lon="-8.6537460">
        <ele>13.8</ele>
        <time>2022-06-19T08:54:50Z</time>
      </trkpt>
      <trkpt lat="42.7619430" lon="-8.6537530">
        <ele>13.8</ele>
        <time>2022-06-19T08:54:51Z</time>
      </trkpt>
      <trkpt lat="42.7619860" lon="-8.6537610">
        <ele>14.6</ele>
        <time>2022-06-19T08:54:52Z</time>
      </trkpt>
      <trkpt lat="42.7620310" lon="-8.6537710">
        <ele>14.6</ele>
        <time>2022-06-19T08:54:53Z</time>
      </trkpt>
      <trkpt lat="42.7620730" lon="-8.6537800">
        <ele>14.6</ele>
        <time>2022-06-19T08:54:54Z</time>
      </trkpt>
      <trkpt lat="42.7621150" lon="-8.6537830">
        <ele>14.6</ele>
        <time>2022-06-19T08:54:55Z</time>
      </trkpt>
      <trkpt lat="42.7621600" lon="-8.6537800">
        <ele>15.0</ele>
        <time>2022-06-19T08:54:56Z</time>
      </trkpt>
      <trkpt lat="42.7622030" lon="-8.6537750">
        <ele>15.0</ele>
        <time>2022-06-19T08:54:57Z</time>
      </trkpt>
      <trkpt lat="42.7622450" lon="-8.6537650">
        <ele>15.0</ele>
        <time>2022-06-19T08:54:58Z</time>
      </trkpt>
      <trkpt lat="42.7622880" lon="-8.6537550">
        <ele>14.6</ele>
        <time>2022-06-19T08:54:59Z</time>
      </trkpt>
      <trkpt lat="42.7623310" lon="-8.6537500">
        <ele>14.2</ele>
        <time>2022-06-19T08:55:00Z</time>
      </trkpt>
      <trkpt lat="42.7623750" lon="-8.6537400">
        <ele>14.2</ele>
        <time>2022-06-19T08:55:01Z</time>
      </trkpt>
      <trkpt lat="42.7624200" lon="-8.6537330">
        <ele>14.2</ele>
        <time>2022-06-19T08:55:02Z</time>
      </trkpt>
      <trkpt lat="42.7624700" lon="-8.6537310">
        <ele>14.4</ele>
        <time>2022-06-19T08:55:03Z</time>
      </trkpt>
      <trkpt lat="42.7625150" lon="-8.6537250">
        <ele>14.6</ele>
        <time>2022-06-19T08:55:04Z</time>
      </trkpt>
      <trkpt lat="42.7625610" lon="-8.6537200">
        <ele>14.6</ele>
        <time>2022-06-19T08:55:05Z</time>
      </trkpt>
      <trkpt lat="42.7626080" lon="-8.6537150">
        <ele>14.6</ele>
        <time>2022-06-19T08:55:06Z</time>
      </trkpt>
      <trkpt lat="42.7626530" lon="-8.6537080">
        <ele>15.4</ele>
        <time>2022-06-19T08:55:07Z</time>
      </trkpt>
      <trkpt lat="42.7626960" lon="-8.6536980">
        <ele>15.6</ele>
        <time>2022-06-19T08:55:08Z</time>
      </trkpt>
      <trkpt lat="42.7627400" lon="-8.6536860">
        <ele>15.6</ele>
        <time>2022-06-19T08:55:09Z</time>
      </trkpt>
      <trkpt lat="42.7627780" lon="-8.6536730">
        <ele>15.6</ele>
        <time>2022-06-19T08:55:10Z</time>
      </trkpt>
      <trkpt lat="42.7628130" lon="-8.6536600">
        <ele>16.6</ele>
        <time>2022-06-19T08:55:11Z</time>
      </trkpt>
      <trkpt lat="42.7628460" lon="-8.6536430">
        <ele>16.8</ele>
        <time>2022-06-19T08:55:12Z</time>
      </trkpt>
      <trkpt lat="42.7628760" lon="-8.6536360">
        <ele>16.8</ele>
        <time>2022-06-19T08:55:13Z</time>
      </trkpt>
      <trkpt lat="42.7629050" lon="-8.6536460">
        <ele>16.8</ele>
        <time>2022-06-19T08:55:14Z</time>
      </trkpt>
      <trkpt lat="42.7629330" lon="-8.6536730">
        <ele>16.4</ele>
        <time>2022-06-19T08:55:15Z</time>
      </trkpt>
      <trkpt lat="42.7629530" lon="-8.6537080">
        <ele>15.8</ele>
        <time>2022-06-19T08:55:16Z</time>
      </trkpt>
      <trkpt lat="42.7629750" lon="-8.6537450">
        <ele>15.8</ele>
        <time>2022-06-19T08:55:17Z</time>
      </trkpt>
      <trkpt lat="42.7629980" lon="-8.6537830">
        <ele>15.8</ele>
        <time>2022-06-19T08:55:18Z</time>
      </trkpt>
      <trkpt lat="42.7630230" lon="-8.6538300">
        <ele>15.8</ele>
        <time>2022-06-19T08:55:19Z</time>
      </trkpt>
      <trkpt lat="42.7630510" lon="-8.6538780">
        <ele>13.2</ele>
        <time>2022-06-19T08:55:20Z</time>
      </trkpt>
      <trkpt lat="42.7630850" lon="-8.6539280">
        <ele>13.2</ele>
        <time>2022-06-19T08:55:21Z</time>
      </trkpt>
      <trkpt lat="42.7631200" lon="-8.6539760">
        <ele>13.2</ele>
        <time>2022-06-19T08:55:22Z</time>
      </trkpt>
      <trkpt lat="42.7631530" lon="-8.6540360">
        <ele>13.2</ele>
        <time>2022-06-19T08:55:23Z</time>
      </trkpt>
      <trkpt lat="42.7631850" lon="-8.6540930">
        <ele>13.2</ele>
        <time>2022-06-19T08:55:24Z</time>
      </trkpt>
      <trkpt lat="42.7632130" lon="-8.6541350">
        <ele>13.2</ele>
        <time>2022-06-19T08:55:25Z</time>
      </trkpt>
      <trkpt lat="42.7632400" lon="-8.6541630">
        <ele>13.2</ele>
        <time>2022-06-19T08:55:26Z</time>
      </trkpt>
      <trkpt lat="42.7632650" lon="-8.6541750">
        <ele>13.2</ele>
        <time>2022-06-19T08:55:27Z</time>
      </trkpt>
      <trkpt lat="42.7632860" lon="-8.6541910">
        <ele>12.8</ele>
        <time>2022-06-19T08:55:28Z</time>
      </trkpt>
      <trkpt lat="42.7633060" lon="-8.6542210">
        <ele>12.8</ele>
        <time>2022-06-19T08:55:29Z</time>
      </trkpt>
      <trkpt lat="42.7633280" lon="-8.6542510">
        <ele>12.8</ele>
        <time>2022-06-19T08:55:30Z</time>
      </trkpt>
      <trkpt lat="42.7633510" lon="-8.6542810">
        <ele>13.2</ele>
        <time>2022-06-19T08:55:31Z</time>
      </trkpt>
      <trkpt lat="42.7633730" lon="-8.6543130">
        <ele>14.2</ele>
        <time>2022-06-19T08:55:32Z</time>
      </trkpt>
      <trkpt lat="42.7634030" lon="-8.6543410">
        <ele>14.2</ele>
        <time>2022-06-19T08:55:33Z</time>
      </trkpt>
      <trkpt lat="42.7634380" lon="-8.6543560">
        <ele>14.2</ele>
        <time>2022-06-19T08:55:34Z</time>
      </trkpt>
      <trkpt lat="42.7634730" lon="-8.6543680">
        <ele>13.6</ele>
        <time>2022-06-19T08:55:35Z</time>
      </trkpt>
      <trkpt lat="42.7635050" lon="-8.6543810">
        <ele>13.4</ele>
        <time>2022-06-19T08:55:36Z</time>
      </trkpt>
      <trkpt lat="42.7635310" lon="-8.6543930">
        <ele>13.4</ele>
        <time>2022-06-19T08:55:37Z</time>
      </trkpt>
      <trkpt lat="42.7635600" lon="-8.6543980">
        <ele>13.4</ele>
        <time>2022-06-19T08:55:38Z</time>
      </trkpt>
      <trkpt lat="42.7635830" lon="-8.6544000">
        <ele>13.4</ele>
        <time>2022-06-19T08:55:39Z</time>
      </trkpt>
      <trkpt lat="42.7636050" lon="-8.6544000">
        <ele>13.6</ele>
        <time>2022-06-19T08:55:40Z</time>
      </trkpt>
      <trkpt lat="42.7636330" lon="-8.6544050">
        <ele>13.6</ele>
        <time>2022-06-19T08:55:41Z</time>
      </trkpt>
      <trkpt lat="42.7636600" lon="-8.6544130">
        <ele>13.6</ele>
        <time>2022-06-19T08:55:42Z</time>
      </trkpt>
      <trkpt lat="42.7636860" lon="-8.6544180">
        <ele>13.6</ele>
        <time>2022-06-19T08:55:43Z</time>
      </trkpt>
      <trkpt lat="42.7637130" lon="-8.6544230">
        <ele>13.6</ele>
        <time>2022-06-19T08:55:44Z</time>
      </trkpt>
      <trkpt lat="42.7637410" lon="-8.6544280">
        <ele>13.6</ele>
        <time>2022-06-19T08:55:45Z</time>
      </trkpt>
      <trkpt lat="42.7637680" lon="-8.6544450">
        <ele>13.6</ele>
        <time>2022-06-19T08:55:46Z</time>
      </trkpt>
      <trkpt lat="42.7637950" lon="-8.6544650">
        <ele>13.6</ele>
        <time>2022-06-19T08:55:47Z</time>
      </trkpt>
      <trkpt lat="42.7638280" lon="-8.6544810">
        <ele>14.0</ele>
        <time>2022-06-19T08:55:48Z</time>
      </trkpt>
      <trkpt lat="42.7638610" lon="-8.6544950">
        <ele>14.0</ele>
        <time>2022-06-19T08:55:49Z</time>
      </trkpt>
      <trkpt lat="42.7638930" lon="-8.6545110">
        <ele>14.0</ele>
        <time>2022-06-19T08:55:50Z</time>
      </trkpt>
      <trkpt lat="42.7639250" lon="-8.6545330">
        <ele>13.4</ele>
        <time>2022-06-19T08:55:51Z</time>
      </trkpt>
      <trkpt lat="42.7639610" lon="-8.6545580">
        <ele>13.4</ele>
        <time>2022-06-19T08:55:52Z</time>
      </trkpt>
      <trkpt lat="42.7639930" lon="-8.6545830">
        <ele>13.4</ele>
        <time>2022-06-19T08:55:53Z</time>
      </trkpt>
      <trkpt lat="42.7640260" lon="-8.6546060">
        <ele>13.4</ele>
        <time>2022-06-19T08:55:54Z</time>
      </trkpt>
      <trkpt lat="42.7640630" lon="-8.6546210">
        <ele>13.4</ele>
        <time>2022-06-19T08:55:55Z</time>
      </trkpt>
      <trkpt lat="42.7640960" lon="-8.6546360">
        <ele>13.6</ele>
        <time>2022-06-19T08:55:56Z</time>
      </trkpt>
      <trkpt lat="42.7641280" lon="-8.6546580">
        <ele>13.6</ele>
        <time>2022-06-19T08:55:57Z</time>
      </trkpt>
      <trkpt lat="42.7641460" lon="-8.6546950">
        <ele>13.6</ele>
        <time>2022-06-19T08:55:58Z</time>
      </trkpt>
      <trkpt lat="42.7641580" lon="-8.6547350">
        <ele>13.6</ele>
        <time>2022-06-19T08:55:59Z</time>
      </trkpt>
      <trkpt lat="42.7641730" lon="-8.6547700">
        <ele>14.4</ele>
        <time>2022-06-19T08:56:00Z</time>
      </trkpt>
      <trkpt lat="42.7641950" lon="-8.6547960">
        <ele>14.4</ele>
        <time>2022-06-19T08:56:01Z</time>
      </trkpt>
      <trkpt lat="42.7642210" lon="-8.6548050">
        <ele>14.4</ele>
        <time>2022-06-19T08:56:02Z</time>
      </trkpt>
      <trkpt lat="42.7642510" lon="-8.6548110">
        <ele>13.6</ele>
        <time>2022-06-19T08:56:03Z</time>
      </trkpt>
      <trkpt lat="42.7642880" lon="-8.6548130">
        <ele>12.8</ele>
        <time>2022-06-19T08:56:04Z</time>
      </trkpt>
      <trkpt lat="42.7643180" lon="-8.6548250">
        <ele>12.8</ele>
        <time>2022-06-19T08:56:05Z</time>
      </trkpt>
      <trkpt lat="42.7643450" lon="-8.6548330">
        <ele>12.8</ele>
        <time>2022-06-19T08:56:06Z</time>
      </trkpt>
      <trkpt lat="42.7643760" lon="-8.6548410">
        <ele>13.0</ele>
        <time>2022-06-19T08:56:07Z</time>
      </trkpt>
      <trkpt lat="42.7644100" lon="-8.6548560">
        <ele>13.6</ele>
        <time>2022-06-19T08:56:08Z</time>
      </trkpt>
      <trkpt lat="42.7644350" lon="-8.6548850">
        <ele>13.6</ele>
        <time>2022-06-19T08:56:09Z</time>
      </trkpt>
      <trkpt lat="42.7644580" lon="-8.6549160">
        <ele>13.6</ele>
        <time>2022-06-19T08:56:10Z</time>
      </trkpt>
      <trkpt lat="42.7644830" lon="-8.6549410">
        <ele>12.8</ele>
        <time>2022-06-19T08:56:11Z</time>
      </trkpt>
      <trkpt lat="42.7645100" lon="-8.6549560">
        <ele>13.4</ele>
        <time>2022-06-19T08:56:12Z</time>
      </trkpt>
      <trkpt lat="42.7645350" lon="-8.6549730">
        <ele>13.4</ele>
        <time>2022-06-19T08:56:13Z</time>
      </trkpt>
      <trkpt lat="42.7645660" lon="-8.6550010">
        <ele>13.4</ele>
        <time>2022-06-19T08:56:14Z</time>
      </trkpt>
      <trkpt lat="42.7645960" lon="-8.6550350">
        <ele>13.4</ele>
        <time>2022-06-19T08:56:15Z</time>
      </trkpt>
      <trkpt lat="42.7646250" lon="-8.6550700">
        <ele>13.2</ele>
        <time>2022-06-19T08:56:16Z</time>
      </trkpt>
      <trkpt lat="42.7646480" lon="-8.6551110">
        <ele>13.2</ele>
        <time>2022-06-19T08:56:17Z</time>
      </trkpt>
      <trkpt lat="42.7646700" lon="-8.6551580">
        <ele>13.2</ele>
        <time>2022-06-19T08:56:18Z</time>
      </trkpt>
      <trkpt lat="42.7646930" lon="-8.6552010">
        <ele>13.2</ele>
        <time>2022-06-19T08:56:19Z</time>
      </trkpt>
      <trkpt lat="42.7647200" lon="-8.6552430">
        <ele>12.4</ele>
        <time>2022-06-19T08:56:20Z</time>
      </trkpt>
      <trkpt lat="42.7647480" lon="-8.6552800">
        <ele>12.4</ele>
        <time>2022-06-19T08:56:21Z</time>
      </trkpt>
      <trkpt lat="42.7647800" lon="-8.6553080">
        <ele>12.4</ele>
        <time>2022-06-19T08:56:22Z</time>
      </trkpt>
      <trkpt lat="42.7648130" lon="-8.6553350">
        <ele>12.4</ele>
        <time>2022-06-19T08:56:23Z</time>
      </trkpt>
      <trkpt lat="42.7648500" lon="-8.6553550">
        <ele>12.8</ele>
        <time>2022-06-19T08:56:24Z</time>
      </trkpt>
      <trkpt lat="42.7648860" lon="-8.6553730">
        <ele>12.8</ele>
        <time>2022-06-19T08:56:25Z</time>
      </trkpt>
      <trkpt lat="42.7649200" lon="-8.6553930">
        <ele>12.8</ele>
        <time>2022-06-19T08:56:26Z</time>
      </trkpt>
      <trkpt lat="42.7649500" lon="-8.6554010">
        <ele>12.2</ele>
        <time>2022-06-19T08:56:27Z</time>
      </trkpt>
      <trkpt lat="42.7649800" lon="-8.6554060">
        <ele>12.2</ele>
        <time>2022-06-19T08:56:28Z</time>
      </trkpt>
      <trkpt lat="42.7650110" lon="-8.6554050">
        <ele>12.2</ele>
        <time>2022-06-19T08:56:29Z</time>
      </trkpt>
      <trkpt lat="42.7650360" lon="-8.6554050">
        <ele>12.2</ele>
        <time>2022-06-19T08:56:30Z</time>
      </trkpt>
      <trkpt lat="42.7650700" lon="-8.6554010">
        <ele>12.2</ele>
        <time>2022-06-19T08:56:31Z</time>
      </trkpt>
      <trkpt lat="42.7651100" lon="-8.6553950">
        <ele>12.2</ele>
        <time>2022-06-19T08:56:32Z</time>
      </trkpt>
      <trkpt lat="42.7651500" lon="-8.6553900">
        <ele>12.2</ele>
        <time>2022-06-19T08:56:33Z</time>
      </trkpt>
      <trkpt lat="42.7651910" lon="-8.6553800">
        <ele>12.2</ele>
        <time>2022-06-19T08:56:34Z</time>
      </trkpt>
      <trkpt lat="42.7652310" lon="-8.6553710">
        <ele>12.2</ele>
        <time>2022-06-19T08:56:35Z</time>
      </trkpt>
      <trkpt lat="42.7652710" lon="-8.6553600">
        <ele>12.2</ele>
        <time>2022-06-19T08:56:36Z</time>
      </trkpt>
      <trkpt lat="42.7653080" lon="-8.6553460">
        <ele>12.2</ele>
        <time>2022-06-19T08:56:37Z</time>
      </trkpt>
      <trkpt lat="42.7653330" lon="-8.6553230">
        <ele>12.2</ele>
        <time>2022-06-19T08:56:38Z</time>
      </trkpt>
      <trkpt lat="42.7653410" lon="-8.6552800">
        <ele>12.0</ele>
        <time>2022-06-19T08:56:39Z</time>
      </trkpt>
      <trkpt lat="42.7653430" lon="-8.6552350">
        <ele>12.4</ele>
        <time>2022-06-19T08:56:40Z</time>
      </trkpt>
      <trkpt lat="42.7653480" lon="-8.6551900">
        <ele>12.4</ele>
        <time>2022-06-19T08:56:41Z</time>
      </trkpt>
      <trkpt lat="42.7653580" lon="-8.6551560">
        <ele>12.4</ele>
        <time>2022-06-19T08:56:42Z</time>
      </trkpt>
      <trkpt lat="42.7653800" lon="-8.6551280">
        <ele>12.4</ele>
        <time>2022-06-19T08:56:43Z</time>
      </trkpt>
      <trkpt lat="42.7654100" lon="-8.6551080">
        <ele>12.0</ele>
        <time>2022-06-19T08:56:44Z</time>
      </trkpt>
      <trkpt lat="42.7654430" lon="-8.6550960">
        <ele>12.0</ele>
        <time>2022-06-19T08:56:45Z</time>
      </trkpt>
      <trkpt lat="42.7654750" lon="-8.6550880">
        <ele>12.0</ele>
        <time>2022-06-19T08:56:46Z</time>
      </trkpt>
      <trkpt lat="42.7655050" lon="-8.6550810">
        <ele>13.0</ele>
        <time>2022-06-19T08:56:47Z</time>
      </trkpt>
      <trkpt lat="42.7655350" lon="-8.6550780">
        <ele>12.2</ele>
        <time>2022-06-19T08:56:48Z</time>
      </trkpt>
      <trkpt lat="42.7655700" lon="-8.6550700">
        <ele>12.2</ele>
        <time>2022-06-19T08:56:49Z</time>
      </trkpt>
      <trkpt lat="42.7655950" lon="-8.6550510">
        <ele>12.2</ele>
        <time>2022-06-19T08:56:50Z</time>
      </trkpt>
      <trkpt lat="42.7656110" lon="-8.6550210">
        <ele>12.8</ele>
        <time>2022-06-19T08:56:51Z</time>
      </trkpt>
      <trkpt lat="42.7656250" lon="-8.6549850">
        <ele>13.0</ele>
        <time>2022-06-19T08:56:52Z</time>
      </trkpt>
      <trkpt lat="42.7656350" lon="-8.6549500">
        <ele>13.0</ele>
        <time>2022-06-19T08:56:53Z</time>
      </trkpt>
      <trkpt lat="42.7656400" lon="-8.6549150">
        <ele>13.0</ele>
        <time>2022-06-19T08:56:54Z</time>
      </trkpt>
      <trkpt lat="42.7656430" lon="-8.6548810">
        <ele>13.0</ele>
        <time>2022-06-19T08:56:55Z</time>
      </trkpt>
      <trkpt lat="42.7656480" lon="-8.6548500">
        <ele>13.2</ele>
        <time>2022-06-19T08:56:56Z</time>
      </trkpt>
      <trkpt lat="42.7656510" lon="-8.6548150">
        <ele>13.2</ele>
        <time>2022-06-19T08:56:57Z</time>
      </trkpt>
      <trkpt lat="42.7656550" lon="-8.6547780">
        <ele>13.2</ele>
        <time>2022-06-19T08:56:58Z</time>
      </trkpt>
      <trkpt lat="42.7656580" lon="-8.6547450">
        <ele>13.2</ele>
        <time>2022-06-19T08:56:59Z</time>
      </trkpt>
      <trkpt lat="42.7656660" lon="-8.6547110">
        <ele>13.8</ele>
        <time>2022-06-19T08:57:00Z</time>
      </trkpt>
      <trkpt lat="42.7656760" lon="-8.6546750">
        <ele>13.8</ele>
        <time>2022-06-19T08:57:01Z</time>
      </trkpt>
      <trkpt lat="42.7656880" lon="-8.6546410">
        <ele>13.8</ele>
        <time>2022-06-19T08:57:02Z</time>
      </trkpt>
      <trkpt lat="42.7657000" lon="-8.6546100">
        <ele>13.2</ele>
        <time>2022-06-19T08:57:03Z</time>
      </trkpt>
      <trkpt lat="42.7657100" lon="-8.6545800">
        <ele>14.2</ele>
        <time>2022-06-19T08:57:04Z</time>
      </trkpt>
      <trkpt lat="42.7657210" lon="-8.6545480">
        <ele>14.2</ele>
        <time>2022-06-19T08:57:05Z</time>
      </trkpt>
      <trkpt lat="42.7657330" lon="-8.6545180">
        <ele>14.2</ele>
        <time>2022-06-19T08:57:06Z</time>
      </trkpt>
      <trkpt lat="42.7657410" lon="-8.6544930">
        <ele>14.2</ele>
        <time>2022-06-19T08:57:07Z</time>
      </trkpt>
      <trkpt lat="42.7657510" lon="-8.6544660">
        <ele>14.4</ele>
        <time>2022-06-19T08:57:08Z</time>
      </trkpt>
      <trkpt lat="42.7657600" lon="-8.6544410">
        <ele>14.4</ele>
        <time>2022-06-19T08:57:09Z</time>
      </trkpt>
      <trkpt lat="42.7657700" lon="-8.6544130">
        <ele>14.4</ele>
        <time>2022-06-19T08:57:10Z</time>
      </trkpt>
      <trkpt lat="42.7657780" lon="-8.6543860">
        <ele>14.4</ele>
        <time>2022-06-19T08:57:11Z</time>
      </trkpt>
      <trkpt lat="42.7657880" lon="-8.6543580">
        <ele>15.4</ele>
        <time>2022-06-19T08:57:12Z</time>
      </trkpt>
      <trkpt lat="42.7657960" lon="-8.6543300">
        <ele>15.4</ele>
        <time>2022-06-19T08:57:13Z</time>
      </trkpt>
      <trkpt lat="42.7658060" lon="-8.6543030">
        <ele>15.4</ele>
        <time>2022-06-19T08:57:14Z</time>
      </trkpt>
      <trkpt lat="42.7658180" lon="-8.6542760">
        <ele>15.2</ele>
        <time>2022-06-19T08:57:15Z</time>
      </trkpt>
      <trkpt lat="42.7658260" lon="-8.6542550">
        <ele>15.2</ele>
        <time>2022-06-19T08:57:16Z</time>
      </trkpt>
      <trkpt lat="42.7658380" lon="-8.6542280">
        <ele>15.2</ele>
        <time>2022-06-19T08:57:17Z</time>
      </trkpt>
      <trkpt lat="42.7658580" lon="-8.6542050">
        <ele>15.2</ele>
        <time>2022-06-19T08:57:18Z</time>
      </trkpt>
      <trkpt lat="42.7658780" lon="-8.6541930">
        <ele>15.2</ele>
        <time>2022-06-19T08:57:19Z</time>
      </trkpt>
      <trkpt lat="42.7659000" lon="-8.6541880">
        <ele>15.4</ele>
        <time>2022-06-19T08:57:20Z</time>
      </trkpt>
      <trkpt lat="42.7659200" lon="-8.6541900">
        <ele>15.4</ele>
        <time>2022-06-19T08:57:21Z</time>
      </trkpt>
      <trkpt lat="42.7659410" lon="-8.6541910">
        <ele>15.4</ele>
        <time>2022-06-19T08:57:22Z</time>
      </trkpt>
      <trkpt lat="42.7659660" lon="-8.6541880">
        <ele>15.4</ele>
        <time>2022-06-19T08:57:23Z</time>
      </trkpt>
      <trkpt lat="42.7659910" lon="-8.6541860">
        <ele>16.2</ele>
        <time>2022-06-19T08:57:24Z</time>
      </trkpt>
      <trkpt lat="42.7660180" lon="-8.6541830">
        <ele>16.2</ele>
        <time>2022-06-19T08:57:25Z</time>
      </trkpt>
      <trkpt lat="42.7660460" lon="-8.6541730">
        <ele>16.2</ele>
        <time>2022-06-19T08:57:26Z</time>
      </trkpt>
      <trkpt lat="42.7660760" lon="-8.6541680">
        <ele>16.2</ele>
        <time>2022-06-19T08:57:27Z</time>
      </trkpt>
      <trkpt lat="42.7661050" lon="-8.6541600">
        <ele>16.2</ele>
        <time>2022-06-19T08:57:28Z</time>
      </trkpt>
      <trkpt lat="42.7661280" lon="-8.6541600">
        <ele>16.2</ele>
        <time>2022-06-19T08:57:29Z</time>
      </trkpt>
      <trkpt lat="42.7661560" lon="-8.6541580">
        <ele>16.2</ele>
        <time>2022-06-19T08:57:30Z</time>
      </trkpt>
      <trkpt lat="42.7661800" lon="-8.6541610">
        <ele>16.2</ele>
        <time>2022-06-19T08:57:31Z</time>
      </trkpt>
      <trkpt lat="42.7662050" lon="-8.6541600">
        <ele>17.6</ele>
        <time>2022-06-19T08:57:32Z</time>
      </trkpt>
      <trkpt lat="42.7662250" lon="-8.6541600">
        <ele>17.6</ele>
        <time>2022-06-19T08:57:33Z</time>
      </trkpt>
      <trkpt lat="42.7662500" lon="-8.6541610">
        <ele>17.6</ele>
        <time>2022-06-19T08:57:34Z</time>
      </trkpt>
      <trkpt lat="42.7662730" lon="-8.6541530">
        <ele>17.6</ele>
        <time>2022-06-19T08:57:35Z</time>
      </trkpt>
      <trkpt lat="42.7662960" lon="-8.6541500">
        <ele>17.6</ele>
        <time>2022-06-19T08:57:36Z</time>
      </trkpt>
      <trkpt lat="42.7663160" lon="-8.6541480">
        <ele>17.6</ele>
        <time>2022-06-19T08:57:37Z</time>
      </trkpt>
      <trkpt lat="42.7663430" lon="-8.6541450">
        <ele>17.6</ele>
        <time>2022-06-19T08:57:38Z</time>
      </trkpt>
      <trkpt lat="42.7663660" lon="-8.6541450">
        <ele>17.6</ele>
        <time>2022-06-19T08:57:39Z</time>
      </trkpt>
      <trkpt lat="42.7663860" lon="-8.6541550">
        <ele>18.6</ele>
        <time>2022-06-19T08:57:40Z</time>
      </trkpt>
      <trkpt lat="42.7664060" lon="-8.6541660">
        <ele>18.6</ele>
        <time>2022-06-19T08:57:41Z</time>
      </trkpt>
      <trkpt lat="42.7664250" lon="-8.6541860">
        <ele>18.6</ele>
        <time>2022-06-19T08:57:42Z</time>
      </trkpt>
      <trkpt lat="42.7664430" lon="-8.6542110">
        <ele>18.6</ele>
        <time>2022-06-19T08:57:43Z</time>
      </trkpt>
      <trkpt lat="42.7664600" lon="-8.6542300">
        <ele>18.8</ele>
        <time>2022-06-19T08:57:44Z</time>
      </trkpt>
      <trkpt lat="42.7664760" lon="-8.6542450">
        <ele>18.8</ele>
        <time>2022-06-19T08:57:45Z</time>
      </trkpt>
      <trkpt lat="42.7664980" lon="-8.6542600">
        <ele>18.8</ele>
        <time>2022-06-19T08:57:46Z</time>
      </trkpt>
      <trkpt lat="42.7665150" lon="-8.6542830">
        <ele>18.8</ele>
        <time>2022-06-19T08:57:47Z</time>
      </trkpt>
      <trkpt lat="42.7665180" lon="-8.6543110">
        <ele>17.6</ele>
        <time>2022-06-19T08:57:48Z</time>
      </trkpt>
      <trkpt lat="42.7665100" lon="-8.6543500">
        <ele>17.6</ele>
        <time>2022-06-19T08:57:49Z</time>
      </trkpt>
      <trkpt lat="42.7664930" lon="-8.6543780">
        <ele>17.6</ele>
        <time>2022-06-19T08:57:50Z</time>
      </trkpt>
      <trkpt lat="42.7664710" lon="-8.6543910">
        <ele>17.6</ele>
        <time>2022-06-19T08:57:51Z</time>
      </trkpt>
      <trkpt lat="42.7664610" lon="-8.6544030">
        <ele>17.0</ele>
        <time>2022-06-19T08:57:52Z</time>
      </trkpt>
      <trkpt lat="42.7664510" lon="-8.6544210">
        <ele>17.0</ele>
        <time>2022-06-19T08:57:53Z</time>
      </trkpt>
      <trkpt lat="42.7664480" lon="-8.6544530">
        <ele>17.0</ele>
        <time>2022-06-19T08:57:54Z</time>
      </trkpt>
      <trkpt lat="42.7664580" lon="-8.6544900">
        <ele>17.0</ele>
        <time>2022-06-19T08:57:55Z</time>
      </trkpt>
      <trkpt lat="42.7664710" lon="-8.6545250">
        <ele>17.6</ele>
        <time>2022-06-19T08:57:56Z</time>
      </trkpt>
      <trkpt lat="42.7664830" lon="-8.6545660">
        <ele>17.6</ele>
        <time>2022-06-19T08:57:57Z</time>
      </trkpt>
      <trkpt lat="42.7664980" lon="-8.6546050">
        <ele>17.6</ele>
        <time>2022-06-19T08:57:58Z</time>
      </trkpt>
      <trkpt lat="42.7665130" lon="-8.6546450">
        <ele>17.0</ele>
        <time>2022-06-19T08:57:59Z</time>
      </trkpt>
      <trkpt lat="42.7665210" lon="-8.6546880">
        <ele>16.6</ele>
        <time>2022-06-19T08:58:00Z</time>
      </trkpt>
      <trkpt lat="42.7665350" lon="-8.6547210">
        <ele>16.6</ele>
        <time>2022-06-19T08:58:01Z</time>
      </trkpt>
      <trkpt lat="42.7665530" lon="-8.6547550">
        <ele>16.6</ele>
        <time>2022-06-19T08:58:02Z</time>
      </trkpt>
      <trkpt lat="42.7665750" lon="-8.6547960">
        <ele>16.4</ele>
        <time>2022-06-19T08:58:03Z</time>
      </trkpt>
      <trkpt lat="42.7665980" lon="-8.6548380">
        <ele>16.2</ele>
        <time>2022-06-19T08:58:04Z</time>
      </trkpt>
      <trkpt lat="42.7666250" lon="-8.6548860">
        <ele>16.2</ele>
        <time>2022-06-19T08:58:05Z</time>
      </trkpt>
      <trkpt lat="42.7666530" lon="-8.6549350">
        <ele>16.2</ele>
        <time>2022-06-19T08:58:06Z</time>
      </trkpt>
      <trkpt lat="42.7666810" lon="-8.6549930">
        <ele>16.0</ele>
        <time>2022-06-19T08:58:07Z</time>
      </trkpt>
      <trkpt lat="42.7667180" lon="-8.6550310">
        <ele>14.8</ele>
        <time>2022-06-19T08:58:08Z</time>
      </trkpt>
      <trkpt lat="42.7667580" lon="-8.6550680">
        <ele>14.8</ele>
        <time>2022-06-19T08:58:09Z</time>
      </trkpt>
      <trkpt lat="42.7667980" lon="-8.6551100">
        <ele>14.8</ele>
        <time>2022-06-19T08:58:10Z</time>
      </trkpt>
      <trkpt lat="42.7668380" lon="-8.6551550">
        <ele>14.8</ele>
        <time>2022-06-19T08:58:11Z</time>
      </trkpt>
      <trkpt lat="42.7668780" lon="-8.6552000">
        <ele>14.0</ele>
        <time>2022-06-19T08:58:12Z</time>
      </trkpt>
      <trkpt lat="42.7669150" lon="-8.6552480">
        <ele>14.0</ele>
        <time>2022-06-19T08:58:13Z</time>
      </trkpt>
      <trkpt lat="42.7669480" lon="-8.6552980">
        <ele>14.0</ele>
        <time>2022-06-19T08:58:14Z</time>
      </trkpt>
      <trkpt lat="42.7669750" lon="-8.6553400">
        <ele>14.0</ele>
        <time>2022-06-19T08:58:15Z</time>
      </trkpt>
      <trkpt lat="42.7670000" lon="-8.6553760">
        <ele>13.4</ele>
        <time>2022-06-19T08:58:16Z</time>
      </trkpt>
      <trkpt lat="42.7670300" lon="-8.6553900">
        <ele>13.4</ele>
        <time>2022-06-19T08:58:17Z</time>
      </trkpt>
      <trkpt lat="42.7670600" lon="-8.6553860">
        <ele>13.4</ele>
        <time>2022-06-19T08:58:18Z</time>
      </trkpt>
      <trkpt lat="42.7670850" lon="-8.6553650">
        <ele>14.2</ele>
        <time>2022-06-19T08:58:19Z</time>
      </trkpt>
      <trkpt lat="42.7671060" lon="-8.6553400">
        <ele>14.4</ele>
        <time>2022-06-19T08:58:20Z</time>
      </trkpt>
      <trkpt lat="42.7671260" lon="-8.6553200">
        <ele>14.4</ele>
        <time>2022-06-19T08:58:21Z</time>
      </trkpt>
      <trkpt lat="42.7671500" lon="-8.6552960">
        <ele>14.4</ele>
        <time>2022-06-19T08:58:22Z</time>
      </trkpt>
      <trkpt lat="42.7671730" lon="-8.6552800">
        <ele>14.4</ele>
        <time>2022-06-19T08:58:23Z</time>
      </trkpt>
      <trkpt lat="42.7672000" lon="-8.6552650">
        <ele>14.2</ele>
        <time>2022-06-19T08:58:24Z</time>
      </trkpt>
      <trkpt lat="42.7672250" lon="-8.6552450">
        <ele>14.2</ele>
        <time>2022-06-19T08:58:25Z</time>
      </trkpt>
      <trkpt lat="42.7672500" lon="-8.6552250">
        <ele>14.2</ele>
        <time>2022-06-19T08:58:26Z</time>
      </trkpt>
      <trkpt lat="42.7672500" lon="-8.6552250">
        <ele>14.6</ele>
        <time>2022-06-19T08:58:27Z</time>
      </trkpt>
      <trkpt lat="42.7673000" lon="-8.6551900">
        <ele>14.8</ele>
        <time>2022-06-19T08:58:28Z</time>
      </trkpt>
      <trkpt lat="42.7673260" lon="-8.6551730">
        <ele>14.8</ele>
        <time>2022-06-19T08:58:29Z</time>
      </trkpt>
      <trkpt lat="42.7673550" lon="-8.6551580">
        <ele>14.8</ele>
        <time>2022-06-19T08:58:30Z</time>
      </trkpt>
      <trkpt lat="42.7673810" lon="-8.6551360">
        <ele>15.0</ele>
        <time>2022-06-19T08:58:31Z</time>
      </trkpt>
      <trkpt lat="42.7674080" lon="-8.6551130">
        <ele>14.8</ele>
        <time>2022-06-19T08:58:32Z</time>
      </trkpt>
      <trkpt lat="42.7674330" lon="-8.6550910">
        <ele>14.8</ele>
        <time>2022-06-19T08:58:33Z</time>
      </trkpt>
      <trkpt lat="42.7674580" lon="-8.6550700">
        <ele>14.8</ele>
        <time>2022-06-19T08:58:34Z</time>
      </trkpt>
      <trkpt lat="42.7674850" lon="-8.6550530">
        <ele>14.8</ele>
        <time>2022-06-19T08:58:35Z</time>
      </trkpt>
      <trkpt lat="42.7675130" lon="-8.6550410">
        <ele>15.4</ele>
        <time>2022-06-19T08:58:36Z</time>
      </trkpt>
      <trkpt lat="42.7675400" lon="-8.6550250">
        <ele>15.4</ele>
        <time>2022-06-19T08:58:37Z</time>
      </trkpt>
      <trkpt lat="42.7675650" lon="-8.6550050">
        <ele>15.4</ele>
        <time>2022-06-19T08:58:38Z</time>
      </trkpt>
      <trkpt lat="42.7675900" lon="-8.6549780">
        <ele>15.4</ele>
        <time>2022-06-19T08:58:39Z</time>
      </trkpt>
      <trkpt lat="42.7676160" lon="-8.6549530">
        <ele>15.4</ele>
        <time>2022-06-19T08:58:40Z</time>
      </trkpt>
      <trkpt lat="42.7676430" lon="-8.6549310">
        <ele>15.4</ele>
        <time>2022-06-19T08:58:41Z</time>
      </trkpt>
      <trkpt lat="42.7676710" lon="-8.6549100">
        <ele>15.4</ele>
        <time>2022-06-19T08:58:42Z</time>
      </trkpt>
      <trkpt lat="42.7677000" lon="-8.6548900">
        <ele>15.4</ele>
        <time>2022-06-19T08:58:43Z</time>
      </trkpt>
      <trkpt lat="42.7677280" lon="-8.6548680">
        <ele>15.2</ele>
        <time>2022-06-19T08:58:44Z</time>
      </trkpt>
      <trkpt lat="42.7677580" lon="-8.6548450">
        <ele>15.2</ele>
        <time>2022-06-19T08:58:45Z</time>
      </trkpt>
      <trkpt lat="42.7677880" lon="-8.6548250">
        <ele>15.2</ele>
        <time>2022-06-19T08:58:46Z</time>
      </trkpt>
      <trkpt lat="42.7678160" lon="-8.6548050">
        <ele>15.0</ele>
        <time>2022-06-19T08:58:47Z</time>
      </trkpt>
      <trkpt lat="42.7678460" lon="-8.6547860">
        <ele>15.6</ele>
        <time>2022-06-19T08:58:48Z</time>
      </trkpt>
      <trkpt lat="42.7678750" lon="-8.6547660">
        <ele>15.6</ele>
        <time>2022-06-19T08:58:49Z</time>
      </trkpt>
      <trkpt lat="42.7679050" lon="-8.6547460">
        <ele>15.6</ele>
        <time>2022-06-19T08:58:50Z</time>
      </trkpt>
      <trkpt lat="42.7679310" lon="-8.6547230">
        <ele>15.4</ele>
        <time>2022-06-19T08:58:51Z</time>
      </trkpt>
      <trkpt lat="42.7679580" lon="-8.6547010">
        <ele>15.6</ele>
        <time>2022-06-19T08:58:52Z</time>
      </trkpt>
      <trkpt lat="42.7679860" lon="-8.6546800">
        <ele>15.6</ele>
        <time>2022-06-19T08:58:53Z</time>
      </trkpt>
      <trkpt lat="42.7680110" lon="-8.6546600">
        <ele>15.6</ele>
        <time>2022-06-19T08:58:54Z</time>
      </trkpt>
      <trkpt lat="42.7680360" lon="-8.6546400">
        <ele>15.8</ele>
        <time>2022-06-19T08:58:55Z</time>
      </trkpt>
      <trkpt lat="42.7680580" lon="-8.6546130">
        <ele>16.0</ele>
        <time>2022-06-19T08:58:56Z</time>
      </trkpt>
      <trkpt lat="42.7680880" lon="-8.6545950">
        <ele>16.0</ele>
        <time>2022-06-19T08:58:57Z</time>
      </trkpt>
      <trkpt lat="42.7681150" lon="-8.6545730">
        <ele>16.0</ele>
        <time>2022-06-19T08:58:58Z</time>
      </trkpt>
      <trkpt lat="42.7681400" lon="-8.6545500">
        <ele>16.6</ele>
        <time>2022-06-19T08:58:59Z</time>
      </trkpt>
      <trkpt lat="42.7681680" lon="-8.6545310">
        <ele>16.4</ele>
        <time>2022-06-19T08:59:00Z</time>
      </trkpt>
      <trkpt lat="42.7681960" lon="-8.6545160">
        <ele>16.4</ele>
        <time>2022-06-19T08:59:01Z</time>
      </trkpt>
      <trkpt lat="42.7682280" lon="-8.6544930">
        <ele>16.4</ele>
        <time>2022-06-19T08:59:02Z</time>
      </trkpt>
      <trkpt lat="42.7682630" lon="-8.6544750">
        <ele>16.4</ele>
        <time>2022-06-19T08:59:03Z</time>
      </trkpt>
      <trkpt lat="42.7682950" lon="-8.6544600">
        <ele>17.2</ele>
        <time>2022-06-19T08:59:04Z</time>
      </trkpt>
      <trkpt lat="42.7683280" lon="-8.6544350">
        <ele>17.2</ele>
        <time>2022-06-19T08:59:05Z</time>
      </trkpt>
      <trkpt lat="42.7683560" lon="-8.6544130">
        <ele>17.2</ele>
        <time>2022-06-19T08:59:06Z</time>
      </trkpt>
      <trkpt lat="42.7683860" lon="-8.6543900">
        <ele>17.2</ele>
        <time>2022-06-19T08:59:07Z</time>
      </trkpt>
      <trkpt lat="42.7684150" lon="-8.6543660">
        <ele>17.2</ele>
        <time>2022-06-19T08:59:08Z</time>
      </trkpt>
      <trkpt lat="42.7684450" lon="-8.6543450">
        <ele>17.2</ele>
        <time>2022-06-19T08:59:09Z</time>
      </trkpt>
      <trkpt lat="42.7684750" lon="-8.6543230">
        <ele>17.2</ele>
        <time>2022-06-19T08:59:10Z</time>
      </trkpt>
      <trkpt lat="42.7685010" lon="-8.6543050">
        <ele>17.4</ele>
        <time>2022-06-19T08:59:11Z</time>
      </trkpt>
      <trkpt lat="42.7685280" lon="-8.6542850">
        <ele>17.6</ele>
        <time>2022-06-19T08:59:12Z</time>
      </trkpt>
      <trkpt lat="42.7685560" lon="-8.6542630">
        <ele>17.6</ele>
        <time>2022-06-19T08:59:13Z</time>
      </trkpt>
      <trkpt lat="42.7685880" lon="-8.6542380">
        <ele>17.6</ele>
        <time>2022-06-19T08:59:14Z</time>
      </trkpt>
      <trkpt lat="42.7686180" lon="-8.6542160">
        <ele>17.2</ele>
        <time>2022-06-19T08:59:15Z</time>
      </trkpt>
      <trkpt lat="42.7686480" lon="-8.6541930">
        <ele>17.2</ele>
        <time>2022-06-19T08:59:16Z</time>
      </trkpt>
      <trkpt lat="42.7686800" lon="-8.6541700">
        <ele>17.2</ele>
        <time>2022-06-19T08:59:17Z</time>
      </trkpt>
      <trkpt lat="42.7687110" lon="-8.6541480">
        <ele>17.2</ele>
        <time>2022-06-19T08:59:18Z</time>
      </trkpt>
      <trkpt lat="42.7687410" lon="-8.6541250">
        <ele>17.2</ele>
        <time>2022-06-19T08:59:19Z</time>
      </trkpt>
      <trkpt lat="42.7687730" lon="-8.6541010">
        <ele>17.4</ele>
        <time>2022-06-19T08:59:20Z</time>
      </trkpt>
      <trkpt lat="42.7688010" lon="-8.6540800">
        <ele>17.4</ele>
        <time>2022-06-19T08:59:21Z</time>
      </trkpt>
      <trkpt lat="42.7688310" lon="-8.6540600">
        <ele>17.4</ele>
        <time>2022-06-19T08:59:22Z</time>
      </trkpt>
      <trkpt lat="42.7688600" lon="-8.6540400">
        <ele>17.8</ele>
        <time>2022-06-19T08:59:23Z</time>
      </trkpt>
      <trkpt lat="42.7688900" lon="-8.6540160">
        <ele>17.8</ele>
        <time>2022-06-19T08:59:24Z</time>
      </trkpt>
      <trkpt lat="42.7689210" lon="-8.6539950">
        <ele>17.8</ele>
        <time>2022-06-19T08:59:25Z</time>
      </trkpt>
      <trkpt lat="42.7689510" lon="-8.6539710">
        <ele>17.8</ele>
        <time>2022-06-19T08:59:26Z</time>
      </trkpt>
      <trkpt lat="42.7689810" lon="-8.6539460">
        <ele>17.8</ele>
        <time>2022-06-19T08:59:27Z</time>
      </trkpt>
      <trkpt lat="42.7690130" lon="-8.6539230">
        <ele>17.2</ele>
        <time>2022-06-19T08:59:28Z</time>
      </trkpt>
      <trkpt lat="42.7690430" lon="-8.6539010">
        <ele>17.2</ele>
        <time>2022-06-19T08:59:29Z</time>
      </trkpt>
      <trkpt lat="42.7690730" lon="-8.6538760">
        <ele>17.2</ele>
        <time>2022-06-19T08:59:30Z</time>
      </trkpt>
      <trkpt lat="42.7691010" lon="-8.6538530">
        <ele>18.2</ele>
        <time>2022-06-19T08:59:31Z</time>
      </trkpt>
      <trkpt lat="42.7691310" lon="-8.6538310">
        <ele>18.2</ele>
        <time>2022-06-19T08:59:32Z</time>
      </trkpt>
      <trkpt lat="42.7691610" lon="-8.6538110">
        <ele>18.2</ele>
        <time>2022-06-19T08:59:33Z</time>
      </trkpt>
      <trkpt lat="42.7691900" lon="-8.6537900">
        <ele>18.2</ele>
        <time>2022-06-19T08:59:34Z</time>
      </trkpt>
      <trkpt lat="42.7692180" lon="-8.6537680">
        <ele>18.2</ele>
        <time>2022-06-19T08:59:35Z</time>
      </trkpt>
      <trkpt lat="42.7692480" lon="-8.6537460">
        <ele>18.4</ele>
        <time>2022-06-19T08:59:36Z</time>
      </trkpt>
      <trkpt lat="42.7692780" lon="-8.6537230">
        <ele>18.4</ele>
        <time>2022-06-19T08:59:37Z</time>
      </trkpt>
      <trkpt lat="42.7693100" lon="-8.6537010">
        <ele>18.4</ele>
        <time>2022-06-19T08:59:38Z</time>
      </trkpt>
      <trkpt lat="42.7693410" lon="-8.6536780">
        <ele>18.4</ele>
        <time>2022-06-19T08:59:39Z</time>
      </trkpt>
      <trkpt lat="42.7693710" lon="-8.6536510">
        <ele>18.0</ele>
        <time>2022-06-19T08:59:40Z</time>
      </trkpt>
      <trkpt lat="42.7694030" lon="-8.6536260">
        <ele>18.0</ele>
        <time>2022-06-19T08:59:41Z</time>
      </trkpt>
      <trkpt lat="42.7694350" lon="-8.6536010">
        <ele>18.0</ele>
        <time>2022-06-19T08:59:42Z</time>
      </trkpt>
      <trkpt lat="42.7694660" lon="-8.6535780">
        <ele>18.6</ele>
        <time>2022-06-19T08:59:43Z</time>
      </trkpt>
      <trkpt lat="42.7694960" lon="-8.6535530">
        <ele>19.2</ele>
        <time>2022-06-19T08:59:44Z</time>
      </trkpt>
      <trkpt lat="42.7695250" lon="-8.6535300">
        <ele>19.2</ele>
        <time>2022-06-19T08:59:45Z</time>
      </trkpt>
      <trkpt lat="42.7695510" lon="-8.6535080">
        <ele>19.2</ele>
        <time>2022-06-19T08:59:46Z</time>
      </trkpt>
      <trkpt lat="42.7695760" lon="-8.6534810">
        <ele>19.2</ele>
        <time>2022-06-19T08:59:47Z</time>
      </trkpt>
      <trkpt lat="42.7696050" lon="-8.6534510">
        <ele>18.6</ele>
        <time>2022-06-19T08:59:48Z</time>
      </trkpt>
      <trkpt lat="42.7696300" lon="-8.6534200">
        <ele>18.6</ele>
        <time>2022-06-19T08:59:49Z</time>
      </trkpt>
      <trkpt lat="42.7696550" lon="-8.6533880">
        <ele>18.6</ele>
        <time>2022-06-19T08:59:50Z</time>
      </trkpt>
      <trkpt lat="42.7696760" lon="-8.6533530">
        <ele>18.6</ele>
        <time>2022-06-19T08:59:51Z</time>
      </trkpt>
      <trkpt lat="42.7697000" lon="-8.6533200">
        <ele>19.0</ele>
        <time>2022-06-19T08:59:52Z</time>
      </trkpt>
      <trkpt lat="42.7697250" lon="-8.6532850">
        <ele>19.0</ele>
        <time>2022-06-19T08:59:53Z</time>
      </trkpt>
      <trkpt lat="42.7697510" lon="-8.6532510">
        <ele>19.0</ele>
        <time>2022-06-19T08:59:54Z</time>
      </trkpt>
      <trkpt lat="42.7697760" lon="-8.6532180">
        <ele>19.0</ele>
        <time>2022-06-19T08:59:55Z</time>
      </trkpt>
      <trkpt lat="42.7697980" lon="-8.6531830">
        <ele>19.6</ele>
        <time>2022-06-19T08:59:56Z</time>
      </trkpt>
      <trkpt lat="42.7698200" lon="-8.6531530">
        <ele>19.6</ele>
        <time>2022-06-19T08:59:57Z</time>
      </trkpt>
      <trkpt lat="42.7698450" lon="-8.6531280">
        <ele>19.6</ele>
        <time>2022-06-19T08:59:58Z</time>
      </trkpt>
      <trkpt lat="42.7698710" lon="-8.6531130">
        <ele>20.0</ele>
        <time>2022-06-19T08:59:59Z</time>
      </trkpt>
      <trkpt lat="42.7698980" lon="-8.6531130">
        <ele>19.4</ele>
        <time>2022-06-19T09:00:00Z</time>
      </trkpt>
      <trkpt lat="42.7699260" lon="-8.6531310">
        <ele>19.4</ele>
        <time>2022-06-19T09:00:01Z</time>
      </trkpt>
      <trkpt lat="42.7699530" lon="-8.6531560">
        <ele>19.4</ele>
        <time>2022-06-19T09:00:02Z</time>
      </trkpt>
      <trkpt lat="42.7699800" lon="-8.6531810">
        <ele>19.4</ele>
        <time>2022-06-19T09:00:03Z</time>
      </trkpt>
      <trkpt lat="42.7700060" lon="-8.6532180">
        <ele>19.6</ele>
        <time>2022-06-19T09:00:04Z</time>
      </trkpt>
      <trkpt lat="42.7700300" lon="-8.6532510">
        <ele>19.6</ele>
        <time>2022-06-19T09:00:05Z</time>
      </trkpt>
      <trkpt lat="42.7700560" lon="-8.6532860">
        <ele>19.6</ele>
        <time>2022-06-19T09:00:06Z</time>
      </trkpt>
      <trkpt lat="42.7700800" lon="-8.6533210">
        <ele>19.6</ele>
        <time>2022-06-19T09:00:07Z</time>
      </trkpt>
      <trkpt lat="42.7701050" lon="-8.6533580">
        <ele>19.6</ele>
        <time>2022-06-19T09:00:08Z</time>
      </trkpt>
      <trkpt lat="42.7701280" lon="-8.6533960">
        <ele>19.6</ele>
        <time>2022-06-19T09:00:09Z</time>
      </trkpt>
      <trkpt lat="42.7701510" lon="-8.6534310">
        <ele>19.6</ele>
        <time>2022-06-19T09:00:10Z</time>
      </trkpt>
      <trkpt lat="42.7701750" lon="-8.6534680">
        <ele>19.6</ele>
        <time>2022-06-19T09:00:11Z</time>
      </trkpt>
      <trkpt lat="42.7701960" lon="-8.6535010">
        <ele>19.4</ele>
        <time>2022-06-19T09:00:12Z</time>
      </trkpt>
      <trkpt lat="42.7702180" lon="-8.6535330">
        <ele>19.2</ele>
        <time>2022-06-19T09:00:13Z</time>
      </trkpt>
      <trkpt lat="42.7702400" lon="-8.6535660">
        <ele>19.2</ele>
        <time>2022-06-19T09:00:14Z</time>
      </trkpt>
      <trkpt lat="42.7702600" lon="-8.6535930">
        <ele>19.2</ele>
        <time>2022-06-19T09:00:15Z</time>
      </trkpt>
      <trkpt lat="42.7702830" lon="-8.6536130">
        <ele>19.2</ele>
        <time>2022-06-19T09:00:16Z</time>
      </trkpt>
      <trkpt lat="42.7703130" lon="-8.6536260">
        <ele>19.2</ele>
        <time>2022-06-19T09:00:17Z</time>
      </trkpt>
      <trkpt lat="42.7703410" lon="-8.6536380">
        <ele>19.2</ele>
        <time>2022-06-19T09:00:18Z</time>
      </trkpt>
      <trkpt lat="42.7703680" lon="-8.6536410">
        <ele>19.2</ele>
        <time>2022-06-19T09:00:19Z</time>
      </trkpt>
      <trkpt lat="42.7703910" lon="-8.6536480">
        <ele>20.2</ele>
        <time>2022-06-19T09:00:20Z</time>
      </trkpt>
      <trkpt lat="42.7704130" lon="-8.6536630">
        <ele>21.0</ele>
        <time>2022-06-19T09:00:21Z</time>
      </trkpt>
      <trkpt lat="42.7704310" lon="-8.6536830">
        <ele>21.0</ele>
        <time>2022-06-19T09:00:22Z</time>
      </trkpt>
      <trkpt lat="42.7704460" lon="-8.6537110">
        <ele>21.0</ele>
        <time>2022-06-19T09:00:23Z</time>
      </trkpt>
      <trkpt lat="42.7704550" lon="-8.6537460">
        <ele>21.0</ele>
        <time>2022-06-19T09:00:24Z</time>
      </trkpt>
      <trkpt lat="42.7704550" lon="-8.6537900">
        <ele>20.6</ele>
        <time>2022-06-19T09:00:25Z</time>
      </trkpt>
      <trkpt lat="42.7704460" lon="-8.6538310">
        <ele>20.6</ele>
        <time>2022-06-19T09:00:26Z</time>
      </trkpt>
      <trkpt lat="42.7704430" lon="-8.6538700">
        <ele>20.6</ele>
        <time>2022-06-19T09:00:27Z</time>
      </trkpt>
      <trkpt lat="42.7704300" lon="-8.6539110">
        <ele>20.6</ele>
        <time>2022-06-19T09:00:28Z</time>
      </trkpt>
      <trkpt lat="42.7704130" lon="-8.6539460">
        <ele>20.8</ele>
        <time>2022-06-19T09:00:29Z</time>
      </trkpt>
      <trkpt lat="42.7703950" lon="-8.6539810">
        <ele>20.8</ele>
        <time>2022-06-19T09:00:30Z</time>
      </trkpt>
      <trkpt lat="42.7703830" lon="-8.6540280">
        <ele>20.8</ele>
        <time>2022-06-19T09:00:31Z</time>
      </trkpt>
      <trkpt lat="42.7703780" lon="-8.6540750">
        <ele>20.8</ele>
        <time>2022-06-19T09:00:32Z</time>
      </trkpt>
      <trkpt lat="42.7703760" lon="-8.6541230">
        <ele>21.0</ele>
        <time>2022-06-19T09:00:33Z</time>
      </trkpt>
      <trkpt lat="42.7703850" lon="-8.6541610">
        <ele>21.0</ele>
        <time>2022-06-19T09:00:34Z</time>
      </trkpt>
      <trkpt lat="42.7703930" lon="-8.6541950">
        <ele>21.0</ele>
        <time>2022-06-19T09:00:35Z</time>
      </trkpt>
      <trkpt lat="42.7704150" lon="-8.6542150">
        <ele>21.0</ele>
        <time>2022-06-19T09:00:36Z</time>
      </trkpt>
      <trkpt lat="42.7704350" lon="-8.6542310">
        <ele>22.8</ele>
        <time>2022-06-19T09:00:37Z</time>
      </trkpt>
      <trkpt lat="42.7704510" lon="-8.6542410">
        <ele>22.8</ele>
        <time>2022-06-19T09:00:38Z</time>
      </trkpt>
      <trkpt lat="42.7704710" lon="-8.6542510">
        <ele>22.8</ele>
        <time>2022-06-19T09:00:39Z</time>
      </trkpt>
      <trkpt lat="42.7704900" lon="-8.6542650">
        <ele>23.8</ele>
        <time>2022-06-19T09:00:40Z</time>
      </trkpt>
      <trkpt lat="42.7705050" lon="-8.6542810">
        <ele>23.6</ele>
        <time>2022-06-19T09:00:41Z</time>
      </trkpt>
      <trkpt lat="42.7705250" lon="-8.6542960">
        <ele>23.6</ele>
        <time>2022-06-19T09:00:42Z</time>
      </trkpt>
      <trkpt lat="42.7705510" lon="-8.6543110">
        <ele>23.6</ele>
        <time>2022-06-19T09:00:43Z</time>
      </trkpt>
      <trkpt lat="42.7705810" lon="-8.6543230">
        <ele>23.6</ele>
        <time>2022-06-19T09:00:44Z</time>
      </trkpt>
      <trkpt lat="42.7706110" lon="-8.6543350">
        <ele>22.8</ele>
        <time>2022-06-19T09:00:45Z</time>
      </trkpt>
      <trkpt lat="42.7706430" lon="-8.6543480">
        <ele>22.8</ele>
        <time>2022-06-19T09:00:46Z</time>
      </trkpt>
      <trkpt lat="42.7706730" lon="-8.6543600">
        <ele>22.8</ele>
        <time>2022-06-19T09:00:47Z</time>
      </trkpt>
      <trkpt lat="42.7707000" lon="-8.6543750">
        <ele>23.8</ele>
        <time>2022-06-19T09:00:48Z</time>
      </trkpt>
      <trkpt lat="42.7707230" lon="-8.6543900">
        <ele>24.4</ele>
        <time>2022-06-19T09:00:49Z</time>
      </trkpt>
      <trkpt lat="42.7707460" lon="-8.6544080">
        <ele>24.4</ele>
        <time>2022-06-19T09:00:50Z</time>
      </trkpt>
      <trkpt lat="42.7707730" lon="-8.6544260">
        <ele>24.4</ele>
        <time>2022-06-19T09:00:51Z</time>
      </trkpt>
      <trkpt lat="42.7708000" lon="-8.6544430">
        <ele>24.4</ele>
        <time>2022-06-19T09:00:52Z</time>
      </trkpt>
      <trkpt lat="42.7708250" lon="-8.6544560">
        <ele>24.6</ele>
        <time>2022-06-19T09:00:53Z</time>
      </trkpt>
      <trkpt lat="42.7708500" lon="-8.6544680">
        <ele>24.6</ele>
        <time>2022-06-19T09:00:54Z</time>
      </trkpt>
      <trkpt lat="42.7708760" lon="-8.6544760">
        <ele>24.6</ele>
        <time>2022-06-19T09:00:55Z</time>
      </trkpt>
      <trkpt lat="42.7709060" lon="-8.6544850">
        <ele>25.2</ele>
        <time>2022-06-19T09:00:56Z</time>
      </trkpt>
      <trkpt lat="42.7709360" lon="-8.6544980">
        <ele>25.0</ele>
        <time>2022-06-19T09:00:57Z</time>
      </trkpt>
      <trkpt lat="42.7709650" lon="-8.6545100">
        <ele>25.0</ele>
        <time>2022-06-19T09:00:58Z</time>
      </trkpt>
      <trkpt lat="42.7709930" lon="-8.6545200">
        <ele>25.0</ele>
        <time>2022-06-19T09:00:59Z</time>
      </trkpt>
      <trkpt lat="42.7710230" lon="-8.6545300">
        <ele>25.4</ele>
        <time>2022-06-19T09:01:00Z</time>
      </trkpt>
      <trkpt lat="42.7710550" lon="-8.6545380">
        <ele>25.6</ele>
        <time>2022-06-19T09:01:01Z</time>
      </trkpt>
      <trkpt lat="42.7710850" lon="-8.6545460">
        <ele>25.6</ele>
        <time>2022-06-19T09:01:02Z</time>
      </trkpt>
      <trkpt lat="42.7711110" lon="-8.6545560">
        <ele>25.6</ele>
        <time>2022-06-19T09:01:03Z</time>
      </trkpt>
      <trkpt lat="42.7711360" lon="-8.6545650">
        <ele>25.6</ele>
        <time>2022-06-19T09:01:04Z</time>
      </trkpt>
      <trkpt lat="42.7711650" lon="-8.6545710">
        <ele>26.0</ele>
        <time>2022-06-19T09:01:05Z</time>
      </trkpt>
      <trkpt lat="42.7711930" lon="-8.6545730">
        <ele>26.0</ele>
        <time>2022-06-19T09:01:06Z</time>
      </trkpt>
      <trkpt lat="42.7712250" lon="-8.6545700">
        <ele>26.0</ele>
        <time>2022-06-19T09:01:07Z</time>
      </trkpt>
      <trkpt lat="42.7712560" lon="-8.6545530">
        <ele>26.0</ele>
        <time>2022-06-19T09:01:08Z</time>
      </trkpt>
      <trkpt lat="42.7712700" lon="-8.6545050">
        <ele>24.6</ele>
        <time>2022-06-19T09:01:09Z</time>
      </trkpt>
      <trkpt lat="42.7712710" lon="-8.6544460">
        <ele>24.6</ele>
        <time>2022-06-19T09:01:10Z</time>
      </trkpt>
      <trkpt lat="42.7712650" lon="-8.6543880">
        <ele>24.6</ele>
        <time>2022-06-19T09:01:11Z</time>
      </trkpt>
      <trkpt lat="42.7712600" lon="-8.6543280">
        <ele>24.6</ele>
        <time>2022-06-19T09:01:12Z</time>
      </trkpt>
      <trkpt lat="42.7712580" lon="-8.6542680">
        <ele>24.6</ele>
        <time>2022-06-19T09:01:13Z</time>
      </trkpt>
      <trkpt lat="42.7712610" lon="-8.6542080">
        <ele>24.6</ele>
        <time>2022-06-19T09:01:14Z</time>
      </trkpt>
      <trkpt lat="42.7712780" lon="-8.6541500">
        <ele>24.6</ele>
        <time>2022-06-19T09:01:15Z</time>
      </trkpt>
      <trkpt lat="42.7713110" lon="-8.6541160">
        <ele>24.6</ele>
        <time>2022-06-19T09:01:16Z</time>
      </trkpt>
      <trkpt lat="42.7713500" lon="-8.6540980">
        <ele>24.4</ele>
        <time>2022-06-19T09:01:17Z</time>
      </trkpt>
      <trkpt lat="42.7713860" lon="-8.6540860">
        <ele>24.4</ele>
        <time>2022-06-19T09:01:18Z</time>
      </trkpt>
      <trkpt lat="42.7714250" lon="-8.6540750">
        <ele>24.4</ele>
        <time>2022-06-19T09:01:19Z</time>
      </trkpt>
      <trkpt lat="42.7714600" lon="-8.6540680">
        <ele>24.6</ele>
        <time>2022-06-19T09:01:20Z</time>
      </trkpt>
      <trkpt lat="42.7714960" lon="-8.6540610">
        <ele>24.8</ele>
        <time>2022-06-19T09:01:21Z</time>
      </trkpt>
      <trkpt lat="42.7715330" lon="-8.6540530">
        <ele>24.8</ele>
        <time>2022-06-19T09:01:22Z</time>
      </trkpt>
      <trkpt lat="42.7715700" lon="-8.6540480">
        <ele>24.8</ele>
        <time>2022-06-19T09:01:23Z</time>
      </trkpt>
      <trkpt lat="42.7716060" lon="-8.6540430">
        <ele>25.0</ele>
        <time>2022-06-19T09:01:24Z</time>
      </trkpt>
      <trkpt lat="42.7716430" lon="-8.6540330">
        <ele>25.0</ele>
        <time>2022-06-19T09:01:25Z</time>
      </trkpt>
      <trkpt lat="42.7716780" lon="-8.6540230">
        <ele>25.0</ele>
        <time>2022-06-19T09:01:26Z</time>
      </trkpt>
      <trkpt lat="42.7717150" lon="-8.6540130">
        <ele>25.0</ele>
        <time>2022-06-19T09:01:27Z</time>
      </trkpt>
      <trkpt lat="42.7717500" lon="-8.6540050">
        <ele>26.0</ele>
        <time>2022-06-19T09:01:28Z</time>
      </trkpt>
      <trkpt lat="42.7717850" lon="-8.6539960">
        <ele>25.6</ele>
        <time>2022-06-19T09:01:29Z</time>
      </trkpt>
      <trkpt lat="42.7718200" lon="-8.6539900">
        <ele>25.6</ele>
        <time>2022-06-19T09:01:30Z</time>
      </trkpt>
      <trkpt lat="42.7718550" lon="-8.6539830">
        <ele>25.6</ele>
        <time>2022-06-19T09:01:31Z</time>
      </trkpt>
      <trkpt lat="42.7718910" lon="-8.6539760">
        <ele>25.8</ele>
        <time>2022-06-19T09:01:32Z</time>
      </trkpt>
      <trkpt lat="42.7719280" lon="-8.6539700">
        <ele>26.0</ele>
        <time>2022-06-19T09:01:33Z</time>
      </trkpt>
      <trkpt lat="42.7719660" lon="-8.6539630">
        <ele>26.0</ele>
        <time>2022-06-19T09:01:34Z</time>
      </trkpt>
      <trkpt lat="42.7720060" lon="-8.6539550">
        <ele>26.0</ele>
        <time>2022-06-19T09:01:35Z</time>
      </trkpt>
      <trkpt lat="42.7720450" lon="-8.6539480">
        <ele>26.0</ele>
        <time>2022-06-19T09:01:36Z</time>
      </trkpt>
      <trkpt lat="42.7720850" lon="-8.6539410">
        <ele>26.4</ele>
        <time>2022-06-19T09:01:37Z</time>
      </trkpt>
      <trkpt lat="42.7721250" lon="-8.6539350">
        <ele>26.4</ele>
        <time>2022-06-19T09:01:38Z</time>
      </trkpt>
      <trkpt lat="42.7721630" lon="-8.6539250">
        <ele>26.4</ele>
        <time>2022-06-19T09:01:39Z</time>
      </trkpt>
      <trkpt lat="42.7722000" lon="-8.6539180">
        <ele>26.6</ele>
        <time>2022-06-19T09:01:40Z</time>
      </trkpt>
      <trkpt lat="42.7722360" lon="-8.6539100">
        <ele>26.2</ele>
        <time>2022-06-19T09:01:41Z</time>
      </trkpt>
      <trkpt lat="42.7722750" lon="-8.6539010">
        <ele>26.2</ele>
        <time>2022-06-19T09:01:42Z</time>
      </trkpt>
      <trkpt lat="42.7723110" lon="-8.6538910">
        <ele>26.2</ele>
        <time>2022-06-19T09:01:43Z</time>
      </trkpt>
      <trkpt lat="42.7723480" lon="-8.6538850">
        <ele>27.2</ele>
        <time>2022-06-19T09:01:44Z</time>
      </trkpt>
      <trkpt lat="42.7723830" lon="-8.6538750">
        <ele>27.4</ele>
        <time>2022-06-19T09:01:45Z</time>
      </trkpt>
      <trkpt lat="42.7724160" lon="-8.6538660">
        <ele>27.4</ele>
        <time>2022-06-19T09:01:46Z</time>
      </trkpt>
      <trkpt lat="42.7724500" lon="-8.6538580">
        <ele>27.4</ele>
        <time>2022-06-19T09:01:47Z</time>
      </trkpt>
      <trkpt lat="42.7724830" lon="-8.6538510">
        <ele>27.6</ele>
        <time>2022-06-19T09:01:48Z</time>
      </trkpt>
      <trkpt lat="42.7725180" lon="-8.6538430">
        <ele>29.0</ele>
        <time>2022-06-19T09:01:49Z</time>
      </trkpt>
      <trkpt lat="42.7725510" lon="-8.6538360">
        <ele>29.0</ele>
        <time>2022-06-19T09:01:50Z</time>
      </trkpt>
      <trkpt lat="42.7725850" lon="-8.6538310">
        <ele>29.0</ele>
        <time>2022-06-19T09:01:51Z</time>
      </trkpt>
      <trkpt lat="42.7726180" lon="-8.6538250">
        <ele>28.4</ele>
        <time>2022-06-19T09:01:52Z</time>
      </trkpt>
      <trkpt lat="42.7726510" lon="-8.6538180">
        <ele>28.8</ele>
        <time>2022-06-19T09:01:53Z</time>
      </trkpt>
      <trkpt lat="42.7726850" lon="-8.6538110">
        <ele>28.8</ele>
        <time>2022-06-19T09:01:54Z</time>
      </trkpt>
      <trkpt lat="42.7727180" lon="-8.6538030">
        <ele>28.8</ele>
        <time>2022-06-19T09:01:55Z</time>
      </trkpt>
      <trkpt lat="42.7727530" lon="-8.6537980">
        <ele>28.8</ele>
        <time>2022-06-19T09:01:56Z</time>
      </trkpt>
      <trkpt lat="42.7727860" lon="-8.6537930">
        <ele>29.2</ele>
        <time>2022-06-19T09:01:57Z</time>
      </trkpt>
      <trkpt lat="42.7728200" lon="-8.6537860">
        <ele>29.2</ele>
        <time>2022-06-19T09:01:58Z</time>
      </trkpt>
      <trkpt lat="42.7728510" lon="-8.6537800">
        <ele>29.2</ele>
        <time>2022-06-19T09:01:59Z</time>
      </trkpt>
      <trkpt lat="42.7728830" lon="-8.6537730">
        <ele>29.2</ele>
        <time>2022-06-19T09:02:00Z</time>
      </trkpt>
      <trkpt lat="42.7729160" lon="-8.6537660">
        <ele>30.0</ele>
        <time>2022-06-19T09:02:01Z</time>
      </trkpt>
      <trkpt lat="42.7729480" lon="-8.6537580">
        <ele>30.0</ele>
        <time>2022-06-19T09:02:02Z</time>
      </trkpt>
      <trkpt lat="42.7729800" lon="-8.6537530">
        <ele>30.0</ele>
        <time>2022-06-19T09:02:03Z</time>
      </trkpt>
      <trkpt lat="42.7730110" lon="-8.6537460">
        <ele>30.0</ele>
        <time>2022-06-19T09:02:04Z</time>
      </trkpt>
      <trkpt lat="42.7730460" lon="-8.6537410">
        <ele>30.0</ele>
        <time>2022-06-19T09:02:05Z</time>
      </trkpt>
      <trkpt lat="42.7730800" lon="-8.6537360">
        <ele>30.0</ele>
        <time>2022-06-19T09:02:06Z</time>
      </trkpt>
      <trkpt lat="42.7731110" lon="-8.6537300">
        <ele>30.0</ele>
        <time>2022-06-19T09:02:07Z</time>
      </trkpt>
      <trkpt lat="42.7731450" lon="-8.6537200">
        <ele>30.0</ele>
        <time>2022-06-19T09:02:08Z</time>
      </trkpt>
      <trkpt lat="42.7731760" lon="-8.6537130">
        <ele>30.8</ele>
        <time>2022-06-19T09:02:09Z</time>
      </trkpt>
      <trkpt lat="42.7732100" lon="-8.6537060">
        <ele>30.8</ele>
        <time>2022-06-19T09:02:10Z</time>
      </trkpt>
      <trkpt lat="42.7732430" lon="-8.6537000">
        <ele>30.8</ele>
        <time>2022-06-19T09:02:11Z</time>
      </trkpt>
      <trkpt lat="42.7732750" lon="-8.6536930">
        <ele>30.6</ele>
        <time>2022-06-19T09:02:12Z</time>
      </trkpt>
      <trkpt lat="42.7733080" lon="-8.6536830">
        <ele>30.8</ele>
        <time>2022-06-19T09:02:13Z</time>
      </trkpt>
      <trkpt lat="42.7733410" lon="-8.6536730">
        <ele>30.8</ele>
        <time>2022-06-19T09:02:14Z</time>
      </trkpt>
      <trkpt lat="42.7733750" lon="-8.6536650">
        <ele>30.8</ele>
        <time>2022-06-19T09:02:15Z</time>
      </trkpt>
      <trkpt lat="42.7734100" lon="-8.6536580">
        <ele>30.8</ele>
        <time>2022-06-19T09:02:16Z</time>
      </trkpt>
      <trkpt lat="42.7734430" lon="-8.6536510">
        <ele>30.6</ele>
        <time>2022-06-19T09:02:17Z</time>
      </trkpt>
      <trkpt lat="42.7734760" lon="-8.6536450">
        <ele>30.6</ele>
        <time>2022-06-19T09:02:18Z</time>
      </trkpt>
      <trkpt lat="42.7735100" lon="-8.6536380">
        <ele>30.6</ele>
        <time>2022-06-19T09:02:19Z</time>
      </trkpt>
      <trkpt lat="42.7735450" lon="-8.6536300">
        <ele>30.8</ele>
        <time>2022-06-19T09:02:20Z</time>
      </trkpt>
      <trkpt lat="42.7735760" lon="-8.6536210">
        <ele>31.2</ele>
        <time>2022-06-19T09:02:21Z</time>
      </trkpt>
      <trkpt lat="42.7736080" lon="-8.6536160">
        <ele>31.2</ele>
        <time>2022-06-19T09:02:22Z</time>
      </trkpt>
      <trkpt lat="42.7736400" lon="-8.6536110">
        <ele>31.2</ele>
        <time>2022-06-19T09:02:23Z</time>
      </trkpt>
      <trkpt lat="42.7736700" lon="-8.6536100">
        <ele>31.2</ele>
        <time>2022-06-19T09:02:24Z</time>
      </trkpt>
      <trkpt lat="42.7737010" lon="-8.6536050">
        <ele>31.4</ele>
        <time>2022-06-19T09:02:25Z</time>
      </trkpt>
      <trkpt lat="42.7737350" lon="-8.6535980">
        <ele>31.4</ele>
        <time>2022-06-19T09:02:26Z</time>
      </trkpt>
      <trkpt lat="42.7737660" lon="-8.6535910">
        <ele>31.4</ele>
        <time>2022-06-19T09:02:27Z</time>
      </trkpt>
      <trkpt lat="42.7738000" lon="-8.6535860">
        <ele>31.8</ele>
        <time>2022-06-19T09:02:28Z</time>
      </trkpt>
      <trkpt lat="42.7738280" lon="-8.6535910">
        <ele>32.2</ele>
        <time>2022-06-19T09:02:29Z</time>
      </trkpt>
      <trkpt lat="42.7738510" lon="-8.6536110">
        <ele>32.2</ele>
        <time>2022-06-19T09:02:30Z</time>
      </trkpt>
      <trkpt lat="42.7738700" lon="-8.6536410">
        <ele>32.2</ele>
        <time>2022-06-19T09:02:31Z</time>
      </trkpt>
      <trkpt lat="42.7738860" lon="-8.6536780">
        <ele>32.2</ele>
        <time>2022-06-19T09:02:32Z</time>
      </trkpt>
      <trkpt lat="42.7738980" lon="-8.6537200">
        <ele>31.6</ele>
        <time>2022-06-19T09:02:33Z</time>
      </trkpt>
      <trkpt lat="42.7739080" lon="-8.6537650">
        <ele>31.6</ele>
        <time>2022-06-19T09:02:34Z</time>
      </trkpt>
      <trkpt lat="42.7739180" lon="-8.6538110">
        <ele>31.6</ele>
        <time>2022-06-19T09:02:35Z</time>
      </trkpt>
      <trkpt lat="42.7739260" lon="-8.6538630">
        <ele>31.6</ele>
        <time>2022-06-19T09:02:36Z</time>
      </trkpt>
      <trkpt lat="42.7739360" lon="-8.6539110">
        <ele>31.6</ele>
        <time>2022-06-19T09:02:37Z</time>
      </trkpt>
      <trkpt lat="42.7739410" lon="-8.6539580">
        <ele>31.6</ele>
        <time>2022-06-19T09:02:38Z</time>
      </trkpt>
      <trkpt lat="42.7739510" lon="-8.6540010">
        <ele>31.6</ele>
        <time>2022-06-19T09:02:39Z</time>
      </trkpt>
      <trkpt lat="42.7739700" lon="-8.6540380">
        <ele>31.8</ele>
        <time>2022-06-19T09:02:40Z</time>
      </trkpt>
      <trkpt lat="42.7739980" lon="-8.6540660">
        <ele>32.2</ele>
        <time>2022-06-19T09:02:41Z</time>
      </trkpt>
      <trkpt lat="42.7740350" lon="-8.6540800">
        <ele>32.2</ele>
        <time>2022-06-19T09:02:42Z</time>
      </trkpt>
      <trkpt lat="42.7740760" lon="-8.6540830">
        <ele>32.2</ele>
        <time>2022-06-19T09:02:43Z</time>
      </trkpt>
      <trkpt lat="42.7741180" lon="-8.6540800">
        <ele>31.8</ele>
        <time>2022-06-19T09:02:44Z</time>
      </trkpt>
      <trkpt lat="42.7741610" lon="-8.6540780">
        <ele>32.0</ele>
        <time>2022-06-19T09:02:45Z</time>
      </trkpt>
      <trkpt lat="42.7742050" lon="-8.6540750">
        <ele>32.0</ele>
        <time>2022-06-19T09:02:46Z</time>
      </trkpt>
      <trkpt lat="42.7742500" lon="-8.6540700">
        <ele>32.0</ele>
        <time>2022-06-19T09:02:47Z</time>
      </trkpt>
      <trkpt lat="42.7742930" lon="-8.6540630">
        <ele>32.2</ele>
        <time>2022-06-19T09:02:48Z</time>
      </trkpt>
      <trkpt lat="42.7743410" lon="-8.6540510">
        <ele>32.2</ele>
        <time>2022-06-19T09:02:49Z</time>
      </trkpt>
      <trkpt lat="42.7743850" lon="-8.6540380">
        <ele>32.2</ele>
        <time>2022-06-19T09:02:50Z</time>
      </trkpt>
      <trkpt lat="42.7744280" lon="-8.6540260">
        <ele>32.2</ele>
        <time>2022-06-19T09:02:51Z</time>
      </trkpt>
      <trkpt lat="42.7744710" lon="-8.6540150">
        <ele>32.2</ele>
        <time>2022-06-19T09:02:52Z</time>
      </trkpt>
      <trkpt lat="42.7745150" lon="-8.6540050">
        <ele>32.8</ele>
        <time>2022-06-19T09:02:53Z</time>
      </trkpt>
      <trkpt lat="42.7745580" lon="-8.6539950">
        <ele>32.8</ele>
        <time>2022-06-19T09:02:54Z</time>
      </trkpt>
      <trkpt lat="42.7746000" lon="-8.6539900">
        <ele>32.8</ele>
        <time>2022-06-19T09:02:55Z</time>
      </trkpt>
      <trkpt lat="42.7746410" lon="-8.6539860">
        <ele>32.8</ele>
        <time>2022-06-19T09:02:56Z</time>
      </trkpt>
      <trkpt lat="42.7746830" lon="-8.6539810">
        <ele>33.6</ele>
        <time>2022-06-19T09:02:57Z</time>
      </trkpt>
      <trkpt lat="42.7747250" lon="-8.6539730">
        <ele>33.6</ele>
        <time>2022-06-19T09:02:58Z</time>
      </trkpt>
      <trkpt lat="42.7747650" lon="-8.6539630">
        <ele>33.6</ele>
        <time>2022-06-19T09:02:59Z</time>
      </trkpt>
      <trkpt lat="42.7748030" lon="-8.6539550">
        <ele>33.6</ele>
        <time>2022-06-19T09:03:00Z</time>
      </trkpt>
      <trkpt lat="42.7748410" lon="-8.6539480">
        <ele>34.2</ele>
        <time>2022-06-19T09:03:01Z</time>
      </trkpt>
      <trkpt lat="42.7748810" lon="-8.6539400">
        <ele>34.2</ele>
        <time>2022-06-19T09:03:02Z</time>
      </trkpt>
      <trkpt lat="42.7749200" lon="-8.6539350">
        <ele>34.2</ele>
        <time>2022-06-19T09:03:03Z</time>
      </trkpt>
      <trkpt lat="42.7749600" lon="-8.6539280">
        <ele>33.4</ele>
        <time>2022-06-19T09:03:04Z</time>
      </trkpt>
      <trkpt lat="42.7750000" lon="-8.6539230">
        <ele>34.0</ele>
        <time>2022-06-19T09:03:05Z</time>
      </trkpt>
      <trkpt lat="42.7750380" lon="-8.6539200">
        <ele>34.0</ele>
        <time>2022-06-19T09:03:06Z</time>
      </trkpt>
      <trkpt lat="42.7750780" lon="-8.6539110">
        <ele>34.0</ele>
        <time>2022-06-19T09:03:07Z</time>
      </trkpt>
      <trkpt lat="42.7751180" lon="-8.6539030">
        <ele>33.8</ele>
        <time>2022-06-19T09:03:08Z</time>
      </trkpt>
      <trkpt lat="42.7751610" lon="-8.6538960">
        <ele>33.6</ele>
        <time>2022-06-19T09:03:09Z</time>
      </trkpt>
      <trkpt lat="42.7752030" lon="-8.6538930">
        <ele>33.6</ele>
        <time>2022-06-19T09:03:10Z</time>
      </trkpt>
      <trkpt lat="42.7752460" lon="-8.6538910">
        <ele>33.6</ele>
        <time>2022-06-19T09:03:11Z</time>
      </trkpt>
      <trkpt lat="42.7752900" lon="-8.6538860">
        <ele>33.4</ele>
        <time>2022-06-19T09:03:12Z</time>
      </trkpt>
      <trkpt lat="42.7753350" lon="-8.6538810">
        <ele>32.2</ele>
        <time>2022-06-19T09:03:13Z</time>
      </trkpt>
      <trkpt lat="42.7753800" lon="-8.6538760">
        <ele>32.2</ele>
        <time>2022-06-19T09:03:14Z</time>
      </trkpt>
      <trkpt lat="42.7754260" lon="-8.6538660">
        <ele>32.2</ele>
        <time>2022-06-19T09:03:15Z</time>
      </trkpt>
      <trkpt lat="42.7754730" lon="-8.6538580">
        <ele>32.2</ele>
        <time>2022-06-19T09:03:16Z</time>
      </trkpt>
      <trkpt lat="42.7755210" lon="-8.6538510">
        <ele>32.4</ele>
        <time>2022-06-19T09:03:17Z</time>
      </trkpt>
      <trkpt lat="42.7755700" lon="-8.6538410">
        <ele>32.4</ele>
        <time>2022-06-19T09:03:18Z</time>
      </trkpt>
      <trkpt lat="42.7756160" lon="-8.6538310">
        <ele>32.4</ele>
        <time>2022-06-19T09:03:19Z</time>
      </trkpt>
      <trkpt lat="42.7756610" lon="-8.6538250">
        <ele>32.4</ele>
        <time>2022-06-19T09:03:20Z</time>
      </trkpt>
      <trkpt lat="42.7757060" lon="-8.6538210">
        <ele>31.8</ele>
        <time>2022-06-19T09:03:21Z</time>
      </trkpt>
      <trkpt lat="42.7757550" lon="-8.6538130">
        <ele>31.8</ele>
        <time>2022-06-19T09:03:22Z</time>
      </trkpt>
      <trkpt lat="42.7758010" lon="-8.6538060">
        <ele>31.8</ele>
        <time>2022-06-19T09:03:23Z</time>
      </trkpt>
      <trkpt lat="42.7758460" lon="-8.6537980">
        <ele>31.8</ele>
        <time>2022-06-19T09:03:24Z</time>
      </trkpt>
      <trkpt lat="42.7758910" lon="-8.6537910">
        <ele>31.6</ele>
        <time>2022-06-19T09:03:25Z</time>
      </trkpt>
      <trkpt lat="42.7759360" lon="-8.6537880">
        <ele>31.6</ele>
        <time>2022-06-19T09:03:26Z</time>
      </trkpt>
      <trkpt lat="42.7759810" lon="-8.6537830">
        <ele>31.6</ele>
        <time>2022-06-19T09:03:27Z</time>
      </trkpt>
      <trkpt lat="42.7760250" lon="-8.6537730">
        <ele>31.4</ele>
        <time>2022-06-19T09:03:28Z</time>
      </trkpt>
      <trkpt lat="42.7760680" lon="-8.6537630">
        <ele>31.2</ele>
        <time>2022-06-19T09:03:29Z</time>
      </trkpt>
      <trkpt lat="42.7761060" lon="-8.6537580">
        <ele>31.2</ele>
        <time>2022-06-19T09:03:30Z</time>
      </trkpt>
      <trkpt lat="42.7761480" lon="-8.6537630">
        <ele>31.2</ele>
        <time>2022-06-19T09:03:31Z</time>
      </trkpt>
      <trkpt lat="42.7761860" lon="-8.6537710">
        <ele>31.8</ele>
        <time>2022-06-19T09:03:32Z</time>
      </trkpt>
      <trkpt lat="42.7762210" lon="-8.6537780">
        <ele>31.8</ele>
        <time>2022-06-19T09:03:33Z</time>
      </trkpt>
      <trkpt lat="42.7762550" lon="-8.6537860">
        <ele>31.8</ele>
        <time>2022-06-19T09:03:34Z</time>
      </trkpt>
      <trkpt lat="42.7762880" lon="-8.6537900">
        <ele>31.8</ele>
        <time>2022-06-19T09:03:35Z</time>
      </trkpt>
      <trkpt lat="42.7763260" lon="-8.6537850">
        <ele>30.8</ele>
        <time>2022-06-19T09:03:36Z</time>
      </trkpt>
      <trkpt lat="42.7763600" lon="-8.6537680">
        <ele>31.2</ele>
        <time>2022-06-19T09:03:37Z</time>
      </trkpt>
      <trkpt lat="42.7763910" lon="-8.6537530">
        <ele>31.2</ele>
        <time>2022-06-19T09:03:38Z</time>
      </trkpt>
      <trkpt lat="42.7764110" lon="-8.6537350">
        <ele>31.2</ele>
        <time>2022-06-19T09:03:39Z</time>
      </trkpt>
      <trkpt lat="42.7764350" lon="-8.6537230">
        <ele>31.2</ele>
        <time>2022-06-19T09:03:40Z</time>
      </trkpt>
      <trkpt lat="42.7764660" lon="-8.6537100">
        <ele>32.2</ele>
        <time>2022-06-19T09:03:41Z</time>
      </trkpt>
      <trkpt lat="42.7764960" lon="-8.6536980">
        <ele>32.2</ele>
        <time>2022-06-19T09:03:42Z</time>
      </trkpt>
      <trkpt lat="42.7765210" lon="-8.6536880">
        <ele>32.2</ele>
        <time>2022-06-19T09:03:43Z</time>
      </trkpt>
      <trkpt lat="42.7765480" lon="-8.6536750">
        <ele>31.6</ele>
        <time>2022-06-19T09:03:44Z</time>
      </trkpt>
      <trkpt lat="42.7765730" lon="-8.6536630">
        <ele>31.6</ele>
        <time>2022-06-19T09:03:45Z</time>
      </trkpt>
      <trkpt lat="42.7766100" lon="-8.6536500">
        <ele>31.6</ele>
        <time>2022-06-19T09:03:46Z</time>
      </trkpt>
      <trkpt lat="42.7766500" lon="-8.6536330">
        <ele>31.6</ele>
        <time>2022-06-19T09:03:47Z</time>
      </trkpt>
      <trkpt lat="42.7766900" lon="-8.6536230">
        <ele>31.2</ele>
        <time>2022-06-19T09:03:48Z</time>
      </trkpt>
      <trkpt lat="42.7767310" lon="-8.6536200">
        <ele>30.0</ele>
        <time>2022-06-19T09:03:49Z</time>
      </trkpt>
      <trkpt lat="42.7767730" lon="-8.6536300">
        <ele>30.0</ele>
        <time>2022-06-19T09:03:50Z</time>
      </trkpt>
      <trkpt lat="42.7768250" lon="-8.6536430">
        <ele>30.0</ele>
        <time>2022-06-19T09:03:51Z</time>
      </trkpt>
      <trkpt lat="42.7768880" lon="-8.6536630">
        <ele>29.0</ele>
        <time>2022-06-19T09:03:52Z</time>
      </trkpt>
      <trkpt lat="42.7769550" lon="-8.6536880">
        <ele>27.8</ele>
        <time>2022-06-19T09:03:53Z</time>
      </trkpt>
      <trkpt lat="42.7770210" lon="-8.6537060">
        <ele>27.8</ele>
        <time>2022-06-19T09:03:54Z</time>
      </trkpt>
      <trkpt lat="42.7770850" lon="-8.6537250">
        <ele>27.8</ele>
        <time>2022-06-19T09:03:55Z</time>
      </trkpt>
      <trkpt lat="42.7771380" lon="-8.6537500">
        <ele>27.2</ele>
        <time>2022-06-19T09:03:56Z</time>
      </trkpt>
      <trkpt lat="42.7771800" lon="-8.6537810">
        <ele>27.0</ele>
        <time>2022-06-19T09:03:57Z</time>
      </trkpt>
      <trkpt lat="42.7772160" lon="-8.6538210">
        <ele>27.0</ele>
        <time>2022-06-19T09:03:58Z</time>
      </trkpt>
      <trkpt lat="42.7772550" lon="-8.6538800">
        <ele>27.0</ele>
        <time>2022-06-19T09:03:59Z</time>
      </trkpt>
      <trkpt lat="42.7772880" lon="-8.6539280">
        <ele>26.0</ele>
        <time>2022-06-19T09:04:00Z</time>
      </trkpt>
      <trkpt lat="42.7773250" lon="-8.6539650">
        <ele>25.6</ele>
        <time>2022-06-19T09:04:01Z</time>
      </trkpt>
      <trkpt lat="42.7773560" lon="-8.6539880">
        <ele>25.6</ele>
        <time>2022-06-19T09:04:02Z</time>
      </trkpt>
      <trkpt lat="42.7773910" lon="-8.6539960">
        <ele>25.6</ele>
        <time>2022-06-19T09:04:03Z</time>
      </trkpt>
      <trkpt lat="42.7774250" lon="-8.6539810">
        <ele>25.6</ele>
        <time>2022-06-19T09:04:04Z</time>
      </trkpt>
      <trkpt lat="42.7774460" lon="-8.6539460">
        <ele>25.6</ele>
        <time>2022-06-19T09:04:05Z</time>
      </trkpt>
      <trkpt lat="42.7774630" lon="-8.6539130">
        <ele>25.6</ele>
        <time>2022-06-19T09:04:06Z</time>
      </trkpt>
      <trkpt lat="42.7774850" lon="-8.6538850">
        <ele>25.6</ele>
        <time>2022-06-19T09:04:07Z</time>
      </trkpt>
      <trkpt lat="42.7775100" lon="-8.6538530">
        <ele>25.6</ele>
        <time>2022-06-19T09:04:08Z</time>
      </trkpt>
      <trkpt lat="42.7775410" lon="-8.6538200">
        <ele>26.0</ele>
        <time>2022-06-19T09:04:09Z</time>
      </trkpt>
      <trkpt lat="42.7775710" lon="-8.6537930">
        <ele>26.0</ele>
        <time>2022-06-19T09:04:10Z</time>
      </trkpt>
      <trkpt lat="42.7776050" lon="-8.6537650">
        <ele>26.0</ele>
        <time>2022-06-19T09:04:11Z</time>
      </trkpt>
      <trkpt lat="42.7776400" lon="-8.6537380">
        <ele>25.2</ele>
        <time>2022-06-19T09:04:12Z</time>
      </trkpt>
      <trkpt lat="42.7776760" lon="-8.6537130">
        <ele>26.0</ele>
        <time>2022-06-19T09:04:13Z</time>
      </trkpt>
      <trkpt lat="42.7777130" lon="-8.6536860">
        <ele>26.0</ele>
        <time>2022-06-19T09:04:14Z</time>
      </trkpt>
      <trkpt lat="42.7777550" lon="-8.6536530">
        <ele>26.0</ele>
        <time>2022-06-19T09:04:15Z</time>
      </trkpt>
      <trkpt lat="42.7777910" lon="-8.6536200">
        <ele>26.4</ele>
        <time>2022-06-19T09:04:16Z</time>
      </trkpt>
      <trkpt lat="42.7778250" lon="-8.6535860">
        <ele>26.2</ele>
        <time>2022-06-19T09:04:17Z</time>
      </trkpt>
      <trkpt lat="42.7778580" lon="-8.6535510">
        <ele>26.2</ele>
        <time>2022-06-19T09:04:18Z</time>
      </trkpt>
      <trkpt lat="42.7778930" lon="-8.6535250">
        <ele>26.2</ele>
        <time>2022-06-19T09:04:19Z</time>
      </trkpt>
      <trkpt lat="42.7779310" lon="-8.6535030">
        <ele>27.0</ele>
        <time>2022-06-19T09:04:20Z</time>
      </trkpt>
      <trkpt lat="42.7779710" lon="-8.6534850">
        <ele>26.2</ele>
        <time>2022-06-19T09:04:21Z</time>
      </trkpt>
      <trkpt lat="42.7780130" lon="-8.6534710">
        <ele>26.2</ele>
        <time>2022-06-19T09:04:22Z</time>
      </trkpt>
      <trkpt lat="42.7780600" lon="-8.6534600">
        <ele>26.2</ele>
        <time>2022-06-19T09:04:23Z</time>
      </trkpt>
      <trkpt lat="42.7781100" lon="-8.6534550">
        <ele>26.2</ele>
        <time>2022-06-19T09:04:24Z</time>
      </trkpt>
      <trkpt lat="42.7781610" lon="-8.6534610">
        <ele>25.0</ele>
        <time>2022-06-19T09:04:25Z</time>
      </trkpt>
      <trkpt lat="42.7782130" lon="-8.6534810">
        <ele>25.0</ele>
        <time>2022-06-19T09:04:26Z</time>
      </trkpt>
      <trkpt lat="42.7782650" lon="-8.6535080">
        <ele>25.0</ele>
        <time>2022-06-19T09:04:27Z</time>
      </trkpt>
      <trkpt lat="42.7783200" lon="-8.6535360">
        <ele>25.0</ele>
        <time>2022-06-19T09:04:28Z</time>
      </trkpt>
      <trkpt lat="42.7783750" lon="-8.6535600">
        <ele>25.2</ele>
        <time>2022-06-19T09:04:29Z</time>
      </trkpt>
      <trkpt lat="42.7784300" lon="-8.6535710">
        <ele>25.2</ele>
        <time>2022-06-19T09:04:30Z</time>
      </trkpt>
      <trkpt lat="42.7784830" lon="-8.6535730">
        <ele>25.2</ele>
        <time>2022-06-19T09:04:31Z</time>
      </trkpt>
      <trkpt lat="42.7785300" lon="-8.6535710">
        <ele>25.2</ele>
        <time>2022-06-19T09:04:32Z</time>
      </trkpt>
      <trkpt lat="42.7785730" lon="-8.6535650">
        <ele>25.6</ele>
        <time>2022-06-19T09:04:33Z</time>
      </trkpt>
      <trkpt lat="42.7786110" lon="-8.6535630">
        <ele>25.6</ele>
        <time>2022-06-19T09:04:34Z</time>
      </trkpt>
      <trkpt lat="42.7786450" lon="-8.6535610">
        <ele>25.6</ele>
        <time>2022-06-19T09:04:35Z</time>
      </trkpt>
      <trkpt lat="42.7786710" lon="-8.6535560">
        <ele>26.6</ele>
        <time>2022-06-19T09:04:36Z</time>
      </trkpt>
      <trkpt lat="42.7786950" lon="-8.6535510">
        <ele>26.6</ele>
        <time>2022-06-19T09:04:37Z</time>
      </trkpt>
      <trkpt lat="42.7787180" lon="-8.6535410">
        <ele>26.6</ele>
        <time>2022-06-19T09:04:38Z</time>
      </trkpt>
      <trkpt lat="42.7787350" lon="-8.6535260">
        <ele>26.6</ele>
        <time>2022-06-19T09:04:39Z</time>
      </trkpt>
      <trkpt lat="42.7787550" lon="-8.6535110">
        <ele>27.6</ele>
        <time>2022-06-19T09:04:40Z</time>
      </trkpt>
      <trkpt lat="42.7787730" lon="-8.6534950">
        <ele>28.0</ele>
        <time>2022-06-19T09:04:41Z</time>
      </trkpt>
      <trkpt lat="42.7787950" lon="-8.6534780">
        <ele>28.0</ele>
        <time>2022-06-19T09:04:42Z</time>
      </trkpt>
      <trkpt lat="42.7788100" lon="-8.6534580">
        <ele>28.0</ele>
        <time>2022-06-19T09:04:43Z</time>
      </trkpt>
      <trkpt lat="42.7788260" lon="-8.6534360">
        <ele>28.0</ele>
        <time>2022-06-19T09:04:44Z</time>
      </trkpt>
      <trkpt lat="42.7788410" lon="-8.6534180">
        <ele>28.6</ele>
        <time>2022-06-19T09:04:45Z</time>
      </trkpt>
      <trkpt lat="42.7788550" lon="-8.6533950">
        <ele>28.6</ele>
        <time>2022-06-19T09:04:46Z</time>
      </trkpt>
      <trkpt lat="42.7788710" lon="-8.6533660">
        <ele>28.6</ele>
        <time>2022-06-19T09:04:47Z</time>
      </trkpt>
      <trkpt lat="42.7788880" lon="-8.6533430">
        <ele>28.6</ele>
        <time>2022-06-19T09:04:48Z</time>
      </trkpt>
      <trkpt lat="42.7789030" lon="-8.6533210">
        <ele>28.6</ele>
        <time>2022-06-19T09:04:49Z</time>
      </trkpt>
      <trkpt lat="42.7789200" lon="-8.6532980">
        <ele>28.6</ele>
        <time>2022-06-19T09:04:50Z</time>
      </trkpt>
      <trkpt lat="42.7789360" lon="-8.6532750">
        <ele>28.6</ele>
        <time>2022-06-19T09:04:51Z</time>
      </trkpt>
      <trkpt lat="42.7789560" lon="-8.6532500">
        <ele>28.6</ele>
        <time>2022-06-19T09:04:52Z</time>
      </trkpt>
      <trkpt lat="42.7789760" lon="-8.6532280">
        <ele>28.6</ele>
        <time>2022-06-19T09:04:53Z</time>
      </trkpt>
      <trkpt lat="42.7789950" lon="-8.6532030">
        <ele>28.6</ele>
        <time>2022-06-19T09:04:54Z</time>
      </trkpt>
      <trkpt lat="42.7790150" lon="-8.6531800">
        <ele>28.6</ele>
        <time>2022-06-19T09:04:55Z</time>
      </trkpt>
      <trkpt lat="42.7790350" lon="-8.6531560">
        <ele>28.6</ele>
        <time>2022-06-19T09:04:56Z</time>
      </trkpt>
      <trkpt lat="42.7790550" lon="-8.6531310">
        <ele>29.2</ele>
        <time>2022-06-19T09:04:57Z</time>
      </trkpt>
      <trkpt lat="42.7790750" lon="-8.6531050">
        <ele>29.2</ele>
        <time>2022-06-19T09:04:58Z</time>
      </trkpt>
      <trkpt lat="42.7790910" lon="-8.6530780">
        <ele>29.2</ele>
        <time>2022-06-19T09:04:59Z</time>
      </trkpt>
      <trkpt lat="42.7791100" lon="-8.6530530">
        <ele>29.8</ele>
        <time>2022-06-19T09:05:00Z</time>
      </trkpt>
      <trkpt lat="42.7791300" lon="-8.6530280">
        <ele>29.6</ele>
        <time>2022-06-19T09:05:01Z</time>
      </trkpt>
      <trkpt lat="42.7791510" lon="-8.6530030">
        <ele>29.6</ele>
        <time>2022-06-19T09:05:02Z</time>
      </trkpt>
      <trkpt lat="42.7791710" lon="-8.6529730">
        <ele>29.6</ele>
        <time>2022-06-19T09:05:03Z</time>
      </trkpt>
      <trkpt lat="42.7791930" lon="-8.6529430">
        <ele>29.6</ele>
        <time>2022-06-19T09:05:04Z</time>
      </trkpt>
      <trkpt lat="42.7792160" lon="-8.6529180">
        <ele>29.6</ele>
        <time>2022-06-19T09:05:05Z</time>
      </trkpt>
      <trkpt lat="42.7792350" lon="-8.6528880">
        <ele>29.6</ele>
        <time>2022-06-19T09:05:06Z</time>
      </trkpt>
      <trkpt lat="42.7792550" lon="-8.6528600">
        <ele>29.6</ele>
        <time>2022-06-19T09:05:07Z</time>
      </trkpt>
      <trkpt lat="42.7792760" lon="-8.6528300">
        <ele>29.6</ele>
        <time>2022-06-19T09:05:08Z</time>
      </trkpt>
      <trkpt lat="42.7792960" lon="-8.6528010">
        <ele>29.6</ele>
        <time>2022-06-19T09:05:09Z</time>
      </trkpt>
      <trkpt lat="42.7793180" lon="-8.6527750">
        <ele>29.6</ele>
        <time>2022-06-19T09:05:10Z</time>
      </trkpt>
      <trkpt lat="42.7793380" lon="-8.6527460">
        <ele>29.6</ele>
        <time>2022-06-19T09:05:11Z</time>
      </trkpt>
      <trkpt lat="42.7793580" lon="-8.6527180">
        <ele>29.6</ele>
        <time>2022-06-19T09:05:12Z</time>
      </trkpt>
      <trkpt lat="42.7793760" lon="-8.6526910">
        <ele>30.0</ele>
        <time>2022-06-19T09:05:13Z</time>
      </trkpt>
      <trkpt lat="42.7793980" lon="-8.6526660">
        <ele>30.0</ele>
        <time>2022-06-19T09:05:14Z</time>
      </trkpt>
      <trkpt lat="42.7794210" lon="-8.6526410">
        <ele>30.0</ele>
        <time>2022-06-19T09:05:15Z</time>
      </trkpt>
      <trkpt lat="42.7794430" lon="-8.6526150">
        <ele>30.0</ele>
        <time>2022-06-19T09:05:16Z</time>
      </trkpt>
      <trkpt lat="42.7794660" lon="-8.6525880">
        <ele>30.8</ele>
        <time>2022-06-19T09:05:17Z</time>
      </trkpt>
      <trkpt lat="42.7794880" lon="-8.6525610">
        <ele>30.8</ele>
        <time>2022-06-19T09:05:18Z</time>
      </trkpt>
      <trkpt lat="42.7795100" lon="-8.6525310">
        <ele>30.8</ele>
        <time>2022-06-19T09:05:19Z</time>
      </trkpt>
      <trkpt lat="42.7795300" lon="-8.6525010">
        <ele>30.6</ele>
        <time>2022-06-19T09:05:20Z</time>
      </trkpt>
      <trkpt lat="42.7795510" lon="-8.6524710">
        <ele>30.2</ele>
        <time>2022-06-19T09:05:21Z</time>
      </trkpt>
      <trkpt lat="42.7795730" lon="-8.6524450">
        <ele>30.2</ele>
        <time>2022-06-19T09:05:22Z</time>
      </trkpt>
      <trkpt lat="42.7795960" lon="-8.6524180">
        <ele>30.2</ele>
        <time>2022-06-19T09:05:23Z</time>
      </trkpt>
      <trkpt lat="42.7796210" lon="-8.6523910">
        <ele>30.2</ele>
        <time>2022-06-19T09:05:24Z</time>
      </trkpt>
      <trkpt lat="42.7796410" lon="-8.6523610">
        <ele>30.2</ele>
        <time>2022-06-19T09:05:25Z</time>
      </trkpt>
      <trkpt lat="42.7796610" lon="-8.6523280">
        <ele>30.2</ele>
        <time>2022-06-19T09:05:26Z</time>
      </trkpt>
      <trkpt lat="42.7796800" lon="-8.6522950">
        <ele>30.2</ele>
        <time>2022-06-19T09:05:27Z</time>
      </trkpt>
      <trkpt lat="42.7796980" lon="-8.6522600">
        <ele>30.2</ele>
        <time>2022-06-19T09:05:28Z</time>
      </trkpt>
      <trkpt lat="42.7797160" lon="-8.6522250">
        <ele>30.8</ele>
        <time>2022-06-19T09:05:29Z</time>
      </trkpt>
      <trkpt lat="42.7797360" lon="-8.6521930">
        <ele>30.8</ele>
        <time>2022-06-19T09:05:30Z</time>
      </trkpt>
      <trkpt lat="42.7797580" lon="-8.6521630">
        <ele>30.8</ele>
        <time>2022-06-19T09:05:31Z</time>
      </trkpt>
      <trkpt lat="42.7797830" lon="-8.6521310">
        <ele>30.8</ele>
        <time>2022-06-19T09:05:32Z</time>
      </trkpt>
      <trkpt lat="42.7798100" lon="-8.6521010">
        <ele>30.6</ele>
        <time>2022-06-19T09:05:33Z</time>
      </trkpt>
      <trkpt lat="42.7798360" lon="-8.6520750">
        <ele>30.6</ele>
        <time>2022-06-19T09:05:34Z</time>
      </trkpt>
      <trkpt lat="42.7798650" lon="-8.6520500">
        <ele>30.6</ele>
        <time>2022-06-19T09:05:35Z</time>
      </trkpt>
      <trkpt lat="42.7798930" lon="-8.6520250">
        <ele>30.8</ele>
        <time>2022-06-19T09:05:36Z</time>
      </trkpt>
      <trkpt lat="42.7799230" lon="-8.6520010">
        <ele>31.8</ele>
        <time>2022-06-19T09:05:37Z</time>
      </trkpt>
      <trkpt lat="42.7799500" lon="-8.6519760">
        <ele>31.8</ele>
        <time>2022-06-19T09:05:38Z</time>
      </trkpt>
      <trkpt lat="42.7799730" lon="-8.6519460">
        <ele>31.8</ele>
        <time>2022-06-19T09:05:39Z</time>
      </trkpt>
      <trkpt lat="42.7799950" lon="-8.6519150">
        <ele>31.8</ele>
        <time>2022-06-19T09:05:40Z</time>
      </trkpt>
      <trkpt lat="42.7800110" lon="-8.6518850">
        <ele>31.6</ele>
        <time>2022-06-19T09:05:41Z</time>
      </trkpt>
      <trkpt lat="42.7800230" lon="-8.6518500">
        <ele>31.6</ele>
        <time>2022-06-19T09:05:42Z</time>
      </trkpt>
      <trkpt lat="42.7800280" lon="-8.6518200">
        <ele>31.6</ele>
        <time>2022-06-19T09:05:43Z</time>
      </trkpt>
      <trkpt lat="42.7800280" lon="-8.6517900">
        <ele>31.6</ele>
        <time>2022-06-19T09:05:44Z</time>
      </trkpt>
      <trkpt lat="42.7800280" lon="-8.6517580">
        <ele>31.8</ele>
        <time>2022-06-19T09:05:45Z</time>
      </trkpt>
      <trkpt lat="42.7800280" lon="-8.6517280">
        <ele>31.8</ele>
        <time>2022-06-19T09:05:46Z</time>
      </trkpt>
      <trkpt lat="42.7800310" lon="-8.6516980">
        <ele>31.8</ele>
        <time>2022-06-19T09:05:47Z</time>
      </trkpt>
      <trkpt lat="42.7800330" lon="-8.6516650">
        <ele>31.8</ele>
        <time>2022-06-19T09:05:48Z</time>
      </trkpt>
      <trkpt lat="42.7800400" lon="-8.6516300">
        <ele>32.4</ele>
        <time>2022-06-19T09:05:49Z</time>
      </trkpt>
      <trkpt lat="42.7800400" lon="-8.6515950">
        <ele>32.4</ele>
        <time>2022-06-19T09:05:50Z</time>
      </trkpt>
      <trkpt lat="42.7800350" lon="-8.6515600">
        <ele>32.4</ele>
        <time>2022-06-19T09:05:51Z</time>
      </trkpt>
      <trkpt lat="42.7800350" lon="-8.6515230">
        <ele>32.8</ele>
        <time>2022-06-19T09:05:52Z</time>
      </trkpt>
      <trkpt lat="42.7800330" lon="-8.6514860">
        <ele>33.0</ele>
        <time>2022-06-19T09:05:53Z</time>
      </trkpt>
      <trkpt lat="42.7800400" lon="-8.6514530">
        <ele>33.0</ele>
        <time>2022-06-19T09:05:54Z</time>
      </trkpt>
      <trkpt lat="42.7800500" lon="-8.6514230">
        <ele>33.0</ele>
        <time>2022-06-19T09:05:55Z</time>
      </trkpt>
      <trkpt lat="42.7800630" lon="-8.6513930">
        <ele>33.0</ele>
        <time>2022-06-19T09:05:56Z</time>
      </trkpt>
      <trkpt lat="42.7800850" lon="-8.6513630">
        <ele>33.2</ele>
        <time>2022-06-19T09:05:57Z</time>
      </trkpt>
      <trkpt lat="42.7801030" lon="-8.6513380">
        <ele>33.2</ele>
        <time>2022-06-19T09:05:58Z</time>
      </trkpt>
      <trkpt lat="42.7801200" lon="-8.6513110">
        <ele>33.2</ele>
        <time>2022-06-19T09:05:59Z</time>
      </trkpt>
      <trkpt lat="42.7801330" lon="-8.6512880">
        <ele>33.2</ele>
        <time>2022-06-19T09:06:00Z</time>
      </trkpt>
      <trkpt lat="42.7801400" lon="-8.6512610">
        <ele>33.8</ele>
        <time>2022-06-19T09:06:01Z</time>
      </trkpt>
      <trkpt lat="42.7801480" lon="-8.6512350">
        <ele>33.8</ele>
        <time>2022-06-19T09:06:02Z</time>
      </trkpt>
      <trkpt lat="42.7801560" lon="-8.6512050">
        <ele>33.8</ele>
        <time>2022-06-19T09:06:03Z</time>
      </trkpt>
      <trkpt lat="42.7801580" lon="-8.6511760">
        <ele>33.4</ele>
        <time>2022-06-19T09:06:04Z</time>
      </trkpt>
      <trkpt lat="42.7801630" lon="-8.6511530">
        <ele>33.6</ele>
        <time>2022-06-19T09:06:05Z</time>
      </trkpt>
      <trkpt lat="42.7801780" lon="-8.6511200">
        <ele>33.6</ele>
        <time>2022-06-19T09:06:06Z</time>
      </trkpt>
      <trkpt lat="42.7801900" lon="-8.6510860">
        <ele>33.6</ele>
        <time>2022-06-19T09:06:07Z</time>
      </trkpt>
      <trkpt lat="42.7802100" lon="-8.6510550">
        <ele>33.6</ele>
        <time>2022-06-19T09:06:08Z</time>
      </trkpt>
      <trkpt lat="42.7802380" lon="-8.6510250">
        <ele>33.4</ele>
        <time>2022-06-19T09:06:09Z</time>
      </trkpt>
      <trkpt lat="42.7802680" lon="-8.6510030">
        <ele>33.4</ele>
        <time>2022-06-19T09:06:10Z</time>
      </trkpt>
      <trkpt lat="42.7803010" lon="-8.6509900">
        <ele>33.4</ele>
        <time>2022-06-19T09:06:11Z</time>
      </trkpt>
      <trkpt lat="42.7803380" lon="-8.6509810">
        <ele>33.4</ele>
        <time>2022-06-19T09:06:12Z</time>
      </trkpt>
      <trkpt lat="42.7803750" lon="-8.6509730">
        <ele>32.8</ele>
        <time>2022-06-19T09:06:13Z</time>
      </trkpt>
      <trkpt lat="42.7804110" lon="-8.6509630">
        <ele>32.8</ele>
        <time>2022-06-19T09:06:14Z</time>
      </trkpt>
      <trkpt lat="42.7804500" lon="-8.6509500">
        <ele>32.8</ele>
        <time>2022-06-19T09:06:15Z</time>
      </trkpt>
      <trkpt lat="42.7804860" lon="-8.6509410">
        <ele>33.0</ele>
        <time>2022-06-19T09:06:16Z</time>
      </trkpt>
      <trkpt lat="42.7805250" lon="-8.6509350">
        <ele>33.0</ele>
        <time>2022-06-19T09:06:17Z</time>
      </trkpt>
      <trkpt lat="42.7805610" lon="-8.6509280">
        <ele>33.0</ele>
        <time>2022-06-19T09:06:18Z</time>
      </trkpt>
      <trkpt lat="42.7805980" lon="-8.6509200">
        <ele>33.0</ele>
        <time>2022-06-19T09:06:19Z</time>
      </trkpt>
      <trkpt lat="42.7806350" lon="-8.6509100">
        <ele>33.0</ele>
        <time>2022-06-19T09:06:20Z</time>
      </trkpt>
      <trkpt lat="42.7806750" lon="-8.6509000">
        <ele>32.6</ele>
        <time>2022-06-19T09:06:21Z</time>
      </trkpt>
      <trkpt lat="42.7807130" lon="-8.6508900">
        <ele>32.6</ele>
        <time>2022-06-19T09:06:22Z</time>
      </trkpt>
      <trkpt lat="42.7807530" lon="-8.6508800">
        <ele>32.6</ele>
        <time>2022-06-19T09:06:23Z</time>
      </trkpt>
      <trkpt lat="42.7807930" lon="-8.6508680">
        <ele>31.8</ele>
        <time>2022-06-19T09:06:24Z</time>
      </trkpt>
      <trkpt lat="42.7808330" lon="-8.6508600">
        <ele>32.0</ele>
        <time>2022-06-19T09:06:25Z</time>
      </trkpt>
      <trkpt lat="42.7808710" lon="-8.6508510">
        <ele>32.0</ele>
        <time>2022-06-19T09:06:26Z</time>
      </trkpt>
      <trkpt lat="42.7809130" lon="-8.6508410">
        <ele>32.0</ele>
        <time>2022-06-19T09:06:27Z</time>
      </trkpt>
      <trkpt lat="42.7809550" lon="-8.6508310">
        <ele>32.0</ele>
        <time>2022-06-19T09:06:28Z</time>
      </trkpt>
      <trkpt lat="42.7809950" lon="-8.6508200">
        <ele>31.4</ele>
        <time>2022-06-19T09:06:29Z</time>
      </trkpt>
      <trkpt lat="42.7810360" lon="-8.6508080">
        <ele>31.4</ele>
        <time>2022-06-19T09:06:30Z</time>
      </trkpt>
      <trkpt lat="42.7810810" lon="-8.6507980">
        <ele>31.4</ele>
        <time>2022-06-19T09:06:31Z</time>
      </trkpt>
      <trkpt lat="42.7811260" lon="-8.6507860">
        <ele>31.4</ele>
        <time>2022-06-19T09:06:32Z</time>
      </trkpt>
      <trkpt lat="42.7811710" lon="-8.6507780">
        <ele>31.4</ele>
        <time>2022-06-19T09:06:33Z</time>
      </trkpt>
      <trkpt lat="42.7812180" lon="-8.6507660">
        <ele>31.4</ele>
        <time>2022-06-19T09:06:34Z</time>
      </trkpt>
      <trkpt lat="42.7812650" lon="-8.6507580">
        <ele>31.4</ele>
        <time>2022-06-19T09:06:35Z</time>
      </trkpt>
      <trkpt lat="42.7813130" lon="-8.6507460">
        <ele>31.4</ele>
        <time>2022-06-19T09:06:36Z</time>
      </trkpt>
      <trkpt lat="42.7813600" lon="-8.6507350">
        <ele>31.2</ele>
        <time>2022-06-19T09:06:37Z</time>
      </trkpt>
      <trkpt lat="42.7814060" lon="-8.6507230">
        <ele>31.2</ele>
        <time>2022-06-19T09:06:38Z</time>
      </trkpt>
      <trkpt lat="42.7814510" lon="-8.6507130">
        <ele>31.2</ele>
        <time>2022-06-19T09:06:39Z</time>
      </trkpt>
      <trkpt lat="42.7814980" lon="-8.6507030">
        <ele>31.2</ele>
        <time>2022-06-19T09:06:40Z</time>
      </trkpt>
      <trkpt lat="42.7815410" lon="-8.6506910">
        <ele>31.4</ele>
        <time>2022-06-19T09:06:41Z</time>
      </trkpt>
      <trkpt lat="42.7815860" lon="-8.6506800">
        <ele>31.4</ele>
        <time>2022-06-19T09:06:42Z</time>
      </trkpt>
      <trkpt lat="42.7816330" lon="-8.6506680">
        <ele>31.4</ele>
        <time>2022-06-19T09:06:43Z</time>
      </trkpt>
      <trkpt lat="42.7816780" lon="-8.6506550">
        <ele>31.6</ele>
        <time>2022-06-19T09:06:44Z</time>
      </trkpt>
      <trkpt lat="42.7817230" lon="-8.6506410">
        <ele>31.4</ele>
        <time>2022-06-19T09:06:45Z</time>
      </trkpt>
      <trkpt lat="42.7817700" lon="-8.6506310">
        <ele>31.4</ele>
        <time>2022-06-19T09:06:46Z</time>
      </trkpt>
      <trkpt lat="42.7818150" lon="-8.6506210">
        <ele>31.4</ele>
        <time>2022-06-19T09:06:47Z</time>
      </trkpt>
      <trkpt lat="42.7818600" lon="-8.6506080">
        <ele>31.4</ele>
        <time>2022-06-19T09:06:48Z</time>
      </trkpt>
      <trkpt lat="42.7819080" lon="-8.6505960">
        <ele>31.2</ele>
        <time>2022-06-19T09:06:49Z</time>
      </trkpt>
      <trkpt lat="42.7819530" lon="-8.6505860">
        <ele>31.2</ele>
        <time>2022-06-19T09:06:50Z</time>
      </trkpt>
      <trkpt lat="42.7819980" lon="-8.6505750">
        <ele>31.2</ele>
        <time>2022-06-19T09:06:51Z</time>
      </trkpt>
      <trkpt lat="42.7820460" lon="-8.6505650">
        <ele>31.4</ele>
        <time>2022-06-19T09:06:52Z</time>
      </trkpt>
      <trkpt lat="42.7820910" lon="-8.6505610">
        <ele>31.2</ele>
        <time>2022-06-19T09:06:53Z</time>
      </trkpt>
      <trkpt lat="42.7821330" lon="-8.6505560">
        <ele>31.2</ele>
        <time>2022-06-19T09:06:54Z</time>
      </trkpt>
      <trkpt lat="42.7821780" lon="-8.6505500">
        <ele>31.2</ele>
        <time>2022-06-19T09:06:55Z</time>
      </trkpt>
      <trkpt lat="42.7822250" lon="-8.6505380">
        <ele>31.4</ele>
        <time>2022-06-19T09:06:56Z</time>
      </trkpt>
      <trkpt lat="42.7822710" lon="-8.6505260">
        <ele>31.2</ele>
        <time>2022-06-19T09:06:57Z</time>
      </trkpt>
      <trkpt lat="42.7823160" lon="-8.6505150">
        <ele>31.2</ele>
        <time>2022-06-19T09:06:58Z</time>
      </trkpt>
      <trkpt lat="42.7823650" lon="-8.6505060">
        <ele>31.2</ele>
        <time>2022-06-19T09:06:59Z</time>
      </trkpt>
      <trkpt lat="42.7824100" lon="-8.6504950">
        <ele>31.2</ele>
        <time>2022-06-19T09:07:00Z</time>
      </trkpt>
      <trkpt lat="42.7824530" lon="-8.6504860">
        <ele>30.8</ele>
        <time>2022-06-19T09:07:01Z</time>
      </trkpt>
      <trkpt lat="42.7824980" lon="-8.6504800">
        <ele>30.8</ele>
        <time>2022-06-19T09:07:02Z</time>
      </trkpt>
      <trkpt lat="42.7825430" lon="-8.6504710">
        <ele>30.8</ele>
        <time>2022-06-19T09:07:03Z</time>
      </trkpt>
      <trkpt lat="42.7825880" lon="-8.6504630">
        <ele>30.8</ele>
        <time>2022-06-19T09:07:04Z</time>
      </trkpt>
      <trkpt lat="42.7826330" lon="-8.6504510">
        <ele>31.2</ele>
        <time>2022-06-19T09:07:05Z</time>
      </trkpt>
      <trkpt lat="42.7826780" lon="-8.6504430">
        <ele>31.2</ele>
        <time>2022-06-19T09:07:06Z</time>
      </trkpt>
      <trkpt lat="42.7827210" lon="-8.6504330">
        <ele>31.2</ele>
        <time>2022-06-19T09:07:07Z</time>
      </trkpt>
      <trkpt lat="42.7827650" lon="-8.6504200">
        <ele>31.6</ele>
        <time>2022-06-19T09:07:08Z</time>
      </trkpt>
      <trkpt lat="42.7828080" lon="-8.6504080">
        <ele>31.0</ele>
        <time>2022-06-19T09:07:09Z</time>
      </trkpt>
      <trkpt lat="42.7828510" lon="-8.6503950">
        <ele>31.0</ele>
        <time>2022-06-19T09:07:10Z</time>
      </trkpt>
      <trkpt lat="42.7828960" lon="-8.6503850">
        <ele>31.0</ele>
        <time>2022-06-19T09:07:11Z</time>
      </trkpt>
      <trkpt lat="42.7829400" lon="-8.6503800">
        <ele>32.0</ele>
        <time>2022-06-19T09:07:12Z</time>
      </trkpt>
      <trkpt lat="42.7829810" lon="-8.6503700">
        <ele>32.6</ele>
        <time>2022-06-19T09:07:13Z</time>
      </trkpt>
      <trkpt lat="42.7830230" lon="-8.6503600">
        <ele>32.6</ele>
        <time>2022-06-19T09:07:14Z</time>
      </trkpt>
      <trkpt lat="42.7830660" lon="-8.6503480">
        <ele>32.6</ele>
        <time>2022-06-19T09:07:15Z</time>
      </trkpt>
      <trkpt lat="42.7831100" lon="-8.6503380">
        <ele>31.8</ele>
        <time>2022-06-19T09:07:16Z</time>
      </trkpt>
      <trkpt lat="42.7831510" lon="-8.6503250">
        <ele>32.2</ele>
        <time>2022-06-19T09:07:17Z</time>
      </trkpt>
      <trkpt lat="42.7831960" lon="-8.6503110">
        <ele>32.2</ele>
        <time>2022-06-19T09:07:18Z</time>
      </trkpt>
      <trkpt lat="42.7832410" lon="-8.6503000">
        <ele>32.2</ele>
        <time>2022-06-19T09:07:19Z</time>
      </trkpt>
      <trkpt lat="42.7832860" lon="-8.6502900">
        <ele>33.0</ele>
        <time>2022-06-19T09:07:20Z</time>
      </trkpt>
      <trkpt lat="42.7833280" lon="-8.6502830">
        <ele>33.0</ele>
        <time>2022-06-19T09:07:21Z</time>
      </trkpt>
      <trkpt lat="42.7833710" lon="-8.6502730">
        <ele>33.0</ele>
        <time>2022-06-19T09:07:22Z</time>
      </trkpt>
      <trkpt lat="42.7834130" lon="-8.6502610">
        <ele>33.0</ele>
        <time>2022-06-19T09:07:23Z</time>
      </trkpt>
      <trkpt lat="42.7834560" lon="-8.6502510">
        <ele>33.0</ele>
        <time>2022-06-19T09:07:24Z</time>
      </trkpt>
      <trkpt lat="42.7835010" lon="-8.6502400">
        <ele>32.8</ele>
        <time>2022-06-19T09:07:25Z</time>
      </trkpt>
      <trkpt lat="42.7835430" lon="-8.6502300">
        <ele>32.8</ele>
        <time>2022-06-19T09:07:26Z</time>
      </trkpt>
      <trkpt lat="42.7835860" lon="-8.6502180">
        <ele>32.8</ele>
        <time>2022-06-19T09:07:27Z</time>
      </trkpt>
      <trkpt lat="42.7836310" lon="-8.6502030">
        <ele>33.0</ele>
        <time>2022-06-19T09:07:28Z</time>
      </trkpt>
      <trkpt lat="42.7836750" lon="-8.6501880">
        <ele>32.8</ele>
        <time>2022-06-19T09:07:29Z</time>
      </trkpt>
      <trkpt lat="42.7837200" lon="-8.6501750">
        <ele>32.8</ele>
        <time>2022-06-19T09:07:30Z</time>
      </trkpt>
      <trkpt lat="42.7837650" lon="-8.6501630">
        <ele>32.8</ele>
        <time>2022-06-19T09:07:31Z</time>
      </trkpt>
      <trkpt lat="42.7838100" lon="-8.6501530">
        <ele>33.4</ele>
        <time>2022-06-19T09:07:32Z</time>
      </trkpt>
      <trkpt lat="42.7838530" lon="-8.6501450">
        <ele>33.4</ele>
        <time>2022-06-19T09:07:33Z</time>
      </trkpt>
      <trkpt lat="42.7838950" lon="-8.6501360">
        <ele>33.4</ele>
        <time>2022-06-19T09:07:34Z</time>
      </trkpt>
      <trkpt lat="42.7839410" lon="-8.6501250">
        <ele>33.4</ele>
        <time>2022-06-19T09:07:35Z</time>
      </trkpt>
      <trkpt lat="42.7839850" lon="-8.6501130">
        <ele>34.4</ele>
        <time>2022-06-19T09:07:36Z</time>
      </trkpt>
      <trkpt lat="42.7840280" lon="-8.6501030">
        <ele>33.8</ele>
        <time>2022-06-19T09:07:37Z</time>
      </trkpt>
      <trkpt lat="42.7840730" lon="-8.6500900">
        <ele>33.8</ele>
        <time>2022-06-19T09:07:38Z</time>
      </trkpt>
      <trkpt lat="42.7841180" lon="-8.6500730">
        <ele>33.8</ele>
        <time>2022-06-19T09:07:39Z</time>
      </trkpt>
      <trkpt lat="42.7841610" lon="-8.6500600">
        <ele>34.8</ele>
        <time>2022-06-19T09:07:40Z</time>
      </trkpt>
      <trkpt lat="42.7842030" lon="-8.6500450">
        <ele>34.6</ele>
        <time>2022-06-19T09:07:41Z</time>
      </trkpt>
      <trkpt lat="42.7842450" lon="-8.6500280">
        <ele>34.6</ele>
        <time>2022-06-19T09:07:42Z</time>
      </trkpt>
      <trkpt lat="42.7842850" lon="-8.6500130">
        <ele>34.6</ele>
        <time>2022-06-19T09:07:43Z</time>
      </trkpt>
      <trkpt lat="42.7843260" lon="-8.6499930">
        <ele>35.6</ele>
        <time>2022-06-19T09:07:44Z</time>
      </trkpt>
      <trkpt lat="42.7843660" lon="-8.6499710">
        <ele>35.6</ele>
        <time>2022-06-19T09:07:45Z</time>
      </trkpt>
      <trkpt lat="42.7844050" lon="-8.6499530">
        <ele>35.6</ele>
        <time>2022-06-19T09:07:46Z</time>
      </trkpt>
      <trkpt lat="42.7844430" lon="-8.6499310">
        <ele>35.6</ele>
        <time>2022-06-19T09:07:47Z</time>
      </trkpt>
      <trkpt lat="42.7844830" lon="-8.6499110">
        <ele>36.0</ele>
        <time>2022-06-19T09:07:48Z</time>
      </trkpt>
      <trkpt lat="42.7845210" lon="-8.6498900">
        <ele>35.6</ele>
        <time>2022-06-19T09:07:49Z</time>
      </trkpt>
      <trkpt lat="42.7845600" lon="-8.6498730">
        <ele>35.6</ele>
        <time>2022-06-19T09:07:50Z</time>
      </trkpt>
      <trkpt lat="42.7845960" lon="-8.6498550">
        <ele>35.6</ele>
        <time>2022-06-19T09:07:51Z</time>
      </trkpt>
      <trkpt lat="42.7846310" lon="-8.6498360">
        <ele>36.6</ele>
        <time>2022-06-19T09:07:52Z</time>
      </trkpt>
      <trkpt lat="42.7846500" lon="-8.6498130">
        <ele>37.4</ele>
        <time>2022-06-19T09:07:53Z</time>
      </trkpt>
      <trkpt lat="42.7846550" lon="-8.6497930">
        <ele>37.4</ele>
        <time>2022-06-19T09:07:54Z</time>
      </trkpt>
      <trkpt lat="42.7846410" lon="-8.6497660">
        <ele>37.4</ele>
        <time>2022-06-19T09:07:55Z</time>
      </trkpt>
      <trkpt lat="42.7846250" lon="-8.6497400">
        <ele>37.2</ele>
        <time>2022-06-19T09:07:56Z</time>
      </trkpt>
      <trkpt lat="42.7846100" lon="-8.6497130">
        <ele>37.0</ele>
        <time>2022-06-19T09:07:57Z</time>
      </trkpt>
      <trkpt lat="42.7846030" lon="-8.6496850">
        <ele>37.0</ele>
        <time>2022-06-19T09:07:58Z</time>
      </trkpt>
      <trkpt lat="42.7845980" lon="-8.6496560">
        <ele>37.0</ele>
        <time>2022-06-19T09:07:59Z</time>
      </trkpt>
      <trkpt lat="42.7845980" lon="-8.6496310">
        <ele>37.0</ele>
        <time>2022-06-19T09:08:00Z</time>
      </trkpt>
      <trkpt lat="42.7845960" lon="-8.6496100">
        <ele>38.6</ele>
        <time>2022-06-19T09:08:01Z</time>
      </trkpt>
      <trkpt lat="42.7845980" lon="-8.6495860">
        <ele>38.6</ele>
        <time>2022-06-19T09:08:02Z</time>
      </trkpt>
      <trkpt lat="42.7845980" lon="-8.6495610">
        <ele>38.6</ele>
        <time>2022-06-19T09:08:03Z</time>
      </trkpt>
      <trkpt lat="42.7845980" lon="-8.6495400">
        <ele>38.6</ele>
        <time>2022-06-19T09:08:04Z</time>
      </trkpt>
      <trkpt lat="42.7846030" lon="-8.6495150">
        <ele>39.6</ele>
        <time>2022-06-19T09:08:05Z</time>
      </trkpt>
      <trkpt lat="42.7846080" lon="-8.6494930">
        <ele>39.6</ele>
        <time>2022-06-19T09:08:06Z</time>
      </trkpt>
      <trkpt lat="42.7846150" lon="-8.6494730">
        <ele>39.6</ele>
        <time>2022-06-19T09:08:07Z</time>
      </trkpt>
      <trkpt lat="42.7846280" lon="-8.6494600">
        <ele>39.6</ele>
        <time>2022-06-19T09:08:08Z</time>
      </trkpt>
      <trkpt lat="42.7846410" lon="-8.6494410">
        <ele>40.4</ele>
        <time>2022-06-19T09:08:09Z</time>
      </trkpt>
      <trkpt lat="42.7846510" lon="-8.6494260">
        <ele>40.4</ele>
        <time>2022-06-19T09:08:10Z</time>
      </trkpt>
      <trkpt lat="42.7846630" lon="-8.6494110">
        <ele>40.4</ele>
        <time>2022-06-19T09:08:11Z</time>
      </trkpt>
      <trkpt lat="42.7846750" lon="-8.6493980">
        <ele>40.4</ele>
        <time>2022-06-19T09:08:12Z</time>
      </trkpt>
      <trkpt lat="42.7846850" lon="-8.6493850">
        <ele>41.0</ele>
        <time>2022-06-19T09:08:13Z</time>
      </trkpt>
      <trkpt lat="42.7847000" lon="-8.6493710">
        <ele>41.0</ele>
        <time>2022-06-19T09:08:14Z</time>
      </trkpt>
      <trkpt lat="42.7847130" lon="-8.6493580">
        <ele>41.0</ele>
        <time>2022-06-19T09:08:15Z</time>
      </trkpt>
      <trkpt lat="42.7847280" lon="-8.6493450">
        <ele>41.0</ele>
        <time>2022-06-19T09:08:16Z</time>
      </trkpt>
      <trkpt lat="42.7847400" lon="-8.6493250">
        <ele>42.0</ele>
        <time>2022-06-19T09:08:17Z</time>
      </trkpt>
      <trkpt lat="42.7847560" lon="-8.6493050">
        <ele>42.0</ele>
        <time>2022-06-19T09:08:18Z</time>
      </trkpt>
      <trkpt lat="42.7847700" lon="-8.6492860">
        <ele>42.0</ele>
        <time>2022-06-19T09:08:19Z</time>
      </trkpt>
      <trkpt lat="42.7847830" lon="-8.6492700">
        <ele>41.8</ele>
        <time>2022-06-19T09:08:20Z</time>
      </trkpt>
      <trkpt lat="42.7847960" lon="-8.6492550">
        <ele>42.2</ele>
        <time>2022-06-19T09:08:21Z</time>
      </trkpt>
      <trkpt lat="42.7848110" lon="-8.6492300">
        <ele>42.2</ele>
        <time>2022-06-19T09:08:22Z</time>
      </trkpt>
      <trkpt lat="42.7848230" lon="-8.6492150">
        <ele>42.2</ele>
        <time>2022-06-19T09:08:23Z</time>
      </trkpt>
      <trkpt lat="42.7848380" lon="-8.6492000">
        <ele>42.2</ele>
        <time>2022-06-19T09:08:24Z</time>
      </trkpt>
      <trkpt lat="42.7848510" lon="-8.6491860">
        <ele>42.4</ele>
        <time>2022-06-19T09:08:25Z</time>
      </trkpt>
      <trkpt lat="42.7848630" lon="-8.6491710">
        <ele>42.4</ele>
        <time>2022-06-19T09:08:26Z</time>
      </trkpt>
      <trkpt lat="42.7848730" lon="-8.6491550">
        <ele>42.4</ele>
        <time>2022-06-19T09:08:27Z</time>
      </trkpt>
      <trkpt lat="42.7848830" lon="-8.6491380">
        <ele>43.4</ele>
        <time>2022-06-19T09:08:28Z</time>
      </trkpt>
      <trkpt lat="42.7848910" lon="-8.6491200">
        <ele>43.6</ele>
        <time>2022-06-19T09:08:29Z</time>
      </trkpt>
      <trkpt lat="42.7849010" lon="-8.6491000">
        <ele>43.6</ele>
        <time>2022-06-19T09:08:30Z</time>
      </trkpt>
      <trkpt lat="42.7849110" lon="-8.6490810">
        <ele>43.6</ele>
        <time>2022-06-19T09:08:31Z</time>
      </trkpt>
      <trkpt lat="42.7849250" lon="-8.6490610">
        <ele>43.6</ele>
        <time>2022-06-19T09:08:32Z</time>
      </trkpt>
      <trkpt lat="42.7849380" lon="-8.6490450">
        <ele>43.4</ele>
        <time>2022-06-19T09:08:33Z</time>
      </trkpt>
      <trkpt lat="42.7849500" lon="-8.6490280">
        <ele>43.4</ele>
        <time>2022-06-19T09:08:34Z</time>
      </trkpt>
      <trkpt lat="42.7849610" lon="-8.6490100">
        <ele>43.4</ele>
        <time>2022-06-19T09:08:35Z</time>
      </trkpt>
      <trkpt lat="42.7849700" lon="-8.6489960">
        <ele>44.4</ele>
        <time>2022-06-19T09:08:36Z</time>
      </trkpt>
      <trkpt lat="42.7849850" lon="-8.6489860">
        <ele>44.4</ele>
        <time>2022-06-19T09:08:37Z</time>
      </trkpt>
      <trkpt lat="42.7850000" lon="-8.6489760">
        <ele>44.4</ele>
        <time>2022-06-19T09:08:38Z</time>
      </trkpt>
      <trkpt lat="42.7850130" lon="-8.6489610">
        <ele>44.4</ele>
        <time>2022-06-19T09:08:39Z</time>
      </trkpt>
      <trkpt lat="42.7850260" lon="-8.6489500">
        <ele>44.4</ele>
        <time>2022-06-19T09:08:40Z</time>
      </trkpt>
      <trkpt lat="42.7850410" lon="-8.6489380">
        <ele>44.8</ele>
        <time>2022-06-19T09:08:41Z</time>
      </trkpt>
      <trkpt lat="42.7850560" lon="-8.6489300">
        <ele>44.8</ele>
        <time>2022-06-19T09:08:42Z</time>
      </trkpt>
      <trkpt lat="42.7850730" lon="-8.6489230">
        <ele>44.8</ele>
        <time>2022-06-19T09:08:43Z</time>
      </trkpt>
      <trkpt lat="42.7850860" lon="-8.6489180">
        <ele>44.8</ele>
        <time>2022-06-19T09:08:44Z</time>
      </trkpt>
      <trkpt lat="42.7851010" lon="-8.6489130">
        <ele>45.0</ele>
        <time>2022-06-19T09:08:45Z</time>
      </trkpt>
      <trkpt lat="42.7851160" lon="-8.6489050">
        <ele>45.0</ele>
        <time>2022-06-19T09:08:46Z</time>
      </trkpt>
      <trkpt lat="42.7851350" lon="-8.6488950">
        <ele>45.0</ele>
        <time>2022-06-19T09:08:47Z</time>
      </trkpt>
      <trkpt lat="42.7851510" lon="-8.6488810">
        <ele>45.4</ele>
        <time>2022-06-19T09:08:48Z</time>
      </trkpt>
      <trkpt lat="42.7851660" lon="-8.6488650">
        <ele>45.6</ele>
        <time>2022-06-19T09:08:49Z</time>
      </trkpt>
      <trkpt lat="42.7851830" lon="-8.6488510">
        <ele>45.6</ele>
        <time>2022-06-19T09:08:50Z</time>
      </trkpt>
      <trkpt lat="42.7851960" lon="-8.6488360">
        <ele>45.6</ele>
        <time>2022-06-19T09:08:51Z</time>
      </trkpt>
      <trkpt lat="42.7852110" lon="-8.6488200">
        <ele>45.6</ele>
        <time>2022-06-19T09:08:52Z</time>
      </trkpt>
      <trkpt lat="42.7852280" lon="-8.6488080">
        <ele>45.8</ele>
        <time>2022-06-19T09:08:53Z</time>
      </trkpt>
      <trkpt lat="42.7852460" lon="-8.6487950">
        <ele>45.8</ele>
        <time>2022-06-19T09:08:54Z</time>
      </trkpt>
      <trkpt lat="42.7852600" lon="-8.6487830">
        <ele>45.8</ele>
        <time>2022-06-19T09:08:55Z</time>
      </trkpt>
      <trkpt lat="42.7852750" lon="-8.6487730">
        <ele>46.4</ele>
        <time>2022-06-19T09:08:56Z</time>
      </trkpt>
      <trkpt lat="42.7852880" lon="-8.6487560">
        <ele>46.6</ele>
        <time>2022-06-19T09:08:57Z</time>
      </trkpt>
      <trkpt lat="42.7853030" lon="-8.6487430">
        <ele>46.6</ele>
        <time>2022-06-19T09:08:58Z</time>
      </trkpt>
      <trkpt lat="42.7853180" lon="-8.6487330">
        <ele>46.6</ele>
        <time>2022-06-19T09:08:59Z</time>
      </trkpt>
      <trkpt lat="42.7853360" lon="-8.6487200">
        <ele>46.8</ele>
        <time>2022-06-19T09:09:00Z</time>
      </trkpt>
      <trkpt lat="42.7853510" lon="-8.6487060">
        <ele>47.4</ele>
        <time>2022-06-19T09:09:01Z</time>
      </trkpt>
      <trkpt lat="42.7853680" lon="-8.6486950">
        <ele>47.4</ele>
        <time>2022-06-19T09:09:02Z</time>
      </trkpt>
      <trkpt lat="42.7853830" lon="-8.6486830">
        <ele>47.4</ele>
        <time>2022-06-19T09:09:03Z</time>
      </trkpt>
      <trkpt lat="42.7853980" lon="-8.6486730">
        <ele>47.4</ele>
        <time>2022-06-19T09:09:04Z</time>
      </trkpt>
      <trkpt lat="42.7854110" lon="-8.6486600">
        <ele>47.6</ele>
        <time>2022-06-19T09:09:05Z</time>
      </trkpt>
      <trkpt lat="42.7854280" lon="-8.6486430">
        <ele>47.6</ele>
        <time>2022-06-19T09:09:06Z</time>
      </trkpt>
      <trkpt lat="42.7854450" lon="-8.6486250">
        <ele>47.6</ele>
        <time>2022-06-19T09:09:07Z</time>
      </trkpt>
      <trkpt lat="42.7854650" lon="-8.6486060">
        <ele>47.6</ele>
        <time>2022-06-19T09:09:08Z</time>
      </trkpt>
      <trkpt lat="42.7854830" lon="-8.6485900">
        <ele>47.6</ele>
        <time>2022-06-19T09:09:09Z</time>
      </trkpt>
      <trkpt lat="42.7854980" lon="-8.6485760">
        <ele>47.6</ele>
        <time>2022-06-19T09:09:10Z</time>
      </trkpt>
      <trkpt lat="42.7855130" lon="-8.6485610">
        <ele>47.6</ele>
        <time>2022-06-19T09:09:11Z</time>
      </trkpt>
      <trkpt lat="42.7855260" lon="-8.6485400">
        <ele>47.6</ele>
        <time>2022-06-19T09:09:12Z</time>
      </trkpt>
      <trkpt lat="42.7855360" lon="-8.6485130">
        <ele>48.2</ele>
        <time>2022-06-19T09:09:13Z</time>
      </trkpt>
      <trkpt lat="42.7855510" lon="-8.6484910">
        <ele>48.2</ele>
        <time>2022-06-19T09:09:14Z</time>
      </trkpt>
      <trkpt lat="42.7855660" lon="-8.6484660">
        <ele>48.2</ele>
        <time>2022-06-19T09:09:15Z</time>
      </trkpt>
      <trkpt lat="42.7855810" lon="-8.6484460">
        <ele>48.2</ele>
        <time>2022-06-19T09:09:16Z</time>
      </trkpt>
      <trkpt lat="42.7855950" lon="-8.6484280">
        <ele>48.0</ele>
        <time>2022-06-19T09:09:17Z</time>
      </trkpt>
      <trkpt lat="42.7856060" lon="-8.6484060">
        <ele>48.0</ele>
        <time>2022-06-19T09:09:18Z</time>
      </trkpt>
      <trkpt lat="42.7856160" lon="-8.6483900">
        <ele>48.0</ele>
        <time>2022-06-19T09:09:19Z</time>
      </trkpt>
      <trkpt lat="42.7856250" lon="-8.6483800">
        <ele>48.0</ele>
        <time>2022-06-19T09:09:20Z</time>
      </trkpt>
      <trkpt lat="42.7856280" lon="-8.6483750">
        <ele>49.0</ele>
        <time>2022-06-19T09:09:21Z</time>
      </trkpt>
      <trkpt lat="42.7856650" lon="-8.6483400">
        <ele>48.6</ele>
        <time>2022-06-19T09:11:28Z</time>
      </trkpt>
      <trkpt lat="42.7856730" lon="-8.6483300">
        <ele>48.4</ele>
        <time>2022-06-19T09:11:29Z</time>
      </trkpt>
      <trkpt lat="42.7856780" lon="-8.6483280">
        <ele>48.4</ele>
        <time>2022-06-19T09:11:30Z</time>
      </trkpt>
      <trkpt lat="42.7856780" lon="-8.6483280">
        <ele>48.4</ele>
        <time>2022-06-19T09:11:31Z</time>
      </trkpt>
      <trkpt lat="42.7856900" lon="-8.6483060">
        <ele>48.6</ele>
        <time>2022-06-19T09:11:39Z</time>
      </trkpt>
      <trkpt lat="42.7856930" lon="-8.6482930">
        <ele>48.0</ele>
        <time>2022-06-19T09:11:40Z</time>
      </trkpt>
      <trkpt lat="42.7857000" lon="-8.6482760">
        <ele>48.4</ele>
        <time>2022-06-19T09:11:41Z</time>
      </trkpt>
      <trkpt lat="42.7857060" lon="-8.6482600">
        <ele>48.4</ele>
        <time>2022-06-19T09:11:42Z</time>
      </trkpt>
      <trkpt lat="42.7857130" lon="-8.6482430">
        <ele>48.4</ele>
        <time>2022-06-19T09:11:43Z</time>
      </trkpt>
      <trkpt lat="42.7857200" lon="-8.6482250">
        <ele>48.4</ele>
        <time>2022-06-19T09:11:44Z</time>
      </trkpt>
      <trkpt lat="42.7857260" lon="-8.6482060">
        <ele>48.8</ele>
        <time>2022-06-19T09:11:45Z</time>
      </trkpt>
      <trkpt lat="42.7857360" lon="-8.6481930">
        <ele>48.8</ele>
        <time>2022-06-19T09:11:46Z</time>
      </trkpt>
      <trkpt lat="42.7857480" lon="-8.6481750">
        <ele>48.8</ele>
        <time>2022-06-19T09:11:47Z</time>
      </trkpt>
      <trkpt lat="42.7857580" lon="-8.6481580">
        <ele>48.8</ele>
        <time>2022-06-19T09:11:48Z</time>
      </trkpt>
      <trkpt lat="42.7857700" lon="-8.6481410">
        <ele>48.8</ele>
        <time>2022-06-19T09:11:49Z</time>
      </trkpt>
      <trkpt lat="42.7857780" lon="-8.6481280">
        <ele>48.8</ele>
        <time>2022-06-19T09:11:50Z</time>
      </trkpt>
      <trkpt lat="42.7857880" lon="-8.6481160">
        <ele>48.8</ele>
        <time>2022-06-19T09:11:51Z</time>
      </trkpt>
      <trkpt lat="42.7857960" lon="-8.6481030">
        <ele>48.8</ele>
        <time>2022-06-19T09:11:52Z</time>
      </trkpt>
      <trkpt lat="42.7858060" lon="-8.6480910">
        <ele>49.0</ele>
        <time>2022-06-19T09:11:53Z</time>
      </trkpt>
      <trkpt lat="42.7858150" lon="-8.6480800">
        <ele>49.0</ele>
        <time>2022-06-19T09:11:54Z</time>
      </trkpt>
      <trkpt lat="42.7858230" lon="-8.6480700">
        <ele>49.0</ele>
        <time>2022-06-19T09:11:55Z</time>
      </trkpt>
      <trkpt lat="42.7858250" lon="-8.6480650">
        <ele>49.0</ele>
        <time>2022-06-19T09:11:56Z</time>
      </trkpt>
      <trkpt lat="42.7858480" lon="-8.6480310">
        <ele>49.4</ele>
        <time>2022-06-19T09:12:15Z</time>
      </trkpt>
      <trkpt lat="42.7858650" lon="-8.6480050">
        <ele>49.4</ele>
        <time>2022-06-19T09:12:16Z</time>
      </trkpt>
      <trkpt lat="42.7858850" lon="-8.6479800">
        <ele>49.2</ele>
        <time>2022-06-19T09:12:17Z</time>
      </trkpt>
      <trkpt lat="42.7859050" lon="-8.6479510">
        <ele>49.2</ele>
        <time>2022-06-19T09:12:18Z</time>
      </trkpt>
      <trkpt lat="42.7859280" lon="-8.6479230">
        <ele>49.2</ele>
        <time>2022-06-19T09:12:19Z</time>
      </trkpt>
      <trkpt lat="42.7859510" lon="-8.6478960">
        <ele>49.4</ele>
        <time>2022-06-19T09:12:20Z</time>
      </trkpt>
      <trkpt lat="42.7859750" lon="-8.6478730">
        <ele>49.8</ele>
        <time>2022-06-19T09:12:21Z</time>
      </trkpt>
      <trkpt lat="42.7860000" lon="-8.6478530">
        <ele>49.8</ele>
        <time>2022-06-19T09:12:22Z</time>
      </trkpt>
      <trkpt lat="42.7860260" lon="-8.6478360">
        <ele>49.8</ele>
        <time>2022-06-19T09:12:23Z</time>
      </trkpt>
      <trkpt lat="42.7860560" lon="-8.6478210">
        <ele>49.8</ele>
        <time>2022-06-19T09:12:24Z</time>
      </trkpt>
      <trkpt lat="42.7860900" lon="-8.6478080">
        <ele>50.0</ele>
        <time>2022-06-19T09:12:25Z</time>
      </trkpt>
      <trkpt lat="42.7861230" lon="-8.6478010">
        <ele>50.0</ele>
        <time>2022-06-19T09:12:26Z</time>
      </trkpt>
      <trkpt lat="42.7861580" lon="-8.6477980">
        <ele>50.0</ele>
        <time>2022-06-19T09:12:27Z</time>
      </trkpt>
      <trkpt lat="42.7861950" lon="-8.6477960">
        <ele>50.0</ele>
        <time>2022-06-19T09:12:28Z</time>
      </trkpt>
      <trkpt lat="42.7862330" lon="-8.6478000">
        <ele>49.8</ele>
        <time>2022-06-19T09:12:29Z</time>
      </trkpt>
      <trkpt lat="42.7862700" lon="-8.6478030">
        <ele>49.8</ele>
        <time>2022-06-19T09:12:30Z</time>
      </trkpt>
      <trkpt lat="42.7863060" lon="-8.6478050">
        <ele>49.8</ele>
        <time>2022-06-19T09:12:31Z</time>
      </trkpt>
      <trkpt lat="42.7863410" lon="-8.6478110">
        <ele>50.8</ele>
        <time>2022-06-19T09:12:32Z</time>
      </trkpt>
      <trkpt lat="42.7863680" lon="-8.6478210">
        <ele>51.2</ele>
        <time>2022-06-19T09:12:33Z</time>
      </trkpt>
      <trkpt lat="42.7863930" lon="-8.6478380">
        <ele>51.2</ele>
        <time>2022-06-19T09:12:34Z</time>
      </trkpt>
      <trkpt lat="42.7864180" lon="-8.6478580">
        <ele>51.2</ele>
        <time>2022-06-19T09:12:35Z</time>
      </trkpt>
      <trkpt lat="42.7864380" lon="-8.6478760">
        <ele>51.2</ele>
        <time>2022-06-19T09:12:36Z</time>
      </trkpt>
      <trkpt lat="42.7864530" lon="-8.6478960">
        <ele>52.0</ele>
        <time>2022-06-19T09:12:37Z</time>
      </trkpt>
      <trkpt lat="42.7864710" lon="-8.6479130">
        <ele>52.0</ele>
        <time>2022-06-19T09:12:38Z</time>
      </trkpt>
      <trkpt lat="42.7864880" lon="-8.6479280">
        <ele>52.0</ele>
        <time>2022-06-19T09:12:39Z</time>
      </trkpt>
      <trkpt lat="42.7865080" lon="-8.6479410">
        <ele>52.0</ele>
        <time>2022-06-19T09:12:40Z</time>
      </trkpt>
      <trkpt lat="42.7865300" lon="-8.6479460">
        <ele>51.8</ele>
        <time>2022-06-19T09:12:41Z</time>
      </trkpt>
      <trkpt lat="42.7865480" lon="-8.6479500">
        <ele>51.8</ele>
        <time>2022-06-19T09:12:42Z</time>
      </trkpt>
      <trkpt lat="42.7865660" lon="-8.6479510">
        <ele>51.8</ele>
        <time>2022-06-19T09:12:43Z</time>
      </trkpt>
      <trkpt lat="42.7865860" lon="-8.6479530">
        <ele>52.2</ele>
        <time>2022-06-19T09:12:44Z</time>
      </trkpt>
      <trkpt lat="42.7866080" lon="-8.6479530">
        <ele>51.8</ele>
        <time>2022-06-19T09:12:45Z</time>
      </trkpt>
      <trkpt lat="42.7866300" lon="-8.6479580">
        <ele>51.8</ele>
        <time>2022-06-19T09:12:46Z</time>
      </trkpt>
      <trkpt lat="42.7866510" lon="-8.6479630">
        <ele>51.8</ele>
        <time>2022-06-19T09:12:47Z</time>
      </trkpt>
      <trkpt lat="42.7866750" lon="-8.6479650">
        <ele>51.8</ele>
        <time>2022-06-19T09:12:48Z</time>
      </trkpt>
      <trkpt lat="42.7866980" lon="-8.6479650">
        <ele>51.4</ele>
        <time>2022-06-19T09:12:49Z</time>
      </trkpt>
      <trkpt lat="42.7867200" lon="-8.6479660">
        <ele>51.4</ele>
        <time>2022-06-19T09:12:50Z</time>
      </trkpt>
      <trkpt lat="42.7867460" lon="-8.6479680">
        <ele>51.4</ele>
        <time>2022-06-19T09:12:51Z</time>
      </trkpt>
      <trkpt lat="42.7867710" lon="-8.6479800">
        <ele>51.4</ele>
        <time>2022-06-19T09:12:52Z</time>
      </trkpt>
      <trkpt lat="42.7868000" lon="-8.6479960">
        <ele>51.8</ele>
        <time>2022-06-19T09:12:53Z</time>
      </trkpt>
      <trkpt lat="42.7868260" lon="-8.6480180">
        <ele>51.8</ele>
        <time>2022-06-19T09:12:54Z</time>
      </trkpt>
      <trkpt lat="42.7868560" lon="-8.6480460">
        <ele>51.8</ele>
        <time>2022-06-19T09:12:55Z</time>
      </trkpt>
      <trkpt lat="42.7868860" lon="-8.6480750">
        <ele>51.6</ele>
        <time>2022-06-19T09:12:56Z</time>
      </trkpt>
      <trkpt lat="42.7869180" lon="-8.6480980">
        <ele>51.4</ele>
        <time>2022-06-19T09:12:57Z</time>
      </trkpt>
      <trkpt lat="42.7869530" lon="-8.6481060">
        <ele>51.4</ele>
        <time>2022-06-19T09:12:58Z</time>
      </trkpt>
      <trkpt lat="42.7869880" lon="-8.6480930">
        <ele>51.4</ele>
        <time>2022-06-19T09:12:59Z</time>
      </trkpt>
      <trkpt lat="42.7870180" lon="-8.6480710">
        <ele>51.0</ele>
        <time>2022-06-19T09:13:00Z</time>
      </trkpt>
      <trkpt lat="42.7870480" lon="-8.6480450">
        <ele>51.4</ele>
        <time>2022-06-19T09:13:01Z</time>
      </trkpt>
      <trkpt lat="42.7870780" lon="-8.6480200">
        <ele>51.4</ele>
        <time>2022-06-19T09:13:02Z</time>
      </trkpt>
      <trkpt lat="42.7871080" lon="-8.6479980">
        <ele>51.4</ele>
        <time>2022-06-19T09:13:03Z</time>
      </trkpt>
      <trkpt lat="42.7871360" lon="-8.6479810">
        <ele>52.0</ele>
        <time>2022-06-19T09:13:04Z</time>
      </trkpt>
      <trkpt lat="42.7871650" lon="-8.6479630">
        <ele>52.0</ele>
        <time>2022-06-19T09:13:05Z</time>
      </trkpt>
      <trkpt lat="42.7871930" lon="-8.6479430">
        <ele>52.0</ele>
        <time>2022-06-19T09:13:06Z</time>
      </trkpt>
      <trkpt lat="42.7872250" lon="-8.6479260">
        <ele>52.0</ele>
        <time>2022-06-19T09:13:07Z</time>
      </trkpt>
      <trkpt lat="42.7872580" lon="-8.6479060">
        <ele>52.0</ele>
        <time>2022-06-19T09:13:08Z</time>
      </trkpt>
      <trkpt lat="42.7872910" lon="-8.6478810">
        <ele>52.8</ele>
        <time>2022-06-19T09:13:09Z</time>
      </trkpt>
      <trkpt lat="42.7873260" lon="-8.6478610">
        <ele>52.8</ele>
        <time>2022-06-19T09:13:10Z</time>
      </trkpt>
      <trkpt lat="42.7873580" lon="-8.6478380">
        <ele>52.8</ele>
        <time>2022-06-19T09:13:11Z</time>
      </trkpt>
      <trkpt lat="42.7873910" lon="-8.6478150">
        <ele>52.8</ele>
        <time>2022-06-19T09:13:12Z</time>
      </trkpt>
      <trkpt lat="42.7874250" lon="-8.6477860">
        <ele>52.4</ele>
        <time>2022-06-19T09:13:13Z</time>
      </trkpt>
      <trkpt lat="42.7874610" lon="-8.6477610">
        <ele>52.4</ele>
        <time>2022-06-19T09:13:14Z</time>
      </trkpt>
      <trkpt lat="42.7875010" lon="-8.6477480">
        <ele>52.4</ele>
        <time>2022-06-19T09:13:15Z</time>
      </trkpt>
      <trkpt lat="42.7875450" lon="-8.6477410">
        <ele>52.0</ele>
        <time>2022-06-19T09:13:16Z</time>
      </trkpt>
      <trkpt lat="42.7875900" lon="-8.6477400">
        <ele>52.2</ele>
        <time>2022-06-19T09:13:17Z</time>
      </trkpt>
      <trkpt lat="42.7876350" lon="-8.6477400">
        <ele>52.2</ele>
        <time>2022-06-19T09:13:18Z</time>
      </trkpt>
      <trkpt lat="42.7876760" lon="-8.6477360">
        <ele>52.2</ele>
        <time>2022-06-19T09:13:19Z</time>
      </trkpt>
      <trkpt lat="42.7877160" lon="-8.6477330">
        <ele>52.2</ele>
        <time>2022-06-19T09:13:20Z</time>
      </trkpt>
      <trkpt lat="42.7877530" lon="-8.6477310">
        <ele>52.8</ele>
        <time>2022-06-19T09:13:21Z</time>
      </trkpt>
      <trkpt lat="42.7877900" lon="-8.6477310">
        <ele>52.8</ele>
        <time>2022-06-19T09:13:22Z</time>
      </trkpt>
      <trkpt lat="42.7878260" lon="-8.6477310">
        <ele>52.8</ele>
        <time>2022-06-19T09:13:23Z</time>
      </trkpt>
      <trkpt lat="42.7878600" lon="-8.6477300">
        <ele>52.8</ele>
        <time>2022-06-19T09:13:24Z</time>
      </trkpt>
      <trkpt lat="42.7878910" lon="-8.6477280">
        <ele>53.0</ele>
        <time>2022-06-19T09:13:25Z</time>
      </trkpt>
      <trkpt lat="42.7879250" lon="-8.6477280">
        <ele>53.0</ele>
        <time>2022-06-19T09:13:26Z</time>
      </trkpt>
      <trkpt lat="42.7879560" lon="-8.6477280">
        <ele>53.0</ele>
        <time>2022-06-19T09:13:27Z</time>
      </trkpt>
      <trkpt lat="42.7879880" lon="-8.6477260">
        <ele>53.0</ele>
        <time>2022-06-19T09:13:28Z</time>
      </trkpt>
      <trkpt lat="42.7880180" lon="-8.6477260">
        <ele>53.6</ele>
        <time>2022-06-19T09:13:29Z</time>
      </trkpt>
      <trkpt lat="42.7880510" lon="-8.6477200">
        <ele>53.6</ele>
        <time>2022-06-19T09:13:30Z</time>
      </trkpt>
      <trkpt lat="42.7880780" lon="-8.6476960">
        <ele>53.6</ele>
        <time>2022-06-19T09:13:31Z</time>
      </trkpt>
      <trkpt lat="42.7880900" lon="-8.6476610">
        <ele>52.6</ele>
        <time>2022-06-19T09:13:32Z</time>
      </trkpt>
      <trkpt lat="42.7880900" lon="-8.6476180">
        <ele>52.8</ele>
        <time>2022-06-19T09:13:33Z</time>
      </trkpt>
      <trkpt lat="42.7880830" lon="-8.6475710">
        <ele>52.8</ele>
        <time>2022-06-19T09:13:34Z</time>
      </trkpt>
      <trkpt lat="42.7880780" lon="-8.6475230">
        <ele>52.8</ele>
        <time>2022-06-19T09:13:35Z</time>
      </trkpt>
      <trkpt lat="42.7880700" lon="-8.6474730">
        <ele>52.8</ele>
        <time>2022-06-19T09:13:36Z</time>
      </trkpt>
      <trkpt lat="42.7880610" lon="-8.6474260">
        <ele>53.0</ele>
        <time>2022-06-19T09:13:37Z</time>
      </trkpt>
      <trkpt lat="42.7880530" lon="-8.6473810">
        <ele>53.0</ele>
        <time>2022-06-19T09:13:38Z</time>
      </trkpt>
      <trkpt lat="42.7880450" lon="-8.6473410">
        <ele>53.0</ele>
        <time>2022-06-19T09:13:39Z</time>
      </trkpt>
      <trkpt lat="42.7880400" lon="-8.6473110">
        <ele>53.0</ele>
        <time>2022-06-19T09:13:40Z</time>
      </trkpt>
      <trkpt lat="42.7880360" lon="-8.6472860">
        <ele>53.8</ele>
        <time>2022-06-19T09:13:41Z</time>
      </trkpt>
      <trkpt lat="42.7880330" lon="-8.6472580">
        <ele>53.8</ele>
        <time>2022-06-19T09:13:42Z</time>
      </trkpt>
      <trkpt lat="42.7880360" lon="-8.6472280">
        <ele>53.8</ele>
        <time>2022-06-19T09:13:43Z</time>
      </trkpt>
      <trkpt lat="42.7880510" lon="-8.6472000">
        <ele>53.8</ele>
        <time>2022-06-19T09:13:44Z</time>
      </trkpt>
      <trkpt lat="42.7880760" lon="-8.6471850">
        <ele>54.2</ele>
        <time>2022-06-19T09:13:45Z</time>
      </trkpt>
      <trkpt lat="42.7881100" lon="-8.6471730">
        <ele>54.2</ele>
        <time>2022-06-19T09:13:46Z</time>
      </trkpt>
      <trkpt lat="42.7881460" lon="-8.6471630">
        <ele>54.2</ele>
        <time>2022-06-19T09:13:47Z</time>
      </trkpt>
      <trkpt lat="42.7881860" lon="-8.6471550">
        <ele>53.4</ele>
        <time>2022-06-19T09:13:48Z</time>
      </trkpt>
      <trkpt lat="42.7882280" lon="-8.6471410">
        <ele>52.8</ele>
        <time>2022-06-19T09:13:49Z</time>
      </trkpt>
      <trkpt lat="42.7882730" lon="-8.6471280">
        <ele>52.8</ele>
        <time>2022-06-19T09:13:50Z</time>
      </trkpt>
      <trkpt lat="42.7883210" lon="-8.6471130">
        <ele>52.8</ele>
        <time>2022-06-19T09:13:51Z</time>
      </trkpt>
      <trkpt lat="42.7883700" lon="-8.6470980">
        <ele>52.0</ele>
        <time>2022-06-19T09:13:52Z</time>
      </trkpt>
      <trkpt lat="42.7884180" lon="-8.6470830">
        <ele>52.4</ele>
        <time>2022-06-19T09:13:53Z</time>
      </trkpt>
      <trkpt lat="42.7884660" lon="-8.6470660">
        <ele>52.4</ele>
        <time>2022-06-19T09:13:54Z</time>
      </trkpt>
      <trkpt lat="42.7885160" lon="-8.6470510">
        <ele>52.4</ele>
        <time>2022-06-19T09:13:55Z</time>
      </trkpt>
      <trkpt lat="42.7885680" lon="-8.6470360">
        <ele>52.2</ele>
        <time>2022-06-19T09:13:56Z</time>
      </trkpt>
      <trkpt lat="42.7886180" lon="-8.6470200">
        <ele>52.2</ele>
        <time>2022-06-19T09:13:57Z</time>
      </trkpt>
      <trkpt lat="42.7886700" lon="-8.6470050">
        <ele>52.2</ele>
        <time>2022-06-19T09:13:58Z</time>
      </trkpt>
      <trkpt lat="42.7887210" lon="-8.6469910">
        <ele>52.2</ele>
        <time>2022-06-19T09:13:59Z</time>
      </trkpt>
      <trkpt lat="42.7887700" lon="-8.6469760">
        <ele>52.2</ele>
        <time>2022-06-19T09:14:00Z</time>
      </trkpt>
      <trkpt lat="42.7888160" lon="-8.6469580">
        <ele>52.8</ele>
        <time>2022-06-19T09:14:01Z</time>
      </trkpt>
      <trkpt lat="42.7888650" lon="-8.6469430">
        <ele>52.8</ele>
        <time>2022-06-19T09:14:02Z</time>
      </trkpt>
      <trkpt lat="42.7889130" lon="-8.6469300">
        <ele>52.8</ele>
        <time>2022-06-19T09:14:03Z</time>
      </trkpt>
      <trkpt lat="42.7889630" lon="-8.6469130">
        <ele>52.8</ele>
        <time>2022-06-19T09:14:04Z</time>
      </trkpt>
      <trkpt lat="42.7890130" lon="-8.6468980">
        <ele>52.4</ele>
        <time>2022-06-19T09:14:05Z</time>
      </trkpt>
      <trkpt lat="42.7890630" lon="-8.6468830">
        <ele>52.4</ele>
        <time>2022-06-19T09:14:06Z</time>
      </trkpt>
      <trkpt lat="42.7891160" lon="-8.6468680">
        <ele>52.4</ele>
        <time>2022-06-19T09:14:07Z</time>
      </trkpt>
      <trkpt lat="42.7891680" lon="-8.6468550">
        <ele>52.0</ele>
        <time>2022-06-19T09:14:08Z</time>
      </trkpt>
      <trkpt lat="42.7892210" lon="-8.6468400">
        <ele>51.8</ele>
        <time>2022-06-19T09:14:09Z</time>
      </trkpt>
      <trkpt lat="42.7892760" lon="-8.6468230">
        <ele>51.8</ele>
        <time>2022-06-19T09:14:10Z</time>
      </trkpt>
      <trkpt lat="42.7893310" lon="-8.6468060">
        <ele>51.8</ele>
        <time>2022-06-19T09:14:11Z</time>
      </trkpt>
      <trkpt lat="42.7893830" lon="-8.6467900">
        <ele>51.8</ele>
        <time>2022-06-19T09:14:12Z</time>
      </trkpt>
      <trkpt lat="42.7894360" lon="-8.6467780">
        <ele>51.4</ele>
        <time>2022-06-19T09:14:13Z</time>
      </trkpt>
      <trkpt lat="42.7894880" lon="-8.6467660">
        <ele>51.4</ele>
        <time>2022-06-19T09:14:14Z</time>
      </trkpt>
      <trkpt lat="42.7895410" lon="-8.6467510">
        <ele>51.4</ele>
        <time>2022-06-19T09:14:15Z</time>
      </trkpt>
      <trkpt lat="42.7895910" lon="-8.6467330">
        <ele>50.6</ele>
        <time>2022-06-19T09:14:16Z</time>
      </trkpt>
      <trkpt lat="42.7896410" lon="-8.6467130">
        <ele>50.8</ele>
        <time>2022-06-19T09:14:17Z</time>
      </trkpt>
      <trkpt lat="42.7896930" lon="-8.6466960">
        <ele>50.8</ele>
        <time>2022-06-19T09:14:18Z</time>
      </trkpt>
      <trkpt lat="42.7897460" lon="-8.6466830">
        <ele>50.8</ele>
        <time>2022-06-19T09:14:19Z</time>
      </trkpt>
      <trkpt lat="42.7898010" lon="-8.6466660">
        <ele>50.0</ele>
        <time>2022-06-19T09:14:20Z</time>
      </trkpt>
      <trkpt lat="42.7898530" lon="-8.6466450">
        <ele>49.0</ele>
        <time>2022-06-19T09:14:21Z</time>
      </trkpt>
      <trkpt lat="42.7898960" lon="-8.6466130">
        <ele>49.0</ele>
        <time>2022-06-19T09:14:22Z</time>
      </trkpt>
      <trkpt lat="42.7899230" lon="-8.6465650">
        <ele>49.0</ele>
        <time>2022-06-19T09:14:23Z</time>
      </trkpt>
      <trkpt lat="42.7899280" lon="-8.6465060">
        <ele>48.6</ele>
        <time>2022-06-19T09:14:24Z</time>
      </trkpt>
      <trkpt lat="42.7899200" lon="-8.6464560">
        <ele>49.0</ele>
        <time>2022-06-19T09:14:25Z</time>
      </trkpt>
      <trkpt lat="42.7899110" lon="-8.6464130">
        <ele>49.0</ele>
        <time>2022-06-19T09:14:26Z</time>
      </trkpt>
      <trkpt lat="42.7899050" lon="-8.6463730">
        <ele>49.0</ele>
        <time>2022-06-19T09:14:27Z</time>
      </trkpt>
      <trkpt lat="42.7899000" lon="-8.6463380">
        <ele>50.0</ele>
        <time>2022-06-19T09:14:28Z</time>
      </trkpt>
      <trkpt lat="42.7898930" lon="-8.6463060">
        <ele>50.2</ele>
        <time>2022-06-19T09:14:29Z</time>
      </trkpt>
      <trkpt lat="42.7898850" lon="-8.6462750">
        <ele>50.2</ele>
        <time>2022-06-19T09:14:30Z</time>
      </trkpt>
      <trkpt lat="42.7898800" lon="-8.6462430">
        <ele>50.2</ele>
        <time>2022-06-19T09:14:31Z</time>
      </trkpt>
      <trkpt lat="42.7898730" lon="-8.6462130">
        <ele>51.2</ele>
        <time>2022-06-19T09:14:32Z</time>
      </trkpt>
      <trkpt lat="42.7898650" lon="-8.6461830">
        <ele>51.8</ele>
        <time>2022-06-19T09:14:33Z</time>
      </trkpt>
      <trkpt lat="42.7898600" lon="-8.6461510">
        <ele>51.8</ele>
        <time>2022-06-19T09:14:34Z</time>
      </trkpt>
      <trkpt lat="42.7898560" lon="-8.6461210">
        <ele>51.8</ele>
        <time>2022-06-19T09:14:35Z</time>
      </trkpt>
      <trkpt lat="42.7898530" lon="-8.6460910">
        <ele>52.2</ele>
        <time>2022-06-19T09:14:36Z</time>
      </trkpt>
      <trkpt lat="42.7898500" lon="-8.6460610">
        <ele>52.4</ele>
        <time>2022-06-19T09:14:37Z</time>
      </trkpt>
      <trkpt lat="42.7898500" lon="-8.6460300">
        <ele>52.4</ele>
        <time>2022-06-19T09:14:38Z</time>
      </trkpt>
      <trkpt lat="42.7898530" lon="-8.6460030">
        <ele>52.4</ele>
        <time>2022-06-19T09:14:39Z</time>
      </trkpt>
      <trkpt lat="42.7898580" lon="-8.6459760">
        <ele>53.2</ele>
        <time>2022-06-19T09:14:40Z</time>
      </trkpt>
      <trkpt lat="42.7898610" lon="-8.6459480">
        <ele>53.8</ele>
        <time>2022-06-19T09:14:41Z</time>
      </trkpt>
      <trkpt lat="42.7898660" lon="-8.6459210">
        <ele>53.8</ele>
        <time>2022-06-19T09:14:42Z</time>
      </trkpt>
      <trkpt lat="42.7898680" lon="-8.6458960">
        <ele>53.8</ele>
        <time>2022-06-19T09:14:43Z</time>
      </trkpt>
      <trkpt lat="42.7898760" lon="-8.6458730">
        <ele>54.6</ele>
        <time>2022-06-19T09:14:44Z</time>
      </trkpt>
      <trkpt lat="42.7898850" lon="-8.6458500">
        <ele>54.6</ele>
        <time>2022-06-19T09:14:45Z</time>
      </trkpt>
      <trkpt lat="42.7898950" lon="-8.6458280">
        <ele>54.6</ele>
        <time>2022-06-19T09:14:46Z</time>
      </trkpt>
      <trkpt lat="42.7899030" lon="-8.6458050">
        <ele>54.6</ele>
        <time>2022-06-19T09:14:47Z</time>
      </trkpt>
      <trkpt lat="42.7899110" lon="-8.6457810">
        <ele>55.0</ele>
        <time>2022-06-19T09:14:48Z</time>
      </trkpt>
      <trkpt lat="42.7899200" lon="-8.6457610">
        <ele>55.6</ele>
        <time>2022-06-19T09:14:49Z</time>
      </trkpt>
      <trkpt lat="42.7899280" lon="-8.6457410">
        <ele>55.6</ele>
        <time>2022-06-19T09:14:50Z</time>
      </trkpt>
      <trkpt lat="42.7899330" lon="-8.6457200">
        <ele>55.6</ele>
        <time>2022-06-19T09:14:51Z</time>
      </trkpt>
      <trkpt lat="42.7899400" lon="-8.6456950">
        <ele>56.4</ele>
        <time>2022-06-19T09:14:52Z</time>
      </trkpt>
      <trkpt lat="42.7899480" lon="-8.6456680">
        <ele>55.8</ele>
        <time>2022-06-19T09:14:53Z</time>
      </trkpt>
      <trkpt lat="42.7899560" lon="-8.6456430">
        <ele>55.8</ele>
        <time>2022-06-19T09:14:54Z</time>
      </trkpt>
      <trkpt lat="42.7899630" lon="-8.6456160">
        <ele>55.8</ele>
        <time>2022-06-19T09:14:55Z</time>
      </trkpt>
      <trkpt lat="42.7899680" lon="-8.6455930">
        <ele>56.8</ele>
        <time>2022-06-19T09:14:56Z</time>
      </trkpt>
      <trkpt lat="42.7899760" lon="-8.6455700">
        <ele>57.0</ele>
        <time>2022-06-19T09:14:57Z</time>
      </trkpt>
      <trkpt lat="42.7899850" lon="-8.6455460">
        <ele>57.0</ele>
        <time>2022-06-19T09:14:58Z</time>
      </trkpt>
      <trkpt lat="42.7899910" lon="-8.6455230">
        <ele>57.0</ele>
        <time>2022-06-19T09:14:59Z</time>
      </trkpt>
      <trkpt lat="42.7899980" lon="-8.6455000">
        <ele>57.0</ele>
        <time>2022-06-19T09:15:00Z</time>
      </trkpt>
      <trkpt lat="42.7900060" lon="-8.6454810">
        <ele>57.8</ele>
        <time>2022-06-19T09:15:01Z</time>
      </trkpt>
      <trkpt lat="42.7900150" lon="-8.6454610">
        <ele>57.8</ele>
        <time>2022-06-19T09:15:02Z</time>
      </trkpt>
      <trkpt lat="42.7900210" lon="-8.6454400">
        <ele>57.8</ele>
        <time>2022-06-19T09:15:03Z</time>
      </trkpt>
      <trkpt lat="42.7900250" lon="-8.6454130">
        <ele>57.8</ele>
        <time>2022-06-19T09:15:04Z</time>
      </trkpt>
      <trkpt lat="42.7900260" lon="-8.6453860">
        <ele>58.8</ele>
        <time>2022-06-19T09:15:05Z</time>
      </trkpt>
      <trkpt lat="42.7900300" lon="-8.6453600">
        <ele>58.8</ele>
        <time>2022-06-19T09:15:06Z</time>
      </trkpt>
      <trkpt lat="42.7900330" lon="-8.6453330">
        <ele>58.8</ele>
        <time>2022-06-19T09:15:07Z</time>
      </trkpt>
      <trkpt lat="42.7900350" lon="-8.6453080">
        <ele>59.2</ele>
        <time>2022-06-19T09:15:08Z</time>
      </trkpt>
      <trkpt lat="42.7900360" lon="-8.6452800">
        <ele>59.4</ele>
        <time>2022-06-19T09:15:09Z</time>
      </trkpt>
      <trkpt lat="42.7900380" lon="-8.6452510">
        <ele>59.4</ele>
        <time>2022-06-19T09:15:10Z</time>
      </trkpt>
      <trkpt lat="42.7900380" lon="-8.6452230">
        <ele>59.4</ele>
        <time>2022-06-19T09:15:11Z</time>
      </trkpt>
      <trkpt lat="42.7900400" lon="-8.6451980">
        <ele>60.0</ele>
        <time>2022-06-19T09:15:12Z</time>
      </trkpt>
      <trkpt lat="42.7900430" lon="-8.6451730">
        <ele>60.2</ele>
        <time>2022-06-19T09:15:13Z</time>
      </trkpt>
      <trkpt lat="42.7900450" lon="-8.6451460">
        <ele>60.2</ele>
        <time>2022-06-19T09:15:14Z</time>
      </trkpt>
      <trkpt lat="42.7900450" lon="-8.6451230">
        <ele>60.2</ele>
        <time>2022-06-19T09:15:15Z</time>
      </trkpt>
      <trkpt lat="42.7900460" lon="-8.6450980">
        <ele>61.2</ele>
        <time>2022-06-19T09:15:16Z</time>
      </trkpt>
      <trkpt lat="42.7900480" lon="-8.6450710">
        <ele>60.8</ele>
        <time>2022-06-19T09:15:17Z</time>
      </trkpt>
      <trkpt lat="42.7900480" lon="-8.6450450">
        <ele>60.8</ele>
        <time>2022-06-19T09:15:18Z</time>
      </trkpt>
      <trkpt lat="42.7900460" lon="-8.6450200">
        <ele>60.8</ele>
        <time>2022-06-19T09:15:19Z</time>
      </trkpt>
      <trkpt lat="42.7900460" lon="-8.6449930">
        <ele>61.6</ele>
        <time>2022-06-19T09:15:20Z</time>
      </trkpt>
      <trkpt lat="42.7900480" lon="-8.6449680">
        <ele>61.4</ele>
        <time>2022-06-19T09:15:21Z</time>
      </trkpt>
      <trkpt lat="42.7900500" lon="-8.6449430">
        <ele>61.4</ele>
        <time>2022-06-19T09:15:22Z</time>
      </trkpt>
      <trkpt lat="42.7900550" lon="-8.6449200">
        <ele>61.4</ele>
        <time>2022-06-19T09:15:23Z</time>
      </trkpt>
      <trkpt lat="42.7900630" lon="-8.6449010">
        <ele>61.8</ele>
        <time>2022-06-19T09:15:24Z</time>
      </trkpt>
      <trkpt lat="42.7900800" lon="-8.6448860">
        <ele>62.0</ele>
        <time>2022-06-19T09:15:25Z</time>
      </trkpt>
      <trkpt lat="42.7901010" lon="-8.6448830">
        <ele>62.0</ele>
        <time>2022-06-19T09:15:26Z</time>
      </trkpt>
      <trkpt lat="42.7901180" lon="-8.6448900">
        <ele>62.0</ele>
        <time>2022-06-19T09:15:27Z</time>
      </trkpt>
      <trkpt lat="42.7901330" lon="-8.6448960">
        <ele>62.0</ele>
        <time>2022-06-19T09:15:28Z</time>
      </trkpt>
      <trkpt lat="42.7901480" lon="-8.6449030">
        <ele>62.2</ele>
        <time>2022-06-19T09:15:29Z</time>
      </trkpt>
      <trkpt lat="42.7901630" lon="-8.6449100">
        <ele>62.2</ele>
        <time>2022-06-19T09:15:30Z</time>
      </trkpt>
      <trkpt lat="42.7901800" lon="-8.6449160">
        <ele>62.2</ele>
        <time>2022-06-19T09:15:31Z</time>
      </trkpt>
      <trkpt lat="42.7901980" lon="-8.6449230">
        <ele>62.2</ele>
        <time>2022-06-19T09:15:32Z</time>
      </trkpt>
      <trkpt lat="42.7902160" lon="-8.6449250">
        <ele>62.4</ele>
        <time>2022-06-19T09:15:33Z</time>
      </trkpt>
      <trkpt lat="42.7902350" lon="-8.6449300">
        <ele>62.4</ele>
        <time>2022-06-19T09:15:34Z</time>
      </trkpt>
      <trkpt lat="42.7902510" lon="-8.6449350">
        <ele>62.4</ele>
        <time>2022-06-19T09:15:35Z</time>
      </trkpt>
      <trkpt lat="42.7902660" lon="-8.6449400">
        <ele>62.4</ele>
        <time>2022-06-19T09:15:36Z</time>
      </trkpt>
      <trkpt lat="42.7902780" lon="-8.6449430">
        <ele>62.0</ele>
        <time>2022-06-19T09:15:37Z</time>
      </trkpt>
      <trkpt lat="42.7902930" lon="-8.6449450">
        <ele>62.0</ele>
        <time>2022-06-19T09:15:38Z</time>
      </trkpt>
      <trkpt lat="42.7903080" lon="-8.6449450">
        <ele>62.0</ele>
        <time>2022-06-19T09:15:39Z</time>
      </trkpt>
      <trkpt lat="42.7903230" lon="-8.6449460">
        <ele>62.0</ele>
        <time>2022-06-19T09:15:40Z</time>
      </trkpt>
      <trkpt lat="42.7903400" lon="-8.6449480">
        <ele>62.2</ele>
        <time>2022-06-19T09:15:41Z</time>
      </trkpt>
      <trkpt lat="42.7903580" lon="-8.6449450">
        <ele>62.2</ele>
        <time>2022-06-19T09:15:42Z</time>
      </trkpt>
      <trkpt lat="42.7903760" lon="-8.6449380">
        <ele>62.2</ele>
        <time>2022-06-19T09:15:43Z</time>
      </trkpt>
      <trkpt lat="42.7903980" lon="-8.6449260">
        <ele>62.2</ele>
        <time>2022-06-19T09:15:44Z</time>
      </trkpt>
      <trkpt lat="42.7904210" lon="-8.6449100">
        <ele>62.0</ele>
        <time>2022-06-19T09:15:45Z</time>
      </trkpt>
      <trkpt lat="42.7904450" lon="-8.6448950">
        <ele>62.0</ele>
        <time>2022-06-19T09:15:46Z</time>
      </trkpt>
      <trkpt lat="42.7904650" lon="-8.6448850">
        <ele>62.0</ele>
        <time>2022-06-19T09:15:47Z</time>
      </trkpt>
      <trkpt lat="42.7904830" lon="-8.6448750">
        <ele>62.0</ele>
        <time>2022-06-19T09:15:48Z</time>
      </trkpt>
      <trkpt lat="42.7905060" lon="-8.6448610">
        <ele>62.2</ele>
        <time>2022-06-19T09:15:49Z</time>
      </trkpt>
      <trkpt lat="42.7905310" lon="-8.6448500">
        <ele>62.2</ele>
        <time>2022-06-19T09:15:50Z</time>
      </trkpt>
      <trkpt lat="42.7905560" lon="-8.6448380">
        <ele>62.2</ele>
        <time>2022-06-19T09:15:51Z</time>
      </trkpt>
      <trkpt lat="42.7905810" lon="-8.6448330">
        <ele>62.0</ele>
        <time>2022-06-19T09:15:52Z</time>
      </trkpt>
      <trkpt lat="42.7906050" lon="-8.6448280">
        <ele>61.8</ele>
        <time>2022-06-19T09:15:53Z</time>
      </trkpt>
      <trkpt lat="42.7906260" lon="-8.6448200">
        <ele>61.8</ele>
        <time>2022-06-19T09:15:54Z</time>
      </trkpt>
      <trkpt lat="42.7906480" lon="-8.6448080">
        <ele>61.8</ele>
        <time>2022-06-19T09:15:55Z</time>
      </trkpt>
      <trkpt lat="42.7906660" lon="-8.6448000">
        <ele>61.6</ele>
        <time>2022-06-19T09:15:56Z</time>
      </trkpt>
      <trkpt lat="42.7906910" lon="-8.6447980">
        <ele>61.4</ele>
        <time>2022-06-19T09:15:57Z</time>
      </trkpt>
      <trkpt lat="42.7907080" lon="-8.6448010">
        <ele>61.4</ele>
        <time>2022-06-19T09:15:58Z</time>
      </trkpt>
      <trkpt lat="42.7907250" lon="-8.6448010">
        <ele>61.4</ele>
        <time>2022-06-19T09:15:59Z</time>
      </trkpt>
      <trkpt lat="42.7907450" lon="-8.6448050">
        <ele>61.4</ele>
        <time>2022-06-19T09:16:00Z</time>
      </trkpt>
      <trkpt lat="42.7907710" lon="-8.6448060">
        <ele>61.0</ele>
        <time>2022-06-19T09:16:01Z</time>
      </trkpt>
      <trkpt lat="42.7907910" lon="-8.6447980">
        <ele>61.0</ele>
        <time>2022-06-19T09:16:02Z</time>
      </trkpt>
      <trkpt lat="42.7908150" lon="-8.6448100">
        <ele>61.0</ele>
        <time>2022-06-19T09:16:03Z</time>
      </trkpt>
      <trkpt lat="42.7908500" lon="-8.6448310">
        <ele>61.0</ele>
        <time>2022-06-19T09:16:04Z</time>
      </trkpt>
      <trkpt lat="42.7908830" lon="-8.6448300">
        <ele>60.6</ele>
        <time>2022-06-19T09:16:05Z</time>
      </trkpt>
      <trkpt lat="42.7909230" lon="-8.6448250">
        <ele>60.6</ele>
        <time>2022-06-19T09:16:06Z</time>
      </trkpt>
      <trkpt lat="42.7909650" lon="-8.6448150">
        <ele>60.6</ele>
        <time>2022-06-19T09:16:07Z</time>
      </trkpt>
      <trkpt lat="42.7909910" lon="-8.6448080">
        <ele>60.6</ele>
        <time>2022-06-19T09:16:08Z</time>
      </trkpt>
      <trkpt lat="42.7910160" lon="-8.6447960">
        <ele>60.6</ele>
        <time>2022-06-19T09:16:09Z</time>
      </trkpt>
      <trkpt lat="42.7910430" lon="-8.6447860">
        <ele>60.6</ele>
        <time>2022-06-19T09:16:10Z</time>
      </trkpt>
      <trkpt lat="42.7910680" lon="-8.6447830">
        <ele>60.6</ele>
        <time>2022-06-19T09:16:11Z</time>
      </trkpt>
      <trkpt lat="42.7910680" lon="-8.6447830">
        <ele>60.6</ele>
        <time>2022-06-19T09:16:12Z</time>
      </trkpt>
      <trkpt lat="42.7911480" lon="-8.6447760">
        <ele>60.4</ele>
        <time>2022-06-19T09:16:13Z</time>
      </trkpt>
      <trkpt lat="42.7911800" lon="-8.6447850">
        <ele>60.4</ele>
        <time>2022-06-19T09:16:14Z</time>
      </trkpt>
      <trkpt lat="42.7912150" lon="-8.6447980">
        <ele>60.4</ele>
        <time>2022-06-19T09:16:15Z</time>
      </trkpt>
      <trkpt lat="42.7912630" lon="-8.6448000">
        <ele>60.8</ele>
        <time>2022-06-19T09:16:16Z</time>
      </trkpt>
      <trkpt lat="42.7912630" lon="-8.6448000">
        <ele>60.8</ele>
        <time>2022-06-19T09:16:17Z</time>
      </trkpt>
      <trkpt lat="42.7913360" lon="-8.6448010">
        <ele>60.8</ele>
        <time>2022-06-19T09:16:18Z</time>
      </trkpt>
      <trkpt lat="42.7913660" lon="-8.6447980">
        <ele>60.8</ele>
        <time>2022-06-19T09:16:19Z</time>
      </trkpt>
      <trkpt lat="42.7913960" lon="-8.6447960">
        <ele>60.8</ele>
        <time>2022-06-19T09:16:20Z</time>
      </trkpt>
      <trkpt lat="42.7913960" lon="-8.6447960">
        <ele>60.2</ele>
        <time>2022-06-19T09:16:21Z</time>
      </trkpt>
      <trkpt lat="42.7914710" lon="-8.6447900">
        <ele>60.2</ele>
        <time>2022-06-19T09:16:22Z</time>
      </trkpt>
      <trkpt lat="42.7915160" lon="-8.6447760">
        <ele>60.2</ele>
        <time>2022-06-19T09:16:23Z</time>
      </trkpt>
      <trkpt lat="42.7915530" lon="-8.6447630">
        <ele>61.2</ele>
        <time>2022-06-19T09:16:24Z</time>
      </trkpt>
      <trkpt lat="42.7915880" lon="-8.6447550">
        <ele>60.8</ele>
        <time>2022-06-19T09:16:25Z</time>
      </trkpt>
      <trkpt lat="42.7916420" lon="-8.6447420">
        <ele>60.8</ele>
        <time>2022-06-19T09:16:26Z</time>
      </trkpt>
      <trkpt lat="42.7916600" lon="-8.6447340">
        <ele>60.8</ele>
        <time>2022-06-19T09:16:27Z</time>
      </trkpt>
      <trkpt lat="42.7916770" lon="-8.6447250">
        <ele>60.8</ele>
        <time>2022-06-19T09:16:28Z</time>
      </trkpt>
      <trkpt lat="42.7917300" lon="-8.6447010">
        <ele>60.4</ele>
        <time>2022-06-19T09:16:29Z</time>
      </trkpt>
      <trkpt lat="42.7917650" lon="-8.6446850">
        <ele>60.4</ele>
        <time>2022-06-19T09:16:30Z</time>
      </trkpt>
      <trkpt lat="42.7917960" lon="-8.6446710">
        <ele>60.4</ele>
        <time>2022-06-19T09:16:31Z</time>
      </trkpt>
      <trkpt lat="42.7918280" lon="-8.6446580">
        <ele>60.4</ele>
        <time>2022-06-19T09:16:32Z</time>
      </trkpt>
      <trkpt lat="42.7918580" lon="-8.6446460">
        <ele>60.2</ele>
        <time>2022-06-19T09:16:33Z</time>
      </trkpt>
      <trkpt lat="42.7918580" lon="-8.6446460">
        <ele>60.2</ele>
        <time>2022-06-19T09:16:34Z</time>
      </trkpt>
      <trkpt lat="42.7919230" lon="-8.6446150">
        <ele>60.2</ele>
        <time>2022-06-19T09:16:35Z</time>
      </trkpt>
      <trkpt lat="42.7919530" lon="-8.6446050">
        <ele>60.2</ele>
        <time>2022-06-19T09:16:36Z</time>
      </trkpt>
      <trkpt lat="42.7919810" lon="-8.6445860">
        <ele>60.2</ele>
        <time>2022-06-19T09:16:37Z</time>
      </trkpt>
      <trkpt lat="42.7920100" lon="-8.6445630">
        <ele>60.2</ele>
        <time>2022-06-19T09:16:38Z</time>
      </trkpt>
      <trkpt lat="42.7920400" lon="-8.6445380">
        <ele>60.2</ele>
        <time>2022-06-19T09:16:39Z</time>
      </trkpt>
      <trkpt lat="42.7920700" lon="-8.6445100">
        <ele>60.2</ele>
        <time>2022-06-19T09:16:40Z</time>
      </trkpt>
      <trkpt lat="42.7920700" lon="-8.6445100">
        <ele>60.4</ele>
        <time>2022-06-19T09:16:41Z</time>
      </trkpt>
      <trkpt lat="42.7921210" lon="-8.6444450">
        <ele>60.4</ele>
        <time>2022-06-19T09:16:42Z</time>
      </trkpt>
      <trkpt lat="42.7921450" lon="-8.6444030">
        <ele>60.4</ele>
        <time>2022-06-19T09:16:43Z</time>
      </trkpt>
      <trkpt lat="42.7921680" lon="-8.6443600">
        <ele>59.4</ele>
        <time>2022-06-19T09:16:44Z</time>
      </trkpt>
      <trkpt lat="42.7921950" lon="-8.6443160">
        <ele>58.2</ele>
        <time>2022-06-19T09:16:45Z</time>
      </trkpt>
      <trkpt lat="42.7921950" lon="-8.6443160">
        <ele>58.2</ele>
        <time>2022-06-19T09:16:46Z</time>
      </trkpt>
      <trkpt lat="42.7922430" lon="-8.6442310">
        <ele>58.2</ele>
        <time>2022-06-19T09:16:47Z</time>
      </trkpt>
      <trkpt lat="42.7922680" lon="-8.6441810">
        <ele>57.2</ele>
        <time>2022-06-19T09:16:48Z</time>
      </trkpt>
      <trkpt lat="42.7923000" lon="-8.6441300">
        <ele>57.2</ele>
        <time>2022-06-19T09:16:49Z</time>
      </trkpt>
      <trkpt lat="42.7923310" lon="-8.6440810">
        <ele>57.2</ele>
        <time>2022-06-19T09:16:50Z</time>
      </trkpt>
      <trkpt lat="42.7923630" lon="-8.6440360">
        <ele>57.2</ele>
        <time>2022-06-19T09:16:51Z</time>
      </trkpt>
      <trkpt lat="42.7923910" lon="-8.6439980">
        <ele>57.2</ele>
        <time>2022-06-19T09:16:52Z</time>
      </trkpt>
      <trkpt lat="42.7924130" lon="-8.6439510">
        <ele>57.8</ele>
        <time>2022-06-19T09:16:53Z</time>
      </trkpt>
      <trkpt lat="42.7924360" lon="-8.6439130">
        <ele>57.8</ele>
        <time>2022-06-19T09:16:54Z</time>
      </trkpt>
      <trkpt lat="42.7924650" lon="-8.6438730">
        <ele>57.8</ele>
        <time>2022-06-19T09:16:55Z</time>
      </trkpt>
      <trkpt lat="42.7925000" lon="-8.6438310">
        <ele>57.8</ele>
        <time>2022-06-19T09:16:56Z</time>
      </trkpt>
      <trkpt lat="42.7925360" lon="-8.6437950">
        <ele>58.6</ele>
        <time>2022-06-19T09:16:57Z</time>
      </trkpt>
      <trkpt lat="42.7925760" lon="-8.6437600">
        <ele>58.6</ele>
        <time>2022-06-19T09:16:58Z</time>
      </trkpt>
      <trkpt lat="42.7926110" lon="-8.6437260">
        <ele>58.6</ele>
        <time>2022-06-19T09:16:59Z</time>
      </trkpt>
      <trkpt lat="42.7926400" lon="-8.6437000">
        <ele>57.6</ele>
        <time>2022-06-19T09:17:00Z</time>
      </trkpt>
      <trkpt lat="42.7926700" lon="-8.6436750">
        <ele>58.4</ele>
        <time>2022-06-19T09:17:01Z</time>
      </trkpt>
      <trkpt lat="42.7926980" lon="-8.6436500">
        <ele>58.4</ele>
        <time>2022-06-19T09:17:02Z</time>
      </trkpt>
      <trkpt lat="42.7927250" lon="-8.6436200">
        <ele>58.4</ele>
        <time>2022-06-19T09:17:03Z</time>
      </trkpt>
      <trkpt lat="42.7927510" lon="-8.6435960">
        <ele>58.2</ele>
        <time>2022-06-19T09:17:04Z</time>
      </trkpt>
      <trkpt lat="42.7927800" lon="-8.6435680">
        <ele>58.8</ele>
        <time>2022-06-19T09:17:05Z</time>
      </trkpt>
      <trkpt lat="42.7928060" lon="-8.6435380">
        <ele>58.8</ele>
        <time>2022-06-19T09:17:06Z</time>
      </trkpt>
      <trkpt lat="42.7928360" lon="-8.6435200">
        <ele>58.8</ele>
        <time>2022-06-19T09:17:07Z</time>
      </trkpt>
      <trkpt lat="42.7928630" lon="-8.6434960">
        <ele>58.8</ele>
        <time>2022-06-19T09:17:08Z</time>
      </trkpt>
      <trkpt lat="42.7928900" lon="-8.6434700">
        <ele>59.2</ele>
        <time>2022-06-19T09:17:09Z</time>
      </trkpt>
      <trkpt lat="42.7928900" lon="-8.6434700">
        <ele>59.2</ele>
        <time>2022-06-19T09:17:10Z</time>
      </trkpt>
      <trkpt lat="42.7929330" lon="-8.6434110">
        <ele>59.2</ele>
        <time>2022-06-19T09:17:11Z</time>
      </trkpt>
      <trkpt lat="42.7929330" lon="-8.6434110">
        <ele>59.6</ele>
        <time>2022-06-19T09:17:12Z</time>
      </trkpt>
      <trkpt lat="42.7929780" lon="-8.6433500">
        <ele>59.6</ele>
        <time>2022-06-19T09:17:13Z</time>
      </trkpt>
      <trkpt lat="42.7930030" lon="-8.6433250">
        <ele>59.6</ele>
        <time>2022-06-19T09:17:14Z</time>
      </trkpt>
      <trkpt lat="42.7930300" lon="-8.6432960">
        <ele>59.6</ele>
        <time>2022-06-19T09:17:15Z</time>
      </trkpt>
      <trkpt lat="42.7930530" lon="-8.6432730">
        <ele>60.6</ele>
        <time>2022-06-19T09:17:16Z</time>
      </trkpt>
      <trkpt lat="42.7930760" lon="-8.6432450">
        <ele>60.4</ele>
        <time>2022-06-19T09:17:17Z</time>
      </trkpt>
      <trkpt lat="42.7931010" lon="-8.6432130">
        <ele>60.4</ele>
        <time>2022-06-19T09:17:18Z</time>
      </trkpt>
      <trkpt lat="42.7931250" lon="-8.6431860">
        <ele>60.4</ele>
        <time>2022-06-19T09:17:19Z</time>
      </trkpt>
      <trkpt lat="42.7931500" lon="-8.6431650">
        <ele>61.2</ele>
        <time>2022-06-19T09:17:20Z</time>
      </trkpt>
      <trkpt lat="42.7931700" lon="-8.6431380">
        <ele>61.0</ele>
        <time>2022-06-19T09:17:21Z</time>
      </trkpt>
      <trkpt lat="42.7931910" lon="-8.6431100">
        <ele>61.0</ele>
        <time>2022-06-19T09:17:22Z</time>
      </trkpt>
      <trkpt lat="42.7932100" lon="-8.6430780">
        <ele>61.0</ele>
        <time>2022-06-19T09:17:23Z</time>
      </trkpt>
      <trkpt lat="42.7932310" lon="-8.6430460">
        <ele>61.4</ele>
        <time>2022-06-19T09:17:24Z</time>
      </trkpt>
      <trkpt lat="42.7932550" lon="-8.6430130">
        <ele>62.2</ele>
        <time>2022-06-19T09:17:25Z</time>
      </trkpt>
      <trkpt lat="42.7932550" lon="-8.6430130">
        <ele>62.2</ele>
        <time>2022-06-19T09:17:26Z</time>
      </trkpt>
      <trkpt lat="42.7932550" lon="-8.6430130">
        <ele>62.2</ele>
        <time>2022-06-19T09:17:27Z</time>
      </trkpt>
      <trkpt lat="42.7933300" lon="-8.6429350">
        <ele>61.4</ele>
        <time>2022-06-19T09:17:28Z</time>
      </trkpt>
      <trkpt lat="42.7933530" lon="-8.6429130">
        <ele>62.0</ele>
        <time>2022-06-19T09:17:29Z</time>
      </trkpt>
      <trkpt lat="42.7933730" lon="-8.6428830">
        <ele>62.0</ele>
        <time>2022-06-19T09:17:30Z</time>
      </trkpt>
      <trkpt lat="42.7934030" lon="-8.6428510">
        <ele>62.0</ele>
        <time>2022-06-19T09:17:31Z</time>
      </trkpt>
      <trkpt lat="42.7934350" lon="-8.6428230">
        <ele>61.2</ele>
        <time>2022-06-19T09:17:32Z</time>
      </trkpt>
      <trkpt lat="42.7934650" lon="-8.6428000">
        <ele>61.6</ele>
        <time>2022-06-19T09:17:33Z</time>
      </trkpt>
      <trkpt lat="42.7934930" lon="-8.6427710">
        <ele>61.6</ele>
        <time>2022-06-19T09:17:34Z</time>
      </trkpt>
      <trkpt lat="42.7935250" lon="-8.6427360">
        <ele>61.6</ele>
        <time>2022-06-19T09:17:35Z</time>
      </trkpt>
      <trkpt lat="42.7935600" lon="-8.6426950">
        <ele>60.6</ele>
        <time>2022-06-19T09:17:36Z</time>
      </trkpt>
      <trkpt lat="42.7935960" lon="-8.6426530">
        <ele>59.2</ele>
        <time>2022-06-19T09:17:37Z</time>
      </trkpt>
      <trkpt lat="42.7936350" lon="-8.6426050">
        <ele>59.2</ele>
        <time>2022-06-19T09:17:38Z</time>
      </trkpt>
      <trkpt lat="42.7936730" lon="-8.6425600">
        <ele>59.2</ele>
        <time>2022-06-19T09:17:39Z</time>
      </trkpt>
      <trkpt lat="42.7937130" lon="-8.6425150">
        <ele>58.2</ele>
        <time>2022-06-19T09:17:40Z</time>
      </trkpt>
      <trkpt lat="42.7937500" lon="-8.6424680">
        <ele>57.0</ele>
        <time>2022-06-19T09:17:41Z</time>
      </trkpt>
      <trkpt lat="42.7937880" lon="-8.6424210">
        <ele>57.0</ele>
        <time>2022-06-19T09:17:42Z</time>
      </trkpt>
      <trkpt lat="42.7938260" lon="-8.6423760">
        <ele>57.0</ele>
        <time>2022-06-19T09:17:43Z</time>
      </trkpt>
      <trkpt lat="42.7938610" lon="-8.6423280">
        <ele>57.0</ele>
        <time>2022-06-19T09:17:44Z</time>
      </trkpt>
      <trkpt lat="42.7938980" lon="-8.6422800">
        <ele>57.2</ele>
        <time>2022-06-19T09:17:45Z</time>
      </trkpt>
      <trkpt lat="42.7939400" lon="-8.6422310">
        <ele>57.2</ele>
        <time>2022-06-19T09:17:46Z</time>
      </trkpt>
      <trkpt lat="42.7939760" lon="-8.6421810">
        <ele>57.2</ele>
        <time>2022-06-19T09:17:47Z</time>
      </trkpt>
      <trkpt lat="42.7940160" lon="-8.6421300">
        <ele>56.2</ele>
        <time>2022-06-19T09:17:48Z</time>
      </trkpt>
      <trkpt lat="42.7940580" lon="-8.6420760">
        <ele>52.4</ele>
        <time>2022-06-19T09:17:49Z</time>
      </trkpt>
      <trkpt lat="42.7941010" lon="-8.6420210">
        <ele>52.4</ele>
        <time>2022-06-19T09:17:50Z</time>
      </trkpt>
      <trkpt lat="42.7941430" lon="-8.6419700">
        <ele>52.4</ele>
        <time>2022-06-19T09:17:51Z</time>
      </trkpt>
      <trkpt lat="42.7941860" lon="-8.6419200">
        <ele>51.4</ele>
        <time>2022-06-19T09:17:52Z</time>
      </trkpt>
      <trkpt lat="42.7942260" lon="-8.6418680">
        <ele>49.0</ele>
        <time>2022-06-19T09:17:53Z</time>
      </trkpt>
      <trkpt lat="42.7942700" lon="-8.6418180">
        <ele>49.0</ele>
        <time>2022-06-19T09:17:54Z</time>
      </trkpt>
      <trkpt lat="42.7943100" lon="-8.6417730">
        <ele>49.0</ele>
        <time>2022-06-19T09:17:55Z</time>
      </trkpt>
      <trkpt lat="42.7943450" lon="-8.6417330">
        <ele>49.0</ele>
        <time>2022-06-19T09:17:56Z</time>
      </trkpt>
      <trkpt lat="42.7943800" lon="-8.6417000">
        <ele>48.0</ele>
        <time>2022-06-19T09:17:57Z</time>
      </trkpt>
      <trkpt lat="42.7944180" lon="-8.6416750">
        <ele>48.0</ele>
        <time>2022-06-19T09:17:58Z</time>
      </trkpt>
      <trkpt lat="42.7944600" lon="-8.6416610">
        <ele>48.0</ele>
        <time>2022-06-19T09:17:59Z</time>
      </trkpt>
      <trkpt lat="42.7945000" lon="-8.6416600">
        <ele>47.0</ele>
        <time>2022-06-19T09:18:00Z</time>
      </trkpt>
      <trkpt lat="42.7945400" lon="-8.6416630">
        <ele>45.6</ele>
        <time>2022-06-19T09:18:01Z</time>
      </trkpt>
      <trkpt lat="42.7945830" lon="-8.6416730">
        <ele>45.6</ele>
        <time>2022-06-19T09:18:02Z</time>
      </trkpt>
      <trkpt lat="42.7946160" lon="-8.6416730">
        <ele>45.6</ele>
        <time>2022-06-19T09:18:03Z</time>
      </trkpt>
      <trkpt lat="42.7946510" lon="-8.6416880">
        <ele>44.6</ele>
        <time>2022-06-19T09:18:04Z</time>
      </trkpt>
      <trkpt lat="42.7946830" lon="-8.6417000">
        <ele>42.8</ele>
        <time>2022-06-19T09:18:05Z</time>
      </trkpt>
      <trkpt lat="42.7947010" lon="-8.6417030">
        <ele>42.8</ele>
        <time>2022-06-19T09:18:06Z</time>
      </trkpt>
      <trkpt lat="42.7947180" lon="-8.6417100">
        <ele>42.8</ele>
        <time>2022-06-19T09:18:07Z</time>
      </trkpt>
      <trkpt lat="42.7947400" lon="-8.6417130">
        <ele>42.8</ele>
        <time>2022-06-19T09:18:08Z</time>
      </trkpt>
      <trkpt lat="42.7947630" lon="-8.6417250">
        <ele>42.4</ele>
        <time>2022-06-19T09:18:09Z</time>
      </trkpt>
      <trkpt lat="42.7947630" lon="-8.6417250">
        <ele>42.4</ele>
        <time>2022-06-19T09:18:10Z</time>
      </trkpt>
      <trkpt lat="42.7948210" lon="-8.6417330">
        <ele>42.4</ele>
        <time>2022-06-19T09:18:11Z</time>
      </trkpt>
      <trkpt lat="42.7948360" lon="-8.6417410">
        <ele>43.4</ele>
        <time>2022-06-19T09:18:12Z</time>
      </trkpt>
      <trkpt lat="42.7948380" lon="-8.6417480">
        <ele>43.2</ele>
        <time>2022-06-19T09:18:13Z</time>
      </trkpt>
      <trkpt lat="42.7948300" lon="-8.6417260">
        <ele>43.2</ele>
        <time>2022-06-19T09:18:14Z</time>
      </trkpt>
      <trkpt lat="42.7948450" lon="-8.6417100">
        <ele>43.2</ele>
        <time>2022-06-19T09:18:15Z</time>
      </trkpt>
      <trkpt lat="42.7948400" lon="-8.6417430">
        <ele>43.4</ele>
        <time>2022-06-19T09:18:16Z</time>
      </trkpt>
      <trkpt lat="42.7948430" lon="-8.6417310">
        <ele>43.8</ele>
        <time>2022-06-19T09:18:17Z</time>
      </trkpt>
      <trkpt lat="42.7948480" lon="-8.6417600">
        <ele>43.8</ele>
        <time>2022-06-19T09:18:18Z</time>
      </trkpt>
      <trkpt lat="42.7948480" lon="-8.6417600">
        <ele>43.8</ele>
        <time>2022-06-19T09:18:19Z</time>
      </trkpt>
      <trkpt lat="42.7948480" lon="-8.6417600">
        <ele>43.4</ele>
        <time>2022-06-19T09:18:20Z</time>
      </trkpt>
      <trkpt lat="42.7948600" lon="-8.6417610">
        <ele>43.6</ele>
        <time>2022-06-19T09:18:21Z</time>
      </trkpt>
      <trkpt lat="42.7948550" lon="-8.6417230">
        <ele>43.6</ele>
        <time>2022-06-19T09:18:22Z</time>
      </trkpt>
      <trkpt lat="42.7948380" lon="-8.6416560">
        <ele>43.6</ele>
        <time>2022-06-19T09:18:23Z</time>
      </trkpt>
      <trkpt lat="42.7948380" lon="-8.6416560">
        <ele>43.6</ele>
        <time>2022-06-19T09:18:24Z</time>
      </trkpt>
      <trkpt lat="42.7949330" lon="-8.6417060">
        <ele>43.8</ele>
        <time>2022-06-19T09:18:25Z</time>
      </trkpt>
      <trkpt lat="42.7955500" lon="-8.6419450">
        <ele>43.8</ele>
        <time>2022-06-19T09:19:14Z</time>
      </trkpt>
      <trkpt lat="42.7955880" lon="-8.6419750">
        <ele>43.8</ele>
        <time>2022-06-19T09:19:15Z</time>
      </trkpt>
      <trkpt lat="42.7956110" lon="-8.6419860">
        <ele>43.8</ele>
        <time>2022-06-19T09:19:16Z</time>
      </trkpt>
      <trkpt lat="42.7956210" lon="-8.6420050">
        <ele>43.6</ele>
        <time>2022-06-19T09:19:17Z</time>
      </trkpt>
      <trkpt lat="42.7956400" lon="-8.6419960">
        <ele>43.6</ele>
        <time>2022-06-19T09:19:18Z</time>
      </trkpt>
      <trkpt lat="42.7956600" lon="-8.6419820">
        <ele>43.6</ele>
        <time>2022-06-19T09:19:19Z</time>
      </trkpt>
      <trkpt lat="42.7956600" lon="-8.6419800">
        <ele>43.8</ele>
        <time>2022-06-19T09:19:20Z</time>
      </trkpt>
      <trkpt lat="42.7957050" lon="-8.6419810">
        <ele>43.8</ele>
        <time>2022-06-19T09:19:21Z</time>
      </trkpt>
      <trkpt lat="42.7957740" lon="-8.6419200">
        <ele>43.8</ele>
        <time>2022-06-19T09:19:22Z</time>
      </trkpt>
      <trkpt lat="42.7958230" lon="-8.6418820">
        <ele>43.8</ele>
        <time>2022-06-19T09:19:23Z</time>
      </trkpt>
      <trkpt lat="42.7958720" lon="-8.6418440">
        <ele>43.8</ele>
        <time>2022-06-19T09:19:24Z</time>
      </trkpt>
      <trkpt lat="42.7959200" lon="-8.6418060">
        <ele>44.0</ele>
        <time>2022-06-19T09:19:53Z</time>
      </trkpt>
      <trkpt lat="42.7959690" lon="-8.6417680">
        <ele>44.0</ele>
        <time>2022-06-19T09:19:54Z</time>
      </trkpt>
      <trkpt lat="42.7960170" lon="-8.6417300">
        <ele>44.0</ele>
        <time>2022-06-19T09:19:55Z</time>
      </trkpt>
      <trkpt lat="42.7960660" lon="-8.6416920">
        <ele>44.0</ele>
        <time>2022-06-19T09:19:56Z</time>
      </trkpt>
      <trkpt lat="42.7961140" lon="-8.6416540">
        <ele>43.6</ele>
        <time>2022-06-19T09:19:57Z</time>
      </trkpt>
      <trkpt lat="42.7961630" lon="-8.6416160">
        <ele>43.6</ele>
        <time>2022-06-19T09:19:58Z</time>
      </trkpt>
      <trkpt lat="42.7962060" lon="-8.6416050">
        <ele>43.6</ele>
        <time>2022-06-19T09:19:59Z</time>
      </trkpt>
      <trkpt lat="42.7962060" lon="-8.6416050">
        <ele>43.6</ele>
        <time>2022-06-19T09:20:00Z</time>
      </trkpt>
      <trkpt lat="42.7962200" lon="-8.6416010">
        <ele>44.0</ele>
        <time>2022-06-19T09:20:01Z</time>
      </trkpt>
      <trkpt lat="42.7962150" lon="-8.6416110">
        <ele>44.0</ele>
        <time>2022-06-19T09:20:02Z</time>
      </trkpt>
      <trkpt lat="42.7962100" lon="-8.6416160">
        <ele>44.0</ele>
        <time>2022-06-19T09:20:03Z</time>
      </trkpt>
      <trkpt lat="42.7962030" lon="-8.6416080">
        <ele>44.0</ele>
        <time>2022-06-19T09:20:04Z</time>
      </trkpt>
      <trkpt lat="42.7962080" lon="-8.6416160">
        <ele>43.8</ele>
        <time>2022-06-19T09:20:05Z</time>
      </trkpt>
      <trkpt lat="42.7962080" lon="-8.6416160">
        <ele>43.8</ele>
        <time>2022-06-19T09:20:06Z</time>
      </trkpt>
      <trkpt lat="42.7962210" lon="-8.6416260">
        <ele>43.8</ele>
        <time>2022-06-19T09:20:07Z</time>
      </trkpt>
      <trkpt lat="42.7962200" lon="-8.6416600">
        <ele>43.8</ele>
        <time>2022-06-19T09:20:08Z</time>
      </trkpt>
      <trkpt lat="42.7962200" lon="-8.6416600">
        <ele>43.8</ele>
        <time>2022-06-19T09:20:09Z</time>
      </trkpt>
      <trkpt lat="42.7962210" lon="-8.6416080">
        <ele>43.8</ele>
        <time>2022-06-19T09:20:10Z</time>
      </trkpt>
      <trkpt lat="42.7961750" lon="-8.6416340">
        <ele>43.8</ele>
        <time>2022-06-19T09:20:11Z</time>
      </trkpt>
      <trkpt lat="42.7961560" lon="-8.6416850">
        <ele>44.0</ele>
        <time>2022-06-19T09:20:12Z</time>
      </trkpt>
      <trkpt lat="42.7959840" lon="-8.6418490">
        <ele>44.0</ele>
        <time>2022-06-19T09:20:13Z</time>
      </trkpt>
      <trkpt lat="42.7958480" lon="-8.6419100">
        <ele>44.0</ele>
        <time>2022-06-19T09:20:14Z</time>
      </trkpt>
      <trkpt lat="42.7957120" lon="-8.6419710">
        <ele>43.6</ele>
        <time>2022-06-19T09:20:21Z</time>
      </trkpt>
      <trkpt lat="42.7955760" lon="-8.6420320">
        <ele>43.6</ele>
        <time>2022-06-19T09:20:22Z</time>
      </trkpt>
      <trkpt lat="42.7954400" lon="-8.6420930">
        <ele>43.6</ele>
        <time>2022-06-19T09:20:23Z</time>
      </trkpt>
      <trkpt lat="42.7953500" lon="-8.6421100">
        <ele>44.0</ele>
        <time>2022-06-19T09:20:24Z</time>
      </trkpt>
      <trkpt lat="42.7953000" lon="-8.6421200">
        <ele>44.2</ele>
        <time>2022-06-19T09:20:25Z</time>
      </trkpt>
      <trkpt lat="42.7953000" lon="-8.6421200">
        <ele>44.2</ele>
        <time>2022-06-19T09:20:26Z</time>
      </trkpt>
      <trkpt lat="42.7952060" lon="-8.6421170">
        <ele>44.2</ele>
        <time>2022-06-19T09:20:27Z</time>
      </trkpt>
      <trkpt lat="42.7952080" lon="-8.6421180">
        <ele>44.2</ele>
        <time>2022-06-19T09:20:28Z</time>
      </trkpt>
      <trkpt lat="42.7952550" lon="-8.6421130">
        <ele>44.2</ele>
        <time>2022-06-19T09:20:29Z</time>
      </trkpt>
      <trkpt lat="42.7953130" lon="-8.6421030">
        <ele>44.2</ele>
        <time>2022-06-19T09:20:30Z</time>
      </trkpt>
      <trkpt lat="42.7955250" lon="-8.6420360">
        <ele>44.0</ele>
        <time>2022-06-19T09:20:38Z</time>
      </trkpt>
      <trkpt lat="42.7955250" lon="-8.6420360">
        <ele>44.0</ele>
        <time>2022-06-19T09:20:39Z</time>
      </trkpt>
      <trkpt lat="42.7955380" lon="-8.6420550">
        <ele>44.0</ele>
        <time>2022-06-19T09:20:40Z</time>
      </trkpt>
      <trkpt lat="42.7955600" lon="-8.6420460">
        <ele>44.2</ele>
        <time>2022-06-19T09:20:41Z</time>
      </trkpt>
      <trkpt lat="42.7955800" lon="-8.6420250">
        <ele>44.2</ele>
        <time>2022-06-19T09:20:42Z</time>
      </trkpt>
      <trkpt lat="42.7956010" lon="-8.6420000">
        <ele>44.2</ele>
        <time>2022-06-19T09:20:43Z</time>
      </trkpt>
      <trkpt lat="42.7955840" lon="-8.6419490">
        <ele>44.2</ele>
        <time>2022-06-19T09:20:44Z</time>
      </trkpt>
      <trkpt lat="42.7955520" lon="-8.6419180">
        <ele>44.2</ele>
        <time>2022-06-19T09:20:45Z</time>
      </trkpt>
      <trkpt lat="42.7955200" lon="-8.6418870">
        <ele>44.2</ele>
        <time>2022-06-19T09:20:46Z</time>
      </trkpt>
      <trkpt lat="42.7954880" lon="-8.6418560">
        <ele>44.2</ele>
        <time>2022-06-19T09:20:47Z</time>
      </trkpt>
      <trkpt lat="42.7953500" lon="-8.6417510">
        <ele>43.8</ele>
        <time>2022-06-19T09:20:48Z</time>
      </trkpt>
      <trkpt lat="42.7952900" lon="-8.6417780">
        <ele>44.0</ele>
        <time>2022-06-19T09:20:49Z</time>
      </trkpt>
      <trkpt lat="42.7952800" lon="-8.6417700">
        <ele>44.0</ele>
        <time>2022-06-19T09:20:50Z</time>
      </trkpt>
      <trkpt lat="42.7952610" lon="-8.6417580">
        <ele>44.0</ele>
        <time>2022-06-19T09:20:51Z</time>
      </trkpt>
      <trkpt lat="42.7952310" lon="-8.6417590">
        <ele>44.0</ele>
        <time>2022-06-19T09:20:52Z</time>
      </trkpt>
      <trkpt lat="42.7952230" lon="-8.6417570">
        <ele>43.8</ele>
        <time>2022-06-19T09:20:53Z</time>
      </trkpt>
      <trkpt lat="42.7952160" lon="-8.6417560">
        <ele>43.8</ele>
        <time>2022-06-19T09:20:54Z</time>
      </trkpt>
      <trkpt lat="42.7952710" lon="-8.6416860">
        <ele>43.8</ele>
        <time>2022-06-19T09:20:55Z</time>
      </trkpt>
      <trkpt lat="42.7952710" lon="-8.6416860">
        <ele>44.0</ele>
        <time>2022-06-19T09:20:56Z</time>
      </trkpt>
      <trkpt lat="42.7952710" lon="-8.6416860">
        <ele>44.2</ele>
        <time>2022-06-19T09:20:57Z</time>
      </trkpt>
      <trkpt lat="42.7952710" lon="-8.6416860">
        <ele>44.2</ele>
        <time>2022-06-19T09:20:58Z</time>
      </trkpt>
      <trkpt lat="42.7952710" lon="-8.6416860">
        <ele>44.2</ele>
        <time>2022-06-19T09:20:59Z</time>
      </trkpt>
      <trkpt lat="42.7952710" lon="-8.6416860">
        <ele>44.0</ele>
        <time>2022-06-19T09:21:00Z</time>
      </trkpt>
      <trkpt lat="42.7948350" lon="-8.6420210">
        <ele>43.8</ele>
        <time>2022-06-19T09:21:13Z</time>
      </trkpt>
      <trkpt lat="42.7948180" lon="-8.6420610">
        <ele>43.8</ele>
        <time>2022-06-19T09:21:14Z</time>
      </trkpt>
      <trkpt lat="42.7948300" lon="-8.6420360">
        <ele>43.8</ele>
        <time>2022-06-19T09:21:15Z</time>
      </trkpt>
      <trkpt lat="42.7948380" lon="-8.6420110">
        <ele>43.8</ele>
        <time>2022-06-19T09:21:16Z</time>
      </trkpt>
      <trkpt lat="42.7948500" lon="-8.6420060">
        <ele>43.8</ele>
        <time>2022-06-19T09:21:17Z</time>
      </trkpt>
      <trkpt lat="42.7948560" lon="-8.6420630">
        <ele>43.8</ele>
        <time>2022-06-19T09:21:18Z</time>
      </trkpt>
      <trkpt lat="42.7948560" lon="-8.6420630">
        <ele>43.8</ele>
        <time>2022-06-19T09:21:19Z</time>
      </trkpt>
      <trkpt lat="42.7948560" lon="-8.6420630">
        <ele>43.8</ele>
        <time>2022-06-19T09:21:20Z</time>
      </trkpt>
      <trkpt lat="42.7948180" lon="-8.6420800">
        <ele>43.6</ele>
        <time>2022-06-19T09:21:21Z</time>
      </trkpt>
      <trkpt lat="42.7948180" lon="-8.6420800">
        <ele>43.6</ele>
        <time>2022-06-19T09:21:22Z</time>
      </trkpt>
      <trkpt lat="42.7948180" lon="-8.6420800">
        <ele>43.6</ele>
        <time>2022-06-19T09:21:23Z</time>
      </trkpt>
      <trkpt lat="42.7948180" lon="-8.6420800">
        <ele>43.8</ele>
        <time>2022-06-19T09:21:24Z</time>
      </trkpt>
      <trkpt lat="42.7947830" lon="-8.6421330">
        <ele>43.8</ele>
        <time>2022-06-19T09:21:25Z</time>
      </trkpt>
      <trkpt lat="42.7947830" lon="-8.6421330">
        <ele>43.8</ele>
        <time>2022-06-19T09:21:26Z</time>
      </trkpt>
      <trkpt lat="42.7948210" lon="-8.6421770">
        <ele>43.8</ele>
        <time>2022-06-19T09:21:27Z</time>
      </trkpt>
      <trkpt lat="42.7948160" lon="-8.6421860">
        <ele>43.8</ele>
        <time>2022-06-19T09:21:28Z</time>
      </trkpt>
      <trkpt lat="42.7948120" lon="-8.6421940">
        <ele>44.4</ele>
        <time>2022-06-19T09:21:29Z</time>
      </trkpt>
      <trkpt lat="42.7948070" lon="-8.6422030">
        <ele>44.4</ele>
        <time>2022-06-19T09:21:30Z</time>
      </trkpt>
      <trkpt lat="42.7948030" lon="-8.6422120">
        <ele>44.4</ele>
        <time>2022-06-19T09:21:31Z</time>
      </trkpt>
      <trkpt lat="42.7947980" lon="-8.6422210">
        <ele>44.2</ele>
        <time>2022-06-19T09:21:32Z</time>
      </trkpt>
      <trkpt lat="42.7947940" lon="-8.6422290">
        <ele>43.8</ele>
        <time>2022-06-19T09:21:33Z</time>
      </trkpt>
      <trkpt lat="42.7947740" lon="-8.6422970">
        <ele>43.8</ele>
        <time>2022-06-19T09:21:34Z</time>
      </trkpt>
      <trkpt lat="42.7947850" lon="-8.6423040">
        <ele>43.8</ele>
        <time>2022-06-19T09:21:35Z</time>
      </trkpt>
      <trkpt lat="42.7947960" lon="-8.6423110">
        <ele>44.0</ele>
        <time>2022-06-19T09:21:36Z</time>
      </trkpt>
      <trkpt lat="42.7948060" lon="-8.6423170">
        <ele>44.0</ele>
        <time>2022-06-19T09:21:37Z</time>
      </trkpt>
      <trkpt lat="42.7948170" lon="-8.6423240">
        <ele>44.0</ele>
        <time>2022-06-19T09:21:38Z</time>
      </trkpt>
      <trkpt lat="42.7948280" lon="-8.6423300">
        <ele>44.0</ele>
        <time>2022-06-19T09:21:39Z</time>
      </trkpt>
      <trkpt lat="42.7948390" lon="-8.6423370">
        <ele>44.0</ele>
        <time>2022-06-19T09:21:40Z</time>
      </trkpt>
      <trkpt lat="42.7948500" lon="-8.6423430">
        <ele>44.0</ele>
        <time>2022-06-19T09:21:41Z</time>
      </trkpt>
      <trkpt lat="42.7948610" lon="-8.6423500">
        <ele>44.0</ele>
        <time>2022-06-19T09:21:42Z</time>
      </trkpt>
      <trkpt lat="42.7948720" lon="-8.6423560">
        <ele>44.0</ele>
        <time>2022-06-19T09:21:43Z</time>
      </trkpt>
      <trkpt lat="42.7948820" lon="-8.6423630">
        <ele>44.0</ele>
        <time>2022-06-19T09:21:44Z</time>
      </trkpt>
      <trkpt lat="42.7948930" lon="-8.6423690">
        <ele>44.0</ele>
        <time>2022-06-19T09:21:45Z</time>
      </trkpt>
      <trkpt lat="42.7949040" lon="-8.6423760">
        <ele>44.0</ele>
        <time>2022-06-19T09:21:46Z</time>
      </trkpt>
      <trkpt lat="42.7949150" lon="-8.6423820">
        <ele>44.0</ele>
        <time>2022-06-19T09:21:47Z</time>
      </trkpt>
      <trkpt lat="42.7949260" lon="-8.6423890">
        <ele>44.0</ele>
        <time>2022-06-19T09:21:48Z</time>
      </trkpt>
      <trkpt lat="42.7949370" lon="-8.6423960">
        <ele>43.8</ele>
        <time>2022-06-19T09:21:49Z</time>
      </trkpt>
      <trkpt lat="42.7949480" lon="-8.6424020">
        <ele>43.8</ele>
        <time>2022-06-19T09:21:50Z</time>
      </trkpt>
      <trkpt lat="42.7949590" lon="-8.6424090">
        <ele>43.8</ele>
        <time>2022-06-19T09:21:51Z</time>
      </trkpt>
      <trkpt lat="42.7949690" lon="-8.6424150">
        <ele>44.0</ele>
        <time>2022-06-19T09:21:52Z</time>
      </trkpt>
      <trkpt lat="42.7949800" lon="-8.6424220">
        <ele>44.2</ele>
        <time>2022-06-19T09:21:53Z</time>
      </trkpt>
      <trkpt lat="42.7949910" lon="-8.6424280">
        <ele>44.2</ele>
        <time>2022-06-19T09:21:54Z</time>
      </trkpt>
      <trkpt lat="42.7950020" lon="-8.6424350">
        <ele>44.2</ele>
        <time>2022-06-19T09:21:55Z</time>
      </trkpt>
      <trkpt lat="42.7950130" lon="-8.6424410">
        <ele>44.2</ele>
        <time>2022-06-19T09:21:56Z</time>
      </trkpt>
      <trkpt lat="42.7950240" lon="-8.6424480">
        <ele>44.4</ele>
        <time>2022-06-19T09:21:57Z</time>
      </trkpt>
      <trkpt lat="42.7950350" lon="-8.6424540">
        <ele>44.4</ele>
        <time>2022-06-19T09:21:58Z</time>
      </trkpt>
      <trkpt lat="42.7950450" lon="-8.6424610">
        <ele>44.4</ele>
        <time>2022-06-19T09:21:59Z</time>
      </trkpt>
      <trkpt lat="42.7953280" lon="-8.6426310">
        <ele>44.4</ele>
        <time>2022-06-19T09:22:00Z</time>
      </trkpt>
      <trkpt lat="42.7953360" lon="-8.6426130">
        <ele>44.2</ele>
        <time>2022-06-19T09:22:01Z</time>
      </trkpt>
      <trkpt lat="42.7953330" lon="-8.6426060">
        <ele>44.2</ele>
        <time>2022-06-19T09:22:02Z</time>
      </trkpt>
      <trkpt lat="42.7953430" lon="-8.6425760">
        <ele>44.2</ele>
        <time>2022-06-19T09:22:03Z</time>
      </trkpt>
      <trkpt lat="42.7953630" lon="-8.6425480">
        <ele>44.2</ele>
        <time>2022-06-19T09:22:04Z</time>
      </trkpt>
      <trkpt lat="42.7953600" lon="-8.6425210">
        <ele>43.8</ele>
        <time>2022-06-19T09:22:05Z</time>
      </trkpt>
      <trkpt lat="42.7953460" lon="-8.6425150">
        <ele>43.8</ele>
        <time>2022-06-19T09:22:06Z</time>
      </trkpt>
      <trkpt lat="42.7953350" lon="-8.6425060">
        <ele>43.8</ele>
        <time>2022-06-19T09:22:07Z</time>
      </trkpt>
      <trkpt lat="42.7953180" lon="-8.6425110">
        <ele>43.8</ele>
        <time>2022-06-19T09:22:08Z</time>
      </trkpt>
      <trkpt lat="42.7953180" lon="-8.6425110">
        <ele>43.8</ele>
        <time>2022-06-19T09:22:09Z</time>
      </trkpt>
      <trkpt lat="42.7949800" lon="-8.6420130">
        <ele>43.0</ele>
        <time>2022-06-19T09:23:39Z</time>
      </trkpt>
      <trkpt lat="42.7949650" lon="-8.6420380">
        <ele>43.0</ele>
        <time>2022-06-19T09:23:40Z</time>
      </trkpt>
      <trkpt lat="42.7949910" lon="-8.6420430">
        <ele>42.4</ele>
        <time>2022-06-19T09:23:41Z</time>
      </trkpt>
      <trkpt lat="42.7949910" lon="-8.6420430">
        <ele>42.4</ele>
        <time>2022-06-19T09:23:42Z</time>
      </trkpt>
      <trkpt lat="42.7950080" lon="-8.6420610">
        <ele>42.4</ele>
        <time>2022-06-19T09:23:43Z</time>
      </trkpt>
      <trkpt lat="42.7950310" lon="-8.6420800">
        <ele>42.4</ele>
        <time>2022-06-19T09:23:44Z</time>
      </trkpt>
      <trkpt lat="42.7950530" lon="-8.6420950">
        <ele>42.4</ele>
        <time>2022-06-19T09:23:45Z</time>
      </trkpt>
      <trkpt lat="42.7950780" lon="-8.6421100">
        <ele>42.4</ele>
        <time>2022-06-19T09:23:46Z</time>
      </trkpt>
      <trkpt lat="42.7951030" lon="-8.6421160">
        <ele>42.4</ele>
        <time>2022-06-19T09:23:47Z</time>
      </trkpt>
      <trkpt lat="42.7951030" lon="-8.6421160">
        <ele>42.4</ele>
        <time>2022-06-19T09:23:48Z</time>
      </trkpt>
      <trkpt lat="42.7951550" lon="-8.6421430">
        <ele>42.0</ele>
        <time>2022-06-19T09:23:49Z</time>
      </trkpt>
      <trkpt lat="42.7951810" lon="-8.6421550">
        <ele>42.0</ele>
        <time>2022-06-19T09:23:50Z</time>
      </trkpt>
      <trkpt lat="42.7951810" lon="-8.6421550">
        <ele>42.0</ele>
        <time>2022-06-19T09:23:51Z</time>
      </trkpt>
      <trkpt lat="42.7952300" lon="-8.6421880">
        <ele>42.0</ele>
        <time>2022-06-19T09:23:52Z</time>
      </trkpt>
      <trkpt lat="42.7952560" lon="-8.6422030">
        <ele>41.4</ele>
        <time>2022-06-19T09:23:53Z</time>
      </trkpt>
      <trkpt lat="42.7952830" lon="-8.6422250">
        <ele>41.4</ele>
        <time>2022-06-19T09:23:54Z</time>
      </trkpt>
      <trkpt lat="42.7953080" lon="-8.6422460">
        <ele>41.4</ele>
        <time>2022-06-19T09:23:55Z</time>
      </trkpt>
      <trkpt lat="42.7953330" lon="-8.6422650">
        <ele>41.4</ele>
        <time>2022-06-19T09:23:56Z</time>
      </trkpt>
      <trkpt lat="42.7953610" lon="-8.6422850">
        <ele>40.8</ele>
        <time>2022-06-19T09:23:57Z</time>
      </trkpt>
      <trkpt lat="42.7953900" lon="-8.6423000">
        <ele>40.8</ele>
        <time>2022-06-19T09:23:58Z</time>
      </trkpt>
      <trkpt lat="42.7954210" lon="-8.6423030">
        <ele>40.8</ele>
        <time>2022-06-19T09:23:59Z</time>
      </trkpt>
      <trkpt lat="42.7954510" lon="-8.6423010">
        <ele>41.8</ele>
        <time>2022-06-19T09:24:00Z</time>
      </trkpt>
      <trkpt lat="42.7954830" lon="-8.6422980">
        <ele>41.8</ele>
        <time>2022-06-19T09:24:01Z</time>
      </trkpt>
      <trkpt lat="42.7955080" lon="-8.6422950">
        <ele>41.8</ele>
        <time>2022-06-19T09:24:02Z</time>
      </trkpt>
      <trkpt lat="42.7955350" lon="-8.6422910">
        <ele>41.8</ele>
        <time>2022-06-19T09:24:03Z</time>
      </trkpt>
      <trkpt lat="42.7955630" lon="-8.6422880">
        <ele>41.8</ele>
        <time>2022-06-19T09:24:04Z</time>
      </trkpt>
      <trkpt lat="42.7955930" lon="-8.6422730">
        <ele>41.4</ele>
        <time>2022-06-19T09:24:05Z</time>
      </trkpt>
      <trkpt lat="42.7956180" lon="-8.6422410">
        <ele>41.4</ele>
        <time>2022-06-19T09:24:06Z</time>
      </trkpt>
      <trkpt lat="42.7956380" lon="-8.6422030">
        <ele>41.4</ele>
        <time>2022-06-19T09:24:07Z</time>
      </trkpt>
      <trkpt lat="42.7956600" lon="-8.6421610">
        <ele>41.4</ele>
        <time>2022-06-19T09:24:08Z</time>
      </trkpt>
      <trkpt lat="42.7956810" lon="-8.6421180">
        <ele>40.8</ele>
        <time>2022-06-19T09:24:09Z</time>
      </trkpt>
      <trkpt lat="42.7956810" lon="-8.6421180">
        <ele>40.8</ele>
        <time>2022-06-19T09:24:10Z</time>
      </trkpt>
      <trkpt lat="42.7957300" lon="-8.6420380">
        <ele>40.8</ele>
        <time>2022-06-19T09:24:11Z</time>
      </trkpt>
      <trkpt lat="42.7957580" lon="-8.6420030">
        <ele>40.2</ele>
        <time>2022-06-19T09:24:12Z</time>
      </trkpt>
      <trkpt lat="42.7957880" lon="-8.6419660">
        <ele>39.8</ele>
        <time>2022-06-19T09:24:13Z</time>
      </trkpt>
      <trkpt lat="42.7958180" lon="-8.6419300">
        <ele>39.8</ele>
        <time>2022-06-19T09:24:14Z</time>
      </trkpt>
      <trkpt lat="42.7958430" lon="-8.6418900">
        <ele>39.8</ele>
        <time>2022-06-19T09:24:15Z</time>
      </trkpt>
      <trkpt lat="42.7958710" lon="-8.6418530">
        <ele>39.6</ele>
        <time>2022-06-19T09:24:16Z</time>
      </trkpt>
      <trkpt lat="42.7959050" lon="-8.6418160">
        <ele>39.6</ele>
        <time>2022-06-19T09:24:17Z</time>
      </trkpt>
      <trkpt lat="42.7959400" lon="-8.6417750">
        <ele>39.6</ele>
        <time>2022-06-19T09:24:18Z</time>
      </trkpt>
      <trkpt lat="42.7959730" lon="-8.6417300">
        <ele>39.6</ele>
        <time>2022-06-19T09:24:19Z</time>
      </trkpt>
      <trkpt lat="42.7960050" lon="-8.6416830">
        <ele>39.2</ele>
        <time>2022-06-19T09:24:20Z</time>
      </trkpt>
      <trkpt lat="42.7960360" lon="-8.6416330">
        <ele>38.6</ele>
        <time>2022-06-19T09:24:21Z</time>
      </trkpt>
      <trkpt lat="42.7960820" lon="-8.6415530">
        <ele>38.6</ele>
        <time>2022-06-19T09:24:22Z</time>
      </trkpt>
      <trkpt lat="42.7960960" lon="-8.6415240">
        <ele>38.6</ele>
        <time>2022-06-19T09:24:23Z</time>
      </trkpt>
      <trkpt lat="42.7961090" lon="-8.6414960">
        <ele>38.6</ele>
        <time>2022-06-19T09:24:24Z</time>
      </trkpt>
      <trkpt lat="42.7961510" lon="-8.6414110">
        <ele>38.2</ele>
        <time>2022-06-19T09:24:25Z</time>
      </trkpt>
      <trkpt lat="42.7961700" lon="-8.6413550">
        <ele>38.2</ele>
        <time>2022-06-19T09:24:26Z</time>
      </trkpt>
      <trkpt lat="42.7961700" lon="-8.6413550">
        <ele>38.2</ele>
        <time>2022-06-19T09:24:27Z</time>
      </trkpt>
      <trkpt lat="42.7961780" lon="-8.6412460">
        <ele>38.2</ele>
        <time>2022-06-19T09:24:28Z</time>
      </trkpt>
      <trkpt lat="42.7961780" lon="-8.6411960">
        <ele>38.4</ele>
        <time>2022-06-19T09:24:29Z</time>
      </trkpt>
      <trkpt lat="42.7961820" lon="-8.6411240">
        <ele>38.4</ele>
        <time>2022-06-19T09:24:30Z</time>
      </trkpt>
      <trkpt lat="42.7961830" lon="-8.6411010">
        <ele>38.4</ele>
        <time>2022-06-19T09:24:31Z</time>
      </trkpt>
      <trkpt lat="42.7961840" lon="-8.6410770">
        <ele>38.4</ele>
        <time>2022-06-19T09:24:32Z</time>
      </trkpt>
      <trkpt lat="42.7961880" lon="-8.6410060">
        <ele>39.2</ele>
        <time>2022-06-19T09:24:33Z</time>
      </trkpt>
      <trkpt lat="42.7961950" lon="-8.6409630">
        <ele>39.2</ele>
        <time>2022-06-19T09:24:34Z</time>
      </trkpt>
      <trkpt lat="42.7962010" lon="-8.6409200">
        <ele>39.2</ele>
        <time>2022-06-19T09:24:35Z</time>
      </trkpt>
      <trkpt lat="42.7962110" lon="-8.6408760">
        <ele>39.2</ele>
        <time>2022-06-19T09:24:36Z</time>
      </trkpt>
      <trkpt lat="42.7962210" lon="-8.6408330">
        <ele>39.8</ele>
        <time>2022-06-19T09:24:37Z</time>
      </trkpt>
      <trkpt lat="42.7962210" lon="-8.6408330">
        <ele>39.8</ele>
        <time>2022-06-19T09:24:38Z</time>
      </trkpt>
      <trkpt lat="42.7962400" lon="-8.6407500">
        <ele>39.8</ele>
        <time>2022-06-19T09:24:39Z</time>
      </trkpt>
      <trkpt lat="42.7962480" lon="-8.6407110">
        <ele>39.8</ele>
        <time>2022-06-19T09:24:40Z</time>
      </trkpt>
      <trkpt lat="42.7962560" lon="-8.6406700">
        <ele>39.8</ele>
        <time>2022-06-19T09:24:41Z</time>
      </trkpt>
      <trkpt lat="42.7962650" lon="-8.6406260">
        <ele>39.8</ele>
        <time>2022-06-19T09:24:42Z</time>
      </trkpt>
      <trkpt lat="42.7962730" lon="-8.6405880">
        <ele>39.8</ele>
        <time>2022-06-19T09:24:43Z</time>
      </trkpt>
      <trkpt lat="42.7962860" lon="-8.6405480">
        <ele>39.8</ele>
        <time>2022-06-19T09:24:44Z</time>
      </trkpt>
      <trkpt lat="42.7963000" lon="-8.6405100">
        <ele>39.8</ele>
        <time>2022-06-19T09:24:45Z</time>
      </trkpt>
      <trkpt lat="42.7963150" lon="-8.6404700">
        <ele>39.8</ele>
        <time>2022-06-19T09:24:46Z</time>
      </trkpt>
      <trkpt lat="42.7963330" lon="-8.6404310">
        <ele>39.8</ele>
        <time>2022-06-19T09:24:47Z</time>
      </trkpt>
      <trkpt lat="42.7963330" lon="-8.6404310">
        <ele>39.8</ele>
        <time>2022-06-19T09:24:48Z</time>
      </trkpt>
      <trkpt lat="42.7963760" lon="-8.6403530">
        <ele>38.8</ele>
        <time>2022-06-19T09:24:49Z</time>
      </trkpt>
      <trkpt lat="42.7964110" lon="-8.6402910">
        <ele>38.8</ele>
        <time>2022-06-19T09:24:50Z</time>
      </trkpt>
      <trkpt lat="42.7964220" lon="-8.6402710">
        <ele>38.8</ele>
        <time>2022-06-19T09:24:51Z</time>
      </trkpt>
      <trkpt lat="42.7964320" lon="-8.6402500">
        <ele>38.8</ele>
        <time>2022-06-19T09:24:52Z</time>
      </trkpt>
      <trkpt lat="42.7964650" lon="-8.6401900">
        <ele>39.4</ele>
        <time>2022-06-19T09:24:53Z</time>
      </trkpt>
      <trkpt lat="42.7964650" lon="-8.6401900">
        <ele>39.4</ele>
        <time>2022-06-19T09:24:54Z</time>
      </trkpt>
      <trkpt lat="42.7964860" lon="-8.6400960">
        <ele>39.4</ele>
        <time>2022-06-19T09:24:55Z</time>
      </trkpt>
      <trkpt lat="42.7964880" lon="-8.6400480">
        <ele>39.4</ele>
        <time>2022-06-19T09:24:56Z</time>
      </trkpt>
      <trkpt lat="42.7964880" lon="-8.6400480">
        <ele>39.8</ele>
        <time>2022-06-19T09:24:57Z</time>
      </trkpt>
      <trkpt lat="42.7964730" lon="-8.6399630">
        <ele>39.8</ele>
        <time>2022-06-19T09:24:58Z</time>
      </trkpt>
      <trkpt lat="42.7964650" lon="-8.6399210">
        <ele>39.8</ele>
        <time>2022-06-19T09:24:59Z</time>
      </trkpt>
      <trkpt lat="42.7964650" lon="-8.6399210">
        <ele>39.8</ele>
        <time>2022-06-19T09:25:00Z</time>
      </trkpt>
      <trkpt lat="42.7964400" lon="-8.6398380">
        <ele>39.6</ele>
        <time>2022-06-19T09:25:01Z</time>
      </trkpt>
      <trkpt lat="42.7964280" lon="-8.6397980">
        <ele>39.6</ele>
        <time>2022-06-19T09:25:02Z</time>
      </trkpt>
      <trkpt lat="42.7964280" lon="-8.6397980">
        <ele>39.6</ele>
        <time>2022-06-19T09:25:03Z</time>
      </trkpt>
      <trkpt lat="42.7964010" lon="-8.6397150">
        <ele>40.6</ele>
        <time>2022-06-19T09:25:04Z</time>
      </trkpt>
      <trkpt lat="42.7963900" lon="-8.6396750">
        <ele>40.2</ele>
        <time>2022-06-19T09:25:05Z</time>
      </trkpt>
      <trkpt lat="42.7963810" lon="-8.6396330">
        <ele>40.2</ele>
        <time>2022-06-19T09:25:06Z</time>
      </trkpt>
      <trkpt lat="42.7963810" lon="-8.6396330">
        <ele>40.2</ele>
        <time>2022-06-19T09:25:07Z</time>
      </trkpt>
      <trkpt lat="42.7963700" lon="-8.6395500">
        <ele>40.2</ele>
        <time>2022-06-19T09:25:08Z</time>
      </trkpt>
      <trkpt lat="42.7963700" lon="-8.6395080">
        <ele>39.0</ele>
        <time>2022-06-19T09:25:09Z</time>
      </trkpt>
      <trkpt lat="42.7963810" lon="-8.6394630">
        <ele>39.0</ele>
        <time>2022-06-19T09:25:10Z</time>
      </trkpt>
      <trkpt lat="42.7963960" lon="-8.6394180">
        <ele>39.0</ele>
        <time>2022-06-19T09:25:11Z</time>
      </trkpt>
      <trkpt lat="42.7964060" lon="-8.6393700">
        <ele>39.0</ele>
        <time>2022-06-19T09:25:12Z</time>
      </trkpt>
      <trkpt lat="42.7964060" lon="-8.6393700">
        <ele>38.8</ele>
        <time>2022-06-19T09:25:13Z</time>
      </trkpt>
      <trkpt lat="42.7964180" lon="-8.6392780">
        <ele>38.8</ele>
        <time>2022-06-19T09:25:14Z</time>
      </trkpt>
      <trkpt lat="42.7964250" lon="-8.6392380">
        <ele>38.8</ele>
        <time>2022-06-19T09:25:15Z</time>
      </trkpt>
      <trkpt lat="42.7964350" lon="-8.6392050">
        <ele>39.2</ele>
        <time>2022-06-19T09:25:16Z</time>
      </trkpt>
      <trkpt lat="42.7964350" lon="-8.6392050">
        <ele>39.4</ele>
        <time>2022-06-19T09:25:17Z</time>
      </trkpt>
      <trkpt lat="42.7964800" lon="-8.6391330">
        <ele>39.4</ele>
        <time>2022-06-19T09:25:18Z</time>
      </trkpt>
      <trkpt lat="42.7965080" lon="-8.6391030">
        <ele>39.4</ele>
        <time>2022-06-19T09:25:19Z</time>
      </trkpt>
      <trkpt lat="42.7965080" lon="-8.6391030">
        <ele>38.8</ele>
        <time>2022-06-19T09:25:20Z</time>
      </trkpt>
      <trkpt lat="42.7965850" lon="-8.6390730">
        <ele>38.0</ele>
        <time>2022-06-19T09:25:21Z</time>
      </trkpt>
      <trkpt lat="42.7966300" lon="-8.6390780">
        <ele>38.0</ele>
        <time>2022-06-19T09:25:22Z</time>
      </trkpt>
      <trkpt lat="42.7966300" lon="-8.6390780">
        <ele>38.0</ele>
        <time>2022-06-19T09:25:23Z</time>
      </trkpt>
      <trkpt lat="42.7967200" lon="-8.6390930">
        <ele>38.0</ele>
        <time>2022-06-19T09:25:24Z</time>
      </trkpt>
      <trkpt lat="42.7967630" lon="-8.6390930">
        <ele>37.8</ele>
        <time>2022-06-19T09:25:25Z</time>
      </trkpt>
      <trkpt lat="42.7968050" lon="-8.6390700">
        <ele>37.8</ele>
        <time>2022-06-19T09:25:26Z</time>
      </trkpt>
      <trkpt lat="42.7968310" lon="-8.6390350">
        <ele>37.8</ele>
        <time>2022-06-19T09:25:27Z</time>
      </trkpt>
      <trkpt lat="42.7968610" lon="-8.6390050">
        <ele>37.8</ele>
        <time>2022-06-19T09:25:28Z</time>
      </trkpt>
      <trkpt lat="42.7968950" lon="-8.6389750">
        <ele>37.8</ele>
        <time>2022-06-19T09:25:29Z</time>
      </trkpt>
      <trkpt lat="42.7969230" lon="-8.6389500">
        <ele>37.8</ele>
        <time>2022-06-19T09:25:30Z</time>
      </trkpt>
      <trkpt lat="42.7969600" lon="-8.6389360">
        <ele>37.8</ele>
        <time>2022-06-19T09:25:31Z</time>
      </trkpt>
      <trkpt lat="42.7969600" lon="-8.6389360">
        <ele>37.8</ele>
        <time>2022-06-19T09:25:32Z</time>
      </trkpt>
      <trkpt lat="42.7970260" lon="-8.6388980">
        <ele>38.4</ele>
        <time>2022-06-19T09:25:33Z</time>
      </trkpt>
      <trkpt lat="42.7970600" lon="-8.6388800">
        <ele>38.4</ele>
        <time>2022-06-19T09:25:34Z</time>
      </trkpt>
      <trkpt lat="42.7970950" lon="-8.6388680">
        <ele>38.4</ele>
        <time>2022-06-19T09:25:35Z</time>
      </trkpt>
      <trkpt lat="42.7971330" lon="-8.6388530">
        <ele>38.4</ele>
        <time>2022-06-19T09:25:36Z</time>
      </trkpt>
      <trkpt lat="42.7971730" lon="-8.6388450">
        <ele>38.2</ele>
        <time>2022-06-19T09:25:37Z</time>
      </trkpt>
      <trkpt lat="42.7972100" lon="-8.6388380">
        <ele>38.2</ele>
        <time>2022-06-19T09:25:38Z</time>
      </trkpt>
      <trkpt lat="42.7972450" lon="-8.6388260">
        <ele>38.2</ele>
        <time>2022-06-19T09:25:39Z</time>
      </trkpt>
      <trkpt lat="42.7972450" lon="-8.6388260">
        <ele>38.2</ele>
        <time>2022-06-19T09:25:40Z</time>
      </trkpt>
      <trkpt lat="42.7973110" lon="-8.6387560">
        <ele>36.6</ele>
        <time>2022-06-19T09:25:41Z</time>
      </trkpt>
      <trkpt lat="42.7973360" lon="-8.6387160">
        <ele>36.6</ele>
        <time>2022-06-19T09:25:42Z</time>
      </trkpt>
      <trkpt lat="42.7973610" lon="-8.6386750">
        <ele>36.6</ele>
        <time>2022-06-19T09:25:43Z</time>
      </trkpt>
      <trkpt lat="42.7973910" lon="-8.6386310">
        <ele>36.6</ele>
        <time>2022-06-19T09:25:44Z</time>
      </trkpt>
      <trkpt lat="42.7974250" lon="-8.6385960">
        <ele>36.2</ele>
        <time>2022-06-19T09:25:45Z</time>
      </trkpt>
      <trkpt lat="42.7974250" lon="-8.6385960">
        <ele>36.2</ele>
        <time>2022-06-19T09:25:46Z</time>
      </trkpt>
      <trkpt lat="42.7974960" lon="-8.6385330">
        <ele>36.2</ele>
        <time>2022-06-19T09:25:47Z</time>
      </trkpt>
      <trkpt lat="42.7975280" lon="-8.6385050">
        <ele>36.2</ele>
        <time>2022-06-19T09:25:48Z</time>
      </trkpt>
      <trkpt lat="42.7975560" lon="-8.6384680">
        <ele>36.0</ele>
        <time>2022-06-19T09:25:49Z</time>
      </trkpt>
      <trkpt lat="42.7975940" lon="-8.6384030">
        <ele>36.0</ele>
        <time>2022-06-19T09:25:50Z</time>
      </trkpt>
      <trkpt lat="42.7976080" lon="-8.6383820">
        <ele>36.0</ele>
        <time>2022-06-19T09:25:51Z</time>
      </trkpt>
      <trkpt lat="42.7976210" lon="-8.6383620">
        <ele>35.2</ele>
        <time>2022-06-19T09:25:52Z</time>
      </trkpt>
      <trkpt lat="42.7976610" lon="-8.6383010">
        <ele>36.2</ele>
        <time>2022-06-19T09:25:53Z</time>
      </trkpt>
      <trkpt lat="42.7976950" lon="-8.6382630">
        <ele>36.2</ele>
        <time>2022-06-19T09:25:54Z</time>
      </trkpt>
      <trkpt lat="42.7977200" lon="-8.6382310">
        <ele>36.2</ele>
        <time>2022-06-19T09:25:55Z</time>
      </trkpt>
      <trkpt lat="42.7977200" lon="-8.6382310">
        <ele>36.2</ele>
        <time>2022-06-19T09:25:56Z</time>
      </trkpt>
      <trkpt lat="42.7977550" lon="-8.6381560">
        <ele>37.2</ele>
        <time>2022-06-19T09:25:57Z</time>
      </trkpt>
      <trkpt lat="42.7977730" lon="-8.6381160">
        <ele>37.2</ele>
        <time>2022-06-19T09:25:58Z</time>
      </trkpt>
      <trkpt lat="42.7977900" lon="-8.6380760">
        <ele>37.2</ele>
        <time>2022-06-19T09:25:59Z</time>
      </trkpt>
      <trkpt lat="42.7978110" lon="-8.6380400">
        <ele>36.6</ele>
        <time>2022-06-19T09:26:00Z</time>
      </trkpt>
      <trkpt lat="42.7978110" lon="-8.6380400">
        <ele>36.8</ele>
        <time>2022-06-19T09:26:01Z</time>
      </trkpt>
      <trkpt lat="42.7978580" lon="-8.6380230">
        <ele>36.8</ele>
        <time>2022-06-19T09:26:02Z</time>
      </trkpt>
      <trkpt lat="42.7978750" lon="-8.6380480">
        <ele>36.8</ele>
        <time>2022-06-19T09:26:03Z</time>
      </trkpt>
      <trkpt lat="42.7978750" lon="-8.6380480">
        <ele>36.0</ele>
        <time>2022-06-19T09:26:04Z</time>
      </trkpt>
      <trkpt lat="42.7979100" lon="-8.6380910">
        <ele>35.8</ele>
        <time>2022-06-19T09:26:05Z</time>
      </trkpt>
      <trkpt lat="42.7979350" lon="-8.6380900">
        <ele>35.8</ele>
        <time>2022-06-19T09:26:06Z</time>
      </trkpt>
      <trkpt lat="42.7979600" lon="-8.6380660">
        <ele>35.8</ele>
        <time>2022-06-19T09:26:07Z</time>
      </trkpt>
      <trkpt lat="42.7979860" lon="-8.6380360">
        <ele>35.6</ele>
        <time>2022-06-19T09:26:08Z</time>
      </trkpt>
      <trkpt lat="42.7980130" lon="-8.6380030">
        <ele>35.2</ele>
        <time>2022-06-19T09:26:09Z</time>
      </trkpt>
      <trkpt lat="42.7980350" lon="-8.6379680">
        <ele>35.2</ele>
        <time>2022-06-19T09:26:10Z</time>
      </trkpt>
      <trkpt lat="42.7980620" lon="-8.6379030">
        <ele>35.2</ele>
        <time>2022-06-19T09:26:11Z</time>
      </trkpt>
      <trkpt lat="42.7980680" lon="-8.6378810">
        <ele>35.2</ele>
        <time>2022-06-19T09:26:12Z</time>
      </trkpt>
      <trkpt lat="42.7980750" lon="-8.6378580">
        <ele>35.8</ele>
        <time>2022-06-19T09:26:13Z</time>
      </trkpt>
      <trkpt lat="42.7980950" lon="-8.6377910">
        <ele>35.8</ele>
        <time>2022-06-19T09:26:14Z</time>
      </trkpt>
      <trkpt lat="42.7981030" lon="-8.6377460">
        <ele>35.8</ele>
        <time>2022-06-19T09:26:15Z</time>
      </trkpt>
      <trkpt lat="42.7981150" lon="-8.6377030">
        <ele>35.8</ele>
        <time>2022-06-19T09:26:16Z</time>
      </trkpt>
      <trkpt lat="42.7981260" lon="-8.6376600">
        <ele>36.2</ele>
        <time>2022-06-19T09:26:17Z</time>
      </trkpt>
      <trkpt lat="42.7981260" lon="-8.6376600">
        <ele>36.2</ele>
        <time>2022-06-19T09:26:18Z</time>
      </trkpt>
      <trkpt lat="42.7981530" lon="-8.6375850">
        <ele>36.2</ele>
        <time>2022-06-19T09:26:19Z</time>
      </trkpt>
      <trkpt lat="42.7981660" lon="-8.6375480">
        <ele>36.2</ele>
        <time>2022-06-19T09:26:20Z</time>
      </trkpt>
      <trkpt lat="42.7981810" lon="-8.6375180">
        <ele>36.6</ele>
        <time>2022-06-19T09:26:21Z</time>
      </trkpt>
      <trkpt lat="42.7981950" lon="-8.6374910">
        <ele>36.6</ele>
        <time>2022-06-19T09:26:22Z</time>
      </trkpt>
      <trkpt lat="42.7982100" lon="-8.6374610">
        <ele>36.6</ele>
        <time>2022-06-19T09:26:23Z</time>
      </trkpt>
      <trkpt lat="42.7982100" lon="-8.6374610">
        <ele>37.0</ele>
        <time>2022-06-19T09:26:24Z</time>
      </trkpt>
      <trkpt lat="42.7982100" lon="-8.6374610">
        <ele>36.8</ele>
        <time>2022-06-19T09:26:25Z</time>
      </trkpt>
      <trkpt lat="42.7982580" lon="-8.6373530">
        <ele>36.8</ele>
        <time>2022-06-19T09:26:26Z</time>
      </trkpt>
      <trkpt lat="42.7982710" lon="-8.6373130">
        <ele>36.8</ele>
        <time>2022-06-19T09:26:27Z</time>
      </trkpt>
      <trkpt lat="42.7982900" lon="-8.6372750">
        <ele>36.8</ele>
        <time>2022-06-19T09:26:28Z</time>
      </trkpt>
      <trkpt lat="42.7983100" lon="-8.6372380">
        <ele>37.2</ele>
        <time>2022-06-19T09:26:29Z</time>
      </trkpt>
      <trkpt lat="42.7983100" lon="-8.6372380">
        <ele>37.2</ele>
        <time>2022-06-19T09:26:30Z</time>
      </trkpt>
      <trkpt lat="42.7983410" lon="-8.6371680">
        <ele>37.2</ele>
        <time>2022-06-19T09:26:31Z</time>
      </trkpt>
      <trkpt lat="42.7983580" lon="-8.6371380">
        <ele>37.2</ele>
        <time>2022-06-19T09:26:32Z</time>
      </trkpt>
      <trkpt lat="42.7983580" lon="-8.6371380">
        <ele>37.4</ele>
        <time>2022-06-19T09:26:33Z</time>
      </trkpt>
      <trkpt lat="42.7983910" lon="-8.6370960">
        <ele>37.4</ele>
        <time>2022-06-19T09:26:34Z</time>
      </trkpt>
      <trkpt lat="42.7984130" lon="-8.6370780">
        <ele>37.4</ele>
        <time>2022-06-19T09:26:35Z</time>
      </trkpt>
      <trkpt lat="42.7984380" lon="-8.6370630">
        <ele>37.4</ele>
        <time>2022-06-19T09:26:36Z</time>
      </trkpt>
      <trkpt lat="42.7984380" lon="-8.6370630">
        <ele>37.8</ele>
        <time>2022-06-19T09:26:37Z</time>
      </trkpt>
      <trkpt lat="42.7984850" lon="-8.6370380">
        <ele>37.8</ele>
        <time>2022-06-19T09:26:38Z</time>
      </trkpt>
      <trkpt lat="42.7984850" lon="-8.6370380">
        <ele>37.8</ele>
        <time>2022-06-19T09:26:39Z</time>
      </trkpt>
      <trkpt lat="42.7984850" lon="-8.6370380">
        <ele>37.8</ele>
        <time>2022-06-19T09:26:40Z</time>
      </trkpt>
      <trkpt lat="42.7985700" lon="-8.6370060">
        <ele>37.8</ele>
        <time>2022-06-19T09:26:41Z</time>
      </trkpt>
      <trkpt lat="42.7985960" lon="-8.6369880">
        <ele>37.8</ele>
        <time>2022-06-19T09:26:42Z</time>
      </trkpt>
      <trkpt lat="42.7985960" lon="-8.6369880">
        <ele>37.8</ele>
        <time>2022-06-19T09:26:43Z</time>
      </trkpt>
      <trkpt lat="42.7985960" lon="-8.6369880">
        <ele>38.4</ele>
        <time>2022-06-19T09:26:44Z</time>
      </trkpt>
      <trkpt lat="42.7986750" lon="-8.6369080">
        <ele>38.8</ele>
        <time>2022-06-19T09:26:45Z</time>
      </trkpt>
      <trkpt lat="42.7986960" lon="-8.6368860">
        <ele>38.8</ele>
        <time>2022-06-19T09:26:46Z</time>
      </trkpt>
      <trkpt lat="42.7986960" lon="-8.6368860">
        <ele>38.8</ele>
        <time>2022-06-19T09:26:47Z</time>
      </trkpt>
      <trkpt lat="42.7987530" lon="-8.6368310">
        <ele>38.8</ele>
        <time>2022-06-19T09:26:48Z</time>
      </trkpt>
      <trkpt lat="42.7987780" lon="-8.6368060">
        <ele>39.2</ele>
        <time>2022-06-19T09:26:49Z</time>
      </trkpt>
      <trkpt lat="42.7988030" lon="-8.6367810">
        <ele>39.2</ele>
        <time>2022-06-19T09:26:50Z</time>
      </trkpt>
      <trkpt lat="42.7988310" lon="-8.6367610">
        <ele>39.2</ele>
        <time>2022-06-19T09:26:51Z</time>
      </trkpt>
      <trkpt lat="42.7988310" lon="-8.6367610">
        <ele>39.2</ele>
        <time>2022-06-19T09:26:52Z</time>
      </trkpt>
      <trkpt lat="42.7988860" lon="-8.6367210">
        <ele>39.8</ele>
        <time>2022-06-19T09:26:53Z</time>
      </trkpt>
      <trkpt lat="42.7989100" lon="-8.6367010">
        <ele>39.8</ele>
        <time>2022-06-19T09:26:54Z</time>
      </trkpt>
      <trkpt lat="42.7989310" lon="-8.6366810">
        <ele>39.8</ele>
        <time>2022-06-19T09:26:55Z</time>
      </trkpt>
      <trkpt lat="42.7989310" lon="-8.6366810">
        <ele>40.2</ele>
        <time>2022-06-19T09:26:56Z</time>
      </trkpt>
      <trkpt lat="42.7989730" lon="-8.6366460">
        <ele>40.6</ele>
        <time>2022-06-19T09:26:57Z</time>
      </trkpt>
      <trkpt lat="42.7989910" lon="-8.6366260">
        <ele>40.6</ele>
        <time>2022-06-19T09:26:58Z</time>
      </trkpt>
      <trkpt lat="42.7990150" lon="-8.6366050">
        <ele>40.6</ele>
        <time>2022-06-19T09:26:59Z</time>
      </trkpt>
      <trkpt lat="42.7990410" lon="-8.6365850">
        <ele>41.0</ele>
        <time>2022-06-19T09:27:00Z</time>
      </trkpt>
      <trkpt lat="42.7990630" lon="-8.6365650">
        <ele>41.2</ele>
        <time>2022-06-19T09:27:01Z</time>
      </trkpt>
      <trkpt lat="42.7990630" lon="-8.6365650">
        <ele>41.2</ele>
        <time>2022-06-19T09:27:02Z</time>
      </trkpt>
      <trkpt lat="42.7991050" lon="-8.6365260">
        <ele>41.2</ele>
        <time>2022-06-19T09:27:03Z</time>
      </trkpt>
      <trkpt lat="42.7991250" lon="-8.6365110">
        <ele>41.6</ele>
        <time>2022-06-19T09:27:04Z</time>
      </trkpt>
      <trkpt lat="42.7991430" lon="-8.6364950">
        <ele>41.6</ele>
        <time>2022-06-19T09:27:05Z</time>
      </trkpt>
      <trkpt lat="42.7991610" lon="-8.6364750">
        <ele>41.6</ele>
        <time>2022-06-19T09:27:06Z</time>
      </trkpt>
      <trkpt lat="42.7991760" lon="-8.6364510">
        <ele>41.6</ele>
        <time>2022-06-19T09:27:07Z</time>
      </trkpt>
      <trkpt lat="42.7991850" lon="-8.6364230">
        <ele>42.2</ele>
        <time>2022-06-19T09:27:08Z</time>
      </trkpt>
      <trkpt lat="42.7991810" lon="-8.6363930">
        <ele>42.2</ele>
        <time>2022-06-19T09:27:09Z</time>
      </trkpt>
      <trkpt lat="42.7991810" lon="-8.6363930">
        <ele>42.2</ele>
        <time>2022-06-19T09:27:10Z</time>
      </trkpt>
      <trkpt lat="42.7991610" lon="-8.6363300">
        <ele>42.2</ele>
        <time>2022-06-19T09:27:11Z</time>
      </trkpt>
      <trkpt lat="42.7991500" lon="-8.6363000">
        <ele>42.2</ele>
        <time>2022-06-19T09:27:12Z</time>
      </trkpt>
      <trkpt lat="42.7991500" lon="-8.6363000">
        <ele>42.8</ele>
        <time>2022-06-19T09:27:13Z</time>
      </trkpt>
      <trkpt lat="42.7991500" lon="-8.6363000">
        <ele>42.8</ele>
        <time>2022-06-19T09:27:14Z</time>
      </trkpt>
      <trkpt lat="42.7991200" lon="-8.6362100">
        <ele>42.8</ele>
        <time>2022-06-19T09:27:15Z</time>
      </trkpt>
      <trkpt lat="42.7991080" lon="-8.6361810">
        <ele>42.8</ele>
        <time>2022-06-19T09:27:16Z</time>
      </trkpt>
      <trkpt lat="42.7990980" lon="-8.6361510">
        <ele>43.0</ele>
        <time>2022-06-19T09:27:17Z</time>
      </trkpt>
      <trkpt lat="42.7990900" lon="-8.6361200">
        <ele>43.0</ele>
        <time>2022-06-19T09:27:18Z</time>
      </trkpt>
      <trkpt lat="42.7990900" lon="-8.6361200">
        <ele>43.0</ele>
        <time>2022-06-19T09:27:19Z</time>
      </trkpt>
      <trkpt lat="42.7990680" lon="-8.6360600">
        <ele>43.6</ele>
        <time>2022-06-19T09:27:20Z</time>
      </trkpt>
      <trkpt lat="42.7990550" lon="-8.6360300">
        <ele>43.8</ele>
        <time>2022-06-19T09:27:21Z</time>
      </trkpt>
      <trkpt lat="42.7990410" lon="-8.6360000">
        <ele>43.8</ele>
        <time>2022-06-19T09:27:22Z</time>
      </trkpt>
      <trkpt lat="42.7990300" lon="-8.6359730">
        <ele>43.8</ele>
        <time>2022-06-19T09:27:23Z</time>
      </trkpt>
      <trkpt lat="42.7990160" lon="-8.6359450">
        <ele>43.6</ele>
        <time>2022-06-19T09:27:24Z</time>
      </trkpt>
      <trkpt lat="42.7990030" lon="-8.6359160">
        <ele>43.8</ele>
        <time>2022-06-19T09:27:25Z</time>
      </trkpt>
      <trkpt lat="42.7989910" lon="-8.6358880">
        <ele>43.8</ele>
        <time>2022-06-19T09:27:26Z</time>
      </trkpt>
      <trkpt lat="42.7989810" lon="-8.6358560">
        <ele>43.8</ele>
        <time>2022-06-19T09:27:27Z</time>
      </trkpt>
      <trkpt lat="42.7989680" lon="-8.6358260">
        <ele>43.8</ele>
        <time>2022-06-19T09:27:28Z</time>
      </trkpt>
      <trkpt lat="42.7989680" lon="-8.6358260">
        <ele>44.2</ele>
        <time>2022-06-19T09:27:29Z</time>
      </trkpt>
      <trkpt lat="42.7989680" lon="-8.6358260">
        <ele>44.2</ele>
        <time>2022-06-19T09:27:30Z</time>
      </trkpt>
      <trkpt lat="42.7989360" lon="-8.6357380">
        <ele>44.2</ele>
        <time>2022-06-19T09:27:31Z</time>
      </trkpt>
      <trkpt lat="42.7989260" lon="-8.6357050">
        <ele>44.4</ele>
        <time>2022-06-19T09:27:32Z</time>
      </trkpt>
      <trkpt lat="42.7989180" lon="-8.6356710">
        <ele>44.4</ele>
        <time>2022-06-19T09:27:33Z</time>
      </trkpt>
      <trkpt lat="42.7989130" lon="-8.6356360">
        <ele>44.4</ele>
        <time>2022-06-19T09:27:34Z</time>
      </trkpt>
      <trkpt lat="42.7989100" lon="-8.6355980">
        <ele>44.4</ele>
        <time>2022-06-19T09:27:35Z</time>
      </trkpt>
      <trkpt lat="42.7989110" lon="-8.6355610">
        <ele>44.6</ele>
        <time>2022-06-19T09:27:36Z</time>
      </trkpt>
      <trkpt lat="42.7989230" lon="-8.6355260">
        <ele>44.6</ele>
        <time>2022-06-19T09:27:37Z</time>
      </trkpt>
      <trkpt lat="42.7989230" lon="-8.6355260">
        <ele>44.6</ele>
        <time>2022-06-19T09:27:38Z</time>
      </trkpt>
      <trkpt lat="42.7989530" lon="-8.6354650">
        <ele>44.6</ele>
        <time>2022-06-19T09:27:39Z</time>
      </trkpt>
      <trkpt lat="42.7989680" lon="-8.6354400">
        <ele>44.6</ele>
        <time>2022-06-19T09:27:40Z</time>
      </trkpt>
      <trkpt lat="42.7989680" lon="-8.6354400">
        <ele>44.8</ele>
        <time>2022-06-19T09:27:41Z</time>
      </trkpt>
      <trkpt lat="42.7990060" lon="-8.6353900">
        <ele>44.8</ele>
        <time>2022-06-19T09:27:42Z</time>
      </trkpt>
      <trkpt lat="42.7990230" lon="-8.6353630">
        <ele>44.8</ele>
        <time>2022-06-19T09:27:43Z</time>
      </trkpt>
      <trkpt lat="42.7990230" lon="-8.6353630">
        <ele>45.8</ele>
        <time>2022-06-19T09:27:44Z</time>
      </trkpt>
      <trkpt lat="42.7990230" lon="-8.6353630">
        <ele>45.2</ele>
        <time>2022-06-19T09:27:45Z</time>
      </trkpt>
      <trkpt lat="42.7990680" lon="-8.6352880">
        <ele>45.2</ele>
        <time>2022-06-19T09:27:46Z</time>
      </trkpt>
      <trkpt lat="42.7990850" lon="-8.6352680">
        <ele>45.2</ele>
        <time>2022-06-19T09:27:47Z</time>
      </trkpt>
      <trkpt lat="42.7991010" lon="-8.6352480">
        <ele>46.2</ele>
        <time>2022-06-19T09:27:48Z</time>
      </trkpt>
      <trkpt lat="42.7991160" lon="-8.6352260">
        <ele>46.4</ele>
        <time>2022-06-19T09:27:49Z</time>
      </trkpt>
      <trkpt lat="42.7991330" lon="-8.6352050">
        <ele>46.4</ele>
        <time>2022-06-19T09:27:50Z</time>
      </trkpt>
      <trkpt lat="42.7991450" lon="-8.6351800">
        <ele>46.4</ele>
        <time>2022-06-19T09:27:51Z</time>
      </trkpt>
      <trkpt lat="42.7991550" lon="-8.6351580">
        <ele>47.4</ele>
        <time>2022-06-19T09:27:52Z</time>
      </trkpt>
      <trkpt lat="42.7991660" lon="-8.6351350">
        <ele>47.4</ele>
        <time>2022-06-19T09:27:53Z</time>
      </trkpt>
      <trkpt lat="42.7991780" lon="-8.6351100">
        <ele>47.4</ele>
        <time>2022-06-19T09:27:54Z</time>
      </trkpt>
      <trkpt lat="42.7991930" lon="-8.6350880">
        <ele>47.4</ele>
        <time>2022-06-19T09:27:55Z</time>
      </trkpt>
      <trkpt lat="42.7992080" lon="-8.6350660">
        <ele>47.4</ele>
        <time>2022-06-19T09:27:56Z</time>
      </trkpt>
      <trkpt lat="42.7992210" lon="-8.6350450">
        <ele>48.0</ele>
        <time>2022-06-19T09:27:57Z</time>
      </trkpt>
      <trkpt lat="42.7992360" lon="-8.6350250">
        <ele>48.0</ele>
        <time>2022-06-19T09:27:58Z</time>
      </trkpt>
      <trkpt lat="42.7992500" lon="-8.6350030">
        <ele>48.0</ele>
        <time>2022-06-19T09:27:59Z</time>
      </trkpt>
      <trkpt lat="42.7992500" lon="-8.6350030">
        <ele>48.0</ele>
        <time>2022-06-19T09:28:00Z</time>
      </trkpt>
      <trkpt lat="42.7992500" lon="-8.6350030">
        <ele>47.8</ele>
        <time>2022-06-19T09:28:01Z</time>
      </trkpt>
      <trkpt lat="42.7992930" lon="-8.6349330">
        <ele>47.8</ele>
        <time>2022-06-19T09:28:02Z</time>
      </trkpt>
      <trkpt lat="42.7993100" lon="-8.6349100">
        <ele>47.8</ele>
        <time>2022-06-19T09:28:03Z</time>
      </trkpt>
      <trkpt lat="42.7993100" lon="-8.6349100">
        <ele>48.2</ele>
        <time>2022-06-19T09:28:04Z</time>
      </trkpt>
      <trkpt lat="42.7993410" lon="-8.6348660">
        <ele>48.4</ele>
        <time>2022-06-19T09:28:05Z</time>
      </trkpt>
      <trkpt lat="42.7993580" lon="-8.6348410">
        <ele>48.4</ele>
        <time>2022-06-19T09:28:06Z</time>
      </trkpt>
      <trkpt lat="42.7993750" lon="-8.6348150">
        <ele>48.4</ele>
        <time>2022-06-19T09:28:07Z</time>
      </trkpt>
      <trkpt lat="42.7993860" lon="-8.6347860">
        <ele>49.0</ele>
        <time>2022-06-19T09:28:08Z</time>
      </trkpt>
      <trkpt lat="42.7993860" lon="-8.6347860">
        <ele>49.2</ele>
        <time>2022-06-19T09:28:09Z</time>
      </trkpt>
      <trkpt lat="42.7994110" lon="-8.6347310">
        <ele>49.2</ele>
        <time>2022-06-19T09:28:10Z</time>
      </trkpt>
      <trkpt lat="42.7994160" lon="-8.6347060">
        <ele>49.2</ele>
        <time>2022-06-19T09:28:11Z</time>
      </trkpt>
      <trkpt lat="42.7994210" lon="-8.6346800">
        <ele>49.2</ele>
        <time>2022-06-19T09:28:12Z</time>
      </trkpt>
      <trkpt lat="42.7994300" lon="-8.6346580">
        <ele>49.2</ele>
        <time>2022-06-19T09:28:13Z</time>
      </trkpt>
      <trkpt lat="42.7994300" lon="-8.6346580">
        <ele>49.2</ele>
        <time>2022-06-19T09:28:14Z</time>
      </trkpt>
      <trkpt lat="42.7994300" lon="-8.6346580">
        <ele>49.2</ele>
        <time>2022-06-19T09:28:15Z</time>
      </trkpt>
      <trkpt lat="42.7994780" lon="-8.6345910">
        <ele>49.4</ele>
        <time>2022-06-19T09:28:16Z</time>
      </trkpt>
      <trkpt lat="42.7995000" lon="-8.6345780">
        <ele>49.8</ele>
        <time>2022-06-19T09:28:17Z</time>
      </trkpt>
      <trkpt lat="42.7995000" lon="-8.6345780">
        <ele>49.8</ele>
        <time>2022-06-19T09:28:18Z</time>
      </trkpt>
      <trkpt lat="42.7995460" lon="-8.6345580">
        <ele>49.8</ele>
        <time>2022-06-19T09:28:19Z</time>
      </trkpt>
      <trkpt lat="42.7995520" lon="-8.6345570">
        <ele>50.2</ele>
        <time>2022-06-19T09:28:20Z</time>
      </trkpt>
      <trkpt lat="42.7995570" lon="-8.6345550">
        <ele>50.0</ele>
        <time>2022-06-19T09:28:21Z</time>
      </trkpt>
      <trkpt lat="42.7995630" lon="-8.6345530">
        <ele>50.0</ele>
        <time>2022-06-19T09:28:22Z</time>
      </trkpt>
      <trkpt lat="42.7995690" lon="-8.6345520">
        <ele>50.0</ele>
        <time>2022-06-19T09:28:23Z</time>
      </trkpt>
      <trkpt lat="42.7995750" lon="-8.6345500">
        <ele>51.0</ele>
        <time>2022-06-19T09:28:24Z</time>
      </trkpt>
      <trkpt lat="42.7996260" lon="-8.6345450">
        <ele>51.2</ele>
        <time>2022-06-19T09:28:25Z</time>
      </trkpt>
      <trkpt lat="42.7996430" lon="-8.6345530">
        <ele>51.2</ele>
        <time>2022-06-19T09:28:26Z</time>
      </trkpt>
      <trkpt lat="42.7996500" lon="-8.6345680">
        <ele>51.2</ele>
        <time>2022-06-19T09:28:27Z</time>
      </trkpt>
      <trkpt lat="42.7996500" lon="-8.6345680">
        <ele>50.6</ele>
        <time>2022-06-19T09:28:28Z</time>
      </trkpt>
      <trkpt lat="42.7996450" lon="-8.6346110">
        <ele>51.0</ele>
        <time>2022-06-19T09:28:29Z</time>
      </trkpt>
      <trkpt lat="42.7996350" lon="-8.6346350">
        <ele>51.0</ele>
        <time>2022-06-19T09:28:30Z</time>
      </trkpt>
      <trkpt lat="42.7996250" lon="-8.6346580">
        <ele>51.0</ele>
        <time>2022-06-19T09:28:31Z</time>
      </trkpt>
      <trkpt lat="42.7996200" lon="-8.6346880">
        <ele>50.4</ele>
        <time>2022-06-19T09:28:32Z</time>
      </trkpt>
      <trkpt lat="42.7996350" lon="-8.6347160">
        <ele>50.2</ele>
        <time>2022-06-19T09:28:33Z</time>
      </trkpt>
      <trkpt lat="42.7996650" lon="-8.6347500">
        <ele>50.2</ele>
        <time>2022-06-19T09:28:34Z</time>
      </trkpt>
      <trkpt lat="42.7996880" lon="-8.6347760">
        <ele>50.2</ele>
        <time>2022-06-19T09:28:35Z</time>
      </trkpt>
      <trkpt lat="42.7997110" lon="-8.6348050">
        <ele>50.2</ele>
        <time>2022-06-19T09:28:36Z</time>
      </trkpt>
      <trkpt lat="42.7997360" lon="-8.6348350">
        <ele>50.2</ele>
        <time>2022-06-19T09:28:37Z</time>
      </trkpt>
      <trkpt lat="42.7997610" lon="-8.6348680">
        <ele>50.2</ele>
        <time>2022-06-19T09:28:38Z</time>
      </trkpt>
      <trkpt lat="42.7997810" lon="-8.6349030">
        <ele>50.2</ele>
        <time>2022-06-19T09:28:39Z</time>
      </trkpt>
      <trkpt lat="42.7998050" lon="-8.6349360">
        <ele>50.6</ele>
        <time>2022-06-19T09:28:40Z</time>
      </trkpt>
      <trkpt lat="42.7998230" lon="-8.6349700">
        <ele>50.4</ele>
        <time>2022-06-19T09:28:41Z</time>
      </trkpt>
      <trkpt lat="42.7998430" lon="-8.6350000">
        <ele>50.4</ele>
        <time>2022-06-19T09:28:42Z</time>
      </trkpt>
      <trkpt lat="42.7998610" lon="-8.6350360">
        <ele>50.4</ele>
        <time>2022-06-19T09:28:43Z</time>
      </trkpt>
      <trkpt lat="42.7998610" lon="-8.6350360">
        <ele>50.4</ele>
        <time>2022-06-19T09:28:44Z</time>
      </trkpt>
      <trkpt lat="42.7999050" lon="-8.6351060">
        <ele>50.6</ele>
        <time>2022-06-19T09:28:45Z</time>
      </trkpt>
      <trkpt lat="42.7999230" lon="-8.6351400">
        <ele>50.6</ele>
        <time>2022-06-19T09:28:46Z</time>
      </trkpt>
      <trkpt lat="42.7999400" lon="-8.6351750">
        <ele>50.6</ele>
        <time>2022-06-19T09:28:47Z</time>
      </trkpt>
      <trkpt lat="42.7999600" lon="-8.6352100">
        <ele>50.6</ele>
        <time>2022-06-19T09:28:48Z</time>
      </trkpt>
      <trkpt lat="42.7999810" lon="-8.6352480">
        <ele>50.4</ele>
        <time>2022-06-19T09:28:49Z</time>
      </trkpt>
      <trkpt lat="42.8000000" lon="-8.6352850">
        <ele>50.4</ele>
        <time>2022-06-19T09:28:50Z</time>
      </trkpt>
      <trkpt lat="42.8000200" lon="-8.6353230">
        <ele>50.4</ele>
        <time>2022-06-19T09:28:51Z</time>
      </trkpt>
      <trkpt lat="42.8000430" lon="-8.6353560">
        <ele>50.4</ele>
        <time>2022-06-19T09:28:52Z</time>
      </trkpt>
      <trkpt lat="42.8000650" lon="-8.6353950">
        <ele>50.4</ele>
        <time>2022-06-19T09:28:53Z</time>
      </trkpt>
      <trkpt lat="42.8000860" lon="-8.6354360">
        <ele>50.4</ele>
        <time>2022-06-19T09:28:54Z</time>
      </trkpt>
      <trkpt lat="42.8001030" lon="-8.6354850">
        <ele>50.4</ele>
        <time>2022-06-19T09:28:55Z</time>
      </trkpt>
      <trkpt lat="42.8001180" lon="-8.6355350">
        <ele>49.4</ele>
        <time>2022-06-19T09:28:56Z</time>
      </trkpt>
      <trkpt lat="42.8001300" lon="-8.6355830">
        <ele>49.6</ele>
        <time>2022-06-19T09:28:57Z</time>
      </trkpt>
      <trkpt lat="42.8001400" lon="-8.6356250">
        <ele>49.6</ele>
        <time>2022-06-19T09:28:58Z</time>
      </trkpt>
      <trkpt lat="42.8001480" lon="-8.6356710">
        <ele>49.6</ele>
        <time>2022-06-19T09:28:59Z</time>
      </trkpt>
      <trkpt lat="42.8001580" lon="-8.6357130">
        <ele>49.6</ele>
        <time>2022-06-19T09:29:00Z</time>
      </trkpt>
      <trkpt lat="42.8001680" lon="-8.6357560">
        <ele>50.0</ele>
        <time>2022-06-19T09:29:01Z</time>
      </trkpt>
      <trkpt lat="42.8001850" lon="-8.6358000">
        <ele>50.0</ele>
        <time>2022-06-19T09:29:02Z</time>
      </trkpt>
      <trkpt lat="42.8002010" lon="-8.6358450">
        <ele>50.0</ele>
        <time>2022-06-19T09:29:03Z</time>
      </trkpt>
      <trkpt lat="42.8002180" lon="-8.6358860">
        <ele>50.0</ele>
        <time>2022-06-19T09:29:04Z</time>
      </trkpt>
      <trkpt lat="42.8002350" lon="-8.6359210">
        <ele>49.8</ele>
        <time>2022-06-19T09:29:05Z</time>
      </trkpt>
      <trkpt lat="42.8002560" lon="-8.6359580">
        <ele>49.8</ele>
        <time>2022-06-19T09:29:06Z</time>
      </trkpt>
      <trkpt lat="42.8002810" lon="-8.6359950">
        <ele>49.8</ele>
        <time>2022-06-19T09:29:07Z</time>
      </trkpt>
      <trkpt lat="42.8003080" lon="-8.6360310">
        <ele>49.8</ele>
        <time>2022-06-19T09:29:08Z</time>
      </trkpt>
      <trkpt lat="42.8003350" lon="-8.6360650">
        <ele>48.8</ele>
        <time>2022-06-19T09:29:09Z</time>
      </trkpt>
      <trkpt lat="42.8003610" lon="-8.6361000">
        <ele>48.8</ele>
        <time>2022-06-19T09:29:10Z</time>
      </trkpt>
      <trkpt lat="42.8003930" lon="-8.6361300">
        <ele>48.8</ele>
        <time>2022-06-19T09:29:11Z</time>
      </trkpt>
      <trkpt lat="42.8004280" lon="-8.6361560">
        <ele>49.4</ele>
        <time>2022-06-19T09:29:12Z</time>
      </trkpt>
      <trkpt lat="42.8004650" lon="-8.6361830">
        <ele>49.0</ele>
        <time>2022-06-19T09:29:13Z</time>
      </trkpt>
      <trkpt lat="42.8005010" lon="-8.6362150">
        <ele>49.0</ele>
        <time>2022-06-19T09:29:14Z</time>
      </trkpt>
      <trkpt lat="42.8005380" lon="-8.6362480">
        <ele>49.0</ele>
        <time>2022-06-19T09:29:15Z</time>
      </trkpt>
      <trkpt lat="42.8005760" lon="-8.6362780">
        <ele>49.0</ele>
        <time>2022-06-19T09:29:16Z</time>
      </trkpt>
      <trkpt lat="42.8006200" lon="-8.6363060">
        <ele>48.6</ele>
        <time>2022-06-19T09:29:17Z</time>
      </trkpt>
      <trkpt lat="42.8006650" lon="-8.6363280">
        <ele>48.6</ele>
        <time>2022-06-19T09:29:18Z</time>
      </trkpt>
      <trkpt lat="42.8007150" lon="-8.6363510">
        <ele>48.6</ele>
        <time>2022-06-19T09:29:19Z</time>
      </trkpt>
      <trkpt lat="42.8007680" lon="-8.6363780">
        <ele>47.6</ele>
        <time>2022-06-19T09:29:20Z</time>
      </trkpt>
      <trkpt lat="42.8008200" lon="-8.6364130">
        <ele>47.0</ele>
        <time>2022-06-19T09:29:21Z</time>
      </trkpt>
      <trkpt lat="42.8008680" lon="-8.6364560">
        <ele>47.0</ele>
        <time>2022-06-19T09:29:22Z</time>
      </trkpt>
      <trkpt lat="42.8009130" lon="-8.6365150">
        <ele>47.0</ele>
        <time>2022-06-19T09:29:23Z</time>
      </trkpt>
      <trkpt lat="42.8009460" lon="-8.6365880">
        <ele>46.0</ele>
        <time>2022-06-19T09:29:24Z</time>
      </trkpt>
      <trkpt lat="42.8009750" lon="-8.6366660">
        <ele>44.2</ele>
        <time>2022-06-19T09:29:25Z</time>
      </trkpt>
      <trkpt lat="42.8010000" lon="-8.6367510">
        <ele>44.2</ele>
        <time>2022-06-19T09:29:26Z</time>
      </trkpt>
      <trkpt lat="42.8010210" lon="-8.6368350">
        <ele>44.2</ele>
        <time>2022-06-19T09:29:27Z</time>
      </trkpt>
      <trkpt lat="42.8010460" lon="-8.6369180">
        <ele>44.2</ele>
        <time>2022-06-19T09:29:28Z</time>
      </trkpt>
      <trkpt lat="42.8010760" lon="-8.6369960">
        <ele>44.6</ele>
        <time>2022-06-19T09:29:29Z</time>
      </trkpt>
      <trkpt lat="42.8011110" lon="-8.6370730">
        <ele>44.6</ele>
        <time>2022-06-19T09:29:30Z</time>
      </trkpt>
      <trkpt lat="42.8011510" lon="-8.6371430">
        <ele>44.6</ele>
        <time>2022-06-19T09:29:31Z</time>
      </trkpt>
      <trkpt lat="42.8011980" lon="-8.6372110">
        <ele>43.8</ele>
        <time>2022-06-19T09:29:32Z</time>
      </trkpt>
      <trkpt lat="42.8012510" lon="-8.6372680">
        <ele>43.8</ele>
        <time>2022-06-19T09:29:33Z</time>
      </trkpt>
      <trkpt lat="42.8013100" lon="-8.6373150">
        <ele>43.8</ele>
        <time>2022-06-19T09:29:34Z</time>
      </trkpt>
      <trkpt lat="42.8013710" lon="-8.6373550">
        <ele>43.8</ele>
        <time>2022-06-19T09:29:35Z</time>
      </trkpt>
      <trkpt lat="42.8014330" lon="-8.6373950">
        <ele>43.8</ele>
        <time>2022-06-19T09:29:36Z</time>
      </trkpt>
      <trkpt lat="42.8014910" lon="-8.6374350">
        <ele>43.0</ele>
        <time>2022-06-19T09:29:37Z</time>
      </trkpt>
      <trkpt lat="42.8015510" lon="-8.6374780">
        <ele>43.0</ele>
        <time>2022-06-19T09:29:38Z</time>
      </trkpt>
      <trkpt lat="42.8016100" lon="-8.6375260">
        <ele>43.0</ele>
        <time>2022-06-19T09:29:39Z</time>
      </trkpt>
      <trkpt lat="42.8016680" lon="-8.6375760">
        <ele>42.0</ele>
        <time>2022-06-19T09:29:40Z</time>
      </trkpt>
      <trkpt lat="42.8017230" lon="-8.6376280">
        <ele>41.4</ele>
        <time>2022-06-19T09:29:41Z</time>
      </trkpt>
      <trkpt lat="42.8017750" lon="-8.6376800">
        <ele>41.4</ele>
        <time>2022-06-19T09:29:42Z</time>
      </trkpt>
      <trkpt lat="42.8018230" lon="-8.6377310">
        <ele>41.4</ele>
        <time>2022-06-19T09:29:43Z</time>
      </trkpt>
      <trkpt lat="42.8018730" lon="-8.6377810">
        <ele>40.4</ele>
        <time>2022-06-19T09:29:44Z</time>
      </trkpt>
      <trkpt lat="42.8019260" lon="-8.6378150">
        <ele>39.8</ele>
        <time>2022-06-19T09:29:45Z</time>
      </trkpt>
      <trkpt lat="42.8019850" lon="-8.6378330">
        <ele>39.8</ele>
        <time>2022-06-19T09:29:46Z</time>
      </trkpt>
      <trkpt lat="42.8020410" lon="-8.6378400">
        <ele>39.8</ele>
        <time>2022-06-19T09:29:47Z</time>
      </trkpt>
      <trkpt lat="42.8020910" lon="-8.6378500">
        <ele>39.8</ele>
        <time>2022-06-19T09:29:48Z</time>
      </trkpt>
      <trkpt lat="42.8021350" lon="-8.6378560">
        <ele>40.4</ele>
        <time>2022-06-19T09:29:49Z</time>
      </trkpt>
      <trkpt lat="42.8021750" lon="-8.6378480">
        <ele>40.4</ele>
        <time>2022-06-19T09:29:50Z</time>
      </trkpt>
      <trkpt lat="42.8022080" lon="-8.6378250">
        <ele>40.4</ele>
        <time>2022-06-19T09:29:51Z</time>
      </trkpt>
      <trkpt lat="42.8022380" lon="-8.6378000">
        <ele>40.4</ele>
        <time>2022-06-19T09:29:52Z</time>
      </trkpt>
      <trkpt lat="42.8022660" lon="-8.6377760">
        <ele>40.8</ele>
        <time>2022-06-19T09:29:53Z</time>
      </trkpt>
      <trkpt lat="42.8022960" lon="-8.6377530">
        <ele>40.8</ele>
        <time>2022-06-19T09:29:54Z</time>
      </trkpt>
      <trkpt lat="42.8023250" lon="-8.6377310">
        <ele>40.8</ele>
        <time>2022-06-19T09:29:55Z</time>
      </trkpt>
      <trkpt lat="42.8023550" lon="-8.6377100">
        <ele>41.4</ele>
        <time>2022-06-19T09:29:56Z</time>
      </trkpt>
      <trkpt lat="42.8023850" lon="-8.6376850">
        <ele>41.8</ele>
        <time>2022-06-19T09:29:57Z</time>
      </trkpt>
      <trkpt lat="42.8024150" lon="-8.6376610">
        <ele>41.8</ele>
        <time>2022-06-19T09:29:58Z</time>
      </trkpt>
      <trkpt lat="42.8024450" lon="-8.6376380">
        <ele>41.8</ele>
        <time>2022-06-19T09:29:59Z</time>
      </trkpt>
      <trkpt lat="42.8024750" lon="-8.6376110">
        <ele>41.8</ele>
        <time>2022-06-19T09:30:00Z</time>
      </trkpt>
      <trkpt lat="42.8025060" lon="-8.6375900">
        <ele>42.2</ele>
        <time>2022-06-19T09:30:01Z</time>
      </trkpt>
      <trkpt lat="42.8025380" lon="-8.6375660">
        <ele>42.2</ele>
        <time>2022-06-19T09:30:02Z</time>
      </trkpt>
      <trkpt lat="42.8025700" lon="-8.6375480">
        <ele>42.2</ele>
        <time>2022-06-19T09:30:03Z</time>
      </trkpt>
      <trkpt lat="42.8026030" lon="-8.6375280">
        <ele>41.4</ele>
        <time>2022-06-19T09:30:04Z</time>
      </trkpt>
      <trkpt lat="42.8026350" lon="-8.6375030">
        <ele>42.0</ele>
        <time>2022-06-19T09:30:05Z</time>
      </trkpt>
      <trkpt lat="42.8026650" lon="-8.6374750">
        <ele>42.0</ele>
        <time>2022-06-19T09:30:06Z</time>
      </trkpt>
      <trkpt lat="42.8026960" lon="-8.6374450">
        <ele>42.0</ele>
        <time>2022-06-19T09:30:07Z</time>
      </trkpt>
      <trkpt lat="42.8027300" lon="-8.6374160">
        <ele>41.6</ele>
        <time>2022-06-19T09:30:08Z</time>
      </trkpt>
      <trkpt lat="42.8027630" lon="-8.6373880">
        <ele>41.4</ele>
        <time>2022-06-19T09:30:09Z</time>
      </trkpt>
      <trkpt lat="42.8027980" lon="-8.6373600">
        <ele>41.4</ele>
        <time>2022-06-19T09:30:10Z</time>
      </trkpt>
      <trkpt lat="42.8028330" lon="-8.6373310">
        <ele>41.4</ele>
        <time>2022-06-19T09:30:11Z</time>
      </trkpt>
      <trkpt lat="42.8028700" lon="-8.6373010">
        <ele>41.4</ele>
        <time>2022-06-19T09:30:12Z</time>
      </trkpt>
      <trkpt lat="42.8029060" lon="-8.6372710">
        <ele>41.4</ele>
        <time>2022-06-19T09:30:13Z</time>
      </trkpt>
      <trkpt lat="42.8029430" lon="-8.6372400">
        <ele>41.4</ele>
        <time>2022-06-19T09:30:14Z</time>
      </trkpt>
      <trkpt lat="42.8029780" lon="-8.6372060">
        <ele>41.4</ele>
        <time>2022-06-19T09:30:15Z</time>
      </trkpt>
      <trkpt lat="42.8030130" lon="-8.6371730">
        <ele>42.2</ele>
        <time>2022-06-19T09:30:16Z</time>
      </trkpt>
      <trkpt lat="42.8030480" lon="-8.6371400">
        <ele>41.4</ele>
        <time>2022-06-19T09:30:17Z</time>
      </trkpt>
      <trkpt lat="42.8030850" lon="-8.6371030">
        <ele>41.4</ele>
        <time>2022-06-19T09:30:18Z</time>
      </trkpt>
      <trkpt lat="42.8031210" lon="-8.6370660">
        <ele>41.4</ele>
        <time>2022-06-19T09:30:19Z</time>
      </trkpt>
      <trkpt lat="42.8031600" lon="-8.6370300">
        <ele>41.4</ele>
        <time>2022-06-19T09:30:20Z</time>
      </trkpt>
      <trkpt lat="42.8031960" lon="-8.6369930">
        <ele>41.0</ele>
        <time>2022-06-19T09:30:21Z</time>
      </trkpt>
      <trkpt lat="42.8032360" lon="-8.6369600">
        <ele>41.0</ele>
        <time>2022-06-19T09:30:22Z</time>
      </trkpt>
      <trkpt lat="42.8032760" lon="-8.6369260">
        <ele>41.0</ele>
        <time>2022-06-19T09:30:23Z</time>
      </trkpt>
      <trkpt lat="42.8033150" lon="-8.6368930">
        <ele>41.0</ele>
        <time>2022-06-19T09:30:24Z</time>
      </trkpt>
      <trkpt lat="42.8033550" lon="-8.6368560">
        <ele>40.8</ele>
        <time>2022-06-19T09:30:25Z</time>
      </trkpt>
      <trkpt lat="42.8033930" lon="-8.6368200">
        <ele>40.8</ele>
        <time>2022-06-19T09:30:26Z</time>
      </trkpt>
      <trkpt lat="42.8034330" lon="-8.6367810">
        <ele>40.8</ele>
        <time>2022-06-19T09:30:27Z</time>
      </trkpt>
      <trkpt lat="42.8034730" lon="-8.6367450">
        <ele>40.8</ele>
        <time>2022-06-19T09:30:28Z</time>
      </trkpt>
      <trkpt lat="42.8035150" lon="-8.6367100">
        <ele>41.0</ele>
        <time>2022-06-19T09:30:29Z</time>
      </trkpt>
      <trkpt lat="42.8035550" lon="-8.6366730">
        <ele>41.0</ele>
        <time>2022-06-19T09:30:30Z</time>
      </trkpt>
      <trkpt lat="42.8035950" lon="-8.6366350">
        <ele>41.0</ele>
        <time>2022-06-19T09:30:31Z</time>
      </trkpt>
      <trkpt lat="42.8036350" lon="-8.6365960">
        <ele>40.8</ele>
        <time>2022-06-19T09:30:32Z</time>
      </trkpt>
      <trkpt lat="42.8036730" lon="-8.6365600">
        <ele>40.8</ele>
        <time>2022-06-19T09:30:33Z</time>
      </trkpt>
      <trkpt lat="42.8037150" lon="-8.6365230">
        <ele>40.8</ele>
        <time>2022-06-19T09:30:34Z</time>
      </trkpt>
      <trkpt lat="42.8037560" lon="-8.6364860">
        <ele>40.8</ele>
        <time>2022-06-19T09:30:35Z</time>
      </trkpt>
      <trkpt lat="42.8037950" lon="-8.6364510">
        <ele>39.8</ele>
        <time>2022-06-19T09:30:36Z</time>
      </trkpt>
      <trkpt lat="42.8038330" lon="-8.6364180">
        <ele>38.0</ele>
        <time>2022-06-19T09:30:37Z</time>
      </trkpt>
      <trkpt lat="42.8038710" lon="-8.6363830">
        <ele>38.0</ele>
        <time>2022-06-19T09:30:38Z</time>
      </trkpt>
      <trkpt lat="42.8039080" lon="-8.6363480">
        <ele>38.0</ele>
        <time>2022-06-19T09:30:39Z</time>
      </trkpt>
      <trkpt lat="42.8039480" lon="-8.6363130">
        <ele>39.0</ele>
        <time>2022-06-19T09:30:40Z</time>
      </trkpt>
      <trkpt lat="42.8039860" lon="-8.6362760">
        <ele>40.2</ele>
        <time>2022-06-19T09:30:41Z</time>
      </trkpt>
      <trkpt lat="42.8040250" lon="-8.6362410">
        <ele>40.2</ele>
        <time>2022-06-19T09:30:42Z</time>
      </trkpt>
      <trkpt lat="42.8040630" lon="-8.6362050">
        <ele>40.2</ele>
        <time>2022-06-19T09:30:43Z</time>
      </trkpt>
      <trkpt lat="42.8041010" lon="-8.6361700">
        <ele>40.2</ele>
        <time>2022-06-19T09:30:44Z</time>
      </trkpt>
      <trkpt lat="42.8041400" lon="-8.6361360">
        <ele>40.6</ele>
        <time>2022-06-19T09:30:45Z</time>
      </trkpt>
      <trkpt lat="42.8041780" lon="-8.6361050">
        <ele>40.6</ele>
        <time>2022-06-19T09:30:46Z</time>
      </trkpt>
      <trkpt lat="42.8042160" lon="-8.6360710">
        <ele>40.6</ele>
        <time>2022-06-19T09:30:47Z</time>
      </trkpt>
      <trkpt lat="42.8042510" lon="-8.6360360">
        <ele>40.6</ele>
        <time>2022-06-19T09:30:48Z</time>
      </trkpt>
      <trkpt lat="42.8042880" lon="-8.6360010">
        <ele>40.8</ele>
        <time>2022-06-19T09:30:49Z</time>
      </trkpt>
      <trkpt lat="42.8043230" lon="-8.6359700">
        <ele>40.8</ele>
        <time>2022-06-19T09:30:50Z</time>
      </trkpt>
      <trkpt lat="42.8043580" lon="-8.6359380">
        <ele>40.8</ele>
        <time>2022-06-19T09:30:51Z</time>
      </trkpt>
      <trkpt lat="42.8043930" lon="-8.6359060">
        <ele>41.0</ele>
        <time>2022-06-19T09:30:52Z</time>
      </trkpt>
      <trkpt lat="42.8044260" lon="-8.6358750">
        <ele>41.0</ele>
        <time>2022-06-19T09:30:53Z</time>
      </trkpt>
      <trkpt lat="42.8044610" lon="-8.6358430">
        <ele>41.0</ele>
        <time>2022-06-19T09:30:54Z</time>
      </trkpt>
      <trkpt lat="42.8044960" lon="-8.6358130">
        <ele>41.0</ele>
        <time>2022-06-19T09:30:55Z</time>
      </trkpt>
      <trkpt lat="42.8045300" lon="-8.6357830">
        <ele>41.0</ele>
        <time>2022-06-19T09:30:56Z</time>
      </trkpt>
      <trkpt lat="42.8045630" lon="-8.6357530">
        <ele>41.4</ele>
        <time>2022-06-19T09:30:57Z</time>
      </trkpt>
      <trkpt lat="42.8045960" lon="-8.6357250">
        <ele>41.4</ele>
        <time>2022-06-19T09:30:58Z</time>
      </trkpt>
      <trkpt lat="42.8046280" lon="-8.6356960">
        <ele>41.4</ele>
        <time>2022-06-19T09:30:59Z</time>
      </trkpt>
      <trkpt lat="42.8046580" lon="-8.6356660">
        <ele>41.4</ele>
        <time>2022-06-19T09:31:00Z</time>
      </trkpt>
      <trkpt lat="42.8046880" lon="-8.6356400">
        <ele>41.8</ele>
        <time>2022-06-19T09:31:01Z</time>
      </trkpt>
      <trkpt lat="42.8047200" lon="-8.6356130">
        <ele>41.8</ele>
        <time>2022-06-19T09:31:02Z</time>
      </trkpt>
      <trkpt lat="42.8047500" lon="-8.6355850">
        <ele>41.8</ele>
        <time>2022-06-19T09:31:03Z</time>
      </trkpt>
      <trkpt lat="42.8047800" lon="-8.6355560">
        <ele>41.8</ele>
        <time>2022-06-19T09:31:04Z</time>
      </trkpt>
      <trkpt lat="42.8048080" lon="-8.6355280">
        <ele>42.4</ele>
        <time>2022-06-19T09:31:05Z</time>
      </trkpt>
      <trkpt lat="42.8048380" lon="-8.6355010">
        <ele>42.4</ele>
        <time>2022-06-19T09:31:06Z</time>
      </trkpt>
      <trkpt lat="42.8048680" lon="-8.6354710">
        <ele>42.4</ele>
        <time>2022-06-19T09:31:07Z</time>
      </trkpt>
      <trkpt lat="42.8048980" lon="-8.6354460">
        <ele>42.4</ele>
        <time>2022-06-19T09:31:08Z</time>
      </trkpt>
      <trkpt lat="42.8049250" lon="-8.6354210">
        <ele>42.8</ele>
        <time>2022-06-19T09:31:09Z</time>
      </trkpt>
      <trkpt lat="42.8049530" lon="-8.6353950">
        <ele>42.8</ele>
        <time>2022-06-19T09:31:10Z</time>
      </trkpt>
      <trkpt lat="42.8049810" lon="-8.6353700">
        <ele>42.8</ele>
        <time>2022-06-19T09:31:11Z</time>
      </trkpt>
      <trkpt lat="42.8050110" lon="-8.6353430">
        <ele>43.4</ele>
        <time>2022-06-19T09:31:12Z</time>
      </trkpt>
      <trkpt lat="42.8050400" lon="-8.6353180">
        <ele>43.0</ele>
        <time>2022-06-19T09:31:13Z</time>
      </trkpt>
      <trkpt lat="42.8050680" lon="-8.6352910">
        <ele>43.0</ele>
        <time>2022-06-19T09:31:14Z</time>
      </trkpt>
      <trkpt lat="42.8050960" lon="-8.6352630">
        <ele>43.0</ele>
        <time>2022-06-19T09:31:15Z</time>
      </trkpt>
      <trkpt lat="42.8051250" lon="-8.6352380">
        <ele>43.6</ele>
        <time>2022-06-19T09:31:16Z</time>
      </trkpt>
      <trkpt lat="42.8051550" lon="-8.6352110">
        <ele>44.2</ele>
        <time>2022-06-19T09:31:17Z</time>
      </trkpt>
      <trkpt lat="42.8051800" lon="-8.6351880">
        <ele>44.2</ele>
        <time>2022-06-19T09:31:18Z</time>
      </trkpt>
      <trkpt lat="42.8052050" lon="-8.6351650">
        <ele>44.2</ele>
        <time>2022-06-19T09:31:19Z</time>
      </trkpt>
      <trkpt lat="42.8052310" lon="-8.6351450">
        <ele>44.2</ele>
        <time>2022-06-19T09:31:20Z</time>
      </trkpt>
      <trkpt lat="42.8052610" lon="-8.6351250">
        <ele>43.8</ele>
        <time>2022-06-19T09:31:21Z</time>
      </trkpt>
      <trkpt lat="42.8052900" lon="-8.6351060">
        <ele>43.8</ele>
        <time>2022-06-19T09:31:22Z</time>
      </trkpt>
      <trkpt lat="42.8053210" lon="-8.6350880">
        <ele>43.8</ele>
        <time>2022-06-19T09:31:23Z</time>
      </trkpt>
      <trkpt lat="42.8053510" lon="-8.6350710">
        <ele>43.8</ele>
        <time>2022-06-19T09:31:24Z</time>
      </trkpt>
      <trkpt lat="42.8053830" lon="-8.6350550">
        <ele>43.4</ele>
        <time>2022-06-19T09:31:25Z</time>
      </trkpt>
      <trkpt lat="42.8054110" lon="-8.6350310">
        <ele>43.4</ele>
        <time>2022-06-19T09:31:26Z</time>
      </trkpt>
      <trkpt lat="42.8054380" lon="-8.6350030">
        <ele>43.4</ele>
        <time>2022-06-19T09:31:27Z</time>
      </trkpt>
      <trkpt lat="42.8054660" lon="-8.6349760">
        <ele>44.4</ele>
        <time>2022-06-19T09:31:28Z</time>
      </trkpt>
      <trkpt lat="42.8054950" lon="-8.6349510">
        <ele>44.4</ele>
        <time>2022-06-19T09:31:29Z</time>
      </trkpt>
      <trkpt lat="42.8055230" lon="-8.6349260">
        <ele>44.4</ele>
        <time>2022-06-19T09:31:30Z</time>
      </trkpt>
      <trkpt lat="42.8055530" lon="-8.6349010">
        <ele>44.4</ele>
        <time>2022-06-19T09:31:31Z</time>
      </trkpt>
      <trkpt lat="42.8055830" lon="-8.6348800">
        <ele>45.0</ele>
        <time>2022-06-19T09:31:32Z</time>
      </trkpt>
      <trkpt lat="42.8056160" lon="-8.6348630">
        <ele>45.2</ele>
        <time>2022-06-19T09:31:33Z</time>
      </trkpt>
      <trkpt lat="42.8056550" lon="-8.6348480">
        <ele>45.2</ele>
        <time>2022-06-19T09:31:34Z</time>
      </trkpt>
      <trkpt lat="42.8056980" lon="-8.6348350">
        <ele>45.2</ele>
        <time>2022-06-19T09:31:35Z</time>
      </trkpt>
      <trkpt lat="42.8057450" lon="-8.6348180">
        <ele>45.2</ele>
        <time>2022-06-19T09:31:36Z</time>
      </trkpt>
      <trkpt lat="42.8057880" lon="-8.6347960">
        <ele>45.0</ele>
        <time>2022-06-19T09:31:37Z</time>
      </trkpt>
      <trkpt lat="42.8058250" lon="-8.6347680">
        <ele>45.0</ele>
        <time>2022-06-19T09:31:38Z</time>
      </trkpt>
      <trkpt lat="42.8058580" lon="-8.6347360">
        <ele>45.0</ele>
        <time>2022-06-19T09:31:39Z</time>
      </trkpt>
      <trkpt lat="42.8058910" lon="-8.6347060">
        <ele>45.0</ele>
        <time>2022-06-19T09:31:40Z</time>
      </trkpt>
      <trkpt lat="42.8059250" lon="-8.6346800">
        <ele>46.2</ele>
        <time>2022-06-19T09:31:41Z</time>
      </trkpt>
      <trkpt lat="42.8059580" lon="-8.6346510">
        <ele>46.2</ele>
        <time>2022-06-19T09:31:42Z</time>
      </trkpt>
      <trkpt lat="42.8059900" lon="-8.6346230">
        <ele>46.2</ele>
        <time>2022-06-19T09:31:43Z</time>
      </trkpt>
      <trkpt lat="42.8060210" lon="-8.6345960">
        <ele>46.2</ele>
        <time>2022-06-19T09:31:44Z</time>
      </trkpt>
      <trkpt lat="42.8060530" lon="-8.6345710">
        <ele>46.6</ele>
        <time>2022-06-19T09:31:45Z</time>
      </trkpt>
      <trkpt lat="42.8060810" lon="-8.6345430">
        <ele>46.6</ele>
        <time>2022-06-19T09:31:46Z</time>
      </trkpt>
      <trkpt lat="42.8061110" lon="-8.6345130">
        <ele>46.6</ele>
        <time>2022-06-19T09:31:47Z</time>
      </trkpt>
      <trkpt lat="42.8061400" lon="-8.6344860">
        <ele>47.2</ele>
        <time>2022-06-19T09:31:48Z</time>
      </trkpt>
      <trkpt lat="42.8061660" lon="-8.6344630">
        <ele>46.8</ele>
        <time>2022-06-19T09:31:49Z</time>
      </trkpt>
      <trkpt lat="42.8061930" lon="-8.6344400">
        <ele>46.8</ele>
        <time>2022-06-19T09:31:50Z</time>
      </trkpt>
      <trkpt lat="42.8062200" lon="-8.6344160">
        <ele>46.8</ele>
        <time>2022-06-19T09:31:51Z</time>
      </trkpt>
      <trkpt lat="42.8062480" lon="-8.6343910">
        <ele>46.8</ele>
        <time>2022-06-19T09:31:52Z</time>
      </trkpt>
      <trkpt lat="42.8062750" lon="-8.6343660">
        <ele>46.6</ele>
        <time>2022-06-19T09:31:53Z</time>
      </trkpt>
      <trkpt lat="42.8063030" lon="-8.6343410">
        <ele>46.6</ele>
        <time>2022-06-19T09:31:54Z</time>
      </trkpt>
      <trkpt lat="42.8063330" lon="-8.6343150">
        <ele>46.6</ele>
        <time>2022-06-19T09:31:55Z</time>
      </trkpt>
      <trkpt lat="42.8063610" lon="-8.6342900">
        <ele>46.8</ele>
        <time>2022-06-19T09:31:56Z</time>
      </trkpt>
      <trkpt lat="42.8063910" lon="-8.6342630">
        <ele>47.4</ele>
        <time>2022-06-19T09:31:57Z</time>
      </trkpt>
      <trkpt lat="42.8064200" lon="-8.6342380">
        <ele>47.4</ele>
        <time>2022-06-19T09:31:58Z</time>
      </trkpt>
      <trkpt lat="42.8064460" lon="-8.6342110">
        <ele>47.4</ele>
        <time>2022-06-19T09:31:59Z</time>
      </trkpt>
      <trkpt lat="42.8064730" lon="-8.6341830">
        <ele>47.4</ele>
        <time>2022-06-19T09:32:00Z</time>
      </trkpt>
      <trkpt lat="42.8064980" lon="-8.6341530">
        <ele>48.0</ele>
        <time>2022-06-19T09:32:01Z</time>
      </trkpt>
      <trkpt lat="42.8065230" lon="-8.6341300">
        <ele>48.0</ele>
        <time>2022-06-19T09:32:02Z</time>
      </trkpt>
      <trkpt lat="42.8065500" lon="-8.6341100">
        <ele>48.0</ele>
        <time>2022-06-19T09:32:03Z</time>
      </trkpt>
      <trkpt lat="42.8065730" lon="-8.6340860">
        <ele>49.0</ele>
        <time>2022-06-19T09:32:04Z</time>
      </trkpt>
      <trkpt lat="42.8065910" lon="-8.6340710">
        <ele>49.0</ele>
        <time>2022-06-19T09:32:05Z</time>
      </trkpt>
      <trkpt lat="42.8066130" lon="-8.6340560">
        <ele>49.0</ele>
        <time>2022-06-19T09:32:06Z</time>
      </trkpt>
      <trkpt lat="42.8066350" lon="-8.6340310">
        <ele>49.0</ele>
        <time>2022-06-19T09:32:07Z</time>
      </trkpt>
      <trkpt lat="42.8066580" lon="-8.6340100">
        <ele>50.0</ele>
        <time>2022-06-19T09:32:08Z</time>
      </trkpt>
      <trkpt lat="42.8066730" lon="-8.6339860">
        <ele>49.8</ele>
        <time>2022-06-19T09:32:09Z</time>
      </trkpt>
      <trkpt lat="42.8066900" lon="-8.6339630">
        <ele>49.8</ele>
        <time>2022-06-19T09:32:10Z</time>
      </trkpt>
      <trkpt lat="42.8067110" lon="-8.6339410">
        <ele>49.8</ele>
        <time>2022-06-19T09:32:11Z</time>
      </trkpt>
      <trkpt lat="42.8067310" lon="-8.6339200">
        <ele>50.4</ele>
        <time>2022-06-19T09:32:12Z</time>
      </trkpt>
      <trkpt lat="42.8067510" lon="-8.6339030">
        <ele>50.6</ele>
        <time>2022-06-19T09:32:13Z</time>
      </trkpt>
      <trkpt lat="42.8067730" lon="-8.6338860">
        <ele>50.6</ele>
        <time>2022-06-19T09:32:14Z</time>
      </trkpt>
      <trkpt lat="42.8067900" lon="-8.6338700">
        <ele>50.6</ele>
        <time>2022-06-19T09:32:15Z</time>
      </trkpt>
      <trkpt lat="42.8068100" lon="-8.6338430">
        <ele>50.6</ele>
        <time>2022-06-19T09:32:16Z</time>
      </trkpt>
      <trkpt lat="42.8068280" lon="-8.6338210">
        <ele>51.0</ele>
        <time>2022-06-19T09:32:17Z</time>
      </trkpt>
      <trkpt lat="42.8068460" lon="-8.6338030">
        <ele>51.0</ele>
        <time>2022-06-19T09:32:18Z</time>
      </trkpt>
      <trkpt lat="42.8068660" lon="-8.6337830">
        <ele>51.0</ele>
        <time>2022-06-19T09:32:19Z</time>
      </trkpt>
      <trkpt lat="42.8068860" lon="-8.6337610">
        <ele>51.6</ele>
        <time>2022-06-19T09:32:20Z</time>
      </trkpt>
      <trkpt lat="42.8069060" lon="-8.6337450">
        <ele>51.6</ele>
        <time>2022-06-19T09:32:21Z</time>
      </trkpt>
      <trkpt lat="42.8069260" lon="-8.6337310">
        <ele>51.6</ele>
        <time>2022-06-19T09:32:22Z</time>
      </trkpt>
      <trkpt lat="42.8069500" lon="-8.6337180">
        <ele>51.6</ele>
        <time>2022-06-19T09:32:23Z</time>
      </trkpt>
      <trkpt lat="42.8069680" lon="-8.6337000">
        <ele>51.6</ele>
        <time>2022-06-19T09:32:24Z</time>
      </trkpt>
      <trkpt lat="42.8069850" lon="-8.6336830">
        <ele>52.0</ele>
        <time>2022-06-19T09:32:25Z</time>
      </trkpt>
      <trkpt lat="42.8070050" lon="-8.6336660">
        <ele>52.0</ele>
        <time>2022-06-19T09:32:26Z</time>
      </trkpt>
      <trkpt lat="42.8070250" lon="-8.6336510">
        <ele>52.0</ele>
        <time>2022-06-19T09:32:27Z</time>
      </trkpt>
      <trkpt lat="42.8070480" lon="-8.6336380">
        <ele>53.0</ele>
        <time>2022-06-19T09:32:28Z</time>
      </trkpt>
      <trkpt lat="42.8070660" lon="-8.6336210">
        <ele>53.4</ele>
        <time>2022-06-19T09:32:29Z</time>
      </trkpt>
      <trkpt lat="42.8070960" lon="-8.6336000">
        <ele>53.4</ele>
        <time>2022-06-19T09:32:30Z</time>
      </trkpt>
      <trkpt lat="42.8071180" lon="-8.6335810">
        <ele>53.4</ele>
        <time>2022-06-19T09:32:31Z</time>
      </trkpt>
      <trkpt lat="42.8071450" lon="-8.6335580">
        <ele>53.4</ele>
        <time>2022-06-19T09:32:32Z</time>
      </trkpt>
      <trkpt lat="42.8071660" lon="-8.6335350">
        <ele>53.8</ele>
        <time>2022-06-19T09:32:33Z</time>
      </trkpt>
      <trkpt lat="42.8071900" lon="-8.6335110">
        <ele>53.8</ele>
        <time>2022-06-19T09:32:34Z</time>
      </trkpt>
      <trkpt lat="42.8072100" lon="-8.6334860">
        <ele>53.8</ele>
        <time>2022-06-19T09:32:35Z</time>
      </trkpt>
      <trkpt lat="42.8072280" lon="-8.6334630">
        <ele>54.0</ele>
        <time>2022-06-19T09:32:36Z</time>
      </trkpt>
      <trkpt lat="42.8072480" lon="-8.6334430">
        <ele>54.4</ele>
        <time>2022-06-19T09:32:37Z</time>
      </trkpt>
      <trkpt lat="42.8072730" lon="-8.6334250">
        <ele>54.4</ele>
        <time>2022-06-19T09:32:38Z</time>
      </trkpt>
      <trkpt lat="42.8072950" lon="-8.6334060">
        <ele>54.4</ele>
        <time>2022-06-19T09:32:39Z</time>
      </trkpt>
      <trkpt lat="42.8073160" lon="-8.6333860">
        <ele>55.0</ele>
        <time>2022-06-19T09:32:40Z</time>
      </trkpt>
      <trkpt lat="42.8073410" lon="-8.6333650">
        <ele>55.2</ele>
        <time>2022-06-19T09:32:41Z</time>
      </trkpt>
      <trkpt lat="42.8073630" lon="-8.6333380">
        <ele>55.2</ele>
        <time>2022-06-19T09:32:42Z</time>
      </trkpt>
      <trkpt lat="42.8073830" lon="-8.6333150">
        <ele>55.2</ele>
        <time>2022-06-19T09:32:43Z</time>
      </trkpt>
      <trkpt lat="42.8074000" lon="-8.6332880">
        <ele>56.0</ele>
        <time>2022-06-19T09:32:44Z</time>
      </trkpt>
      <trkpt lat="42.8074130" lon="-8.6332550">
        <ele>56.0</ele>
        <time>2022-06-19T09:32:45Z</time>
      </trkpt>
      <trkpt lat="42.8074310" lon="-8.6332300">
        <ele>56.0</ele>
        <time>2022-06-19T09:32:46Z</time>
      </trkpt>
      <trkpt lat="42.8074500" lon="-8.6332060">
        <ele>56.0</ele>
        <time>2022-06-19T09:32:47Z</time>
      </trkpt>
      <trkpt lat="42.8074650" lon="-8.6331810">
        <ele>56.4</ele>
        <time>2022-06-19T09:32:48Z</time>
      </trkpt>
      <trkpt lat="42.8074830" lon="-8.6331580">
        <ele>56.4</ele>
        <time>2022-06-19T09:32:49Z</time>
      </trkpt>
      <trkpt lat="42.8075030" lon="-8.6331310">
        <ele>56.4</ele>
        <time>2022-06-19T09:32:50Z</time>
      </trkpt>
      <trkpt lat="42.8075210" lon="-8.6331080">
        <ele>56.4</ele>
        <time>2022-06-19T09:32:51Z</time>
      </trkpt>
      <trkpt lat="42.8075410" lon="-8.6330850">
        <ele>56.4</ele>
        <time>2022-06-19T09:32:52Z</time>
      </trkpt>
      <trkpt lat="42.8075610" lon="-8.6330610">
        <ele>57.0</ele>
        <time>2022-06-19T09:32:53Z</time>
      </trkpt>
      <trkpt lat="42.8075830" lon="-8.6330400">
        <ele>57.0</ele>
        <time>2022-06-19T09:32:54Z</time>
      </trkpt>
      <trkpt lat="42.8076050" lon="-8.6330180">
        <ele>57.0</ele>
        <time>2022-06-19T09:32:55Z</time>
      </trkpt>
      <trkpt lat="42.8076280" lon="-8.6329980">
        <ele>57.2</ele>
        <time>2022-06-19T09:32:56Z</time>
      </trkpt>
      <trkpt lat="42.8076510" lon="-8.6329760">
        <ele>57.6</ele>
        <time>2022-06-19T09:32:57Z</time>
      </trkpt>
      <trkpt lat="42.8076710" lon="-8.6329550">
        <ele>57.6</ele>
        <time>2022-06-19T09:32:58Z</time>
      </trkpt>
      <trkpt lat="42.8076930" lon="-8.6329350">
        <ele>57.6</ele>
        <time>2022-06-19T09:32:59Z</time>
      </trkpt>
      <trkpt lat="42.8077150" lon="-8.6329080">
        <ele>58.0</ele>
        <time>2022-06-19T09:33:00Z</time>
      </trkpt>
      <trkpt lat="42.8077360" lon="-8.6328850">
        <ele>58.0</ele>
        <time>2022-06-19T09:33:01Z</time>
      </trkpt>
      <trkpt lat="42.8077560" lon="-8.6328600">
        <ele>58.0</ele>
        <time>2022-06-19T09:33:02Z</time>
      </trkpt>
      <trkpt lat="42.8077780" lon="-8.6328330">
        <ele>58.0</ele>
        <time>2022-06-19T09:33:03Z</time>
      </trkpt>
      <trkpt lat="42.8077980" lon="-8.6328080">
        <ele>58.2</ele>
        <time>2022-06-19T09:33:04Z</time>
      </trkpt>
      <trkpt lat="42.8078180" lon="-8.6327830">
        <ele>58.6</ele>
        <time>2022-06-19T09:33:05Z</time>
      </trkpt>
      <trkpt lat="42.8078380" lon="-8.6327610">
        <ele>58.6</ele>
        <time>2022-06-19T09:33:06Z</time>
      </trkpt>
      <trkpt lat="42.8078580" lon="-8.6327380">
        <ele>58.6</ele>
        <time>2022-06-19T09:33:07Z</time>
      </trkpt>
      <trkpt lat="42.8078780" lon="-8.6327110">
        <ele>58.6</ele>
        <time>2022-06-19T09:33:08Z</time>
      </trkpt>
      <trkpt lat="42.8078960" lon="-8.6326860">
        <ele>58.8</ele>
        <time>2022-06-19T09:33:09Z</time>
      </trkpt>
      <trkpt lat="42.8079160" lon="-8.6326650">
        <ele>58.8</ele>
        <time>2022-06-19T09:33:10Z</time>
      </trkpt>
      <trkpt lat="42.8079400" lon="-8.6326360">
        <ele>58.8</ele>
        <time>2022-06-19T09:33:11Z</time>
      </trkpt>
      <trkpt lat="42.8079610" lon="-8.6326100">
        <ele>59.6</ele>
        <time>2022-06-19T09:33:12Z</time>
      </trkpt>
      <trkpt lat="42.8079810" lon="-8.6325800">
        <ele>59.2</ele>
        <time>2022-06-19T09:33:13Z</time>
      </trkpt>
      <trkpt lat="42.8080030" lon="-8.6325560">
        <ele>59.2</ele>
        <time>2022-06-19T09:33:14Z</time>
      </trkpt>
      <trkpt lat="42.8080250" lon="-8.6325350">
        <ele>59.2</ele>
        <time>2022-06-19T09:33:15Z</time>
      </trkpt>
      <trkpt lat="42.8080450" lon="-8.6325100">
        <ele>59.8</ele>
        <time>2022-06-19T09:33:16Z</time>
      </trkpt>
      <trkpt lat="42.8080630" lon="-8.6324800">
        <ele>60.2</ele>
        <time>2022-06-19T09:33:17Z</time>
      </trkpt>
      <trkpt lat="42.8080810" lon="-8.6324500">
        <ele>60.2</ele>
        <time>2022-06-19T09:33:18Z</time>
      </trkpt>
      <trkpt lat="42.8081000" lon="-8.6324250">
        <ele>60.2</ele>
        <time>2022-06-19T09:33:19Z</time>
      </trkpt>
      <trkpt lat="42.8081230" lon="-8.6324060">
        <ele>60.2</ele>
        <time>2022-06-19T09:33:20Z</time>
      </trkpt>
      <trkpt lat="42.8081460" lon="-8.6323860">
        <ele>60.6</ele>
        <time>2022-06-19T09:33:21Z</time>
      </trkpt>
      <trkpt lat="42.8081700" lon="-8.6323630">
        <ele>60.6</ele>
        <time>2022-06-19T09:33:22Z</time>
      </trkpt>
      <trkpt lat="42.8081930" lon="-8.6323400">
        <ele>60.6</ele>
        <time>2022-06-19T09:33:23Z</time>
      </trkpt>
      <trkpt lat="42.8082180" lon="-8.6323160">
        <ele>60.6</ele>
        <time>2022-06-19T09:33:24Z</time>
      </trkpt>
      <trkpt lat="42.8082410" lon="-8.6322880">
        <ele>61.4</ele>
        <time>2022-06-19T09:33:25Z</time>
      </trkpt>
      <trkpt lat="42.8082660" lon="-8.6322660">
        <ele>61.4</ele>
        <time>2022-06-19T09:33:26Z</time>
      </trkpt>
      <trkpt lat="42.8082930" lon="-8.6322500">
        <ele>61.4</ele>
        <time>2022-06-19T09:33:27Z</time>
      </trkpt>
      <trkpt lat="42.8083160" lon="-8.6322260">
        <ele>62.0</ele>
        <time>2022-06-19T09:33:28Z</time>
      </trkpt>
      <trkpt lat="42.8083350" lon="-8.6322010">
        <ele>62.4</ele>
        <time>2022-06-19T09:33:29Z</time>
      </trkpt>
      <trkpt lat="42.8083530" lon="-8.6321760">
        <ele>62.4</ele>
        <time>2022-06-19T09:33:30Z</time>
      </trkpt>
      <trkpt lat="42.8083750" lon="-8.6321500">
        <ele>62.4</ele>
        <time>2022-06-19T09:33:31Z</time>
      </trkpt>
      <trkpt lat="42.8083930" lon="-8.6321260">
        <ele>62.2</ele>
        <time>2022-06-19T09:33:32Z</time>
      </trkpt>
      <trkpt lat="42.8084110" lon="-8.6321030">
        <ele>62.8</ele>
        <time>2022-06-19T09:33:33Z</time>
      </trkpt>
      <trkpt lat="42.8084300" lon="-8.6320800">
        <ele>62.8</ele>
        <time>2022-06-19T09:33:34Z</time>
      </trkpt>
      <trkpt lat="42.8084510" lon="-8.6320510">
        <ele>62.8</ele>
        <time>2022-06-19T09:33:35Z</time>
      </trkpt>
      <trkpt lat="42.8084710" lon="-8.6320250">
        <ele>63.4</ele>
        <time>2022-06-19T09:33:36Z</time>
      </trkpt>
      <trkpt lat="42.8084910" lon="-8.6320030">
        <ele>63.2</ele>
        <time>2022-06-19T09:33:37Z</time>
      </trkpt>
      <trkpt lat="42.8085130" lon="-8.6319800">
        <ele>63.2</ele>
        <time>2022-06-19T09:33:38Z</time>
      </trkpt>
      <trkpt lat="42.8085360" lon="-8.6319560">
        <ele>63.2</ele>
        <time>2022-06-19T09:33:39Z</time>
      </trkpt>
      <trkpt lat="42.8085560" lon="-8.6319350">
        <ele>63.6</ele>
        <time>2022-06-19T09:33:40Z</time>
      </trkpt>
      <trkpt lat="42.8085780" lon="-8.6319100">
        <ele>64.0</ele>
        <time>2022-06-19T09:33:41Z</time>
      </trkpt>
      <trkpt lat="42.8085980" lon="-8.6318830">
        <ele>64.0</ele>
        <time>2022-06-19T09:33:42Z</time>
      </trkpt>
      <trkpt lat="42.8086180" lon="-8.6318560">
        <ele>64.0</ele>
        <time>2022-06-19T09:33:43Z</time>
      </trkpt>
      <trkpt lat="42.8086410" lon="-8.6318310">
        <ele>64.4</ele>
        <time>2022-06-19T09:33:44Z</time>
      </trkpt>
      <trkpt lat="42.8086630" lon="-8.6318050">
        <ele>64.8</ele>
        <time>2022-06-19T09:33:45Z</time>
      </trkpt>
      <trkpt lat="42.8086900" lon="-8.6317830">
        <ele>64.8</ele>
        <time>2022-06-19T09:33:46Z</time>
      </trkpt>
      <trkpt lat="42.8087130" lon="-8.6317610">
        <ele>64.8</ele>
        <time>2022-06-19T09:33:47Z</time>
      </trkpt>
      <trkpt lat="42.8087380" lon="-8.6317360">
        <ele>64.8</ele>
        <time>2022-06-19T09:33:48Z</time>
      </trkpt>
      <trkpt lat="42.8087630" lon="-8.6317100">
        <ele>64.6</ele>
        <time>2022-06-19T09:33:49Z</time>
      </trkpt>
      <trkpt lat="42.8087860" lon="-8.6316810">
        <ele>64.6</ele>
        <time>2022-06-19T09:33:50Z</time>
      </trkpt>
      <trkpt lat="42.8088130" lon="-8.6316560">
        <ele>64.6</ele>
        <time>2022-06-19T09:33:51Z</time>
      </trkpt>
      <trkpt lat="42.8088350" lon="-8.6316300">
        <ele>64.4</ele>
        <time>2022-06-19T09:33:52Z</time>
      </trkpt>
      <trkpt lat="42.8088560" lon="-8.6316000">
        <ele>64.4</ele>
        <time>2022-06-19T09:33:53Z</time>
      </trkpt>
      <trkpt lat="42.8088800" lon="-8.6315730">
        <ele>64.4</ele>
        <time>2022-06-19T09:33:54Z</time>
      </trkpt>
      <trkpt lat="42.8089050" lon="-8.6315410">
        <ele>64.4</ele>
        <time>2022-06-19T09:33:55Z</time>
      </trkpt>
      <trkpt lat="42.8089280" lon="-8.6315060">
        <ele>64.4</ele>
        <time>2022-06-19T09:33:56Z</time>
      </trkpt>
      <trkpt lat="42.8089510" lon="-8.6314700">
        <ele>64.2</ele>
        <time>2022-06-19T09:33:57Z</time>
      </trkpt>
      <trkpt lat="42.8089760" lon="-8.6314350">
        <ele>64.2</ele>
        <time>2022-06-19T09:33:58Z</time>
      </trkpt>
      <trkpt lat="42.8090030" lon="-8.6314010">
        <ele>64.2</ele>
        <time>2022-06-19T09:33:59Z</time>
      </trkpt>
      <trkpt lat="42.8090300" lon="-8.6313700">
        <ele>63.8</ele>
        <time>2022-06-19T09:34:00Z</time>
      </trkpt>
      <trkpt lat="42.8090460" lon="-8.6313280">
        <ele>63.8</ele>
        <time>2022-06-19T09:34:01Z</time>
      </trkpt>
      <trkpt lat="42.8090660" lon="-8.6312860">
        <ele>63.8</ele>
        <time>2022-06-19T09:34:02Z</time>
      </trkpt>
      <trkpt lat="42.8090900" lon="-8.6312450">
        <ele>63.8</ele>
        <time>2022-06-19T09:34:03Z</time>
      </trkpt>
      <trkpt lat="42.8091130" lon="-8.6312050">
        <ele>63.4</ele>
        <time>2022-06-19T09:34:04Z</time>
      </trkpt>
      <trkpt lat="42.8091360" lon="-8.6311680">
        <ele>63.6</ele>
        <time>2022-06-19T09:34:05Z</time>
      </trkpt>
      <trkpt lat="42.8091580" lon="-8.6311260">
        <ele>63.6</ele>
        <time>2022-06-19T09:34:06Z</time>
      </trkpt>
      <trkpt lat="42.8091810" lon="-8.6310850">
        <ele>63.6</ele>
        <time>2022-06-19T09:34:07Z</time>
      </trkpt>
      <trkpt lat="42.8092010" lon="-8.6310410">
        <ele>63.8</ele>
        <time>2022-06-19T09:34:08Z</time>
      </trkpt>
      <trkpt lat="42.8092130" lon="-8.6309930">
        <ele>64.2</ele>
        <time>2022-06-19T09:34:09Z</time>
      </trkpt>
      <trkpt lat="42.8092260" lon="-8.6309500">
        <ele>64.2</ele>
        <time>2022-06-19T09:34:10Z</time>
      </trkpt>
      <trkpt lat="42.8092400" lon="-8.6309030">
        <ele>64.2</ele>
        <time>2022-06-19T09:34:11Z</time>
      </trkpt>
      <trkpt lat="42.8092550" lon="-8.6308600">
        <ele>64.2</ele>
        <time>2022-06-19T09:34:12Z</time>
      </trkpt>
      <trkpt lat="42.8092730" lon="-8.6308160">
        <ele>64.2</ele>
        <time>2022-06-19T09:34:13Z</time>
      </trkpt>
      <trkpt lat="42.8092950" lon="-8.6307780">
        <ele>64.2</ele>
        <time>2022-06-19T09:34:14Z</time>
      </trkpt>
      <trkpt lat="42.8093150" lon="-8.6307430">
        <ele>64.2</ele>
        <time>2022-06-19T09:34:15Z</time>
      </trkpt>
      <trkpt lat="42.8093360" lon="-8.6307060">
        <ele>64.4</ele>
        <time>2022-06-19T09:34:16Z</time>
      </trkpt>
      <trkpt lat="42.8093560" lon="-8.6306680">
        <ele>64.4</ele>
        <time>2022-06-19T09:34:17Z</time>
      </trkpt>
      <trkpt lat="42.8093750" lon="-8.6306300">
        <ele>64.4</ele>
        <time>2022-06-19T09:34:18Z</time>
      </trkpt>
      <trkpt lat="42.8093930" lon="-8.6305900">
        <ele>64.4</ele>
        <time>2022-06-19T09:34:19Z</time>
      </trkpt>
      <trkpt lat="42.8094100" lon="-8.6305480">
        <ele>65.2</ele>
        <time>2022-06-19T09:34:20Z</time>
      </trkpt>
      <trkpt lat="42.8094250" lon="-8.6305060">
        <ele>65.0</ele>
        <time>2022-06-19T09:34:21Z</time>
      </trkpt>
      <trkpt lat="42.8094400" lon="-8.6304680">
        <ele>65.0</ele>
        <time>2022-06-19T09:34:22Z</time>
      </trkpt>
      <trkpt lat="42.8094530" lon="-8.6304260">
        <ele>65.0</ele>
        <time>2022-06-19T09:34:23Z</time>
      </trkpt>
      <trkpt lat="42.8094630" lon="-8.6303810">
        <ele>65.0</ele>
        <time>2022-06-19T09:34:24Z</time>
      </trkpt>
      <trkpt lat="42.8094750" lon="-8.6303360">
        <ele>65.2</ele>
        <time>2022-06-19T09:34:25Z</time>
      </trkpt>
      <trkpt lat="42.8094850" lon="-8.6302930">
        <ele>65.2</ele>
        <time>2022-06-19T09:34:26Z</time>
      </trkpt>
      <trkpt lat="42.8094960" lon="-8.6302450">
        <ele>65.2</ele>
        <time>2022-06-19T09:34:27Z</time>
      </trkpt>
      <trkpt lat="42.8095080" lon="-8.6302000">
        <ele>65.6</ele>
        <time>2022-06-19T09:34:28Z</time>
      </trkpt>
      <trkpt lat="42.8095200" lon="-8.6301580">
        <ele>65.4</ele>
        <time>2022-06-19T09:34:29Z</time>
      </trkpt>
      <trkpt lat="42.8095310" lon="-8.6301150">
        <ele>65.4</ele>
        <time>2022-06-19T09:34:30Z</time>
      </trkpt>
      <trkpt lat="42.8095430" lon="-8.6300700">
        <ele>65.4</ele>
        <time>2022-06-19T09:34:31Z</time>
      </trkpt>
      <trkpt lat="42.8095550" lon="-8.6300250">
        <ele>65.4</ele>
        <time>2022-06-19T09:34:32Z</time>
      </trkpt>
      <trkpt lat="42.8095660" lon="-8.6299800">
        <ele>65.6</ele>
        <time>2022-06-19T09:34:33Z</time>
      </trkpt>
      <trkpt lat="42.8095780" lon="-8.6299360">
        <ele>65.6</ele>
        <time>2022-06-19T09:34:34Z</time>
      </trkpt>
      <trkpt lat="42.8095860" lon="-8.6298930">
        <ele>65.6</ele>
        <time>2022-06-19T09:34:35Z</time>
      </trkpt>
      <trkpt lat="42.8095930" lon="-8.6298500">
        <ele>66.2</ele>
        <time>2022-06-19T09:34:36Z</time>
      </trkpt>
      <trkpt lat="42.8095980" lon="-8.6298080">
        <ele>65.8</ele>
        <time>2022-06-19T09:34:37Z</time>
      </trkpt>
      <trkpt lat="42.8096050" lon="-8.6297600">
        <ele>65.8</ele>
        <time>2022-06-19T09:34:38Z</time>
      </trkpt>
      <trkpt lat="42.8096150" lon="-8.6297130">
        <ele>65.8</ele>
        <time>2022-06-19T09:34:39Z</time>
      </trkpt>
      <trkpt lat="42.8096230" lon="-8.6296680">
        <ele>65.8</ele>
        <time>2022-06-19T09:34:40Z</time>
      </trkpt>
      <trkpt lat="42.8096330" lon="-8.6296250">
        <ele>66.4</ele>
        <time>2022-06-19T09:34:41Z</time>
      </trkpt>
      <trkpt lat="42.8096450" lon="-8.6295850">
        <ele>66.4</ele>
        <time>2022-06-19T09:34:42Z</time>
      </trkpt>
      <trkpt lat="42.8096550" lon="-8.6295460">
        <ele>66.4</ele>
        <time>2022-06-19T09:34:43Z</time>
      </trkpt>
      <trkpt lat="42.8096650" lon="-8.6295110">
        <ele>66.4</ele>
        <time>2022-06-19T09:34:44Z</time>
      </trkpt>
      <trkpt lat="42.8096730" lon="-8.6294780">
        <ele>66.4</ele>
        <time>2022-06-19T09:34:45Z</time>
      </trkpt>
      <trkpt lat="42.8096810" lon="-8.6294430">
        <ele>66.4</ele>
        <time>2022-06-19T09:34:46Z</time>
      </trkpt>
      <trkpt lat="42.8096910" lon="-8.6294080">
        <ele>66.4</ele>
        <time>2022-06-19T09:34:47Z</time>
      </trkpt>
      <trkpt lat="42.8097030" lon="-8.6293710">
        <ele>66.4</ele>
        <time>2022-06-19T09:34:48Z</time>
      </trkpt>
      <trkpt lat="42.8097110" lon="-8.6293350">
        <ele>66.6</ele>
        <time>2022-06-19T09:34:49Z</time>
      </trkpt>
      <trkpt lat="42.8097200" lon="-8.6292950">
        <ele>66.6</ele>
        <time>2022-06-19T09:34:50Z</time>
      </trkpt>
      <trkpt lat="42.8097250" lon="-8.6292560">
        <ele>66.6</ele>
        <time>2022-06-19T09:34:51Z</time>
      </trkpt>
      <trkpt lat="42.8097310" lon="-8.6292260">
        <ele>66.6</ele>
        <time>2022-06-19T09:34:52Z</time>
      </trkpt>
      <trkpt lat="42.8097400" lon="-8.6291910">
        <ele>66.8</ele>
        <time>2022-06-19T09:34:53Z</time>
      </trkpt>
      <trkpt lat="42.8097450" lon="-8.6291530">
        <ele>66.8</ele>
        <time>2022-06-19T09:34:54Z</time>
      </trkpt>
      <trkpt lat="42.8097510" lon="-8.6291160">
        <ele>66.8</ele>
        <time>2022-06-19T09:34:55Z</time>
      </trkpt>
      <trkpt lat="42.8097630" lon="-8.6290780">
        <ele>66.8</ele>
        <time>2022-06-19T09:34:56Z</time>
      </trkpt>
      <trkpt lat="42.8097680" lon="-8.6290380">
        <ele>67.0</ele>
        <time>2022-06-19T09:34:57Z</time>
      </trkpt>
      <trkpt lat="42.8097710" lon="-8.6290010">
        <ele>67.0</ele>
        <time>2022-06-19T09:34:58Z</time>
      </trkpt>
      <trkpt lat="42.8097750" lon="-8.6289600">
        <ele>67.0</ele>
        <time>2022-06-19T09:34:59Z</time>
      </trkpt>
      <trkpt lat="42.8097830" lon="-8.6289150">
        <ele>66.4</ele>
        <time>2022-06-19T09:35:00Z</time>
      </trkpt>
      <trkpt lat="42.8097880" lon="-8.6288700">
        <ele>66.6</ele>
        <time>2022-06-19T09:35:01Z</time>
      </trkpt>
      <trkpt lat="42.8097900" lon="-8.6288280">
        <ele>66.6</ele>
        <time>2022-06-19T09:35:02Z</time>
      </trkpt>
      <trkpt lat="42.8097930" lon="-8.6287880">
        <ele>66.6</ele>
        <time>2022-06-19T09:35:03Z</time>
      </trkpt>
      <trkpt lat="42.8097960" lon="-8.6287410">
        <ele>66.8</ele>
        <time>2022-06-19T09:35:04Z</time>
      </trkpt>
      <trkpt lat="42.8097980" lon="-8.6286910">
        <ele>66.6</ele>
        <time>2022-06-19T09:35:05Z</time>
      </trkpt>
      <trkpt lat="42.8098030" lon="-8.6286400">
        <ele>66.6</ele>
        <time>2022-06-19T09:35:06Z</time>
      </trkpt>
      <trkpt lat="42.8098110" lon="-8.6285910">
        <ele>66.6</ele>
        <time>2022-06-19T09:35:07Z</time>
      </trkpt>
      <trkpt lat="42.8098180" lon="-8.6285480">
        <ele>66.4</ele>
        <time>2022-06-19T09:35:08Z</time>
      </trkpt>
      <trkpt lat="42.8098260" lon="-8.6285050">
        <ele>66.6</ele>
        <time>2022-06-19T09:35:09Z</time>
      </trkpt>
      <trkpt lat="42.8098280" lon="-8.6284560">
        <ele>66.6</ele>
        <time>2022-06-19T09:35:10Z</time>
      </trkpt>
      <trkpt lat="42.8098260" lon="-8.6284110">
        <ele>66.6</ele>
        <time>2022-06-19T09:35:11Z</time>
      </trkpt>
      <trkpt lat="42.8098230" lon="-8.6283630">
        <ele>66.6</ele>
        <time>2022-06-19T09:35:12Z</time>
      </trkpt>
      <trkpt lat="42.8098210" lon="-8.6283150">
        <ele>66.4</ele>
        <time>2022-06-19T09:35:13Z</time>
      </trkpt>
      <trkpt lat="42.8098150" lon="-8.6282630">
        <ele>66.4</ele>
        <time>2022-06-19T09:35:14Z</time>
      </trkpt>
      <trkpt lat="42.8098110" lon="-8.6282060">
        <ele>66.4</ele>
        <time>2022-06-19T09:35:15Z</time>
      </trkpt>
      <trkpt lat="42.8098080" lon="-8.6281510">
        <ele>66.4</ele>
        <time>2022-06-19T09:35:16Z</time>
      </trkpt>
      <trkpt lat="42.8098000" lon="-8.6280910">
        <ele>65.2</ele>
        <time>2022-06-19T09:35:17Z</time>
      </trkpt>
      <trkpt lat="42.8097910" lon="-8.6280300">
        <ele>65.2</ele>
        <time>2022-06-19T09:35:18Z</time>
      </trkpt>
      <trkpt lat="42.8097750" lon="-8.6279610">
        <ele>65.2</ele>
        <time>2022-06-19T09:35:19Z</time>
      </trkpt>
      <trkpt lat="42.8097550" lon="-8.6278910">
        <ele>64.2</ele>
        <time>2022-06-19T09:35:20Z</time>
      </trkpt>
      <trkpt lat="42.8097280" lon="-8.6278160">
        <ele>63.2</ele>
        <time>2022-06-19T09:35:21Z</time>
      </trkpt>
      <trkpt lat="42.8096960" lon="-8.6277350">
        <ele>63.2</ele>
        <time>2022-06-19T09:35:22Z</time>
      </trkpt>
      <trkpt lat="42.8096700" lon="-8.6276450">
        <ele>63.2</ele>
        <time>2022-06-19T09:35:23Z</time>
      </trkpt>
      <trkpt lat="42.8096350" lon="-8.6275500">
        <ele>62.2</ele>
        <time>2022-06-19T09:35:24Z</time>
      </trkpt>
      <trkpt lat="42.8096000" lon="-8.6274610">
        <ele>60.2</ele>
        <time>2022-06-19T09:35:25Z</time>
      </trkpt>
      <trkpt lat="42.8095650" lon="-8.6273700">
        <ele>60.2</ele>
        <time>2022-06-19T09:35:26Z</time>
      </trkpt>
      <trkpt lat="42.8095330" lon="-8.6272750">
        <ele>60.2</ele>
        <time>2022-06-19T09:35:27Z</time>
      </trkpt>
      <trkpt lat="42.8095030" lon="-8.6271760">
        <ele>59.2</ele>
        <time>2022-06-19T09:35:28Z</time>
      </trkpt>
      <trkpt lat="42.8094750" lon="-8.6270750">
        <ele>58.6</ele>
        <time>2022-06-19T09:35:29Z</time>
      </trkpt>
      <trkpt lat="42.8094430" lon="-8.6269750">
        <ele>58.6</ele>
        <time>2022-06-19T09:35:30Z</time>
      </trkpt>
      <trkpt lat="42.8094160" lon="-8.6268780">
        <ele>58.6</ele>
        <time>2022-06-19T09:35:31Z</time>
      </trkpt>
      <trkpt lat="42.8093960" lon="-8.6267750">
        <ele>58.6</ele>
        <time>2022-06-19T09:35:32Z</time>
      </trkpt>
      <trkpt lat="42.8093810" lon="-8.6266780">
        <ele>59.0</ele>
        <time>2022-06-19T09:35:33Z</time>
      </trkpt>
      <trkpt lat="42.8093730" lon="-8.6265860">
        <ele>59.0</ele>
        <time>2022-06-19T09:35:34Z</time>
      </trkpt>
      <trkpt lat="42.8093660" lon="-8.6264980">
        <ele>59.0</ele>
        <time>2022-06-19T09:35:35Z</time>
      </trkpt>
      <trkpt lat="42.8093660" lon="-8.6264110">
        <ele>59.0</ele>
        <time>2022-06-19T09:35:36Z</time>
      </trkpt>
      <trkpt lat="42.8093710" lon="-8.6263300">
        <ele>59.0</ele>
        <time>2022-06-19T09:35:37Z</time>
      </trkpt>
      <trkpt lat="42.8093800" lon="-8.6262500">
        <ele>59.0</ele>
        <time>2022-06-19T09:35:38Z</time>
      </trkpt>
      <trkpt lat="42.8093900" lon="-8.6261750">
        <ele>59.0</ele>
        <time>2022-06-19T09:35:39Z</time>
      </trkpt>
      <trkpt lat="42.8094050" lon="-8.6260950">
        <ele>59.2</ele>
        <time>2022-06-19T09:35:40Z</time>
      </trkpt>
      <trkpt lat="42.8094250" lon="-8.6260200">
        <ele>59.8</ele>
        <time>2022-06-19T09:35:41Z</time>
      </trkpt>
      <trkpt lat="42.8094450" lon="-8.6259500">
        <ele>59.8</ele>
        <time>2022-06-19T09:35:42Z</time>
      </trkpt>
      <trkpt lat="42.8094650" lon="-8.6258780">
        <ele>59.8</ele>
        <time>2022-06-19T09:35:43Z</time>
      </trkpt>
      <trkpt lat="42.8094860" lon="-8.6258080">
        <ele>59.2</ele>
        <time>2022-06-19T09:35:44Z</time>
      </trkpt>
      <trkpt lat="42.8095110" lon="-8.6257480">
        <ele>59.8</ele>
        <time>2022-06-19T09:35:45Z</time>
      </trkpt>
      <trkpt lat="42.8095350" lon="-8.6256850">
        <ele>59.8</ele>
        <time>2022-06-19T09:35:46Z</time>
      </trkpt>
      <trkpt lat="42.8095580" lon="-8.6256260">
        <ele>59.8</ele>
        <time>2022-06-19T09:35:47Z</time>
      </trkpt>
      <trkpt lat="42.8095800" lon="-8.6255710">
        <ele>59.8</ele>
        <time>2022-06-19T09:35:48Z</time>
      </trkpt>
      <trkpt lat="42.8096010" lon="-8.6255210">
        <ele>60.0</ele>
        <time>2022-06-19T09:35:49Z</time>
      </trkpt>
      <trkpt lat="42.8096200" lon="-8.6254730">
        <ele>60.0</ele>
        <time>2022-06-19T09:35:50Z</time>
      </trkpt>
      <trkpt lat="42.8096380" lon="-8.6254260">
        <ele>60.0</ele>
        <time>2022-06-19T09:35:51Z</time>
      </trkpt>
      <trkpt lat="42.8096550" lon="-8.6253830">
        <ele>60.6</ele>
        <time>2022-06-19T09:35:52Z</time>
      </trkpt>
      <trkpt lat="42.8096700" lon="-8.6253400">
        <ele>60.6</ele>
        <time>2022-06-19T09:35:53Z</time>
      </trkpt>
      <trkpt lat="42.8096810" lon="-8.6252900">
        <ele>60.6</ele>
        <time>2022-06-19T09:35:54Z</time>
      </trkpt>
      <trkpt lat="42.8096980" lon="-8.6252380">
        <ele>60.6</ele>
        <time>2022-06-19T09:35:55Z</time>
      </trkpt>
      <trkpt lat="42.8097200" lon="-8.6251950">
        <ele>60.6</ele>
        <time>2022-06-19T09:35:56Z</time>
      </trkpt>
      <trkpt lat="42.8097380" lon="-8.6251510">
        <ele>60.6</ele>
        <time>2022-06-19T09:35:57Z</time>
      </trkpt>
      <trkpt lat="42.8097610" lon="-8.6251060">
        <ele>60.6</ele>
        <time>2022-06-19T09:35:58Z</time>
      </trkpt>
      <trkpt lat="42.8097800" lon="-8.6250580">
        <ele>60.6</ele>
        <time>2022-06-19T09:35:59Z</time>
      </trkpt>
      <trkpt lat="42.8097960" lon="-8.6250100">
        <ele>60.6</ele>
        <time>2022-06-19T09:36:00Z</time>
      </trkpt>
      <trkpt lat="42.8098130" lon="-8.6249650">
        <ele>62.2</ele>
        <time>2022-06-19T09:36:01Z</time>
      </trkpt>
      <trkpt lat="42.8098300" lon="-8.6249260">
        <ele>62.2</ele>
        <time>2022-06-19T09:36:02Z</time>
      </trkpt>
      <trkpt lat="42.8098480" lon="-8.6248880">
        <ele>62.2</ele>
        <time>2022-06-19T09:36:03Z</time>
      </trkpt>
      <trkpt lat="42.8098650" lon="-8.6248530">
        <ele>62.2</ele>
        <time>2022-06-19T09:36:04Z</time>
      </trkpt>
      <trkpt lat="42.8098830" lon="-8.6248180">
        <ele>62.8</ele>
        <time>2022-06-19T09:36:05Z</time>
      </trkpt>
      <trkpt lat="42.8099010" lon="-8.6247830">
        <ele>62.8</ele>
        <time>2022-06-19T09:36:06Z</time>
      </trkpt>
      <trkpt lat="42.8099200" lon="-8.6247510">
        <ele>62.8</ele>
        <time>2022-06-19T09:36:07Z</time>
      </trkpt>
      <trkpt lat="42.8099380" lon="-8.6247200">
        <ele>62.8</ele>
        <time>2022-06-19T09:36:08Z</time>
      </trkpt>
      <trkpt lat="42.8099600" lon="-8.6246880">
        <ele>63.4</ele>
        <time>2022-06-19T09:36:09Z</time>
      </trkpt>
      <trkpt lat="42.8099800" lon="-8.6246600">
        <ele>63.4</ele>
        <time>2022-06-19T09:36:10Z</time>
      </trkpt>
      <trkpt lat="42.8100030" lon="-8.6246300">
        <ele>63.4</ele>
        <time>2022-06-19T09:36:11Z</time>
      </trkpt>
      <trkpt lat="42.8100260" lon="-8.6246010">
        <ele>63.4</ele>
        <time>2022-06-19T09:36:12Z</time>
      </trkpt>
      <trkpt lat="42.8100480" lon="-8.6245750">
        <ele>63.8</ele>
        <time>2022-06-19T09:36:13Z</time>
      </trkpt>
      <trkpt lat="42.8100710" lon="-8.6245480">
        <ele>63.8</ele>
        <time>2022-06-19T09:36:14Z</time>
      </trkpt>
      <trkpt lat="42.8100930" lon="-8.6245200">
        <ele>63.8</ele>
        <time>2022-06-19T09:36:15Z</time>
      </trkpt>
      <trkpt lat="42.8101110" lon="-8.6244900">
        <ele>64.6</ele>
        <time>2022-06-19T09:36:16Z</time>
      </trkpt>
      <trkpt lat="42.8101300" lon="-8.6244630">
        <ele>64.8</ele>
        <time>2022-06-19T09:36:17Z</time>
      </trkpt>
      <trkpt lat="42.8101480" lon="-8.6244360">
        <ele>64.8</ele>
        <time>2022-06-19T09:36:18Z</time>
      </trkpt>
      <trkpt lat="42.8101650" lon="-8.6244100">
        <ele>64.8</ele>
        <time>2022-06-19T09:36:19Z</time>
      </trkpt>
      <trkpt lat="42.8101850" lon="-8.6243880">
        <ele>65.8</ele>
        <time>2022-06-19T09:36:20Z</time>
      </trkpt>
      <trkpt lat="42.8102050" lon="-8.6243710">
        <ele>65.4</ele>
        <time>2022-06-19T09:36:21Z</time>
      </trkpt>
      <trkpt lat="42.8102280" lon="-8.6243560">
        <ele>65.4</ele>
        <time>2022-06-19T09:36:22Z</time>
      </trkpt>
      <trkpt lat="42.8102560" lon="-8.6243360">
        <ele>65.4</ele>
        <time>2022-06-19T09:36:23Z</time>
      </trkpt>
      <trkpt lat="42.8102900" lon="-8.6243230">
        <ele>65.4</ele>
        <time>2022-06-19T09:36:24Z</time>
      </trkpt>
      <trkpt lat="42.8103300" lon="-8.6242980">
        <ele>62.6</ele>
        <time>2022-06-19T09:36:25Z</time>
      </trkpt>
      <trkpt lat="42.8103810" lon="-8.6242650">
        <ele>62.6</ele>
        <time>2022-06-19T09:36:26Z</time>
      </trkpt>
      <trkpt lat="42.8104430" lon="-8.6242260">
        <ele>62.6</ele>
        <time>2022-06-19T09:36:27Z</time>
      </trkpt>
      <trkpt lat="42.8105060" lon="-8.6241860">
        <ele>61.8</ele>
        <time>2022-06-19T09:36:28Z</time>
      </trkpt>
      <trkpt lat="42.8105750" lon="-8.6241500">
        <ele>61.6</ele>
        <time>2022-06-19T09:36:29Z</time>
      </trkpt>
      <trkpt lat="42.8106400" lon="-8.6241100">
        <ele>61.6</ele>
        <time>2022-06-19T09:36:30Z</time>
      </trkpt>
      <trkpt lat="42.8107050" lon="-8.6240730">
        <ele>61.6</ele>
        <time>2022-06-19T09:36:31Z</time>
      </trkpt>
      <trkpt lat="42.8107660" lon="-8.6240380">
        <ele>60.8</ele>
        <time>2022-06-19T09:36:32Z</time>
      </trkpt>
      <trkpt lat="42.8108300" lon="-8.6240050">
        <ele>60.4</ele>
        <time>2022-06-19T09:36:33Z</time>
      </trkpt>
      <trkpt lat="42.8108880" lon="-8.6239650">
        <ele>60.4</ele>
        <time>2022-06-19T09:36:34Z</time>
      </trkpt>
      <trkpt lat="42.8109430" lon="-8.6239280">
        <ele>60.4</ele>
        <time>2022-06-19T09:36:35Z</time>
      </trkpt>
      <trkpt lat="42.8109960" lon="-8.6238930">
        <ele>61.2</ele>
        <time>2022-06-19T09:36:36Z</time>
      </trkpt>
      <trkpt lat="42.8110410" lon="-8.6238630">
        <ele>61.2</ele>
        <time>2022-06-19T09:36:37Z</time>
      </trkpt>
      <trkpt lat="42.8110850" lon="-8.6238350">
        <ele>61.2</ele>
        <time>2022-06-19T09:36:38Z</time>
      </trkpt>
      <trkpt lat="42.8111200" lon="-8.6238150">
        <ele>61.2</ele>
        <time>2022-06-19T09:36:39Z</time>
      </trkpt>
      <trkpt lat="42.8111560" lon="-8.6237930">
        <ele>62.2</ele>
        <time>2022-06-19T09:36:40Z</time>
      </trkpt>
      <trkpt lat="42.8111880" lon="-8.6237680">
        <ele>63.0</ele>
        <time>2022-06-19T09:36:41Z</time>
      </trkpt>
      <trkpt lat="42.8112180" lon="-8.6237450">
        <ele>63.0</ele>
        <time>2022-06-19T09:36:42Z</time>
      </trkpt>
      <trkpt lat="42.8112450" lon="-8.6237260">
        <ele>63.0</ele>
        <time>2022-06-19T09:36:43Z</time>
      </trkpt>
      <trkpt lat="42.8112680" lon="-8.6237100">
        <ele>64.0</ele>
        <time>2022-06-19T09:36:44Z</time>
      </trkpt>
      <trkpt lat="42.8112850" lon="-8.6236950">
        <ele>65.0</ele>
        <time>2022-06-19T09:36:45Z</time>
      </trkpt>
      <trkpt lat="42.8113060" lon="-8.6236810">
        <ele>65.0</ele>
        <time>2022-06-19T09:36:46Z</time>
      </trkpt>
      <trkpt lat="42.8113250" lon="-8.6236660">
        <ele>65.0</ele>
        <time>2022-06-19T09:36:47Z</time>
      </trkpt>
      <trkpt lat="42.8113380" lon="-8.6236510">
        <ele>65.0</ele>
        <time>2022-06-19T09:36:48Z</time>
      </trkpt>
      <trkpt lat="42.8113530" lon="-8.6236310">
        <ele>65.8</ele>
        <time>2022-06-19T09:36:49Z</time>
      </trkpt>
      <trkpt lat="42.8113660" lon="-8.6236100">
        <ele>65.8</ele>
        <time>2022-06-19T09:36:50Z</time>
      </trkpt>
      <trkpt lat="42.8113710" lon="-8.6235950">
        <ele>65.8</ele>
        <time>2022-06-19T09:36:51Z</time>
      </trkpt>
      <trkpt lat="42.8113810" lon="-8.6235760">
        <ele>65.8</ele>
        <time>2022-06-19T09:36:52Z</time>
      </trkpt>
      <trkpt lat="42.8113980" lon="-8.6235630">
        <ele>67.2</ele>
        <time>2022-06-19T09:36:53Z</time>
      </trkpt>
      <trkpt lat="42.8114150" lon="-8.6235450">
        <ele>67.2</ele>
        <time>2022-06-19T09:36:54Z</time>
      </trkpt>
      <trkpt lat="42.8114330" lon="-8.6235310">
        <ele>67.2</ele>
        <time>2022-06-19T09:36:55Z</time>
      </trkpt>
      <trkpt lat="42.8114450" lon="-8.6235180">
        <ele>67.8</ele>
        <time>2022-06-19T09:36:56Z</time>
      </trkpt>
      <trkpt lat="42.8114580" lon="-8.6235010">
        <ele>68.0</ele>
        <time>2022-06-19T09:36:57Z</time>
      </trkpt>
      <trkpt lat="42.8114680" lon="-8.6234850">
        <ele>68.0</ele>
        <time>2022-06-19T09:36:58Z</time>
      </trkpt>
      <trkpt lat="42.8114760" lon="-8.6234660">
        <ele>68.0</ele>
        <time>2022-06-19T09:36:59Z</time>
      </trkpt>
      <trkpt lat="42.8114810" lon="-8.6234430">
        <ele>68.6</ele>
        <time>2022-06-19T09:37:00Z</time>
      </trkpt>
      <trkpt lat="42.8114860" lon="-8.6234160">
        <ele>69.0</ele>
        <time>2022-06-19T09:37:01Z</time>
      </trkpt>
      <trkpt lat="42.8114910" lon="-8.6233950">
        <ele>69.0</ele>
        <time>2022-06-19T09:37:02Z</time>
      </trkpt>
      <trkpt lat="42.8114960" lon="-8.6233730">
        <ele>69.0</ele>
        <time>2022-06-19T09:37:03Z</time>
      </trkpt>
      <trkpt lat="42.8115000" lon="-8.6233510">
        <ele>69.6</ele>
        <time>2022-06-19T09:37:04Z</time>
      </trkpt>
      <trkpt lat="42.8115030" lon="-8.6233280">
        <ele>69.6</ele>
        <time>2022-06-19T09:37:05Z</time>
      </trkpt>
      <trkpt lat="42.8115060" lon="-8.6233030">
        <ele>69.6</ele>
        <time>2022-06-19T09:37:06Z</time>
      </trkpt>
      <trkpt lat="42.8115130" lon="-8.6232810">
        <ele>69.6</ele>
        <time>2022-06-19T09:37:07Z</time>
      </trkpt>
      <trkpt lat="42.8115160" lon="-8.6232610">
        <ele>70.2</ele>
        <time>2022-06-19T09:37:08Z</time>
      </trkpt>
      <trkpt lat="42.8115230" lon="-8.6232400">
        <ele>70.4</ele>
        <time>2022-06-19T09:37:09Z</time>
      </trkpt>
      <trkpt lat="42.8115330" lon="-8.6232200">
        <ele>70.4</ele>
        <time>2022-06-19T09:37:10Z</time>
      </trkpt>
      <trkpt lat="42.8115360" lon="-8.6231980">
        <ele>70.4</ele>
        <time>2022-06-19T09:37:11Z</time>
      </trkpt>
      <trkpt lat="42.8115430" lon="-8.6231830">
        <ele>70.4</ele>
        <time>2022-06-19T09:37:12Z</time>
      </trkpt>
      <trkpt lat="42.8115500" lon="-8.6231710">
        <ele>71.4</ele>
        <time>2022-06-19T09:37:13Z</time>
      </trkpt>
      <trkpt lat="42.8115550" lon="-8.6231610">
        <ele>71.4</ele>
        <time>2022-06-19T09:37:14Z</time>
      </trkpt>
      <trkpt lat="42.8115650" lon="-8.6231480">
        <ele>71.4</ele>
        <time>2022-06-19T09:37:15Z</time>
      </trkpt>
      <trkpt lat="42.8115730" lon="-8.6231400">
        <ele>71.4</ele>
        <time>2022-06-19T09:37:16Z</time>
      </trkpt>
      <trkpt lat="42.8115810" lon="-8.6231260">
        <ele>72.0</ele>
        <time>2022-06-19T09:37:17Z</time>
      </trkpt>
      <trkpt lat="42.8115930" lon="-8.6231130">
        <ele>72.0</ele>
        <time>2022-06-19T09:37:18Z</time>
      </trkpt>
      <trkpt lat="42.8116060" lon="-8.6230980">
        <ele>72.0</ele>
        <time>2022-06-19T09:37:19Z</time>
      </trkpt>
      <trkpt lat="42.8116150" lon="-8.6230750">
        <ele>72.0</ele>
        <time>2022-06-19T09:37:20Z</time>
      </trkpt>
      <trkpt lat="42.8116230" lon="-8.6230600">
        <ele>73.0</ele>
        <time>2022-06-19T09:37:21Z</time>
      </trkpt>
      <trkpt lat="42.8116330" lon="-8.6230480">
        <ele>73.0</ele>
        <time>2022-06-19T09:37:22Z</time>
      </trkpt>
      <trkpt lat="42.8116500" lon="-8.6230310">
        <ele>73.0</ele>
        <time>2022-06-19T09:37:23Z</time>
      </trkpt>
      <trkpt lat="42.8116650" lon="-8.6230210">
        <ele>73.8</ele>
        <time>2022-06-19T09:37:24Z</time>
      </trkpt>
      <trkpt lat="42.8116780" lon="-8.6230030">
        <ele>74.0</ele>
        <time>2022-06-19T09:37:25Z</time>
      </trkpt>
      <trkpt lat="42.8116930" lon="-8.6229850">
        <ele>74.0</ele>
        <time>2022-06-19T09:37:26Z</time>
      </trkpt>
      <trkpt lat="42.8117030" lon="-8.6229700">
        <ele>74.0</ele>
        <time>2022-06-19T09:37:27Z</time>
      </trkpt>
      <trkpt lat="42.8117130" lon="-8.6229500">
        <ele>74.6</ele>
        <time>2022-06-19T09:37:28Z</time>
      </trkpt>
      <trkpt lat="42.8117230" lon="-8.6229360">
        <ele>74.6</ele>
        <time>2022-06-19T09:37:29Z</time>
      </trkpt>
      <trkpt lat="42.8117350" lon="-8.6229130">
        <ele>74.6</ele>
        <time>2022-06-19T09:37:30Z</time>
      </trkpt>
      <trkpt lat="42.8117450" lon="-8.6228900">
        <ele>74.6</ele>
        <time>2022-06-19T09:37:31Z</time>
      </trkpt>
      <trkpt lat="42.8117560" lon="-8.6228710">
        <ele>75.0</ele>
        <time>2022-06-19T09:37:32Z</time>
      </trkpt>
      <trkpt lat="42.8117680" lon="-8.6228500">
        <ele>75.2</ele>
        <time>2022-06-19T09:37:33Z</time>
      </trkpt>
      <trkpt lat="42.8117780" lon="-8.6228310">
        <ele>75.2</ele>
        <time>2022-06-19T09:37:34Z</time>
      </trkpt>
      <trkpt lat="42.8117880" lon="-8.6228130">
        <ele>75.2</ele>
        <time>2022-06-19T09:37:35Z</time>
      </trkpt>
      <trkpt lat="42.8117980" lon="-8.6227960">
        <ele>76.0</ele>
        <time>2022-06-19T09:37:36Z</time>
      </trkpt>
      <trkpt lat="42.8118080" lon="-8.6227800">
        <ele>75.6</ele>
        <time>2022-06-19T09:37:37Z</time>
      </trkpt>
      <trkpt lat="42.8118230" lon="-8.6227660">
        <ele>75.6</ele>
        <time>2022-06-19T09:37:38Z</time>
      </trkpt>
      <trkpt lat="42.8118350" lon="-8.6227510">
        <ele>75.6</ele>
        <time>2022-06-19T09:37:39Z</time>
      </trkpt>
      <trkpt lat="42.8118480" lon="-8.6227360">
        <ele>76.4</ele>
        <time>2022-06-19T09:37:40Z</time>
      </trkpt>
      <trkpt lat="42.8118610" lon="-8.6227210">
        <ele>76.6</ele>
        <time>2022-06-19T09:37:41Z</time>
      </trkpt>
      <trkpt lat="42.8118730" lon="-8.6227080">
        <ele>76.6</ele>
        <time>2022-06-19T09:37:42Z</time>
      </trkpt>
      <trkpt lat="42.8118880" lon="-8.6227000">
        <ele>76.6</ele>
        <time>2022-06-19T09:37:43Z</time>
      </trkpt>
      <trkpt lat="42.8119010" lon="-8.6226860">
        <ele>76.6</ele>
        <time>2022-06-19T09:37:44Z</time>
      </trkpt>
      <trkpt lat="42.8119150" lon="-8.6226760">
        <ele>77.2</ele>
        <time>2022-06-19T09:37:45Z</time>
      </trkpt>
      <trkpt lat="42.8119300" lon="-8.6226680">
        <ele>77.2</ele>
        <time>2022-06-19T09:37:46Z</time>
      </trkpt>
      <trkpt lat="42.8119450" lon="-8.6226600">
        <ele>77.2</ele>
        <time>2022-06-19T09:37:47Z</time>
      </trkpt>
      <trkpt lat="42.8119600" lon="-8.6226550">
        <ele>77.2</ele>
        <time>2022-06-19T09:37:48Z</time>
      </trkpt>
      <trkpt lat="42.8119750" lon="-8.6226460">
        <ele>78.4</ele>
        <time>2022-06-19T09:37:49Z</time>
      </trkpt>
      <trkpt lat="42.8119900" lon="-8.6226380">
        <ele>78.4</ele>
        <time>2022-06-19T09:37:50Z</time>
      </trkpt>
      <trkpt lat="42.8120030" lon="-8.6226310">
        <ele>78.4</ele>
        <time>2022-06-19T09:37:51Z</time>
      </trkpt>
      <trkpt lat="42.8120160" lon="-8.6226230">
        <ele>78.4</ele>
        <time>2022-06-19T09:37:52Z</time>
      </trkpt>
      <trkpt lat="42.8120300" lon="-8.6226160">
        <ele>79.2</ele>
        <time>2022-06-19T09:37:53Z</time>
      </trkpt>
      <trkpt lat="42.8120450" lon="-8.6226080">
        <ele>79.2</ele>
        <time>2022-06-19T09:37:54Z</time>
      </trkpt>
      <trkpt lat="42.8120600" lon="-8.6226000">
        <ele>79.2</ele>
        <time>2022-06-19T09:37:55Z</time>
      </trkpt>
      <trkpt lat="42.8120750" lon="-8.6225900">
        <ele>79.8</ele>
        <time>2022-06-19T09:37:56Z</time>
      </trkpt>
      <trkpt lat="42.8120880" lon="-8.6225810">
        <ele>80.0</ele>
        <time>2022-06-19T09:37:57Z</time>
      </trkpt>
      <trkpt lat="42.8121030" lon="-8.6225750">
        <ele>80.0</ele>
        <time>2022-06-19T09:37:58Z</time>
      </trkpt>
      <trkpt lat="42.8121150" lon="-8.6225650">
        <ele>80.0</ele>
        <time>2022-06-19T09:37:59Z</time>
      </trkpt>
      <trkpt lat="42.8121260" lon="-8.6225550">
        <ele>80.8</ele>
        <time>2022-06-19T09:38:00Z</time>
      </trkpt>
      <trkpt lat="42.8121410" lon="-8.6225480">
        <ele>81.0</ele>
        <time>2022-06-19T09:38:01Z</time>
      </trkpt>
      <trkpt lat="42.8121560" lon="-8.6225410">
        <ele>81.0</ele>
        <time>2022-06-19T09:38:02Z</time>
      </trkpt>
      <trkpt lat="42.8121710" lon="-8.6225330">
        <ele>81.0</ele>
        <time>2022-06-19T09:38:03Z</time>
      </trkpt>
      <trkpt lat="42.8121850" lon="-8.6225300">
        <ele>81.6</ele>
        <time>2022-06-19T09:38:04Z</time>
      </trkpt>
      <trkpt lat="42.8122000" lon="-8.6225280">
        <ele>81.4</ele>
        <time>2022-06-19T09:38:05Z</time>
      </trkpt>
      <trkpt lat="42.8122150" lon="-8.6225280">
        <ele>81.4</ele>
        <time>2022-06-19T09:38:06Z</time>
      </trkpt>
      <trkpt lat="42.8122300" lon="-8.6225260">
        <ele>81.4</ele>
        <time>2022-06-19T09:38:07Z</time>
      </trkpt>
      <trkpt lat="42.8122430" lon="-8.6225230">
        <ele>82.4</ele>
        <time>2022-06-19T09:38:08Z</time>
      </trkpt>
      <trkpt lat="42.8122600" lon="-8.6225210">
        <ele>82.8</ele>
        <time>2022-06-19T09:38:09Z</time>
      </trkpt>
      <trkpt lat="42.8122750" lon="-8.6225200">
        <ele>82.8</ele>
        <time>2022-06-19T09:38:10Z</time>
      </trkpt>
      <trkpt lat="42.8122880" lon="-8.6225180">
        <ele>82.8</ele>
        <time>2022-06-19T09:38:11Z</time>
      </trkpt>
      <trkpt lat="42.8123060" lon="-8.6225160">
        <ele>82.8</ele>
        <time>2022-06-19T09:38:12Z</time>
      </trkpt>
      <trkpt lat="42.8123230" lon="-8.6225130">
        <ele>83.0</ele>
        <time>2022-06-19T09:38:13Z</time>
      </trkpt>
      <trkpt lat="42.8123400" lon="-8.6225080">
        <ele>83.0</ele>
        <time>2022-06-19T09:38:14Z</time>
      </trkpt>
      <trkpt lat="42.8123550" lon="-8.6225050">
        <ele>83.0</ele>
        <time>2022-06-19T09:38:15Z</time>
      </trkpt>
      <trkpt lat="42.8123730" lon="-8.6225030">
        <ele>83.4</ele>
        <time>2022-06-19T09:38:16Z</time>
      </trkpt>
      <trkpt lat="42.8123910" lon="-8.6225030">
        <ele>83.6</ele>
        <time>2022-06-19T09:38:17Z</time>
      </trkpt>
      <trkpt lat="42.8124100" lon="-8.6225050">
        <ele>83.6</ele>
        <time>2022-06-19T09:38:18Z</time>
      </trkpt>
      <trkpt lat="42.8124260" lon="-8.6225030">
        <ele>83.6</ele>
        <time>2022-06-19T09:38:19Z</time>
      </trkpt>
      <trkpt lat="42.8124430" lon="-8.6224910">
        <ele>83.6</ele>
        <time>2022-06-19T09:38:20Z</time>
      </trkpt>
      <trkpt lat="42.8124600" lon="-8.6224710">
        <ele>83.4</ele>
        <time>2022-06-19T09:38:21Z</time>
      </trkpt>
      <trkpt lat="42.8124760" lon="-8.6224530">
        <ele>83.4</ele>
        <time>2022-06-19T09:38:22Z</time>
      </trkpt>
      <trkpt lat="42.8124960" lon="-8.6224360">
        <ele>83.4</ele>
        <time>2022-06-19T09:38:23Z</time>
      </trkpt>
      <trkpt lat="42.8125160" lon="-8.6224210">
        <ele>83.8</ele>
        <time>2022-06-19T09:38:24Z</time>
      </trkpt>
      <trkpt lat="42.8125380" lon="-8.6224060">
        <ele>84.2</ele>
        <time>2022-06-19T09:38:25Z</time>
      </trkpt>
      <trkpt lat="42.8125560" lon="-8.6223900">
        <ele>84.2</ele>
        <time>2022-06-19T09:38:26Z</time>
      </trkpt>
      <trkpt lat="42.8125780" lon="-8.6223760">
        <ele>84.2</ele>
        <time>2022-06-19T09:38:27Z</time>
      </trkpt>
      <trkpt lat="42.8126030" lon="-8.6223610">
        <ele>84.2</ele>
        <time>2022-06-19T09:38:28Z</time>
      </trkpt>
      <trkpt lat="42.8126280" lon="-8.6223450">
        <ele>83.6</ele>
        <time>2022-06-19T09:38:29Z</time>
      </trkpt>
      <trkpt lat="42.8126530" lon="-8.6223260">
        <ele>83.6</ele>
        <time>2022-06-19T09:38:30Z</time>
      </trkpt>
      <trkpt lat="42.8126760" lon="-8.6223110">
        <ele>83.6</ele>
        <time>2022-06-19T09:38:31Z</time>
      </trkpt>
      <trkpt lat="42.8126980" lon="-8.6223000">
        <ele>83.6</ele>
        <time>2022-06-19T09:38:32Z</time>
      </trkpt>
      <trkpt lat="42.8127210" lon="-8.6222910">
        <ele>83.6</ele>
        <time>2022-06-19T09:38:33Z</time>
      </trkpt>
      <trkpt lat="42.8127430" lon="-8.6222760">
        <ele>83.6</ele>
        <time>2022-06-19T09:38:34Z</time>
      </trkpt>
      <trkpt lat="42.8127630" lon="-8.6222530">
        <ele>83.6</ele>
        <time>2022-06-19T09:38:35Z</time>
      </trkpt>
      <trkpt lat="42.8127830" lon="-8.6222350">
        <ele>83.6</ele>
        <time>2022-06-19T09:38:36Z</time>
      </trkpt>
      <trkpt lat="42.8128030" lon="-8.6222210">
        <ele>84.0</ele>
        <time>2022-06-19T09:38:37Z</time>
      </trkpt>
      <trkpt lat="42.8128250" lon="-8.6222050">
        <ele>84.0</ele>
        <time>2022-06-19T09:38:38Z</time>
      </trkpt>
      <trkpt lat="42.8128430" lon="-8.6221880">
        <ele>84.0</ele>
        <time>2022-06-19T09:38:39Z</time>
      </trkpt>
      <trkpt lat="42.8128610" lon="-8.6221760">
        <ele>84.0</ele>
        <time>2022-06-19T09:38:40Z</time>
      </trkpt>
      <trkpt lat="42.8128830" lon="-8.6221660">
        <ele>83.8</ele>
        <time>2022-06-19T09:38:41Z</time>
      </trkpt>
      <trkpt lat="42.8129050" lon="-8.6221550">
        <ele>83.8</ele>
        <time>2022-06-19T09:38:42Z</time>
      </trkpt>
      <trkpt lat="42.8129280" lon="-8.6221430">
        <ele>83.8</ele>
        <time>2022-06-19T09:38:43Z</time>
      </trkpt>
      <trkpt lat="42.8129530" lon="-8.6221350">
        <ele>84.4</ele>
        <time>2022-06-19T09:38:44Z</time>
      </trkpt>
      <trkpt lat="42.8129780" lon="-8.6221250">
        <ele>84.4</ele>
        <time>2022-06-19T09:38:45Z</time>
      </trkpt>
      <trkpt lat="42.8130010" lon="-8.6221210">
        <ele>84.4</ele>
        <time>2022-06-19T09:38:46Z</time>
      </trkpt>
      <trkpt lat="42.8130230" lon="-8.6221150">
        <ele>84.4</ele>
        <time>2022-06-19T09:38:47Z</time>
      </trkpt>
      <trkpt lat="42.8130450" lon="-8.6221030">
        <ele>84.4</ele>
        <time>2022-06-19T09:38:48Z</time>
      </trkpt>
      <trkpt lat="42.8130650" lon="-8.6220830">
        <ele>84.4</ele>
        <time>2022-06-19T09:38:49Z</time>
      </trkpt>
      <trkpt lat="42.8130850" lon="-8.6220630">
        <ele>84.4</ele>
        <time>2022-06-19T09:38:50Z</time>
      </trkpt>
      <trkpt lat="42.8131050" lon="-8.6220380">
        <ele>84.4</ele>
        <time>2022-06-19T09:38:51Z</time>
      </trkpt>
      <trkpt lat="42.8131250" lon="-8.6220130">
        <ele>84.4</ele>
        <time>2022-06-19T09:38:52Z</time>
      </trkpt>
      <trkpt lat="42.8131480" lon="-8.6219900">
        <ele>85.2</ele>
        <time>2022-06-19T09:38:53Z</time>
      </trkpt>
      <trkpt lat="42.8131660" lon="-8.6219660">
        <ele>85.2</ele>
        <time>2022-06-19T09:38:54Z</time>
      </trkpt>
      <trkpt lat="42.8131880" lon="-8.6219410">
        <ele>85.2</ele>
        <time>2022-06-19T09:38:55Z</time>
      </trkpt>
      <trkpt lat="42.8132080" lon="-8.6219180">
        <ele>85.2</ele>
        <time>2022-06-19T09:38:56Z</time>
      </trkpt>
      <trkpt lat="42.8132280" lon="-8.6218960">
        <ele>84.4</ele>
        <time>2022-06-19T09:38:57Z</time>
      </trkpt>
      <trkpt lat="42.8132480" lon="-8.6218780">
        <ele>84.4</ele>
        <time>2022-06-19T09:38:58Z</time>
      </trkpt>
      <trkpt lat="42.8132700" lon="-8.6218580">
        <ele>84.4</ele>
        <time>2022-06-19T09:38:59Z</time>
      </trkpt>
      <trkpt lat="42.8132910" lon="-8.6218400">
        <ele>84.6</ele>
        <time>2022-06-19T09:39:00Z</time>
      </trkpt>
      <trkpt lat="42.8133130" lon="-8.6218250">
        <ele>85.4</ele>
        <time>2022-06-19T09:39:01Z</time>
      </trkpt>
      <trkpt lat="42.8133330" lon="-8.6218080">
        <ele>85.4</ele>
        <time>2022-06-19T09:39:02Z</time>
      </trkpt>
      <trkpt lat="42.8133510" lon="-8.6217910">
        <ele>85.4</ele>
        <time>2022-06-19T09:39:03Z</time>
      </trkpt>
      <trkpt lat="42.8133710" lon="-8.6217680">
        <ele>85.0</ele>
        <time>2022-06-19T09:39:04Z</time>
      </trkpt>
      <trkpt lat="42.8133880" lon="-8.6217410">
        <ele>85.4</ele>
        <time>2022-06-19T09:39:05Z</time>
      </trkpt>
      <trkpt lat="42.8134010" lon="-8.6217160">
        <ele>85.4</ele>
        <time>2022-06-19T09:39:06Z</time>
      </trkpt>
      <trkpt lat="42.8134160" lon="-8.6216930">
        <ele>85.4</ele>
        <time>2022-06-19T09:39:07Z</time>
      </trkpt>
      <trkpt lat="42.8134310" lon="-8.6216660">
        <ele>85.8</ele>
        <time>2022-06-19T09:39:08Z</time>
      </trkpt>
      <trkpt lat="42.8134450" lon="-8.6216410">
        <ele>85.6</ele>
        <time>2022-06-19T09:39:09Z</time>
      </trkpt>
      <trkpt lat="42.8134610" lon="-8.6216160">
        <ele>85.6</ele>
        <time>2022-06-19T09:39:10Z</time>
      </trkpt>
      <trkpt lat="42.8134760" lon="-8.6215910">
        <ele>85.6</ele>
        <time>2022-06-19T09:39:11Z</time>
      </trkpt>
      <trkpt lat="42.8134860" lon="-8.6215630">
        <ele>86.6</ele>
        <time>2022-06-19T09:39:12Z</time>
      </trkpt>
      <trkpt lat="42.8134950" lon="-8.6215350">
        <ele>86.6</ele>
        <time>2022-06-19T09:39:13Z</time>
      </trkpt>
      <trkpt lat="42.8135030" lon="-8.6215060">
        <ele>86.6</ele>
        <time>2022-06-19T09:39:14Z</time>
      </trkpt>
      <trkpt lat="42.8135130" lon="-8.6214780">
        <ele>86.6</ele>
        <time>2022-06-19T09:39:15Z</time>
      </trkpt>
      <trkpt lat="42.8135200" lon="-8.6214460">
        <ele>86.8</ele>
        <time>2022-06-19T09:39:16Z</time>
      </trkpt>
      <trkpt lat="42.8135300" lon="-8.6214150">
        <ele>87.0</ele>
        <time>2022-06-19T09:39:17Z</time>
      </trkpt>
      <trkpt lat="42.8135400" lon="-8.6213810">
        <ele>87.0</ele>
        <time>2022-06-19T09:39:18Z</time>
      </trkpt>
      <trkpt lat="42.8135510" lon="-8.6213530">
        <ele>87.0</ele>
        <time>2022-06-19T09:39:19Z</time>
      </trkpt>
      <trkpt lat="42.8135650" lon="-8.6213260">
        <ele>87.0</ele>
        <time>2022-06-19T09:39:20Z</time>
      </trkpt>
      <trkpt lat="42.8135780" lon="-8.6213000">
        <ele>87.6</ele>
        <time>2022-06-19T09:39:21Z</time>
      </trkpt>
      <trkpt lat="42.8135910" lon="-8.6212760">
        <ele>87.6</ele>
        <time>2022-06-19T09:39:22Z</time>
      </trkpt>
      <trkpt lat="42.8136010" lon="-8.6212500">
        <ele>87.6</ele>
        <time>2022-06-19T09:39:23Z</time>
      </trkpt>
      <trkpt lat="42.8136130" lon="-8.6212210">
        <ele>87.6</ele>
        <time>2022-06-19T09:39:24Z</time>
      </trkpt>
      <trkpt lat="42.8136230" lon="-8.6211930">
        <ele>88.0</ele>
        <time>2022-06-19T09:39:25Z</time>
      </trkpt>
      <trkpt lat="42.8136350" lon="-8.6211660">
        <ele>88.0</ele>
        <time>2022-06-19T09:39:26Z</time>
      </trkpt>
      <trkpt lat="42.8136460" lon="-8.6211410">
        <ele>88.0</ele>
        <time>2022-06-19T09:39:27Z</time>
      </trkpt>
      <trkpt lat="42.8136550" lon="-8.6211150">
        <ele>88.0</ele>
        <time>2022-06-19T09:39:28Z</time>
      </trkpt>
      <trkpt lat="42.8136610" lon="-8.6210860">
        <ele>88.2</ele>
        <time>2022-06-19T09:39:29Z</time>
      </trkpt>
      <trkpt lat="42.8136730" lon="-8.6210560">
        <ele>88.2</ele>
        <time>2022-06-19T09:39:30Z</time>
      </trkpt>
      <trkpt lat="42.8136860" lon="-8.6210280">
        <ele>88.2</ele>
        <time>2022-06-19T09:39:31Z</time>
      </trkpt>
      <trkpt lat="42.8136980" lon="-8.6210010">
        <ele>88.2</ele>
        <time>2022-06-19T09:39:32Z</time>
      </trkpt>
      <trkpt lat="42.8137110" lon="-8.6209750">
        <ele>89.0</ele>
        <time>2022-06-19T09:39:33Z</time>
      </trkpt>
      <trkpt lat="42.8137230" lon="-8.6209500">
        <ele>89.0</ele>
        <time>2022-06-19T09:39:34Z</time>
      </trkpt>
      <trkpt lat="42.8137350" lon="-8.6209230">
        <ele>89.0</ele>
        <time>2022-06-19T09:39:35Z</time>
      </trkpt>
      <trkpt lat="42.8137460" lon="-8.6208980">
        <ele>89.6</ele>
        <time>2022-06-19T09:39:36Z</time>
      </trkpt>
      <trkpt lat="42.8137580" lon="-8.6208700">
        <ele>89.8</ele>
        <time>2022-06-19T09:39:37Z</time>
      </trkpt>
      <trkpt lat="42.8137710" lon="-8.6208410">
        <ele>89.8</ele>
        <time>2022-06-19T09:39:38Z</time>
      </trkpt>
      <trkpt lat="42.8137850" lon="-8.6208150">
        <ele>89.8</ele>
        <time>2022-06-19T09:39:39Z</time>
      </trkpt>
      <trkpt lat="42.8137960" lon="-8.6207880">
        <ele>89.8</ele>
        <time>2022-06-19T09:39:40Z</time>
      </trkpt>
      <trkpt lat="42.8138060" lon="-8.6207650">
        <ele>90.8</ele>
        <time>2022-06-19T09:39:41Z</time>
      </trkpt>
      <trkpt lat="42.8138160" lon="-8.6207450">
        <ele>90.8</ele>
        <time>2022-06-19T09:39:42Z</time>
      </trkpt>
      <trkpt lat="42.8138260" lon="-8.6207210">
        <ele>90.8</ele>
        <time>2022-06-19T09:39:43Z</time>
      </trkpt>
      <trkpt lat="42.8138380" lon="-8.6206950">
        <ele>90.8</ele>
        <time>2022-06-19T09:39:44Z</time>
      </trkpt>
      <trkpt lat="42.8138480" lon="-8.6206710">
        <ele>91.8</ele>
        <time>2022-06-19T09:39:45Z</time>
      </trkpt>
      <trkpt lat="42.8138580" lon="-8.6206450">
        <ele>91.8</ele>
        <time>2022-06-19T09:39:46Z</time>
      </trkpt>
      <trkpt lat="42.8138680" lon="-8.6206200">
        <ele>91.8</ele>
        <time>2022-06-19T09:39:47Z</time>
      </trkpt>
      <trkpt lat="42.8138760" lon="-8.6205930">
        <ele>91.8</ele>
        <time>2022-06-19T09:39:48Z</time>
      </trkpt>
      <trkpt lat="42.8138830" lon="-8.6205700">
        <ele>92.6</ele>
        <time>2022-06-19T09:39:49Z</time>
      </trkpt>
      <trkpt lat="42.8138930" lon="-8.6205450">
        <ele>92.6</ele>
        <time>2022-06-19T09:39:50Z</time>
      </trkpt>
      <trkpt lat="42.8139010" lon="-8.6205210">
        <ele>92.6</ele>
        <time>2022-06-19T09:39:51Z</time>
      </trkpt>
      <trkpt lat="42.8139100" lon="-8.6204980">
        <ele>92.6</ele>
        <time>2022-06-19T09:39:52Z</time>
      </trkpt>
      <trkpt lat="42.8139200" lon="-8.6204730">
        <ele>93.2</ele>
        <time>2022-06-19T09:39:53Z</time>
      </trkpt>
      <trkpt lat="42.8139310" lon="-8.6204500">
        <ele>93.2</ele>
        <time>2022-06-19T09:39:54Z</time>
      </trkpt>
      <trkpt lat="42.8139410" lon="-8.6204280">
        <ele>93.2</ele>
        <time>2022-06-19T09:39:55Z</time>
      </trkpt>
      <trkpt lat="42.8139530" lon="-8.6204010">
        <ele>93.8</ele>
        <time>2022-06-19T09:39:56Z</time>
      </trkpt>
      <trkpt lat="42.8139630" lon="-8.6203780">
        <ele>94.4</ele>
        <time>2022-06-19T09:39:57Z</time>
      </trkpt>
      <trkpt lat="42.8139750" lon="-8.6203550">
        <ele>94.4</ele>
        <time>2022-06-19T09:39:58Z</time>
      </trkpt>
      <trkpt lat="42.8139860" lon="-8.6203310">
        <ele>94.4</ele>
        <time>2022-06-19T09:39:59Z</time>
      </trkpt>
      <trkpt lat="42.8140010" lon="-8.6203150">
        <ele>94.4</ele>
        <time>2022-06-19T09:40:00Z</time>
      </trkpt>
      <trkpt lat="42.8140180" lon="-8.6203000">
        <ele>95.6</ele>
        <time>2022-06-19T09:40:01Z</time>
      </trkpt>
      <trkpt lat="42.8140400" lon="-8.6202910">
        <ele>95.6</ele>
        <time>2022-06-19T09:40:02Z</time>
      </trkpt>
      <trkpt lat="42.8140600" lon="-8.6202910">
        <ele>95.6</ele>
        <time>2022-06-19T09:40:03Z</time>
      </trkpt>
      <trkpt lat="42.8140810" lon="-8.6202980">
        <ele>95.6</ele>
        <time>2022-06-19T09:40:04Z</time>
      </trkpt>
      <trkpt lat="42.8141010" lon="-8.6203080">
        <ele>95.6</ele>
        <time>2022-06-19T09:40:05Z</time>
      </trkpt>
      <trkpt lat="42.8141210" lon="-8.6203230">
        <ele>95.6</ele>
        <time>2022-06-19T09:40:06Z</time>
      </trkpt>
      <trkpt lat="42.8141410" lon="-8.6203350">
        <ele>95.6</ele>
        <time>2022-06-19T09:40:07Z</time>
      </trkpt>
      <trkpt lat="42.8141650" lon="-8.6203450">
        <ele>96.2</ele>
        <time>2022-06-19T09:40:08Z</time>
      </trkpt>
      <trkpt lat="42.8141850" lon="-8.6203510">
        <ele>96.4</ele>
        <time>2022-06-19T09:40:09Z</time>
      </trkpt>
      <trkpt lat="42.8142060" lon="-8.6203500">
        <ele>96.4</ele>
        <time>2022-06-19T09:40:10Z</time>
      </trkpt>
      <trkpt lat="42.8142260" lon="-8.6203480">
        <ele>96.4</ele>
        <time>2022-06-19T09:40:11Z</time>
      </trkpt>
      <trkpt lat="42.8142430" lon="-8.6203430">
        <ele>97.0</ele>
        <time>2022-06-19T09:40:12Z</time>
      </trkpt>
      <trkpt lat="42.8142600" lon="-8.6203330">
        <ele>97.2</ele>
        <time>2022-06-19T09:40:13Z</time>
      </trkpt>
      <trkpt lat="42.8142750" lon="-8.6203250">
        <ele>97.2</ele>
        <time>2022-06-19T09:40:14Z</time>
      </trkpt>
      <trkpt lat="42.8142910" lon="-8.6203130">
        <ele>97.2</ele>
        <time>2022-06-19T09:40:15Z</time>
      </trkpt>
      <trkpt lat="42.8143100" lon="-8.6202980">
        <ele>97.6</ele>
        <time>2022-06-19T09:40:16Z</time>
      </trkpt>
      <trkpt lat="42.8143280" lon="-8.6202830">
        <ele>98.4</ele>
        <time>2022-06-19T09:40:17Z</time>
      </trkpt>
      <trkpt lat="42.8143460" lon="-8.6202700">
        <ele>98.4</ele>
        <time>2022-06-19T09:40:18Z</time>
      </trkpt>
      <trkpt lat="42.8143630" lon="-8.6202550">
        <ele>98.4</ele>
        <time>2022-06-19T09:40:19Z</time>
      </trkpt>
      <trkpt lat="42.8143780" lon="-8.6202380">
        <ele>98.4</ele>
        <time>2022-06-19T09:40:20Z</time>
      </trkpt>
      <trkpt lat="42.8143930" lon="-8.6202210">
        <ele>98.0</ele>
        <time>2022-06-19T09:40:21Z</time>
      </trkpt>
      <trkpt lat="42.8144100" lon="-8.6202000">
        <ele>98.0</ele>
        <time>2022-06-19T09:40:22Z</time>
      </trkpt>
      <trkpt lat="42.8144260" lon="-8.6201800">
        <ele>98.0</ele>
        <time>2022-06-19T09:40:23Z</time>
      </trkpt>
      <trkpt lat="42.8144410" lon="-8.6201630">
        <ele>98.6</ele>
        <time>2022-06-19T09:40:24Z</time>
      </trkpt>
      <trkpt lat="42.8144560" lon="-8.6201460">
        <ele>98.8</ele>
        <time>2022-06-19T09:40:25Z</time>
      </trkpt>
      <trkpt lat="42.8144710" lon="-8.6201260">
        <ele>98.8</ele>
        <time>2022-06-19T09:40:26Z</time>
      </trkpt>
      <trkpt lat="42.8144830" lon="-8.6201050">
        <ele>98.8</ele>
        <time>2022-06-19T09:40:27Z</time>
      </trkpt>
      <trkpt lat="42.8144930" lon="-8.6200780">
        <ele>99.4</ele>
        <time>2022-06-19T09:40:28Z</time>
      </trkpt>
      <trkpt lat="42.8145030" lon="-8.6200510">
        <ele>99.0</ele>
        <time>2022-06-19T09:40:29Z</time>
      </trkpt>
      <trkpt lat="42.8145130" lon="-8.6200260">
        <ele>99.0</ele>
        <time>2022-06-19T09:40:30Z</time>
      </trkpt>
      <trkpt lat="42.8145260" lon="-8.6200030">
        <ele>99.0</ele>
        <time>2022-06-19T09:40:31Z</time>
      </trkpt>
      <trkpt lat="42.8145410" lon="-8.6199800">
        <ele>99.0</ele>
        <time>2022-06-19T09:40:32Z</time>
      </trkpt>
      <trkpt lat="42.8145550" lon="-8.6199560">
        <ele>99.6</ele>
        <time>2022-06-19T09:40:33Z</time>
      </trkpt>
      <trkpt lat="42.8145700" lon="-8.6199360">
        <ele>99.6</ele>
        <time>2022-06-19T09:40:34Z</time>
      </trkpt>
      <trkpt lat="42.8145830" lon="-8.6199260">
        <ele>99.6</ele>
        <time>2022-06-19T09:40:35Z</time>
      </trkpt>
      <trkpt lat="42.8146000" lon="-8.6199210">
        <ele>99.6</ele>
        <time>2022-06-19T09:40:36Z</time>
      </trkpt>
      <trkpt lat="42.8146180" lon="-8.6199230">
        <ele>100.0</ele>
        <time>2022-06-19T09:40:37Z</time>
      </trkpt>
      <trkpt lat="42.8146350" lon="-8.6199410">
        <ele>100.0</ele>
        <time>2022-06-19T09:40:38Z</time>
      </trkpt>
      <trkpt lat="42.8146480" lon="-8.6199700">
        <ele>100.0</ele>
        <time>2022-06-19T09:40:39Z</time>
      </trkpt>
      <trkpt lat="42.8146580" lon="-8.6200000">
        <ele>99.6</ele>
        <time>2022-06-19T09:40:40Z</time>
      </trkpt>
      <trkpt lat="42.8146660" lon="-8.6200300">
        <ele>99.2</ele>
        <time>2022-06-19T09:40:41Z</time>
      </trkpt>
      <trkpt lat="42.8146730" lon="-8.6200610">
        <ele>99.2</ele>
        <time>2022-06-19T09:40:42Z</time>
      </trkpt>
      <trkpt lat="42.8146780" lon="-8.6200930">
        <ele>99.2</ele>
        <time>2022-06-19T09:40:43Z</time>
      </trkpt>
      <trkpt lat="42.8146800" lon="-8.6201250">
        <ele>99.8</ele>
        <time>2022-06-19T09:40:44Z</time>
      </trkpt>
      <trkpt lat="42.8146810" lon="-8.6201550">
        <ele>99.6</ele>
        <time>2022-06-19T09:40:45Z</time>
      </trkpt>
      <trkpt lat="42.8146810" lon="-8.6201850">
        <ele>99.6</ele>
        <time>2022-06-19T09:40:46Z</time>
      </trkpt>
      <trkpt lat="42.8146850" lon="-8.6202160">
        <ele>99.6</ele>
        <time>2022-06-19T09:40:47Z</time>
      </trkpt>
      <trkpt lat="42.8146880" lon="-8.6202500">
        <ele>99.6</ele>
        <time>2022-06-19T09:40:48Z</time>
      </trkpt>
      <trkpt lat="42.8146910" lon="-8.6202830">
        <ele>99.6</ele>
        <time>2022-06-19T09:40:49Z</time>
      </trkpt>
      <trkpt lat="42.8146960" lon="-8.6203180">
        <ele>99.6</ele>
        <time>2022-06-19T09:40:50Z</time>
      </trkpt>
      <trkpt lat="42.8147000" lon="-8.6203560">
        <ele>99.6</ele>
        <time>2022-06-19T09:40:51Z</time>
      </trkpt>
      <trkpt lat="42.8147030" lon="-8.6203930">
        <ele>99.6</ele>
        <time>2022-06-19T09:40:52Z</time>
      </trkpt>
      <trkpt lat="42.8147060" lon="-8.6204330">
        <ele>98.6</ele>
        <time>2022-06-19T09:40:53Z</time>
      </trkpt>
      <trkpt lat="42.8147150" lon="-8.6204760">
        <ele>98.6</ele>
        <time>2022-06-19T09:40:54Z</time>
      </trkpt>
      <trkpt lat="42.8147230" lon="-8.6205180">
        <ele>98.6</ele>
        <time>2022-06-19T09:40:55Z</time>
      </trkpt>
      <trkpt lat="42.8147300" lon="-8.6205660">
        <ele>97.6</ele>
        <time>2022-06-19T09:40:56Z</time>
      </trkpt>
      <trkpt lat="42.8147360" lon="-8.6206180">
        <ele>97.0</ele>
        <time>2022-06-19T09:40:57Z</time>
      </trkpt>
      <trkpt lat="42.8147400" lon="-8.6206710">
        <ele>97.0</ele>
        <time>2022-06-19T09:40:58Z</time>
      </trkpt>
      <trkpt lat="42.8147410" lon="-8.6207280">
        <ele>97.0</ele>
        <time>2022-06-19T09:40:59Z</time>
      </trkpt>
      <trkpt lat="42.8147450" lon="-8.6207880">
        <ele>96.6</ele>
        <time>2022-06-19T09:41:00Z</time>
      </trkpt>
      <trkpt lat="42.8147480" lon="-8.6208480">
        <ele>95.8</ele>
        <time>2022-06-19T09:41:01Z</time>
      </trkpt>
      <trkpt lat="42.8147530" lon="-8.6209110">
        <ele>95.8</ele>
        <time>2022-06-19T09:41:02Z</time>
      </trkpt>
      <trkpt lat="42.8147550" lon="-8.6209760">
        <ele>95.8</ele>
        <time>2022-06-19T09:41:03Z</time>
      </trkpt>
      <trkpt lat="42.8147580" lon="-8.6210460">
        <ele>94.8</ele>
        <time>2022-06-19T09:41:04Z</time>
      </trkpt>
      <trkpt lat="42.8147630" lon="-8.6211160">
        <ele>94.0</ele>
        <time>2022-06-19T09:41:05Z</time>
      </trkpt>
      <trkpt lat="42.8147660" lon="-8.6211830">
        <ele>94.0</ele>
        <time>2022-06-19T09:41:06Z</time>
      </trkpt>
      <trkpt lat="42.8147760" lon="-8.6212450">
        <ele>94.0</ele>
        <time>2022-06-19T09:41:07Z</time>
      </trkpt>
      <trkpt lat="42.8147900" lon="-8.6212980">
        <ele>93.6</ele>
        <time>2022-06-19T09:41:08Z</time>
      </trkpt>
      <trkpt lat="42.8148030" lon="-8.6213450">
        <ele>93.6</ele>
        <time>2022-06-19T09:41:09Z</time>
      </trkpt>
      <trkpt lat="42.8148250" lon="-8.6213910">
        <ele>93.6</ele>
        <time>2022-06-19T09:41:10Z</time>
      </trkpt>
      <trkpt lat="42.8148550" lon="-8.6214350">
        <ele>93.6</ele>
        <time>2022-06-19T09:41:11Z</time>
      </trkpt>
      <trkpt lat="42.8148900" lon="-8.6214810">
        <ele>93.4</ele>
        <time>2022-06-19T09:41:12Z</time>
      </trkpt>
      <trkpt lat="42.8149250" lon="-8.6215330">
        <ele>93.0</ele>
        <time>2022-06-19T09:41:13Z</time>
      </trkpt>
      <trkpt lat="42.8149600" lon="-8.6215800">
        <ele>93.0</ele>
        <time>2022-06-19T09:41:14Z</time>
      </trkpt>
      <trkpt lat="42.8150000" lon="-8.6216210">
        <ele>93.0</ele>
        <time>2022-06-19T09:41:15Z</time>
      </trkpt>
      <trkpt lat="42.8150430" lon="-8.6216610">
        <ele>93.2</ele>
        <time>2022-06-19T09:41:16Z</time>
      </trkpt>
      <trkpt lat="42.8150850" lon="-8.6216960">
        <ele>93.0</ele>
        <time>2022-06-19T09:41:17Z</time>
      </trkpt>
      <trkpt lat="42.8151230" lon="-8.6217250">
        <ele>93.0</ele>
        <time>2022-06-19T09:41:18Z</time>
      </trkpt>
      <trkpt lat="42.8151610" lon="-8.6217550">
        <ele>93.0</ele>
        <time>2022-06-19T09:41:19Z</time>
      </trkpt>
      <trkpt lat="42.8151980" lon="-8.6217810">
        <ele>93.0</ele>
        <time>2022-06-19T09:41:20Z</time>
      </trkpt>
      <trkpt lat="42.8152300" lon="-8.6218100">
        <ele>93.2</ele>
        <time>2022-06-19T09:41:21Z</time>
      </trkpt>
      <trkpt lat="42.8152560" lon="-8.6218380">
        <ele>93.2</ele>
        <time>2022-06-19T09:41:22Z</time>
      </trkpt>
      <trkpt lat="42.8152900" lon="-8.6218660">
        <ele>93.2</ele>
        <time>2022-06-19T09:41:23Z</time>
      </trkpt>
      <trkpt lat="42.8153250" lon="-8.6218930">
        <ele>93.2</ele>
        <time>2022-06-19T09:41:24Z</time>
      </trkpt>
      <trkpt lat="42.8153550" lon="-8.6219180">
        <ele>93.4</ele>
        <time>2022-06-19T09:41:25Z</time>
      </trkpt>
      <trkpt lat="42.8153830" lon="-8.6219580">
        <ele>93.4</ele>
        <time>2022-06-19T09:41:26Z</time>
      </trkpt>
      <trkpt lat="42.8154100" lon="-8.6219950">
        <ele>93.4</ele>
        <time>2022-06-19T09:41:27Z</time>
      </trkpt>
      <trkpt lat="42.8154360" lon="-8.6220310">
        <ele>93.4</ele>
        <time>2022-06-19T09:41:28Z</time>
      </trkpt>
      <trkpt lat="42.8154600" lon="-8.6220650">
        <ele>93.4</ele>
        <time>2022-06-19T09:41:29Z</time>
      </trkpt>
      <trkpt lat="42.8154810" lon="-8.6220960">
        <ele>93.4</ele>
        <time>2022-06-19T09:41:30Z</time>
      </trkpt>
      <trkpt lat="42.8155080" lon="-8.6221210">
        <ele>93.4</ele>
        <time>2022-06-19T09:41:31Z</time>
      </trkpt>
      <trkpt lat="42.8155430" lon="-8.6221360">
        <ele>93.4</ele>
        <time>2022-06-19T09:41:32Z</time>
      </trkpt>
      <trkpt lat="42.8155830" lon="-8.6221400">
        <ele>93.2</ele>
        <time>2022-06-19T09:41:33Z</time>
      </trkpt>
      <trkpt lat="42.8156200" lon="-8.6221410">
        <ele>93.2</ele>
        <time>2022-06-19T09:41:34Z</time>
      </trkpt>
      <trkpt lat="42.8156550" lon="-8.6221360">
        <ele>93.2</ele>
        <time>2022-06-19T09:41:35Z</time>
      </trkpt>
      <trkpt lat="42.8156950" lon="-8.6221280">
        <ele>92.8</ele>
        <time>2022-06-19T09:41:36Z</time>
      </trkpt>
      <trkpt lat="42.8157300" lon="-8.6221200">
        <ele>92.8</ele>
        <time>2022-06-19T09:41:37Z</time>
      </trkpt>
      <trkpt lat="42.8157610" lon="-8.6221180">
        <ele>92.8</ele>
        <time>2022-06-19T09:41:38Z</time>
      </trkpt>
      <trkpt lat="42.8157860" lon="-8.6221250">
        <ele>92.8</ele>
        <time>2022-06-19T09:41:39Z</time>
      </trkpt>
      <trkpt lat="42.8158100" lon="-8.6221300">
        <ele>92.8</ele>
        <time>2022-06-19T09:41:40Z</time>
      </trkpt>
      <trkpt lat="42.8158360" lon="-8.6221310">
        <ele>92.4</ele>
        <time>2022-06-19T09:41:41Z</time>
      </trkpt>
      <trkpt lat="42.8158700" lon="-8.6221330">
        <ele>92.4</ele>
        <time>2022-06-19T09:41:42Z</time>
      </trkpt>
      <trkpt lat="42.8159110" lon="-8.6221310">
        <ele>92.4</ele>
        <time>2022-06-19T09:41:43Z</time>
      </trkpt>
      <trkpt lat="42.8159600" lon="-8.6221380">
        <ele>91.4</ele>
        <time>2022-06-19T09:41:44Z</time>
      </trkpt>
      <trkpt lat="42.8160050" lon="-8.6221430">
        <ele>89.2</ele>
        <time>2022-06-19T09:41:45Z</time>
      </trkpt>
      <trkpt lat="42.8160450" lon="-8.6221330">
        <ele>89.2</ele>
        <time>2022-06-19T09:41:46Z</time>
      </trkpt>
      <trkpt lat="42.8160780" lon="-8.6220960">
        <ele>89.2</ele>
        <time>2022-06-19T09:41:47Z</time>
      </trkpt>
      <trkpt lat="42.8161050" lon="-8.6220500">
        <ele>88.2</ele>
        <time>2022-06-19T09:41:48Z</time>
      </trkpt>
      <trkpt lat="42.8161280" lon="-8.6220000">
        <ele>83.8</ele>
        <time>2022-06-19T09:41:49Z</time>
      </trkpt>
      <trkpt lat="42.8161480" lon="-8.6219400">
        <ele>83.8</ele>
        <time>2022-06-19T09:41:50Z</time>
      </trkpt>
      <trkpt lat="42.8161680" lon="-8.6218750">
        <ele>83.8</ele>
        <time>2022-06-19T09:41:51Z</time>
      </trkpt>
      <trkpt lat="42.8162050" lon="-8.6218110">
        <ele>84.4</ele>
        <time>2022-06-19T09:41:52Z</time>
      </trkpt>
      <trkpt lat="42.8162460" lon="-8.6217550">
        <ele>83.8</ele>
        <time>2022-06-19T09:41:53Z</time>
      </trkpt>
      <trkpt lat="42.8162860" lon="-8.6217110">
        <ele>83.8</ele>
        <time>2022-06-19T09:41:54Z</time>
      </trkpt>
      <trkpt lat="42.8163310" lon="-8.6216780">
        <ele>83.8</ele>
        <time>2022-06-19T09:41:55Z</time>
      </trkpt>
      <trkpt lat="42.8163730" lon="-8.6216510">
        <ele>84.2</ele>
        <time>2022-06-19T09:41:56Z</time>
      </trkpt>
      <trkpt lat="42.8164210" lon="-8.6216280">
        <ele>85.0</ele>
        <time>2022-06-19T09:41:57Z</time>
      </trkpt>
      <trkpt lat="42.8164710" lon="-8.6216050">
        <ele>85.0</ele>
        <time>2022-06-19T09:41:58Z</time>
      </trkpt>
      <trkpt lat="42.8165160" lon="-8.6215750">
        <ele>85.0</ele>
        <time>2022-06-19T09:41:59Z</time>
      </trkpt>
      <trkpt lat="42.8165560" lon="-8.6215350">
        <ele>84.6</ele>
        <time>2022-06-19T09:42:00Z</time>
      </trkpt>
      <trkpt lat="42.8165980" lon="-8.6215010">
        <ele>84.2</ele>
        <time>2022-06-19T09:42:01Z</time>
      </trkpt>
      <trkpt lat="42.8166350" lon="-8.6214660">
        <ele>84.2</ele>
        <time>2022-06-19T09:42:02Z</time>
      </trkpt>
      <trkpt lat="42.8166710" lon="-8.6214300">
        <ele>84.2</ele>
        <time>2022-06-19T09:42:03Z</time>
      </trkpt>
      <trkpt lat="42.8167080" lon="-8.6213930">
        <ele>84.2</ele>
        <time>2022-06-19T09:42:04Z</time>
      </trkpt>
      <trkpt lat="42.8167450" lon="-8.6213630">
        <ele>84.2</ele>
        <time>2022-06-19T09:42:05Z</time>
      </trkpt>
      <trkpt lat="42.8167800" lon="-8.6213360">
        <ele>84.2</ele>
        <time>2022-06-19T09:42:06Z</time>
      </trkpt>
      <trkpt lat="42.8168130" lon="-8.6213130">
        <ele>84.2</ele>
        <time>2022-06-19T09:42:07Z</time>
      </trkpt>
      <trkpt lat="42.8168480" lon="-8.6212980">
        <ele>84.2</ele>
        <time>2022-06-19T09:42:08Z</time>
      </trkpt>
      <trkpt lat="42.8168810" lon="-8.6212850">
        <ele>85.4</ele>
        <time>2022-06-19T09:42:09Z</time>
      </trkpt>
      <trkpt lat="42.8169130" lon="-8.6212780">
        <ele>85.4</ele>
        <time>2022-06-19T09:42:10Z</time>
      </trkpt>
      <trkpt lat="42.8169450" lon="-8.6212760">
        <ele>85.4</ele>
        <time>2022-06-19T09:42:11Z</time>
      </trkpt>
      <trkpt lat="42.8169750" lon="-8.6212730">
        <ele>86.0</ele>
        <time>2022-06-19T09:42:12Z</time>
      </trkpt>
      <trkpt lat="42.8170030" lon="-8.6212730">
        <ele>86.4</ele>
        <time>2022-06-19T09:42:13Z</time>
      </trkpt>
      <trkpt lat="42.8170310" lon="-8.6212710">
        <ele>86.4</ele>
        <time>2022-06-19T09:42:14Z</time>
      </trkpt>
      <trkpt lat="42.8170610" lon="-8.6212680">
        <ele>86.4</ele>
        <time>2022-06-19T09:42:15Z</time>
      </trkpt>
      <trkpt lat="42.8170910" lon="-8.6212630">
        <ele>86.2</ele>
        <time>2022-06-19T09:42:16Z</time>
      </trkpt>
      <trkpt lat="42.8171210" lon="-8.6212560">
        <ele>86.0</ele>
        <time>2022-06-19T09:42:17Z</time>
      </trkpt>
      <trkpt lat="42.8171460" lon="-8.6212530">
        <ele>86.0</ele>
        <time>2022-06-19T09:42:18Z</time>
      </trkpt>
      <trkpt lat="42.8171710" lon="-8.6212450">
        <ele>86.0</ele>
        <time>2022-06-19T09:42:19Z</time>
      </trkpt>
      <trkpt lat="42.8171930" lon="-8.6212400">
        <ele>86.2</ele>
        <time>2022-06-19T09:42:20Z</time>
      </trkpt>
      <trkpt lat="42.8172110" lon="-8.6212400">
        <ele>86.2</ele>
        <time>2022-06-19T09:42:21Z</time>
      </trkpt>
      <trkpt lat="42.8172300" lon="-8.6212350">
        <ele>86.2</ele>
        <time>2022-06-19T09:42:22Z</time>
      </trkpt>
      <trkpt lat="42.8172460" lon="-8.6212310">
        <ele>86.2</ele>
        <time>2022-06-19T09:42:23Z</time>
      </trkpt>
      <trkpt lat="42.8172700" lon="-8.6212300">
        <ele>86.6</ele>
        <time>2022-06-19T09:42:24Z</time>
      </trkpt>
      <trkpt lat="42.8172930" lon="-8.6212230">
        <ele>86.8</ele>
        <time>2022-06-19T09:42:25Z</time>
      </trkpt>
      <trkpt lat="42.8173080" lon="-8.6212200">
        <ele>86.8</ele>
        <time>2022-06-19T09:42:26Z</time>
      </trkpt>
      <trkpt lat="42.8173230" lon="-8.6212110">
        <ele>86.8</ele>
        <time>2022-06-19T09:42:27Z</time>
      </trkpt>
      <trkpt lat="42.8173430" lon="-8.6212080">
        <ele>86.8</ele>
        <time>2022-06-19T09:42:28Z</time>
      </trkpt>
      <trkpt lat="42.8173630" lon="-8.6212060">
        <ele>87.2</ele>
        <time>2022-06-19T09:42:29Z</time>
      </trkpt>
      <trkpt lat="42.8173850" lon="-8.6212080">
        <ele>87.2</ele>
        <time>2022-06-19T09:42:30Z</time>
      </trkpt>
      <trkpt lat="42.8174060" lon="-8.6212110">
        <ele>87.2</ele>
        <time>2022-06-19T09:42:31Z</time>
      </trkpt>
      <trkpt lat="42.8174280" lon="-8.6212110">
        <ele>87.8</ele>
        <time>2022-06-19T09:42:32Z</time>
      </trkpt>
      <trkpt lat="42.8174500" lon="-8.6212080">
        <ele>87.4</ele>
        <time>2022-06-19T09:42:33Z</time>
      </trkpt>
      <trkpt lat="42.8174710" lon="-8.6212050">
        <ele>87.4</ele>
        <time>2022-06-19T09:42:34Z</time>
      </trkpt>
      <trkpt lat="42.8174910" lon="-8.6211980">
        <ele>87.4</ele>
        <time>2022-06-19T09:42:35Z</time>
      </trkpt>
      <trkpt lat="42.8175130" lon="-8.6211900">
        <ele>88.4</ele>
        <time>2022-06-19T09:42:36Z</time>
      </trkpt>
      <trkpt lat="42.8175350" lon="-8.6211850">
        <ele>88.6</ele>
        <time>2022-06-19T09:42:37Z</time>
      </trkpt>
      <trkpt lat="42.8175510" lon="-8.6211850">
        <ele>88.6</ele>
        <time>2022-06-19T09:42:38Z</time>
      </trkpt>
      <trkpt lat="42.8175660" lon="-8.6211880">
        <ele>88.6</ele>
        <time>2022-06-19T09:42:39Z</time>
      </trkpt>
      <trkpt lat="42.8175810" lon="-8.6211900">
        <ele>89.2</ele>
        <time>2022-06-19T09:42:40Z</time>
      </trkpt>
      <trkpt lat="42.8176000" lon="-8.6211850">
        <ele>89.0</ele>
        <time>2022-06-19T09:42:41Z</time>
      </trkpt>
      <trkpt lat="42.8176130" lon="-8.6211780">
        <ele>89.0</ele>
        <time>2022-06-19T09:42:42Z</time>
      </trkpt>
      <trkpt lat="42.8176300" lon="-8.6211710">
        <ele>89.0</ele>
        <time>2022-06-19T09:42:43Z</time>
      </trkpt>
      <trkpt lat="42.8176550" lon="-8.6211680">
        <ele>89.6</ele>
        <time>2022-06-19T09:42:44Z</time>
      </trkpt>
      <trkpt lat="42.8176800" lon="-8.6211560">
        <ele>90.2</ele>
        <time>2022-06-19T09:42:45Z</time>
      </trkpt>
      <trkpt lat="42.8176960" lon="-8.6211510">
        <ele>90.2</ele>
        <time>2022-06-19T09:42:46Z</time>
      </trkpt>
      <trkpt lat="42.8177150" lon="-8.6211450">
        <ele>90.2</ele>
        <time>2022-06-19T09:42:47Z</time>
      </trkpt>
      <trkpt lat="42.8177310" lon="-8.6211360">
        <ele>90.4</ele>
        <time>2022-06-19T09:42:48Z</time>
      </trkpt>
      <trkpt lat="42.8177480" lon="-8.6211310">
        <ele>90.6</ele>
        <time>2022-06-19T09:42:49Z</time>
      </trkpt>
      <trkpt lat="42.8177580" lon="-8.6211310">
        <ele>90.6</ele>
        <time>2022-06-19T09:42:50Z</time>
      </trkpt>
      <trkpt lat="42.8177760" lon="-8.6211280">
        <ele>90.6</ele>
        <time>2022-06-19T09:42:51Z</time>
      </trkpt>
      <trkpt lat="42.8177910" lon="-8.6211210">
        <ele>91.2</ele>
        <time>2022-06-19T09:42:52Z</time>
      </trkpt>
      <trkpt lat="42.8178060" lon="-8.6211100">
        <ele>91.2</ele>
        <time>2022-06-19T09:42:53Z</time>
      </trkpt>
      <trkpt lat="42.8178280" lon="-8.6210950">
        <ele>91.2</ele>
        <time>2022-06-19T09:42:54Z</time>
      </trkpt>
      <trkpt lat="42.8178510" lon="-8.6210780">
        <ele>91.2</ele>
        <time>2022-06-19T09:42:55Z</time>
      </trkpt>
      <trkpt lat="42.8178660" lon="-8.6210680">
        <ele>91.8</ele>
        <time>2022-06-19T09:42:56Z</time>
      </trkpt>
      <trkpt lat="42.8178850" lon="-8.6210580">
        <ele>92.4</ele>
        <time>2022-06-19T09:42:57Z</time>
      </trkpt>
      <trkpt lat="42.8178980" lon="-8.6210480">
        <ele>92.4</ele>
        <time>2022-06-19T09:42:58Z</time>
      </trkpt>
      <trkpt lat="42.8179150" lon="-8.6210310">
        <ele>92.4</ele>
        <time>2022-06-19T09:42:59Z</time>
      </trkpt>
      <trkpt lat="42.8179260" lon="-8.6210200">
        <ele>92.4</ele>
        <time>2022-06-19T09:43:00Z</time>
      </trkpt>
      <trkpt lat="42.8179410" lon="-8.6210080">
        <ele>93.2</ele>
        <time>2022-06-19T09:43:01Z</time>
      </trkpt>
      <trkpt lat="42.8179560" lon="-8.6209950">
        <ele>93.2</ele>
        <time>2022-06-19T09:43:02Z</time>
      </trkpt>
      <trkpt lat="42.8179730" lon="-8.6209830">
        <ele>93.2</ele>
        <time>2022-06-19T09:43:03Z</time>
      </trkpt>
      <trkpt lat="42.8179880" lon="-8.6209700">
        <ele>93.2</ele>
        <time>2022-06-19T09:43:04Z</time>
      </trkpt>
      <trkpt lat="42.8180050" lon="-8.6209560">
        <ele>93.8</ele>
        <time>2022-06-19T09:43:05Z</time>
      </trkpt>
      <trkpt lat="42.8180180" lon="-8.6209450">
        <ele>93.8</ele>
        <time>2022-06-19T09:43:06Z</time>
      </trkpt>
      <trkpt lat="42.8180300" lon="-8.6209300">
        <ele>93.8</ele>
        <time>2022-06-19T09:43:07Z</time>
      </trkpt>
      <trkpt lat="42.8180410" lon="-8.6209200">
        <ele>94.4</ele>
        <time>2022-06-19T09:43:08Z</time>
      </trkpt>
      <trkpt lat="42.8180510" lon="-8.6209060">
        <ele>94.8</ele>
        <time>2022-06-19T09:43:09Z</time>
      </trkpt>
      <trkpt lat="42.8180580" lon="-8.6208900">
        <ele>94.8</ele>
        <time>2022-06-19T09:43:10Z</time>
      </trkpt>
      <trkpt lat="42.8180650" lon="-8.6208730">
        <ele>94.8</ele>
        <time>2022-06-19T09:43:11Z</time>
      </trkpt>
      <trkpt lat="42.8180710" lon="-8.6208600">
        <ele>95.6</ele>
        <time>2022-06-19T09:43:12Z</time>
      </trkpt>
      <trkpt lat="42.8180850" lon="-8.6208530">
        <ele>95.4</ele>
        <time>2022-06-19T09:43:13Z</time>
      </trkpt>
      <trkpt lat="42.8180960" lon="-8.6208360">
        <ele>95.4</ele>
        <time>2022-06-19T09:43:14Z</time>
      </trkpt>
      <trkpt lat="42.8181100" lon="-8.6208150">
        <ele>95.4</ele>
        <time>2022-06-19T09:43:15Z</time>
      </trkpt>
      <trkpt lat="42.8181260" lon="-8.6208030">
        <ele>96.0</ele>
        <time>2022-06-19T09:43:16Z</time>
      </trkpt>
      <trkpt lat="42.8181380" lon="-8.6207830">
        <ele>96.8</ele>
        <time>2022-06-19T09:43:17Z</time>
      </trkpt>
      <trkpt lat="42.8181500" lon="-8.6207660">
        <ele>96.8</ele>
        <time>2022-06-19T09:43:18Z</time>
      </trkpt>
      <trkpt lat="42.8181610" lon="-8.6207530">
        <ele>96.8</ele>
        <time>2022-06-19T09:43:19Z</time>
      </trkpt>
      <trkpt lat="42.8181750" lon="-8.6207430">
        <ele>96.8</ele>
        <time>2022-06-19T09:43:20Z</time>
      </trkpt>
      <trkpt lat="42.8181830" lon="-8.6207300">
        <ele>97.4</ele>
        <time>2022-06-19T09:43:21Z</time>
      </trkpt>
      <trkpt lat="42.8181930" lon="-8.6207160">
        <ele>97.4</ele>
        <time>2022-06-19T09:43:22Z</time>
      </trkpt>
      <trkpt lat="42.8182050" lon="-8.6207060">
        <ele>97.4</ele>
        <time>2022-06-19T09:43:23Z</time>
      </trkpt>
      <trkpt lat="42.8182130" lon="-8.6206930">
        <ele>97.4</ele>
        <time>2022-06-19T09:43:24Z</time>
      </trkpt>
      <trkpt lat="42.8182210" lon="-8.6206830">
        <ele>98.0</ele>
        <time>2022-06-19T09:43:25Z</time>
      </trkpt>
      <trkpt lat="42.8182330" lon="-8.6206730">
        <ele>98.0</ele>
        <time>2022-06-19T09:43:26Z</time>
      </trkpt>
      <trkpt lat="42.8182410" lon="-8.6206610">
        <ele>98.0</ele>
        <time>2022-06-19T09:43:27Z</time>
      </trkpt>
      <trkpt lat="42.8182500" lon="-8.6206480">
        <ele>98.0</ele>
        <time>2022-06-19T09:43:28Z</time>
      </trkpt>
      <trkpt lat="42.8182600" lon="-8.6206360">
        <ele>98.6</ele>
        <time>2022-06-19T09:43:29Z</time>
      </trkpt>
      <trkpt lat="42.8182710" lon="-8.6206250">
        <ele>98.6</ele>
        <time>2022-06-19T09:43:30Z</time>
      </trkpt>
      <trkpt lat="42.8182810" lon="-8.6206160">
        <ele>98.6</ele>
        <time>2022-06-19T09:43:31Z</time>
      </trkpt>
      <trkpt lat="42.8182930" lon="-8.6206080">
        <ele>98.6</ele>
        <time>2022-06-19T09:43:32Z</time>
      </trkpt>
      <trkpt lat="42.8183030" lon="-8.6206030">
        <ele>99.2</ele>
        <time>2022-06-19T09:43:33Z</time>
      </trkpt>
      <trkpt lat="42.8183160" lon="-8.6205960">
        <ele>99.2</ele>
        <time>2022-06-19T09:43:34Z</time>
      </trkpt>
      <trkpt lat="42.8183280" lon="-8.6205880">
        <ele>99.2</ele>
        <time>2022-06-19T09:43:35Z</time>
      </trkpt>
      <trkpt lat="42.8183350" lon="-8.6205800">
        <ele>99.6</ele>
        <time>2022-06-19T09:43:36Z</time>
      </trkpt>
      <trkpt lat="42.8183400" lon="-8.6205700">
        <ele>99.4</ele>
        <time>2022-06-19T09:43:37Z</time>
      </trkpt>
      <trkpt lat="42.8183480" lon="-8.6205630">
        <ele>99.4</ele>
        <time>2022-06-19T09:43:38Z</time>
      </trkpt>
      <trkpt lat="42.8183560" lon="-8.6205560">
        <ele>99.4</ele>
        <time>2022-06-19T09:43:39Z</time>
      </trkpt>
      <trkpt lat="42.8183660" lon="-8.6205500">
        <ele>100.2</ele>
        <time>2022-06-19T09:43:40Z</time>
      </trkpt>
      <trkpt lat="42.8183780" lon="-8.6205480">
        <ele>99.8</ele>
        <time>2022-06-19T09:43:41Z</time>
      </trkpt>
      <trkpt lat="42.8183930" lon="-8.6205350">
        <ele>99.8</ele>
        <time>2022-06-19T09:43:42Z</time>
      </trkpt>
      <trkpt lat="42.8184030" lon="-8.6205250">
        <ele>99.8</ele>
        <time>2022-06-19T09:43:43Z</time>
      </trkpt>
      <trkpt lat="42.8184110" lon="-8.6205160">
        <ele>100.8</ele>
        <time>2022-06-19T09:43:44Z</time>
      </trkpt>
      <trkpt lat="42.8184300" lon="-8.6205080">
        <ele>101.2</ele>
        <time>2022-06-19T09:43:45Z</time>
      </trkpt>
      <trkpt lat="42.8184480" lon="-8.6204980">
        <ele>101.2</ele>
        <time>2022-06-19T09:43:46Z</time>
      </trkpt>
      <trkpt lat="42.8184610" lon="-8.6204880">
        <ele>101.2</ele>
        <time>2022-06-19T09:43:47Z</time>
      </trkpt>
      <trkpt lat="42.8184700" lon="-8.6204800">
        <ele>101.8</ele>
        <time>2022-06-19T09:43:48Z</time>
      </trkpt>
      <trkpt lat="42.8184780" lon="-8.6204710">
        <ele>102.2</ele>
        <time>2022-06-19T09:43:49Z</time>
      </trkpt>
      <trkpt lat="42.8184930" lon="-8.6204610">
        <ele>102.2</ele>
        <time>2022-06-19T09:43:50Z</time>
      </trkpt>
      <trkpt lat="42.8185050" lon="-8.6204500">
        <ele>102.2</ele>
        <time>2022-06-19T09:43:51Z</time>
      </trkpt>
      <trkpt lat="42.8185180" lon="-8.6204450">
        <ele>102.6</ele>
        <time>2022-06-19T09:43:52Z</time>
      </trkpt>
      <trkpt lat="42.8185360" lon="-8.6204400">
        <ele>102.8</ele>
        <time>2022-06-19T09:43:53Z</time>
      </trkpt>
      <trkpt lat="42.8185500" lon="-8.6204350">
        <ele>102.8</ele>
        <time>2022-06-19T09:43:54Z</time>
      </trkpt>
      <trkpt lat="42.8185610" lon="-8.6204260">
        <ele>102.8</ele>
        <time>2022-06-19T09:43:55Z</time>
      </trkpt>
      <trkpt lat="42.8185710" lon="-8.6204180">
        <ele>103.6</ele>
        <time>2022-06-19T09:43:56Z</time>
      </trkpt>
      <trkpt lat="42.8185850" lon="-8.6204010">
        <ele>103.6</ele>
        <time>2022-06-19T09:43:57Z</time>
      </trkpt>
      <trkpt lat="42.8185980" lon="-8.6203880">
        <ele>103.6</ele>
        <time>2022-06-19T09:43:58Z</time>
      </trkpt>
      <trkpt lat="42.8186100" lon="-8.6203810">
        <ele>103.6</ele>
        <time>2022-06-19T09:43:59Z</time>
      </trkpt>
      <trkpt lat="42.8186210" lon="-8.6203710">
        <ele>104.6</ele>
        <time>2022-06-19T09:44:00Z</time>
      </trkpt>
      <trkpt lat="42.8186330" lon="-8.6203600">
        <ele>105.0</ele>
        <time>2022-06-19T09:44:01Z</time>
      </trkpt>
      <trkpt lat="42.8186410" lon="-8.6203480">
        <ele>105.0</ele>
        <time>2022-06-19T09:44:02Z</time>
      </trkpt>
      <trkpt lat="42.8186510" lon="-8.6203360">
        <ele>105.0</ele>
        <time>2022-06-19T09:44:03Z</time>
      </trkpt>
      <trkpt lat="42.8186610" lon="-8.6203230">
        <ele>105.4</ele>
        <time>2022-06-19T09:44:04Z</time>
      </trkpt>
      <trkpt lat="42.8186710" lon="-8.6203110">
        <ele>105.4</ele>
        <time>2022-06-19T09:44:05Z</time>
      </trkpt>
      <trkpt lat="42.8186810" lon="-8.6203000">
        <ele>105.4</ele>
        <time>2022-06-19T09:44:06Z</time>
      </trkpt>
      <trkpt lat="42.8186910" lon="-8.6202860">
        <ele>105.4</ele>
        <time>2022-06-19T09:44:07Z</time>
      </trkpt>
      <trkpt lat="42.8187030" lon="-8.6202780">
        <ele>106.4</ele>
        <time>2022-06-19T09:44:08Z</time>
      </trkpt>
      <trkpt lat="42.8187160" lon="-8.6202650">
        <ele>106.6</ele>
        <time>2022-06-19T09:44:09Z</time>
      </trkpt>
      <trkpt lat="42.8187310" lon="-8.6202460">
        <ele>106.6</ele>
        <time>2022-06-19T09:44:10Z</time>
      </trkpt>
      <trkpt lat="42.8187430" lon="-8.6202300">
        <ele>106.6</ele>
        <time>2022-06-19T09:44:11Z</time>
      </trkpt>
      <trkpt lat="42.8187560" lon="-8.6202130">
        <ele>106.6</ele>
        <time>2022-06-19T09:44:12Z</time>
      </trkpt>
      <trkpt lat="42.8187710" lon="-8.6201960">
        <ele>107.0</ele>
        <time>2022-06-19T09:44:13Z</time>
      </trkpt>
      <trkpt lat="42.8187830" lon="-8.6201810">
        <ele>107.0</ele>
        <time>2022-06-19T09:44:14Z</time>
      </trkpt>
      <trkpt lat="42.8187950" lon="-8.6201660">
        <ele>107.0</ele>
        <time>2022-06-19T09:44:15Z</time>
      </trkpt>
      <trkpt lat="42.8188080" lon="-8.6201510">
        <ele>107.0</ele>
        <time>2022-06-19T09:44:16Z</time>
      </trkpt>
      <trkpt lat="42.8188200" lon="-8.6201350">
        <ele>107.2</ele>
        <time>2022-06-19T09:44:17Z</time>
      </trkpt>
      <trkpt lat="42.8188330" lon="-8.6201200">
        <ele>107.2</ele>
        <time>2022-06-19T09:44:18Z</time>
      </trkpt>
      <trkpt lat="42.8188460" lon="-8.6201060">
        <ele>107.2</ele>
        <time>2022-06-19T09:44:19Z</time>
      </trkpt>
      <trkpt lat="42.8188610" lon="-8.6200900">
        <ele>107.2</ele>
        <time>2022-06-19T09:44:20Z</time>
      </trkpt>
      <trkpt lat="42.8188780" lon="-8.6200710">
        <ele>107.6</ele>
        <time>2022-06-19T09:44:21Z</time>
      </trkpt>
      <trkpt lat="42.8188950" lon="-8.6200550">
        <ele>107.6</ele>
        <time>2022-06-19T09:44:22Z</time>
      </trkpt>
      <trkpt lat="42.8189100" lon="-8.6200360">
        <ele>107.6</ele>
        <time>2022-06-19T09:44:23Z</time>
      </trkpt>
      <trkpt lat="42.8189210" lon="-8.6200200">
        <ele>107.4</ele>
        <time>2022-06-19T09:44:24Z</time>
      </trkpt>
      <trkpt lat="42.8189360" lon="-8.6200030">
        <ele>107.2</ele>
        <time>2022-06-19T09:44:25Z</time>
      </trkpt>
      <trkpt lat="42.8189510" lon="-8.6199850">
        <ele>107.2</ele>
        <time>2022-06-19T09:44:26Z</time>
      </trkpt>
      <trkpt lat="42.8189680" lon="-8.6199660">
        <ele>107.2</ele>
        <time>2022-06-19T09:44:27Z</time>
      </trkpt>
      <trkpt lat="42.8189850" lon="-8.6199500">
        <ele>107.2</ele>
        <time>2022-06-19T09:44:28Z</time>
      </trkpt>
      <trkpt lat="42.8190010" lon="-8.6199310">
        <ele>107.2</ele>
        <time>2022-06-19T09:44:29Z</time>
      </trkpt>
      <trkpt lat="42.8190200" lon="-8.6199110">
        <ele>107.2</ele>
        <time>2022-06-19T09:44:30Z</time>
      </trkpt>
      <trkpt lat="42.8190360" lon="-8.6198930">
        <ele>107.2</ele>
        <time>2022-06-19T09:44:31Z</time>
      </trkpt>
      <trkpt lat="42.8190530" lon="-8.6198760">
        <ele>107.4</ele>
        <time>2022-06-19T09:44:32Z</time>
      </trkpt>
      <trkpt lat="42.8190730" lon="-8.6198610">
        <ele>107.8</ele>
        <time>2022-06-19T09:44:33Z</time>
      </trkpt>
      <trkpt lat="42.8190880" lon="-8.6198480">
        <ele>107.8</ele>
        <time>2022-06-19T09:44:34Z</time>
      </trkpt>
      <trkpt lat="42.8191050" lon="-8.6198310">
        <ele>107.8</ele>
        <time>2022-06-19T09:44:35Z</time>
      </trkpt>
      <trkpt lat="42.8191210" lon="-8.6198100">
        <ele>107.8</ele>
        <time>2022-06-19T09:44:36Z</time>
      </trkpt>
      <trkpt lat="42.8191360" lon="-8.6197930">
        <ele>108.4</ele>
        <time>2022-06-19T09:44:37Z</time>
      </trkpt>
      <trkpt lat="42.8191480" lon="-8.6197710">
        <ele>108.4</ele>
        <time>2022-06-19T09:44:38Z</time>
      </trkpt>
      <trkpt lat="42.8191610" lon="-8.6197510">
        <ele>108.4</ele>
        <time>2022-06-19T09:44:39Z</time>
      </trkpt>
      <trkpt lat="42.8191730" lon="-8.6197310">
        <ele>108.4</ele>
        <time>2022-06-19T09:44:40Z</time>
      </trkpt>
      <trkpt lat="42.8191810" lon="-8.6197160">
        <ele>108.8</ele>
        <time>2022-06-19T09:44:41Z</time>
      </trkpt>
      <trkpt lat="42.8191930" lon="-8.6197010">
        <ele>108.8</ele>
        <time>2022-06-19T09:44:42Z</time>
      </trkpt>
      <trkpt lat="42.8192050" lon="-8.6196810">
        <ele>108.8</ele>
        <time>2022-06-19T09:44:43Z</time>
      </trkpt>
      <trkpt lat="42.8192200" lon="-8.6196610">
        <ele>108.6</ele>
        <time>2022-06-19T09:44:44Z</time>
      </trkpt>
      <trkpt lat="42.8192350" lon="-8.6196380">
        <ele>109.2</ele>
        <time>2022-06-19T09:44:45Z</time>
      </trkpt>
      <trkpt lat="42.8192480" lon="-8.6196150">
        <ele>109.2</ele>
        <time>2022-06-19T09:44:46Z</time>
      </trkpt>
      <trkpt lat="42.8192600" lon="-8.6195930">
        <ele>109.2</ele>
        <time>2022-06-19T09:44:47Z</time>
      </trkpt>
      <trkpt lat="42.8192750" lon="-8.6195660">
        <ele>109.2</ele>
        <time>2022-06-19T09:44:48Z</time>
      </trkpt>
      <trkpt lat="42.8192860" lon="-8.6195400">
        <ele>109.2</ele>
        <time>2022-06-19T09:44:49Z</time>
      </trkpt>
      <trkpt lat="42.8193000" lon="-8.6195160">
        <ele>109.2</ele>
        <time>2022-06-19T09:44:50Z</time>
      </trkpt>
      <trkpt lat="42.8193060" lon="-8.6194950">
        <ele>109.2</ele>
        <time>2022-06-19T09:44:51Z</time>
      </trkpt>
      <trkpt lat="42.8193150" lon="-8.6194710">
        <ele>109.2</ele>
        <time>2022-06-19T09:44:52Z</time>
      </trkpt>
      <trkpt lat="42.8193200" lon="-8.6194460">
        <ele>109.0</ele>
        <time>2022-06-19T09:44:53Z</time>
      </trkpt>
      <trkpt lat="42.8193260" lon="-8.6194260">
        <ele>109.0</ele>
        <time>2022-06-19T09:44:54Z</time>
      </trkpt>
      <trkpt lat="42.8193310" lon="-8.6194030">
        <ele>109.0</ele>
        <time>2022-06-19T09:44:55Z</time>
      </trkpt>
      <trkpt lat="42.8193330" lon="-8.6193700">
        <ele>109.0</ele>
        <time>2022-06-19T09:44:56Z</time>
      </trkpt>
      <trkpt lat="42.8193350" lon="-8.6193350">
        <ele>109.0</ele>
        <time>2022-06-19T09:44:57Z</time>
      </trkpt>
      <trkpt lat="42.8193400" lon="-8.6193050">
        <ele>109.0</ele>
        <time>2022-06-19T09:44:58Z</time>
      </trkpt>
      <trkpt lat="42.8193500" lon="-8.6192760">
        <ele>109.0</ele>
        <time>2022-06-19T09:44:59Z</time>
      </trkpt>
      <trkpt lat="42.8193600" lon="-8.6192480">
        <ele>109.0</ele>
        <time>2022-06-19T09:45:00Z</time>
      </trkpt>
      <trkpt lat="42.8193730" lon="-8.6192230">
        <ele>109.0</ele>
        <time>2022-06-19T09:45:01Z</time>
      </trkpt>
      <trkpt lat="42.8193850" lon="-8.6192100">
        <ele>109.0</ele>
        <time>2022-06-19T09:45:02Z</time>
      </trkpt>
      <trkpt lat="42.8193930" lon="-8.6191910">
        <ele>109.0</ele>
        <time>2022-06-19T09:45:03Z</time>
      </trkpt>
      <trkpt lat="42.8194030" lon="-8.6191780">
        <ele>109.0</ele>
        <time>2022-06-19T09:45:04Z</time>
      </trkpt>
      <trkpt lat="42.8194160" lon="-8.6191610">
        <ele>109.0</ele>
        <time>2022-06-19T09:45:05Z</time>
      </trkpt>
      <trkpt lat="42.8194310" lon="-8.6191450">
        <ele>109.0</ele>
        <time>2022-06-19T09:45:06Z</time>
      </trkpt>
      <trkpt lat="42.8194400" lon="-8.6191280">
        <ele>109.0</ele>
        <time>2022-06-19T09:45:07Z</time>
      </trkpt>
      <trkpt lat="42.8194460" lon="-8.6191110">
        <ele>109.8</ele>
        <time>2022-06-19T09:45:08Z</time>
      </trkpt>
      <trkpt lat="42.8194600" lon="-8.6190900">
        <ele>109.6</ele>
        <time>2022-06-19T09:45:09Z</time>
      </trkpt>
      <trkpt lat="42.8194700" lon="-8.6190710">
        <ele>109.6</ele>
        <time>2022-06-19T09:45:10Z</time>
      </trkpt>
      <trkpt lat="42.8194810" lon="-8.6190560">
        <ele>109.6</ele>
        <time>2022-06-19T09:45:11Z</time>
      </trkpt>
      <trkpt lat="42.8194980" lon="-8.6190410">
        <ele>110.2</ele>
        <time>2022-06-19T09:45:12Z</time>
      </trkpt>
      <trkpt lat="42.8195130" lon="-8.6190310">
        <ele>110.6</ele>
        <time>2022-06-19T09:45:13Z</time>
      </trkpt>
      <trkpt lat="42.8195250" lon="-8.6190180">
        <ele>110.6</ele>
        <time>2022-06-19T09:45:14Z</time>
      </trkpt>
      <trkpt lat="42.8195360" lon="-8.6190030">
        <ele>110.6</ele>
        <time>2022-06-19T09:45:15Z</time>
      </trkpt>
      <trkpt lat="42.8195510" lon="-8.6189880">
        <ele>110.6</ele>
        <time>2022-06-19T09:45:16Z</time>
      </trkpt>
      <trkpt lat="42.8195650" lon="-8.6189760">
        <ele>111.0</ele>
        <time>2022-06-19T09:45:17Z</time>
      </trkpt>
      <trkpt lat="42.8195760" lon="-8.6189630">
        <ele>111.0</ele>
        <time>2022-06-19T09:45:18Z</time>
      </trkpt>
      <trkpt lat="42.8195880" lon="-8.6189460">
        <ele>111.0</ele>
        <time>2022-06-19T09:45:19Z</time>
      </trkpt>
      <trkpt lat="42.8195980" lon="-8.6189330">
        <ele>111.0</ele>
        <time>2022-06-19T09:45:20Z</time>
      </trkpt>
      <trkpt lat="42.8196160" lon="-8.6189160">
        <ele>111.2</ele>
        <time>2022-06-19T09:45:21Z</time>
      </trkpt>
      <trkpt lat="42.8196330" lon="-8.6188980">
        <ele>111.2</ele>
        <time>2022-06-19T09:45:22Z</time>
      </trkpt>
      <trkpt lat="42.8196430" lon="-8.6188850">
        <ele>111.2</ele>
        <time>2022-06-19T09:45:23Z</time>
      </trkpt>
      <trkpt lat="42.8196600" lon="-8.6188750">
        <ele>111.8</ele>
        <time>2022-06-19T09:45:24Z</time>
      </trkpt>
      <trkpt lat="42.8196810" lon="-8.6188610">
        <ele>111.8</ele>
        <time>2022-06-19T09:45:25Z</time>
      </trkpt>
      <trkpt lat="42.8197060" lon="-8.6188510">
        <ele>111.8</ele>
        <time>2022-06-19T09:45:26Z</time>
      </trkpt>
      <trkpt lat="42.8197260" lon="-8.6188310">
        <ele>111.8</ele>
        <time>2022-06-19T09:45:27Z</time>
      </trkpt>
      <trkpt lat="42.8197530" lon="-8.6188150">
        <ele>112.4</ele>
        <time>2022-06-19T09:45:28Z</time>
      </trkpt>
      <trkpt lat="42.8197730" lon="-8.6187950">
        <ele>112.8</ele>
        <time>2022-06-19T09:45:29Z</time>
      </trkpt>
      <trkpt lat="42.8197900" lon="-8.6187800">
        <ele>112.8</ele>
        <time>2022-06-19T09:45:30Z</time>
      </trkpt>
      <trkpt lat="42.8198050" lon="-8.6187700">
        <ele>112.8</ele>
        <time>2022-06-19T09:45:31Z</time>
      </trkpt>
      <trkpt lat="42.8198200" lon="-8.6187600">
        <ele>112.8</ele>
        <time>2022-06-19T09:45:32Z</time>
      </trkpt>
      <trkpt lat="42.8198430" lon="-8.6187350">
        <ele>113.6</ele>
        <time>2022-06-19T09:45:33Z</time>
      </trkpt>
      <trkpt lat="42.8198660" lon="-8.6187150">
        <ele>113.6</ele>
        <time>2022-06-19T09:45:34Z</time>
      </trkpt>
      <trkpt lat="42.8198850" lon="-8.6186900">
        <ele>113.6</ele>
        <time>2022-06-19T09:45:35Z</time>
      </trkpt>
      <trkpt lat="42.8199060" lon="-8.6186710">
        <ele>113.6</ele>
        <time>2022-06-19T09:45:36Z</time>
      </trkpt>
      <trkpt lat="42.8199210" lon="-8.6186530">
        <ele>114.2</ele>
        <time>2022-06-19T09:45:37Z</time>
      </trkpt>
      <trkpt lat="42.8199350" lon="-8.6186350">
        <ele>114.2</ele>
        <time>2022-06-19T09:45:38Z</time>
      </trkpt>
      <trkpt lat="42.8199480" lon="-8.6186160">
        <ele>114.2</ele>
        <time>2022-06-19T09:45:39Z</time>
      </trkpt>
      <trkpt lat="42.8199610" lon="-8.6186010">
        <ele>114.2</ele>
        <time>2022-06-19T09:45:40Z</time>
      </trkpt>
      <trkpt lat="42.8199880" lon="-8.6185700">
        <ele>114.8</ele>
        <time>2022-06-19T09:45:41Z</time>
      </trkpt>
      <trkpt lat="42.8200110" lon="-8.6185500">
        <ele>114.8</ele>
        <time>2022-06-19T09:45:42Z</time>
      </trkpt>
      <trkpt lat="42.8200250" lon="-8.6185330">
        <ele>114.8</ele>
        <time>2022-06-19T09:45:43Z</time>
      </trkpt>
      <trkpt lat="42.8200430" lon="-8.6185150">
        <ele>114.8</ele>
        <time>2022-06-19T09:45:44Z</time>
      </trkpt>
      <trkpt lat="42.8200610" lon="-8.6184960">
        <ele>115.2</ele>
        <time>2022-06-19T09:45:45Z</time>
      </trkpt>
      <trkpt lat="42.8200800" lon="-8.6184780">
        <ele>115.2</ele>
        <time>2022-06-19T09:45:46Z</time>
      </trkpt>
      <trkpt lat="42.8200980" lon="-8.6184680">
        <ele>115.2</ele>
        <time>2022-06-19T09:45:47Z</time>
      </trkpt>
      <trkpt lat="42.8201210" lon="-8.6184510">
        <ele>115.8</ele>
        <time>2022-06-19T09:45:48Z</time>
      </trkpt>
      <trkpt lat="42.8201410" lon="-8.6184330">
        <ele>116.2</ele>
        <time>2022-06-19T09:45:49Z</time>
      </trkpt>
      <trkpt lat="42.8201600" lon="-8.6184180">
        <ele>116.2</ele>
        <time>2022-06-19T09:45:50Z</time>
      </trkpt>
      <trkpt lat="42.8201760" lon="-8.6184100">
        <ele>116.2</ele>
        <time>2022-06-19T09:45:51Z</time>
      </trkpt>
      <trkpt lat="42.8201910" lon="-8.6183980">
        <ele>116.2</ele>
        <time>2022-06-19T09:45:52Z</time>
      </trkpt>
      <trkpt lat="42.8202100" lon="-8.6183860">
        <ele>116.8</ele>
        <time>2022-06-19T09:45:53Z</time>
      </trkpt>
      <trkpt lat="42.8202330" lon="-8.6183760">
        <ele>116.8</ele>
        <time>2022-06-19T09:45:54Z</time>
      </trkpt>
      <trkpt lat="42.8202550" lon="-8.6183630">
        <ele>116.8</ele>
        <time>2022-06-19T09:45:55Z</time>
      </trkpt>
      <trkpt lat="42.8202760" lon="-8.6183460">
        <ele>116.8</ele>
        <time>2022-06-19T09:45:56Z</time>
      </trkpt>
      <trkpt lat="42.8202980" lon="-8.6183280">
        <ele>117.0</ele>
        <time>2022-06-19T09:45:57Z</time>
      </trkpt>
      <trkpt lat="42.8203160" lon="-8.6183180">
        <ele>117.0</ele>
        <time>2022-06-19T09:45:58Z</time>
      </trkpt>
      <trkpt lat="42.8203380" lon="-8.6183030">
        <ele>117.0</ele>
        <time>2022-06-19T09:45:59Z</time>
      </trkpt>
      <trkpt lat="42.8203650" lon="-8.6182900">
        <ele>117.4</ele>
        <time>2022-06-19T09:46:00Z</time>
      </trkpt>
      <trkpt lat="42.8203850" lon="-8.6182760">
        <ele>117.0</ele>
        <time>2022-06-19T09:46:01Z</time>
      </trkpt>
      <trkpt lat="42.8204060" lon="-8.6182600">
        <ele>117.0</ele>
        <time>2022-06-19T09:46:02Z</time>
      </trkpt>
      <trkpt lat="42.8204280" lon="-8.6182430">
        <ele>117.0</ele>
        <time>2022-06-19T09:46:03Z</time>
      </trkpt>
      <trkpt lat="42.8204480" lon="-8.6182260">
        <ele>117.8</ele>
        <time>2022-06-19T09:46:04Z</time>
      </trkpt>
      <trkpt lat="42.8204700" lon="-8.6182080">
        <ele>117.4</ele>
        <time>2022-06-19T09:46:05Z</time>
      </trkpt>
      <trkpt lat="42.8204930" lon="-8.6181900">
        <ele>117.4</ele>
        <time>2022-06-19T09:46:06Z</time>
      </trkpt>
      <trkpt lat="42.8205150" lon="-8.6181710">
        <ele>117.4</ele>
        <time>2022-06-19T09:46:07Z</time>
      </trkpt>
      <trkpt lat="42.8205350" lon="-8.6181510">
        <ele>117.4</ele>
        <time>2022-06-19T09:46:08Z</time>
      </trkpt>
      <trkpt lat="42.8205560" lon="-8.6181300">
        <ele>117.4</ele>
        <time>2022-06-19T09:46:09Z</time>
      </trkpt>
      <trkpt lat="42.8205750" lon="-8.6181060">
        <ele>117.4</ele>
        <time>2022-06-19T09:46:10Z</time>
      </trkpt>
      <trkpt lat="42.8205910" lon="-8.6180830">
        <ele>117.4</ele>
        <time>2022-06-19T09:46:11Z</time>
      </trkpt>
      <trkpt lat="42.8206080" lon="-8.6180580">
        <ele>118.2</ele>
        <time>2022-06-19T09:46:12Z</time>
      </trkpt>
      <trkpt lat="42.8206230" lon="-8.6180330">
        <ele>118.8</ele>
        <time>2022-06-19T09:46:13Z</time>
      </trkpt>
      <trkpt lat="42.8206330" lon="-8.6180080">
        <ele>118.8</ele>
        <time>2022-06-19T09:46:14Z</time>
      </trkpt>
      <trkpt lat="42.8206430" lon="-8.6179800">
        <ele>118.8</ele>
        <time>2022-06-19T09:46:15Z</time>
      </trkpt>
      <trkpt lat="42.8206550" lon="-8.6179530">
        <ele>118.8</ele>
        <time>2022-06-19T09:46:16Z</time>
      </trkpt>
      <trkpt lat="42.8206650" lon="-8.6179260">
        <ele>119.0</ele>
        <time>2022-06-19T09:46:17Z</time>
      </trkpt>
      <trkpt lat="42.8206750" lon="-8.6178980">
        <ele>119.0</ele>
        <time>2022-06-19T09:46:18Z</time>
      </trkpt>
      <trkpt lat="42.8206830" lon="-8.6178680">
        <ele>119.0</ele>
        <time>2022-06-19T09:46:19Z</time>
      </trkpt>
      <trkpt lat="42.8206930" lon="-8.6178380">
        <ele>119.0</ele>
        <time>2022-06-19T09:46:20Z</time>
      </trkpt>
      <trkpt lat="42.8207010" lon="-8.6178080">
        <ele>119.6</ele>
        <time>2022-06-19T09:46:21Z</time>
      </trkpt>
      <trkpt lat="42.8207110" lon="-8.6177780">
        <ele>119.6</ele>
        <time>2022-06-19T09:46:22Z</time>
      </trkpt>
      <trkpt lat="42.8207180" lon="-8.6177450">
        <ele>119.6</ele>
        <time>2022-06-19T09:46:23Z</time>
      </trkpt>
      <trkpt lat="42.8207250" lon="-8.6177110">
        <ele>119.6</ele>
        <time>2022-06-19T09:46:24Z</time>
      </trkpt>
      <trkpt lat="42.8207280" lon="-8.6176760">
        <ele>119.2</ele>
        <time>2022-06-19T09:46:25Z</time>
      </trkpt>
      <trkpt lat="42.8207300" lon="-8.6176400">
        <ele>119.2</ele>
        <time>2022-06-19T09:46:26Z</time>
      </trkpt>
      <trkpt lat="42.8207330" lon="-8.6176000">
        <ele>119.2</ele>
        <time>2022-06-19T09:46:27Z</time>
      </trkpt>
      <trkpt lat="42.8207360" lon="-8.6175600">
        <ele>119.2</ele>
        <time>2022-06-19T09:46:28Z</time>
      </trkpt>
      <trkpt lat="42.8207410" lon="-8.6175210">
        <ele>119.2</ele>
        <time>2022-06-19T09:46:29Z</time>
      </trkpt>
      <trkpt lat="42.8207410" lon="-8.6174850">
        <ele>119.2</ele>
        <time>2022-06-19T09:46:30Z</time>
      </trkpt>
      <trkpt lat="42.8207460" lon="-8.6174430">
        <ele>119.2</ele>
        <time>2022-06-19T09:46:31Z</time>
      </trkpt>
      <trkpt lat="42.8207500" lon="-8.6174030">
        <ele>119.2</ele>
        <time>2022-06-19T09:46:32Z</time>
      </trkpt>
      <trkpt lat="42.8207510" lon="-8.6173630">
        <ele>119.2</ele>
        <time>2022-06-19T09:46:33Z</time>
      </trkpt>
      <trkpt lat="42.8207550" lon="-8.6173210">
        <ele>119.2</ele>
        <time>2022-06-19T09:46:34Z</time>
      </trkpt>
      <trkpt lat="42.8207580" lon="-8.6172750">
        <ele>119.2</ele>
        <time>2022-06-19T09:46:35Z</time>
      </trkpt>
      <trkpt lat="42.8207600" lon="-8.6172280">
        <ele>118.6</ele>
        <time>2022-06-19T09:46:36Z</time>
      </trkpt>
      <trkpt lat="42.8207630" lon="-8.6171780">
        <ele>118.4</ele>
        <time>2022-06-19T09:46:37Z</time>
      </trkpt>
      <trkpt lat="42.8207660" lon="-8.6171280">
        <ele>118.4</ele>
        <time>2022-06-19T09:46:38Z</time>
      </trkpt>
      <trkpt lat="42.8207760" lon="-8.6170800">
        <ele>118.4</ele>
        <time>2022-06-19T09:46:39Z</time>
      </trkpt>
      <trkpt lat="42.8207950" lon="-8.6170410">
        <ele>118.4</ele>
        <time>2022-06-19T09:46:40Z</time>
      </trkpt>
      <trkpt lat="42.8208200" lon="-8.6170150">
        <ele>118.0</ele>
        <time>2022-06-19T09:46:41Z</time>
      </trkpt>
      <trkpt lat="42.8208530" lon="-8.6169930">
        <ele>118.0</ele>
        <time>2022-06-19T09:46:42Z</time>
      </trkpt>
      <trkpt lat="42.8208880" lon="-8.6169810">
        <ele>118.0</ele>
        <time>2022-06-19T09:46:43Z</time>
      </trkpt>
      <trkpt lat="42.8209210" lon="-8.6169710">
        <ele>118.0</ele>
        <time>2022-06-19T09:46:44Z</time>
      </trkpt>
      <trkpt lat="42.8209600" lon="-8.6169630">
        <ele>117.4</ele>
        <time>2022-06-19T09:46:45Z</time>
      </trkpt>
      <trkpt lat="42.8210000" lon="-8.6169560">
        <ele>117.4</ele>
        <time>2022-06-19T09:46:46Z</time>
      </trkpt>
      <trkpt lat="42.8210400" lon="-8.6169530">
        <ele>117.4</ele>
        <time>2022-06-19T09:46:47Z</time>
      </trkpt>
      <trkpt lat="42.8210810" lon="-8.6169530">
        <ele>117.0</ele>
        <time>2022-06-19T09:46:48Z</time>
      </trkpt>
      <trkpt lat="42.8211260" lon="-8.6169580">
        <ele>116.4</ele>
        <time>2022-06-19T09:46:49Z</time>
      </trkpt>
      <trkpt lat="42.8211730" lon="-8.6169650">
        <ele>116.4</ele>
        <time>2022-06-19T09:46:50Z</time>
      </trkpt>
      <trkpt lat="42.8212210" lon="-8.6169760">
        <ele>116.4</ele>
        <time>2022-06-19T09:46:51Z</time>
      </trkpt>
      <trkpt lat="42.8212660" lon="-8.6169900">
        <ele>115.6</ele>
        <time>2022-06-19T09:46:52Z</time>
      </trkpt>
      <trkpt lat="42.8213000" lon="-8.6169960">
        <ele>116.8</ele>
        <time>2022-06-19T09:46:53Z</time>
      </trkpt>
      <trkpt lat="42.8213250" lon="-8.6169910">
        <ele>116.8</ele>
        <time>2022-06-19T09:46:54Z</time>
      </trkpt>
      <trkpt lat="42.8213400" lon="-8.6169780">
        <ele>116.8</ele>
        <time>2022-06-19T09:46:55Z</time>
      </trkpt>
      <trkpt lat="42.8213460" lon="-8.6169530">
        <ele>117.8</ele>
        <time>2022-06-19T09:46:56Z</time>
      </trkpt>
      <trkpt lat="42.8213430" lon="-8.6169250">
        <ele>118.6</ele>
        <time>2022-06-19T09:46:57Z</time>
      </trkpt>
      <trkpt lat="42.8213350" lon="-8.6168960">
        <ele>118.6</ele>
        <time>2022-06-19T09:46:58Z</time>
      </trkpt>
      <trkpt lat="42.8213260" lon="-8.6168710">
        <ele>118.6</ele>
        <time>2022-06-19T09:46:59Z</time>
      </trkpt>
      <trkpt lat="42.8213230" lon="-8.6168480">
        <ele>119.4</ele>
        <time>2022-06-19T09:47:00Z</time>
      </trkpt>
      <trkpt lat="42.8213210" lon="-8.6168200">
        <ele>119.2</ele>
        <time>2022-06-19T09:47:01Z</time>
      </trkpt>
      <trkpt lat="42.8213210" lon="-8.6167860">
        <ele>119.2</ele>
        <time>2022-06-19T09:47:02Z</time>
      </trkpt>
      <trkpt lat="42.8213180" lon="-8.6167510">
        <ele>119.2</ele>
        <time>2022-06-19T09:47:03Z</time>
      </trkpt>
      <trkpt lat="42.8213160" lon="-8.6167230">
        <ele>120.0</ele>
        <time>2022-06-19T09:47:04Z</time>
      </trkpt>
      <trkpt lat="42.8213110" lon="-8.6166960">
        <ele>120.0</ele>
        <time>2022-06-19T09:47:05Z</time>
      </trkpt>
      <trkpt lat="42.8213100" lon="-8.6166710">
        <ele>120.0</ele>
        <time>2022-06-19T09:47:06Z</time>
      </trkpt>
      <trkpt lat="42.8213080" lon="-8.6166480">
        <ele>120.0</ele>
        <time>2022-06-19T09:47:07Z</time>
      </trkpt>
      <trkpt lat="42.8213050" lon="-8.6166210">
        <ele>120.0</ele>
        <time>2022-06-19T09:47:08Z</time>
      </trkpt>
      <trkpt lat="42.8213050" lon="-8.6165960">
        <ele>120.0</ele>
        <time>2022-06-19T09:47:09Z</time>
      </trkpt>
      <trkpt lat="42.8213030" lon="-8.6165660">
        <ele>120.0</ele>
        <time>2022-06-19T09:47:10Z</time>
      </trkpt>
      <trkpt lat="42.8213010" lon="-8.6165360">
        <ele>120.0</ele>
        <time>2022-06-19T09:47:11Z</time>
      </trkpt>
      <trkpt lat="42.8212980" lon="-8.6165030">
        <ele>120.2</ele>
        <time>2022-06-19T09:47:12Z</time>
      </trkpt>
      <trkpt lat="42.8212930" lon="-8.6164730">
        <ele>120.2</ele>
        <time>2022-06-19T09:47:13Z</time>
      </trkpt>
      <trkpt lat="42.8212910" lon="-8.6164430">
        <ele>120.2</ele>
        <time>2022-06-19T09:47:14Z</time>
      </trkpt>
      <trkpt lat="42.8212930" lon="-8.6164100">
        <ele>120.2</ele>
        <time>2022-06-19T09:47:15Z</time>
      </trkpt>
      <trkpt lat="42.8212930" lon="-8.6163680">
        <ele>120.2</ele>
        <time>2022-06-19T09:47:16Z</time>
      </trkpt>
      <trkpt lat="42.8212930" lon="-8.6163280">
        <ele>119.6</ele>
        <time>2022-06-19T09:47:17Z</time>
      </trkpt>
      <trkpt lat="42.8212900" lon="-8.6162860">
        <ele>119.6</ele>
        <time>2022-06-19T09:47:18Z</time>
      </trkpt>
      <trkpt lat="42.8212830" lon="-8.6162450">
        <ele>119.6</ele>
        <time>2022-06-19T09:47:19Z</time>
      </trkpt>
      <trkpt lat="42.8212800" lon="-8.6162000">
        <ele>119.4</ele>
        <time>2022-06-19T09:47:20Z</time>
      </trkpt>
      <trkpt lat="42.8212750" lon="-8.6161510">
        <ele>119.4</ele>
        <time>2022-06-19T09:47:21Z</time>
      </trkpt>
      <trkpt lat="42.8212660" lon="-8.6161050">
        <ele>119.4</ele>
        <time>2022-06-19T09:47:22Z</time>
      </trkpt>
      <trkpt lat="42.8212580" lon="-8.6160530">
        <ele>119.4</ele>
        <time>2022-06-19T09:47:23Z</time>
      </trkpt>
      <trkpt lat="42.8212500" lon="-8.6160010">
        <ele>118.8</ele>
        <time>2022-06-19T09:47:24Z</time>
      </trkpt>
      <trkpt lat="42.8212450" lon="-8.6159480">
        <ele>119.0</ele>
        <time>2022-06-19T09:47:25Z</time>
      </trkpt>
      <trkpt lat="42.8212400" lon="-8.6158910">
        <ele>119.0</ele>
        <time>2022-06-19T09:47:26Z</time>
      </trkpt>
      <trkpt lat="42.8212250" lon="-8.6158360">
        <ele>119.0</ele>
        <time>2022-06-19T09:47:27Z</time>
      </trkpt>
      <trkpt lat="42.8212060" lon="-8.6157860">
        <ele>118.4</ele>
        <time>2022-06-19T09:47:28Z</time>
      </trkpt>
      <trkpt lat="42.8211860" lon="-8.6157410">
        <ele>119.0</ele>
        <time>2022-06-19T09:47:29Z</time>
      </trkpt>
      <trkpt lat="42.8211830" lon="-8.6156980">
        <ele>119.0</ele>
        <time>2022-06-19T09:47:30Z</time>
      </trkpt>
      <trkpt lat="42.8211930" lon="-8.6156610">
        <ele>119.0</ele>
        <time>2022-06-19T09:47:31Z</time>
      </trkpt>
      <trkpt lat="42.8212050" lon="-8.6156260">
        <ele>119.0</ele>
        <time>2022-06-19T09:47:32Z</time>
      </trkpt>
      <trkpt lat="42.8212180" lon="-8.6155880">
        <ele>119.4</ele>
        <time>2022-06-19T09:47:33Z</time>
      </trkpt>
      <trkpt lat="42.8212310" lon="-8.6155500">
        <ele>119.4</ele>
        <time>2022-06-19T09:47:34Z</time>
      </trkpt>
      <trkpt lat="42.8212460" lon="-8.6155110">
        <ele>119.4</ele>
        <time>2022-06-19T09:47:35Z</time>
      </trkpt>
      <trkpt lat="42.8212610" lon="-8.6154750">
        <ele>119.0</ele>
        <time>2022-06-19T09:47:36Z</time>
      </trkpt>
      <trkpt lat="42.8212750" lon="-8.6154360">
        <ele>118.6</ele>
        <time>2022-06-19T09:47:37Z</time>
      </trkpt>
      <trkpt lat="42.8212900" lon="-8.6154000">
        <ele>118.6</ele>
        <time>2022-06-19T09:47:38Z</time>
      </trkpt>
      <trkpt lat="42.8213080" lon="-8.6153610">
        <ele>118.6</ele>
        <time>2022-06-19T09:47:39Z</time>
      </trkpt>
      <trkpt lat="42.8213250" lon="-8.6153210">
        <ele>118.6</ele>
        <time>2022-06-19T09:47:40Z</time>
      </trkpt>
      <trkpt lat="42.8213360" lon="-8.6152830">
        <ele>119.0</ele>
        <time>2022-06-19T09:47:41Z</time>
      </trkpt>
      <trkpt lat="42.8213500" lon="-8.6152480">
        <ele>119.0</ele>
        <time>2022-06-19T09:47:42Z</time>
      </trkpt>
      <trkpt lat="42.8213630" lon="-8.6152080">
        <ele>119.0</ele>
        <time>2022-06-19T09:47:43Z</time>
      </trkpt>
      <trkpt lat="42.8213760" lon="-8.6151700">
        <ele>119.0</ele>
        <time>2022-06-19T09:47:44Z</time>
      </trkpt>
      <trkpt lat="42.8213900" lon="-8.6151350">
        <ele>120.4</ele>
        <time>2022-06-19T09:47:45Z</time>
      </trkpt>
      <trkpt lat="42.8214030" lon="-8.6151000">
        <ele>120.4</ele>
        <time>2022-06-19T09:47:46Z</time>
      </trkpt>
      <trkpt lat="42.8214160" lon="-8.6150610">
        <ele>120.4</ele>
        <time>2022-06-19T09:47:47Z</time>
      </trkpt>
      <trkpt lat="42.8214250" lon="-8.6150250">
        <ele>120.4</ele>
        <time>2022-06-19T09:47:48Z</time>
      </trkpt>
      <trkpt lat="42.8214350" lon="-8.6149910">
        <ele>121.2</ele>
        <time>2022-06-19T09:47:49Z</time>
      </trkpt>
      <trkpt lat="42.8214410" lon="-8.6149600">
        <ele>121.2</ele>
        <time>2022-06-19T09:47:50Z</time>
      </trkpt>
      <trkpt lat="42.8214480" lon="-8.6149260">
        <ele>121.2</ele>
        <time>2022-06-19T09:47:51Z</time>
      </trkpt>
      <trkpt lat="42.8214580" lon="-8.6148950">
        <ele>121.6</ele>
        <time>2022-06-19T09:47:52Z</time>
      </trkpt>
      <trkpt lat="42.8214660" lon="-8.6148610">
        <ele>122.2</ele>
        <time>2022-06-19T09:47:53Z</time>
      </trkpt>
      <trkpt lat="42.8214750" lon="-8.6148350">
        <ele>122.2</ele>
        <time>2022-06-19T09:47:54Z</time>
      </trkpt>
      <trkpt lat="42.8214830" lon="-8.6148030">
        <ele>122.2</ele>
        <time>2022-06-19T09:47:55Z</time>
      </trkpt>
      <trkpt lat="42.8214900" lon="-8.6147680">
        <ele>122.2</ele>
        <time>2022-06-19T09:47:56Z</time>
      </trkpt>
      <trkpt lat="42.8214960" lon="-8.6147430">
        <ele>122.8</ele>
        <time>2022-06-19T09:47:57Z</time>
      </trkpt>
      <trkpt lat="42.8215050" lon="-8.6147180">
        <ele>122.8</ele>
        <time>2022-06-19T09:47:58Z</time>
      </trkpt>
      <trkpt lat="42.8215150" lon="-8.6146910">
        <ele>122.8</ele>
        <time>2022-06-19T09:47:59Z</time>
      </trkpt>
      <trkpt lat="42.8215250" lon="-8.6146650">
        <ele>122.4</ele>
        <time>2022-06-19T09:48:00Z</time>
      </trkpt>
      <trkpt lat="42.8215330" lon="-8.6146380">
        <ele>122.4</ele>
        <time>2022-06-19T09:48:01Z</time>
      </trkpt>
      <trkpt lat="42.8215410" lon="-8.6146080">
        <ele>122.4</ele>
        <time>2022-06-19T09:48:02Z</time>
      </trkpt>
      <trkpt lat="42.8215480" lon="-8.6145800">
        <ele>122.4</ele>
        <time>2022-06-19T09:48:03Z</time>
      </trkpt>
      <trkpt lat="42.8215560" lon="-8.6145480">
        <ele>123.0</ele>
        <time>2022-06-19T09:48:04Z</time>
      </trkpt>
      <trkpt lat="42.8215630" lon="-8.6145150">
        <ele>122.8</ele>
        <time>2022-06-19T09:48:05Z</time>
      </trkpt>
      <trkpt lat="42.8215650" lon="-8.6144830">
        <ele>122.8</ele>
        <time>2022-06-19T09:48:06Z</time>
      </trkpt>
      <trkpt lat="42.8215650" lon="-8.6144480">
        <ele>122.8</ele>
        <time>2022-06-19T09:48:07Z</time>
      </trkpt>
      <trkpt lat="42.8215580" lon="-8.6144150">
        <ele>122.8</ele>
        <time>2022-06-19T09:48:08Z</time>
      </trkpt>
      <trkpt lat="42.8215500" lon="-8.6143810">
        <ele>122.6</ele>
        <time>2022-06-19T09:48:09Z</time>
      </trkpt>
      <trkpt lat="42.8215450" lon="-8.6143460">
        <ele>122.6</ele>
        <time>2022-06-19T09:48:10Z</time>
      </trkpt>
      <trkpt lat="42.8215380" lon="-8.6143110">
        <ele>122.6</ele>
        <time>2022-06-19T09:48:11Z</time>
      </trkpt>
      <trkpt lat="42.8215330" lon="-8.6142800">
        <ele>123.2</ele>
        <time>2022-06-19T09:48:12Z</time>
      </trkpt>
      <trkpt lat="42.8215330" lon="-8.6142500">
        <ele>123.0</ele>
        <time>2022-06-19T09:48:13Z</time>
      </trkpt>
      <trkpt lat="42.8215350" lon="-8.6142200">
        <ele>123.0</ele>
        <time>2022-06-19T09:48:14Z</time>
      </trkpt>
      <trkpt lat="42.8215350" lon="-8.6141900">
        <ele>123.0</ele>
        <time>2022-06-19T09:48:15Z</time>
      </trkpt>
      <trkpt lat="42.8215330" lon="-8.6141560">
        <ele>123.4</ele>
        <time>2022-06-19T09:48:16Z</time>
      </trkpt>
      <trkpt lat="42.8215310" lon="-8.6141250">
        <ele>123.4</ele>
        <time>2022-06-19T09:48:17Z</time>
      </trkpt>
      <trkpt lat="42.8215280" lon="-8.6140950">
        <ele>123.4</ele>
        <time>2022-06-19T09:48:18Z</time>
      </trkpt>
      <trkpt lat="42.8215260" lon="-8.6140660">
        <ele>123.4</ele>
        <time>2022-06-19T09:48:19Z</time>
      </trkpt>
      <trkpt lat="42.8215250" lon="-8.6140360">
        <ele>123.4</ele>
        <time>2022-06-19T09:48:20Z</time>
      </trkpt>
      <trkpt lat="42.8215200" lon="-8.6140030">
        <ele>123.6</ele>
        <time>2022-06-19T09:48:21Z</time>
      </trkpt>
      <trkpt lat="42.8215150" lon="-8.6139700">
        <ele>123.6</ele>
        <time>2022-06-19T09:48:22Z</time>
      </trkpt>
      <trkpt lat="42.8215080" lon="-8.6139360">
        <ele>123.6</ele>
        <time>2022-06-19T09:48:23Z</time>
      </trkpt>
      <trkpt lat="42.8215030" lon="-8.6139060">
        <ele>123.6</ele>
        <time>2022-06-19T09:48:24Z</time>
      </trkpt>
      <trkpt lat="42.8214980" lon="-8.6138750">
        <ele>123.8</ele>
        <time>2022-06-19T09:48:25Z</time>
      </trkpt>
      <trkpt lat="42.8214950" lon="-8.6138430">
        <ele>123.8</ele>
        <time>2022-06-19T09:48:26Z</time>
      </trkpt>
      <trkpt lat="42.8214930" lon="-8.6138080">
        <ele>123.8</ele>
        <time>2022-06-19T09:48:27Z</time>
      </trkpt>
      <trkpt lat="42.8214950" lon="-8.6137710">
        <ele>124.4</ele>
        <time>2022-06-19T09:48:28Z</time>
      </trkpt>
      <trkpt lat="42.8214960" lon="-8.6137400">
        <ele>123.8</ele>
        <time>2022-06-19T09:48:29Z</time>
      </trkpt>
      <trkpt lat="42.8214960" lon="-8.6137080">
        <ele>123.8</ele>
        <time>2022-06-19T09:48:30Z</time>
      </trkpt>
      <trkpt lat="42.8215010" lon="-8.6136810">
        <ele>123.8</ele>
        <time>2022-06-19T09:48:31Z</time>
      </trkpt>
      <trkpt lat="42.8215110" lon="-8.6136550">
        <ele>124.0</ele>
        <time>2022-06-19T09:48:32Z</time>
      </trkpt>
      <trkpt lat="42.8215280" lon="-8.6136280">
        <ele>124.2</ele>
        <time>2022-06-19T09:48:33Z</time>
      </trkpt>
      <trkpt lat="42.8215460" lon="-8.6136010">
        <ele>124.2</ele>
        <time>2022-06-19T09:48:34Z</time>
      </trkpt>
      <trkpt lat="42.8215650" lon="-8.6135710">
        <ele>124.2</ele>
        <time>2022-06-19T09:48:35Z</time>
      </trkpt>
      <trkpt lat="42.8215830" lon="-8.6135430">
        <ele>124.2</ele>
        <time>2022-06-19T09:48:36Z</time>
      </trkpt>
      <trkpt lat="42.8216000" lon="-8.6135130">
        <ele>124.0</ele>
        <time>2022-06-19T09:48:37Z</time>
      </trkpt>
      <trkpt lat="42.8216200" lon="-8.6134830">
        <ele>124.0</ele>
        <time>2022-06-19T09:48:38Z</time>
      </trkpt>
      <trkpt lat="42.8216400" lon="-8.6134500">
        <ele>124.0</ele>
        <time>2022-06-19T09:48:39Z</time>
      </trkpt>
      <trkpt lat="42.8216610" lon="-8.6134180">
        <ele>124.0</ele>
        <time>2022-06-19T09:48:40Z</time>
      </trkpt>
      <trkpt lat="42.8216810" lon="-8.6133900">
        <ele>123.2</ele>
        <time>2022-06-19T09:48:41Z</time>
      </trkpt>
      <trkpt lat="42.8217030" lon="-8.6133630">
        <ele>123.2</ele>
        <time>2022-06-19T09:48:42Z</time>
      </trkpt>
      <trkpt lat="42.8217250" lon="-8.6133380">
        <ele>123.2</ele>
        <time>2022-06-19T09:48:43Z</time>
      </trkpt>
      <trkpt lat="42.8217460" lon="-8.6133100">
        <ele>123.4</ele>
        <time>2022-06-19T09:48:44Z</time>
      </trkpt>
      <trkpt lat="42.8217650" lon="-8.6132810">
        <ele>123.8</ele>
        <time>2022-06-19T09:48:45Z</time>
      </trkpt>
      <trkpt lat="42.8217860" lon="-8.6132560">
        <ele>123.8</ele>
        <time>2022-06-19T09:48:46Z</time>
      </trkpt>
      <trkpt lat="42.8218110" lon="-8.6132330">
        <ele>123.8</ele>
        <time>2022-06-19T09:48:47Z</time>
      </trkpt>
      <trkpt lat="42.8218380" lon="-8.6132060">
        <ele>123.8</ele>
        <time>2022-06-19T09:48:48Z</time>
      </trkpt>
      <trkpt lat="42.8218630" lon="-8.6131810">
        <ele>124.4</ele>
        <time>2022-06-19T09:48:49Z</time>
      </trkpt>
      <trkpt lat="42.8218860" lon="-8.6131560">
        <ele>124.4</ele>
        <time>2022-06-19T09:48:50Z</time>
      </trkpt>
      <trkpt lat="42.8219130" lon="-8.6131330">
        <ele>124.4</ele>
        <time>2022-06-19T09:48:51Z</time>
      </trkpt>
      <trkpt lat="42.8219380" lon="-8.6131110">
        <ele>124.4</ele>
        <time>2022-06-19T09:48:52Z</time>
      </trkpt>
      <trkpt lat="42.8219600" lon="-8.6130860">
        <ele>125.4</ele>
        <time>2022-06-19T09:48:53Z</time>
      </trkpt>
      <trkpt lat="42.8219850" lon="-8.6130600">
        <ele>125.4</ele>
        <time>2022-06-19T09:48:54Z</time>
      </trkpt>
      <trkpt lat="42.8220100" lon="-8.6130330">
        <ele>125.4</ele>
        <time>2022-06-19T09:48:55Z</time>
      </trkpt>
      <trkpt lat="42.8220350" lon="-8.6130050">
        <ele>125.4</ele>
        <time>2022-06-19T09:48:56Z</time>
      </trkpt>
      <trkpt lat="42.8220580" lon="-8.6129760">
        <ele>125.4</ele>
        <time>2022-06-19T09:48:57Z</time>
      </trkpt>
      <trkpt lat="42.8220850" lon="-8.6129500">
        <ele>125.4</ele>
        <time>2022-06-19T09:48:58Z</time>
      </trkpt>
      <trkpt lat="42.8221130" lon="-8.6129210">
        <ele>125.4</ele>
        <time>2022-06-19T09:48:59Z</time>
      </trkpt>
      <trkpt lat="42.8221410" lon="-8.6128930">
        <ele>125.4</ele>
        <time>2022-06-19T09:49:00Z</time>
      </trkpt>
      <trkpt lat="42.8221680" lon="-8.6128680">
        <ele>123.8</ele>
        <time>2022-06-19T09:49:01Z</time>
      </trkpt>
      <trkpt lat="42.8221930" lon="-8.6128450">
        <ele>123.8</ele>
        <time>2022-06-19T09:49:02Z</time>
      </trkpt>
      <trkpt lat="42.8222200" lon="-8.6128180">
        <ele>123.8</ele>
        <time>2022-06-19T09:49:03Z</time>
      </trkpt>
      <trkpt lat="42.8222460" lon="-8.6127910">
        <ele>123.8</ele>
        <time>2022-06-19T09:49:04Z</time>
      </trkpt>
      <trkpt lat="42.8222710" lon="-8.6127630">
        <ele>124.6</ele>
        <time>2022-06-19T09:49:05Z</time>
      </trkpt>
      <trkpt lat="42.8222950" lon="-8.6127310">
        <ele>124.6</ele>
        <time>2022-06-19T09:49:06Z</time>
      </trkpt>
      <trkpt lat="42.8223210" lon="-8.6127030">
        <ele>124.6</ele>
        <time>2022-06-19T09:49:07Z</time>
      </trkpt>
      <trkpt lat="42.8223510" lon="-8.6126750">
        <ele>124.4</ele>
        <time>2022-06-19T09:49:08Z</time>
      </trkpt>
      <trkpt lat="42.8223800" lon="-8.6126460">
        <ele>123.4</ele>
        <time>2022-06-19T09:49:09Z</time>
      </trkpt>
      <trkpt lat="42.8224060" lon="-8.6126230">
        <ele>123.4</ele>
        <time>2022-06-19T09:49:10Z</time>
      </trkpt>
      <trkpt lat="42.8224350" lon="-8.6125980">
        <ele>123.4</ele>
        <time>2022-06-19T09:49:11Z</time>
      </trkpt>
      <trkpt lat="42.8224610" lon="-8.6125710">
        <ele>123.8</ele>
        <time>2022-06-19T09:49:12Z</time>
      </trkpt>
      <trkpt lat="42.8224900" lon="-8.6125460">
        <ele>124.0</ele>
        <time>2022-06-19T09:49:13Z</time>
      </trkpt>
      <trkpt lat="42.8225200" lon="-8.6125180">
        <ele>124.0</ele>
        <time>2022-06-19T09:49:14Z</time>
      </trkpt>
      <trkpt lat="42.8225500" lon="-8.6124900">
        <ele>124.0</ele>
        <time>2022-06-19T09:49:15Z</time>
      </trkpt>
      <trkpt lat="42.8225800" lon="-8.6124560">
        <ele>124.8</ele>
        <time>2022-06-19T09:49:16Z</time>
      </trkpt>
      <trkpt lat="42.8226100" lon="-8.6124200">
        <ele>124.6</ele>
        <time>2022-06-19T09:49:17Z</time>
      </trkpt>
      <trkpt lat="42.8226400" lon="-8.6123810">
        <ele>124.6</ele>
        <time>2022-06-19T09:49:18Z</time>
      </trkpt>
      <trkpt lat="42.8226610" lon="-8.6123430">
        <ele>124.6</ele>
        <time>2022-06-19T09:49:19Z</time>
      </trkpt>
      <trkpt lat="42.8226850" lon="-8.6123050">
        <ele>124.4</ele>
        <time>2022-06-19T09:49:20Z</time>
      </trkpt>
      <trkpt lat="42.8227060" lon="-8.6122660">
        <ele>123.8</ele>
        <time>2022-06-19T09:49:21Z</time>
      </trkpt>
      <trkpt lat="42.8227310" lon="-8.6122300">
        <ele>123.8</ele>
        <time>2022-06-19T09:49:22Z</time>
      </trkpt>
      <trkpt lat="42.8227530" lon="-8.6121910">
        <ele>123.8</ele>
        <time>2022-06-19T09:49:23Z</time>
      </trkpt>
      <trkpt lat="42.8227730" lon="-8.6121510">
        <ele>123.8</ele>
        <time>2022-06-19T09:49:24Z</time>
      </trkpt>
      <trkpt lat="42.8227960" lon="-8.6121110">
        <ele>124.2</ele>
        <time>2022-06-19T09:49:25Z</time>
      </trkpt>
      <trkpt lat="42.8228250" lon="-8.6120750">
        <ele>124.2</ele>
        <time>2022-06-19T09:49:26Z</time>
      </trkpt>
      <trkpt lat="42.8228510" lon="-8.6120410">
        <ele>124.2</ele>
        <time>2022-06-19T09:49:27Z</time>
      </trkpt>
      <trkpt lat="42.8228810" lon="-8.6120080">
        <ele>124.2</ele>
        <time>2022-06-19T09:49:28Z</time>
      </trkpt>
      <trkpt lat="42.8229130" lon="-8.6119760">
        <ele>123.6</ele>
        <time>2022-06-19T09:49:29Z</time>
      </trkpt>
      <trkpt lat="42.8229450" lon="-8.6119460">
        <ele>123.6</ele>
        <time>2022-06-19T09:49:30Z</time>
      </trkpt>
      <trkpt lat="42.8229780" lon="-8.6119180">
        <ele>123.6</ele>
        <time>2022-06-19T09:49:31Z</time>
      </trkpt>
      <trkpt lat="42.8230080" lon="-8.6118900">
        <ele>123.6</ele>
        <time>2022-06-19T09:49:32Z</time>
      </trkpt>
      <trkpt lat="42.8230350" lon="-8.6118580">
        <ele>122.6</ele>
        <time>2022-06-19T09:49:33Z</time>
      </trkpt>
      <trkpt lat="42.8230610" lon="-8.6118280">
        <ele>122.6</ele>
        <time>2022-06-19T09:49:34Z</time>
      </trkpt>
      <trkpt lat="42.8230910" lon="-8.6118000">
        <ele>122.6</ele>
        <time>2022-06-19T09:49:35Z</time>
      </trkpt>
      <trkpt lat="42.8231230" lon="-8.6117710">
        <ele>122.2</ele>
        <time>2022-06-19T09:49:36Z</time>
      </trkpt>
      <trkpt lat="42.8231510" lon="-8.6117460">
        <ele>122.6</ele>
        <time>2022-06-19T09:49:37Z</time>
      </trkpt>
      <trkpt lat="42.8231800" lon="-8.6117210">
        <ele>122.6</ele>
        <time>2022-06-19T09:49:38Z</time>
      </trkpt>
      <trkpt lat="42.8232050" lon="-8.6116930">
        <ele>122.6</ele>
        <time>2022-06-19T09:49:39Z</time>
      </trkpt>
      <trkpt lat="42.8232310" lon="-8.6116660">
        <ele>123.6</ele>
        <time>2022-06-19T09:49:40Z</time>
      </trkpt>
      <trkpt lat="42.8232580" lon="-8.6116400">
        <ele>123.8</ele>
        <time>2022-06-19T09:49:41Z</time>
      </trkpt>
      <trkpt lat="42.8232830" lon="-8.6116180">
        <ele>123.8</ele>
        <time>2022-06-19T09:49:42Z</time>
      </trkpt>
      <trkpt lat="42.8233030" lon="-8.6116010">
        <ele>123.8</ele>
        <time>2022-06-19T09:49:43Z</time>
      </trkpt>
      <trkpt lat="42.8233200" lon="-8.6115880">
        <ele>123.8</ele>
        <time>2022-06-19T09:49:44Z</time>
      </trkpt>
      <trkpt lat="42.8233350" lon="-8.6115800">
        <ele>123.8</ele>
        <time>2022-06-19T09:49:45Z</time>
      </trkpt>
      <trkpt lat="42.8233480" lon="-8.6115680">
        <ele>123.8</ele>
        <time>2022-06-19T09:49:46Z</time>
      </trkpt>
      <trkpt lat="42.8233630" lon="-8.6115530">
        <ele>123.8</ele>
        <time>2022-06-19T09:49:47Z</time>
      </trkpt>
      <trkpt lat="42.8233860" lon="-8.6115360">
        <ele>122.8</ele>
        <time>2022-06-19T09:49:48Z</time>
      </trkpt>
      <trkpt lat="42.8234110" lon="-8.6115180">
        <ele>121.8</ele>
        <time>2022-06-19T09:49:49Z</time>
      </trkpt>
      <trkpt lat="42.8234460" lon="-8.6115060">
        <ele>121.8</ele>
        <time>2022-06-19T09:49:50Z</time>
      </trkpt>
      <trkpt lat="42.8234830" lon="-8.6114960">
        <ele>121.8</ele>
        <time>2022-06-19T09:49:51Z</time>
      </trkpt>
      <trkpt lat="42.8235200" lon="-8.6114850">
        <ele>121.8</ele>
        <time>2022-06-19T09:49:52Z</time>
      </trkpt>
      <trkpt lat="42.8235610" lon="-8.6114700">
        <ele>121.6</ele>
        <time>2022-06-19T09:49:53Z</time>
      </trkpt>
      <trkpt lat="42.8236010" lon="-8.6114530">
        <ele>121.6</ele>
        <time>2022-06-19T09:49:54Z</time>
      </trkpt>
      <trkpt lat="42.8236450" lon="-8.6114330">
        <ele>121.6</ele>
        <time>2022-06-19T09:49:55Z</time>
      </trkpt>
      <trkpt lat="42.8236900" lon="-8.6114030">
        <ele>120.6</ele>
        <time>2022-06-19T09:49:56Z</time>
      </trkpt>
      <trkpt lat="42.8237360" lon="-8.6113680">
        <ele>120.8</ele>
        <time>2022-06-19T09:49:57Z</time>
      </trkpt>
      <trkpt lat="42.8237900" lon="-8.6113380">
        <ele>120.8</ele>
        <time>2022-06-19T09:49:58Z</time>
      </trkpt>
      <trkpt lat="42.8238450" lon="-8.6113110">
        <ele>120.8</ele>
        <time>2022-06-19T09:49:59Z</time>
      </trkpt>
      <trkpt lat="42.8238960" lon="-8.6112760">
        <ele>119.8</ele>
        <time>2022-06-19T09:50:00Z</time>
      </trkpt>
      <trkpt lat="42.8239480" lon="-8.6112430">
        <ele>119.0</ele>
        <time>2022-06-19T09:50:01Z</time>
      </trkpt>
      <trkpt lat="42.8240000" lon="-8.6112110">
        <ele>119.0</ele>
        <time>2022-06-19T09:50:02Z</time>
      </trkpt>
      <trkpt lat="42.8240530" lon="-8.6111810">
        <ele>119.0</ele>
        <time>2022-06-19T09:50:03Z</time>
      </trkpt>
      <trkpt lat="42.8241060" lon="-8.6111550">
        <ele>119.0</ele>
        <time>2022-06-19T09:50:04Z</time>
      </trkpt>
      <trkpt lat="42.8241600" lon="-8.6111260">
        <ele>119.8</ele>
        <time>2022-06-19T09:50:05Z</time>
      </trkpt>
      <trkpt lat="42.8242100" lon="-8.6110950">
        <ele>119.8</ele>
        <time>2022-06-19T09:50:06Z</time>
      </trkpt>
      <trkpt lat="42.8242600" lon="-8.6110680">
        <ele>119.8</ele>
        <time>2022-06-19T09:50:07Z</time>
      </trkpt>
      <trkpt lat="42.8243130" lon="-8.6110410">
        <ele>119.8</ele>
        <time>2022-06-19T09:50:08Z</time>
      </trkpt>
      <trkpt lat="42.8243660" lon="-8.6110150">
        <ele>119.0</ele>
        <time>2022-06-19T09:50:09Z</time>
      </trkpt>
      <trkpt lat="42.8244160" lon="-8.6109860">
        <ele>119.0</ele>
        <time>2022-06-19T09:50:10Z</time>
      </trkpt>
      <trkpt lat="42.8244700" lon="-8.6109610">
        <ele>119.0</ele>
        <time>2022-06-19T09:50:11Z</time>
      </trkpt>
      <trkpt lat="42.8245210" lon="-8.6109380">
        <ele>118.0</ele>
        <time>2022-06-19T09:50:12Z</time>
      </trkpt>
      <trkpt lat="42.8245730" lon="-8.6109200">
        <ele>117.2</ele>
        <time>2022-06-19T09:50:13Z</time>
      </trkpt>
      <trkpt lat="42.8246230" lon="-8.6109060">
        <ele>117.2</ele>
        <time>2022-06-19T09:50:14Z</time>
      </trkpt>
      <trkpt lat="42.8246710" lon="-8.6108960">
        <ele>117.2</ele>
        <time>2022-06-19T09:50:15Z</time>
      </trkpt>
      <trkpt lat="42.8247200" lon="-8.6108900">
        <ele>118.0</ele>
        <time>2022-06-19T09:50:16Z</time>
      </trkpt>
      <trkpt lat="42.8247660" lon="-8.6108830">
        <ele>117.8</ele>
        <time>2022-06-19T09:50:17Z</time>
      </trkpt>
      <trkpt lat="42.8248110" lon="-8.6108810">
        <ele>117.8</ele>
        <time>2022-06-19T09:50:18Z</time>
      </trkpt>
      <trkpt lat="42.8248600" lon="-8.6108810">
        <ele>117.8</ele>
        <time>2022-06-19T09:50:19Z</time>
      </trkpt>
      <trkpt lat="42.8249060" lon="-8.6108830">
        <ele>117.8</ele>
        <time>2022-06-19T09:50:20Z</time>
      </trkpt>
      <trkpt lat="42.8249530" lon="-8.6108850">
        <ele>118.4</ele>
        <time>2022-06-19T09:50:21Z</time>
      </trkpt>
      <trkpt lat="42.8249980" lon="-8.6108860">
        <ele>118.4</ele>
        <time>2022-06-19T09:50:22Z</time>
      </trkpt>
      <trkpt lat="42.8250430" lon="-8.6108860">
        <ele>118.4</ele>
        <time>2022-06-19T09:50:23Z</time>
      </trkpt>
      <trkpt lat="42.8250950" lon="-8.6108910">
        <ele>117.6</ele>
        <time>2022-06-19T09:50:24Z</time>
      </trkpt>
      <trkpt lat="42.8251450" lon="-8.6108960">
        <ele>117.2</ele>
        <time>2022-06-19T09:50:25Z</time>
      </trkpt>
      <trkpt lat="42.8251980" lon="-8.6109030">
        <ele>117.2</ele>
        <time>2022-06-19T09:50:26Z</time>
      </trkpt>
      <trkpt lat="42.8252500" lon="-8.6109080">
        <ele>117.2</ele>
        <time>2022-06-19T09:50:27Z</time>
      </trkpt>
      <trkpt lat="42.8253050" lon="-8.6109150">
        <ele>116.4</ele>
        <time>2022-06-19T09:50:28Z</time>
      </trkpt>
      <trkpt lat="42.8253580" lon="-8.6109260">
        <ele>117.0</ele>
        <time>2022-06-19T09:50:29Z</time>
      </trkpt>
      <trkpt lat="42.8254110" lon="-8.6109400">
        <ele>117.0</ele>
        <time>2022-06-19T09:50:30Z</time>
      </trkpt>
      <trkpt lat="42.8254660" lon="-8.6109550">
        <ele>117.0</ele>
        <time>2022-06-19T09:50:31Z</time>
      </trkpt>
      <trkpt lat="42.8255200" lon="-8.6109700">
        <ele>117.0</ele>
        <time>2022-06-19T09:50:32Z</time>
      </trkpt>
      <trkpt lat="42.8255750" lon="-8.6109850">
        <ele>116.6</ele>
        <time>2022-06-19T09:50:33Z</time>
      </trkpt>
      <trkpt lat="42.8256280" lon="-8.6110000">
        <ele>116.6</ele>
        <time>2022-06-19T09:50:34Z</time>
      </trkpt>
      <trkpt lat="42.8256760" lon="-8.6110130">
        <ele>116.6</ele>
        <time>2022-06-19T09:50:35Z</time>
      </trkpt>
      <trkpt lat="42.8257250" lon="-8.6110260">
        <ele>116.2</ele>
        <time>2022-06-19T09:50:36Z</time>
      </trkpt>
      <trkpt lat="42.8257730" lon="-8.6110410">
        <ele>115.8</ele>
        <time>2022-06-19T09:50:37Z</time>
      </trkpt>
      <trkpt lat="42.8258210" lon="-8.6110600">
        <ele>115.8</ele>
        <time>2022-06-19T09:50:38Z</time>
      </trkpt>
      <trkpt lat="42.8258660" lon="-8.6110780">
        <ele>115.8</ele>
        <time>2022-06-19T09:50:39Z</time>
      </trkpt>
      <trkpt lat="42.8259110" lon="-8.6111000">
        <ele>116.4</ele>
        <time>2022-06-19T09:50:40Z</time>
      </trkpt>
      <trkpt lat="42.8259530" lon="-8.6111200">
        <ele>116.0</ele>
        <time>2022-06-19T09:50:41Z</time>
      </trkpt>
      <trkpt lat="42.8259960" lon="-8.6111350">
        <ele>116.0</ele>
        <time>2022-06-19T09:50:42Z</time>
      </trkpt>
      <trkpt lat="42.8260410" lon="-8.6111430">
        <ele>116.0</ele>
        <time>2022-06-19T09:50:43Z</time>
      </trkpt>
      <trkpt lat="42.8260810" lon="-8.6111360">
        <ele>116.4</ele>
        <time>2022-06-19T09:50:44Z</time>
      </trkpt>
      <trkpt lat="42.8261130" lon="-8.6111150">
        <ele>116.8</ele>
        <time>2022-06-19T09:50:45Z</time>
      </trkpt>
      <trkpt lat="42.8261330" lon="-8.6110850">
        <ele>116.8</ele>
        <time>2022-06-19T09:50:46Z</time>
      </trkpt>
      <trkpt lat="42.8261500" lon="-8.6110510">
        <ele>116.8</ele>
        <time>2022-06-19T09:50:47Z</time>
      </trkpt>
      <trkpt lat="42.8261710" lon="-8.6110200">
        <ele>117.2</ele>
        <time>2022-06-19T09:50:48Z</time>
      </trkpt>
      <trkpt lat="42.8262000" lon="-8.6109910">
        <ele>116.6</ele>
        <time>2022-06-19T09:50:49Z</time>
      </trkpt>
      <trkpt lat="42.8262330" lon="-8.6109650">
        <ele>116.6</ele>
        <time>2022-06-19T09:50:50Z</time>
      </trkpt>
      <trkpt lat="42.8262710" lon="-8.6109450">
        <ele>116.6</ele>
        <time>2022-06-19T09:50:51Z</time>
      </trkpt>
      <trkpt lat="42.8263080" lon="-8.6109330">
        <ele>116.6</ele>
        <time>2022-06-19T09:50:52Z</time>
      </trkpt>
      <trkpt lat="42.8263450" lon="-8.6109210">
        <ele>116.4</ele>
        <time>2022-06-19T09:50:53Z</time>
      </trkpt>
      <trkpt lat="42.8263800" lon="-8.6109110">
        <ele>116.4</ele>
        <time>2022-06-19T09:50:54Z</time>
      </trkpt>
      <trkpt lat="42.8264130" lon="-8.6109000">
        <ele>116.4</ele>
        <time>2022-06-19T09:50:55Z</time>
      </trkpt>
      <trkpt lat="42.8264430" lon="-8.6108950">
        <ele>117.0</ele>
        <time>2022-06-19T09:50:56Z</time>
      </trkpt>
      <trkpt lat="42.8264730" lon="-8.6108880">
        <ele>117.0</ele>
        <time>2022-06-19T09:50:57Z</time>
      </trkpt>
      <trkpt lat="42.8265080" lon="-8.6108850">
        <ele>117.0</ele>
        <time>2022-06-19T09:50:58Z</time>
      </trkpt>
      <trkpt lat="42.8265410" lon="-8.6108830">
        <ele>117.0</ele>
        <time>2022-06-19T09:50:59Z</time>
      </trkpt>
      <trkpt lat="42.8265750" lon="-8.6108830">
        <ele>117.4</ele>
        <time>2022-06-19T09:51:00Z</time>
      </trkpt>
      <trkpt lat="42.8266050" lon="-8.6108850">
        <ele>118.0</ele>
        <time>2022-06-19T09:51:01Z</time>
      </trkpt>
      <trkpt lat="42.8266360" lon="-8.6108850">
        <ele>118.0</ele>
        <time>2022-06-19T09:51:02Z</time>
      </trkpt>
      <trkpt lat="42.8266610" lon="-8.6108850">
        <ele>118.0</ele>
        <time>2022-06-19T09:51:03Z</time>
      </trkpt>
      <trkpt lat="42.8266850" lon="-8.6108900">
        <ele>118.4</ele>
        <time>2022-06-19T09:51:04Z</time>
      </trkpt>
      <trkpt lat="42.8267080" lon="-8.6108910">
        <ele>119.2</ele>
        <time>2022-06-19T09:51:05Z</time>
      </trkpt>
      <trkpt lat="42.8267300" lon="-8.6108900">
        <ele>119.2</ele>
        <time>2022-06-19T09:51:06Z</time>
      </trkpt>
      <trkpt lat="42.8267510" lon="-8.6108830">
        <ele>119.2</ele>
        <time>2022-06-19T09:51:07Z</time>
      </trkpt>
      <trkpt lat="42.8267730" lon="-8.6108730">
        <ele>120.0</ele>
        <time>2022-06-19T09:51:08Z</time>
      </trkpt>
      <trkpt lat="42.8267950" lon="-8.6108660">
        <ele>120.0</ele>
        <time>2022-06-19T09:51:09Z</time>
      </trkpt>
      <trkpt lat="42.8268150" lon="-8.6108580">
        <ele>120.0</ele>
        <time>2022-06-19T09:51:10Z</time>
      </trkpt>
      <trkpt lat="42.8268310" lon="-8.6108510">
        <ele>120.0</ele>
        <time>2022-06-19T09:51:11Z</time>
      </trkpt>
      <trkpt lat="42.8268480" lon="-8.6108430">
        <ele>120.8</ele>
        <time>2022-06-19T09:51:12Z</time>
      </trkpt>
      <trkpt lat="42.8268660" lon="-8.6108330">
        <ele>120.8</ele>
        <time>2022-06-19T09:51:13Z</time>
      </trkpt>
      <trkpt lat="42.8268830" lon="-8.6108210">
        <ele>120.8</ele>
        <time>2022-06-19T09:51:14Z</time>
      </trkpt>
      <trkpt lat="42.8269010" lon="-8.6108110">
        <ele>120.8</ele>
        <time>2022-06-19T09:51:15Z</time>
      </trkpt>
      <trkpt lat="42.8269200" lon="-8.6108010">
        <ele>121.4</ele>
        <time>2022-06-19T09:51:16Z</time>
      </trkpt>
      <trkpt lat="42.8269380" lon="-8.6107930">
        <ele>122.0</ele>
        <time>2022-06-19T09:51:17Z</time>
      </trkpt>
      <trkpt lat="42.8269580" lon="-8.6107850">
        <ele>122.0</ele>
        <time>2022-06-19T09:51:18Z</time>
      </trkpt>
      <trkpt lat="42.8269780" lon="-8.6107760">
        <ele>122.0</ele>
        <time>2022-06-19T09:51:19Z</time>
      </trkpt>
      <trkpt lat="42.8269950" lon="-8.6107680">
        <ele>122.0</ele>
        <time>2022-06-19T09:51:20Z</time>
      </trkpt>
      <trkpt lat="42.8270150" lon="-8.6107600">
        <ele>122.2</ele>
        <time>2022-06-19T09:51:21Z</time>
      </trkpt>
      <trkpt lat="42.8270360" lon="-8.6107530">
        <ele>122.2</ele>
        <time>2022-06-19T09:51:22Z</time>
      </trkpt>
      <trkpt lat="42.8270580" lon="-8.6107480">
        <ele>122.2</ele>
        <time>2022-06-19T09:51:23Z</time>
      </trkpt>
      <trkpt lat="42.8270800" lon="-8.6107400">
        <ele>122.8</ele>
        <time>2022-06-19T09:51:24Z</time>
      </trkpt>
      <trkpt lat="42.8271000" lon="-8.6107310">
        <ele>122.6</ele>
        <time>2022-06-19T09:51:25Z</time>
      </trkpt>
      <trkpt lat="42.8271210" lon="-8.6107210">
        <ele>122.6</ele>
        <time>2022-06-19T09:51:26Z</time>
      </trkpt>
      <trkpt lat="42.8271400" lon="-8.6107080">
        <ele>122.6</ele>
        <time>2022-06-19T09:51:27Z</time>
      </trkpt>
      <trkpt lat="42.8271600" lon="-8.6106930">
        <ele>123.0</ele>
        <time>2022-06-19T09:51:28Z</time>
      </trkpt>
      <trkpt lat="42.8271800" lon="-8.6106800">
        <ele>123.4</ele>
        <time>2022-06-19T09:51:29Z</time>
      </trkpt>
      <trkpt lat="42.8272000" lon="-8.6106630">
        <ele>123.4</ele>
        <time>2022-06-19T09:51:30Z</time>
      </trkpt>
      <trkpt lat="42.8272180" lon="-8.6106430">
        <ele>123.4</ele>
        <time>2022-06-19T09:51:31Z</time>
      </trkpt>
      <trkpt lat="42.8272330" lon="-8.6106180">
        <ele>123.8</ele>
        <time>2022-06-19T09:51:32Z</time>
      </trkpt>
      <trkpt lat="42.8272510" lon="-8.6105900">
        <ele>123.6</ele>
        <time>2022-06-19T09:51:33Z</time>
      </trkpt>
      <trkpt lat="42.8272700" lon="-8.6105600">
        <ele>123.6</ele>
        <time>2022-06-19T09:51:34Z</time>
      </trkpt>
      <trkpt lat="42.8272880" lon="-8.6105350">
        <ele>123.6</ele>
        <time>2022-06-19T09:51:35Z</time>
      </trkpt>
      <trkpt lat="42.8273050" lon="-8.6105080">
        <ele>123.8</ele>
        <time>2022-06-19T09:51:36Z</time>
      </trkpt>
      <trkpt lat="42.8273230" lon="-8.6104810">
        <ele>123.4</ele>
        <time>2022-06-19T09:51:37Z</time>
      </trkpt>
      <trkpt lat="42.8273460" lon="-8.6104580">
        <ele>123.4</ele>
        <time>2022-06-19T09:51:38Z</time>
      </trkpt>
      <trkpt lat="42.8273730" lon="-8.6104400">
        <ele>123.4</ele>
        <time>2022-06-19T09:51:39Z</time>
      </trkpt>
      <trkpt lat="42.8273980" lon="-8.6104280">
        <ele>123.4</ele>
        <time>2022-06-19T09:51:40Z</time>
      </trkpt>
      <trkpt lat="42.8274260" lon="-8.6104180">
        <ele>124.4</ele>
        <time>2022-06-19T09:51:41Z</time>
      </trkpt>
      <trkpt lat="42.8274550" lon="-8.6104110">
        <ele>124.4</ele>
        <time>2022-06-19T09:51:42Z</time>
      </trkpt>
      <trkpt lat="42.8274850" lon="-8.6104010">
        <ele>124.4</ele>
        <time>2022-06-19T09:51:43Z</time>
      </trkpt>
      <trkpt lat="42.8275130" lon="-8.6103880">
        <ele>123.4</ele>
        <time>2022-06-19T09:51:44Z</time>
      </trkpt>
      <trkpt lat="42.8275430" lon="-8.6103800">
        <ele>122.8</ele>
        <time>2022-06-19T09:51:45Z</time>
      </trkpt>
      <trkpt lat="42.8275730" lon="-8.6103660">
        <ele>122.8</ele>
        <time>2022-06-19T09:51:46Z</time>
      </trkpt>
      <trkpt lat="42.8276050" lon="-8.6103530">
        <ele>122.8</ele>
        <time>2022-06-19T09:51:47Z</time>
      </trkpt>
      <trkpt lat="42.8276360" lon="-8.6103410">
        <ele>123.4</ele>
        <time>2022-06-19T09:51:48Z</time>
      </trkpt>
      <trkpt lat="42.8276680" lon="-8.6103310">
        <ele>123.2</ele>
        <time>2022-06-19T09:51:49Z</time>
      </trkpt>
      <trkpt lat="42.8277000" lon="-8.6103210">
        <ele>123.2</ele>
        <time>2022-06-19T09:51:50Z</time>
      </trkpt>
      <trkpt lat="42.8277300" lon="-8.6103130">
        <ele>123.2</ele>
        <time>2022-06-19T09:51:51Z</time>
      </trkpt>
      <trkpt lat="42.8277600" lon="-8.6103050">
        <ele>122.2</ele>
        <time>2022-06-19T09:51:52Z</time>
      </trkpt>
      <trkpt lat="42.8277910" lon="-8.6102960">
        <ele>122.0</ele>
        <time>2022-06-19T09:51:53Z</time>
      </trkpt>
      <trkpt lat="42.8278200" lon="-8.6102910">
        <ele>122.0</ele>
        <time>2022-06-19T09:51:54Z</time>
      </trkpt>
      <trkpt lat="42.8278480" lon="-8.6102880">
        <ele>122.0</ele>
        <time>2022-06-19T09:51:55Z</time>
      </trkpt>
      <trkpt lat="42.8278760" lon="-8.6102850">
        <ele>122.0</ele>
        <time>2022-06-19T09:51:56Z</time>
      </trkpt>
      <trkpt lat="42.8279030" lon="-8.6102780">
        <ele>122.6</ele>
        <time>2022-06-19T09:51:57Z</time>
      </trkpt>
      <trkpt lat="42.8279260" lon="-8.6102660">
        <ele>122.6</ele>
        <time>2022-06-19T09:51:58Z</time>
      </trkpt>
      <trkpt lat="42.8279480" lon="-8.6102510">
        <ele>122.6</ele>
        <time>2022-06-19T09:51:59Z</time>
      </trkpt>
      <trkpt lat="42.8279710" lon="-8.6102360">
        <ele>122.6</ele>
        <time>2022-06-19T09:52:00Z</time>
      </trkpt>
      <trkpt lat="42.8279950" lon="-8.6102200">
        <ele>122.8</ele>
        <time>2022-06-19T09:52:01Z</time>
      </trkpt>
      <trkpt lat="42.8280160" lon="-8.6102000">
        <ele>122.8</ele>
        <time>2022-06-19T09:52:02Z</time>
      </trkpt>
      <trkpt lat="42.8280360" lon="-8.6101810">
        <ele>122.8</ele>
        <time>2022-06-19T09:52:03Z</time>
      </trkpt>
      <trkpt lat="42.8280560" lon="-8.6101600">
        <ele>122.6</ele>
        <time>2022-06-19T09:52:04Z</time>
      </trkpt>
      <trkpt lat="42.8280780" lon="-8.6101380">
        <ele>122.2</ele>
        <time>2022-06-19T09:52:05Z</time>
      </trkpt>
      <trkpt lat="42.8281010" lon="-8.6101160">
        <ele>122.2</ele>
        <time>2022-06-19T09:52:06Z</time>
      </trkpt>
      <trkpt lat="42.8281250" lon="-8.6100900">
        <ele>122.2</ele>
        <time>2022-06-19T09:52:07Z</time>
      </trkpt>
      <trkpt lat="42.8281430" lon="-8.6100600">
        <ele>122.2</ele>
        <time>2022-06-19T09:52:08Z</time>
      </trkpt>
      <trkpt lat="42.8281610" lon="-8.6100300">
        <ele>122.0</ele>
        <time>2022-06-19T09:52:09Z</time>
      </trkpt>
      <trkpt lat="42.8281800" lon="-8.6099960">
        <ele>122.0</ele>
        <time>2022-06-19T09:52:10Z</time>
      </trkpt>
      <trkpt lat="42.8281930" lon="-8.6099580">
        <ele>122.0</ele>
        <time>2022-06-19T09:52:11Z</time>
      </trkpt>
      <trkpt lat="42.8282050" lon="-8.6099160">
        <ele>122.0</ele>
        <time>2022-06-19T09:52:12Z</time>
      </trkpt>
      <trkpt lat="42.8282150" lon="-8.6098750">
        <ele>122.6</ele>
        <time>2022-06-19T09:52:13Z</time>
      </trkpt>
      <trkpt lat="42.8282280" lon="-8.6098380">
        <ele>122.6</ele>
        <time>2022-06-19T09:52:14Z</time>
      </trkpt>
      <trkpt lat="42.8282410" lon="-8.6098000">
        <ele>122.6</ele>
        <time>2022-06-19T09:52:15Z</time>
      </trkpt>
      <trkpt lat="42.8282500" lon="-8.6097700">
        <ele>122.0</ele>
        <time>2022-06-19T09:52:16Z</time>
      </trkpt>
      <trkpt lat="42.8282530" lon="-8.6097410">
        <ele>121.4</ele>
        <time>2022-06-19T09:52:17Z</time>
      </trkpt>
      <trkpt lat="42.8282600" lon="-8.6097060">
        <ele>121.4</ele>
        <time>2022-06-19T09:52:18Z</time>
      </trkpt>
      <trkpt lat="42.8282680" lon="-8.6096710">
        <ele>121.4</ele>
        <time>2022-06-19T09:52:19Z</time>
      </trkpt>
      <trkpt lat="42.8282750" lon="-8.6096380">
        <ele>122.4</ele>
        <time>2022-06-19T09:52:20Z</time>
      </trkpt>
      <trkpt lat="42.8282800" lon="-8.6096060">
        <ele>122.2</ele>
        <time>2022-06-19T09:52:21Z</time>
      </trkpt>
      <trkpt lat="42.8282850" lon="-8.6095750">
        <ele>122.2</ele>
        <time>2022-06-19T09:52:22Z</time>
      </trkpt>
      <trkpt lat="42.8282910" lon="-8.6095400">
        <ele>122.2</ele>
        <time>2022-06-19T09:52:23Z</time>
      </trkpt>
      <trkpt lat="42.8282980" lon="-8.6095010">
        <ele>122.2</ele>
        <time>2022-06-19T09:52:24Z</time>
      </trkpt>
      <trkpt lat="42.8283050" lon="-8.6094630">
        <ele>122.8</ele>
        <time>2022-06-19T09:52:25Z</time>
      </trkpt>
      <trkpt lat="42.8283080" lon="-8.6094210">
        <ele>122.8</ele>
        <time>2022-06-19T09:52:26Z</time>
      </trkpt>
      <trkpt lat="42.8283060" lon="-8.6093750">
        <ele>122.8</ele>
        <time>2022-06-19T09:52:27Z</time>
      </trkpt>
      <trkpt lat="42.8283000" lon="-8.6093300">
        <ele>122.8</ele>
        <time>2022-06-19T09:52:28Z</time>
      </trkpt>
      <trkpt lat="42.8282930" lon="-8.6092880">
        <ele>122.6</ele>
        <time>2022-06-19T09:52:29Z</time>
      </trkpt>
      <trkpt lat="42.8282830" lon="-8.6092450">
        <ele>122.6</ele>
        <time>2022-06-19T09:52:30Z</time>
      </trkpt>
      <trkpt lat="42.8282730" lon="-8.6092030">
        <ele>122.6</ele>
        <time>2022-06-19T09:52:31Z</time>
      </trkpt>
      <trkpt lat="42.8282650" lon="-8.6091610">
        <ele>122.8</ele>
        <time>2022-06-19T09:52:32Z</time>
      </trkpt>
      <trkpt lat="42.8282560" lon="-8.6091200">
        <ele>122.4</ele>
        <time>2022-06-19T09:52:33Z</time>
      </trkpt>
      <trkpt lat="42.8282480" lon="-8.6090750">
        <ele>122.4</ele>
        <time>2022-06-19T09:52:34Z</time>
      </trkpt>
      <trkpt lat="42.8282360" lon="-8.6090360">
        <ele>122.4</ele>
        <time>2022-06-19T09:52:35Z</time>
      </trkpt>
      <trkpt lat="42.8282260" lon="-8.6089980">
        <ele>122.4</ele>
        <time>2022-06-19T09:52:36Z</time>
      </trkpt>
      <trkpt lat="42.8282200" lon="-8.6089630">
        <ele>123.2</ele>
        <time>2022-06-19T09:52:37Z</time>
      </trkpt>
      <trkpt lat="42.8282130" lon="-8.6089230">
        <ele>123.2</ele>
        <time>2022-06-19T09:52:38Z</time>
      </trkpt>
      <trkpt lat="42.8282080" lon="-8.6088830">
        <ele>123.2</ele>
        <time>2022-06-19T09:52:39Z</time>
      </trkpt>
      <trkpt lat="42.8282100" lon="-8.6088430">
        <ele>123.2</ele>
        <time>2022-06-19T09:52:40Z</time>
      </trkpt>
      <trkpt lat="42.8282160" lon="-8.6088050">
        <ele>123.2</ele>
        <time>2022-06-19T09:52:41Z</time>
      </trkpt>
      <trkpt lat="42.8282250" lon="-8.6087660">
        <ele>123.2</ele>
        <time>2022-06-19T09:52:42Z</time>
      </trkpt>
      <trkpt lat="42.8282410" lon="-8.6087430">
        <ele>123.2</ele>
        <time>2022-06-19T09:52:43Z</time>
      </trkpt>
      <trkpt lat="42.8282610" lon="-8.6087250">
        <ele>123.2</ele>
        <time>2022-06-19T09:52:44Z</time>
      </trkpt>
      <trkpt lat="42.8282830" lon="-8.6087030">
        <ele>123.4</ele>
        <time>2022-06-19T09:52:45Z</time>
      </trkpt>
      <trkpt lat="42.8283050" lon="-8.6086800">
        <ele>123.4</ele>
        <time>2022-06-19T09:52:46Z</time>
      </trkpt>
      <trkpt lat="42.8283250" lon="-8.6086660">
        <ele>123.4</ele>
        <time>2022-06-19T09:52:47Z</time>
      </trkpt>
      <trkpt lat="42.8283500" lon="-8.6086610">
        <ele>124.4</ele>
        <time>2022-06-19T09:52:48Z</time>
      </trkpt>
      <trkpt lat="42.8283630" lon="-8.6086480">
        <ele>123.8</ele>
        <time>2022-06-19T09:52:49Z</time>
      </trkpt>
      <trkpt lat="42.8283850" lon="-8.6086400">
        <ele>123.8</ele>
        <time>2022-06-19T09:52:50Z</time>
      </trkpt>
      <trkpt lat="42.8284010" lon="-8.6086280">
        <ele>123.8</ele>
        <time>2022-06-19T09:52:51Z</time>
      </trkpt>
      <trkpt lat="42.8284210" lon="-8.6086080">
        <ele>123.8</ele>
        <time>2022-06-19T09:52:52Z</time>
      </trkpt>
      <trkpt lat="42.8284360" lon="-8.6085860">
        <ele>124.4</ele>
        <time>2022-06-19T09:52:53Z</time>
      </trkpt>
      <trkpt lat="42.8284500" lon="-8.6085600">
        <ele>124.4</ele>
        <time>2022-06-19T09:52:54Z</time>
      </trkpt>
      <trkpt lat="42.8284660" lon="-8.6085380">
        <ele>124.4</ele>
        <time>2022-06-19T09:52:55Z</time>
      </trkpt>
      <trkpt lat="42.8284810" lon="-8.6085180">
        <ele>124.4</ele>
        <time>2022-06-19T09:52:56Z</time>
      </trkpt>
      <trkpt lat="42.8284980" lon="-8.6084910">
        <ele>125.4</ele>
        <time>2022-06-19T09:52:57Z</time>
      </trkpt>
      <trkpt lat="42.8285130" lon="-8.6084730">
        <ele>125.4</ele>
        <time>2022-06-19T09:52:58Z</time>
      </trkpt>
      <trkpt lat="42.8285260" lon="-8.6084550">
        <ele>125.4</ele>
        <time>2022-06-19T09:52:59Z</time>
      </trkpt>
      <trkpt lat="42.8285430" lon="-8.6084380">
        <ele>125.4</ele>
        <time>2022-06-19T09:53:00Z</time>
      </trkpt>
      <trkpt lat="42.8285580" lon="-8.6084210">
        <ele>126.0</ele>
        <time>2022-06-19T09:53:01Z</time>
      </trkpt>
      <trkpt lat="42.8285780" lon="-8.6083980">
        <ele>126.0</ele>
        <time>2022-06-19T09:53:02Z</time>
      </trkpt>
      <trkpt lat="42.8285910" lon="-8.6083750">
        <ele>126.0</ele>
        <time>2022-06-19T09:53:03Z</time>
      </trkpt>
      <trkpt lat="42.8286050" lon="-8.6083560">
        <ele>126.4</ele>
        <time>2022-06-19T09:53:04Z</time>
      </trkpt>
      <trkpt lat="42.8286210" lon="-8.6083310">
        <ele>126.4</ele>
        <time>2022-06-19T09:53:05Z</time>
      </trkpt>
      <trkpt lat="42.8286330" lon="-8.6083160">
        <ele>126.4</ele>
        <time>2022-06-19T09:53:06Z</time>
      </trkpt>
      <trkpt lat="42.8286500" lon="-8.6083010">
        <ele>126.4</ele>
        <time>2022-06-19T09:53:07Z</time>
      </trkpt>
      <trkpt lat="42.8286700" lon="-8.6082760">
        <ele>126.4</ele>
        <time>2022-06-19T09:53:08Z</time>
      </trkpt>
      <trkpt lat="42.8286830" lon="-8.6082630">
        <ele>127.0</ele>
        <time>2022-06-19T09:53:09Z</time>
      </trkpt>
      <trkpt lat="42.8286960" lon="-8.6082400">
        <ele>127.0</ele>
        <time>2022-06-19T09:53:10Z</time>
      </trkpt>
      <trkpt lat="42.8287130" lon="-8.6082210">
        <ele>127.0</ele>
        <time>2022-06-19T09:53:11Z</time>
      </trkpt>
      <trkpt lat="42.8287230" lon="-8.6082030">
        <ele>127.6</ele>
        <time>2022-06-19T09:53:12Z</time>
      </trkpt>
      <trkpt lat="42.8287280" lon="-8.6081800">
        <ele>127.4</ele>
        <time>2022-06-19T09:53:13Z</time>
      </trkpt>
      <trkpt lat="42.8287400" lon="-8.6081630">
        <ele>127.4</ele>
        <time>2022-06-19T09:53:14Z</time>
      </trkpt>
      <trkpt lat="42.8287500" lon="-8.6081450">
        <ele>127.4</ele>
        <time>2022-06-19T09:53:15Z</time>
      </trkpt>
      <trkpt lat="42.8287560" lon="-8.6081260">
        <ele>128.4</ele>
        <time>2022-06-19T09:53:16Z</time>
      </trkpt>
      <trkpt lat="42.8287630" lon="-8.6081050">
        <ele>128.8</ele>
        <time>2022-06-19T09:53:17Z</time>
      </trkpt>
      <trkpt lat="42.8287710" lon="-8.6080810">
        <ele>128.8</ele>
        <time>2022-06-19T09:53:18Z</time>
      </trkpt>
      <trkpt lat="42.8287830" lon="-8.6080660">
        <ele>128.8</ele>
        <time>2022-06-19T09:53:19Z</time>
      </trkpt>
      <trkpt lat="42.8287910" lon="-8.6080530">
        <ele>128.8</ele>
        <time>2022-06-19T09:53:20Z</time>
      </trkpt>
      <trkpt lat="42.8287980" lon="-8.6080430">
        <ele>129.8</ele>
        <time>2022-06-19T09:53:21Z</time>
      </trkpt>
      <trkpt lat="42.8288060" lon="-8.6080300">
        <ele>129.8</ele>
        <time>2022-06-19T09:53:22Z</time>
      </trkpt>
      <trkpt lat="42.8288050" lon="-8.6080110">
        <ele>129.8</ele>
        <time>2022-06-19T09:53:23Z</time>
      </trkpt>
      <trkpt lat="42.8288060" lon="-8.6079950">
        <ele>130.4</ele>
        <time>2022-06-19T09:53:24Z</time>
      </trkpt>
      <trkpt lat="42.8288110" lon="-8.6079730">
        <ele>130.2</ele>
        <time>2022-06-19T09:53:25Z</time>
      </trkpt>
      <trkpt lat="42.8288110" lon="-8.6079350">
        <ele>130.2</ele>
        <time>2022-06-19T09:53:26Z</time>
      </trkpt>
      <trkpt lat="42.8288100" lon="-8.6079050">
        <ele>130.2</ele>
        <time>2022-06-19T09:53:27Z</time>
      </trkpt>
      <trkpt lat="42.8288100" lon="-8.6078750">
        <ele>131.2</ele>
        <time>2022-06-19T09:53:28Z</time>
      </trkpt>
      <trkpt lat="42.8288210" lon="-8.6078430">
        <ele>131.6</ele>
        <time>2022-06-19T09:53:29Z</time>
      </trkpt>
      <trkpt lat="42.8288210" lon="-8.6078150">
        <ele>131.6</ele>
        <time>2022-06-19T09:53:30Z</time>
      </trkpt>
      <trkpt lat="42.8288310" lon="-8.6077860">
        <ele>131.6</ele>
        <time>2022-06-19T09:53:31Z</time>
      </trkpt>
      <trkpt lat="42.8288310" lon="-8.6077650">
        <ele>131.6</ele>
        <time>2022-06-19T09:53:32Z</time>
      </trkpt>
      <trkpt lat="42.8288260" lon="-8.6077360">
        <ele>133.0</ele>
        <time>2022-06-19T09:53:33Z</time>
      </trkpt>
      <trkpt lat="42.8288250" lon="-8.6077100">
        <ele>133.0</ele>
        <time>2022-06-19T09:53:34Z</time>
      </trkpt>
      <trkpt lat="42.8288250" lon="-8.6076880">
        <ele>133.0</ele>
        <time>2022-06-19T09:53:35Z</time>
      </trkpt>
      <trkpt lat="42.8288260" lon="-8.6076660">
        <ele>133.0</ele>
        <time>2022-06-19T09:53:36Z</time>
      </trkpt>
      <trkpt lat="42.8288230" lon="-8.6076450">
        <ele>133.0</ele>
        <time>2022-06-19T09:53:37Z</time>
      </trkpt>
      <trkpt lat="42.8288230" lon="-8.6076250">
        <ele>133.0</ele>
        <time>2022-06-19T09:53:38Z</time>
      </trkpt>
      <trkpt lat="42.8288210" lon="-8.6076030">
        <ele>133.0</ele>
        <time>2022-06-19T09:53:39Z</time>
      </trkpt>
      <trkpt lat="42.8288160" lon="-8.6075830">
        <ele>133.4</ele>
        <time>2022-06-19T09:53:40Z</time>
      </trkpt>
      <trkpt lat="42.8288180" lon="-8.6075610">
        <ele>134.0</ele>
        <time>2022-06-19T09:53:41Z</time>
      </trkpt>
      <trkpt lat="42.8288230" lon="-8.6075380">
        <ele>134.0</ele>
        <time>2022-06-19T09:53:42Z</time>
      </trkpt>
      <trkpt lat="42.8288260" lon="-8.6075130">
        <ele>134.0</ele>
        <time>2022-06-19T09:53:43Z</time>
      </trkpt>
      <trkpt lat="42.8288250" lon="-8.6074930">
        <ele>134.0</ele>
        <time>2022-06-19T09:53:44Z</time>
      </trkpt>
      <trkpt lat="42.8288210" lon="-8.6074750">
        <ele>134.0</ele>
        <time>2022-06-19T09:53:45Z</time>
      </trkpt>
      <trkpt lat="42.8288280" lon="-8.6074580">
        <ele>134.0</ele>
        <time>2022-06-19T09:53:46Z</time>
      </trkpt>
      <trkpt lat="42.8288360" lon="-8.6074310">
        <ele>134.0</ele>
        <time>2022-06-19T09:53:47Z</time>
      </trkpt>
      <trkpt lat="42.8288410" lon="-8.6074030">
        <ele>134.6</ele>
        <time>2022-06-19T09:53:48Z</time>
      </trkpt>
      <trkpt lat="42.8288430" lon="-8.6073830">
        <ele>134.8</ele>
        <time>2022-06-19T09:53:49Z</time>
      </trkpt>
      <trkpt lat="42.8288460" lon="-8.6073680">
        <ele>134.8</ele>
        <time>2022-06-19T09:53:50Z</time>
      </trkpt>
      <trkpt lat="42.8288510" lon="-8.6073500">
        <ele>134.8</ele>
        <time>2022-06-19T09:53:51Z</time>
      </trkpt>
      <trkpt lat="42.8288560" lon="-8.6073230">
        <ele>135.4</ele>
        <time>2022-06-19T09:53:52Z</time>
      </trkpt>
      <trkpt lat="42.8288600" lon="-8.6072930">
        <ele>135.6</ele>
        <time>2022-06-19T09:53:53Z</time>
      </trkpt>
      <trkpt lat="42.8288660" lon="-8.6072660">
        <ele>135.6</ele>
        <time>2022-06-19T09:53:54Z</time>
      </trkpt>
      <trkpt lat="42.8288730" lon="-8.6072400">
        <ele>135.6</ele>
        <time>2022-06-19T09:53:55Z</time>
      </trkpt>
      <trkpt lat="42.8288830" lon="-8.6072160">
        <ele>135.6</ele>
        <time>2022-06-19T09:53:56Z</time>
      </trkpt>
      <trkpt lat="42.8288880" lon="-8.6071930">
        <ele>135.6</ele>
        <time>2022-06-19T09:53:57Z</time>
      </trkpt>
      <trkpt lat="42.8288910" lon="-8.6071730">
        <ele>135.6</ele>
        <time>2022-06-19T09:53:58Z</time>
      </trkpt>
      <trkpt lat="42.8288960" lon="-8.6071530">
        <ele>135.6</ele>
        <time>2022-06-19T09:53:59Z</time>
      </trkpt>
      <trkpt lat="42.8289000" lon="-8.6071310">
        <ele>136.2</ele>
        <time>2022-06-19T09:54:00Z</time>
      </trkpt>
      <trkpt lat="42.8289060" lon="-8.6071050">
        <ele>136.4</ele>
        <time>2022-06-19T09:54:01Z</time>
      </trkpt>
      <trkpt lat="42.8289160" lon="-8.6070750">
        <ele>136.4</ele>
        <time>2022-06-19T09:54:02Z</time>
      </trkpt>
      <trkpt lat="42.8289230" lon="-8.6070500">
        <ele>136.4</ele>
        <time>2022-06-19T09:54:03Z</time>
      </trkpt>
      <trkpt lat="42.8289230" lon="-8.6070260">
        <ele>136.4</ele>
        <time>2022-06-19T09:54:04Z</time>
      </trkpt>
      <trkpt lat="42.8289260" lon="-8.6070000">
        <ele>136.6</ele>
        <time>2022-06-19T09:54:05Z</time>
      </trkpt>
      <trkpt lat="42.8289350" lon="-8.6069660">
        <ele>136.6</ele>
        <time>2022-06-19T09:54:06Z</time>
      </trkpt>
      <trkpt lat="42.8289410" lon="-8.6069400">
        <ele>136.6</ele>
        <time>2022-06-19T09:54:07Z</time>
      </trkpt>
      <trkpt lat="42.8289500" lon="-8.6069210">
        <ele>136.8</ele>
        <time>2022-06-19T09:54:08Z</time>
      </trkpt>
      <trkpt lat="42.8289550" lon="-8.6069010">
        <ele>137.2</ele>
        <time>2022-06-19T09:54:09Z</time>
      </trkpt>
      <trkpt lat="42.8289580" lon="-8.6068730">
        <ele>137.2</ele>
        <time>2022-06-19T09:54:10Z</time>
      </trkpt>
      <trkpt lat="42.8289660" lon="-8.6068330">
        <ele>137.2</ele>
        <time>2022-06-19T09:54:11Z</time>
      </trkpt>
      <trkpt lat="42.8289710" lon="-8.6067860">
        <ele>137.2</ele>
        <time>2022-06-19T09:54:12Z</time>
      </trkpt>
      <trkpt lat="42.8289680" lon="-8.6067460">
        <ele>137.0</ele>
        <time>2022-06-19T09:54:13Z</time>
      </trkpt>
      <trkpt lat="42.8289700" lon="-8.6067050">
        <ele>137.0</ele>
        <time>2022-06-19T09:54:14Z</time>
      </trkpt>
      <trkpt lat="42.8289730" lon="-8.6066580">
        <ele>137.0</ele>
        <time>2022-06-19T09:54:15Z</time>
      </trkpt>
      <trkpt lat="42.8289830" lon="-8.6066060">
        <ele>136.2</ele>
        <time>2022-06-19T09:54:16Z</time>
      </trkpt>
      <trkpt lat="42.8289810" lon="-8.6065530">
        <ele>135.4</ele>
        <time>2022-06-19T09:54:17Z</time>
      </trkpt>
      <trkpt lat="42.8289830" lon="-8.6064900">
        <ele>135.4</ele>
        <time>2022-06-19T09:54:18Z</time>
      </trkpt>
      <trkpt lat="42.8289810" lon="-8.6064160">
        <ele>135.4</ele>
        <time>2022-06-19T09:54:19Z</time>
      </trkpt>
      <trkpt lat="42.8289960" lon="-8.6063410">
        <ele>135.4</ele>
        <time>2022-06-19T09:54:20Z</time>
      </trkpt>
      <trkpt lat="42.8290330" lon="-8.6062850">
        <ele>133.4</ele>
        <time>2022-06-19T09:54:21Z</time>
      </trkpt>
      <trkpt lat="42.8290700" lon="-8.6062450">
        <ele>133.4</ele>
        <time>2022-06-19T09:54:22Z</time>
      </trkpt>
      <trkpt lat="42.8291050" lon="-8.6062100">
        <ele>133.4</ele>
        <time>2022-06-19T09:54:23Z</time>
      </trkpt>
      <trkpt lat="42.8291330" lon="-8.6061900">
        <ele>133.4</ele>
        <time>2022-06-19T09:54:24Z</time>
      </trkpt>
      <trkpt lat="42.8291510" lon="-8.6061710">
        <ele>132.6</ele>
        <time>2022-06-19T09:54:25Z</time>
      </trkpt>
      <trkpt lat="42.8291760" lon="-8.6061480">
        <ele>132.6</ele>
        <time>2022-06-19T09:54:26Z</time>
      </trkpt>
      <trkpt lat="42.8291950" lon="-8.6061210">
        <ele>132.6</ele>
        <time>2022-06-19T09:54:27Z</time>
      </trkpt>
      <trkpt lat="42.8292050" lon="-8.6060950">
        <ele>132.8</ele>
        <time>2022-06-19T09:54:28Z</time>
      </trkpt>
      <trkpt lat="42.8292180" lon="-8.6060760">
        <ele>133.2</ele>
        <time>2022-06-19T09:54:29Z</time>
      </trkpt>
      <trkpt lat="42.8292310" lon="-8.6060610">
        <ele>133.2</ele>
        <time>2022-06-19T09:54:30Z</time>
      </trkpt>
      <trkpt lat="42.8292460" lon="-8.6060510">
        <ele>133.2</ele>
        <time>2022-06-19T09:54:31Z</time>
      </trkpt>
      <trkpt lat="42.8292660" lon="-8.6060330">
        <ele>133.2</ele>
        <time>2022-06-19T09:54:32Z</time>
      </trkpt>
      <trkpt lat="42.8292880" lon="-8.6060100">
        <ele>133.0</ele>
        <time>2022-06-19T09:54:33Z</time>
      </trkpt>
      <trkpt lat="42.8293060" lon="-8.6059850">
        <ele>133.0</ele>
        <time>2022-06-19T09:54:34Z</time>
      </trkpt>
      <trkpt lat="42.8293280" lon="-8.6059600">
        <ele>133.0</ele>
        <time>2022-06-19T09:54:35Z</time>
      </trkpt>
      <trkpt lat="42.8293500" lon="-8.6059380">
        <ele>133.8</ele>
        <time>2022-06-19T09:54:36Z</time>
      </trkpt>
      <trkpt lat="42.8293710" lon="-8.6059180">
        <ele>135.0</ele>
        <time>2022-06-19T09:54:37Z</time>
      </trkpt>
      <trkpt lat="42.8293930" lon="-8.6059000">
        <ele>135.0</ele>
        <time>2022-06-19T09:54:38Z</time>
      </trkpt>
      <trkpt lat="42.8294150" lon="-8.6058780">
        <ele>135.0</ele>
        <time>2022-06-19T09:54:39Z</time>
      </trkpt>
      <trkpt lat="42.8294360" lon="-8.6058580">
        <ele>134.0</ele>
        <time>2022-06-19T09:54:40Z</time>
      </trkpt>
      <trkpt lat="42.8294600" lon="-8.6058410">
        <ele>133.4</ele>
        <time>2022-06-19T09:54:41Z</time>
      </trkpt>
      <trkpt lat="42.8294850" lon="-8.6058280">
        <ele>133.4</ele>
        <time>2022-06-19T09:54:42Z</time>
      </trkpt>
      <trkpt lat="42.8295060" lon="-8.6058130">
        <ele>133.4</ele>
        <time>2022-06-19T09:54:43Z</time>
      </trkpt>
      <trkpt lat="42.8295300" lon="-8.6058000">
        <ele>133.4</ele>
        <time>2022-06-19T09:54:44Z</time>
      </trkpt>
      <trkpt lat="42.8295550" lon="-8.6057880">
        <ele>133.2</ele>
        <time>2022-06-19T09:54:45Z</time>
      </trkpt>
      <trkpt lat="42.8295800" lon="-8.6057760">
        <ele>133.2</ele>
        <time>2022-06-19T09:54:46Z</time>
      </trkpt>
      <trkpt lat="42.8296030" lon="-8.6057680">
        <ele>133.2</ele>
        <time>2022-06-19T09:54:47Z</time>
      </trkpt>
      <trkpt lat="42.8296280" lon="-8.6057580">
        <ele>134.0</ele>
        <time>2022-06-19T09:54:48Z</time>
      </trkpt>
      <trkpt lat="42.8296560" lon="-8.6057460">
        <ele>134.0</ele>
        <time>2022-06-19T09:54:49Z</time>
      </trkpt>
      <trkpt lat="42.8296830" lon="-8.6057400">
        <ele>134.0</ele>
        <time>2022-06-19T09:54:50Z</time>
      </trkpt>
      <trkpt lat="42.8297110" lon="-8.6057330">
        <ele>134.0</ele>
        <time>2022-06-19T09:54:51Z</time>
      </trkpt>
      <trkpt lat="42.8297400" lon="-8.6057300">
        <ele>134.0</ele>
        <time>2022-06-19T09:54:52Z</time>
      </trkpt>
      <trkpt lat="42.8297660" lon="-8.6057230">
        <ele>133.6</ele>
        <time>2022-06-19T09:54:53Z</time>
      </trkpt>
      <trkpt lat="42.8297950" lon="-8.6057150">
        <ele>133.6</ele>
        <time>2022-06-19T09:54:54Z</time>
      </trkpt>
      <trkpt lat="42.8298230" lon="-8.6057030">
        <ele>133.6</ele>
        <time>2022-06-19T09:54:55Z</time>
      </trkpt>
      <trkpt lat="42.8298530" lon="-8.6056910">
        <ele>133.6</ele>
        <time>2022-06-19T09:54:56Z</time>
      </trkpt>
      <trkpt lat="42.8298810" lon="-8.6056810">
        <ele>135.0</ele>
        <time>2022-06-19T09:54:57Z</time>
      </trkpt>
      <trkpt lat="42.8299080" lon="-8.6056750">
        <ele>135.0</ele>
        <time>2022-06-19T09:54:58Z</time>
      </trkpt>
      <trkpt lat="42.8299350" lon="-8.6056680">
        <ele>135.0</ele>
        <time>2022-06-19T09:54:59Z</time>
      </trkpt>
      <trkpt lat="42.8299610" lon="-8.6056610">
        <ele>134.2</ele>
        <time>2022-06-19T09:55:00Z</time>
      </trkpt>
      <trkpt lat="42.8299860" lon="-8.6056480">
        <ele>134.0</ele>
        <time>2022-06-19T09:55:01Z</time>
      </trkpt>
      <trkpt lat="42.8300100" lon="-8.6056400">
        <ele>134.0</ele>
        <time>2022-06-19T09:55:02Z</time>
      </trkpt>
      <trkpt lat="42.8300360" lon="-8.6056380">
        <ele>134.0</ele>
        <time>2022-06-19T09:55:03Z</time>
      </trkpt>
      <trkpt lat="42.8300610" lon="-8.6056360">
        <ele>134.4</ele>
        <time>2022-06-19T09:55:04Z</time>
      </trkpt>
      <trkpt lat="42.8300880" lon="-8.6056310">
        <ele>134.4</ele>
        <time>2022-06-19T09:55:05Z</time>
      </trkpt>
      <trkpt lat="42.8301150" lon="-8.6056250">
        <ele>134.4</ele>
        <time>2022-06-19T09:55:06Z</time>
      </trkpt>
      <trkpt lat="42.8301410" lon="-8.6056180">
        <ele>134.4</ele>
        <time>2022-06-19T09:55:07Z</time>
      </trkpt>
      <trkpt lat="42.8301650" lon="-8.6056160">
        <ele>134.4</ele>
        <time>2022-06-19T09:55:08Z</time>
      </trkpt>
      <trkpt lat="42.8301880" lon="-8.6056100">
        <ele>134.6</ele>
        <time>2022-06-19T09:55:09Z</time>
      </trkpt>
      <trkpt lat="42.8302130" lon="-8.6056030">
        <ele>134.6</ele>
        <time>2022-06-19T09:55:10Z</time>
      </trkpt>
      <trkpt lat="42.8302350" lon="-8.6055960">
        <ele>134.6</ele>
        <time>2022-06-19T09:55:11Z</time>
      </trkpt>
      <trkpt lat="42.8302580" lon="-8.6055900">
        <ele>134.6</ele>
        <time>2022-06-19T09:55:12Z</time>
      </trkpt>
      <trkpt lat="42.8302860" lon="-8.6055810">
        <ele>134.6</ele>
        <time>2022-06-19T09:55:13Z</time>
      </trkpt>
      <trkpt lat="42.8303100" lon="-8.6055730">
        <ele>134.6</ele>
        <time>2022-06-19T09:55:14Z</time>
      </trkpt>
      <trkpt lat="42.8303330" lon="-8.6055710">
        <ele>134.6</ele>
        <time>2022-06-19T09:55:15Z</time>
      </trkpt>
      <trkpt lat="42.8303580" lon="-8.6055680">
        <ele>135.2</ele>
        <time>2022-06-19T09:55:16Z</time>
      </trkpt>
      <trkpt lat="42.8303830" lon="-8.6055650">
        <ele>135.6</ele>
        <time>2022-06-19T09:55:17Z</time>
      </trkpt>
      <trkpt lat="42.8304060" lon="-8.6055630">
        <ele>135.6</ele>
        <time>2022-06-19T09:55:18Z</time>
      </trkpt>
      <trkpt lat="42.8304330" lon="-8.6055550">
        <ele>135.6</ele>
        <time>2022-06-19T09:55:19Z</time>
      </trkpt>
      <trkpt lat="42.8304600" lon="-8.6055450">
        <ele>135.2</ele>
        <time>2022-06-19T09:55:20Z</time>
      </trkpt>
      <trkpt lat="42.8304860" lon="-8.6055310">
        <ele>135.6</ele>
        <time>2022-06-19T09:55:21Z</time>
      </trkpt>
      <trkpt lat="42.8305130" lon="-8.6055260">
        <ele>135.6</ele>
        <time>2022-06-19T09:55:22Z</time>
      </trkpt>
      <trkpt lat="42.8305380" lon="-8.6055180">
        <ele>135.6</ele>
        <time>2022-06-19T09:55:23Z</time>
      </trkpt>
      <trkpt lat="42.8305630" lon="-8.6055110">
        <ele>136.6</ele>
        <time>2022-06-19T09:55:24Z</time>
      </trkpt>
      <trkpt lat="42.8305850" lon="-8.6055030">
        <ele>134.8</ele>
        <time>2022-06-19T09:55:25Z</time>
      </trkpt>
      <trkpt lat="42.8306080" lon="-8.6054960">
        <ele>134.8</ele>
        <time>2022-06-19T09:55:26Z</time>
      </trkpt>
      <trkpt lat="42.8306350" lon="-8.6054850">
        <ele>134.8</ele>
        <time>2022-06-19T09:55:27Z</time>
      </trkpt>
      <trkpt lat="42.8306580" lon="-8.6054810">
        <ele>135.8</ele>
        <time>2022-06-19T09:55:28Z</time>
      </trkpt>
      <trkpt lat="42.8306850" lon="-8.6054730">
        <ele>136.0</ele>
        <time>2022-06-19T09:55:29Z</time>
      </trkpt>
      <trkpt lat="42.8307080" lon="-8.6054550">
        <ele>136.0</ele>
        <time>2022-06-19T09:55:30Z</time>
      </trkpt>
      <trkpt lat="42.8307310" lon="-8.6054360">
        <ele>136.0</ele>
        <time>2022-06-19T09:55:31Z</time>
      </trkpt>
      <trkpt lat="42.8307530" lon="-8.6054250">
        <ele>136.0</ele>
        <time>2022-06-19T09:55:32Z</time>
      </trkpt>
      <trkpt lat="42.8307760" lon="-8.6054100">
        <ele>135.4</ele>
        <time>2022-06-19T09:55:33Z</time>
      </trkpt>
      <trkpt lat="42.8308000" lon="-8.6053830">
        <ele>135.4</ele>
        <time>2022-06-19T09:55:34Z</time>
      </trkpt>
      <trkpt lat="42.8308210" lon="-8.6053650">
        <ele>135.4</ele>
        <time>2022-06-19T09:55:35Z</time>
      </trkpt>
      <trkpt lat="42.8308450" lon="-8.6053460">
        <ele>136.2</ele>
        <time>2022-06-19T09:55:36Z</time>
      </trkpt>
      <trkpt lat="42.8308710" lon="-8.6053360">
        <ele>136.6</ele>
        <time>2022-06-19T09:55:37Z</time>
      </trkpt>
      <trkpt lat="42.8308980" lon="-8.6053260">
        <ele>136.6</ele>
        <time>2022-06-19T09:55:38Z</time>
      </trkpt>
      <trkpt lat="42.8309230" lon="-8.6053150">
        <ele>136.6</ele>
        <time>2022-06-19T09:55:39Z</time>
      </trkpt>
      <trkpt lat="42.8309460" lon="-8.6053000">
        <ele>136.6</ele>
        <time>2022-06-19T09:55:40Z</time>
      </trkpt>
      <trkpt lat="42.8309680" lon="-8.6052880">
        <ele>136.6</ele>
        <time>2022-06-19T09:55:41Z</time>
      </trkpt>
      <trkpt lat="42.8309900" lon="-8.6052780">
        <ele>136.6</ele>
        <time>2022-06-19T09:55:42Z</time>
      </trkpt>
      <trkpt lat="42.8310110" lon="-8.6052630">
        <ele>136.6</ele>
        <time>2022-06-19T09:55:43Z</time>
      </trkpt>
      <trkpt lat="42.8310350" lon="-8.6052510">
        <ele>136.6</ele>
        <time>2022-06-19T09:55:44Z</time>
      </trkpt>
      <trkpt lat="42.8310560" lon="-8.6052430">
        <ele>136.6</ele>
        <time>2022-06-19T09:55:45Z</time>
      </trkpt>
      <trkpt lat="42.8310760" lon="-8.6052330">
        <ele>136.6</ele>
        <time>2022-06-19T09:55:46Z</time>
      </trkpt>
      <trkpt lat="42.8310960" lon="-8.6052160">
        <ele>136.6</ele>
        <time>2022-06-19T09:55:47Z</time>
      </trkpt>
      <trkpt lat="42.8311200" lon="-8.6051950">
        <ele>137.4</ele>
        <time>2022-06-19T09:55:48Z</time>
      </trkpt>
      <trkpt lat="42.8311410" lon="-8.6051800">
        <ele>137.0</ele>
        <time>2022-06-19T09:55:49Z</time>
      </trkpt>
      <trkpt lat="42.8311700" lon="-8.6051660">
        <ele>137.0</ele>
        <time>2022-06-19T09:55:50Z</time>
      </trkpt>
      <trkpt lat="42.8311930" lon="-8.6051480">
        <ele>137.0</ele>
        <time>2022-06-19T09:55:51Z</time>
      </trkpt>
      <trkpt lat="42.8312160" lon="-8.6051380">
        <ele>137.0</ele>
        <time>2022-06-19T09:55:52Z</time>
      </trkpt>
      <trkpt lat="42.8312450" lon="-8.6051250">
        <ele>137.2</ele>
        <time>2022-06-19T09:55:53Z</time>
      </trkpt>
      <trkpt lat="42.8312750" lon="-8.6051110">
        <ele>137.2</ele>
        <time>2022-06-19T09:55:54Z</time>
      </trkpt>
      <trkpt lat="42.8312960" lon="-8.6051050">
        <ele>137.2</ele>
        <time>2022-06-19T09:55:55Z</time>
      </trkpt>
      <trkpt lat="42.8313210" lon="-8.6050950">
        <ele>137.2</ele>
        <time>2022-06-19T09:55:56Z</time>
      </trkpt>
      <trkpt lat="42.8313410" lon="-8.6050830">
        <ele>137.4</ele>
        <time>2022-06-19T09:55:57Z</time>
      </trkpt>
      <trkpt lat="42.8313610" lon="-8.6050730">
        <ele>137.4</ele>
        <time>2022-06-19T09:55:58Z</time>
      </trkpt>
      <trkpt lat="42.8313750" lon="-8.6050510">
        <ele>137.4</ele>
        <time>2022-06-19T09:55:59Z</time>
      </trkpt>
      <trkpt lat="42.8313880" lon="-8.6050260">
        <ele>138.0</ele>
        <time>2022-06-19T09:56:00Z</time>
      </trkpt>
      <trkpt lat="42.8314010" lon="-8.6050030">
        <ele>137.6</ele>
        <time>2022-06-19T09:56:01Z</time>
      </trkpt>
      <trkpt lat="42.8314160" lon="-8.6049780">
        <ele>137.6</ele>
        <time>2022-06-19T09:56:02Z</time>
      </trkpt>
      <trkpt lat="42.8314330" lon="-8.6049610">
        <ele>137.6</ele>
        <time>2022-06-19T09:56:03Z</time>
      </trkpt>
      <trkpt lat="42.8314500" lon="-8.6049380">
        <ele>137.6</ele>
        <time>2022-06-19T09:56:04Z</time>
      </trkpt>
      <trkpt lat="42.8314660" lon="-8.6049150">
        <ele>138.2</ele>
        <time>2022-06-19T09:56:05Z</time>
      </trkpt>
      <trkpt lat="42.8314850" lon="-8.6048930">
        <ele>138.2</ele>
        <time>2022-06-19T09:56:06Z</time>
      </trkpt>
      <trkpt lat="42.8314960" lon="-8.6048710">
        <ele>138.2</ele>
        <time>2022-06-19T09:56:07Z</time>
      </trkpt>
      <trkpt lat="42.8315180" lon="-8.6048460">
        <ele>138.2</ele>
        <time>2022-06-19T09:56:08Z</time>
      </trkpt>
      <trkpt lat="42.8315300" lon="-8.6048230">
        <ele>138.6</ele>
        <time>2022-06-19T09:56:09Z</time>
      </trkpt>
      <trkpt lat="42.8315500" lon="-8.6047900">
        <ele>138.6</ele>
        <time>2022-06-19T09:56:10Z</time>
      </trkpt>
      <trkpt lat="42.8315630" lon="-8.6047700">
        <ele>138.6</ele>
        <time>2022-06-19T09:56:11Z</time>
      </trkpt>
      <trkpt lat="42.8315780" lon="-8.6047400">
        <ele>138.6</ele>
        <time>2022-06-19T09:56:12Z</time>
      </trkpt>
      <trkpt lat="42.8315910" lon="-8.6047130">
        <ele>138.8</ele>
        <time>2022-06-19T09:56:13Z</time>
      </trkpt>
      <trkpt lat="42.8316030" lon="-8.6046880">
        <ele>138.8</ele>
        <time>2022-06-19T09:56:14Z</time>
      </trkpt>
      <trkpt lat="42.8316130" lon="-8.6046680">
        <ele>138.8</ele>
        <time>2022-06-19T09:56:15Z</time>
      </trkpt>
      <trkpt lat="42.8316180" lon="-8.6046460">
        <ele>139.4</ele>
        <time>2022-06-19T09:56:16Z</time>
      </trkpt>
      <trkpt lat="42.8316280" lon="-8.6046210">
        <ele>139.8</ele>
        <time>2022-06-19T09:56:17Z</time>
      </trkpt>
      <trkpt lat="42.8316460" lon="-8.6045980">
        <ele>139.8</ele>
        <time>2022-06-19T09:56:18Z</time>
      </trkpt>
      <trkpt lat="42.8316650" lon="-8.6045810">
        <ele>139.8</ele>
        <time>2022-06-19T09:56:19Z</time>
      </trkpt>
      <trkpt lat="42.8316860" lon="-8.6045660">
        <ele>139.8</ele>
        <time>2022-06-19T09:56:20Z</time>
      </trkpt>
      <trkpt lat="42.8317050" lon="-8.6045460">
        <ele>139.8</ele>
        <time>2022-06-19T09:56:21Z</time>
      </trkpt>
      <trkpt lat="42.8317200" lon="-8.6045200">
        <ele>139.8</ele>
        <time>2022-06-19T09:56:22Z</time>
      </trkpt>
      <trkpt lat="42.8317260" lon="-8.6044930">
        <ele>139.8</ele>
        <time>2022-06-19T09:56:23Z</time>
      </trkpt>
      <trkpt lat="42.8317430" lon="-8.6044610">
        <ele>139.8</ele>
        <time>2022-06-19T09:56:24Z</time>
      </trkpt>
      <trkpt lat="42.8317560" lon="-8.6044360">
        <ele>140.4</ele>
        <time>2022-06-19T09:56:25Z</time>
      </trkpt>
      <trkpt lat="42.8317730" lon="-8.6044130">
        <ele>140.4</ele>
        <time>2022-06-19T09:56:26Z</time>
      </trkpt>
      <trkpt lat="42.8317910" lon="-8.6043830">
        <ele>140.4</ele>
        <time>2022-06-19T09:56:27Z</time>
      </trkpt>
      <trkpt lat="42.8318110" lon="-8.6043560">
        <ele>140.2</ele>
        <time>2022-06-19T09:56:28Z</time>
      </trkpt>
      <trkpt lat="42.8318300" lon="-8.6043330">
        <ele>140.4</ele>
        <time>2022-06-19T09:56:29Z</time>
      </trkpt>
      <trkpt lat="42.8318400" lon="-8.6043060">
        <ele>140.4</ele>
        <time>2022-06-19T09:56:30Z</time>
      </trkpt>
      <trkpt lat="42.8318500" lon="-8.6042780">
        <ele>140.4</ele>
        <time>2022-06-19T09:56:31Z</time>
      </trkpt>
      <trkpt lat="42.8318610" lon="-8.6042530">
        <ele>140.4</ele>
        <time>2022-06-19T09:56:32Z</time>
      </trkpt>
      <trkpt lat="42.8318760" lon="-8.6042260">
        <ele>140.6</ele>
        <time>2022-06-19T09:56:33Z</time>
      </trkpt>
      <trkpt lat="42.8318860" lon="-8.6042050">
        <ele>140.6</ele>
        <time>2022-06-19T09:56:34Z</time>
      </trkpt>
      <trkpt lat="42.8318960" lon="-8.6041860">
        <ele>140.6</ele>
        <time>2022-06-19T09:56:35Z</time>
      </trkpt>
      <trkpt lat="42.8319060" lon="-8.6041630">
        <ele>140.6</ele>
        <time>2022-06-19T09:56:36Z</time>
      </trkpt>
      <trkpt lat="42.8319160" lon="-8.6041330">
        <ele>141.0</ele>
        <time>2022-06-19T09:56:37Z</time>
      </trkpt>
      <trkpt lat="42.8319280" lon="-8.6041050">
        <ele>141.0</ele>
        <time>2022-06-19T09:56:38Z</time>
      </trkpt>
      <trkpt lat="42.8319350" lon="-8.6040800">
        <ele>141.0</ele>
        <time>2022-06-19T09:56:39Z</time>
      </trkpt>
      <trkpt lat="42.8319430" lon="-8.6040580">
        <ele>141.0</ele>
        <time>2022-06-19T09:56:40Z</time>
      </trkpt>
      <trkpt lat="42.8319610" lon="-8.6040310">
        <ele>141.0</ele>
        <time>2022-06-19T09:56:41Z</time>
      </trkpt>
      <trkpt lat="42.8319800" lon="-8.6040080">
        <ele>141.0</ele>
        <time>2022-06-19T09:56:42Z</time>
      </trkpt>
      <trkpt lat="42.8319950" lon="-8.6039860">
        <ele>141.0</ele>
        <time>2022-06-19T09:56:43Z</time>
      </trkpt>
      <trkpt lat="42.8320110" lon="-8.6039680">
        <ele>141.6</ele>
        <time>2022-06-19T09:56:44Z</time>
      </trkpt>
      <trkpt lat="42.8320380" lon="-8.6039600">
        <ele>141.6</ele>
        <time>2022-06-19T09:56:45Z</time>
      </trkpt>
      <trkpt lat="42.8320550" lon="-8.6039510">
        <ele>141.6</ele>
        <time>2022-06-19T09:56:46Z</time>
      </trkpt>
      <trkpt lat="42.8320710" lon="-8.6039450">
        <ele>141.6</ele>
        <time>2022-06-19T09:56:47Z</time>
      </trkpt>
      <trkpt lat="42.8320800" lon="-8.6039250">
        <ele>141.6</ele>
        <time>2022-06-19T09:56:48Z</time>
      </trkpt>
      <trkpt lat="42.8320880" lon="-8.6038910">
        <ele>141.8</ele>
        <time>2022-06-19T09:56:49Z</time>
      </trkpt>
      <trkpt lat="42.8320980" lon="-8.6038660">
        <ele>141.8</ele>
        <time>2022-06-19T09:56:50Z</time>
      </trkpt>
      <trkpt lat="42.8321130" lon="-8.6038450">
        <ele>141.8</ele>
        <time>2022-06-19T09:56:51Z</time>
      </trkpt>
      <trkpt lat="42.8321300" lon="-8.6038260">
        <ele>142.4</ele>
        <time>2022-06-19T09:56:52Z</time>
      </trkpt>
      <trkpt lat="42.8321480" lon="-8.6038080">
        <ele>142.8</ele>
        <time>2022-06-19T09:56:53Z</time>
      </trkpt>
      <trkpt lat="42.8321660" lon="-8.6037860">
        <ele>142.8</ele>
        <time>2022-06-19T09:56:54Z</time>
      </trkpt>
      <trkpt lat="42.8321830" lon="-8.6037630">
        <ele>142.8</ele>
        <time>2022-06-19T09:56:55Z</time>
      </trkpt>
      <trkpt lat="42.8322000" lon="-8.6037380">
        <ele>143.6</ele>
        <time>2022-06-19T09:56:56Z</time>
      </trkpt>
      <trkpt lat="42.8322180" lon="-8.6037080">
        <ele>143.0</ele>
        <time>2022-06-19T09:56:57Z</time>
      </trkpt>
      <trkpt lat="42.8322360" lon="-8.6036860">
        <ele>143.0</ele>
        <time>2022-06-19T09:56:58Z</time>
      </trkpt>
      <trkpt lat="42.8322530" lon="-8.6036660">
        <ele>143.0</ele>
        <time>2022-06-19T09:56:59Z</time>
      </trkpt>
      <trkpt lat="42.8322650" lon="-8.6036550">
        <ele>143.8</ele>
        <time>2022-06-19T09:57:00Z</time>
      </trkpt>
      <trkpt lat="42.8322830" lon="-8.6036330">
        <ele>143.0</ele>
        <time>2022-06-19T09:57:01Z</time>
      </trkpt>
      <trkpt lat="42.8322960" lon="-8.6036150">
        <ele>143.0</ele>
        <time>2022-06-19T09:57:02Z</time>
      </trkpt>
      <trkpt lat="42.8323060" lon="-8.6035950">
        <ele>143.0</ele>
        <time>2022-06-19T09:57:03Z</time>
      </trkpt>
      <trkpt lat="42.8323160" lon="-8.6035750">
        <ele>143.0</ele>
        <time>2022-06-19T09:57:04Z</time>
      </trkpt>
      <trkpt lat="42.8323280" lon="-8.6035600">
        <ele>143.6</ele>
        <time>2022-06-19T09:57:05Z</time>
      </trkpt>
      <trkpt lat="42.8323380" lon="-8.6035450">
        <ele>143.6</ele>
        <time>2022-06-19T09:57:06Z</time>
      </trkpt>
      <trkpt lat="42.8323460" lon="-8.6035230">
        <ele>143.6</ele>
        <time>2022-06-19T09:57:07Z</time>
      </trkpt>
      <trkpt lat="42.8323610" lon="-8.6034910">
        <ele>144.0</ele>
        <time>2022-06-19T09:57:08Z</time>
      </trkpt>
      <trkpt lat="42.8323750" lon="-8.6034700">
        <ele>144.2</ele>
        <time>2022-06-19T09:57:09Z</time>
      </trkpt>
      <trkpt lat="42.8323880" lon="-8.6034610">
        <ele>144.2</ele>
        <time>2022-06-19T09:57:10Z</time>
      </trkpt>
      <trkpt lat="42.8324000" lon="-8.6034450">
        <ele>144.2</ele>
        <time>2022-06-19T09:57:11Z</time>
      </trkpt>
      <trkpt lat="42.8324160" lon="-8.6034300">
        <ele>144.2</ele>
        <time>2022-06-19T09:57:12Z</time>
      </trkpt>
      <trkpt lat="42.8324280" lon="-8.6034100">
        <ele>144.8</ele>
        <time>2022-06-19T09:57:13Z</time>
      </trkpt>
      <trkpt lat="42.8324330" lon="-8.6033850">
        <ele>144.8</ele>
        <time>2022-06-19T09:57:14Z</time>
      </trkpt>
      <trkpt lat="42.8324360" lon="-8.6033630">
        <ele>144.8</ele>
        <time>2022-06-19T09:57:15Z</time>
      </trkpt>
      <trkpt lat="42.8324430" lon="-8.6033430">
        <ele>144.8</ele>
        <time>2022-06-19T09:57:16Z</time>
      </trkpt>
      <trkpt lat="42.8324450" lon="-8.6033250">
        <ele>145.0</ele>
        <time>2022-06-19T09:57:17Z</time>
      </trkpt>
      <trkpt lat="42.8324510" lon="-8.6033030">
        <ele>145.0</ele>
        <time>2022-06-19T09:57:18Z</time>
      </trkpt>
      <trkpt lat="42.8324580" lon="-8.6032730">
        <ele>145.0</ele>
        <time>2022-06-19T09:57:19Z</time>
      </trkpt>
      <trkpt lat="42.8324800" lon="-8.6032430">
        <ele>146.0</ele>
        <time>2022-06-19T09:57:20Z</time>
      </trkpt>
      <trkpt lat="42.8324930" lon="-8.6032180">
        <ele>146.0</ele>
        <time>2022-06-19T09:57:21Z</time>
      </trkpt>
      <trkpt lat="42.8325080" lon="-8.6031980">
        <ele>146.0</ele>
        <time>2022-06-19T09:57:22Z</time>
      </trkpt>
      <trkpt lat="42.8325260" lon="-8.6031760">
        <ele>146.0</ele>
        <time>2022-06-19T09:57:23Z</time>
      </trkpt>
      <trkpt lat="42.8325410" lon="-8.6031630">
        <ele>147.0</ele>
        <time>2022-06-19T09:57:24Z</time>
      </trkpt>
      <trkpt lat="42.8325630" lon="-8.6031450">
        <ele>146.8</ele>
        <time>2022-06-19T09:57:25Z</time>
      </trkpt>
      <trkpt lat="42.8325800" lon="-8.6031130">
        <ele>146.8</ele>
        <time>2022-06-19T09:57:26Z</time>
      </trkpt>
      <trkpt lat="42.8325980" lon="-8.6030880">
        <ele>146.8</ele>
        <time>2022-06-19T09:57:27Z</time>
      </trkpt>
      <trkpt lat="42.8326110" lon="-8.6030650">
        <ele>146.8</ele>
        <time>2022-06-19T09:57:28Z</time>
      </trkpt>
      <trkpt lat="42.8326250" lon="-8.6030500">
        <ele>147.4</ele>
        <time>2022-06-19T09:57:29Z</time>
      </trkpt>
      <trkpt lat="42.8326400" lon="-8.6030330">
        <ele>147.4</ele>
        <time>2022-06-19T09:57:30Z</time>
      </trkpt>
      <trkpt lat="42.8326530" lon="-8.6030180">
        <ele>147.4</ele>
        <time>2022-06-19T09:57:31Z</time>
      </trkpt>
      <trkpt lat="42.8326700" lon="-8.6029930">
        <ele>147.8</ele>
        <time>2022-06-19T09:57:32Z</time>
      </trkpt>
      <trkpt lat="42.8326830" lon="-8.6029560">
        <ele>148.4</ele>
        <time>2022-06-19T09:57:33Z</time>
      </trkpt>
      <trkpt lat="42.8327000" lon="-8.6029360">
        <ele>148.4</ele>
        <time>2022-06-19T09:57:34Z</time>
      </trkpt>
      <trkpt lat="42.8327130" lon="-8.6029180">
        <ele>148.4</ele>
        <time>2022-06-19T09:57:35Z</time>
      </trkpt>
      <trkpt lat="42.8327260" lon="-8.6029010">
        <ele>148.8</ele>
        <time>2022-06-19T09:57:36Z</time>
      </trkpt>
      <trkpt lat="42.8327400" lon="-8.6028850">
        <ele>149.2</ele>
        <time>2022-06-19T09:57:37Z</time>
      </trkpt>
      <trkpt lat="42.8327580" lon="-8.6028660">
        <ele>149.2</ele>
        <time>2022-06-19T09:57:38Z</time>
      </trkpt>
      <trkpt lat="42.8327750" lon="-8.6028510">
        <ele>149.2</ele>
        <time>2022-06-19T09:57:39Z</time>
      </trkpt>
      <trkpt lat="42.8327810" lon="-8.6028410">
        <ele>149.2</ele>
        <time>2022-06-19T09:57:40Z</time>
      </trkpt>
      <trkpt lat="42.8327810" lon="-8.6028300">
        <ele>149.2</ele>
        <time>2022-06-19T09:57:41Z</time>
      </trkpt>
      <trkpt lat="42.8327850" lon="-8.6028060">
        <ele>149.2</ele>
        <time>2022-06-19T09:57:42Z</time>
      </trkpt>
      <trkpt lat="42.8327980" lon="-8.6027860">
        <ele>149.2</ele>
        <time>2022-06-19T09:57:43Z</time>
      </trkpt>
      <trkpt lat="42.8328080" lon="-8.6027680">
        <ele>149.4</ele>
        <time>2022-06-19T09:57:44Z</time>
      </trkpt>
      <trkpt lat="42.8328200" lon="-8.6027530">
        <ele>149.6</ele>
        <time>2022-06-19T09:57:45Z</time>
      </trkpt>
      <trkpt lat="42.8328280" lon="-8.6027460">
        <ele>149.6</ele>
        <time>2022-06-19T09:57:46Z</time>
      </trkpt>
      <trkpt lat="42.8328430" lon="-8.6027300">
        <ele>149.6</ele>
        <time>2022-06-19T09:57:47Z</time>
      </trkpt>
      <trkpt lat="42.8328580" lon="-8.6026980">
        <ele>149.6</ele>
        <time>2022-06-19T09:57:48Z</time>
      </trkpt>
      <trkpt lat="42.8328700" lon="-8.6026760">
        <ele>149.6</ele>
        <time>2022-06-19T09:57:49Z</time>
      </trkpt>
      <trkpt lat="42.8328780" lon="-8.6026480">
        <ele>149.6</ele>
        <time>2022-06-19T09:57:50Z</time>
      </trkpt>
      <trkpt lat="42.8328860" lon="-8.6026280">
        <ele>149.6</ele>
        <time>2022-06-19T09:57:51Z</time>
      </trkpt>
      <trkpt lat="42.8328980" lon="-8.6026080">
        <ele>150.6</ele>
        <time>2022-06-19T09:57:52Z</time>
      </trkpt>
      <trkpt lat="42.8329100" lon="-8.6025880">
        <ele>150.6</ele>
        <time>2022-06-19T09:57:53Z</time>
      </trkpt>
      <trkpt lat="42.8329230" lon="-8.6025680">
        <ele>150.6</ele>
        <time>2022-06-19T09:57:54Z</time>
      </trkpt>
      <trkpt lat="42.8329300" lon="-8.6025460">
        <ele>150.6</ele>
        <time>2022-06-19T09:57:55Z</time>
      </trkpt>
      <trkpt lat="42.8329400" lon="-8.6025250">
        <ele>151.0</ele>
        <time>2022-06-19T09:57:56Z</time>
      </trkpt>
      <trkpt lat="42.8329510" lon="-8.6024960">
        <ele>151.0</ele>
        <time>2022-06-19T09:57:57Z</time>
      </trkpt>
      <trkpt lat="42.8329660" lon="-8.6024780">
        <ele>151.0</ele>
        <time>2022-06-19T09:57:58Z</time>
      </trkpt>
      <trkpt lat="42.8329800" lon="-8.6024650">
        <ele>151.0</ele>
        <time>2022-06-19T09:57:59Z</time>
      </trkpt>
      <trkpt lat="42.8329880" lon="-8.6024450">
        <ele>151.0</ele>
        <time>2022-06-19T09:58:00Z</time>
      </trkpt>
      <trkpt lat="42.8330010" lon="-8.6024300">
        <ele>150.8</ele>
        <time>2022-06-19T09:58:01Z</time>
      </trkpt>
      <trkpt lat="42.8330100" lon="-8.6024180">
        <ele>150.8</ele>
        <time>2022-06-19T09:58:02Z</time>
      </trkpt>
      <trkpt lat="42.8330150" lon="-8.6024030">
        <ele>150.8</ele>
        <time>2022-06-19T09:58:03Z</time>
      </trkpt>
      <trkpt lat="42.8330210" lon="-8.6023930">
        <ele>151.6</ele>
        <time>2022-06-19T09:58:04Z</time>
      </trkpt>
      <trkpt lat="42.8330300" lon="-8.6023810">
        <ele>151.8</ele>
        <time>2022-06-19T09:58:05Z</time>
      </trkpt>
      <trkpt lat="42.8330400" lon="-8.6023650">
        <ele>151.8</ele>
        <time>2022-06-19T09:58:06Z</time>
      </trkpt>
      <trkpt lat="42.8330430" lon="-8.6023480">
        <ele>151.8</ele>
        <time>2022-06-19T09:58:07Z</time>
      </trkpt>
      <trkpt lat="42.8330430" lon="-8.6023260">
        <ele>152.4</ele>
        <time>2022-06-19T09:58:08Z</time>
      </trkpt>
      <trkpt lat="42.8330460" lon="-8.6023080">
        <ele>152.4</ele>
        <time>2022-06-19T09:58:09Z</time>
      </trkpt>
      <trkpt lat="42.8330550" lon="-8.6023000">
        <ele>152.4</ele>
        <time>2022-06-19T09:58:10Z</time>
      </trkpt>
      <trkpt lat="42.8330610" lon="-8.6022780">
        <ele>152.4</ele>
        <time>2022-06-19T09:58:11Z</time>
      </trkpt>
      <trkpt lat="42.8330650" lon="-8.6022580">
        <ele>152.4</ele>
        <time>2022-06-19T09:58:12Z</time>
      </trkpt>
      <trkpt lat="42.8330760" lon="-8.6022350">
        <ele>153.4</ele>
        <time>2022-06-19T09:58:13Z</time>
      </trkpt>
      <trkpt lat="42.8330830" lon="-8.6022250">
        <ele>153.4</ele>
        <time>2022-06-19T09:58:14Z</time>
      </trkpt>
      <trkpt lat="42.8330880" lon="-8.6022000">
        <ele>153.4</ele>
        <time>2022-06-19T09:58:15Z</time>
      </trkpt>
      <trkpt lat="42.8330980" lon="-8.6021860">
        <ele>153.4</ele>
        <time>2022-06-19T09:58:16Z</time>
      </trkpt>
      <trkpt lat="42.8331060" lon="-8.6021750">
        <ele>153.6</ele>
        <time>2022-06-19T09:58:17Z</time>
      </trkpt>
      <trkpt lat="42.8331150" lon="-8.6021600">
        <ele>153.6</ele>
        <time>2022-06-19T09:58:18Z</time>
      </trkpt>
      <trkpt lat="42.8331160" lon="-8.6021330">
        <ele>153.6</ele>
        <time>2022-06-19T09:58:19Z</time>
      </trkpt>
      <trkpt lat="42.8331250" lon="-8.6021050">
        <ele>153.6</ele>
        <time>2022-06-19T09:58:20Z</time>
      </trkpt>
      <trkpt lat="42.8331280" lon="-8.6020830">
        <ele>154.0</ele>
        <time>2022-06-19T09:58:21Z</time>
      </trkpt>
      <trkpt lat="42.8331350" lon="-8.6020650">
        <ele>154.0</ele>
        <time>2022-06-19T09:58:22Z</time>
      </trkpt>
      <trkpt lat="42.8331380" lon="-8.6020450">
        <ele>154.0</ele>
        <time>2022-06-19T09:58:23Z</time>
      </trkpt>
      <trkpt lat="42.8331480" lon="-8.6020380">
        <ele>154.4</ele>
        <time>2022-06-19T09:58:24Z</time>
      </trkpt>
      <trkpt lat="42.8331530" lon="-8.6020200">
        <ele>154.8</ele>
        <time>2022-06-19T09:58:25Z</time>
      </trkpt>
      <trkpt lat="42.8331560" lon="-8.6019980">
        <ele>154.8</ele>
        <time>2022-06-19T09:58:26Z</time>
      </trkpt>
      <trkpt lat="42.8331560" lon="-8.6019800">
        <ele>154.8</ele>
        <time>2022-06-19T09:58:27Z</time>
      </trkpt>
      <trkpt lat="42.8331600" lon="-8.6019600">
        <ele>154.8</ele>
        <time>2022-06-19T09:58:28Z</time>
      </trkpt>
      <trkpt lat="42.8331610" lon="-8.6019350">
        <ele>154.8</ele>
        <time>2022-06-19T09:58:29Z</time>
      </trkpt>
      <trkpt lat="42.8331600" lon="-8.6019100">
        <ele>154.8</ele>
        <time>2022-06-19T09:58:30Z</time>
      </trkpt>
      <trkpt lat="42.8331650" lon="-8.6018900">
        <ele>154.8</ele>
        <time>2022-06-19T09:58:31Z</time>
      </trkpt>
      <trkpt lat="42.8331660" lon="-8.6018610">
        <ele>155.0</ele>
        <time>2022-06-19T09:58:32Z</time>
      </trkpt>
      <trkpt lat="42.8331730" lon="-8.6018350">
        <ele>155.6</ele>
        <time>2022-06-19T09:58:33Z</time>
      </trkpt>
      <trkpt lat="42.8331780" lon="-8.6018010">
        <ele>155.6</ele>
        <time>2022-06-19T09:58:34Z</time>
      </trkpt>
      <trkpt lat="42.8331810" lon="-8.6017630">
        <ele>155.6</ele>
        <time>2022-06-19T09:58:35Z</time>
      </trkpt>
      <trkpt lat="42.8331710" lon="-8.6017250">
        <ele>155.6</ele>
        <time>2022-06-19T09:58:36Z</time>
      </trkpt>
      <trkpt lat="42.8331660" lon="-8.6017000">
        <ele>155.6</ele>
        <time>2022-06-19T09:58:37Z</time>
      </trkpt>
      <trkpt lat="42.8331710" lon="-8.6016800">
        <ele>155.6</ele>
        <time>2022-06-19T09:58:38Z</time>
      </trkpt>
      <trkpt lat="42.8331800" lon="-8.6016500">
        <ele>155.6</ele>
        <time>2022-06-19T09:58:39Z</time>
      </trkpt>
      <trkpt lat="42.8331830" lon="-8.6016230">
        <ele>154.8</ele>
        <time>2022-06-19T09:58:40Z</time>
      </trkpt>
      <trkpt lat="42.8331850" lon="-8.6016010">
        <ele>155.0</ele>
        <time>2022-06-19T09:58:41Z</time>
      </trkpt>
      <trkpt lat="42.8331910" lon="-8.6015860">
        <ele>155.0</ele>
        <time>2022-06-19T09:58:42Z</time>
      </trkpt>
      <trkpt lat="42.8331960" lon="-8.6015610">
        <ele>155.0</ele>
        <time>2022-06-19T09:58:43Z</time>
      </trkpt>
      <trkpt lat="42.8332050" lon="-8.6015400">
        <ele>156.0</ele>
        <time>2022-06-19T09:58:44Z</time>
      </trkpt>
      <trkpt lat="42.8332160" lon="-8.6015260">
        <ele>156.8</ele>
        <time>2022-06-19T09:58:45Z</time>
      </trkpt>
      <trkpt lat="42.8332250" lon="-8.6015110">
        <ele>156.8</ele>
        <time>2022-06-19T09:58:46Z</time>
      </trkpt>
      <trkpt lat="42.8332380" lon="-8.6015000">
        <ele>156.8</ele>
        <time>2022-06-19T09:58:47Z</time>
      </trkpt>
      <trkpt lat="42.8332500" lon="-8.6014850">
        <ele>156.8</ele>
        <time>2022-06-19T09:58:48Z</time>
      </trkpt>
      <trkpt lat="42.8332600" lon="-8.6014650">
        <ele>156.8</ele>
        <time>2022-06-19T09:58:49Z</time>
      </trkpt>
      <trkpt lat="42.8332700" lon="-8.6014460">
        <ele>156.8</ele>
        <time>2022-06-19T09:58:50Z</time>
      </trkpt>
      <trkpt lat="42.8332800" lon="-8.6014260">
        <ele>156.8</ele>
        <time>2022-06-19T09:58:51Z</time>
      </trkpt>
      <trkpt lat="42.8332910" lon="-8.6014110">
        <ele>157.6</ele>
        <time>2022-06-19T09:58:52Z</time>
      </trkpt>
      <trkpt lat="42.8333080" lon="-8.6013900">
        <ele>157.6</ele>
        <time>2022-06-19T09:58:53Z</time>
      </trkpt>
      <trkpt lat="42.8333230" lon="-8.6013660">
        <ele>157.6</ele>
        <time>2022-06-19T09:58:54Z</time>
      </trkpt>
      <trkpt lat="42.8333360" lon="-8.6013560">
        <ele>157.6</ele>
        <time>2022-06-19T09:58:55Z</time>
      </trkpt>
      <trkpt lat="42.8333500" lon="-8.6013480">
        <ele>158.0</ele>
        <time>2022-06-19T09:58:56Z</time>
      </trkpt>
      <trkpt lat="42.8333650" lon="-8.6013310">
        <ele>157.8</ele>
        <time>2022-06-19T09:58:57Z</time>
      </trkpt>
      <trkpt lat="42.8333830" lon="-8.6013100">
        <ele>157.8</ele>
        <time>2022-06-19T09:58:58Z</time>
      </trkpt>
      <trkpt lat="42.8334060" lon="-8.6012810">
        <ele>157.8</ele>
        <time>2022-06-19T09:58:59Z</time>
      </trkpt>
      <trkpt lat="42.8334130" lon="-8.6012650">
        <ele>157.8</ele>
        <time>2022-06-19T09:59:00Z</time>
      </trkpt>
      <trkpt lat="42.8334180" lon="-8.6012450">
        <ele>159.2</ele>
        <time>2022-06-19T09:59:01Z</time>
      </trkpt>
      <trkpt lat="42.8334280" lon="-8.6012260">
        <ele>159.2</ele>
        <time>2022-06-19T09:59:02Z</time>
      </trkpt>
      <trkpt lat="42.8334380" lon="-8.6011980">
        <ele>159.2</ele>
        <time>2022-06-19T09:59:03Z</time>
      </trkpt>
      <trkpt lat="42.8334460" lon="-8.6011700">
        <ele>159.2</ele>
        <time>2022-06-19T09:59:04Z</time>
      </trkpt>
      <trkpt lat="42.8334580" lon="-8.6011410">
        <ele>159.2</ele>
        <time>2022-06-19T09:59:05Z</time>
      </trkpt>
      <trkpt lat="42.8334730" lon="-8.6011180">
        <ele>159.2</ele>
        <time>2022-06-19T09:59:06Z</time>
      </trkpt>
      <trkpt lat="42.8334910" lon="-8.6010980">
        <ele>159.2</ele>
        <time>2022-06-19T09:59:07Z</time>
      </trkpt>
      <trkpt lat="42.8335100" lon="-8.6010780">
        <ele>159.2</ele>
        <time>2022-06-19T09:59:08Z</time>
      </trkpt>
      <trkpt lat="42.8335260" lon="-8.6010610">
        <ele>158.2</ele>
        <time>2022-06-19T09:59:09Z</time>
      </trkpt>
      <trkpt lat="42.8335480" lon="-8.6010510">
        <ele>158.2</ele>
        <time>2022-06-19T09:59:10Z</time>
      </trkpt>
      <trkpt lat="42.8335710" lon="-8.6010380">
        <ele>158.2</ele>
        <time>2022-06-19T09:59:11Z</time>
      </trkpt>
      <trkpt lat="42.8335950" lon="-8.6010260">
        <ele>158.8</ele>
        <time>2022-06-19T09:59:12Z</time>
      </trkpt>
      <trkpt lat="42.8336130" lon="-8.6010150">
        <ele>158.8</ele>
        <time>2022-06-19T09:59:13Z</time>
      </trkpt>
      <trkpt lat="42.8336350" lon="-8.6010030">
        <ele>158.8</ele>
        <time>2022-06-19T09:59:14Z</time>
      </trkpt>
      <trkpt lat="42.8336600" lon="-8.6009900">
        <ele>158.8</ele>
        <time>2022-06-19T09:59:15Z</time>
      </trkpt>
      <trkpt lat="42.8336860" lon="-8.6009710">
        <ele>158.8</ele>
        <time>2022-06-19T09:59:16Z</time>
      </trkpt>
      <trkpt lat="42.8337110" lon="-8.6009550">
        <ele>158.8</ele>
        <time>2022-06-19T09:59:17Z</time>
      </trkpt>
      <trkpt lat="42.8337350" lon="-8.6009430">
        <ele>158.8</ele>
        <time>2022-06-19T09:59:18Z</time>
      </trkpt>
      <trkpt lat="42.8337600" lon="-8.6009330">
        <ele>158.8</ele>
        <time>2022-06-19T09:59:19Z</time>
      </trkpt>
      <trkpt lat="42.8337810" lon="-8.6009180">
        <ele>159.2</ele>
        <time>2022-06-19T09:59:20Z</time>
      </trkpt>
      <trkpt lat="42.8338010" lon="-8.6009030">
        <ele>159.2</ele>
        <time>2022-06-19T09:59:21Z</time>
      </trkpt>
      <trkpt lat="42.8338230" lon="-8.6008860">
        <ele>159.2</ele>
        <time>2022-06-19T09:59:22Z</time>
      </trkpt>
      <trkpt lat="42.8338410" lon="-8.6008700">
        <ele>159.2</ele>
        <time>2022-06-19T09:59:23Z</time>
      </trkpt>
      <trkpt lat="42.8338630" lon="-8.6008550">
        <ele>159.8</ele>
        <time>2022-06-19T09:59:24Z</time>
      </trkpt>
      <trkpt lat="42.8338830" lon="-8.6008410">
        <ele>160.0</ele>
        <time>2022-06-19T09:59:25Z</time>
      </trkpt>
      <trkpt lat="42.8339060" lon="-8.6008250">
        <ele>160.0</ele>
        <time>2022-06-19T09:59:26Z</time>
      </trkpt>
      <trkpt lat="42.8339300" lon="-8.6008110">
        <ele>160.0</ele>
        <time>2022-06-19T09:59:27Z</time>
      </trkpt>
      <trkpt lat="42.8339510" lon="-8.6007960">
        <ele>160.0</ele>
        <time>2022-06-19T09:59:28Z</time>
      </trkpt>
      <trkpt lat="42.8339730" lon="-8.6007830">
        <ele>159.8</ele>
        <time>2022-06-19T09:59:29Z</time>
      </trkpt>
      <trkpt lat="42.8339960" lon="-8.6007700">
        <ele>159.8</ele>
        <time>2022-06-19T09:59:30Z</time>
      </trkpt>
      <trkpt lat="42.8340200" lon="-8.6007550">
        <ele>159.8</ele>
        <time>2022-06-19T09:59:31Z</time>
      </trkpt>
      <trkpt lat="42.8340410" lon="-8.6007430">
        <ele>159.8</ele>
        <time>2022-06-19T09:59:32Z</time>
      </trkpt>
      <trkpt lat="42.8340600" lon="-8.6007310">
        <ele>159.4</ele>
        <time>2022-06-19T09:59:33Z</time>
      </trkpt>
      <trkpt lat="42.8340800" lon="-8.6007110">
        <ele>159.4</ele>
        <time>2022-06-19T09:59:34Z</time>
      </trkpt>
      <trkpt lat="42.8340950" lon="-8.6006980">
        <ele>159.4</ele>
        <time>2022-06-19T09:59:35Z</time>
      </trkpt>
      <trkpt lat="42.8341130" lon="-8.6006860">
        <ele>159.4</ele>
        <time>2022-06-19T09:59:36Z</time>
      </trkpt>
      <trkpt lat="42.8341280" lon="-8.6006730">
        <ele>161.2</ele>
        <time>2022-06-19T09:59:37Z</time>
      </trkpt>
      <trkpt lat="42.8341460" lon="-8.6006510">
        <ele>161.2</ele>
        <time>2022-06-19T09:59:38Z</time>
      </trkpt>
      <trkpt lat="42.8341580" lon="-8.6006350">
        <ele>161.2</ele>
        <time>2022-06-19T09:59:39Z</time>
      </trkpt>
      <trkpt lat="42.8341730" lon="-8.6006180">
        <ele>160.4</ele>
        <time>2022-06-19T09:59:40Z</time>
      </trkpt>
      <trkpt lat="42.8341880" lon="-8.6006000">
        <ele>160.0</ele>
        <time>2022-06-19T09:59:41Z</time>
      </trkpt>
      <trkpt lat="42.8342060" lon="-8.6005810">
        <ele>160.0</ele>
        <time>2022-06-19T09:59:42Z</time>
      </trkpt>
      <trkpt lat="42.8342260" lon="-8.6005680">
        <ele>160.0</ele>
        <time>2022-06-19T09:59:43Z</time>
      </trkpt>
      <trkpt lat="42.8342480" lon="-8.6005580">
        <ele>160.6</ele>
        <time>2022-06-19T09:59:44Z</time>
      </trkpt>
      <trkpt lat="42.8342700" lon="-8.6005430">
        <ele>160.4</ele>
        <time>2022-06-19T09:59:45Z</time>
      </trkpt>
      <trkpt lat="42.8342860" lon="-8.6005260">
        <ele>160.4</ele>
        <time>2022-06-19T09:59:46Z</time>
      </trkpt>
      <trkpt lat="42.8343060" lon="-8.6004980">
        <ele>160.4</ele>
        <time>2022-06-19T09:59:47Z</time>
      </trkpt>
      <trkpt lat="42.8343210" lon="-8.6004680">
        <ele>160.6</ele>
        <time>2022-06-19T09:59:48Z</time>
      </trkpt>
      <trkpt lat="42.8343360" lon="-8.6004410">
        <ele>161.0</ele>
        <time>2022-06-19T09:59:49Z</time>
      </trkpt>
      <trkpt lat="42.8343510" lon="-8.6004260">
        <ele>161.0</ele>
        <time>2022-06-19T09:59:50Z</time>
      </trkpt>
      <trkpt lat="42.8343680" lon="-8.6004110">
        <ele>161.0</ele>
        <time>2022-06-19T09:59:51Z</time>
      </trkpt>
      <trkpt lat="42.8343780" lon="-8.6004000">
        <ele>161.0</ele>
        <time>2022-06-19T09:59:52Z</time>
      </trkpt>
      <trkpt lat="42.8343900" lon="-8.6003730">
        <ele>161.0</ele>
        <time>2022-06-19T09:59:53Z</time>
      </trkpt>
      <trkpt lat="42.8344080" lon="-8.6003380">
        <ele>161.0</ele>
        <time>2022-06-19T09:59:54Z</time>
      </trkpt>
      <trkpt lat="42.8344280" lon="-8.6003130">
        <ele>161.0</ele>
        <time>2022-06-19T09:59:55Z</time>
      </trkpt>
      <trkpt lat="42.8344560" lon="-8.6002950">
        <ele>161.0</ele>
        <time>2022-06-19T09:59:56Z</time>
      </trkpt>
      <trkpt lat="42.8344810" lon="-8.6002730">
        <ele>160.6</ele>
        <time>2022-06-19T09:59:57Z</time>
      </trkpt>
      <trkpt lat="42.8345060" lon="-8.6002500">
        <ele>160.6</ele>
        <time>2022-06-19T09:59:58Z</time>
      </trkpt>
      <trkpt lat="42.8345330" lon="-8.6002230">
        <ele>160.6</ele>
        <time>2022-06-19T09:59:59Z</time>
      </trkpt>
      <trkpt lat="42.8345600" lon="-8.6002010">
        <ele>160.6</ele>
        <time>2022-06-19T10:00:00Z</time>
      </trkpt>
      <trkpt lat="42.8345900" lon="-8.6001780">
        <ele>161.4</ele>
        <time>2022-06-19T10:00:01Z</time>
      </trkpt>
      <trkpt lat="42.8346180" lon="-8.6001560">
        <ele>161.4</ele>
        <time>2022-06-19T10:00:02Z</time>
      </trkpt>
      <trkpt lat="42.8346430" lon="-8.6001350">
        <ele>161.4</ele>
        <time>2022-06-19T10:00:03Z</time>
      </trkpt>
      <trkpt lat="42.8346710" lon="-8.6001150">
        <ele>160.8</ele>
        <time>2022-06-19T10:00:04Z</time>
      </trkpt>
      <trkpt lat="42.8346960" lon="-8.6000950">
        <ele>160.6</ele>
        <time>2022-06-19T10:00:05Z</time>
      </trkpt>
      <trkpt lat="42.8347200" lon="-8.6000710">
        <ele>160.6</ele>
        <time>2022-06-19T10:00:06Z</time>
      </trkpt>
      <trkpt lat="42.8347450" lon="-8.6000510">
        <ele>160.6</ele>
        <time>2022-06-19T10:00:07Z</time>
      </trkpt>
      <trkpt lat="42.8347700" lon="-8.6000300">
        <ele>160.6</ele>
        <time>2022-06-19T10:00:08Z</time>
      </trkpt>
      <trkpt lat="42.8347930" lon="-8.6000050">
        <ele>161.0</ele>
        <time>2022-06-19T10:00:09Z</time>
      </trkpt>
      <trkpt lat="42.8348200" lon="-8.5999800">
        <ele>161.0</ele>
        <time>2022-06-19T10:00:10Z</time>
      </trkpt>
      <trkpt lat="42.8348460" lon="-8.5999550">
        <ele>161.0</ele>
        <time>2022-06-19T10:00:11Z</time>
      </trkpt>
      <trkpt lat="42.8348710" lon="-8.5999300">
        <ele>161.2</ele>
        <time>2022-06-19T10:00:12Z</time>
      </trkpt>
      <trkpt lat="42.8348980" lon="-8.5999060">
        <ele>161.0</ele>
        <time>2022-06-19T10:00:13Z</time>
      </trkpt>
      <trkpt lat="42.8349210" lon="-8.5998830">
        <ele>161.0</ele>
        <time>2022-06-19T10:00:14Z</time>
      </trkpt>
      <trkpt lat="42.8349430" lon="-8.5998600">
        <ele>161.0</ele>
        <time>2022-06-19T10:00:15Z</time>
      </trkpt>
      <trkpt lat="42.8349660" lon="-8.5998410">
        <ele>161.2</ele>
        <time>2022-06-19T10:00:16Z</time>
      </trkpt>
      <trkpt lat="42.8349900" lon="-8.5998230">
        <ele>161.8</ele>
        <time>2022-06-19T10:00:17Z</time>
      </trkpt>
      <trkpt lat="42.8350130" lon="-8.5998010">
        <ele>161.8</ele>
        <time>2022-06-19T10:00:18Z</time>
      </trkpt>
      <trkpt lat="42.8350350" lon="-8.5997860">
        <ele>161.8</ele>
        <time>2022-06-19T10:00:19Z</time>
      </trkpt>
      <trkpt lat="42.8350560" lon="-8.5997700">
        <ele>161.8</ele>
        <time>2022-06-19T10:00:20Z</time>
      </trkpt>
      <trkpt lat="42.8350780" lon="-8.5997500">
        <ele>162.2</ele>
        <time>2022-06-19T10:00:21Z</time>
      </trkpt>
      <trkpt lat="42.8351000" lon="-8.5997310">
        <ele>162.2</ele>
        <time>2022-06-19T10:00:22Z</time>
      </trkpt>
      <trkpt lat="42.8351210" lon="-8.5997110">
        <ele>162.2</ele>
        <time>2022-06-19T10:00:23Z</time>
      </trkpt>
      <trkpt lat="42.8351450" lon="-8.5996880">
        <ele>162.2</ele>
        <time>2022-06-19T10:00:24Z</time>
      </trkpt>
      <trkpt lat="42.8351680" lon="-8.5996660">
        <ele>162.6</ele>
        <time>2022-06-19T10:00:25Z</time>
      </trkpt>
      <trkpt lat="42.8351880" lon="-8.5996480">
        <ele>162.6</ele>
        <time>2022-06-19T10:00:26Z</time>
      </trkpt>
      <trkpt lat="42.8352100" lon="-8.5996280">
        <ele>162.6</ele>
        <time>2022-06-19T10:00:27Z</time>
      </trkpt>
      <trkpt lat="42.8352280" lon="-8.5996100">
        <ele>162.6</ele>
        <time>2022-06-19T10:00:28Z</time>
      </trkpt>
      <trkpt lat="42.8352450" lon="-8.5995900">
        <ele>163.6</ele>
        <time>2022-06-19T10:00:29Z</time>
      </trkpt>
      <trkpt lat="42.8352580" lon="-8.5995730">
        <ele>163.6</ele>
        <time>2022-06-19T10:00:30Z</time>
      </trkpt>
      <trkpt lat="42.8352700" lon="-8.5995630">
        <ele>163.6</ele>
        <time>2022-06-19T10:00:31Z</time>
      </trkpt>
      <trkpt lat="42.8352830" lon="-8.5995460">
        <ele>162.6</ele>
        <time>2022-06-19T10:00:32Z</time>
      </trkpt>
      <trkpt lat="42.8353000" lon="-8.5995260">
        <ele>162.8</ele>
        <time>2022-06-19T10:00:33Z</time>
      </trkpt>
      <trkpt lat="42.8353110" lon="-8.5995030">
        <ele>162.8</ele>
        <time>2022-06-19T10:00:34Z</time>
      </trkpt>
      <trkpt lat="42.8353300" lon="-8.5994780">
        <ele>162.8</ele>
        <time>2022-06-19T10:00:35Z</time>
      </trkpt>
      <trkpt lat="42.8353450" lon="-8.5994560">
        <ele>163.6</ele>
        <time>2022-06-19T10:00:36Z</time>
      </trkpt>
      <trkpt lat="42.8353610" lon="-8.5994280">
        <ele>164.4</ele>
        <time>2022-06-19T10:00:37Z</time>
      </trkpt>
      <trkpt lat="42.8353750" lon="-8.5994010">
        <ele>164.4</ele>
        <time>2022-06-19T10:00:38Z</time>
      </trkpt>
      <trkpt lat="42.8353860" lon="-8.5993730">
        <ele>164.4</ele>
        <time>2022-06-19T10:00:39Z</time>
      </trkpt>
      <trkpt lat="42.8354010" lon="-8.5993480">
        <ele>164.4</ele>
        <time>2022-06-19T10:00:40Z</time>
      </trkpt>
      <trkpt lat="42.8354130" lon="-8.5993300">
        <ele>165.2</ele>
        <time>2022-06-19T10:00:41Z</time>
      </trkpt>
      <trkpt lat="42.8354280" lon="-8.5993150">
        <ele>165.2</ele>
        <time>2022-06-19T10:00:42Z</time>
      </trkpt>
      <trkpt lat="42.8354400" lon="-8.5992980">
        <ele>165.2</ele>
        <time>2022-06-19T10:00:43Z</time>
      </trkpt>
      <trkpt lat="42.8354530" lon="-8.5992810">
        <ele>165.2</ele>
        <time>2022-06-19T10:00:44Z</time>
      </trkpt>
      <trkpt lat="42.8354610" lon="-8.5992700">
        <ele>166.0</ele>
        <time>2022-06-19T10:00:45Z</time>
      </trkpt>
      <trkpt lat="42.8354710" lon="-8.5992560">
        <ele>166.0</ele>
        <time>2022-06-19T10:00:46Z</time>
      </trkpt>
      <trkpt lat="42.8354830" lon="-8.5992400">
        <ele>166.0</ele>
        <time>2022-06-19T10:00:47Z</time>
      </trkpt>
      <trkpt lat="42.8354960" lon="-8.5992210">
        <ele>166.0</ele>
        <time>2022-06-19T10:00:48Z</time>
      </trkpt>
      <trkpt lat="42.8355110" lon="-8.5992060">
        <ele>166.0</ele>
        <time>2022-06-19T10:00:49Z</time>
      </trkpt>
      <trkpt lat="42.8355310" lon="-8.5991900">
        <ele>166.0</ele>
        <time>2022-06-19T10:00:50Z</time>
      </trkpt>
      <trkpt lat="42.8355460" lon="-8.5991680">
        <ele>166.0</ele>
        <time>2022-06-19T10:00:51Z</time>
      </trkpt>
      <trkpt lat="42.8355580" lon="-8.5991460">
        <ele>167.0</ele>
        <time>2022-06-19T10:00:52Z</time>
      </trkpt>
      <trkpt lat="42.8355680" lon="-8.5991250">
        <ele>167.2</ele>
        <time>2022-06-19T10:00:53Z</time>
      </trkpt>
      <trkpt lat="42.8355780" lon="-8.5991060">
        <ele>167.2</ele>
        <time>2022-06-19T10:00:54Z</time>
      </trkpt>
      <trkpt lat="42.8355880" lon="-8.5990900">
        <ele>167.2</ele>
        <time>2022-06-19T10:00:55Z</time>
      </trkpt>
      <trkpt lat="42.8356010" lon="-8.5990680">
        <ele>167.6</ele>
        <time>2022-06-19T10:00:56Z</time>
      </trkpt>
      <trkpt lat="42.8356110" lon="-8.5990450">
        <ele>167.6</ele>
        <time>2022-06-19T10:00:57Z</time>
      </trkpt>
      <trkpt lat="42.8356210" lon="-8.5990160">
        <ele>167.6</ele>
        <time>2022-06-19T10:00:58Z</time>
      </trkpt>
      <trkpt lat="42.8356300" lon="-8.5989900">
        <ele>167.6</ele>
        <time>2022-06-19T10:00:59Z</time>
      </trkpt>
      <trkpt lat="42.8356360" lon="-8.5989660">
        <ele>167.8</ele>
        <time>2022-06-19T10:01:00Z</time>
      </trkpt>
      <trkpt lat="42.8356450" lon="-8.5989430">
        <ele>168.0</ele>
        <time>2022-06-19T10:01:01Z</time>
      </trkpt>
      <trkpt lat="42.8356510" lon="-8.5989200">
        <ele>168.0</ele>
        <time>2022-06-19T10:01:02Z</time>
      </trkpt>
      <trkpt lat="42.8356560" lon="-8.5988930">
        <ele>168.0</ele>
        <time>2022-06-19T10:01:03Z</time>
      </trkpt>
      <trkpt lat="42.8356630" lon="-8.5988660">
        <ele>168.4</ele>
        <time>2022-06-19T10:01:04Z</time>
      </trkpt>
      <trkpt lat="42.8356700" lon="-8.5988380">
        <ele>168.2</ele>
        <time>2022-06-19T10:01:05Z</time>
      </trkpt>
      <trkpt lat="42.8356750" lon="-8.5988100">
        <ele>168.2</ele>
        <time>2022-06-19T10:01:06Z</time>
      </trkpt>
      <trkpt lat="42.8356780" lon="-8.5987810">
        <ele>168.2</ele>
        <time>2022-06-19T10:01:07Z</time>
      </trkpt>
      <trkpt lat="42.8356850" lon="-8.5987550">
        <ele>168.6</ele>
        <time>2022-06-19T10:01:08Z</time>
      </trkpt>
      <trkpt lat="42.8356910" lon="-8.5987280">
        <ele>168.8</ele>
        <time>2022-06-19T10:01:09Z</time>
      </trkpt>
      <trkpt lat="42.8356960" lon="-8.5987010">
        <ele>168.8</ele>
        <time>2022-06-19T10:01:10Z</time>
      </trkpt>
      <trkpt lat="42.8357050" lon="-8.5986750">
        <ele>168.8</ele>
        <time>2022-06-19T10:01:11Z</time>
      </trkpt>
      <trkpt lat="42.8357110" lon="-8.5986510">
        <ele>168.8</ele>
        <time>2022-06-19T10:01:12Z</time>
      </trkpt>
      <trkpt lat="42.8357210" lon="-8.5986300">
        <ele>168.2</ele>
        <time>2022-06-19T10:01:13Z</time>
      </trkpt>
      <trkpt lat="42.8357300" lon="-8.5986050">
        <ele>168.2</ele>
        <time>2022-06-19T10:01:14Z</time>
      </trkpt>
      <trkpt lat="42.8357380" lon="-8.5985800">
        <ele>168.2</ele>
        <time>2022-06-19T10:01:15Z</time>
      </trkpt>
      <trkpt lat="42.8357460" lon="-8.5985580">
        <ele>169.2</ele>
        <time>2022-06-19T10:01:16Z</time>
      </trkpt>
      <trkpt lat="42.8357530" lon="-8.5985430">
        <ele>169.6</ele>
        <time>2022-06-19T10:01:17Z</time>
      </trkpt>
      <trkpt lat="42.8357630" lon="-8.5985260">
        <ele>169.6</ele>
        <time>2022-06-19T10:01:18Z</time>
      </trkpt>
      <trkpt lat="42.8357680" lon="-8.5985060">
        <ele>169.6</ele>
        <time>2022-06-19T10:01:19Z</time>
      </trkpt>
      <trkpt lat="42.8357730" lon="-8.5984900">
        <ele>170.6</ele>
        <time>2022-06-19T10:01:20Z</time>
      </trkpt>
      <trkpt lat="42.8357810" lon="-8.5984700">
        <ele>170.8</ele>
        <time>2022-06-19T10:01:21Z</time>
      </trkpt>
      <trkpt lat="42.8357880" lon="-8.5984500">
        <ele>170.8</ele>
        <time>2022-06-19T10:01:22Z</time>
      </trkpt>
      <trkpt lat="42.8357980" lon="-8.5984310">
        <ele>170.8</ele>
        <time>2022-06-19T10:01:23Z</time>
      </trkpt>
      <trkpt lat="42.8358180" lon="-8.5984060">
        <ele>170.8</ele>
        <time>2022-06-19T10:01:24Z</time>
      </trkpt>
      <trkpt lat="42.8358280" lon="-8.5983860">
        <ele>170.8</ele>
        <time>2022-06-19T10:01:25Z</time>
      </trkpt>
      <trkpt lat="42.8358400" lon="-8.5983650">
        <ele>170.8</ele>
        <time>2022-06-19T10:01:26Z</time>
      </trkpt>
      <trkpt lat="42.8358530" lon="-8.5983410">
        <ele>170.8</ele>
        <time>2022-06-19T10:01:27Z</time>
      </trkpt>
      <trkpt lat="42.8358650" lon="-8.5983160">
        <ele>170.8</ele>
        <time>2022-06-19T10:01:28Z</time>
      </trkpt>
      <trkpt lat="42.8358800" lon="-8.5982950">
        <ele>171.4</ele>
        <time>2022-06-19T10:01:29Z</time>
      </trkpt>
      <trkpt lat="42.8358960" lon="-8.5982680">
        <ele>171.4</ele>
        <time>2022-06-19T10:01:30Z</time>
      </trkpt>
      <trkpt lat="42.8359180" lon="-8.5982360">
        <ele>171.4</ele>
        <time>2022-06-19T10:01:31Z</time>
      </trkpt>
      <trkpt lat="42.8359430" lon="-8.5982030">
        <ele>170.4</ele>
        <time>2022-06-19T10:01:32Z</time>
      </trkpt>
      <trkpt lat="42.8359730" lon="-8.5981660">
        <ele>169.6</ele>
        <time>2022-06-19T10:01:33Z</time>
      </trkpt>
      <trkpt lat="42.8360010" lon="-8.5981300">
        <ele>169.6</ele>
        <time>2022-06-19T10:01:34Z</time>
      </trkpt>
      <trkpt lat="42.8360300" lon="-8.5980930">
        <ele>169.6</ele>
        <time>2022-06-19T10:01:35Z</time>
      </trkpt>
      <trkpt lat="42.8360510" lon="-8.5980650">
        <ele>169.6</ele>
        <time>2022-06-19T10:01:36Z</time>
      </trkpt>
      <trkpt lat="42.8360730" lon="-8.5980300">
        <ele>169.4</ele>
        <time>2022-06-19T10:01:37Z</time>
      </trkpt>
      <trkpt lat="42.8361000" lon="-8.5979910">
        <ele>169.4</ele>
        <time>2022-06-19T10:01:38Z</time>
      </trkpt>
      <trkpt lat="42.8361310" lon="-8.5979650">
        <ele>169.4</ele>
        <time>2022-06-19T10:01:39Z</time>
      </trkpt>
      <trkpt lat="42.8361610" lon="-8.5979360">
        <ele>169.6</ele>
        <time>2022-06-19T10:01:40Z</time>
      </trkpt>
      <trkpt lat="42.8361810" lon="-8.5979080">
        <ele>169.8</ele>
        <time>2022-06-19T10:01:41Z</time>
      </trkpt>
      <trkpt lat="42.8362000" lon="-8.5978810">
        <ele>169.8</ele>
        <time>2022-06-19T10:01:42Z</time>
      </trkpt>
      <trkpt lat="42.8362230" lon="-8.5978550">
        <ele>169.8</ele>
        <time>2022-06-19T10:01:43Z</time>
      </trkpt>
      <trkpt lat="42.8362310" lon="-8.5978250">
        <ele>169.8</ele>
        <time>2022-06-19T10:01:44Z</time>
      </trkpt>
      <trkpt lat="42.8362430" lon="-8.5977950">
        <ele>169.8</ele>
        <time>2022-06-19T10:01:45Z</time>
      </trkpt>
      <trkpt lat="42.8362550" lon="-8.5977530">
        <ele>169.8</ele>
        <time>2022-06-19T10:01:46Z</time>
      </trkpt>
      <trkpt lat="42.8362630" lon="-8.5977210">
        <ele>169.8</ele>
        <time>2022-06-19T10:01:47Z</time>
      </trkpt>
      <trkpt lat="42.8362750" lon="-8.5976760">
        <ele>169.8</ele>
        <time>2022-06-19T10:01:48Z</time>
      </trkpt>
      <trkpt lat="42.8362850" lon="-8.5976410">
        <ele>169.8</ele>
        <time>2022-06-19T10:01:49Z</time>
      </trkpt>
      <trkpt lat="42.8362950" lon="-8.5975960">
        <ele>169.8</ele>
        <time>2022-06-19T10:01:50Z</time>
      </trkpt>
      <trkpt lat="42.8363010" lon="-8.5975460">
        <ele>169.8</ele>
        <time>2022-06-19T10:01:51Z</time>
      </trkpt>
      <trkpt lat="42.8363080" lon="-8.5974950">
        <ele>169.8</ele>
        <time>2022-06-19T10:01:52Z</time>
      </trkpt>
      <trkpt lat="42.8363150" lon="-8.5974430">
        <ele>169.8</ele>
        <time>2022-06-19T10:01:53Z</time>
      </trkpt>
      <trkpt lat="42.8363230" lon="-8.5973960">
        <ele>169.8</ele>
        <time>2022-06-19T10:01:54Z</time>
      </trkpt>
      <trkpt lat="42.8363350" lon="-8.5973480">
        <ele>169.8</ele>
        <time>2022-06-19T10:01:55Z</time>
      </trkpt>
      <trkpt lat="42.8363430" lon="-8.5973060">
        <ele>169.8</ele>
        <time>2022-06-19T10:01:56Z</time>
      </trkpt>
      <trkpt lat="42.8363550" lon="-8.5972650">
        <ele>170.6</ele>
        <time>2022-06-19T10:01:57Z</time>
      </trkpt>
      <trkpt lat="42.8363650" lon="-8.5972110">
        <ele>170.6</ele>
        <time>2022-06-19T10:01:58Z</time>
      </trkpt>
      <trkpt lat="42.8363730" lon="-8.5971610">
        <ele>170.6</ele>
        <time>2022-06-19T10:01:59Z</time>
      </trkpt>
      <trkpt lat="42.8363850" lon="-8.5971210">
        <ele>170.4</ele>
        <time>2022-06-19T10:02:00Z</time>
      </trkpt>
      <trkpt lat="42.8363900" lon="-8.5970850">
        <ele>170.4</ele>
        <time>2022-06-19T10:02:01Z</time>
      </trkpt>
      <trkpt lat="42.8363960" lon="-8.5970450">
        <ele>170.4</ele>
        <time>2022-06-19T10:02:02Z</time>
      </trkpt>
      <trkpt lat="42.8364010" lon="-8.5970050">
        <ele>170.4</ele>
        <time>2022-06-19T10:02:03Z</time>
      </trkpt>
      <trkpt lat="42.8364050" lon="-8.5969600">
        <ele>170.4</ele>
        <time>2022-06-19T10:02:04Z</time>
      </trkpt>
      <trkpt lat="42.8364130" lon="-8.5969130">
        <ele>170.6</ele>
        <time>2022-06-19T10:02:05Z</time>
      </trkpt>
      <trkpt lat="42.8364180" lon="-8.5968650">
        <ele>170.6</ele>
        <time>2022-06-19T10:02:06Z</time>
      </trkpt>
      <trkpt lat="42.8364200" lon="-8.5968180">
        <ele>170.6</ele>
        <time>2022-06-19T10:02:07Z</time>
      </trkpt>
      <trkpt lat="42.8364250" lon="-8.5967650">
        <ele>169.8</ele>
        <time>2022-06-19T10:02:08Z</time>
      </trkpt>
      <trkpt lat="42.8364310" lon="-8.5967130">
        <ele>169.8</ele>
        <time>2022-06-19T10:02:09Z</time>
      </trkpt>
      <trkpt lat="42.8364410" lon="-8.5966650">
        <ele>169.8</ele>
        <time>2022-06-19T10:02:10Z</time>
      </trkpt>
      <trkpt lat="42.8364410" lon="-8.5966150">
        <ele>169.8</ele>
        <time>2022-06-19T10:02:11Z</time>
      </trkpt>
      <trkpt lat="42.8364450" lon="-8.5965700">
        <ele>169.4</ele>
        <time>2022-06-19T10:02:12Z</time>
      </trkpt>
      <trkpt lat="42.8364510" lon="-8.5965210">
        <ele>169.8</ele>
        <time>2022-06-19T10:02:13Z</time>
      </trkpt>
      <trkpt lat="42.8364580" lon="-8.5964760">
        <ele>169.8</ele>
        <time>2022-06-19T10:02:14Z</time>
      </trkpt>
      <trkpt lat="42.8364650" lon="-8.5964330">
        <ele>169.8</ele>
        <time>2022-06-19T10:02:15Z</time>
      </trkpt>
      <trkpt lat="42.8364660" lon="-8.5963960">
        <ele>169.8</ele>
        <time>2022-06-19T10:02:16Z</time>
      </trkpt>
      <trkpt lat="42.8364700" lon="-8.5963610">
        <ele>169.8</ele>
        <time>2022-06-19T10:02:17Z</time>
      </trkpt>
      <trkpt lat="42.8364750" lon="-8.5963200">
        <ele>169.8</ele>
        <time>2022-06-19T10:02:18Z</time>
      </trkpt>
      <trkpt lat="42.8364780" lon="-8.5962880">
        <ele>169.8</ele>
        <time>2022-06-19T10:02:19Z</time>
      </trkpt>
      <trkpt lat="42.8364830" lon="-8.5962480">
        <ele>169.8</ele>
        <time>2022-06-19T10:02:20Z</time>
      </trkpt>
      <trkpt lat="42.8364880" lon="-8.5962010">
        <ele>169.8</ele>
        <time>2022-06-19T10:02:21Z</time>
      </trkpt>
      <trkpt lat="42.8364930" lon="-8.5961510">
        <ele>169.8</ele>
        <time>2022-06-19T10:02:22Z</time>
      </trkpt>
      <trkpt lat="42.8364960" lon="-8.5961150">
        <ele>169.8</ele>
        <time>2022-06-19T10:02:23Z</time>
      </trkpt>
      <trkpt lat="42.8365000" lon="-8.5960760">
        <ele>169.8</ele>
        <time>2022-06-19T10:02:24Z</time>
      </trkpt>
      <trkpt lat="42.8365030" lon="-8.5960380">
        <ele>169.8</ele>
        <time>2022-06-19T10:02:25Z</time>
      </trkpt>
      <trkpt lat="42.8365110" lon="-8.5959880">
        <ele>169.8</ele>
        <time>2022-06-19T10:02:26Z</time>
      </trkpt>
      <trkpt lat="42.8365130" lon="-8.5959400">
        <ele>169.8</ele>
        <time>2022-06-19T10:02:27Z</time>
      </trkpt>
      <trkpt lat="42.8365180" lon="-8.5959080">
        <ele>169.8</ele>
        <time>2022-06-19T10:02:28Z</time>
      </trkpt>
      <trkpt lat="42.8365210" lon="-8.5958680">
        <ele>170.2</ele>
        <time>2022-06-19T10:02:29Z</time>
      </trkpt>
      <trkpt lat="42.8365230" lon="-8.5958330">
        <ele>170.2</ele>
        <time>2022-06-19T10:02:30Z</time>
      </trkpt>
      <trkpt lat="42.8365210" lon="-8.5957900">
        <ele>170.2</ele>
        <time>2022-06-19T10:02:31Z</time>
      </trkpt>
      <trkpt lat="42.8365210" lon="-8.5957410">
        <ele>170.6</ele>
        <time>2022-06-19T10:02:32Z</time>
      </trkpt>
      <trkpt lat="42.8365250" lon="-8.5957030">
        <ele>170.4</ele>
        <time>2022-06-19T10:02:33Z</time>
      </trkpt>
      <trkpt lat="42.8365180" lon="-8.5956750">
        <ele>170.4</ele>
        <time>2022-06-19T10:02:34Z</time>
      </trkpt>
      <trkpt lat="42.8365150" lon="-8.5956450">
        <ele>170.4</ele>
        <time>2022-06-19T10:02:35Z</time>
      </trkpt>
      <trkpt lat="42.8365210" lon="-8.5956060">
        <ele>170.8</ele>
        <time>2022-06-19T10:02:36Z</time>
      </trkpt>
      <trkpt lat="42.8365280" lon="-8.5955730">
        <ele>171.4</ele>
        <time>2022-06-19T10:02:37Z</time>
      </trkpt>
      <trkpt lat="42.8365330" lon="-8.5955430">
        <ele>171.4</ele>
        <time>2022-06-19T10:02:38Z</time>
      </trkpt>
      <trkpt lat="42.8365330" lon="-8.5955030">
        <ele>171.4</ele>
        <time>2022-06-19T10:02:39Z</time>
      </trkpt>
      <trkpt lat="42.8365280" lon="-8.5954780">
        <ele>172.4</ele>
        <time>2022-06-19T10:02:40Z</time>
      </trkpt>
      <trkpt lat="42.8365200" lon="-8.5954600">
        <ele>172.2</ele>
        <time>2022-06-19T10:02:41Z</time>
      </trkpt>
      <trkpt lat="42.8365180" lon="-8.5954400">
        <ele>172.2</ele>
        <time>2022-06-19T10:02:42Z</time>
      </trkpt>
      <trkpt lat="42.8365210" lon="-8.5954150">
        <ele>172.2</ele>
        <time>2022-06-19T10:02:43Z</time>
      </trkpt>
      <trkpt lat="42.8365200" lon="-8.5953930">
        <ele>173.0</ele>
        <time>2022-06-19T10:02:44Z</time>
      </trkpt>
      <trkpt lat="42.8365130" lon="-8.5953550">
        <ele>173.0</ele>
        <time>2022-06-19T10:02:45Z</time>
      </trkpt>
      <trkpt lat="42.8365060" lon="-8.5953280">
        <ele>173.0</ele>
        <time>2022-06-19T10:02:46Z</time>
      </trkpt>
      <trkpt lat="42.8365010" lon="-8.5953010">
        <ele>173.0</ele>
        <time>2022-06-19T10:02:47Z</time>
      </trkpt>
      <trkpt lat="42.8365000" lon="-8.5952810">
        <ele>173.0</ele>
        <time>2022-06-19T10:02:48Z</time>
      </trkpt>
      <trkpt lat="42.8364900" lon="-8.5952560">
        <ele>174.0</ele>
        <time>2022-06-19T10:02:49Z</time>
      </trkpt>
      <trkpt lat="42.8364830" lon="-8.5952330">
        <ele>174.0</ele>
        <time>2022-06-19T10:02:50Z</time>
      </trkpt>
      <trkpt lat="42.8364810" lon="-8.5951980">
        <ele>174.0</ele>
        <time>2022-06-19T10:02:51Z</time>
      </trkpt>
      <trkpt lat="42.8364760" lon="-8.5951630">
        <ele>175.0</ele>
        <time>2022-06-19T10:02:52Z</time>
      </trkpt>
      <trkpt lat="42.8364810" lon="-8.5951280">
        <ele>175.2</ele>
        <time>2022-06-19T10:02:53Z</time>
      </trkpt>
      <trkpt lat="42.8364800" lon="-8.5950960">
        <ele>175.2</ele>
        <time>2022-06-19T10:02:54Z</time>
      </trkpt>
      <trkpt lat="42.8364710" lon="-8.5950700">
        <ele>175.2</ele>
        <time>2022-06-19T10:02:55Z</time>
      </trkpt>
      <trkpt lat="42.8364630" lon="-8.5950480">
        <ele>175.2</ele>
        <time>2022-06-19T10:02:56Z</time>
      </trkpt>
      <trkpt lat="42.8364650" lon="-8.5950300">
        <ele>175.8</ele>
        <time>2022-06-19T10:02:57Z</time>
      </trkpt>
      <trkpt lat="42.8364650" lon="-8.5950130">
        <ele>175.8</ele>
        <time>2022-06-19T10:02:58Z</time>
      </trkpt>
      <trkpt lat="42.8364580" lon="-8.5949910">
        <ele>175.8</ele>
        <time>2022-06-19T10:02:59Z</time>
      </trkpt>
      <trkpt lat="42.8364510" lon="-8.5949660">
        <ele>176.4</ele>
        <time>2022-06-19T10:03:00Z</time>
      </trkpt>
      <trkpt lat="42.8364500" lon="-8.5949410">
        <ele>176.8</ele>
        <time>2022-06-19T10:03:01Z</time>
      </trkpt>
      <trkpt lat="42.8364500" lon="-8.5949280">
        <ele>176.8</ele>
        <time>2022-06-19T10:03:02Z</time>
      </trkpt>
      <trkpt lat="42.8364380" lon="-8.5949030">
        <ele>176.8</ele>
        <time>2022-06-19T10:03:03Z</time>
      </trkpt>
      <trkpt lat="42.8364280" lon="-8.5948730">
        <ele>176.8</ele>
        <time>2022-06-19T10:03:04Z</time>
      </trkpt>
      <trkpt lat="42.8364250" lon="-8.5948460">
        <ele>177.0</ele>
        <time>2022-06-19T10:03:05Z</time>
      </trkpt>
      <trkpt lat="42.8364200" lon="-8.5948230">
        <ele>177.0</ele>
        <time>2022-06-19T10:03:06Z</time>
      </trkpt>
      <trkpt lat="42.8364150" lon="-8.5948050">
        <ele>177.0</ele>
        <time>2022-06-19T10:03:07Z</time>
      </trkpt>
      <trkpt lat="42.8364130" lon="-8.5947830">
        <ele>177.6</ele>
        <time>2022-06-19T10:03:08Z</time>
      </trkpt>
      <trkpt lat="42.8364150" lon="-8.5947550">
        <ele>177.6</ele>
        <time>2022-06-19T10:03:09Z</time>
      </trkpt>
      <trkpt lat="42.8364100" lon="-8.5947300">
        <ele>177.6</ele>
        <time>2022-06-19T10:03:10Z</time>
      </trkpt>
      <trkpt lat="42.8364010" lon="-8.5947000">
        <ele>177.6</ele>
        <time>2022-06-19T10:03:11Z</time>
      </trkpt>
      <trkpt lat="42.8364010" lon="-8.5946800">
        <ele>177.6</ele>
        <time>2022-06-19T10:03:12Z</time>
      </trkpt>
      <trkpt lat="42.8363960" lon="-8.5946500">
        <ele>177.8</ele>
        <time>2022-06-19T10:03:13Z</time>
      </trkpt>
      <trkpt lat="42.8363910" lon="-8.5946280">
        <ele>177.8</ele>
        <time>2022-06-19T10:03:14Z</time>
      </trkpt>
      <trkpt lat="42.8363900" lon="-8.5946160">
        <ele>177.8</ele>
        <time>2022-06-19T10:03:15Z</time>
      </trkpt>
      <trkpt lat="42.8363900" lon="-8.5946160">
        <ele>178.6</ele>
        <time>2022-06-19T10:03:16Z</time>
      </trkpt>
      <trkpt lat="42.8363860" lon="-8.5945960">
        <ele>178.2</ele>
        <time>2022-06-19T10:03:17Z</time>
      </trkpt>
      <trkpt lat="42.8363860" lon="-8.5945830">
        <ele>178.2</ele>
        <time>2022-06-19T10:03:18Z</time>
      </trkpt>
      <trkpt lat="42.8363830" lon="-8.5945630">
        <ele>178.2</ele>
        <time>2022-06-19T10:03:19Z</time>
      </trkpt>
      <trkpt lat="42.8363860" lon="-8.5945530">
        <ele>178.4</ele>
        <time>2022-06-19T10:03:20Z</time>
      </trkpt>
      <trkpt lat="42.8363960" lon="-8.5945400">
        <ele>179.2</ele>
        <time>2022-06-19T10:03:21Z</time>
      </trkpt>
      <trkpt lat="42.8363980" lon="-8.5945310">
        <ele>179.2</ele>
        <time>2022-06-19T10:03:22Z</time>
      </trkpt>
      <trkpt lat="42.8363980" lon="-8.5945310">
        <ele>179.2</ele>
        <time>2022-06-19T10:03:23Z</time>
      </trkpt>
      <trkpt lat="42.8363960" lon="-8.5945160">
        <ele>178.8</ele>
        <time>2022-06-19T10:03:24Z</time>
      </trkpt>
      <trkpt lat="42.8363980" lon="-8.5945010">
        <ele>179.2</ele>
        <time>2022-06-19T10:03:25Z</time>
      </trkpt>
      <trkpt lat="42.8363960" lon="-8.5944860">
        <ele>179.2</ele>
        <time>2022-06-19T10:03:26Z</time>
      </trkpt>
      <trkpt lat="42.8363980" lon="-8.5944760">
        <ele>179.2</ele>
        <time>2022-06-19T10:03:27Z</time>
      </trkpt>
      <trkpt lat="42.8364030" lon="-8.5944660">
        <ele>179.2</ele>
        <time>2022-06-19T10:03:28Z</time>
      </trkpt>
      <trkpt lat="42.8364080" lon="-8.5944600">
        <ele>179.0</ele>
        <time>2022-06-19T10:03:29Z</time>
      </trkpt>
      <trkpt lat="42.8364080" lon="-8.5944600">
        <ele>179.0</ele>
        <time>2022-06-19T10:03:30Z</time>
      </trkpt>
      <trkpt lat="42.8364610" lon="-8.5941400">
        <ele>181.2</ele>
        <time>2022-06-19T10:04:15Z</time>
      </trkpt>
      <trkpt lat="42.8364660" lon="-8.5941210">
        <ele>182.0</ele>
        <time>2022-06-19T10:04:16Z</time>
      </trkpt>
      <trkpt lat="42.8364710" lon="-8.5941010">
        <ele>181.2</ele>
        <time>2022-06-19T10:04:17Z</time>
      </trkpt>
      <trkpt lat="42.8364710" lon="-8.5940880">
        <ele>181.2</ele>
        <time>2022-06-19T10:04:18Z</time>
      </trkpt>
      <trkpt lat="42.8364700" lon="-8.5940710">
        <ele>181.2</ele>
        <time>2022-06-19T10:04:19Z</time>
      </trkpt>
      <trkpt lat="42.8364750" lon="-8.5940600">
        <ele>182.2</ele>
        <time>2022-06-19T10:04:20Z</time>
      </trkpt>
      <trkpt lat="42.8364760" lon="-8.5940460">
        <ele>182.4</ele>
        <time>2022-06-19T10:04:21Z</time>
      </trkpt>
      <trkpt lat="42.8364800" lon="-8.5940300">
        <ele>182.4</ele>
        <time>2022-06-19T10:04:22Z</time>
      </trkpt>
      <trkpt lat="42.8364800" lon="-8.5940160">
        <ele>182.4</ele>
        <time>2022-06-19T10:04:23Z</time>
      </trkpt>
      <trkpt lat="42.8364810" lon="-8.5940000">
        <ele>182.4</ele>
        <time>2022-06-19T10:04:24Z</time>
      </trkpt>
      <trkpt lat="42.8364860" lon="-8.5939850">
        <ele>183.2</ele>
        <time>2022-06-19T10:04:25Z</time>
      </trkpt>
      <trkpt lat="42.8364810" lon="-8.5939700">
        <ele>183.2</ele>
        <time>2022-06-19T10:04:26Z</time>
      </trkpt>
      <trkpt lat="42.8364780" lon="-8.5939550">
        <ele>183.2</ele>
        <time>2022-06-19T10:04:27Z</time>
      </trkpt>
      <trkpt lat="42.8364780" lon="-8.5939450">
        <ele>183.2</ele>
        <time>2022-06-19T10:04:28Z</time>
      </trkpt>
      <trkpt lat="42.8364710" lon="-8.5939300">
        <ele>183.4</ele>
        <time>2022-06-19T10:04:29Z</time>
      </trkpt>
      <trkpt lat="42.8364650" lon="-8.5939130">
        <ele>183.4</ele>
        <time>2022-06-19T10:04:30Z</time>
      </trkpt>
      <trkpt lat="42.8364610" lon="-8.5938980">
        <ele>183.4</ele>
        <time>2022-06-19T10:04:31Z</time>
      </trkpt>
      <trkpt lat="42.8364560" lon="-8.5938730">
        <ele>184.0</ele>
        <time>2022-06-19T10:04:32Z</time>
      </trkpt>
      <trkpt lat="42.8364560" lon="-8.5938530">
        <ele>184.0</ele>
        <time>2022-06-19T10:04:33Z</time>
      </trkpt>
      <trkpt lat="42.8364550" lon="-8.5938380">
        <ele>184.0</ele>
        <time>2022-06-19T10:04:34Z</time>
      </trkpt>
      <trkpt lat="42.8364560" lon="-8.5938200">
        <ele>184.0</ele>
        <time>2022-06-19T10:04:35Z</time>
      </trkpt>
      <trkpt lat="42.8364560" lon="-8.5938050">
        <ele>184.0</ele>
        <time>2022-06-19T10:04:36Z</time>
      </trkpt>
      <trkpt lat="42.8364580" lon="-8.5937930">
        <ele>184.0</ele>
        <time>2022-06-19T10:04:37Z</time>
      </trkpt>
      <trkpt lat="42.8364610" lon="-8.5937780">
        <ele>184.0</ele>
        <time>2022-06-19T10:04:38Z</time>
      </trkpt>
      <trkpt lat="42.8364580" lon="-8.5937660">
        <ele>184.0</ele>
        <time>2022-06-19T10:04:39Z</time>
      </trkpt>
      <trkpt lat="42.8364560" lon="-8.5937530">
        <ele>185.0</ele>
        <time>2022-06-19T10:04:40Z</time>
      </trkpt>
      <trkpt lat="42.8364550" lon="-8.5937330">
        <ele>185.8</ele>
        <time>2022-06-19T10:04:41Z</time>
      </trkpt>
      <trkpt lat="42.8364500" lon="-8.5937180">
        <ele>185.8</ele>
        <time>2022-06-19T10:04:42Z</time>
      </trkpt>
      <trkpt lat="42.8364430" lon="-8.5937050">
        <ele>185.8</ele>
        <time>2022-06-19T10:04:43Z</time>
      </trkpt>
      <trkpt lat="42.8364400" lon="-8.5936900">
        <ele>185.8</ele>
        <time>2022-06-19T10:04:44Z</time>
      </trkpt>
      <trkpt lat="42.8364380" lon="-8.5936760">
        <ele>185.8</ele>
        <time>2022-06-19T10:04:45Z</time>
      </trkpt>
      <trkpt lat="42.8364380" lon="-8.5936630">
        <ele>185.8</ele>
        <time>2022-06-19T10:04:46Z</time>
      </trkpt>
      <trkpt lat="42.8364400" lon="-8.5936460">
        <ele>185.8</ele>
        <time>2022-06-19T10:04:47Z</time>
      </trkpt>
      <trkpt lat="42.8364410" lon="-8.5936310">
        <ele>185.8</ele>
        <time>2022-06-19T10:04:48Z</time>
      </trkpt>
      <trkpt lat="42.8364430" lon="-8.5936200">
        <ele>186.2</ele>
        <time>2022-06-19T10:04:49Z</time>
      </trkpt>
      <trkpt lat="42.8364480" lon="-8.5936060">
        <ele>186.2</ele>
        <time>2022-06-19T10:04:50Z</time>
      </trkpt>
      <trkpt lat="42.8364550" lon="-8.5935900">
        <ele>186.2</ele>
        <time>2022-06-19T10:04:51Z</time>
      </trkpt>
      <trkpt lat="42.8364600" lon="-8.5935760">
        <ele>186.2</ele>
        <time>2022-06-19T10:04:52Z</time>
      </trkpt>
      <trkpt lat="42.8364660" lon="-8.5935630">
        <ele>186.2</ele>
        <time>2022-06-19T10:04:53Z</time>
      </trkpt>
      <trkpt lat="42.8364710" lon="-8.5935460">
        <ele>186.2</ele>
        <time>2022-06-19T10:04:54Z</time>
      </trkpt>
      <trkpt lat="42.8364780" lon="-8.5935360">
        <ele>186.2</ele>
        <time>2022-06-19T10:04:55Z</time>
      </trkpt>
      <trkpt lat="42.8364760" lon="-8.5935200">
        <ele>186.6</ele>
        <time>2022-06-19T10:04:56Z</time>
      </trkpt>
      <trkpt lat="42.8364810" lon="-8.5935050">
        <ele>186.6</ele>
        <time>2022-06-19T10:04:57Z</time>
      </trkpt>
      <trkpt lat="42.8364760" lon="-8.5934880">
        <ele>186.6</ele>
        <time>2022-06-19T10:04:58Z</time>
      </trkpt>
      <trkpt lat="42.8364760" lon="-8.5934700">
        <ele>186.6</ele>
        <time>2022-06-19T10:04:59Z</time>
      </trkpt>
      <trkpt lat="42.8364760" lon="-8.5934580">
        <ele>186.6</ele>
        <time>2022-06-19T10:05:00Z</time>
      </trkpt>
      <trkpt lat="42.8364780" lon="-8.5934460">
        <ele>186.8</ele>
        <time>2022-06-19T10:05:01Z</time>
      </trkpt>
      <trkpt lat="42.8364780" lon="-8.5934380">
        <ele>186.8</ele>
        <time>2022-06-19T10:05:02Z</time>
      </trkpt>
      <trkpt lat="42.8364850" lon="-8.5934250">
        <ele>186.8</ele>
        <time>2022-06-19T10:05:03Z</time>
      </trkpt>
      <trkpt lat="42.8364930" lon="-8.5934150">
        <ele>186.8</ele>
        <time>2022-06-19T10:05:04Z</time>
      </trkpt>
      <trkpt lat="42.8365050" lon="-8.5934060">
        <ele>187.2</ele>
        <time>2022-06-19T10:05:05Z</time>
      </trkpt>
      <trkpt lat="42.8365110" lon="-8.5933980">
        <ele>187.2</ele>
        <time>2022-06-19T10:05:06Z</time>
      </trkpt>
      <trkpt lat="42.8365180" lon="-8.5933910">
        <ele>187.2</ele>
        <time>2022-06-19T10:05:07Z</time>
      </trkpt>
      <trkpt lat="42.8365230" lon="-8.5933860">
        <ele>187.6</ele>
        <time>2022-06-19T10:05:08Z</time>
      </trkpt>
      <trkpt lat="42.8365260" lon="-8.5933810">
        <ele>188.4</ele>
        <time>2022-06-19T10:05:09Z</time>
      </trkpt>
      <trkpt lat="42.8365330" lon="-8.5933800">
        <ele>188.4</ele>
        <time>2022-06-19T10:05:10Z</time>
      </trkpt>
      <trkpt lat="42.8365410" lon="-8.5933780">
        <ele>188.4</ele>
        <time>2022-06-19T10:05:11Z</time>
      </trkpt>
      <trkpt lat="42.8365500" lon="-8.5933760">
        <ele>188.2</ele>
        <time>2022-06-19T10:05:12Z</time>
      </trkpt>
      <trkpt lat="42.8365550" lon="-8.5933730">
        <ele>188.4</ele>
        <time>2022-06-19T10:05:13Z</time>
      </trkpt>
      <trkpt lat="42.8365560" lon="-8.5933780">
        <ele>188.4</ele>
        <time>2022-06-19T10:05:14Z</time>
      </trkpt>
      <trkpt lat="42.8365600" lon="-8.5933780">
        <ele>188.4</ele>
        <time>2022-06-19T10:05:15Z</time>
      </trkpt>
      <trkpt lat="42.8365680" lon="-8.5933750">
        <ele>188.8</ele>
        <time>2022-06-19T10:05:16Z</time>
      </trkpt>
      <trkpt lat="42.8365730" lon="-8.5933750">
        <ele>189.0</ele>
        <time>2022-06-19T10:05:17Z</time>
      </trkpt>
      <trkpt lat="42.8365780" lon="-8.5933750">
        <ele>189.0</ele>
        <time>2022-06-19T10:05:18Z</time>
      </trkpt>
      <trkpt lat="42.8365850" lon="-8.5933730">
        <ele>189.0</ele>
        <time>2022-06-19T10:05:19Z</time>
      </trkpt>
      <trkpt lat="42.8365880" lon="-8.5933750">
        <ele>189.0</ele>
        <time>2022-06-19T10:05:20Z</time>
      </trkpt>
      <trkpt lat="42.8365950" lon="-8.5933750">
        <ele>189.6</ele>
        <time>2022-06-19T10:05:21Z</time>
      </trkpt>
      <trkpt lat="42.8366000" lon="-8.5933780">
        <ele>189.6</ele>
        <time>2022-06-19T10:05:22Z</time>
      </trkpt>
      <trkpt lat="42.8366050" lon="-8.5933830">
        <ele>189.6</ele>
        <time>2022-06-19T10:05:23Z</time>
      </trkpt>
      <trkpt lat="42.8366100" lon="-8.5933830">
        <ele>190.0</ele>
        <time>2022-06-19T10:05:24Z</time>
      </trkpt>
      <trkpt lat="42.8366110" lon="-8.5933880">
        <ele>189.6</ele>
        <time>2022-06-19T10:05:25Z</time>
      </trkpt>
      <trkpt lat="42.8366160" lon="-8.5933930">
        <ele>189.6</ele>
        <time>2022-06-19T10:05:26Z</time>
      </trkpt>
      <trkpt lat="42.8366230" lon="-8.5933930">
        <ele>189.6</ele>
        <time>2022-06-19T10:05:27Z</time>
      </trkpt>
      <trkpt lat="42.8366330" lon="-8.5933880">
        <ele>190.0</ele>
        <time>2022-06-19T10:05:28Z</time>
      </trkpt>
      <trkpt lat="42.8366330" lon="-8.5933900">
        <ele>190.4</ele>
        <time>2022-06-19T10:05:29Z</time>
      </trkpt>
      <trkpt lat="42.8367100" lon="-8.5933660">
        <ele>191.0</ele>
        <time>2022-06-19T10:05:52Z</time>
      </trkpt>
      <trkpt lat="42.8367200" lon="-8.5933750">
        <ele>191.6</ele>
        <time>2022-06-19T10:05:53Z</time>
      </trkpt>
      <trkpt lat="42.8367260" lon="-8.5933750">
        <ele>191.6</ele>
        <time>2022-06-19T10:05:54Z</time>
      </trkpt>
      <trkpt lat="42.8367300" lon="-8.5933810">
        <ele>191.6</ele>
        <time>2022-06-19T10:05:55Z</time>
      </trkpt>
      <trkpt lat="42.8367360" lon="-8.5933810">
        <ele>191.8</ele>
        <time>2022-06-19T10:05:56Z</time>
      </trkpt>
      <trkpt lat="42.8367410" lon="-8.5933830">
        <ele>191.6</ele>
        <time>2022-06-19T10:05:57Z</time>
      </trkpt>
      <trkpt lat="42.8367500" lon="-8.5933880">
        <ele>191.6</ele>
        <time>2022-06-19T10:05:58Z</time>
      </trkpt>
      <trkpt lat="42.8367550" lon="-8.5933910">
        <ele>191.6</ele>
        <time>2022-06-19T10:05:59Z</time>
      </trkpt>
      <trkpt lat="42.8367610" lon="-8.5933930">
        <ele>192.6</ele>
        <time>2022-06-19T10:06:00Z</time>
      </trkpt>
      <trkpt lat="42.8367780" lon="-8.5933950">
        <ele>193.2</ele>
        <time>2022-06-19T10:06:01Z</time>
      </trkpt>
      <trkpt lat="42.8367860" lon="-8.5933980">
        <ele>193.2</ele>
        <time>2022-06-19T10:06:02Z</time>
      </trkpt>
      <trkpt lat="42.8367950" lon="-8.5933960">
        <ele>193.2</ele>
        <time>2022-06-19T10:06:03Z</time>
      </trkpt>
      <trkpt lat="42.8368030" lon="-8.5933980">
        <ele>193.2</ele>
        <time>2022-06-19T10:06:04Z</time>
      </trkpt>
      <trkpt lat="42.8368210" lon="-8.5933930">
        <ele>193.6</ele>
        <time>2022-06-19T10:06:05Z</time>
      </trkpt>
      <trkpt lat="42.8368330" lon="-8.5933960">
        <ele>193.6</ele>
        <time>2022-06-19T10:06:06Z</time>
      </trkpt>
      <trkpt lat="42.8368430" lon="-8.5933950">
        <ele>193.6</ele>
        <time>2022-06-19T10:06:07Z</time>
      </trkpt>
      <trkpt lat="42.8368580" lon="-8.5933900">
        <ele>193.6</ele>
        <time>2022-06-19T10:06:08Z</time>
      </trkpt>
      <trkpt lat="42.8368750" lon="-8.5933850">
        <ele>194.4</ele>
        <time>2022-06-19T10:06:09Z</time>
      </trkpt>
      <trkpt lat="42.8368860" lon="-8.5933830">
        <ele>194.4</ele>
        <time>2022-06-19T10:06:10Z</time>
      </trkpt>
      <trkpt lat="42.8369010" lon="-8.5933750">
        <ele>194.4</ele>
        <time>2022-06-19T10:06:11Z</time>
      </trkpt>
      <trkpt lat="42.8369150" lon="-8.5933710">
        <ele>194.4</ele>
        <time>2022-06-19T10:06:12Z</time>
      </trkpt>
      <trkpt lat="42.8369260" lon="-8.5933660">
        <ele>194.6</ele>
        <time>2022-06-19T10:06:13Z</time>
      </trkpt>
      <trkpt lat="42.8369400" lon="-8.5933630">
        <ele>194.6</ele>
        <time>2022-06-19T10:06:14Z</time>
      </trkpt>
      <trkpt lat="42.8369530" lon="-8.5933580">
        <ele>194.6</ele>
        <time>2022-06-19T10:06:15Z</time>
      </trkpt>
      <trkpt lat="42.8369650" lon="-8.5933510">
        <ele>195.2</ele>
        <time>2022-06-19T10:06:16Z</time>
      </trkpt>
      <trkpt lat="42.8369780" lon="-8.5933460">
        <ele>195.2</ele>
        <time>2022-06-19T10:06:17Z</time>
      </trkpt>
      <trkpt lat="42.8369900" lon="-8.5933430">
        <ele>195.2</ele>
        <time>2022-06-19T10:06:18Z</time>
      </trkpt>
      <trkpt lat="42.8370010" lon="-8.5933430">
        <ele>195.2</ele>
        <time>2022-06-19T10:06:19Z</time>
      </trkpt>
      <trkpt lat="42.8370130" lon="-8.5933380">
        <ele>195.8</ele>
        <time>2022-06-19T10:06:20Z</time>
      </trkpt>
      <trkpt lat="42.8370250" lon="-8.5933360">
        <ele>195.8</ele>
        <time>2022-06-19T10:06:21Z</time>
      </trkpt>
      <trkpt lat="42.8370360" lon="-8.5933300">
        <ele>195.8</ele>
        <time>2022-06-19T10:06:22Z</time>
      </trkpt>
      <trkpt lat="42.8370460" lon="-8.5933280">
        <ele>195.8</ele>
        <time>2022-06-19T10:06:23Z</time>
      </trkpt>
      <trkpt lat="42.8370580" lon="-8.5933250">
        <ele>196.0</ele>
        <time>2022-06-19T10:06:24Z</time>
      </trkpt>
      <trkpt lat="42.8370680" lon="-8.5933230">
        <ele>196.4</ele>
        <time>2022-06-19T10:06:25Z</time>
      </trkpt>
      <trkpt lat="42.8370800" lon="-8.5933200">
        <ele>196.4</ele>
        <time>2022-06-19T10:06:26Z</time>
      </trkpt>
      <trkpt lat="42.8370900" lon="-8.5933180">
        <ele>196.4</ele>
        <time>2022-06-19T10:06:27Z</time>
      </trkpt>
      <trkpt lat="42.8371000" lon="-8.5933160">
        <ele>196.8</ele>
        <time>2022-06-19T10:06:28Z</time>
      </trkpt>
      <trkpt lat="42.8371100" lon="-8.5933130">
        <ele>196.2</ele>
        <time>2022-06-19T10:06:29Z</time>
      </trkpt>
      <trkpt lat="42.8371200" lon="-8.5933100">
        <ele>196.2</ele>
        <time>2022-06-19T10:06:30Z</time>
      </trkpt>
      <trkpt lat="42.8371300" lon="-8.5933060">
        <ele>196.2</ele>
        <time>2022-06-19T10:06:31Z</time>
      </trkpt>
      <trkpt lat="42.8371410" lon="-8.5933030">
        <ele>197.2</ele>
        <time>2022-06-19T10:06:32Z</time>
      </trkpt>
      <trkpt lat="42.8371530" lon="-8.5932980">
        <ele>197.4</ele>
        <time>2022-06-19T10:06:33Z</time>
      </trkpt>
      <trkpt lat="42.8371610" lon="-8.5932980">
        <ele>197.4</ele>
        <time>2022-06-19T10:06:34Z</time>
      </trkpt>
      <trkpt lat="42.8371710" lon="-8.5932960">
        <ele>197.4</ele>
        <time>2022-06-19T10:06:35Z</time>
      </trkpt>
      <trkpt lat="42.8371830" lon="-8.5932930">
        <ele>197.4</ele>
        <time>2022-06-19T10:06:36Z</time>
      </trkpt>
      <trkpt lat="42.8371950" lon="-8.5932900">
        <ele>197.4</ele>
        <time>2022-06-19T10:06:37Z</time>
      </trkpt>
      <trkpt lat="42.8372080" lon="-8.5932850">
        <ele>197.4</ele>
        <time>2022-06-19T10:06:38Z</time>
      </trkpt>
      <trkpt lat="42.8372160" lon="-8.5932880">
        <ele>197.4</ele>
        <time>2022-06-19T10:06:39Z</time>
      </trkpt>
      <trkpt lat="42.8372260" lon="-8.5932900">
        <ele>197.8</ele>
        <time>2022-06-19T10:06:40Z</time>
      </trkpt>
      <trkpt lat="42.8372360" lon="-8.5932930">
        <ele>198.0</ele>
        <time>2022-06-19T10:06:41Z</time>
      </trkpt>
      <trkpt lat="42.8372480" lon="-8.5932950">
        <ele>198.0</ele>
        <time>2022-06-19T10:06:42Z</time>
      </trkpt>
      <trkpt lat="42.8372600" lon="-8.5932960">
        <ele>198.0</ele>
        <time>2022-06-19T10:06:43Z</time>
      </trkpt>
      <trkpt lat="42.8372700" lon="-8.5932960">
        <ele>198.0</ele>
        <time>2022-06-19T10:06:44Z</time>
      </trkpt>
      <trkpt lat="42.8372800" lon="-8.5933000">
        <ele>198.4</ele>
        <time>2022-06-19T10:06:45Z</time>
      </trkpt>
      <trkpt lat="42.8372910" lon="-8.5933010">
        <ele>198.4</ele>
        <time>2022-06-19T10:06:46Z</time>
      </trkpt>
      <trkpt lat="42.8373010" lon="-8.5933010">
        <ele>198.4</ele>
        <time>2022-06-19T10:06:47Z</time>
      </trkpt>
      <trkpt lat="42.8373110" lon="-8.5933010">
        <ele>198.4</ele>
        <time>2022-06-19T10:06:48Z</time>
      </trkpt>
      <trkpt lat="42.8373210" lon="-8.5933010">
        <ele>198.8</ele>
        <time>2022-06-19T10:06:49Z</time>
      </trkpt>
      <trkpt lat="42.8373310" lon="-8.5933000">
        <ele>198.8</ele>
        <time>2022-06-19T10:06:50Z</time>
      </trkpt>
      <trkpt lat="42.8373430" lon="-8.5932980">
        <ele>198.8</ele>
        <time>2022-06-19T10:06:51Z</time>
      </trkpt>
      <trkpt lat="42.8373530" lon="-8.5932960">
        <ele>198.8</ele>
        <time>2022-06-19T10:06:52Z</time>
      </trkpt>
      <trkpt lat="42.8373660" lon="-8.5932950">
        <ele>199.4</ele>
        <time>2022-06-19T10:06:53Z</time>
      </trkpt>
      <trkpt lat="42.8373760" lon="-8.5932930">
        <ele>199.4</ele>
        <time>2022-06-19T10:06:54Z</time>
      </trkpt>
      <trkpt lat="42.8373880" lon="-8.5932930">
        <ele>199.4</ele>
        <time>2022-06-19T10:06:55Z</time>
      </trkpt>
      <trkpt lat="42.8373980" lon="-8.5932910">
        <ele>199.4</ele>
        <time>2022-06-19T10:06:56Z</time>
      </trkpt>
      <trkpt lat="42.8374100" lon="-8.5932900">
        <ele>199.2</ele>
        <time>2022-06-19T10:06:57Z</time>
      </trkpt>
      <trkpt lat="42.8374150" lon="-8.5932950">
        <ele>199.2</ele>
        <time>2022-06-19T10:06:58Z</time>
      </trkpt>
      <trkpt lat="42.8374250" lon="-8.5932930">
        <ele>199.2</ele>
        <time>2022-06-19T10:06:59Z</time>
      </trkpt>
      <trkpt lat="42.8374360" lon="-8.5932900">
        <ele>200.2</ele>
        <time>2022-06-19T10:07:00Z</time>
      </trkpt>
      <trkpt lat="42.8374460" lon="-8.5932900">
        <ele>199.6</ele>
        <time>2022-06-19T10:07:01Z</time>
      </trkpt>
      <trkpt lat="42.8374600" lon="-8.5932860">
        <ele>199.6</ele>
        <time>2022-06-19T10:07:02Z</time>
      </trkpt>
      <trkpt lat="42.8374700" lon="-8.5932860">
        <ele>199.6</ele>
        <time>2022-06-19T10:07:03Z</time>
      </trkpt>
      <trkpt lat="42.8374810" lon="-8.5932830">
        <ele>199.6</ele>
        <time>2022-06-19T10:07:04Z</time>
      </trkpt>
      <trkpt lat="42.8374900" lon="-8.5932800">
        <ele>199.4</ele>
        <time>2022-06-19T10:07:05Z</time>
      </trkpt>
      <trkpt lat="42.8374980" lon="-8.5932780">
        <ele>199.4</ele>
        <time>2022-06-19T10:07:06Z</time>
      </trkpt>
      <trkpt lat="42.8375060" lon="-8.5932800">
        <ele>199.4</ele>
        <time>2022-06-19T10:07:07Z</time>
      </trkpt>
      <trkpt lat="42.8375160" lon="-8.5932810">
        <ele>199.6</ele>
        <time>2022-06-19T10:07:08Z</time>
      </trkpt>
      <trkpt lat="42.8375250" lon="-8.5932800">
        <ele>199.4</ele>
        <time>2022-06-19T10:07:09Z</time>
      </trkpt>
      <trkpt lat="42.8375330" lon="-8.5932800">
        <ele>199.4</ele>
        <time>2022-06-19T10:07:10Z</time>
      </trkpt>
      <trkpt lat="42.8375360" lon="-8.5932830">
        <ele>199.4</ele>
        <time>2022-06-19T10:07:11Z</time>
      </trkpt>
      <trkpt lat="42.8375460" lon="-8.5932850">
        <ele>199.8</ele>
        <time>2022-06-19T10:07:12Z</time>
      </trkpt>
      <trkpt lat="42.8375500" lon="-8.5932810">
        <ele>199.6</ele>
        <time>2022-06-19T10:07:13Z</time>
      </trkpt>
      <trkpt lat="42.8375580" lon="-8.5932780">
        <ele>199.6</ele>
        <time>2022-06-19T10:07:14Z</time>
      </trkpt>
      <trkpt lat="42.8375650" lon="-8.5932760">
        <ele>199.6</ele>
        <time>2022-06-19T10:07:15Z</time>
      </trkpt>
      <trkpt lat="42.8375700" lon="-8.5932760">
        <ele>199.8</ele>
        <time>2022-06-19T10:07:16Z</time>
      </trkpt>
      <trkpt lat="42.8375700" lon="-8.5932760">
        <ele>199.8</ele>
        <time>2022-06-19T10:07:17Z</time>
      </trkpt>
      <trkpt lat="42.8377080" lon="-8.5932350">
        <ele>198.0</ele>
        <time>2022-06-19T10:12:37Z</time>
      </trkpt>
      <trkpt lat="42.8377080" lon="-8.5932350">
        <ele>198.0</ele>
        <time>2022-06-19T10:12:38Z</time>
      </trkpt>
      <trkpt lat="42.8377380" lon="-8.5932280">
        <ele>198.0</ele>
        <time>2022-06-19T10:12:39Z</time>
      </trkpt>
      <trkpt lat="42.8377380" lon="-8.5932280">
        <ele>198.0</ele>
        <time>2022-06-19T10:12:40Z</time>
      </trkpt>
      <trkpt lat="42.8377650" lon="-8.5932250">
        <ele>197.8</ele>
        <time>2022-06-19T10:12:41Z</time>
      </trkpt>
      <trkpt lat="42.8377830" lon="-8.5932210">
        <ele>197.8</ele>
        <time>2022-06-19T10:12:42Z</time>
      </trkpt>
      <trkpt lat="42.8377980" lon="-8.5932210">
        <ele>197.8</ele>
        <time>2022-06-19T10:12:43Z</time>
      </trkpt>
      <trkpt lat="42.8378130" lon="-8.5932230">
        <ele>198.0</ele>
        <time>2022-06-19T10:12:44Z</time>
      </trkpt>
      <trkpt lat="42.8378280" lon="-8.5932230">
        <ele>198.0</ele>
        <time>2022-06-19T10:12:45Z</time>
      </trkpt>
      <trkpt lat="42.8378410" lon="-8.5932230">
        <ele>198.0</ele>
        <time>2022-06-19T10:12:46Z</time>
      </trkpt>
      <trkpt lat="42.8378560" lon="-8.5932230">
        <ele>198.0</ele>
        <time>2022-06-19T10:12:47Z</time>
      </trkpt>
      <trkpt lat="42.8378730" lon="-8.5932230">
        <ele>197.0</ele>
        <time>2022-06-19T10:12:48Z</time>
      </trkpt>
      <trkpt lat="42.8378910" lon="-8.5932210">
        <ele>197.2</ele>
        <time>2022-06-19T10:12:49Z</time>
      </trkpt>
      <trkpt lat="42.8378910" lon="-8.5932210">
        <ele>197.2</ele>
        <time>2022-06-19T10:12:50Z</time>
      </trkpt>
      <trkpt lat="42.8379300" lon="-8.5932230">
        <ele>197.2</ele>
        <time>2022-06-19T10:12:51Z</time>
      </trkpt>
      <trkpt lat="42.8379510" lon="-8.5932180">
        <ele>198.2</ele>
        <time>2022-06-19T10:12:52Z</time>
      </trkpt>
      <trkpt lat="42.8379680" lon="-8.5932150">
        <ele>199.0</ele>
        <time>2022-06-19T10:12:53Z</time>
      </trkpt>
      <trkpt lat="42.8379860" lon="-8.5932130">
        <ele>199.0</ele>
        <time>2022-06-19T10:12:54Z</time>
      </trkpt>
      <trkpt lat="42.8380030" lon="-8.5932110">
        <ele>199.0</ele>
        <time>2022-06-19T10:12:55Z</time>
      </trkpt>
      <trkpt lat="42.8380210" lon="-8.5932100">
        <ele>199.2</ele>
        <time>2022-06-19T10:12:56Z</time>
      </trkpt>
      <trkpt lat="42.8380360" lon="-8.5932100">
        <ele>199.4</ele>
        <time>2022-06-19T10:12:57Z</time>
      </trkpt>
      <trkpt lat="42.8380550" lon="-8.5932050">
        <ele>199.4</ele>
        <time>2022-06-19T10:12:58Z</time>
      </trkpt>
      <trkpt lat="42.8380710" lon="-8.5932000">
        <ele>199.4</ele>
        <time>2022-06-19T10:12:59Z</time>
      </trkpt>
      <trkpt lat="42.8380900" lon="-8.5931950">
        <ele>199.4</ele>
        <time>2022-06-19T10:13:00Z</time>
      </trkpt>
      <trkpt lat="42.8381080" lon="-8.5931950">
        <ele>199.4</ele>
        <time>2022-06-19T10:13:01Z</time>
      </trkpt>
      <trkpt lat="42.8381250" lon="-8.5931960">
        <ele>199.4</ele>
        <time>2022-06-19T10:13:02Z</time>
      </trkpt>
      <trkpt lat="42.8381400" lon="-8.5931860">
        <ele>199.4</ele>
        <time>2022-06-19T10:13:03Z</time>
      </trkpt>
      <trkpt lat="42.8381610" lon="-8.5931810">
        <ele>199.0</ele>
        <time>2022-06-19T10:13:04Z</time>
      </trkpt>
      <trkpt lat="42.8381750" lon="-8.5931860">
        <ele>199.4</ele>
        <time>2022-06-19T10:13:05Z</time>
      </trkpt>
      <trkpt lat="42.8381850" lon="-8.5931900">
        <ele>199.4</ele>
        <time>2022-06-19T10:13:06Z</time>
      </trkpt>
      <trkpt lat="42.8381850" lon="-8.5931900">
        <ele>199.4</ele>
        <time>2022-06-19T10:13:07Z</time>
      </trkpt>
      <trkpt lat="42.8382160" lon="-8.5931960">
        <ele>199.4</ele>
        <time>2022-06-19T10:13:08Z</time>
      </trkpt>
      <trkpt lat="42.8382350" lon="-8.5932010">
        <ele>199.6</ele>
        <time>2022-06-19T10:13:09Z</time>
      </trkpt>
      <trkpt lat="42.8382510" lon="-8.5932100">
        <ele>199.6</ele>
        <time>2022-06-19T10:13:10Z</time>
      </trkpt>
      <trkpt lat="42.8382700" lon="-8.5932180">
        <ele>199.6</ele>
        <time>2022-06-19T10:13:11Z</time>
      </trkpt>
      <trkpt lat="42.8382900" lon="-8.5932200">
        <ele>199.6</ele>
        <time>2022-06-19T10:13:12Z</time>
      </trkpt>
      <trkpt lat="42.8382900" lon="-8.5932200">
        <ele>199.6</ele>
        <time>2022-06-19T10:13:13Z</time>
      </trkpt>
      <trkpt lat="42.8382900" lon="-8.5932200">
        <ele>199.6</ele>
        <time>2022-06-19T10:13:14Z</time>
      </trkpt>
      <trkpt lat="42.8383480" lon="-8.5932360">
        <ele>199.6</ele>
        <time>2022-06-19T10:13:15Z</time>
      </trkpt>
      <trkpt lat="42.8383610" lon="-8.5932480">
        <ele>199.6</ele>
        <time>2022-06-19T10:13:16Z</time>
      </trkpt>
      <trkpt lat="42.8383610" lon="-8.5932480">
        <ele>200.0</ele>
        <time>2022-06-19T10:13:17Z</time>
      </trkpt>
      <trkpt lat="42.8383850" lon="-8.5932800">
        <ele>200.0</ele>
        <time>2022-06-19T10:13:18Z</time>
      </trkpt>
      <trkpt lat="42.8383950" lon="-8.5933000">
        <ele>200.0</ele>
        <time>2022-06-19T10:13:19Z</time>
      </trkpt>
      <trkpt lat="42.8384030" lon="-8.5933230">
        <ele>200.0</ele>
        <time>2022-06-19T10:13:20Z</time>
      </trkpt>
      <trkpt lat="42.8384030" lon="-8.5933230">
        <ele>200.2</ele>
        <time>2022-06-19T10:13:21Z</time>
      </trkpt>
      <trkpt lat="42.8384110" lon="-8.5933780">
        <ele>200.2</ele>
        <time>2022-06-19T10:13:22Z</time>
      </trkpt>
      <trkpt lat="42.8384110" lon="-8.5934100">
        <ele>200.2</ele>
        <time>2022-06-19T10:13:23Z</time>
      </trkpt>
      <trkpt lat="42.8384110" lon="-8.5934100">
        <ele>200.2</ele>
        <time>2022-06-19T10:13:24Z</time>
      </trkpt>
      <trkpt lat="42.8384130" lon="-8.5934680">
        <ele>200.6</ele>
        <time>2022-06-19T10:13:25Z</time>
      </trkpt>
      <trkpt lat="42.8384110" lon="-8.5934960">
        <ele>200.6</ele>
        <time>2022-06-19T10:13:26Z</time>
      </trkpt>
      <trkpt lat="42.8384080" lon="-8.5935250">
        <ele>200.6</ele>
        <time>2022-06-19T10:13:27Z</time>
      </trkpt>
      <trkpt lat="42.8384060" lon="-8.5935500">
        <ele>200.6</ele>
        <time>2022-06-19T10:13:28Z</time>
      </trkpt>
      <trkpt lat="42.8384060" lon="-8.5935500">
        <ele>201.2</ele>
        <time>2022-06-19T10:13:29Z</time>
      </trkpt>
      <trkpt lat="42.8383960" lon="-8.5936010">
        <ele>201.2</ele>
        <time>2022-06-19T10:13:30Z</time>
      </trkpt>
      <trkpt lat="42.8383930" lon="-8.5936310">
        <ele>201.2</ele>
        <time>2022-06-19T10:13:31Z</time>
      </trkpt>
      <trkpt lat="42.8383880" lon="-8.5936580">
        <ele>200.4</ele>
        <time>2022-06-19T10:13:32Z</time>
      </trkpt>
      <trkpt lat="42.8383830" lon="-8.5936860">
        <ele>200.6</ele>
        <time>2022-06-19T10:13:33Z</time>
      </trkpt>
      <trkpt lat="42.8383780" lon="-8.5937130">
        <ele>200.6</ele>
        <time>2022-06-19T10:13:34Z</time>
      </trkpt>
      <trkpt lat="42.8383780" lon="-8.5937130">
        <ele>200.6</ele>
        <time>2022-06-19T10:13:35Z</time>
      </trkpt>
      <trkpt lat="42.8383710" lon="-8.5937710">
        <ele>200.6</ele>
        <time>2022-06-19T10:13:36Z</time>
      </trkpt>
      <trkpt lat="42.8383660" lon="-8.5937980">
        <ele>200.8</ele>
        <time>2022-06-19T10:13:37Z</time>
      </trkpt>
      <trkpt lat="42.8383600" lon="-8.5938230">
        <ele>200.8</ele>
        <time>2022-06-19T10:13:38Z</time>
      </trkpt>
      <trkpt lat="42.8383510" lon="-8.5938500">
        <ele>200.8</ele>
        <time>2022-06-19T10:13:39Z</time>
      </trkpt>
      <trkpt lat="42.8383450" lon="-8.5938760">
        <ele>200.8</ele>
        <time>2022-06-19T10:13:40Z</time>
      </trkpt>
      <trkpt lat="42.8383380" lon="-8.5939030">
        <ele>200.4</ele>
        <time>2022-06-19T10:13:41Z</time>
      </trkpt>
      <trkpt lat="42.8383310" lon="-8.5939300">
        <ele>200.4</ele>
        <time>2022-06-19T10:13:42Z</time>
      </trkpt>
      <trkpt lat="42.8383230" lon="-8.5939550">
        <ele>200.4</ele>
        <time>2022-06-19T10:13:43Z</time>
      </trkpt>
      <trkpt lat="42.8383230" lon="-8.5939550">
        <ele>200.4</ele>
        <time>2022-06-19T10:13:44Z</time>
      </trkpt>
      <trkpt lat="42.8383050" lon="-8.5940080">
        <ele>200.8</ele>
        <time>2022-06-19T10:13:45Z</time>
      </trkpt>
      <trkpt lat="42.8382960" lon="-8.5940350">
        <ele>200.8</ele>
        <time>2022-06-19T10:13:46Z</time>
      </trkpt>
      <trkpt lat="42.8382850" lon="-8.5940650">
        <ele>200.8</ele>
        <time>2022-06-19T10:13:47Z</time>
      </trkpt>
      <trkpt lat="42.8382750" lon="-8.5940930">
        <ele>201.2</ele>
        <time>2022-06-19T10:13:48Z</time>
      </trkpt>
      <trkpt lat="42.8382750" lon="-8.5940930">
        <ele>201.2</ele>
        <time>2022-06-19T10:13:49Z</time>
      </trkpt>
      <trkpt lat="42.8382750" lon="-8.5940930">
        <ele>201.2</ele>
        <time>2022-06-19T10:13:50Z</time>
      </trkpt>
      <trkpt lat="42.8382410" lon="-8.5941700">
        <ele>201.2</ele>
        <time>2022-06-19T10:13:51Z</time>
      </trkpt>
      <trkpt lat="42.8382300" lon="-8.5941950">
        <ele>201.2</ele>
        <time>2022-06-19T10:13:52Z</time>
      </trkpt>
      <trkpt lat="42.8382300" lon="-8.5941950">
        <ele>201.4</ele>
        <time>2022-06-19T10:13:53Z</time>
      </trkpt>
      <trkpt lat="42.8382300" lon="-8.5941950">
        <ele>201.4</ele>
        <time>2022-06-19T10:13:54Z</time>
      </trkpt>
      <trkpt lat="42.8381980" lon="-8.5942710">
        <ele>201.4</ele>
        <time>2022-06-19T10:13:55Z</time>
      </trkpt>
      <trkpt lat="42.8381900" lon="-8.5942960">
        <ele>201.2</ele>
        <time>2022-06-19T10:13:56Z</time>
      </trkpt>
      <trkpt lat="42.8381850" lon="-8.5943230">
        <ele>200.8</ele>
        <time>2022-06-19T10:13:57Z</time>
      </trkpt>
      <trkpt lat="42.8381850" lon="-8.5943480">
        <ele>200.8</ele>
        <time>2022-06-19T10:13:58Z</time>
      </trkpt>
      <trkpt lat="42.8381930" lon="-8.5943660">
        <ele>200.8</ele>
        <time>2022-06-19T10:13:59Z</time>
      </trkpt>
      <trkpt lat="42.8382100" lon="-8.5943810">
        <ele>201.2</ele>
        <time>2022-06-19T10:14:00Z</time>
      </trkpt>
      <trkpt lat="42.8382310" lon="-8.5943850">
        <ele>200.6</ele>
        <time>2022-06-19T10:14:01Z</time>
      </trkpt>
      <trkpt lat="42.8382510" lon="-8.5943780">
        <ele>200.6</ele>
        <time>2022-06-19T10:14:02Z</time>
      </trkpt>
      <trkpt lat="42.8382680" lon="-8.5943630">
        <ele>200.6</ele>
        <time>2022-06-19T10:14:03Z</time>
      </trkpt>
      <trkpt lat="42.8382680" lon="-8.5943630">
        <ele>201.6</ele>
        <time>2022-06-19T10:14:04Z</time>
      </trkpt>
      <trkpt lat="42.8382950" lon="-8.5943260">
        <ele>202.0</ele>
        <time>2022-06-19T10:14:05Z</time>
      </trkpt>
      <trkpt lat="42.8383030" lon="-8.5943050">
        <ele>202.0</ele>
        <time>2022-06-19T10:14:06Z</time>
      </trkpt>
      <trkpt lat="42.8383110" lon="-8.5942810">
        <ele>202.0</ele>
        <time>2022-06-19T10:14:07Z</time>
      </trkpt>
      <trkpt lat="42.8383230" lon="-8.5942610">
        <ele>202.0</ele>
        <time>2022-06-19T10:14:08Z</time>
      </trkpt>
      <trkpt lat="42.8383350" lon="-8.5942410">
        <ele>202.8</ele>
        <time>2022-06-19T10:14:09Z</time>
      </trkpt>
      <trkpt lat="42.8383450" lon="-8.5942160">
        <ele>202.8</ele>
        <time>2022-06-19T10:14:10Z</time>
      </trkpt>
      <trkpt lat="42.8383530" lon="-8.5941910">
        <ele>202.8</ele>
        <time>2022-06-19T10:14:11Z</time>
      </trkpt>
      <trkpt lat="42.8383610" lon="-8.5941700">
        <ele>203.2</ele>
        <time>2022-06-19T10:14:12Z</time>
      </trkpt>
      <trkpt lat="42.8383730" lon="-8.5941450">
        <ele>203.6</ele>
        <time>2022-06-19T10:14:13Z</time>
      </trkpt>
      <trkpt lat="42.8383830" lon="-8.5941230">
        <ele>203.6</ele>
        <time>2022-06-19T10:14:14Z</time>
      </trkpt>
      <trkpt lat="42.8383930" lon="-8.5941010">
        <ele>203.6</ele>
        <time>2022-06-19T10:14:15Z</time>
      </trkpt>
      <trkpt lat="42.8384010" lon="-8.5940800">
        <ele>204.6</ele>
        <time>2022-06-19T10:14:16Z</time>
      </trkpt>
      <trkpt lat="42.8384080" lon="-8.5940600">
        <ele>205.8</ele>
        <time>2022-06-19T10:14:17Z</time>
      </trkpt>
      <trkpt lat="42.8384080" lon="-8.5940600">
        <ele>205.8</ele>
        <time>2022-06-19T10:14:18Z</time>
      </trkpt>
      <trkpt lat="42.8384250" lon="-8.5940200">
        <ele>205.8</ele>
        <time>2022-06-19T10:14:19Z</time>
      </trkpt>
      <trkpt lat="42.8384380" lon="-8.5940030">
        <ele>204.8</ele>
        <time>2022-06-19T10:14:20Z</time>
      </trkpt>
      <trkpt lat="42.8384380" lon="-8.5940030">
        <ele>205.2</ele>
        <time>2022-06-19T10:14:21Z</time>
      </trkpt>
      <trkpt lat="42.8384600" lon="-8.5939660">
        <ele>205.2</ele>
        <time>2022-06-19T10:14:22Z</time>
      </trkpt>
      <trkpt lat="42.8384700" lon="-8.5939450">
        <ele>205.2</ele>
        <time>2022-06-19T10:14:23Z</time>
      </trkpt>
      <trkpt lat="42.8384810" lon="-8.5939250">
        <ele>205.2</ele>
        <time>2022-06-19T10:14:24Z</time>
      </trkpt>
      <trkpt lat="42.8384810" lon="-8.5939250">
        <ele>205.4</ele>
        <time>2022-06-19T10:14:25Z</time>
      </trkpt>
      <trkpt lat="42.8385080" lon="-8.5938850">
        <ele>205.4</ele>
        <time>2022-06-19T10:14:26Z</time>
      </trkpt>
      <trkpt lat="42.8385210" lon="-8.5938660">
        <ele>205.4</ele>
        <time>2022-06-19T10:14:27Z</time>
      </trkpt>
      <trkpt lat="42.8385330" lon="-8.5938500">
        <ele>205.4</ele>
        <time>2022-06-19T10:14:28Z</time>
      </trkpt>
      <trkpt lat="42.8385460" lon="-8.5938350">
        <ele>206.4</ele>
        <time>2022-06-19T10:14:29Z</time>
      </trkpt>
      <trkpt lat="42.8385600" lon="-8.5938180">
        <ele>206.4</ele>
        <time>2022-06-19T10:14:30Z</time>
      </trkpt>
      <trkpt lat="42.8385600" lon="-8.5938180">
        <ele>206.4</ele>
        <time>2022-06-19T10:14:31Z</time>
      </trkpt>
      <trkpt lat="42.8385890" lon="-8.5937740">
        <ele>207.4</ele>
        <time>2022-06-19T10:14:32Z</time>
      </trkpt>
      <trkpt lat="42.8385920" lon="-8.5937670">
        <ele>207.0</ele>
        <time>2022-06-19T10:14:33Z</time>
      </trkpt>
      <trkpt lat="42.8385960" lon="-8.5937610">
        <ele>207.0</ele>
        <time>2022-06-19T10:14:34Z</time>
      </trkpt>
      <trkpt lat="42.8386250" lon="-8.5937250">
        <ele>207.0</ele>
        <time>2022-06-19T10:14:35Z</time>
      </trkpt>
      <trkpt lat="42.8386360" lon="-8.5937060">
        <ele>208.0</ele>
        <time>2022-06-19T10:14:36Z</time>
      </trkpt>
      <trkpt lat="42.8386500" lon="-8.5936860">
        <ele>208.0</ele>
        <time>2022-06-19T10:14:37Z</time>
      </trkpt>
      <trkpt lat="42.8386630" lon="-8.5936680">
        <ele>208.0</ele>
        <time>2022-06-19T10:14:38Z</time>
      </trkpt>
      <trkpt lat="42.8386780" lon="-8.5936510">
        <ele>208.0</ele>
        <time>2022-06-19T10:14:39Z</time>
      </trkpt>
      <trkpt lat="42.8386930" lon="-8.5936310">
        <ele>209.0</ele>
        <time>2022-06-19T10:14:40Z</time>
      </trkpt>
      <trkpt lat="42.8386930" lon="-8.5936310">
        <ele>209.0</ele>
        <time>2022-06-19T10:14:41Z</time>
      </trkpt>
      <trkpt lat="42.8387080" lon="-8.5935830">
        <ele>209.0</ele>
        <time>2022-06-19T10:14:42Z</time>
      </trkpt>
      <trkpt lat="42.8387100" lon="-8.5935600">
        <ele>209.0</ele>
        <time>2022-06-19T10:14:43Z</time>
      </trkpt>
      <trkpt lat="42.8387100" lon="-8.5935600">
        <ele>209.4</ele>
        <time>2022-06-19T10:14:44Z</time>
      </trkpt>
      <trkpt lat="42.8387120" lon="-8.5935070">
        <ele>209.6</ele>
        <time>2022-06-19T10:14:45Z</time>
      </trkpt>
      <trkpt lat="42.8387120" lon="-8.5935010">
        <ele>209.6</ele>
        <time>2022-06-19T10:14:46Z</time>
      </trkpt>
      <trkpt lat="42.8387110" lon="-8.5934960">
        <ele>209.6</ele>
        <time>2022-06-19T10:14:47Z</time>
      </trkpt>
      <trkpt lat="42.8387110" lon="-8.5934900">
        <ele>209.6</ele>
        <time>2022-06-19T10:14:48Z</time>
      </trkpt>
      <trkpt lat="42.8387000" lon="-8.5934030">
        <ele>209.6</ele>
        <time>2022-06-19T10:14:49Z</time>
      </trkpt>
      <trkpt lat="42.8386980" lon="-8.5933730">
        <ele>209.6</ele>
        <time>2022-06-19T10:14:50Z</time>
      </trkpt>
      <trkpt lat="42.8386980" lon="-8.5933450">
        <ele>209.6</ele>
        <time>2022-06-19T10:14:51Z</time>
      </trkpt>
      <trkpt lat="42.8386980" lon="-8.5933150">
        <ele>209.4</ele>
        <time>2022-06-19T10:14:52Z</time>
      </trkpt>
      <trkpt lat="42.8387030" lon="-8.5932880">
        <ele>209.6</ele>
        <time>2022-06-19T10:14:53Z</time>
      </trkpt>
      <trkpt lat="42.8387100" lon="-8.5932610">
        <ele>209.6</ele>
        <time>2022-06-19T10:14:54Z</time>
      </trkpt>
      <trkpt lat="42.8387160" lon="-8.5932350">
        <ele>209.6</ele>
        <time>2022-06-19T10:14:55Z</time>
      </trkpt>
      <trkpt lat="42.8387210" lon="-8.5932060">
        <ele>209.6</ele>
        <time>2022-06-19T10:14:56Z</time>
      </trkpt>
      <trkpt lat="42.8387210" lon="-8.5931760">
        <ele>209.0</ele>
        <time>2022-06-19T10:14:57Z</time>
      </trkpt>
      <trkpt lat="42.8387210" lon="-8.5931480">
        <ele>209.0</ele>
        <time>2022-06-19T10:14:58Z</time>
      </trkpt>
      <trkpt lat="42.8387200" lon="-8.5931210">
        <ele>209.0</ele>
        <time>2022-06-19T10:14:59Z</time>
      </trkpt>
      <trkpt lat="42.8387150" lon="-8.5930980">
        <ele>209.0</ele>
        <time>2022-06-19T10:15:00Z</time>
      </trkpt>
      <trkpt lat="42.8387100" lon="-8.5930780">
        <ele>208.8</ele>
        <time>2022-06-19T10:15:01Z</time>
      </trkpt>
      <trkpt lat="42.8387030" lon="-8.5930630">
        <ele>208.8</ele>
        <time>2022-06-19T10:15:02Z</time>
      </trkpt>
      <trkpt lat="42.8387000" lon="-8.5930550">
        <ele>208.8</ele>
        <time>2022-06-19T10:15:03Z</time>
      </trkpt>
      <trkpt lat="42.8387000" lon="-8.5930550">
        <ele>208.8</ele>
        <time>2022-06-19T10:15:04Z</time>
      </trkpt>
      <trkpt lat="42.8386930" lon="-8.5930430">
        <ele>208.6</ele>
        <time>2022-06-19T10:15:05Z</time>
      </trkpt>
      <trkpt lat="42.8386930" lon="-8.5930430">
        <ele>208.6</ele>
        <time>2022-06-19T10:15:06Z</time>
      </trkpt>
      <trkpt lat="42.8386900" lon="-8.5930010">
        <ele>207.8</ele>
        <time>2022-06-19T10:16:25Z</time>
      </trkpt>
      <trkpt lat="42.8386830" lon="-8.5929780">
        <ele>207.8</ele>
        <time>2022-06-19T10:16:26Z</time>
      </trkpt>
      <trkpt lat="42.8386760" lon="-8.5929530">
        <ele>207.8</ele>
        <time>2022-06-19T10:16:27Z</time>
      </trkpt>
      <trkpt lat="42.8386700" lon="-8.5929200">
        <ele>207.8</ele>
        <time>2022-06-19T10:16:28Z</time>
      </trkpt>
      <trkpt lat="42.8386650" lon="-8.5928810">
        <ele>207.6</ele>
        <time>2022-06-19T10:16:29Z</time>
      </trkpt>
      <trkpt lat="42.8386600" lon="-8.5928400">
        <ele>207.6</ele>
        <time>2022-06-19T10:16:30Z</time>
      </trkpt>
      <trkpt lat="42.8386530" lon="-8.5927930">
        <ele>207.6</ele>
        <time>2022-06-19T10:16:31Z</time>
      </trkpt>
      <trkpt lat="42.8386500" lon="-8.5927430">
        <ele>206.8</ele>
        <time>2022-06-19T10:16:32Z</time>
      </trkpt>
      <trkpt lat="42.8386500" lon="-8.5927000">
        <ele>206.2</ele>
        <time>2022-06-19T10:16:33Z</time>
      </trkpt>
      <trkpt lat="42.8386560" lon="-8.5926630">
        <ele>206.2</ele>
        <time>2022-06-19T10:16:34Z</time>
      </trkpt>
      <trkpt lat="42.8386560" lon="-8.5926630">
        <ele>206.2</ele>
        <time>2022-06-19T10:16:35Z</time>
      </trkpt>
      <trkpt lat="42.8386650" lon="-8.5925630">
        <ele>205.2</ele>
        <time>2022-06-19T10:16:36Z</time>
      </trkpt>
      <trkpt lat="42.8386700" lon="-8.5924980">
        <ele>204.0</ele>
        <time>2022-06-19T10:16:37Z</time>
      </trkpt>
      <trkpt lat="42.8386800" lon="-8.5924230">
        <ele>204.0</ele>
        <time>2022-06-19T10:16:38Z</time>
      </trkpt>
      <trkpt lat="42.8387120" lon="-8.5922960">
        <ele>204.0</ele>
        <time>2022-06-19T10:16:39Z</time>
      </trkpt>
      <trkpt lat="42.8387260" lon="-8.5922510">
        <ele>203.0</ele>
        <time>2022-06-19T10:16:40Z</time>
      </trkpt>
      <trkpt lat="42.8387550" lon="-8.5921630">
        <ele>199.4</ele>
        <time>2022-06-19T10:16:41Z</time>
      </trkpt>
      <trkpt lat="42.8387930" lon="-8.5920710">
        <ele>199.4</ele>
        <time>2022-06-19T10:16:42Z</time>
      </trkpt>
      <trkpt lat="42.8388310" lon="-8.5919800">
        <ele>199.4</ele>
        <time>2022-06-19T10:16:43Z</time>
      </trkpt>
      <trkpt lat="42.8388650" lon="-8.5918860">
        <ele>198.4</ele>
        <time>2022-06-19T10:16:44Z</time>
      </trkpt>
      <trkpt lat="42.8388860" lon="-8.5917900">
        <ele>198.8</ele>
        <time>2022-06-19T10:16:45Z</time>
      </trkpt>
      <trkpt lat="42.8389080" lon="-8.5916950">
        <ele>198.8</ele>
        <time>2022-06-19T10:16:46Z</time>
      </trkpt>
      <trkpt lat="42.8389280" lon="-8.5916000">
        <ele>198.8</ele>
        <time>2022-06-19T10:16:47Z</time>
      </trkpt>
      <trkpt lat="42.8389460" lon="-8.5915130">
        <ele>197.8</ele>
        <time>2022-06-19T10:16:48Z</time>
      </trkpt>
      <trkpt lat="42.8389550" lon="-8.5914360">
        <ele>198.2</ele>
        <time>2022-06-19T10:16:49Z</time>
      </trkpt>
      <trkpt lat="42.8389550" lon="-8.5914360">
        <ele>198.2</ele>
        <time>2022-06-19T10:16:50Z</time>
      </trkpt>
      <trkpt lat="42.8389550" lon="-8.5913330">
        <ele>198.2</ele>
        <time>2022-06-19T10:16:51Z</time>
      </trkpt>
      <trkpt lat="42.8389500" lon="-8.5912880">
        <ele>198.6</ele>
        <time>2022-06-19T10:16:52Z</time>
      </trkpt>
      <trkpt lat="42.8389450" lon="-8.5912460">
        <ele>199.0</ele>
        <time>2022-06-19T10:16:53Z</time>
      </trkpt>
      <trkpt lat="42.8389400" lon="-8.5912060">
        <ele>199.0</ele>
        <time>2022-06-19T10:16:54Z</time>
      </trkpt>
      <trkpt lat="42.8389330" lon="-8.5911680">
        <ele>199.0</ele>
        <time>2022-06-19T10:16:55Z</time>
      </trkpt>
      <trkpt lat="42.8389250" lon="-8.5911330">
        <ele>200.0</ele>
        <time>2022-06-19T10:16:56Z</time>
      </trkpt>
      <trkpt lat="42.8389110" lon="-8.5911010">
        <ele>199.6</ele>
        <time>2022-06-19T10:16:57Z</time>
      </trkpt>
      <trkpt lat="42.8389030" lon="-8.5910830">
        <ele>199.6</ele>
        <time>2022-06-19T10:16:58Z</time>
      </trkpt>
      <trkpt lat="42.8389000" lon="-8.5910750">
        <ele>199.6</ele>
        <time>2022-06-19T10:16:59Z</time>
      </trkpt>
      <trkpt lat="42.8388900" lon="-8.5910210">
        <ele>199.6</ele>
        <time>2022-06-19T10:17:08Z</time>
      </trkpt>
      <trkpt lat="42.8388830" lon="-8.5909860">
        <ele>199.8</ele>
        <time>2022-06-19T10:17:09Z</time>
      </trkpt>
      <trkpt lat="42.8388780" lon="-8.5909410">
        <ele>199.8</ele>
        <time>2022-06-19T10:17:10Z</time>
      </trkpt>
      <trkpt lat="42.8388700" lon="-8.5908980">
        <ele>199.8</ele>
        <time>2022-06-19T10:17:11Z</time>
      </trkpt>
      <trkpt lat="42.8388630" lon="-8.5908530">
        <ele>199.8</ele>
        <time>2022-06-19T10:17:12Z</time>
      </trkpt>
      <trkpt lat="42.8388530" lon="-8.5908060">
        <ele>200.2</ele>
        <time>2022-06-19T10:17:13Z</time>
      </trkpt>
      <trkpt lat="42.8388450" lon="-8.5907610">
        <ele>200.2</ele>
        <time>2022-06-19T10:17:14Z</time>
      </trkpt>
      <trkpt lat="42.8388450" lon="-8.5907610">
        <ele>200.2</ele>
        <time>2022-06-19T10:17:15Z</time>
      </trkpt>
      <trkpt lat="42.8388250" lon="-8.5906730">
        <ele>200.4</ele>
        <time>2022-06-19T10:17:16Z</time>
      </trkpt>
      <trkpt lat="42.8388130" lon="-8.5906280">
        <ele>200.4</ele>
        <time>2022-06-19T10:17:17Z</time>
      </trkpt>
      <trkpt lat="42.8388030" lon="-8.5905800">
        <ele>200.4</ele>
        <time>2022-06-19T10:17:18Z</time>
      </trkpt>
      <trkpt lat="42.8387980" lon="-8.5905310">
        <ele>200.4</ele>
        <time>2022-06-19T10:17:19Z</time>
      </trkpt>
      <trkpt lat="42.8387960" lon="-8.5904830">
        <ele>200.6</ele>
        <time>2022-06-19T10:17:20Z</time>
      </trkpt>
      <trkpt lat="42.8387960" lon="-8.5904330">
        <ele>200.0</ele>
        <time>2022-06-19T10:17:21Z</time>
      </trkpt>
      <trkpt lat="42.8387960" lon="-8.5904330">
        <ele>200.0</ele>
        <time>2022-06-19T10:17:22Z</time>
      </trkpt>
      <trkpt lat="42.8388130" lon="-8.5903350">
        <ele>200.0</ele>
        <time>2022-06-19T10:17:23Z</time>
      </trkpt>
      <trkpt lat="42.8388250" lon="-8.5902880">
        <ele>200.2</ele>
        <time>2022-06-19T10:17:24Z</time>
      </trkpt>
      <trkpt lat="42.8388380" lon="-8.5902430">
        <ele>200.8</ele>
        <time>2022-06-19T10:17:25Z</time>
      </trkpt>
      <trkpt lat="42.8388550" lon="-8.5901960">
        <ele>200.8</ele>
        <time>2022-06-19T10:17:26Z</time>
      </trkpt>
      <trkpt lat="42.8388730" lon="-8.5901480">
        <ele>200.8</ele>
        <time>2022-06-19T10:17:27Z</time>
      </trkpt>
      <trkpt lat="42.8388950" lon="-8.5901050">
        <ele>199.8</ele>
        <time>2022-06-19T10:17:28Z</time>
      </trkpt>
      <trkpt lat="42.8389160" lon="-8.5900630">
        <ele>200.4</ele>
        <time>2022-06-19T10:17:29Z</time>
      </trkpt>
      <trkpt lat="42.8389380" lon="-8.5900180">
        <ele>200.4</ele>
        <time>2022-06-19T10:17:30Z</time>
      </trkpt>
      <trkpt lat="42.8389610" lon="-8.5899760">
        <ele>200.4</ele>
        <time>2022-06-19T10:17:31Z</time>
      </trkpt>
      <trkpt lat="42.8389850" lon="-8.5899330">
        <ele>201.0</ele>
        <time>2022-06-19T10:17:32Z</time>
      </trkpt>
      <trkpt lat="42.8390060" lon="-8.5898900">
        <ele>201.2</ele>
        <time>2022-06-19T10:17:33Z</time>
      </trkpt>
      <trkpt lat="42.8390370" lon="-8.5898220">
        <ele>201.2</ele>
        <time>2022-06-19T10:17:34Z</time>
      </trkpt>
      <trkpt lat="42.8390470" lon="-8.5898000">
        <ele>201.2</ele>
        <time>2022-06-19T10:17:35Z</time>
      </trkpt>
      <trkpt lat="42.8390580" lon="-8.5897770">
        <ele>200.6</ele>
        <time>2022-06-19T10:17:36Z</time>
      </trkpt>
      <trkpt lat="42.8390900" lon="-8.5897100">
        <ele>200.6</ele>
        <time>2022-06-19T10:17:37Z</time>
      </trkpt>
      <trkpt lat="42.8391110" lon="-8.5896630">
        <ele>200.6</ele>
        <time>2022-06-19T10:17:38Z</time>
      </trkpt>
      <trkpt lat="42.8391110" lon="-8.5896630">
        <ele>200.6</ele>
        <time>2022-06-19T10:17:39Z</time>
      </trkpt>
      <trkpt lat="42.8391510" lon="-8.5895680">
        <ele>201.0</ele>
        <time>2022-06-19T10:17:40Z</time>
      </trkpt>
      <trkpt lat="42.8391730" lon="-8.5895210">
        <ele>200.6</ele>
        <time>2022-06-19T10:17:41Z</time>
      </trkpt>
      <trkpt lat="42.8391930" lon="-8.5894750">
        <ele>200.6</ele>
        <time>2022-06-19T10:17:42Z</time>
      </trkpt>
      <trkpt lat="42.8392130" lon="-8.5894280">
        <ele>200.6</ele>
        <time>2022-06-19T10:17:43Z</time>
      </trkpt>
      <trkpt lat="42.8392350" lon="-8.5893830">
        <ele>200.6</ele>
        <time>2022-06-19T10:17:44Z</time>
      </trkpt>
      <trkpt lat="42.8392530" lon="-8.5893380">
        <ele>201.2</ele>
        <time>2022-06-19T10:17:45Z</time>
      </trkpt>
      <trkpt lat="42.8392730" lon="-8.5892910">
        <ele>201.2</ele>
        <time>2022-06-19T10:17:46Z</time>
      </trkpt>
      <trkpt lat="42.8392730" lon="-8.5892910">
        <ele>201.2</ele>
        <time>2022-06-19T10:17:47Z</time>
      </trkpt>
      <trkpt lat="42.8393160" lon="-8.5892010">
        <ele>201.2</ele>
        <time>2022-06-19T10:17:48Z</time>
      </trkpt>
      <trkpt lat="42.8393380" lon="-8.5891580">
        <ele>201.6</ele>
        <time>2022-06-19T10:17:49Z</time>
      </trkpt>
      <trkpt lat="42.8393580" lon="-8.5891100">
        <ele>201.6</ele>
        <time>2022-06-19T10:17:50Z</time>
      </trkpt>
      <trkpt lat="42.8393800" lon="-8.5890630">
        <ele>201.6</ele>
        <time>2022-06-19T10:17:51Z</time>
      </trkpt>
      <trkpt lat="42.8394010" lon="-8.5890180">
        <ele>201.2</ele>
        <time>2022-06-19T10:17:52Z</time>
      </trkpt>
      <trkpt lat="42.8394210" lon="-8.5889710">
        <ele>201.6</ele>
        <time>2022-06-19T10:17:53Z</time>
      </trkpt>
      <trkpt lat="42.8394400" lon="-8.5889260">
        <ele>201.6</ele>
        <time>2022-06-19T10:17:54Z</time>
      </trkpt>
      <trkpt lat="42.8394400" lon="-8.5889260">
        <ele>201.6</ele>
        <time>2022-06-19T10:17:55Z</time>
      </trkpt>
      <trkpt lat="42.8394830" lon="-8.5888380">
        <ele>202.2</ele>
        <time>2022-06-19T10:17:56Z</time>
      </trkpt>
      <trkpt lat="42.8395010" lon="-8.5887930">
        <ele>202.2</ele>
        <time>2022-06-19T10:17:57Z</time>
      </trkpt>
      <trkpt lat="42.8395210" lon="-8.5887480">
        <ele>202.2</ele>
        <time>2022-06-19T10:17:58Z</time>
      </trkpt>
      <trkpt lat="42.8395400" lon="-8.5887010">
        <ele>202.2</ele>
        <time>2022-06-19T10:17:59Z</time>
      </trkpt>
      <trkpt lat="42.8395580" lon="-8.5886560">
        <ele>202.2</ele>
        <time>2022-06-19T10:18:00Z</time>
      </trkpt>
      <trkpt lat="42.8395780" lon="-8.5886130">
        <ele>202.0</ele>
        <time>2022-06-19T10:18:01Z</time>
      </trkpt>
      <trkpt lat="42.8396000" lon="-8.5885680">
        <ele>202.0</ele>
        <time>2022-06-19T10:18:02Z</time>
      </trkpt>
      <trkpt lat="42.8396250" lon="-8.5885250">
        <ele>202.0</ele>
        <time>2022-06-19T10:18:03Z</time>
      </trkpt>
      <trkpt lat="42.8396460" lon="-8.5884850">
        <ele>202.4</ele>
        <time>2022-06-19T10:18:04Z</time>
      </trkpt>
      <trkpt lat="42.8396460" lon="-8.5884850">
        <ele>202.6</ele>
        <time>2022-06-19T10:18:05Z</time>
      </trkpt>
      <trkpt lat="42.8396880" lon="-8.5883960">
        <ele>202.6</ele>
        <time>2022-06-19T10:18:06Z</time>
      </trkpt>
      <trkpt lat="42.8397100" lon="-8.5883510">
        <ele>202.6</ele>
        <time>2022-06-19T10:18:07Z</time>
      </trkpt>
      <trkpt lat="42.8397100" lon="-8.5883510">
        <ele>202.6</ele>
        <time>2022-06-19T10:18:08Z</time>
      </trkpt>
      <trkpt lat="42.8397500" lon="-8.5882630">
        <ele>201.2</ele>
        <time>2022-06-19T10:18:09Z</time>
      </trkpt>
      <trkpt lat="42.8397730" lon="-8.5882200">
        <ele>201.2</ele>
        <time>2022-06-19T10:18:10Z</time>
      </trkpt>
      <trkpt lat="42.8398060" lon="-8.5881530">
        <ele>201.2</ele>
        <time>2022-06-19T10:18:11Z</time>
      </trkpt>
      <trkpt lat="42.8398170" lon="-8.5881290">
        <ele>202.2</ele>
        <time>2022-06-19T10:18:12Z</time>
      </trkpt>
      <trkpt lat="42.8398270" lon="-8.5881060">
        <ele>203.0</ele>
        <time>2022-06-19T10:18:13Z</time>
      </trkpt>
      <trkpt lat="42.8398600" lon="-8.5880360">
        <ele>203.0</ele>
        <time>2022-06-19T10:18:14Z</time>
      </trkpt>
      <trkpt lat="42.8398830" lon="-8.5879950">
        <ele>203.0</ele>
        <time>2022-06-19T10:18:15Z</time>
      </trkpt>
      <trkpt lat="42.8399050" lon="-8.5879530">
        <ele>203.0</ele>
        <time>2022-06-19T10:18:16Z</time>
      </trkpt>
      <trkpt lat="42.8399210" lon="-8.5879100">
        <ele>202.2</ele>
        <time>2022-06-19T10:18:17Z</time>
      </trkpt>
      <trkpt lat="42.8399410" lon="-8.5878650">
        <ele>202.2</ele>
        <time>2022-06-19T10:18:18Z</time>
      </trkpt>
      <trkpt lat="42.8399600" lon="-8.5878180">
        <ele>202.2</ele>
        <time>2022-06-19T10:18:19Z</time>
      </trkpt>
      <trkpt lat="42.8399600" lon="-8.5878180">
        <ele>203.2</ele>
        <time>2022-06-19T10:18:20Z</time>
      </trkpt>
      <trkpt lat="42.8399950" lon="-8.5877250">
        <ele>203.4</ele>
        <time>2022-06-19T10:18:21Z</time>
      </trkpt>
      <trkpt lat="42.8400150" lon="-8.5876780">
        <ele>203.4</ele>
        <time>2022-06-19T10:18:22Z</time>
      </trkpt>
      <trkpt lat="42.8400350" lon="-8.5876280">
        <ele>203.4</ele>
        <time>2022-06-19T10:18:23Z</time>
      </trkpt>
      <trkpt lat="42.8400350" lon="-8.5876280">
        <ele>203.4</ele>
        <time>2022-06-19T10:18:24Z</time>
      </trkpt>
      <trkpt lat="42.8400730" lon="-8.5875330">
        <ele>203.0</ele>
        <time>2022-06-19T10:18:25Z</time>
      </trkpt>
      <trkpt lat="42.8400910" lon="-8.5874860">
        <ele>203.0</ele>
        <time>2022-06-19T10:18:26Z</time>
      </trkpt>
      <trkpt lat="42.8401100" lon="-8.5874410">
        <ele>203.0</ele>
        <time>2022-06-19T10:18:27Z</time>
      </trkpt>
      <trkpt lat="42.8401280" lon="-8.5873930">
        <ele>203.0</ele>
        <time>2022-06-19T10:18:28Z</time>
      </trkpt>
      <trkpt lat="42.8401280" lon="-8.5873930">
        <ele>202.4</ele>
        <time>2022-06-19T10:18:29Z</time>
      </trkpt>
      <trkpt lat="42.8401610" lon="-8.5872980">
        <ele>202.4</ele>
        <time>2022-06-19T10:18:30Z</time>
      </trkpt>
      <trkpt lat="42.8401780" lon="-8.5872510">
        <ele>202.4</ele>
        <time>2022-06-19T10:18:31Z</time>
      </trkpt>
      <trkpt lat="42.8401780" lon="-8.5872510">
        <ele>203.4</ele>
        <time>2022-06-19T10:18:32Z</time>
      </trkpt>
      <trkpt lat="42.8402130" lon="-8.5871530">
        <ele>203.2</ele>
        <time>2022-06-19T10:18:33Z</time>
      </trkpt>
      <trkpt lat="42.8402300" lon="-8.5871080">
        <ele>203.2</ele>
        <time>2022-06-19T10:18:34Z</time>
      </trkpt>
      <trkpt lat="42.8402300" lon="-8.5871080">
        <ele>203.2</ele>
        <time>2022-06-19T10:18:35Z</time>
      </trkpt>
      <trkpt lat="42.8402660" lon="-8.5870180">
        <ele>204.2</ele>
        <time>2022-06-19T10:18:36Z</time>
      </trkpt>
      <trkpt lat="42.8402850" lon="-8.5869710">
        <ele>204.8</ele>
        <time>2022-06-19T10:18:37Z</time>
      </trkpt>
      <trkpt lat="42.8402850" lon="-8.5869710">
        <ele>204.8</ele>
        <time>2022-06-19T10:18:38Z</time>
      </trkpt>
      <trkpt lat="42.8403200" lon="-8.5868800">
        <ele>204.8</ele>
        <time>2022-06-19T10:18:39Z</time>
      </trkpt>
      <trkpt lat="42.8403380" lon="-8.5868310">
        <ele>205.4</ele>
        <time>2022-06-19T10:18:40Z</time>
      </trkpt>
      <trkpt lat="42.8403560" lon="-8.5867850">
        <ele>205.2</ele>
        <time>2022-06-19T10:18:41Z</time>
      </trkpt>
      <trkpt lat="42.8403730" lon="-8.5867350">
        <ele>205.2</ele>
        <time>2022-06-19T10:18:42Z</time>
      </trkpt>
      <trkpt lat="42.8403910" lon="-8.5866880">
        <ele>205.2</ele>
        <time>2022-06-19T10:18:43Z</time>
      </trkpt>
      <trkpt lat="42.8404080" lon="-8.5866450">
        <ele>205.2</ele>
        <time>2022-06-19T10:18:44Z</time>
      </trkpt>
      <trkpt lat="42.8404260" lon="-8.5865980">
        <ele>205.2</ele>
        <time>2022-06-19T10:18:45Z</time>
      </trkpt>
      <trkpt lat="42.8404450" lon="-8.5865500">
        <ele>205.2</ele>
        <time>2022-06-19T10:18:46Z</time>
      </trkpt>
      <trkpt lat="42.8404630" lon="-8.5865030">
        <ele>205.2</ele>
        <time>2022-06-19T10:18:47Z</time>
      </trkpt>
      <trkpt lat="42.8404810" lon="-8.5864560">
        <ele>204.8</ele>
        <time>2022-06-19T10:18:48Z</time>
      </trkpt>
      <trkpt lat="42.8405000" lon="-8.5864130">
        <ele>205.2</ele>
        <time>2022-06-19T10:18:49Z</time>
      </trkpt>
      <trkpt lat="42.8405160" lon="-8.5863680">
        <ele>205.2</ele>
        <time>2022-06-19T10:18:50Z</time>
      </trkpt>
      <trkpt lat="42.8405310" lon="-8.5863230">
        <ele>205.2</ele>
        <time>2022-06-19T10:18:51Z</time>
      </trkpt>
      <trkpt lat="42.8405480" lon="-8.5862800">
        <ele>205.2</ele>
        <time>2022-06-19T10:18:52Z</time>
      </trkpt>
      <trkpt lat="42.8405650" lon="-8.5862360">
        <ele>205.0</ele>
        <time>2022-06-19T10:18:53Z</time>
      </trkpt>
      <trkpt lat="42.8405810" lon="-8.5861950">
        <ele>205.0</ele>
        <time>2022-06-19T10:18:54Z</time>
      </trkpt>
      <trkpt lat="42.8405950" lon="-8.5861530">
        <ele>205.0</ele>
        <time>2022-06-19T10:18:55Z</time>
      </trkpt>
      <trkpt lat="42.8406080" lon="-8.5861130">
        <ele>205.8</ele>
        <time>2022-06-19T10:18:56Z</time>
      </trkpt>
      <trkpt lat="42.8406230" lon="-8.5860730">
        <ele>205.8</ele>
        <time>2022-06-19T10:18:57Z</time>
      </trkpt>
      <trkpt lat="42.8406410" lon="-8.5860350">
        <ele>205.8</ele>
        <time>2022-06-19T10:18:58Z</time>
      </trkpt>
      <trkpt lat="42.8406560" lon="-8.5859960">
        <ele>205.8</ele>
        <time>2022-06-19T10:18:59Z</time>
      </trkpt>
      <trkpt lat="42.8406750" lon="-8.5859600">
        <ele>206.8</ele>
        <time>2022-06-19T10:19:00Z</time>
      </trkpt>
      <trkpt lat="42.8406880" lon="-8.5859210">
        <ele>206.6</ele>
        <time>2022-06-19T10:19:01Z</time>
      </trkpt>
      <trkpt lat="42.8407000" lon="-8.5858810">
        <ele>206.6</ele>
        <time>2022-06-19T10:19:02Z</time>
      </trkpt>
      <trkpt lat="42.8407160" lon="-8.5858450">
        <ele>206.6</ele>
        <time>2022-06-19T10:19:03Z</time>
      </trkpt>
      <trkpt lat="42.8407330" lon="-8.5858060">
        <ele>207.6</ele>
        <time>2022-06-19T10:19:04Z</time>
      </trkpt>
      <trkpt lat="42.8407500" lon="-8.5857680">
        <ele>207.8</ele>
        <time>2022-06-19T10:19:05Z</time>
      </trkpt>
      <trkpt lat="42.8407630" lon="-8.5857380">
        <ele>207.8</ele>
        <time>2022-06-19T10:19:06Z</time>
      </trkpt>
      <trkpt lat="42.8407760" lon="-8.5857010">
        <ele>207.8</ele>
        <time>2022-06-19T10:19:07Z</time>
      </trkpt>
      <trkpt lat="42.8407900" lon="-8.5856610">
        <ele>207.6</ele>
        <time>2022-06-19T10:19:08Z</time>
      </trkpt>
      <trkpt lat="42.8408050" lon="-8.5856230">
        <ele>207.4</ele>
        <time>2022-06-19T10:19:09Z</time>
      </trkpt>
      <trkpt lat="42.8408200" lon="-8.5855860">
        <ele>207.4</ele>
        <time>2022-06-19T10:19:10Z</time>
      </trkpt>
      <trkpt lat="42.8408330" lon="-8.5855460">
        <ele>207.4</ele>
        <time>2022-06-19T10:19:11Z</time>
      </trkpt>
      <trkpt lat="42.8408450" lon="-8.5855050">
        <ele>207.4</ele>
        <time>2022-06-19T10:19:12Z</time>
      </trkpt>
      <trkpt lat="42.8408600" lon="-8.5854680">
        <ele>207.4</ele>
        <time>2022-06-19T10:19:13Z</time>
      </trkpt>
      <trkpt lat="42.8408750" lon="-8.5854330">
        <ele>207.4</ele>
        <time>2022-06-19T10:19:14Z</time>
      </trkpt>
      <trkpt lat="42.8408900" lon="-8.5853980">
        <ele>207.4</ele>
        <time>2022-06-19T10:19:15Z</time>
      </trkpt>
      <trkpt lat="42.8409030" lon="-8.5853630">
        <ele>207.4</ele>
        <time>2022-06-19T10:19:16Z</time>
      </trkpt>
      <trkpt lat="42.8409150" lon="-8.5853250">
        <ele>208.0</ele>
        <time>2022-06-19T10:19:17Z</time>
      </trkpt>
      <trkpt lat="42.8409310" lon="-8.5852880">
        <ele>208.0</ele>
        <time>2022-06-19T10:19:18Z</time>
      </trkpt>
      <trkpt lat="42.8409510" lon="-8.5852550">
        <ele>208.0</ele>
        <time>2022-06-19T10:19:19Z</time>
      </trkpt>
      <trkpt lat="42.8409680" lon="-8.5852160">
        <ele>208.0</ele>
        <time>2022-06-19T10:19:20Z</time>
      </trkpt>
      <trkpt lat="42.8409830" lon="-8.5851750">
        <ele>208.4</ele>
        <time>2022-06-19T10:19:21Z</time>
      </trkpt>
      <trkpt lat="42.8410000" lon="-8.5851360">
        <ele>208.4</ele>
        <time>2022-06-19T10:19:22Z</time>
      </trkpt>
      <trkpt lat="42.8410160" lon="-8.5851000">
        <ele>208.4</ele>
        <time>2022-06-19T10:19:23Z</time>
      </trkpt>
      <trkpt lat="42.8410280" lon="-8.5850580">
        <ele>208.4</ele>
        <time>2022-06-19T10:19:24Z</time>
      </trkpt>
      <trkpt lat="42.8410410" lon="-8.5850180">
        <ele>208.2</ele>
        <time>2022-06-19T10:19:25Z</time>
      </trkpt>
      <trkpt lat="42.8410560" lon="-8.5849760">
        <ele>208.2</ele>
        <time>2022-06-19T10:19:26Z</time>
      </trkpt>
      <trkpt lat="42.8410710" lon="-8.5849380">
        <ele>208.2</ele>
        <time>2022-06-19T10:19:27Z</time>
      </trkpt>
      <trkpt lat="42.8410860" lon="-8.5849010">
        <ele>209.2</ele>
        <time>2022-06-19T10:19:28Z</time>
      </trkpt>
      <trkpt lat="42.8410980" lon="-8.5848610">
        <ele>209.4</ele>
        <time>2022-06-19T10:19:29Z</time>
      </trkpt>
      <trkpt lat="42.8411100" lon="-8.5848210">
        <ele>209.4</ele>
        <time>2022-06-19T10:19:30Z</time>
      </trkpt>
      <trkpt lat="42.8411250" lon="-8.5847830">
        <ele>209.4</ele>
        <time>2022-06-19T10:19:31Z</time>
      </trkpt>
      <trkpt lat="42.8411380" lon="-8.5847450">
        <ele>209.4</ele>
        <time>2022-06-19T10:19:32Z</time>
      </trkpt>
      <trkpt lat="42.8411500" lon="-8.5847080">
        <ele>209.2</ele>
        <time>2022-06-19T10:19:33Z</time>
      </trkpt>
      <trkpt lat="42.8411610" lon="-8.5846700">
        <ele>209.2</ele>
        <time>2022-06-19T10:19:34Z</time>
      </trkpt>
      <trkpt lat="42.8411730" lon="-8.5846310">
        <ele>209.2</ele>
        <time>2022-06-19T10:19:35Z</time>
      </trkpt>
      <trkpt lat="42.8411850" lon="-8.5845930">
        <ele>209.2</ele>
        <time>2022-06-19T10:19:36Z</time>
      </trkpt>
      <trkpt lat="42.8411930" lon="-8.5845560">
        <ele>209.6</ele>
        <time>2022-06-19T10:19:37Z</time>
      </trkpt>
      <trkpt lat="42.8412050" lon="-8.5845210">
        <ele>209.6</ele>
        <time>2022-06-19T10:19:38Z</time>
      </trkpt>
      <trkpt lat="42.8412180" lon="-8.5844880">
        <ele>209.6</ele>
        <time>2022-06-19T10:19:39Z</time>
      </trkpt>
      <trkpt lat="42.8412280" lon="-8.5844550">
        <ele>210.4</ele>
        <time>2022-06-19T10:19:40Z</time>
      </trkpt>
      <trkpt lat="42.8412360" lon="-8.5844230">
        <ele>210.6</ele>
        <time>2022-06-19T10:19:41Z</time>
      </trkpt>
      <trkpt lat="42.8412410" lon="-8.5843880">
        <ele>210.6</ele>
        <time>2022-06-19T10:19:42Z</time>
      </trkpt>
      <trkpt lat="42.8412530" lon="-8.5843630">
        <ele>210.6</ele>
        <time>2022-06-19T10:19:43Z</time>
      </trkpt>
      <trkpt lat="42.8412630" lon="-8.5843410">
        <ele>210.6</ele>
        <time>2022-06-19T10:19:44Z</time>
      </trkpt>
      <trkpt lat="42.8412660" lon="-8.5843150">
        <ele>211.8</ele>
        <time>2022-06-19T10:19:45Z</time>
      </trkpt>
      <trkpt lat="42.8412700" lon="-8.5842880">
        <ele>211.8</ele>
        <time>2022-06-19T10:19:46Z</time>
      </trkpt>
      <trkpt lat="42.8412800" lon="-8.5842610">
        <ele>211.8</ele>
        <time>2022-06-19T10:19:47Z</time>
      </trkpt>
      <trkpt lat="42.8412900" lon="-8.5842330">
        <ele>211.6</ele>
        <time>2022-06-19T10:19:48Z</time>
      </trkpt>
      <trkpt lat="42.8413010" lon="-8.5842060">
        <ele>212.0</ele>
        <time>2022-06-19T10:19:49Z</time>
      </trkpt>
      <trkpt lat="42.8413110" lon="-8.5841800">
        <ele>212.0</ele>
        <time>2022-06-19T10:19:50Z</time>
      </trkpt>
      <trkpt lat="42.8413200" lon="-8.5841550">
        <ele>212.0</ele>
        <time>2022-06-19T10:19:51Z</time>
      </trkpt>
      <trkpt lat="42.8413250" lon="-8.5841280">
        <ele>212.4</ele>
        <time>2022-06-19T10:19:52Z</time>
      </trkpt>
      <trkpt lat="42.8413330" lon="-8.5841030">
        <ele>213.0</ele>
        <time>2022-06-19T10:19:53Z</time>
      </trkpt>
      <trkpt lat="42.8413430" lon="-8.5840750">
        <ele>213.0</ele>
        <time>2022-06-19T10:19:54Z</time>
      </trkpt>
      <trkpt lat="42.8413580" lon="-8.5840480">
        <ele>213.0</ele>
        <time>2022-06-19T10:19:55Z</time>
      </trkpt>
      <trkpt lat="42.8413700" lon="-8.5840250">
        <ele>213.0</ele>
        <time>2022-06-19T10:19:56Z</time>
      </trkpt>
      <trkpt lat="42.8413800" lon="-8.5840010">
        <ele>213.0</ele>
        <time>2022-06-19T10:19:57Z</time>
      </trkpt>
      <trkpt lat="42.8413910" lon="-8.5839760">
        <ele>213.0</ele>
        <time>2022-06-19T10:19:58Z</time>
      </trkpt>
      <trkpt lat="42.8414030" lon="-8.5839530">
        <ele>213.0</ele>
        <time>2022-06-19T10:19:59Z</time>
      </trkpt>
      <trkpt lat="42.8414100" lon="-8.5839280">
        <ele>213.2</ele>
        <time>2022-06-19T10:20:00Z</time>
      </trkpt>
      <trkpt lat="42.8414160" lon="-8.5839050">
        <ele>213.6</ele>
        <time>2022-06-19T10:20:01Z</time>
      </trkpt>
      <trkpt lat="42.8414300" lon="-8.5838830">
        <ele>213.6</ele>
        <time>2022-06-19T10:20:02Z</time>
      </trkpt>
      <trkpt lat="42.8414410" lon="-8.5838610">
        <ele>213.6</ele>
        <time>2022-06-19T10:20:03Z</time>
      </trkpt>
      <trkpt lat="42.8414530" lon="-8.5838400">
        <ele>214.0</ele>
        <time>2022-06-19T10:20:04Z</time>
      </trkpt>
      <trkpt lat="42.8414650" lon="-8.5838180">
        <ele>214.0</ele>
        <time>2022-06-19T10:20:05Z</time>
      </trkpt>
      <trkpt lat="42.8414750" lon="-8.5837950">
        <ele>214.0</ele>
        <time>2022-06-19T10:20:06Z</time>
      </trkpt>
      <trkpt lat="42.8414880" lon="-8.5837750">
        <ele>214.0</ele>
        <time>2022-06-19T10:20:07Z</time>
      </trkpt>
      <trkpt lat="42.8415010" lon="-8.5837550">
        <ele>214.0</ele>
        <time>2022-06-19T10:20:08Z</time>
      </trkpt>
      <trkpt lat="42.8415130" lon="-8.5837350">
        <ele>214.2</ele>
        <time>2022-06-19T10:20:09Z</time>
      </trkpt>
      <trkpt lat="42.8415210" lon="-8.5837130">
        <ele>214.2</ele>
        <time>2022-06-19T10:20:10Z</time>
      </trkpt>
      <trkpt lat="42.8415330" lon="-8.5836930">
        <ele>214.2</ele>
        <time>2022-06-19T10:20:11Z</time>
      </trkpt>
      <trkpt lat="42.8415450" lon="-8.5836730">
        <ele>214.8</ele>
        <time>2022-06-19T10:20:12Z</time>
      </trkpt>
      <trkpt lat="42.8415560" lon="-8.5836530">
        <ele>215.2</ele>
        <time>2022-06-19T10:20:13Z</time>
      </trkpt>
      <trkpt lat="42.8415660" lon="-8.5836310">
        <ele>215.2</ele>
        <time>2022-06-19T10:20:14Z</time>
      </trkpt>
      <trkpt lat="42.8415810" lon="-8.5836110">
        <ele>215.2</ele>
        <time>2022-06-19T10:20:15Z</time>
      </trkpt>
      <trkpt lat="42.8415930" lon="-8.5835910">
        <ele>215.8</ele>
        <time>2022-06-19T10:20:16Z</time>
      </trkpt>
      <trkpt lat="42.8416050" lon="-8.5835700">
        <ele>216.2</ele>
        <time>2022-06-19T10:20:17Z</time>
      </trkpt>
      <trkpt lat="42.8416150" lon="-8.5835480">
        <ele>216.2</ele>
        <time>2022-06-19T10:20:18Z</time>
      </trkpt>
      <trkpt lat="42.8416300" lon="-8.5835300">
        <ele>216.2</ele>
        <time>2022-06-19T10:20:19Z</time>
      </trkpt>
      <trkpt lat="42.8416400" lon="-8.5835080">
        <ele>216.2</ele>
        <time>2022-06-19T10:20:20Z</time>
      </trkpt>
      <trkpt lat="42.8416510" lon="-8.5834880">
        <ele>216.8</ele>
        <time>2022-06-19T10:20:21Z</time>
      </trkpt>
      <trkpt lat="42.8416660" lon="-8.5834660">
        <ele>216.8</ele>
        <time>2022-06-19T10:20:22Z</time>
      </trkpt>
      <trkpt lat="42.8416800" lon="-8.5834460">
        <ele>216.8</ele>
        <time>2022-06-19T10:20:23Z</time>
      </trkpt>
      <trkpt lat="42.8416930" lon="-8.5834250">
        <ele>217.0</ele>
        <time>2022-06-19T10:20:24Z</time>
      </trkpt>
      <trkpt lat="42.8417080" lon="-8.5834050">
        <ele>217.2</ele>
        <time>2022-06-19T10:20:25Z</time>
      </trkpt>
      <trkpt lat="42.8417210" lon="-8.5833830">
        <ele>217.2</ele>
        <time>2022-06-19T10:20:26Z</time>
      </trkpt>
      <trkpt lat="42.8417330" lon="-8.5833610">
        <ele>217.2</ele>
        <time>2022-06-19T10:20:27Z</time>
      </trkpt>
      <trkpt lat="42.8417460" lon="-8.5833410">
        <ele>217.2</ele>
        <time>2022-06-19T10:20:28Z</time>
      </trkpt>
      <trkpt lat="42.8417580" lon="-8.5833200">
        <ele>217.6</ele>
        <time>2022-06-19T10:20:29Z</time>
      </trkpt>
      <trkpt lat="42.8417700" lon="-8.5833000">
        <ele>217.6</ele>
        <time>2022-06-19T10:20:30Z</time>
      </trkpt>
      <trkpt lat="42.8417850" lon="-8.5832800">
        <ele>217.6</ele>
        <time>2022-06-19T10:20:31Z</time>
      </trkpt>
      <trkpt lat="42.8417960" lon="-8.5832610">
        <ele>218.0</ele>
        <time>2022-06-19T10:20:32Z</time>
      </trkpt>
      <trkpt lat="42.8418110" lon="-8.5832410">
        <ele>218.2</ele>
        <time>2022-06-19T10:20:33Z</time>
      </trkpt>
      <trkpt lat="42.8418250" lon="-8.5832230">
        <ele>218.2</ele>
        <time>2022-06-19T10:20:34Z</time>
      </trkpt>
      <trkpt lat="42.8418400" lon="-8.5832050">
        <ele>218.2</ele>
        <time>2022-06-19T10:20:35Z</time>
      </trkpt>
      <trkpt lat="42.8418550" lon="-8.5831880">
        <ele>218.2</ele>
        <time>2022-06-19T10:20:36Z</time>
      </trkpt>
      <trkpt lat="42.8418700" lon="-8.5831710">
        <ele>218.6</ele>
        <time>2022-06-19T10:20:37Z</time>
      </trkpt>
      <trkpt lat="42.8418850" lon="-8.5831510">
        <ele>218.6</ele>
        <time>2022-06-19T10:20:38Z</time>
      </trkpt>
      <trkpt lat="42.8419000" lon="-8.5831350">
        <ele>218.6</ele>
        <time>2022-06-19T10:20:39Z</time>
      </trkpt>
      <trkpt lat="42.8419160" lon="-8.5831200">
        <ele>218.6</ele>
        <time>2022-06-19T10:20:40Z</time>
      </trkpt>
      <trkpt lat="42.8419300" lon="-8.5831030">
        <ele>219.2</ele>
        <time>2022-06-19T10:20:41Z</time>
      </trkpt>
      <trkpt lat="42.8419450" lon="-8.5830860">
        <ele>219.2</ele>
        <time>2022-06-19T10:20:42Z</time>
      </trkpt>
      <trkpt lat="42.8419610" lon="-8.5830680">
        <ele>219.2</ele>
        <time>2022-06-19T10:20:43Z</time>
      </trkpt>
      <trkpt lat="42.8419780" lon="-8.5830500">
        <ele>219.2</ele>
        <time>2022-06-19T10:20:44Z</time>
      </trkpt>
      <trkpt lat="42.8419910" lon="-8.5830330">
        <ele>219.6</ele>
        <time>2022-06-19T10:20:45Z</time>
      </trkpt>
      <trkpt lat="42.8420060" lon="-8.5830160">
        <ele>219.6</ele>
        <time>2022-06-19T10:20:46Z</time>
      </trkpt>
      <trkpt lat="42.8420210" lon="-8.5830010">
        <ele>219.6</ele>
        <time>2022-06-19T10:20:47Z</time>
      </trkpt>
      <trkpt lat="42.8420360" lon="-8.5829860">
        <ele>219.6</ele>
        <time>2022-06-19T10:20:48Z</time>
      </trkpt>
      <trkpt lat="42.8420510" lon="-8.5829700">
        <ele>220.2</ele>
        <time>2022-06-19T10:20:49Z</time>
      </trkpt>
      <trkpt lat="42.8420660" lon="-8.5829530">
        <ele>220.2</ele>
        <time>2022-06-19T10:20:50Z</time>
      </trkpt>
      <trkpt lat="42.8420810" lon="-8.5829380">
        <ele>220.2</ele>
        <time>2022-06-19T10:20:51Z</time>
      </trkpt>
      <trkpt lat="42.8420960" lon="-8.5829250">
        <ele>220.4</ele>
        <time>2022-06-19T10:20:52Z</time>
      </trkpt>
      <trkpt lat="42.8421110" lon="-8.5829100">
        <ele>220.4</ele>
        <time>2022-06-19T10:20:53Z</time>
      </trkpt>
      <trkpt lat="42.8421280" lon="-8.5828950">
        <ele>220.4</ele>
        <time>2022-06-19T10:20:54Z</time>
      </trkpt>
      <trkpt lat="42.8421430" lon="-8.5828800">
        <ele>220.4</ele>
        <time>2022-06-19T10:20:55Z</time>
      </trkpt>
      <trkpt lat="42.8421600" lon="-8.5828650">
        <ele>221.4</ele>
        <time>2022-06-19T10:20:56Z</time>
      </trkpt>
      <trkpt lat="42.8421760" lon="-8.5828480">
        <ele>221.0</ele>
        <time>2022-06-19T10:20:57Z</time>
      </trkpt>
      <trkpt lat="42.8421910" lon="-8.5828310">
        <ele>221.0</ele>
        <time>2022-06-19T10:20:58Z</time>
      </trkpt>
      <trkpt lat="42.8422080" lon="-8.5828160">
        <ele>221.0</ele>
        <time>2022-06-19T10:20:59Z</time>
      </trkpt>
      <trkpt lat="42.8422250" lon="-8.5828010">
        <ele>221.4</ele>
        <time>2022-06-19T10:21:00Z</time>
      </trkpt>
      <trkpt lat="42.8422410" lon="-8.5827900">
        <ele>221.6</ele>
        <time>2022-06-19T10:21:01Z</time>
      </trkpt>
      <trkpt lat="42.8422580" lon="-8.5827760">
        <ele>221.6</ele>
        <time>2022-06-19T10:21:02Z</time>
      </trkpt>
      <trkpt lat="42.8422710" lon="-8.5827630">
        <ele>221.6</ele>
        <time>2022-06-19T10:21:03Z</time>
      </trkpt>
      <trkpt lat="42.8422860" lon="-8.5827500">
        <ele>221.6</ele>
        <time>2022-06-19T10:21:04Z</time>
      </trkpt>
      <trkpt lat="42.8423010" lon="-8.5827380">
        <ele>222.0</ele>
        <time>2022-06-19T10:21:05Z</time>
      </trkpt>
      <trkpt lat="42.8423180" lon="-8.5827260">
        <ele>222.0</ele>
        <time>2022-06-19T10:21:06Z</time>
      </trkpt>
      <trkpt lat="42.8423330" lon="-8.5827150">
        <ele>222.0</ele>
        <time>2022-06-19T10:21:07Z</time>
      </trkpt>
      <trkpt lat="42.8423500" lon="-8.5827010">
        <ele>222.4</ele>
        <time>2022-06-19T10:21:08Z</time>
      </trkpt>
      <trkpt lat="42.8423660" lon="-8.5826880">
        <ele>222.4</ele>
        <time>2022-06-19T10:21:09Z</time>
      </trkpt>
      <trkpt lat="42.8423830" lon="-8.5826730">
        <ele>222.4</ele>
        <time>2022-06-19T10:21:10Z</time>
      </trkpt>
      <trkpt lat="42.8423980" lon="-8.5826580">
        <ele>222.4</ele>
        <time>2022-06-19T10:21:11Z</time>
      </trkpt>
      <trkpt lat="42.8424150" lon="-8.5826430">
        <ele>223.0</ele>
        <time>2022-06-19T10:21:12Z</time>
      </trkpt>
      <trkpt lat="42.8424300" lon="-8.5826300">
        <ele>222.8</ele>
        <time>2022-06-19T10:21:13Z</time>
      </trkpt>
      <trkpt lat="42.8424460" lon="-8.5826160">
        <ele>222.8</ele>
        <time>2022-06-19T10:21:14Z</time>
      </trkpt>
      <trkpt lat="42.8424650" lon="-8.5826010">
        <ele>222.8</ele>
        <time>2022-06-19T10:21:15Z</time>
      </trkpt>
      <trkpt lat="42.8424810" lon="-8.5825860">
        <ele>223.2</ele>
        <time>2022-06-19T10:21:16Z</time>
      </trkpt>
      <trkpt lat="42.8424960" lon="-8.5825710">
        <ele>223.6</ele>
        <time>2022-06-19T10:21:17Z</time>
      </trkpt>
      <trkpt lat="42.8425100" lon="-8.5825550">
        <ele>223.6</ele>
        <time>2022-06-19T10:21:18Z</time>
      </trkpt>
      <trkpt lat="42.8425230" lon="-8.5825400">
        <ele>223.6</ele>
        <time>2022-06-19T10:21:19Z</time>
      </trkpt>
      <trkpt lat="42.8425360" lon="-8.5825260">
        <ele>224.4</ele>
        <time>2022-06-19T10:21:20Z</time>
      </trkpt>
      <trkpt lat="42.8425510" lon="-8.5825110">
        <ele>224.4</ele>
        <time>2022-06-19T10:21:21Z</time>
      </trkpt>
      <trkpt lat="42.8425680" lon="-8.5825000">
        <ele>224.4</ele>
        <time>2022-06-19T10:21:22Z</time>
      </trkpt>
      <trkpt lat="42.8425850" lon="-8.5824860">
        <ele>224.4</ele>
        <time>2022-06-19T10:21:23Z</time>
      </trkpt>
      <trkpt lat="42.8426000" lon="-8.5824730">
        <ele>224.4</ele>
        <time>2022-06-19T10:21:24Z</time>
      </trkpt>
      <trkpt lat="42.8426150" lon="-8.5824600">
        <ele>224.8</ele>
        <time>2022-06-19T10:21:25Z</time>
      </trkpt>
      <trkpt lat="42.8426310" lon="-8.5824480">
        <ele>224.8</ele>
        <time>2022-06-19T10:21:26Z</time>
      </trkpt>
      <trkpt lat="42.8426460" lon="-8.5824380">
        <ele>224.8</ele>
        <time>2022-06-19T10:21:27Z</time>
      </trkpt>
      <trkpt lat="42.8426610" lon="-8.5824250">
        <ele>225.2</ele>
        <time>2022-06-19T10:21:28Z</time>
      </trkpt>
      <trkpt lat="42.8426780" lon="-8.5824130">
        <ele>224.8</ele>
        <time>2022-06-19T10:21:29Z</time>
      </trkpt>
      <trkpt lat="42.8426910" lon="-8.5824000">
        <ele>224.8</ele>
        <time>2022-06-19T10:21:30Z</time>
      </trkpt>
      <trkpt lat="42.8427080" lon="-8.5823860">
        <ele>224.8</ele>
        <time>2022-06-19T10:21:31Z</time>
      </trkpt>
      <trkpt lat="42.8427230" lon="-8.5823750">
        <ele>225.6</ele>
        <time>2022-06-19T10:21:32Z</time>
      </trkpt>
      <trkpt lat="42.8427360" lon="-8.5823610">
        <ele>226.0</ele>
        <time>2022-06-19T10:21:33Z</time>
      </trkpt>
      <trkpt lat="42.8427510" lon="-8.5823500">
        <ele>226.0</ele>
        <time>2022-06-19T10:21:34Z</time>
      </trkpt>
      <trkpt lat="42.8427680" lon="-8.5823400">
        <ele>226.0</ele>
        <time>2022-06-19T10:21:35Z</time>
      </trkpt>
      <trkpt lat="42.8427830" lon="-8.5823280">
        <ele>225.8</ele>
        <time>2022-06-19T10:21:36Z</time>
      </trkpt>
      <trkpt lat="42.8428000" lon="-8.5823180">
        <ele>226.6</ele>
        <time>2022-06-19T10:21:37Z</time>
      </trkpt>
      <trkpt lat="42.8428160" lon="-8.5823050">
        <ele>226.6</ele>
        <time>2022-06-19T10:21:38Z</time>
      </trkpt>
      <trkpt lat="42.8428330" lon="-8.5822900">
        <ele>226.6</ele>
        <time>2022-06-19T10:21:39Z</time>
      </trkpt>
      <trkpt lat="42.8428500" lon="-8.5822750">
        <ele>226.6</ele>
        <time>2022-06-19T10:21:40Z</time>
      </trkpt>
      <trkpt lat="42.8428630" lon="-8.5822580">
        <ele>226.6</ele>
        <time>2022-06-19T10:21:41Z</time>
      </trkpt>
      <trkpt lat="42.8428800" lon="-8.5822410">
        <ele>226.6</ele>
        <time>2022-06-19T10:21:42Z</time>
      </trkpt>
      <trkpt lat="42.8428950" lon="-8.5822260">
        <ele>226.6</ele>
        <time>2022-06-19T10:21:43Z</time>
      </trkpt>
      <trkpt lat="42.8429110" lon="-8.5822130">
        <ele>227.0</ele>
        <time>2022-06-19T10:21:44Z</time>
      </trkpt>
      <trkpt lat="42.8429280" lon="-8.5822000">
        <ele>227.2</ele>
        <time>2022-06-19T10:21:45Z</time>
      </trkpt>
      <trkpt lat="42.8429430" lon="-8.5821860">
        <ele>227.2</ele>
        <time>2022-06-19T10:21:46Z</time>
      </trkpt>
      <trkpt lat="42.8429580" lon="-8.5821710">
        <ele>227.2</ele>
        <time>2022-06-19T10:21:47Z</time>
      </trkpt>
      <trkpt lat="42.8429730" lon="-8.5821550">
        <ele>227.2</ele>
        <time>2022-06-19T10:21:48Z</time>
      </trkpt>
      <trkpt lat="42.8429860" lon="-8.5821380">
        <ele>228.2</ele>
        <time>2022-06-19T10:21:49Z</time>
      </trkpt>
      <trkpt lat="42.8430010" lon="-8.5821230">
        <ele>228.2</ele>
        <time>2022-06-19T10:21:50Z</time>
      </trkpt>
      <trkpt lat="42.8430180" lon="-8.5821110">
        <ele>228.2</ele>
        <time>2022-06-19T10:21:51Z</time>
      </trkpt>
      <trkpt lat="42.8430310" lon="-8.5821010">
        <ele>228.6</ele>
        <time>2022-06-19T10:21:52Z</time>
      </trkpt>
      <trkpt lat="42.8430460" lon="-8.5820900">
        <ele>228.8</ele>
        <time>2022-06-19T10:21:53Z</time>
      </trkpt>
      <trkpt lat="42.8430610" lon="-8.5820760">
        <ele>228.8</ele>
        <time>2022-06-19T10:21:54Z</time>
      </trkpt>
      <trkpt lat="42.8430760" lon="-8.5820650">
        <ele>228.8</ele>
        <time>2022-06-19T10:21:55Z</time>
      </trkpt>
      <trkpt lat="42.8430930" lon="-8.5820530">
        <ele>229.2</ele>
        <time>2022-06-19T10:21:56Z</time>
      </trkpt>
      <trkpt lat="42.8431060" lon="-8.5820400">
        <ele>229.4</ele>
        <time>2022-06-19T10:21:57Z</time>
      </trkpt>
      <trkpt lat="42.8431200" lon="-8.5820250">
        <ele>229.4</ele>
        <time>2022-06-19T10:21:58Z</time>
      </trkpt>
      <trkpt lat="42.8431330" lon="-8.5820130">
        <ele>229.4</ele>
        <time>2022-06-19T10:21:59Z</time>
      </trkpt>
      <trkpt lat="42.8431450" lon="-8.5819980">
        <ele>229.8</ele>
        <time>2022-06-19T10:22:00Z</time>
      </trkpt>
      <trkpt lat="42.8431600" lon="-8.5819850">
        <ele>230.0</ele>
        <time>2022-06-19T10:22:01Z</time>
      </trkpt>
      <trkpt lat="42.8431760" lon="-8.5819760">
        <ele>230.0</ele>
        <time>2022-06-19T10:22:02Z</time>
      </trkpt>
      <trkpt lat="42.8431960" lon="-8.5819700">
        <ele>230.0</ele>
        <time>2022-06-19T10:22:03Z</time>
      </trkpt>
      <trkpt lat="42.8432210" lon="-8.5819550">
        <ele>230.0</ele>
        <time>2022-06-19T10:22:04Z</time>
      </trkpt>
      <trkpt lat="42.8432450" lon="-8.5819330">
        <ele>231.0</ele>
        <time>2022-06-19T10:22:05Z</time>
      </trkpt>
      <trkpt lat="42.8432650" lon="-8.5819130">
        <ele>231.0</ele>
        <time>2022-06-19T10:22:06Z</time>
      </trkpt>
      <trkpt lat="42.8432800" lon="-8.5818960">
        <ele>231.0</ele>
        <time>2022-06-19T10:22:07Z</time>
      </trkpt>
      <trkpt lat="42.8432930" lon="-8.5818810">
        <ele>231.2</ele>
        <time>2022-06-19T10:22:08Z</time>
      </trkpt>
      <trkpt lat="42.8433060" lon="-8.5818660">
        <ele>231.4</ele>
        <time>2022-06-19T10:22:09Z</time>
      </trkpt>
      <trkpt lat="42.8433200" lon="-8.5818500">
        <ele>231.4</ele>
        <time>2022-06-19T10:22:10Z</time>
      </trkpt>
      <trkpt lat="42.8433310" lon="-8.5818310">
        <ele>231.4</ele>
        <time>2022-06-19T10:22:11Z</time>
      </trkpt>
      <trkpt lat="42.8433430" lon="-8.5818110">
        <ele>231.8</ele>
        <time>2022-06-19T10:22:12Z</time>
      </trkpt>
      <trkpt lat="42.8433550" lon="-8.5817910">
        <ele>231.6</ele>
        <time>2022-06-19T10:22:13Z</time>
      </trkpt>
      <trkpt lat="42.8433680" lon="-8.5817730">
        <ele>231.6</ele>
        <time>2022-06-19T10:22:14Z</time>
      </trkpt>
      <trkpt lat="42.8433830" lon="-8.5817530">
        <ele>231.6</ele>
        <time>2022-06-19T10:22:15Z</time>
      </trkpt>
      <trkpt lat="42.8433960" lon="-8.5817330">
        <ele>231.6</ele>
        <time>2022-06-19T10:22:16Z</time>
      </trkpt>
      <trkpt lat="42.8434110" lon="-8.5817160">
        <ele>231.2</ele>
        <time>2022-06-19T10:22:17Z</time>
      </trkpt>
      <trkpt lat="42.8434280" lon="-8.5817000">
        <ele>231.2</ele>
        <time>2022-06-19T10:22:18Z</time>
      </trkpt>
      <trkpt lat="42.8434430" lon="-8.5816830">
        <ele>231.2</ele>
        <time>2022-06-19T10:22:19Z</time>
      </trkpt>
      <trkpt lat="42.8434580" lon="-8.5816680">
        <ele>231.2</ele>
        <time>2022-06-19T10:22:20Z</time>
      </trkpt>
      <trkpt lat="42.8434680" lon="-8.5816510">
        <ele>231.8</ele>
        <time>2022-06-19T10:22:21Z</time>
      </trkpt>
      <trkpt lat="42.8434780" lon="-8.5816300">
        <ele>231.8</ele>
        <time>2022-06-19T10:22:22Z</time>
      </trkpt>
      <trkpt lat="42.8434830" lon="-8.5816060">
        <ele>231.8</ele>
        <time>2022-06-19T10:22:23Z</time>
      </trkpt>
      <trkpt lat="42.8434860" lon="-8.5815830">
        <ele>231.8</ele>
        <time>2022-06-19T10:22:24Z</time>
      </trkpt>
      <trkpt lat="42.8434930" lon="-8.5815610">
        <ele>233.4</ele>
        <time>2022-06-19T10:22:25Z</time>
      </trkpt>
      <trkpt lat="42.8435030" lon="-8.5815410">
        <ele>233.4</ele>
        <time>2022-06-19T10:22:26Z</time>
      </trkpt>
      <trkpt lat="42.8435130" lon="-8.5815200">
        <ele>233.4</ele>
        <time>2022-06-19T10:22:27Z</time>
      </trkpt>
      <trkpt lat="42.8435230" lon="-8.5815010">
        <ele>233.4</ele>
        <time>2022-06-19T10:22:28Z</time>
      </trkpt>
      <trkpt lat="42.8435350" lon="-8.5814880">
        <ele>234.2</ele>
        <time>2022-06-19T10:22:29Z</time>
      </trkpt>
      <trkpt lat="42.8435480" lon="-8.5814730">
        <ele>234.2</ele>
        <time>2022-06-19T10:22:30Z</time>
      </trkpt>
      <trkpt lat="42.8435610" lon="-8.5814600">
        <ele>234.2</ele>
        <time>2022-06-19T10:22:31Z</time>
      </trkpt>
      <trkpt lat="42.8435750" lon="-8.5814460">
        <ele>234.2</ele>
        <time>2022-06-19T10:22:32Z</time>
      </trkpt>
      <trkpt lat="42.8435900" lon="-8.5814350">
        <ele>233.4</ele>
        <time>2022-06-19T10:22:33Z</time>
      </trkpt>
      <trkpt lat="42.8436030" lon="-8.5814230">
        <ele>233.4</ele>
        <time>2022-06-19T10:22:34Z</time>
      </trkpt>
      <trkpt lat="42.8436160" lon="-8.5814110">
        <ele>233.4</ele>
        <time>2022-06-19T10:22:35Z</time>
      </trkpt>
      <trkpt lat="42.8436310" lon="-8.5813980">
        <ele>233.4</ele>
        <time>2022-06-19T10:22:36Z</time>
      </trkpt>
      <trkpt lat="42.8436460" lon="-8.5813880">
        <ele>233.6</ele>
        <time>2022-06-19T10:22:37Z</time>
      </trkpt>
      <trkpt lat="42.8436630" lon="-8.5813780">
        <ele>233.6</ele>
        <time>2022-06-19T10:22:38Z</time>
      </trkpt>
      <trkpt lat="42.8436760" lon="-8.5813700">
        <ele>233.6</ele>
        <time>2022-06-19T10:22:39Z</time>
      </trkpt>
      <trkpt lat="42.8436910" lon="-8.5813580">
        <ele>234.6</ele>
        <time>2022-06-19T10:22:40Z</time>
      </trkpt>
      <trkpt lat="42.8437080" lon="-8.5813480">
        <ele>234.4</ele>
        <time>2022-06-19T10:22:41Z</time>
      </trkpt>
      <trkpt lat="42.8437250" lon="-8.5813410">
        <ele>234.4</ele>
        <time>2022-06-19T10:22:42Z</time>
      </trkpt>
      <trkpt lat="42.8437430" lon="-8.5813300">
        <ele>234.4</ele>
        <time>2022-06-19T10:22:43Z</time>
      </trkpt>
      <trkpt lat="42.8437600" lon="-8.5813180">
        <ele>234.4</ele>
        <time>2022-06-19T10:22:44Z</time>
      </trkpt>
      <trkpt lat="42.8437760" lon="-8.5813100">
        <ele>234.2</ele>
        <time>2022-06-19T10:22:45Z</time>
      </trkpt>
      <trkpt lat="42.8437930" lon="-8.5813030">
        <ele>234.2</ele>
        <time>2022-06-19T10:22:46Z</time>
      </trkpt>
      <trkpt lat="42.8438150" lon="-8.5812930">
        <ele>234.2</ele>
        <time>2022-06-19T10:22:47Z</time>
      </trkpt>
      <trkpt lat="42.8438350" lon="-8.5812830">
        <ele>234.2</ele>
        <time>2022-06-19T10:22:48Z</time>
      </trkpt>
      <trkpt lat="42.8438560" lon="-8.5812710">
        <ele>234.0</ele>
        <time>2022-06-19T10:22:49Z</time>
      </trkpt>
      <trkpt lat="42.8438750" lon="-8.5812610">
        <ele>234.0</ele>
        <time>2022-06-19T10:22:50Z</time>
      </trkpt>
      <trkpt lat="42.8438960" lon="-8.5812480">
        <ele>234.0</ele>
        <time>2022-06-19T10:22:51Z</time>
      </trkpt>
      <trkpt lat="42.8439180" lon="-8.5812330">
        <ele>235.0</ele>
        <time>2022-06-19T10:22:52Z</time>
      </trkpt>
      <trkpt lat="42.8439400" lon="-8.5812180">
        <ele>235.6</ele>
        <time>2022-06-19T10:22:53Z</time>
      </trkpt>
      <trkpt lat="42.8439610" lon="-8.5812000">
        <ele>235.6</ele>
        <time>2022-06-19T10:22:54Z</time>
      </trkpt>
      <trkpt lat="42.8439830" lon="-8.5811850">
        <ele>235.6</ele>
        <time>2022-06-19T10:22:55Z</time>
      </trkpt>
      <trkpt lat="42.8440060" lon="-8.5811660">
        <ele>236.4</ele>
        <time>2022-06-19T10:22:56Z</time>
      </trkpt>
      <trkpt lat="42.8440300" lon="-8.5811530">
        <ele>236.2</ele>
        <time>2022-06-19T10:22:57Z</time>
      </trkpt>
      <trkpt lat="42.8440530" lon="-8.5811410">
        <ele>236.2</ele>
        <time>2022-06-19T10:22:58Z</time>
      </trkpt>
      <trkpt lat="42.8440750" lon="-8.5811280">
        <ele>236.2</ele>
        <time>2022-06-19T10:22:59Z</time>
      </trkpt>
      <trkpt lat="42.8440960" lon="-8.5811150">
        <ele>236.4</ele>
        <time>2022-06-19T10:23:00Z</time>
      </trkpt>
      <trkpt lat="42.8441200" lon="-8.5811010">
        <ele>236.4</ele>
        <time>2022-06-19T10:23:01Z</time>
      </trkpt>
      <trkpt lat="42.8441410" lon="-8.5810900">
        <ele>236.4</ele>
        <time>2022-06-19T10:23:02Z</time>
      </trkpt>
      <trkpt lat="42.8441630" lon="-8.5810760">
        <ele>236.4</ele>
        <time>2022-06-19T10:23:03Z</time>
      </trkpt>
      <trkpt lat="42.8441830" lon="-8.5810650">
        <ele>236.4</ele>
        <time>2022-06-19T10:23:04Z</time>
      </trkpt>
      <trkpt lat="42.8442050" lon="-8.5810530">
        <ele>235.8</ele>
        <time>2022-06-19T10:23:05Z</time>
      </trkpt>
      <trkpt lat="42.8442280" lon="-8.5810380">
        <ele>235.8</ele>
        <time>2022-06-19T10:23:06Z</time>
      </trkpt>
      <trkpt lat="42.8442480" lon="-8.5810250">
        <ele>235.8</ele>
        <time>2022-06-19T10:23:07Z</time>
      </trkpt>
      <trkpt lat="42.8442700" lon="-8.5810100">
        <ele>235.8</ele>
        <time>2022-06-19T10:23:08Z</time>
      </trkpt>
      <trkpt lat="42.8442910" lon="-8.5809950">
        <ele>235.6</ele>
        <time>2022-06-19T10:23:09Z</time>
      </trkpt>
      <trkpt lat="42.8443110" lon="-8.5809830">
        <ele>235.6</ele>
        <time>2022-06-19T10:23:10Z</time>
      </trkpt>
      <trkpt lat="42.8443310" lon="-8.5809700">
        <ele>235.6</ele>
        <time>2022-06-19T10:23:11Z</time>
      </trkpt>
      <trkpt lat="42.8443530" lon="-8.5809550">
        <ele>236.4</ele>
        <time>2022-06-19T10:23:12Z</time>
      </trkpt>
      <trkpt lat="42.8443730" lon="-8.5809400">
        <ele>236.6</ele>
        <time>2022-06-19T10:23:13Z</time>
      </trkpt>
      <trkpt lat="42.8443950" lon="-8.5809250">
        <ele>236.6</ele>
        <time>2022-06-19T10:23:14Z</time>
      </trkpt>
      <trkpt lat="42.8444150" lon="-8.5809050">
        <ele>236.6</ele>
        <time>2022-06-19T10:23:15Z</time>
      </trkpt>
      <trkpt lat="42.8444330" lon="-8.5808830">
        <ele>236.6</ele>
        <time>2022-06-19T10:23:16Z</time>
      </trkpt>
      <trkpt lat="42.8444530" lon="-8.5808610">
        <ele>237.2</ele>
        <time>2022-06-19T10:23:17Z</time>
      </trkpt>
      <trkpt lat="42.8444730" lon="-8.5808450">
        <ele>237.2</ele>
        <time>2022-06-19T10:23:18Z</time>
      </trkpt>
      <trkpt lat="42.8444930" lon="-8.5808280">
        <ele>237.2</ele>
        <time>2022-06-19T10:23:19Z</time>
      </trkpt>
      <trkpt lat="42.8445130" lon="-8.5808130">
        <ele>237.2</ele>
        <time>2022-06-19T10:23:20Z</time>
      </trkpt>
      <trkpt lat="42.8445300" lon="-8.5808000">
        <ele>237.6</ele>
        <time>2022-06-19T10:23:21Z</time>
      </trkpt>
      <trkpt lat="42.8445500" lon="-8.5807900">
        <ele>237.6</ele>
        <time>2022-06-19T10:23:22Z</time>
      </trkpt>
      <trkpt lat="42.8445680" lon="-8.5807750">
        <ele>237.6</ele>
        <time>2022-06-19T10:23:23Z</time>
      </trkpt>
      <trkpt lat="42.8445850" lon="-8.5807630">
        <ele>237.6</ele>
        <time>2022-06-19T10:23:24Z</time>
      </trkpt>
      <trkpt lat="42.8446010" lon="-8.5807530">
        <ele>238.0</ele>
        <time>2022-06-19T10:23:25Z</time>
      </trkpt>
      <trkpt lat="42.8446150" lon="-8.5807360">
        <ele>238.0</ele>
        <time>2022-06-19T10:23:26Z</time>
      </trkpt>
      <trkpt lat="42.8446330" lon="-8.5807250">
        <ele>238.0</ele>
        <time>2022-06-19T10:23:27Z</time>
      </trkpt>
      <trkpt lat="42.8446510" lon="-8.5807130">
        <ele>237.2</ele>
        <time>2022-06-19T10:23:28Z</time>
      </trkpt>
      <trkpt lat="42.8446700" lon="-8.5807050">
        <ele>237.8</ele>
        <time>2022-06-19T10:23:29Z</time>
      </trkpt>
      <trkpt lat="42.8446900" lon="-8.5806980">
        <ele>237.8</ele>
        <time>2022-06-19T10:23:30Z</time>
      </trkpt>
      <trkpt lat="42.8447050" lon="-8.5806960">
        <ele>237.8</ele>
        <time>2022-06-19T10:23:31Z</time>
      </trkpt>
      <trkpt lat="42.8447160" lon="-8.5806950">
        <ele>237.2</ele>
        <time>2022-06-19T10:23:32Z</time>
      </trkpt>
      <trkpt lat="42.8447310" lon="-8.5806830">
        <ele>237.6</ele>
        <time>2022-06-19T10:23:33Z</time>
      </trkpt>
      <trkpt lat="42.8447450" lon="-8.5806730">
        <ele>237.6</ele>
        <time>2022-06-19T10:23:34Z</time>
      </trkpt>
      <trkpt lat="42.8447610" lon="-8.5806680">
        <ele>237.6</ele>
        <time>2022-06-19T10:23:35Z</time>
      </trkpt>
      <trkpt lat="42.8447780" lon="-8.5806600">
        <ele>237.4</ele>
        <time>2022-06-19T10:23:36Z</time>
      </trkpt>
      <trkpt lat="42.8447910" lon="-8.5806500">
        <ele>237.0</ele>
        <time>2022-06-19T10:23:37Z</time>
      </trkpt>
      <trkpt lat="42.8448030" lon="-8.5806400">
        <ele>237.0</ele>
        <time>2022-06-19T10:23:38Z</time>
      </trkpt>
      <trkpt lat="42.8448180" lon="-8.5806250">
        <ele>237.0</ele>
        <time>2022-06-19T10:23:39Z</time>
      </trkpt>
      <trkpt lat="42.8448350" lon="-8.5806080">
        <ele>237.0</ele>
        <time>2022-06-19T10:23:40Z</time>
      </trkpt>
      <trkpt lat="42.8448550" lon="-8.5805950">
        <ele>237.8</ele>
        <time>2022-06-19T10:23:41Z</time>
      </trkpt>
      <trkpt lat="42.8448750" lon="-8.5805810">
        <ele>237.8</ele>
        <time>2022-06-19T10:23:42Z</time>
      </trkpt>
      <trkpt lat="42.8448930" lon="-8.5805700">
        <ele>237.8</ele>
        <time>2022-06-19T10:23:43Z</time>
      </trkpt>
      <trkpt lat="42.8449060" lon="-8.5805610">
        <ele>237.8</ele>
        <time>2022-06-19T10:23:44Z</time>
      </trkpt>
      <trkpt lat="42.8449230" lon="-8.5805510">
        <ele>237.4</ele>
        <time>2022-06-19T10:23:45Z</time>
      </trkpt>
      <trkpt lat="42.8449360" lon="-8.5805460">
        <ele>237.4</ele>
        <time>2022-06-19T10:23:46Z</time>
      </trkpt>
      <trkpt lat="42.8449480" lon="-8.5805410">
        <ele>237.4</ele>
        <time>2022-06-19T10:23:47Z</time>
      </trkpt>
      <trkpt lat="42.8449580" lon="-8.5805360">
        <ele>237.4</ele>
        <time>2022-06-19T10:23:48Z</time>
      </trkpt>
      <trkpt lat="42.8449710" lon="-8.5805330">
        <ele>237.4</ele>
        <time>2022-06-19T10:23:49Z</time>
      </trkpt>
      <trkpt lat="42.8449880" lon="-8.5805260">
        <ele>237.4</ele>
        <time>2022-06-19T10:23:50Z</time>
      </trkpt>
      <trkpt lat="42.8450030" lon="-8.5805210">
        <ele>237.4</ele>
        <time>2022-06-19T10:23:51Z</time>
      </trkpt>
      <trkpt lat="42.8450200" lon="-8.5805130">
        <ele>236.4</ele>
        <time>2022-06-19T10:23:52Z</time>
      </trkpt>
      <trkpt lat="42.8450380" lon="-8.5805050">
        <ele>235.8</ele>
        <time>2022-06-19T10:23:53Z</time>
      </trkpt>
      <trkpt lat="42.8450550" lon="-8.5805000">
        <ele>235.8</ele>
        <time>2022-06-19T10:23:54Z</time>
      </trkpt>
      <trkpt lat="42.8450710" lon="-8.5804960">
        <ele>235.8</ele>
        <time>2022-06-19T10:23:55Z</time>
      </trkpt>
      <trkpt lat="42.8450910" lon="-8.5804930">
        <ele>235.8</ele>
        <time>2022-06-19T10:23:56Z</time>
      </trkpt>
      <trkpt lat="42.8451110" lon="-8.5804930">
        <ele>236.2</ele>
        <time>2022-06-19T10:23:57Z</time>
      </trkpt>
      <trkpt lat="42.8451310" lon="-8.5804960">
        <ele>236.2</ele>
        <time>2022-06-19T10:23:58Z</time>
      </trkpt>
      <trkpt lat="42.8451530" lon="-8.5804930">
        <ele>236.2</ele>
        <time>2022-06-19T10:23:59Z</time>
      </trkpt>
      <trkpt lat="42.8451760" lon="-8.5804900">
        <ele>237.2</ele>
        <time>2022-06-19T10:24:00Z</time>
      </trkpt>
      <trkpt lat="42.8451980" lon="-8.5804860">
        <ele>237.0</ele>
        <time>2022-06-19T10:24:01Z</time>
      </trkpt>
      <trkpt lat="42.8452180" lon="-8.5804810">
        <ele>237.0</ele>
        <time>2022-06-19T10:24:02Z</time>
      </trkpt>
      <trkpt lat="42.8452360" lon="-8.5804760">
        <ele>237.0</ele>
        <time>2022-06-19T10:24:03Z</time>
      </trkpt>
      <trkpt lat="42.8452550" lon="-8.5804710">
        <ele>238.0</ele>
        <time>2022-06-19T10:24:04Z</time>
      </trkpt>
      <trkpt lat="42.8452710" lon="-8.5804660">
        <ele>239.0</ele>
        <time>2022-06-19T10:24:05Z</time>
      </trkpt>
      <trkpt lat="42.8452850" lon="-8.5804600">
        <ele>239.0</ele>
        <time>2022-06-19T10:24:06Z</time>
      </trkpt>
      <trkpt lat="42.8452950" lon="-8.5804550">
        <ele>239.0</ele>
        <time>2022-06-19T10:24:07Z</time>
      </trkpt>
      <trkpt lat="42.8453050" lon="-8.5804530">
        <ele>238.0</ele>
        <time>2022-06-19T10:24:08Z</time>
      </trkpt>
      <trkpt lat="42.8453150" lon="-8.5804500">
        <ele>237.4</ele>
        <time>2022-06-19T10:24:09Z</time>
      </trkpt>
      <trkpt lat="42.8453260" lon="-8.5804450">
        <ele>237.4</ele>
        <time>2022-06-19T10:24:10Z</time>
      </trkpt>
      <trkpt lat="42.8453360" lon="-8.5804380">
        <ele>237.4</ele>
        <time>2022-06-19T10:24:11Z</time>
      </trkpt>
      <trkpt lat="42.8453450" lon="-8.5804330">
        <ele>237.8</ele>
        <time>2022-06-19T10:24:12Z</time>
      </trkpt>
      <trkpt lat="42.8453560" lon="-8.5804330">
        <ele>237.8</ele>
        <time>2022-06-19T10:24:13Z</time>
      </trkpt>
      <trkpt lat="42.8453700" lon="-8.5804300">
        <ele>237.8</ele>
        <time>2022-06-19T10:24:14Z</time>
      </trkpt>
      <trkpt lat="42.8453830" lon="-8.5804210">
        <ele>237.8</ele>
        <time>2022-06-19T10:24:15Z</time>
      </trkpt>
      <trkpt lat="42.8453930" lon="-8.5804160">
        <ele>237.8</ele>
        <time>2022-06-19T10:24:16Z</time>
      </trkpt>
      <trkpt lat="42.8454050" lon="-8.5804210">
        <ele>238.0</ele>
        <time>2022-06-19T10:24:17Z</time>
      </trkpt>
      <trkpt lat="42.8454110" lon="-8.5804330">
        <ele>238.0</ele>
        <time>2022-06-19T10:24:18Z</time>
      </trkpt>
      <trkpt lat="42.8454110" lon="-8.5804480">
        <ele>238.0</ele>
        <time>2022-06-19T10:24:19Z</time>
      </trkpt>
      <trkpt lat="42.8454050" lon="-8.5804610">
        <ele>238.0</ele>
        <time>2022-06-19T10:24:20Z</time>
      </trkpt>
      <trkpt lat="42.8453960" lon="-8.5804610">
        <ele>238.2</ele>
        <time>2022-06-19T10:24:21Z</time>
      </trkpt>
      <trkpt lat="42.8453900" lon="-8.5804480">
        <ele>238.2</ele>
        <time>2022-06-19T10:24:22Z</time>
      </trkpt>
      <trkpt lat="42.8453850" lon="-8.5804280">
        <ele>238.2</ele>
        <time>2022-06-19T10:24:23Z</time>
      </trkpt>
      <trkpt lat="42.8453930" lon="-8.5804150">
        <ele>237.2</ele>
        <time>2022-06-19T10:24:24Z</time>
      </trkpt>
      <trkpt lat="42.8454010" lon="-8.5804100">
        <ele>236.8</ele>
        <time>2022-06-19T10:24:25Z</time>
      </trkpt>
      <trkpt lat="42.8454060" lon="-8.5804100">
        <ele>236.8</ele>
        <time>2022-06-19T10:24:26Z</time>
      </trkpt>
      <trkpt lat="42.8454060" lon="-8.5804100">
        <ele>236.8</ele>
        <time>2022-06-19T10:24:27Z</time>
      </trkpt>
      <trkpt lat="42.8454480" lon="-8.5804060">
        <ele>237.6</ele>
        <time>2022-06-19T10:24:37Z</time>
      </trkpt>
      <trkpt lat="42.8454660" lon="-8.5804100">
        <ele>237.6</ele>
        <time>2022-06-19T10:24:38Z</time>
      </trkpt>
      <trkpt lat="42.8454860" lon="-8.5804130">
        <ele>237.6</ele>
        <time>2022-06-19T10:24:39Z</time>
      </trkpt>
      <trkpt lat="42.8455100" lon="-8.5804180">
        <ele>237.6</ele>
        <time>2022-06-19T10:24:40Z</time>
      </trkpt>
      <trkpt lat="42.8455310" lon="-8.5804210">
        <ele>237.0</ele>
        <time>2022-06-19T10:24:41Z</time>
      </trkpt>
      <trkpt lat="42.8455580" lon="-8.5804210">
        <ele>237.0</ele>
        <time>2022-06-19T10:24:42Z</time>
      </trkpt>
      <trkpt lat="42.8455830" lon="-8.5804210">
        <ele>237.0</ele>
        <time>2022-06-19T10:24:43Z</time>
      </trkpt>
      <trkpt lat="42.8456080" lon="-8.5804230">
        <ele>237.0</ele>
        <time>2022-06-19T10:24:44Z</time>
      </trkpt>
      <trkpt lat="42.8456350" lon="-8.5804250">
        <ele>237.6</ele>
        <time>2022-06-19T10:24:45Z</time>
      </trkpt>
      <trkpt lat="42.8456610" lon="-8.5804250">
        <ele>237.6</ele>
        <time>2022-06-19T10:24:46Z</time>
      </trkpt>
      <trkpt lat="42.8456900" lon="-8.5804230">
        <ele>237.6</ele>
        <time>2022-06-19T10:24:47Z</time>
      </trkpt>
      <trkpt lat="42.8457180" lon="-8.5804180">
        <ele>236.8</ele>
        <time>2022-06-19T10:24:48Z</time>
      </trkpt>
      <trkpt lat="42.8457430" lon="-8.5804150">
        <ele>235.4</ele>
        <time>2022-06-19T10:24:49Z</time>
      </trkpt>
      <trkpt lat="42.8457680" lon="-8.5804150">
        <ele>235.4</ele>
        <time>2022-06-19T10:24:50Z</time>
      </trkpt>
      <trkpt lat="42.8457960" lon="-8.5804130">
        <ele>235.4</ele>
        <time>2022-06-19T10:24:51Z</time>
      </trkpt>
      <trkpt lat="42.8458230" lon="-8.5804100">
        <ele>235.4</ele>
        <time>2022-06-19T10:24:52Z</time>
      </trkpt>
      <trkpt lat="42.8458500" lon="-8.5804110">
        <ele>235.2</ele>
        <time>2022-06-19T10:24:53Z</time>
      </trkpt>
      <trkpt lat="42.8458760" lon="-8.5804180">
        <ele>235.2</ele>
        <time>2022-06-19T10:24:54Z</time>
      </trkpt>
      <trkpt lat="42.8459060" lon="-8.5804200">
        <ele>235.2</ele>
        <time>2022-06-19T10:24:55Z</time>
      </trkpt>
      <trkpt lat="42.8459330" lon="-8.5804200">
        <ele>234.2</ele>
        <time>2022-06-19T10:24:56Z</time>
      </trkpt>
      <trkpt lat="42.8459600" lon="-8.5804160">
        <ele>234.4</ele>
        <time>2022-06-19T10:24:57Z</time>
      </trkpt>
      <trkpt lat="42.8459860" lon="-8.5804160">
        <ele>234.4</ele>
        <time>2022-06-19T10:24:58Z</time>
      </trkpt>
      <trkpt lat="42.8460130" lon="-8.5804200">
        <ele>234.4</ele>
        <time>2022-06-19T10:24:59Z</time>
      </trkpt>
      <trkpt lat="42.8460430" lon="-8.5804210">
        <ele>234.4</ele>
        <time>2022-06-19T10:25:00Z</time>
      </trkpt>
      <trkpt lat="42.8460710" lon="-8.5804230">
        <ele>233.8</ele>
        <time>2022-06-19T10:25:01Z</time>
      </trkpt>
      <trkpt lat="42.8461010" lon="-8.5804230">
        <ele>233.8</ele>
        <time>2022-06-19T10:25:02Z</time>
      </trkpt>
      <trkpt lat="42.8461280" lon="-8.5804230">
        <ele>233.8</ele>
        <time>2022-06-19T10:25:03Z</time>
      </trkpt>
      <trkpt lat="42.8461550" lon="-8.5804230">
        <ele>234.0</ele>
        <time>2022-06-19T10:25:04Z</time>
      </trkpt>
      <trkpt lat="42.8461810" lon="-8.5804210">
        <ele>234.2</ele>
        <time>2022-06-19T10:25:05Z</time>
      </trkpt>
      <trkpt lat="42.8462100" lon="-8.5804210">
        <ele>234.2</ele>
        <time>2022-06-19T10:25:06Z</time>
      </trkpt>
      <trkpt lat="42.8462410" lon="-8.5804180">
        <ele>234.2</ele>
        <time>2022-06-19T10:25:07Z</time>
      </trkpt>
      <trkpt lat="42.8462710" lon="-8.5804130">
        <ele>234.2</ele>
        <time>2022-06-19T10:25:08Z</time>
      </trkpt>
      <trkpt lat="42.8463030" lon="-8.5804110">
        <ele>234.2</ele>
        <time>2022-06-19T10:25:09Z</time>
      </trkpt>
      <trkpt lat="42.8463380" lon="-8.5804100">
        <ele>234.2</ele>
        <time>2022-06-19T10:25:10Z</time>
      </trkpt>
      <trkpt lat="42.8463700" lon="-8.5804060">
        <ele>234.2</ele>
        <time>2022-06-19T10:25:11Z</time>
      </trkpt>
      <trkpt lat="42.8464010" lon="-8.5804010">
        <ele>234.2</ele>
        <time>2022-06-19T10:25:12Z</time>
      </trkpt>
      <trkpt lat="42.8464350" lon="-8.5803980">
        <ele>233.6</ele>
        <time>2022-06-19T10:25:13Z</time>
      </trkpt>
      <trkpt lat="42.8464680" lon="-8.5803950">
        <ele>233.6</ele>
        <time>2022-06-19T10:25:14Z</time>
      </trkpt>
      <trkpt lat="42.8465030" lon="-8.5803900">
        <ele>233.6</ele>
        <time>2022-06-19T10:25:15Z</time>
      </trkpt>
      <trkpt lat="42.8465360" lon="-8.5803860">
        <ele>233.6</ele>
        <time>2022-06-19T10:25:16Z</time>
      </trkpt>
      <trkpt lat="42.8465700" lon="-8.5803830">
        <ele>233.6</ele>
        <time>2022-06-19T10:25:17Z</time>
      </trkpt>
      <trkpt lat="42.8466010" lon="-8.5803800">
        <ele>233.6</ele>
        <time>2022-06-19T10:25:18Z</time>
      </trkpt>
      <trkpt lat="42.8466360" lon="-8.5803750">
        <ele>233.6</ele>
        <time>2022-06-19T10:25:19Z</time>
      </trkpt>
      <trkpt lat="42.8466710" lon="-8.5803700">
        <ele>233.6</ele>
        <time>2022-06-19T10:25:20Z</time>
      </trkpt>
      <trkpt lat="42.8467050" lon="-8.5803660">
        <ele>233.0</ele>
        <time>2022-06-19T10:25:21Z</time>
      </trkpt>
      <trkpt lat="42.8467380" lon="-8.5803580">
        <ele>233.0</ele>
        <time>2022-06-19T10:25:22Z</time>
      </trkpt>
      <trkpt lat="42.8467700" lon="-8.5803510">
        <ele>233.0</ele>
        <time>2022-06-19T10:25:23Z</time>
      </trkpt>
      <trkpt lat="42.8468030" lon="-8.5803480">
        <ele>233.0</ele>
        <time>2022-06-19T10:25:24Z</time>
      </trkpt>
      <trkpt lat="42.8468380" lon="-8.5803450">
        <ele>232.8</ele>
        <time>2022-06-19T10:25:25Z</time>
      </trkpt>
      <trkpt lat="42.8468730" lon="-8.5803410">
        <ele>232.8</ele>
        <time>2022-06-19T10:25:26Z</time>
      </trkpt>
      <trkpt lat="42.8469030" lon="-8.5803400">
        <ele>232.8</ele>
        <time>2022-06-19T10:25:27Z</time>
      </trkpt>
      <trkpt lat="42.8469350" lon="-8.5803360">
        <ele>231.8</ele>
        <time>2022-06-19T10:25:28Z</time>
      </trkpt>
      <trkpt lat="42.8469650" lon="-8.5803260">
        <ele>230.4</ele>
        <time>2022-06-19T10:25:29Z</time>
      </trkpt>
      <trkpt lat="42.8469980" lon="-8.5803210">
        <ele>230.4</ele>
        <time>2022-06-19T10:25:30Z</time>
      </trkpt>
      <trkpt lat="42.8470310" lon="-8.5803150">
        <ele>230.4</ele>
        <time>2022-06-19T10:25:31Z</time>
      </trkpt>
      <trkpt lat="42.8470630" lon="-8.5803080">
        <ele>230.4</ele>
        <time>2022-06-19T10:25:32Z</time>
      </trkpt>
      <trkpt lat="42.8470960" lon="-8.5803060">
        <ele>232.2</ele>
        <time>2022-06-19T10:25:33Z</time>
      </trkpt>
      <trkpt lat="42.8471300" lon="-8.5803010">
        <ele>232.2</ele>
        <time>2022-06-19T10:25:34Z</time>
      </trkpt>
      <trkpt lat="42.8471600" lon="-8.5802980">
        <ele>232.2</ele>
        <time>2022-06-19T10:25:35Z</time>
      </trkpt>
      <trkpt lat="42.8471930" lon="-8.5802960">
        <ele>231.2</ele>
        <time>2022-06-19T10:25:36Z</time>
      </trkpt>
      <trkpt lat="42.8472210" lon="-8.5802960">
        <ele>229.0</ele>
        <time>2022-06-19T10:25:37Z</time>
      </trkpt>
      <trkpt lat="42.8472500" lon="-8.5802980">
        <ele>229.0</ele>
        <time>2022-06-19T10:25:38Z</time>
      </trkpt>
      <trkpt lat="42.8472800" lon="-8.5802960">
        <ele>229.0</ele>
        <time>2022-06-19T10:25:39Z</time>
      </trkpt>
      <trkpt lat="42.8473080" lon="-8.5802910">
        <ele>230.0</ele>
        <time>2022-06-19T10:25:40Z</time>
      </trkpt>
      <trkpt lat="42.8473400" lon="-8.5802830">
        <ele>230.2</ele>
        <time>2022-06-19T10:25:41Z</time>
      </trkpt>
      <trkpt lat="42.8473680" lon="-8.5802750">
        <ele>230.2</ele>
        <time>2022-06-19T10:25:42Z</time>
      </trkpt>
      <trkpt lat="42.8473980" lon="-8.5802650">
        <ele>230.2</ele>
        <time>2022-06-19T10:25:43Z</time>
      </trkpt>
      <trkpt lat="42.8474250" lon="-8.5802580">
        <ele>230.2</ele>
        <time>2022-06-19T10:25:44Z</time>
      </trkpt>
      <trkpt lat="42.8474460" lon="-8.5802510">
        <ele>232.2</ele>
        <time>2022-06-19T10:25:45Z</time>
      </trkpt>
      <trkpt lat="42.8474610" lon="-8.5802510">
        <ele>232.2</ele>
        <time>2022-06-19T10:25:46Z</time>
      </trkpt>
      <trkpt lat="42.8474850" lon="-8.5802480">
        <ele>232.2</ele>
        <time>2022-06-19T10:25:47Z</time>
      </trkpt>
      <trkpt lat="42.8475100" lon="-8.5802460">
        <ele>231.2</ele>
        <time>2022-06-19T10:25:48Z</time>
      </trkpt>
      <trkpt lat="42.8475330" lon="-8.5802500">
        <ele>231.0</ele>
        <time>2022-06-19T10:25:49Z</time>
      </trkpt>
      <trkpt lat="42.8475560" lon="-8.5802500">
        <ele>231.0</ele>
        <time>2022-06-19T10:25:50Z</time>
      </trkpt>
      <trkpt lat="42.8475800" lon="-8.5802500">
        <ele>231.0</ele>
        <time>2022-06-19T10:25:51Z</time>
      </trkpt>
      <trkpt lat="42.8476100" lon="-8.5802500">
        <ele>231.0</ele>
        <time>2022-06-19T10:25:52Z</time>
      </trkpt>
      <trkpt lat="42.8476430" lon="-8.5802500">
        <ele>231.4</ele>
        <time>2022-06-19T10:25:53Z</time>
      </trkpt>
      <trkpt lat="42.8476730" lon="-8.5802510">
        <ele>231.4</ele>
        <time>2022-06-19T10:25:54Z</time>
      </trkpt>
      <trkpt lat="42.8477050" lon="-8.5802480">
        <ele>231.4</ele>
        <time>2022-06-19T10:25:55Z</time>
      </trkpt>
      <trkpt lat="42.8477410" lon="-8.5802400">
        <ele>231.4</ele>
        <time>2022-06-19T10:25:56Z</time>
      </trkpt>
      <trkpt lat="42.8477750" lon="-8.5802350">
        <ele>230.0</ele>
        <time>2022-06-19T10:25:57Z</time>
      </trkpt>
      <trkpt lat="42.8478080" lon="-8.5802260">
        <ele>230.0</ele>
        <time>2022-06-19T10:25:58Z</time>
      </trkpt>
      <trkpt lat="42.8478310" lon="-8.5802250">
        <ele>230.0</ele>
        <time>2022-06-19T10:25:59Z</time>
      </trkpt>
      <trkpt lat="42.8478580" lon="-8.5802250">
        <ele>231.0</ele>
        <time>2022-06-19T10:26:00Z</time>
      </trkpt>
      <trkpt lat="42.8478860" lon="-8.5802260">
        <ele>232.8</ele>
        <time>2022-06-19T10:26:01Z</time>
      </trkpt>
      <trkpt lat="42.8479180" lon="-8.5802210">
        <ele>232.8</ele>
        <time>2022-06-19T10:26:02Z</time>
      </trkpt>
      <trkpt lat="42.8479530" lon="-8.5802130">
        <ele>232.8</ele>
        <time>2022-06-19T10:26:03Z</time>
      </trkpt>
      <trkpt lat="42.8479880" lon="-8.5802080">
        <ele>232.8</ele>
        <time>2022-06-19T10:26:04Z</time>
      </trkpt>
      <trkpt lat="42.8480210" lon="-8.5802080">
        <ele>231.8</ele>
        <time>2022-06-19T10:26:05Z</time>
      </trkpt>
      <trkpt lat="42.8480550" lon="-8.5802010">
        <ele>231.8</ele>
        <time>2022-06-19T10:26:06Z</time>
      </trkpt>
      <trkpt lat="42.8480880" lon="-8.5801960">
        <ele>231.8</ele>
        <time>2022-06-19T10:26:07Z</time>
      </trkpt>
      <trkpt lat="42.8481200" lon="-8.5801950">
        <ele>232.4</ele>
        <time>2022-06-19T10:26:08Z</time>
      </trkpt>
      <trkpt lat="42.8481530" lon="-8.5801900">
        <ele>232.2</ele>
        <time>2022-06-19T10:26:09Z</time>
      </trkpt>
      <trkpt lat="42.8481800" lon="-8.5801880">
        <ele>232.2</ele>
        <time>2022-06-19T10:26:10Z</time>
      </trkpt>
      <trkpt lat="42.8482060" lon="-8.5801850">
        <ele>232.2</ele>
        <time>2022-06-19T10:26:11Z</time>
      </trkpt>
      <trkpt lat="42.8482330" lon="-8.5801780">
        <ele>232.2</ele>
        <time>2022-06-19T10:26:12Z</time>
      </trkpt>
      <trkpt lat="42.8482630" lon="-8.5801680">
        <ele>233.0</ele>
        <time>2022-06-19T10:26:13Z</time>
      </trkpt>
      <trkpt lat="42.8482900" lon="-8.5801630">
        <ele>233.0</ele>
        <time>2022-06-19T10:26:14Z</time>
      </trkpt>
      <trkpt lat="42.8483180" lon="-8.5801480">
        <ele>233.0</ele>
        <time>2022-06-19T10:26:15Z</time>
      </trkpt>
      <trkpt lat="42.8483530" lon="-8.5801050">
        <ele>233.0</ele>
        <time>2022-06-19T10:26:16Z</time>
      </trkpt>
      <trkpt lat="42.8483750" lon="-8.5800750">
        <ele>233.4</ele>
        <time>2022-06-19T10:26:17Z</time>
      </trkpt>
      <trkpt lat="42.8483910" lon="-8.5800530">
        <ele>233.4</ele>
        <time>2022-06-19T10:26:18Z</time>
      </trkpt>
      <trkpt lat="42.8484060" lon="-8.5800260">
        <ele>233.4</ele>
        <time>2022-06-19T10:26:19Z</time>
      </trkpt>
      <trkpt lat="42.8484260" lon="-8.5800080">
        <ele>234.0</ele>
        <time>2022-06-19T10:26:20Z</time>
      </trkpt>
      <trkpt lat="42.8484500" lon="-8.5800010">
        <ele>233.8</ele>
        <time>2022-06-19T10:26:21Z</time>
      </trkpt>
      <trkpt lat="42.8484730" lon="-8.5800100">
        <ele>233.8</ele>
        <time>2022-06-19T10:26:22Z</time>
      </trkpt>
      <trkpt lat="42.8484930" lon="-8.5800280">
        <ele>233.8</ele>
        <time>2022-06-19T10:26:23Z</time>
      </trkpt>
      <trkpt lat="42.8485110" lon="-8.5800380">
        <ele>234.2</ele>
        <time>2022-06-19T10:26:24Z</time>
      </trkpt>
      <trkpt lat="42.8485300" lon="-8.5800450">
        <ele>234.6</ele>
        <time>2022-06-19T10:26:25Z</time>
      </trkpt>
      <trkpt lat="42.8485480" lon="-8.5800430">
        <ele>234.6</ele>
        <time>2022-06-19T10:26:26Z</time>
      </trkpt>
      <trkpt lat="42.8485610" lon="-8.5800310">
        <ele>234.6</ele>
        <time>2022-06-19T10:26:27Z</time>
      </trkpt>
      <trkpt lat="42.8485710" lon="-8.5800160">
        <ele>234.4</ele>
        <time>2022-06-19T10:26:28Z</time>
      </trkpt>
      <trkpt lat="42.8485780" lon="-8.5799930">
        <ele>234.0</ele>
        <time>2022-06-19T10:26:29Z</time>
      </trkpt>
      <trkpt lat="42.8485880" lon="-8.5799700">
        <ele>234.0</ele>
        <time>2022-06-19T10:26:30Z</time>
      </trkpt>
      <trkpt lat="42.8486080" lon="-8.5799500">
        <ele>234.0</ele>
        <time>2022-06-19T10:26:31Z</time>
      </trkpt>
      <trkpt lat="42.8486300" lon="-8.5799200">
        <ele>233.0</ele>
        <time>2022-06-19T10:26:32Z</time>
      </trkpt>
      <trkpt lat="42.8486580" lon="-8.5798880">
        <ele>231.8</ele>
        <time>2022-06-19T10:26:33Z</time>
      </trkpt>
      <trkpt lat="42.8486800" lon="-8.5798580">
        <ele>231.8</ele>
        <time>2022-06-19T10:26:34Z</time>
      </trkpt>
      <trkpt lat="42.8487080" lon="-8.5798280">
        <ele>231.8</ele>
        <time>2022-06-19T10:26:35Z</time>
      </trkpt>
      <trkpt lat="42.8487410" lon="-8.5797850">
        <ele>230.8</ele>
        <time>2022-06-19T10:26:36Z</time>
      </trkpt>
      <trkpt lat="42.8487750" lon="-8.5797360">
        <ele>230.0</ele>
        <time>2022-06-19T10:26:37Z</time>
      </trkpt>
      <trkpt lat="42.8488050" lon="-8.5796760">
        <ele>230.0</ele>
        <time>2022-06-19T10:26:38Z</time>
      </trkpt>
      <trkpt lat="42.8488350" lon="-8.5796260">
        <ele>230.0</ele>
        <time>2022-06-19T10:26:39Z</time>
      </trkpt>
      <trkpt lat="42.8488580" lon="-8.5795880">
        <ele>229.0</ele>
        <time>2022-06-19T10:26:40Z</time>
      </trkpt>
      <trkpt lat="42.8488760" lon="-8.5795450">
        <ele>227.2</ele>
        <time>2022-06-19T10:26:41Z</time>
      </trkpt>
      <trkpt lat="42.8488930" lon="-8.5794960">
        <ele>227.2</ele>
        <time>2022-06-19T10:26:42Z</time>
      </trkpt>
      <trkpt lat="42.8489160" lon="-8.5794430">
        <ele>227.2</ele>
        <time>2022-06-19T10:26:43Z</time>
      </trkpt>
      <trkpt lat="42.8489350" lon="-8.5793810">
        <ele>226.2</ele>
        <time>2022-06-19T10:26:44Z</time>
      </trkpt>
      <trkpt lat="42.8489580" lon="-8.5793050">
        <ele>223.8</ele>
        <time>2022-06-19T10:26:45Z</time>
      </trkpt>
      <trkpt lat="42.8489830" lon="-8.5792350">
        <ele>223.8</ele>
        <time>2022-06-19T10:26:46Z</time>
      </trkpt>
      <trkpt lat="42.8489950" lon="-8.5791610">
        <ele>223.8</ele>
        <time>2022-06-19T10:26:47Z</time>
      </trkpt>
      <trkpt lat="42.8490080" lon="-8.5790880">
        <ele>222.8</ele>
        <time>2022-06-19T10:26:48Z</time>
      </trkpt>
      <trkpt lat="42.8490380" lon="-8.5790060">
        <ele>218.0</ele>
        <time>2022-06-19T10:26:49Z</time>
      </trkpt>
      <trkpt lat="42.8490700" lon="-8.5789300">
        <ele>218.0</ele>
        <time>2022-06-19T10:26:50Z</time>
      </trkpt>
      <trkpt lat="42.8491160" lon="-8.5788560">
        <ele>218.0</ele>
        <time>2022-06-19T10:26:51Z</time>
      </trkpt>
      <trkpt lat="42.8491650" lon="-8.5787680">
        <ele>217.0</ele>
        <time>2022-06-19T10:26:52Z</time>
      </trkpt>
      <trkpt lat="42.8492030" lon="-8.5786760">
        <ele>215.6</ele>
        <time>2022-06-19T10:26:53Z</time>
      </trkpt>
      <trkpt lat="42.8492400" lon="-8.5785950">
        <ele>215.6</ele>
        <time>2022-06-19T10:26:54Z</time>
      </trkpt>
      <trkpt lat="42.8492710" lon="-8.5785180">
        <ele>215.6</ele>
        <time>2022-06-19T10:26:55Z</time>
      </trkpt>
      <trkpt lat="42.8492850" lon="-8.5784360">
        <ele>216.6</ele>
        <time>2022-06-19T10:26:56Z</time>
      </trkpt>
      <trkpt lat="42.8492830" lon="-8.5783700">
        <ele>216.0</ele>
        <time>2022-06-19T10:26:57Z</time>
      </trkpt>
      <trkpt lat="42.8492600" lon="-8.5783050">
        <ele>216.0</ele>
        <time>2022-06-19T10:26:58Z</time>
      </trkpt>
      <trkpt lat="42.8492310" lon="-8.5782410">
        <ele>216.0</ele>
        <time>2022-06-19T10:26:59Z</time>
      </trkpt>
      <trkpt lat="42.8491980" lon="-8.5781710">
        <ele>215.0</ele>
        <time>2022-06-19T10:27:00Z</time>
      </trkpt>
      <trkpt lat="42.8491600" lon="-8.5780880">
        <ele>213.8</ele>
        <time>2022-06-19T10:27:01Z</time>
      </trkpt>
      <trkpt lat="42.8491210" lon="-8.5780030">
        <ele>213.8</ele>
        <time>2022-06-19T10:27:02Z</time>
      </trkpt>
      <trkpt lat="42.8490880" lon="-8.5779150">
        <ele>213.8</ele>
        <time>2022-06-19T10:27:03Z</time>
      </trkpt>
      <trkpt lat="42.8490550" lon="-8.5778230">
        <ele>212.8</ele>
        <time>2022-06-19T10:27:04Z</time>
      </trkpt>
      <trkpt lat="42.8490280" lon="-8.5777260">
        <ele>210.4</ele>
        <time>2022-06-19T10:27:05Z</time>
      </trkpt>
      <trkpt lat="42.8490080" lon="-8.5776300">
        <ele>210.4</ele>
        <time>2022-06-19T10:27:06Z</time>
      </trkpt>
      <trkpt lat="42.8489910" lon="-8.5775400">
        <ele>210.4</ele>
        <time>2022-06-19T10:27:07Z</time>
      </trkpt>
      <trkpt lat="42.8489810" lon="-8.5774630">
        <ele>211.4</ele>
        <time>2022-06-19T10:27:08Z</time>
      </trkpt>
      <trkpt lat="42.8489750" lon="-8.5774010">
        <ele>211.8</ele>
        <time>2022-06-19T10:27:09Z</time>
      </trkpt>
      <trkpt lat="42.8489760" lon="-8.5773450">
        <ele>211.8</ele>
        <time>2022-06-19T10:27:10Z</time>
      </trkpt>
      <trkpt lat="42.8489930" lon="-8.5772960">
        <ele>211.8</ele>
        <time>2022-06-19T10:27:11Z</time>
      </trkpt>
      <trkpt lat="42.8490110" lon="-8.5772460">
        <ele>211.8</ele>
        <time>2022-06-19T10:27:12Z</time>
      </trkpt>
      <trkpt lat="42.8490360" lon="-8.5772030">
        <ele>212.2</ele>
        <time>2022-06-19T10:27:13Z</time>
      </trkpt>
      <trkpt lat="42.8490660" lon="-8.5771700">
        <ele>212.2</ele>
        <time>2022-06-19T10:27:14Z</time>
      </trkpt>
      <trkpt lat="42.8490960" lon="-8.5771460">
        <ele>212.2</ele>
        <time>2022-06-19T10:27:15Z</time>
      </trkpt>
      <trkpt lat="42.8491280" lon="-8.5771210">
        <ele>212.2</ele>
        <time>2022-06-19T10:27:16Z</time>
      </trkpt>
      <trkpt lat="42.8491630" lon="-8.5770950">
        <ele>212.6</ele>
        <time>2022-06-19T10:27:17Z</time>
      </trkpt>
      <trkpt lat="42.8491960" lon="-8.5770650">
        <ele>212.6</ele>
        <time>2022-06-19T10:27:18Z</time>
      </trkpt>
      <trkpt lat="42.8492260" lon="-8.5770400">
        <ele>212.6</ele>
        <time>2022-06-19T10:27:19Z</time>
      </trkpt>
      <trkpt lat="42.8492610" lon="-8.5770150">
        <ele>212.4</ele>
        <time>2022-06-19T10:27:20Z</time>
      </trkpt>
      <trkpt lat="42.8493010" lon="-8.5769960">
        <ele>212.4</ele>
        <time>2022-06-19T10:27:21Z</time>
      </trkpt>
      <trkpt lat="42.8493380" lon="-8.5769800">
        <ele>212.4</ele>
        <time>2022-06-19T10:27:22Z</time>
      </trkpt>
      <trkpt lat="42.8493710" lon="-8.5769650">
        <ele>212.4</ele>
        <time>2022-06-19T10:27:23Z</time>
      </trkpt>
      <trkpt lat="42.8494100" lon="-8.5769580">
        <ele>211.4</ele>
        <time>2022-06-19T10:27:24Z</time>
      </trkpt>
      <trkpt lat="42.8494480" lon="-8.5769500">
        <ele>212.2</ele>
        <time>2022-06-19T10:27:25Z</time>
      </trkpt>
      <trkpt lat="42.8494900" lon="-8.5769400">
        <ele>212.2</ele>
        <time>2022-06-19T10:27:26Z</time>
      </trkpt>
      <trkpt lat="42.8495350" lon="-8.5769350">
        <ele>212.2</ele>
        <time>2022-06-19T10:27:27Z</time>
      </trkpt>
      <trkpt lat="42.8495750" lon="-8.5769380">
        <ele>212.0</ele>
        <time>2022-06-19T10:27:28Z</time>
      </trkpt>
      <trkpt lat="42.8496130" lon="-8.5769550">
        <ele>211.8</ele>
        <time>2022-06-19T10:27:29Z</time>
      </trkpt>
      <trkpt lat="42.8496530" lon="-8.5769630">
        <ele>211.8</ele>
        <time>2022-06-19T10:27:30Z</time>
      </trkpt>
      <trkpt lat="42.8496880" lon="-8.5769760">
        <ele>211.8</ele>
        <time>2022-06-19T10:27:31Z</time>
      </trkpt>
      <trkpt lat="42.8497210" lon="-8.5769830">
        <ele>211.8</ele>
        <time>2022-06-19T10:27:32Z</time>
      </trkpt>
      <trkpt lat="42.8497630" lon="-8.5769860">
        <ele>210.6</ele>
        <time>2022-06-19T10:27:33Z</time>
      </trkpt>
      <trkpt lat="42.8498150" lon="-8.5769850">
        <ele>210.6</ele>
        <time>2022-06-19T10:27:34Z</time>
      </trkpt>
      <trkpt lat="42.8498680" lon="-8.5769800">
        <ele>210.6</ele>
        <time>2022-06-19T10:27:35Z</time>
      </trkpt>
      <trkpt lat="42.8499210" lon="-8.5769850">
        <ele>209.6</ele>
        <time>2022-06-19T10:27:36Z</time>
      </trkpt>
      <trkpt lat="42.8499810" lon="-8.5769960">
        <ele>207.8</ele>
        <time>2022-06-19T10:27:37Z</time>
      </trkpt>
      <trkpt lat="42.8500460" lon="-8.5770050">
        <ele>207.8</ele>
        <time>2022-06-19T10:27:38Z</time>
      </trkpt>
      <trkpt lat="42.8501110" lon="-8.5770150">
        <ele>207.8</ele>
        <time>2022-06-19T10:27:39Z</time>
      </trkpt>
      <trkpt lat="42.8501760" lon="-8.5770250">
        <ele>207.0</ele>
        <time>2022-06-19T10:27:40Z</time>
      </trkpt>
      <trkpt lat="42.8502400" lon="-8.5770400">
        <ele>207.2</ele>
        <time>2022-06-19T10:27:41Z</time>
      </trkpt>
      <trkpt lat="42.8503000" lon="-8.5770500">
        <ele>207.2</ele>
        <time>2022-06-19T10:27:42Z</time>
      </trkpt>
      <trkpt lat="42.8503580" lon="-8.5770630">
        <ele>207.2</ele>
        <time>2022-06-19T10:27:43Z</time>
      </trkpt>
      <trkpt lat="42.8504160" lon="-8.5770730">
        <ele>208.0</ele>
        <time>2022-06-19T10:27:44Z</time>
      </trkpt>
      <trkpt lat="42.8504730" lon="-8.5770860">
        <ele>207.2</ele>
        <time>2022-06-19T10:27:45Z</time>
      </trkpt>
      <trkpt lat="42.8505250" lon="-8.5770960">
        <ele>207.2</ele>
        <time>2022-06-19T10:27:46Z</time>
      </trkpt>
      <trkpt lat="42.8505700" lon="-8.5771150">
        <ele>207.2</ele>
        <time>2022-06-19T10:27:47Z</time>
      </trkpt>
      <trkpt lat="42.8506150" lon="-8.5771380">
        <ele>208.2</ele>
        <time>2022-06-19T10:27:48Z</time>
      </trkpt>
      <trkpt lat="42.8506630" lon="-8.5771610">
        <ele>208.2</ele>
        <time>2022-06-19T10:27:49Z</time>
      </trkpt>
      <trkpt lat="42.8507130" lon="-8.5771860">
        <ele>208.2</ele>
        <time>2022-06-19T10:27:50Z</time>
      </trkpt>
      <trkpt lat="42.8507650" lon="-8.5772060">
        <ele>208.2</ele>
        <time>2022-06-19T10:27:51Z</time>
      </trkpt>
      <trkpt lat="42.8508110" lon="-8.5772260">
        <ele>207.4</ele>
        <time>2022-06-19T10:27:52Z</time>
      </trkpt>
      <trkpt lat="42.8508580" lon="-8.5772350">
        <ele>207.2</ele>
        <time>2022-06-19T10:27:53Z</time>
      </trkpt>
      <trkpt lat="42.8509100" lon="-8.5772310">
        <ele>207.2</ele>
        <time>2022-06-19T10:27:54Z</time>
      </trkpt>
      <trkpt lat="42.8509650" lon="-8.5772280">
        <ele>207.2</ele>
        <time>2022-06-19T10:27:55Z</time>
      </trkpt>
      <trkpt lat="42.8510180" lon="-8.5772250">
        <ele>206.2</ele>
        <time>2022-06-19T10:27:56Z</time>
      </trkpt>
      <trkpt lat="42.8510630" lon="-8.5772010">
        <ele>206.6</ele>
        <time>2022-06-19T10:27:57Z</time>
      </trkpt>
      <trkpt lat="42.8511000" lon="-8.5771650">
        <ele>206.6</ele>
        <time>2022-06-19T10:27:58Z</time>
      </trkpt>
      <trkpt lat="42.8511280" lon="-8.5771210">
        <ele>206.6</ele>
        <time>2022-06-19T10:27:59Z</time>
      </trkpt>
      <trkpt lat="42.8511600" lon="-8.5770780">
        <ele>207.2</ele>
        <time>2022-06-19T10:28:00Z</time>
      </trkpt>
      <trkpt lat="42.8511910" lon="-8.5770330">
        <ele>207.8</ele>
        <time>2022-06-19T10:28:01Z</time>
      </trkpt>
      <trkpt lat="42.8512230" lon="-8.5769850">
        <ele>207.8</ele>
        <time>2022-06-19T10:28:02Z</time>
      </trkpt>
      <trkpt lat="42.8512550" lon="-8.5769410">
        <ele>207.8</ele>
        <time>2022-06-19T10:28:03Z</time>
      </trkpt>
      <trkpt lat="42.8512880" lon="-8.5769000">
        <ele>207.8</ele>
        <time>2022-06-19T10:28:04Z</time>
      </trkpt>
      <trkpt lat="42.8513200" lon="-8.5768610">
        <ele>208.6</ele>
        <time>2022-06-19T10:28:05Z</time>
      </trkpt>
      <trkpt lat="42.8513550" lon="-8.5768230">
        <ele>208.6</ele>
        <time>2022-06-19T10:28:06Z</time>
      </trkpt>
      <trkpt lat="42.8513930" lon="-8.5767810">
        <ele>208.6</ele>
        <time>2022-06-19T10:28:07Z</time>
      </trkpt>
      <trkpt lat="42.8514300" lon="-8.5767430">
        <ele>208.6</ele>
        <time>2022-06-19T10:28:08Z</time>
      </trkpt>
      <trkpt lat="42.8514680" lon="-8.5767060">
        <ele>208.4</ele>
        <time>2022-06-19T10:28:09Z</time>
      </trkpt>
      <trkpt lat="42.8514960" lon="-8.5766610">
        <ele>208.4</ele>
        <time>2022-06-19T10:28:10Z</time>
      </trkpt>
      <trkpt lat="42.8515280" lon="-8.5766180">
        <ele>208.4</ele>
        <time>2022-06-19T10:28:11Z</time>
      </trkpt>
      <trkpt lat="42.8515630" lon="-8.5765780">
        <ele>208.4</ele>
        <time>2022-06-19T10:28:12Z</time>
      </trkpt>
      <trkpt lat="42.8515960" lon="-8.5765400">
        <ele>206.6</ele>
        <time>2022-06-19T10:28:13Z</time>
      </trkpt>
      <trkpt lat="42.8516260" lon="-8.5765000">
        <ele>206.6</ele>
        <time>2022-06-19T10:28:14Z</time>
      </trkpt>
      <trkpt lat="42.8516560" lon="-8.5764560">
        <ele>206.6</ele>
        <time>2022-06-19T10:28:15Z</time>
      </trkpt>
      <trkpt lat="42.8516850" lon="-8.5764130">
        <ele>207.6</ele>
        <time>2022-06-19T10:28:16Z</time>
      </trkpt>
      <trkpt lat="42.8517130" lon="-8.5763710">
        <ele>208.2</ele>
        <time>2022-06-19T10:28:17Z</time>
      </trkpt>
      <trkpt lat="42.8517480" lon="-8.5763380">
        <ele>208.2</ele>
        <time>2022-06-19T10:28:18Z</time>
      </trkpt>
      <trkpt lat="42.8517850" lon="-8.5763030">
        <ele>208.2</ele>
        <time>2022-06-19T10:28:19Z</time>
      </trkpt>
      <trkpt lat="42.8518200" lon="-8.5762660">
        <ele>209.2</ele>
        <time>2022-06-19T10:28:20Z</time>
      </trkpt>
      <trkpt lat="42.8518550" lon="-8.5762280">
        <ele>209.0</ele>
        <time>2022-06-19T10:28:21Z</time>
      </trkpt>
      <trkpt lat="42.8518850" lon="-8.5761850">
        <ele>209.0</ele>
        <time>2022-06-19T10:28:22Z</time>
      </trkpt>
      <trkpt lat="42.8519100" lon="-8.5761410">
        <ele>209.0</ele>
        <time>2022-06-19T10:28:23Z</time>
      </trkpt>
      <trkpt lat="42.8519280" lon="-8.5760960">
        <ele>209.0</ele>
        <time>2022-06-19T10:28:24Z</time>
      </trkpt>
      <trkpt lat="42.8519400" lon="-8.5760430">
        <ele>209.0</ele>
        <time>2022-06-19T10:28:25Z</time>
      </trkpt>
      <trkpt lat="42.8519530" lon="-8.5759930">
        <ele>209.0</ele>
        <time>2022-06-19T10:28:26Z</time>
      </trkpt>
      <trkpt lat="42.8519760" lon="-8.5759480">
        <ele>209.0</ele>
        <time>2022-06-19T10:28:27Z</time>
      </trkpt>
      <trkpt lat="42.8520080" lon="-8.5759130">
        <ele>209.0</ele>
        <time>2022-06-19T10:28:28Z</time>
      </trkpt>
      <trkpt lat="42.8520410" lon="-8.5758780">
        <ele>208.6</ele>
        <time>2022-06-19T10:28:29Z</time>
      </trkpt>
      <trkpt lat="42.8520750" lon="-8.5758480">
        <ele>208.6</ele>
        <time>2022-06-19T10:28:30Z</time>
      </trkpt>
      <trkpt lat="42.8521100" lon="-8.5758200">
        <ele>208.6</ele>
        <time>2022-06-19T10:28:31Z</time>
      </trkpt>
      <trkpt lat="42.8521430" lon="-8.5757910">
        <ele>208.6</ele>
        <time>2022-06-19T10:28:32Z</time>
      </trkpt>
      <trkpt lat="42.8521750" lon="-8.5757610">
        <ele>209.2</ele>
        <time>2022-06-19T10:28:33Z</time>
      </trkpt>
      <trkpt lat="42.8522080" lon="-8.5757300">
        <ele>209.2</ele>
        <time>2022-06-19T10:28:34Z</time>
      </trkpt>
      <trkpt lat="42.8522410" lon="-8.5757000">
        <ele>209.2</ele>
        <time>2022-06-19T10:28:35Z</time>
      </trkpt>
      <trkpt lat="42.8522710" lon="-8.5756710">
        <ele>209.2</ele>
        <time>2022-06-19T10:28:36Z</time>
      </trkpt>
      <trkpt lat="42.8523000" lon="-8.5756430">
        <ele>209.2</ele>
        <time>2022-06-19T10:28:37Z</time>
      </trkpt>
      <trkpt lat="42.8523230" lon="-8.5756060">
        <ele>209.2</ele>
        <time>2022-06-19T10:28:38Z</time>
      </trkpt>
      <trkpt lat="42.8523410" lon="-8.5755650">
        <ele>209.2</ele>
        <time>2022-06-19T10:28:39Z</time>
      </trkpt>
      <trkpt lat="42.8523560" lon="-8.5755210">
        <ele>209.2</ele>
        <time>2022-06-19T10:28:40Z</time>
      </trkpt>
      <trkpt lat="42.8523730" lon="-8.5754780">
        <ele>209.0</ele>
        <time>2022-06-19T10:28:41Z</time>
      </trkpt>
      <trkpt lat="42.8523950" lon="-8.5754300">
        <ele>209.0</ele>
        <time>2022-06-19T10:28:42Z</time>
      </trkpt>
      <trkpt lat="42.8524200" lon="-8.5753810">
        <ele>209.0</ele>
        <time>2022-06-19T10:28:43Z</time>
      </trkpt>
      <trkpt lat="42.8524510" lon="-8.5753360">
        <ele>208.0</ele>
        <time>2022-06-19T10:28:44Z</time>
      </trkpt>
      <trkpt lat="42.8524830" lon="-8.5752950">
        <ele>208.0</ele>
        <time>2022-06-19T10:28:45Z</time>
      </trkpt>
      <trkpt lat="42.8525200" lon="-8.5752550">
        <ele>208.0</ele>
        <time>2022-06-19T10:28:46Z</time>
      </trkpt>
      <trkpt lat="42.8525600" lon="-8.5752150">
        <ele>208.0</ele>
        <time>2022-06-19T10:28:47Z</time>
      </trkpt>
      <trkpt lat="42.8526000" lon="-8.5751750">
        <ele>207.2</ele>
        <time>2022-06-19T10:28:48Z</time>
      </trkpt>
      <trkpt lat="42.8526360" lon="-8.5751280">
        <ele>207.4</ele>
        <time>2022-06-19T10:28:49Z</time>
      </trkpt>
      <trkpt lat="42.8526700" lon="-8.5750810">
        <ele>207.4</ele>
        <time>2022-06-19T10:28:50Z</time>
      </trkpt>
      <trkpt lat="42.8527010" lon="-8.5750310">
        <ele>207.4</ele>
        <time>2022-06-19T10:28:51Z</time>
      </trkpt>
      <trkpt lat="42.8527300" lon="-8.5749780">
        <ele>206.4</ele>
        <time>2022-06-19T10:28:52Z</time>
      </trkpt>
      <trkpt lat="42.8527560" lon="-8.5749230">
        <ele>206.8</ele>
        <time>2022-06-19T10:28:53Z</time>
      </trkpt>
      <trkpt lat="42.8527780" lon="-8.5748660">
        <ele>206.8</ele>
        <time>2022-06-19T10:28:54Z</time>
      </trkpt>
      <trkpt lat="42.8528010" lon="-8.5748110">
        <ele>206.8</ele>
        <time>2022-06-19T10:28:55Z</time>
      </trkpt>
      <trkpt lat="42.8528260" lon="-8.5747560">
        <ele>207.0</ele>
        <time>2022-06-19T10:28:56Z</time>
      </trkpt>
      <trkpt lat="42.8528510" lon="-8.5747010">
        <ele>207.2</ele>
        <time>2022-06-19T10:28:57Z</time>
      </trkpt>
      <trkpt lat="42.8528760" lon="-8.5746500">
        <ele>207.2</ele>
        <time>2022-06-19T10:28:58Z</time>
      </trkpt>
      <trkpt lat="42.8528980" lon="-8.5745980">
        <ele>207.2</ele>
        <time>2022-06-19T10:28:59Z</time>
      </trkpt>
      <trkpt lat="42.8529130" lon="-8.5745410">
        <ele>206.8</ele>
        <time>2022-06-19T10:29:00Z</time>
      </trkpt>
      <trkpt lat="42.8529200" lon="-8.5744780">
        <ele>205.6</ele>
        <time>2022-06-19T10:29:01Z</time>
      </trkpt>
      <trkpt lat="42.8529210" lon="-8.5744100">
        <ele>205.6</ele>
        <time>2022-06-19T10:29:02Z</time>
      </trkpt>
      <trkpt lat="42.8529250" lon="-8.5743480">
        <ele>205.6</ele>
        <time>2022-06-19T10:29:03Z</time>
      </trkpt>
      <trkpt lat="42.8529310" lon="-8.5742930">
        <ele>205.6</ele>
        <time>2022-06-19T10:29:04Z</time>
      </trkpt>
      <trkpt lat="42.8529410" lon="-8.5742450">
        <ele>204.2</ele>
        <time>2022-06-19T10:29:05Z</time>
      </trkpt>
      <trkpt lat="42.8529550" lon="-8.5742050">
        <ele>204.2</ele>
        <time>2022-06-19T10:29:06Z</time>
      </trkpt>
      <trkpt lat="42.8529780" lon="-8.5741680">
        <ele>204.2</ele>
        <time>2022-06-19T10:29:07Z</time>
      </trkpt>
      <trkpt lat="42.8530110" lon="-8.5741410">
        <ele>203.2</ele>
        <time>2022-06-19T10:29:08Z</time>
      </trkpt>
      <trkpt lat="42.8530500" lon="-8.5741260">
        <ele>202.2</ele>
        <time>2022-06-19T10:29:09Z</time>
      </trkpt>
      <trkpt lat="42.8530910" lon="-8.5741210">
        <ele>202.2</ele>
        <time>2022-06-19T10:29:10Z</time>
      </trkpt>
      <trkpt lat="42.8531310" lon="-8.5741280">
        <ele>202.2</ele>
        <time>2022-06-19T10:29:11Z</time>
      </trkpt>
      <trkpt lat="42.8531710" lon="-8.5741300">
        <ele>202.2</ele>
        <time>2022-06-19T10:29:12Z</time>
      </trkpt>
      <trkpt lat="42.8532150" lon="-8.5741310">
        <ele>200.8</ele>
        <time>2022-06-19T10:29:13Z</time>
      </trkpt>
      <trkpt lat="42.8532650" lon="-8.5741400">
        <ele>200.8</ele>
        <time>2022-06-19T10:29:14Z</time>
      </trkpt>
      <trkpt lat="42.8533150" lon="-8.5741510">
        <ele>200.8</ele>
        <time>2022-06-19T10:29:15Z</time>
      </trkpt>
      <trkpt lat="42.8533680" lon="-8.5741610">
        <ele>199.8</ele>
        <time>2022-06-19T10:29:16Z</time>
      </trkpt>
      <trkpt lat="42.8534260" lon="-8.5741660">
        <ele>196.2</ele>
        <time>2022-06-19T10:29:17Z</time>
      </trkpt>
      <trkpt lat="42.8534900" lon="-8.5741650">
        <ele>196.2</ele>
        <time>2022-06-19T10:29:18Z</time>
      </trkpt>
      <trkpt lat="42.8535560" lon="-8.5741650">
        <ele>196.2</ele>
        <time>2022-06-19T10:29:19Z</time>
      </trkpt>
      <trkpt lat="42.8536250" lon="-8.5741650">
        <ele>196.0</ele>
        <time>2022-06-19T10:29:20Z</time>
      </trkpt>
      <trkpt lat="42.8536900" lon="-8.5741600">
        <ele>194.8</ele>
        <time>2022-06-19T10:29:21Z</time>
      </trkpt>
      <trkpt lat="42.8537510" lon="-8.5741580">
        <ele>194.8</ele>
        <time>2022-06-19T10:29:22Z</time>
      </trkpt>
      <trkpt lat="42.8538110" lon="-8.5741530">
        <ele>194.8</ele>
        <time>2022-06-19T10:29:23Z</time>
      </trkpt>
      <trkpt lat="42.8538710" lon="-8.5741530">
        <ele>194.8</ele>
        <time>2022-06-19T10:29:24Z</time>
      </trkpt>
      <trkpt lat="42.8539310" lon="-8.5741530">
        <ele>194.8</ele>
        <time>2022-06-19T10:29:25Z</time>
      </trkpt>
      <trkpt lat="42.8539930" lon="-8.5741500">
        <ele>194.8</ele>
        <time>2022-06-19T10:29:26Z</time>
      </trkpt>
      <trkpt lat="42.8540510" lon="-8.5741310">
        <ele>194.8</ele>
        <time>2022-06-19T10:29:27Z</time>
      </trkpt>
      <trkpt lat="42.8541000" lon="-8.5741100">
        <ele>195.8</ele>
        <time>2022-06-19T10:29:28Z</time>
      </trkpt>
      <trkpt lat="42.8541380" lon="-8.5740880">
        <ele>196.2</ele>
        <time>2022-06-19T10:29:29Z</time>
      </trkpt>
      <trkpt lat="42.8541680" lon="-8.5740650">
        <ele>196.2</ele>
        <time>2022-06-19T10:29:30Z</time>
      </trkpt>
      <trkpt lat="42.8541950" lon="-8.5740480">
        <ele>196.2</ele>
        <time>2022-06-19T10:29:31Z</time>
      </trkpt>
      <trkpt lat="42.8542150" lon="-8.5740330">
        <ele>196.2</ele>
        <time>2022-06-19T10:29:32Z</time>
      </trkpt>
      <trkpt lat="42.8542260" lon="-8.5740250">
        <ele>196.6</ele>
        <time>2022-06-19T10:29:33Z</time>
      </trkpt>
      <trkpt lat="42.8542330" lon="-8.5740160">
        <ele>196.6</ele>
        <time>2022-06-19T10:29:34Z</time>
      </trkpt>
      <trkpt lat="42.8542360" lon="-8.5740130">
        <ele>196.6</ele>
        <time>2022-06-19T10:29:35Z</time>
      </trkpt>
      <trkpt lat="42.8541910" lon="-8.5738710">
        <ele>195.8</ele>
        <time>2022-06-19T10:35:14Z</time>
      </trkpt>
      <trkpt lat="42.8541760" lon="-8.5738630">
        <ele>195.8</ele>
        <time>2022-06-19T10:35:15Z</time>
      </trkpt>
      <trkpt lat="42.8541630" lon="-8.5738500">
        <ele>195.8</ele>
        <time>2022-06-19T10:35:16Z</time>
      </trkpt>
      <trkpt lat="42.8541450" lon="-8.5738380">
        <ele>195.8</ele>
        <time>2022-06-19T10:35:17Z</time>
      </trkpt>
      <trkpt lat="42.8541230" lon="-8.5738280">
        <ele>195.8</ele>
        <time>2022-06-19T10:35:18Z</time>
      </trkpt>
      <trkpt lat="42.8541000" lon="-8.5738100">
        <ele>195.8</ele>
        <time>2022-06-19T10:35:19Z</time>
      </trkpt>
      <trkpt lat="42.8540760" lon="-8.5737930">
        <ele>194.8</ele>
        <time>2022-06-19T10:35:20Z</time>
      </trkpt>
      <trkpt lat="42.8540480" lon="-8.5737700">
        <ele>194.0</ele>
        <time>2022-06-19T10:35:21Z</time>
      </trkpt>
      <trkpt lat="42.8540150" lon="-8.5737500">
        <ele>194.0</ele>
        <time>2022-06-19T10:35:22Z</time>
      </trkpt>
      <trkpt lat="42.8539760" lon="-8.5737310">
        <ele>194.0</ele>
        <time>2022-06-19T10:35:23Z</time>
      </trkpt>
      <trkpt lat="42.8539360" lon="-8.5737060">
        <ele>193.0</ele>
        <time>2022-06-19T10:35:24Z</time>
      </trkpt>
      <trkpt lat="42.8538900" lon="-8.5736810">
        <ele>191.2</ele>
        <time>2022-06-19T10:35:25Z</time>
      </trkpt>
      <trkpt lat="42.8538410" lon="-8.5736560">
        <ele>191.2</ele>
        <time>2022-06-19T10:35:26Z</time>
      </trkpt>
      <trkpt lat="42.8537910" lon="-8.5736330">
        <ele>191.2</ele>
        <time>2022-06-19T10:35:27Z</time>
      </trkpt>
      <trkpt lat="42.8537410" lon="-8.5736080">
        <ele>191.2</ele>
        <time>2022-06-19T10:35:28Z</time>
      </trkpt>
      <trkpt lat="42.8536880" lon="-8.5735830">
        <ele>189.0</ele>
        <time>2022-06-19T10:35:29Z</time>
      </trkpt>
      <trkpt lat="42.8536360" lon="-8.5735530">
        <ele>189.0</ele>
        <time>2022-06-19T10:35:30Z</time>
      </trkpt>
      <trkpt lat="42.8535860" lon="-8.5735230">
        <ele>189.0</ele>
        <time>2022-06-19T10:35:31Z</time>
      </trkpt>
      <trkpt lat="42.8535360" lon="-8.5734950">
        <ele>189.2</ele>
        <time>2022-06-19T10:35:32Z</time>
      </trkpt>
      <trkpt lat="42.8534830" lon="-8.5734580">
        <ele>188.2</ele>
        <time>2022-06-19T10:35:33Z</time>
      </trkpt>
      <trkpt lat="42.8534250" lon="-8.5734230">
        <ele>188.2</ele>
        <time>2022-06-19T10:35:34Z</time>
      </trkpt>
      <trkpt lat="42.8533710" lon="-8.5733900">
        <ele>188.2</ele>
        <time>2022-06-19T10:35:35Z</time>
      </trkpt>
      <trkpt lat="42.8533160" lon="-8.5733510">
        <ele>187.2</ele>
        <time>2022-06-19T10:35:36Z</time>
      </trkpt>
      <trkpt lat="42.8532680" lon="-8.5733150">
        <ele>185.6</ele>
        <time>2022-06-19T10:35:37Z</time>
      </trkpt>
      <trkpt lat="42.8532230" lon="-8.5732750">
        <ele>185.6</ele>
        <time>2022-06-19T10:35:38Z</time>
      </trkpt>
      <trkpt lat="42.8531880" lon="-8.5732410">
        <ele>185.6</ele>
        <time>2022-06-19T10:35:39Z</time>
      </trkpt>
      <trkpt lat="42.8531580" lon="-8.5732080">
        <ele>185.6</ele>
        <time>2022-06-19T10:35:40Z</time>
      </trkpt>
      <trkpt lat="42.8531310" lon="-8.5731780">
        <ele>185.8</ele>
        <time>2022-06-19T10:35:41Z</time>
      </trkpt>
      <trkpt lat="42.8531130" lon="-8.5731510">
        <ele>185.8</ele>
        <time>2022-06-19T10:35:42Z</time>
      </trkpt>
      <trkpt lat="42.8531080" lon="-8.5731230">
        <ele>185.8</ele>
        <time>2022-06-19T10:35:43Z</time>
      </trkpt>
      <trkpt lat="42.8531110" lon="-8.5730910">
        <ele>185.8</ele>
        <time>2022-06-19T10:35:44Z</time>
      </trkpt>
      <trkpt lat="42.8531160" lon="-8.5730610">
        <ele>186.0</ele>
        <time>2022-06-19T10:35:45Z</time>
      </trkpt>
      <trkpt lat="42.8531280" lon="-8.5730330">
        <ele>186.0</ele>
        <time>2022-06-19T10:35:46Z</time>
      </trkpt>
      <trkpt lat="42.8531450" lon="-8.5730110">
        <ele>186.0</ele>
        <time>2022-06-19T10:35:47Z</time>
      </trkpt>
      <trkpt lat="42.8531660" lon="-8.5729930">
        <ele>185.2</ele>
        <time>2022-06-19T10:35:48Z</time>
      </trkpt>
      <trkpt lat="42.8531880" lon="-8.5729800">
        <ele>185.4</ele>
        <time>2022-06-19T10:35:49Z</time>
      </trkpt>
      <trkpt lat="42.8532100" lon="-8.5729630">
        <ele>185.4</ele>
        <time>2022-06-19T10:35:50Z</time>
      </trkpt>
      <trkpt lat="42.8532350" lon="-8.5729530">
        <ele>185.4</ele>
        <time>2022-06-19T10:35:51Z</time>
      </trkpt>
      <trkpt lat="42.8532650" lon="-8.5729430">
        <ele>185.4</ele>
        <time>2022-06-19T10:35:52Z</time>
      </trkpt>
      <trkpt lat="42.8532930" lon="-8.5729280">
        <ele>185.4</ele>
        <time>2022-06-19T10:35:53Z</time>
      </trkpt>
      <trkpt lat="42.8533200" lon="-8.5729110">
        <ele>185.4</ele>
        <time>2022-06-19T10:35:54Z</time>
      </trkpt>
      <trkpt lat="42.8533430" lon="-8.5728950">
        <ele>185.4</ele>
        <time>2022-06-19T10:35:55Z</time>
      </trkpt>
      <trkpt lat="42.8533600" lon="-8.5728760">
        <ele>185.6</ele>
        <time>2022-06-19T10:35:56Z</time>
      </trkpt>
      <trkpt lat="42.8533800" lon="-8.5728650">
        <ele>185.6</ele>
        <time>2022-06-19T10:35:57Z</time>
      </trkpt>
      <trkpt lat="42.8534030" lon="-8.5728630">
        <ele>185.6</ele>
        <time>2022-06-19T10:35:58Z</time>
      </trkpt>
      <trkpt lat="42.8534230" lon="-8.5728650">
        <ele>185.6</ele>
        <time>2022-06-19T10:35:59Z</time>
      </trkpt>
      <trkpt lat="42.8534460" lon="-8.5728600">
        <ele>185.6</ele>
        <time>2022-06-19T10:36:00Z</time>
      </trkpt>
      <trkpt lat="42.8534710" lon="-8.5728450">
        <ele>185.2</ele>
        <time>2022-06-19T10:36:01Z</time>
      </trkpt>
      <trkpt lat="42.8534980" lon="-8.5728330">
        <ele>185.2</ele>
        <time>2022-06-19T10:36:02Z</time>
      </trkpt>
      <trkpt lat="42.8535250" lon="-8.5728280">
        <ele>185.2</ele>
        <time>2022-06-19T10:36:03Z</time>
      </trkpt>
      <trkpt lat="42.8535480" lon="-8.5728230">
        <ele>185.6</ele>
        <time>2022-06-19T10:36:04Z</time>
      </trkpt>
      <trkpt lat="42.8535800" lon="-8.5728160">
        <ele>185.8</ele>
        <time>2022-06-19T10:36:05Z</time>
      </trkpt>
      <trkpt lat="42.8536080" lon="-8.5728200">
        <ele>185.8</ele>
        <time>2022-06-19T10:36:06Z</time>
      </trkpt>
      <trkpt lat="42.8536380" lon="-8.5728280">
        <ele>185.8</ele>
        <time>2022-06-19T10:36:07Z</time>
      </trkpt>
      <trkpt lat="42.8536700" lon="-8.5728350">
        <ele>185.6</ele>
        <time>2022-06-19T10:36:08Z</time>
      </trkpt>
      <trkpt lat="42.8537030" lon="-8.5728460">
        <ele>185.6</ele>
        <time>2022-06-19T10:36:09Z</time>
      </trkpt>
      <trkpt lat="42.8537330" lon="-8.5728530">
        <ele>185.6</ele>
        <time>2022-06-19T10:36:10Z</time>
      </trkpt>
      <trkpt lat="42.8537630" lon="-8.5728660">
        <ele>185.6</ele>
        <time>2022-06-19T10:36:11Z</time>
      </trkpt>
      <trkpt lat="42.8537950" lon="-8.5728830">
        <ele>185.6</ele>
        <time>2022-06-19T10:36:12Z</time>
      </trkpt>
      <trkpt lat="42.8538300" lon="-8.5729000">
        <ele>185.6</ele>
        <time>2022-06-19T10:36:13Z</time>
      </trkpt>
      <trkpt lat="42.8538660" lon="-8.5729130">
        <ele>185.6</ele>
        <time>2022-06-19T10:36:14Z</time>
      </trkpt>
      <trkpt lat="42.8539010" lon="-8.5729260">
        <ele>185.6</ele>
        <time>2022-06-19T10:36:15Z</time>
      </trkpt>
      <trkpt lat="42.8539400" lon="-8.5729430">
        <ele>184.6</ele>
        <time>2022-06-19T10:36:16Z</time>
      </trkpt>
      <trkpt lat="42.8539810" lon="-8.5729630">
        <ele>183.4</ele>
        <time>2022-06-19T10:36:17Z</time>
      </trkpt>
      <trkpt lat="42.8540260" lon="-8.5729900">
        <ele>183.4</ele>
        <time>2022-06-19T10:36:18Z</time>
      </trkpt>
      <trkpt lat="42.8540730" lon="-8.5730160">
        <ele>183.4</ele>
        <time>2022-06-19T10:36:19Z</time>
      </trkpt>
      <trkpt lat="42.8541180" lon="-8.5730400">
        <ele>183.4</ele>
        <time>2022-06-19T10:36:20Z</time>
      </trkpt>
      <trkpt lat="42.8541700" lon="-8.5730510">
        <ele>183.6</ele>
        <time>2022-06-19T10:36:21Z</time>
      </trkpt>
      <trkpt lat="42.8542250" lon="-8.5730500">
        <ele>183.6</ele>
        <time>2022-06-19T10:36:22Z</time>
      </trkpt>
      <trkpt lat="42.8542800" lon="-8.5730400">
        <ele>183.6</ele>
        <time>2022-06-19T10:36:23Z</time>
      </trkpt>
      <trkpt lat="42.8543360" lon="-8.5730230">
        <ele>182.6</ele>
        <time>2022-06-19T10:36:24Z</time>
      </trkpt>
      <trkpt lat="42.8543900" lon="-8.5730060">
        <ele>183.0</ele>
        <time>2022-06-19T10:36:25Z</time>
      </trkpt>
      <trkpt lat="42.8544430" lon="-8.5729960">
        <ele>183.0</ele>
        <time>2022-06-19T10:36:26Z</time>
      </trkpt>
      <trkpt lat="42.8544950" lon="-8.5729850">
        <ele>183.0</ele>
        <time>2022-06-19T10:36:27Z</time>
      </trkpt>
      <trkpt lat="42.8545450" lon="-8.5729730">
        <ele>182.2</ele>
        <time>2022-06-19T10:36:28Z</time>
      </trkpt>
      <trkpt lat="42.8545900" lon="-8.5729610">
        <ele>182.2</ele>
        <time>2022-06-19T10:36:29Z</time>
      </trkpt>
      <trkpt lat="42.8546360" lon="-8.5729630">
        <ele>182.2</ele>
        <time>2022-06-19T10:36:30Z</time>
      </trkpt>
      <trkpt lat="42.8546800" lon="-8.5729560">
        <ele>182.2</ele>
        <time>2022-06-19T10:36:31Z</time>
      </trkpt>
      <trkpt lat="42.8547230" lon="-8.5729460">
        <ele>182.8</ele>
        <time>2022-06-19T10:36:32Z</time>
      </trkpt>
      <trkpt lat="42.8547650" lon="-8.5729410">
        <ele>183.0</ele>
        <time>2022-06-19T10:36:33Z</time>
      </trkpt>
      <trkpt lat="42.8548100" lon="-8.5729260">
        <ele>183.0</ele>
        <time>2022-06-19T10:36:34Z</time>
      </trkpt>
      <trkpt lat="42.8548530" lon="-8.5729130">
        <ele>183.0</ele>
        <time>2022-06-19T10:36:35Z</time>
      </trkpt>
      <trkpt lat="42.8548950" lon="-8.5729080">
        <ele>182.4</ele>
        <time>2022-06-19T10:36:36Z</time>
      </trkpt>
      <trkpt lat="42.8549380" lon="-8.5728980">
        <ele>183.0</ele>
        <time>2022-06-19T10:36:37Z</time>
      </trkpt>
      <trkpt lat="42.8549810" lon="-8.5728910">
        <ele>183.0</ele>
        <time>2022-06-19T10:36:38Z</time>
      </trkpt>
      <trkpt lat="42.8550260" lon="-8.5728830">
        <ele>183.0</ele>
        <time>2022-06-19T10:36:39Z</time>
      </trkpt>
      <trkpt lat="42.8550710" lon="-8.5728700">
        <ele>182.0</ele>
        <time>2022-06-19T10:36:40Z</time>
      </trkpt>
      <trkpt lat="42.8551160" lon="-8.5728550">
        <ele>182.4</ele>
        <time>2022-06-19T10:36:41Z</time>
      </trkpt>
      <trkpt lat="42.8551600" lon="-8.5728480">
        <ele>182.4</ele>
        <time>2022-06-19T10:36:42Z</time>
      </trkpt>
      <trkpt lat="42.8552030" lon="-8.5728400">
        <ele>182.4</ele>
        <time>2022-06-19T10:36:43Z</time>
      </trkpt>
      <trkpt lat="42.8552500" lon="-8.5728260">
        <ele>181.4</ele>
        <time>2022-06-19T10:36:44Z</time>
      </trkpt>
      <trkpt lat="42.8552950" lon="-8.5728100">
        <ele>180.6</ele>
        <time>2022-06-19T10:36:45Z</time>
      </trkpt>
      <trkpt lat="42.8553460" lon="-8.5727930">
        <ele>180.6</ele>
        <time>2022-06-19T10:36:46Z</time>
      </trkpt>
      <trkpt lat="42.8553960" lon="-8.5727750">
        <ele>180.6</ele>
        <time>2022-06-19T10:36:47Z</time>
      </trkpt>
      <trkpt lat="42.8554500" lon="-8.5727680">
        <ele>180.6</ele>
        <time>2022-06-19T10:36:48Z</time>
      </trkpt>
      <trkpt lat="42.8555060" lon="-8.5727610">
        <ele>179.0</ele>
        <time>2022-06-19T10:36:49Z</time>
      </trkpt>
      <trkpt lat="42.8555680" lon="-8.5727510">
        <ele>179.0</ele>
        <time>2022-06-19T10:36:50Z</time>
      </trkpt>
      <trkpt lat="42.8556300" lon="-8.5727450">
        <ele>179.0</ele>
        <time>2022-06-19T10:36:51Z</time>
      </trkpt>
      <trkpt lat="42.8556910" lon="-8.5727460">
        <ele>178.0</ele>
        <time>2022-06-19T10:36:52Z</time>
      </trkpt>
      <trkpt lat="42.8557530" lon="-8.5727610">
        <ele>177.4</ele>
        <time>2022-06-19T10:36:53Z</time>
      </trkpt>
      <trkpt lat="42.8558100" lon="-8.5727860">
        <ele>177.4</ele>
        <time>2022-06-19T10:36:54Z</time>
      </trkpt>
      <trkpt lat="42.8558630" lon="-8.5728150">
        <ele>177.4</ele>
        <time>2022-06-19T10:36:55Z</time>
      </trkpt>
      <trkpt lat="42.8559080" lon="-8.5728460">
        <ele>178.4</ele>
        <time>2022-06-19T10:36:56Z</time>
      </trkpt>
      <trkpt lat="42.8559450" lon="-8.5728830">
        <ele>178.8</ele>
        <time>2022-06-19T10:36:57Z</time>
      </trkpt>
      <trkpt lat="42.8559780" lon="-8.5729200">
        <ele>178.8</ele>
        <time>2022-06-19T10:36:58Z</time>
      </trkpt>
      <trkpt lat="42.8560130" lon="-8.5729550">
        <ele>178.8</ele>
        <time>2022-06-19T10:36:59Z</time>
      </trkpt>
      <trkpt lat="42.8560510" lon="-8.5729830">
        <ele>179.4</ele>
        <time>2022-06-19T10:37:00Z</time>
      </trkpt>
      <trkpt lat="42.8560860" lon="-8.5730180">
        <ele>179.6</ele>
        <time>2022-06-19T10:37:01Z</time>
      </trkpt>
      <trkpt lat="42.8561230" lon="-8.5730460">
        <ele>179.6</ele>
        <time>2022-06-19T10:37:02Z</time>
      </trkpt>
      <trkpt lat="42.8561450" lon="-8.5730760">
        <ele>179.6</ele>
        <time>2022-06-19T10:37:03Z</time>
      </trkpt>
      <trkpt lat="42.8561660" lon="-8.5731080">
        <ele>179.6</ele>
        <time>2022-06-19T10:37:04Z</time>
      </trkpt>
      <trkpt lat="42.8561930" lon="-8.5731430">
        <ele>179.2</ele>
        <time>2022-06-19T10:37:05Z</time>
      </trkpt>
      <trkpt lat="42.8562150" lon="-8.5731800">
        <ele>179.2</ele>
        <time>2022-06-19T10:37:06Z</time>
      </trkpt>
      <trkpt lat="42.8562360" lon="-8.5732110">
        <ele>179.2</ele>
        <time>2022-06-19T10:37:07Z</time>
      </trkpt>
      <trkpt lat="42.8562510" lon="-8.5732450">
        <ele>180.2</ele>
        <time>2022-06-19T10:37:08Z</time>
      </trkpt>
      <trkpt lat="42.8562730" lon="-8.5732750">
        <ele>181.0</ele>
        <time>2022-06-19T10:37:09Z</time>
      </trkpt>
      <trkpt lat="42.8562900" lon="-8.5733060">
        <ele>181.0</ele>
        <time>2022-06-19T10:37:10Z</time>
      </trkpt>
      <trkpt lat="42.8563010" lon="-8.5733330">
        <ele>181.0</ele>
        <time>2022-06-19T10:37:11Z</time>
      </trkpt>
      <trkpt lat="42.8563100" lon="-8.5733500">
        <ele>182.0</ele>
        <time>2022-06-19T10:37:12Z</time>
      </trkpt>
      <trkpt lat="42.8563130" lon="-8.5733710">
        <ele>182.2</ele>
        <time>2022-06-19T10:37:13Z</time>
      </trkpt>
      <trkpt lat="42.8563250" lon="-8.5733910">
        <ele>182.2</ele>
        <time>2022-06-19T10:37:14Z</time>
      </trkpt>
      <trkpt lat="42.8563330" lon="-8.5734150">
        <ele>182.2</ele>
        <time>2022-06-19T10:37:15Z</time>
      </trkpt>
      <trkpt lat="42.8563480" lon="-8.5734330">
        <ele>182.2</ele>
        <time>2022-06-19T10:37:16Z</time>
      </trkpt>
      <trkpt lat="42.8563600" lon="-8.5734530">
        <ele>183.0</ele>
        <time>2022-06-19T10:37:17Z</time>
      </trkpt>
      <trkpt lat="42.8563710" lon="-8.5734760">
        <ele>183.0</ele>
        <time>2022-06-19T10:37:18Z</time>
      </trkpt>
      <trkpt lat="42.8563810" lon="-8.5735030">
        <ele>183.0</ele>
        <time>2022-06-19T10:37:19Z</time>
      </trkpt>
      <trkpt lat="42.8563910" lon="-8.5735260">
        <ele>183.0</ele>
        <time>2022-06-19T10:37:20Z</time>
      </trkpt>
      <trkpt lat="42.8563930" lon="-8.5735500">
        <ele>183.2</ele>
        <time>2022-06-19T10:37:21Z</time>
      </trkpt>
      <trkpt lat="42.8563960" lon="-8.5735730">
        <ele>183.2</ele>
        <time>2022-06-19T10:37:22Z</time>
      </trkpt>
      <trkpt lat="42.8564030" lon="-8.5735950">
        <ele>183.2</ele>
        <time>2022-06-19T10:37:23Z</time>
      </trkpt>
      <trkpt lat="42.8564080" lon="-8.5736180">
        <ele>184.2</ele>
        <time>2022-06-19T10:37:24Z</time>
      </trkpt>
      <trkpt lat="42.8564110" lon="-8.5736400">
        <ele>184.8</ele>
        <time>2022-06-19T10:37:25Z</time>
      </trkpt>
      <trkpt lat="42.8564130" lon="-8.5736600">
        <ele>184.8</ele>
        <time>2022-06-19T10:37:26Z</time>
      </trkpt>
      <trkpt lat="42.8564210" lon="-8.5736830">
        <ele>184.8</ele>
        <time>2022-06-19T10:37:27Z</time>
      </trkpt>
      <trkpt lat="42.8564250" lon="-8.5737060">
        <ele>184.8</ele>
        <time>2022-06-19T10:37:28Z</time>
      </trkpt>
      <trkpt lat="42.8564300" lon="-8.5737300">
        <ele>185.6</ele>
        <time>2022-06-19T10:37:29Z</time>
      </trkpt>
      <trkpt lat="42.8564350" lon="-8.5737480">
        <ele>185.6</ele>
        <time>2022-06-19T10:37:30Z</time>
      </trkpt>
      <trkpt lat="42.8564360" lon="-8.5737700">
        <ele>185.6</ele>
        <time>2022-06-19T10:37:31Z</time>
      </trkpt>
      <trkpt lat="42.8564380" lon="-8.5737930">
        <ele>186.4</ele>
        <time>2022-06-19T10:37:32Z</time>
      </trkpt>
      <trkpt lat="42.8564400" lon="-8.5738160">
        <ele>186.4</ele>
        <time>2022-06-19T10:37:33Z</time>
      </trkpt>
      <trkpt lat="42.8564430" lon="-8.5738380">
        <ele>186.4</ele>
        <time>2022-06-19T10:37:34Z</time>
      </trkpt>
      <trkpt lat="42.8564450" lon="-8.5738610">
        <ele>186.4</ele>
        <time>2022-06-19T10:37:35Z</time>
      </trkpt>
      <trkpt lat="42.8564410" lon="-8.5738860">
        <ele>187.2</ele>
        <time>2022-06-19T10:37:36Z</time>
      </trkpt>
      <trkpt lat="42.8564400" lon="-8.5739100">
        <ele>188.0</ele>
        <time>2022-06-19T10:37:37Z</time>
      </trkpt>
      <trkpt lat="42.8564380" lon="-8.5739330">
        <ele>188.0</ele>
        <time>2022-06-19T10:37:38Z</time>
      </trkpt>
      <trkpt lat="42.8564400" lon="-8.5739550">
        <ele>188.0</ele>
        <time>2022-06-19T10:37:39Z</time>
      </trkpt>
      <trkpt lat="42.8564430" lon="-8.5739750">
        <ele>188.0</ele>
        <time>2022-06-19T10:37:40Z</time>
      </trkpt>
      <trkpt lat="42.8564450" lon="-8.5739950">
        <ele>188.8</ele>
        <time>2022-06-19T10:37:41Z</time>
      </trkpt>
      <trkpt lat="42.8564450" lon="-8.5740110">
        <ele>188.8</ele>
        <time>2022-06-19T10:37:42Z</time>
      </trkpt>
      <trkpt lat="42.8564450" lon="-8.5740300">
        <ele>188.8</ele>
        <time>2022-06-19T10:37:43Z</time>
      </trkpt>
      <trkpt lat="42.8564480" lon="-8.5740510">
        <ele>189.4</ele>
        <time>2022-06-19T10:37:44Z</time>
      </trkpt>
      <trkpt lat="42.8564500" lon="-8.5740730">
        <ele>189.6</ele>
        <time>2022-06-19T10:37:45Z</time>
      </trkpt>
      <trkpt lat="42.8564510" lon="-8.5740930">
        <ele>189.6</ele>
        <time>2022-06-19T10:37:46Z</time>
      </trkpt>
      <trkpt lat="42.8564530" lon="-8.5741130">
        <ele>189.6</ele>
        <time>2022-06-19T10:37:47Z</time>
      </trkpt>
      <trkpt lat="42.8564530" lon="-8.5741330">
        <ele>189.6</ele>
        <time>2022-06-19T10:37:48Z</time>
      </trkpt>
      <trkpt lat="42.8564560" lon="-8.5741530">
        <ele>189.8</ele>
        <time>2022-06-19T10:37:49Z</time>
      </trkpt>
      <trkpt lat="42.8564610" lon="-8.5741730">
        <ele>189.8</ele>
        <time>2022-06-19T10:37:50Z</time>
      </trkpt>
      <trkpt lat="42.8564630" lon="-8.5741930">
        <ele>189.8</ele>
        <time>2022-06-19T10:37:51Z</time>
      </trkpt>
      <trkpt lat="42.8564650" lon="-8.5742110">
        <ele>189.8</ele>
        <time>2022-06-19T10:37:52Z</time>
      </trkpt>
      <trkpt lat="42.8564630" lon="-8.5742300">
        <ele>190.2</ele>
        <time>2022-06-19T10:37:53Z</time>
      </trkpt>
      <trkpt lat="42.8564630" lon="-8.5742500">
        <ele>190.2</ele>
        <time>2022-06-19T10:37:54Z</time>
      </trkpt>
      <trkpt lat="42.8564660" lon="-8.5742700">
        <ele>190.2</ele>
        <time>2022-06-19T10:37:55Z</time>
      </trkpt>
      <trkpt lat="42.8564680" lon="-8.5742900">
        <ele>190.6</ele>
        <time>2022-06-19T10:37:56Z</time>
      </trkpt>
      <trkpt lat="42.8564660" lon="-8.5743080">
        <ele>191.0</ele>
        <time>2022-06-19T10:37:57Z</time>
      </trkpt>
      <trkpt lat="42.8564680" lon="-8.5743280">
        <ele>191.0</ele>
        <time>2022-06-19T10:37:58Z</time>
      </trkpt>
      <trkpt lat="42.8564650" lon="-8.5743500">
        <ele>191.0</ele>
        <time>2022-06-19T10:37:59Z</time>
      </trkpt>
      <trkpt lat="42.8564650" lon="-8.5743700">
        <ele>191.2</ele>
        <time>2022-06-19T10:38:00Z</time>
      </trkpt>
      <trkpt lat="42.8564660" lon="-8.5743900">
        <ele>191.2</ele>
        <time>2022-06-19T10:38:01Z</time>
      </trkpt>
      <trkpt lat="42.8564700" lon="-8.5744110">
        <ele>191.2</ele>
        <time>2022-06-19T10:38:02Z</time>
      </trkpt>
      <trkpt lat="42.8564730" lon="-8.5744300">
        <ele>191.2</ele>
        <time>2022-06-19T10:38:03Z</time>
      </trkpt>
      <trkpt lat="42.8564750" lon="-8.5744500">
        <ele>192.2</ele>
        <time>2022-06-19T10:38:04Z</time>
      </trkpt>
      <trkpt lat="42.8564730" lon="-8.5744700">
        <ele>193.2</ele>
        <time>2022-06-19T10:38:05Z</time>
      </trkpt>
      <trkpt lat="42.8564710" lon="-8.5744880">
        <ele>193.2</ele>
        <time>2022-06-19T10:38:06Z</time>
      </trkpt>
      <trkpt lat="42.8564700" lon="-8.5745060">
        <ele>193.2</ele>
        <time>2022-06-19T10:38:07Z</time>
      </trkpt>
      <trkpt lat="42.8564680" lon="-8.5745260">
        <ele>194.0</ele>
        <time>2022-06-19T10:38:08Z</time>
      </trkpt>
      <trkpt lat="42.8564660" lon="-8.5745460">
        <ele>193.8</ele>
        <time>2022-06-19T10:38:09Z</time>
      </trkpt>
      <trkpt lat="42.8564680" lon="-8.5745660">
        <ele>193.8</ele>
        <time>2022-06-19T10:38:10Z</time>
      </trkpt>
      <trkpt lat="42.8564700" lon="-8.5745880">
        <ele>193.8</ele>
        <time>2022-06-19T10:38:11Z</time>
      </trkpt>
      <trkpt lat="42.8564730" lon="-8.5746080">
        <ele>194.2</ele>
        <time>2022-06-19T10:38:12Z</time>
      </trkpt>
      <trkpt lat="42.8564750" lon="-8.5746280">
        <ele>194.6</ele>
        <time>2022-06-19T10:38:13Z</time>
      </trkpt>
      <trkpt lat="42.8564760" lon="-8.5746460">
        <ele>194.6</ele>
        <time>2022-06-19T10:38:14Z</time>
      </trkpt>
      <trkpt lat="42.8564760" lon="-8.5746660">
        <ele>194.6</ele>
        <time>2022-06-19T10:38:15Z</time>
      </trkpt>
      <trkpt lat="42.8564760" lon="-8.5746860">
        <ele>194.6</ele>
        <time>2022-06-19T10:38:16Z</time>
      </trkpt>
      <trkpt lat="42.8564710" lon="-8.5747010">
        <ele>195.2</ele>
        <time>2022-06-19T10:38:17Z</time>
      </trkpt>
      <trkpt lat="42.8564700" lon="-8.5747210">
        <ele>195.2</ele>
        <time>2022-06-19T10:38:18Z</time>
      </trkpt>
      <trkpt lat="42.8564660" lon="-8.5747400">
        <ele>195.2</ele>
        <time>2022-06-19T10:38:19Z</time>
      </trkpt>
      <trkpt lat="42.8564660" lon="-8.5747580">
        <ele>195.2</ele>
        <time>2022-06-19T10:38:20Z</time>
      </trkpt>
      <trkpt lat="42.8564730" lon="-8.5747780">
        <ele>195.6</ele>
        <time>2022-06-19T10:38:21Z</time>
      </trkpt>
      <trkpt lat="42.8564810" lon="-8.5747930">
        <ele>195.6</ele>
        <time>2022-06-19T10:38:22Z</time>
      </trkpt>
      <trkpt lat="42.8564880" lon="-8.5748080">
        <ele>195.6</ele>
        <time>2022-06-19T10:38:23Z</time>
      </trkpt>
      <trkpt lat="42.8564950" lon="-8.5748210">
        <ele>196.6</ele>
        <time>2022-06-19T10:38:24Z</time>
      </trkpt>
      <trkpt lat="42.8565030" lon="-8.5748400">
        <ele>197.6</ele>
        <time>2022-06-19T10:38:25Z</time>
      </trkpt>
      <trkpt lat="42.8565100" lon="-8.5748560">
        <ele>197.6</ele>
        <time>2022-06-19T10:38:26Z</time>
      </trkpt>
      <trkpt lat="42.8565150" lon="-8.5748730">
        <ele>197.6</ele>
        <time>2022-06-19T10:38:27Z</time>
      </trkpt>
      <trkpt lat="42.8565200" lon="-8.5748880">
        <ele>197.6</ele>
        <time>2022-06-19T10:38:28Z</time>
      </trkpt>
      <trkpt lat="42.8565250" lon="-8.5749050">
        <ele>197.4</ele>
        <time>2022-06-19T10:38:29Z</time>
      </trkpt>
      <trkpt lat="42.8565260" lon="-8.5749210">
        <ele>197.4</ele>
        <time>2022-06-19T10:38:30Z</time>
      </trkpt>
      <trkpt lat="42.8565310" lon="-8.5749380">
        <ele>197.4</ele>
        <time>2022-06-19T10:38:31Z</time>
      </trkpt>
      <trkpt lat="42.8565380" lon="-8.5749560">
        <ele>198.4</ele>
        <time>2022-06-19T10:38:32Z</time>
      </trkpt>
      <trkpt lat="42.8565430" lon="-8.5749750">
        <ele>199.6</ele>
        <time>2022-06-19T10:38:33Z</time>
      </trkpt>
      <trkpt lat="42.8565510" lon="-8.5749910">
        <ele>199.6</ele>
        <time>2022-06-19T10:38:34Z</time>
      </trkpt>
      <trkpt lat="42.8565580" lon="-8.5750080">
        <ele>199.6</ele>
        <time>2022-06-19T10:38:35Z</time>
      </trkpt>
      <trkpt lat="42.8565660" lon="-8.5750260">
        <ele>199.6</ele>
        <time>2022-06-19T10:38:36Z</time>
      </trkpt>
      <trkpt lat="42.8565730" lon="-8.5750430">
        <ele>199.6</ele>
        <time>2022-06-19T10:38:37Z</time>
      </trkpt>
      <trkpt lat="42.8565800" lon="-8.5750600">
        <ele>199.6</ele>
        <time>2022-06-19T10:38:38Z</time>
      </trkpt>
      <trkpt lat="42.8565850" lon="-8.5750780">
        <ele>199.6</ele>
        <time>2022-06-19T10:38:39Z</time>
      </trkpt>
      <trkpt lat="42.8565910" lon="-8.5750980">
        <ele>200.0</ele>
        <time>2022-06-19T10:38:40Z</time>
      </trkpt>
      <trkpt lat="42.8566000" lon="-8.5751180">
        <ele>199.6</ele>
        <time>2022-06-19T10:38:41Z</time>
      </trkpt>
      <trkpt lat="42.8566100" lon="-8.5751360">
        <ele>199.6</ele>
        <time>2022-06-19T10:38:42Z</time>
      </trkpt>
      <trkpt lat="42.8566200" lon="-8.5751550">
        <ele>199.6</ele>
        <time>2022-06-19T10:38:43Z</time>
      </trkpt>
      <trkpt lat="42.8566310" lon="-8.5751710">
        <ele>199.8</ele>
        <time>2022-06-19T10:38:44Z</time>
      </trkpt>
      <trkpt lat="42.8566410" lon="-8.5751880">
        <ele>200.0</ele>
        <time>2022-06-19T10:38:45Z</time>
      </trkpt>
      <trkpt lat="42.8566530" lon="-8.5752030">
        <ele>200.0</ele>
        <time>2022-06-19T10:38:46Z</time>
      </trkpt>
      <trkpt lat="42.8566660" lon="-8.5752180">
        <ele>200.0</ele>
        <time>2022-06-19T10:38:47Z</time>
      </trkpt>
      <trkpt lat="42.8566780" lon="-8.5752310">
        <ele>201.0</ele>
        <time>2022-06-19T10:38:48Z</time>
      </trkpt>
      <trkpt lat="42.8566930" lon="-8.5752450">
        <ele>200.6</ele>
        <time>2022-06-19T10:38:49Z</time>
      </trkpt>
      <trkpt lat="42.8567100" lon="-8.5752600">
        <ele>200.6</ele>
        <time>2022-06-19T10:38:50Z</time>
      </trkpt>
      <trkpt lat="42.8567260" lon="-8.5752750">
        <ele>200.6</ele>
        <time>2022-06-19T10:38:51Z</time>
      </trkpt>
      <trkpt lat="42.8567450" lon="-8.5752880">
        <ele>200.6</ele>
        <time>2022-06-19T10:38:52Z</time>
      </trkpt>
      <trkpt lat="42.8567630" lon="-8.5753050">
        <ele>200.6</ele>
        <time>2022-06-19T10:38:53Z</time>
      </trkpt>
      <trkpt lat="42.8567810" lon="-8.5753150">
        <ele>200.6</ele>
        <time>2022-06-19T10:38:54Z</time>
      </trkpt>
      <trkpt lat="42.8568010" lon="-8.5753260">
        <ele>200.6</ele>
        <time>2022-06-19T10:38:55Z</time>
      </trkpt>
      <trkpt lat="42.8568250" lon="-8.5753350">
        <ele>200.6</ele>
        <time>2022-06-19T10:38:56Z</time>
      </trkpt>
      <trkpt lat="42.8568460" lon="-8.5753480">
        <ele>200.6</ele>
        <time>2022-06-19T10:38:57Z</time>
      </trkpt>
      <trkpt lat="42.8568660" lon="-8.5753600">
        <ele>200.6</ele>
        <time>2022-06-19T10:38:58Z</time>
      </trkpt>
      <trkpt lat="42.8568930" lon="-8.5753710">
        <ele>200.6</ele>
        <time>2022-06-19T10:38:59Z</time>
      </trkpt>
      <trkpt lat="42.8569230" lon="-8.5753830">
        <ele>200.0</ele>
        <time>2022-06-19T10:39:00Z</time>
      </trkpt>
      <trkpt lat="42.8569510" lon="-8.5753980">
        <ele>199.6</ele>
        <time>2022-06-19T10:39:01Z</time>
      </trkpt>
      <trkpt lat="42.8569850" lon="-8.5754110">
        <ele>199.6</ele>
        <time>2022-06-19T10:39:02Z</time>
      </trkpt>
      <trkpt lat="42.8570210" lon="-8.5754250">
        <ele>199.6</ele>
        <time>2022-06-19T10:39:03Z</time>
      </trkpt>
      <trkpt lat="42.8570610" lon="-8.5754430">
        <ele>198.6</ele>
        <time>2022-06-19T10:39:04Z</time>
      </trkpt>
      <trkpt lat="42.8571010" lon="-8.5754650">
        <ele>197.4</ele>
        <time>2022-06-19T10:39:05Z</time>
      </trkpt>
      <trkpt lat="42.8571400" lon="-8.5754850">
        <ele>197.4</ele>
        <time>2022-06-19T10:39:06Z</time>
      </trkpt>
      <trkpt lat="42.8571810" lon="-8.5755110">
        <ele>197.4</ele>
        <time>2022-06-19T10:39:07Z</time>
      </trkpt>
      <trkpt lat="42.8572230" lon="-8.5755400">
        <ele>196.4</ele>
        <time>2022-06-19T10:39:08Z</time>
      </trkpt>
      <trkpt lat="42.8572660" lon="-8.5755700">
        <ele>195.4</ele>
        <time>2022-06-19T10:39:09Z</time>
      </trkpt>
      <trkpt lat="42.8573110" lon="-8.5756000">
        <ele>195.4</ele>
        <time>2022-06-19T10:39:10Z</time>
      </trkpt>
      <trkpt lat="42.8573560" lon="-8.5756310">
        <ele>195.4</ele>
        <time>2022-06-19T10:39:11Z</time>
      </trkpt>
      <trkpt lat="42.8574030" lon="-8.5756610">
        <ele>195.4</ele>
        <time>2022-06-19T10:39:12Z</time>
      </trkpt>
      <trkpt lat="42.8574460" lon="-8.5757000">
        <ele>196.0</ele>
        <time>2022-06-19T10:39:13Z</time>
      </trkpt>
      <trkpt lat="42.8574900" lon="-8.5757430">
        <ele>196.0</ele>
        <time>2022-06-19T10:39:14Z</time>
      </trkpt>
      <trkpt lat="42.8575310" lon="-8.5757800">
        <ele>196.0</ele>
        <time>2022-06-19T10:39:15Z</time>
      </trkpt>
      <trkpt lat="42.8575750" lon="-8.5758210">
        <ele>195.8</ele>
        <time>2022-06-19T10:39:16Z</time>
      </trkpt>
      <trkpt lat="42.8576200" lon="-8.5758600">
        <ele>195.6</ele>
        <time>2022-06-19T10:39:17Z</time>
      </trkpt>
      <trkpt lat="42.8576660" lon="-8.5759010">
        <ele>195.6</ele>
        <time>2022-06-19T10:39:18Z</time>
      </trkpt>
      <trkpt lat="42.8577130" lon="-8.5759450">
        <ele>195.6</ele>
        <time>2022-06-19T10:39:19Z</time>
      </trkpt>
      <trkpt lat="42.8577580" lon="-8.5759930">
        <ele>195.0</ele>
        <time>2022-06-19T10:39:20Z</time>
      </trkpt>
      <trkpt lat="42.8578030" lon="-8.5760380">
        <ele>195.0</ele>
        <time>2022-06-19T10:39:21Z</time>
      </trkpt>
      <trkpt lat="42.8578510" lon="-8.5760810">
        <ele>195.0</ele>
        <time>2022-06-19T10:39:22Z</time>
      </trkpt>
      <trkpt lat="42.8578980" lon="-8.5761260">
        <ele>195.0</ele>
        <time>2022-06-19T10:39:23Z</time>
      </trkpt>
      <trkpt lat="42.8579450" lon="-8.5761750">
        <ele>194.0</ele>
        <time>2022-06-19T10:39:24Z</time>
      </trkpt>
      <trkpt lat="42.8579880" lon="-8.5762230">
        <ele>193.0</ele>
        <time>2022-06-19T10:39:25Z</time>
      </trkpt>
      <trkpt lat="42.8580310" lon="-8.5762730">
        <ele>193.0</ele>
        <time>2022-06-19T10:39:26Z</time>
      </trkpt>
      <trkpt lat="42.8580730" lon="-8.5763230">
        <ele>193.0</ele>
        <time>2022-06-19T10:39:27Z</time>
      </trkpt>
      <trkpt lat="42.8581130" lon="-8.5763780">
        <ele>192.0</ele>
        <time>2022-06-19T10:39:28Z</time>
      </trkpt>
      <trkpt lat="42.8581600" lon="-8.5764260">
        <ele>190.2</ele>
        <time>2022-06-19T10:39:29Z</time>
      </trkpt>
      <trkpt lat="42.8582080" lon="-8.5764680">
        <ele>190.2</ele>
        <time>2022-06-19T10:39:30Z</time>
      </trkpt>
      <trkpt lat="42.8582600" lon="-8.5765160">
        <ele>190.2</ele>
        <time>2022-06-19T10:39:31Z</time>
      </trkpt>
      <trkpt lat="42.8583130" lon="-8.5765610">
        <ele>190.2</ele>
        <time>2022-06-19T10:39:32Z</time>
      </trkpt>
      <trkpt lat="42.8583660" lon="-8.5766030">
        <ele>188.4</ele>
        <time>2022-06-19T10:39:33Z</time>
      </trkpt>
      <trkpt lat="42.8584180" lon="-8.5766530">
        <ele>188.4</ele>
        <time>2022-06-19T10:39:34Z</time>
      </trkpt>
      <trkpt lat="42.8584680" lon="-8.5767080">
        <ele>188.4</ele>
        <time>2022-06-19T10:39:35Z</time>
      </trkpt>
      <trkpt lat="42.8585160" lon="-8.5767550">
        <ele>188.4</ele>
        <time>2022-06-19T10:39:36Z</time>
      </trkpt>
      <trkpt lat="42.8585630" lon="-8.5768030">
        <ele>189.4</ele>
        <time>2022-06-19T10:39:37Z</time>
      </trkpt>
      <trkpt lat="42.8586050" lon="-8.5768550">
        <ele>189.4</ele>
        <time>2022-06-19T10:39:38Z</time>
      </trkpt>
      <trkpt lat="42.8586460" lon="-8.5769080">
        <ele>189.4</ele>
        <time>2022-06-19T10:39:39Z</time>
      </trkpt>
      <trkpt lat="42.8586860" lon="-8.5769610">
        <ele>189.0</ele>
        <time>2022-06-19T10:39:40Z</time>
      </trkpt>
      <trkpt lat="42.8587300" lon="-8.5770080">
        <ele>189.0</ele>
        <time>2022-06-19T10:39:41Z</time>
      </trkpt>
      <trkpt lat="42.8587760" lon="-8.5770510">
        <ele>189.0</ele>
        <time>2022-06-19T10:39:42Z</time>
      </trkpt>
      <trkpt lat="42.8588210" lon="-8.5770810">
        <ele>189.0</ele>
        <time>2022-06-19T10:39:43Z</time>
      </trkpt>
      <trkpt lat="42.8588760" lon="-8.5770980">
        <ele>189.0</ele>
        <time>2022-06-19T10:39:44Z</time>
      </trkpt>
      <trkpt lat="42.8589210" lon="-8.5770930">
        <ele>189.6</ele>
        <time>2022-06-19T10:39:45Z</time>
      </trkpt>
      <trkpt lat="42.8589680" lon="-8.5770830">
        <ele>189.6</ele>
        <time>2022-06-19T10:39:46Z</time>
      </trkpt>
      <trkpt lat="42.8590160" lon="-8.5770780">
        <ele>189.6</ele>
        <time>2022-06-19T10:39:47Z</time>
      </trkpt>
      <trkpt lat="42.8590660" lon="-8.5770710">
        <ele>189.6</ele>
        <time>2022-06-19T10:39:48Z</time>
      </trkpt>
      <trkpt lat="42.8591080" lon="-8.5770660">
        <ele>189.0</ele>
        <time>2022-06-19T10:39:49Z</time>
      </trkpt>
      <trkpt lat="42.8591510" lon="-8.5770560">
        <ele>189.0</ele>
        <time>2022-06-19T10:39:50Z</time>
      </trkpt>
      <trkpt lat="42.8591980" lon="-8.5770350">
        <ele>189.0</ele>
        <time>2022-06-19T10:39:51Z</time>
      </trkpt>
      <trkpt lat="42.8592410" lon="-8.5770080">
        <ele>189.8</ele>
        <time>2022-06-19T10:39:52Z</time>
      </trkpt>
      <trkpt lat="42.8592860" lon="-8.5769750">
        <ele>189.0</ele>
        <time>2022-06-19T10:39:53Z</time>
      </trkpt>
      <trkpt lat="42.8593280" lon="-8.5769360">
        <ele>189.0</ele>
        <time>2022-06-19T10:39:54Z</time>
      </trkpt>
      <trkpt lat="42.8593810" lon="-8.5768950">
        <ele>189.0</ele>
        <time>2022-06-19T10:39:55Z</time>
      </trkpt>
      <trkpt lat="42.8594360" lon="-8.5768600">
        <ele>189.0</ele>
        <time>2022-06-19T10:39:56Z</time>
      </trkpt>
      <trkpt lat="42.8594960" lon="-8.5768230">
        <ele>187.0</ele>
        <time>2022-06-19T10:39:57Z</time>
      </trkpt>
      <trkpt lat="42.8595510" lon="-8.5767830">
        <ele>187.0</ele>
        <time>2022-06-19T10:39:58Z</time>
      </trkpt>
      <trkpt lat="42.8596060" lon="-8.5767410">
        <ele>187.0</ele>
        <time>2022-06-19T10:39:59Z</time>
      </trkpt>
      <trkpt lat="42.8596630" lon="-8.5767050">
        <ele>187.0</ele>
        <time>2022-06-19T10:40:00Z</time>
      </trkpt>
      <trkpt lat="42.8597200" lon="-8.5766760">
        <ele>187.4</ele>
        <time>2022-06-19T10:40:01Z</time>
      </trkpt>
      <trkpt lat="42.8597750" lon="-8.5766580">
        <ele>187.4</ele>
        <time>2022-06-19T10:40:02Z</time>
      </trkpt>
      <trkpt lat="42.8598260" lon="-8.5766560">
        <ele>187.4</ele>
        <time>2022-06-19T10:40:03Z</time>
      </trkpt>
      <trkpt lat="42.8598710" lon="-8.5766750">
        <ele>187.4</ele>
        <time>2022-06-19T10:40:04Z</time>
      </trkpt>
      <trkpt lat="42.8599060" lon="-8.5767030">
        <ele>188.2</ele>
        <time>2022-06-19T10:40:05Z</time>
      </trkpt>
      <trkpt lat="42.8599380" lon="-8.5767300">
        <ele>188.2</ele>
        <time>2022-06-19T10:40:06Z</time>
      </trkpt>
      <trkpt lat="42.8599630" lon="-8.5767580">
        <ele>188.2</ele>
        <time>2022-06-19T10:40:07Z</time>
      </trkpt>
      <trkpt lat="42.8599850" lon="-8.5767800">
        <ele>189.2</ele>
        <time>2022-06-19T10:40:08Z</time>
      </trkpt>
      <trkpt lat="42.8599980" lon="-8.5767980">
        <ele>190.2</ele>
        <time>2022-06-19T10:40:09Z</time>
      </trkpt>
      <trkpt lat="42.8600150" lon="-8.5768110">
        <ele>190.2</ele>
        <time>2022-06-19T10:40:10Z</time>
      </trkpt>
      <trkpt lat="42.8600280" lon="-8.5768260">
        <ele>190.2</ele>
        <time>2022-06-19T10:40:11Z</time>
      </trkpt>
      <trkpt lat="42.8600380" lon="-8.5768380">
        <ele>190.2</ele>
        <time>2022-06-19T10:40:12Z</time>
      </trkpt>
      <trkpt lat="42.8600500" lon="-8.5768500">
        <ele>191.2</ele>
        <time>2022-06-19T10:40:13Z</time>
      </trkpt>
      <trkpt lat="42.8600660" lon="-8.5768650">
        <ele>191.2</ele>
        <time>2022-06-19T10:40:14Z</time>
      </trkpt>
      <trkpt lat="42.8600830" lon="-8.5768780">
        <ele>191.2</ele>
        <time>2022-06-19T10:40:15Z</time>
      </trkpt>
      <trkpt lat="42.8601010" lon="-8.5768900">
        <ele>192.0</ele>
        <time>2022-06-19T10:40:16Z</time>
      </trkpt>
      <trkpt lat="42.8601180" lon="-8.5768980">
        <ele>191.8</ele>
        <time>2022-06-19T10:40:17Z</time>
      </trkpt>
      <trkpt lat="42.8601310" lon="-8.5769110">
        <ele>191.8</ele>
        <time>2022-06-19T10:40:18Z</time>
      </trkpt>
      <trkpt lat="42.8601500" lon="-8.5769180">
        <ele>191.8</ele>
        <time>2022-06-19T10:40:19Z</time>
      </trkpt>
      <trkpt lat="42.8601680" lon="-8.5769280">
        <ele>191.8</ele>
        <time>2022-06-19T10:40:20Z</time>
      </trkpt>
      <trkpt lat="42.8601850" lon="-8.5769380">
        <ele>192.4</ele>
        <time>2022-06-19T10:40:21Z</time>
      </trkpt>
      <trkpt lat="42.8602030" lon="-8.5769510">
        <ele>192.4</ele>
        <time>2022-06-19T10:40:22Z</time>
      </trkpt>
      <trkpt lat="42.8602230" lon="-8.5769660">
        <ele>192.4</ele>
        <time>2022-06-19T10:40:23Z</time>
      </trkpt>
      <trkpt lat="42.8602460" lon="-8.5769800">
        <ele>192.4</ele>
        <time>2022-06-19T10:40:24Z</time>
      </trkpt>
      <trkpt lat="42.8602660" lon="-8.5769860">
        <ele>192.4</ele>
        <time>2022-06-19T10:40:25Z</time>
      </trkpt>
      <trkpt lat="42.8602900" lon="-8.5769930">
        <ele>192.4</ele>
        <time>2022-06-19T10:40:26Z</time>
      </trkpt>
      <trkpt lat="42.8603130" lon="-8.5769980">
        <ele>192.4</ele>
        <time>2022-06-19T10:40:27Z</time>
      </trkpt>
      <trkpt lat="42.8603400" lon="-8.5770080">
        <ele>192.4</ele>
        <time>2022-06-19T10:40:28Z</time>
      </trkpt>
      <trkpt lat="42.8603650" lon="-8.5770160">
        <ele>192.6</ele>
        <time>2022-06-19T10:40:29Z</time>
      </trkpt>
      <trkpt lat="42.8603910" lon="-8.5770250">
        <ele>192.6</ele>
        <time>2022-06-19T10:40:30Z</time>
      </trkpt>
      <trkpt lat="42.8604180" lon="-8.5770310">
        <ele>192.6</ele>
        <time>2022-06-19T10:40:31Z</time>
      </trkpt>
      <trkpt lat="42.8604460" lon="-8.5770350">
        <ele>192.6</ele>
        <time>2022-06-19T10:40:32Z</time>
      </trkpt>
      <trkpt lat="42.8604760" lon="-8.5770330">
        <ele>192.4</ele>
        <time>2022-06-19T10:40:33Z</time>
      </trkpt>
      <trkpt lat="42.8605100" lon="-8.5770350">
        <ele>192.4</ele>
        <time>2022-06-19T10:40:34Z</time>
      </trkpt>
      <trkpt lat="42.8605450" lon="-8.5770380">
        <ele>192.4</ele>
        <time>2022-06-19T10:40:35Z</time>
      </trkpt>
      <trkpt lat="42.8605830" lon="-8.5770450">
        <ele>192.4</ele>
        <time>2022-06-19T10:40:36Z</time>
      </trkpt>
      <trkpt lat="42.8606210" lon="-8.5770530">
        <ele>193.0</ele>
        <time>2022-06-19T10:40:37Z</time>
      </trkpt>
      <trkpt lat="42.8606600" lon="-8.5770660">
        <ele>193.0</ele>
        <time>2022-06-19T10:40:38Z</time>
      </trkpt>
      <trkpt lat="42.8606980" lon="-8.5770810">
        <ele>193.0</ele>
        <time>2022-06-19T10:40:39Z</time>
      </trkpt>
      <trkpt lat="42.8607330" lon="-8.5770950">
        <ele>193.0</ele>
        <time>2022-06-19T10:40:40Z</time>
      </trkpt>
      <trkpt lat="42.8607710" lon="-8.5771060">
        <ele>192.4</ele>
        <time>2022-06-19T10:40:41Z</time>
      </trkpt>
      <trkpt lat="42.8608130" lon="-8.5771150">
        <ele>192.4</ele>
        <time>2022-06-19T10:40:42Z</time>
      </trkpt>
      <trkpt lat="42.8608530" lon="-8.5771230">
        <ele>192.4</ele>
        <time>2022-06-19T10:40:43Z</time>
      </trkpt>
      <trkpt lat="42.8608910" lon="-8.5771330">
        <ele>192.4</ele>
        <time>2022-06-19T10:40:44Z</time>
      </trkpt>
      <trkpt lat="42.8609210" lon="-8.5771460">
        <ele>193.0</ele>
        <time>2022-06-19T10:40:45Z</time>
      </trkpt>
      <trkpt lat="42.8609480" lon="-8.5771530">
        <ele>193.0</ele>
        <time>2022-06-19T10:40:46Z</time>
      </trkpt>
      <trkpt lat="42.8609780" lon="-8.5771530">
        <ele>193.0</ele>
        <time>2022-06-19T10:40:47Z</time>
      </trkpt>
      <trkpt lat="42.8610000" lon="-8.5771460">
        <ele>194.0</ele>
        <time>2022-06-19T10:40:48Z</time>
      </trkpt>
      <trkpt lat="42.8610210" lon="-8.5771480">
        <ele>194.6</ele>
        <time>2022-06-19T10:40:49Z</time>
      </trkpt>
      <trkpt lat="42.8610460" lon="-8.5771450">
        <ele>194.6</ele>
        <time>2022-06-19T10:40:50Z</time>
      </trkpt>
      <trkpt lat="42.8610760" lon="-8.5771400">
        <ele>194.6</ele>
        <time>2022-06-19T10:40:51Z</time>
      </trkpt>
      <trkpt lat="42.8611030" lon="-8.5771330">
        <ele>194.6</ele>
        <time>2022-06-19T10:40:52Z</time>
      </trkpt>
      <trkpt lat="42.8611260" lon="-8.5771300">
        <ele>195.2</ele>
        <time>2022-06-19T10:40:53Z</time>
      </trkpt>
      <trkpt lat="42.8611460" lon="-8.5771260">
        <ele>195.2</ele>
        <time>2022-06-19T10:40:54Z</time>
      </trkpt>
      <trkpt lat="42.8611660" lon="-8.5771210">
        <ele>195.2</ele>
        <time>2022-06-19T10:40:55Z</time>
      </trkpt>
      <trkpt lat="42.8611860" lon="-8.5771180">
        <ele>195.2</ele>
        <time>2022-06-19T10:40:56Z</time>
      </trkpt>
      <trkpt lat="42.8612080" lon="-8.5771110">
        <ele>196.0</ele>
        <time>2022-06-19T10:40:57Z</time>
      </trkpt>
      <trkpt lat="42.8612350" lon="-8.5771110">
        <ele>196.0</ele>
        <time>2022-06-19T10:40:58Z</time>
      </trkpt>
      <trkpt lat="42.8612610" lon="-8.5771150">
        <ele>196.0</ele>
        <time>2022-06-19T10:40:59Z</time>
      </trkpt>
      <trkpt lat="42.8612860" lon="-8.5771060">
        <ele>197.0</ele>
        <time>2022-06-19T10:41:00Z</time>
      </trkpt>
      <trkpt lat="42.8613130" lon="-8.5770980">
        <ele>197.4</ele>
        <time>2022-06-19T10:41:01Z</time>
      </trkpt>
      <trkpt lat="42.8613310" lon="-8.5770960">
        <ele>197.4</ele>
        <time>2022-06-19T10:41:02Z</time>
      </trkpt>
      <trkpt lat="42.8613410" lon="-8.5770600">
        <ele>197.4</ele>
        <time>2022-06-19T10:41:03Z</time>
      </trkpt>
      <trkpt lat="42.8613650" lon="-8.5770280">
        <ele>197.4</ele>
        <time>2022-06-19T10:41:04Z</time>
      </trkpt>
      <trkpt lat="42.8613880" lon="-8.5770110">
        <ele>197.6</ele>
        <time>2022-06-19T10:41:05Z</time>
      </trkpt>
      <trkpt lat="42.8614080" lon="-8.5769950">
        <ele>197.6</ele>
        <time>2022-06-19T10:41:06Z</time>
      </trkpt>
      <trkpt lat="42.8614360" lon="-8.5769760">
        <ele>197.6</ele>
        <time>2022-06-19T10:41:07Z</time>
      </trkpt>
      <trkpt lat="42.8614600" lon="-8.5769460">
        <ele>197.6</ele>
        <time>2022-06-19T10:41:08Z</time>
      </trkpt>
      <trkpt lat="42.8614830" lon="-8.5769160">
        <ele>197.2</ele>
        <time>2022-06-19T10:41:09Z</time>
      </trkpt>
      <trkpt lat="42.8615060" lon="-8.5768830">
        <ele>197.2</ele>
        <time>2022-06-19T10:41:10Z</time>
      </trkpt>
      <trkpt lat="42.8615330" lon="-8.5768480">
        <ele>197.2</ele>
        <time>2022-06-19T10:41:11Z</time>
      </trkpt>
      <trkpt lat="42.8615580" lon="-8.5768200">
        <ele>196.2</ele>
        <time>2022-06-19T10:41:12Z</time>
      </trkpt>
      <trkpt lat="42.8615830" lon="-8.5767910">
        <ele>196.4</ele>
        <time>2022-06-19T10:41:13Z</time>
      </trkpt>
      <trkpt lat="42.8616100" lon="-8.5767610">
        <ele>196.4</ele>
        <time>2022-06-19T10:41:14Z</time>
      </trkpt>
      <trkpt lat="42.8616400" lon="-8.5767260">
        <ele>196.4</ele>
        <time>2022-06-19T10:41:15Z</time>
      </trkpt>
      <trkpt lat="42.8616680" lon="-8.5766930">
        <ele>196.4</ele>
        <time>2022-06-19T10:41:16Z</time>
      </trkpt>
      <trkpt lat="42.8616960" lon="-8.5766550">
        <ele>195.6</ele>
        <time>2022-06-19T10:41:17Z</time>
      </trkpt>
      <trkpt lat="42.8617260" lon="-8.5766130">
        <ele>195.6</ele>
        <time>2022-06-19T10:41:18Z</time>
      </trkpt>
      <trkpt lat="42.8617550" lon="-8.5765730">
        <ele>195.6</ele>
        <time>2022-06-19T10:41:19Z</time>
      </trkpt>
      <trkpt lat="42.8617780" lon="-8.5765300">
        <ele>195.4</ele>
        <time>2022-06-19T10:41:20Z</time>
      </trkpt>
      <trkpt lat="42.8618000" lon="-8.5764830">
        <ele>196.6</ele>
        <time>2022-06-19T10:41:21Z</time>
      </trkpt>
      <trkpt lat="42.8618250" lon="-8.5764380">
        <ele>196.6</ele>
        <time>2022-06-19T10:41:22Z</time>
      </trkpt>
      <trkpt lat="42.8618500" lon="-8.5763980">
        <ele>196.6</ele>
        <time>2022-06-19T10:41:23Z</time>
      </trkpt>
      <trkpt lat="42.8618760" lon="-8.5763580">
        <ele>195.6</ele>
        <time>2022-06-19T10:41:24Z</time>
      </trkpt>
      <trkpt lat="42.8619030" lon="-8.5763210">
        <ele>194.6</ele>
        <time>2022-06-19T10:41:25Z</time>
      </trkpt>
      <trkpt lat="42.8619300" lon="-8.5762860">
        <ele>194.6</ele>
        <time>2022-06-19T10:41:26Z</time>
      </trkpt>
      <trkpt lat="42.8619610" lon="-8.5762510">
        <ele>194.6</ele>
        <time>2022-06-19T10:41:27Z</time>
      </trkpt>
      <trkpt lat="42.8619980" lon="-8.5762180">
        <ele>194.6</ele>
        <time>2022-06-19T10:41:28Z</time>
      </trkpt>
      <trkpt lat="42.8620360" lon="-8.5761830">
        <ele>192.8</ele>
        <time>2022-06-19T10:41:29Z</time>
      </trkpt>
      <trkpt lat="42.8620760" lon="-8.5761400">
        <ele>192.8</ele>
        <time>2022-06-19T10:41:30Z</time>
      </trkpt>
      <trkpt lat="42.8621230" lon="-8.5760950">
        <ele>192.8</ele>
        <time>2022-06-19T10:41:31Z</time>
      </trkpt>
      <trkpt lat="42.8621760" lon="-8.5760430">
        <ele>191.8</ele>
        <time>2022-06-19T10:41:32Z</time>
      </trkpt>
      <trkpt lat="42.8622310" lon="-8.5759850">
        <ele>189.2</ele>
        <time>2022-06-19T10:41:33Z</time>
      </trkpt>
      <trkpt lat="42.8622950" lon="-8.5759380">
        <ele>189.2</ele>
        <time>2022-06-19T10:41:34Z</time>
      </trkpt>
      <trkpt lat="42.8623630" lon="-8.5759000">
        <ele>189.2</ele>
        <time>2022-06-19T10:41:35Z</time>
      </trkpt>
      <trkpt lat="42.8624330" lon="-8.5758700">
        <ele>188.2</ele>
        <time>2022-06-19T10:41:36Z</time>
      </trkpt>
      <trkpt lat="42.8625080" lon="-8.5758510">
        <ele>186.6</ele>
        <time>2022-06-19T10:41:37Z</time>
      </trkpt>
      <trkpt lat="42.8625800" lon="-8.5758410">
        <ele>186.6</ele>
        <time>2022-06-19T10:41:38Z</time>
      </trkpt>
      <trkpt lat="42.8626530" lon="-8.5758330">
        <ele>186.6</ele>
        <time>2022-06-19T10:41:39Z</time>
      </trkpt>
      <trkpt lat="42.8627280" lon="-8.5758210">
        <ele>186.6</ele>
        <time>2022-06-19T10:41:40Z</time>
      </trkpt>
      <trkpt lat="42.8627980" lon="-8.5758150">
        <ele>185.6</ele>
        <time>2022-06-19T10:41:41Z</time>
      </trkpt>
      <trkpt lat="42.8628610" lon="-8.5758180">
        <ele>185.6</ele>
        <time>2022-06-19T10:41:42Z</time>
      </trkpt>
      <trkpt lat="42.8629130" lon="-8.5758160">
        <ele>185.6</ele>
        <time>2022-06-19T10:41:43Z</time>
      </trkpt>
      <trkpt lat="42.8629500" lon="-8.5758060">
        <ele>186.0</ele>
        <time>2022-06-19T10:41:44Z</time>
      </trkpt>
      <trkpt lat="42.8629750" lon="-8.5757700">
        <ele>187.4</ele>
        <time>2022-06-19T10:41:45Z</time>
      </trkpt>
      <trkpt lat="42.8629880" lon="-8.5757130">
        <ele>187.4</ele>
        <time>2022-06-19T10:41:46Z</time>
      </trkpt>
      <trkpt lat="42.8629980" lon="-8.5756480">
        <ele>187.4</ele>
        <time>2022-06-19T10:41:47Z</time>
      </trkpt>
      <trkpt lat="42.8630050" lon="-8.5755710">
        <ele>186.4</ele>
        <time>2022-06-19T10:41:48Z</time>
      </trkpt>
      <trkpt lat="42.8630110" lon="-8.5754900">
        <ele>184.4</ele>
        <time>2022-06-19T10:41:49Z</time>
      </trkpt>
      <trkpt lat="42.8630200" lon="-8.5754030">
        <ele>184.4</ele>
        <time>2022-06-19T10:41:50Z</time>
      </trkpt>
      <trkpt lat="42.8630280" lon="-8.5753160">
        <ele>184.4</ele>
        <time>2022-06-19T10:41:51Z</time>
      </trkpt>
      <trkpt lat="42.8630410" lon="-8.5752250">
        <ele>183.4</ele>
        <time>2022-06-19T10:41:52Z</time>
      </trkpt>
      <trkpt lat="42.8630530" lon="-8.5751280">
        <ele>180.2</ele>
        <time>2022-06-19T10:41:53Z</time>
      </trkpt>
      <trkpt lat="42.8630730" lon="-8.5750250">
        <ele>180.2</ele>
        <time>2022-06-19T10:41:54Z</time>
      </trkpt>
      <trkpt lat="42.8630930" lon="-8.5749180">
        <ele>180.2</ele>
        <time>2022-06-19T10:41:55Z</time>
      </trkpt>
      <trkpt lat="42.8631200" lon="-8.5748080">
        <ele>179.2</ele>
        <time>2022-06-19T10:41:56Z</time>
      </trkpt>
      <trkpt lat="42.8631510" lon="-8.5747050">
        <ele>176.6</ele>
        <time>2022-06-19T10:41:57Z</time>
      </trkpt>
      <trkpt lat="42.8631810" lon="-8.5746100">
        <ele>176.6</ele>
        <time>2022-06-19T10:41:58Z</time>
      </trkpt>
      <trkpt lat="42.8632100" lon="-8.5745250">
        <ele>176.6</ele>
        <time>2022-06-19T10:41:59Z</time>
      </trkpt>
      <trkpt lat="42.8632360" lon="-8.5744500">
        <ele>176.6</ele>
        <time>2022-06-19T10:42:00Z</time>
      </trkpt>
      <trkpt lat="42.8632630" lon="-8.5743810">
        <ele>177.2</ele>
        <time>2022-06-19T10:42:01Z</time>
      </trkpt>
      <trkpt lat="42.8632900" lon="-8.5743160">
        <ele>177.2</ele>
        <time>2022-06-19T10:42:02Z</time>
      </trkpt>
      <trkpt lat="42.8633150" lon="-8.5742560">
        <ele>177.2</ele>
        <time>2022-06-19T10:42:03Z</time>
      </trkpt>
      <trkpt lat="42.8633400" lon="-8.5741960">
        <ele>176.4</ele>
        <time>2022-06-19T10:42:04Z</time>
      </trkpt>
      <trkpt lat="42.8633660" lon="-8.5741410">
        <ele>177.2</ele>
        <time>2022-06-19T10:42:05Z</time>
      </trkpt>
      <trkpt lat="42.8633930" lon="-8.5740930">
        <ele>177.2</ele>
        <time>2022-06-19T10:42:06Z</time>
      </trkpt>
      <trkpt lat="42.8634200" lon="-8.5740680">
        <ele>177.2</ele>
        <time>2022-06-19T10:42:07Z</time>
      </trkpt>
      <trkpt lat="42.8634360" lon="-8.5740750">
        <ele>177.8</ele>
        <time>2022-06-19T10:42:08Z</time>
      </trkpt>
      <trkpt lat="42.8634500" lon="-8.5740930">
        <ele>178.0</ele>
        <time>2022-06-19T10:42:09Z</time>
      </trkpt>
      <trkpt lat="42.8634630" lon="-8.5741110">
        <ele>178.0</ele>
        <time>2022-06-19T10:42:10Z</time>
      </trkpt>
      <trkpt lat="42.8634810" lon="-8.5741350">
        <ele>178.0</ele>
        <time>2022-06-19T10:42:11Z</time>
      </trkpt>
      <trkpt lat="42.8635050" lon="-8.5741480">
        <ele>178.0</ele>
        <time>2022-06-19T10:42:12Z</time>
      </trkpt>
      <trkpt lat="42.8635350" lon="-8.5741580">
        <ele>177.0</ele>
        <time>2022-06-19T10:42:13Z</time>
      </trkpt>
      <trkpt lat="42.8635700" lon="-8.5741700">
        <ele>177.0</ele>
        <time>2022-06-19T10:42:14Z</time>
      </trkpt>
      <trkpt lat="42.8636050" lon="-8.5741900">
        <ele>177.0</ele>
        <time>2022-06-19T10:42:15Z</time>
      </trkpt>
      <trkpt lat="42.8636400" lon="-8.5742100">
        <ele>177.0</ele>
        <time>2022-06-19T10:42:16Z</time>
      </trkpt>
      <trkpt lat="42.8636780" lon="-8.5742280">
        <ele>176.0</ele>
        <time>2022-06-19T10:42:17Z</time>
      </trkpt>
      <trkpt lat="42.8637150" lon="-8.5742510">
        <ele>176.0</ele>
        <time>2022-06-19T10:42:18Z</time>
      </trkpt>
      <trkpt lat="42.8637450" lon="-8.5742780">
        <ele>176.0</ele>
        <time>2022-06-19T10:42:19Z</time>
      </trkpt>
      <trkpt lat="42.8637660" lon="-8.5743030">
        <ele>176.0</ele>
        <time>2022-06-19T10:42:20Z</time>
      </trkpt>
      <trkpt lat="42.8637830" lon="-8.5743260">
        <ele>175.6</ele>
        <time>2022-06-19T10:42:21Z</time>
      </trkpt>
      <trkpt lat="42.8638000" lon="-8.5743430">
        <ele>175.6</ele>
        <time>2022-06-19T10:42:22Z</time>
      </trkpt>
      <trkpt lat="42.8638160" lon="-8.5743630">
        <ele>175.6</ele>
        <time>2022-06-19T10:42:23Z</time>
      </trkpt>
      <trkpt lat="42.8638360" lon="-8.5743810">
        <ele>174.6</ele>
        <time>2022-06-19T10:42:24Z</time>
      </trkpt>
      <trkpt lat="42.8638560" lon="-8.5743910">
        <ele>174.4</ele>
        <time>2022-06-19T10:42:25Z</time>
      </trkpt>
      <trkpt lat="42.8638830" lon="-8.5743960">
        <ele>174.4</ele>
        <time>2022-06-19T10:42:26Z</time>
      </trkpt>
      <trkpt lat="42.8639110" lon="-8.5744080">
        <ele>174.4</ele>
        <time>2022-06-19T10:42:27Z</time>
      </trkpt>
      <trkpt lat="42.8639380" lon="-8.5744380">
        <ele>173.4</ele>
        <time>2022-06-19T10:42:28Z</time>
      </trkpt>
      <trkpt lat="42.8639610" lon="-8.5744810">
        <ele>172.0</ele>
        <time>2022-06-19T10:42:29Z</time>
      </trkpt>
      <trkpt lat="42.8639910" lon="-8.5745280">
        <ele>172.0</ele>
        <time>2022-06-19T10:42:30Z</time>
      </trkpt>
      <trkpt lat="42.8640250" lon="-8.5745800">
        <ele>172.0</ele>
        <time>2022-06-19T10:42:31Z</time>
      </trkpt>
      <trkpt lat="42.8640610" lon="-8.5746360">
        <ele>171.0</ele>
        <time>2022-06-19T10:42:32Z</time>
      </trkpt>
      <trkpt lat="42.8641010" lon="-8.5746960">
        <ele>168.8</ele>
        <time>2022-06-19T10:42:33Z</time>
      </trkpt>
      <trkpt lat="42.8641460" lon="-8.5747610">
        <ele>168.8</ele>
        <time>2022-06-19T10:42:34Z</time>
      </trkpt>
      <trkpt lat="42.8641930" lon="-8.5748310">
        <ele>168.8</ele>
        <time>2022-06-19T10:42:35Z</time>
      </trkpt>
      <trkpt lat="42.8642430" lon="-8.5749050">
        <ele>167.8</ele>
        <time>2022-06-19T10:42:36Z</time>
      </trkpt>
      <trkpt lat="42.8642950" lon="-8.5749860">
        <ele>167.2</ele>
        <time>2022-06-19T10:42:37Z</time>
      </trkpt>
      <trkpt lat="42.8643500" lon="-8.5750710">
        <ele>167.2</ele>
        <time>2022-06-19T10:42:38Z</time>
      </trkpt>
      <trkpt lat="42.8644080" lon="-8.5751580">
        <ele>167.2</ele>
        <time>2022-06-19T10:42:39Z</time>
      </trkpt>
      <trkpt lat="42.8644650" lon="-8.5752450">
        <ele>166.2</ele>
        <time>2022-06-19T10:42:40Z</time>
      </trkpt>
      <trkpt lat="42.8645180" lon="-8.5753300">
        <ele>164.8</ele>
        <time>2022-06-19T10:42:41Z</time>
      </trkpt>
      <trkpt lat="42.8645630" lon="-8.5754080">
        <ele>164.8</ele>
        <time>2022-06-19T10:42:42Z</time>
      </trkpt>
      <trkpt lat="42.8646030" lon="-8.5754750">
        <ele>164.8</ele>
        <time>2022-06-19T10:42:43Z</time>
      </trkpt>
      <trkpt lat="42.8646400" lon="-8.5755280">
        <ele>165.8</ele>
        <time>2022-06-19T10:42:44Z</time>
      </trkpt>
      <trkpt lat="42.8646750" lon="-8.5755730">
        <ele>167.0</ele>
        <time>2022-06-19T10:42:45Z</time>
      </trkpt>
      <trkpt lat="42.8647010" lon="-8.5756200">
        <ele>167.0</ele>
        <time>2022-06-19T10:42:46Z</time>
      </trkpt>
      <trkpt lat="42.8647260" lon="-8.5756660">
        <ele>167.0</ele>
        <time>2022-06-19T10:42:47Z</time>
      </trkpt>
      <trkpt lat="42.8647500" lon="-8.5757100">
        <ele>167.0</ele>
        <time>2022-06-19T10:42:48Z</time>
      </trkpt>
      <trkpt lat="42.8647750" lon="-8.5757460">
        <ele>167.0</ele>
        <time>2022-06-19T10:42:49Z</time>
      </trkpt>
      <trkpt lat="42.8647960" lon="-8.5757850">
        <ele>167.0</ele>
        <time>2022-06-19T10:42:50Z</time>
      </trkpt>
      <trkpt lat="42.8648130" lon="-8.5758200">
        <ele>167.0</ele>
        <time>2022-06-19T10:42:51Z</time>
      </trkpt>
      <trkpt lat="42.8648280" lon="-8.5758500">
        <ele>167.0</ele>
        <time>2022-06-19T10:42:52Z</time>
      </trkpt>
      <trkpt lat="42.8648350" lon="-8.5758780">
        <ele>168.2</ele>
        <time>2022-06-19T10:42:53Z</time>
      </trkpt>
      <trkpt lat="42.8648450" lon="-8.5759050">
        <ele>168.2</ele>
        <time>2022-06-19T10:42:54Z</time>
      </trkpt>
      <trkpt lat="42.8648510" lon="-8.5759280">
        <ele>168.2</ele>
        <time>2022-06-19T10:42:55Z</time>
      </trkpt>
      <trkpt lat="42.8648610" lon="-8.5759500">
        <ele>168.0</ele>
        <time>2022-06-19T10:42:56Z</time>
      </trkpt>
      <trkpt lat="42.8648710" lon="-8.5759700">
        <ele>168.0</ele>
        <time>2022-06-19T10:42:57Z</time>
      </trkpt>
      <trkpt lat="42.8648800" lon="-8.5759900">
        <ele>168.0</ele>
        <time>2022-06-19T10:42:58Z</time>
      </trkpt>
      <trkpt lat="42.8648880" lon="-8.5760080">
        <ele>168.0</ele>
        <time>2022-06-19T10:42:59Z</time>
      </trkpt>
      <trkpt lat="42.8649000" lon="-8.5760260">
        <ele>168.0</ele>
        <time>2022-06-19T10:43:00Z</time>
      </trkpt>
      <trkpt lat="42.8649110" lon="-8.5760410">
        <ele>167.6</ele>
        <time>2022-06-19T10:43:01Z</time>
      </trkpt>
      <trkpt lat="42.8649230" lon="-8.5760510">
        <ele>167.6</ele>
        <time>2022-06-19T10:43:02Z</time>
      </trkpt>
      <trkpt lat="42.8649360" lon="-8.5760610">
        <ele>167.6</ele>
        <time>2022-06-19T10:43:03Z</time>
      </trkpt>
      <trkpt lat="42.8649530" lon="-8.5760610">
        <ele>167.0</ele>
        <time>2022-06-19T10:43:04Z</time>
      </trkpt>
      <trkpt lat="42.8649710" lon="-8.5760510">
        <ele>166.2</ele>
        <time>2022-06-19T10:43:05Z</time>
      </trkpt>
      <trkpt lat="42.8649930" lon="-8.5760350">
        <ele>166.2</ele>
        <time>2022-06-19T10:43:06Z</time>
      </trkpt>
      <trkpt lat="42.8650150" lon="-8.5760160">
        <ele>166.2</ele>
        <time>2022-06-19T10:43:07Z</time>
      </trkpt>
      <trkpt lat="42.8650410" lon="-8.5759900">
        <ele>165.2</ele>
        <time>2022-06-19T10:43:08Z</time>
      </trkpt>
      <trkpt lat="42.8650680" lon="-8.5759560">
        <ele>164.2</ele>
        <time>2022-06-19T10:43:09Z</time>
      </trkpt>
      <trkpt lat="42.8650930" lon="-8.5759080">
        <ele>164.2</ele>
        <time>2022-06-19T10:43:10Z</time>
      </trkpt>
      <trkpt lat="42.8651250" lon="-8.5758510">
        <ele>164.2</ele>
        <time>2022-06-19T10:43:11Z</time>
      </trkpt>
      <trkpt lat="42.8651610" lon="-8.5757930">
        <ele>163.2</ele>
        <time>2022-06-19T10:43:12Z</time>
      </trkpt>
      <trkpt lat="42.8652050" lon="-8.5757280">
        <ele>160.6</ele>
        <time>2022-06-19T10:43:13Z</time>
      </trkpt>
      <trkpt lat="42.8652550" lon="-8.5756580">
        <ele>160.6</ele>
        <time>2022-06-19T10:43:14Z</time>
      </trkpt>
      <trkpt lat="42.8653100" lon="-8.5755910">
        <ele>160.6</ele>
        <time>2022-06-19T10:43:15Z</time>
      </trkpt>
      <trkpt lat="42.8653660" lon="-8.5755210">
        <ele>159.6</ele>
        <time>2022-06-19T10:43:16Z</time>
      </trkpt>
      <trkpt lat="42.8654300" lon="-8.5754600">
        <ele>154.4</ele>
        <time>2022-06-19T10:43:17Z</time>
      </trkpt>
      <trkpt lat="42.8654980" lon="-8.5754180">
        <ele>154.4</ele>
        <time>2022-06-19T10:43:18Z</time>
      </trkpt>
      <trkpt lat="42.8655610" lon="-8.5753760">
        <ele>154.4</ele>
        <time>2022-06-19T10:43:19Z</time>
      </trkpt>
      <trkpt lat="42.8656200" lon="-8.5753250">
        <ele>153.4</ele>
        <time>2022-06-19T10:43:20Z</time>
      </trkpt>
      <trkpt lat="42.8656750" lon="-8.5752780">
        <ele>152.0</ele>
        <time>2022-06-19T10:43:21Z</time>
      </trkpt>
      <trkpt lat="42.8657310" lon="-8.5752380">
        <ele>152.0</ele>
        <time>2022-06-19T10:43:22Z</time>
      </trkpt>
      <trkpt lat="42.8657850" lon="-8.5751960">
        <ele>152.0</ele>
        <time>2022-06-19T10:43:23Z</time>
      </trkpt>
      <trkpt lat="42.8658330" lon="-8.5751610">
        <ele>151.0</ele>
        <time>2022-06-19T10:43:24Z</time>
      </trkpt>
      <trkpt lat="42.8658760" lon="-8.5751210">
        <ele>149.8</ele>
        <time>2022-06-19T10:43:25Z</time>
      </trkpt>
      <trkpt lat="42.8659160" lon="-8.5750730">
        <ele>149.8</ele>
        <time>2022-06-19T10:43:26Z</time>
      </trkpt>
      <trkpt lat="42.8659480" lon="-8.5750150">
        <ele>149.8</ele>
        <time>2022-06-19T10:43:27Z</time>
      </trkpt>
      <trkpt lat="42.8659750" lon="-8.5749460">
        <ele>149.2</ele>
        <time>2022-06-19T10:43:28Z</time>
      </trkpt>
      <trkpt lat="42.8659960" lon="-8.5748780">
        <ele>148.6</ele>
        <time>2022-06-19T10:43:29Z</time>
      </trkpt>
      <trkpt lat="42.8660150" lon="-8.5748060">
        <ele>148.6</ele>
        <time>2022-06-19T10:43:30Z</time>
      </trkpt>
      <trkpt lat="42.8660300" lon="-8.5747310">
        <ele>148.6</ele>
        <time>2022-06-19T10:43:31Z</time>
      </trkpt>
      <trkpt lat="42.8660450" lon="-8.5746600">
        <ele>148.6</ele>
        <time>2022-06-19T10:43:32Z</time>
      </trkpt>
      <trkpt lat="42.8660580" lon="-8.5745830">
        <ele>147.4</ele>
        <time>2022-06-19T10:43:33Z</time>
      </trkpt>
      <trkpt lat="42.8660750" lon="-8.5745050">
        <ele>147.4</ele>
        <time>2022-06-19T10:43:34Z</time>
      </trkpt>
      <trkpt lat="42.8660880" lon="-8.5744160">
        <ele>147.4</ele>
        <time>2022-06-19T10:43:35Z</time>
      </trkpt>
      <trkpt lat="42.8660910" lon="-8.5743230">
        <ele>146.4</ele>
        <time>2022-06-19T10:43:36Z</time>
      </trkpt>
      <trkpt lat="42.8660880" lon="-8.5742260">
        <ele>145.4</ele>
        <time>2022-06-19T10:43:37Z</time>
      </trkpt>
      <trkpt lat="42.8660850" lon="-8.5741300">
        <ele>145.4</ele>
        <time>2022-06-19T10:43:38Z</time>
      </trkpt>
      <trkpt lat="42.8660780" lon="-8.5740380">
        <ele>145.4</ele>
        <time>2022-06-19T10:43:39Z</time>
      </trkpt>
      <trkpt lat="42.8660730" lon="-8.5739480">
        <ele>145.4</ele>
        <time>2022-06-19T10:43:40Z</time>
      </trkpt>
      <trkpt lat="42.8660650" lon="-8.5738650">
        <ele>145.0</ele>
        <time>2022-06-19T10:43:41Z</time>
      </trkpt>
      <trkpt lat="42.8660460" lon="-8.5737880">
        <ele>145.0</ele>
        <time>2022-06-19T10:43:42Z</time>
      </trkpt>
      <trkpt lat="42.8660300" lon="-8.5737160">
        <ele>145.0</ele>
        <time>2022-06-19T10:43:43Z</time>
      </trkpt>
      <trkpt lat="42.8660110" lon="-8.5736450">
        <ele>145.0</ele>
        <time>2022-06-19T10:43:44Z</time>
      </trkpt>
      <trkpt lat="42.8659930" lon="-8.5735710">
        <ele>144.8</ele>
        <time>2022-06-19T10:43:45Z</time>
      </trkpt>
      <trkpt lat="42.8659700" lon="-8.5735010">
        <ele>144.8</ele>
        <time>2022-06-19T10:43:46Z</time>
      </trkpt>
      <trkpt lat="42.8659410" lon="-8.5734300">
        <ele>144.8</ele>
        <time>2022-06-19T10:43:47Z</time>
      </trkpt>
      <trkpt lat="42.8659150" lon="-8.5733550">
        <ele>144.0</ele>
        <time>2022-06-19T10:43:48Z</time>
      </trkpt>
      <trkpt lat="42.8658860" lon="-8.5732760">
        <ele>143.6</ele>
        <time>2022-06-19T10:43:49Z</time>
      </trkpt>
      <trkpt lat="42.8658610" lon="-8.5731900">
        <ele>143.6</ele>
        <time>2022-06-19T10:43:50Z</time>
      </trkpt>
      <trkpt lat="42.8658350" lon="-8.5731030">
        <ele>143.6</ele>
        <time>2022-06-19T10:43:51Z</time>
      </trkpt>
      <trkpt lat="42.8658080" lon="-8.5730150">
        <ele>142.6</ele>
        <time>2022-06-19T10:43:52Z</time>
      </trkpt>
      <trkpt lat="42.8657780" lon="-8.5729330">
        <ele>142.6</ele>
        <time>2022-06-19T10:43:53Z</time>
      </trkpt>
      <trkpt lat="42.8657510" lon="-8.5728500">
        <ele>142.6</ele>
        <time>2022-06-19T10:43:54Z</time>
      </trkpt>
      <trkpt lat="42.8657250" lon="-8.5727660">
        <ele>142.6</ele>
        <time>2022-06-19T10:43:55Z</time>
      </trkpt>
      <trkpt lat="42.8656960" lon="-8.5726830">
        <ele>142.6</ele>
        <time>2022-06-19T10:43:56Z</time>
      </trkpt>
      <trkpt lat="42.8656700" lon="-8.5726050">
        <ele>143.2</ele>
        <time>2022-06-19T10:43:57Z</time>
      </trkpt>
      <trkpt lat="42.8656550" lon="-8.5725330">
        <ele>143.2</ele>
        <time>2022-06-19T10:43:58Z</time>
      </trkpt>
      <trkpt lat="42.8656500" lon="-8.5724630">
        <ele>143.2</ele>
        <time>2022-06-19T10:43:59Z</time>
      </trkpt>
      <trkpt lat="42.8656580" lon="-8.5723960">
        <ele>143.2</ele>
        <time>2022-06-19T10:44:00Z</time>
      </trkpt>
      <trkpt lat="42.8656850" lon="-8.5723450">
        <ele>143.4</ele>
        <time>2022-06-19T10:44:01Z</time>
      </trkpt>
      <trkpt lat="42.8657180" lon="-8.5723080">
        <ele>143.4</ele>
        <time>2022-06-19T10:44:02Z</time>
      </trkpt>
      <trkpt lat="42.8657510" lon="-8.5722700">
        <ele>143.4</ele>
        <time>2022-06-19T10:44:03Z</time>
      </trkpt>
      <trkpt lat="42.8657800" lon="-8.5722210">
        <ele>143.4</ele>
        <time>2022-06-19T10:44:04Z</time>
      </trkpt>
      <trkpt lat="42.8657960" lon="-8.5721680">
        <ele>143.6</ele>
        <time>2022-06-19T10:44:05Z</time>
      </trkpt>
      <trkpt lat="42.8658110" lon="-8.5721230">
        <ele>143.6</ele>
        <time>2022-06-19T10:44:06Z</time>
      </trkpt>
      <trkpt lat="42.8658180" lon="-8.5720780">
        <ele>143.6</ele>
        <time>2022-06-19T10:44:07Z</time>
      </trkpt>
      <trkpt lat="42.8658210" lon="-8.5720360">
        <ele>143.6</ele>
        <time>2022-06-19T10:44:08Z</time>
      </trkpt>
      <trkpt lat="42.8658260" lon="-8.5719960">
        <ele>144.4</ele>
        <time>2022-06-19T10:44:09Z</time>
      </trkpt>
      <trkpt lat="42.8658260" lon="-8.5719650">
        <ele>144.4</ele>
        <time>2022-06-19T10:44:10Z</time>
      </trkpt>
      <trkpt lat="42.8658300" lon="-8.5719280">
        <ele>144.4</ele>
        <time>2022-06-19T10:44:11Z</time>
      </trkpt>
      <trkpt lat="42.8658310" lon="-8.5718880">
        <ele>143.8</ele>
        <time>2022-06-19T10:44:12Z</time>
      </trkpt>
      <trkpt lat="42.8658330" lon="-8.5718460">
        <ele>144.0</ele>
        <time>2022-06-19T10:44:13Z</time>
      </trkpt>
      <trkpt lat="42.8658330" lon="-8.5718050">
        <ele>144.0</ele>
        <time>2022-06-19T10:44:14Z</time>
      </trkpt>
      <trkpt lat="42.8658350" lon="-8.5717600">
        <ele>144.0</ele>
        <time>2022-06-19T10:44:15Z</time>
      </trkpt>
      <trkpt lat="42.8658360" lon="-8.5717150">
        <ele>144.0</ele>
        <time>2022-06-19T10:44:16Z</time>
      </trkpt>
      <trkpt lat="42.8658380" lon="-8.5716660">
        <ele>143.6</ele>
        <time>2022-06-19T10:44:17Z</time>
      </trkpt>
      <trkpt lat="42.8658410" lon="-8.5716230">
        <ele>143.6</ele>
        <time>2022-06-19T10:44:18Z</time>
      </trkpt>
      <trkpt lat="42.8658410" lon="-8.5715850">
        <ele>143.6</ele>
        <time>2022-06-19T10:44:19Z</time>
      </trkpt>
      <trkpt lat="42.8658380" lon="-8.5715460">
        <ele>144.0</ele>
        <time>2022-06-19T10:44:20Z</time>
      </trkpt>
      <trkpt lat="42.8658310" lon="-8.5715130">
        <ele>144.2</ele>
        <time>2022-06-19T10:44:21Z</time>
      </trkpt>
      <trkpt lat="42.8658300" lon="-8.5714860">
        <ele>144.2</ele>
        <time>2022-06-19T10:44:22Z</time>
      </trkpt>
      <trkpt lat="42.8658310" lon="-8.5714600">
        <ele>144.2</ele>
        <time>2022-06-19T10:44:23Z</time>
      </trkpt>
      <trkpt lat="42.8658360" lon="-8.5714310">
        <ele>144.2</ele>
        <time>2022-06-19T10:44:24Z</time>
      </trkpt>
      <trkpt lat="42.8658410" lon="-8.5714080">
        <ele>145.2</ele>
        <time>2022-06-19T10:44:25Z</time>
      </trkpt>
      <trkpt lat="42.8658430" lon="-8.5713850">
        <ele>145.2</ele>
        <time>2022-06-19T10:44:26Z</time>
      </trkpt>
      <trkpt lat="42.8658410" lon="-8.5713600">
        <ele>145.2</ele>
        <time>2022-06-19T10:44:27Z</time>
      </trkpt>
      <trkpt lat="42.8658350" lon="-8.5713360">
        <ele>145.6</ele>
        <time>2022-06-19T10:44:28Z</time>
      </trkpt>
      <trkpt lat="42.8658210" lon="-8.5713100">
        <ele>146.2</ele>
        <time>2022-06-19T10:44:29Z</time>
      </trkpt>
      <trkpt lat="42.8658150" lon="-8.5712930">
        <ele>146.2</ele>
        <time>2022-06-19T10:44:30Z</time>
      </trkpt>
      <trkpt lat="42.8658110" lon="-8.5712750">
        <ele>146.2</ele>
        <time>2022-06-19T10:44:31Z</time>
      </trkpt>
      <trkpt lat="42.8658130" lon="-8.5712560">
        <ele>146.2</ele>
        <time>2022-06-19T10:44:32Z</time>
      </trkpt>
      <trkpt lat="42.8658080" lon="-8.5712480">
        <ele>147.0</ele>
        <time>2022-06-19T10:44:33Z</time>
      </trkpt>
      <trkpt lat="42.8658000" lon="-8.5712310">
        <ele>147.0</ele>
        <time>2022-06-19T10:44:34Z</time>
      </trkpt>
      <trkpt lat="42.8657860" lon="-8.5712160">
        <ele>147.0</ele>
        <time>2022-06-19T10:44:35Z</time>
      </trkpt>
      <trkpt lat="42.8657810" lon="-8.5712080">
        <ele>147.2</ele>
        <time>2022-06-19T10:44:36Z</time>
      </trkpt>
      <trkpt lat="42.8657810" lon="-8.5712080">
        <ele>147.4</ele>
        <time>2022-06-19T10:44:37Z</time>
      </trkpt>
      <trkpt lat="42.8657680" lon="-8.5711910">
        <ele>147.4</ele>
        <time>2022-06-19T10:44:38Z</time>
      </trkpt>
      <trkpt lat="42.8657580" lon="-8.5711850">
        <ele>147.4</ele>
        <time>2022-06-19T10:44:39Z</time>
      </trkpt>
      <trkpt lat="42.8657450" lon="-8.5711750">
        <ele>147.4</ele>
        <time>2022-06-19T10:44:40Z</time>
      </trkpt>
      <trkpt lat="42.8657350" lon="-8.5711700">
        <ele>148.0</ele>
        <time>2022-06-19T10:44:41Z</time>
      </trkpt>
      <trkpt lat="42.8657230" lon="-8.5711610">
        <ele>148.0</ele>
        <time>2022-06-19T10:44:42Z</time>
      </trkpt>
      <trkpt lat="42.8657080" lon="-8.5711460">
        <ele>148.0</ele>
        <time>2022-06-19T10:44:43Z</time>
      </trkpt>
      <trkpt lat="42.8656880" lon="-8.5711360">
        <ele>148.0</ele>
        <time>2022-06-19T10:44:44Z</time>
      </trkpt>
      <trkpt lat="42.8656700" lon="-8.5711210">
        <ele>148.4</ele>
        <time>2022-06-19T10:44:45Z</time>
      </trkpt>
      <trkpt lat="42.8656600" lon="-8.5711080">
        <ele>148.4</ele>
        <time>2022-06-19T10:44:46Z</time>
      </trkpt>
      <trkpt lat="42.8656500" lon="-8.5710960">
        <ele>148.4</ele>
        <time>2022-06-19T10:44:47Z</time>
      </trkpt>
      <trkpt lat="42.8656360" lon="-8.5710800">
        <ele>149.0</ele>
        <time>2022-06-19T10:44:48Z</time>
      </trkpt>
      <trkpt lat="42.8656230" lon="-8.5710610">
        <ele>149.0</ele>
        <time>2022-06-19T10:44:49Z</time>
      </trkpt>
      <trkpt lat="42.8656110" lon="-8.5710530">
        <ele>149.0</ele>
        <time>2022-06-19T10:44:50Z</time>
      </trkpt>
      <trkpt lat="42.8656000" lon="-8.5710410">
        <ele>149.0</ele>
        <time>2022-06-19T10:44:51Z</time>
      </trkpt>
      <trkpt lat="42.8655910" lon="-8.5710330">
        <ele>149.8</ele>
        <time>2022-06-19T10:44:52Z</time>
      </trkpt>
      <trkpt lat="42.8655780" lon="-8.5710210">
        <ele>150.0</ele>
        <time>2022-06-19T10:44:53Z</time>
      </trkpt>
      <trkpt lat="42.8655700" lon="-8.5710100">
        <ele>150.0</ele>
        <time>2022-06-19T10:44:54Z</time>
      </trkpt>
      <trkpt lat="42.8655510" lon="-8.5709960">
        <ele>150.0</ele>
        <time>2022-06-19T10:44:55Z</time>
      </trkpt>
      <trkpt lat="42.8655380" lon="-8.5709780">
        <ele>150.4</ele>
        <time>2022-06-19T10:44:56Z</time>
      </trkpt>
      <trkpt lat="42.8655260" lon="-8.5709710">
        <ele>150.0</ele>
        <time>2022-06-19T10:44:57Z</time>
      </trkpt>
      <trkpt lat="42.8655210" lon="-8.5709630">
        <ele>150.0</ele>
        <time>2022-06-19T10:44:58Z</time>
      </trkpt>
      <trkpt lat="42.8655060" lon="-8.5709500">
        <ele>150.0</ele>
        <time>2022-06-19T10:44:59Z</time>
      </trkpt>
      <trkpt lat="42.8654900" lon="-8.5709310">
        <ele>151.0</ele>
        <time>2022-06-19T10:45:00Z</time>
      </trkpt>
      <trkpt lat="42.8654730" lon="-8.5709110">
        <ele>150.6</ele>
        <time>2022-06-19T10:45:01Z</time>
      </trkpt>
      <trkpt lat="42.8654580" lon="-8.5708950">
        <ele>150.6</ele>
        <time>2022-06-19T10:45:02Z</time>
      </trkpt>
      <trkpt lat="42.8654450" lon="-8.5708830">
        <ele>150.6</ele>
        <time>2022-06-19T10:45:03Z</time>
      </trkpt>
      <trkpt lat="42.8654310" lon="-8.5708830">
        <ele>151.2</ele>
        <time>2022-06-19T10:45:04Z</time>
      </trkpt>
      <trkpt lat="42.8654260" lon="-8.5708800">
        <ele>150.8</ele>
        <time>2022-06-19T10:45:05Z</time>
      </trkpt>
      <trkpt lat="42.8654260" lon="-8.5708800">
        <ele>150.8</ele>
        <time>2022-06-19T10:45:06Z</time>
      </trkpt>
      <trkpt lat="42.8654110" lon="-8.5708660">
        <ele>150.8</ele>
        <time>2022-06-19T10:45:07Z</time>
      </trkpt>
      <trkpt lat="42.8653930" lon="-8.5708550">
        <ele>151.8</ele>
        <time>2022-06-19T10:45:08Z</time>
      </trkpt>
      <trkpt lat="42.8653710" lon="-8.5708430">
        <ele>151.8</ele>
        <time>2022-06-19T10:45:09Z</time>
      </trkpt>
      <trkpt lat="42.8653510" lon="-8.5708380">
        <ele>151.8</ele>
        <time>2022-06-19T10:45:10Z</time>
      </trkpt>
      <trkpt lat="42.8653350" lon="-8.5708260">
        <ele>151.8</ele>
        <time>2022-06-19T10:45:11Z</time>
      </trkpt>
      <trkpt lat="42.8653260" lon="-8.5708130">
        <ele>151.8</ele>
        <time>2022-06-19T10:45:12Z</time>
      </trkpt>
      <trkpt lat="42.8653160" lon="-8.5707980">
        <ele>152.4</ele>
        <time>2022-06-19T10:45:13Z</time>
      </trkpt>
      <trkpt lat="42.8653080" lon="-8.5707810">
        <ele>152.4</ele>
        <time>2022-06-19T10:45:14Z</time>
      </trkpt>
      <trkpt lat="42.8652960" lon="-8.5707650">
        <ele>152.4</ele>
        <time>2022-06-19T10:45:15Z</time>
      </trkpt>
      <trkpt lat="42.8652810" lon="-8.5707460">
        <ele>152.4</ele>
        <time>2022-06-19T10:45:16Z</time>
      </trkpt>
      <trkpt lat="42.8652700" lon="-8.5707260">
        <ele>152.8</ele>
        <time>2022-06-19T10:45:17Z</time>
      </trkpt>
      <trkpt lat="42.8652600" lon="-8.5707100">
        <ele>152.8</ele>
        <time>2022-06-19T10:45:18Z</time>
      </trkpt>
      <trkpt lat="42.8652530" lon="-8.5707000">
        <ele>152.8</ele>
        <time>2022-06-19T10:45:19Z</time>
      </trkpt>
      <trkpt lat="42.8652430" lon="-8.5706880">
        <ele>152.8</ele>
        <time>2022-06-19T10:45:20Z</time>
      </trkpt>
      <trkpt lat="42.8652380" lon="-8.5706680">
        <ele>153.0</ele>
        <time>2022-06-19T10:45:21Z</time>
      </trkpt>
      <trkpt lat="42.8652280" lon="-8.5706500">
        <ele>153.0</ele>
        <time>2022-06-19T10:45:22Z</time>
      </trkpt>
      <trkpt lat="42.8652110" lon="-8.5706310">
        <ele>153.0</ele>
        <time>2022-06-19T10:45:23Z</time>
      </trkpt>
      <trkpt lat="42.8651950" lon="-8.5706210">
        <ele>153.4</ele>
        <time>2022-06-19T10:45:24Z</time>
      </trkpt>
      <trkpt lat="42.8651860" lon="-8.5705960">
        <ele>153.8</ele>
        <time>2022-06-19T10:45:25Z</time>
      </trkpt>
      <trkpt lat="42.8651750" lon="-8.5705710">
        <ele>153.8</ele>
        <time>2022-06-19T10:45:26Z</time>
      </trkpt>
      <trkpt lat="42.8651600" lon="-8.5705530">
        <ele>153.8</ele>
        <time>2022-06-19T10:45:27Z</time>
      </trkpt>
      <trkpt lat="42.8651480" lon="-8.5705400">
        <ele>153.8</ele>
        <time>2022-06-19T10:45:28Z</time>
      </trkpt>
      <trkpt lat="42.8651350" lon="-8.5705300">
        <ele>154.0</ele>
        <time>2022-06-19T10:45:29Z</time>
      </trkpt>
      <trkpt lat="42.8651150" lon="-8.5705150">
        <ele>154.0</ele>
        <time>2022-06-19T10:45:30Z</time>
      </trkpt>
      <trkpt lat="42.8651010" lon="-8.5704960">
        <ele>154.0</ele>
        <time>2022-06-19T10:45:31Z</time>
      </trkpt>
      <trkpt lat="42.8650860" lon="-8.5704850">
        <ele>154.6</ele>
        <time>2022-06-19T10:45:32Z</time>
      </trkpt>
      <trkpt lat="42.8650730" lon="-8.5704750">
        <ele>155.2</ele>
        <time>2022-06-19T10:45:33Z</time>
      </trkpt>
      <trkpt lat="42.8650650" lon="-8.5704550">
        <ele>155.2</ele>
        <time>2022-06-19T10:45:34Z</time>
      </trkpt>
      <trkpt lat="42.8650460" lon="-8.5704430">
        <ele>155.2</ele>
        <time>2022-06-19T10:45:35Z</time>
      </trkpt>
      <trkpt lat="42.8650330" lon="-8.5704280">
        <ele>155.2</ele>
        <time>2022-06-19T10:45:36Z</time>
      </trkpt>
      <trkpt lat="42.8650250" lon="-8.5704160">
        <ele>156.0</ele>
        <time>2022-06-19T10:45:37Z</time>
      </trkpt>
      <trkpt lat="42.8650160" lon="-8.5703950">
        <ele>156.0</ele>
        <time>2022-06-19T10:45:38Z</time>
      </trkpt>
      <trkpt lat="42.8650080" lon="-8.5703700">
        <ele>156.0</ele>
        <time>2022-06-19T10:45:39Z</time>
      </trkpt>
      <trkpt lat="42.8649960" lon="-8.5703430">
        <ele>156.0</ele>
        <time>2022-06-19T10:45:40Z</time>
      </trkpt>
      <trkpt lat="42.8649850" lon="-8.5703260">
        <ele>156.2</ele>
        <time>2022-06-19T10:45:41Z</time>
      </trkpt>
      <trkpt lat="42.8649730" lon="-8.5703160">
        <ele>156.2</ele>
        <time>2022-06-19T10:45:42Z</time>
      </trkpt>
      <trkpt lat="42.8649630" lon="-8.5703010">
        <ele>156.2</ele>
        <time>2022-06-19T10:45:43Z</time>
      </trkpt>
      <trkpt lat="42.8649500" lon="-8.5702860">
        <ele>155.6</ele>
        <time>2022-06-19T10:45:44Z</time>
      </trkpt>
      <trkpt lat="42.8649380" lon="-8.5702760">
        <ele>156.2</ele>
        <time>2022-06-19T10:45:45Z</time>
      </trkpt>
      <trkpt lat="42.8649160" lon="-8.5702680">
        <ele>156.2</ele>
        <time>2022-06-19T10:45:46Z</time>
      </trkpt>
      <trkpt lat="42.8648950" lon="-8.5702560">
        <ele>156.2</ele>
        <time>2022-06-19T10:45:47Z</time>
      </trkpt>
      <trkpt lat="42.8648750" lon="-8.5702450">
        <ele>156.2</ele>
        <time>2022-06-19T10:45:48Z</time>
      </trkpt>
      <trkpt lat="42.8648560" lon="-8.5702310">
        <ele>156.2</ele>
        <time>2022-06-19T10:45:49Z</time>
      </trkpt>
      <trkpt lat="42.8648360" lon="-8.5702160">
        <ele>156.2</ele>
        <time>2022-06-19T10:45:50Z</time>
      </trkpt>
      <trkpt lat="42.8648130" lon="-8.5701960">
        <ele>156.2</ele>
        <time>2022-06-19T10:45:51Z</time>
      </trkpt>
      <trkpt lat="42.8647910" lon="-8.5701730">
        <ele>156.2</ele>
        <time>2022-06-19T10:45:52Z</time>
      </trkpt>
      <trkpt lat="42.8647750" lon="-8.5701550">
        <ele>156.2</ele>
        <time>2022-06-19T10:45:53Z</time>
      </trkpt>
      <trkpt lat="42.8647530" lon="-8.5701360">
        <ele>156.2</ele>
        <time>2022-06-19T10:45:54Z</time>
      </trkpt>
      <trkpt lat="42.8647310" lon="-8.5701100">
        <ele>156.2</ele>
        <time>2022-06-19T10:45:55Z</time>
      </trkpt>
      <trkpt lat="42.8647130" lon="-8.5700860">
        <ele>155.2</ele>
        <time>2022-06-19T10:45:56Z</time>
      </trkpt>
      <trkpt lat="42.8646950" lon="-8.5700680">
        <ele>155.6</ele>
        <time>2022-06-19T10:45:57Z</time>
      </trkpt>
      <trkpt lat="42.8646760" lon="-8.5700460">
        <ele>155.6</ele>
        <time>2022-06-19T10:45:58Z</time>
      </trkpt>
      <trkpt lat="42.8646550" lon="-8.5700260">
        <ele>155.6</ele>
        <time>2022-06-19T10:45:59Z</time>
      </trkpt>
      <trkpt lat="42.8646230" lon="-8.5700110">
        <ele>154.6</ele>
        <time>2022-06-19T10:46:00Z</time>
      </trkpt>
      <trkpt lat="42.8645880" lon="-8.5699850">
        <ele>153.0</ele>
        <time>2022-06-19T10:46:01Z</time>
      </trkpt>
      <trkpt lat="42.8645500" lon="-8.5699650">
        <ele>153.0</ele>
        <time>2022-06-19T10:46:02Z</time>
      </trkpt>
      <trkpt lat="42.8645110" lon="-8.5699410">
        <ele>153.0</ele>
        <time>2022-06-19T10:46:03Z</time>
      </trkpt>
      <trkpt lat="42.8644700" lon="-8.5699180">
        <ele>152.8</ele>
        <time>2022-06-19T10:46:04Z</time>
      </trkpt>
      <trkpt lat="42.8644350" lon="-8.5699010">
        <ele>153.4</ele>
        <time>2022-06-19T10:46:05Z</time>
      </trkpt>
      <trkpt lat="42.8644000" lon="-8.5698950">
        <ele>153.4</ele>
        <time>2022-06-19T10:46:06Z</time>
      </trkpt>
      <trkpt lat="42.8643660" lon="-8.5698860">
        <ele>153.4</ele>
        <time>2022-06-19T10:46:07Z</time>
      </trkpt>
      <trkpt lat="42.8643380" lon="-8.5698850">
        <ele>154.0</ele>
        <time>2022-06-19T10:46:08Z</time>
      </trkpt>
      <trkpt lat="42.8643080" lon="-8.5698850">
        <ele>154.4</ele>
        <time>2022-06-19T10:46:09Z</time>
      </trkpt>
      <trkpt lat="42.8642760" lon="-8.5698880">
        <ele>154.4</ele>
        <time>2022-06-19T10:46:10Z</time>
      </trkpt>
      <trkpt lat="42.8642430" lon="-8.5699000">
        <ele>154.4</ele>
        <time>2022-06-19T10:46:11Z</time>
      </trkpt>
      <trkpt lat="42.8642200" lon="-8.5699100">
        <ele>154.4</ele>
        <time>2022-06-19T10:46:12Z</time>
      </trkpt>
      <trkpt lat="42.8641960" lon="-8.5699210">
        <ele>154.8</ele>
        <time>2022-06-19T10:46:13Z</time>
      </trkpt>
      <trkpt lat="42.8641760" lon="-8.5699350">
        <ele>154.8</ele>
        <time>2022-06-19T10:46:14Z</time>
      </trkpt>
      <trkpt lat="42.8641610" lon="-8.5699450">
        <ele>154.8</ele>
        <time>2022-06-19T10:46:15Z</time>
      </trkpt>
      <trkpt lat="42.8641450" lon="-8.5699500">
        <ele>154.8</ele>
        <time>2022-06-19T10:46:16Z</time>
      </trkpt>
      <trkpt lat="42.8641200" lon="-8.5699580">
        <ele>155.0</ele>
        <time>2022-06-19T10:46:17Z</time>
      </trkpt>
      <trkpt lat="42.8641010" lon="-8.5699610">
        <ele>155.0</ele>
        <time>2022-06-19T10:46:18Z</time>
      </trkpt>
      <trkpt lat="42.8640810" lon="-8.5699700">
        <ele>155.0</ele>
        <time>2022-06-19T10:46:19Z</time>
      </trkpt>
      <trkpt lat="42.8640650" lon="-8.5699780">
        <ele>155.0</ele>
        <time>2022-06-19T10:46:20Z</time>
      </trkpt>
      <trkpt lat="42.8640460" lon="-8.5699860">
        <ele>155.2</ele>
        <time>2022-06-19T10:46:21Z</time>
      </trkpt>
      <trkpt lat="42.8640230" lon="-8.5699960">
        <ele>155.2</ele>
        <time>2022-06-19T10:46:22Z</time>
      </trkpt>
      <trkpt lat="42.8640080" lon="-8.5700080">
        <ele>155.2</ele>
        <time>2022-06-19T10:46:23Z</time>
      </trkpt>
      <trkpt lat="42.8639950" lon="-8.5700230">
        <ele>155.8</ele>
        <time>2022-06-19T10:46:24Z</time>
      </trkpt>
      <trkpt lat="42.8639800" lon="-8.5700310">
        <ele>155.8</ele>
        <time>2022-06-19T10:46:25Z</time>
      </trkpt>
      <trkpt lat="42.8639610" lon="-8.5700310">
        <ele>155.8</ele>
        <time>2022-06-19T10:46:26Z</time>
      </trkpt>
      <trkpt lat="42.8639350" lon="-8.5700330">
        <ele>155.8</ele>
        <time>2022-06-19T10:46:27Z</time>
      </trkpt>
      <trkpt lat="42.8639130" lon="-8.5700350">
        <ele>156.4</ele>
        <time>2022-06-19T10:46:28Z</time>
      </trkpt>
      <trkpt lat="42.8638860" lon="-8.5700380">
        <ele>156.2</ele>
        <time>2022-06-19T10:46:29Z</time>
      </trkpt>
      <trkpt lat="42.8638610" lon="-8.5700430">
        <ele>156.2</ele>
        <time>2022-06-19T10:46:30Z</time>
      </trkpt>
      <trkpt lat="42.8638350" lon="-8.5700450">
        <ele>156.2</ele>
        <time>2022-06-19T10:46:31Z</time>
      </trkpt>
      <trkpt lat="42.8638100" lon="-8.5700480">
        <ele>157.0</ele>
        <time>2022-06-19T10:46:32Z</time>
      </trkpt>
      <trkpt lat="42.8637900" lon="-8.5700460">
        <ele>156.6</ele>
        <time>2022-06-19T10:46:33Z</time>
      </trkpt>
      <trkpt lat="42.8637650" lon="-8.5700480">
        <ele>156.6</ele>
        <time>2022-06-19T10:46:34Z</time>
      </trkpt>
      <trkpt lat="42.8637430" lon="-8.5700560">
        <ele>156.6</ele>
        <time>2022-06-19T10:46:35Z</time>
      </trkpt>
      <trkpt lat="42.8637250" lon="-8.5700600">
        <ele>156.8</ele>
        <time>2022-06-19T10:46:36Z</time>
      </trkpt>
      <trkpt lat="42.8637100" lon="-8.5700610">
        <ele>157.4</ele>
        <time>2022-06-19T10:46:37Z</time>
      </trkpt>
      <trkpt lat="42.8636950" lon="-8.5700600">
        <ele>157.4</ele>
        <time>2022-06-19T10:46:38Z</time>
      </trkpt>
      <trkpt lat="42.8636730" lon="-8.5700660">
        <ele>157.4</ele>
        <time>2022-06-19T10:46:39Z</time>
      </trkpt>
      <trkpt lat="42.8636510" lon="-8.5700750">
        <ele>157.4</ele>
        <time>2022-06-19T10:46:40Z</time>
      </trkpt>
      <trkpt lat="42.8636260" lon="-8.5700780">
        <ele>158.0</ele>
        <time>2022-06-19T10:46:41Z</time>
      </trkpt>
      <trkpt lat="42.8636010" lon="-8.5700800">
        <ele>158.0</ele>
        <time>2022-06-19T10:46:42Z</time>
      </trkpt>
      <trkpt lat="42.8635830" lon="-8.5700830">
        <ele>158.0</ele>
        <time>2022-06-19T10:46:43Z</time>
      </trkpt>
      <trkpt lat="42.8635650" lon="-8.5700910">
        <ele>157.8</ele>
        <time>2022-06-19T10:46:44Z</time>
      </trkpt>
      <trkpt lat="42.8635450" lon="-8.5700950">
        <ele>157.8</ele>
        <time>2022-06-19T10:46:45Z</time>
      </trkpt>
      <trkpt lat="42.8635280" lon="-8.5700950">
        <ele>157.8</ele>
        <time>2022-06-19T10:46:46Z</time>
      </trkpt>
      <trkpt lat="42.8635110" lon="-8.5700980">
        <ele>157.8</ele>
        <time>2022-06-19T10:46:47Z</time>
      </trkpt>
      <trkpt lat="42.8634960" lon="-8.5700950">
        <ele>158.6</ele>
        <time>2022-06-19T10:46:48Z</time>
      </trkpt>
      <trkpt lat="42.8634830" lon="-8.5700950">
        <ele>158.4</ele>
        <time>2022-06-19T10:46:49Z</time>
      </trkpt>
      <trkpt lat="42.8634660" lon="-8.5700930">
        <ele>158.4</ele>
        <time>2022-06-19T10:46:50Z</time>
      </trkpt>
      <trkpt lat="42.8634460" lon="-8.5700910">
        <ele>158.4</ele>
        <time>2022-06-19T10:46:51Z</time>
      </trkpt>
      <trkpt lat="42.8634300" lon="-8.5700950">
        <ele>158.4</ele>
        <time>2022-06-19T10:46:52Z</time>
      </trkpt>
      <trkpt lat="42.8634080" lon="-8.5700860">
        <ele>158.8</ele>
        <time>2022-06-19T10:46:53Z</time>
      </trkpt>
      <trkpt lat="42.8633900" lon="-8.5700760">
        <ele>158.8</ele>
        <time>2022-06-19T10:46:54Z</time>
      </trkpt>
      <trkpt lat="42.8633680" lon="-8.5700830">
        <ele>158.8</ele>
        <time>2022-06-19T10:46:55Z</time>
      </trkpt>
      <trkpt lat="42.8633450" lon="-8.5700780">
        <ele>158.8</ele>
        <time>2022-06-19T10:46:56Z</time>
      </trkpt>
      <trkpt lat="42.8633210" lon="-8.5700750">
        <ele>158.4</ele>
        <time>2022-06-19T10:46:57Z</time>
      </trkpt>
      <trkpt lat="42.8632960" lon="-8.5700760">
        <ele>158.4</ele>
        <time>2022-06-19T10:46:58Z</time>
      </trkpt>
      <trkpt lat="42.8632730" lon="-8.5700800">
        <ele>158.4</ele>
        <time>2022-06-19T10:46:59Z</time>
      </trkpt>
      <trkpt lat="42.8632460" lon="-8.5700810">
        <ele>158.4</ele>
        <time>2022-06-19T10:47:00Z</time>
      </trkpt>
      <trkpt lat="42.8632250" lon="-8.5700760">
        <ele>158.6</ele>
        <time>2022-06-19T10:47:01Z</time>
      </trkpt>
      <trkpt lat="42.8631950" lon="-8.5700750">
        <ele>158.6</ele>
        <time>2022-06-19T10:47:02Z</time>
      </trkpt>
      <trkpt lat="42.8631660" lon="-8.5700730">
        <ele>158.6</ele>
        <time>2022-06-19T10:47:03Z</time>
      </trkpt>
      <trkpt lat="42.8631350" lon="-8.5700680">
        <ele>158.6</ele>
        <time>2022-06-19T10:47:04Z</time>
      </trkpt>
      <trkpt lat="42.8631060" lon="-8.5700700">
        <ele>158.2</ele>
        <time>2022-06-19T10:47:05Z</time>
      </trkpt>
      <trkpt lat="42.8630760" lon="-8.5700730">
        <ele>158.2</ele>
        <time>2022-06-19T10:47:06Z</time>
      </trkpt>
      <trkpt lat="42.8630580" lon="-8.5700780">
        <ele>158.2</ele>
        <time>2022-06-19T10:47:07Z</time>
      </trkpt>
      <trkpt lat="42.8630430" lon="-8.5700880">
        <ele>158.2</ele>
        <time>2022-06-19T10:47:08Z</time>
      </trkpt>
      <trkpt lat="42.8630260" lon="-8.5700950">
        <ele>158.0</ele>
        <time>2022-06-19T10:47:09Z</time>
      </trkpt>
      <trkpt lat="42.8630030" lon="-8.5701010">
        <ele>158.0</ele>
        <time>2022-06-19T10:47:10Z</time>
      </trkpt>
      <trkpt lat="42.8629810" lon="-8.5701010">
        <ele>158.0</ele>
        <time>2022-06-19T10:47:11Z</time>
      </trkpt>
      <trkpt lat="42.8629600" lon="-8.5700980">
        <ele>158.4</ele>
        <time>2022-06-19T10:47:12Z</time>
      </trkpt>
      <trkpt lat="42.8629360" lon="-8.5700850">
        <ele>158.6</ele>
        <time>2022-06-19T10:47:13Z</time>
      </trkpt>
      <trkpt lat="42.8629110" lon="-8.5700730">
        <ele>158.6</ele>
        <time>2022-06-19T10:47:14Z</time>
      </trkpt>
      <trkpt lat="42.8628910" lon="-8.5700700">
        <ele>158.6</ele>
        <time>2022-06-19T10:47:15Z</time>
      </trkpt>
      <trkpt lat="42.8628680" lon="-8.5700630">
        <ele>159.4</ele>
        <time>2022-06-19T10:47:16Z</time>
      </trkpt>
      <trkpt lat="42.8628460" lon="-8.5700510">
        <ele>159.0</ele>
        <time>2022-06-19T10:47:17Z</time>
      </trkpt>
      <trkpt lat="42.8628180" lon="-8.5700560">
        <ele>159.0</ele>
        <time>2022-06-19T10:47:18Z</time>
      </trkpt>
      <trkpt lat="42.8627950" lon="-8.5700510">
        <ele>159.0</ele>
        <time>2022-06-19T10:47:19Z</time>
      </trkpt>
      <trkpt lat="42.8627760" lon="-8.5700410">
        <ele>160.0</ele>
        <time>2022-06-19T10:47:20Z</time>
      </trkpt>
      <trkpt lat="42.8627560" lon="-8.5700350">
        <ele>160.0</ele>
        <time>2022-06-19T10:47:21Z</time>
      </trkpt>
      <trkpt lat="42.8627360" lon="-8.5700230">
        <ele>160.0</ele>
        <time>2022-06-19T10:47:22Z</time>
      </trkpt>
      <trkpt lat="42.8627200" lon="-8.5700130">
        <ele>160.0</ele>
        <time>2022-06-19T10:47:23Z</time>
      </trkpt>
      <trkpt lat="42.8627050" lon="-8.5700060">
        <ele>160.0</ele>
        <time>2022-06-19T10:47:24Z</time>
      </trkpt>
      <trkpt lat="42.8626860" lon="-8.5700060">
        <ele>159.4</ele>
        <time>2022-06-19T10:47:25Z</time>
      </trkpt>
      <trkpt lat="42.8626710" lon="-8.5699930">
        <ele>159.4</ele>
        <time>2022-06-19T10:47:26Z</time>
      </trkpt>
      <trkpt lat="42.8626530" lon="-8.5699800">
        <ele>159.4</ele>
        <time>2022-06-19T10:47:27Z</time>
      </trkpt>
      <trkpt lat="42.8626350" lon="-8.5699700">
        <ele>160.0</ele>
        <time>2022-06-19T10:47:28Z</time>
      </trkpt>
      <trkpt lat="42.8626180" lon="-8.5699600">
        <ele>160.6</ele>
        <time>2022-06-19T10:47:29Z</time>
      </trkpt>
      <trkpt lat="42.8626010" lon="-8.5699510">
        <ele>160.6</ele>
        <time>2022-06-19T10:47:30Z</time>
      </trkpt>
      <trkpt lat="42.8625850" lon="-8.5699410">
        <ele>160.6</ele>
        <time>2022-06-19T10:47:31Z</time>
      </trkpt>
      <trkpt lat="42.8625700" lon="-8.5699350">
        <ele>160.6</ele>
        <time>2022-06-19T10:47:32Z</time>
      </trkpt>
      <trkpt lat="42.8625560" lon="-8.5699300">
        <ele>161.6</ele>
        <time>2022-06-19T10:47:33Z</time>
      </trkpt>
      <trkpt lat="42.8625430" lon="-8.5699230">
        <ele>161.6</ele>
        <time>2022-06-19T10:47:34Z</time>
      </trkpt>
      <trkpt lat="42.8625260" lon="-8.5699210">
        <ele>161.6</ele>
        <time>2022-06-19T10:47:35Z</time>
      </trkpt>
      <trkpt lat="42.8625060" lon="-8.5699150">
        <ele>162.0</ele>
        <time>2022-06-19T10:47:36Z</time>
      </trkpt>
      <trkpt lat="42.8624880" lon="-8.5699080">
        <ele>162.0</ele>
        <time>2022-06-19T10:47:37Z</time>
      </trkpt>
      <trkpt lat="42.8624680" lon="-8.5699030">
        <ele>162.0</ele>
        <time>2022-06-19T10:47:38Z</time>
      </trkpt>
      <trkpt lat="42.8624510" lon="-8.5698960">
        <ele>162.0</ele>
        <time>2022-06-19T10:47:39Z</time>
      </trkpt>
      <trkpt lat="42.8624360" lon="-8.5698910">
        <ele>162.4</ele>
        <time>2022-06-19T10:47:40Z</time>
      </trkpt>
      <trkpt lat="42.8624180" lon="-8.5698850">
        <ele>162.6</ele>
        <time>2022-06-19T10:47:41Z</time>
      </trkpt>
      <trkpt lat="42.8624030" lon="-8.5698760">
        <ele>162.6</ele>
        <time>2022-06-19T10:47:42Z</time>
      </trkpt>
      <trkpt lat="42.8623880" lon="-8.5698700">
        <ele>162.6</ele>
        <time>2022-06-19T10:47:43Z</time>
      </trkpt>
      <trkpt lat="42.8623730" lon="-8.5698680">
        <ele>163.2</ele>
        <time>2022-06-19T10:47:44Z</time>
      </trkpt>
      <trkpt lat="42.8623600" lon="-8.5698630">
        <ele>163.0</ele>
        <time>2022-06-19T10:47:45Z</time>
      </trkpt>
      <trkpt lat="42.8623460" lon="-8.5698560">
        <ele>163.0</ele>
        <time>2022-06-19T10:47:46Z</time>
      </trkpt>
      <trkpt lat="42.8623330" lon="-8.5698550">
        <ele>163.0</ele>
        <time>2022-06-19T10:47:47Z</time>
      </trkpt>
      <trkpt lat="42.8623200" lon="-8.5698450">
        <ele>164.0</ele>
        <time>2022-06-19T10:47:48Z</time>
      </trkpt>
      <trkpt lat="42.8623050" lon="-8.5698350">
        <ele>164.0</ele>
        <time>2022-06-19T10:47:49Z</time>
      </trkpt>
      <trkpt lat="42.8622930" lon="-8.5698310">
        <ele>164.0</ele>
        <time>2022-06-19T10:47:50Z</time>
      </trkpt>
      <trkpt lat="42.8622800" lon="-8.5698300">
        <ele>164.0</ele>
        <time>2022-06-19T10:47:51Z</time>
      </trkpt>
      <trkpt lat="42.8622710" lon="-8.5698260">
        <ele>164.4</ele>
        <time>2022-06-19T10:47:52Z</time>
      </trkpt>
      <trkpt lat="42.8622600" lon="-8.5698230">
        <ele>164.8</ele>
        <time>2022-06-19T10:47:53Z</time>
      </trkpt>
      <trkpt lat="42.8622500" lon="-8.5698160">
        <ele>164.8</ele>
        <time>2022-06-19T10:47:54Z</time>
      </trkpt>
      <trkpt lat="42.8622360" lon="-8.5698150">
        <ele>164.8</ele>
        <time>2022-06-19T10:47:55Z</time>
      </trkpt>
      <trkpt lat="42.8622230" lon="-8.5698130">
        <ele>164.8</ele>
        <time>2022-06-19T10:47:56Z</time>
      </trkpt>
      <trkpt lat="42.8622150" lon="-8.5698100">
        <ele>165.0</ele>
        <time>2022-06-19T10:47:57Z</time>
      </trkpt>
      <trkpt lat="42.8622080" lon="-8.5698060">
        <ele>165.0</ele>
        <time>2022-06-19T10:47:58Z</time>
      </trkpt>
      <trkpt lat="42.8621960" lon="-8.5698030">
        <ele>165.0</ele>
        <time>2022-06-19T10:47:59Z</time>
      </trkpt>
      <trkpt lat="42.8621880" lon="-8.5697960">
        <ele>165.0</ele>
        <time>2022-06-19T10:48:00Z</time>
      </trkpt>
      <trkpt lat="42.8621800" lon="-8.5697930">
        <ele>166.0</ele>
        <time>2022-06-19T10:48:01Z</time>
      </trkpt>
      <trkpt lat="42.8621680" lon="-8.5697950">
        <ele>166.0</ele>
        <time>2022-06-19T10:48:02Z</time>
      </trkpt>
      <trkpt lat="42.8621500" lon="-8.5697960">
        <ele>166.0</ele>
        <time>2022-06-19T10:48:03Z</time>
      </trkpt>
      <trkpt lat="42.8621350" lon="-8.5698010">
        <ele>166.0</ele>
        <time>2022-06-19T10:48:04Z</time>
      </trkpt>
      <trkpt lat="42.8621200" lon="-8.5698060">
        <ele>166.2</ele>
        <time>2022-06-19T10:48:05Z</time>
      </trkpt>
      <trkpt lat="42.8621010" lon="-8.5698030">
        <ele>166.2</ele>
        <time>2022-06-19T10:48:06Z</time>
      </trkpt>
      <trkpt lat="42.8620780" lon="-8.5697980">
        <ele>166.2</ele>
        <time>2022-06-19T10:48:07Z</time>
      </trkpt>
      <trkpt lat="42.8620580" lon="-8.5697900">
        <ele>167.2</ele>
        <time>2022-06-19T10:48:08Z</time>
      </trkpt>
      <trkpt lat="42.8620330" lon="-8.5697850">
        <ele>166.4</ele>
        <time>2022-06-19T10:48:09Z</time>
      </trkpt>
      <trkpt lat="42.8620030" lon="-8.5697910">
        <ele>166.4</ele>
        <time>2022-06-19T10:48:10Z</time>
      </trkpt>
      <trkpt lat="42.8619650" lon="-8.5697900">
        <ele>166.4</ele>
        <time>2022-06-19T10:48:11Z</time>
      </trkpt>
      <trkpt lat="42.8619330" lon="-8.5697750">
        <ele>165.4</ele>
        <time>2022-06-19T10:48:12Z</time>
      </trkpt>
      <trkpt lat="42.8619000" lon="-8.5697580">
        <ele>163.4</ele>
        <time>2022-06-19T10:48:13Z</time>
      </trkpt>
      <trkpt lat="42.8618750" lon="-8.5697430">
        <ele>163.4</ele>
        <time>2022-06-19T10:48:14Z</time>
      </trkpt>
      <trkpt lat="42.8618500" lon="-8.5696950">
        <ele>163.4</ele>
        <time>2022-06-19T10:48:15Z</time>
      </trkpt>
      <trkpt lat="42.8618480" lon="-8.5696610">
        <ele>164.4</ele>
        <time>2022-06-19T10:48:16Z</time>
      </trkpt>
      <trkpt lat="42.8618380" lon="-8.5696460">
        <ele>166.2</ele>
        <time>2022-06-19T10:48:17Z</time>
      </trkpt>
      <trkpt lat="42.8618350" lon="-8.5696350">
        <ele>166.2</ele>
        <time>2022-06-19T10:48:18Z</time>
      </trkpt>
      <trkpt lat="42.8618200" lon="-8.5696280">
        <ele>166.2</ele>
        <time>2022-06-19T10:48:19Z</time>
      </trkpt>
      <trkpt lat="42.8618210" lon="-8.5696160">
        <ele>166.2</ele>
        <time>2022-06-19T10:48:20Z</time>
      </trkpt>
      <trkpt lat="42.8618300" lon="-8.5695960">
        <ele>167.0</ele>
        <time>2022-06-19T10:48:21Z</time>
      </trkpt>
      <trkpt lat="42.8618350" lon="-8.5695800">
        <ele>167.0</ele>
        <time>2022-06-19T10:48:22Z</time>
      </trkpt>
      <trkpt lat="42.8618380" lon="-8.5695650">
        <ele>167.0</ele>
        <time>2022-06-19T10:48:23Z</time>
      </trkpt>
      <trkpt lat="42.8618350" lon="-8.5695460">
        <ele>167.4</ele>
        <time>2022-06-19T10:48:24Z</time>
      </trkpt>
      <trkpt lat="42.8618300" lon="-8.5695310">
        <ele>167.6</ele>
        <time>2022-06-19T10:48:25Z</time>
      </trkpt>
      <trkpt lat="42.8618300" lon="-8.5695160">
        <ele>167.6</ele>
        <time>2022-06-19T10:48:26Z</time>
      </trkpt>
      <trkpt lat="42.8618280" lon="-8.5694950">
        <ele>167.6</ele>
        <time>2022-06-19T10:48:27Z</time>
      </trkpt>
      <trkpt lat="42.8618210" lon="-8.5694710">
        <ele>168.4</ele>
        <time>2022-06-19T10:48:28Z</time>
      </trkpt>
      <trkpt lat="42.8618230" lon="-8.5694500">
        <ele>168.6</ele>
        <time>2022-06-19T10:48:29Z</time>
      </trkpt>
      <trkpt lat="42.8618260" lon="-8.5694280">
        <ele>168.6</ele>
        <time>2022-06-19T10:48:30Z</time>
      </trkpt>
      <trkpt lat="42.8618300" lon="-8.5694110">
        <ele>168.6</ele>
        <time>2022-06-19T10:48:31Z</time>
      </trkpt>
      <trkpt lat="42.8618350" lon="-8.5693980">
        <ele>169.2</ele>
        <time>2022-06-19T10:48:32Z</time>
      </trkpt>
      <trkpt lat="42.8618360" lon="-8.5693730">
        <ele>169.2</ele>
        <time>2022-06-19T10:48:33Z</time>
      </trkpt>
      <trkpt lat="42.8618400" lon="-8.5693510">
        <ele>169.2</ele>
        <time>2022-06-19T10:48:34Z</time>
      </trkpt>
      <trkpt lat="42.8618460" lon="-8.5693310">
        <ele>169.2</ele>
        <time>2022-06-19T10:48:35Z</time>
      </trkpt>
      <trkpt lat="42.8618500" lon="-8.5693160">
        <ele>169.8</ele>
        <time>2022-06-19T10:48:36Z</time>
      </trkpt>
      <trkpt lat="42.8618510" lon="-8.5692960">
        <ele>169.8</ele>
        <time>2022-06-19T10:48:37Z</time>
      </trkpt>
      <trkpt lat="42.8618580" lon="-8.5692760">
        <ele>169.8</ele>
        <time>2022-06-19T10:48:38Z</time>
      </trkpt>
      <trkpt lat="42.8618680" lon="-8.5692550">
        <ele>169.8</ele>
        <time>2022-06-19T10:48:39Z</time>
      </trkpt>
      <trkpt lat="42.8618760" lon="-8.5692360">
        <ele>169.6</ele>
        <time>2022-06-19T10:48:40Z</time>
      </trkpt>
      <trkpt lat="42.8618810" lon="-8.5692100">
        <ele>170.0</ele>
        <time>2022-06-19T10:48:41Z</time>
      </trkpt>
      <trkpt lat="42.8618910" lon="-8.5691880">
        <ele>170.0</ele>
        <time>2022-06-19T10:48:42Z</time>
      </trkpt>
      <trkpt lat="42.8619010" lon="-8.5691700">
        <ele>170.0</ele>
        <time>2022-06-19T10:48:43Z</time>
      </trkpt>
      <trkpt lat="42.8619110" lon="-8.5691550">
        <ele>170.2</ele>
        <time>2022-06-19T10:48:44Z</time>
      </trkpt>
      <trkpt lat="42.8619300" lon="-8.5691350">
        <ele>170.0</ele>
        <time>2022-06-19T10:48:45Z</time>
      </trkpt>
      <trkpt lat="42.8619450" lon="-8.5691210">
        <ele>170.0</ele>
        <time>2022-06-19T10:48:46Z</time>
      </trkpt>
      <trkpt lat="42.8619630" lon="-8.5691050">
        <ele>170.0</ele>
        <time>2022-06-19T10:48:47Z</time>
      </trkpt>
      <trkpt lat="42.8619800" lon="-8.5690910">
        <ele>170.4</ele>
        <time>2022-06-19T10:48:48Z</time>
      </trkpt>
      <trkpt lat="42.8619910" lon="-8.5690700">
        <ele>170.6</ele>
        <time>2022-06-19T10:48:49Z</time>
      </trkpt>
      <trkpt lat="42.8620010" lon="-8.5690430">
        <ele>170.6</ele>
        <time>2022-06-19T10:48:50Z</time>
      </trkpt>
      <trkpt lat="42.8620150" lon="-8.5690180">
        <ele>170.6</ele>
        <time>2022-06-19T10:48:51Z</time>
      </trkpt>
      <trkpt lat="42.8620300" lon="-8.5690000">
        <ele>171.0</ele>
        <time>2022-06-19T10:48:52Z</time>
      </trkpt>
      <trkpt lat="42.8620450" lon="-8.5689760">
        <ele>170.6</ele>
        <time>2022-06-19T10:48:53Z</time>
      </trkpt>
      <trkpt lat="42.8620630" lon="-8.5689510">
        <ele>170.6</ele>
        <time>2022-06-19T10:48:54Z</time>
      </trkpt>
      <trkpt lat="42.8620780" lon="-8.5689280">
        <ele>170.6</ele>
        <time>2022-06-19T10:48:55Z</time>
      </trkpt>
      <trkpt lat="42.8620910" lon="-8.5689050">
        <ele>170.6</ele>
        <time>2022-06-19T10:48:56Z</time>
      </trkpt>
      <trkpt lat="42.8621030" lon="-8.5688800">
        <ele>170.2</ele>
        <time>2022-06-19T10:48:57Z</time>
      </trkpt>
      <trkpt lat="42.8621160" lon="-8.5688530">
        <ele>170.2</ele>
        <time>2022-06-19T10:48:58Z</time>
      </trkpt>
      <trkpt lat="42.8621300" lon="-8.5688260">
        <ele>170.2</ele>
        <time>2022-06-19T10:48:59Z</time>
      </trkpt>
      <trkpt lat="42.8621410" lon="-8.5688000">
        <ele>170.8</ele>
        <time>2022-06-19T10:49:00Z</time>
      </trkpt>
      <trkpt lat="42.8621530" lon="-8.5687730">
        <ele>171.0</ele>
        <time>2022-06-19T10:49:01Z</time>
      </trkpt>
      <trkpt lat="42.8621650" lon="-8.5687460">
        <ele>171.0</ele>
        <time>2022-06-19T10:49:02Z</time>
      </trkpt>
      <trkpt lat="42.8621780" lon="-8.5687200">
        <ele>171.0</ele>
        <time>2022-06-19T10:49:03Z</time>
      </trkpt>
      <trkpt lat="42.8621930" lon="-8.5686930">
        <ele>171.6</ele>
        <time>2022-06-19T10:49:04Z</time>
      </trkpt>
      <trkpt lat="42.8622060" lon="-8.5686680">
        <ele>171.6</ele>
        <time>2022-06-19T10:49:05Z</time>
      </trkpt>
      <trkpt lat="42.8622200" lon="-8.5686410">
        <ele>171.6</ele>
        <time>2022-06-19T10:49:06Z</time>
      </trkpt>
      <trkpt lat="42.8622310" lon="-8.5686160">
        <ele>171.6</ele>
        <time>2022-06-19T10:49:07Z</time>
      </trkpt>
      <trkpt lat="42.8622410" lon="-8.5685910">
        <ele>171.6</ele>
        <time>2022-06-19T10:49:08Z</time>
      </trkpt>
      <trkpt lat="42.8622530" lon="-8.5685650">
        <ele>171.6</ele>
        <time>2022-06-19T10:49:09Z</time>
      </trkpt>
      <trkpt lat="42.8622650" lon="-8.5685380">
        <ele>171.6</ele>
        <time>2022-06-19T10:49:10Z</time>
      </trkpt>
      <trkpt lat="42.8622780" lon="-8.5685110">
        <ele>171.6</ele>
        <time>2022-06-19T10:49:11Z</time>
      </trkpt>
      <trkpt lat="42.8622900" lon="-8.5684860">
        <ele>171.6</ele>
        <time>2022-06-19T10:49:12Z</time>
      </trkpt>
      <trkpt lat="42.8623030" lon="-8.5684610">
        <ele>172.4</ele>
        <time>2022-06-19T10:49:13Z</time>
      </trkpt>
      <trkpt lat="42.8623130" lon="-8.5684350">
        <ele>172.4</ele>
        <time>2022-06-19T10:49:14Z</time>
      </trkpt>
      <trkpt lat="42.8623230" lon="-8.5684080">
        <ele>172.4</ele>
        <time>2022-06-19T10:49:15Z</time>
      </trkpt>
      <trkpt lat="42.8623310" lon="-8.5683830">
        <ele>172.4</ele>
        <time>2022-06-19T10:49:16Z</time>
      </trkpt>
      <trkpt lat="42.8623410" lon="-8.5683560">
        <ele>172.0</ele>
        <time>2022-06-19T10:49:17Z</time>
      </trkpt>
      <trkpt lat="42.8623510" lon="-8.5683310">
        <ele>172.0</ele>
        <time>2022-06-19T10:49:18Z</time>
      </trkpt>
      <trkpt lat="42.8623630" lon="-8.5683060">
        <ele>172.0</ele>
        <time>2022-06-19T10:49:19Z</time>
      </trkpt>
      <trkpt lat="42.8623750" lon="-8.5682830">
        <ele>172.0</ele>
        <time>2022-06-19T10:49:20Z</time>
      </trkpt>
      <trkpt lat="42.8623850" lon="-8.5682560">
        <ele>172.4</ele>
        <time>2022-06-19T10:49:21Z</time>
      </trkpt>
      <trkpt lat="42.8623950" lon="-8.5682300">
        <ele>172.4</ele>
        <time>2022-06-19T10:49:22Z</time>
      </trkpt>
      <trkpt lat="42.8624030" lon="-8.5682010">
        <ele>172.4</ele>
        <time>2022-06-19T10:49:23Z</time>
      </trkpt>
      <trkpt lat="42.8624080" lon="-8.5681750">
        <ele>172.4</ele>
        <time>2022-06-19T10:49:24Z</time>
      </trkpt>
      <trkpt lat="42.8624110" lon="-8.5681460">
        <ele>172.4</ele>
        <time>2022-06-19T10:49:25Z</time>
      </trkpt>
      <trkpt lat="42.8624130" lon="-8.5681180">
        <ele>172.4</ele>
        <time>2022-06-19T10:49:26Z</time>
      </trkpt>
      <trkpt lat="42.8624160" lon="-8.5680910">
        <ele>172.4</ele>
        <time>2022-06-19T10:49:27Z</time>
      </trkpt>
      <trkpt lat="42.8624180" lon="-8.5680680">
        <ele>172.6</ele>
        <time>2022-06-19T10:49:28Z</time>
      </trkpt>
      <trkpt lat="42.8624180" lon="-8.5680450">
        <ele>172.8</ele>
        <time>2022-06-19T10:49:29Z</time>
      </trkpt>
      <trkpt lat="42.8624160" lon="-8.5680160">
        <ele>172.8</ele>
        <time>2022-06-19T10:49:30Z</time>
      </trkpt>
      <trkpt lat="42.8624160" lon="-8.5679910">
        <ele>172.8</ele>
        <time>2022-06-19T10:49:31Z</time>
      </trkpt>
      <trkpt lat="42.8624180" lon="-8.5679710">
        <ele>172.8</ele>
        <time>2022-06-19T10:49:32Z</time>
      </trkpt>
      <trkpt lat="42.8624160" lon="-8.5679500">
        <ele>173.0</ele>
        <time>2022-06-19T10:49:33Z</time>
      </trkpt>
      <trkpt lat="42.8624130" lon="-8.5679250">
        <ele>173.0</ele>
        <time>2022-06-19T10:49:34Z</time>
      </trkpt>
      <trkpt lat="42.8624110" lon="-8.5678950">
        <ele>173.0</ele>
        <time>2022-06-19T10:49:35Z</time>
      </trkpt>
      <trkpt lat="42.8624060" lon="-8.5678700">
        <ele>173.4</ele>
        <time>2022-06-19T10:49:36Z</time>
      </trkpt>
      <trkpt lat="42.8624010" lon="-8.5678460">
        <ele>173.6</ele>
        <time>2022-06-19T10:49:37Z</time>
      </trkpt>
      <trkpt lat="42.8623980" lon="-8.5678180">
        <ele>173.6</ele>
        <time>2022-06-19T10:49:38Z</time>
      </trkpt>
      <trkpt lat="42.8623930" lon="-8.5677930">
        <ele>173.6</ele>
        <time>2022-06-19T10:49:39Z</time>
      </trkpt>
      <trkpt lat="42.8623910" lon="-8.5677660">
        <ele>174.0</ele>
        <time>2022-06-19T10:49:40Z</time>
      </trkpt>
      <trkpt lat="42.8623860" lon="-8.5677430">
        <ele>174.2</ele>
        <time>2022-06-19T10:49:41Z</time>
      </trkpt>
      <trkpt lat="42.8623810" lon="-8.5677200">
        <ele>174.2</ele>
        <time>2022-06-19T10:49:42Z</time>
      </trkpt>
      <trkpt lat="42.8623780" lon="-8.5676950">
        <ele>174.2</ele>
        <time>2022-06-19T10:49:43Z</time>
      </trkpt>
      <trkpt lat="42.8623750" lon="-8.5676710">
        <ele>174.2</ele>
        <time>2022-06-19T10:49:44Z</time>
      </trkpt>
      <trkpt lat="42.8623730" lon="-8.5676500">
        <ele>174.0</ele>
        <time>2022-06-19T10:49:45Z</time>
      </trkpt>
      <trkpt lat="42.8623750" lon="-8.5676300">
        <ele>174.0</ele>
        <time>2022-06-19T10:49:46Z</time>
      </trkpt>
      <trkpt lat="42.8623760" lon="-8.5676060">
        <ele>174.0</ele>
        <time>2022-06-19T10:49:47Z</time>
      </trkpt>
      <trkpt lat="42.8623760" lon="-8.5675800">
        <ele>173.6</ele>
        <time>2022-06-19T10:49:48Z</time>
      </trkpt>
      <trkpt lat="42.8623750" lon="-8.5675550">
        <ele>173.8</ele>
        <time>2022-06-19T10:49:49Z</time>
      </trkpt>
      <trkpt lat="42.8623800" lon="-8.5675300">
        <ele>173.8</ele>
        <time>2022-06-19T10:49:50Z</time>
      </trkpt>
      <trkpt lat="42.8623860" lon="-8.5675010">
        <ele>173.8</ele>
        <time>2022-06-19T10:49:51Z</time>
      </trkpt>
      <trkpt lat="42.8623910" lon="-8.5674700">
        <ele>173.6</ele>
        <time>2022-06-19T10:49:52Z</time>
      </trkpt>
      <trkpt lat="42.8623930" lon="-8.5674360">
        <ele>173.6</ele>
        <time>2022-06-19T10:49:53Z</time>
      </trkpt>
      <trkpt lat="42.8623900" lon="-8.5674010">
        <ele>173.6</ele>
        <time>2022-06-19T10:49:54Z</time>
      </trkpt>
      <trkpt lat="42.8623800" lon="-8.5673610">
        <ele>173.6</ele>
        <time>2022-06-19T10:49:55Z</time>
      </trkpt>
      <trkpt lat="42.8623730" lon="-8.5673150">
        <ele>172.6</ele>
        <time>2022-06-19T10:49:56Z</time>
      </trkpt>
      <trkpt lat="42.8623710" lon="-8.5672660">
        <ele>172.0</ele>
        <time>2022-06-19T10:49:57Z</time>
      </trkpt>
      <trkpt lat="42.8623780" lon="-8.5672080">
        <ele>172.0</ele>
        <time>2022-06-19T10:49:58Z</time>
      </trkpt>
      <trkpt lat="42.8623910" lon="-8.5671480">
        <ele>172.0</ele>
        <time>2022-06-19T10:49:59Z</time>
      </trkpt>
      <trkpt lat="42.8624080" lon="-8.5670900">
        <ele>171.0</ele>
        <time>2022-06-19T10:50:00Z</time>
      </trkpt>
      <trkpt lat="42.8624280" lon="-8.5670360">
        <ele>169.8</ele>
        <time>2022-06-19T10:50:01Z</time>
      </trkpt>
      <trkpt lat="42.8624510" lon="-8.5669900">
        <ele>169.8</ele>
        <time>2022-06-19T10:50:02Z</time>
      </trkpt>
      <trkpt lat="42.8624780" lon="-8.5669500">
        <ele>169.8</ele>
        <time>2022-06-19T10:50:03Z</time>
      </trkpt>
      <trkpt lat="42.8625060" lon="-8.5669100">
        <ele>170.8</ele>
        <time>2022-06-19T10:50:04Z</time>
      </trkpt>
      <trkpt lat="42.8625310" lon="-8.5668760">
        <ele>171.2</ele>
        <time>2022-06-19T10:50:05Z</time>
      </trkpt>
      <trkpt lat="42.8625560" lon="-8.5668500">
        <ele>171.2</ele>
        <time>2022-06-19T10:50:06Z</time>
      </trkpt>
      <trkpt lat="42.8625800" lon="-8.5668280">
        <ele>171.2</ele>
        <time>2022-06-19T10:50:07Z</time>
      </trkpt>
      <trkpt lat="42.8625960" lon="-8.5668110">
        <ele>172.2</ele>
        <time>2022-06-19T10:50:08Z</time>
      </trkpt>
      <trkpt lat="42.8626150" lon="-8.5667910">
        <ele>172.6</ele>
        <time>2022-06-19T10:50:09Z</time>
      </trkpt>
      <trkpt lat="42.8626350" lon="-8.5667730">
        <ele>172.6</ele>
        <time>2022-06-19T10:50:10Z</time>
      </trkpt>
      <trkpt lat="42.8626560" lon="-8.5667560">
        <ele>172.6</ele>
        <time>2022-06-19T10:50:11Z</time>
      </trkpt>
      <trkpt lat="42.8626780" lon="-8.5667410">
        <ele>173.0</ele>
        <time>2022-06-19T10:50:12Z</time>
      </trkpt>
      <trkpt lat="42.8626980" lon="-8.5667260">
        <ele>172.8</ele>
        <time>2022-06-19T10:50:13Z</time>
      </trkpt>
      <trkpt lat="42.8627200" lon="-8.5667100">
        <ele>172.8</ele>
        <time>2022-06-19T10:50:14Z</time>
      </trkpt>
      <trkpt lat="42.8627400" lon="-8.5666910">
        <ele>172.8</ele>
        <time>2022-06-19T10:50:15Z</time>
      </trkpt>
      <trkpt lat="42.8627600" lon="-8.5666750">
        <ele>172.8</ele>
        <time>2022-06-19T10:50:16Z</time>
      </trkpt>
      <trkpt lat="42.8627800" lon="-8.5666610">
        <ele>173.0</ele>
        <time>2022-06-19T10:50:17Z</time>
      </trkpt>
      <trkpt lat="42.8627980" lon="-8.5666480">
        <ele>173.0</ele>
        <time>2022-06-19T10:50:18Z</time>
      </trkpt>
      <trkpt lat="42.8628160" lon="-8.5666330">
        <ele>173.0</ele>
        <time>2022-06-19T10:50:19Z</time>
      </trkpt>
      <trkpt lat="42.8628360" lon="-8.5666210">
        <ele>173.0</ele>
        <time>2022-06-19T10:50:20Z</time>
      </trkpt>
      <trkpt lat="42.8628580" lon="-8.5666100">
        <ele>173.6</ele>
        <time>2022-06-19T10:50:21Z</time>
      </trkpt>
      <trkpt lat="42.8628780" lon="-8.5665980">
        <ele>173.6</ele>
        <time>2022-06-19T10:50:22Z</time>
      </trkpt>
      <trkpt lat="42.8628960" lon="-8.5665830">
        <ele>173.6</ele>
        <time>2022-06-19T10:50:23Z</time>
      </trkpt>
      <trkpt lat="42.8629160" lon="-8.5665660">
        <ele>173.6</ele>
        <time>2022-06-19T10:50:24Z</time>
      </trkpt>
      <trkpt lat="42.8629350" lon="-8.5665500">
        <ele>174.0</ele>
        <time>2022-06-19T10:50:25Z</time>
      </trkpt>
      <trkpt lat="42.8629550" lon="-8.5665350">
        <ele>174.0</ele>
        <time>2022-06-19T10:50:26Z</time>
      </trkpt>
      <trkpt lat="42.8629730" lon="-8.5665200">
        <ele>174.0</ele>
        <time>2022-06-19T10:50:27Z</time>
      </trkpt>
      <trkpt lat="42.8629910" lon="-8.5665050">
        <ele>174.6</ele>
        <time>2022-06-19T10:50:28Z</time>
      </trkpt>
      <trkpt lat="42.8630100" lon="-8.5664900">
        <ele>174.4</ele>
        <time>2022-06-19T10:50:29Z</time>
      </trkpt>
      <trkpt lat="42.8630280" lon="-8.5664780">
        <ele>174.4</ele>
        <time>2022-06-19T10:50:30Z</time>
      </trkpt>
      <trkpt lat="42.8630430" lon="-8.5664700">
        <ele>174.4</ele>
        <time>2022-06-19T10:50:31Z</time>
      </trkpt>
      <trkpt lat="42.8630560" lon="-8.5664580">
        <ele>175.0</ele>
        <time>2022-06-19T10:50:32Z</time>
      </trkpt>
      <trkpt lat="42.8630630" lon="-8.5664450">
        <ele>175.4</ele>
        <time>2022-06-19T10:50:33Z</time>
      </trkpt>
      <trkpt lat="42.8630680" lon="-8.5664330">
        <ele>175.4</ele>
        <time>2022-06-19T10:50:34Z</time>
      </trkpt>
      <trkpt lat="42.8630810" lon="-8.5664310">
        <ele>175.4</ele>
        <time>2022-06-19T10:50:35Z</time>
      </trkpt>
      <trkpt lat="42.8630960" lon="-8.5664310">
        <ele>175.8</ele>
        <time>2022-06-19T10:50:36Z</time>
      </trkpt>
      <trkpt lat="42.8631050" lon="-8.5664160">
        <ele>175.6</ele>
        <time>2022-06-19T10:50:37Z</time>
      </trkpt>
      <trkpt lat="42.8631110" lon="-8.5663960">
        <ele>175.6</ele>
        <time>2022-06-19T10:50:38Z</time>
      </trkpt>
      <trkpt lat="42.8631200" lon="-8.5663810">
        <ele>175.6</ele>
        <time>2022-06-19T10:50:39Z</time>
      </trkpt>
      <trkpt lat="42.8631230" lon="-8.5663660">
        <ele>176.0</ele>
        <time>2022-06-19T10:50:40Z</time>
      </trkpt>
      <trkpt lat="42.8631250" lon="-8.5663550">
        <ele>176.0</ele>
        <time>2022-06-19T10:50:41Z</time>
      </trkpt>
      <trkpt lat="42.8631280" lon="-8.5663430">
        <ele>176.0</ele>
        <time>2022-06-19T10:50:42Z</time>
      </trkpt>
      <trkpt lat="42.8631300" lon="-8.5663330">
        <ele>176.0</ele>
        <time>2022-06-19T10:50:43Z</time>
      </trkpt>
      <trkpt lat="42.8631350" lon="-8.5663260">
        <ele>176.2</ele>
        <time>2022-06-19T10:50:44Z</time>
      </trkpt>
      <trkpt lat="42.8631380" lon="-8.5663150">
        <ele>175.8</ele>
        <time>2022-06-19T10:50:45Z</time>
      </trkpt>
      <trkpt lat="42.8631430" lon="-8.5663010">
        <ele>175.8</ele>
        <time>2022-06-19T10:50:46Z</time>
      </trkpt>
      <trkpt lat="42.8631500" lon="-8.5662900">
        <ele>175.8</ele>
        <time>2022-06-19T10:50:47Z</time>
      </trkpt>
      <trkpt lat="42.8631610" lon="-8.5662760">
        <ele>175.8</ele>
        <time>2022-06-19T10:50:48Z</time>
      </trkpt>
      <trkpt lat="42.8631700" lon="-8.5662600">
        <ele>176.2</ele>
        <time>2022-06-19T10:50:49Z</time>
      </trkpt>
      <trkpt lat="42.8631710" lon="-8.5662460">
        <ele>176.2</ele>
        <time>2022-06-19T10:50:50Z</time>
      </trkpt>
      <trkpt lat="42.8631760" lon="-8.5662350">
        <ele>176.2</ele>
        <time>2022-06-19T10:50:51Z</time>
      </trkpt>
      <trkpt lat="42.8631850" lon="-8.5662180">
        <ele>176.4</ele>
        <time>2022-06-19T10:50:52Z</time>
      </trkpt>
      <trkpt lat="42.8631950" lon="-8.5662050">
        <ele>176.6</ele>
        <time>2022-06-19T10:50:53Z</time>
      </trkpt>
      <trkpt lat="42.8632030" lon="-8.5661900">
        <ele>176.6</ele>
        <time>2022-06-19T10:50:54Z</time>
      </trkpt>
      <trkpt lat="42.8632080" lon="-8.5661710">
        <ele>176.6</ele>
        <time>2022-06-19T10:50:55Z</time>
      </trkpt>
      <trkpt lat="42.8632130" lon="-8.5661560">
        <ele>176.6</ele>
        <time>2022-06-19T10:50:56Z</time>
      </trkpt>
      <trkpt lat="42.8632210" lon="-8.5661380">
        <ele>176.8</ele>
        <time>2022-06-19T10:50:57Z</time>
      </trkpt>
      <trkpt lat="42.8632280" lon="-8.5661210">
        <ele>176.8</ele>
        <time>2022-06-19T10:50:58Z</time>
      </trkpt>
      <trkpt lat="42.8632380" lon="-8.5661010">
        <ele>176.8</ele>
        <time>2022-06-19T10:50:59Z</time>
      </trkpt>
      <trkpt lat="42.8632450" lon="-8.5660800">
        <ele>177.6</ele>
        <time>2022-06-19T10:51:00Z</time>
      </trkpt>
      <trkpt lat="42.8632500" lon="-8.5660560">
        <ele>177.6</ele>
        <time>2022-06-19T10:51:01Z</time>
      </trkpt>
      <trkpt lat="42.8632580" lon="-8.5660330">
        <ele>177.6</ele>
        <time>2022-06-19T10:51:02Z</time>
      </trkpt>
      <trkpt lat="42.8632660" lon="-8.5660100">
        <ele>177.6</ele>
        <time>2022-06-19T10:51:03Z</time>
      </trkpt>
      <trkpt lat="42.8632800" lon="-8.5659910">
        <ele>177.6</ele>
        <time>2022-06-19T10:51:04Z</time>
      </trkpt>
      <trkpt lat="42.8632880" lon="-8.5659710">
        <ele>178.0</ele>
        <time>2022-06-19T10:51:05Z</time>
      </trkpt>
      <trkpt lat="42.8632960" lon="-8.5659480">
        <ele>178.0</ele>
        <time>2022-06-19T10:51:06Z</time>
      </trkpt>
      <trkpt lat="42.8633030" lon="-8.5659230">
        <ele>178.0</ele>
        <time>2022-06-19T10:51:07Z</time>
      </trkpt>
      <trkpt lat="42.8633080" lon="-8.5658930">
        <ele>179.0</ele>
        <time>2022-06-19T10:51:08Z</time>
      </trkpt>
      <trkpt lat="42.8633080" lon="-8.5658650">
        <ele>178.8</ele>
        <time>2022-06-19T10:51:09Z</time>
      </trkpt>
      <trkpt lat="42.8633080" lon="-8.5658330">
        <ele>178.8</ele>
        <time>2022-06-19T10:51:10Z</time>
      </trkpt>
      <trkpt lat="42.8633100" lon="-8.5658060">
        <ele>178.8</ele>
        <time>2022-06-19T10:51:11Z</time>
      </trkpt>
      <trkpt lat="42.8633130" lon="-8.5657850">
        <ele>179.6</ele>
        <time>2022-06-19T10:51:12Z</time>
      </trkpt>
      <trkpt lat="42.8633150" lon="-8.5657660">
        <ele>179.6</ele>
        <time>2022-06-19T10:51:13Z</time>
      </trkpt>
      <trkpt lat="42.8633160" lon="-8.5657430">
        <ele>179.6</ele>
        <time>2022-06-19T10:51:14Z</time>
      </trkpt>
      <trkpt lat="42.8633200" lon="-8.5657250">
        <ele>179.6</ele>
        <time>2022-06-19T10:51:15Z</time>
      </trkpt>
      <trkpt lat="42.8633250" lon="-8.5657150">
        <ele>180.6</ele>
        <time>2022-06-19T10:51:16Z</time>
      </trkpt>
      <trkpt lat="42.8633250" lon="-8.5657150">
        <ele>180.4</ele>
        <time>2022-06-19T10:51:17Z</time>
      </trkpt>
      <trkpt lat="42.8633680" lon="-8.5656410">
        <ele>180.6</ele>
        <time>2022-06-19T10:51:52Z</time>
      </trkpt>
      <trkpt lat="42.8633750" lon="-8.5656300">
        <ele>180.8</ele>
        <time>2022-06-19T10:51:53Z</time>
      </trkpt>
      <trkpt lat="42.8633800" lon="-8.5656110">
        <ele>180.8</ele>
        <time>2022-06-19T10:51:54Z</time>
      </trkpt>
      <trkpt lat="42.8633860" lon="-8.5655900">
        <ele>180.8</ele>
        <time>2022-06-19T10:51:55Z</time>
      </trkpt>
      <trkpt lat="42.8633960" lon="-8.5655560">
        <ele>180.8</ele>
        <time>2022-06-19T10:51:56Z</time>
      </trkpt>
      <trkpt lat="42.8634080" lon="-8.5655200">
        <ele>181.8</ele>
        <time>2022-06-19T10:51:57Z</time>
      </trkpt>
      <trkpt lat="42.8634180" lon="-8.5654930">
        <ele>181.8</ele>
        <time>2022-06-19T10:51:58Z</time>
      </trkpt>
      <trkpt lat="42.8634310" lon="-8.5654700">
        <ele>181.8</ele>
        <time>2022-06-19T10:51:59Z</time>
      </trkpt>
      <trkpt lat="42.8634430" lon="-8.5654460">
        <ele>181.8</ele>
        <time>2022-06-19T10:52:00Z</time>
      </trkpt>
      <trkpt lat="42.8634530" lon="-8.5654210">
        <ele>182.8</ele>
        <time>2022-06-19T10:52:01Z</time>
      </trkpt>
      <trkpt lat="42.8634650" lon="-8.5653980">
        <ele>182.8</ele>
        <time>2022-06-19T10:52:02Z</time>
      </trkpt>
      <trkpt lat="42.8634760" lon="-8.5653750">
        <ele>182.8</ele>
        <time>2022-06-19T10:52:03Z</time>
      </trkpt>
      <trkpt lat="42.8634900" lon="-8.5653530">
        <ele>183.0</ele>
        <time>2022-06-19T10:52:04Z</time>
      </trkpt>
      <trkpt lat="42.8635050" lon="-8.5653330">
        <ele>183.0</ele>
        <time>2022-06-19T10:52:05Z</time>
      </trkpt>
      <trkpt lat="42.8635230" lon="-8.5653200">
        <ele>183.0</ele>
        <time>2022-06-19T10:52:06Z</time>
      </trkpt>
      <trkpt lat="42.8635410" lon="-8.5653060">
        <ele>183.0</ele>
        <time>2022-06-19T10:52:07Z</time>
      </trkpt>
      <trkpt lat="42.8635650" lon="-8.5652950">
        <ele>183.0</ele>
        <time>2022-06-19T10:52:08Z</time>
      </trkpt>
      <trkpt lat="42.8635860" lon="-8.5652850">
        <ele>183.0</ele>
        <time>2022-06-19T10:52:09Z</time>
      </trkpt>
      <trkpt lat="42.8636100" lon="-8.5652710">
        <ele>183.0</ele>
        <time>2022-06-19T10:52:10Z</time>
      </trkpt>
      <trkpt lat="42.8636330" lon="-8.5652600">
        <ele>183.0</ele>
        <time>2022-06-19T10:52:11Z</time>
      </trkpt>
      <trkpt lat="42.8636600" lon="-8.5652460">
        <ele>182.2</ele>
        <time>2022-06-19T10:52:12Z</time>
      </trkpt>
      <trkpt lat="42.8636850" lon="-8.5652300">
        <ele>182.0</ele>
        <time>2022-06-19T10:52:13Z</time>
      </trkpt>
      <trkpt lat="42.8637130" lon="-8.5652110">
        <ele>182.0</ele>
        <time>2022-06-19T10:52:14Z</time>
      </trkpt>
      <trkpt lat="42.8637430" lon="-8.5651930">
        <ele>182.0</ele>
        <time>2022-06-19T10:52:15Z</time>
      </trkpt>
      <trkpt lat="42.8637750" lon="-8.5651730">
        <ele>181.2</ele>
        <time>2022-06-19T10:52:16Z</time>
      </trkpt>
      <trkpt lat="42.8638080" lon="-8.5651510">
        <ele>181.2</ele>
        <time>2022-06-19T10:52:17Z</time>
      </trkpt>
      <trkpt lat="42.8638430" lon="-8.5651300">
        <ele>181.2</ele>
        <time>2022-06-19T10:52:18Z</time>
      </trkpt>
      <trkpt lat="42.8638780" lon="-8.5651080">
        <ele>181.2</ele>
        <time>2022-06-19T10:52:19Z</time>
      </trkpt>
      <trkpt lat="42.8639150" lon="-8.5650880">
        <ele>181.2</ele>
        <time>2022-06-19T10:52:20Z</time>
      </trkpt>
      <trkpt lat="42.8639510" lon="-8.5650630">
        <ele>180.8</ele>
        <time>2022-06-19T10:52:21Z</time>
      </trkpt>
      <trkpt lat="42.8639900" lon="-8.5650350">
        <ele>180.8</ele>
        <time>2022-06-19T10:52:22Z</time>
      </trkpt>
      <trkpt lat="42.8640260" lon="-8.5650080">
        <ele>180.8</ele>
        <time>2022-06-19T10:52:23Z</time>
      </trkpt>
      <trkpt lat="42.8640650" lon="-8.5649800">
        <ele>180.8</ele>
        <time>2022-06-19T10:52:24Z</time>
      </trkpt>
      <trkpt lat="42.8641000" lon="-8.5649480">
        <ele>180.8</ele>
        <time>2022-06-19T10:52:25Z</time>
      </trkpt>
      <trkpt lat="42.8641310" lon="-8.5649130">
        <ele>180.8</ele>
        <time>2022-06-19T10:52:26Z</time>
      </trkpt>
      <trkpt lat="42.8641630" lon="-8.5648800">
        <ele>180.8</ele>
        <time>2022-06-19T10:52:27Z</time>
      </trkpt>
      <trkpt lat="42.8641980" lon="-8.5648460">
        <ele>180.6</ele>
        <time>2022-06-19T10:52:28Z</time>
      </trkpt>
      <trkpt lat="42.8642260" lon="-8.5648100">
        <ele>180.6</ele>
        <time>2022-06-19T10:52:29Z</time>
      </trkpt>
      <trkpt lat="42.8642560" lon="-8.5647750">
        <ele>180.6</ele>
        <time>2022-06-19T10:52:30Z</time>
      </trkpt>
      <trkpt lat="42.8642880" lon="-8.5647430">
        <ele>180.6</ele>
        <time>2022-06-19T10:52:31Z</time>
      </trkpt>
      <trkpt lat="42.8643210" lon="-8.5647080">
        <ele>180.6</ele>
        <time>2022-06-19T10:52:32Z</time>
      </trkpt>
      <trkpt lat="42.8643510" lon="-8.5646750">
        <ele>181.2</ele>
        <time>2022-06-19T10:52:33Z</time>
      </trkpt>
      <trkpt lat="42.8643760" lon="-8.5646400">
        <ele>181.2</ele>
        <time>2022-06-19T10:52:34Z</time>
      </trkpt>
      <trkpt lat="42.8644060" lon="-8.5646060">
        <ele>181.2</ele>
        <time>2022-06-19T10:52:35Z</time>
      </trkpt>
      <trkpt lat="42.8644380" lon="-8.5645760">
        <ele>181.0</ele>
        <time>2022-06-19T10:52:36Z</time>
      </trkpt>
      <trkpt lat="42.8644660" lon="-8.5645450">
        <ele>180.8</ele>
        <time>2022-06-19T10:52:37Z</time>
      </trkpt>
      <trkpt lat="42.8644960" lon="-8.5645130">
        <ele>180.8</ele>
        <time>2022-06-19T10:52:38Z</time>
      </trkpt>
      <trkpt lat="42.8645280" lon="-8.5644830">
        <ele>180.8</ele>
        <time>2022-06-19T10:52:39Z</time>
      </trkpt>
      <trkpt lat="42.8645600" lon="-8.5644550">
        <ele>180.8</ele>
        <time>2022-06-19T10:52:40Z</time>
      </trkpt>
      <trkpt lat="42.8645900" lon="-8.5644230">
        <ele>181.0</ele>
        <time>2022-06-19T10:52:41Z</time>
      </trkpt>
      <trkpt lat="42.8646180" lon="-8.5643910">
        <ele>181.0</ele>
        <time>2022-06-19T10:52:42Z</time>
      </trkpt>
      <trkpt lat="42.8646460" lon="-8.5643610">
        <ele>181.0</ele>
        <time>2022-06-19T10:52:43Z</time>
      </trkpt>
      <trkpt lat="42.8646710" lon="-8.5643300">
        <ele>181.0</ele>
        <time>2022-06-19T10:52:44Z</time>
      </trkpt>
      <trkpt lat="42.8646950" lon="-8.5642950">
        <ele>180.6</ele>
        <time>2022-06-19T10:52:45Z</time>
      </trkpt>
      <trkpt lat="42.8647200" lon="-8.5642630">
        <ele>180.6</ele>
        <time>2022-06-19T10:52:46Z</time>
      </trkpt>
      <trkpt lat="42.8647430" lon="-8.5642350">
        <ele>180.6</ele>
        <time>2022-06-19T10:52:47Z</time>
      </trkpt>
      <trkpt lat="42.8647680" lon="-8.5642060">
        <ele>180.4</ele>
        <time>2022-06-19T10:52:48Z</time>
      </trkpt>
      <trkpt lat="42.8647910" lon="-8.5641760">
        <ele>180.4</ele>
        <time>2022-06-19T10:52:49Z</time>
      </trkpt>
      <trkpt lat="42.8648150" lon="-8.5641450">
        <ele>180.4</ele>
        <time>2022-06-19T10:52:50Z</time>
      </trkpt>
      <trkpt lat="42.8648400" lon="-8.5641200">
        <ele>180.4</ele>
        <time>2022-06-19T10:52:51Z</time>
      </trkpt>
      <trkpt lat="42.8648650" lon="-8.5640930">
        <ele>180.8</ele>
        <time>2022-06-19T10:52:52Z</time>
      </trkpt>
      <trkpt lat="42.8648880" lon="-8.5640650">
        <ele>180.4</ele>
        <time>2022-06-19T10:52:53Z</time>
      </trkpt>
      <trkpt lat="42.8649100" lon="-8.5640400">
        <ele>180.4</ele>
        <time>2022-06-19T10:52:54Z</time>
      </trkpt>
      <trkpt lat="42.8649330" lon="-8.5640110">
        <ele>180.4</ele>
        <time>2022-06-19T10:52:55Z</time>
      </trkpt>
      <trkpt lat="42.8649580" lon="-8.5639830">
        <ele>180.2</ele>
        <time>2022-06-19T10:52:56Z</time>
      </trkpt>
      <trkpt lat="42.8649780" lon="-8.5639500">
        <ele>180.2</ele>
        <time>2022-06-19T10:52:57Z</time>
      </trkpt>
      <trkpt lat="42.8650050" lon="-8.5639180">
        <ele>180.2</ele>
        <time>2022-06-19T10:52:58Z</time>
      </trkpt>
      <trkpt lat="42.8650350" lon="-8.5638850">
        <ele>180.2</ele>
        <time>2022-06-19T10:52:59Z</time>
      </trkpt>
      <trkpt lat="42.8650650" lon="-8.5638550">
        <ele>179.4</ele>
        <time>2022-06-19T10:53:00Z</time>
      </trkpt>
      <trkpt lat="42.8650950" lon="-8.5638250">
        <ele>179.4</ele>
        <time>2022-06-19T10:53:01Z</time>
      </trkpt>
      <trkpt lat="42.8651230" lon="-8.5637900">
        <ele>179.4</ele>
        <time>2022-06-19T10:53:02Z</time>
      </trkpt>
      <trkpt lat="42.8651530" lon="-8.5637550">
        <ele>179.4</ele>
        <time>2022-06-19T10:53:03Z</time>
      </trkpt>
      <trkpt lat="42.8651810" lon="-8.5637160">
        <ele>179.0</ele>
        <time>2022-06-19T10:53:04Z</time>
      </trkpt>
      <trkpt lat="42.8652080" lon="-8.5636780">
        <ele>179.2</ele>
        <time>2022-06-19T10:53:05Z</time>
      </trkpt>
      <trkpt lat="42.8652410" lon="-8.5636430">
        <ele>179.2</ele>
        <time>2022-06-19T10:53:06Z</time>
      </trkpt>
      <trkpt lat="42.8652780" lon="-8.5636080">
        <ele>179.2</ele>
        <time>2022-06-19T10:53:07Z</time>
      </trkpt>
      <trkpt lat="42.8653080" lon="-8.5635710">
        <ele>179.0</ele>
        <time>2022-06-19T10:53:08Z</time>
      </trkpt>
      <trkpt lat="42.8653360" lon="-8.5635330">
        <ele>178.8</ele>
        <time>2022-06-19T10:53:09Z</time>
      </trkpt>
      <trkpt lat="42.8653700" lon="-8.5634960">
        <ele>178.8</ele>
        <time>2022-06-19T10:53:10Z</time>
      </trkpt>
      <trkpt lat="42.8654050" lon="-8.5634610">
        <ele>178.8</ele>
        <time>2022-06-19T10:53:11Z</time>
      </trkpt>
      <trkpt lat="42.8654350" lon="-8.5634230">
        <ele>179.2</ele>
        <time>2022-06-19T10:53:12Z</time>
      </trkpt>
      <trkpt lat="42.8654600" lon="-8.5633760">
        <ele>179.4</ele>
        <time>2022-06-19T10:53:13Z</time>
      </trkpt>
      <trkpt lat="42.8654850" lon="-8.5633310">
        <ele>179.4</ele>
        <time>2022-06-19T10:53:14Z</time>
      </trkpt>
      <trkpt lat="42.8655150" lon="-8.5632900">
        <ele>179.4</ele>
        <time>2022-06-19T10:53:15Z</time>
      </trkpt>
      <trkpt lat="42.8655450" lon="-8.5632500">
        <ele>179.2</ele>
        <time>2022-06-19T10:53:16Z</time>
      </trkpt>
      <trkpt lat="42.8655750" lon="-8.5632080">
        <ele>178.6</ele>
        <time>2022-06-19T10:53:17Z</time>
      </trkpt>
      <trkpt lat="42.8656030" lon="-8.5631630">
        <ele>178.6</ele>
        <time>2022-06-19T10:53:18Z</time>
      </trkpt>
      <trkpt lat="42.8656330" lon="-8.5631230">
        <ele>178.6</ele>
        <time>2022-06-19T10:53:19Z</time>
      </trkpt>
      <trkpt lat="42.8656610" lon="-8.5630810">
        <ele>178.6</ele>
        <time>2022-06-19T10:53:20Z</time>
      </trkpt>
      <trkpt lat="42.8656950" lon="-8.5630460">
        <ele>178.2</ele>
        <time>2022-06-19T10:53:21Z</time>
      </trkpt>
      <trkpt lat="42.8657300" lon="-8.5630280">
        <ele>178.2</ele>
        <time>2022-06-19T10:53:22Z</time>
      </trkpt>
      <trkpt lat="42.8657660" lon="-8.5630250">
        <ele>178.2</ele>
        <time>2022-06-19T10:53:23Z</time>
      </trkpt>
      <trkpt lat="42.8658010" lon="-8.5630400">
        <ele>178.6</ele>
        <time>2022-06-19T10:53:24Z</time>
      </trkpt>
      <trkpt lat="42.8658280" lon="-8.5630650">
        <ele>177.8</ele>
        <time>2022-06-19T10:53:25Z</time>
      </trkpt>
      <trkpt lat="42.8658530" lon="-8.5630980">
        <ele>177.8</ele>
        <time>2022-06-19T10:53:26Z</time>
      </trkpt>
      <trkpt lat="42.8658750" lon="-8.5631260">
        <ele>177.8</ele>
        <time>2022-06-19T10:53:27Z</time>
      </trkpt>
      <trkpt lat="42.8658980" lon="-8.5631580">
        <ele>178.8</ele>
        <time>2022-06-19T10:53:28Z</time>
      </trkpt>
      <trkpt lat="42.8659180" lon="-8.5631860">
        <ele>179.6</ele>
        <time>2022-06-19T10:53:29Z</time>
      </trkpt>
      <trkpt lat="42.8659360" lon="-8.5632130">
        <ele>179.6</ele>
        <time>2022-06-19T10:53:30Z</time>
      </trkpt>
      <trkpt lat="42.8659560" lon="-8.5632360">
        <ele>179.6</ele>
        <time>2022-06-19T10:53:31Z</time>
      </trkpt>
      <trkpt lat="42.8659750" lon="-8.5632600">
        <ele>180.6</ele>
        <time>2022-06-19T10:53:32Z</time>
      </trkpt>
      <trkpt lat="42.8659930" lon="-8.5632810">
        <ele>181.2</ele>
        <time>2022-06-19T10:53:33Z</time>
      </trkpt>
      <trkpt lat="42.8660160" lon="-8.5632950">
        <ele>181.2</ele>
        <time>2022-06-19T10:53:34Z</time>
      </trkpt>
      <trkpt lat="42.8660400" lon="-8.5632810">
        <ele>181.2</ele>
        <time>2022-06-19T10:53:35Z</time>
      </trkpt>
      <trkpt lat="42.8660630" lon="-8.5632630">
        <ele>181.2</ele>
        <time>2022-06-19T10:53:36Z</time>
      </trkpt>
      <trkpt lat="42.8660830" lon="-8.5632430">
        <ele>181.4</ele>
        <time>2022-06-19T10:53:37Z</time>
      </trkpt>
      <trkpt lat="42.8660960" lon="-8.5632180">
        <ele>181.4</ele>
        <time>2022-06-19T10:53:38Z</time>
      </trkpt>
      <trkpt lat="42.8661100" lon="-8.5631980">
        <ele>181.4</ele>
        <time>2022-06-19T10:53:39Z</time>
      </trkpt>
      <trkpt lat="42.8661210" lon="-8.5631810">
        <ele>182.4</ele>
        <time>2022-06-19T10:53:40Z</time>
      </trkpt>
      <trkpt lat="42.8661310" lon="-8.5631630">
        <ele>182.6</ele>
        <time>2022-06-19T10:53:41Z</time>
      </trkpt>
      <trkpt lat="42.8661410" lon="-8.5631460">
        <ele>182.6</ele>
        <time>2022-06-19T10:53:42Z</time>
      </trkpt>
      <trkpt lat="42.8661500" lon="-8.5631300">
        <ele>182.6</ele>
        <time>2022-06-19T10:53:43Z</time>
      </trkpt>
      <trkpt lat="42.8661580" lon="-8.5631180">
        <ele>182.6</ele>
        <time>2022-06-19T10:53:44Z</time>
      </trkpt>
      <trkpt lat="42.8661680" lon="-8.5631000">
        <ele>183.0</ele>
        <time>2022-06-19T10:53:45Z</time>
      </trkpt>
      <trkpt lat="42.8661830" lon="-8.5630810">
        <ele>183.0</ele>
        <time>2022-06-19T10:53:46Z</time>
      </trkpt>
      <trkpt lat="42.8661960" lon="-8.5630610">
        <ele>183.0</ele>
        <time>2022-06-19T10:53:47Z</time>
      </trkpt>
      <trkpt lat="42.8662110" lon="-8.5630430">
        <ele>183.0</ele>
        <time>2022-06-19T10:53:48Z</time>
      </trkpt>
      <trkpt lat="42.8662230" lon="-8.5630230">
        <ele>183.2</ele>
        <time>2022-06-19T10:53:49Z</time>
      </trkpt>
      <trkpt lat="42.8662330" lon="-8.5630100">
        <ele>183.2</ele>
        <time>2022-06-19T10:53:50Z</time>
      </trkpt>
      <trkpt lat="42.8662510" lon="-8.5630010">
        <ele>183.2</ele>
        <time>2022-06-19T10:53:51Z</time>
      </trkpt>
      <trkpt lat="42.8662710" lon="-8.5629960">
        <ele>184.0</ele>
        <time>2022-06-19T10:53:52Z</time>
      </trkpt>
      <trkpt lat="42.8662930" lon="-8.5629910">
        <ele>183.4</ele>
        <time>2022-06-19T10:53:53Z</time>
      </trkpt>
      <trkpt lat="42.8663150" lon="-8.5629900">
        <ele>183.4</ele>
        <time>2022-06-19T10:53:54Z</time>
      </trkpt>
      <trkpt lat="42.8663330" lon="-8.5629860">
        <ele>183.4</ele>
        <time>2022-06-19T10:53:55Z</time>
      </trkpt>
      <trkpt lat="42.8663550" lon="-8.5629760">
        <ele>184.0</ele>
        <time>2022-06-19T10:53:56Z</time>
      </trkpt>
      <trkpt lat="42.8663780" lon="-8.5629710">
        <ele>184.6</ele>
        <time>2022-06-19T10:53:57Z</time>
      </trkpt>
      <trkpt lat="42.8664030" lon="-8.5629700">
        <ele>184.6</ele>
        <time>2022-06-19T10:53:58Z</time>
      </trkpt>
      <trkpt lat="42.8664230" lon="-8.5629610">
        <ele>184.6</ele>
        <time>2022-06-19T10:53:59Z</time>
      </trkpt>
      <trkpt lat="42.8664380" lon="-8.5629530">
        <ele>185.2</ele>
        <time>2022-06-19T10:54:00Z</time>
      </trkpt>
      <trkpt lat="42.8664500" lon="-8.5629480">
        <ele>185.6</ele>
        <time>2022-06-19T10:54:01Z</time>
      </trkpt>
      <trkpt lat="42.8664660" lon="-8.5629360">
        <ele>185.6</ele>
        <time>2022-06-19T10:54:02Z</time>
      </trkpt>
      <trkpt lat="42.8664830" lon="-8.5629180">
        <ele>185.6</ele>
        <time>2022-06-19T10:54:03Z</time>
      </trkpt>
      <trkpt lat="42.8665030" lon="-8.5629000">
        <ele>185.8</ele>
        <time>2022-06-19T10:54:04Z</time>
      </trkpt>
      <trkpt lat="42.8665250" lon="-8.5628860">
        <ele>186.2</ele>
        <time>2022-06-19T10:54:05Z</time>
      </trkpt>
      <trkpt lat="42.8665480" lon="-8.5628830">
        <ele>186.2</ele>
        <time>2022-06-19T10:54:06Z</time>
      </trkpt>
      <trkpt lat="42.8665710" lon="-8.5628780">
        <ele>186.2</ele>
        <time>2022-06-19T10:54:07Z</time>
      </trkpt>
      <trkpt lat="42.8665950" lon="-8.5628700">
        <ele>186.4</ele>
        <time>2022-06-19T10:54:08Z</time>
      </trkpt>
      <trkpt lat="42.8666180" lon="-8.5628610">
        <ele>186.8</ele>
        <time>2022-06-19T10:54:09Z</time>
      </trkpt>
      <trkpt lat="42.8666410" lon="-8.5628560">
        <ele>186.8</ele>
        <time>2022-06-19T10:54:10Z</time>
      </trkpt>
      <trkpt lat="42.8666650" lon="-8.5628510">
        <ele>186.8</ele>
        <time>2022-06-19T10:54:11Z</time>
      </trkpt>
      <trkpt lat="42.8666860" lon="-8.5628410">
        <ele>186.8</ele>
        <time>2022-06-19T10:54:12Z</time>
      </trkpt>
      <trkpt lat="42.8667080" lon="-8.5628260">
        <ele>187.6</ele>
        <time>2022-06-19T10:54:13Z</time>
      </trkpt>
      <trkpt lat="42.8667260" lon="-8.5628100">
        <ele>187.6</ele>
        <time>2022-06-19T10:54:14Z</time>
      </trkpt>
      <trkpt lat="42.8667450" lon="-8.5627950">
        <ele>187.6</ele>
        <time>2022-06-19T10:54:15Z</time>
      </trkpt>
      <trkpt lat="42.8667650" lon="-8.5627730">
        <ele>187.6</ele>
        <time>2022-06-19T10:54:16Z</time>
      </trkpt>
      <trkpt lat="42.8667810" lon="-8.5627530">
        <ele>188.0</ele>
        <time>2022-06-19T10:54:17Z</time>
      </trkpt>
      <trkpt lat="42.8667980" lon="-8.5627400">
        <ele>188.0</ele>
        <time>2022-06-19T10:54:18Z</time>
      </trkpt>
      <trkpt lat="42.8668200" lon="-8.5627280">
        <ele>188.0</ele>
        <time>2022-06-19T10:54:19Z</time>
      </trkpt>
      <trkpt lat="42.8668410" lon="-8.5627130">
        <ele>188.0</ele>
        <time>2022-06-19T10:54:20Z</time>
      </trkpt>
      <trkpt lat="42.8668580" lon="-8.5626900">
        <ele>188.4</ele>
        <time>2022-06-19T10:54:21Z</time>
      </trkpt>
      <trkpt lat="42.8668730" lon="-8.5626700">
        <ele>188.4</ele>
        <time>2022-06-19T10:54:22Z</time>
      </trkpt>
      <trkpt lat="42.8668880" lon="-8.5626500">
        <ele>188.4</ele>
        <time>2022-06-19T10:54:23Z</time>
      </trkpt>
      <trkpt lat="42.8669050" lon="-8.5626300">
        <ele>189.2</ele>
        <time>2022-06-19T10:54:24Z</time>
      </trkpt>
      <trkpt lat="42.8669250" lon="-8.5626150">
        <ele>189.0</ele>
        <time>2022-06-19T10:54:25Z</time>
      </trkpt>
      <trkpt lat="42.8669430" lon="-8.5625950">
        <ele>189.0</ele>
        <time>2022-06-19T10:54:26Z</time>
      </trkpt>
      <trkpt lat="42.8669610" lon="-8.5625780">
        <ele>189.0</ele>
        <time>2022-06-19T10:54:27Z</time>
      </trkpt>
      <trkpt lat="42.8669800" lon="-8.5625630">
        <ele>189.0</ele>
        <time>2022-06-19T10:54:28Z</time>
      </trkpt>
      <trkpt lat="42.8669980" lon="-8.5625480">
        <ele>189.4</ele>
        <time>2022-06-19T10:54:29Z</time>
      </trkpt>
      <trkpt lat="42.8670160" lon="-8.5625330">
        <ele>189.4</ele>
        <time>2022-06-19T10:54:30Z</time>
      </trkpt>
      <trkpt lat="42.8670330" lon="-8.5625160">
        <ele>189.4</ele>
        <time>2022-06-19T10:54:31Z</time>
      </trkpt>
      <trkpt lat="42.8670510" lon="-8.5625050">
        <ele>189.6</ele>
        <time>2022-06-19T10:54:32Z</time>
      </trkpt>
      <trkpt lat="42.8670730" lon="-8.5624930">
        <ele>189.8</ele>
        <time>2022-06-19T10:54:33Z</time>
      </trkpt>
      <trkpt lat="42.8670930" lon="-8.5624760">
        <ele>189.8</ele>
        <time>2022-06-19T10:54:34Z</time>
      </trkpt>
      <trkpt lat="42.8671130" lon="-8.5624650">
        <ele>189.8</ele>
        <time>2022-06-19T10:54:35Z</time>
      </trkpt>
      <trkpt lat="42.8671310" lon="-8.5624530">
        <ele>190.6</ele>
        <time>2022-06-19T10:54:36Z</time>
      </trkpt>
      <trkpt lat="42.8671500" lon="-8.5624280">
        <ele>190.8</ele>
        <time>2022-06-19T10:54:37Z</time>
      </trkpt>
      <trkpt lat="42.8671680" lon="-8.5624110">
        <ele>190.8</ele>
        <time>2022-06-19T10:54:38Z</time>
      </trkpt>
      <trkpt lat="42.8671860" lon="-8.5624010">
        <ele>190.8</ele>
        <time>2022-06-19T10:54:39Z</time>
      </trkpt>
      <trkpt lat="42.8672050" lon="-8.5623960">
        <ele>191.0</ele>
        <time>2022-06-19T10:54:40Z</time>
      </trkpt>
      <trkpt lat="42.8672230" lon="-8.5623850">
        <ele>191.4</ele>
        <time>2022-06-19T10:54:41Z</time>
      </trkpt>
      <trkpt lat="42.8672400" lon="-8.5623630">
        <ele>191.4</ele>
        <time>2022-06-19T10:54:42Z</time>
      </trkpt>
      <trkpt lat="42.8672580" lon="-8.5623500">
        <ele>191.4</ele>
        <time>2022-06-19T10:54:43Z</time>
      </trkpt>
      <trkpt lat="42.8672810" lon="-8.5623380">
        <ele>192.0</ele>
        <time>2022-06-19T10:54:44Z</time>
      </trkpt>
      <trkpt lat="42.8672980" lon="-8.5623230">
        <ele>192.0</ele>
        <time>2022-06-19T10:54:45Z</time>
      </trkpt>
      <trkpt lat="42.8673200" lon="-8.5623130">
        <ele>192.0</ele>
        <time>2022-06-19T10:54:46Z</time>
      </trkpt>
      <trkpt lat="42.8673410" lon="-8.5623080">
        <ele>192.0</ele>
        <time>2022-06-19T10:54:47Z</time>
      </trkpt>
      <trkpt lat="42.8673630" lon="-8.5623010">
        <ele>192.4</ele>
        <time>2022-06-19T10:54:48Z</time>
      </trkpt>
      <trkpt lat="42.8673830" lon="-8.5622860">
        <ele>192.8</ele>
        <time>2022-06-19T10:54:49Z</time>
      </trkpt>
      <trkpt lat="42.8674000" lon="-8.5622700">
        <ele>192.8</ele>
        <time>2022-06-19T10:54:50Z</time>
      </trkpt>
      <trkpt lat="42.8674180" lon="-8.5622530">
        <ele>192.8</ele>
        <time>2022-06-19T10:54:51Z</time>
      </trkpt>
      <trkpt lat="42.8674380" lon="-8.5622400">
        <ele>193.4</ele>
        <time>2022-06-19T10:54:52Z</time>
      </trkpt>
      <trkpt lat="42.8674610" lon="-8.5622250">
        <ele>194.2</ele>
        <time>2022-06-19T10:54:53Z</time>
      </trkpt>
      <trkpt lat="42.8674850" lon="-8.5622110">
        <ele>194.2</ele>
        <time>2022-06-19T10:54:54Z</time>
      </trkpt>
      <trkpt lat="42.8675060" lon="-8.5622000">
        <ele>194.2</ele>
        <time>2022-06-19T10:54:55Z</time>
      </trkpt>
      <trkpt lat="42.8675230" lon="-8.5621930">
        <ele>194.2</ele>
        <time>2022-06-19T10:54:56Z</time>
      </trkpt>
      <trkpt lat="42.8675410" lon="-8.5621810">
        <ele>195.6</ele>
        <time>2022-06-19T10:54:57Z</time>
      </trkpt>
      <trkpt lat="42.8675550" lon="-8.5621710">
        <ele>195.6</ele>
        <time>2022-06-19T10:54:58Z</time>
      </trkpt>
      <trkpt lat="42.8675650" lon="-8.5621600">
        <ele>195.6</ele>
        <time>2022-06-19T10:54:59Z</time>
      </trkpt>
      <trkpt lat="42.8675760" lon="-8.5621450">
        <ele>195.6</ele>
        <time>2022-06-19T10:55:00Z</time>
      </trkpt>
      <trkpt lat="42.8675900" lon="-8.5621260">
        <ele>195.6</ele>
        <time>2022-06-19T10:55:01Z</time>
      </trkpt>
      <trkpt lat="42.8676100" lon="-8.5621180">
        <ele>195.6</ele>
        <time>2022-06-19T10:55:02Z</time>
      </trkpt>
      <trkpt lat="42.8676300" lon="-8.5621160">
        <ele>195.6</ele>
        <time>2022-06-19T10:55:03Z</time>
      </trkpt>
      <trkpt lat="42.8676460" lon="-8.5621160">
        <ele>196.2</ele>
        <time>2022-06-19T10:55:04Z</time>
      </trkpt>
      <trkpt lat="42.8676650" lon="-8.5621060">
        <ele>196.0</ele>
        <time>2022-06-19T10:55:05Z</time>
      </trkpt>
      <trkpt lat="42.8676810" lon="-8.5620880">
        <ele>196.0</ele>
        <time>2022-06-19T10:55:06Z</time>
      </trkpt>
      <trkpt lat="42.8676960" lon="-8.5620660">
        <ele>196.0</ele>
        <time>2022-06-19T10:55:07Z</time>
      </trkpt>
      <trkpt lat="42.8677150" lon="-8.5620430">
        <ele>196.0</ele>
        <time>2022-06-19T10:55:08Z</time>
      </trkpt>
      <trkpt lat="42.8677310" lon="-8.5620180">
        <ele>195.8</ele>
        <time>2022-06-19T10:55:09Z</time>
      </trkpt>
      <trkpt lat="42.8677480" lon="-8.5619930">
        <ele>195.8</ele>
        <time>2022-06-19T10:55:10Z</time>
      </trkpt>
      <trkpt lat="42.8677660" lon="-8.5619700">
        <ele>195.8</ele>
        <time>2022-06-19T10:55:11Z</time>
      </trkpt>
      <trkpt lat="42.8677830" lon="-8.5619460">
        <ele>195.8</ele>
        <time>2022-06-19T10:55:12Z</time>
      </trkpt>
      <trkpt lat="42.8677980" lon="-8.5619230">
        <ele>195.6</ele>
        <time>2022-06-19T10:55:13Z</time>
      </trkpt>
      <trkpt lat="42.8678150" lon="-8.5619000">
        <ele>195.6</ele>
        <time>2022-06-19T10:55:14Z</time>
      </trkpt>
      <trkpt lat="42.8678310" lon="-8.5618750">
        <ele>195.6</ele>
        <time>2022-06-19T10:55:15Z</time>
      </trkpt>
      <trkpt lat="42.8678460" lon="-8.5618530">
        <ele>196.2</ele>
        <time>2022-06-19T10:55:16Z</time>
      </trkpt>
      <trkpt lat="42.8678650" lon="-8.5618310">
        <ele>196.4</ele>
        <time>2022-06-19T10:55:17Z</time>
      </trkpt>
      <trkpt lat="42.8678830" lon="-8.5618080">
        <ele>196.4</ele>
        <time>2022-06-19T10:55:18Z</time>
      </trkpt>
      <trkpt lat="42.8679010" lon="-8.5617860">
        <ele>196.4</ele>
        <time>2022-06-19T10:55:19Z</time>
      </trkpt>
      <trkpt lat="42.8679160" lon="-8.5617610">
        <ele>196.2</ele>
        <time>2022-06-19T10:55:20Z</time>
      </trkpt>
      <trkpt lat="42.8679330" lon="-8.5617380">
        <ele>196.4</ele>
        <time>2022-06-19T10:55:21Z</time>
      </trkpt>
      <trkpt lat="42.8679500" lon="-8.5617150">
        <ele>196.4</ele>
        <time>2022-06-19T10:55:22Z</time>
      </trkpt>
      <trkpt lat="42.8679660" lon="-8.5616910">
        <ele>196.4</ele>
        <time>2022-06-19T10:55:23Z</time>
      </trkpt>
      <trkpt lat="42.8679850" lon="-8.5616660">
        <ele>196.8</ele>
        <time>2022-06-19T10:55:24Z</time>
      </trkpt>
      <trkpt lat="42.8680000" lon="-8.5616430">
        <ele>196.6</ele>
        <time>2022-06-19T10:55:25Z</time>
      </trkpt>
      <trkpt lat="42.8680160" lon="-8.5616180">
        <ele>196.6</ele>
        <time>2022-06-19T10:55:26Z</time>
      </trkpt>
      <trkpt lat="42.8680330" lon="-8.5615910">
        <ele>196.6</ele>
        <time>2022-06-19T10:55:27Z</time>
      </trkpt>
      <trkpt lat="42.8680480" lon="-8.5615660">
        <ele>196.6</ele>
        <time>2022-06-19T10:55:28Z</time>
      </trkpt>
      <trkpt lat="42.8680650" lon="-8.5615410">
        <ele>197.0</ele>
        <time>2022-06-19T10:55:29Z</time>
      </trkpt>
      <trkpt lat="42.8680760" lon="-8.5615130">
        <ele>197.0</ele>
        <time>2022-06-19T10:55:30Z</time>
      </trkpt>
      <trkpt lat="42.8680880" lon="-8.5614860">
        <ele>197.0</ele>
        <time>2022-06-19T10:55:31Z</time>
      </trkpt>
      <trkpt lat="42.8680950" lon="-8.5614610">
        <ele>198.0</ele>
        <time>2022-06-19T10:55:32Z</time>
      </trkpt>
      <trkpt lat="42.8681080" lon="-8.5614360">
        <ele>198.2</ele>
        <time>2022-06-19T10:55:33Z</time>
      </trkpt>
      <trkpt lat="42.8681250" lon="-8.5614150">
        <ele>198.2</ele>
        <time>2022-06-19T10:55:34Z</time>
      </trkpt>
      <trkpt lat="42.8681410" lon="-8.5613880">
        <ele>198.2</ele>
        <time>2022-06-19T10:55:35Z</time>
      </trkpt>
      <trkpt lat="42.8681560" lon="-8.5613600">
        <ele>198.4</ele>
        <time>2022-06-19T10:55:36Z</time>
      </trkpt>
      <trkpt lat="42.8681710" lon="-8.5613330">
        <ele>198.4</ele>
        <time>2022-06-19T10:55:37Z</time>
      </trkpt>
      <trkpt lat="42.8681830" lon="-8.5613060">
        <ele>198.4</ele>
        <time>2022-06-19T10:55:38Z</time>
      </trkpt>
      <trkpt lat="42.8681960" lon="-8.5612810">
        <ele>198.4</ele>
        <time>2022-06-19T10:55:39Z</time>
      </trkpt>
      <trkpt lat="42.8682160" lon="-8.5612660">
        <ele>198.4</ele>
        <time>2022-06-19T10:55:40Z</time>
      </trkpt>
      <trkpt lat="42.8682400" lon="-8.5612580">
        <ele>198.8</ele>
        <time>2022-06-19T10:55:41Z</time>
      </trkpt>
      <trkpt lat="42.8682600" lon="-8.5612410">
        <ele>198.8</ele>
        <time>2022-06-19T10:55:42Z</time>
      </trkpt>
      <trkpt lat="42.8682780" lon="-8.5612160">
        <ele>198.8</ele>
        <time>2022-06-19T10:55:43Z</time>
      </trkpt>
      <trkpt lat="42.8682950" lon="-8.5611930">
        <ele>198.8</ele>
        <time>2022-06-19T10:55:44Z</time>
      </trkpt>
      <trkpt lat="42.8683130" lon="-8.5611660">
        <ele>198.6</ele>
        <time>2022-06-19T10:55:45Z</time>
      </trkpt>
      <trkpt lat="42.8683330" lon="-8.5611410">
        <ele>198.6</ele>
        <time>2022-06-19T10:55:46Z</time>
      </trkpt>
      <trkpt lat="42.8683500" lon="-8.5611230">
        <ele>198.6</ele>
        <time>2022-06-19T10:55:47Z</time>
      </trkpt>
      <trkpt lat="42.8683680" lon="-8.5611000">
        <ele>198.6</ele>
        <time>2022-06-19T10:55:48Z</time>
      </trkpt>
      <trkpt lat="42.8683860" lon="-8.5610730">
        <ele>198.6</ele>
        <time>2022-06-19T10:55:49Z</time>
      </trkpt>
      <trkpt lat="42.8684030" lon="-8.5610450">
        <ele>198.6</ele>
        <time>2022-06-19T10:55:50Z</time>
      </trkpt>
      <trkpt lat="42.8684180" lon="-8.5610050">
        <ele>198.6</ele>
        <time>2022-06-19T10:55:51Z</time>
      </trkpt>
      <trkpt lat="42.8684200" lon="-8.5609710">
        <ele>198.8</ele>
        <time>2022-06-19T10:55:52Z</time>
      </trkpt>
      <trkpt lat="42.8684300" lon="-8.5609460">
        <ele>199.2</ele>
        <time>2022-06-19T10:55:53Z</time>
      </trkpt>
      <trkpt lat="42.8684450" lon="-8.5609210">
        <ele>199.2</ele>
        <time>2022-06-19T10:55:54Z</time>
      </trkpt>
      <trkpt lat="42.8684650" lon="-8.5608960">
        <ele>199.2</ele>
        <time>2022-06-19T10:55:55Z</time>
      </trkpt>
      <trkpt lat="42.8684860" lon="-8.5608730">
        <ele>199.2</ele>
        <time>2022-06-19T10:55:56Z</time>
      </trkpt>
      <trkpt lat="42.8685100" lon="-8.5608550">
        <ele>200.0</ele>
        <time>2022-06-19T10:55:57Z</time>
      </trkpt>
      <trkpt lat="42.8685300" lon="-8.5608350">
        <ele>200.0</ele>
        <time>2022-06-19T10:55:58Z</time>
      </trkpt>
      <trkpt lat="42.8685480" lon="-8.5608180">
        <ele>200.0</ele>
        <time>2022-06-19T10:55:59Z</time>
      </trkpt>
      <trkpt lat="42.8685680" lon="-8.5608000">
        <ele>199.4</ele>
        <time>2022-06-19T10:56:00Z</time>
      </trkpt>
      <trkpt lat="42.8685860" lon="-8.5607730">
        <ele>199.6</ele>
        <time>2022-06-19T10:56:01Z</time>
      </trkpt>
      <trkpt lat="42.8686050" lon="-8.5607460">
        <ele>199.6</ele>
        <time>2022-06-19T10:56:02Z</time>
      </trkpt>
      <trkpt lat="42.8686210" lon="-8.5607210">
        <ele>199.6</ele>
        <time>2022-06-19T10:56:03Z</time>
      </trkpt>
      <trkpt lat="42.8686410" lon="-8.5606960">
        <ele>200.2</ele>
        <time>2022-06-19T10:56:04Z</time>
      </trkpt>
      <trkpt lat="42.8686610" lon="-8.5606750">
        <ele>200.2</ele>
        <time>2022-06-19T10:56:05Z</time>
      </trkpt>
      <trkpt lat="42.8686780" lon="-8.5606500">
        <ele>200.2</ele>
        <time>2022-06-19T10:56:06Z</time>
      </trkpt>
      <trkpt lat="42.8686950" lon="-8.5606230">
        <ele>200.2</ele>
        <time>2022-06-19T10:56:07Z</time>
      </trkpt>
      <trkpt lat="42.8687100" lon="-8.5605910">
        <ele>200.4</ele>
        <time>2022-06-19T10:56:08Z</time>
      </trkpt>
      <trkpt lat="42.8687230" lon="-8.5605660">
        <ele>200.2</ele>
        <time>2022-06-19T10:56:09Z</time>
      </trkpt>
      <trkpt lat="42.8687330" lon="-8.5605380">
        <ele>200.2</ele>
        <time>2022-06-19T10:56:10Z</time>
      </trkpt>
      <trkpt lat="42.8687480" lon="-8.5605100">
        <ele>200.2</ele>
        <time>2022-06-19T10:56:11Z</time>
      </trkpt>
      <trkpt lat="42.8687680" lon="-8.5604810">
        <ele>200.6</ele>
        <time>2022-06-19T10:56:12Z</time>
      </trkpt>
      <trkpt lat="42.8687910" lon="-8.5604610">
        <ele>200.2</ele>
        <time>2022-06-19T10:56:13Z</time>
      </trkpt>
      <trkpt lat="42.8688110" lon="-8.5604380">
        <ele>200.2</ele>
        <time>2022-06-19T10:56:14Z</time>
      </trkpt>
      <trkpt lat="42.8688310" lon="-8.5604130">
        <ele>200.2</ele>
        <time>2022-06-19T10:56:15Z</time>
      </trkpt>
      <trkpt lat="42.8688460" lon="-8.5603900">
        <ele>200.2</ele>
        <time>2022-06-19T10:56:16Z</time>
      </trkpt>
      <trkpt lat="42.8688650" lon="-8.5603680">
        <ele>200.8</ele>
        <time>2022-06-19T10:56:17Z</time>
      </trkpt>
      <trkpt lat="42.8688830" lon="-8.5603460">
        <ele>200.8</ele>
        <time>2022-06-19T10:56:18Z</time>
      </trkpt>
      <trkpt lat="42.8688980" lon="-8.5603210">
        <ele>200.8</ele>
        <time>2022-06-19T10:56:19Z</time>
      </trkpt>
      <trkpt lat="42.8689150" lon="-8.5602950">
        <ele>201.6</ele>
        <time>2022-06-19T10:56:20Z</time>
      </trkpt>
      <trkpt lat="42.8689310" lon="-8.5602700">
        <ele>201.6</ele>
        <time>2022-06-19T10:56:21Z</time>
      </trkpt>
      <trkpt lat="42.8689480" lon="-8.5602450">
        <ele>201.6</ele>
        <time>2022-06-19T10:56:22Z</time>
      </trkpt>
      <trkpt lat="42.8689610" lon="-8.5602180">
        <ele>201.6</ele>
        <time>2022-06-19T10:56:23Z</time>
      </trkpt>
      <trkpt lat="42.8689780" lon="-8.5601930">
        <ele>201.6</ele>
        <time>2022-06-19T10:56:24Z</time>
      </trkpt>
      <trkpt lat="42.8689960" lon="-8.5601700">
        <ele>201.6</ele>
        <time>2022-06-19T10:56:25Z</time>
      </trkpt>
      <trkpt lat="42.8690160" lon="-8.5601450">
        <ele>201.6</ele>
        <time>2022-06-19T10:56:26Z</time>
      </trkpt>
      <trkpt lat="42.8690350" lon="-8.5601200">
        <ele>201.6</ele>
        <time>2022-06-19T10:56:27Z</time>
      </trkpt>
      <trkpt lat="42.8690550" lon="-8.5600960">
        <ele>201.6</ele>
        <time>2022-06-19T10:56:28Z</time>
      </trkpt>
      <trkpt lat="42.8690730" lon="-8.5600710">
        <ele>202.0</ele>
        <time>2022-06-19T10:56:29Z</time>
      </trkpt>
      <trkpt lat="42.8690910" lon="-8.5600430">
        <ele>202.0</ele>
        <time>2022-06-19T10:56:30Z</time>
      </trkpt>
      <trkpt lat="42.8691080" lon="-8.5600160">
        <ele>202.0</ele>
        <time>2022-06-19T10:56:31Z</time>
      </trkpt>
      <trkpt lat="42.8691230" lon="-8.5599900">
        <ele>202.0</ele>
        <time>2022-06-19T10:56:32Z</time>
      </trkpt>
      <trkpt lat="42.8691400" lon="-8.5599630">
        <ele>202.4</ele>
        <time>2022-06-19T10:56:33Z</time>
      </trkpt>
      <trkpt lat="42.8691560" lon="-8.5599380">
        <ele>202.4</ele>
        <time>2022-06-19T10:56:34Z</time>
      </trkpt>
      <trkpt lat="42.8691750" lon="-8.5599110">
        <ele>202.4</ele>
        <time>2022-06-19T10:56:35Z</time>
      </trkpt>
      <trkpt lat="42.8691910" lon="-8.5598860">
        <ele>202.4</ele>
        <time>2022-06-19T10:56:36Z</time>
      </trkpt>
      <trkpt lat="42.8692060" lon="-8.5598600">
        <ele>202.4</ele>
        <time>2022-06-19T10:56:37Z</time>
      </trkpt>
      <trkpt lat="42.8692230" lon="-8.5598330">
        <ele>202.4</ele>
        <time>2022-06-19T10:56:38Z</time>
      </trkpt>
      <trkpt lat="42.8692400" lon="-8.5598060">
        <ele>202.4</ele>
        <time>2022-06-19T10:56:39Z</time>
      </trkpt>
      <trkpt lat="42.8692560" lon="-8.5597800">
        <ele>203.0</ele>
        <time>2022-06-19T10:56:40Z</time>
      </trkpt>
      <trkpt lat="42.8692750" lon="-8.5597530">
        <ele>203.0</ele>
        <time>2022-06-19T10:56:41Z</time>
      </trkpt>
      <trkpt lat="42.8692900" lon="-8.5597300">
        <ele>203.0</ele>
        <time>2022-06-19T10:56:42Z</time>
      </trkpt>
      <trkpt lat="42.8693080" lon="-8.5597060">
        <ele>203.0</ele>
        <time>2022-06-19T10:56:43Z</time>
      </trkpt>
      <trkpt lat="42.8693250" lon="-8.5596830">
        <ele>203.2</ele>
        <time>2022-06-19T10:56:44Z</time>
      </trkpt>
      <trkpt lat="42.8693400" lon="-8.5596580">
        <ele>203.6</ele>
        <time>2022-06-19T10:56:45Z</time>
      </trkpt>
      <trkpt lat="42.8693580" lon="-8.5596350">
        <ele>203.6</ele>
        <time>2022-06-19T10:56:46Z</time>
      </trkpt>
      <trkpt lat="42.8693730" lon="-8.5596080">
        <ele>203.6</ele>
        <time>2022-06-19T10:56:47Z</time>
      </trkpt>
      <trkpt lat="42.8693900" lon="-8.5595830">
        <ele>203.6</ele>
        <time>2022-06-19T10:56:48Z</time>
      </trkpt>
      <trkpt lat="42.8694130" lon="-8.5595610">
        <ele>203.8</ele>
        <time>2022-06-19T10:56:49Z</time>
      </trkpt>
      <trkpt lat="42.8694350" lon="-8.5595380">
        <ele>203.8</ele>
        <time>2022-06-19T10:56:50Z</time>
      </trkpt>
      <trkpt lat="42.8694560" lon="-8.5595160">
        <ele>203.8</ele>
        <time>2022-06-19T10:56:51Z</time>
      </trkpt>
      <trkpt lat="42.8694780" lon="-8.5594950">
        <ele>204.4</ele>
        <time>2022-06-19T10:56:52Z</time>
      </trkpt>
      <trkpt lat="42.8694980" lon="-8.5594730">
        <ele>204.8</ele>
        <time>2022-06-19T10:56:53Z</time>
      </trkpt>
      <trkpt lat="42.8695160" lon="-8.5594460">
        <ele>204.8</ele>
        <time>2022-06-19T10:56:54Z</time>
      </trkpt>
      <trkpt lat="42.8695350" lon="-8.5594210">
        <ele>204.8</ele>
        <time>2022-06-19T10:56:55Z</time>
      </trkpt>
      <trkpt lat="42.8695510" lon="-8.5593930">
        <ele>204.8</ele>
        <time>2022-06-19T10:56:56Z</time>
      </trkpt>
      <trkpt lat="42.8695660" lon="-8.5593660">
        <ele>205.2</ele>
        <time>2022-06-19T10:56:57Z</time>
      </trkpt>
      <trkpt lat="42.8695860" lon="-8.5593430">
        <ele>205.2</ele>
        <time>2022-06-19T10:56:58Z</time>
      </trkpt>
      <trkpt lat="42.8696060" lon="-8.5593180">
        <ele>205.2</ele>
        <time>2022-06-19T10:56:59Z</time>
      </trkpt>
      <trkpt lat="42.8696230" lon="-8.5592950">
        <ele>205.2</ele>
        <time>2022-06-19T10:57:00Z</time>
      </trkpt>
      <trkpt lat="42.8696450" lon="-8.5592660">
        <ele>205.8</ele>
        <time>2022-06-19T10:57:01Z</time>
      </trkpt>
      <trkpt lat="42.8696610" lon="-8.5592410">
        <ele>205.8</ele>
        <time>2022-06-19T10:57:02Z</time>
      </trkpt>
      <trkpt lat="42.8696760" lon="-8.5592160">
        <ele>205.8</ele>
        <time>2022-06-19T10:57:03Z</time>
      </trkpt>
      <trkpt lat="42.8696960" lon="-8.5591930">
        <ele>205.8</ele>
        <time>2022-06-19T10:57:04Z</time>
      </trkpt>
      <trkpt lat="42.8697150" lon="-8.5591680">
        <ele>206.0</ele>
        <time>2022-06-19T10:57:05Z</time>
      </trkpt>
      <trkpt lat="42.8697310" lon="-8.5591410">
        <ele>206.0</ele>
        <time>2022-06-19T10:57:06Z</time>
      </trkpt>
      <trkpt lat="42.8697480" lon="-8.5591110">
        <ele>206.0</ele>
        <time>2022-06-19T10:57:07Z</time>
      </trkpt>
      <trkpt lat="42.8697660" lon="-8.5590850">
        <ele>206.6</ele>
        <time>2022-06-19T10:57:08Z</time>
      </trkpt>
      <trkpt lat="42.8697810" lon="-8.5590580">
        <ele>206.6</ele>
        <time>2022-06-19T10:57:09Z</time>
      </trkpt>
      <trkpt lat="42.8697930" lon="-8.5590300">
        <ele>206.6</ele>
        <time>2022-06-19T10:57:10Z</time>
      </trkpt>
      <trkpt lat="42.8698110" lon="-8.5590050">
        <ele>206.6</ele>
        <time>2022-06-19T10:57:11Z</time>
      </trkpt>
      <trkpt lat="42.8698300" lon="-8.5589880">
        <ele>206.6</ele>
        <time>2022-06-19T10:57:12Z</time>
      </trkpt>
      <trkpt lat="42.8698480" lon="-8.5589660">
        <ele>207.2</ele>
        <time>2022-06-19T10:57:13Z</time>
      </trkpt>
      <trkpt lat="42.8698600" lon="-8.5589380">
        <ele>207.2</ele>
        <time>2022-06-19T10:57:14Z</time>
      </trkpt>
      <trkpt lat="42.8698760" lon="-8.5589100">
        <ele>207.2</ele>
        <time>2022-06-19T10:57:15Z</time>
      </trkpt>
      <trkpt lat="42.8699000" lon="-8.5588750">
        <ele>207.2</ele>
        <time>2022-06-19T10:57:16Z</time>
      </trkpt>
      <trkpt lat="42.8699150" lon="-8.5588450">
        <ele>207.4</ele>
        <time>2022-06-19T10:57:17Z</time>
      </trkpt>
      <trkpt lat="42.8699330" lon="-8.5588180">
        <ele>207.4</ele>
        <time>2022-06-19T10:57:18Z</time>
      </trkpt>
      <trkpt lat="42.8699500" lon="-8.5587950">
        <ele>207.4</ele>
        <time>2022-06-19T10:57:19Z</time>
      </trkpt>
      <trkpt lat="42.8699680" lon="-8.5587680">
        <ele>208.0</ele>
        <time>2022-06-19T10:57:20Z</time>
      </trkpt>
      <trkpt lat="42.8699860" lon="-8.5587380">
        <ele>208.0</ele>
        <time>2022-06-19T10:57:21Z</time>
      </trkpt>
      <trkpt lat="42.8700050" lon="-8.5587100">
        <ele>208.0</ele>
        <time>2022-06-19T10:57:22Z</time>
      </trkpt>
      <trkpt lat="42.8700210" lon="-8.5586780">
        <ele>208.0</ele>
        <time>2022-06-19T10:57:23Z</time>
      </trkpt>
      <trkpt lat="42.8700410" lon="-8.5586500">
        <ele>209.0</ele>
        <time>2022-06-19T10:57:24Z</time>
      </trkpt>
      <trkpt lat="42.8700610" lon="-8.5586200">
        <ele>208.8</ele>
        <time>2022-06-19T10:57:25Z</time>
      </trkpt>
      <trkpt lat="42.8700830" lon="-8.5585930">
        <ele>208.8</ele>
        <time>2022-06-19T10:57:26Z</time>
      </trkpt>
      <trkpt lat="42.8701010" lon="-8.5585660">
        <ele>208.8</ele>
        <time>2022-06-19T10:57:27Z</time>
      </trkpt>
      <trkpt lat="42.8701210" lon="-8.5585410">
        <ele>209.4</ele>
        <time>2022-06-19T10:57:28Z</time>
      </trkpt>
      <trkpt lat="42.8701400" lon="-8.5585150">
        <ele>209.2</ele>
        <time>2022-06-19T10:57:29Z</time>
      </trkpt>
      <trkpt lat="42.8701580" lon="-8.5584850">
        <ele>209.2</ele>
        <time>2022-06-19T10:57:30Z</time>
      </trkpt>
      <trkpt lat="42.8701800" lon="-8.5584630">
        <ele>209.2</ele>
        <time>2022-06-19T10:57:31Z</time>
      </trkpt>
      <trkpt lat="42.8702010" lon="-8.5584410">
        <ele>209.2</ele>
        <time>2022-06-19T10:57:32Z</time>
      </trkpt>
      <trkpt lat="42.8702230" lon="-8.5584160">
        <ele>209.8</ele>
        <time>2022-06-19T10:57:33Z</time>
      </trkpt>
      <trkpt lat="42.8702410" lon="-8.5583910">
        <ele>209.8</ele>
        <time>2022-06-19T10:57:34Z</time>
      </trkpt>
      <trkpt lat="42.8702580" lon="-8.5583630">
        <ele>209.8</ele>
        <time>2022-06-19T10:57:35Z</time>
      </trkpt>
      <trkpt lat="42.8702750" lon="-8.5583330">
        <ele>209.8</ele>
        <time>2022-06-19T10:57:36Z</time>
      </trkpt>
      <trkpt lat="42.8702950" lon="-8.5583060">
        <ele>210.0</ele>
        <time>2022-06-19T10:57:37Z</time>
      </trkpt>
      <trkpt lat="42.8703110" lon="-8.5582800">
        <ele>210.0</ele>
        <time>2022-06-19T10:57:38Z</time>
      </trkpt>
      <trkpt lat="42.8703230" lon="-8.5582500">
        <ele>210.0</ele>
        <time>2022-06-19T10:57:39Z</time>
      </trkpt>
      <trkpt lat="42.8703410" lon="-8.5582230">
        <ele>210.0</ele>
        <time>2022-06-19T10:57:40Z</time>
      </trkpt>
      <trkpt lat="42.8703600" lon="-8.5581950">
        <ele>210.2</ele>
        <time>2022-06-19T10:57:41Z</time>
      </trkpt>
      <trkpt lat="42.8703780" lon="-8.5581680">
        <ele>210.2</ele>
        <time>2022-06-19T10:57:42Z</time>
      </trkpt>
      <trkpt lat="42.8703950" lon="-8.5581410">
        <ele>210.2</ele>
        <time>2022-06-19T10:57:43Z</time>
      </trkpt>
      <trkpt lat="42.8704080" lon="-8.5581150">
        <ele>211.0</ele>
        <time>2022-06-19T10:57:44Z</time>
      </trkpt>
      <trkpt lat="42.8704280" lon="-8.5580880">
        <ele>210.8</ele>
        <time>2022-06-19T10:57:45Z</time>
      </trkpt>
      <trkpt lat="42.8704460" lon="-8.5580610">
        <ele>210.8</ele>
        <time>2022-06-19T10:57:46Z</time>
      </trkpt>
      <trkpt lat="42.8704600" lon="-8.5580330">
        <ele>210.8</ele>
        <time>2022-06-19T10:57:47Z</time>
      </trkpt>
      <trkpt lat="42.8704730" lon="-8.5580030">
        <ele>211.2</ele>
        <time>2022-06-19T10:57:48Z</time>
      </trkpt>
      <trkpt lat="42.8704860" lon="-8.5579800">
        <ele>211.2</ele>
        <time>2022-06-19T10:57:49Z</time>
      </trkpt>
      <trkpt lat="42.8705050" lon="-8.5579580">
        <ele>211.2</ele>
        <time>2022-06-19T10:57:50Z</time>
      </trkpt>
      <trkpt lat="42.8705250" lon="-8.5579310">
        <ele>211.2</ele>
        <time>2022-06-19T10:57:51Z</time>
      </trkpt>
      <trkpt lat="42.8705430" lon="-8.5579010">
        <ele>211.2</ele>
        <time>2022-06-19T10:57:52Z</time>
      </trkpt>
      <trkpt lat="42.8705630" lon="-8.5578750">
        <ele>211.4</ele>
        <time>2022-06-19T10:57:53Z</time>
      </trkpt>
      <trkpt lat="42.8705810" lon="-8.5578480">
        <ele>211.4</ele>
        <time>2022-06-19T10:57:54Z</time>
      </trkpt>
      <trkpt lat="42.8706030" lon="-8.5578200">
        <ele>211.4</ele>
        <time>2022-06-19T10:57:55Z</time>
      </trkpt>
      <trkpt lat="42.8706230" lon="-8.5577930">
        <ele>212.0</ele>
        <time>2022-06-19T10:57:56Z</time>
      </trkpt>
      <trkpt lat="42.8706430" lon="-8.5577630">
        <ele>212.0</ele>
        <time>2022-06-19T10:57:57Z</time>
      </trkpt>
      <trkpt lat="42.8706610" lon="-8.5577350">
        <ele>212.0</ele>
        <time>2022-06-19T10:57:58Z</time>
      </trkpt>
      <trkpt lat="42.8706810" lon="-8.5577060">
        <ele>212.0</ele>
        <time>2022-06-19T10:57:59Z</time>
      </trkpt>
      <trkpt lat="42.8707000" lon="-8.5576780">
        <ele>212.0</ele>
        <time>2022-06-19T10:58:00Z</time>
      </trkpt>
      <trkpt lat="42.8707180" lon="-8.5576510">
        <ele>211.4</ele>
        <time>2022-06-19T10:58:01Z</time>
      </trkpt>
      <trkpt lat="42.8707360" lon="-8.5576260">
        <ele>211.4</ele>
        <time>2022-06-19T10:58:02Z</time>
      </trkpt>
      <trkpt lat="42.8707530" lon="-8.5576000">
        <ele>211.4</ele>
        <time>2022-06-19T10:58:03Z</time>
      </trkpt>
      <trkpt lat="42.8707700" lon="-8.5575700">
        <ele>212.4</ele>
        <time>2022-06-19T10:58:04Z</time>
      </trkpt>
      <trkpt lat="42.8707880" lon="-8.5575410">
        <ele>212.4</ele>
        <time>2022-06-19T10:58:05Z</time>
      </trkpt>
      <trkpt lat="42.8708050" lon="-8.5575130">
        <ele>212.4</ele>
        <time>2022-06-19T10:58:06Z</time>
      </trkpt>
      <trkpt lat="42.8708230" lon="-8.5574860">
        <ele>212.4</ele>
        <time>2022-06-19T10:58:07Z</time>
      </trkpt>
      <trkpt lat="42.8708410" lon="-8.5574600">
        <ele>212.4</ele>
        <time>2022-06-19T10:58:08Z</time>
      </trkpt>
      <trkpt lat="42.8708610" lon="-8.5574350">
        <ele>212.0</ele>
        <time>2022-06-19T10:58:09Z</time>
      </trkpt>
      <trkpt lat="42.8708800" lon="-8.5574080">
        <ele>212.0</ele>
        <time>2022-06-19T10:58:10Z</time>
      </trkpt>
      <trkpt lat="42.8708980" lon="-8.5573800">
        <ele>212.0</ele>
        <time>2022-06-19T10:58:11Z</time>
      </trkpt>
      <trkpt lat="42.8709160" lon="-8.5573530">
        <ele>212.0</ele>
        <time>2022-06-19T10:58:12Z</time>
      </trkpt>
      <trkpt lat="42.8709330" lon="-8.5573250">
        <ele>212.6</ele>
        <time>2022-06-19T10:58:13Z</time>
      </trkpt>
      <trkpt lat="42.8709500" lon="-8.5572980">
        <ele>212.6</ele>
        <time>2022-06-19T10:58:14Z</time>
      </trkpt>
      <trkpt lat="42.8709680" lon="-8.5572730">
        <ele>212.6</ele>
        <time>2022-06-19T10:58:15Z</time>
      </trkpt>
      <trkpt lat="42.8709880" lon="-8.5572500">
        <ele>213.6</ele>
        <time>2022-06-19T10:58:16Z</time>
      </trkpt>
      <trkpt lat="42.8710060" lon="-8.5572230">
        <ele>214.0</ele>
        <time>2022-06-19T10:58:17Z</time>
      </trkpt>
      <trkpt lat="42.8710260" lon="-8.5571960">
        <ele>214.0</ele>
        <time>2022-06-19T10:58:18Z</time>
      </trkpt>
      <trkpt lat="42.8710430" lon="-8.5571730">
        <ele>214.0</ele>
        <time>2022-06-19T10:58:19Z</time>
      </trkpt>
      <trkpt lat="42.8710600" lon="-8.5571460">
        <ele>215.0</ele>
        <time>2022-06-19T10:58:20Z</time>
      </trkpt>
      <trkpt lat="42.8710800" lon="-8.5571180">
        <ele>215.0</ele>
        <time>2022-06-19T10:58:21Z</time>
      </trkpt>
      <trkpt lat="42.8710980" lon="-8.5570910">
        <ele>215.0</ele>
        <time>2022-06-19T10:58:22Z</time>
      </trkpt>
      <trkpt lat="42.8711150" lon="-8.5570630">
        <ele>215.0</ele>
        <time>2022-06-19T10:58:23Z</time>
      </trkpt>
      <trkpt lat="42.8711350" lon="-8.5570350">
        <ele>215.8</ele>
        <time>2022-06-19T10:58:24Z</time>
      </trkpt>
      <trkpt lat="42.8711560" lon="-8.5570080">
        <ele>215.6</ele>
        <time>2022-06-19T10:58:25Z</time>
      </trkpt>
      <trkpt lat="42.8711710" lon="-8.5569810">
        <ele>215.6</ele>
        <time>2022-06-19T10:58:26Z</time>
      </trkpt>
      <trkpt lat="42.8711880" lon="-8.5569530">
        <ele>215.6</ele>
        <time>2022-06-19T10:58:27Z</time>
      </trkpt>
      <trkpt lat="42.8712030" lon="-8.5569260">
        <ele>215.6</ele>
        <time>2022-06-19T10:58:28Z</time>
      </trkpt>
      <trkpt lat="42.8712180" lon="-8.5569000">
        <ele>216.4</ele>
        <time>2022-06-19T10:58:29Z</time>
      </trkpt>
      <trkpt lat="42.8712350" lon="-8.5568710">
        <ele>216.4</ele>
        <time>2022-06-19T10:58:30Z</time>
      </trkpt>
      <trkpt lat="42.8712530" lon="-8.5568450">
        <ele>216.4</ele>
        <time>2022-06-19T10:58:31Z</time>
      </trkpt>
      <trkpt lat="42.8712730" lon="-8.5568180">
        <ele>216.4</ele>
        <time>2022-06-19T10:58:32Z</time>
      </trkpt>
      <trkpt lat="42.8712900" lon="-8.5567900">
        <ele>215.8</ele>
        <time>2022-06-19T10:58:33Z</time>
      </trkpt>
      <trkpt lat="42.8713050" lon="-8.5567630">
        <ele>215.8</ele>
        <time>2022-06-19T10:58:34Z</time>
      </trkpt>
      <trkpt lat="42.8713180" lon="-8.5567380">
        <ele>215.8</ele>
        <time>2022-06-19T10:58:35Z</time>
      </trkpt>
      <trkpt lat="42.8713350" lon="-8.5567110">
        <ele>215.8</ele>
        <time>2022-06-19T10:58:36Z</time>
      </trkpt>
      <trkpt lat="42.8713480" lon="-8.5566830">
        <ele>216.2</ele>
        <time>2022-06-19T10:58:37Z</time>
      </trkpt>
      <trkpt lat="42.8713680" lon="-8.5566560">
        <ele>216.2</ele>
        <time>2022-06-19T10:58:38Z</time>
      </trkpt>
      <trkpt lat="42.8713830" lon="-8.5566280">
        <ele>216.2</ele>
        <time>2022-06-19T10:58:39Z</time>
      </trkpt>
      <trkpt lat="42.8713980" lon="-8.5566000">
        <ele>216.2</ele>
        <time>2022-06-19T10:58:40Z</time>
      </trkpt>
      <trkpt lat="42.8714160" lon="-8.5565700">
        <ele>216.4</ele>
        <time>2022-06-19T10:58:41Z</time>
      </trkpt>
      <trkpt lat="42.8714330" lon="-8.5565410">
        <ele>216.4</ele>
        <time>2022-06-19T10:58:42Z</time>
      </trkpt>
      <trkpt lat="42.8714500" lon="-8.5565110">
        <ele>216.4</ele>
        <time>2022-06-19T10:58:43Z</time>
      </trkpt>
      <trkpt lat="42.8714650" lon="-8.5564830">
        <ele>216.4</ele>
        <time>2022-06-19T10:58:44Z</time>
      </trkpt>
      <trkpt lat="42.8714800" lon="-8.5564530">
        <ele>216.8</ele>
        <time>2022-06-19T10:58:45Z</time>
      </trkpt>
      <trkpt lat="42.8714980" lon="-8.5564250">
        <ele>216.8</ele>
        <time>2022-06-19T10:58:46Z</time>
      </trkpt>
      <trkpt lat="42.8715150" lon="-8.5563930">
        <ele>216.8</ele>
        <time>2022-06-19T10:58:47Z</time>
      </trkpt>
      <trkpt lat="42.8715360" lon="-8.5563660">
        <ele>216.8</ele>
        <time>2022-06-19T10:58:48Z</time>
      </trkpt>
      <trkpt lat="42.8715550" lon="-8.5563380">
        <ele>217.0</ele>
        <time>2022-06-19T10:58:49Z</time>
      </trkpt>
      <trkpt lat="42.8715730" lon="-8.5563110">
        <ele>217.0</ele>
        <time>2022-06-19T10:58:50Z</time>
      </trkpt>
      <trkpt lat="42.8715900" lon="-8.5562830">
        <ele>217.0</ele>
        <time>2022-06-19T10:58:51Z</time>
      </trkpt>
      <trkpt lat="42.8716060" lon="-8.5562510">
        <ele>217.0</ele>
        <time>2022-06-19T10:58:52Z</time>
      </trkpt>
      <trkpt lat="42.8716230" lon="-8.5562230">
        <ele>217.4</ele>
        <time>2022-06-19T10:58:53Z</time>
      </trkpt>
      <trkpt lat="42.8716380" lon="-8.5561910">
        <ele>217.4</ele>
        <time>2022-06-19T10:58:54Z</time>
      </trkpt>
      <trkpt lat="42.8716550" lon="-8.5561610">
        <ele>217.4</ele>
        <time>2022-06-19T10:58:55Z</time>
      </trkpt>
      <trkpt lat="42.8716730" lon="-8.5561350">
        <ele>218.4</ele>
        <time>2022-06-19T10:58:56Z</time>
      </trkpt>
      <trkpt lat="42.8716900" lon="-8.5561080">
        <ele>218.4</ele>
        <time>2022-06-19T10:58:57Z</time>
      </trkpt>
      <trkpt lat="42.8717050" lon="-8.5560810">
        <ele>218.4</ele>
        <time>2022-06-19T10:58:58Z</time>
      </trkpt>
      <trkpt lat="42.8717210" lon="-8.5560550">
        <ele>218.4</ele>
        <time>2022-06-19T10:58:59Z</time>
      </trkpt>
      <trkpt lat="42.8717360" lon="-8.5560280">
        <ele>218.4</ele>
        <time>2022-06-19T10:59:00Z</time>
      </trkpt>
      <trkpt lat="42.8717480" lon="-8.5560010">
        <ele>218.2</ele>
        <time>2022-06-19T10:59:01Z</time>
      </trkpt>
      <trkpt lat="42.8717600" lon="-8.5559780">
        <ele>218.2</ele>
        <time>2022-06-19T10:59:02Z</time>
      </trkpt>
      <trkpt lat="42.8717730" lon="-8.5559510">
        <ele>218.2</ele>
        <time>2022-06-19T10:59:03Z</time>
      </trkpt>
      <trkpt lat="42.8717810" lon="-8.5559250">
        <ele>218.2</ele>
        <time>2022-06-19T10:59:04Z</time>
      </trkpt>
      <trkpt lat="42.8717910" lon="-8.5559000">
        <ele>219.2</ele>
        <time>2022-06-19T10:59:05Z</time>
      </trkpt>
      <trkpt lat="42.8718000" lon="-8.5558810">
        <ele>219.2</ele>
        <time>2022-06-19T10:59:06Z</time>
      </trkpt>
      <trkpt lat="42.8718100" lon="-8.5558550">
        <ele>219.2</ele>
        <time>2022-06-19T10:59:07Z</time>
      </trkpt>
      <trkpt lat="42.8718210" lon="-8.5558300">
        <ele>220.0</ele>
        <time>2022-06-19T10:59:08Z</time>
      </trkpt>
      <trkpt lat="42.8718350" lon="-8.5558010">
        <ele>219.4</ele>
        <time>2022-06-19T10:59:09Z</time>
      </trkpt>
      <trkpt lat="42.8718460" lon="-8.5557680">
        <ele>219.4</ele>
        <time>2022-06-19T10:59:10Z</time>
      </trkpt>
      <trkpt lat="42.8718580" lon="-8.5557430">
        <ele>219.4</ele>
        <time>2022-06-19T10:59:11Z</time>
      </trkpt>
      <trkpt lat="42.8718660" lon="-8.5557160">
        <ele>219.0</ele>
        <time>2022-06-19T10:59:12Z</time>
      </trkpt>
      <trkpt lat="42.8718750" lon="-8.5556860">
        <ele>219.0</ele>
        <time>2022-06-19T10:59:13Z</time>
      </trkpt>
      <trkpt lat="42.8718830" lon="-8.5556550">
        <ele>219.0</ele>
        <time>2022-06-19T10:59:14Z</time>
      </trkpt>
      <trkpt lat="42.8718900" lon="-8.5556280">
        <ele>219.0</ele>
        <time>2022-06-19T10:59:15Z</time>
      </trkpt>
      <trkpt lat="42.8718980" lon="-8.5556060">
        <ele>219.8</ele>
        <time>2022-06-19T10:59:16Z</time>
      </trkpt>
      <trkpt lat="42.8719050" lon="-8.5555860">
        <ele>219.4</ele>
        <time>2022-06-19T10:59:17Z</time>
      </trkpt>
      <trkpt lat="42.8719110" lon="-8.5555630">
        <ele>219.4</ele>
        <time>2022-06-19T10:59:18Z</time>
      </trkpt>
      <trkpt lat="42.8719200" lon="-8.5555360">
        <ele>219.4</ele>
        <time>2022-06-19T10:59:19Z</time>
      </trkpt>
      <trkpt lat="42.8719300" lon="-8.5555080">
        <ele>219.4</ele>
        <time>2022-06-19T10:59:20Z</time>
      </trkpt>
      <trkpt lat="42.8719380" lon="-8.5554780">
        <ele>219.0</ele>
        <time>2022-06-19T10:59:21Z</time>
      </trkpt>
      <trkpt lat="42.8719460" lon="-8.5554480">
        <ele>219.0</ele>
        <time>2022-06-19T10:59:22Z</time>
      </trkpt>
      <trkpt lat="42.8719530" lon="-8.5554200">
        <ele>219.0</ele>
        <time>2022-06-19T10:59:23Z</time>
      </trkpt>
      <trkpt lat="42.8719650" lon="-8.5553950">
        <ele>219.0</ele>
        <time>2022-06-19T10:59:24Z</time>
      </trkpt>
      <trkpt lat="42.8719780" lon="-8.5553660">
        <ele>219.8</ele>
        <time>2022-06-19T10:59:25Z</time>
      </trkpt>
      <trkpt lat="42.8719860" lon="-8.5553360">
        <ele>219.8</ele>
        <time>2022-06-19T10:59:26Z</time>
      </trkpt>
      <trkpt lat="42.8719950" lon="-8.5553050">
        <ele>219.8</ele>
        <time>2022-06-19T10:59:27Z</time>
      </trkpt>
      <trkpt lat="42.8720000" lon="-8.5552660">
        <ele>219.8</ele>
        <time>2022-06-19T10:59:28Z</time>
      </trkpt>
      <trkpt lat="42.8720110" lon="-8.5552330">
        <ele>220.6</ele>
        <time>2022-06-19T10:59:29Z</time>
      </trkpt>
      <trkpt lat="42.8720230" lon="-8.5551910">
        <ele>220.6</ele>
        <time>2022-06-19T10:59:30Z</time>
      </trkpt>
      <trkpt lat="42.8720310" lon="-8.5551460">
        <ele>220.6</ele>
        <time>2022-06-19T10:59:31Z</time>
      </trkpt>
      <trkpt lat="42.8720360" lon="-8.5551050">
        <ele>220.6</ele>
        <time>2022-06-19T10:59:32Z</time>
      </trkpt>
      <trkpt lat="42.8720400" lon="-8.5550650">
        <ele>221.0</ele>
        <time>2022-06-19T10:59:33Z</time>
      </trkpt>
      <trkpt lat="42.8720450" lon="-8.5550280">
        <ele>221.0</ele>
        <time>2022-06-19T10:59:34Z</time>
      </trkpt>
      <trkpt lat="42.8720550" lon="-8.5549910">
        <ele>221.0</ele>
        <time>2022-06-19T10:59:35Z</time>
      </trkpt>
      <trkpt lat="42.8720710" lon="-8.5549560">
        <ele>221.0</ele>
        <time>2022-06-19T10:59:36Z</time>
      </trkpt>
      <trkpt lat="42.8720930" lon="-8.5549230">
        <ele>221.0</ele>
        <time>2022-06-19T10:59:37Z</time>
      </trkpt>
      <trkpt lat="42.8721130" lon="-8.5548880">
        <ele>221.0</ele>
        <time>2022-06-19T10:59:38Z</time>
      </trkpt>
      <trkpt lat="42.8721330" lon="-8.5548600">
        <ele>221.0</ele>
        <time>2022-06-19T10:59:39Z</time>
      </trkpt>
      <trkpt lat="42.8721510" lon="-8.5548280">
        <ele>221.0</ele>
        <time>2022-06-19T10:59:40Z</time>
      </trkpt>
      <trkpt lat="42.8721660" lon="-8.5547910">
        <ele>220.8</ele>
        <time>2022-06-19T10:59:41Z</time>
      </trkpt>
      <trkpt lat="42.8721910" lon="-8.5547600">
        <ele>220.8</ele>
        <time>2022-06-19T10:59:42Z</time>
      </trkpt>
      <trkpt lat="42.8722100" lon="-8.5547230">
        <ele>220.8</ele>
        <time>2022-06-19T10:59:43Z</time>
      </trkpt>
      <trkpt lat="42.8722260" lon="-8.5546910">
        <ele>220.8</ele>
        <time>2022-06-19T10:59:44Z</time>
      </trkpt>
      <trkpt lat="42.8722430" lon="-8.5546650">
        <ele>221.0</ele>
        <time>2022-06-19T10:59:45Z</time>
      </trkpt>
      <trkpt lat="42.8722630" lon="-8.5546300">
        <ele>221.0</ele>
        <time>2022-06-19T10:59:46Z</time>
      </trkpt>
      <trkpt lat="42.8722830" lon="-8.5545980">
        <ele>221.0</ele>
        <time>2022-06-19T10:59:47Z</time>
      </trkpt>
      <trkpt lat="42.8723050" lon="-8.5545650">
        <ele>221.0</ele>
        <time>2022-06-19T10:59:48Z</time>
      </trkpt>
      <trkpt lat="42.8723200" lon="-8.5545380">
        <ele>221.0</ele>
        <time>2022-06-19T10:59:49Z</time>
      </trkpt>
      <trkpt lat="42.8723330" lon="-8.5545010">
        <ele>221.0</ele>
        <time>2022-06-19T10:59:50Z</time>
      </trkpt>
      <trkpt lat="42.8723480" lon="-8.5544680">
        <ele>221.0</ele>
        <time>2022-06-19T10:59:51Z</time>
      </trkpt>
      <trkpt lat="42.8723660" lon="-8.5544350">
        <ele>221.0</ele>
        <time>2022-06-19T10:59:52Z</time>
      </trkpt>
      <trkpt lat="42.8723800" lon="-8.5544060">
        <ele>221.2</ele>
        <time>2022-06-19T10:59:53Z</time>
      </trkpt>
      <trkpt lat="42.8723950" lon="-8.5543750">
        <ele>221.2</ele>
        <time>2022-06-19T10:59:54Z</time>
      </trkpt>
      <trkpt lat="42.8724080" lon="-8.5543430">
        <ele>221.2</ele>
        <time>2022-06-19T10:59:55Z</time>
      </trkpt>
      <trkpt lat="42.8724260" lon="-8.5543130">
        <ele>221.2</ele>
        <time>2022-06-19T10:59:56Z</time>
      </trkpt>
      <trkpt lat="42.8724500" lon="-8.5542810">
        <ele>221.4</ele>
        <time>2022-06-19T10:59:57Z</time>
      </trkpt>
      <trkpt lat="42.8724730" lon="-8.5542460">
        <ele>221.4</ele>
        <time>2022-06-19T10:59:58Z</time>
      </trkpt>
      <trkpt lat="42.8724960" lon="-8.5542200">
        <ele>221.4</ele>
        <time>2022-06-19T10:59:59Z</time>
      </trkpt>
      <trkpt lat="42.8725210" lon="-8.5541860">
        <ele>221.4</ele>
        <time>2022-06-19T11:00:00Z</time>
      </trkpt>
      <trkpt lat="42.8725510" lon="-8.5541630">
        <ele>221.6</ele>
        <time>2022-06-19T11:00:01Z</time>
      </trkpt>
      <trkpt lat="42.8725710" lon="-8.5541330">
        <ele>221.6</ele>
        <time>2022-06-19T11:00:02Z</time>
      </trkpt>
      <trkpt lat="42.8725960" lon="-8.5541060">
        <ele>221.6</ele>
        <time>2022-06-19T11:00:03Z</time>
      </trkpt>
      <trkpt lat="42.8726160" lon="-8.5540780">
        <ele>221.6</ele>
        <time>2022-06-19T11:00:04Z</time>
      </trkpt>
      <trkpt lat="42.8726350" lon="-8.5540500">
        <ele>222.2</ele>
        <time>2022-06-19T11:00:05Z</time>
      </trkpt>
      <trkpt lat="42.8726550" lon="-8.5540210">
        <ele>222.2</ele>
        <time>2022-06-19T11:00:06Z</time>
      </trkpt>
      <trkpt lat="42.8726700" lon="-8.5539880">
        <ele>222.2</ele>
        <time>2022-06-19T11:00:07Z</time>
      </trkpt>
      <trkpt lat="42.8726860" lon="-8.5539600">
        <ele>221.8</ele>
        <time>2022-06-19T11:00:08Z</time>
      </trkpt>
      <trkpt lat="42.8727060" lon="-8.5539300">
        <ele>221.8</ele>
        <time>2022-06-19T11:00:09Z</time>
      </trkpt>
      <trkpt lat="42.8727350" lon="-8.5539080">
        <ele>221.8</ele>
        <time>2022-06-19T11:00:10Z</time>
      </trkpt>
      <trkpt lat="42.8727550" lon="-8.5538810">
        <ele>221.8</ele>
        <time>2022-06-19T11:00:11Z</time>
      </trkpt>
      <trkpt lat="42.8727750" lon="-8.5538510">
        <ele>222.6</ele>
        <time>2022-06-19T11:00:12Z</time>
      </trkpt>
      <trkpt lat="42.8727980" lon="-8.5538210">
        <ele>222.6</ele>
        <time>2022-06-19T11:00:13Z</time>
      </trkpt>
      <trkpt lat="42.8728250" lon="-8.5537910">
        <ele>222.6</ele>
        <time>2022-06-19T11:00:14Z</time>
      </trkpt>
      <trkpt lat="42.8728500" lon="-8.5537630">
        <ele>222.6</ele>
        <time>2022-06-19T11:00:15Z</time>
      </trkpt>
      <trkpt lat="42.8728710" lon="-8.5537280">
        <ele>222.6</ele>
        <time>2022-06-19T11:00:16Z</time>
      </trkpt>
      <trkpt lat="42.8728910" lon="-8.5536910">
        <ele>222.6</ele>
        <time>2022-06-19T11:00:17Z</time>
      </trkpt>
      <trkpt lat="42.8729080" lon="-8.5536500">
        <ele>222.6</ele>
        <time>2022-06-19T11:00:18Z</time>
      </trkpt>
      <trkpt lat="42.8729260" lon="-8.5536110">
        <ele>222.6</ele>
        <time>2022-06-19T11:00:19Z</time>
      </trkpt>
      <trkpt lat="42.8729430" lon="-8.5535750">
        <ele>222.4</ele>
        <time>2022-06-19T11:00:20Z</time>
      </trkpt>
      <trkpt lat="42.8729560" lon="-8.5535380">
        <ele>222.6</ele>
        <time>2022-06-19T11:00:21Z</time>
      </trkpt>
      <trkpt lat="42.8729750" lon="-8.5535030">
        <ele>222.6</ele>
        <time>2022-06-19T11:00:22Z</time>
      </trkpt>
      <trkpt lat="42.8729900" lon="-8.5534660">
        <ele>222.6</ele>
        <time>2022-06-19T11:00:23Z</time>
      </trkpt>
      <trkpt lat="42.8730100" lon="-8.5534250">
        <ele>222.6</ele>
        <time>2022-06-19T11:00:24Z</time>
      </trkpt>
      <trkpt lat="42.8730310" lon="-8.5533880">
        <ele>222.0</ele>
        <time>2022-06-19T11:00:25Z</time>
      </trkpt>
      <trkpt lat="42.8730610" lon="-8.5533630">
        <ele>222.0</ele>
        <time>2022-06-19T11:00:26Z</time>
      </trkpt>
      <trkpt lat="42.8730900" lon="-8.5533430">
        <ele>222.0</ele>
        <time>2022-06-19T11:00:27Z</time>
      </trkpt>
      <trkpt lat="42.8731180" lon="-8.5533210">
        <ele>221.0</ele>
        <time>2022-06-19T11:00:28Z</time>
      </trkpt>
      <trkpt lat="42.8731500" lon="-8.5532930">
        <ele>221.0</ele>
        <time>2022-06-19T11:00:29Z</time>
      </trkpt>
      <trkpt lat="42.8731780" lon="-8.5532630">
        <ele>221.0</ele>
        <time>2022-06-19T11:00:30Z</time>
      </trkpt>
      <trkpt lat="42.8732050" lon="-8.5532300">
        <ele>221.0</ele>
        <time>2022-06-19T11:00:31Z</time>
      </trkpt>
      <trkpt lat="42.8732280" lon="-8.5531980">
        <ele>221.0</ele>
        <time>2022-06-19T11:00:32Z</time>
      </trkpt>
      <trkpt lat="42.8732530" lon="-8.5531650">
        <ele>221.6</ele>
        <time>2022-06-19T11:00:33Z</time>
      </trkpt>
      <trkpt lat="42.8732810" lon="-8.5531380">
        <ele>221.6</ele>
        <time>2022-06-19T11:00:34Z</time>
      </trkpt>
      <trkpt lat="42.8733080" lon="-8.5531130">
        <ele>221.6</ele>
        <time>2022-06-19T11:00:35Z</time>
      </trkpt>
      <trkpt lat="42.8733350" lon="-8.5530830">
        <ele>221.6</ele>
        <time>2022-06-19T11:00:36Z</time>
      </trkpt>
      <trkpt lat="42.8733630" lon="-8.5530530">
        <ele>221.6</ele>
        <time>2022-06-19T11:00:37Z</time>
      </trkpt>
      <trkpt lat="42.8733860" lon="-8.5530210">
        <ele>221.6</ele>
        <time>2022-06-19T11:00:38Z</time>
      </trkpt>
      <trkpt lat="42.8734130" lon="-8.5529910">
        <ele>221.6</ele>
        <time>2022-06-19T11:00:39Z</time>
      </trkpt>
      <trkpt lat="42.8734400" lon="-8.5529600">
        <ele>220.6</ele>
        <time>2022-06-19T11:00:40Z</time>
      </trkpt>
      <trkpt lat="42.8734730" lon="-8.5529280">
        <ele>221.2</ele>
        <time>2022-06-19T11:00:41Z</time>
      </trkpt>
      <trkpt lat="42.8735050" lon="-8.5528960">
        <ele>221.2</ele>
        <time>2022-06-19T11:00:42Z</time>
      </trkpt>
      <trkpt lat="42.8735310" lon="-8.5528630">
        <ele>221.2</ele>
        <time>2022-06-19T11:00:43Z</time>
      </trkpt>
      <trkpt lat="42.8735610" lon="-8.5528350">
        <ele>221.8</ele>
        <time>2022-06-19T11:00:44Z</time>
      </trkpt>
      <trkpt lat="42.8735910" lon="-8.5528100">
        <ele>221.8</ele>
        <time>2022-06-19T11:00:45Z</time>
      </trkpt>
      <trkpt lat="42.8736110" lon="-8.5527730">
        <ele>221.8</ele>
        <time>2022-06-19T11:00:46Z</time>
      </trkpt>
      <trkpt lat="42.8736330" lon="-8.5527350">
        <ele>221.8</ele>
        <time>2022-06-19T11:00:47Z</time>
      </trkpt>
      <trkpt lat="42.8736550" lon="-8.5526980">
        <ele>221.8</ele>
        <time>2022-06-19T11:00:48Z</time>
      </trkpt>
      <trkpt lat="42.8736760" lon="-8.5526630">
        <ele>222.4</ele>
        <time>2022-06-19T11:00:49Z</time>
      </trkpt>
      <trkpt lat="42.8737010" lon="-8.5526330">
        <ele>222.4</ele>
        <time>2022-06-19T11:00:50Z</time>
      </trkpt>
      <trkpt lat="42.8737250" lon="-8.5525950">
        <ele>222.4</ele>
        <time>2022-06-19T11:00:51Z</time>
      </trkpt>
      <trkpt lat="42.8737580" lon="-8.5525630">
        <ele>222.4</ele>
        <time>2022-06-19T11:00:52Z</time>
      </trkpt>
      <trkpt lat="42.8737900" lon="-8.5525310">
        <ele>222.2</ele>
        <time>2022-06-19T11:00:53Z</time>
      </trkpt>
      <trkpt lat="42.8738200" lon="-8.5524980">
        <ele>222.2</ele>
        <time>2022-06-19T11:00:54Z</time>
      </trkpt>
      <trkpt lat="42.8738550" lon="-8.5524680">
        <ele>222.2</ele>
        <time>2022-06-19T11:00:55Z</time>
      </trkpt>
      <trkpt lat="42.8738880" lon="-8.5524360">
        <ele>221.2</ele>
        <time>2022-06-19T11:00:56Z</time>
      </trkpt>
      <trkpt lat="42.8739200" lon="-8.5524050">
        <ele>221.4</ele>
        <time>2022-06-19T11:00:57Z</time>
      </trkpt>
      <trkpt lat="42.8739530" lon="-8.5523730">
        <ele>221.4</ele>
        <time>2022-06-19T11:00:58Z</time>
      </trkpt>
      <trkpt lat="42.8739880" lon="-8.5523480">
        <ele>221.4</ele>
        <time>2022-06-19T11:00:59Z</time>
      </trkpt>
      <trkpt lat="42.8740200" lon="-8.5523200">
        <ele>221.0</ele>
        <time>2022-06-19T11:01:00Z</time>
      </trkpt>
      <trkpt lat="42.8740500" lon="-8.5522860">
        <ele>221.4</ele>
        <time>2022-06-19T11:01:01Z</time>
      </trkpt>
      <trkpt lat="42.8740750" lon="-8.5522550">
        <ele>221.4</ele>
        <time>2022-06-19T11:01:02Z</time>
      </trkpt>
      <trkpt lat="42.8741050" lon="-8.5522200">
        <ele>221.4</ele>
        <time>2022-06-19T11:01:03Z</time>
      </trkpt>
      <trkpt lat="42.8741360" lon="-8.5521830">
        <ele>221.4</ele>
        <time>2022-06-19T11:01:04Z</time>
      </trkpt>
      <trkpt lat="42.8741660" lon="-8.5521480">
        <ele>221.4</ele>
        <time>2022-06-19T11:01:05Z</time>
      </trkpt>
      <trkpt lat="42.8741980" lon="-8.5521050">
        <ele>221.4</ele>
        <time>2022-06-19T11:01:06Z</time>
      </trkpt>
      <trkpt lat="42.8742250" lon="-8.5520750">
        <ele>221.4</ele>
        <time>2022-06-19T11:01:07Z</time>
      </trkpt>
      <trkpt lat="42.8742480" lon="-8.5520460">
        <ele>221.4</ele>
        <time>2022-06-19T11:01:08Z</time>
      </trkpt>
      <trkpt lat="42.8742760" lon="-8.5520260">
        <ele>221.0</ele>
        <time>2022-06-19T11:01:09Z</time>
      </trkpt>
      <trkpt lat="42.8743030" lon="-8.5520050">
        <ele>221.0</ele>
        <time>2022-06-19T11:01:10Z</time>
      </trkpt>
      <trkpt lat="42.8743280" lon="-8.5519710">
        <ele>221.0</ele>
        <time>2022-06-19T11:01:11Z</time>
      </trkpt>
      <trkpt lat="42.8743480" lon="-8.5519450">
        <ele>221.0</ele>
        <time>2022-06-19T11:01:12Z</time>
      </trkpt>
      <trkpt lat="42.8743800" lon="-8.5519180">
        <ele>220.4</ele>
        <time>2022-06-19T11:01:13Z</time>
      </trkpt>
      <trkpt lat="42.8744080" lon="-8.5519000">
        <ele>220.4</ele>
        <time>2022-06-19T11:01:14Z</time>
      </trkpt>
      <trkpt lat="42.8744330" lon="-8.5518680">
        <ele>220.4</ele>
        <time>2022-06-19T11:01:15Z</time>
      </trkpt>
      <trkpt lat="42.8744550" lon="-8.5518450">
        <ele>220.8</ele>
        <time>2022-06-19T11:01:16Z</time>
      </trkpt>
      <trkpt lat="42.8744860" lon="-8.5518280">
        <ele>221.6</ele>
        <time>2022-06-19T11:01:17Z</time>
      </trkpt>
      <trkpt lat="42.8745150" lon="-8.5518100">
        <ele>221.6</ele>
        <time>2022-06-19T11:01:18Z</time>
      </trkpt>
      <trkpt lat="42.8745510" lon="-8.5517880">
        <ele>221.6</ele>
        <time>2022-06-19T11:01:19Z</time>
      </trkpt>
      <trkpt lat="42.8745780" lon="-8.5517430">
        <ele>221.8</ele>
        <time>2022-06-19T11:01:20Z</time>
      </trkpt>
      <trkpt lat="42.8746060" lon="-8.5517100">
        <ele>221.6</ele>
        <time>2022-06-19T11:01:21Z</time>
      </trkpt>
      <trkpt lat="42.8746300" lon="-8.5516630">
        <ele>221.6</ele>
        <time>2022-06-19T11:01:22Z</time>
      </trkpt>
      <trkpt lat="42.8746550" lon="-8.5516160">
        <ele>221.6</ele>
        <time>2022-06-19T11:01:23Z</time>
      </trkpt>
      <trkpt lat="42.8746860" lon="-8.5515750">
        <ele>221.6</ele>
        <time>2022-06-19T11:01:24Z</time>
      </trkpt>
      <trkpt lat="42.8747210" lon="-8.5515360">
        <ele>222.0</ele>
        <time>2022-06-19T11:01:25Z</time>
      </trkpt>
      <trkpt lat="42.8747500" lon="-8.5514960">
        <ele>222.0</ele>
        <time>2022-06-19T11:01:26Z</time>
      </trkpt>
      <trkpt lat="42.8747810" lon="-8.5514610">
        <ele>222.0</ele>
        <time>2022-06-19T11:01:27Z</time>
      </trkpt>
      <trkpt lat="42.8748060" lon="-8.5514330">
        <ele>222.0</ele>
        <time>2022-06-19T11:01:28Z</time>
      </trkpt>
      <trkpt lat="42.8748230" lon="-8.5514000">
        <ele>222.4</ele>
        <time>2022-06-19T11:01:29Z</time>
      </trkpt>
      <trkpt lat="42.8748430" lon="-8.5513680">
        <ele>222.4</ele>
        <time>2022-06-19T11:01:30Z</time>
      </trkpt>
      <trkpt lat="42.8748610" lon="-8.5513400">
        <ele>222.4</ele>
        <time>2022-06-19T11:01:31Z</time>
      </trkpt>
      <trkpt lat="42.8748800" lon="-8.5513080">
        <ele>222.4</ele>
        <time>2022-06-19T11:01:32Z</time>
      </trkpt>
      <trkpt lat="42.8749010" lon="-8.5512760">
        <ele>222.2</ele>
        <time>2022-06-19T11:01:33Z</time>
      </trkpt>
      <trkpt lat="42.8749200" lon="-8.5512460">
        <ele>222.2</ele>
        <time>2022-06-19T11:01:34Z</time>
      </trkpt>
      <trkpt lat="42.8749380" lon="-8.5512150">
        <ele>222.2</ele>
        <time>2022-06-19T11:01:35Z</time>
      </trkpt>
      <trkpt lat="42.8749580" lon="-8.5511800">
        <ele>222.6</ele>
        <time>2022-06-19T11:01:36Z</time>
      </trkpt>
      <trkpt lat="42.8749830" lon="-8.5511480">
        <ele>223.2</ele>
        <time>2022-06-19T11:01:37Z</time>
      </trkpt>
      <trkpt lat="42.8750060" lon="-8.5511180">
        <ele>223.2</ele>
        <time>2022-06-19T11:01:38Z</time>
      </trkpt>
      <trkpt lat="42.8750280" lon="-8.5510880">
        <ele>223.2</ele>
        <time>2022-06-19T11:01:39Z</time>
      </trkpt>
      <trkpt lat="42.8750400" lon="-8.5510560">
        <ele>223.2</ele>
        <time>2022-06-19T11:01:40Z</time>
      </trkpt>
      <trkpt lat="42.8750530" lon="-8.5510210">
        <ele>223.2</ele>
        <time>2022-06-19T11:01:41Z</time>
      </trkpt>
      <trkpt lat="42.8750730" lon="-8.5509900">
        <ele>223.2</ele>
        <time>2022-06-19T11:01:42Z</time>
      </trkpt>
      <trkpt lat="42.8750900" lon="-8.5509630">
        <ele>223.2</ele>
        <time>2022-06-19T11:01:43Z</time>
      </trkpt>
      <trkpt lat="42.8751010" lon="-8.5509300">
        <ele>223.2</ele>
        <time>2022-06-19T11:01:44Z</time>
      </trkpt>
      <trkpt lat="42.8751130" lon="-8.5509030">
        <ele>222.8</ele>
        <time>2022-06-19T11:01:45Z</time>
      </trkpt>
      <trkpt lat="42.8751280" lon="-8.5508760">
        <ele>222.8</ele>
        <time>2022-06-19T11:01:46Z</time>
      </trkpt>
      <trkpt lat="42.8751410" lon="-8.5508400">
        <ele>222.8</ele>
        <time>2022-06-19T11:01:47Z</time>
      </trkpt>
      <trkpt lat="42.8751580" lon="-8.5508130">
        <ele>223.8</ele>
        <time>2022-06-19T11:01:48Z</time>
      </trkpt>
      <trkpt lat="42.8751760" lon="-8.5507900">
        <ele>224.2</ele>
        <time>2022-06-19T11:01:49Z</time>
      </trkpt>
      <trkpt lat="42.8751930" lon="-8.5507600">
        <ele>224.2</ele>
        <time>2022-06-19T11:01:50Z</time>
      </trkpt>
      <trkpt lat="42.8752100" lon="-8.5507350">
        <ele>224.2</ele>
        <time>2022-06-19T11:01:51Z</time>
      </trkpt>
      <trkpt lat="42.8752250" lon="-8.5507080">
        <ele>224.8</ele>
        <time>2022-06-19T11:01:52Z</time>
      </trkpt>
      <trkpt lat="42.8752380" lon="-8.5506810">
        <ele>225.0</ele>
        <time>2022-06-19T11:01:53Z</time>
      </trkpt>
      <trkpt lat="42.8752580" lon="-8.5506600">
        <ele>225.0</ele>
        <time>2022-06-19T11:01:54Z</time>
      </trkpt>
      <trkpt lat="42.8752750" lon="-8.5506350">
        <ele>225.0</ele>
        <time>2022-06-19T11:01:55Z</time>
      </trkpt>
      <trkpt lat="42.8752910" lon="-8.5506010">
        <ele>225.0</ele>
        <time>2022-06-19T11:01:56Z</time>
      </trkpt>
      <trkpt lat="42.8753100" lon="-8.5505750">
        <ele>225.4</ele>
        <time>2022-06-19T11:01:57Z</time>
      </trkpt>
      <trkpt lat="42.8753300" lon="-8.5505500">
        <ele>225.4</ele>
        <time>2022-06-19T11:01:58Z</time>
      </trkpt>
      <trkpt lat="42.8753530" lon="-8.5505300">
        <ele>225.4</ele>
        <time>2022-06-19T11:01:59Z</time>
      </trkpt>
      <trkpt lat="42.8753760" lon="-8.5505030">
        <ele>225.4</ele>
        <time>2022-06-19T11:02:00Z</time>
      </trkpt>
      <trkpt lat="42.8754000" lon="-8.5504810">
        <ele>226.0</ele>
        <time>2022-06-19T11:02:01Z</time>
      </trkpt>
      <trkpt lat="42.8754150" lon="-8.5504550">
        <ele>226.0</ele>
        <time>2022-06-19T11:02:02Z</time>
      </trkpt>
      <trkpt lat="42.8754360" lon="-8.5504330">
        <ele>226.0</ele>
        <time>2022-06-19T11:02:03Z</time>
      </trkpt>
      <trkpt lat="42.8754530" lon="-8.5504130">
        <ele>227.0</ele>
        <time>2022-06-19T11:02:04Z</time>
      </trkpt>
      <trkpt lat="42.8754660" lon="-8.5503880">
        <ele>227.2</ele>
        <time>2022-06-19T11:02:05Z</time>
      </trkpt>
      <trkpt lat="42.8754700" lon="-8.5503480">
        <ele>227.2</ele>
        <time>2022-06-19T11:02:06Z</time>
      </trkpt>
      <trkpt lat="42.8754850" lon="-8.5503180">
        <ele>227.2</ele>
        <time>2022-06-19T11:02:07Z</time>
      </trkpt>
      <trkpt lat="42.8754950" lon="-8.5502860">
        <ele>227.2</ele>
        <time>2022-06-19T11:02:08Z</time>
      </trkpt>
      <trkpt lat="42.8755050" lon="-8.5502610">
        <ele>228.8</ele>
        <time>2022-06-19T11:02:09Z</time>
      </trkpt>
      <trkpt lat="42.8755300" lon="-8.5502530">
        <ele>228.8</ele>
        <time>2022-06-19T11:02:10Z</time>
      </trkpt>
      <trkpt lat="42.8755350" lon="-8.5502210">
        <ele>228.8</ele>
        <time>2022-06-19T11:02:11Z</time>
      </trkpt>
      <trkpt lat="42.8755460" lon="-8.5501950">
        <ele>228.6</ele>
        <time>2022-06-19T11:02:12Z</time>
      </trkpt>
      <trkpt lat="42.8755450" lon="-8.5501600">
        <ele>228.6</ele>
        <time>2022-06-19T11:02:13Z</time>
      </trkpt>
      <trkpt lat="42.8755450" lon="-8.5501260">
        <ele>228.6</ele>
        <time>2022-06-19T11:02:14Z</time>
      </trkpt>
      <trkpt lat="42.8755560" lon="-8.5500950">
        <ele>228.6</ele>
        <time>2022-06-19T11:02:15Z</time>
      </trkpt>
      <trkpt lat="42.8755700" lon="-8.5500600">
        <ele>228.6</ele>
        <time>2022-06-19T11:02:16Z</time>
      </trkpt>
      <trkpt lat="42.8755810" lon="-8.5500330">
        <ele>228.8</ele>
        <time>2022-06-19T11:02:17Z</time>
      </trkpt>
      <trkpt lat="42.8755880" lon="-8.5500030">
        <ele>228.8</ele>
        <time>2022-06-19T11:02:18Z</time>
      </trkpt>
      <trkpt lat="42.8755980" lon="-8.5499760">
        <ele>228.8</ele>
        <time>2022-06-19T11:02:19Z</time>
      </trkpt>
      <trkpt lat="42.8756100" lon="-8.5499500">
        <ele>229.4</ele>
        <time>2022-06-19T11:02:20Z</time>
      </trkpt>
      <trkpt lat="42.8756200" lon="-8.5499210">
        <ele>230.4</ele>
        <time>2022-06-19T11:02:21Z</time>
      </trkpt>
      <trkpt lat="42.8756310" lon="-8.5499000">
        <ele>230.4</ele>
        <time>2022-06-19T11:02:22Z</time>
      </trkpt>
      <trkpt lat="42.8756450" lon="-8.5498730">
        <ele>230.4</ele>
        <time>2022-06-19T11:02:23Z</time>
      </trkpt>
      <trkpt lat="42.8756580" lon="-8.5498550">
        <ele>230.4</ele>
        <time>2022-06-19T11:02:24Z</time>
      </trkpt>
      <trkpt lat="42.8756700" lon="-8.5498330">
        <ele>230.6</ele>
        <time>2022-06-19T11:02:25Z</time>
      </trkpt>
      <trkpt lat="42.8756850" lon="-8.5498110">
        <ele>230.6</ele>
        <time>2022-06-19T11:02:26Z</time>
      </trkpt>
      <trkpt lat="42.8756980" lon="-8.5497880">
        <ele>230.6</ele>
        <time>2022-06-19T11:02:27Z</time>
      </trkpt>
      <trkpt lat="42.8757130" lon="-8.5497610">
        <ele>231.2</ele>
        <time>2022-06-19T11:02:28Z</time>
      </trkpt>
      <trkpt lat="42.8757260" lon="-8.5497300">
        <ele>231.8</ele>
        <time>2022-06-19T11:02:29Z</time>
      </trkpt>
      <trkpt lat="42.8757430" lon="-8.5497080">
        <ele>231.8</ele>
        <time>2022-06-19T11:02:30Z</time>
      </trkpt>
      <trkpt lat="42.8757550" lon="-8.5496780">
        <ele>231.8</ele>
        <time>2022-06-19T11:02:31Z</time>
      </trkpt>
      <trkpt lat="42.8757650" lon="-8.5496460">
        <ele>231.8</ele>
        <time>2022-06-19T11:02:32Z</time>
      </trkpt>
      <trkpt lat="42.8757730" lon="-8.5496180">
        <ele>232.2</ele>
        <time>2022-06-19T11:02:33Z</time>
      </trkpt>
      <trkpt lat="42.8757810" lon="-8.5495880">
        <ele>232.2</ele>
        <time>2022-06-19T11:02:34Z</time>
      </trkpt>
      <trkpt lat="42.8757910" lon="-8.5495600">
        <ele>232.2</ele>
        <time>2022-06-19T11:02:35Z</time>
      </trkpt>
      <trkpt lat="42.8758050" lon="-8.5495350">
        <ele>232.8</ele>
        <time>2022-06-19T11:02:36Z</time>
      </trkpt>
      <trkpt lat="42.8758210" lon="-8.5495080">
        <ele>233.2</ele>
        <time>2022-06-19T11:02:37Z</time>
      </trkpt>
      <trkpt lat="42.8758380" lon="-8.5494830">
        <ele>233.2</ele>
        <time>2022-06-19T11:02:38Z</time>
      </trkpt>
      <trkpt lat="42.8758530" lon="-8.5494580">
        <ele>233.2</ele>
        <time>2022-06-19T11:02:39Z</time>
      </trkpt>
      <trkpt lat="42.8758630" lon="-8.5494350">
        <ele>233.4</ele>
        <time>2022-06-19T11:02:40Z</time>
      </trkpt>
      <trkpt lat="42.8758750" lon="-8.5494110">
        <ele>233.6</ele>
        <time>2022-06-19T11:02:41Z</time>
      </trkpt>
      <trkpt lat="42.8758810" lon="-8.5493780">
        <ele>233.6</ele>
        <time>2022-06-19T11:02:42Z</time>
      </trkpt>
      <trkpt lat="42.8758900" lon="-8.5493460">
        <ele>233.6</ele>
        <time>2022-06-19T11:02:43Z</time>
      </trkpt>
      <trkpt lat="42.8759060" lon="-8.5493200">
        <ele>234.0</ele>
        <time>2022-06-19T11:02:44Z</time>
      </trkpt>
      <trkpt lat="42.8759160" lon="-8.5492960">
        <ele>234.2</ele>
        <time>2022-06-19T11:02:45Z</time>
      </trkpt>
      <trkpt lat="42.8759250" lon="-8.5492710">
        <ele>234.2</ele>
        <time>2022-06-19T11:02:46Z</time>
      </trkpt>
      <trkpt lat="42.8759330" lon="-8.5492400">
        <ele>234.2</ele>
        <time>2022-06-19T11:02:47Z</time>
      </trkpt>
      <trkpt lat="42.8759430" lon="-8.5492100">
        <ele>234.6</ele>
        <time>2022-06-19T11:02:48Z</time>
      </trkpt>
      <trkpt lat="42.8759450" lon="-8.5491730">
        <ele>234.6</ele>
        <time>2022-06-19T11:02:49Z</time>
      </trkpt>
      <trkpt lat="42.8759460" lon="-8.5491410">
        <ele>234.6</ele>
        <time>2022-06-19T11:02:50Z</time>
      </trkpt>
      <trkpt lat="42.8759480" lon="-8.5491080">
        <ele>234.6</ele>
        <time>2022-06-19T11:02:51Z</time>
      </trkpt>
      <trkpt lat="42.8759530" lon="-8.5490830">
        <ele>235.2</ele>
        <time>2022-06-19T11:02:52Z</time>
      </trkpt>
      <trkpt lat="42.8759680" lon="-8.5490580">
        <ele>236.0</ele>
        <time>2022-06-19T11:02:53Z</time>
      </trkpt>
      <trkpt lat="42.8759780" lon="-8.5490350">
        <ele>236.0</ele>
        <time>2022-06-19T11:02:54Z</time>
      </trkpt>
      <trkpt lat="42.8759900" lon="-8.5490100">
        <ele>236.0</ele>
        <time>2022-06-19T11:02:55Z</time>
      </trkpt>
      <trkpt lat="42.8760010" lon="-8.5489860">
        <ele>235.6</ele>
        <time>2022-06-19T11:02:56Z</time>
      </trkpt>
      <trkpt lat="42.8760160" lon="-8.5489560">
        <ele>235.8</ele>
        <time>2022-06-19T11:02:57Z</time>
      </trkpt>
      <trkpt lat="42.8760280" lon="-8.5489330">
        <ele>235.8</ele>
        <time>2022-06-19T11:02:58Z</time>
      </trkpt>
      <trkpt lat="42.8760400" lon="-8.5488960">
        <ele>235.8</ele>
        <time>2022-06-19T11:02:59Z</time>
      </trkpt>
      <trkpt lat="42.8760500" lon="-8.5488660">
        <ele>235.8</ele>
        <time>2022-06-19T11:03:00Z</time>
      </trkpt>
      <trkpt lat="42.8760560" lon="-8.5488330">
        <ele>236.0</ele>
        <time>2022-06-19T11:03:01Z</time>
      </trkpt>
      <trkpt lat="42.8760600" lon="-8.5488000">
        <ele>236.0</ele>
        <time>2022-06-19T11:03:02Z</time>
      </trkpt>
      <trkpt lat="42.8760680" lon="-8.5487600">
        <ele>236.0</ele>
        <time>2022-06-19T11:03:03Z</time>
      </trkpt>
      <trkpt lat="42.8760780" lon="-8.5487180">
        <ele>235.8</ele>
        <time>2022-06-19T11:03:04Z</time>
      </trkpt>
      <trkpt lat="42.8760930" lon="-8.5486760">
        <ele>235.8</ele>
        <time>2022-06-19T11:03:05Z</time>
      </trkpt>
      <trkpt lat="42.8761100" lon="-8.5486360">
        <ele>235.8</ele>
        <time>2022-06-19T11:03:06Z</time>
      </trkpt>
      <trkpt lat="42.8761260" lon="-8.5486010">
        <ele>235.8</ele>
        <time>2022-06-19T11:03:07Z</time>
      </trkpt>
      <trkpt lat="42.8761410" lon="-8.5485660">
        <ele>235.2</ele>
        <time>2022-06-19T11:03:08Z</time>
      </trkpt>
      <trkpt lat="42.8761560" lon="-8.5485330">
        <ele>235.4</ele>
        <time>2022-06-19T11:03:09Z</time>
      </trkpt>
      <trkpt lat="42.8761660" lon="-8.5485000">
        <ele>235.4</ele>
        <time>2022-06-19T11:03:10Z</time>
      </trkpt>
      <trkpt lat="42.8761730" lon="-8.5484660">
        <ele>235.4</ele>
        <time>2022-06-19T11:03:11Z</time>
      </trkpt>
      <trkpt lat="42.8761800" lon="-8.5484350">
        <ele>235.8</ele>
        <time>2022-06-19T11:03:12Z</time>
      </trkpt>
      <trkpt lat="42.8761900" lon="-8.5484030">
        <ele>235.8</ele>
        <time>2022-06-19T11:03:13Z</time>
      </trkpt>
      <trkpt lat="42.8762000" lon="-8.5483680">
        <ele>235.8</ele>
        <time>2022-06-19T11:03:14Z</time>
      </trkpt>
      <trkpt lat="42.8762130" lon="-8.5483360">
        <ele>235.8</ele>
        <time>2022-06-19T11:03:15Z</time>
      </trkpt>
      <trkpt lat="42.8762260" lon="-8.5483060">
        <ele>235.8</ele>
        <time>2022-06-19T11:03:16Z</time>
      </trkpt>
      <trkpt lat="42.8762380" lon="-8.5482760">
        <ele>236.2</ele>
        <time>2022-06-19T11:03:17Z</time>
      </trkpt>
      <trkpt lat="42.8762510" lon="-8.5482460">
        <ele>236.2</ele>
        <time>2022-06-19T11:03:18Z</time>
      </trkpt>
      <trkpt lat="42.8762630" lon="-8.5482150">
        <ele>236.2</ele>
        <time>2022-06-19T11:03:19Z</time>
      </trkpt>
      <trkpt lat="42.8762710" lon="-8.5481830">
        <ele>235.8</ele>
        <time>2022-06-19T11:03:20Z</time>
      </trkpt>
      <trkpt lat="42.8762810" lon="-8.5481530">
        <ele>235.6</ele>
        <time>2022-06-19T11:03:21Z</time>
      </trkpt>
      <trkpt lat="42.8762900" lon="-8.5481250">
        <ele>235.6</ele>
        <time>2022-06-19T11:03:22Z</time>
      </trkpt>
      <trkpt lat="42.8762950" lon="-8.5480930">
        <ele>235.6</ele>
        <time>2022-06-19T11:03:23Z</time>
      </trkpt>
      <trkpt lat="42.8763080" lon="-8.5480610">
        <ele>236.2</ele>
        <time>2022-06-19T11:03:24Z</time>
      </trkpt>
      <trkpt lat="42.8763230" lon="-8.5480250">
        <ele>236.2</ele>
        <time>2022-06-19T11:03:25Z</time>
      </trkpt>
      <trkpt lat="42.8763360" lon="-8.5479880">
        <ele>236.2</ele>
        <time>2022-06-19T11:03:26Z</time>
      </trkpt>
      <trkpt lat="42.8763480" lon="-8.5479560">
        <ele>236.2</ele>
        <time>2022-06-19T11:03:27Z</time>
      </trkpt>
      <trkpt lat="42.8763580" lon="-8.5479180">
        <ele>236.2</ele>
        <time>2022-06-19T11:03:28Z</time>
      </trkpt>
      <trkpt lat="42.8763700" lon="-8.5478810">
        <ele>236.2</ele>
        <time>2022-06-19T11:03:29Z</time>
      </trkpt>
      <trkpt lat="42.8763810" lon="-8.5478480">
        <ele>236.2</ele>
        <time>2022-06-19T11:03:30Z</time>
      </trkpt>
      <trkpt lat="42.8763930" lon="-8.5478130">
        <ele>236.2</ele>
        <time>2022-06-19T11:03:31Z</time>
      </trkpt>
      <trkpt lat="42.8764050" lon="-8.5477800">
        <ele>236.2</ele>
        <time>2022-06-19T11:03:32Z</time>
      </trkpt>
      <trkpt lat="42.8764200" lon="-8.5477400">
        <ele>236.4</ele>
        <time>2022-06-19T11:03:33Z</time>
      </trkpt>
      <trkpt lat="42.8764330" lon="-8.5477010">
        <ele>236.4</ele>
        <time>2022-06-19T11:03:34Z</time>
      </trkpt>
      <trkpt lat="42.8764480" lon="-8.5476610">
        <ele>236.4</ele>
        <time>2022-06-19T11:03:35Z</time>
      </trkpt>
      <trkpt lat="42.8764650" lon="-8.5476230">
        <ele>236.0</ele>
        <time>2022-06-19T11:03:36Z</time>
      </trkpt>
      <trkpt lat="42.8764800" lon="-8.5475810">
        <ele>235.8</ele>
        <time>2022-06-19T11:03:37Z</time>
      </trkpt>
      <trkpt lat="42.8764950" lon="-8.5475400">
        <ele>235.8</ele>
        <time>2022-06-19T11:03:38Z</time>
      </trkpt>
      <trkpt lat="42.8765080" lon="-8.5474980">
        <ele>235.8</ele>
        <time>2022-06-19T11:03:39Z</time>
      </trkpt>
      <trkpt lat="42.8765200" lon="-8.5474560">
        <ele>235.8</ele>
        <time>2022-06-19T11:03:40Z</time>
      </trkpt>
      <trkpt lat="42.8765350" lon="-8.5474200">
        <ele>235.6</ele>
        <time>2022-06-19T11:03:41Z</time>
      </trkpt>
      <trkpt lat="42.8765500" lon="-8.5473810">
        <ele>235.6</ele>
        <time>2022-06-19T11:03:42Z</time>
      </trkpt>
      <trkpt lat="42.8765600" lon="-8.5473400">
        <ele>235.6</ele>
        <time>2022-06-19T11:03:43Z</time>
      </trkpt>
      <trkpt lat="42.8765700" lon="-8.5473000">
        <ele>236.6</ele>
        <time>2022-06-19T11:03:44Z</time>
      </trkpt>
      <trkpt lat="42.8765860" lon="-8.5472550">
        <ele>236.2</ele>
        <time>2022-06-19T11:03:45Z</time>
      </trkpt>
      <trkpt lat="42.8766030" lon="-8.5472150">
        <ele>236.2</ele>
        <time>2022-06-19T11:03:46Z</time>
      </trkpt>
      <trkpt lat="42.8766230" lon="-8.5471730">
        <ele>236.2</ele>
        <time>2022-06-19T11:03:47Z</time>
      </trkpt>
      <trkpt lat="42.8766360" lon="-8.5471330">
        <ele>237.0</ele>
        <time>2022-06-19T11:03:48Z</time>
      </trkpt>
      <trkpt lat="42.8766460" lon="-8.5470950">
        <ele>236.6</ele>
        <time>2022-06-19T11:03:49Z</time>
      </trkpt>
      <trkpt lat="42.8766700" lon="-8.5470530">
        <ele>236.6</ele>
        <time>2022-06-19T11:03:50Z</time>
      </trkpt>
      <trkpt lat="42.8766860" lon="-8.5470130">
        <ele>236.6</ele>
        <time>2022-06-19T11:03:51Z</time>
      </trkpt>
      <trkpt lat="42.8767010" lon="-8.5469710">
        <ele>236.4</ele>
        <time>2022-06-19T11:03:52Z</time>
      </trkpt>
      <trkpt lat="42.8767160" lon="-8.5469330">
        <ele>237.4</ele>
        <time>2022-06-19T11:03:53Z</time>
      </trkpt>
      <trkpt lat="42.8767300" lon="-8.5468930">
        <ele>237.4</ele>
        <time>2022-06-19T11:03:54Z</time>
      </trkpt>
      <trkpt lat="42.8767410" lon="-8.5468600">
        <ele>237.4</ele>
        <time>2022-06-19T11:03:55Z</time>
      </trkpt>
      <trkpt lat="42.8767460" lon="-8.5468330">
        <ele>237.4</ele>
        <time>2022-06-19T11:03:56Z</time>
      </trkpt>
      <trkpt lat="42.8767510" lon="-8.5468110">
        <ele>237.0</ele>
        <time>2022-06-19T11:03:57Z</time>
      </trkpt>
      <trkpt lat="42.8767560" lon="-8.5467950">
        <ele>237.0</ele>
        <time>2022-06-19T11:03:58Z</time>
      </trkpt>
      <trkpt lat="42.8767650" lon="-8.5467800">
        <ele>237.0</ele>
        <time>2022-06-19T11:03:59Z</time>
      </trkpt>
      <trkpt lat="42.8767730" lon="-8.5467700">
        <ele>237.0</ele>
        <time>2022-06-19T11:04:00Z</time>
      </trkpt>
      <trkpt lat="42.8767810" lon="-8.5467610">
        <ele>237.0</ele>
        <time>2022-06-19T11:04:01Z</time>
      </trkpt>
      <trkpt lat="42.8767880" lon="-8.5467530">
        <ele>237.0</ele>
        <time>2022-06-19T11:04:02Z</time>
      </trkpt>
      <trkpt lat="42.8767930" lon="-8.5467450">
        <ele>237.0</ele>
        <time>2022-06-19T11:04:03Z</time>
      </trkpt>
      <trkpt lat="42.8768010" lon="-8.5467330">
        <ele>237.0</ele>
        <time>2022-06-19T11:04:04Z</time>
      </trkpt>
      <trkpt lat="42.8768030" lon="-8.5467180">
        <ele>237.4</ele>
        <time>2022-06-19T11:04:05Z</time>
      </trkpt>
      <trkpt lat="42.8768010" lon="-8.5467030">
        <ele>237.4</ele>
        <time>2022-06-19T11:04:06Z</time>
      </trkpt>
      <trkpt lat="42.8768030" lon="-8.5466880">
        <ele>237.4</ele>
        <time>2022-06-19T11:04:07Z</time>
      </trkpt>
      <trkpt lat="42.8768060" lon="-8.5466710">
        <ele>237.0</ele>
        <time>2022-06-19T11:04:08Z</time>
      </trkpt>
      <trkpt lat="42.8768130" lon="-8.5466450">
        <ele>236.6</ele>
        <time>2022-06-19T11:04:09Z</time>
      </trkpt>
      <trkpt lat="42.8768210" lon="-8.5466160">
        <ele>236.6</ele>
        <time>2022-06-19T11:04:10Z</time>
      </trkpt>
      <trkpt lat="42.8768350" lon="-8.5465810">
        <ele>236.6</ele>
        <time>2022-06-19T11:04:11Z</time>
      </trkpt>
      <trkpt lat="42.8768460" lon="-8.5465410">
        <ele>236.6</ele>
        <time>2022-06-19T11:04:12Z</time>
      </trkpt>
      <trkpt lat="42.8768560" lon="-8.5465000">
        <ele>237.0</ele>
        <time>2022-06-19T11:04:13Z</time>
      </trkpt>
      <trkpt lat="42.8768630" lon="-8.5464600">
        <ele>237.0</ele>
        <time>2022-06-19T11:04:14Z</time>
      </trkpt>
      <trkpt lat="42.8768680" lon="-8.5464200">
        <ele>237.0</ele>
        <time>2022-06-19T11:04:15Z</time>
      </trkpt>
      <trkpt lat="42.8768730" lon="-8.5463830">
        <ele>237.0</ele>
        <time>2022-06-19T11:04:16Z</time>
      </trkpt>
      <trkpt lat="42.8768800" lon="-8.5463510">
        <ele>237.0</ele>
        <time>2022-06-19T11:04:17Z</time>
      </trkpt>
      <trkpt lat="42.8768880" lon="-8.5463260">
        <ele>237.0</ele>
        <time>2022-06-19T11:04:18Z</time>
      </trkpt>
      <trkpt lat="42.8768950" lon="-8.5463130">
        <ele>237.0</ele>
        <time>2022-06-19T11:04:19Z</time>
      </trkpt>
      <trkpt lat="42.8768980" lon="-8.5463100">
        <ele>237.2</ele>
        <time>2022-06-19T11:04:20Z</time>
      </trkpt>
      <trkpt lat="42.8768980" lon="-8.5463100">
        <ele>237.2</ele>
        <time>2022-06-19T11:04:21Z</time>
      </trkpt>
      <trkpt lat="42.8769260" lon="-8.5462650">
        <ele>236.6</ele>
        <time>2022-06-19T11:05:25Z</time>
      </trkpt>
      <trkpt lat="42.8769400" lon="-8.5462510">
        <ele>236.6</ele>
        <time>2022-06-19T11:05:26Z</time>
      </trkpt>
      <trkpt lat="42.8769530" lon="-8.5462410">
        <ele>236.6</ele>
        <time>2022-06-19T11:05:27Z</time>
      </trkpt>
      <trkpt lat="42.8769730" lon="-8.5462310">
        <ele>236.6</ele>
        <time>2022-06-19T11:05:28Z</time>
      </trkpt>
      <trkpt lat="42.8769930" lon="-8.5462210">
        <ele>236.6</ele>
        <time>2022-06-19T11:05:29Z</time>
      </trkpt>
      <trkpt lat="42.8770160" lon="-8.5462100">
        <ele>237.2</ele>
        <time>2022-06-19T11:05:30Z</time>
      </trkpt>
      <trkpt lat="42.8770430" lon="-8.5461960">
        <ele>237.2</ele>
        <time>2022-06-19T11:05:31Z</time>
      </trkpt>
      <trkpt lat="42.8770660" lon="-8.5461880">
        <ele>237.2</ele>
        <time>2022-06-19T11:05:32Z</time>
      </trkpt>
      <trkpt lat="42.8770860" lon="-8.5461850">
        <ele>237.0</ele>
        <time>2022-06-19T11:05:33Z</time>
      </trkpt>
      <trkpt lat="42.8771060" lon="-8.5461760">
        <ele>237.0</ele>
        <time>2022-06-19T11:05:34Z</time>
      </trkpt>
      <trkpt lat="42.8771260" lon="-8.5461710">
        <ele>237.0</ele>
        <time>2022-06-19T11:05:35Z</time>
      </trkpt>
      <trkpt lat="42.8771450" lon="-8.5461680">
        <ele>237.0</ele>
        <time>2022-06-19T11:05:36Z</time>
      </trkpt>
      <trkpt lat="42.8771600" lon="-8.5461610">
        <ele>237.0</ele>
        <time>2022-06-19T11:05:37Z</time>
      </trkpt>
      <trkpt lat="42.8771760" lon="-8.5461560">
        <ele>237.2</ele>
        <time>2022-06-19T11:05:38Z</time>
      </trkpt>
      <trkpt lat="42.8771930" lon="-8.5461510">
        <ele>237.2</ele>
        <time>2022-06-19T11:05:39Z</time>
      </trkpt>
      <trkpt lat="42.8772110" lon="-8.5461450">
        <ele>237.2</ele>
        <time>2022-06-19T11:05:40Z</time>
      </trkpt>
      <trkpt lat="42.8772230" lon="-8.5461300">
        <ele>238.0</ele>
        <time>2022-06-19T11:05:41Z</time>
      </trkpt>
      <trkpt lat="42.8772330" lon="-8.5461160">
        <ele>237.4</ele>
        <time>2022-06-19T11:05:42Z</time>
      </trkpt>
      <trkpt lat="42.8772400" lon="-8.5461030">
        <ele>237.4</ele>
        <time>2022-06-19T11:05:43Z</time>
      </trkpt>
      <trkpt lat="42.8772480" lon="-8.5460900">
        <ele>237.4</ele>
        <time>2022-06-19T11:05:44Z</time>
      </trkpt>
      <trkpt lat="42.8772560" lon="-8.5460750">
        <ele>237.4</ele>
        <time>2022-06-19T11:05:45Z</time>
      </trkpt>
      <trkpt lat="42.8772610" lon="-8.5460600">
        <ele>237.0</ele>
        <time>2022-06-19T11:05:46Z</time>
      </trkpt>
      <trkpt lat="42.8772700" lon="-8.5460410">
        <ele>237.0</ele>
        <time>2022-06-19T11:05:47Z</time>
      </trkpt>
      <trkpt lat="42.8772780" lon="-8.5460210">
        <ele>237.0</ele>
        <time>2022-06-19T11:05:48Z</time>
      </trkpt>
      <trkpt lat="42.8772830" lon="-8.5459930">
        <ele>237.4</ele>
        <time>2022-06-19T11:05:49Z</time>
      </trkpt>
      <trkpt lat="42.8772850" lon="-8.5459680">
        <ele>237.4</ele>
        <time>2022-06-19T11:05:50Z</time>
      </trkpt>
      <trkpt lat="42.8772910" lon="-8.5459410">
        <ele>237.4</ele>
        <time>2022-06-19T11:05:51Z</time>
      </trkpt>
      <trkpt lat="42.8772960" lon="-8.5459180">
        <ele>237.4</ele>
        <time>2022-06-19T11:05:52Z</time>
      </trkpt>
      <trkpt lat="42.8773010" lon="-8.5459000">
        <ele>237.4</ele>
        <time>2022-06-19T11:05:53Z</time>
      </trkpt>
      <trkpt lat="42.8773080" lon="-8.5458830">
        <ele>238.0</ele>
        <time>2022-06-19T11:05:54Z</time>
      </trkpt>
      <trkpt lat="42.8773160" lon="-8.5458660">
        <ele>238.0</ele>
        <time>2022-06-19T11:05:55Z</time>
      </trkpt>
      <trkpt lat="42.8773230" lon="-8.5458510">
        <ele>238.0</ele>
        <time>2022-06-19T11:05:56Z</time>
      </trkpt>
      <trkpt lat="42.8773300" lon="-8.5458360">
        <ele>238.0</ele>
        <time>2022-06-19T11:05:57Z</time>
      </trkpt>
      <trkpt lat="42.8773380" lon="-8.5458200">
        <ele>238.2</ele>
        <time>2022-06-19T11:05:58Z</time>
      </trkpt>
      <trkpt lat="42.8773430" lon="-8.5458030">
        <ele>238.2</ele>
        <time>2022-06-19T11:05:59Z</time>
      </trkpt>
      <trkpt lat="42.8773480" lon="-8.5457930">
        <ele>238.2</ele>
        <time>2022-06-19T11:06:00Z</time>
      </trkpt>
      <trkpt lat="42.8773610" lon="-8.5457860">
        <ele>238.0</ele>
        <time>2022-06-19T11:06:01Z</time>
      </trkpt>
      <trkpt lat="42.8773760" lon="-8.5457750">
        <ele>238.0</ele>
        <time>2022-06-19T11:06:02Z</time>
      </trkpt>
      <trkpt lat="42.8773910" lon="-8.5457600">
        <ele>238.0</ele>
        <time>2022-06-19T11:06:03Z</time>
      </trkpt>
      <trkpt lat="42.8774060" lon="-8.5457460">
        <ele>238.0</ele>
        <time>2022-06-19T11:06:04Z</time>
      </trkpt>
      <trkpt lat="42.8774230" lon="-8.5457300">
        <ele>238.6</ele>
        <time>2022-06-19T11:06:05Z</time>
      </trkpt>
      <trkpt lat="42.8774380" lon="-8.5457200">
        <ele>238.4</ele>
        <time>2022-06-19T11:06:06Z</time>
      </trkpt>
      <trkpt lat="42.8774500" lon="-8.5457060">
        <ele>238.4</ele>
        <time>2022-06-19T11:06:07Z</time>
      </trkpt>
      <trkpt lat="42.8774600" lon="-8.5456950">
        <ele>238.4</ele>
        <time>2022-06-19T11:06:08Z</time>
      </trkpt>
      <trkpt lat="42.8774710" lon="-8.5456910">
        <ele>238.8</ele>
        <time>2022-06-19T11:06:09Z</time>
      </trkpt>
      <trkpt lat="42.8774880" lon="-8.5456810">
        <ele>238.6</ele>
        <time>2022-06-19T11:06:10Z</time>
      </trkpt>
      <trkpt lat="42.8775030" lon="-8.5456710">
        <ele>238.6</ele>
        <time>2022-06-19T11:06:11Z</time>
      </trkpt>
      <trkpt lat="42.8775150" lon="-8.5456580">
        <ele>238.6</ele>
        <time>2022-06-19T11:06:12Z</time>
      </trkpt>
      <trkpt lat="42.8775260" lon="-8.5456480">
        <ele>238.6</ele>
        <time>2022-06-19T11:06:13Z</time>
      </trkpt>
      <trkpt lat="42.8775430" lon="-8.5456430">
        <ele>239.0</ele>
        <time>2022-06-19T11:06:14Z</time>
      </trkpt>
      <trkpt lat="42.8775530" lon="-8.5456360">
        <ele>239.0</ele>
        <time>2022-06-19T11:06:15Z</time>
      </trkpt>
      <trkpt lat="42.8775610" lon="-8.5456300">
        <ele>239.0</ele>
        <time>2022-06-19T11:06:16Z</time>
      </trkpt>
      <trkpt lat="42.8775630" lon="-8.5456210">
        <ele>239.0</ele>
        <time>2022-06-19T11:06:17Z</time>
      </trkpt>
      <trkpt lat="42.8775710" lon="-8.5456200">
        <ele>239.2</ele>
        <time>2022-06-19T11:06:18Z</time>
      </trkpt>
      <trkpt lat="42.8775810" lon="-8.5456180">
        <ele>239.2</ele>
        <time>2022-06-19T11:06:19Z</time>
      </trkpt>
      <trkpt lat="42.8775910" lon="-8.5456130">
        <ele>239.2</ele>
        <time>2022-06-19T11:06:20Z</time>
      </trkpt>
      <trkpt lat="42.8775980" lon="-8.5456010">
        <ele>239.2</ele>
        <time>2022-06-19T11:06:21Z</time>
      </trkpt>
      <trkpt lat="42.8776060" lon="-8.5455980">
        <ele>239.4</ele>
        <time>2022-06-19T11:06:22Z</time>
      </trkpt>
      <trkpt lat="42.8776130" lon="-8.5455960">
        <ele>239.4</ele>
        <time>2022-06-19T11:06:23Z</time>
      </trkpt>
      <trkpt lat="42.8776230" lon="-8.5455930">
        <ele>239.4</ele>
        <time>2022-06-19T11:06:24Z</time>
      </trkpt>
      <trkpt lat="42.8776400" lon="-8.5455930">
        <ele>238.8</ele>
        <time>2022-06-19T11:06:25Z</time>
      </trkpt>
      <trkpt lat="42.8776530" lon="-8.5455960">
        <ele>238.8</ele>
        <time>2022-06-19T11:06:26Z</time>
      </trkpt>
      <trkpt lat="42.8776660" lon="-8.5455850">
        <ele>238.8</ele>
        <time>2022-06-19T11:06:27Z</time>
      </trkpt>
      <trkpt lat="42.8776830" lon="-8.5455830">
        <ele>238.8</ele>
        <time>2022-06-19T11:06:28Z</time>
      </trkpt>
      <trkpt lat="42.8777000" lon="-8.5455750">
        <ele>238.8</ele>
        <time>2022-06-19T11:06:29Z</time>
      </trkpt>
      <trkpt lat="42.8777180" lon="-8.5455660">
        <ele>238.8</ele>
        <time>2022-06-19T11:06:30Z</time>
      </trkpt>
      <trkpt lat="42.8777300" lon="-8.5455330">
        <ele>238.8</ele>
        <time>2022-06-19T11:06:31Z</time>
      </trkpt>
      <trkpt lat="42.8777460" lon="-8.5455260">
        <ele>238.8</ele>
        <time>2022-06-19T11:06:32Z</time>
      </trkpt>
      <trkpt lat="42.8777610" lon="-8.5455180">
        <ele>238.2</ele>
        <time>2022-06-19T11:06:33Z</time>
      </trkpt>
      <trkpt lat="42.8777710" lon="-8.5455030">
        <ele>238.0</ele>
        <time>2022-06-19T11:06:34Z</time>
      </trkpt>
      <trkpt lat="42.8777830" lon="-8.5454880">
        <ele>238.0</ele>
        <time>2022-06-19T11:06:35Z</time>
      </trkpt>
      <trkpt lat="42.8777980" lon="-8.5454930">
        <ele>238.0</ele>
        <time>2022-06-19T11:06:36Z</time>
      </trkpt>
      <trkpt lat="42.8778100" lon="-8.5454960">
        <ele>238.0</ele>
        <time>2022-06-19T11:06:37Z</time>
      </trkpt>
      <trkpt lat="42.8778230" lon="-8.5455010">
        <ele>238.8</ele>
        <time>2022-06-19T11:06:38Z</time>
      </trkpt>
      <trkpt lat="42.8778310" lon="-8.5454860">
        <ele>238.8</ele>
        <time>2022-06-19T11:06:39Z</time>
      </trkpt>
      <trkpt lat="42.8778430" lon="-8.5454750">
        <ele>238.8</ele>
        <time>2022-06-19T11:06:40Z</time>
      </trkpt>
      <trkpt lat="42.8778510" lon="-8.5454660">
        <ele>238.2</ele>
        <time>2022-06-19T11:06:41Z</time>
      </trkpt>
      <trkpt lat="42.8778610" lon="-8.5454600">
        <ele>238.4</ele>
        <time>2022-06-19T11:06:42Z</time>
      </trkpt>
      <trkpt lat="42.8778710" lon="-8.5454600">
        <ele>238.4</ele>
        <time>2022-06-19T11:06:43Z</time>
      </trkpt>
      <trkpt lat="42.8778780" lon="-8.5454550">
        <ele>238.4</ele>
        <time>2022-06-19T11:06:44Z</time>
      </trkpt>
      <trkpt lat="42.8778860" lon="-8.5454500">
        <ele>238.4</ele>
        <time>2022-06-19T11:06:45Z</time>
      </trkpt>
      <trkpt lat="42.8778910" lon="-8.5454410">
        <ele>238.0</ele>
        <time>2022-06-19T11:06:46Z</time>
      </trkpt>
      <trkpt lat="42.8779010" lon="-8.5454480">
        <ele>238.0</ele>
        <time>2022-06-19T11:06:47Z</time>
      </trkpt>
      <trkpt lat="42.8779160" lon="-8.5454510">
        <ele>238.0</ele>
        <time>2022-06-19T11:06:48Z</time>
      </trkpt>
      <trkpt lat="42.8779260" lon="-8.5454560">
        <ele>238.0</ele>
        <time>2022-06-19T11:06:49Z</time>
      </trkpt>
      <trkpt lat="42.8779380" lon="-8.5454530">
        <ele>238.0</ele>
        <time>2022-06-19T11:06:50Z</time>
      </trkpt>
      <trkpt lat="42.8779430" lon="-8.5454460">
        <ele>238.0</ele>
        <time>2022-06-19T11:06:51Z</time>
      </trkpt>
      <trkpt lat="42.8779530" lon="-8.5454380">
        <ele>238.0</ele>
        <time>2022-06-19T11:06:52Z</time>
      </trkpt>
      <trkpt lat="42.8779580" lon="-8.5454400">
        <ele>238.0</ele>
        <time>2022-06-19T11:06:53Z</time>
      </trkpt>
      <trkpt lat="42.8779730" lon="-8.5454450">
        <ele>237.8</ele>
        <time>2022-06-19T11:06:54Z</time>
      </trkpt>
      <trkpt lat="42.8779910" lon="-8.5454510">
        <ele>237.8</ele>
        <time>2022-06-19T11:06:55Z</time>
      </trkpt>
      <trkpt lat="42.8780080" lon="-8.5454450">
        <ele>237.8</ele>
        <time>2022-06-19T11:06:56Z</time>
      </trkpt>
      <trkpt lat="42.8780250" lon="-8.5454550">
        <ele>237.2</ele>
        <time>2022-06-19T11:06:57Z</time>
      </trkpt>
      <trkpt lat="42.8780380" lon="-8.5454300">
        <ele>237.6</ele>
        <time>2022-06-19T11:06:58Z</time>
      </trkpt>
      <trkpt lat="42.8780480" lon="-8.5454060">
        <ele>237.6</ele>
        <time>2022-06-19T11:06:59Z</time>
      </trkpt>
      <trkpt lat="42.8780630" lon="-8.5453980">
        <ele>237.6</ele>
        <time>2022-06-19T11:07:00Z</time>
      </trkpt>
      <trkpt lat="42.8780800" lon="-8.5453860">
        <ele>237.4</ele>
        <time>2022-06-19T11:07:01Z</time>
      </trkpt>
      <trkpt lat="42.8780910" lon="-8.5453750">
        <ele>237.2</ele>
        <time>2022-06-19T11:07:02Z</time>
      </trkpt>
      <trkpt lat="42.8781010" lon="-8.5453580">
        <ele>237.2</ele>
        <time>2022-06-19T11:07:03Z</time>
      </trkpt>
      <trkpt lat="42.8781150" lon="-8.5453480">
        <ele>237.2</ele>
        <time>2022-06-19T11:07:04Z</time>
      </trkpt>
      <trkpt lat="42.8781210" lon="-8.5453480">
        <ele>237.2</ele>
        <time>2022-06-19T11:07:05Z</time>
      </trkpt>
      <trkpt lat="42.8781310" lon="-8.5453450">
        <ele>237.0</ele>
        <time>2022-06-19T11:07:06Z</time>
      </trkpt>
      <trkpt lat="42.8781430" lon="-8.5453400">
        <ele>237.0</ele>
        <time>2022-06-19T11:07:07Z</time>
      </trkpt>
      <trkpt lat="42.8781550" lon="-8.5453380">
        <ele>237.0</ele>
        <time>2022-06-19T11:07:08Z</time>
      </trkpt>
      <trkpt lat="42.8781680" lon="-8.5453330">
        <ele>237.0</ele>
        <time>2022-06-19T11:07:09Z</time>
      </trkpt>
      <trkpt lat="42.8781810" lon="-8.5453300">
        <ele>237.0</ele>
        <time>2022-06-19T11:07:10Z</time>
      </trkpt>
      <trkpt lat="42.8781930" lon="-8.5453200">
        <ele>237.0</ele>
        <time>2022-06-19T11:07:11Z</time>
      </trkpt>
      <trkpt lat="42.8782030" lon="-8.5453080">
        <ele>237.0</ele>
        <time>2022-06-19T11:07:12Z</time>
      </trkpt>
      <trkpt lat="42.8782160" lon="-8.5453000">
        <ele>237.0</ele>
        <time>2022-06-19T11:07:13Z</time>
      </trkpt>
      <trkpt lat="42.8782280" lon="-8.5452900">
        <ele>237.0</ele>
        <time>2022-06-19T11:07:14Z</time>
      </trkpt>
      <trkpt lat="42.8782410" lon="-8.5452860">
        <ele>237.0</ele>
        <time>2022-06-19T11:07:15Z</time>
      </trkpt>
      <trkpt lat="42.8782550" lon="-8.5452680">
        <ele>237.0</ele>
        <time>2022-06-19T11:07:16Z</time>
      </trkpt>
      <trkpt lat="42.8782650" lon="-8.5452600">
        <ele>236.4</ele>
        <time>2022-06-19T11:07:17Z</time>
      </trkpt>
      <trkpt lat="42.8782700" lon="-8.5452530">
        <ele>236.6</ele>
        <time>2022-06-19T11:07:18Z</time>
      </trkpt>
      <trkpt lat="42.8782800" lon="-8.5452310">
        <ele>236.6</ele>
        <time>2022-06-19T11:07:19Z</time>
      </trkpt>
      <trkpt lat="42.8782910" lon="-8.5452180">
        <ele>236.6</ele>
        <time>2022-06-19T11:07:20Z</time>
      </trkpt>
      <trkpt lat="42.8783110" lon="-8.5452000">
        <ele>236.6</ele>
        <time>2022-06-19T11:07:21Z</time>
      </trkpt>
      <trkpt lat="42.8783250" lon="-8.5451880">
        <ele>235.6</ele>
        <time>2022-06-19T11:07:22Z</time>
      </trkpt>
      <trkpt lat="42.8783400" lon="-8.5451780">
        <ele>235.6</ele>
        <time>2022-06-19T11:07:23Z</time>
      </trkpt>
      <trkpt lat="42.8783560" lon="-8.5451850">
        <ele>235.6</ele>
        <time>2022-06-19T11:07:24Z</time>
      </trkpt>
      <trkpt lat="42.8783680" lon="-8.5451780">
        <ele>235.8</ele>
        <time>2022-06-19T11:07:25Z</time>
      </trkpt>
      <trkpt lat="42.8783830" lon="-8.5451580">
        <ele>235.6</ele>
        <time>2022-06-19T11:07:26Z</time>
      </trkpt>
      <trkpt lat="42.8783960" lon="-8.5451460">
        <ele>235.6</ele>
        <time>2022-06-19T11:07:27Z</time>
      </trkpt>
      <trkpt lat="42.8784110" lon="-8.5451380">
        <ele>235.6</ele>
        <time>2022-06-19T11:07:28Z</time>
      </trkpt>
      <trkpt lat="42.8784350" lon="-8.5451480">
        <ele>235.6</ele>
        <time>2022-06-19T11:07:29Z</time>
      </trkpt>
      <trkpt lat="42.8784510" lon="-8.5451550">
        <ele>235.8</ele>
        <time>2022-06-19T11:07:30Z</time>
      </trkpt>
      <trkpt lat="42.8784660" lon="-8.5451700">
        <ele>235.8</ele>
        <time>2022-06-19T11:07:31Z</time>
      </trkpt>
      <trkpt lat="42.8784800" lon="-8.5451830">
        <ele>235.8</ele>
        <time>2022-06-19T11:07:32Z</time>
      </trkpt>
      <trkpt lat="42.8784900" lon="-8.5451960">
        <ele>235.4</ele>
        <time>2022-06-19T11:07:33Z</time>
      </trkpt>
      <trkpt lat="42.8785000" lon="-8.5452080">
        <ele>235.8</ele>
        <time>2022-06-19T11:07:34Z</time>
      </trkpt>
      <trkpt lat="42.8785100" lon="-8.5452160">
        <ele>235.8</ele>
        <time>2022-06-19T11:07:35Z</time>
      </trkpt>
      <trkpt lat="42.8785100" lon="-8.5452160">
        <ele>235.8</ele>
        <time>2022-06-19T11:07:36Z</time>
      </trkpt>
      <trkpt lat="42.8786080" lon="-8.5452000">
        <ele>235.8</ele>
        <time>2022-06-19T11:07:45Z</time>
      </trkpt>
      <trkpt lat="42.8786210" lon="-8.5452080">
        <ele>235.2</ele>
        <time>2022-06-19T11:07:46Z</time>
      </trkpt>
      <trkpt lat="42.8786280" lon="-8.5452050">
        <ele>235.2</ele>
        <time>2022-06-19T11:07:47Z</time>
      </trkpt>
      <trkpt lat="42.8786350" lon="-8.5451960">
        <ele>235.2</ele>
        <time>2022-06-19T11:07:48Z</time>
      </trkpt>
      <trkpt lat="42.8786380" lon="-8.5452010">
        <ele>235.2</ele>
        <time>2022-06-19T11:07:49Z</time>
      </trkpt>
      <trkpt lat="42.8786380" lon="-8.5452010">
        <ele>234.8</ele>
        <time>2022-06-19T11:07:50Z</time>
      </trkpt>
      <trkpt lat="42.8786510" lon="-8.5452050">
        <ele>234.8</ele>
        <time>2022-06-19T11:07:51Z</time>
      </trkpt>
      <trkpt lat="42.8786600" lon="-8.5452030">
        <ele>234.8</ele>
        <time>2022-06-19T11:07:52Z</time>
      </trkpt>
      <trkpt lat="42.8786630" lon="-8.5451900">
        <ele>234.8</ele>
        <time>2022-06-19T11:07:53Z</time>
      </trkpt>
      <trkpt lat="42.8786660" lon="-8.5451850">
        <ele>235.2</ele>
        <time>2022-06-19T11:07:54Z</time>
      </trkpt>
      <trkpt lat="42.8787460" lon="-8.5452010">
        <ele>234.0</ele>
        <time>2022-06-19T11:08:01Z</time>
      </trkpt>
      <trkpt lat="42.8787700" lon="-8.5452050">
        <ele>234.2</ele>
        <time>2022-06-19T11:08:02Z</time>
      </trkpt>
      <trkpt lat="42.8787910" lon="-8.5451980">
        <ele>234.2</ele>
        <time>2022-06-19T11:08:03Z</time>
      </trkpt>
      <trkpt lat="42.8788080" lon="-8.5451730">
        <ele>234.2</ele>
        <time>2022-06-19T11:08:04Z</time>
      </trkpt>
      <trkpt lat="42.8788260" lon="-8.5451650">
        <ele>234.2</ele>
        <time>2022-06-19T11:08:05Z</time>
      </trkpt>
      <trkpt lat="42.8788410" lon="-8.5451330">
        <ele>233.8</ele>
        <time>2022-06-19T11:08:06Z</time>
      </trkpt>
      <trkpt lat="42.8788530" lon="-8.5451400">
        <ele>233.8</ele>
        <time>2022-06-19T11:08:07Z</time>
      </trkpt>
      <trkpt lat="42.8788780" lon="-8.5451400">
        <ele>233.8</ele>
        <time>2022-06-19T11:08:08Z</time>
      </trkpt>
      <trkpt lat="42.8789060" lon="-8.5451480">
        <ele>233.8</ele>
        <time>2022-06-19T11:08:09Z</time>
      </trkpt>
      <trkpt lat="42.8789180" lon="-8.5451360">
        <ele>234.0</ele>
        <time>2022-06-19T11:08:10Z</time>
      </trkpt>
      <trkpt lat="42.8789250" lon="-8.5451410">
        <ele>234.0</ele>
        <time>2022-06-19T11:08:11Z</time>
      </trkpt>
      <trkpt lat="42.8789310" lon="-8.5451450">
        <ele>234.0</ele>
        <time>2022-06-19T11:08:12Z</time>
      </trkpt>
      <trkpt lat="42.8789310" lon="-8.5451450">
        <ele>234.0</ele>
        <time>2022-06-19T11:08:13Z</time>
      </trkpt>
      <trkpt lat="42.8790630" lon="-8.5451410">
        <ele>233.6</ele>
        <time>2022-06-19T11:08:40Z</time>
      </trkpt>
      <trkpt lat="42.8790880" lon="-8.5451300">
        <ele>233.6</ele>
        <time>2022-06-19T11:08:41Z</time>
      </trkpt>
      <trkpt lat="42.8791050" lon="-8.5451250">
        <ele>233.4</ele>
        <time>2022-06-19T11:08:42Z</time>
      </trkpt>
      <trkpt lat="42.8791230" lon="-8.5451210">
        <ele>233.4</ele>
        <time>2022-06-19T11:08:43Z</time>
      </trkpt>
      <trkpt lat="42.8791380" lon="-8.5451130">
        <ele>233.4</ele>
        <time>2022-06-19T11:08:44Z</time>
      </trkpt>
      <trkpt lat="42.8791600" lon="-8.5451100">
        <ele>233.4</ele>
        <time>2022-06-19T11:08:45Z</time>
      </trkpt>
      <trkpt lat="42.8791760" lon="-8.5451050">
        <ele>233.8</ele>
        <time>2022-06-19T11:08:46Z</time>
      </trkpt>
      <trkpt lat="42.8791910" lon="-8.5451010">
        <ele>233.8</ele>
        <time>2022-06-19T11:08:47Z</time>
      </trkpt>
      <trkpt lat="42.8792100" lon="-8.5450910">
        <ele>233.8</ele>
        <time>2022-06-19T11:08:48Z</time>
      </trkpt>
      <trkpt lat="42.8792280" lon="-8.5450930">
        <ele>232.8</ele>
        <time>2022-06-19T11:08:49Z</time>
      </trkpt>
      <trkpt lat="42.8792450" lon="-8.5450900">
        <ele>233.8</ele>
        <time>2022-06-19T11:08:50Z</time>
      </trkpt>
      <trkpt lat="42.8792600" lon="-8.5451080">
        <ele>233.8</ele>
        <time>2022-06-19T11:08:51Z</time>
      </trkpt>
      <trkpt lat="42.8792810" lon="-8.5451000">
        <ele>233.8</ele>
        <time>2022-06-19T11:08:52Z</time>
      </trkpt>
      <trkpt lat="42.8793030" lon="-8.5450960">
        <ele>234.0</ele>
        <time>2022-06-19T11:08:53Z</time>
      </trkpt>
      <trkpt lat="42.8793260" lon="-8.5451050">
        <ele>234.0</ele>
        <time>2022-06-19T11:08:54Z</time>
      </trkpt>
      <trkpt lat="42.8793480" lon="-8.5450980">
        <ele>234.0</ele>
        <time>2022-06-19T11:08:55Z</time>
      </trkpt>
      <trkpt lat="42.8793700" lon="-8.5450910">
        <ele>234.0</ele>
        <time>2022-06-19T11:08:56Z</time>
      </trkpt>
      <trkpt lat="42.8793930" lon="-8.5450760">
        <ele>234.0</ele>
        <time>2022-06-19T11:08:57Z</time>
      </trkpt>
      <trkpt lat="42.8794180" lon="-8.5450700">
        <ele>234.4</ele>
        <time>2022-06-19T11:08:58Z</time>
      </trkpt>
      <trkpt lat="42.8794410" lon="-8.5450600">
        <ele>234.4</ele>
        <time>2022-06-19T11:08:59Z</time>
      </trkpt>
      <trkpt lat="42.8794530" lon="-8.5450610">
        <ele>234.4</ele>
        <time>2022-06-19T11:09:00Z</time>
      </trkpt>
      <trkpt lat="42.8794660" lon="-8.5450580">
        <ele>234.0</ele>
        <time>2022-06-19T11:09:01Z</time>
      </trkpt>
      <trkpt lat="42.8794760" lon="-8.5450730">
        <ele>234.4</ele>
        <time>2022-06-19T11:09:02Z</time>
      </trkpt>
      <trkpt lat="42.8794800" lon="-8.5450760">
        <ele>234.4</ele>
        <time>2022-06-19T11:09:03Z</time>
      </trkpt>
      <trkpt lat="42.8795030" lon="-8.5450900">
        <ele>234.4</ele>
        <time>2022-06-19T11:09:04Z</time>
      </trkpt>
      <trkpt lat="42.8795210" lon="-8.5451010">
        <ele>234.0</ele>
        <time>2022-06-19T11:09:05Z</time>
      </trkpt>
      <trkpt lat="42.8795360" lon="-8.5451100">
        <ele>234.0</ele>
        <time>2022-06-19T11:09:06Z</time>
      </trkpt>
      <trkpt lat="42.8795530" lon="-8.5451180">
        <ele>234.0</ele>
        <time>2022-06-19T11:09:07Z</time>
      </trkpt>
      <trkpt lat="42.8795700" lon="-8.5451300">
        <ele>234.0</ele>
        <time>2022-06-19T11:09:08Z</time>
      </trkpt>
      <trkpt lat="42.8795880" lon="-8.5451350">
        <ele>234.0</ele>
        <time>2022-06-19T11:09:09Z</time>
      </trkpt>
      <trkpt lat="42.8796080" lon="-8.5451360">
        <ele>234.2</ele>
        <time>2022-06-19T11:09:10Z</time>
      </trkpt>
      <trkpt lat="42.8796260" lon="-8.5451250">
        <ele>234.2</ele>
        <time>2022-06-19T11:09:11Z</time>
      </trkpt>
      <trkpt lat="42.8796460" lon="-8.5451330">
        <ele>234.2</ele>
        <time>2022-06-19T11:09:12Z</time>
      </trkpt>
      <trkpt lat="42.8796600" lon="-8.5451350">
        <ele>235.2</ele>
        <time>2022-06-19T11:09:13Z</time>
      </trkpt>
      <trkpt lat="42.8796750" lon="-8.5451260">
        <ele>235.4</ele>
        <time>2022-06-19T11:09:14Z</time>
      </trkpt>
      <trkpt lat="42.8796860" lon="-8.5451310">
        <ele>235.4</ele>
        <time>2022-06-19T11:09:15Z</time>
      </trkpt>
      <trkpt lat="42.8796930" lon="-8.5451360">
        <ele>235.4</ele>
        <time>2022-06-19T11:09:16Z</time>
      </trkpt>
      <trkpt lat="42.8797050" lon="-8.5451450">
        <ele>235.8</ele>
        <time>2022-06-19T11:09:17Z</time>
      </trkpt>
      <trkpt lat="42.8797150" lon="-8.5451530">
        <ele>235.6</ele>
        <time>2022-06-19T11:09:18Z</time>
      </trkpt>
      <trkpt lat="42.8797280" lon="-8.5451560">
        <ele>235.6</ele>
        <time>2022-06-19T11:09:19Z</time>
      </trkpt>
      <trkpt lat="42.8797380" lon="-8.5451680">
        <ele>235.6</ele>
        <time>2022-06-19T11:09:20Z</time>
      </trkpt>
      <trkpt lat="42.8797460" lon="-8.5451750">
        <ele>235.2</ele>
        <time>2022-06-19T11:09:21Z</time>
      </trkpt>
      <trkpt lat="42.8797600" lon="-8.5451830">
        <ele>235.2</ele>
        <time>2022-06-19T11:09:22Z</time>
      </trkpt>
      <trkpt lat="42.8797780" lon="-8.5451900">
        <ele>235.2</ele>
        <time>2022-06-19T11:09:23Z</time>
      </trkpt>
      <trkpt lat="42.8797950" lon="-8.5451960">
        <ele>235.2</ele>
        <time>2022-06-19T11:09:24Z</time>
      </trkpt>
      <trkpt lat="42.8798100" lon="-8.5451980">
        <ele>235.2</ele>
        <time>2022-06-19T11:09:25Z</time>
      </trkpt>
      <trkpt lat="42.8798300" lon="-8.5452000">
        <ele>234.8</ele>
        <time>2022-06-19T11:09:26Z</time>
      </trkpt>
      <trkpt lat="42.8798510" lon="-8.5452000">
        <ele>234.8</ele>
        <time>2022-06-19T11:09:27Z</time>
      </trkpt>
      <trkpt lat="42.8798680" lon="-8.5452030">
        <ele>234.8</ele>
        <time>2022-06-19T11:09:28Z</time>
      </trkpt>
      <trkpt lat="42.8798810" lon="-8.5452050">
        <ele>234.8</ele>
        <time>2022-06-19T11:09:29Z</time>
      </trkpt>
      <trkpt lat="42.8799010" lon="-8.5452030">
        <ele>234.8</ele>
        <time>2022-06-19T11:09:30Z</time>
      </trkpt>
      <trkpt lat="42.8799180" lon="-8.5452110">
        <ele>234.8</ele>
        <time>2022-06-19T11:09:31Z</time>
      </trkpt>
      <trkpt lat="42.8799360" lon="-8.5452110">
        <ele>234.8</ele>
        <time>2022-06-19T11:09:32Z</time>
      </trkpt>
      <trkpt lat="42.8799560" lon="-8.5452200">
        <ele>235.8</ele>
        <time>2022-06-19T11:09:33Z</time>
      </trkpt>
      <trkpt lat="42.8799750" lon="-8.5452250">
        <ele>236.2</ele>
        <time>2022-06-19T11:09:34Z</time>
      </trkpt>
      <trkpt lat="42.8799910" lon="-8.5452330">
        <ele>236.2</ele>
        <time>2022-06-19T11:09:35Z</time>
      </trkpt>
      <trkpt lat="42.8800110" lon="-8.5452460">
        <ele>236.2</ele>
        <time>2022-06-19T11:09:36Z</time>
      </trkpt>
      <trkpt lat="42.8800260" lon="-8.5452550">
        <ele>236.2</ele>
        <time>2022-06-19T11:09:37Z</time>
      </trkpt>
      <trkpt lat="42.8800430" lon="-8.5452560">
        <ele>235.4</ele>
        <time>2022-06-19T11:09:38Z</time>
      </trkpt>
      <trkpt lat="42.8800630" lon="-8.5452600">
        <ele>235.4</ele>
        <time>2022-06-19T11:09:39Z</time>
      </trkpt>
      <trkpt lat="42.8800810" lon="-8.5452500">
        <ele>235.4</ele>
        <time>2022-06-19T11:09:40Z</time>
      </trkpt>
      <trkpt lat="42.8801000" lon="-8.5452430">
        <ele>236.4</ele>
        <time>2022-06-19T11:09:41Z</time>
      </trkpt>
      <trkpt lat="42.8801160" lon="-8.5452450">
        <ele>235.8</ele>
        <time>2022-06-19T11:09:42Z</time>
      </trkpt>
      <trkpt lat="42.8801360" lon="-8.5452530">
        <ele>235.8</ele>
        <time>2022-06-19T11:09:43Z</time>
      </trkpt>
      <trkpt lat="42.8801580" lon="-8.5452650">
        <ele>235.8</ele>
        <time>2022-06-19T11:09:44Z</time>
      </trkpt>
      <trkpt lat="42.8801730" lon="-8.5452780">
        <ele>236.0</ele>
        <time>2022-06-19T11:09:45Z</time>
      </trkpt>
      <trkpt lat="42.8801880" lon="-8.5452830">
        <ele>236.4</ele>
        <time>2022-06-19T11:09:46Z</time>
      </trkpt>
      <trkpt lat="42.8802000" lon="-8.5452980">
        <ele>236.4</ele>
        <time>2022-06-19T11:09:47Z</time>
      </trkpt>
      <trkpt lat="42.8802130" lon="-8.5453100">
        <ele>236.4</ele>
        <time>2022-06-19T11:09:48Z</time>
      </trkpt>
      <trkpt lat="42.8802250" lon="-8.5453210">
        <ele>236.4</ele>
        <time>2022-06-19T11:09:49Z</time>
      </trkpt>
      <trkpt lat="42.8802360" lon="-8.5453350">
        <ele>236.2</ele>
        <time>2022-06-19T11:09:50Z</time>
      </trkpt>
      <trkpt lat="42.8802480" lon="-8.5453450">
        <ele>236.2</ele>
        <time>2022-06-19T11:09:51Z</time>
      </trkpt>
      <trkpt lat="42.8802600" lon="-8.5453480">
        <ele>236.2</ele>
        <time>2022-06-19T11:09:52Z</time>
      </trkpt>
      <trkpt lat="42.8802710" lon="-8.5453530">
        <ele>235.6</ele>
        <time>2022-06-19T11:09:53Z</time>
      </trkpt>
      <trkpt lat="42.8802810" lon="-8.5453610">
        <ele>236.2</ele>
        <time>2022-06-19T11:09:54Z</time>
      </trkpt>
      <trkpt lat="42.8802930" lon="-8.5453710">
        <ele>236.2</ele>
        <time>2022-06-19T11:09:55Z</time>
      </trkpt>
      <trkpt lat="42.8803030" lon="-8.5453830">
        <ele>236.2</ele>
        <time>2022-06-19T11:09:56Z</time>
      </trkpt>
      <trkpt lat="42.8803130" lon="-8.5453960">
        <ele>236.2</ele>
        <time>2022-06-19T11:09:57Z</time>
      </trkpt>
      <trkpt lat="42.8803300" lon="-8.5454050">
        <ele>235.6</ele>
        <time>2022-06-19T11:09:58Z</time>
      </trkpt>
      <trkpt lat="42.8803430" lon="-8.5454110">
        <ele>235.6</ele>
        <time>2022-06-19T11:09:59Z</time>
      </trkpt>
      <trkpt lat="42.8803510" lon="-8.5454230">
        <ele>235.6</ele>
        <time>2022-06-19T11:10:00Z</time>
      </trkpt>
      <trkpt lat="42.8803580" lon="-8.5454360">
        <ele>236.6</ele>
        <time>2022-06-19T11:10:01Z</time>
      </trkpt>
      <trkpt lat="42.8803610" lon="-8.5454430">
        <ele>236.6</ele>
        <time>2022-06-19T11:10:02Z</time>
      </trkpt>
      <trkpt lat="42.8803610" lon="-8.5454430">
        <ele>236.6</ele>
        <time>2022-06-19T11:10:03Z</time>
      </trkpt>
      <trkpt lat="42.8803950" lon="-8.5454850">
        <ele>236.4</ele>
        <time>2022-06-19T11:10:40Z</time>
      </trkpt>
      <trkpt lat="42.8804000" lon="-8.5455000">
        <ele>236.6</ele>
        <time>2022-06-19T11:10:41Z</time>
      </trkpt>
      <trkpt lat="42.8804050" lon="-8.5455080">
        <ele>236.6</ele>
        <time>2022-06-19T11:10:42Z</time>
      </trkpt>
      <trkpt lat="42.8804060" lon="-8.5455200">
        <ele>236.6</ele>
        <time>2022-06-19T11:10:43Z</time>
      </trkpt>
      <trkpt lat="42.8804060" lon="-8.5455300">
        <ele>236.6</ele>
        <time>2022-06-19T11:10:44Z</time>
      </trkpt>
      <trkpt lat="42.8804080" lon="-8.5455450">
        <ele>236.6</ele>
        <time>2022-06-19T11:10:45Z</time>
      </trkpt>
      <trkpt lat="42.8804110" lon="-8.5455580">
        <ele>236.4</ele>
        <time>2022-06-19T11:10:46Z</time>
      </trkpt>
      <trkpt lat="42.8804130" lon="-8.5455680">
        <ele>236.4</ele>
        <time>2022-06-19T11:10:47Z</time>
      </trkpt>
      <trkpt lat="42.8804180" lon="-8.5455760">
        <ele>236.4</ele>
        <time>2022-06-19T11:10:48Z</time>
      </trkpt>
      <trkpt lat="42.8804210" lon="-8.5455860">
        <ele>236.4</ele>
        <time>2022-06-19T11:10:49Z</time>
      </trkpt>
      <trkpt lat="42.8804250" lon="-8.5455930">
        <ele>235.6</ele>
        <time>2022-06-19T11:10:50Z</time>
      </trkpt>
      <trkpt lat="42.8804250" lon="-8.5455930">
        <ele>235.6</ele>
        <time>2022-06-19T11:10:51Z</time>
      </trkpt>
      <trkpt lat="42.8804250" lon="-8.5455930">
        <ele>235.6</ele>
        <time>2022-06-19T11:10:52Z</time>
      </trkpt>
      <trkpt lat="42.8804100" lon="-8.5456810">
        <ele>236.0</ele>
        <time>2022-06-19T11:11:01Z</time>
      </trkpt>
      <trkpt lat="42.8804080" lon="-8.5456950">
        <ele>236.0</ele>
        <time>2022-06-19T11:11:02Z</time>
      </trkpt>
      <trkpt lat="42.8804110" lon="-8.5457050">
        <ele>236.0</ele>
        <time>2022-06-19T11:11:03Z</time>
      </trkpt>
      <trkpt lat="42.8804180" lon="-8.5457150">
        <ele>236.0</ele>
        <time>2022-06-19T11:11:04Z</time>
      </trkpt>
      <trkpt lat="42.8804230" lon="-8.5457230">
        <ele>236.0</ele>
        <time>2022-06-19T11:11:05Z</time>
      </trkpt>
      <trkpt lat="42.8804260" lon="-8.5457260">
        <ele>236.2</ele>
        <time>2022-06-19T11:11:06Z</time>
      </trkpt>
      <trkpt lat="42.8804310" lon="-8.5457360">
        <ele>236.2</ele>
        <time>2022-06-19T11:11:07Z</time>
      </trkpt>
      <trkpt lat="42.8804360" lon="-8.5457480">
        <ele>236.2</ele>
        <time>2022-06-19T11:11:08Z</time>
      </trkpt>
      <trkpt lat="42.8804360" lon="-8.5457530">
        <ele>236.2</ele>
        <time>2022-06-19T11:11:09Z</time>
      </trkpt>
      <trkpt lat="42.8804360" lon="-8.5457530">
        <ele>236.4</ele>
        <time>2022-06-19T11:11:10Z</time>
      </trkpt>
    </trkseg>
  </trk>
</gpx>
